<?xml version="1.0" encoding="UTF-8" standalone="no" ?>
<gpx xmlns="http://www.topografix.com/GPX/1/1" xmlns:xsi="http://www.w3.org/2001/XMLSchema-instance" xsi:schemaLocation="http://www.topografix.com/GPX/1/1 http://www.topografix.com/GPX/1/1/gpx.xsd" version="1.1" creator="VisuGPX - https://www.visugpx.com">
  <metadata>
    <name>SaintNazaire-Pornichet-Immaculé-Pornichet-SaintNazaire</name>
    <desc><![CDATA[Super Sortie, permet de découvrir le coin. A réaliser avec un bon entrainement.]]></desc>
  </metadata>
  <trk>
    <name><![CDATA[SaintNazaire-Pornichet-Immaculé-Pornichet-SaintNazaire_1]]></name>
    <extensions>
      <line xmlns="http://www.topografix.com/GPX/gpx_style/0/2">
        <color>0000FF</color>
        <width>4</width>
      </line>
    </extensions>
    <trkseg>
      <trkpt lat="47.27125" lon="-2.20505">
        <ele>8</ele>
        <time>2021-05-23T06:10:57.982Z</time>
      </trkpt>
      <trkpt lat="47.27125" lon="-2.20505">
        <ele>8</ele>
        <time>2021-05-23T06:10:58.982Z</time>
      </trkpt>
      <trkpt lat="47.27125" lon="-2.20505">
        <ele>8</ele>
        <time>2021-05-23T06:10:59.982Z</time>
      </trkpt>
      <trkpt lat="47.27125" lon="-2.20505">
        <ele>8</ele>
        <time>2021-05-23T06:11:00.982Z</time>
      </trkpt>
      <trkpt lat="47.27125" lon="-2.20505">
        <ele>8</ele>
        <time>2021-05-23T06:11:01.983Z</time>
      </trkpt>
      <trkpt lat="47.27125" lon="-2.20505">
        <ele>8</ele>
        <time>2021-05-23T06:11:02.983Z</time>
      </trkpt>
      <trkpt lat="47.27125" lon="-2.20505">
        <ele>8</ele>
        <time>2021-05-23T06:11:03.982Z</time>
      </trkpt>
      <trkpt lat="47.27125" lon="-2.20505">
        <ele>8</ele>
        <time>2021-05-23T06:11:04.982Z</time>
      </trkpt>
      <trkpt lat="47.27125" lon="-2.20505">
        <ele>8</ele>
        <time>2021-05-23T06:11:05.983Z</time>
      </trkpt>
      <trkpt lat="47.27125" lon="-2.20506">
        <ele>8</ele>
        <time>2021-05-23T06:11:06.982Z</time>
      </trkpt>
      <trkpt lat="47.27125" lon="-2.20507">
        <ele>8</ele>
        <time>2021-05-23T06:11:07.983Z</time>
      </trkpt>
      <trkpt lat="47.27125" lon="-2.20507">
        <ele>8</ele>
        <time>2021-05-23T06:11:08.983Z</time>
      </trkpt>
      <trkpt lat="47.27125" lon="-2.20507">
        <ele>8</ele>
        <time>2021-05-23T06:11:09.982Z</time>
      </trkpt>
      <trkpt lat="47.27125" lon="-2.20507">
        <ele>8</ele>
        <time>2021-05-23T06:11:10.983Z</time>
      </trkpt>
      <trkpt lat="47.27125" lon="-2.20507">
        <ele>8</ele>
        <time>2021-05-23T06:11:11.983Z</time>
      </trkpt>
      <trkpt lat="47.27125" lon="-2.20507">
        <ele>8</ele>
        <time>2021-05-23T06:11:12.982Z</time>
      </trkpt>
      <trkpt lat="47.27125" lon="-2.20507">
        <ele>8</ele>
        <time>2021-05-23T06:11:13.982Z</time>
      </trkpt>
      <trkpt lat="47.27125" lon="-2.20507">
        <ele>8</ele>
        <time>2021-05-23T06:11:14.983Z</time>
      </trkpt>
      <trkpt lat="47.27125" lon="-2.20507">
        <ele>8</ele>
        <time>2021-05-23T06:11:15.983Z</time>
      </trkpt>
      <trkpt lat="47.27125" lon="-2.20507">
        <ele>8</ele>
        <time>2021-05-23T06:11:16.983Z</time>
      </trkpt>
      <trkpt lat="47.27125" lon="-2.20507">
        <ele>8</ele>
        <time>2021-05-23T06:11:17.983Z</time>
      </trkpt>
      <trkpt lat="47.27125" lon="-2.20507">
        <ele>8</ele>
        <time>2021-05-23T06:11:18.982Z</time>
      </trkpt>
      <trkpt lat="47.27125" lon="-2.20507">
        <ele>8</ele>
        <time>2021-05-23T06:11:19.982Z</time>
      </trkpt>
      <trkpt lat="47.27125" lon="-2.20507">
        <ele>7</ele>
        <time>2021-05-23T06:11:20.983Z</time>
      </trkpt>
      <trkpt lat="47.27125" lon="-2.20507">
        <ele>7</ele>
        <time>2021-05-23T06:11:21.983Z</time>
      </trkpt>
      <trkpt lat="47.27125" lon="-2.20507">
        <ele>7</ele>
        <time>2021-05-23T06:11:22.982Z</time>
      </trkpt>
      <trkpt lat="47.27125" lon="-2.20507">
        <ele>7</ele>
        <time>2021-05-23T06:11:23.982Z</time>
      </trkpt>
      <trkpt lat="47.27125" lon="-2.20507">
        <ele>7</ele>
        <time>2021-05-23T06:11:24.983Z</time>
      </trkpt>
      <trkpt lat="47.27125" lon="-2.20507">
        <ele>7</ele>
        <time>2021-05-23T06:11:25.983Z</time>
      </trkpt>
      <trkpt lat="47.27125" lon="-2.20507">
        <ele>7</ele>
        <time>2021-05-23T06:11:26.983Z</time>
      </trkpt>
      <trkpt lat="47.27125" lon="-2.20507">
        <ele>7</ele>
        <time>2021-05-23T06:11:27.983Z</time>
      </trkpt>
      <trkpt lat="47.27125" lon="-2.20507">
        <ele>7</ele>
        <time>2021-05-23T06:11:28.983Z</time>
      </trkpt>
      <trkpt lat="47.27125" lon="-2.20507">
        <ele>7</ele>
        <time>2021-05-23T06:11:29.982Z</time>
      </trkpt>
      <trkpt lat="47.27125" lon="-2.20507">
        <ele>7</ele>
        <time>2021-05-23T06:11:30.983Z</time>
      </trkpt>
      <trkpt lat="47.27125" lon="-2.20508">
        <ele>7</ele>
        <time>2021-05-23T06:11:31.983Z</time>
      </trkpt>
      <trkpt lat="47.27126" lon="-2.20511">
        <ele>7</ele>
        <time>2021-05-23T06:11:32.983Z</time>
      </trkpt>
      <trkpt lat="47.27127" lon="-2.20513">
        <ele>7</ele>
        <time>2021-05-23T06:11:33.983Z</time>
      </trkpt>
      <trkpt lat="47.27128" lon="-2.20516">
        <ele>6</ele>
        <time>2021-05-23T06:11:34.983Z</time>
      </trkpt>
      <trkpt lat="47.27129" lon="-2.2052">
        <ele>6</ele>
        <time>2021-05-23T06:11:35.982Z</time>
      </trkpt>
      <trkpt lat="47.27129" lon="-2.20523">
        <ele>5</ele>
        <time>2021-05-23T06:11:36.982Z</time>
      </trkpt>
      <trkpt lat="47.2713" lon="-2.20527">
        <ele>5</ele>
        <time>2021-05-23T06:11:37.983Z</time>
      </trkpt>
      <trkpt lat="47.27131" lon="-2.2053">
        <ele>4</ele>
        <time>2021-05-23T06:11:38.982Z</time>
      </trkpt>
      <trkpt lat="47.27132" lon="-2.20534">
        <ele>4</ele>
        <time>2021-05-23T06:11:39.982Z</time>
      </trkpt>
      <trkpt lat="47.27133" lon="-2.20538">
        <ele>4</ele>
        <time>2021-05-23T06:11:40.983Z</time>
      </trkpt>
      <trkpt lat="47.27133" lon="-2.20542">
        <ele>5</ele>
        <time>2021-05-23T06:11:41.983Z</time>
      </trkpt>
      <trkpt lat="47.27133" lon="-2.20545">
        <ele>5</ele>
        <time>2021-05-23T06:11:42.982Z</time>
      </trkpt>
      <trkpt lat="47.27133" lon="-2.20548">
        <ele>5</ele>
        <time>2021-05-23T06:11:43.983Z</time>
      </trkpt>
      <trkpt lat="47.27133" lon="-2.20551">
        <ele>5</ele>
        <time>2021-05-23T06:11:44.983Z</time>
      </trkpt>
      <trkpt lat="47.27134" lon="-2.20555">
        <ele>5</ele>
        <time>2021-05-23T06:11:45.983Z</time>
      </trkpt>
      <trkpt lat="47.27134" lon="-2.20558">
        <ele>4</ele>
        <time>2021-05-23T06:11:46.982Z</time>
      </trkpt>
      <trkpt lat="47.27133" lon="-2.20562">
        <ele>4</ele>
        <time>2021-05-23T06:11:47.982Z</time>
      </trkpt>
      <trkpt lat="47.27133" lon="-2.20565">
        <ele>3</ele>
        <time>2021-05-23T06:11:48.983Z</time>
      </trkpt>
      <trkpt lat="47.27132" lon="-2.20568">
        <ele>3</ele>
        <time>2021-05-23T06:11:49.983Z</time>
      </trkpt>
      <trkpt lat="47.27131" lon="-2.20571">
        <ele>3</ele>
        <time>2021-05-23T06:11:50.982Z</time>
      </trkpt>
      <trkpt lat="47.27131" lon="-2.20574">
        <ele>3</ele>
        <time>2021-05-23T06:11:51.983Z</time>
      </trkpt>
      <trkpt lat="47.2713" lon="-2.20578">
        <ele>3</ele>
        <time>2021-05-23T06:11:52.983Z</time>
      </trkpt>
      <trkpt lat="47.27129" lon="-2.20581">
        <ele>3</ele>
        <time>2021-05-23T06:11:53.983Z</time>
      </trkpt>
      <trkpt lat="47.27129" lon="-2.20585">
        <ele>2</ele>
        <time>2021-05-23T06:11:54.982Z</time>
      </trkpt>
      <trkpt lat="47.27128" lon="-2.20588">
        <ele>2</ele>
        <time>2021-05-23T06:11:55.983Z</time>
      </trkpt>
      <trkpt lat="47.27128" lon="-2.20592">
        <ele>2</ele>
        <time>2021-05-23T06:11:56.983Z</time>
      </trkpt>
      <trkpt lat="47.27127" lon="-2.20594">
        <ele>2</ele>
        <time>2021-05-23T06:11:57.982Z</time>
      </trkpt>
      <trkpt lat="47.27127" lon="-2.20597">
        <ele>3</ele>
        <time>2021-05-23T06:11:58.983Z</time>
      </trkpt>
      <trkpt lat="47.27126" lon="-2.20601">
        <ele>3</ele>
        <time>2021-05-23T06:11:59.982Z</time>
      </trkpt>
      <trkpt lat="47.27126" lon="-2.20604">
        <ele>3</ele>
        <time>2021-05-23T06:12:00.983Z</time>
      </trkpt>
      <trkpt lat="47.27125" lon="-2.20607">
        <ele>3</ele>
        <time>2021-05-23T06:12:01.982Z</time>
      </trkpt>
      <trkpt lat="47.27124" lon="-2.2061">
        <ele>3</ele>
        <time>2021-05-23T06:12:02.983Z</time>
      </trkpt>
      <trkpt lat="47.27124" lon="-2.20614">
        <ele>3</ele>
        <time>2021-05-23T06:12:03.982Z</time>
      </trkpt>
      <trkpt lat="47.27124" lon="-2.20618">
        <ele>3</ele>
        <time>2021-05-23T06:12:04.983Z</time>
      </trkpt>
      <trkpt lat="47.27123" lon="-2.20621">
        <ele>3</ele>
        <time>2021-05-23T06:12:05.983Z</time>
      </trkpt>
      <trkpt lat="47.27123" lon="-2.20624">
        <ele>3</ele>
        <time>2021-05-23T06:12:06.983Z</time>
      </trkpt>
      <trkpt lat="47.27123" lon="-2.20628">
        <ele>3</ele>
        <time>2021-05-23T06:12:07.982Z</time>
      </trkpt>
      <trkpt lat="47.27122" lon="-2.20631">
        <ele>3</ele>
        <time>2021-05-23T06:12:08.982Z</time>
      </trkpt>
      <trkpt lat="47.27122" lon="-2.20634">
        <ele>3</ele>
        <time>2021-05-23T06:12:09.983Z</time>
      </trkpt>
      <trkpt lat="47.27121" lon="-2.20637">
        <ele>3</ele>
        <time>2021-05-23T06:12:10.983Z</time>
      </trkpt>
      <trkpt lat="47.27121" lon="-2.2064">
        <ele>3</ele>
        <time>2021-05-23T06:12:11.983Z</time>
      </trkpt>
      <trkpt lat="47.2712" lon="-2.20644">
        <ele>3</ele>
        <time>2021-05-23T06:12:12.983Z</time>
      </trkpt>
      <trkpt lat="47.2712" lon="-2.20647">
        <ele>3</ele>
        <time>2021-05-23T06:12:13.983Z</time>
      </trkpt>
      <trkpt lat="47.27119" lon="-2.20651">
        <ele>3</ele>
        <time>2021-05-23T06:12:14.982Z</time>
      </trkpt>
      <trkpt lat="47.27118" lon="-2.20654">
        <ele>3</ele>
        <time>2021-05-23T06:12:15.983Z</time>
      </trkpt>
      <trkpt lat="47.27118" lon="-2.20657">
        <ele>4</ele>
        <time>2021-05-23T06:12:16.983Z</time>
      </trkpt>
      <trkpt lat="47.27117" lon="-2.20661">
        <ele>4</ele>
        <time>2021-05-23T06:12:17.983Z</time>
      </trkpt>
      <trkpt lat="47.27117" lon="-2.20665">
        <ele>4</ele>
        <time>2021-05-23T06:12:18.983Z</time>
      </trkpt>
      <trkpt lat="47.27116" lon="-2.20668">
        <ele>4</ele>
        <time>2021-05-23T06:12:19.982Z</time>
      </trkpt>
      <trkpt lat="47.27116" lon="-2.20671">
        <ele>3</ele>
        <time>2021-05-23T06:12:20.982Z</time>
      </trkpt>
      <trkpt lat="47.27116" lon="-2.20675">
        <ele>3</ele>
        <time>2021-05-23T06:12:21.983Z</time>
      </trkpt>
      <trkpt lat="47.27115" lon="-2.20678">
        <ele>4</ele>
        <time>2021-05-23T06:12:22.983Z</time>
      </trkpt>
      <trkpt lat="47.27115" lon="-2.20681">
        <ele>4</ele>
        <time>2021-05-23T06:12:23.983Z</time>
      </trkpt>
      <trkpt lat="47.27114" lon="-2.20685">
        <ele>4</ele>
        <time>2021-05-23T06:12:24.982Z</time>
      </trkpt>
      <trkpt lat="47.27114" lon="-2.20688">
        <ele>4</ele>
        <time>2021-05-23T06:12:25.982Z</time>
      </trkpt>
      <trkpt lat="47.27114" lon="-2.20692">
        <ele>4</ele>
        <time>2021-05-23T06:12:26.982Z</time>
      </trkpt>
      <trkpt lat="47.27113" lon="-2.20695">
        <ele>4</ele>
        <time>2021-05-23T06:12:27.983Z</time>
      </trkpt>
      <trkpt lat="47.27113" lon="-2.20698">
        <ele>5</ele>
        <time>2021-05-23T06:12:28.983Z</time>
      </trkpt>
      <trkpt lat="47.27112" lon="-2.20701">
        <ele>5</ele>
        <time>2021-05-23T06:12:29.983Z</time>
      </trkpt>
      <trkpt lat="47.27111" lon="-2.20705">
        <ele>5</ele>
        <time>2021-05-23T06:12:30.983Z</time>
      </trkpt>
      <trkpt lat="47.2711" lon="-2.20708">
        <ele>5</ele>
        <time>2021-05-23T06:12:31.983Z</time>
      </trkpt>
      <trkpt lat="47.2711" lon="-2.20712">
        <ele>5</ele>
        <time>2021-05-23T06:12:32.982Z</time>
      </trkpt>
      <trkpt lat="47.27109" lon="-2.20715">
        <ele>5</ele>
        <time>2021-05-23T06:12:33.983Z</time>
      </trkpt>
      <trkpt lat="47.27109" lon="-2.20719">
        <ele>5</ele>
        <time>2021-05-23T06:12:34.983Z</time>
      </trkpt>
      <trkpt lat="47.27108" lon="-2.20722">
        <ele>5</ele>
        <time>2021-05-23T06:12:35.982Z</time>
      </trkpt>
      <trkpt lat="47.27108" lon="-2.20725">
        <ele>5</ele>
        <time>2021-05-23T06:12:36.983Z</time>
      </trkpt>
      <trkpt lat="47.27107" lon="-2.20728">
        <ele>4</ele>
        <time>2021-05-23T06:12:37.982Z</time>
      </trkpt>
      <trkpt lat="47.27107" lon="-2.20731">
        <ele>4</ele>
        <time>2021-05-23T06:12:38.983Z</time>
      </trkpt>
      <trkpt lat="47.27106" lon="-2.20734">
        <ele>4</ele>
        <time>2021-05-23T06:12:39.982Z</time>
      </trkpt>
      <trkpt lat="47.27105" lon="-2.20738">
        <ele>4</ele>
        <time>2021-05-23T06:12:40.982Z</time>
      </trkpt>
      <trkpt lat="47.27105" lon="-2.20742">
        <ele>5</ele>
        <time>2021-05-23T06:12:41.982Z</time>
      </trkpt>
      <trkpt lat="47.27104" lon="-2.20744">
        <ele>5</ele>
        <time>2021-05-23T06:12:42.983Z</time>
      </trkpt>
      <trkpt lat="47.27104" lon="-2.20748">
        <ele>5</ele>
        <time>2021-05-23T06:12:43.982Z</time>
      </trkpt>
      <trkpt lat="47.27103" lon="-2.20751">
        <ele>6</ele>
        <time>2021-05-23T06:12:44.982Z</time>
      </trkpt>
      <trkpt lat="47.27103" lon="-2.20755">
        <ele>6</ele>
        <time>2021-05-23T06:12:45.983Z</time>
      </trkpt>
      <trkpt lat="47.27103" lon="-2.20758">
        <ele>6</ele>
        <time>2021-05-23T06:12:46.982Z</time>
      </trkpt>
      <trkpt lat="47.27103" lon="-2.20761">
        <ele>6</ele>
        <time>2021-05-23T06:12:47.982Z</time>
      </trkpt>
      <trkpt lat="47.27102" lon="-2.20764">
        <ele>6</ele>
        <time>2021-05-23T06:12:48.982Z</time>
      </trkpt>
      <trkpt lat="47.27102" lon="-2.20768">
        <ele>6</ele>
        <time>2021-05-23T06:12:49.982Z</time>
      </trkpt>
      <trkpt lat="47.27102" lon="-2.20771">
        <ele>6</ele>
        <time>2021-05-23T06:12:50.982Z</time>
      </trkpt>
      <trkpt lat="47.27101" lon="-2.20774">
        <ele>6</ele>
        <time>2021-05-23T06:12:51.983Z</time>
      </trkpt>
      <trkpt lat="47.27101" lon="-2.20778">
        <ele>6</ele>
        <time>2021-05-23T06:12:52.983Z</time>
      </trkpt>
      <trkpt lat="47.271" lon="-2.20781">
        <ele>5</ele>
        <time>2021-05-23T06:12:53.983Z</time>
      </trkpt>
      <trkpt lat="47.271" lon="-2.20785">
        <ele>5</ele>
        <time>2021-05-23T06:12:54.983Z</time>
      </trkpt>
      <trkpt lat="47.271" lon="-2.20788">
        <ele>4</ele>
        <time>2021-05-23T06:12:55.982Z</time>
      </trkpt>
      <trkpt lat="47.271" lon="-2.20791">
        <ele>3</ele>
        <time>2021-05-23T06:12:56.982Z</time>
      </trkpt>
      <trkpt lat="47.27099" lon="-2.20794">
        <ele>3</ele>
        <time>2021-05-23T06:12:57.982Z</time>
      </trkpt>
      <trkpt lat="47.27099" lon="-2.20797">
        <ele>3</ele>
        <time>2021-05-23T06:12:58.983Z</time>
      </trkpt>
      <trkpt lat="47.27099" lon="-2.20801">
        <ele>3</ele>
        <time>2021-05-23T06:12:59.983Z</time>
      </trkpt>
      <trkpt lat="47.27098" lon="-2.20804">
        <ele>2</ele>
        <time>2021-05-23T06:13:00.982Z</time>
      </trkpt>
      <trkpt lat="47.27098" lon="-2.20807">
        <ele>2</ele>
        <time>2021-05-23T06:13:01.982Z</time>
      </trkpt>
      <trkpt lat="47.27098" lon="-2.2081">
        <ele>2</ele>
        <time>2021-05-23T06:13:02.983Z</time>
      </trkpt>
      <trkpt lat="47.27098" lon="-2.20813">
        <ele>2</ele>
        <time>2021-05-23T06:13:03.983Z</time>
      </trkpt>
      <trkpt lat="47.27098" lon="-2.20816">
        <ele>2</ele>
        <time>2021-05-23T06:13:04.982Z</time>
      </trkpt>
      <trkpt lat="47.27097" lon="-2.20819">
        <ele>3</ele>
        <time>2021-05-23T06:13:05.983Z</time>
      </trkpt>
      <trkpt lat="47.27097" lon="-2.20822">
        <ele>3</ele>
        <time>2021-05-23T06:13:06.982Z</time>
      </trkpt>
      <trkpt lat="47.27097" lon="-2.20825">
        <ele>4</ele>
        <time>2021-05-23T06:13:07.982Z</time>
      </trkpt>
      <trkpt lat="47.27096" lon="-2.20828">
        <ele>4</ele>
        <time>2021-05-23T06:13:08.983Z</time>
      </trkpt>
      <trkpt lat="47.27095" lon="-2.20832">
        <ele>5</ele>
        <time>2021-05-23T06:13:09.983Z</time>
      </trkpt>
      <trkpt lat="47.27095" lon="-2.20835">
        <ele>6</ele>
        <time>2021-05-23T06:13:10.983Z</time>
      </trkpt>
      <trkpt lat="47.27094" lon="-2.20839">
        <ele>6</ele>
        <time>2021-05-23T06:13:11.982Z</time>
      </trkpt>
      <trkpt lat="47.27093" lon="-2.20842">
        <ele>6</ele>
        <time>2021-05-23T06:13:12.983Z</time>
      </trkpt>
      <trkpt lat="47.27093" lon="-2.20845">
        <ele>6</ele>
        <time>2021-05-23T06:13:13.983Z</time>
      </trkpt>
      <trkpt lat="47.27092" lon="-2.20849">
        <ele>6</ele>
        <time>2021-05-23T06:13:14.982Z</time>
      </trkpt>
      <trkpt lat="47.27092" lon="-2.20852">
        <ele>7</ele>
        <time>2021-05-23T06:13:15.983Z</time>
      </trkpt>
      <trkpt lat="47.27091" lon="-2.20855">
        <ele>7</ele>
        <time>2021-05-23T06:13:16.982Z</time>
      </trkpt>
      <trkpt lat="47.27091" lon="-2.20859">
        <ele>7</ele>
        <time>2021-05-23T06:13:17.983Z</time>
      </trkpt>
      <trkpt lat="47.2709" lon="-2.20862">
        <ele>6</ele>
        <time>2021-05-23T06:13:18.982Z</time>
      </trkpt>
      <trkpt lat="47.2709" lon="-2.20865">
        <ele>6</ele>
        <time>2021-05-23T06:13:19.982Z</time>
      </trkpt>
      <trkpt lat="47.27089" lon="-2.20868">
        <ele>5</ele>
        <time>2021-05-23T06:13:20.982Z</time>
      </trkpt>
      <trkpt lat="47.27088" lon="-2.20871">
        <ele>5</ele>
        <time>2021-05-23T06:13:21.982Z</time>
      </trkpt>
      <trkpt lat="47.27087" lon="-2.20875">
        <ele>5</ele>
        <time>2021-05-23T06:13:22.983Z</time>
      </trkpt>
      <trkpt lat="47.27086" lon="-2.20878">
        <ele>5</ele>
        <time>2021-05-23T06:13:23.982Z</time>
      </trkpt>
      <trkpt lat="47.27086" lon="-2.20881">
        <ele>5</ele>
        <time>2021-05-23T06:13:24.982Z</time>
      </trkpt>
      <trkpt lat="47.27085" lon="-2.20883">
        <ele>5</ele>
        <time>2021-05-23T06:13:25.983Z</time>
      </trkpt>
      <trkpt lat="47.27084" lon="-2.20887">
        <ele>6</ele>
        <time>2021-05-23T06:13:26.982Z</time>
      </trkpt>
      <trkpt lat="47.27083" lon="-2.2089">
        <ele>6</ele>
        <time>2021-05-23T06:13:27.982Z</time>
      </trkpt>
      <trkpt lat="47.27082" lon="-2.20893">
        <ele>6</ele>
        <time>2021-05-23T06:13:28.983Z</time>
      </trkpt>
      <trkpt lat="47.27081" lon="-2.20896">
        <ele>6</ele>
        <time>2021-05-23T06:13:29.983Z</time>
      </trkpt>
      <trkpt lat="47.2708" lon="-2.20899">
        <ele>5</ele>
        <time>2021-05-23T06:13:30.983Z</time>
      </trkpt>
      <trkpt lat="47.27079" lon="-2.20902">
        <ele>5</ele>
        <time>2021-05-23T06:13:31.982Z</time>
      </trkpt>
      <trkpt lat="47.27078" lon="-2.20905">
        <ele>5</ele>
        <time>2021-05-23T06:13:32.982Z</time>
      </trkpt>
      <trkpt lat="47.27077" lon="-2.20908">
        <ele>5</ele>
        <time>2021-05-23T06:13:33.983Z</time>
      </trkpt>
      <trkpt lat="47.27076" lon="-2.2091">
        <ele>4</ele>
        <time>2021-05-23T06:13:34.983Z</time>
      </trkpt>
      <trkpt lat="47.27076" lon="-2.20913">
        <ele>4</ele>
        <time>2021-05-23T06:13:35.983Z</time>
      </trkpt>
      <trkpt lat="47.27075" lon="-2.20917">
        <ele>4</ele>
        <time>2021-05-23T06:13:36.983Z</time>
      </trkpt>
      <trkpt lat="47.27074" lon="-2.2092">
        <ele>4</ele>
        <time>2021-05-23T06:13:37.983Z</time>
      </trkpt>
      <trkpt lat="47.27073" lon="-2.20923">
        <ele>4</ele>
        <time>2021-05-23T06:13:38.983Z</time>
      </trkpt>
      <trkpt lat="47.27072" lon="-2.20926">
        <ele>5</ele>
        <time>2021-05-23T06:13:39.982Z</time>
      </trkpt>
      <trkpt lat="47.27071" lon="-2.20929">
        <ele>5</ele>
        <time>2021-05-23T06:13:40.983Z</time>
      </trkpt>
      <trkpt lat="47.27071" lon="-2.20932">
        <ele>5</ele>
        <time>2021-05-23T06:13:41.982Z</time>
      </trkpt>
      <trkpt lat="47.2707" lon="-2.20935">
        <ele>5</ele>
        <time>2021-05-23T06:13:42.982Z</time>
      </trkpt>
      <trkpt lat="47.27069" lon="-2.20937">
        <ele>5</ele>
        <time>2021-05-23T06:13:43.983Z</time>
      </trkpt>
      <trkpt lat="47.27068" lon="-2.2094">
        <ele>5</ele>
        <time>2021-05-23T06:13:44.982Z</time>
      </trkpt>
      <trkpt lat="47.27067" lon="-2.20943">
        <ele>5</ele>
        <time>2021-05-23T06:13:45.982Z</time>
      </trkpt>
      <trkpt lat="47.27066" lon="-2.20945">
        <ele>5</ele>
        <time>2021-05-23T06:13:46.982Z</time>
      </trkpt>
      <trkpt lat="47.27065" lon="-2.20948">
        <ele>5</ele>
        <time>2021-05-23T06:13:47.982Z</time>
      </trkpt>
      <trkpt lat="47.27063" lon="-2.20951">
        <ele>5</ele>
        <time>2021-05-23T06:13:48.982Z</time>
      </trkpt>
      <trkpt lat="47.27063" lon="-2.20954">
        <ele>5</ele>
        <time>2021-05-23T06:13:49.983Z</time>
      </trkpt>
      <trkpt lat="47.27062" lon="-2.20958">
        <ele>5</ele>
        <time>2021-05-23T06:13:50.983Z</time>
      </trkpt>
      <trkpt lat="47.2706" lon="-2.20961">
        <ele>5</ele>
        <time>2021-05-23T06:13:51.982Z</time>
      </trkpt>
      <trkpt lat="47.27059" lon="-2.20964">
        <ele>5</ele>
        <time>2021-05-23T06:13:52.983Z</time>
      </trkpt>
      <trkpt lat="47.27058" lon="-2.20968">
        <ele>6</ele>
        <time>2021-05-23T06:13:53.982Z</time>
      </trkpt>
      <trkpt lat="47.27057" lon="-2.2097">
        <ele>6</ele>
        <time>2021-05-23T06:13:54.982Z</time>
      </trkpt>
      <trkpt lat="47.27056" lon="-2.20973">
        <ele>6</ele>
        <time>2021-05-23T06:13:55.982Z</time>
      </trkpt>
      <trkpt lat="47.27054" lon="-2.20976">
        <ele>6</ele>
        <time>2021-05-23T06:13:56.983Z</time>
      </trkpt>
      <trkpt lat="47.27053" lon="-2.20979">
        <ele>6</ele>
        <time>2021-05-23T06:13:57.982Z</time>
      </trkpt>
      <trkpt lat="47.27052" lon="-2.20983">
        <ele>5</ele>
        <time>2021-05-23T06:13:58.982Z</time>
      </trkpt>
      <trkpt lat="47.27051" lon="-2.20985">
        <ele>5</ele>
        <time>2021-05-23T06:13:59.982Z</time>
      </trkpt>
      <trkpt lat="47.2705" lon="-2.20988">
        <ele>5</ele>
        <time>2021-05-23T06:14:00.983Z</time>
      </trkpt>
      <trkpt lat="47.27049" lon="-2.20991">
        <ele>5</ele>
        <time>2021-05-23T06:14:01.982Z</time>
      </trkpt>
      <trkpt lat="47.27048" lon="-2.20993">
        <ele>5</ele>
        <time>2021-05-23T06:14:02.982Z</time>
      </trkpt>
      <trkpt lat="47.27047" lon="-2.20997">
        <ele>5</ele>
        <time>2021-05-23T06:14:03.982Z</time>
      </trkpt>
      <trkpt lat="47.27046" lon="-2.21">
        <ele>5</ele>
        <time>2021-05-23T06:14:04.982Z</time>
      </trkpt>
      <trkpt lat="47.27045" lon="-2.21003">
        <ele>5</ele>
        <time>2021-05-23T06:14:05.983Z</time>
      </trkpt>
      <trkpt lat="47.27044" lon="-2.21006">
        <ele>5</ele>
        <time>2021-05-23T06:14:06.983Z</time>
      </trkpt>
      <trkpt lat="47.27043" lon="-2.2101">
        <ele>5</ele>
        <time>2021-05-23T06:14:07.982Z</time>
      </trkpt>
      <trkpt lat="47.27042" lon="-2.21013">
        <ele>5</ele>
        <time>2021-05-23T06:14:08.982Z</time>
      </trkpt>
      <trkpt lat="47.27041" lon="-2.21016">
        <ele>5</ele>
        <time>2021-05-23T06:14:09.983Z</time>
      </trkpt>
      <trkpt lat="47.2704" lon="-2.21019">
        <ele>5</ele>
        <time>2021-05-23T06:14:10.983Z</time>
      </trkpt>
      <trkpt lat="47.27039" lon="-2.21021">
        <ele>5</ele>
        <time>2021-05-23T06:14:11.983Z</time>
      </trkpt>
      <trkpt lat="47.27038" lon="-2.21025">
        <ele>5</ele>
        <time>2021-05-23T06:14:12.982Z</time>
      </trkpt>
      <trkpt lat="47.27038" lon="-2.21027">
        <ele>5</ele>
        <time>2021-05-23T06:14:13.982Z</time>
      </trkpt>
      <trkpt lat="47.27037" lon="-2.21031">
        <ele>5</ele>
        <time>2021-05-23T06:14:14.982Z</time>
      </trkpt>
      <trkpt lat="47.27036" lon="-2.21034">
        <ele>6</ele>
        <time>2021-05-23T06:14:15.983Z</time>
      </trkpt>
      <trkpt lat="47.27035" lon="-2.21037">
        <ele>6</ele>
        <time>2021-05-23T06:14:16.982Z</time>
      </trkpt>
      <trkpt lat="47.27034" lon="-2.2104">
        <ele>6</ele>
        <time>2021-05-23T06:14:17.982Z</time>
      </trkpt>
      <trkpt lat="47.27033" lon="-2.21043">
        <ele>6</ele>
        <time>2021-05-23T06:14:18.982Z</time>
      </trkpt>
      <trkpt lat="47.27032" lon="-2.21046">
        <ele>7</ele>
        <time>2021-05-23T06:14:19.983Z</time>
      </trkpt>
      <trkpt lat="47.27031" lon="-2.21049">
        <ele>7</ele>
        <time>2021-05-23T06:14:20.983Z</time>
      </trkpt>
      <trkpt lat="47.2703" lon="-2.21052">
        <ele>7</ele>
        <time>2021-05-23T06:14:21.983Z</time>
      </trkpt>
      <trkpt lat="47.27029" lon="-2.21055">
        <ele>7</ele>
        <time>2021-05-23T06:14:22.982Z</time>
      </trkpt>
      <trkpt lat="47.27028" lon="-2.21058">
        <ele>7</ele>
        <time>2021-05-23T06:14:23.982Z</time>
      </trkpt>
      <trkpt lat="47.27027" lon="-2.21061">
        <ele>7</ele>
        <time>2021-05-23T06:14:24.982Z</time>
      </trkpt>
      <trkpt lat="47.27027" lon="-2.21064">
        <ele>8</ele>
        <time>2021-05-23T06:14:25.982Z</time>
      </trkpt>
      <trkpt lat="47.27026" lon="-2.21067">
        <ele>8</ele>
        <time>2021-05-23T06:14:26.982Z</time>
      </trkpt>
      <trkpt lat="47.27025" lon="-2.2107">
        <ele>8</ele>
        <time>2021-05-23T06:14:27.982Z</time>
      </trkpt>
      <trkpt lat="47.27023" lon="-2.21073">
        <ele>8</ele>
        <time>2021-05-23T06:14:28.982Z</time>
      </trkpt>
      <trkpt lat="47.27022" lon="-2.21076">
        <ele>8</ele>
        <time>2021-05-23T06:14:29.982Z</time>
      </trkpt>
      <trkpt lat="47.27021" lon="-2.21079">
        <ele>8</ele>
        <time>2021-05-23T06:14:30.982Z</time>
      </trkpt>
      <trkpt lat="47.2702" lon="-2.21082">
        <ele>8</ele>
        <time>2021-05-23T06:14:31.982Z</time>
      </trkpt>
      <trkpt lat="47.27019" lon="-2.21085">
        <ele>9</ele>
        <time>2021-05-23T06:14:32.983Z</time>
      </trkpt>
      <trkpt lat="47.27018" lon="-2.21089">
        <ele>9</ele>
        <time>2021-05-23T06:14:33.982Z</time>
      </trkpt>
      <trkpt lat="47.27017" lon="-2.21092">
        <ele>9</ele>
        <time>2021-05-23T06:14:34.982Z</time>
      </trkpt>
      <trkpt lat="47.27016" lon="-2.21095">
        <ele>9</ele>
        <time>2021-05-23T06:14:35.982Z</time>
      </trkpt>
      <trkpt lat="47.27014" lon="-2.21098">
        <ele>10</ele>
        <time>2021-05-23T06:14:36.982Z</time>
      </trkpt>
      <trkpt lat="47.27013" lon="-2.21101">
        <ele>10</ele>
        <time>2021-05-23T06:14:37.982Z</time>
      </trkpt>
      <trkpt lat="47.27012" lon="-2.21104">
        <ele>10</ele>
        <time>2021-05-23T06:14:38.982Z</time>
      </trkpt>
      <trkpt lat="47.27012" lon="-2.21107">
        <ele>10</ele>
        <time>2021-05-23T06:14:39.983Z</time>
      </trkpt>
      <trkpt lat="47.27011" lon="-2.2111">
        <ele>10</ele>
        <time>2021-05-23T06:14:40.982Z</time>
      </trkpt>
      <trkpt lat="47.2701" lon="-2.21113">
        <ele>10</ele>
        <time>2021-05-23T06:14:41.983Z</time>
      </trkpt>
      <trkpt lat="47.27009" lon="-2.21115">
        <ele>10</ele>
        <time>2021-05-23T06:14:42.983Z</time>
      </trkpt>
      <trkpt lat="47.27009" lon="-2.21118">
        <ele>10</ele>
        <time>2021-05-23T06:14:43.982Z</time>
      </trkpt>
      <trkpt lat="47.27008" lon="-2.21121">
        <ele>9</ele>
        <time>2021-05-23T06:14:44.982Z</time>
      </trkpt>
      <trkpt lat="47.27007" lon="-2.21124">
        <ele>9</ele>
        <time>2021-05-23T06:14:45.982Z</time>
      </trkpt>
      <trkpt lat="47.27006" lon="-2.21126">
        <ele>9</ele>
        <time>2021-05-23T06:14:46.982Z</time>
      </trkpt>
      <trkpt lat="47.27005" lon="-2.21129">
        <ele>8</ele>
        <time>2021-05-23T06:14:47.983Z</time>
      </trkpt>
      <trkpt lat="47.27004" lon="-2.21132">
        <ele>8</ele>
        <time>2021-05-23T06:14:48.983Z</time>
      </trkpt>
      <trkpt lat="47.27003" lon="-2.21136">
        <ele>8</ele>
        <time>2021-05-23T06:14:49.982Z</time>
      </trkpt>
      <trkpt lat="47.27002" lon="-2.21139">
        <ele>7</ele>
        <time>2021-05-23T06:14:50.982Z</time>
      </trkpt>
      <trkpt lat="47.27001" lon="-2.21143">
        <ele>7</ele>
        <time>2021-05-23T06:14:51.982Z</time>
      </trkpt>
      <trkpt lat="47.27001" lon="-2.21145">
        <ele>7</ele>
        <time>2021-05-23T06:14:52.983Z</time>
      </trkpt>
      <trkpt lat="47.26999" lon="-2.21149">
        <ele>7</ele>
        <time>2021-05-23T06:14:53.983Z</time>
      </trkpt>
      <trkpt lat="47.26998" lon="-2.21152">
        <ele>7</ele>
        <time>2021-05-23T06:14:54.983Z</time>
      </trkpt>
      <trkpt lat="47.26997" lon="-2.21155">
        <ele>7</ele>
        <time>2021-05-23T06:14:55.982Z</time>
      </trkpt>
      <trkpt lat="47.26996" lon="-2.21157">
        <ele>7</ele>
        <time>2021-05-23T06:14:56.983Z</time>
      </trkpt>
      <trkpt lat="47.26994" lon="-2.2116">
        <ele>7</ele>
        <time>2021-05-23T06:14:57.983Z</time>
      </trkpt>
      <trkpt lat="47.26993" lon="-2.21162">
        <ele>8</ele>
        <time>2021-05-23T06:14:58.983Z</time>
      </trkpt>
      <trkpt lat="47.26991" lon="-2.21165">
        <ele>8</ele>
        <time>2021-05-23T06:14:59.982Z</time>
      </trkpt>
      <trkpt lat="47.26989" lon="-2.21167">
        <ele>8</ele>
        <time>2021-05-23T06:15:00.983Z</time>
      </trkpt>
      <trkpt lat="47.26988" lon="-2.21169">
        <ele>7</ele>
        <time>2021-05-23T06:15:01.982Z</time>
      </trkpt>
      <trkpt lat="47.26987" lon="-2.21172">
        <ele>7</ele>
        <time>2021-05-23T06:15:02.983Z</time>
      </trkpt>
      <trkpt lat="47.26985" lon="-2.21175">
        <ele>7</ele>
        <time>2021-05-23T06:15:03.983Z</time>
      </trkpt>
      <trkpt lat="47.26984" lon="-2.21177">
        <ele>7</ele>
        <time>2021-05-23T06:15:04.982Z</time>
      </trkpt>
      <trkpt lat="47.26982" lon="-2.21179">
        <ele>7</ele>
        <time>2021-05-23T06:15:05.982Z</time>
      </trkpt>
      <trkpt lat="47.26981" lon="-2.21181">
        <ele>7</ele>
        <time>2021-05-23T06:15:06.983Z</time>
      </trkpt>
      <trkpt lat="47.26979" lon="-2.21183">
        <ele>7</ele>
        <time>2021-05-23T06:15:07.983Z</time>
      </trkpt>
      <trkpt lat="47.26977" lon="-2.21186">
        <ele>7</ele>
        <time>2021-05-23T06:15:08.982Z</time>
      </trkpt>
      <trkpt lat="47.26975" lon="-2.21188">
        <ele>7</ele>
        <time>2021-05-23T06:15:09.983Z</time>
      </trkpt>
      <trkpt lat="47.26974" lon="-2.2119">
        <ele>7</ele>
        <time>2021-05-23T06:15:10.982Z</time>
      </trkpt>
      <trkpt lat="47.26973" lon="-2.21192">
        <ele>7</ele>
        <time>2021-05-23T06:15:11.983Z</time>
      </trkpt>
      <trkpt lat="47.26971" lon="-2.21195">
        <ele>8</ele>
        <time>2021-05-23T06:15:12.983Z</time>
      </trkpt>
      <trkpt lat="47.26969" lon="-2.21197">
        <ele>8</ele>
        <time>2021-05-23T06:15:13.983Z</time>
      </trkpt>
      <trkpt lat="47.26967" lon="-2.21199">
        <ele>8</ele>
        <time>2021-05-23T06:15:14.983Z</time>
      </trkpt>
      <trkpt lat="47.26966" lon="-2.21202">
        <ele>8</ele>
        <time>2021-05-23T06:15:15.983Z</time>
      </trkpt>
      <trkpt lat="47.26965" lon="-2.21204">
        <ele>8</ele>
        <time>2021-05-23T06:15:16.983Z</time>
      </trkpt>
      <trkpt lat="47.26963" lon="-2.21208">
        <ele>8</ele>
        <time>2021-05-23T06:15:17.982Z</time>
      </trkpt>
      <trkpt lat="47.26962" lon="-2.2121">
        <ele>8</ele>
        <time>2021-05-23T06:15:18.983Z</time>
      </trkpt>
      <trkpt lat="47.2696" lon="-2.21212">
        <ele>8</ele>
        <time>2021-05-23T06:15:19.982Z</time>
      </trkpt>
      <trkpt lat="47.26958" lon="-2.21214">
        <ele>8</ele>
        <time>2021-05-23T06:15:20.983Z</time>
      </trkpt>
      <trkpt lat="47.26956" lon="-2.21216">
        <ele>8</ele>
        <time>2021-05-23T06:15:21.983Z</time>
      </trkpt>
      <trkpt lat="47.26955" lon="-2.21218">
        <ele>8</ele>
        <time>2021-05-23T06:15:22.982Z</time>
      </trkpt>
      <trkpt lat="47.26953" lon="-2.2122">
        <ele>8</ele>
        <time>2021-05-23T06:15:23.983Z</time>
      </trkpt>
      <trkpt lat="47.26951" lon="-2.21222">
        <ele>7</ele>
        <time>2021-05-23T06:15:24.983Z</time>
      </trkpt>
      <trkpt lat="47.26949" lon="-2.21224">
        <ele>7</ele>
        <time>2021-05-23T06:15:25.983Z</time>
      </trkpt>
      <trkpt lat="47.26948" lon="-2.21226">
        <ele>7</ele>
        <time>2021-05-23T06:15:26.983Z</time>
      </trkpt>
      <trkpt lat="47.26946" lon="-2.21229">
        <ele>7</ele>
        <time>2021-05-23T06:15:27.982Z</time>
      </trkpt>
      <trkpt lat="47.26945" lon="-2.21231">
        <ele>7</ele>
        <time>2021-05-23T06:15:28.983Z</time>
      </trkpt>
      <trkpt lat="47.26943" lon="-2.21233">
        <ele>7</ele>
        <time>2021-05-23T06:15:29.982Z</time>
      </trkpt>
      <trkpt lat="47.26942" lon="-2.21236">
        <ele>8</ele>
        <time>2021-05-23T06:15:30.982Z</time>
      </trkpt>
      <trkpt lat="47.2694" lon="-2.21239">
        <ele>8</ele>
        <time>2021-05-23T06:15:31.982Z</time>
      </trkpt>
      <trkpt lat="47.26939" lon="-2.21242">
        <ele>8</ele>
        <time>2021-05-23T06:15:32.983Z</time>
      </trkpt>
      <trkpt lat="47.26937" lon="-2.21244">
        <ele>8</ele>
        <time>2021-05-23T06:15:33.982Z</time>
      </trkpt>
      <trkpt lat="47.26936" lon="-2.21247">
        <ele>8</ele>
        <time>2021-05-23T06:15:34.983Z</time>
      </trkpt>
      <trkpt lat="47.26934" lon="-2.21249">
        <ele>7</ele>
        <time>2021-05-23T06:15:35.983Z</time>
      </trkpt>
      <trkpt lat="47.26933" lon="-2.21251">
        <ele>8</ele>
        <time>2021-05-23T06:15:36.982Z</time>
      </trkpt>
      <trkpt lat="47.26932" lon="-2.21254">
        <ele>8</ele>
        <time>2021-05-23T06:15:37.983Z</time>
      </trkpt>
      <trkpt lat="47.26931" lon="-2.21256">
        <ele>8</ele>
        <time>2021-05-23T06:15:38.983Z</time>
      </trkpt>
      <trkpt lat="47.2693" lon="-2.2126">
        <ele>9</ele>
        <time>2021-05-23T06:15:39.983Z</time>
      </trkpt>
      <trkpt lat="47.26928" lon="-2.21263">
        <ele>9</ele>
        <time>2021-05-23T06:15:40.982Z</time>
      </trkpt>
      <trkpt lat="47.26927" lon="-2.21265">
        <ele>9</ele>
        <time>2021-05-23T06:15:41.983Z</time>
      </trkpt>
      <trkpt lat="47.26926" lon="-2.21267">
        <ele>9</ele>
        <time>2021-05-23T06:15:42.983Z</time>
      </trkpt>
      <trkpt lat="47.26924" lon="-2.21269">
        <ele>9</ele>
        <time>2021-05-23T06:15:43.983Z</time>
      </trkpt>
      <trkpt lat="47.26923" lon="-2.21272">
        <ele>9</ele>
        <time>2021-05-23T06:15:44.983Z</time>
      </trkpt>
      <trkpt lat="47.26921" lon="-2.21274">
        <ele>9</ele>
        <time>2021-05-23T06:15:45.982Z</time>
      </trkpt>
      <trkpt lat="47.26919" lon="-2.21276">
        <ele>9</ele>
        <time>2021-05-23T06:15:46.982Z</time>
      </trkpt>
      <trkpt lat="47.26917" lon="-2.21278">
        <ele>10</ele>
        <time>2021-05-23T06:15:47.982Z</time>
      </trkpt>
      <trkpt lat="47.26915" lon="-2.21281">
        <ele>10</ele>
        <time>2021-05-23T06:15:48.982Z</time>
      </trkpt>
      <trkpt lat="47.26913" lon="-2.21283">
        <ele>10</ele>
        <time>2021-05-23T06:15:49.982Z</time>
      </trkpt>
      <trkpt lat="47.26912" lon="-2.21286">
        <ele>11</ele>
        <time>2021-05-23T06:15:50.982Z</time>
      </trkpt>
      <trkpt lat="47.2691" lon="-2.21288">
        <ele>11</ele>
        <time>2021-05-23T06:15:51.983Z</time>
      </trkpt>
      <trkpt lat="47.26909" lon="-2.2129">
        <ele>11</ele>
        <time>2021-05-23T06:15:52.983Z</time>
      </trkpt>
      <trkpt lat="47.26907" lon="-2.21293">
        <ele>11</ele>
        <time>2021-05-23T06:15:53.983Z</time>
      </trkpt>
      <trkpt lat="47.26906" lon="-2.21296">
        <ele>11</ele>
        <time>2021-05-23T06:15:54.982Z</time>
      </trkpt>
      <trkpt lat="47.26905" lon="-2.21298">
        <ele>10</ele>
        <time>2021-05-23T06:15:55.983Z</time>
      </trkpt>
      <trkpt lat="47.26903" lon="-2.21301">
        <ele>10</ele>
        <time>2021-05-23T06:15:56.982Z</time>
      </trkpt>
      <trkpt lat="47.26903" lon="-2.21304">
        <ele>10</ele>
        <time>2021-05-23T06:15:57.983Z</time>
      </trkpt>
      <trkpt lat="47.26901" lon="-2.21307">
        <ele>10</ele>
        <time>2021-05-23T06:15:58.982Z</time>
      </trkpt>
      <trkpt lat="47.26901" lon="-2.21311">
        <ele>10</ele>
        <time>2021-05-23T06:15:59.983Z</time>
      </trkpt>
      <trkpt lat="47.269" lon="-2.21314">
        <ele>10</ele>
        <time>2021-05-23T06:16:00.983Z</time>
      </trkpt>
      <trkpt lat="47.26899" lon="-2.21317">
        <ele>10</ele>
        <time>2021-05-23T06:16:01.982Z</time>
      </trkpt>
      <trkpt lat="47.26899" lon="-2.21321">
        <ele>9</ele>
        <time>2021-05-23T06:16:02.982Z</time>
      </trkpt>
      <trkpt lat="47.26898" lon="-2.21324">
        <ele>9</ele>
        <time>2021-05-23T06:16:03.983Z</time>
      </trkpt>
      <trkpt lat="47.26898" lon="-2.21327">
        <ele>9</ele>
        <time>2021-05-23T06:16:04.982Z</time>
      </trkpt>
      <trkpt lat="47.26897" lon="-2.2133">
        <ele>8</ele>
        <time>2021-05-23T06:16:05.983Z</time>
      </trkpt>
      <trkpt lat="47.26897" lon="-2.21332">
        <ele>8</ele>
        <time>2021-05-23T06:16:06.982Z</time>
      </trkpt>
      <trkpt lat="47.26896" lon="-2.21336">
        <ele>9</ele>
        <time>2021-05-23T06:16:07.983Z</time>
      </trkpt>
      <trkpt lat="47.26896" lon="-2.21339">
        <ele>9</ele>
        <time>2021-05-23T06:16:08.982Z</time>
      </trkpt>
      <trkpt lat="47.26895" lon="-2.21342">
        <ele>9</ele>
        <time>2021-05-23T06:16:09.983Z</time>
      </trkpt>
      <trkpt lat="47.26895" lon="-2.21346">
        <ele>9</ele>
        <time>2021-05-23T06:16:10.982Z</time>
      </trkpt>
      <trkpt lat="47.26895" lon="-2.21349">
        <ele>9</ele>
        <time>2021-05-23T06:16:11.983Z</time>
      </trkpt>
      <trkpt lat="47.26894" lon="-2.21353">
        <ele>9</ele>
        <time>2021-05-23T06:16:12.982Z</time>
      </trkpt>
      <trkpt lat="47.26893" lon="-2.21356">
        <ele>9</ele>
        <time>2021-05-23T06:16:13.983Z</time>
      </trkpt>
      <trkpt lat="47.26893" lon="-2.2136">
        <ele>9</ele>
        <time>2021-05-23T06:16:14.982Z</time>
      </trkpt>
      <trkpt lat="47.26892" lon="-2.21363">
        <ele>10</ele>
        <time>2021-05-23T06:16:15.982Z</time>
      </trkpt>
      <trkpt lat="47.26891" lon="-2.21365">
        <ele>10</ele>
        <time>2021-05-23T06:16:16.983Z</time>
      </trkpt>
      <trkpt lat="47.26891" lon="-2.21369">
        <ele>10</ele>
        <time>2021-05-23T06:16:17.982Z</time>
      </trkpt>
      <trkpt lat="47.2689" lon="-2.21372">
        <ele>10</ele>
        <time>2021-05-23T06:16:18.982Z</time>
      </trkpt>
      <trkpt lat="47.2689" lon="-2.21375">
        <ele>10</ele>
        <time>2021-05-23T06:16:19.983Z</time>
      </trkpt>
      <trkpt lat="47.26889" lon="-2.21378">
        <ele>10</ele>
        <time>2021-05-23T06:16:20.983Z</time>
      </trkpt>
      <trkpt lat="47.26888" lon="-2.21382">
        <ele>10</ele>
        <time>2021-05-23T06:16:21.983Z</time>
      </trkpt>
      <trkpt lat="47.26888" lon="-2.21385">
        <ele>10</ele>
        <time>2021-05-23T06:16:22.982Z</time>
      </trkpt>
      <trkpt lat="47.26887" lon="-2.21388">
        <ele>11</ele>
        <time>2021-05-23T06:16:23.983Z</time>
      </trkpt>
      <trkpt lat="47.26886" lon="-2.21391">
        <ele>11</ele>
        <time>2021-05-23T06:16:24.982Z</time>
      </trkpt>
      <trkpt lat="47.26885" lon="-2.21394">
        <ele>11</ele>
        <time>2021-05-23T06:16:25.983Z</time>
      </trkpt>
      <trkpt lat="47.26884" lon="-2.21397">
        <ele>12</ele>
        <time>2021-05-23T06:16:26.982Z</time>
      </trkpt>
      <trkpt lat="47.26883" lon="-2.214">
        <ele>12</ele>
        <time>2021-05-23T06:16:27.983Z</time>
      </trkpt>
      <trkpt lat="47.26881" lon="-2.21403">
        <ele>12</ele>
        <time>2021-05-23T06:16:28.983Z</time>
      </trkpt>
      <trkpt lat="47.2688" lon="-2.21406">
        <ele>13</ele>
        <time>2021-05-23T06:16:29.982Z</time>
      </trkpt>
      <trkpt lat="47.26879" lon="-2.21409">
        <ele>13</ele>
        <time>2021-05-23T06:16:30.983Z</time>
      </trkpt>
      <trkpt lat="47.26879" lon="-2.21412">
        <ele>13</ele>
        <time>2021-05-23T06:16:31.982Z</time>
      </trkpt>
      <trkpt lat="47.26878" lon="-2.21416">
        <ele>13</ele>
        <time>2021-05-23T06:16:32.983Z</time>
      </trkpt>
      <trkpt lat="47.26877" lon="-2.21419">
        <ele>13</ele>
        <time>2021-05-23T06:16:33.983Z</time>
      </trkpt>
      <trkpt lat="47.26876" lon="-2.21423">
        <ele>14</ele>
        <time>2021-05-23T06:16:34.983Z</time>
      </trkpt>
      <trkpt lat="47.26876" lon="-2.21426">
        <ele>14</ele>
        <time>2021-05-23T06:16:35.983Z</time>
      </trkpt>
      <trkpt lat="47.26875" lon="-2.2143">
        <ele>14</ele>
        <time>2021-05-23T06:16:36.983Z</time>
      </trkpt>
      <trkpt lat="47.26875" lon="-2.21433">
        <ele>13</ele>
        <time>2021-05-23T06:16:37.983Z</time>
      </trkpt>
      <trkpt lat="47.26875" lon="-2.21436">
        <ele>13</ele>
        <time>2021-05-23T06:16:38.982Z</time>
      </trkpt>
      <trkpt lat="47.26875" lon="-2.2144">
        <ele>13</ele>
        <time>2021-05-23T06:16:39.983Z</time>
      </trkpt>
      <trkpt lat="47.26874" lon="-2.21443">
        <ele>12</ele>
        <time>2021-05-23T06:16:40.983Z</time>
      </trkpt>
      <trkpt lat="47.26875" lon="-2.21446">
        <ele>12</ele>
        <time>2021-05-23T06:16:41.983Z</time>
      </trkpt>
      <trkpt lat="47.26874" lon="-2.21449">
        <ele>12</ele>
        <time>2021-05-23T06:16:42.983Z</time>
      </trkpt>
      <trkpt lat="47.26874" lon="-2.21452">
        <ele>12</ele>
        <time>2021-05-23T06:16:43.983Z</time>
      </trkpt>
      <trkpt lat="47.26873" lon="-2.21455">
        <ele>11</ele>
        <time>2021-05-23T06:16:44.983Z</time>
      </trkpt>
      <trkpt lat="47.26873" lon="-2.21458">
        <ele>11</ele>
        <time>2021-05-23T06:16:45.982Z</time>
      </trkpt>
      <trkpt lat="47.26872" lon="-2.21461">
        <ele>10</ele>
        <time>2021-05-23T06:16:46.983Z</time>
      </trkpt>
      <trkpt lat="47.26872" lon="-2.21464">
        <ele>10</ele>
        <time>2021-05-23T06:16:47.982Z</time>
      </trkpt>
      <trkpt lat="47.26872" lon="-2.21467">
        <ele>10</ele>
        <time>2021-05-23T06:16:48.982Z</time>
      </trkpt>
      <trkpt lat="47.26871" lon="-2.2147">
        <ele>10</ele>
        <time>2021-05-23T06:16:49.982Z</time>
      </trkpt>
      <trkpt lat="47.26871" lon="-2.21473">
        <ele>10</ele>
        <time>2021-05-23T06:16:50.982Z</time>
      </trkpt>
      <trkpt lat="47.2687" lon="-2.21476">
        <ele>9</ele>
        <time>2021-05-23T06:16:51.982Z</time>
      </trkpt>
      <trkpt lat="47.2687" lon="-2.21479">
        <ele>9</ele>
        <time>2021-05-23T06:16:52.983Z</time>
      </trkpt>
      <trkpt lat="47.26869" lon="-2.21482">
        <ele>9</ele>
        <time>2021-05-23T06:16:53.983Z</time>
      </trkpt>
      <trkpt lat="47.26868" lon="-2.21485">
        <ele>8</ele>
        <time>2021-05-23T06:16:54.983Z</time>
      </trkpt>
      <trkpt lat="47.26868" lon="-2.21488">
        <ele>8</ele>
        <time>2021-05-23T06:16:55.983Z</time>
      </trkpt>
      <trkpt lat="47.26867" lon="-2.2149">
        <ele>7</ele>
        <time>2021-05-23T06:16:56.982Z</time>
      </trkpt>
      <trkpt lat="47.26866" lon="-2.21494">
        <ele>7</ele>
        <time>2021-05-23T06:16:57.983Z</time>
      </trkpt>
      <trkpt lat="47.26866" lon="-2.21497">
        <ele>7</ele>
        <time>2021-05-23T06:16:58.982Z</time>
      </trkpt>
      <trkpt lat="47.26865" lon="-2.215">
        <ele>6</ele>
        <time>2021-05-23T06:16:59.983Z</time>
      </trkpt>
      <trkpt lat="47.26865" lon="-2.21503">
        <ele>6</ele>
        <time>2021-05-23T06:17:00.983Z</time>
      </trkpt>
      <trkpt lat="47.26864" lon="-2.21507">
        <ele>6</ele>
        <time>2021-05-23T06:17:01.983Z</time>
      </trkpt>
      <trkpt lat="47.26864" lon="-2.2151">
        <ele>6</ele>
        <time>2021-05-23T06:17:02.983Z</time>
      </trkpt>
      <trkpt lat="47.26863" lon="-2.21513">
        <ele>7</ele>
        <time>2021-05-23T06:17:03.983Z</time>
      </trkpt>
      <trkpt lat="47.26862" lon="-2.21516">
        <ele>7</ele>
        <time>2021-05-23T06:17:04.983Z</time>
      </trkpt>
      <trkpt lat="47.26862" lon="-2.2152">
        <ele>7</ele>
        <time>2021-05-23T06:17:05.983Z</time>
      </trkpt>
      <trkpt lat="47.26861" lon="-2.21523">
        <ele>7</ele>
        <time>2021-05-23T06:17:06.983Z</time>
      </trkpt>
      <trkpt lat="47.26861" lon="-2.21526">
        <ele>8</ele>
        <time>2021-05-23T06:17:07.982Z</time>
      </trkpt>
      <trkpt lat="47.2686" lon="-2.21529">
        <ele>8</ele>
        <time>2021-05-23T06:17:08.982Z</time>
      </trkpt>
      <trkpt lat="47.2686" lon="-2.21532">
        <ele>7</ele>
        <time>2021-05-23T06:17:09.982Z</time>
      </trkpt>
      <trkpt lat="47.26859" lon="-2.21535">
        <ele>8</ele>
        <time>2021-05-23T06:17:10.983Z</time>
      </trkpt>
      <trkpt lat="47.26859" lon="-2.21538">
        <ele>8</ele>
        <time>2021-05-23T06:17:11.983Z</time>
      </trkpt>
      <trkpt lat="47.26858" lon="-2.21542">
        <ele>8</ele>
        <time>2021-05-23T06:17:12.983Z</time>
      </trkpt>
      <trkpt lat="47.26858" lon="-2.21545">
        <ele>8</ele>
        <time>2021-05-23T06:17:13.983Z</time>
      </trkpt>
      <trkpt lat="47.26858" lon="-2.21548">
        <ele>8</ele>
        <time>2021-05-23T06:17:14.982Z</time>
      </trkpt>
      <trkpt lat="47.26857" lon="-2.21551">
        <ele>8</ele>
        <time>2021-05-23T06:17:15.983Z</time>
      </trkpt>
      <trkpt lat="47.26857" lon="-2.21555">
        <ele>8</ele>
        <time>2021-05-23T06:17:16.983Z</time>
      </trkpt>
      <trkpt lat="47.26856" lon="-2.21559">
        <ele>8</ele>
        <time>2021-05-23T06:17:17.982Z</time>
      </trkpt>
      <trkpt lat="47.26855" lon="-2.21562">
        <ele>8</ele>
        <time>2021-05-23T06:17:18.982Z</time>
      </trkpt>
      <trkpt lat="47.26854" lon="-2.21565">
        <ele>8</ele>
        <time>2021-05-23T06:17:19.983Z</time>
      </trkpt>
      <trkpt lat="47.26853" lon="-2.21569">
        <ele>9</ele>
        <time>2021-05-23T06:17:20.982Z</time>
      </trkpt>
      <trkpt lat="47.26852" lon="-2.21574">
        <ele>9</ele>
        <time>2021-05-23T06:17:21.983Z</time>
      </trkpt>
      <trkpt lat="47.26851" lon="-2.21577">
        <ele>9</ele>
        <time>2021-05-23T06:17:22.983Z</time>
      </trkpt>
      <trkpt lat="47.26851" lon="-2.2158">
        <ele>9</ele>
        <time>2021-05-23T06:17:23.983Z</time>
      </trkpt>
      <trkpt lat="47.2685" lon="-2.21584">
        <ele>9</ele>
        <time>2021-05-23T06:17:24.983Z</time>
      </trkpt>
      <trkpt lat="47.2685" lon="-2.21586">
        <ele>9</ele>
        <time>2021-05-23T06:17:25.982Z</time>
      </trkpt>
      <trkpt lat="47.26849" lon="-2.21589">
        <ele>9</ele>
        <time>2021-05-23T06:17:26.983Z</time>
      </trkpt>
      <trkpt lat="47.26849" lon="-2.21593">
        <ele>9</ele>
        <time>2021-05-23T06:17:27.983Z</time>
      </trkpt>
      <trkpt lat="47.26848" lon="-2.21595">
        <ele>9</ele>
        <time>2021-05-23T06:17:28.983Z</time>
      </trkpt>
      <trkpt lat="47.26848" lon="-2.21599">
        <ele>9</ele>
        <time>2021-05-23T06:17:29.983Z</time>
      </trkpt>
      <trkpt lat="47.26848" lon="-2.21602">
        <ele>9</ele>
        <time>2021-05-23T06:17:30.983Z</time>
      </trkpt>
      <trkpt lat="47.26847" lon="-2.21605">
        <ele>9</ele>
        <time>2021-05-23T06:17:31.982Z</time>
      </trkpt>
      <trkpt lat="47.26847" lon="-2.21608">
        <ele>9</ele>
        <time>2021-05-23T06:17:32.983Z</time>
      </trkpt>
      <trkpt lat="47.26846" lon="-2.21611">
        <ele>9</ele>
        <time>2021-05-23T06:17:33.983Z</time>
      </trkpt>
      <trkpt lat="47.26845" lon="-2.21614">
        <ele>9</ele>
        <time>2021-05-23T06:17:34.983Z</time>
      </trkpt>
      <trkpt lat="47.26844" lon="-2.21618">
        <ele>9</ele>
        <time>2021-05-23T06:17:35.983Z</time>
      </trkpt>
      <trkpt lat="47.26844" lon="-2.21621">
        <ele>8</ele>
        <time>2021-05-23T06:17:36.982Z</time>
      </trkpt>
      <trkpt lat="47.26843" lon="-2.21624">
        <ele>8</ele>
        <time>2021-05-23T06:17:37.982Z</time>
      </trkpt>
      <trkpt lat="47.26842" lon="-2.21628">
        <ele>8</ele>
        <time>2021-05-23T06:17:38.983Z</time>
      </trkpt>
      <trkpt lat="47.26842" lon="-2.21632">
        <ele>8</ele>
        <time>2021-05-23T06:17:39.982Z</time>
      </trkpt>
      <trkpt lat="47.26841" lon="-2.21635">
        <ele>8</ele>
        <time>2021-05-23T06:17:40.982Z</time>
      </trkpt>
      <trkpt lat="47.2684" lon="-2.21638">
        <ele>9</ele>
        <time>2021-05-23T06:17:41.983Z</time>
      </trkpt>
      <trkpt lat="47.2684" lon="-2.21642">
        <ele>9</ele>
        <time>2021-05-23T06:17:42.983Z</time>
      </trkpt>
      <trkpt lat="47.26839" lon="-2.21646">
        <ele>9</ele>
        <time>2021-05-23T06:17:43.982Z</time>
      </trkpt>
      <trkpt lat="47.26839" lon="-2.21649">
        <ele>9</ele>
        <time>2021-05-23T06:17:44.983Z</time>
      </trkpt>
      <trkpt lat="47.26838" lon="-2.21652">
        <ele>9</ele>
        <time>2021-05-23T06:17:45.983Z</time>
      </trkpt>
      <trkpt lat="47.26838" lon="-2.21655">
        <ele>9</ele>
        <time>2021-05-23T06:17:46.983Z</time>
      </trkpt>
      <trkpt lat="47.26837" lon="-2.21658">
        <ele>9</ele>
        <time>2021-05-23T06:17:47.983Z</time>
      </trkpt>
      <trkpt lat="47.26837" lon="-2.21662">
        <ele>9</ele>
        <time>2021-05-23T06:17:48.983Z</time>
      </trkpt>
      <trkpt lat="47.26837" lon="-2.21665">
        <ele>9</ele>
        <time>2021-05-23T06:17:49.983Z</time>
      </trkpt>
      <trkpt lat="47.26836" lon="-2.21669">
        <ele>9</ele>
        <time>2021-05-23T06:17:50.983Z</time>
      </trkpt>
      <trkpt lat="47.26836" lon="-2.21673">
        <ele>9</ele>
        <time>2021-05-23T06:17:51.983Z</time>
      </trkpt>
      <trkpt lat="47.26835" lon="-2.21676">
        <ele>9</ele>
        <time>2021-05-23T06:17:52.982Z</time>
      </trkpt>
      <trkpt lat="47.26835" lon="-2.21678">
        <ele>9</ele>
        <time>2021-05-23T06:17:53.983Z</time>
      </trkpt>
      <trkpt lat="47.26834" lon="-2.21682">
        <ele>9</ele>
        <time>2021-05-23T06:17:54.983Z</time>
      </trkpt>
      <trkpt lat="47.26834" lon="-2.21685">
        <ele>9</ele>
        <time>2021-05-23T06:17:55.983Z</time>
      </trkpt>
      <trkpt lat="47.26834" lon="-2.21688">
        <ele>9</ele>
        <time>2021-05-23T06:17:56.983Z</time>
      </trkpt>
      <trkpt lat="47.26833" lon="-2.21691">
        <ele>9</ele>
        <time>2021-05-23T06:17:57.982Z</time>
      </trkpt>
      <trkpt lat="47.26832" lon="-2.21695">
        <ele>9</ele>
        <time>2021-05-23T06:17:58.982Z</time>
      </trkpt>
      <trkpt lat="47.26832" lon="-2.21699">
        <ele>9</ele>
        <time>2021-05-23T06:17:59.983Z</time>
      </trkpt>
      <trkpt lat="47.26831" lon="-2.21701">
        <ele>9</ele>
        <time>2021-05-23T06:18:00.983Z</time>
      </trkpt>
      <trkpt lat="47.26831" lon="-2.21705">
        <ele>8</ele>
        <time>2021-05-23T06:18:01.983Z</time>
      </trkpt>
      <trkpt lat="47.2683" lon="-2.21709">
        <ele>8</ele>
        <time>2021-05-23T06:18:02.983Z</time>
      </trkpt>
      <trkpt lat="47.26829" lon="-2.21712">
        <ele>8</ele>
        <time>2021-05-23T06:18:03.982Z</time>
      </trkpt>
      <trkpt lat="47.26828" lon="-2.21716">
        <ele>8</ele>
        <time>2021-05-23T06:18:04.982Z</time>
      </trkpt>
      <trkpt lat="47.26828" lon="-2.21718">
        <ele>8</ele>
        <time>2021-05-23T06:18:05.983Z</time>
      </trkpt>
      <trkpt lat="47.26827" lon="-2.21722">
        <ele>8</ele>
        <time>2021-05-23T06:18:06.983Z</time>
      </trkpt>
      <trkpt lat="47.26826" lon="-2.21725">
        <ele>8</ele>
        <time>2021-05-23T06:18:07.982Z</time>
      </trkpt>
      <trkpt lat="47.26826" lon="-2.21728">
        <ele>8</ele>
        <time>2021-05-23T06:18:08.982Z</time>
      </trkpt>
      <trkpt lat="47.26825" lon="-2.21731">
        <ele>8</ele>
        <time>2021-05-23T06:18:09.983Z</time>
      </trkpt>
      <trkpt lat="47.26824" lon="-2.21734">
        <ele>8</ele>
        <time>2021-05-23T06:18:10.982Z</time>
      </trkpt>
      <trkpt lat="47.26824" lon="-2.21737">
        <ele>7</ele>
        <time>2021-05-23T06:18:11.983Z</time>
      </trkpt>
      <trkpt lat="47.26823" lon="-2.21739">
        <ele>7</ele>
        <time>2021-05-23T06:18:12.983Z</time>
      </trkpt>
      <trkpt lat="47.26823" lon="-2.21742">
        <ele>7</ele>
        <time>2021-05-23T06:18:13.983Z</time>
      </trkpt>
      <trkpt lat="47.26822" lon="-2.21745">
        <ele>6</ele>
        <time>2021-05-23T06:18:14.982Z</time>
      </trkpt>
      <trkpt lat="47.26822" lon="-2.21748">
        <ele>6</ele>
        <time>2021-05-23T06:18:15.982Z</time>
      </trkpt>
      <trkpt lat="47.26821" lon="-2.21751">
        <ele>6</ele>
        <time>2021-05-23T06:18:16.983Z</time>
      </trkpt>
      <trkpt lat="47.2682" lon="-2.21754">
        <ele>6</ele>
        <time>2021-05-23T06:18:17.982Z</time>
      </trkpt>
      <trkpt lat="47.26819" lon="-2.21757">
        <ele>6</ele>
        <time>2021-05-23T06:18:18.982Z</time>
      </trkpt>
      <trkpt lat="47.26818" lon="-2.2176">
        <ele>6</ele>
        <time>2021-05-23T06:18:19.983Z</time>
      </trkpt>
      <trkpt lat="47.26817" lon="-2.21764">
        <ele>6</ele>
        <time>2021-05-23T06:18:20.982Z</time>
      </trkpt>
      <trkpt lat="47.26816" lon="-2.21767">
        <ele>6</ele>
        <time>2021-05-23T06:18:21.982Z</time>
      </trkpt>
      <trkpt lat="47.26816" lon="-2.21772">
        <ele>6</ele>
        <time>2021-05-23T06:18:22.982Z</time>
      </trkpt>
      <trkpt lat="47.26815" lon="-2.21775">
        <ele>7</ele>
        <time>2021-05-23T06:18:23.983Z</time>
      </trkpt>
      <trkpt lat="47.26815" lon="-2.21779">
        <ele>7</ele>
        <time>2021-05-23T06:18:24.983Z</time>
      </trkpt>
      <trkpt lat="47.26814" lon="-2.21782">
        <ele>7</ele>
        <time>2021-05-23T06:18:25.982Z</time>
      </trkpt>
      <trkpt lat="47.26812" lon="-2.21785">
        <ele>7</ele>
        <time>2021-05-23T06:18:26.983Z</time>
      </trkpt>
      <trkpt lat="47.26811" lon="-2.21788">
        <ele>8</ele>
        <time>2021-05-23T06:18:27.983Z</time>
      </trkpt>
      <trkpt lat="47.2681" lon="-2.21791">
        <ele>8</ele>
        <time>2021-05-23T06:18:28.983Z</time>
      </trkpt>
      <trkpt lat="47.26809" lon="-2.21794">
        <ele>8</ele>
        <time>2021-05-23T06:18:29.982Z</time>
      </trkpt>
      <trkpt lat="47.26807" lon="-2.21797">
        <ele>8</ele>
        <time>2021-05-23T06:18:30.983Z</time>
      </trkpt>
      <trkpt lat="47.26806" lon="-2.21799">
        <ele>8</ele>
        <time>2021-05-23T06:18:31.983Z</time>
      </trkpt>
      <trkpt lat="47.26805" lon="-2.21802">
        <ele>8</ele>
        <time>2021-05-23T06:18:32.983Z</time>
      </trkpt>
      <trkpt lat="47.26805" lon="-2.21806">
        <ele>8</ele>
        <time>2021-05-23T06:18:33.983Z</time>
      </trkpt>
      <trkpt lat="47.26804" lon="-2.2181">
        <ele>8</ele>
        <time>2021-05-23T06:18:34.983Z</time>
      </trkpt>
      <trkpt lat="47.26804" lon="-2.21813">
        <ele>8</ele>
        <time>2021-05-23T06:18:35.983Z</time>
      </trkpt>
      <trkpt lat="47.26803" lon="-2.21816">
        <ele>8</ele>
        <time>2021-05-23T06:18:36.983Z</time>
      </trkpt>
      <trkpt lat="47.26802" lon="-2.2182">
        <ele>8</ele>
        <time>2021-05-23T06:18:37.983Z</time>
      </trkpt>
      <trkpt lat="47.26801" lon="-2.21823">
        <ele>8</ele>
        <time>2021-05-23T06:18:38.983Z</time>
      </trkpt>
      <trkpt lat="47.268" lon="-2.21826">
        <ele>8</ele>
        <time>2021-05-23T06:18:39.983Z</time>
      </trkpt>
      <trkpt lat="47.26799" lon="-2.21829">
        <ele>8</ele>
        <time>2021-05-23T06:18:40.983Z</time>
      </trkpt>
      <trkpt lat="47.26798" lon="-2.21831">
        <ele>8</ele>
        <time>2021-05-23T06:18:41.982Z</time>
      </trkpt>
      <trkpt lat="47.26797" lon="-2.21834">
        <ele>8</ele>
        <time>2021-05-23T06:18:42.983Z</time>
      </trkpt>
      <trkpt lat="47.26796" lon="-2.21838">
        <ele>8</ele>
        <time>2021-05-23T06:18:43.983Z</time>
      </trkpt>
      <trkpt lat="47.26796" lon="-2.21841">
        <ele>8</ele>
        <time>2021-05-23T06:18:44.983Z</time>
      </trkpt>
      <trkpt lat="47.26795" lon="-2.21844">
        <ele>9</ele>
        <time>2021-05-23T06:18:45.983Z</time>
      </trkpt>
      <trkpt lat="47.26794" lon="-2.21846">
        <ele>9</ele>
        <time>2021-05-23T06:18:46.982Z</time>
      </trkpt>
      <trkpt lat="47.26793" lon="-2.2185">
        <ele>9</ele>
        <time>2021-05-23T06:18:47.983Z</time>
      </trkpt>
      <trkpt lat="47.26793" lon="-2.21853">
        <ele>9</ele>
        <time>2021-05-23T06:18:48.983Z</time>
      </trkpt>
      <trkpt lat="47.26792" lon="-2.21856">
        <ele>9</ele>
        <time>2021-05-23T06:18:49.983Z</time>
      </trkpt>
      <trkpt lat="47.26791" lon="-2.21858">
        <ele>9</ele>
        <time>2021-05-23T06:18:50.983Z</time>
      </trkpt>
      <trkpt lat="47.2679" lon="-2.21862">
        <ele>9</ele>
        <time>2021-05-23T06:18:51.983Z</time>
      </trkpt>
      <trkpt lat="47.2679" lon="-2.21865">
        <ele>9</ele>
        <time>2021-05-23T06:18:52.982Z</time>
      </trkpt>
      <trkpt lat="47.26789" lon="-2.21869">
        <ele>9</ele>
        <time>2021-05-23T06:18:53.982Z</time>
      </trkpt>
      <trkpt lat="47.26789" lon="-2.21873">
        <ele>9</ele>
        <time>2021-05-23T06:18:54.983Z</time>
      </trkpt>
      <trkpt lat="47.26789" lon="-2.21876">
        <ele>9</ele>
        <time>2021-05-23T06:18:55.983Z</time>
      </trkpt>
      <trkpt lat="47.26789" lon="-2.21879">
        <ele>9</ele>
        <time>2021-05-23T06:18:56.982Z</time>
      </trkpt>
      <trkpt lat="47.26788" lon="-2.21882">
        <ele>9</ele>
        <time>2021-05-23T06:18:57.982Z</time>
      </trkpt>
      <trkpt lat="47.26787" lon="-2.21885">
        <ele>9</ele>
        <time>2021-05-23T06:18:58.982Z</time>
      </trkpt>
      <trkpt lat="47.26787" lon="-2.21887">
        <ele>9</ele>
        <time>2021-05-23T06:18:59.983Z</time>
      </trkpt>
      <trkpt lat="47.26787" lon="-2.21889">
        <ele>9</ele>
        <time>2021-05-23T06:19:00.982Z</time>
      </trkpt>
      <trkpt lat="47.26786" lon="-2.21892">
        <ele>9</ele>
        <time>2021-05-23T06:19:01.982Z</time>
      </trkpt>
      <trkpt lat="47.26785" lon="-2.21895">
        <ele>9</ele>
        <time>2021-05-23T06:19:02.983Z</time>
      </trkpt>
      <trkpt lat="47.26784" lon="-2.21897">
        <ele>9</ele>
        <time>2021-05-23T06:19:03.983Z</time>
      </trkpt>
      <trkpt lat="47.26782" lon="-2.219">
        <ele>8</ele>
        <time>2021-05-23T06:19:04.983Z</time>
      </trkpt>
      <trkpt lat="47.26781" lon="-2.21903">
        <ele>8</ele>
        <time>2021-05-23T06:19:05.983Z</time>
      </trkpt>
      <trkpt lat="47.2678" lon="-2.21906">
        <ele>8</ele>
        <time>2021-05-23T06:19:06.983Z</time>
      </trkpt>
      <trkpt lat="47.26779" lon="-2.21911">
        <ele>8</ele>
        <time>2021-05-23T06:19:07.982Z</time>
      </trkpt>
      <trkpt lat="47.26779" lon="-2.21915">
        <ele>8</ele>
        <time>2021-05-23T06:19:08.983Z</time>
      </trkpt>
      <trkpt lat="47.26778" lon="-2.21918">
        <ele>8</ele>
        <time>2021-05-23T06:19:09.983Z</time>
      </trkpt>
      <trkpt lat="47.26778" lon="-2.21921">
        <ele>8</ele>
        <time>2021-05-23T06:19:10.983Z</time>
      </trkpt>
      <trkpt lat="47.26777" lon="-2.21925">
        <ele>8</ele>
        <time>2021-05-23T06:19:11.983Z</time>
      </trkpt>
      <trkpt lat="47.26776" lon="-2.21929">
        <ele>8</ele>
        <time>2021-05-23T06:19:12.983Z</time>
      </trkpt>
      <trkpt lat="47.26775" lon="-2.21932">
        <ele>8</ele>
        <time>2021-05-23T06:19:13.982Z</time>
      </trkpt>
      <trkpt lat="47.26774" lon="-2.21934">
        <ele>8</ele>
        <time>2021-05-23T06:19:14.982Z</time>
      </trkpt>
      <trkpt lat="47.26773" lon="-2.21938">
        <ele>8</ele>
        <time>2021-05-23T06:19:15.983Z</time>
      </trkpt>
      <trkpt lat="47.26772" lon="-2.21941">
        <ele>8</ele>
        <time>2021-05-23T06:19:16.982Z</time>
      </trkpt>
      <trkpt lat="47.26771" lon="-2.21944">
        <ele>8</ele>
        <time>2021-05-23T06:19:17.982Z</time>
      </trkpt>
      <trkpt lat="47.26771" lon="-2.21947">
        <ele>8</ele>
        <time>2021-05-23T06:19:18.983Z</time>
      </trkpt>
      <trkpt lat="47.2677" lon="-2.2195">
        <ele>8</ele>
        <time>2021-05-23T06:19:19.983Z</time>
      </trkpt>
      <trkpt lat="47.26769" lon="-2.21953">
        <ele>8</ele>
        <time>2021-05-23T06:19:20.983Z</time>
      </trkpt>
      <trkpt lat="47.26768" lon="-2.21957">
        <ele>8</ele>
        <time>2021-05-23T06:19:21.982Z</time>
      </trkpt>
      <trkpt lat="47.26767" lon="-2.2196">
        <ele>8</ele>
        <time>2021-05-23T06:19:22.983Z</time>
      </trkpt>
      <trkpt lat="47.26766" lon="-2.21962">
        <ele>8</ele>
        <time>2021-05-23T06:19:23.983Z</time>
      </trkpt>
      <trkpt lat="47.26765" lon="-2.21966">
        <ele>8</ele>
        <time>2021-05-23T06:19:24.983Z</time>
      </trkpt>
      <trkpt lat="47.26765" lon="-2.21969">
        <ele>8</ele>
        <time>2021-05-23T06:19:25.983Z</time>
      </trkpt>
      <trkpt lat="47.26764" lon="-2.21973">
        <ele>7</ele>
        <time>2021-05-23T06:19:26.983Z</time>
      </trkpt>
      <trkpt lat="47.26763" lon="-2.21976">
        <ele>7</ele>
        <time>2021-05-23T06:19:27.983Z</time>
      </trkpt>
      <trkpt lat="47.26762" lon="-2.21978">
        <ele>7</ele>
        <time>2021-05-23T06:19:28.983Z</time>
      </trkpt>
      <trkpt lat="47.26761" lon="-2.21982">
        <ele>7</ele>
        <time>2021-05-23T06:19:29.982Z</time>
      </trkpt>
      <trkpt lat="47.2676" lon="-2.21986">
        <ele>7</ele>
        <time>2021-05-23T06:19:30.983Z</time>
      </trkpt>
      <trkpt lat="47.2676" lon="-2.2199">
        <ele>7</ele>
        <time>2021-05-23T06:19:31.983Z</time>
      </trkpt>
      <trkpt lat="47.26759" lon="-2.21993">
        <ele>7</ele>
        <time>2021-05-23T06:19:32.982Z</time>
      </trkpt>
      <trkpt lat="47.26758" lon="-2.21996">
        <ele>6</ele>
        <time>2021-05-23T06:19:33.982Z</time>
      </trkpt>
      <trkpt lat="47.26757" lon="-2.21999">
        <ele>6</ele>
        <time>2021-05-23T06:19:34.983Z</time>
      </trkpt>
      <trkpt lat="47.26756" lon="-2.22002">
        <ele>6</ele>
        <time>2021-05-23T06:19:35.982Z</time>
      </trkpt>
      <trkpt lat="47.26756" lon="-2.22006">
        <ele>6</ele>
        <time>2021-05-23T06:19:36.982Z</time>
      </trkpt>
      <trkpt lat="47.26755" lon="-2.22009">
        <ele>6</ele>
        <time>2021-05-23T06:19:37.983Z</time>
      </trkpt>
      <trkpt lat="47.26754" lon="-2.22012">
        <ele>6</ele>
        <time>2021-05-23T06:19:38.982Z</time>
      </trkpt>
      <trkpt lat="47.26752" lon="-2.22015">
        <ele>5</ele>
        <time>2021-05-23T06:19:39.982Z</time>
      </trkpt>
      <trkpt lat="47.26751" lon="-2.22018">
        <ele>5</ele>
        <time>2021-05-23T06:19:40.982Z</time>
      </trkpt>
      <trkpt lat="47.26751" lon="-2.22021">
        <ele>5</ele>
        <time>2021-05-23T06:19:41.983Z</time>
      </trkpt>
      <trkpt lat="47.2675" lon="-2.22024">
        <ele>5</ele>
        <time>2021-05-23T06:19:42.982Z</time>
      </trkpt>
      <trkpt lat="47.26749" lon="-2.22027">
        <ele>5</ele>
        <time>2021-05-23T06:19:43.982Z</time>
      </trkpt>
      <trkpt lat="47.26748" lon="-2.22029">
        <ele>5</ele>
        <time>2021-05-23T06:19:44.983Z</time>
      </trkpt>
      <trkpt lat="47.26748" lon="-2.22033">
        <ele>5</ele>
        <time>2021-05-23T06:19:45.983Z</time>
      </trkpt>
      <trkpt lat="47.26746" lon="-2.22036">
        <ele>5</ele>
        <time>2021-05-23T06:19:46.982Z</time>
      </trkpt>
      <trkpt lat="47.26745" lon="-2.22039">
        <ele>6</ele>
        <time>2021-05-23T06:19:47.982Z</time>
      </trkpt>
      <trkpt lat="47.26744" lon="-2.22043">
        <ele>6</ele>
        <time>2021-05-23T06:19:48.982Z</time>
      </trkpt>
      <trkpt lat="47.26743" lon="-2.22046">
        <ele>6</ele>
        <time>2021-05-23T06:19:49.982Z</time>
      </trkpt>
      <trkpt lat="47.26742" lon="-2.22049">
        <ele>6</ele>
        <time>2021-05-23T06:19:50.983Z</time>
      </trkpt>
      <trkpt lat="47.26741" lon="-2.22052">
        <ele>6</ele>
        <time>2021-05-23T06:19:51.983Z</time>
      </trkpt>
      <trkpt lat="47.26739" lon="-2.22055">
        <ele>6</ele>
        <time>2021-05-23T06:19:52.983Z</time>
      </trkpt>
      <trkpt lat="47.26738" lon="-2.22058">
        <ele>6</ele>
        <time>2021-05-23T06:19:53.983Z</time>
      </trkpt>
      <trkpt lat="47.26737" lon="-2.22061">
        <ele>6</ele>
        <time>2021-05-23T06:19:54.983Z</time>
      </trkpt>
      <trkpt lat="47.26737" lon="-2.22064">
        <ele>6</ele>
        <time>2021-05-23T06:19:55.983Z</time>
      </trkpt>
      <trkpt lat="47.26735" lon="-2.22067">
        <ele>6</ele>
        <time>2021-05-23T06:19:56.983Z</time>
      </trkpt>
      <trkpt lat="47.26734" lon="-2.2207">
        <ele>6</ele>
        <time>2021-05-23T06:19:57.983Z</time>
      </trkpt>
      <trkpt lat="47.26733" lon="-2.22073">
        <ele>6</ele>
        <time>2021-05-23T06:19:58.983Z</time>
      </trkpt>
      <trkpt lat="47.26731" lon="-2.22076">
        <ele>6</ele>
        <time>2021-05-23T06:19:59.982Z</time>
      </trkpt>
      <trkpt lat="47.2673" lon="-2.22078">
        <ele>6</ele>
        <time>2021-05-23T06:20:00.983Z</time>
      </trkpt>
      <trkpt lat="47.26728" lon="-2.22082">
        <ele>6</ele>
        <time>2021-05-23T06:20:01.983Z</time>
      </trkpt>
      <trkpt lat="47.26727" lon="-2.22084">
        <ele>6</ele>
        <time>2021-05-23T06:20:02.983Z</time>
      </trkpt>
      <trkpt lat="47.26726" lon="-2.22087">
        <ele>6</ele>
        <time>2021-05-23T06:20:03.982Z</time>
      </trkpt>
      <trkpt lat="47.26725" lon="-2.22089">
        <ele>6</ele>
        <time>2021-05-23T06:20:04.982Z</time>
      </trkpt>
      <trkpt lat="47.26723" lon="-2.22092">
        <ele>6</ele>
        <time>2021-05-23T06:20:05.982Z</time>
      </trkpt>
      <trkpt lat="47.26722" lon="-2.22096">
        <ele>6</ele>
        <time>2021-05-23T06:20:06.983Z</time>
      </trkpt>
      <trkpt lat="47.26721" lon="-2.22098">
        <ele>6</ele>
        <time>2021-05-23T06:20:07.983Z</time>
      </trkpt>
      <trkpt lat="47.2672" lon="-2.22101">
        <ele>6</ele>
        <time>2021-05-23T06:20:08.983Z</time>
      </trkpt>
      <trkpt lat="47.26718" lon="-2.22104">
        <ele>6</ele>
        <time>2021-05-23T06:20:09.982Z</time>
      </trkpt>
      <trkpt lat="47.26717" lon="-2.22106">
        <ele>6</ele>
        <time>2021-05-23T06:20:10.983Z</time>
      </trkpt>
      <trkpt lat="47.26715" lon="-2.22109">
        <ele>6</ele>
        <time>2021-05-23T06:20:11.982Z</time>
      </trkpt>
      <trkpt lat="47.26714" lon="-2.22112">
        <ele>6</ele>
        <time>2021-05-23T06:20:12.983Z</time>
      </trkpt>
      <trkpt lat="47.26712" lon="-2.22115">
        <ele>6</ele>
        <time>2021-05-23T06:20:13.983Z</time>
      </trkpt>
      <trkpt lat="47.26711" lon="-2.22118">
        <ele>5</ele>
        <time>2021-05-23T06:20:14.983Z</time>
      </trkpt>
      <trkpt lat="47.2671" lon="-2.22121">
        <ele>5</ele>
        <time>2021-05-23T06:20:15.983Z</time>
      </trkpt>
      <trkpt lat="47.26708" lon="-2.22123">
        <ele>5</ele>
        <time>2021-05-23T06:20:16.982Z</time>
      </trkpt>
      <trkpt lat="47.26707" lon="-2.22126">
        <ele>5</ele>
        <time>2021-05-23T06:20:17.983Z</time>
      </trkpt>
      <trkpt lat="47.26706" lon="-2.22129">
        <ele>6</ele>
        <time>2021-05-23T06:20:18.982Z</time>
      </trkpt>
      <trkpt lat="47.26704" lon="-2.22131">
        <ele>6</ele>
        <time>2021-05-23T06:20:19.982Z</time>
      </trkpt>
      <trkpt lat="47.26703" lon="-2.22134">
        <ele>6</ele>
        <time>2021-05-23T06:20:20.983Z</time>
      </trkpt>
      <trkpt lat="47.26701" lon="-2.22136">
        <ele>6</ele>
        <time>2021-05-23T06:20:21.983Z</time>
      </trkpt>
      <trkpt lat="47.267" lon="-2.22139">
        <ele>6</ele>
        <time>2021-05-23T06:20:22.982Z</time>
      </trkpt>
      <trkpt lat="47.26698" lon="-2.22141">
        <ele>6</ele>
        <time>2021-05-23T06:20:23.983Z</time>
      </trkpt>
      <trkpt lat="47.26697" lon="-2.22144">
        <ele>6</ele>
        <time>2021-05-23T06:20:24.983Z</time>
      </trkpt>
      <trkpt lat="47.26696" lon="-2.22146">
        <ele>6</ele>
        <time>2021-05-23T06:20:25.982Z</time>
      </trkpt>
      <trkpt lat="47.26694" lon="-2.22149">
        <ele>6</ele>
        <time>2021-05-23T06:20:26.982Z</time>
      </trkpt>
      <trkpt lat="47.26693" lon="-2.22151">
        <ele>6</ele>
        <time>2021-05-23T06:20:27.982Z</time>
      </trkpt>
      <trkpt lat="47.26692" lon="-2.22153">
        <ele>6</ele>
        <time>2021-05-23T06:20:28.982Z</time>
      </trkpt>
      <trkpt lat="47.2669" lon="-2.22157">
        <ele>6</ele>
        <time>2021-05-23T06:20:29.982Z</time>
      </trkpt>
      <trkpt lat="47.26689" lon="-2.22159">
        <ele>6</ele>
        <time>2021-05-23T06:20:30.983Z</time>
      </trkpt>
      <trkpt lat="47.26687" lon="-2.22162">
        <ele>6</ele>
        <time>2021-05-23T06:20:31.983Z</time>
      </trkpt>
      <trkpt lat="47.26686" lon="-2.22164">
        <ele>6</ele>
        <time>2021-05-23T06:20:32.982Z</time>
      </trkpt>
      <trkpt lat="47.26684" lon="-2.22167">
        <ele>6</ele>
        <time>2021-05-23T06:20:33.983Z</time>
      </trkpt>
      <trkpt lat="47.26683" lon="-2.2217">
        <ele>7</ele>
        <time>2021-05-23T06:20:34.982Z</time>
      </trkpt>
      <trkpt lat="47.26681" lon="-2.22173">
        <ele>7</ele>
        <time>2021-05-23T06:20:35.982Z</time>
      </trkpt>
      <trkpt lat="47.2668" lon="-2.22175">
        <ele>7</ele>
        <time>2021-05-23T06:20:36.982Z</time>
      </trkpt>
      <trkpt lat="47.26679" lon="-2.22178">
        <ele>7</ele>
        <time>2021-05-23T06:20:37.982Z</time>
      </trkpt>
      <trkpt lat="47.26678" lon="-2.2218">
        <ele>7</ele>
        <time>2021-05-23T06:20:38.982Z</time>
      </trkpt>
      <trkpt lat="47.26677" lon="-2.22183">
        <ele>8</ele>
        <time>2021-05-23T06:20:39.982Z</time>
      </trkpt>
      <trkpt lat="47.26676" lon="-2.22186">
        <ele>7</ele>
        <time>2021-05-23T06:20:40.982Z</time>
      </trkpt>
      <trkpt lat="47.26674" lon="-2.22188">
        <ele>7</ele>
        <time>2021-05-23T06:20:41.982Z</time>
      </trkpt>
      <trkpt lat="47.26673" lon="-2.22191">
        <ele>7</ele>
        <time>2021-05-23T06:20:42.982Z</time>
      </trkpt>
      <trkpt lat="47.26672" lon="-2.22194">
        <ele>7</ele>
        <time>2021-05-23T06:20:43.982Z</time>
      </trkpt>
      <trkpt lat="47.2667" lon="-2.22196">
        <ele>7</ele>
        <time>2021-05-23T06:20:44.982Z</time>
      </trkpt>
      <trkpt lat="47.26669" lon="-2.22199">
        <ele>7</ele>
        <time>2021-05-23T06:20:45.982Z</time>
      </trkpt>
      <trkpt lat="47.26668" lon="-2.22201">
        <ele>7</ele>
        <time>2021-05-23T06:20:46.982Z</time>
      </trkpt>
      <trkpt lat="47.26666" lon="-2.22204">
        <ele>7</ele>
        <time>2021-05-23T06:20:47.983Z</time>
      </trkpt>
      <trkpt lat="47.26664" lon="-2.22206">
        <ele>7</ele>
        <time>2021-05-23T06:20:48.982Z</time>
      </trkpt>
      <trkpt lat="47.26662" lon="-2.22209">
        <ele>7</ele>
        <time>2021-05-23T06:20:49.983Z</time>
      </trkpt>
      <trkpt lat="47.26661" lon="-2.22211">
        <ele>7</ele>
        <time>2021-05-23T06:20:50.983Z</time>
      </trkpt>
      <trkpt lat="47.26659" lon="-2.22213">
        <ele>7</ele>
        <time>2021-05-23T06:20:51.982Z</time>
      </trkpt>
      <trkpt lat="47.26658" lon="-2.22215">
        <ele>6</ele>
        <time>2021-05-23T06:20:52.983Z</time>
      </trkpt>
      <trkpt lat="47.26656" lon="-2.22218">
        <ele>6</ele>
        <time>2021-05-23T06:20:53.983Z</time>
      </trkpt>
      <trkpt lat="47.26655" lon="-2.22221">
        <ele>6</ele>
        <time>2021-05-23T06:20:54.982Z</time>
      </trkpt>
      <trkpt lat="47.26654" lon="-2.22223">
        <ele>7</ele>
        <time>2021-05-23T06:20:55.983Z</time>
      </trkpt>
      <trkpt lat="47.26653" lon="-2.22226">
        <ele>7</ele>
        <time>2021-05-23T06:20:56.982Z</time>
      </trkpt>
      <trkpt lat="47.26651" lon="-2.22229">
        <ele>8</ele>
        <time>2021-05-23T06:20:57.983Z</time>
      </trkpt>
      <trkpt lat="47.2665" lon="-2.22232">
        <ele>8</ele>
        <time>2021-05-23T06:20:58.983Z</time>
      </trkpt>
      <trkpt lat="47.26649" lon="-2.22235">
        <ele>8</ele>
        <time>2021-05-23T06:20:59.982Z</time>
      </trkpt>
      <trkpt lat="47.26647" lon="-2.22237">
        <ele>8</ele>
        <time>2021-05-23T06:21:00.983Z</time>
      </trkpt>
      <trkpt lat="47.26646" lon="-2.2224">
        <ele>8</ele>
        <time>2021-05-23T06:21:01.983Z</time>
      </trkpt>
      <trkpt lat="47.26643" lon="-2.22243">
        <ele>9</ele>
        <time>2021-05-23T06:21:02.982Z</time>
      </trkpt>
      <trkpt lat="47.26642" lon="-2.22246">
        <ele>9</ele>
        <time>2021-05-23T06:21:03.983Z</time>
      </trkpt>
      <trkpt lat="47.2664" lon="-2.22248">
        <ele>9</ele>
        <time>2021-05-23T06:21:04.983Z</time>
      </trkpt>
      <trkpt lat="47.26639" lon="-2.2225">
        <ele>9</ele>
        <time>2021-05-23T06:21:05.983Z</time>
      </trkpt>
      <trkpt lat="47.26637" lon="-2.22253">
        <ele>8</ele>
        <time>2021-05-23T06:21:06.983Z</time>
      </trkpt>
      <trkpt lat="47.26635" lon="-2.22255">
        <ele>8</ele>
        <time>2021-05-23T06:21:07.983Z</time>
      </trkpt>
      <trkpt lat="47.26634" lon="-2.22258">
        <ele>8</ele>
        <time>2021-05-23T06:21:08.983Z</time>
      </trkpt>
      <trkpt lat="47.26633" lon="-2.2226">
        <ele>8</ele>
        <time>2021-05-23T06:21:09.983Z</time>
      </trkpt>
      <trkpt lat="47.26631" lon="-2.22264">
        <ele>8</ele>
        <time>2021-05-23T06:21:10.983Z</time>
      </trkpt>
      <trkpt lat="47.26629" lon="-2.22266">
        <ele>9</ele>
        <time>2021-05-23T06:21:11.983Z</time>
      </trkpt>
      <trkpt lat="47.26628" lon="-2.22269">
        <ele>9</ele>
        <time>2021-05-23T06:21:12.983Z</time>
      </trkpt>
      <trkpt lat="47.26627" lon="-2.22272">
        <ele>9</ele>
        <time>2021-05-23T06:21:13.983Z</time>
      </trkpt>
      <trkpt lat="47.26625" lon="-2.22275">
        <ele>10</ele>
        <time>2021-05-23T06:21:14.983Z</time>
      </trkpt>
      <trkpt lat="47.26623" lon="-2.22278">
        <ele>10</ele>
        <time>2021-05-23T06:21:15.983Z</time>
      </trkpt>
      <trkpt lat="47.26622" lon="-2.2228">
        <ele>10</ele>
        <time>2021-05-23T06:21:16.982Z</time>
      </trkpt>
      <trkpt lat="47.2662" lon="-2.22283">
        <ele>10</ele>
        <time>2021-05-23T06:21:17.982Z</time>
      </trkpt>
      <trkpt lat="47.26619" lon="-2.22285">
        <ele>10</ele>
        <time>2021-05-23T06:21:18.982Z</time>
      </trkpt>
      <trkpt lat="47.26618" lon="-2.22288">
        <ele>10</ele>
        <time>2021-05-23T06:21:19.983Z</time>
      </trkpt>
      <trkpt lat="47.26616" lon="-2.2229">
        <ele>10</ele>
        <time>2021-05-23T06:21:20.983Z</time>
      </trkpt>
      <trkpt lat="47.26615" lon="-2.22293">
        <ele>10</ele>
        <time>2021-05-23T06:21:21.983Z</time>
      </trkpt>
      <trkpt lat="47.26614" lon="-2.22296">
        <ele>9</ele>
        <time>2021-05-23T06:21:22.982Z</time>
      </trkpt>
      <trkpt lat="47.26612" lon="-2.22298">
        <ele>9</ele>
        <time>2021-05-23T06:21:23.983Z</time>
      </trkpt>
      <trkpt lat="47.2661" lon="-2.223">
        <ele>9</ele>
        <time>2021-05-23T06:21:24.982Z</time>
      </trkpt>
      <trkpt lat="47.26609" lon="-2.22303">
        <ele>9</ele>
        <time>2021-05-23T06:21:25.983Z</time>
      </trkpt>
      <trkpt lat="47.26607" lon="-2.22305">
        <ele>9</ele>
        <time>2021-05-23T06:21:26.983Z</time>
      </trkpt>
      <trkpt lat="47.26605" lon="-2.22307">
        <ele>9</ele>
        <time>2021-05-23T06:21:27.983Z</time>
      </trkpt>
      <trkpt lat="47.26604" lon="-2.2231">
        <ele>9</ele>
        <time>2021-05-23T06:21:28.983Z</time>
      </trkpt>
      <trkpt lat="47.26602" lon="-2.22313">
        <ele>9</ele>
        <time>2021-05-23T06:21:29.983Z</time>
      </trkpt>
      <trkpt lat="47.266" lon="-2.22315">
        <ele>9</ele>
        <time>2021-05-23T06:21:30.983Z</time>
      </trkpt>
      <trkpt lat="47.26599" lon="-2.22318">
        <ele>8</ele>
        <time>2021-05-23T06:21:31.983Z</time>
      </trkpt>
      <trkpt lat="47.26597" lon="-2.2232">
        <ele>8</ele>
        <time>2021-05-23T06:21:32.982Z</time>
      </trkpt>
      <trkpt lat="47.26595" lon="-2.22323">
        <ele>8</ele>
        <time>2021-05-23T06:21:33.982Z</time>
      </trkpt>
      <trkpt lat="47.26593" lon="-2.22326">
        <ele>7</ele>
        <time>2021-05-23T06:21:34.983Z</time>
      </trkpt>
      <trkpt lat="47.26592" lon="-2.22329">
        <ele>7</ele>
        <time>2021-05-23T06:21:35.983Z</time>
      </trkpt>
      <trkpt lat="47.26591" lon="-2.22332">
        <ele>7</ele>
        <time>2021-05-23T06:21:36.983Z</time>
      </trkpt>
      <trkpt lat="47.26589" lon="-2.22334">
        <ele>8</ele>
        <time>2021-05-23T06:21:37.983Z</time>
      </trkpt>
      <trkpt lat="47.26588" lon="-2.22337">
        <ele>8</ele>
        <time>2021-05-23T06:21:38.982Z</time>
      </trkpt>
      <trkpt lat="47.26587" lon="-2.22339">
        <ele>8</ele>
        <time>2021-05-23T06:21:39.983Z</time>
      </trkpt>
      <trkpt lat="47.26585" lon="-2.22341">
        <ele>8</ele>
        <time>2021-05-23T06:21:40.983Z</time>
      </trkpt>
      <trkpt lat="47.26584" lon="-2.22344">
        <ele>7</ele>
        <time>2021-05-23T06:21:41.982Z</time>
      </trkpt>
      <trkpt lat="47.26582" lon="-2.22347">
        <ele>7</ele>
        <time>2021-05-23T06:21:42.983Z</time>
      </trkpt>
      <trkpt lat="47.26581" lon="-2.2235">
        <ele>7</ele>
        <time>2021-05-23T06:21:43.983Z</time>
      </trkpt>
      <trkpt lat="47.2658" lon="-2.22352">
        <ele>7</ele>
        <time>2021-05-23T06:21:44.983Z</time>
      </trkpt>
      <trkpt lat="47.26578" lon="-2.22355">
        <ele>8</ele>
        <time>2021-05-23T06:21:45.983Z</time>
      </trkpt>
      <trkpt lat="47.26576" lon="-2.22358">
        <ele>8</ele>
        <time>2021-05-23T06:21:46.982Z</time>
      </trkpt>
      <trkpt lat="47.26575" lon="-2.22361">
        <ele>9</ele>
        <time>2021-05-23T06:21:47.983Z</time>
      </trkpt>
      <trkpt lat="47.26573" lon="-2.22364">
        <ele>9</ele>
        <time>2021-05-23T06:21:48.982Z</time>
      </trkpt>
      <trkpt lat="47.26572" lon="-2.22366">
        <ele>9</ele>
        <time>2021-05-23T06:21:49.983Z</time>
      </trkpt>
      <trkpt lat="47.26571" lon="-2.22369">
        <ele>10</ele>
        <time>2021-05-23T06:21:50.983Z</time>
      </trkpt>
      <trkpt lat="47.26569" lon="-2.22372">
        <ele>10</ele>
        <time>2021-05-23T06:21:51.983Z</time>
      </trkpt>
      <trkpt lat="47.26568" lon="-2.22375">
        <ele>10</ele>
        <time>2021-05-23T06:21:52.982Z</time>
      </trkpt>
      <trkpt lat="47.26567" lon="-2.22378">
        <ele>10</ele>
        <time>2021-05-23T06:21:53.982Z</time>
      </trkpt>
      <trkpt lat="47.26565" lon="-2.22381">
        <ele>9</ele>
        <time>2021-05-23T06:21:54.983Z</time>
      </trkpt>
      <trkpt lat="47.26564" lon="-2.22384">
        <ele>9</ele>
        <time>2021-05-23T06:21:55.983Z</time>
      </trkpt>
      <trkpt lat="47.26562" lon="-2.22386">
        <ele>9</ele>
        <time>2021-05-23T06:21:56.982Z</time>
      </trkpt>
      <trkpt lat="47.26561" lon="-2.22389">
        <ele>9</ele>
        <time>2021-05-23T06:21:57.982Z</time>
      </trkpt>
      <trkpt lat="47.26559" lon="-2.22392">
        <ele>9</ele>
        <time>2021-05-23T06:21:58.982Z</time>
      </trkpt>
      <trkpt lat="47.26558" lon="-2.22395">
        <ele>9</ele>
        <time>2021-05-23T06:21:59.983Z</time>
      </trkpt>
      <trkpt lat="47.26557" lon="-2.22397">
        <ele>8</ele>
        <time>2021-05-23T06:22:00.983Z</time>
      </trkpt>
      <trkpt lat="47.26555" lon="-2.224">
        <ele>8</ele>
        <time>2021-05-23T06:22:01.982Z</time>
      </trkpt>
      <trkpt lat="47.26554" lon="-2.22403">
        <ele>8</ele>
        <time>2021-05-23T06:22:02.983Z</time>
      </trkpt>
      <trkpt lat="47.26553" lon="-2.22406">
        <ele>8</ele>
        <time>2021-05-23T06:22:03.983Z</time>
      </trkpt>
      <trkpt lat="47.26551" lon="-2.22408">
        <ele>8</ele>
        <time>2021-05-23T06:22:04.983Z</time>
      </trkpt>
      <trkpt lat="47.26549" lon="-2.22411">
        <ele>8</ele>
        <time>2021-05-23T06:22:05.982Z</time>
      </trkpt>
      <trkpt lat="47.26548" lon="-2.22414">
        <ele>9</ele>
        <time>2021-05-23T06:22:06.983Z</time>
      </trkpt>
      <trkpt lat="47.26546" lon="-2.22417">
        <ele>9</ele>
        <time>2021-05-23T06:22:07.983Z</time>
      </trkpt>
      <trkpt lat="47.26545" lon="-2.2242">
        <ele>9</ele>
        <time>2021-05-23T06:22:08.983Z</time>
      </trkpt>
      <trkpt lat="47.26543" lon="-2.22422">
        <ele>9</ele>
        <time>2021-05-23T06:22:09.983Z</time>
      </trkpt>
      <trkpt lat="47.26541" lon="-2.22424">
        <ele>8</ele>
        <time>2021-05-23T06:22:10.983Z</time>
      </trkpt>
      <trkpt lat="47.2654" lon="-2.22427">
        <ele>8</ele>
        <time>2021-05-23T06:22:11.983Z</time>
      </trkpt>
      <trkpt lat="47.26538" lon="-2.22429">
        <ele>8</ele>
        <time>2021-05-23T06:22:12.983Z</time>
      </trkpt>
      <trkpt lat="47.26537" lon="-2.22431">
        <ele>7</ele>
        <time>2021-05-23T06:22:13.983Z</time>
      </trkpt>
      <trkpt lat="47.26535" lon="-2.22434">
        <ele>7</ele>
        <time>2021-05-23T06:22:14.983Z</time>
      </trkpt>
      <trkpt lat="47.26534" lon="-2.22436">
        <ele>7</ele>
        <time>2021-05-23T06:22:15.983Z</time>
      </trkpt>
      <trkpt lat="47.26532" lon="-2.22439">
        <ele>7</ele>
        <time>2021-05-23T06:22:16.983Z</time>
      </trkpt>
      <trkpt lat="47.26531" lon="-2.22441">
        <ele>8</ele>
        <time>2021-05-23T06:22:17.983Z</time>
      </trkpt>
      <trkpt lat="47.26529" lon="-2.22444">
        <ele>8</ele>
        <time>2021-05-23T06:22:18.983Z</time>
      </trkpt>
      <trkpt lat="47.26528" lon="-2.22447">
        <ele>8</ele>
        <time>2021-05-23T06:22:19.983Z</time>
      </trkpt>
      <trkpt lat="47.26527" lon="-2.2245">
        <ele>9</ele>
        <time>2021-05-23T06:22:20.983Z</time>
      </trkpt>
      <trkpt lat="47.26525" lon="-2.22453">
        <ele>8</ele>
        <time>2021-05-23T06:22:21.982Z</time>
      </trkpt>
      <trkpt lat="47.26524" lon="-2.22456">
        <ele>8</ele>
        <time>2021-05-23T06:22:22.982Z</time>
      </trkpt>
      <trkpt lat="47.26522" lon="-2.22458">
        <ele>8</ele>
        <time>2021-05-23T06:22:23.983Z</time>
      </trkpt>
      <trkpt lat="47.2652" lon="-2.2246">
        <ele>8</ele>
        <time>2021-05-23T06:22:24.983Z</time>
      </trkpt>
      <trkpt lat="47.26519" lon="-2.22463">
        <ele>8</ele>
        <time>2021-05-23T06:22:25.983Z</time>
      </trkpt>
      <trkpt lat="47.26517" lon="-2.22465">
        <ele>8</ele>
        <time>2021-05-23T06:22:26.983Z</time>
      </trkpt>
      <trkpt lat="47.26515" lon="-2.22467">
        <ele>9</ele>
        <time>2021-05-23T06:22:27.982Z</time>
      </trkpt>
      <trkpt lat="47.26513" lon="-2.22469">
        <ele>9</ele>
        <time>2021-05-23T06:22:28.983Z</time>
      </trkpt>
      <trkpt lat="47.2651" lon="-2.22471">
        <ele>9</ele>
        <time>2021-05-23T06:22:29.983Z</time>
      </trkpt>
      <trkpt lat="47.26508" lon="-2.22472">
        <ele>8</ele>
        <time>2021-05-23T06:22:30.983Z</time>
      </trkpt>
      <trkpt lat="47.26507" lon="-2.22474">
        <ele>8</ele>
        <time>2021-05-23T06:22:31.982Z</time>
      </trkpt>
      <trkpt lat="47.26504" lon="-2.22476">
        <ele>8</ele>
        <time>2021-05-23T06:22:32.983Z</time>
      </trkpt>
      <trkpt lat="47.26502" lon="-2.22477">
        <ele>8</ele>
        <time>2021-05-23T06:22:33.982Z</time>
      </trkpt>
      <trkpt lat="47.265" lon="-2.22478">
        <ele>7</ele>
        <time>2021-05-23T06:22:34.983Z</time>
      </trkpt>
      <trkpt lat="47.26498" lon="-2.22479">
        <ele>7</ele>
        <time>2021-05-23T06:22:35.983Z</time>
      </trkpt>
      <trkpt lat="47.26496" lon="-2.22481">
        <ele>7</ele>
        <time>2021-05-23T06:22:36.982Z</time>
      </trkpt>
      <trkpt lat="47.26494" lon="-2.22482">
        <ele>7</ele>
        <time>2021-05-23T06:22:37.983Z</time>
      </trkpt>
      <trkpt lat="47.26493" lon="-2.22484">
        <ele>7</ele>
        <time>2021-05-23T06:22:38.982Z</time>
      </trkpt>
      <trkpt lat="47.26491" lon="-2.22486">
        <ele>7</ele>
        <time>2021-05-23T06:22:39.983Z</time>
      </trkpt>
      <trkpt lat="47.26489" lon="-2.22488">
        <ele>7</ele>
        <time>2021-05-23T06:22:40.983Z</time>
      </trkpt>
      <trkpt lat="47.26487" lon="-2.2249">
        <ele>8</ele>
        <time>2021-05-23T06:22:41.983Z</time>
      </trkpt>
      <trkpt lat="47.26485" lon="-2.22491">
        <ele>7</ele>
        <time>2021-05-23T06:22:42.983Z</time>
      </trkpt>
      <trkpt lat="47.26483" lon="-2.22493">
        <ele>7</ele>
        <time>2021-05-23T06:22:43.983Z</time>
      </trkpt>
      <trkpt lat="47.2648" lon="-2.22494">
        <ele>6</ele>
        <time>2021-05-23T06:22:44.983Z</time>
      </trkpt>
      <trkpt lat="47.26478" lon="-2.22496">
        <ele>6</ele>
        <time>2021-05-23T06:22:45.982Z</time>
      </trkpt>
      <trkpt lat="47.26476" lon="-2.22497">
        <ele>6</ele>
        <time>2021-05-23T06:22:46.983Z</time>
      </trkpt>
      <trkpt lat="47.26474" lon="-2.22499">
        <ele>6</ele>
        <time>2021-05-23T06:22:47.983Z</time>
      </trkpt>
      <trkpt lat="47.26472" lon="-2.225">
        <ele>6</ele>
        <time>2021-05-23T06:22:48.982Z</time>
      </trkpt>
      <trkpt lat="47.2647" lon="-2.22501">
        <ele>6</ele>
        <time>2021-05-23T06:22:49.983Z</time>
      </trkpt>
      <trkpt lat="47.26468" lon="-2.22503">
        <ele>6</ele>
        <time>2021-05-23T06:22:50.982Z</time>
      </trkpt>
      <trkpt lat="47.26466" lon="-2.22504">
        <ele>6</ele>
        <time>2021-05-23T06:22:51.982Z</time>
      </trkpt>
      <trkpt lat="47.26464" lon="-2.22505">
        <ele>6</ele>
        <time>2021-05-23T06:22:52.982Z</time>
      </trkpt>
      <trkpt lat="47.26462" lon="-2.22506">
        <ele>5</ele>
        <time>2021-05-23T06:22:53.983Z</time>
      </trkpt>
      <trkpt lat="47.26459" lon="-2.22507">
        <ele>5</ele>
        <time>2021-05-23T06:22:54.982Z</time>
      </trkpt>
      <trkpt lat="47.26457" lon="-2.22508">
        <ele>5</ele>
        <time>2021-05-23T06:22:55.983Z</time>
      </trkpt>
      <trkpt lat="47.26455" lon="-2.22509">
        <ele>5</ele>
        <time>2021-05-23T06:22:56.982Z</time>
      </trkpt>
      <trkpt lat="47.26452" lon="-2.2251">
        <ele>5</ele>
        <time>2021-05-23T06:22:57.983Z</time>
      </trkpt>
      <trkpt lat="47.2645" lon="-2.22511">
        <ele>5</ele>
        <time>2021-05-23T06:22:58.983Z</time>
      </trkpt>
      <trkpt lat="47.26448" lon="-2.22512">
        <ele>5</ele>
        <time>2021-05-23T06:22:59.982Z</time>
      </trkpt>
      <trkpt lat="47.26446" lon="-2.22513">
        <ele>5</ele>
        <time>2021-05-23T06:23:00.982Z</time>
      </trkpt>
      <trkpt lat="47.26444" lon="-2.22514">
        <ele>5</ele>
        <time>2021-05-23T06:23:01.983Z</time>
      </trkpt>
      <trkpt lat="47.26442" lon="-2.22515">
        <ele>5</ele>
        <time>2021-05-23T06:23:02.983Z</time>
      </trkpt>
      <trkpt lat="47.2644" lon="-2.22515">
        <ele>5</ele>
        <time>2021-05-23T06:23:03.983Z</time>
      </trkpt>
      <trkpt lat="47.26437" lon="-2.22516">
        <ele>5</ele>
        <time>2021-05-23T06:23:04.982Z</time>
      </trkpt>
      <trkpt lat="47.26435" lon="-2.22517">
        <ele>5</ele>
        <time>2021-05-23T06:23:05.982Z</time>
      </trkpt>
      <trkpt lat="47.26433" lon="-2.22517">
        <ele>6</ele>
        <time>2021-05-23T06:23:06.982Z</time>
      </trkpt>
      <trkpt lat="47.2643" lon="-2.22517">
        <ele>6</ele>
        <time>2021-05-23T06:23:07.983Z</time>
      </trkpt>
      <trkpt lat="47.26428" lon="-2.22518">
        <ele>6</ele>
        <time>2021-05-23T06:23:08.983Z</time>
      </trkpt>
      <trkpt lat="47.26426" lon="-2.22518">
        <ele>7</ele>
        <time>2021-05-23T06:23:09.983Z</time>
      </trkpt>
      <trkpt lat="47.26423" lon="-2.22519">
        <ele>7</ele>
        <time>2021-05-23T06:23:10.983Z</time>
      </trkpt>
      <trkpt lat="47.26421" lon="-2.22519">
        <ele>7</ele>
        <time>2021-05-23T06:23:11.982Z</time>
      </trkpt>
      <trkpt lat="47.26419" lon="-2.2252">
        <ele>7</ele>
        <time>2021-05-23T06:23:12.983Z</time>
      </trkpt>
      <trkpt lat="47.26417" lon="-2.2252">
        <ele>7</ele>
        <time>2021-05-23T06:23:13.982Z</time>
      </trkpt>
      <trkpt lat="47.26415" lon="-2.2252">
        <ele>7</ele>
        <time>2021-05-23T06:23:14.982Z</time>
      </trkpt>
      <trkpt lat="47.26412" lon="-2.2252">
        <ele>7</ele>
        <time>2021-05-23T06:23:15.983Z</time>
      </trkpt>
      <trkpt lat="47.26409" lon="-2.2252">
        <ele>7</ele>
        <time>2021-05-23T06:23:16.983Z</time>
      </trkpt>
      <trkpt lat="47.26407" lon="-2.22521">
        <ele>7</ele>
        <time>2021-05-23T06:23:17.983Z</time>
      </trkpt>
      <trkpt lat="47.26405" lon="-2.22521">
        <ele>7</ele>
        <time>2021-05-23T06:23:18.983Z</time>
      </trkpt>
      <trkpt lat="47.26402" lon="-2.22522">
        <ele>7</ele>
        <time>2021-05-23T06:23:19.983Z</time>
      </trkpt>
      <trkpt lat="47.264" lon="-2.22522">
        <ele>7</ele>
        <time>2021-05-23T06:23:20.982Z</time>
      </trkpt>
      <trkpt lat="47.26398" lon="-2.22522">
        <ele>8</ele>
        <time>2021-05-23T06:23:21.983Z</time>
      </trkpt>
      <trkpt lat="47.26396" lon="-2.22522">
        <ele>8</ele>
        <time>2021-05-23T06:23:22.983Z</time>
      </trkpt>
      <trkpt lat="47.26393" lon="-2.22523">
        <ele>8</ele>
        <time>2021-05-23T06:23:23.983Z</time>
      </trkpt>
      <trkpt lat="47.26391" lon="-2.22523">
        <ele>8</ele>
        <time>2021-05-23T06:23:24.983Z</time>
      </trkpt>
      <trkpt lat="47.26389" lon="-2.22522">
        <ele>8</ele>
        <time>2021-05-23T06:23:25.983Z</time>
      </trkpt>
      <trkpt lat="47.26387" lon="-2.22522">
        <ele>8</ele>
        <time>2021-05-23T06:23:26.983Z</time>
      </trkpt>
      <trkpt lat="47.26385" lon="-2.22522">
        <ele>9</ele>
        <time>2021-05-23T06:23:27.983Z</time>
      </trkpt>
      <trkpt lat="47.26384" lon="-2.22522">
        <ele>9</ele>
        <time>2021-05-23T06:23:28.982Z</time>
      </trkpt>
      <trkpt lat="47.26381" lon="-2.22522">
        <ele>9</ele>
        <time>2021-05-23T06:23:29.983Z</time>
      </trkpt>
      <trkpt lat="47.2638" lon="-2.22521">
        <ele>9</ele>
        <time>2021-05-23T06:23:30.982Z</time>
      </trkpt>
      <trkpt lat="47.26378" lon="-2.22521">
        <ele>9</ele>
        <time>2021-05-23T06:23:31.983Z</time>
      </trkpt>
      <trkpt lat="47.26378" lon="-2.22521">
        <ele>8</ele>
        <time>2021-05-23T06:23:32.983Z</time>
      </trkpt>
      <trkpt lat="47.26377" lon="-2.2252">
        <ele>8</ele>
        <time>2021-05-23T06:23:33.982Z</time>
      </trkpt>
      <trkpt lat="47.26377" lon="-2.22521">
        <ele>8</ele>
        <time>2021-05-23T06:23:34.983Z</time>
      </trkpt>
      <trkpt lat="47.26377" lon="-2.22521">
        <ele>7</ele>
        <time>2021-05-23T06:23:35.983Z</time>
      </trkpt>
      <trkpt lat="47.26377" lon="-2.22521">
        <ele>6</ele>
        <time>2021-05-23T06:23:36.983Z</time>
      </trkpt>
      <trkpt lat="47.26377" lon="-2.2252">
        <ele>5</ele>
        <time>2021-05-23T06:23:37.983Z</time>
      </trkpt>
      <trkpt lat="47.26377" lon="-2.2252">
        <ele>4</ele>
        <time>2021-05-23T06:23:38.983Z</time>
      </trkpt>
      <trkpt lat="47.26377" lon="-2.2252">
        <ele>3</ele>
        <time>2021-05-23T06:23:39.983Z</time>
      </trkpt>
      <trkpt lat="47.26377" lon="-2.2252">
        <ele>3</ele>
        <time>2021-05-23T06:23:40.983Z</time>
      </trkpt>
      <trkpt lat="47.26377" lon="-2.2252">
        <ele>2</ele>
        <time>2021-05-23T06:23:41.983Z</time>
      </trkpt>
      <trkpt lat="47.26377" lon="-2.2252">
        <ele>2</ele>
        <time>2021-05-23T06:23:42.982Z</time>
      </trkpt>
      <trkpt lat="47.26377" lon="-2.2252">
        <ele>2</ele>
        <time>2021-05-23T06:23:43.982Z</time>
      </trkpt>
      <trkpt lat="47.26378" lon="-2.2252">
        <ele>3</ele>
        <time>2021-05-23T06:23:44.983Z</time>
      </trkpt>
      <trkpt lat="47.26378" lon="-2.2252">
        <ele>4</ele>
        <time>2021-05-23T06:23:45.982Z</time>
      </trkpt>
      <trkpt lat="47.26378" lon="-2.2252">
        <ele>4</ele>
        <time>2021-05-23T06:23:46.982Z</time>
      </trkpt>
      <trkpt lat="47.26378" lon="-2.2252">
        <ele>5</ele>
        <time>2021-05-23T06:23:47.982Z</time>
      </trkpt>
      <trkpt lat="47.26378" lon="-2.2252">
        <ele>6</ele>
        <time>2021-05-23T06:23:48.983Z</time>
      </trkpt>
      <trkpt lat="47.26377" lon="-2.2252">
        <ele>6</ele>
        <time>2021-05-23T06:23:49.982Z</time>
      </trkpt>
      <trkpt lat="47.26375" lon="-2.2252">
        <ele>7</ele>
        <time>2021-05-23T06:23:50.983Z</time>
      </trkpt>
      <trkpt lat="47.26372" lon="-2.22519">
        <ele>7</ele>
        <time>2021-05-23T06:23:51.982Z</time>
      </trkpt>
      <trkpt lat="47.2637" lon="-2.22518">
        <ele>7</ele>
        <time>2021-05-23T06:23:52.983Z</time>
      </trkpt>
      <trkpt lat="47.26367" lon="-2.22518">
        <ele>7</ele>
        <time>2021-05-23T06:23:53.983Z</time>
      </trkpt>
      <trkpt lat="47.26364" lon="-2.22517">
        <ele>8</ele>
        <time>2021-05-23T06:23:54.983Z</time>
      </trkpt>
      <trkpt lat="47.26362" lon="-2.22516">
        <ele>8</ele>
        <time>2021-05-23T06:23:55.983Z</time>
      </trkpt>
      <trkpt lat="47.26359" lon="-2.22515">
        <ele>8</ele>
        <time>2021-05-23T06:23:56.983Z</time>
      </trkpt>
      <trkpt lat="47.26356" lon="-2.22513">
        <ele>8</ele>
        <time>2021-05-23T06:23:57.982Z</time>
      </trkpt>
      <trkpt lat="47.26354" lon="-2.22513">
        <ele>8</ele>
        <time>2021-05-23T06:23:58.982Z</time>
      </trkpt>
      <trkpt lat="47.26351" lon="-2.22511">
        <ele>8</ele>
        <time>2021-05-23T06:23:59.982Z</time>
      </trkpt>
      <trkpt lat="47.2635" lon="-2.22511">
        <ele>8</ele>
        <time>2021-05-23T06:24:00.983Z</time>
      </trkpt>
      <trkpt lat="47.26347" lon="-2.2251">
        <ele>8</ele>
        <time>2021-05-23T06:24:01.982Z</time>
      </trkpt>
      <trkpt lat="47.26345" lon="-2.22509">
        <ele>9</ele>
        <time>2021-05-23T06:24:02.982Z</time>
      </trkpt>
      <trkpt lat="47.26342" lon="-2.22508">
        <ele>9</ele>
        <time>2021-05-23T06:24:03.983Z</time>
      </trkpt>
      <trkpt lat="47.2634" lon="-2.22507">
        <ele>9</ele>
        <time>2021-05-23T06:24:04.982Z</time>
      </trkpt>
      <trkpt lat="47.26338" lon="-2.22506">
        <ele>8</ele>
        <time>2021-05-23T06:24:05.982Z</time>
      </trkpt>
      <trkpt lat="47.26335" lon="-2.22505">
        <ele>8</ele>
        <time>2021-05-23T06:24:06.983Z</time>
      </trkpt>
      <trkpt lat="47.26333" lon="-2.22504">
        <ele>8</ele>
        <time>2021-05-23T06:24:07.982Z</time>
      </trkpt>
      <trkpt lat="47.2633" lon="-2.22503">
        <ele>8</ele>
        <time>2021-05-23T06:24:08.983Z</time>
      </trkpt>
      <trkpt lat="47.26328" lon="-2.22502">
        <ele>8</ele>
        <time>2021-05-23T06:24:09.983Z</time>
      </trkpt>
      <trkpt lat="47.26326" lon="-2.22501">
        <ele>8</ele>
        <time>2021-05-23T06:24:10.983Z</time>
      </trkpt>
      <trkpt lat="47.26323" lon="-2.225">
        <ele>8</ele>
        <time>2021-05-23T06:24:11.983Z</time>
      </trkpt>
      <trkpt lat="47.26321" lon="-2.22499">
        <ele>8</ele>
        <time>2021-05-23T06:24:12.982Z</time>
      </trkpt>
      <trkpt lat="47.26319" lon="-2.22498">
        <ele>9</ele>
        <time>2021-05-23T06:24:13.983Z</time>
      </trkpt>
      <trkpt lat="47.26317" lon="-2.22497">
        <ele>9</ele>
        <time>2021-05-23T06:24:14.982Z</time>
      </trkpt>
      <trkpt lat="47.26315" lon="-2.22496">
        <ele>9</ele>
        <time>2021-05-23T06:24:15.982Z</time>
      </trkpt>
      <trkpt lat="47.26312" lon="-2.22495">
        <ele>8</ele>
        <time>2021-05-23T06:24:16.982Z</time>
      </trkpt>
      <trkpt lat="47.26309" lon="-2.22494">
        <ele>8</ele>
        <time>2021-05-23T06:24:17.982Z</time>
      </trkpt>
      <trkpt lat="47.26307" lon="-2.22493">
        <ele>8</ele>
        <time>2021-05-23T06:24:18.982Z</time>
      </trkpt>
      <trkpt lat="47.26305" lon="-2.22493">
        <ele>8</ele>
        <time>2021-05-23T06:24:19.982Z</time>
      </trkpt>
      <trkpt lat="47.26302" lon="-2.22492">
        <ele>8</ele>
        <time>2021-05-23T06:24:20.982Z</time>
      </trkpt>
      <trkpt lat="47.263" lon="-2.22492">
        <ele>8</ele>
        <time>2021-05-23T06:24:21.982Z</time>
      </trkpt>
      <trkpt lat="47.26298" lon="-2.22491">
        <ele>8</ele>
        <time>2021-05-23T06:24:22.982Z</time>
      </trkpt>
      <trkpt lat="47.26296" lon="-2.2249">
        <ele>8</ele>
        <time>2021-05-23T06:24:23.983Z</time>
      </trkpt>
      <trkpt lat="47.26294" lon="-2.2249">
        <ele>9</ele>
        <time>2021-05-23T06:24:24.982Z</time>
      </trkpt>
      <trkpt lat="47.26292" lon="-2.22489">
        <ele>9</ele>
        <time>2021-05-23T06:24:25.983Z</time>
      </trkpt>
      <trkpt lat="47.26289" lon="-2.22488">
        <ele>9</ele>
        <time>2021-05-23T06:24:26.982Z</time>
      </trkpt>
      <trkpt lat="47.26286" lon="-2.22487">
        <ele>8</ele>
        <time>2021-05-23T06:24:27.983Z</time>
      </trkpt>
      <trkpt lat="47.26284" lon="-2.22486">
        <ele>8</ele>
        <time>2021-05-23T06:24:28.982Z</time>
      </trkpt>
      <trkpt lat="47.26282" lon="-2.22486">
        <ele>8</ele>
        <time>2021-05-23T06:24:29.983Z</time>
      </trkpt>
      <trkpt lat="47.2628" lon="-2.22485">
        <ele>8</ele>
        <time>2021-05-23T06:24:30.983Z</time>
      </trkpt>
      <trkpt lat="47.26277" lon="-2.22484">
        <ele>8</ele>
        <time>2021-05-23T06:24:31.983Z</time>
      </trkpt>
      <trkpt lat="47.26274" lon="-2.22484">
        <ele>8</ele>
        <time>2021-05-23T06:24:32.982Z</time>
      </trkpt>
      <trkpt lat="47.26272" lon="-2.22483">
        <ele>8</ele>
        <time>2021-05-23T06:24:33.983Z</time>
      </trkpt>
      <trkpt lat="47.26269" lon="-2.22483">
        <ele>8</ele>
        <time>2021-05-23T06:24:34.983Z</time>
      </trkpt>
      <trkpt lat="47.26267" lon="-2.22482">
        <ele>9</ele>
        <time>2021-05-23T06:24:35.983Z</time>
      </trkpt>
      <trkpt lat="47.26265" lon="-2.22482">
        <ele>9</ele>
        <time>2021-05-23T06:24:36.982Z</time>
      </trkpt>
      <trkpt lat="47.26263" lon="-2.22482">
        <ele>10</ele>
        <time>2021-05-23T06:24:37.982Z</time>
      </trkpt>
      <trkpt lat="47.2626" lon="-2.22481">
        <ele>10</ele>
        <time>2021-05-23T06:24:38.983Z</time>
      </trkpt>
      <trkpt lat="47.26257" lon="-2.2248">
        <ele>10</ele>
        <time>2021-05-23T06:24:39.982Z</time>
      </trkpt>
      <trkpt lat="47.26254" lon="-2.22479">
        <ele>11</ele>
        <time>2021-05-23T06:24:40.982Z</time>
      </trkpt>
      <trkpt lat="47.26252" lon="-2.22478">
        <ele>11</ele>
        <time>2021-05-23T06:24:41.983Z</time>
      </trkpt>
      <trkpt lat="47.26249" lon="-2.22477">
        <ele>10</ele>
        <time>2021-05-23T06:24:42.983Z</time>
      </trkpt>
      <trkpt lat="47.26246" lon="-2.22476">
        <ele>10</ele>
        <time>2021-05-23T06:24:43.983Z</time>
      </trkpt>
      <trkpt lat="47.26243" lon="-2.22474">
        <ele>10</ele>
        <time>2021-05-23T06:24:44.982Z</time>
      </trkpt>
      <trkpt lat="47.2624" lon="-2.22472">
        <ele>10</ele>
        <time>2021-05-23T06:24:45.983Z</time>
      </trkpt>
      <trkpt lat="47.26237" lon="-2.22471">
        <ele>10</ele>
        <time>2021-05-23T06:24:46.982Z</time>
      </trkpt>
      <trkpt lat="47.26234" lon="-2.2247">
        <ele>10</ele>
        <time>2021-05-23T06:24:47.983Z</time>
      </trkpt>
      <trkpt lat="47.26232" lon="-2.22468">
        <ele>10</ele>
        <time>2021-05-23T06:24:48.983Z</time>
      </trkpt>
      <trkpt lat="47.26229" lon="-2.22467">
        <ele>10</ele>
        <time>2021-05-23T06:24:49.983Z</time>
      </trkpt>
      <trkpt lat="47.26227" lon="-2.22466">
        <ele>11</ele>
        <time>2021-05-23T06:24:50.983Z</time>
      </trkpt>
      <trkpt lat="47.26224" lon="-2.22465">
        <ele>11</ele>
        <time>2021-05-23T06:24:51.982Z</time>
      </trkpt>
      <trkpt lat="47.26221" lon="-2.22464">
        <ele>11</ele>
        <time>2021-05-23T06:24:52.983Z</time>
      </trkpt>
      <trkpt lat="47.26218" lon="-2.22463">
        <ele>11</ele>
        <time>2021-05-23T06:24:53.983Z</time>
      </trkpt>
      <trkpt lat="47.26216" lon="-2.22462">
        <ele>11</ele>
        <time>2021-05-23T06:24:54.983Z</time>
      </trkpt>
      <trkpt lat="47.26213" lon="-2.22461">
        <ele>11</ele>
        <time>2021-05-23T06:24:55.982Z</time>
      </trkpt>
      <trkpt lat="47.2621" lon="-2.2246">
        <ele>11</ele>
        <time>2021-05-23T06:24:56.983Z</time>
      </trkpt>
      <trkpt lat="47.26208" lon="-2.2246">
        <ele>11</ele>
        <time>2021-05-23T06:24:57.983Z</time>
      </trkpt>
      <trkpt lat="47.26206" lon="-2.2246">
        <ele>12</ele>
        <time>2021-05-23T06:24:58.983Z</time>
      </trkpt>
      <trkpt lat="47.26203" lon="-2.22459">
        <ele>12</ele>
        <time>2021-05-23T06:24:59.983Z</time>
      </trkpt>
      <trkpt lat="47.26201" lon="-2.22458">
        <ele>12</ele>
        <time>2021-05-23T06:25:00.982Z</time>
      </trkpt>
      <trkpt lat="47.26198" lon="-2.22458">
        <ele>12</ele>
        <time>2021-05-23T06:25:01.982Z</time>
      </trkpt>
      <trkpt lat="47.26195" lon="-2.22457">
        <ele>12</ele>
        <time>2021-05-23T06:25:02.982Z</time>
      </trkpt>
      <trkpt lat="47.26192" lon="-2.22456">
        <ele>12</ele>
        <time>2021-05-23T06:25:03.983Z</time>
      </trkpt>
      <trkpt lat="47.2619" lon="-2.22455">
        <ele>12</ele>
        <time>2021-05-23T06:25:04.983Z</time>
      </trkpt>
      <trkpt lat="47.26187" lon="-2.22453">
        <ele>12</ele>
        <time>2021-05-23T06:25:05.983Z</time>
      </trkpt>
      <trkpt lat="47.26184" lon="-2.22452">
        <ele>12</ele>
        <time>2021-05-23T06:25:06.983Z</time>
      </trkpt>
      <trkpt lat="47.26182" lon="-2.22451">
        <ele>12</ele>
        <time>2021-05-23T06:25:07.983Z</time>
      </trkpt>
      <trkpt lat="47.26179" lon="-2.2245">
        <ele>12</ele>
        <time>2021-05-23T06:25:08.983Z</time>
      </trkpt>
      <trkpt lat="47.26176" lon="-2.22449">
        <ele>12</ele>
        <time>2021-05-23T06:25:09.983Z</time>
      </trkpt>
      <trkpt lat="47.26174" lon="-2.22448">
        <ele>12</ele>
        <time>2021-05-23T06:25:10.983Z</time>
      </trkpt>
      <trkpt lat="47.26171" lon="-2.22447">
        <ele>12</ele>
        <time>2021-05-23T06:25:11.983Z</time>
      </trkpt>
      <trkpt lat="47.26168" lon="-2.22445">
        <ele>12</ele>
        <time>2021-05-23T06:25:12.982Z</time>
      </trkpt>
      <trkpt lat="47.26165" lon="-2.22444">
        <ele>12</ele>
        <time>2021-05-23T06:25:13.982Z</time>
      </trkpt>
      <trkpt lat="47.26163" lon="-2.22443">
        <ele>12</ele>
        <time>2021-05-23T06:25:14.983Z</time>
      </trkpt>
      <trkpt lat="47.2616" lon="-2.22442">
        <ele>12</ele>
        <time>2021-05-23T06:25:15.982Z</time>
      </trkpt>
      <trkpt lat="47.26158" lon="-2.22441">
        <ele>12</ele>
        <time>2021-05-23T06:25:16.983Z</time>
      </trkpt>
      <trkpt lat="47.26155" lon="-2.2244">
        <ele>12</ele>
        <time>2021-05-23T06:25:17.983Z</time>
      </trkpt>
      <trkpt lat="47.26152" lon="-2.22439">
        <ele>12</ele>
        <time>2021-05-23T06:25:18.983Z</time>
      </trkpt>
      <trkpt lat="47.2615" lon="-2.22438">
        <ele>12</ele>
        <time>2021-05-23T06:25:19.983Z</time>
      </trkpt>
      <trkpt lat="47.26147" lon="-2.22437">
        <ele>12</ele>
        <time>2021-05-23T06:25:20.982Z</time>
      </trkpt>
      <trkpt lat="47.26145" lon="-2.22436">
        <ele>12</ele>
        <time>2021-05-23T06:25:21.982Z</time>
      </trkpt>
      <trkpt lat="47.26143" lon="-2.22435">
        <ele>12</ele>
        <time>2021-05-23T06:25:22.983Z</time>
      </trkpt>
      <trkpt lat="47.26141" lon="-2.22434">
        <ele>12</ele>
        <time>2021-05-23T06:25:23.983Z</time>
      </trkpt>
      <trkpt lat="47.26139" lon="-2.22433">
        <ele>13</ele>
        <time>2021-05-23T06:25:24.982Z</time>
      </trkpt>
      <trkpt lat="47.26137" lon="-2.22432">
        <ele>13</ele>
        <time>2021-05-23T06:25:25.983Z</time>
      </trkpt>
      <trkpt lat="47.26135" lon="-2.22431">
        <ele>13</ele>
        <time>2021-05-23T06:25:26.983Z</time>
      </trkpt>
      <trkpt lat="47.26134" lon="-2.22431">
        <ele>13</ele>
        <time>2021-05-23T06:25:27.983Z</time>
      </trkpt>
      <trkpt lat="47.26132" lon="-2.2243">
        <ele>14</ele>
        <time>2021-05-23T06:25:28.982Z</time>
      </trkpt>
      <trkpt lat="47.2613" lon="-2.22429">
        <ele>13</ele>
        <time>2021-05-23T06:25:29.982Z</time>
      </trkpt>
      <trkpt lat="47.26129" lon="-2.22429">
        <ele>13</ele>
        <time>2021-05-23T06:25:30.983Z</time>
      </trkpt>
      <trkpt lat="47.26127" lon="-2.22428">
        <ele>13</ele>
        <time>2021-05-23T06:25:31.983Z</time>
      </trkpt>
      <trkpt lat="47.26127" lon="-2.22429">
        <ele>13</ele>
        <time>2021-05-23T06:25:32.983Z</time>
      </trkpt>
      <trkpt lat="47.26126" lon="-2.22429">
        <ele>13</ele>
        <time>2021-05-23T06:25:33.982Z</time>
      </trkpt>
      <trkpt lat="47.26124" lon="-2.22429">
        <ele>13</ele>
        <time>2021-05-23T06:25:34.982Z</time>
      </trkpt>
      <trkpt lat="47.26122" lon="-2.22429">
        <ele>13</ele>
        <time>2021-05-23T06:25:35.983Z</time>
      </trkpt>
      <trkpt lat="47.26121" lon="-2.22429">
        <ele>12</ele>
        <time>2021-05-23T06:25:36.983Z</time>
      </trkpt>
      <trkpt lat="47.26119" lon="-2.22429">
        <ele>12</ele>
        <time>2021-05-23T06:25:37.983Z</time>
      </trkpt>
      <trkpt lat="47.26118" lon="-2.22428">
        <ele>11</ele>
        <time>2021-05-23T06:25:38.983Z</time>
      </trkpt>
      <trkpt lat="47.26117" lon="-2.22428">
        <ele>11</ele>
        <time>2021-05-23T06:25:39.982Z</time>
      </trkpt>
      <trkpt lat="47.26115" lon="-2.22428">
        <ele>11</ele>
        <time>2021-05-23T06:25:40.982Z</time>
      </trkpt>
      <trkpt lat="47.26114" lon="-2.22427">
        <ele>11</ele>
        <time>2021-05-23T06:25:41.982Z</time>
      </trkpt>
      <trkpt lat="47.26113" lon="-2.22427">
        <ele>10</ele>
        <time>2021-05-23T06:25:42.982Z</time>
      </trkpt>
      <trkpt lat="47.26111" lon="-2.22426">
        <ele>10</ele>
        <time>2021-05-23T06:25:43.982Z</time>
      </trkpt>
      <trkpt lat="47.2611" lon="-2.22425">
        <ele>10</ele>
        <time>2021-05-23T06:25:44.982Z</time>
      </trkpt>
      <trkpt lat="47.26108" lon="-2.22425">
        <ele>10</ele>
        <time>2021-05-23T06:25:45.982Z</time>
      </trkpt>
      <trkpt lat="47.26107" lon="-2.22425">
        <ele>11</ele>
        <time>2021-05-23T06:25:46.982Z</time>
      </trkpt>
      <trkpt lat="47.26106" lon="-2.22424">
        <ele>11</ele>
        <time>2021-05-23T06:25:47.982Z</time>
      </trkpt>
      <trkpt lat="47.26105" lon="-2.22424">
        <ele>11</ele>
        <time>2021-05-23T06:25:48.982Z</time>
      </trkpt>
      <trkpt lat="47.26103" lon="-2.22423">
        <ele>11</ele>
        <time>2021-05-23T06:25:49.982Z</time>
      </trkpt>
      <trkpt lat="47.26101" lon="-2.22422">
        <ele>11</ele>
        <time>2021-05-23T06:25:50.982Z</time>
      </trkpt>
      <trkpt lat="47.261" lon="-2.22422">
        <ele>11</ele>
        <time>2021-05-23T06:25:51.982Z</time>
      </trkpt>
      <trkpt lat="47.26099" lon="-2.22421">
        <ele>11</ele>
        <time>2021-05-23T06:25:52.982Z</time>
      </trkpt>
      <trkpt lat="47.26097" lon="-2.2242">
        <ele>11</ele>
        <time>2021-05-23T06:25:53.982Z</time>
      </trkpt>
      <trkpt lat="47.26096" lon="-2.22419">
        <ele>11</ele>
        <time>2021-05-23T06:25:54.982Z</time>
      </trkpt>
      <trkpt lat="47.26094" lon="-2.22419">
        <ele>10</ele>
        <time>2021-05-23T06:25:55.982Z</time>
      </trkpt>
      <trkpt lat="47.26093" lon="-2.22419">
        <ele>10</ele>
        <time>2021-05-23T06:25:56.982Z</time>
      </trkpt>
      <trkpt lat="47.26092" lon="-2.22419">
        <ele>9</ele>
        <time>2021-05-23T06:25:57.982Z</time>
      </trkpt>
      <trkpt lat="47.26092" lon="-2.22419">
        <ele>9</ele>
        <time>2021-05-23T06:25:58.982Z</time>
      </trkpt>
      <trkpt lat="47.26091" lon="-2.22419">
        <ele>9</ele>
        <time>2021-05-23T06:25:59.982Z</time>
      </trkpt>
      <trkpt lat="47.26091" lon="-2.22419">
        <ele>8</ele>
        <time>2021-05-23T06:26:00.982Z</time>
      </trkpt>
      <trkpt lat="47.26091" lon="-2.2242">
        <ele>8</ele>
        <time>2021-05-23T06:26:01.982Z</time>
      </trkpt>
      <trkpt lat="47.26091" lon="-2.22421">
        <ele>9</ele>
        <time>2021-05-23T06:26:02.982Z</time>
      </trkpt>
      <trkpt lat="47.26092" lon="-2.22421">
        <ele>9</ele>
        <time>2021-05-23T06:26:03.982Z</time>
      </trkpt>
      <trkpt lat="47.26091" lon="-2.22421">
        <ele>10</ele>
        <time>2021-05-23T06:26:04.982Z</time>
      </trkpt>
      <trkpt lat="47.26091" lon="-2.22422">
        <ele>10</ele>
        <time>2021-05-23T06:26:05.982Z</time>
      </trkpt>
      <trkpt lat="47.26091" lon="-2.22421">
        <ele>10</ele>
        <time>2021-05-23T06:26:06.982Z</time>
      </trkpt>
      <trkpt lat="47.2609" lon="-2.2242">
        <ele>10</ele>
        <time>2021-05-23T06:26:07.982Z</time>
      </trkpt>
      <trkpt lat="47.2609" lon="-2.22419">
        <ele>9</ele>
        <time>2021-05-23T06:26:08.983Z</time>
      </trkpt>
      <trkpt lat="47.26089" lon="-2.22417">
        <ele>9</ele>
        <time>2021-05-23T06:26:09.983Z</time>
      </trkpt>
      <trkpt lat="47.26088" lon="-2.22416">
        <ele>9</ele>
        <time>2021-05-23T06:26:10.982Z</time>
      </trkpt>
      <trkpt lat="47.26087" lon="-2.22416">
        <ele>9</ele>
        <time>2021-05-23T06:26:11.983Z</time>
      </trkpt>
      <trkpt lat="47.26086" lon="-2.22417">
        <ele>8</ele>
        <time>2021-05-23T06:26:12.982Z</time>
      </trkpt>
      <trkpt lat="47.26087" lon="-2.22418">
        <ele>9</ele>
        <time>2021-05-23T06:26:13.982Z</time>
      </trkpt>
      <trkpt lat="47.26086" lon="-2.22417">
        <ele>9</ele>
        <time>2021-05-23T06:26:14.982Z</time>
      </trkpt>
      <trkpt lat="47.26085" lon="-2.22417">
        <ele>9</ele>
        <time>2021-05-23T06:26:15.983Z</time>
      </trkpt>
      <trkpt lat="47.26084" lon="-2.22415">
        <ele>9</ele>
        <time>2021-05-23T06:26:16.982Z</time>
      </trkpt>
      <trkpt lat="47.26083" lon="-2.22414">
        <ele>10</ele>
        <time>2021-05-23T06:26:17.983Z</time>
      </trkpt>
      <trkpt lat="47.26082" lon="-2.22413">
        <ele>10</ele>
        <time>2021-05-23T06:26:18.982Z</time>
      </trkpt>
      <trkpt lat="47.26081" lon="-2.22413">
        <ele>10</ele>
        <time>2021-05-23T06:26:19.982Z</time>
      </trkpt>
      <trkpt lat="47.2608" lon="-2.22412">
        <ele>9</ele>
        <time>2021-05-23T06:26:20.983Z</time>
      </trkpt>
      <trkpt lat="47.26079" lon="-2.22412">
        <ele>9</ele>
        <time>2021-05-23T06:26:21.983Z</time>
      </trkpt>
      <trkpt lat="47.26077" lon="-2.22411">
        <ele>9</ele>
        <time>2021-05-23T06:26:22.982Z</time>
      </trkpt>
      <trkpt lat="47.26076" lon="-2.2241">
        <ele>9</ele>
        <time>2021-05-23T06:26:23.983Z</time>
      </trkpt>
      <trkpt lat="47.26074" lon="-2.2241">
        <ele>8</ele>
        <time>2021-05-23T06:26:24.983Z</time>
      </trkpt>
      <trkpt lat="47.26072" lon="-2.22409">
        <ele>8</ele>
        <time>2021-05-23T06:26:25.983Z</time>
      </trkpt>
      <trkpt lat="47.26071" lon="-2.22408">
        <ele>7</ele>
        <time>2021-05-23T06:26:26.983Z</time>
      </trkpt>
      <trkpt lat="47.26069" lon="-2.22408">
        <ele>7</ele>
        <time>2021-05-23T06:26:27.983Z</time>
      </trkpt>
      <trkpt lat="47.26068" lon="-2.22407">
        <ele>7</ele>
        <time>2021-05-23T06:26:28.983Z</time>
      </trkpt>
      <trkpt lat="47.26067" lon="-2.22406">
        <ele>6</ele>
        <time>2021-05-23T06:26:29.983Z</time>
      </trkpt>
      <trkpt lat="47.26066" lon="-2.22405">
        <ele>6</ele>
        <time>2021-05-23T06:26:30.983Z</time>
      </trkpt>
      <trkpt lat="47.26064" lon="-2.22404">
        <ele>6</ele>
        <time>2021-05-23T06:26:31.983Z</time>
      </trkpt>
      <trkpt lat="47.26063" lon="-2.22403">
        <ele>6</ele>
        <time>2021-05-23T06:26:32.983Z</time>
      </trkpt>
      <trkpt lat="47.26062" lon="-2.22402">
        <ele>7</ele>
        <time>2021-05-23T06:26:33.983Z</time>
      </trkpt>
      <trkpt lat="47.26061" lon="-2.22401">
        <ele>7</ele>
        <time>2021-05-23T06:26:34.982Z</time>
      </trkpt>
      <trkpt lat="47.26059" lon="-2.22401">
        <ele>7</ele>
        <time>2021-05-23T06:26:35.983Z</time>
      </trkpt>
      <trkpt lat="47.26058" lon="-2.224">
        <ele>8</ele>
        <time>2021-05-23T06:26:36.983Z</time>
      </trkpt>
      <trkpt lat="47.26056" lon="-2.224">
        <ele>8</ele>
        <time>2021-05-23T06:26:37.982Z</time>
      </trkpt>
      <trkpt lat="47.26053" lon="-2.224">
        <ele>8</ele>
        <time>2021-05-23T06:26:38.983Z</time>
      </trkpt>
      <trkpt lat="47.26052" lon="-2.224">
        <ele>8</ele>
        <time>2021-05-23T06:26:39.983Z</time>
      </trkpt>
      <trkpt lat="47.2605" lon="-2.22399">
        <ele>8</ele>
        <time>2021-05-23T06:26:40.983Z</time>
      </trkpt>
      <trkpt lat="47.26049" lon="-2.22398">
        <ele>8</ele>
        <time>2021-05-23T06:26:41.982Z</time>
      </trkpt>
      <trkpt lat="47.26047" lon="-2.22397">
        <ele>8</ele>
        <time>2021-05-23T06:26:42.982Z</time>
      </trkpt>
      <trkpt lat="47.26045" lon="-2.22396">
        <ele>8</ele>
        <time>2021-05-23T06:26:43.983Z</time>
      </trkpt>
      <trkpt lat="47.26043" lon="-2.22395">
        <ele>9</ele>
        <time>2021-05-23T06:26:44.983Z</time>
      </trkpt>
      <trkpt lat="47.26041" lon="-2.22394">
        <ele>9</ele>
        <time>2021-05-23T06:26:45.982Z</time>
      </trkpt>
      <trkpt lat="47.26039" lon="-2.22393">
        <ele>9</ele>
        <time>2021-05-23T06:26:46.982Z</time>
      </trkpt>
      <trkpt lat="47.26037" lon="-2.22391">
        <ele>10</ele>
        <time>2021-05-23T06:26:47.983Z</time>
      </trkpt>
      <trkpt lat="47.26035" lon="-2.2239">
        <ele>10</ele>
        <time>2021-05-23T06:26:48.982Z</time>
      </trkpt>
      <trkpt lat="47.26032" lon="-2.22388">
        <ele>10</ele>
        <time>2021-05-23T06:26:49.983Z</time>
      </trkpt>
      <trkpt lat="47.2603" lon="-2.22387">
        <ele>10</ele>
        <time>2021-05-23T06:26:50.983Z</time>
      </trkpt>
      <trkpt lat="47.26028" lon="-2.22386">
        <ele>9</ele>
        <time>2021-05-23T06:26:51.983Z</time>
      </trkpt>
      <trkpt lat="47.26025" lon="-2.22384">
        <ele>9</ele>
        <time>2021-05-23T06:26:52.983Z</time>
      </trkpt>
      <trkpt lat="47.26023" lon="-2.22383">
        <ele>9</ele>
        <time>2021-05-23T06:26:53.983Z</time>
      </trkpt>
      <trkpt lat="47.26021" lon="-2.22382">
        <ele>9</ele>
        <time>2021-05-23T06:26:54.982Z</time>
      </trkpt>
      <trkpt lat="47.26018" lon="-2.2238">
        <ele>9</ele>
        <time>2021-05-23T06:26:55.983Z</time>
      </trkpt>
      <trkpt lat="47.26016" lon="-2.22379">
        <ele>9</ele>
        <time>2021-05-23T06:26:56.983Z</time>
      </trkpt>
      <trkpt lat="47.26014" lon="-2.22378">
        <ele>9</ele>
        <time>2021-05-23T06:26:57.983Z</time>
      </trkpt>
      <trkpt lat="47.26012" lon="-2.22376">
        <ele>9</ele>
        <time>2021-05-23T06:26:58.982Z</time>
      </trkpt>
      <trkpt lat="47.26009" lon="-2.22375">
        <ele>8</ele>
        <time>2021-05-23T06:26:59.983Z</time>
      </trkpt>
      <trkpt lat="47.26007" lon="-2.22373">
        <ele>8</ele>
        <time>2021-05-23T06:27:00.983Z</time>
      </trkpt>
      <trkpt lat="47.26004" lon="-2.22371">
        <ele>8</ele>
        <time>2021-05-23T06:27:01.983Z</time>
      </trkpt>
      <trkpt lat="47.26001" lon="-2.22369">
        <ele>8</ele>
        <time>2021-05-23T06:27:02.983Z</time>
      </trkpt>
      <trkpt lat="47.25998" lon="-2.22368">
        <ele>8</ele>
        <time>2021-05-23T06:27:03.982Z</time>
      </trkpt>
      <trkpt lat="47.25996" lon="-2.22367">
        <ele>8</ele>
        <time>2021-05-23T06:27:04.983Z</time>
      </trkpt>
      <trkpt lat="47.25993" lon="-2.22365">
        <ele>8</ele>
        <time>2021-05-23T06:27:05.983Z</time>
      </trkpt>
      <trkpt lat="47.25991" lon="-2.22363">
        <ele>8</ele>
        <time>2021-05-23T06:27:06.983Z</time>
      </trkpt>
      <trkpt lat="47.25988" lon="-2.22362">
        <ele>8</ele>
        <time>2021-05-23T06:27:07.983Z</time>
      </trkpt>
      <trkpt lat="47.25986" lon="-2.2236">
        <ele>9</ele>
        <time>2021-05-23T06:27:08.983Z</time>
      </trkpt>
      <trkpt lat="47.25983" lon="-2.22358">
        <ele>9</ele>
        <time>2021-05-23T06:27:09.983Z</time>
      </trkpt>
      <trkpt lat="47.25981" lon="-2.22356">
        <ele>9</ele>
        <time>2021-05-23T06:27:10.983Z</time>
      </trkpt>
      <trkpt lat="47.25978" lon="-2.22354">
        <ele>9</ele>
        <time>2021-05-23T06:27:11.983Z</time>
      </trkpt>
      <trkpt lat="47.25976" lon="-2.22352">
        <ele>9</ele>
        <time>2021-05-23T06:27:12.983Z</time>
      </trkpt>
      <trkpt lat="47.25973" lon="-2.2235">
        <ele>9</ele>
        <time>2021-05-23T06:27:13.982Z</time>
      </trkpt>
      <trkpt lat="47.25971" lon="-2.22348">
        <ele>9</ele>
        <time>2021-05-23T06:27:14.983Z</time>
      </trkpt>
      <trkpt lat="47.25968" lon="-2.22346">
        <ele>9</ele>
        <time>2021-05-23T06:27:15.983Z</time>
      </trkpt>
      <trkpt lat="47.25966" lon="-2.22345">
        <ele>9</ele>
        <time>2021-05-23T06:27:16.982Z</time>
      </trkpt>
      <trkpt lat="47.25963" lon="-2.22343">
        <ele>10</ele>
        <time>2021-05-23T06:27:17.982Z</time>
      </trkpt>
      <trkpt lat="47.2596" lon="-2.22342">
        <ele>10</ele>
        <time>2021-05-23T06:27:18.982Z</time>
      </trkpt>
      <trkpt lat="47.25958" lon="-2.22341">
        <ele>10</ele>
        <time>2021-05-23T06:27:19.983Z</time>
      </trkpt>
      <trkpt lat="47.25955" lon="-2.22339">
        <ele>10</ele>
        <time>2021-05-23T06:27:20.983Z</time>
      </trkpt>
      <trkpt lat="47.25952" lon="-2.22338">
        <ele>9</ele>
        <time>2021-05-23T06:27:21.983Z</time>
      </trkpt>
      <trkpt lat="47.25949" lon="-2.22337">
        <ele>9</ele>
        <time>2021-05-23T06:27:22.983Z</time>
      </trkpt>
      <trkpt lat="47.25947" lon="-2.22336">
        <ele>9</ele>
        <time>2021-05-23T06:27:23.983Z</time>
      </trkpt>
      <trkpt lat="47.25944" lon="-2.22335">
        <ele>9</ele>
        <time>2021-05-23T06:27:24.983Z</time>
      </trkpt>
      <trkpt lat="47.25941" lon="-2.22334">
        <ele>8</ele>
        <time>2021-05-23T06:27:25.983Z</time>
      </trkpt>
      <trkpt lat="47.25938" lon="-2.22333">
        <ele>8</ele>
        <time>2021-05-23T06:27:26.982Z</time>
      </trkpt>
      <trkpt lat="47.25935" lon="-2.22332">
        <ele>8</ele>
        <time>2021-05-23T06:27:27.983Z</time>
      </trkpt>
      <trkpt lat="47.25933" lon="-2.22331">
        <ele>8</ele>
        <time>2021-05-23T06:27:28.982Z</time>
      </trkpt>
      <trkpt lat="47.2593" lon="-2.2233">
        <ele>7</ele>
        <time>2021-05-23T06:27:29.983Z</time>
      </trkpt>
      <trkpt lat="47.25927" lon="-2.22329">
        <ele>7</ele>
        <time>2021-05-23T06:27:30.982Z</time>
      </trkpt>
      <trkpt lat="47.25924" lon="-2.22327">
        <ele>7</ele>
        <time>2021-05-23T06:27:31.982Z</time>
      </trkpt>
      <trkpt lat="47.25921" lon="-2.22326">
        <ele>6</ele>
        <time>2021-05-23T06:27:32.983Z</time>
      </trkpt>
      <trkpt lat="47.25919" lon="-2.22325">
        <ele>6</ele>
        <time>2021-05-23T06:27:33.983Z</time>
      </trkpt>
      <trkpt lat="47.25916" lon="-2.22324">
        <ele>6</ele>
        <time>2021-05-23T06:27:34.983Z</time>
      </trkpt>
      <trkpt lat="47.25913" lon="-2.22323">
        <ele>6</ele>
        <time>2021-05-23T06:27:35.983Z</time>
      </trkpt>
      <trkpt lat="47.25911" lon="-2.22322">
        <ele>6</ele>
        <time>2021-05-23T06:27:36.982Z</time>
      </trkpt>
      <trkpt lat="47.25908" lon="-2.22321">
        <ele>6</ele>
        <time>2021-05-23T06:27:37.982Z</time>
      </trkpt>
      <trkpt lat="47.25906" lon="-2.22321">
        <ele>6</ele>
        <time>2021-05-23T06:27:38.983Z</time>
      </trkpt>
      <trkpt lat="47.25903" lon="-2.22321">
        <ele>6</ele>
        <time>2021-05-23T06:27:39.983Z</time>
      </trkpt>
      <trkpt lat="47.259" lon="-2.22322">
        <ele>6</ele>
        <time>2021-05-23T06:27:40.983Z</time>
      </trkpt>
      <trkpt lat="47.25897" lon="-2.22322">
        <ele>6</ele>
        <time>2021-05-23T06:27:41.983Z</time>
      </trkpt>
      <trkpt lat="47.25895" lon="-2.22321">
        <ele>7</ele>
        <time>2021-05-23T06:27:42.983Z</time>
      </trkpt>
      <trkpt lat="47.25892" lon="-2.2232">
        <ele>7</ele>
        <time>2021-05-23T06:27:43.983Z</time>
      </trkpt>
      <trkpt lat="47.25889" lon="-2.22319">
        <ele>7</ele>
        <time>2021-05-23T06:27:44.983Z</time>
      </trkpt>
      <trkpt lat="47.25886" lon="-2.22319">
        <ele>7</ele>
        <time>2021-05-23T06:27:45.982Z</time>
      </trkpt>
      <trkpt lat="47.25884" lon="-2.22318">
        <ele>7</ele>
        <time>2021-05-23T06:27:46.983Z</time>
      </trkpt>
      <trkpt lat="47.25881" lon="-2.22319">
        <ele>8</ele>
        <time>2021-05-23T06:27:47.983Z</time>
      </trkpt>
      <trkpt lat="47.25878" lon="-2.22319">
        <ele>8</ele>
        <time>2021-05-23T06:27:48.983Z</time>
      </trkpt>
      <trkpt lat="47.25876" lon="-2.2232">
        <ele>8</ele>
        <time>2021-05-23T06:27:49.983Z</time>
      </trkpt>
      <trkpt lat="47.25873" lon="-2.22321">
        <ele>8</ele>
        <time>2021-05-23T06:27:50.983Z</time>
      </trkpt>
      <trkpt lat="47.25871" lon="-2.22322">
        <ele>9</ele>
        <time>2021-05-23T06:27:51.983Z</time>
      </trkpt>
      <trkpt lat="47.25868" lon="-2.22324">
        <ele>8</ele>
        <time>2021-05-23T06:27:52.983Z</time>
      </trkpt>
      <trkpt lat="47.25866" lon="-2.22325">
        <ele>8</ele>
        <time>2021-05-23T06:27:53.983Z</time>
      </trkpt>
      <trkpt lat="47.25863" lon="-2.22327">
        <ele>8</ele>
        <time>2021-05-23T06:27:54.982Z</time>
      </trkpt>
      <trkpt lat="47.25861" lon="-2.2233">
        <ele>8</ele>
        <time>2021-05-23T06:27:55.983Z</time>
      </trkpt>
      <trkpt lat="47.25859" lon="-2.22332">
        <ele>8</ele>
        <time>2021-05-23T06:27:56.983Z</time>
      </trkpt>
      <trkpt lat="47.25857" lon="-2.22335">
        <ele>8</ele>
        <time>2021-05-23T06:27:57.983Z</time>
      </trkpt>
      <trkpt lat="47.25855" lon="-2.22338">
        <ele>8</ele>
        <time>2021-05-23T06:27:58.983Z</time>
      </trkpt>
      <trkpt lat="47.25853" lon="-2.22341">
        <ele>8</ele>
        <time>2021-05-23T06:27:59.983Z</time>
      </trkpt>
      <trkpt lat="47.25852" lon="-2.22344">
        <ele>8</ele>
        <time>2021-05-23T06:28:00.983Z</time>
      </trkpt>
      <trkpt lat="47.2585" lon="-2.22347">
        <ele>8</ele>
        <time>2021-05-23T06:28:01.982Z</time>
      </trkpt>
      <trkpt lat="47.25849" lon="-2.22351">
        <ele>8</ele>
        <time>2021-05-23T06:28:02.982Z</time>
      </trkpt>
      <trkpt lat="47.25848" lon="-2.22354">
        <ele>8</ele>
        <time>2021-05-23T06:28:03.983Z</time>
      </trkpt>
      <trkpt lat="47.25847" lon="-2.22358">
        <ele>8</ele>
        <time>2021-05-23T06:28:04.983Z</time>
      </trkpt>
      <trkpt lat="47.25846" lon="-2.22361">
        <ele>8</ele>
        <time>2021-05-23T06:28:05.982Z</time>
      </trkpt>
      <trkpt lat="47.25845" lon="-2.22365">
        <ele>8</ele>
        <time>2021-05-23T06:28:06.982Z</time>
      </trkpt>
      <trkpt lat="47.25844" lon="-2.22368">
        <ele>8</ele>
        <time>2021-05-23T06:28:07.983Z</time>
      </trkpt>
      <trkpt lat="47.25843" lon="-2.22372">
        <ele>8</ele>
        <time>2021-05-23T06:28:08.983Z</time>
      </trkpt>
      <trkpt lat="47.25841" lon="-2.22375">
        <ele>8</ele>
        <time>2021-05-23T06:28:09.982Z</time>
      </trkpt>
      <trkpt lat="47.2584" lon="-2.22379">
        <ele>8</ele>
        <time>2021-05-23T06:28:10.983Z</time>
      </trkpt>
      <trkpt lat="47.25839" lon="-2.22383">
        <ele>8</ele>
        <time>2021-05-23T06:28:11.983Z</time>
      </trkpt>
      <trkpt lat="47.25838" lon="-2.22387">
        <ele>8</ele>
        <time>2021-05-23T06:28:12.983Z</time>
      </trkpt>
      <trkpt lat="47.25837" lon="-2.22391">
        <ele>8</ele>
        <time>2021-05-23T06:28:13.982Z</time>
      </trkpt>
      <trkpt lat="47.25836" lon="-2.22395">
        <ele>8</ele>
        <time>2021-05-23T06:28:14.982Z</time>
      </trkpt>
      <trkpt lat="47.25835" lon="-2.22398">
        <ele>8</ele>
        <time>2021-05-23T06:28:15.983Z</time>
      </trkpt>
      <trkpt lat="47.25835" lon="-2.22402">
        <ele>7</ele>
        <time>2021-05-23T06:28:16.983Z</time>
      </trkpt>
      <trkpt lat="47.25834" lon="-2.22406">
        <ele>7</ele>
        <time>2021-05-23T06:28:17.983Z</time>
      </trkpt>
      <trkpt lat="47.25834" lon="-2.22411">
        <ele>7</ele>
        <time>2021-05-23T06:28:18.983Z</time>
      </trkpt>
      <trkpt lat="47.25833" lon="-2.22415">
        <ele>7</ele>
        <time>2021-05-23T06:28:19.983Z</time>
      </trkpt>
      <trkpt lat="47.25832" lon="-2.22419">
        <ele>7</ele>
        <time>2021-05-23T06:28:20.983Z</time>
      </trkpt>
      <trkpt lat="47.2583" lon="-2.22423">
        <ele>7</ele>
        <time>2021-05-23T06:28:21.982Z</time>
      </trkpt>
      <trkpt lat="47.2583" lon="-2.22426">
        <ele>7</ele>
        <time>2021-05-23T06:28:22.983Z</time>
      </trkpt>
      <trkpt lat="47.25829" lon="-2.2243">
        <ele>7</ele>
        <time>2021-05-23T06:28:23.983Z</time>
      </trkpt>
      <trkpt lat="47.25828" lon="-2.22434">
        <ele>7</ele>
        <time>2021-05-23T06:28:24.983Z</time>
      </trkpt>
      <trkpt lat="47.25827" lon="-2.22438">
        <ele>7</ele>
        <time>2021-05-23T06:28:25.982Z</time>
      </trkpt>
      <trkpt lat="47.25826" lon="-2.22442">
        <ele>7</ele>
        <time>2021-05-23T06:28:26.982Z</time>
      </trkpt>
      <trkpt lat="47.25825" lon="-2.22445">
        <ele>7</ele>
        <time>2021-05-23T06:28:27.982Z</time>
      </trkpt>
      <trkpt lat="47.25824" lon="-2.22449">
        <ele>7</ele>
        <time>2021-05-23T06:28:28.983Z</time>
      </trkpt>
      <trkpt lat="47.25823" lon="-2.22453">
        <ele>7</ele>
        <time>2021-05-23T06:28:29.982Z</time>
      </trkpt>
      <trkpt lat="47.25821" lon="-2.22457">
        <ele>7</ele>
        <time>2021-05-23T06:28:30.983Z</time>
      </trkpt>
      <trkpt lat="47.25821" lon="-2.22461">
        <ele>7</ele>
        <time>2021-05-23T06:28:31.983Z</time>
      </trkpt>
      <trkpt lat="47.2582" lon="-2.22465">
        <ele>7</ele>
        <time>2021-05-23T06:28:32.983Z</time>
      </trkpt>
      <trkpt lat="47.25819" lon="-2.22469">
        <ele>7</ele>
        <time>2021-05-23T06:28:33.983Z</time>
      </trkpt>
      <trkpt lat="47.25818" lon="-2.22472">
        <ele>7</ele>
        <time>2021-05-23T06:28:34.983Z</time>
      </trkpt>
      <trkpt lat="47.25817" lon="-2.22476">
        <ele>6</ele>
        <time>2021-05-23T06:28:35.983Z</time>
      </trkpt>
      <trkpt lat="47.25817" lon="-2.2248">
        <ele>6</ele>
        <time>2021-05-23T06:28:36.982Z</time>
      </trkpt>
      <trkpt lat="47.25816" lon="-2.22484">
        <ele>5</ele>
        <time>2021-05-23T06:28:37.983Z</time>
      </trkpt>
      <trkpt lat="47.25816" lon="-2.22488">
        <ele>5</ele>
        <time>2021-05-23T06:28:38.982Z</time>
      </trkpt>
      <trkpt lat="47.25815" lon="-2.22492">
        <ele>5</ele>
        <time>2021-05-23T06:28:39.983Z</time>
      </trkpt>
      <trkpt lat="47.25814" lon="-2.22496">
        <ele>4</ele>
        <time>2021-05-23T06:28:40.983Z</time>
      </trkpt>
      <trkpt lat="47.25813" lon="-2.225">
        <ele>4</ele>
        <time>2021-05-23T06:28:41.983Z</time>
      </trkpt>
      <trkpt lat="47.25812" lon="-2.22504">
        <ele>3</ele>
        <time>2021-05-23T06:28:42.983Z</time>
      </trkpt>
      <trkpt lat="47.25811" lon="-2.22508">
        <ele>3</ele>
        <time>2021-05-23T06:28:43.983Z</time>
      </trkpt>
      <trkpt lat="47.25811" lon="-2.22512">
        <ele>3</ele>
        <time>2021-05-23T06:28:44.982Z</time>
      </trkpt>
      <trkpt lat="47.2581" lon="-2.22516">
        <ele>3</ele>
        <time>2021-05-23T06:28:45.983Z</time>
      </trkpt>
      <trkpt lat="47.25809" lon="-2.2252">
        <ele>3</ele>
        <time>2021-05-23T06:28:46.983Z</time>
      </trkpt>
      <trkpt lat="47.25808" lon="-2.22524">
        <ele>3</ele>
        <time>2021-05-23T06:28:47.983Z</time>
      </trkpt>
      <trkpt lat="47.25807" lon="-2.22528">
        <ele>3</ele>
        <time>2021-05-23T06:28:48.982Z</time>
      </trkpt>
      <trkpt lat="47.25807" lon="-2.22531">
        <ele>3</ele>
        <time>2021-05-23T06:28:49.982Z</time>
      </trkpt>
      <trkpt lat="47.25807" lon="-2.22534">
        <ele>3</ele>
        <time>2021-05-23T06:28:50.983Z</time>
      </trkpt>
      <trkpt lat="47.25806" lon="-2.22537">
        <ele>3</ele>
        <time>2021-05-23T06:28:51.983Z</time>
      </trkpt>
      <trkpt lat="47.25806" lon="-2.2254">
        <ele>3</ele>
        <time>2021-05-23T06:28:52.983Z</time>
      </trkpt>
      <trkpt lat="47.25805" lon="-2.22544">
        <ele>3</ele>
        <time>2021-05-23T06:28:53.983Z</time>
      </trkpt>
      <trkpt lat="47.25805" lon="-2.22548">
        <ele>3</ele>
        <time>2021-05-23T06:28:54.983Z</time>
      </trkpt>
      <trkpt lat="47.25805" lon="-2.22552">
        <ele>3</ele>
        <time>2021-05-23T06:28:55.983Z</time>
      </trkpt>
      <trkpt lat="47.25805" lon="-2.22556">
        <ele>3</ele>
        <time>2021-05-23T06:28:56.983Z</time>
      </trkpt>
      <trkpt lat="47.25805" lon="-2.2256">
        <ele>3</ele>
        <time>2021-05-23T06:28:57.983Z</time>
      </trkpt>
      <trkpt lat="47.25805" lon="-2.22564">
        <ele>3</ele>
        <time>2021-05-23T06:28:58.983Z</time>
      </trkpt>
      <trkpt lat="47.25804" lon="-2.22568">
        <ele>4</ele>
        <time>2021-05-23T06:28:59.983Z</time>
      </trkpt>
      <trkpt lat="47.25803" lon="-2.22572">
        <ele>4</ele>
        <time>2021-05-23T06:29:00.982Z</time>
      </trkpt>
      <trkpt lat="47.25803" lon="-2.22575">
        <ele>5</ele>
        <time>2021-05-23T06:29:01.983Z</time>
      </trkpt>
      <trkpt lat="47.25803" lon="-2.22579">
        <ele>5</ele>
        <time>2021-05-23T06:29:02.983Z</time>
      </trkpt>
      <trkpt lat="47.25802" lon="-2.22583">
        <ele>5</ele>
        <time>2021-05-23T06:29:03.983Z</time>
      </trkpt>
      <trkpt lat="47.25802" lon="-2.22587">
        <ele>5</ele>
        <time>2021-05-23T06:29:04.982Z</time>
      </trkpt>
      <trkpt lat="47.25801" lon="-2.22591">
        <ele>5</ele>
        <time>2021-05-23T06:29:05.983Z</time>
      </trkpt>
      <trkpt lat="47.25801" lon="-2.22594">
        <ele>5</ele>
        <time>2021-05-23T06:29:06.983Z</time>
      </trkpt>
      <trkpt lat="47.25801" lon="-2.22598">
        <ele>4</ele>
        <time>2021-05-23T06:29:07.982Z</time>
      </trkpt>
      <trkpt lat="47.25801" lon="-2.22601">
        <ele>4</ele>
        <time>2021-05-23T06:29:08.983Z</time>
      </trkpt>
      <trkpt lat="47.258" lon="-2.22605">
        <ele>4</ele>
        <time>2021-05-23T06:29:09.982Z</time>
      </trkpt>
      <trkpt lat="47.25799" lon="-2.22608">
        <ele>4</ele>
        <time>2021-05-23T06:29:10.982Z</time>
      </trkpt>
      <trkpt lat="47.25798" lon="-2.22612">
        <ele>3</ele>
        <time>2021-05-23T06:29:11.982Z</time>
      </trkpt>
      <trkpt lat="47.25798" lon="-2.22616">
        <ele>3</ele>
        <time>2021-05-23T06:29:12.983Z</time>
      </trkpt>
      <trkpt lat="47.25797" lon="-2.2262">
        <ele>3</ele>
        <time>2021-05-23T06:29:13.982Z</time>
      </trkpt>
      <trkpt lat="47.25796" lon="-2.22624">
        <ele>3</ele>
        <time>2021-05-23T06:29:14.982Z</time>
      </trkpt>
      <trkpt lat="47.25796" lon="-2.22627">
        <ele>2</ele>
        <time>2021-05-23T06:29:15.983Z</time>
      </trkpt>
      <trkpt lat="47.25795" lon="-2.22631">
        <ele>2</ele>
        <time>2021-05-23T06:29:16.982Z</time>
      </trkpt>
      <trkpt lat="47.25795" lon="-2.22635">
        <ele>2</ele>
        <time>2021-05-23T06:29:17.982Z</time>
      </trkpt>
      <trkpt lat="47.25795" lon="-2.22638">
        <ele>2</ele>
        <time>2021-05-23T06:29:18.983Z</time>
      </trkpt>
      <trkpt lat="47.25795" lon="-2.22642">
        <ele>2</ele>
        <time>2021-05-23T06:29:19.982Z</time>
      </trkpt>
      <trkpt lat="47.25795" lon="-2.22645">
        <ele>2</ele>
        <time>2021-05-23T06:29:20.983Z</time>
      </trkpt>
      <trkpt lat="47.25794" lon="-2.22649">
        <ele>2</ele>
        <time>2021-05-23T06:29:21.983Z</time>
      </trkpt>
      <trkpt lat="47.25794" lon="-2.22653">
        <ele>2</ele>
        <time>2021-05-23T06:29:22.982Z</time>
      </trkpt>
      <trkpt lat="47.25794" lon="-2.22657">
        <ele>2</ele>
        <time>2021-05-23T06:29:23.983Z</time>
      </trkpt>
      <trkpt lat="47.25794" lon="-2.22661">
        <ele>2</ele>
        <time>2021-05-23T06:29:24.982Z</time>
      </trkpt>
      <trkpt lat="47.25794" lon="-2.22665">
        <ele>3</ele>
        <time>2021-05-23T06:29:25.982Z</time>
      </trkpt>
      <trkpt lat="47.25793" lon="-2.22669">
        <ele>3</ele>
        <time>2021-05-23T06:29:26.982Z</time>
      </trkpt>
      <trkpt lat="47.25793" lon="-2.22673">
        <ele>4</ele>
        <time>2021-05-23T06:29:27.982Z</time>
      </trkpt>
      <trkpt lat="47.25794" lon="-2.22677">
        <ele>4</ele>
        <time>2021-05-23T06:29:28.983Z</time>
      </trkpt>
      <trkpt lat="47.25794" lon="-2.2268">
        <ele>4</ele>
        <time>2021-05-23T06:29:29.983Z</time>
      </trkpt>
      <trkpt lat="47.25794" lon="-2.22684">
        <ele>5</ele>
        <time>2021-05-23T06:29:30.983Z</time>
      </trkpt>
      <trkpt lat="47.25795" lon="-2.22687">
        <ele>5</ele>
        <time>2021-05-23T06:29:31.983Z</time>
      </trkpt>
      <trkpt lat="47.25796" lon="-2.22691">
        <ele>5</ele>
        <time>2021-05-23T06:29:32.983Z</time>
      </trkpt>
      <trkpt lat="47.25796" lon="-2.22694">
        <ele>5</ele>
        <time>2021-05-23T06:29:33.982Z</time>
      </trkpt>
      <trkpt lat="47.25796" lon="-2.22698">
        <ele>5</ele>
        <time>2021-05-23T06:29:34.983Z</time>
      </trkpt>
      <trkpt lat="47.25797" lon="-2.22702">
        <ele>4</ele>
        <time>2021-05-23T06:29:35.983Z</time>
      </trkpt>
      <trkpt lat="47.25797" lon="-2.22706">
        <ele>4</ele>
        <time>2021-05-23T06:29:36.982Z</time>
      </trkpt>
      <trkpt lat="47.25797" lon="-2.2271">
        <ele>4</ele>
        <time>2021-05-23T06:29:37.982Z</time>
      </trkpt>
      <trkpt lat="47.25797" lon="-2.22714">
        <ele>4</ele>
        <time>2021-05-23T06:29:38.983Z</time>
      </trkpt>
      <trkpt lat="47.25797" lon="-2.22718">
        <ele>4</ele>
        <time>2021-05-23T06:29:39.983Z</time>
      </trkpt>
      <trkpt lat="47.25797" lon="-2.22721">
        <ele>4</ele>
        <time>2021-05-23T06:29:40.983Z</time>
      </trkpt>
      <trkpt lat="47.25796" lon="-2.22725">
        <ele>4</ele>
        <time>2021-05-23T06:29:41.983Z</time>
      </trkpt>
      <trkpt lat="47.25795" lon="-2.22728">
        <ele>4</ele>
        <time>2021-05-23T06:29:42.982Z</time>
      </trkpt>
      <trkpt lat="47.25795" lon="-2.22732">
        <ele>4</ele>
        <time>2021-05-23T06:29:43.983Z</time>
      </trkpt>
      <trkpt lat="47.25794" lon="-2.22736">
        <ele>4</ele>
        <time>2021-05-23T06:29:44.983Z</time>
      </trkpt>
      <trkpt lat="47.25794" lon="-2.2274">
        <ele>3</ele>
        <time>2021-05-23T06:29:45.983Z</time>
      </trkpt>
      <trkpt lat="47.25794" lon="-2.22744">
        <ele>3</ele>
        <time>2021-05-23T06:29:46.982Z</time>
      </trkpt>
      <trkpt lat="47.25794" lon="-2.22748">
        <ele>3</ele>
        <time>2021-05-23T06:29:47.983Z</time>
      </trkpt>
      <trkpt lat="47.25795" lon="-2.22751">
        <ele>3</ele>
        <time>2021-05-23T06:29:48.982Z</time>
      </trkpt>
      <trkpt lat="47.25795" lon="-2.22754">
        <ele>3</ele>
        <time>2021-05-23T06:29:49.983Z</time>
      </trkpt>
      <trkpt lat="47.25795" lon="-2.22757">
        <ele>3</ele>
        <time>2021-05-23T06:29:50.983Z</time>
      </trkpt>
      <trkpt lat="47.25794" lon="-2.22758">
        <ele>3</ele>
        <time>2021-05-23T06:29:51.982Z</time>
      </trkpt>
      <trkpt lat="47.25795" lon="-2.22759">
        <ele>3</ele>
        <time>2021-05-23T06:29:52.982Z</time>
      </trkpt>
      <trkpt lat="47.25795" lon="-2.22759">
        <ele>4</ele>
        <time>2021-05-23T06:29:53.982Z</time>
      </trkpt>
      <trkpt lat="47.25795" lon="-2.22759">
        <ele>5</ele>
        <time>2021-05-23T06:29:54.982Z</time>
      </trkpt>
      <trkpt lat="47.25795" lon="-2.22759">
        <ele>5</ele>
        <time>2021-05-23T06:29:55.983Z</time>
      </trkpt>
      <trkpt lat="47.25795" lon="-2.22759">
        <ele>6</ele>
        <time>2021-05-23T06:29:56.983Z</time>
      </trkpt>
      <trkpt lat="47.25794" lon="-2.22759">
        <ele>6</ele>
        <time>2021-05-23T06:29:57.983Z</time>
      </trkpt>
      <trkpt lat="47.25794" lon="-2.22759">
        <ele>7</ele>
        <time>2021-05-23T06:29:58.982Z</time>
      </trkpt>
      <trkpt lat="47.25794" lon="-2.22759">
        <ele>7</ele>
        <time>2021-05-23T06:29:59.983Z</time>
      </trkpt>
      <trkpt lat="47.25793" lon="-2.22758">
        <ele>7</ele>
        <time>2021-05-23T06:30:00.982Z</time>
      </trkpt>
      <trkpt lat="47.25793" lon="-2.22757">
        <ele>8</ele>
        <time>2021-05-23T06:30:01.982Z</time>
      </trkpt>
      <trkpt lat="47.25793" lon="-2.22757">
        <ele>8</ele>
        <time>2021-05-23T06:30:02.983Z</time>
      </trkpt>
      <trkpt lat="47.25793" lon="-2.22757">
        <ele>8</ele>
        <time>2021-05-23T06:30:03.983Z</time>
      </trkpt>
      <trkpt lat="47.25794" lon="-2.22756">
        <ele>8</ele>
        <time>2021-05-23T06:30:04.983Z</time>
      </trkpt>
      <trkpt lat="47.25794" lon="-2.22756">
        <ele>8</ele>
        <time>2021-05-23T06:30:05.982Z</time>
      </trkpt>
      <trkpt lat="47.25793" lon="-2.22756">
        <ele>8</ele>
        <time>2021-05-23T06:30:06.983Z</time>
      </trkpt>
      <trkpt lat="47.25793" lon="-2.22756">
        <ele>8</ele>
        <time>2021-05-23T06:30:07.983Z</time>
      </trkpt>
      <trkpt lat="47.25793" lon="-2.22756">
        <ele>8</ele>
        <time>2021-05-23T06:30:08.982Z</time>
      </trkpt>
      <trkpt lat="47.25793" lon="-2.22756">
        <ele>9</ele>
        <time>2021-05-23T06:30:09.983Z</time>
      </trkpt>
      <trkpt lat="47.25793" lon="-2.22756">
        <ele>9</ele>
        <time>2021-05-23T06:30:10.983Z</time>
      </trkpt>
      <trkpt lat="47.25793" lon="-2.22756">
        <ele>9</ele>
        <time>2021-05-23T06:30:11.983Z</time>
      </trkpt>
      <trkpt lat="47.25793" lon="-2.22756">
        <ele>9</ele>
        <time>2021-05-23T06:30:12.983Z</time>
      </trkpt>
      <trkpt lat="47.25793" lon="-2.22756">
        <ele>9</ele>
        <time>2021-05-23T06:30:13.983Z</time>
      </trkpt>
      <trkpt lat="47.25793" lon="-2.22756">
        <ele>9</ele>
        <time>2021-05-23T06:30:14.983Z</time>
      </trkpt>
      <trkpt lat="47.25793" lon="-2.22756">
        <ele>9</ele>
        <time>2021-05-23T06:30:15.983Z</time>
      </trkpt>
      <trkpt lat="47.25793" lon="-2.22756">
        <ele>9</ele>
        <time>2021-05-23T06:30:16.983Z</time>
      </trkpt>
      <trkpt lat="47.25793" lon="-2.22756">
        <ele>9</ele>
        <time>2021-05-23T06:30:17.983Z</time>
      </trkpt>
      <trkpt lat="47.25793" lon="-2.22757">
        <ele>9</ele>
        <time>2021-05-23T06:30:18.982Z</time>
      </trkpt>
      <trkpt lat="47.25793" lon="-2.22757">
        <ele>9</ele>
        <time>2021-05-23T06:30:19.983Z</time>
      </trkpt>
      <trkpt lat="47.25793" lon="-2.22757">
        <ele>9</ele>
        <time>2021-05-23T06:30:20.982Z</time>
      </trkpt>
      <trkpt lat="47.25793" lon="-2.22757">
        <ele>9</ele>
        <time>2021-05-23T06:30:21.983Z</time>
      </trkpt>
      <trkpt lat="47.25793" lon="-2.22757">
        <ele>9</ele>
        <time>2021-05-23T06:30:22.983Z</time>
      </trkpt>
      <trkpt lat="47.25793" lon="-2.22757">
        <ele>9</ele>
        <time>2021-05-23T06:30:23.983Z</time>
      </trkpt>
      <trkpt lat="47.25793" lon="-2.22757">
        <ele>9</ele>
        <time>2021-05-23T06:30:24.983Z</time>
      </trkpt>
      <trkpt lat="47.25793" lon="-2.22757">
        <ele>9</ele>
        <time>2021-05-23T06:30:25.983Z</time>
      </trkpt>
      <trkpt lat="47.25793" lon="-2.22757">
        <ele>9</ele>
        <time>2021-05-23T06:30:26.983Z</time>
      </trkpt>
      <trkpt lat="47.25793" lon="-2.22757">
        <ele>9</ele>
        <time>2021-05-23T06:30:27.983Z</time>
      </trkpt>
      <trkpt lat="47.25793" lon="-2.22757">
        <ele>8</ele>
        <time>2021-05-23T06:30:28.983Z</time>
      </trkpt>
      <trkpt lat="47.25793" lon="-2.22757">
        <ele>8</ele>
        <time>2021-05-23T06:30:29.982Z</time>
      </trkpt>
      <trkpt lat="47.25793" lon="-2.22757">
        <ele>8</ele>
        <time>2021-05-23T06:30:30.982Z</time>
      </trkpt>
      <trkpt lat="47.25793" lon="-2.22757">
        <ele>8</ele>
        <time>2021-05-23T06:30:31.983Z</time>
      </trkpt>
      <trkpt lat="47.25793" lon="-2.22757">
        <ele>8</ele>
        <time>2021-05-23T06:30:32.983Z</time>
      </trkpt>
      <trkpt lat="47.25793" lon="-2.22757">
        <ele>8</ele>
        <time>2021-05-23T06:30:33.983Z</time>
      </trkpt>
      <trkpt lat="47.25793" lon="-2.22757">
        <ele>8</ele>
        <time>2021-05-23T06:30:34.982Z</time>
      </trkpt>
      <trkpt lat="47.25793" lon="-2.22757">
        <ele>8</ele>
        <time>2021-05-23T06:30:35.983Z</time>
      </trkpt>
      <trkpt lat="47.25793" lon="-2.22757">
        <ele>8</ele>
        <time>2021-05-23T06:30:36.983Z</time>
      </trkpt>
      <trkpt lat="47.25792" lon="-2.22757">
        <ele>8</ele>
        <time>2021-05-23T06:30:37.983Z</time>
      </trkpt>
      <trkpt lat="47.25792" lon="-2.22757">
        <ele>8</ele>
        <time>2021-05-23T06:30:38.983Z</time>
      </trkpt>
      <trkpt lat="47.25791" lon="-2.22757">
        <ele>8</ele>
        <time>2021-05-23T06:30:39.983Z</time>
      </trkpt>
      <trkpt lat="47.25791" lon="-2.22757">
        <ele>8</ele>
        <time>2021-05-23T06:30:40.983Z</time>
      </trkpt>
      <trkpt lat="47.25791" lon="-2.22756">
        <ele>8</ele>
        <time>2021-05-23T06:30:41.983Z</time>
      </trkpt>
      <trkpt lat="47.25791" lon="-2.22756">
        <ele>8</ele>
        <time>2021-05-23T06:30:42.983Z</time>
      </trkpt>
      <trkpt lat="47.25791" lon="-2.22756">
        <ele>8</ele>
        <time>2021-05-23T06:30:43.982Z</time>
      </trkpt>
      <trkpt lat="47.25791" lon="-2.22755">
        <ele>8</ele>
        <time>2021-05-23T06:30:44.982Z</time>
      </trkpt>
      <trkpt lat="47.25791" lon="-2.22755">
        <ele>8</ele>
        <time>2021-05-23T06:30:45.983Z</time>
      </trkpt>
      <trkpt lat="47.25791" lon="-2.22755">
        <ele>8</ele>
        <time>2021-05-23T06:30:46.983Z</time>
      </trkpt>
      <trkpt lat="47.25791" lon="-2.22755">
        <ele>8</ele>
        <time>2021-05-23T06:30:47.983Z</time>
      </trkpt>
      <trkpt lat="47.25791" lon="-2.22755">
        <ele>8</ele>
        <time>2021-05-23T06:30:48.983Z</time>
      </trkpt>
      <trkpt lat="47.25791" lon="-2.22755">
        <ele>8</ele>
        <time>2021-05-23T06:30:49.983Z</time>
      </trkpt>
      <trkpt lat="47.25791" lon="-2.22755">
        <ele>8</ele>
        <time>2021-05-23T06:30:50.983Z</time>
      </trkpt>
      <trkpt lat="47.25791" lon="-2.22755">
        <ele>8</ele>
        <time>2021-05-23T06:30:51.983Z</time>
      </trkpt>
      <trkpt lat="47.25791" lon="-2.22755">
        <ele>8</ele>
        <time>2021-05-23T06:30:52.983Z</time>
      </trkpt>
      <trkpt lat="47.25791" lon="-2.22755">
        <ele>8</ele>
        <time>2021-05-23T06:30:53.983Z</time>
      </trkpt>
      <trkpt lat="47.2579" lon="-2.22755">
        <ele>8</ele>
        <time>2021-05-23T06:30:54.983Z</time>
      </trkpt>
      <trkpt lat="47.25788" lon="-2.22759">
        <ele>8</ele>
        <time>2021-05-23T06:30:55.983Z</time>
      </trkpt>
      <trkpt lat="47.25786" lon="-2.22762">
        <ele>8</ele>
        <time>2021-05-23T06:30:56.983Z</time>
      </trkpt>
      <trkpt lat="47.25784" lon="-2.22765">
        <ele>8</ele>
        <time>2021-05-23T06:30:57.982Z</time>
      </trkpt>
      <trkpt lat="47.25781" lon="-2.22767">
        <ele>8</ele>
        <time>2021-05-23T06:30:58.983Z</time>
      </trkpt>
      <trkpt lat="47.25778" lon="-2.22769">
        <ele>8</ele>
        <time>2021-05-23T06:30:59.982Z</time>
      </trkpt>
      <trkpt lat="47.25775" lon="-2.2277">
        <ele>8</ele>
        <time>2021-05-23T06:31:00.983Z</time>
      </trkpt>
      <trkpt lat="47.25771" lon="-2.22771">
        <ele>7</ele>
        <time>2021-05-23T06:31:01.983Z</time>
      </trkpt>
      <trkpt lat="47.25768" lon="-2.22772">
        <ele>7</ele>
        <time>2021-05-23T06:31:02.983Z</time>
      </trkpt>
      <trkpt lat="47.25764" lon="-2.22773">
        <ele>7</ele>
        <time>2021-05-23T06:31:03.983Z</time>
      </trkpt>
      <trkpt lat="47.25761" lon="-2.22774">
        <ele>6</ele>
        <time>2021-05-23T06:31:04.983Z</time>
      </trkpt>
      <trkpt lat="47.25758" lon="-2.22774">
        <ele>6</ele>
        <time>2021-05-23T06:31:05.983Z</time>
      </trkpt>
      <trkpt lat="47.25755" lon="-2.22775">
        <ele>6</ele>
        <time>2021-05-23T06:31:06.983Z</time>
      </trkpt>
      <trkpt lat="47.25753" lon="-2.22776">
        <ele>6</ele>
        <time>2021-05-23T06:31:07.983Z</time>
      </trkpt>
      <trkpt lat="47.2575" lon="-2.22776">
        <ele>6</ele>
        <time>2021-05-23T06:31:08.983Z</time>
      </trkpt>
      <trkpt lat="47.25746" lon="-2.22777">
        <ele>5</ele>
        <time>2021-05-23T06:31:09.982Z</time>
      </trkpt>
      <trkpt lat="47.25743" lon="-2.22779">
        <ele>5</ele>
        <time>2021-05-23T06:31:10.982Z</time>
      </trkpt>
      <trkpt lat="47.25741" lon="-2.2278">
        <ele>5</ele>
        <time>2021-05-23T06:31:11.983Z</time>
      </trkpt>
      <trkpt lat="47.25738" lon="-2.22781">
        <ele>5</ele>
        <time>2021-05-23T06:31:12.982Z</time>
      </trkpt>
      <trkpt lat="47.25736" lon="-2.22782">
        <ele>5</ele>
        <time>2021-05-23T06:31:13.982Z</time>
      </trkpt>
      <trkpt lat="47.25733" lon="-2.22783">
        <ele>5</ele>
        <time>2021-05-23T06:31:14.983Z</time>
      </trkpt>
      <trkpt lat="47.25731" lon="-2.22784">
        <ele>5</ele>
        <time>2021-05-23T06:31:15.982Z</time>
      </trkpt>
      <trkpt lat="47.25728" lon="-2.22785">
        <ele>5</ele>
        <time>2021-05-23T06:31:16.983Z</time>
      </trkpt>
      <trkpt lat="47.25726" lon="-2.22786">
        <ele>5</ele>
        <time>2021-05-23T06:31:17.982Z</time>
      </trkpt>
      <trkpt lat="47.25724" lon="-2.22787">
        <ele>6</ele>
        <time>2021-05-23T06:31:18.982Z</time>
      </trkpt>
      <trkpt lat="47.25721" lon="-2.22788">
        <ele>5</ele>
        <time>2021-05-23T06:31:19.982Z</time>
      </trkpt>
      <trkpt lat="47.25719" lon="-2.22788">
        <ele>5</ele>
        <time>2021-05-23T06:31:20.982Z</time>
      </trkpt>
      <trkpt lat="47.25717" lon="-2.22789">
        <ele>4</ele>
        <time>2021-05-23T06:31:21.983Z</time>
      </trkpt>
      <trkpt lat="47.25714" lon="-2.2279">
        <ele>4</ele>
        <time>2021-05-23T06:31:22.983Z</time>
      </trkpt>
      <trkpt lat="47.25712" lon="-2.22791">
        <ele>3</ele>
        <time>2021-05-23T06:31:23.982Z</time>
      </trkpt>
      <trkpt lat="47.25709" lon="-2.22792">
        <ele>3</ele>
        <time>2021-05-23T06:31:24.982Z</time>
      </trkpt>
      <trkpt lat="47.25707" lon="-2.22793">
        <ele>3</ele>
        <time>2021-05-23T06:31:25.983Z</time>
      </trkpt>
      <trkpt lat="47.25704" lon="-2.22794">
        <ele>3</ele>
        <time>2021-05-23T06:31:26.983Z</time>
      </trkpt>
      <trkpt lat="47.25702" lon="-2.22794">
        <ele>3</ele>
        <time>2021-05-23T06:31:27.982Z</time>
      </trkpt>
      <trkpt lat="47.25699" lon="-2.22795">
        <ele>3</ele>
        <time>2021-05-23T06:31:28.982Z</time>
      </trkpt>
      <trkpt lat="47.25697" lon="-2.22796">
        <ele>3</ele>
        <time>2021-05-23T06:31:29.983Z</time>
      </trkpt>
      <trkpt lat="47.25695" lon="-2.22797">
        <ele>3</ele>
        <time>2021-05-23T06:31:30.983Z</time>
      </trkpt>
      <trkpt lat="47.25693" lon="-2.22798">
        <ele>2</ele>
        <time>2021-05-23T06:31:31.982Z</time>
      </trkpt>
      <trkpt lat="47.25691" lon="-2.228">
        <ele>3</ele>
        <time>2021-05-23T06:31:32.983Z</time>
      </trkpt>
      <trkpt lat="47.25689" lon="-2.22801">
        <ele>3</ele>
        <time>2021-05-23T06:31:33.982Z</time>
      </trkpt>
      <trkpt lat="47.25686" lon="-2.22802">
        <ele>3</ele>
        <time>2021-05-23T06:31:34.982Z</time>
      </trkpt>
      <trkpt lat="47.25684" lon="-2.22803">
        <ele>3</ele>
        <time>2021-05-23T06:31:35.983Z</time>
      </trkpt>
      <trkpt lat="47.25683" lon="-2.22803">
        <ele>4</ele>
        <time>2021-05-23T06:31:36.983Z</time>
      </trkpt>
      <trkpt lat="47.25681" lon="-2.22804">
        <ele>4</ele>
        <time>2021-05-23T06:31:37.983Z</time>
      </trkpt>
      <trkpt lat="47.25679" lon="-2.22805">
        <ele>5</ele>
        <time>2021-05-23T06:31:38.983Z</time>
      </trkpt>
      <trkpt lat="47.25677" lon="-2.22806">
        <ele>5</ele>
        <time>2021-05-23T06:31:39.983Z</time>
      </trkpt>
      <trkpt lat="47.25676" lon="-2.22807">
        <ele>6</ele>
        <time>2021-05-23T06:31:40.983Z</time>
      </trkpt>
      <trkpt lat="47.25674" lon="-2.22808">
        <ele>7</ele>
        <time>2021-05-23T06:31:41.983Z</time>
      </trkpt>
      <trkpt lat="47.25671" lon="-2.22809">
        <ele>7</ele>
        <time>2021-05-23T06:31:42.982Z</time>
      </trkpt>
      <trkpt lat="47.25669" lon="-2.2281">
        <ele>7</ele>
        <time>2021-05-23T06:31:43.982Z</time>
      </trkpt>
      <trkpt lat="47.25666" lon="-2.2281">
        <ele>7</ele>
        <time>2021-05-23T06:31:44.982Z</time>
      </trkpt>
      <trkpt lat="47.25663" lon="-2.22811">
        <ele>7</ele>
        <time>2021-05-23T06:31:45.983Z</time>
      </trkpt>
      <trkpt lat="47.25661" lon="-2.22812">
        <ele>7</ele>
        <time>2021-05-23T06:31:46.982Z</time>
      </trkpt>
      <trkpt lat="47.25658" lon="-2.22813">
        <ele>7</ele>
        <time>2021-05-23T06:31:47.982Z</time>
      </trkpt>
      <trkpt lat="47.25656" lon="-2.22813">
        <ele>7</ele>
        <time>2021-05-23T06:31:48.983Z</time>
      </trkpt>
      <trkpt lat="47.25653" lon="-2.22814">
        <ele>6</ele>
        <time>2021-05-23T06:31:49.983Z</time>
      </trkpt>
      <trkpt lat="47.2565" lon="-2.22815">
        <ele>6</ele>
        <time>2021-05-23T06:31:50.982Z</time>
      </trkpt>
      <trkpt lat="47.25648" lon="-2.22816">
        <ele>6</ele>
        <time>2021-05-23T06:31:51.983Z</time>
      </trkpt>
      <trkpt lat="47.25646" lon="-2.22817">
        <ele>5</ele>
        <time>2021-05-23T06:31:52.982Z</time>
      </trkpt>
      <trkpt lat="47.25643" lon="-2.22817">
        <ele>5</ele>
        <time>2021-05-23T06:31:53.982Z</time>
      </trkpt>
      <trkpt lat="47.25641" lon="-2.22818">
        <ele>4</ele>
        <time>2021-05-23T06:31:54.983Z</time>
      </trkpt>
      <trkpt lat="47.25638" lon="-2.22818">
        <ele>4</ele>
        <time>2021-05-23T06:31:55.983Z</time>
      </trkpt>
      <trkpt lat="47.25636" lon="-2.22818">
        <ele>4</ele>
        <time>2021-05-23T06:31:56.983Z</time>
      </trkpt>
      <trkpt lat="47.25633" lon="-2.22818">
        <ele>4</ele>
        <time>2021-05-23T06:31:57.983Z</time>
      </trkpt>
      <trkpt lat="47.2563" lon="-2.22819">
        <ele>3</ele>
        <time>2021-05-23T06:31:58.983Z</time>
      </trkpt>
      <trkpt lat="47.25628" lon="-2.22819">
        <ele>3</ele>
        <time>2021-05-23T06:31:59.983Z</time>
      </trkpt>
      <trkpt lat="47.25625" lon="-2.22818">
        <ele>3</ele>
        <time>2021-05-23T06:32:00.983Z</time>
      </trkpt>
      <trkpt lat="47.25623" lon="-2.22818">
        <ele>2</ele>
        <time>2021-05-23T06:32:01.983Z</time>
      </trkpt>
      <trkpt lat="47.2562" lon="-2.22817">
        <ele>2</ele>
        <time>2021-05-23T06:32:02.982Z</time>
      </trkpt>
      <trkpt lat="47.25617" lon="-2.22816">
        <ele>2</ele>
        <time>2021-05-23T06:32:03.982Z</time>
      </trkpt>
      <trkpt lat="47.25615" lon="-2.22815">
        <ele>2</ele>
        <time>2021-05-23T06:32:04.983Z</time>
      </trkpt>
      <trkpt lat="47.25613" lon="-2.22814">
        <ele>1</ele>
        <time>2021-05-23T06:32:05.982Z</time>
      </trkpt>
      <trkpt lat="47.25611" lon="-2.22813">
        <ele>1</ele>
        <time>2021-05-23T06:32:06.983Z</time>
      </trkpt>
      <trkpt lat="47.25609" lon="-2.22813">
        <ele>8.69</ele>
        <time>2021-05-23T06:32:07.983Z</time>
      </trkpt>
      <trkpt lat="47.25608" lon="-2.22814">
        <ele>8.71</ele>
        <time>2021-05-23T06:32:08.983Z</time>
      </trkpt>
      <trkpt lat="47.25608" lon="-2.22816">
        <ele>8.71</ele>
        <time>2021-05-23T06:32:09.983Z</time>
      </trkpt>
      <trkpt lat="47.25609" lon="-2.22818">
        <ele>1</ele>
        <time>2021-05-23T06:32:10.983Z</time>
      </trkpt>
      <trkpt lat="47.2561" lon="-2.2282">
        <ele>1</ele>
        <time>2021-05-23T06:32:11.983Z</time>
      </trkpt>
      <trkpt lat="47.25612" lon="-2.22822">
        <ele>1</ele>
        <time>2021-05-23T06:32:12.983Z</time>
      </trkpt>
      <trkpt lat="47.25613" lon="-2.22825">
        <ele>1</ele>
        <time>2021-05-23T06:32:13.983Z</time>
      </trkpt>
      <trkpt lat="47.25614" lon="-2.22828">
        <ele>2</ele>
        <time>2021-05-23T06:32:14.983Z</time>
      </trkpt>
      <trkpt lat="47.25616" lon="-2.22831">
        <ele>2</ele>
        <time>2021-05-23T06:32:15.982Z</time>
      </trkpt>
      <trkpt lat="47.25617" lon="-2.22834">
        <ele>2</ele>
        <time>2021-05-23T06:32:16.983Z</time>
      </trkpt>
      <trkpt lat="47.25618" lon="-2.22837">
        <ele>3</ele>
        <time>2021-05-23T06:32:17.982Z</time>
      </trkpt>
      <trkpt lat="47.25619" lon="-2.2284">
        <ele>4</ele>
        <time>2021-05-23T06:32:18.983Z</time>
      </trkpt>
      <trkpt lat="47.25619" lon="-2.22843">
        <ele>4</ele>
        <time>2021-05-23T06:32:19.983Z</time>
      </trkpt>
      <trkpt lat="47.25619" lon="-2.22846">
        <ele>5</ele>
        <time>2021-05-23T06:32:20.983Z</time>
      </trkpt>
      <trkpt lat="47.25619" lon="-2.22849">
        <ele>5</ele>
        <time>2021-05-23T06:32:21.983Z</time>
      </trkpt>
      <trkpt lat="47.25619" lon="-2.22852">
        <ele>6</ele>
        <time>2021-05-23T06:32:22.983Z</time>
      </trkpt>
      <trkpt lat="47.25618" lon="-2.22854">
        <ele>6</ele>
        <time>2021-05-23T06:32:23.983Z</time>
      </trkpt>
      <trkpt lat="47.25618" lon="-2.22857">
        <ele>6</ele>
        <time>2021-05-23T06:32:24.983Z</time>
      </trkpt>
      <trkpt lat="47.25617" lon="-2.22859">
        <ele>6</ele>
        <time>2021-05-23T06:32:25.983Z</time>
      </trkpt>
      <trkpt lat="47.25616" lon="-2.22862">
        <ele>6</ele>
        <time>2021-05-23T06:32:26.982Z</time>
      </trkpt>
      <trkpt lat="47.25615" lon="-2.22865">
        <ele>6</ele>
        <time>2021-05-23T06:32:27.982Z</time>
      </trkpt>
      <trkpt lat="47.25614" lon="-2.22867">
        <ele>5</ele>
        <time>2021-05-23T06:32:28.983Z</time>
      </trkpt>
      <trkpt lat="47.25614" lon="-2.2287">
        <ele>5</ele>
        <time>2021-05-23T06:32:29.983Z</time>
      </trkpt>
      <trkpt lat="47.25613" lon="-2.22873">
        <ele>5</ele>
        <time>2021-05-23T06:32:30.983Z</time>
      </trkpt>
      <trkpt lat="47.25612" lon="-2.22876">
        <ele>4</ele>
        <time>2021-05-23T06:32:31.983Z</time>
      </trkpt>
      <trkpt lat="47.25611" lon="-2.22879">
        <ele>4</ele>
        <time>2021-05-23T06:32:32.983Z</time>
      </trkpt>
      <trkpt lat="47.2561" lon="-2.22882">
        <ele>4</ele>
        <time>2021-05-23T06:32:33.983Z</time>
      </trkpt>
      <trkpt lat="47.25609" lon="-2.22885">
        <ele>4</ele>
        <time>2021-05-23T06:32:34.983Z</time>
      </trkpt>
      <trkpt lat="47.25608" lon="-2.22889">
        <ele>4</ele>
        <time>2021-05-23T06:32:35.982Z</time>
      </trkpt>
      <trkpt lat="47.25608" lon="-2.22892">
        <ele>4</ele>
        <time>2021-05-23T06:32:36.983Z</time>
      </trkpt>
      <trkpt lat="47.25607" lon="-2.22895">
        <ele>4</ele>
        <time>2021-05-23T06:32:37.982Z</time>
      </trkpt>
      <trkpt lat="47.25606" lon="-2.22898">
        <ele>4</ele>
        <time>2021-05-23T06:32:38.983Z</time>
      </trkpt>
      <trkpt lat="47.25606" lon="-2.22901">
        <ele>4</ele>
        <time>2021-05-23T06:32:39.982Z</time>
      </trkpt>
      <trkpt lat="47.25605" lon="-2.22904">
        <ele>4</ele>
        <time>2021-05-23T06:32:40.982Z</time>
      </trkpt>
      <trkpt lat="47.25604" lon="-2.22907">
        <ele>4</ele>
        <time>2021-05-23T06:32:41.983Z</time>
      </trkpt>
      <trkpt lat="47.25604" lon="-2.22911">
        <ele>4</ele>
        <time>2021-05-23T06:32:42.982Z</time>
      </trkpt>
      <trkpt lat="47.25603" lon="-2.22914">
        <ele>4</ele>
        <time>2021-05-23T06:32:43.983Z</time>
      </trkpt>
      <trkpt lat="47.25602" lon="-2.22917">
        <ele>4</ele>
        <time>2021-05-23T06:32:44.983Z</time>
      </trkpt>
      <trkpt lat="47.25601" lon="-2.2292">
        <ele>4</ele>
        <time>2021-05-23T06:32:45.982Z</time>
      </trkpt>
      <trkpt lat="47.25601" lon="-2.22924">
        <ele>4</ele>
        <time>2021-05-23T06:32:46.983Z</time>
      </trkpt>
      <trkpt lat="47.256" lon="-2.22927">
        <ele>4</ele>
        <time>2021-05-23T06:32:47.983Z</time>
      </trkpt>
      <trkpt lat="47.25599" lon="-2.2293">
        <ele>4</ele>
        <time>2021-05-23T06:32:48.983Z</time>
      </trkpt>
      <trkpt lat="47.25599" lon="-2.22933">
        <ele>4</ele>
        <time>2021-05-23T06:32:49.983Z</time>
      </trkpt>
      <trkpt lat="47.25598" lon="-2.22936">
        <ele>4</ele>
        <time>2021-05-23T06:32:50.983Z</time>
      </trkpt>
      <trkpt lat="47.25597" lon="-2.22939">
        <ele>5</ele>
        <time>2021-05-23T06:32:51.983Z</time>
      </trkpt>
      <trkpt lat="47.25597" lon="-2.22943">
        <ele>4</ele>
        <time>2021-05-23T06:32:52.983Z</time>
      </trkpt>
      <trkpt lat="47.25596" lon="-2.22946">
        <ele>4</ele>
        <time>2021-05-23T06:32:53.982Z</time>
      </trkpt>
      <trkpt lat="47.25596" lon="-2.22949">
        <ele>3</ele>
        <time>2021-05-23T06:32:54.983Z</time>
      </trkpt>
      <trkpt lat="47.25595" lon="-2.22953">
        <ele>3</ele>
        <time>2021-05-23T06:32:55.982Z</time>
      </trkpt>
      <trkpt lat="47.25595" lon="-2.22956">
        <ele>3</ele>
        <time>2021-05-23T06:32:56.982Z</time>
      </trkpt>
      <trkpt lat="47.25594" lon="-2.22959">
        <ele>3</ele>
        <time>2021-05-23T06:32:57.982Z</time>
      </trkpt>
      <trkpt lat="47.25593" lon="-2.22963">
        <ele>3</ele>
        <time>2021-05-23T06:32:58.983Z</time>
      </trkpt>
      <trkpt lat="47.25592" lon="-2.22966">
        <ele>3</ele>
        <time>2021-05-23T06:32:59.982Z</time>
      </trkpt>
      <trkpt lat="47.25592" lon="-2.22969">
        <ele>3</ele>
        <time>2021-05-23T06:33:00.983Z</time>
      </trkpt>
      <trkpt lat="47.25591" lon="-2.22973">
        <ele>3</ele>
        <time>2021-05-23T06:33:01.983Z</time>
      </trkpt>
      <trkpt lat="47.25591" lon="-2.22976">
        <ele>3</ele>
        <time>2021-05-23T06:33:02.982Z</time>
      </trkpt>
      <trkpt lat="47.25591" lon="-2.2298">
        <ele>3</ele>
        <time>2021-05-23T06:33:03.982Z</time>
      </trkpt>
      <trkpt lat="47.25591" lon="-2.22983">
        <ele>3</ele>
        <time>2021-05-23T06:33:04.983Z</time>
      </trkpt>
      <trkpt lat="47.25591" lon="-2.22986">
        <ele>3</ele>
        <time>2021-05-23T06:33:05.983Z</time>
      </trkpt>
      <trkpt lat="47.25591" lon="-2.22989">
        <ele>3</ele>
        <time>2021-05-23T06:33:06.983Z</time>
      </trkpt>
      <trkpt lat="47.2559" lon="-2.22993">
        <ele>3</ele>
        <time>2021-05-23T06:33:07.983Z</time>
      </trkpt>
      <trkpt lat="47.2559" lon="-2.22996">
        <ele>3</ele>
        <time>2021-05-23T06:33:08.982Z</time>
      </trkpt>
      <trkpt lat="47.2559" lon="-2.22999">
        <ele>3</ele>
        <time>2021-05-23T06:33:09.982Z</time>
      </trkpt>
      <trkpt lat="47.2559" lon="-2.23003">
        <ele>3</ele>
        <time>2021-05-23T06:33:10.983Z</time>
      </trkpt>
      <trkpt lat="47.2559" lon="-2.23006">
        <ele>4</ele>
        <time>2021-05-23T06:33:11.982Z</time>
      </trkpt>
      <trkpt lat="47.2559" lon="-2.23009">
        <ele>4</ele>
        <time>2021-05-23T06:33:12.983Z</time>
      </trkpt>
      <trkpt lat="47.2559" lon="-2.23012">
        <ele>4</ele>
        <time>2021-05-23T06:33:13.982Z</time>
      </trkpt>
      <trkpt lat="47.2559" lon="-2.23015">
        <ele>4</ele>
        <time>2021-05-23T06:33:14.982Z</time>
      </trkpt>
      <trkpt lat="47.2559" lon="-2.23018">
        <ele>4</ele>
        <time>2021-05-23T06:33:15.983Z</time>
      </trkpt>
      <trkpt lat="47.25589" lon="-2.23021">
        <ele>4</ele>
        <time>2021-05-23T06:33:16.983Z</time>
      </trkpt>
      <trkpt lat="47.25589" lon="-2.23024">
        <ele>5</ele>
        <time>2021-05-23T06:33:17.982Z</time>
      </trkpt>
      <trkpt lat="47.25589" lon="-2.23028">
        <ele>5</ele>
        <time>2021-05-23T06:33:18.983Z</time>
      </trkpt>
      <trkpt lat="47.25589" lon="-2.23032">
        <ele>5</ele>
        <time>2021-05-23T06:33:19.983Z</time>
      </trkpt>
      <trkpt lat="47.2559" lon="-2.23035">
        <ele>6</ele>
        <time>2021-05-23T06:33:20.982Z</time>
      </trkpt>
      <trkpt lat="47.25591" lon="-2.23039">
        <ele>5</ele>
        <time>2021-05-23T06:33:21.982Z</time>
      </trkpt>
      <trkpt lat="47.25592" lon="-2.23043">
        <ele>5</ele>
        <time>2021-05-23T06:33:22.982Z</time>
      </trkpt>
      <trkpt lat="47.25592" lon="-2.23047">
        <ele>4</ele>
        <time>2021-05-23T06:33:23.982Z</time>
      </trkpt>
      <trkpt lat="47.25593" lon="-2.23051">
        <ele>4</ele>
        <time>2021-05-23T06:33:24.982Z</time>
      </trkpt>
      <trkpt lat="47.25593" lon="-2.23055">
        <ele>4</ele>
        <time>2021-05-23T06:33:25.983Z</time>
      </trkpt>
      <trkpt lat="47.25594" lon="-2.23058">
        <ele>4</ele>
        <time>2021-05-23T06:33:26.982Z</time>
      </trkpt>
      <trkpt lat="47.25595" lon="-2.23062">
        <ele>4</ele>
        <time>2021-05-23T06:33:27.982Z</time>
      </trkpt>
      <trkpt lat="47.25595" lon="-2.23065">
        <ele>4</ele>
        <time>2021-05-23T06:33:28.983Z</time>
      </trkpt>
      <trkpt lat="47.25596" lon="-2.23069">
        <ele>4</ele>
        <time>2021-05-23T06:33:29.983Z</time>
      </trkpt>
      <trkpt lat="47.25597" lon="-2.23072">
        <ele>5</ele>
        <time>2021-05-23T06:33:30.983Z</time>
      </trkpt>
      <trkpt lat="47.25597" lon="-2.23076">
        <ele>5</ele>
        <time>2021-05-23T06:33:31.983Z</time>
      </trkpt>
      <trkpt lat="47.25598" lon="-2.23079">
        <ele>5</ele>
        <time>2021-05-23T06:33:32.983Z</time>
      </trkpt>
      <trkpt lat="47.25599" lon="-2.23083">
        <ele>5</ele>
        <time>2021-05-23T06:33:33.983Z</time>
      </trkpt>
      <trkpt lat="47.25599" lon="-2.23087">
        <ele>5</ele>
        <time>2021-05-23T06:33:34.983Z</time>
      </trkpt>
      <trkpt lat="47.256" lon="-2.23091">
        <ele>5</ele>
        <time>2021-05-23T06:33:35.982Z</time>
      </trkpt>
      <trkpt lat="47.256" lon="-2.23095">
        <ele>5</ele>
        <time>2021-05-23T06:33:36.983Z</time>
      </trkpt>
      <trkpt lat="47.25601" lon="-2.23099">
        <ele>5</ele>
        <time>2021-05-23T06:33:37.983Z</time>
      </trkpt>
      <trkpt lat="47.25601" lon="-2.23102">
        <ele>5</ele>
        <time>2021-05-23T06:33:38.983Z</time>
      </trkpt>
      <trkpt lat="47.25601" lon="-2.23106">
        <ele>5</ele>
        <time>2021-05-23T06:33:39.983Z</time>
      </trkpt>
      <trkpt lat="47.25601" lon="-2.23109">
        <ele>5</ele>
        <time>2021-05-23T06:33:40.983Z</time>
      </trkpt>
      <trkpt lat="47.25601" lon="-2.23112">
        <ele>5</ele>
        <time>2021-05-23T06:33:41.983Z</time>
      </trkpt>
      <trkpt lat="47.25602" lon="-2.23116">
        <ele>6</ele>
        <time>2021-05-23T06:33:42.982Z</time>
      </trkpt>
      <trkpt lat="47.25602" lon="-2.23119">
        <ele>6</ele>
        <time>2021-05-23T06:33:43.983Z</time>
      </trkpt>
      <trkpt lat="47.25603" lon="-2.23123">
        <ele>6</ele>
        <time>2021-05-23T06:33:44.983Z</time>
      </trkpt>
      <trkpt lat="47.25604" lon="-2.23126">
        <ele>7</ele>
        <time>2021-05-23T06:33:45.983Z</time>
      </trkpt>
      <trkpt lat="47.25604" lon="-2.23129">
        <ele>7</ele>
        <time>2021-05-23T06:33:46.982Z</time>
      </trkpt>
      <trkpt lat="47.25605" lon="-2.23132">
        <ele>7</ele>
        <time>2021-05-23T06:33:47.983Z</time>
      </trkpt>
      <trkpt lat="47.25605" lon="-2.23136">
        <ele>7</ele>
        <time>2021-05-23T06:33:48.982Z</time>
      </trkpt>
      <trkpt lat="47.25605" lon="-2.23139">
        <ele>7</ele>
        <time>2021-05-23T06:33:49.983Z</time>
      </trkpt>
      <trkpt lat="47.25605" lon="-2.23142">
        <ele>7</ele>
        <time>2021-05-23T06:33:50.983Z</time>
      </trkpt>
      <trkpt lat="47.25605" lon="-2.23146">
        <ele>7</ele>
        <time>2021-05-23T06:33:51.983Z</time>
      </trkpt>
      <trkpt lat="47.25605" lon="-2.23149">
        <ele>7</ele>
        <time>2021-05-23T06:33:52.983Z</time>
      </trkpt>
      <trkpt lat="47.25605" lon="-2.23153">
        <ele>7</ele>
        <time>2021-05-23T06:33:53.982Z</time>
      </trkpt>
      <trkpt lat="47.25605" lon="-2.23156">
        <ele>7</ele>
        <time>2021-05-23T06:33:54.983Z</time>
      </trkpt>
      <trkpt lat="47.25606" lon="-2.23159">
        <ele>6</ele>
        <time>2021-05-23T06:33:55.983Z</time>
      </trkpt>
      <trkpt lat="47.25606" lon="-2.23163">
        <ele>6</ele>
        <time>2021-05-23T06:33:56.983Z</time>
      </trkpt>
      <trkpt lat="47.25606" lon="-2.23166">
        <ele>6</ele>
        <time>2021-05-23T06:33:57.982Z</time>
      </trkpt>
      <trkpt lat="47.25606" lon="-2.23169">
        <ele>6</ele>
        <time>2021-05-23T06:33:58.982Z</time>
      </trkpt>
      <trkpt lat="47.25606" lon="-2.23172">
        <ele>6</ele>
        <time>2021-05-23T06:33:59.982Z</time>
      </trkpt>
      <trkpt lat="47.25606" lon="-2.23176">
        <ele>6</ele>
        <time>2021-05-23T06:34:00.982Z</time>
      </trkpt>
      <trkpt lat="47.25606" lon="-2.23179">
        <ele>6</ele>
        <time>2021-05-23T06:34:01.982Z</time>
      </trkpt>
      <trkpt lat="47.25606" lon="-2.23182">
        <ele>6</ele>
        <time>2021-05-23T06:34:02.983Z</time>
      </trkpt>
      <trkpt lat="47.25606" lon="-2.23185">
        <ele>6</ele>
        <time>2021-05-23T06:34:03.982Z</time>
      </trkpt>
      <trkpt lat="47.25606" lon="-2.23188">
        <ele>6</ele>
        <time>2021-05-23T06:34:04.982Z</time>
      </trkpt>
      <trkpt lat="47.25606" lon="-2.23191">
        <ele>6</ele>
        <time>2021-05-23T06:34:05.982Z</time>
      </trkpt>
      <trkpt lat="47.25606" lon="-2.23194">
        <ele>5</ele>
        <time>2021-05-23T06:34:06.982Z</time>
      </trkpt>
      <trkpt lat="47.25606" lon="-2.23196">
        <ele>5</ele>
        <time>2021-05-23T06:34:07.982Z</time>
      </trkpt>
      <trkpt lat="47.25607" lon="-2.23199">
        <ele>4</ele>
        <time>2021-05-23T06:34:08.982Z</time>
      </trkpt>
      <trkpt lat="47.25607" lon="-2.23202">
        <ele>4</ele>
        <time>2021-05-23T06:34:09.982Z</time>
      </trkpt>
      <trkpt lat="47.25607" lon="-2.23204">
        <ele>3</ele>
        <time>2021-05-23T06:34:10.982Z</time>
      </trkpt>
      <trkpt lat="47.25608" lon="-2.23207">
        <ele>3</ele>
        <time>2021-05-23T06:34:11.982Z</time>
      </trkpt>
      <trkpt lat="47.25608" lon="-2.2321">
        <ele>2</ele>
        <time>2021-05-23T06:34:12.982Z</time>
      </trkpt>
      <trkpt lat="47.25608" lon="-2.23214">
        <ele>2</ele>
        <time>2021-05-23T06:34:13.983Z</time>
      </trkpt>
      <trkpt lat="47.25608" lon="-2.23217">
        <ele>1</ele>
        <time>2021-05-23T06:34:14.982Z</time>
      </trkpt>
      <trkpt lat="47.25607" lon="-2.23221">
        <ele>1</ele>
        <time>2021-05-23T06:34:15.983Z</time>
      </trkpt>
      <trkpt lat="47.25606" lon="-2.23224">
        <ele>1</ele>
        <time>2021-05-23T06:34:16.983Z</time>
      </trkpt>
      <trkpt lat="47.25605" lon="-2.23228">
        <ele>1</ele>
        <time>2021-05-23T06:34:17.983Z</time>
      </trkpt>
      <trkpt lat="47.25604" lon="-2.23231">
        <ele>1</ele>
        <time>2021-05-23T06:34:18.983Z</time>
      </trkpt>
      <trkpt lat="47.25604" lon="-2.23234">
        <ele>2</ele>
        <time>2021-05-23T06:34:19.983Z</time>
      </trkpt>
      <trkpt lat="47.25603" lon="-2.23237">
        <ele>2</ele>
        <time>2021-05-23T06:34:20.982Z</time>
      </trkpt>
      <trkpt lat="47.25603" lon="-2.2324">
        <ele>3</ele>
        <time>2021-05-23T06:34:21.983Z</time>
      </trkpt>
      <trkpt lat="47.25603" lon="-2.23244">
        <ele>3</ele>
        <time>2021-05-23T06:34:22.983Z</time>
      </trkpt>
      <trkpt lat="47.25604" lon="-2.23247">
        <ele>3</ele>
        <time>2021-05-23T06:34:23.983Z</time>
      </trkpt>
      <trkpt lat="47.25605" lon="-2.2325">
        <ele>3</ele>
        <time>2021-05-23T06:34:24.983Z</time>
      </trkpt>
      <trkpt lat="47.25606" lon="-2.23253">
        <ele>3</ele>
        <time>2021-05-23T06:34:25.983Z</time>
      </trkpt>
      <trkpt lat="47.25607" lon="-2.23256">
        <ele>3</ele>
        <time>2021-05-23T06:34:26.982Z</time>
      </trkpt>
      <trkpt lat="47.25607" lon="-2.2326">
        <ele>3</ele>
        <time>2021-05-23T06:34:27.983Z</time>
      </trkpt>
      <trkpt lat="47.25608" lon="-2.23263">
        <ele>3</ele>
        <time>2021-05-23T06:34:28.983Z</time>
      </trkpt>
      <trkpt lat="47.25609" lon="-2.23266">
        <ele>3</ele>
        <time>2021-05-23T06:34:29.982Z</time>
      </trkpt>
      <trkpt lat="47.25609" lon="-2.23269">
        <ele>2</ele>
        <time>2021-05-23T06:34:30.983Z</time>
      </trkpt>
      <trkpt lat="47.2561" lon="-2.23272">
        <ele>2</ele>
        <time>2021-05-23T06:34:31.983Z</time>
      </trkpt>
      <trkpt lat="47.25611" lon="-2.23275">
        <ele>2</ele>
        <time>2021-05-23T06:34:32.982Z</time>
      </trkpt>
      <trkpt lat="47.25611" lon="-2.23278">
        <ele>2</ele>
        <time>2021-05-23T06:34:33.983Z</time>
      </trkpt>
      <trkpt lat="47.25612" lon="-2.23281">
        <ele>2</ele>
        <time>2021-05-23T06:34:34.983Z</time>
      </trkpt>
      <trkpt lat="47.25612" lon="-2.23284">
        <ele>2</ele>
        <time>2021-05-23T06:34:35.982Z</time>
      </trkpt>
      <trkpt lat="47.25613" lon="-2.23287">
        <ele>3</ele>
        <time>2021-05-23T06:34:36.983Z</time>
      </trkpt>
      <trkpt lat="47.25613" lon="-2.2329">
        <ele>3</ele>
        <time>2021-05-23T06:34:37.983Z</time>
      </trkpt>
      <trkpt lat="47.25614" lon="-2.23293">
        <ele>4</ele>
        <time>2021-05-23T06:34:38.983Z</time>
      </trkpt>
      <trkpt lat="47.25615" lon="-2.23296">
        <ele>4</ele>
        <time>2021-05-23T06:34:39.983Z</time>
      </trkpt>
      <trkpt lat="47.25615" lon="-2.23299">
        <ele>4</ele>
        <time>2021-05-23T06:34:40.983Z</time>
      </trkpt>
      <trkpt lat="47.25616" lon="-2.23303">
        <ele>5</ele>
        <time>2021-05-23T06:34:41.983Z</time>
      </trkpt>
      <trkpt lat="47.25616" lon="-2.23306">
        <ele>5</ele>
        <time>2021-05-23T06:34:42.983Z</time>
      </trkpt>
      <trkpt lat="47.25617" lon="-2.2331">
        <ele>6</ele>
        <time>2021-05-23T06:34:43.983Z</time>
      </trkpt>
      <trkpt lat="47.25617" lon="-2.23313">
        <ele>6</ele>
        <time>2021-05-23T06:34:44.983Z</time>
      </trkpt>
      <trkpt lat="47.25618" lon="-2.23316">
        <ele>6</ele>
        <time>2021-05-23T06:34:45.983Z</time>
      </trkpt>
      <trkpt lat="47.2562" lon="-2.2332">
        <ele>7</ele>
        <time>2021-05-23T06:34:46.983Z</time>
      </trkpt>
      <trkpt lat="47.25621" lon="-2.23323">
        <ele>7</ele>
        <time>2021-05-23T06:34:47.983Z</time>
      </trkpt>
      <trkpt lat="47.25622" lon="-2.23327">
        <ele>7</ele>
        <time>2021-05-23T06:34:48.983Z</time>
      </trkpt>
      <trkpt lat="47.25624" lon="-2.2333">
        <ele>7</ele>
        <time>2021-05-23T06:34:49.983Z</time>
      </trkpt>
      <trkpt lat="47.25625" lon="-2.23333">
        <ele>7</ele>
        <time>2021-05-23T06:34:50.982Z</time>
      </trkpt>
      <trkpt lat="47.25625" lon="-2.23336">
        <ele>7</ele>
        <time>2021-05-23T06:34:51.983Z</time>
      </trkpt>
      <trkpt lat="47.25626" lon="-2.2334">
        <ele>7</ele>
        <time>2021-05-23T06:34:52.983Z</time>
      </trkpt>
      <trkpt lat="47.25625" lon="-2.23343">
        <ele>7</ele>
        <time>2021-05-23T06:34:53.983Z</time>
      </trkpt>
      <trkpt lat="47.25626" lon="-2.23347">
        <ele>6</ele>
        <time>2021-05-23T06:34:54.983Z</time>
      </trkpt>
      <trkpt lat="47.25626" lon="-2.23351">
        <ele>6</ele>
        <time>2021-05-23T06:34:55.983Z</time>
      </trkpt>
      <trkpt lat="47.25627" lon="-2.23354">
        <ele>7</ele>
        <time>2021-05-23T06:34:56.983Z</time>
      </trkpt>
      <trkpt lat="47.25627" lon="-2.23357">
        <ele>7</ele>
        <time>2021-05-23T06:34:57.983Z</time>
      </trkpt>
      <trkpt lat="47.25628" lon="-2.2336">
        <ele>7</ele>
        <time>2021-05-23T06:34:58.983Z</time>
      </trkpt>
      <trkpt lat="47.25628" lon="-2.23363">
        <ele>8</ele>
        <time>2021-05-23T06:34:59.982Z</time>
      </trkpt>
      <trkpt lat="47.25629" lon="-2.23367">
        <ele>9</ele>
        <time>2021-05-23T06:35:00.982Z</time>
      </trkpt>
      <trkpt lat="47.25629" lon="-2.2337">
        <ele>9</ele>
        <time>2021-05-23T06:35:01.982Z</time>
      </trkpt>
      <trkpt lat="47.2563" lon="-2.23373">
        <ele>9</ele>
        <time>2021-05-23T06:35:02.983Z</time>
      </trkpt>
      <trkpt lat="47.2563" lon="-2.23377">
        <ele>9</ele>
        <time>2021-05-23T06:35:03.983Z</time>
      </trkpt>
      <trkpt lat="47.2563" lon="-2.2338">
        <ele>10</ele>
        <time>2021-05-23T06:35:04.982Z</time>
      </trkpt>
      <trkpt lat="47.2563" lon="-2.23383">
        <ele>10</ele>
        <time>2021-05-23T06:35:05.983Z</time>
      </trkpt>
      <trkpt lat="47.2563" lon="-2.23387">
        <ele>10</ele>
        <time>2021-05-23T06:35:06.983Z</time>
      </trkpt>
      <trkpt lat="47.2563" lon="-2.23391">
        <ele>10</ele>
        <time>2021-05-23T06:35:07.982Z</time>
      </trkpt>
      <trkpt lat="47.25631" lon="-2.23394">
        <ele>10</ele>
        <time>2021-05-23T06:35:08.982Z</time>
      </trkpt>
      <trkpt lat="47.25631" lon="-2.23398">
        <ele>11</ele>
        <time>2021-05-23T06:35:09.983Z</time>
      </trkpt>
      <trkpt lat="47.25631" lon="-2.23402">
        <ele>11</ele>
        <time>2021-05-23T06:35:10.982Z</time>
      </trkpt>
      <trkpt lat="47.25631" lon="-2.23406">
        <ele>10</ele>
        <time>2021-05-23T06:35:11.983Z</time>
      </trkpt>
      <trkpt lat="47.25632" lon="-2.23409">
        <ele>10</ele>
        <time>2021-05-23T06:35:12.983Z</time>
      </trkpt>
      <trkpt lat="47.25631" lon="-2.23413">
        <ele>10</ele>
        <time>2021-05-23T06:35:13.982Z</time>
      </trkpt>
      <trkpt lat="47.25631" lon="-2.23416">
        <ele>10</ele>
        <time>2021-05-23T06:35:14.982Z</time>
      </trkpt>
      <trkpt lat="47.25631" lon="-2.2342">
        <ele>10</ele>
        <time>2021-05-23T06:35:15.982Z</time>
      </trkpt>
      <trkpt lat="47.25631" lon="-2.23423">
        <ele>10</ele>
        <time>2021-05-23T06:35:16.982Z</time>
      </trkpt>
      <trkpt lat="47.25632" lon="-2.23427">
        <ele>10</ele>
        <time>2021-05-23T06:35:17.983Z</time>
      </trkpt>
      <trkpt lat="47.25632" lon="-2.2343">
        <ele>10</ele>
        <time>2021-05-23T06:35:18.983Z</time>
      </trkpt>
      <trkpt lat="47.25632" lon="-2.23433">
        <ele>11</ele>
        <time>2021-05-23T06:35:19.982Z</time>
      </trkpt>
      <trkpt lat="47.25633" lon="-2.23436">
        <ele>11</ele>
        <time>2021-05-23T06:35:20.983Z</time>
      </trkpt>
      <trkpt lat="47.25633" lon="-2.2344">
        <ele>10</ele>
        <time>2021-05-23T06:35:21.983Z</time>
      </trkpt>
      <trkpt lat="47.25633" lon="-2.23443">
        <ele>11</ele>
        <time>2021-05-23T06:35:22.982Z</time>
      </trkpt>
      <trkpt lat="47.25633" lon="-2.23447">
        <ele>11</ele>
        <time>2021-05-23T06:35:23.983Z</time>
      </trkpt>
      <trkpt lat="47.25633" lon="-2.2345">
        <ele>11</ele>
        <time>2021-05-23T06:35:24.983Z</time>
      </trkpt>
      <trkpt lat="47.25633" lon="-2.23454">
        <ele>11</ele>
        <time>2021-05-23T06:35:25.983Z</time>
      </trkpt>
      <trkpt lat="47.25633" lon="-2.23457">
        <ele>11</ele>
        <time>2021-05-23T06:35:26.983Z</time>
      </trkpt>
      <trkpt lat="47.25633" lon="-2.23461">
        <ele>10</ele>
        <time>2021-05-23T06:35:27.983Z</time>
      </trkpt>
      <trkpt lat="47.25634" lon="-2.23464">
        <ele>10</ele>
        <time>2021-05-23T06:35:28.983Z</time>
      </trkpt>
      <trkpt lat="47.25634" lon="-2.23467">
        <ele>10</ele>
        <time>2021-05-23T06:35:29.983Z</time>
      </trkpt>
      <trkpt lat="47.25634" lon="-2.2347">
        <ele>10</ele>
        <time>2021-05-23T06:35:30.983Z</time>
      </trkpt>
      <trkpt lat="47.25634" lon="-2.23473">
        <ele>10</ele>
        <time>2021-05-23T06:35:31.983Z</time>
      </trkpt>
      <trkpt lat="47.25635" lon="-2.23477">
        <ele>10</ele>
        <time>2021-05-23T06:35:32.983Z</time>
      </trkpt>
      <trkpt lat="47.25635" lon="-2.2348">
        <ele>10</ele>
        <time>2021-05-23T06:35:33.983Z</time>
      </trkpt>
      <trkpt lat="47.25635" lon="-2.23483">
        <ele>10</ele>
        <time>2021-05-23T06:35:34.983Z</time>
      </trkpt>
      <trkpt lat="47.25636" lon="-2.23486">
        <ele>10</ele>
        <time>2021-05-23T06:35:35.983Z</time>
      </trkpt>
      <trkpt lat="47.25636" lon="-2.23489">
        <ele>10</ele>
        <time>2021-05-23T06:35:36.983Z</time>
      </trkpt>
      <trkpt lat="47.25637" lon="-2.23492">
        <ele>10</ele>
        <time>2021-05-23T06:35:37.983Z</time>
      </trkpt>
      <trkpt lat="47.25637" lon="-2.23494">
        <ele>10</ele>
        <time>2021-05-23T06:35:38.983Z</time>
      </trkpt>
      <trkpt lat="47.25638" lon="-2.23497">
        <ele>9</ele>
        <time>2021-05-23T06:35:39.983Z</time>
      </trkpt>
      <trkpt lat="47.25638" lon="-2.235">
        <ele>9</ele>
        <time>2021-05-23T06:35:40.983Z</time>
      </trkpt>
      <trkpt lat="47.25639" lon="-2.23503">
        <ele>8</ele>
        <time>2021-05-23T06:35:41.983Z</time>
      </trkpt>
      <trkpt lat="47.25639" lon="-2.23507">
        <ele>8</ele>
        <time>2021-05-23T06:35:42.983Z</time>
      </trkpt>
      <trkpt lat="47.25641" lon="-2.2351">
        <ele>8</ele>
        <time>2021-05-23T06:35:43.983Z</time>
      </trkpt>
      <trkpt lat="47.25641" lon="-2.23514">
        <ele>8</ele>
        <time>2021-05-23T06:35:44.983Z</time>
      </trkpt>
      <trkpt lat="47.25641" lon="-2.23517">
        <ele>8</ele>
        <time>2021-05-23T06:35:45.982Z</time>
      </trkpt>
      <trkpt lat="47.25641" lon="-2.2352">
        <ele>9</ele>
        <time>2021-05-23T06:35:46.983Z</time>
      </trkpt>
      <trkpt lat="47.25642" lon="-2.23524">
        <ele>9</ele>
        <time>2021-05-23T06:35:47.982Z</time>
      </trkpt>
      <trkpt lat="47.25643" lon="-2.23528">
        <ele>9</ele>
        <time>2021-05-23T06:35:48.983Z</time>
      </trkpt>
      <trkpt lat="47.25644" lon="-2.23531">
        <ele>10</ele>
        <time>2021-05-23T06:35:49.983Z</time>
      </trkpt>
      <trkpt lat="47.25644" lon="-2.23535">
        <ele>10</ele>
        <time>2021-05-23T06:35:50.982Z</time>
      </trkpt>
      <trkpt lat="47.25644" lon="-2.23538">
        <ele>11</ele>
        <time>2021-05-23T06:35:51.983Z</time>
      </trkpt>
      <trkpt lat="47.25644" lon="-2.23542">
        <ele>11</ele>
        <time>2021-05-23T06:35:52.983Z</time>
      </trkpt>
      <trkpt lat="47.25645" lon="-2.23545">
        <ele>11</ele>
        <time>2021-05-23T06:35:53.983Z</time>
      </trkpt>
      <trkpt lat="47.25645" lon="-2.23548">
        <ele>11</ele>
        <time>2021-05-23T06:35:54.983Z</time>
      </trkpt>
      <trkpt lat="47.25645" lon="-2.23551">
        <ele>11</ele>
        <time>2021-05-23T06:35:55.983Z</time>
      </trkpt>
      <trkpt lat="47.25646" lon="-2.23555">
        <ele>11</ele>
        <time>2021-05-23T06:35:56.983Z</time>
      </trkpt>
      <trkpt lat="47.25646" lon="-2.23558">
        <ele>11</ele>
        <time>2021-05-23T06:35:57.983Z</time>
      </trkpt>
      <trkpt lat="47.25647" lon="-2.23561">
        <ele>11</ele>
        <time>2021-05-23T06:35:58.982Z</time>
      </trkpt>
      <trkpt lat="47.25647" lon="-2.23565">
        <ele>11</ele>
        <time>2021-05-23T06:35:59.982Z</time>
      </trkpt>
      <trkpt lat="47.25648" lon="-2.23568">
        <ele>11</ele>
        <time>2021-05-23T06:36:00.983Z</time>
      </trkpt>
      <trkpt lat="47.25649" lon="-2.23571">
        <ele>10</ele>
        <time>2021-05-23T06:36:01.982Z</time>
      </trkpt>
      <trkpt lat="47.2565" lon="-2.23574">
        <ele>10</ele>
        <time>2021-05-23T06:36:02.982Z</time>
      </trkpt>
      <trkpt lat="47.25651" lon="-2.23577">
        <ele>9</ele>
        <time>2021-05-23T06:36:03.982Z</time>
      </trkpt>
      <trkpt lat="47.25653" lon="-2.2358">
        <ele>9</ele>
        <time>2021-05-23T06:36:04.982Z</time>
      </trkpt>
      <trkpt lat="47.25654" lon="-2.23583">
        <ele>9</ele>
        <time>2021-05-23T06:36:05.983Z</time>
      </trkpt>
      <trkpt lat="47.25655" lon="-2.23586">
        <ele>8</ele>
        <time>2021-05-23T06:36:06.983Z</time>
      </trkpt>
      <trkpt lat="47.25656" lon="-2.23589">
        <ele>8</ele>
        <time>2021-05-23T06:36:07.982Z</time>
      </trkpt>
      <trkpt lat="47.25657" lon="-2.23592">
        <ele>7</ele>
        <time>2021-05-23T06:36:08.982Z</time>
      </trkpt>
      <trkpt lat="47.25658" lon="-2.23595">
        <ele>7</ele>
        <time>2021-05-23T06:36:09.983Z</time>
      </trkpt>
      <trkpt lat="47.2566" lon="-2.23598">
        <ele>7</ele>
        <time>2021-05-23T06:36:10.983Z</time>
      </trkpt>
      <trkpt lat="47.25661" lon="-2.23602">
        <ele>7</ele>
        <time>2021-05-23T06:36:11.983Z</time>
      </trkpt>
      <trkpt lat="47.25661" lon="-2.23605">
        <ele>8</ele>
        <time>2021-05-23T06:36:12.982Z</time>
      </trkpt>
      <trkpt lat="47.25661" lon="-2.23609">
        <ele>8</ele>
        <time>2021-05-23T06:36:13.983Z</time>
      </trkpt>
      <trkpt lat="47.25661" lon="-2.23613">
        <ele>8</ele>
        <time>2021-05-23T06:36:14.983Z</time>
      </trkpt>
      <trkpt lat="47.25661" lon="-2.23616">
        <ele>8</ele>
        <time>2021-05-23T06:36:15.983Z</time>
      </trkpt>
      <trkpt lat="47.25661" lon="-2.2362">
        <ele>8</ele>
        <time>2021-05-23T06:36:16.983Z</time>
      </trkpt>
      <trkpt lat="47.25661" lon="-2.23624">
        <ele>9</ele>
        <time>2021-05-23T06:36:17.983Z</time>
      </trkpt>
      <trkpt lat="47.2566" lon="-2.23627">
        <ele>9</ele>
        <time>2021-05-23T06:36:18.982Z</time>
      </trkpt>
      <trkpt lat="47.2566" lon="-2.23631">
        <ele>9</ele>
        <time>2021-05-23T06:36:19.983Z</time>
      </trkpt>
      <trkpt lat="47.25659" lon="-2.23634">
        <ele>9</ele>
        <time>2021-05-23T06:36:20.983Z</time>
      </trkpt>
      <trkpt lat="47.25658" lon="-2.23637">
        <ele>9</ele>
        <time>2021-05-23T06:36:21.983Z</time>
      </trkpt>
      <trkpt lat="47.25657" lon="-2.23641">
        <ele>9</ele>
        <time>2021-05-23T06:36:22.983Z</time>
      </trkpt>
      <trkpt lat="47.25656" lon="-2.23644">
        <ele>9</ele>
        <time>2021-05-23T06:36:23.982Z</time>
      </trkpt>
      <trkpt lat="47.25655" lon="-2.23647">
        <ele>9</ele>
        <time>2021-05-23T06:36:24.983Z</time>
      </trkpt>
      <trkpt lat="47.25654" lon="-2.2365">
        <ele>9</ele>
        <time>2021-05-23T06:36:25.982Z</time>
      </trkpt>
      <trkpt lat="47.25653" lon="-2.23653">
        <ele>8</ele>
        <time>2021-05-23T06:36:26.982Z</time>
      </trkpt>
      <trkpt lat="47.25652" lon="-2.23656">
        <ele>8</ele>
        <time>2021-05-23T06:36:27.982Z</time>
      </trkpt>
      <trkpt lat="47.25652" lon="-2.2366">
        <ele>8</ele>
        <time>2021-05-23T06:36:28.982Z</time>
      </trkpt>
      <trkpt lat="47.25651" lon="-2.23663">
        <ele>8</ele>
        <time>2021-05-23T06:36:29.983Z</time>
      </trkpt>
      <trkpt lat="47.25651" lon="-2.23667">
        <ele>8</ele>
        <time>2021-05-23T06:36:30.983Z</time>
      </trkpt>
      <trkpt lat="47.25651" lon="-2.2367">
        <ele>8</ele>
        <time>2021-05-23T06:36:31.983Z</time>
      </trkpt>
      <trkpt lat="47.2565" lon="-2.23674">
        <ele>8</ele>
        <time>2021-05-23T06:36:32.983Z</time>
      </trkpt>
      <trkpt lat="47.2565" lon="-2.23677">
        <ele>7</ele>
        <time>2021-05-23T06:36:33.983Z</time>
      </trkpt>
      <trkpt lat="47.2565" lon="-2.2368">
        <ele>7</ele>
        <time>2021-05-23T06:36:34.982Z</time>
      </trkpt>
      <trkpt lat="47.2565" lon="-2.23684">
        <ele>7</ele>
        <time>2021-05-23T06:36:35.983Z</time>
      </trkpt>
      <trkpt lat="47.25651" lon="-2.23687">
        <ele>7</ele>
        <time>2021-05-23T06:36:36.982Z</time>
      </trkpt>
      <trkpt lat="47.25651" lon="-2.23691">
        <ele>7</ele>
        <time>2021-05-23T06:36:37.982Z</time>
      </trkpt>
      <trkpt lat="47.25651" lon="-2.23694">
        <ele>7</ele>
        <time>2021-05-23T06:36:38.983Z</time>
      </trkpt>
      <trkpt lat="47.25651" lon="-2.23698">
        <ele>8</ele>
        <time>2021-05-23T06:36:39.983Z</time>
      </trkpt>
      <trkpt lat="47.25651" lon="-2.23701">
        <ele>8</ele>
        <time>2021-05-23T06:36:40.982Z</time>
      </trkpt>
      <trkpt lat="47.25651" lon="-2.23705">
        <ele>9</ele>
        <time>2021-05-23T06:36:41.983Z</time>
      </trkpt>
      <trkpt lat="47.2565" lon="-2.23709">
        <ele>9</ele>
        <time>2021-05-23T06:36:42.983Z</time>
      </trkpt>
      <trkpt lat="47.2565" lon="-2.23712">
        <ele>9</ele>
        <time>2021-05-23T06:36:43.982Z</time>
      </trkpt>
      <trkpt lat="47.2565" lon="-2.23716">
        <ele>9</ele>
        <time>2021-05-23T06:36:44.983Z</time>
      </trkpt>
      <trkpt lat="47.25649" lon="-2.23718">
        <ele>10</ele>
        <time>2021-05-23T06:36:45.983Z</time>
      </trkpt>
      <trkpt lat="47.25648" lon="-2.23722">
        <ele>10</ele>
        <time>2021-05-23T06:36:46.983Z</time>
      </trkpt>
      <trkpt lat="47.25648" lon="-2.23727">
        <ele>10</ele>
        <time>2021-05-23T06:36:47.982Z</time>
      </trkpt>
      <trkpt lat="47.25648" lon="-2.2373">
        <ele>10</ele>
        <time>2021-05-23T06:36:48.983Z</time>
      </trkpt>
      <trkpt lat="47.25648" lon="-2.23733">
        <ele>10</ele>
        <time>2021-05-23T06:36:49.983Z</time>
      </trkpt>
      <trkpt lat="47.25648" lon="-2.23737">
        <ele>10</ele>
        <time>2021-05-23T06:36:50.982Z</time>
      </trkpt>
      <trkpt lat="47.25647" lon="-2.2374">
        <ele>11</ele>
        <time>2021-05-23T06:36:51.983Z</time>
      </trkpt>
      <trkpt lat="47.25647" lon="-2.23743">
        <ele>11</ele>
        <time>2021-05-23T06:36:52.983Z</time>
      </trkpt>
      <trkpt lat="47.25646" lon="-2.23747">
        <ele>11</ele>
        <time>2021-05-23T06:36:53.983Z</time>
      </trkpt>
      <trkpt lat="47.25646" lon="-2.2375">
        <ele>11</ele>
        <time>2021-05-23T06:36:54.982Z</time>
      </trkpt>
      <trkpt lat="47.25646" lon="-2.23754">
        <ele>12</ele>
        <time>2021-05-23T06:36:55.983Z</time>
      </trkpt>
      <trkpt lat="47.25646" lon="-2.23758">
        <ele>12</ele>
        <time>2021-05-23T06:36:56.983Z</time>
      </trkpt>
      <trkpt lat="47.25646" lon="-2.23761">
        <ele>12</ele>
        <time>2021-05-23T06:36:57.983Z</time>
      </trkpt>
      <trkpt lat="47.25646" lon="-2.23765">
        <ele>12</ele>
        <time>2021-05-23T06:36:58.983Z</time>
      </trkpt>
      <trkpt lat="47.25646" lon="-2.23769">
        <ele>12</ele>
        <time>2021-05-23T06:36:59.982Z</time>
      </trkpt>
      <trkpt lat="47.25646" lon="-2.23772">
        <ele>12</ele>
        <time>2021-05-23T06:37:00.983Z</time>
      </trkpt>
      <trkpt lat="47.25646" lon="-2.23775">
        <ele>12</ele>
        <time>2021-05-23T06:37:01.983Z</time>
      </trkpt>
      <trkpt lat="47.25645" lon="-2.23779">
        <ele>12</ele>
        <time>2021-05-23T06:37:02.983Z</time>
      </trkpt>
      <trkpt lat="47.25645" lon="-2.23782">
        <ele>12</ele>
        <time>2021-05-23T06:37:03.983Z</time>
      </trkpt>
      <trkpt lat="47.25645" lon="-2.23785">
        <ele>12</ele>
        <time>2021-05-23T06:37:04.983Z</time>
      </trkpt>
      <trkpt lat="47.25645" lon="-2.23789">
        <ele>12</ele>
        <time>2021-05-23T06:37:05.982Z</time>
      </trkpt>
      <trkpt lat="47.25644" lon="-2.23792">
        <ele>12</ele>
        <time>2021-05-23T06:37:06.983Z</time>
      </trkpt>
      <trkpt lat="47.25644" lon="-2.23796">
        <ele>12</ele>
        <time>2021-05-23T06:37:07.982Z</time>
      </trkpt>
      <trkpt lat="47.25644" lon="-2.23799">
        <ele>12</ele>
        <time>2021-05-23T06:37:08.983Z</time>
      </trkpt>
      <trkpt lat="47.25643" lon="-2.23802">
        <ele>12</ele>
        <time>2021-05-23T06:37:09.982Z</time>
      </trkpt>
      <trkpt lat="47.25643" lon="-2.23806">
        <ele>12</ele>
        <time>2021-05-23T06:37:10.983Z</time>
      </trkpt>
      <trkpt lat="47.25643" lon="-2.23809">
        <ele>12</ele>
        <time>2021-05-23T06:37:11.982Z</time>
      </trkpt>
      <trkpt lat="47.25643" lon="-2.23812">
        <ele>12</ele>
        <time>2021-05-23T06:37:12.982Z</time>
      </trkpt>
      <trkpt lat="47.25642" lon="-2.23815">
        <ele>12</ele>
        <time>2021-05-23T06:37:13.982Z</time>
      </trkpt>
      <trkpt lat="47.25642" lon="-2.23819">
        <ele>13</ele>
        <time>2021-05-23T06:37:14.982Z</time>
      </trkpt>
      <trkpt lat="47.25642" lon="-2.23822">
        <ele>13</ele>
        <time>2021-05-23T06:37:15.982Z</time>
      </trkpt>
      <trkpt lat="47.25643" lon="-2.23825">
        <ele>13</ele>
        <time>2021-05-23T06:37:16.983Z</time>
      </trkpt>
      <trkpt lat="47.25644" lon="-2.23828">
        <ele>13</ele>
        <time>2021-05-23T06:37:17.982Z</time>
      </trkpt>
      <trkpt lat="47.25645" lon="-2.23832">
        <ele>13</ele>
        <time>2021-05-23T06:37:18.983Z</time>
      </trkpt>
      <trkpt lat="47.25646" lon="-2.23835">
        <ele>12</ele>
        <time>2021-05-23T06:37:19.983Z</time>
      </trkpt>
      <trkpt lat="47.25646" lon="-2.23838">
        <ele>12</ele>
        <time>2021-05-23T06:37:20.982Z</time>
      </trkpt>
      <trkpt lat="47.25647" lon="-2.2384">
        <ele>12</ele>
        <time>2021-05-23T06:37:21.983Z</time>
      </trkpt>
      <trkpt lat="47.25647" lon="-2.23843">
        <ele>12</ele>
        <time>2021-05-23T06:37:22.982Z</time>
      </trkpt>
      <trkpt lat="47.25648" lon="-2.23847">
        <ele>11</ele>
        <time>2021-05-23T06:37:23.982Z</time>
      </trkpt>
      <trkpt lat="47.25648" lon="-2.23851">
        <ele>11</ele>
        <time>2021-05-23T06:37:24.982Z</time>
      </trkpt>
      <trkpt lat="47.25649" lon="-2.23855">
        <ele>11</ele>
        <time>2021-05-23T06:37:25.982Z</time>
      </trkpt>
      <trkpt lat="47.2565" lon="-2.23858">
        <ele>11</ele>
        <time>2021-05-23T06:37:26.983Z</time>
      </trkpt>
      <trkpt lat="47.25651" lon="-2.23861">
        <ele>11</ele>
        <time>2021-05-23T06:37:27.982Z</time>
      </trkpt>
      <trkpt lat="47.25651" lon="-2.23864">
        <ele>11</ele>
        <time>2021-05-23T06:37:28.982Z</time>
      </trkpt>
      <trkpt lat="47.25651" lon="-2.23867">
        <ele>12</ele>
        <time>2021-05-23T06:37:29.982Z</time>
      </trkpt>
      <trkpt lat="47.2565" lon="-2.2387">
        <ele>12</ele>
        <time>2021-05-23T06:37:30.982Z</time>
      </trkpt>
      <trkpt lat="47.2565" lon="-2.23873">
        <ele>12</ele>
        <time>2021-05-23T06:37:31.982Z</time>
      </trkpt>
      <trkpt lat="47.25649" lon="-2.23877">
        <ele>13</ele>
        <time>2021-05-23T06:37:32.982Z</time>
      </trkpt>
      <trkpt lat="47.25649" lon="-2.2388">
        <ele>14</ele>
        <time>2021-05-23T06:37:33.982Z</time>
      </trkpt>
      <trkpt lat="47.25649" lon="-2.23884">
        <ele>14</ele>
        <time>2021-05-23T06:37:34.982Z</time>
      </trkpt>
      <trkpt lat="47.25648" lon="-2.23886">
        <ele>14</ele>
        <time>2021-05-23T06:37:35.982Z</time>
      </trkpt>
      <trkpt lat="47.25648" lon="-2.23891">
        <ele>14</ele>
        <time>2021-05-23T06:37:36.982Z</time>
      </trkpt>
      <trkpt lat="47.25647" lon="-2.23894">
        <ele>14</ele>
        <time>2021-05-23T06:37:37.982Z</time>
      </trkpt>
      <trkpt lat="47.25646" lon="-2.23898">
        <ele>15</ele>
        <time>2021-05-23T06:37:38.982Z</time>
      </trkpt>
      <trkpt lat="47.25646" lon="-2.23902">
        <ele>15</ele>
        <time>2021-05-23T06:37:39.982Z</time>
      </trkpt>
      <trkpt lat="47.25645" lon="-2.23905">
        <ele>15</ele>
        <time>2021-05-23T06:37:40.983Z</time>
      </trkpt>
      <trkpt lat="47.25645" lon="-2.23908">
        <ele>15</ele>
        <time>2021-05-23T06:37:41.982Z</time>
      </trkpt>
      <trkpt lat="47.25645" lon="-2.23911">
        <ele>15</ele>
        <time>2021-05-23T06:37:42.983Z</time>
      </trkpt>
      <trkpt lat="47.25645" lon="-2.23914">
        <ele>15</ele>
        <time>2021-05-23T06:37:43.983Z</time>
      </trkpt>
      <trkpt lat="47.25646" lon="-2.23918">
        <ele>16</ele>
        <time>2021-05-23T06:37:44.983Z</time>
      </trkpt>
      <trkpt lat="47.25646" lon="-2.23921">
        <ele>16</ele>
        <time>2021-05-23T06:37:45.983Z</time>
      </trkpt>
      <trkpt lat="47.25647" lon="-2.23925">
        <ele>16</ele>
        <time>2021-05-23T06:37:46.983Z</time>
      </trkpt>
      <trkpt lat="47.25647" lon="-2.23929">
        <ele>15</ele>
        <time>2021-05-23T06:37:47.983Z</time>
      </trkpt>
      <trkpt lat="47.25647" lon="-2.23932">
        <ele>15</ele>
        <time>2021-05-23T06:37:48.983Z</time>
      </trkpt>
      <trkpt lat="47.25647" lon="-2.23936">
        <ele>14</ele>
        <time>2021-05-23T06:37:49.983Z</time>
      </trkpt>
      <trkpt lat="47.25647" lon="-2.23939">
        <ele>13</ele>
        <time>2021-05-23T06:37:50.983Z</time>
      </trkpt>
      <trkpt lat="47.25646" lon="-2.23943">
        <ele>13</ele>
        <time>2021-05-23T06:37:51.983Z</time>
      </trkpt>
      <trkpt lat="47.25645" lon="-2.23946">
        <ele>12</ele>
        <time>2021-05-23T06:37:52.983Z</time>
      </trkpt>
      <trkpt lat="47.25644" lon="-2.23949">
        <ele>12</ele>
        <time>2021-05-23T06:37:53.982Z</time>
      </trkpt>
      <trkpt lat="47.25643" lon="-2.23952">
        <ele>12</ele>
        <time>2021-05-23T06:37:54.982Z</time>
      </trkpt>
      <trkpt lat="47.25643" lon="-2.23955">
        <ele>12</ele>
        <time>2021-05-23T06:37:55.982Z</time>
      </trkpt>
      <trkpt lat="47.25642" lon="-2.23958">
        <ele>12</ele>
        <time>2021-05-23T06:37:56.983Z</time>
      </trkpt>
      <trkpt lat="47.25642" lon="-2.23961">
        <ele>12</ele>
        <time>2021-05-23T06:37:57.983Z</time>
      </trkpt>
      <trkpt lat="47.25641" lon="-2.23964">
        <ele>12</ele>
        <time>2021-05-23T06:37:58.982Z</time>
      </trkpt>
      <trkpt lat="47.2564" lon="-2.23967">
        <ele>12</ele>
        <time>2021-05-23T06:37:59.983Z</time>
      </trkpt>
      <trkpt lat="47.25639" lon="-2.2397">
        <ele>12</ele>
        <time>2021-05-23T06:38:00.982Z</time>
      </trkpt>
      <trkpt lat="47.25639" lon="-2.23974">
        <ele>12</ele>
        <time>2021-05-23T06:38:01.983Z</time>
      </trkpt>
      <trkpt lat="47.25638" lon="-2.23976">
        <ele>12</ele>
        <time>2021-05-23T06:38:02.983Z</time>
      </trkpt>
      <trkpt lat="47.25636" lon="-2.23978">
        <ele>12</ele>
        <time>2021-05-23T06:38:03.982Z</time>
      </trkpt>
      <trkpt lat="47.25635" lon="-2.23981">
        <ele>13</ele>
        <time>2021-05-23T06:38:04.983Z</time>
      </trkpt>
      <trkpt lat="47.25634" lon="-2.23984">
        <ele>13</ele>
        <time>2021-05-23T06:38:05.982Z</time>
      </trkpt>
      <trkpt lat="47.25632" lon="-2.23986">
        <ele>14</ele>
        <time>2021-05-23T06:38:06.983Z</time>
      </trkpt>
      <trkpt lat="47.25631" lon="-2.23989">
        <ele>14</ele>
        <time>2021-05-23T06:38:07.982Z</time>
      </trkpt>
      <trkpt lat="47.2563" lon="-2.23993">
        <ele>14</ele>
        <time>2021-05-23T06:38:08.982Z</time>
      </trkpt>
      <trkpt lat="47.25629" lon="-2.23995">
        <ele>14</ele>
        <time>2021-05-23T06:38:09.983Z</time>
      </trkpt>
      <trkpt lat="47.25628" lon="-2.23998">
        <ele>14</ele>
        <time>2021-05-23T06:38:10.982Z</time>
      </trkpt>
      <trkpt lat="47.25627" lon="-2.24001">
        <ele>14</ele>
        <time>2021-05-23T06:38:11.982Z</time>
      </trkpt>
      <trkpt lat="47.25626" lon="-2.24003">
        <ele>14</ele>
        <time>2021-05-23T06:38:12.982Z</time>
      </trkpt>
      <trkpt lat="47.25625" lon="-2.24006">
        <ele>14</ele>
        <time>2021-05-23T06:38:13.983Z</time>
      </trkpt>
      <trkpt lat="47.25623" lon="-2.24009">
        <ele>14</ele>
        <time>2021-05-23T06:38:14.982Z</time>
      </trkpt>
      <trkpt lat="47.25622" lon="-2.24012">
        <ele>13</ele>
        <time>2021-05-23T06:38:15.982Z</time>
      </trkpt>
      <trkpt lat="47.25621" lon="-2.24015">
        <ele>13</ele>
        <time>2021-05-23T06:38:16.983Z</time>
      </trkpt>
      <trkpt lat="47.25621" lon="-2.24018">
        <ele>12</ele>
        <time>2021-05-23T06:38:17.982Z</time>
      </trkpt>
      <trkpt lat="47.25622" lon="-2.24021">
        <ele>12</ele>
        <time>2021-05-23T06:38:18.983Z</time>
      </trkpt>
      <trkpt lat="47.25623" lon="-2.24025">
        <ele>13</ele>
        <time>2021-05-23T06:38:19.983Z</time>
      </trkpt>
      <trkpt lat="47.25624" lon="-2.24028">
        <ele>13</ele>
        <time>2021-05-23T06:38:20.982Z</time>
      </trkpt>
      <trkpt lat="47.25625" lon="-2.2403">
        <ele>13</ele>
        <time>2021-05-23T06:38:21.983Z</time>
      </trkpt>
      <trkpt lat="47.25626" lon="-2.24033">
        <ele>13</ele>
        <time>2021-05-23T06:38:22.982Z</time>
      </trkpt>
      <trkpt lat="47.25627" lon="-2.24035">
        <ele>14</ele>
        <time>2021-05-23T06:38:23.983Z</time>
      </trkpt>
      <trkpt lat="47.25629" lon="-2.24037">
        <ele>14</ele>
        <time>2021-05-23T06:38:24.983Z</time>
      </trkpt>
      <trkpt lat="47.25631" lon="-2.24039">
        <ele>14</ele>
        <time>2021-05-23T06:38:25.983Z</time>
      </trkpt>
      <trkpt lat="47.25634" lon="-2.24041">
        <ele>14</ele>
        <time>2021-05-23T06:38:26.982Z</time>
      </trkpt>
      <trkpt lat="47.25637" lon="-2.24042">
        <ele>15</ele>
        <time>2021-05-23T06:38:27.982Z</time>
      </trkpt>
      <trkpt lat="47.25639" lon="-2.24043">
        <ele>15</ele>
        <time>2021-05-23T06:38:28.982Z</time>
      </trkpt>
      <trkpt lat="47.25641" lon="-2.24045">
        <ele>15</ele>
        <time>2021-05-23T06:38:29.982Z</time>
      </trkpt>
      <trkpt lat="47.25643" lon="-2.24047">
        <ele>15</ele>
        <time>2021-05-23T06:38:30.983Z</time>
      </trkpt>
      <trkpt lat="47.25644" lon="-2.2405">
        <ele>15</ele>
        <time>2021-05-23T06:38:31.983Z</time>
      </trkpt>
      <trkpt lat="47.25645" lon="-2.24053">
        <ele>15</ele>
        <time>2021-05-23T06:38:32.983Z</time>
      </trkpt>
      <trkpt lat="47.25646" lon="-2.24056">
        <ele>15</ele>
        <time>2021-05-23T06:38:33.983Z</time>
      </trkpt>
      <trkpt lat="47.25646" lon="-2.24059">
        <ele>15</ele>
        <time>2021-05-23T06:38:34.983Z</time>
      </trkpt>
      <trkpt lat="47.25646" lon="-2.24062">
        <ele>14</ele>
        <time>2021-05-23T06:38:35.983Z</time>
      </trkpt>
      <trkpt lat="47.25647" lon="-2.24065">
        <ele>14</ele>
        <time>2021-05-23T06:38:36.983Z</time>
      </trkpt>
      <trkpt lat="47.25647" lon="-2.24068">
        <ele>14</ele>
        <time>2021-05-23T06:38:37.983Z</time>
      </trkpt>
      <trkpt lat="47.25647" lon="-2.24071">
        <ele>13</ele>
        <time>2021-05-23T06:38:38.983Z</time>
      </trkpt>
      <trkpt lat="47.25646" lon="-2.24074">
        <ele>13</ele>
        <time>2021-05-23T06:38:39.983Z</time>
      </trkpt>
      <trkpt lat="47.25646" lon="-2.24077">
        <ele>13</ele>
        <time>2021-05-23T06:38:40.982Z</time>
      </trkpt>
      <trkpt lat="47.25645" lon="-2.2408">
        <ele>14</ele>
        <time>2021-05-23T06:38:41.983Z</time>
      </trkpt>
      <trkpt lat="47.25645" lon="-2.24083">
        <ele>14</ele>
        <time>2021-05-23T06:38:42.983Z</time>
      </trkpt>
      <trkpt lat="47.25644" lon="-2.24086">
        <ele>13</ele>
        <time>2021-05-23T06:38:43.983Z</time>
      </trkpt>
      <trkpt lat="47.25643" lon="-2.24089">
        <ele>13</ele>
        <time>2021-05-23T06:38:44.982Z</time>
      </trkpt>
      <trkpt lat="47.25643" lon="-2.24092">
        <ele>13</ele>
        <time>2021-05-23T06:38:45.982Z</time>
      </trkpt>
      <trkpt lat="47.25642" lon="-2.24096">
        <ele>13</ele>
        <time>2021-05-23T06:38:46.983Z</time>
      </trkpt>
      <trkpt lat="47.25641" lon="-2.24098">
        <ele>13</ele>
        <time>2021-05-23T06:38:47.983Z</time>
      </trkpt>
      <trkpt lat="47.25639" lon="-2.24102">
        <ele>13</ele>
        <time>2021-05-23T06:38:48.982Z</time>
      </trkpt>
      <trkpt lat="47.25637" lon="-2.24106">
        <ele>13</ele>
        <time>2021-05-23T06:38:49.982Z</time>
      </trkpt>
      <trkpt lat="47.25636" lon="-2.2411">
        <ele>13</ele>
        <time>2021-05-23T06:38:50.983Z</time>
      </trkpt>
      <trkpt lat="47.25635" lon="-2.24113">
        <ele>13</ele>
        <time>2021-05-23T06:38:51.983Z</time>
      </trkpt>
      <trkpt lat="47.25634" lon="-2.24117">
        <ele>14</ele>
        <time>2021-05-23T06:38:52.983Z</time>
      </trkpt>
      <trkpt lat="47.25634" lon="-2.2412">
        <ele>14</ele>
        <time>2021-05-23T06:38:53.983Z</time>
      </trkpt>
      <trkpt lat="47.25634" lon="-2.24124">
        <ele>13</ele>
        <time>2021-05-23T06:38:54.983Z</time>
      </trkpt>
      <trkpt lat="47.25634" lon="-2.24127">
        <ele>13</ele>
        <time>2021-05-23T06:38:55.983Z</time>
      </trkpt>
      <trkpt lat="47.25634" lon="-2.24131">
        <ele>13</ele>
        <time>2021-05-23T06:38:56.983Z</time>
      </trkpt>
      <trkpt lat="47.25634" lon="-2.24134">
        <ele>12</ele>
        <time>2021-05-23T06:38:57.982Z</time>
      </trkpt>
      <trkpt lat="47.25634" lon="-2.24138">
        <ele>12</ele>
        <time>2021-05-23T06:38:58.983Z</time>
      </trkpt>
      <trkpt lat="47.25633" lon="-2.24142">
        <ele>12</ele>
        <time>2021-05-23T06:38:59.982Z</time>
      </trkpt>
      <trkpt lat="47.25632" lon="-2.24146">
        <ele>12</ele>
        <time>2021-05-23T06:39:00.983Z</time>
      </trkpt>
      <trkpt lat="47.25631" lon="-2.2415">
        <ele>13</ele>
        <time>2021-05-23T06:39:01.983Z</time>
      </trkpt>
      <trkpt lat="47.25631" lon="-2.24154">
        <ele>13</ele>
        <time>2021-05-23T06:39:02.982Z</time>
      </trkpt>
      <trkpt lat="47.25631" lon="-2.24157">
        <ele>13</ele>
        <time>2021-05-23T06:39:03.983Z</time>
      </trkpt>
      <trkpt lat="47.25631" lon="-2.2416">
        <ele>14</ele>
        <time>2021-05-23T06:39:04.983Z</time>
      </trkpt>
      <trkpt lat="47.25631" lon="-2.24163">
        <ele>14</ele>
        <time>2021-05-23T06:39:05.983Z</time>
      </trkpt>
      <trkpt lat="47.25631" lon="-2.24166">
        <ele>15</ele>
        <time>2021-05-23T06:39:06.983Z</time>
      </trkpt>
      <trkpt lat="47.25631" lon="-2.24169">
        <ele>15</ele>
        <time>2021-05-23T06:39:07.983Z</time>
      </trkpt>
      <trkpt lat="47.25631" lon="-2.24172">
        <ele>15</ele>
        <time>2021-05-23T06:39:08.983Z</time>
      </trkpt>
      <trkpt lat="47.2563" lon="-2.24175">
        <ele>16</ele>
        <time>2021-05-23T06:39:09.983Z</time>
      </trkpt>
      <trkpt lat="47.2563" lon="-2.24177">
        <ele>16</ele>
        <time>2021-05-23T06:39:10.982Z</time>
      </trkpt>
      <trkpt lat="47.25629" lon="-2.2418">
        <ele>16</ele>
        <time>2021-05-23T06:39:11.983Z</time>
      </trkpt>
      <trkpt lat="47.25629" lon="-2.24183">
        <ele>16</ele>
        <time>2021-05-23T06:39:12.983Z</time>
      </trkpt>
      <trkpt lat="47.25629" lon="-2.24186">
        <ele>16</ele>
        <time>2021-05-23T06:39:13.983Z</time>
      </trkpt>
      <trkpt lat="47.25628" lon="-2.24188">
        <ele>16</ele>
        <time>2021-05-23T06:39:14.983Z</time>
      </trkpt>
      <trkpt lat="47.25628" lon="-2.24192">
        <ele>16</ele>
        <time>2021-05-23T06:39:15.983Z</time>
      </trkpt>
      <trkpt lat="47.25626" lon="-2.24195">
        <ele>16</ele>
        <time>2021-05-23T06:39:16.982Z</time>
      </trkpt>
      <trkpt lat="47.25624" lon="-2.24198">
        <ele>16</ele>
        <time>2021-05-23T06:39:17.983Z</time>
      </trkpt>
      <trkpt lat="47.25622" lon="-2.24201">
        <ele>16</ele>
        <time>2021-05-23T06:39:18.983Z</time>
      </trkpt>
      <trkpt lat="47.25621" lon="-2.24204">
        <ele>16</ele>
        <time>2021-05-23T06:39:19.983Z</time>
      </trkpt>
      <trkpt lat="47.25621" lon="-2.24208">
        <ele>16</ele>
        <time>2021-05-23T06:39:20.983Z</time>
      </trkpt>
      <trkpt lat="47.2562" lon="-2.24211">
        <ele>17</ele>
        <time>2021-05-23T06:39:21.983Z</time>
      </trkpt>
      <trkpt lat="47.25619" lon="-2.24215">
        <ele>17</ele>
        <time>2021-05-23T06:39:22.983Z</time>
      </trkpt>
      <trkpt lat="47.25618" lon="-2.24218">
        <ele>17</ele>
        <time>2021-05-23T06:39:23.982Z</time>
      </trkpt>
      <trkpt lat="47.25617" lon="-2.24221">
        <ele>17</ele>
        <time>2021-05-23T06:39:24.982Z</time>
      </trkpt>
      <trkpt lat="47.25616" lon="-2.24225">
        <ele>17</ele>
        <time>2021-05-23T06:39:25.983Z</time>
      </trkpt>
      <trkpt lat="47.25617" lon="-2.24228">
        <ele>17</ele>
        <time>2021-05-23T06:39:26.983Z</time>
      </trkpt>
      <trkpt lat="47.25617" lon="-2.24232">
        <ele>17</ele>
        <time>2021-05-23T06:39:27.983Z</time>
      </trkpt>
      <trkpt lat="47.25617" lon="-2.24235">
        <ele>17</ele>
        <time>2021-05-23T06:39:28.983Z</time>
      </trkpt>
      <trkpt lat="47.25618" lon="-2.24239">
        <ele>17</ele>
        <time>2021-05-23T06:39:29.983Z</time>
      </trkpt>
      <trkpt lat="47.25619" lon="-2.24242">
        <ele>17</ele>
        <time>2021-05-23T06:39:30.982Z</time>
      </trkpt>
      <trkpt lat="47.25619" lon="-2.24246">
        <ele>17</ele>
        <time>2021-05-23T06:39:31.983Z</time>
      </trkpt>
      <trkpt lat="47.25619" lon="-2.24249">
        <ele>17</ele>
        <time>2021-05-23T06:39:32.983Z</time>
      </trkpt>
      <trkpt lat="47.25619" lon="-2.24253">
        <ele>16</ele>
        <time>2021-05-23T06:39:33.983Z</time>
      </trkpt>
      <trkpt lat="47.25619" lon="-2.24256">
        <ele>16</ele>
        <time>2021-05-23T06:39:34.982Z</time>
      </trkpt>
      <trkpt lat="47.25619" lon="-2.24259">
        <ele>16</ele>
        <time>2021-05-23T06:39:35.983Z</time>
      </trkpt>
      <trkpt lat="47.25618" lon="-2.24262">
        <ele>17</ele>
        <time>2021-05-23T06:39:36.983Z</time>
      </trkpt>
      <trkpt lat="47.25618" lon="-2.24266">
        <ele>17</ele>
        <time>2021-05-23T06:39:37.983Z</time>
      </trkpt>
      <trkpt lat="47.25618" lon="-2.24269">
        <ele>17</ele>
        <time>2021-05-23T06:39:38.983Z</time>
      </trkpt>
      <trkpt lat="47.25617" lon="-2.24272">
        <ele>17</ele>
        <time>2021-05-23T06:39:39.983Z</time>
      </trkpt>
      <trkpt lat="47.25617" lon="-2.24276">
        <ele>17</ele>
        <time>2021-05-23T06:39:40.982Z</time>
      </trkpt>
      <trkpt lat="47.25617" lon="-2.24279">
        <ele>17</ele>
        <time>2021-05-23T06:39:41.982Z</time>
      </trkpt>
      <trkpt lat="47.25616" lon="-2.24282">
        <ele>17</ele>
        <time>2021-05-23T06:39:42.983Z</time>
      </trkpt>
      <trkpt lat="47.25616" lon="-2.24285">
        <ele>18</ele>
        <time>2021-05-23T06:39:43.983Z</time>
      </trkpt>
      <trkpt lat="47.25615" lon="-2.24289">
        <ele>18</ele>
        <time>2021-05-23T06:39:44.982Z</time>
      </trkpt>
      <trkpt lat="47.25615" lon="-2.24292">
        <ele>18</ele>
        <time>2021-05-23T06:39:45.982Z</time>
      </trkpt>
      <trkpt lat="47.25614" lon="-2.24295">
        <ele>18</ele>
        <time>2021-05-23T06:39:46.983Z</time>
      </trkpt>
      <trkpt lat="47.25614" lon="-2.24299">
        <ele>19</ele>
        <time>2021-05-23T06:39:47.982Z</time>
      </trkpt>
      <trkpt lat="47.25613" lon="-2.24302">
        <ele>18</ele>
        <time>2021-05-23T06:39:48.982Z</time>
      </trkpt>
      <trkpt lat="47.25614" lon="-2.24306">
        <ele>19</ele>
        <time>2021-05-23T06:39:49.982Z</time>
      </trkpt>
      <trkpt lat="47.25614" lon="-2.2431">
        <ele>18</ele>
        <time>2021-05-23T06:39:50.982Z</time>
      </trkpt>
      <trkpt lat="47.25615" lon="-2.24313">
        <ele>18</ele>
        <time>2021-05-23T06:39:51.983Z</time>
      </trkpt>
      <trkpt lat="47.25616" lon="-2.24317">
        <ele>18</ele>
        <time>2021-05-23T06:39:52.983Z</time>
      </trkpt>
      <trkpt lat="47.25617" lon="-2.24321">
        <ele>18</ele>
        <time>2021-05-23T06:39:53.982Z</time>
      </trkpt>
      <trkpt lat="47.25617" lon="-2.24324">
        <ele>17</ele>
        <time>2021-05-23T06:39:54.983Z</time>
      </trkpt>
      <trkpt lat="47.25618" lon="-2.24328">
        <ele>17</ele>
        <time>2021-05-23T06:39:55.983Z</time>
      </trkpt>
      <trkpt lat="47.25618" lon="-2.24332">
        <ele>17</ele>
        <time>2021-05-23T06:39:56.983Z</time>
      </trkpt>
      <trkpt lat="47.25619" lon="-2.24336">
        <ele>17</ele>
        <time>2021-05-23T06:39:57.983Z</time>
      </trkpt>
      <trkpt lat="47.25619" lon="-2.24339">
        <ele>17</ele>
        <time>2021-05-23T06:39:58.983Z</time>
      </trkpt>
      <trkpt lat="47.25619" lon="-2.24343">
        <ele>17</ele>
        <time>2021-05-23T06:39:59.982Z</time>
      </trkpt>
      <trkpt lat="47.25619" lon="-2.24346">
        <ele>17</ele>
        <time>2021-05-23T06:40:00.983Z</time>
      </trkpt>
      <trkpt lat="47.25619" lon="-2.24349">
        <ele>17</ele>
        <time>2021-05-23T06:40:01.982Z</time>
      </trkpt>
      <trkpt lat="47.25619" lon="-2.24352">
        <ele>17</ele>
        <time>2021-05-23T06:40:02.983Z</time>
      </trkpt>
      <trkpt lat="47.25619" lon="-2.24356">
        <ele>16</ele>
        <time>2021-05-23T06:40:03.983Z</time>
      </trkpt>
      <trkpt lat="47.25618" lon="-2.2436">
        <ele>15</ele>
        <time>2021-05-23T06:40:04.983Z</time>
      </trkpt>
      <trkpt lat="47.25617" lon="-2.24364">
        <ele>14</ele>
        <time>2021-05-23T06:40:05.982Z</time>
      </trkpt>
      <trkpt lat="47.25617" lon="-2.24368">
        <ele>14</ele>
        <time>2021-05-23T06:40:06.983Z</time>
      </trkpt>
      <trkpt lat="47.25618" lon="-2.24372">
        <ele>14</ele>
        <time>2021-05-23T06:40:07.982Z</time>
      </trkpt>
      <trkpt lat="47.25618" lon="-2.24375">
        <ele>13</ele>
        <time>2021-05-23T06:40:08.983Z</time>
      </trkpt>
      <trkpt lat="47.25618" lon="-2.24378">
        <ele>13</ele>
        <time>2021-05-23T06:40:09.983Z</time>
      </trkpt>
      <trkpt lat="47.25617" lon="-2.24383">
        <ele>13</ele>
        <time>2021-05-23T06:40:10.983Z</time>
      </trkpt>
      <trkpt lat="47.25616" lon="-2.24386">
        <ele>12</ele>
        <time>2021-05-23T06:40:11.983Z</time>
      </trkpt>
      <trkpt lat="47.25615" lon="-2.24389">
        <ele>12</ele>
        <time>2021-05-23T06:40:12.982Z</time>
      </trkpt>
      <trkpt lat="47.25613" lon="-2.24392">
        <ele>12</ele>
        <time>2021-05-23T06:40:13.982Z</time>
      </trkpt>
      <trkpt lat="47.25611" lon="-2.24394">
        <ele>12</ele>
        <time>2021-05-23T06:40:14.982Z</time>
      </trkpt>
      <trkpt lat="47.2561" lon="-2.24397">
        <ele>12</ele>
        <time>2021-05-23T06:40:15.982Z</time>
      </trkpt>
      <trkpt lat="47.25608" lon="-2.24399">
        <ele>12</ele>
        <time>2021-05-23T06:40:16.983Z</time>
      </trkpt>
      <trkpt lat="47.25607" lon="-2.24403">
        <ele>12</ele>
        <time>2021-05-23T06:40:17.983Z</time>
      </trkpt>
      <trkpt lat="47.25607" lon="-2.24406">
        <ele>13</ele>
        <time>2021-05-23T06:40:18.982Z</time>
      </trkpt>
      <trkpt lat="47.25607" lon="-2.2441">
        <ele>13</ele>
        <time>2021-05-23T06:40:19.983Z</time>
      </trkpt>
      <trkpt lat="47.25608" lon="-2.24413">
        <ele>13</ele>
        <time>2021-05-23T06:40:20.983Z</time>
      </trkpt>
      <trkpt lat="47.25608" lon="-2.24416">
        <ele>13</ele>
        <time>2021-05-23T06:40:21.982Z</time>
      </trkpt>
      <trkpt lat="47.25609" lon="-2.24419">
        <ele>13</ele>
        <time>2021-05-23T06:40:22.983Z</time>
      </trkpt>
      <trkpt lat="47.25609" lon="-2.24422">
        <ele>13</ele>
        <time>2021-05-23T06:40:23.983Z</time>
      </trkpt>
      <trkpt lat="47.25609" lon="-2.24425">
        <ele>13</ele>
        <time>2021-05-23T06:40:24.982Z</time>
      </trkpt>
      <trkpt lat="47.2561" lon="-2.24428">
        <ele>13</ele>
        <time>2021-05-23T06:40:25.983Z</time>
      </trkpt>
      <trkpt lat="47.2561" lon="-2.24432">
        <ele>13</ele>
        <time>2021-05-23T06:40:26.983Z</time>
      </trkpt>
      <trkpt lat="47.2561" lon="-2.24435">
        <ele>12</ele>
        <time>2021-05-23T06:40:27.982Z</time>
      </trkpt>
      <trkpt lat="47.25611" lon="-2.24438">
        <ele>12</ele>
        <time>2021-05-23T06:40:28.983Z</time>
      </trkpt>
      <trkpt lat="47.25611" lon="-2.24441">
        <ele>12</ele>
        <time>2021-05-23T06:40:29.983Z</time>
      </trkpt>
      <trkpt lat="47.25611" lon="-2.24444">
        <ele>11</ele>
        <time>2021-05-23T06:40:30.982Z</time>
      </trkpt>
      <trkpt lat="47.25611" lon="-2.24447">
        <ele>11</ele>
        <time>2021-05-23T06:40:31.982Z</time>
      </trkpt>
      <trkpt lat="47.25611" lon="-2.2445">
        <ele>11</ele>
        <time>2021-05-23T06:40:32.982Z</time>
      </trkpt>
      <trkpt lat="47.25611" lon="-2.24454">
        <ele>11</ele>
        <time>2021-05-23T06:40:33.983Z</time>
      </trkpt>
      <trkpt lat="47.25612" lon="-2.24456">
        <ele>11</ele>
        <time>2021-05-23T06:40:34.983Z</time>
      </trkpt>
      <trkpt lat="47.25613" lon="-2.24459">
        <ele>11</ele>
        <time>2021-05-23T06:40:35.983Z</time>
      </trkpt>
      <trkpt lat="47.25614" lon="-2.24461">
        <ele>11</ele>
        <time>2021-05-23T06:40:36.983Z</time>
      </trkpt>
      <trkpt lat="47.25615" lon="-2.24464">
        <ele>11</ele>
        <time>2021-05-23T06:40:37.983Z</time>
      </trkpt>
      <trkpt lat="47.25615" lon="-2.24467">
        <ele>11</ele>
        <time>2021-05-23T06:40:38.983Z</time>
      </trkpt>
      <trkpt lat="47.25615" lon="-2.2447">
        <ele>11</ele>
        <time>2021-05-23T06:40:39.983Z</time>
      </trkpt>
      <trkpt lat="47.25616" lon="-2.24473">
        <ele>12</ele>
        <time>2021-05-23T06:40:40.983Z</time>
      </trkpt>
      <trkpt lat="47.25616" lon="-2.24476">
        <ele>12</ele>
        <time>2021-05-23T06:40:41.983Z</time>
      </trkpt>
      <trkpt lat="47.25617" lon="-2.24479">
        <ele>12</ele>
        <time>2021-05-23T06:40:42.983Z</time>
      </trkpt>
      <trkpt lat="47.25617" lon="-2.24481">
        <ele>12</ele>
        <time>2021-05-23T06:40:43.983Z</time>
      </trkpt>
      <trkpt lat="47.25616" lon="-2.24483">
        <ele>12</ele>
        <time>2021-05-23T06:40:44.983Z</time>
      </trkpt>
      <trkpt lat="47.25616" lon="-2.24486">
        <ele>12</ele>
        <time>2021-05-23T06:40:45.983Z</time>
      </trkpt>
      <trkpt lat="47.25617" lon="-2.24489">
        <ele>12</ele>
        <time>2021-05-23T06:40:46.983Z</time>
      </trkpt>
      <trkpt lat="47.25617" lon="-2.24492">
        <ele>13</ele>
        <time>2021-05-23T06:40:47.983Z</time>
      </trkpt>
      <trkpt lat="47.25618" lon="-2.24495">
        <ele>13</ele>
        <time>2021-05-23T06:40:48.983Z</time>
      </trkpt>
      <trkpt lat="47.2562" lon="-2.24497">
        <ele>13</ele>
        <time>2021-05-23T06:40:49.982Z</time>
      </trkpt>
      <trkpt lat="47.25621" lon="-2.24499">
        <ele>13</ele>
        <time>2021-05-23T06:40:50.983Z</time>
      </trkpt>
      <trkpt lat="47.25623" lon="-2.24502">
        <ele>12</ele>
        <time>2021-05-23T06:40:51.983Z</time>
      </trkpt>
      <trkpt lat="47.25623" lon="-2.24504">
        <ele>12</ele>
        <time>2021-05-23T06:40:52.982Z</time>
      </trkpt>
      <trkpt lat="47.25623" lon="-2.24507">
        <ele>11</ele>
        <time>2021-05-23T06:40:53.983Z</time>
      </trkpt>
      <trkpt lat="47.25624" lon="-2.2451">
        <ele>11</ele>
        <time>2021-05-23T06:40:54.983Z</time>
      </trkpt>
      <trkpt lat="47.25623" lon="-2.24513">
        <ele>10</ele>
        <time>2021-05-23T06:40:55.983Z</time>
      </trkpt>
      <trkpt lat="47.25623" lon="-2.24516">
        <ele>10</ele>
        <time>2021-05-23T06:40:56.983Z</time>
      </trkpt>
      <trkpt lat="47.25623" lon="-2.24519">
        <ele>10</ele>
        <time>2021-05-23T06:40:57.983Z</time>
      </trkpt>
      <trkpt lat="47.25623" lon="-2.24521">
        <ele>10</ele>
        <time>2021-05-23T06:40:58.983Z</time>
      </trkpt>
      <trkpt lat="47.25624" lon="-2.24524">
        <ele>9</ele>
        <time>2021-05-23T06:40:59.983Z</time>
      </trkpt>
      <trkpt lat="47.25624" lon="-2.24525">
        <ele>9</ele>
        <time>2021-05-23T06:41:00.983Z</time>
      </trkpt>
      <trkpt lat="47.25624" lon="-2.24527">
        <ele>9</ele>
        <time>2021-05-23T06:41:01.983Z</time>
      </trkpt>
      <trkpt lat="47.25623" lon="-2.24528">
        <ele>9</ele>
        <time>2021-05-23T06:41:02.983Z</time>
      </trkpt>
      <trkpt lat="47.25624" lon="-2.24531">
        <ele>9</ele>
        <time>2021-05-23T06:41:03.983Z</time>
      </trkpt>
      <trkpt lat="47.25624" lon="-2.24534">
        <ele>9</ele>
        <time>2021-05-23T06:41:04.983Z</time>
      </trkpt>
      <trkpt lat="47.25625" lon="-2.24536">
        <ele>8</ele>
        <time>2021-05-23T06:41:05.982Z</time>
      </trkpt>
      <trkpt lat="47.25625" lon="-2.24539">
        <ele>8</ele>
        <time>2021-05-23T06:41:06.982Z</time>
      </trkpt>
      <trkpt lat="47.25625" lon="-2.2454">
        <ele>8</ele>
        <time>2021-05-23T06:41:07.983Z</time>
      </trkpt>
      <trkpt lat="47.25626" lon="-2.24541">
        <ele>8</ele>
        <time>2021-05-23T06:41:08.983Z</time>
      </trkpt>
      <trkpt lat="47.25626" lon="-2.24542">
        <ele>8</ele>
        <time>2021-05-23T06:41:09.983Z</time>
      </trkpt>
      <trkpt lat="47.25625" lon="-2.24543">
        <ele>8</ele>
        <time>2021-05-23T06:41:10.982Z</time>
      </trkpt>
      <trkpt lat="47.25624" lon="-2.24544">
        <ele>8</ele>
        <time>2021-05-23T06:41:11.983Z</time>
      </trkpt>
      <trkpt lat="47.25623" lon="-2.24547">
        <ele>8</ele>
        <time>2021-05-23T06:41:12.983Z</time>
      </trkpt>
      <trkpt lat="47.25623" lon="-2.24549">
        <ele>9</ele>
        <time>2021-05-23T06:41:13.983Z</time>
      </trkpt>
      <trkpt lat="47.25624" lon="-2.24551">
        <ele>10</ele>
        <time>2021-05-23T06:41:14.982Z</time>
      </trkpt>
      <trkpt lat="47.25625" lon="-2.24553">
        <ele>11</ele>
        <time>2021-05-23T06:41:15.982Z</time>
      </trkpt>
      <trkpt lat="47.25626" lon="-2.24555">
        <ele>12</ele>
        <time>2021-05-23T06:41:16.983Z</time>
      </trkpt>
      <trkpt lat="47.25627" lon="-2.24557">
        <ele>12</ele>
        <time>2021-05-23T06:41:17.983Z</time>
      </trkpt>
      <trkpt lat="47.25628" lon="-2.2456">
        <ele>13</ele>
        <time>2021-05-23T06:41:18.982Z</time>
      </trkpt>
      <trkpt lat="47.25628" lon="-2.24563">
        <ele>13</ele>
        <time>2021-05-23T06:41:19.983Z</time>
      </trkpt>
      <trkpt lat="47.25628" lon="-2.24566">
        <ele>14</ele>
        <time>2021-05-23T06:41:20.982Z</time>
      </trkpt>
      <trkpt lat="47.25629" lon="-2.2457">
        <ele>14</ele>
        <time>2021-05-23T06:41:21.982Z</time>
      </trkpt>
      <trkpt lat="47.25629" lon="-2.24573">
        <ele>14</ele>
        <time>2021-05-23T06:41:22.983Z</time>
      </trkpt>
      <trkpt lat="47.25629" lon="-2.24576">
        <ele>14</ele>
        <time>2021-05-23T06:41:23.983Z</time>
      </trkpt>
      <trkpt lat="47.25629" lon="-2.2458">
        <ele>14</ele>
        <time>2021-05-23T06:41:24.982Z</time>
      </trkpt>
      <trkpt lat="47.25629" lon="-2.24583">
        <ele>14</ele>
        <time>2021-05-23T06:41:25.982Z</time>
      </trkpt>
      <trkpt lat="47.25629" lon="-2.24587">
        <ele>14</ele>
        <time>2021-05-23T06:41:26.983Z</time>
      </trkpt>
      <trkpt lat="47.25629" lon="-2.2459">
        <ele>14</ele>
        <time>2021-05-23T06:41:27.982Z</time>
      </trkpt>
      <trkpt lat="47.25628" lon="-2.24593">
        <ele>14</ele>
        <time>2021-05-23T06:41:28.983Z</time>
      </trkpt>
      <trkpt lat="47.25628" lon="-2.24596">
        <ele>14</ele>
        <time>2021-05-23T06:41:29.983Z</time>
      </trkpt>
      <trkpt lat="47.25627" lon="-2.24599">
        <ele>15</ele>
        <time>2021-05-23T06:41:30.982Z</time>
      </trkpt>
      <trkpt lat="47.25626" lon="-2.24601">
        <ele>15</ele>
        <time>2021-05-23T06:41:31.983Z</time>
      </trkpt>
      <trkpt lat="47.25626" lon="-2.24603">
        <ele>15</ele>
        <time>2021-05-23T06:41:32.982Z</time>
      </trkpt>
      <trkpt lat="47.25626" lon="-2.24605">
        <ele>15</ele>
        <time>2021-05-23T06:41:33.983Z</time>
      </trkpt>
      <trkpt lat="47.25626" lon="-2.24605">
        <ele>16</ele>
        <time>2021-05-23T06:41:34.983Z</time>
      </trkpt>
      <trkpt lat="47.25624" lon="-2.24607">
        <ele>16</ele>
        <time>2021-05-23T06:41:35.983Z</time>
      </trkpt>
      <trkpt lat="47.25623" lon="-2.24609">
        <ele>16</ele>
        <time>2021-05-23T06:41:36.982Z</time>
      </trkpt>
      <trkpt lat="47.25621" lon="-2.24612">
        <ele>16</ele>
        <time>2021-05-23T06:41:37.982Z</time>
      </trkpt>
      <trkpt lat="47.25621" lon="-2.24615">
        <ele>16</ele>
        <time>2021-05-23T06:41:38.983Z</time>
      </trkpt>
      <trkpt lat="47.2562" lon="-2.24618">
        <ele>16</ele>
        <time>2021-05-23T06:41:39.983Z</time>
      </trkpt>
      <trkpt lat="47.2562" lon="-2.2462">
        <ele>16</ele>
        <time>2021-05-23T06:41:40.982Z</time>
      </trkpt>
      <trkpt lat="47.2562" lon="-2.24623">
        <ele>16</ele>
        <time>2021-05-23T06:41:41.983Z</time>
      </trkpt>
      <trkpt lat="47.2562" lon="-2.24625">
        <ele>16</ele>
        <time>2021-05-23T06:41:42.982Z</time>
      </trkpt>
      <trkpt lat="47.2562" lon="-2.24627">
        <ele>16</ele>
        <time>2021-05-23T06:41:43.982Z</time>
      </trkpt>
      <trkpt lat="47.25619" lon="-2.24629">
        <ele>16</ele>
        <time>2021-05-23T06:41:44.983Z</time>
      </trkpt>
      <trkpt lat="47.25618" lon="-2.24632">
        <ele>16</ele>
        <time>2021-05-23T06:41:45.983Z</time>
      </trkpt>
      <trkpt lat="47.25618" lon="-2.24635">
        <ele>16</ele>
        <time>2021-05-23T06:41:46.983Z</time>
      </trkpt>
      <trkpt lat="47.25617" lon="-2.24639">
        <ele>16</ele>
        <time>2021-05-23T06:41:47.983Z</time>
      </trkpt>
      <trkpt lat="47.25616" lon="-2.24642">
        <ele>16</ele>
        <time>2021-05-23T06:41:48.983Z</time>
      </trkpt>
      <trkpt lat="47.25616" lon="-2.24646">
        <ele>16</ele>
        <time>2021-05-23T06:41:49.983Z</time>
      </trkpt>
      <trkpt lat="47.25616" lon="-2.2465">
        <ele>16</ele>
        <time>2021-05-23T06:41:50.983Z</time>
      </trkpt>
      <trkpt lat="47.25615" lon="-2.24654">
        <ele>16</ele>
        <time>2021-05-23T06:41:51.983Z</time>
      </trkpt>
      <trkpt lat="47.25615" lon="-2.24657">
        <ele>16</ele>
        <time>2021-05-23T06:41:52.983Z</time>
      </trkpt>
      <trkpt lat="47.25614" lon="-2.2466">
        <ele>16</ele>
        <time>2021-05-23T06:41:53.982Z</time>
      </trkpt>
      <trkpt lat="47.25613" lon="-2.24663">
        <ele>16</ele>
        <time>2021-05-23T06:41:54.983Z</time>
      </trkpt>
      <trkpt lat="47.25613" lon="-2.24667">
        <ele>16</ele>
        <time>2021-05-23T06:41:55.983Z</time>
      </trkpt>
      <trkpt lat="47.25612" lon="-2.24671">
        <ele>16</ele>
        <time>2021-05-23T06:41:56.983Z</time>
      </trkpt>
      <trkpt lat="47.25611" lon="-2.24675">
        <ele>16</ele>
        <time>2021-05-23T06:41:57.982Z</time>
      </trkpt>
      <trkpt lat="47.25612" lon="-2.24679">
        <ele>16</ele>
        <time>2021-05-23T06:41:58.983Z</time>
      </trkpt>
      <trkpt lat="47.25612" lon="-2.24682">
        <ele>16</ele>
        <time>2021-05-23T06:41:59.983Z</time>
      </trkpt>
      <trkpt lat="47.25612" lon="-2.24685">
        <ele>16</ele>
        <time>2021-05-23T06:42:00.982Z</time>
      </trkpt>
      <trkpt lat="47.25612" lon="-2.24688">
        <ele>15</ele>
        <time>2021-05-23T06:42:01.982Z</time>
      </trkpt>
      <trkpt lat="47.25612" lon="-2.24691">
        <ele>15</ele>
        <time>2021-05-23T06:42:02.982Z</time>
      </trkpt>
      <trkpt lat="47.25611" lon="-2.24693">
        <ele>15</ele>
        <time>2021-05-23T06:42:03.983Z</time>
      </trkpt>
      <trkpt lat="47.25612" lon="-2.24695">
        <ele>16</ele>
        <time>2021-05-23T06:42:04.982Z</time>
      </trkpt>
      <trkpt lat="47.25612" lon="-2.24698">
        <ele>16</ele>
        <time>2021-05-23T06:42:05.983Z</time>
      </trkpt>
      <trkpt lat="47.25612" lon="-2.247">
        <ele>16</ele>
        <time>2021-05-23T06:42:06.983Z</time>
      </trkpt>
      <trkpt lat="47.25612" lon="-2.24703">
        <ele>16</ele>
        <time>2021-05-23T06:42:07.982Z</time>
      </trkpt>
      <trkpt lat="47.25612" lon="-2.24706">
        <ele>16</ele>
        <time>2021-05-23T06:42:08.983Z</time>
      </trkpt>
      <trkpt lat="47.25611" lon="-2.2471">
        <ele>16</ele>
        <time>2021-05-23T06:42:09.983Z</time>
      </trkpt>
      <trkpt lat="47.2561" lon="-2.24713">
        <ele>16</ele>
        <time>2021-05-23T06:42:10.983Z</time>
      </trkpt>
      <trkpt lat="47.2561" lon="-2.24716">
        <ele>17</ele>
        <time>2021-05-23T06:42:11.982Z</time>
      </trkpt>
      <trkpt lat="47.25609" lon="-2.24719">
        <ele>17</ele>
        <time>2021-05-23T06:42:12.982Z</time>
      </trkpt>
      <trkpt lat="47.25609" lon="-2.24722">
        <ele>16</ele>
        <time>2021-05-23T06:42:13.982Z</time>
      </trkpt>
      <trkpt lat="47.25609" lon="-2.24725">
        <ele>16</ele>
        <time>2021-05-23T06:42:14.983Z</time>
      </trkpt>
      <trkpt lat="47.25608" lon="-2.24728">
        <ele>16</ele>
        <time>2021-05-23T06:42:15.983Z</time>
      </trkpt>
      <trkpt lat="47.25608" lon="-2.24732">
        <ele>16</ele>
        <time>2021-05-23T06:42:16.982Z</time>
      </trkpt>
      <trkpt lat="47.25608" lon="-2.24735">
        <ele>16</ele>
        <time>2021-05-23T06:42:17.982Z</time>
      </trkpt>
      <trkpt lat="47.25607" lon="-2.24739">
        <ele>16</ele>
        <time>2021-05-23T06:42:18.982Z</time>
      </trkpt>
      <trkpt lat="47.25607" lon="-2.24742">
        <ele>16</ele>
        <time>2021-05-23T06:42:19.982Z</time>
      </trkpt>
      <trkpt lat="47.25606" lon="-2.24746">
        <ele>17</ele>
        <time>2021-05-23T06:42:20.982Z</time>
      </trkpt>
      <trkpt lat="47.25605" lon="-2.24749">
        <ele>17</ele>
        <time>2021-05-23T06:42:21.982Z</time>
      </trkpt>
      <trkpt lat="47.25604" lon="-2.24752">
        <ele>17</ele>
        <time>2021-05-23T06:42:22.982Z</time>
      </trkpt>
      <trkpt lat="47.25603" lon="-2.24756">
        <ele>17</ele>
        <time>2021-05-23T06:42:23.982Z</time>
      </trkpt>
      <trkpt lat="47.25602" lon="-2.24759">
        <ele>17</ele>
        <time>2021-05-23T06:42:24.983Z</time>
      </trkpt>
      <trkpt lat="47.25602" lon="-2.24762">
        <ele>17</ele>
        <time>2021-05-23T06:42:25.982Z</time>
      </trkpt>
      <trkpt lat="47.25602" lon="-2.24765">
        <ele>17</ele>
        <time>2021-05-23T06:42:26.982Z</time>
      </trkpt>
      <trkpt lat="47.25602" lon="-2.24768">
        <ele>16</ele>
        <time>2021-05-23T06:42:27.982Z</time>
      </trkpt>
      <trkpt lat="47.25602" lon="-2.24771">
        <ele>16</ele>
        <time>2021-05-23T06:42:28.982Z</time>
      </trkpt>
      <trkpt lat="47.25602" lon="-2.24774">
        <ele>15</ele>
        <time>2021-05-23T06:42:29.982Z</time>
      </trkpt>
      <trkpt lat="47.25601" lon="-2.24778">
        <ele>15</ele>
        <time>2021-05-23T06:42:30.982Z</time>
      </trkpt>
      <trkpt lat="47.256" lon="-2.24781">
        <ele>14</ele>
        <time>2021-05-23T06:42:31.982Z</time>
      </trkpt>
      <trkpt lat="47.25599" lon="-2.24783">
        <ele>14</ele>
        <time>2021-05-23T06:42:32.983Z</time>
      </trkpt>
      <trkpt lat="47.25598" lon="-2.24786">
        <ele>14</ele>
        <time>2021-05-23T06:42:33.982Z</time>
      </trkpt>
      <trkpt lat="47.25596" lon="-2.24789">
        <ele>14</ele>
        <time>2021-05-23T06:42:34.982Z</time>
      </trkpt>
      <trkpt lat="47.25595" lon="-2.24792">
        <ele>14</ele>
        <time>2021-05-23T06:42:35.982Z</time>
      </trkpt>
      <trkpt lat="47.25594" lon="-2.24796">
        <ele>14</ele>
        <time>2021-05-23T06:42:36.983Z</time>
      </trkpt>
      <trkpt lat="47.25593" lon="-2.24799">
        <ele>14</ele>
        <time>2021-05-23T06:42:37.982Z</time>
      </trkpt>
      <trkpt lat="47.25592" lon="-2.24802">
        <ele>14</ele>
        <time>2021-05-23T06:42:38.983Z</time>
      </trkpt>
      <trkpt lat="47.25591" lon="-2.24805">
        <ele>14</ele>
        <time>2021-05-23T06:42:39.982Z</time>
      </trkpt>
      <trkpt lat="47.25589" lon="-2.24808">
        <ele>14</ele>
        <time>2021-05-23T06:42:40.983Z</time>
      </trkpt>
      <trkpt lat="47.25588" lon="-2.24811">
        <ele>14</ele>
        <time>2021-05-23T06:42:41.983Z</time>
      </trkpt>
      <trkpt lat="47.25587" lon="-2.24814">
        <ele>14</ele>
        <time>2021-05-23T06:42:42.982Z</time>
      </trkpt>
      <trkpt lat="47.25586" lon="-2.24817">
        <ele>14</ele>
        <time>2021-05-23T06:42:43.983Z</time>
      </trkpt>
      <trkpt lat="47.25585" lon="-2.2482">
        <ele>15</ele>
        <time>2021-05-23T06:42:44.982Z</time>
      </trkpt>
      <trkpt lat="47.25584" lon="-2.24823">
        <ele>15</ele>
        <time>2021-05-23T06:42:45.983Z</time>
      </trkpt>
      <trkpt lat="47.25583" lon="-2.24826">
        <ele>15</ele>
        <time>2021-05-23T06:42:46.983Z</time>
      </trkpt>
      <trkpt lat="47.25582" lon="-2.24829">
        <ele>15</ele>
        <time>2021-05-23T06:42:47.982Z</time>
      </trkpt>
      <trkpt lat="47.25581" lon="-2.24832">
        <ele>15</ele>
        <time>2021-05-23T06:42:48.982Z</time>
      </trkpt>
      <trkpt lat="47.2558" lon="-2.24835">
        <ele>15</ele>
        <time>2021-05-23T06:42:49.983Z</time>
      </trkpt>
      <trkpt lat="47.25579" lon="-2.24838">
        <ele>16</ele>
        <time>2021-05-23T06:42:50.983Z</time>
      </trkpt>
      <trkpt lat="47.25577" lon="-2.24841">
        <ele>16</ele>
        <time>2021-05-23T06:42:51.982Z</time>
      </trkpt>
      <trkpt lat="47.25575" lon="-2.24843">
        <ele>16</ele>
        <time>2021-05-23T06:42:52.982Z</time>
      </trkpt>
      <trkpt lat="47.25573" lon="-2.24846">
        <ele>16</ele>
        <time>2021-05-23T06:42:53.983Z</time>
      </trkpt>
      <trkpt lat="47.2557" lon="-2.24848">
        <ele>16</ele>
        <time>2021-05-23T06:42:54.982Z</time>
      </trkpt>
      <trkpt lat="47.25569" lon="-2.24851">
        <ele>16</ele>
        <time>2021-05-23T06:42:55.982Z</time>
      </trkpt>
      <trkpt lat="47.25567" lon="-2.24854">
        <ele>16</ele>
        <time>2021-05-23T06:42:56.982Z</time>
      </trkpt>
      <trkpt lat="47.25566" lon="-2.24857">
        <ele>16</ele>
        <time>2021-05-23T06:42:57.982Z</time>
      </trkpt>
      <trkpt lat="47.25565" lon="-2.24859">
        <ele>16</ele>
        <time>2021-05-23T06:42:58.983Z</time>
      </trkpt>
      <trkpt lat="47.25564" lon="-2.24863">
        <ele>16</ele>
        <time>2021-05-23T06:42:59.983Z</time>
      </trkpt>
      <trkpt lat="47.25563" lon="-2.24867">
        <ele>16</ele>
        <time>2021-05-23T06:43:00.982Z</time>
      </trkpt>
      <trkpt lat="47.25561" lon="-2.2487">
        <ele>16</ele>
        <time>2021-05-23T06:43:01.983Z</time>
      </trkpt>
      <trkpt lat="47.25561" lon="-2.24873">
        <ele>16</ele>
        <time>2021-05-23T06:43:02.983Z</time>
      </trkpt>
      <trkpt lat="47.2556" lon="-2.24876">
        <ele>16</ele>
        <time>2021-05-23T06:43:03.983Z</time>
      </trkpt>
      <trkpt lat="47.2556" lon="-2.24879">
        <ele>16</ele>
        <time>2021-05-23T06:43:04.982Z</time>
      </trkpt>
      <trkpt lat="47.25559" lon="-2.24882">
        <ele>17</ele>
        <time>2021-05-23T06:43:05.983Z</time>
      </trkpt>
      <trkpt lat="47.25558" lon="-2.24884">
        <ele>17</ele>
        <time>2021-05-23T06:43:06.983Z</time>
      </trkpt>
      <trkpt lat="47.25557" lon="-2.24886">
        <ele>17</ele>
        <time>2021-05-23T06:43:07.982Z</time>
      </trkpt>
      <trkpt lat="47.25556" lon="-2.24888">
        <ele>17</ele>
        <time>2021-05-23T06:43:08.983Z</time>
      </trkpt>
      <trkpt lat="47.25555" lon="-2.2489">
        <ele>18</ele>
        <time>2021-05-23T06:43:09.982Z</time>
      </trkpt>
      <trkpt lat="47.25553" lon="-2.24892">
        <ele>18</ele>
        <time>2021-05-23T06:43:10.983Z</time>
      </trkpt>
      <trkpt lat="47.25551" lon="-2.24894">
        <ele>18</ele>
        <time>2021-05-23T06:43:11.983Z</time>
      </trkpt>
      <trkpt lat="47.25549" lon="-2.24896">
        <ele>18</ele>
        <time>2021-05-23T06:43:12.982Z</time>
      </trkpt>
      <trkpt lat="47.25547" lon="-2.24898">
        <ele>18</ele>
        <time>2021-05-23T06:43:13.982Z</time>
      </trkpt>
      <trkpt lat="47.25545" lon="-2.249">
        <ele>18</ele>
        <time>2021-05-23T06:43:14.983Z</time>
      </trkpt>
      <trkpt lat="47.25544" lon="-2.24901">
        <ele>18</ele>
        <time>2021-05-23T06:43:15.982Z</time>
      </trkpt>
      <trkpt lat="47.25542" lon="-2.24902">
        <ele>18</ele>
        <time>2021-05-23T06:43:16.983Z</time>
      </trkpt>
      <trkpt lat="47.25541" lon="-2.24902">
        <ele>18</ele>
        <time>2021-05-23T06:43:17.982Z</time>
      </trkpt>
      <trkpt lat="47.2554" lon="-2.24902">
        <ele>18</ele>
        <time>2021-05-23T06:43:18.982Z</time>
      </trkpt>
      <trkpt lat="47.25539" lon="-2.24902">
        <ele>18</ele>
        <time>2021-05-23T06:43:19.983Z</time>
      </trkpt>
      <trkpt lat="47.25537" lon="-2.24903">
        <ele>18</ele>
        <time>2021-05-23T06:43:20.983Z</time>
      </trkpt>
      <trkpt lat="47.25536" lon="-2.24904">
        <ele>18</ele>
        <time>2021-05-23T06:43:21.982Z</time>
      </trkpt>
      <trkpt lat="47.25535" lon="-2.24906">
        <ele>18</ele>
        <time>2021-05-23T06:43:22.983Z</time>
      </trkpt>
      <trkpt lat="47.25533" lon="-2.24908">
        <ele>18</ele>
        <time>2021-05-23T06:43:23.983Z</time>
      </trkpt>
      <trkpt lat="47.25531" lon="-2.2491">
        <ele>18</ele>
        <time>2021-05-23T06:43:24.983Z</time>
      </trkpt>
      <trkpt lat="47.2553" lon="-2.24911">
        <ele>19</ele>
        <time>2021-05-23T06:43:25.983Z</time>
      </trkpt>
      <trkpt lat="47.25528" lon="-2.24913">
        <ele>19</ele>
        <time>2021-05-23T06:43:26.983Z</time>
      </trkpt>
      <trkpt lat="47.25526" lon="-2.24914">
        <ele>19</ele>
        <time>2021-05-23T06:43:27.983Z</time>
      </trkpt>
      <trkpt lat="47.25524" lon="-2.24915">
        <ele>19</ele>
        <time>2021-05-23T06:43:28.983Z</time>
      </trkpt>
      <trkpt lat="47.25523" lon="-2.24916">
        <ele>19</ele>
        <time>2021-05-23T06:43:29.983Z</time>
      </trkpt>
      <trkpt lat="47.25523" lon="-2.24916">
        <ele>19</ele>
        <time>2021-05-23T06:43:30.983Z</time>
      </trkpt>
      <trkpt lat="47.25523" lon="-2.24915">
        <ele>19</ele>
        <time>2021-05-23T06:43:31.983Z</time>
      </trkpt>
      <trkpt lat="47.25524" lon="-2.24915">
        <ele>19</ele>
        <time>2021-05-23T06:43:32.982Z</time>
      </trkpt>
      <trkpt lat="47.25524" lon="-2.24914">
        <ele>19</ele>
        <time>2021-05-23T06:43:33.982Z</time>
      </trkpt>
      <trkpt lat="47.25524" lon="-2.24914">
        <ele>19</ele>
        <time>2021-05-23T06:43:34.983Z</time>
      </trkpt>
      <trkpt lat="47.25523" lon="-2.24913">
        <ele>19</ele>
        <time>2021-05-23T06:43:35.983Z</time>
      </trkpt>
      <trkpt lat="47.25523" lon="-2.24913">
        <ele>19</ele>
        <time>2021-05-23T06:43:36.983Z</time>
      </trkpt>
      <trkpt lat="47.25523" lon="-2.24913">
        <ele>19</ele>
        <time>2021-05-23T06:43:37.983Z</time>
      </trkpt>
      <trkpt lat="47.25524" lon="-2.24913">
        <ele>18</ele>
        <time>2021-05-23T06:43:38.982Z</time>
      </trkpt>
      <trkpt lat="47.25524" lon="-2.24913">
        <ele>18</ele>
        <time>2021-05-23T06:43:39.983Z</time>
      </trkpt>
      <trkpt lat="47.25524" lon="-2.24913">
        <ele>17</ele>
        <time>2021-05-23T06:43:40.983Z</time>
      </trkpt>
      <trkpt lat="47.25525" lon="-2.24914">
        <ele>17</ele>
        <time>2021-05-23T06:43:41.983Z</time>
      </trkpt>
      <trkpt lat="47.25525" lon="-2.24914">
        <ele>17</ele>
        <time>2021-05-23T06:43:42.983Z</time>
      </trkpt>
      <trkpt lat="47.25524" lon="-2.24914">
        <ele>17</ele>
        <time>2021-05-23T06:43:43.983Z</time>
      </trkpt>
      <trkpt lat="47.25523" lon="-2.24914">
        <ele>17</ele>
        <time>2021-05-23T06:43:44.983Z</time>
      </trkpt>
      <trkpt lat="47.25522" lon="-2.24915">
        <ele>17</ele>
        <time>2021-05-23T06:43:45.983Z</time>
      </trkpt>
      <trkpt lat="47.25521" lon="-2.24917">
        <ele>17</ele>
        <time>2021-05-23T06:43:46.983Z</time>
      </trkpt>
      <trkpt lat="47.25521" lon="-2.24917">
        <ele>17</ele>
        <time>2021-05-23T06:43:47.982Z</time>
      </trkpt>
      <trkpt lat="47.25521" lon="-2.24918">
        <ele>17</ele>
        <time>2021-05-23T06:43:48.982Z</time>
      </trkpt>
      <trkpt lat="47.2552" lon="-2.24919">
        <ele>17</ele>
        <time>2021-05-23T06:43:49.983Z</time>
      </trkpt>
      <trkpt lat="47.25518" lon="-2.2492">
        <ele>17</ele>
        <time>2021-05-23T06:43:50.982Z</time>
      </trkpt>
      <trkpt lat="47.25517" lon="-2.2492">
        <ele>17</ele>
        <time>2021-05-23T06:43:51.982Z</time>
      </trkpt>
      <trkpt lat="47.25516" lon="-2.2492">
        <ele>17</ele>
        <time>2021-05-23T06:43:52.983Z</time>
      </trkpt>
      <trkpt lat="47.25515" lon="-2.2492">
        <ele>17</ele>
        <time>2021-05-23T06:43:53.982Z</time>
      </trkpt>
      <trkpt lat="47.25514" lon="-2.24921">
        <ele>17</ele>
        <time>2021-05-23T06:43:54.982Z</time>
      </trkpt>
      <trkpt lat="47.25513" lon="-2.24921">
        <ele>17</ele>
        <time>2021-05-23T06:43:55.983Z</time>
      </trkpt>
      <trkpt lat="47.25512" lon="-2.24922">
        <ele>17</ele>
        <time>2021-05-23T06:43:56.983Z</time>
      </trkpt>
      <trkpt lat="47.25511" lon="-2.24922">
        <ele>17</ele>
        <time>2021-05-23T06:43:57.982Z</time>
      </trkpt>
      <trkpt lat="47.25509" lon="-2.24922">
        <ele>17</ele>
        <time>2021-05-23T06:43:58.982Z</time>
      </trkpt>
      <trkpt lat="47.25507" lon="-2.24922">
        <ele>18</ele>
        <time>2021-05-23T06:43:59.982Z</time>
      </trkpt>
      <trkpt lat="47.25505" lon="-2.24922">
        <ele>18</ele>
        <time>2021-05-23T06:44:00.982Z</time>
      </trkpt>
      <trkpt lat="47.25503" lon="-2.24922">
        <ele>18</ele>
        <time>2021-05-23T06:44:01.982Z</time>
      </trkpt>
      <trkpt lat="47.25501" lon="-2.24922">
        <ele>18</ele>
        <time>2021-05-23T06:44:02.983Z</time>
      </trkpt>
      <trkpt lat="47.255" lon="-2.24923">
        <ele>18</ele>
        <time>2021-05-23T06:44:03.982Z</time>
      </trkpt>
      <trkpt lat="47.25498" lon="-2.24924">
        <ele>18</ele>
        <time>2021-05-23T06:44:04.982Z</time>
      </trkpt>
      <trkpt lat="47.25496" lon="-2.24925">
        <ele>18</ele>
        <time>2021-05-23T06:44:05.982Z</time>
      </trkpt>
      <trkpt lat="47.25493" lon="-2.24925">
        <ele>18</ele>
        <time>2021-05-23T06:44:06.982Z</time>
      </trkpt>
      <trkpt lat="47.25491" lon="-2.24925">
        <ele>18</ele>
        <time>2021-05-23T06:44:07.982Z</time>
      </trkpt>
      <trkpt lat="47.2549" lon="-2.24924">
        <ele>18</ele>
        <time>2021-05-23T06:44:08.982Z</time>
      </trkpt>
      <trkpt lat="47.25488" lon="-2.24924">
        <ele>18</ele>
        <time>2021-05-23T06:44:09.982Z</time>
      </trkpt>
      <trkpt lat="47.25486" lon="-2.24923">
        <ele>18</ele>
        <time>2021-05-23T06:44:10.983Z</time>
      </trkpt>
      <trkpt lat="47.25483" lon="-2.24922">
        <ele>19</ele>
        <time>2021-05-23T06:44:11.982Z</time>
      </trkpt>
      <trkpt lat="47.2548" lon="-2.2492">
        <ele>18</ele>
        <time>2021-05-23T06:44:12.983Z</time>
      </trkpt>
      <trkpt lat="47.25478" lon="-2.24918">
        <ele>18</ele>
        <time>2021-05-23T06:44:13.982Z</time>
      </trkpt>
      <trkpt lat="47.25477" lon="-2.24916">
        <ele>19</ele>
        <time>2021-05-23T06:44:14.982Z</time>
      </trkpt>
      <trkpt lat="47.25476" lon="-2.24913">
        <ele>19</ele>
        <time>2021-05-23T06:44:15.982Z</time>
      </trkpt>
      <trkpt lat="47.25474" lon="-2.24911">
        <ele>19</ele>
        <time>2021-05-23T06:44:16.983Z</time>
      </trkpt>
      <trkpt lat="47.25472" lon="-2.24909">
        <ele>19</ele>
        <time>2021-05-23T06:44:17.983Z</time>
      </trkpt>
      <trkpt lat="47.2547" lon="-2.24908">
        <ele>19</ele>
        <time>2021-05-23T06:44:18.982Z</time>
      </trkpt>
      <trkpt lat="47.25469" lon="-2.24906">
        <ele>19</ele>
        <time>2021-05-23T06:44:19.982Z</time>
      </trkpt>
      <trkpt lat="47.25467" lon="-2.24904">
        <ele>19</ele>
        <time>2021-05-23T06:44:20.983Z</time>
      </trkpt>
      <trkpt lat="47.25465" lon="-2.24902">
        <ele>19</ele>
        <time>2021-05-23T06:44:21.982Z</time>
      </trkpt>
      <trkpt lat="47.25465" lon="-2.24901">
        <ele>19</ele>
        <time>2021-05-23T06:44:22.982Z</time>
      </trkpt>
      <trkpt lat="47.25463" lon="-2.249">
        <ele>19</ele>
        <time>2021-05-23T06:44:23.983Z</time>
      </trkpt>
      <trkpt lat="47.25462" lon="-2.24898">
        <ele>20</ele>
        <time>2021-05-23T06:44:24.982Z</time>
      </trkpt>
      <trkpt lat="47.2546" lon="-2.24897">
        <ele>20</ele>
        <time>2021-05-23T06:44:25.983Z</time>
      </trkpt>
      <trkpt lat="47.25458" lon="-2.24895">
        <ele>20</ele>
        <time>2021-05-23T06:44:26.983Z</time>
      </trkpt>
      <trkpt lat="47.25456" lon="-2.24893">
        <ele>21</ele>
        <time>2021-05-23T06:44:27.982Z</time>
      </trkpt>
      <trkpt lat="47.25454" lon="-2.24891">
        <ele>21</ele>
        <time>2021-05-23T06:44:28.982Z</time>
      </trkpt>
      <trkpt lat="47.25451" lon="-2.24889">
        <ele>21</ele>
        <time>2021-05-23T06:44:29.982Z</time>
      </trkpt>
      <trkpt lat="47.25449" lon="-2.24887">
        <ele>21</ele>
        <time>2021-05-23T06:44:30.983Z</time>
      </trkpt>
      <trkpt lat="47.25447" lon="-2.24887">
        <ele>22</ele>
        <time>2021-05-23T06:44:31.983Z</time>
      </trkpt>
      <trkpt lat="47.25446" lon="-2.24888">
        <ele>22</ele>
        <time>2021-05-23T06:44:32.982Z</time>
      </trkpt>
      <trkpt lat="47.25446" lon="-2.2489">
        <ele>22</ele>
        <time>2021-05-23T06:44:33.982Z</time>
      </trkpt>
      <trkpt lat="47.25445" lon="-2.24891">
        <ele>22</ele>
        <time>2021-05-23T06:44:34.982Z</time>
      </trkpt>
      <trkpt lat="47.25444" lon="-2.24894">
        <ele>21</ele>
        <time>2021-05-23T06:44:35.982Z</time>
      </trkpt>
      <trkpt lat="47.25442" lon="-2.24896">
        <ele>21</ele>
        <time>2021-05-23T06:44:36.983Z</time>
      </trkpt>
      <trkpt lat="47.25441" lon="-2.24897">
        <ele>21</ele>
        <time>2021-05-23T06:44:37.982Z</time>
      </trkpt>
      <trkpt lat="47.2544" lon="-2.24898">
        <ele>21</ele>
        <time>2021-05-23T06:44:38.982Z</time>
      </trkpt>
      <trkpt lat="47.25439" lon="-2.24897">
        <ele>21</ele>
        <time>2021-05-23T06:44:39.982Z</time>
      </trkpt>
      <trkpt lat="47.25437" lon="-2.24898">
        <ele>21</ele>
        <time>2021-05-23T06:44:40.982Z</time>
      </trkpt>
      <trkpt lat="47.25435" lon="-2.24899">
        <ele>21</ele>
        <time>2021-05-23T06:44:41.983Z</time>
      </trkpt>
      <trkpt lat="47.25434" lon="-2.249">
        <ele>20</ele>
        <time>2021-05-23T06:44:42.983Z</time>
      </trkpt>
      <trkpt lat="47.25432" lon="-2.24902">
        <ele>20</ele>
        <time>2021-05-23T06:44:43.983Z</time>
      </trkpt>
      <trkpt lat="47.2543" lon="-2.24903">
        <ele>20</ele>
        <time>2021-05-23T06:44:44.983Z</time>
      </trkpt>
      <trkpt lat="47.25428" lon="-2.24905">
        <ele>20</ele>
        <time>2021-05-23T06:44:45.983Z</time>
      </trkpt>
      <trkpt lat="47.25426" lon="-2.24908">
        <ele>20</ele>
        <time>2021-05-23T06:44:46.983Z</time>
      </trkpt>
      <trkpt lat="47.25424" lon="-2.24911">
        <ele>20</ele>
        <time>2021-05-23T06:44:47.983Z</time>
      </trkpt>
      <trkpt lat="47.25423" lon="-2.24913">
        <ele>20</ele>
        <time>2021-05-23T06:44:48.983Z</time>
      </trkpt>
      <trkpt lat="47.25421" lon="-2.24916">
        <ele>19</ele>
        <time>2021-05-23T06:44:49.983Z</time>
      </trkpt>
      <trkpt lat="47.25419" lon="-2.24918">
        <ele>19</ele>
        <time>2021-05-23T06:44:50.983Z</time>
      </trkpt>
      <trkpt lat="47.25418" lon="-2.24921">
        <ele>19</ele>
        <time>2021-05-23T06:44:51.982Z</time>
      </trkpt>
      <trkpt lat="47.25417" lon="-2.24924">
        <ele>19</ele>
        <time>2021-05-23T06:44:52.983Z</time>
      </trkpt>
      <trkpt lat="47.25416" lon="-2.24927">
        <ele>19</ele>
        <time>2021-05-23T06:44:53.983Z</time>
      </trkpt>
      <trkpt lat="47.25414" lon="-2.2493">
        <ele>19</ele>
        <time>2021-05-23T06:44:54.983Z</time>
      </trkpt>
      <trkpt lat="47.25413" lon="-2.24933">
        <ele>20</ele>
        <time>2021-05-23T06:44:55.983Z</time>
      </trkpt>
      <trkpt lat="47.25412" lon="-2.24936">
        <ele>20</ele>
        <time>2021-05-23T06:44:56.982Z</time>
      </trkpt>
      <trkpt lat="47.25411" lon="-2.24939">
        <ele>20</ele>
        <time>2021-05-23T06:44:57.983Z</time>
      </trkpt>
      <trkpt lat="47.25409" lon="-2.24941">
        <ele>20</ele>
        <time>2021-05-23T06:44:58.982Z</time>
      </trkpt>
      <trkpt lat="47.25407" lon="-2.24944">
        <ele>20</ele>
        <time>2021-05-23T06:44:59.983Z</time>
      </trkpt>
      <trkpt lat="47.25405" lon="-2.24947">
        <ele>20</ele>
        <time>2021-05-23T06:45:00.983Z</time>
      </trkpt>
      <trkpt lat="47.25403" lon="-2.2495">
        <ele>20</ele>
        <time>2021-05-23T06:45:01.983Z</time>
      </trkpt>
      <trkpt lat="47.25402" lon="-2.24953">
        <ele>20</ele>
        <time>2021-05-23T06:45:02.983Z</time>
      </trkpt>
      <trkpt lat="47.254" lon="-2.24956">
        <ele>20</ele>
        <time>2021-05-23T06:45:03.982Z</time>
      </trkpt>
      <trkpt lat="47.25399" lon="-2.24959">
        <ele>20</ele>
        <time>2021-05-23T06:45:04.982Z</time>
      </trkpt>
      <trkpt lat="47.25397" lon="-2.24962">
        <ele>20</ele>
        <time>2021-05-23T06:45:05.983Z</time>
      </trkpt>
      <trkpt lat="47.25396" lon="-2.24966">
        <ele>20</ele>
        <time>2021-05-23T06:45:06.983Z</time>
      </trkpt>
      <trkpt lat="47.25395" lon="-2.24969">
        <ele>20</ele>
        <time>2021-05-23T06:45:07.982Z</time>
      </trkpt>
      <trkpt lat="47.25394" lon="-2.24972">
        <ele>20</ele>
        <time>2021-05-23T06:45:08.982Z</time>
      </trkpt>
      <trkpt lat="47.25393" lon="-2.24976">
        <ele>20</ele>
        <time>2021-05-23T06:45:09.982Z</time>
      </trkpt>
      <trkpt lat="47.25393" lon="-2.24979">
        <ele>20</ele>
        <time>2021-05-23T06:45:10.983Z</time>
      </trkpt>
      <trkpt lat="47.25392" lon="-2.24983">
        <ele>20</ele>
        <time>2021-05-23T06:45:11.983Z</time>
      </trkpt>
      <trkpt lat="47.25392" lon="-2.24986">
        <ele>20</ele>
        <time>2021-05-23T06:45:12.982Z</time>
      </trkpt>
      <trkpt lat="47.25391" lon="-2.2499">
        <ele>20</ele>
        <time>2021-05-23T06:45:13.983Z</time>
      </trkpt>
      <trkpt lat="47.25392" lon="-2.24992">
        <ele>19</ele>
        <time>2021-05-23T06:45:14.983Z</time>
      </trkpt>
      <trkpt lat="47.25392" lon="-2.24995">
        <ele>19</ele>
        <time>2021-05-23T06:45:15.983Z</time>
      </trkpt>
      <trkpt lat="47.25392" lon="-2.24997">
        <ele>19</ele>
        <time>2021-05-23T06:45:16.983Z</time>
      </trkpt>
      <trkpt lat="47.25392" lon="-2.25">
        <ele>19</ele>
        <time>2021-05-23T06:45:17.982Z</time>
      </trkpt>
      <trkpt lat="47.25391" lon="-2.25004">
        <ele>19</ele>
        <time>2021-05-23T06:45:18.983Z</time>
      </trkpt>
      <trkpt lat="47.25389" lon="-2.25008">
        <ele>19</ele>
        <time>2021-05-23T06:45:19.983Z</time>
      </trkpt>
      <trkpt lat="47.25389" lon="-2.25011">
        <ele>19</ele>
        <time>2021-05-23T06:45:20.982Z</time>
      </trkpt>
      <trkpt lat="47.25389" lon="-2.25015">
        <ele>19</ele>
        <time>2021-05-23T06:45:21.983Z</time>
      </trkpt>
      <trkpt lat="47.2539" lon="-2.25019">
        <ele>19</ele>
        <time>2021-05-23T06:45:22.982Z</time>
      </trkpt>
      <trkpt lat="47.25391" lon="-2.25023">
        <ele>19</ele>
        <time>2021-05-23T06:45:23.982Z</time>
      </trkpt>
      <trkpt lat="47.25391" lon="-2.25025">
        <ele>19</ele>
        <time>2021-05-23T06:45:24.982Z</time>
      </trkpt>
      <trkpt lat="47.25392" lon="-2.25028">
        <ele>18</ele>
        <time>2021-05-23T06:45:25.983Z</time>
      </trkpt>
      <trkpt lat="47.25392" lon="-2.2503">
        <ele>18</ele>
        <time>2021-05-23T06:45:26.982Z</time>
      </trkpt>
      <trkpt lat="47.25391" lon="-2.25033">
        <ele>18</ele>
        <time>2021-05-23T06:45:27.983Z</time>
      </trkpt>
      <trkpt lat="47.2539" lon="-2.25035">
        <ele>17</ele>
        <time>2021-05-23T06:45:28.983Z</time>
      </trkpt>
      <trkpt lat="47.25389" lon="-2.25036">
        <ele>17</ele>
        <time>2021-05-23T06:45:29.983Z</time>
      </trkpt>
      <trkpt lat="47.25389" lon="-2.25038">
        <ele>17</ele>
        <time>2021-05-23T06:45:30.983Z</time>
      </trkpt>
      <trkpt lat="47.25389" lon="-2.25039">
        <ele>16</ele>
        <time>2021-05-23T06:45:31.983Z</time>
      </trkpt>
      <trkpt lat="47.25389" lon="-2.25041">
        <ele>16</ele>
        <time>2021-05-23T06:45:32.983Z</time>
      </trkpt>
      <trkpt lat="47.25389" lon="-2.25043">
        <ele>16</ele>
        <time>2021-05-23T06:45:33.983Z</time>
      </trkpt>
      <trkpt lat="47.2539" lon="-2.25045">
        <ele>15</ele>
        <time>2021-05-23T06:45:34.983Z</time>
      </trkpt>
      <trkpt lat="47.2539" lon="-2.25047">
        <ele>15</ele>
        <time>2021-05-23T06:45:35.983Z</time>
      </trkpt>
      <trkpt lat="47.2539" lon="-2.2505">
        <ele>15</ele>
        <time>2021-05-23T06:45:36.983Z</time>
      </trkpt>
      <trkpt lat="47.2539" lon="-2.25053">
        <ele>14</ele>
        <time>2021-05-23T06:45:37.983Z</time>
      </trkpt>
      <trkpt lat="47.2539" lon="-2.25055">
        <ele>14</ele>
        <time>2021-05-23T06:45:38.983Z</time>
      </trkpt>
      <trkpt lat="47.25389" lon="-2.25057">
        <ele>14</ele>
        <time>2021-05-23T06:45:39.983Z</time>
      </trkpt>
      <trkpt lat="47.25388" lon="-2.2506">
        <ele>14</ele>
        <time>2021-05-23T06:45:40.983Z</time>
      </trkpt>
      <trkpt lat="47.25387" lon="-2.25063">
        <ele>14</ele>
        <time>2021-05-23T06:45:41.983Z</time>
      </trkpt>
      <trkpt lat="47.25386" lon="-2.25067">
        <ele>14</ele>
        <time>2021-05-23T06:45:42.982Z</time>
      </trkpt>
      <trkpt lat="47.25385" lon="-2.25069">
        <ele>14</ele>
        <time>2021-05-23T06:45:43.983Z</time>
      </trkpt>
      <trkpt lat="47.25384" lon="-2.25074">
        <ele>15</ele>
        <time>2021-05-23T06:45:44.982Z</time>
      </trkpt>
      <trkpt lat="47.25383" lon="-2.25078">
        <ele>15</ele>
        <time>2021-05-23T06:45:45.982Z</time>
      </trkpt>
      <trkpt lat="47.25383" lon="-2.25082">
        <ele>15</ele>
        <time>2021-05-23T06:45:46.982Z</time>
      </trkpt>
      <trkpt lat="47.25383" lon="-2.25085">
        <ele>16</ele>
        <time>2021-05-23T06:45:47.983Z</time>
      </trkpt>
      <trkpt lat="47.25382" lon="-2.25087">
        <ele>16</ele>
        <time>2021-05-23T06:45:48.982Z</time>
      </trkpt>
      <trkpt lat="47.25382" lon="-2.25089">
        <ele>16</ele>
        <time>2021-05-23T06:45:49.983Z</time>
      </trkpt>
      <trkpt lat="47.25381" lon="-2.25091">
        <ele>17</ele>
        <time>2021-05-23T06:45:50.983Z</time>
      </trkpt>
      <trkpt lat="47.25379" lon="-2.25093">
        <ele>17</ele>
        <time>2021-05-23T06:45:51.983Z</time>
      </trkpt>
      <trkpt lat="47.25378" lon="-2.25094">
        <ele>17</ele>
        <time>2021-05-23T06:45:52.983Z</time>
      </trkpt>
      <trkpt lat="47.25377" lon="-2.25095">
        <ele>17</ele>
        <time>2021-05-23T06:45:53.982Z</time>
      </trkpt>
      <trkpt lat="47.25376" lon="-2.25096">
        <ele>17</ele>
        <time>2021-05-23T06:45:54.983Z</time>
      </trkpt>
      <trkpt lat="47.25375" lon="-2.25098">
        <ele>17</ele>
        <time>2021-05-23T06:45:55.983Z</time>
      </trkpt>
      <trkpt lat="47.25374" lon="-2.251">
        <ele>17</ele>
        <time>2021-05-23T06:45:56.983Z</time>
      </trkpt>
      <trkpt lat="47.25374" lon="-2.25101">
        <ele>17</ele>
        <time>2021-05-23T06:45:57.983Z</time>
      </trkpt>
      <trkpt lat="47.25374" lon="-2.25102">
        <ele>18</ele>
        <time>2021-05-23T06:45:58.983Z</time>
      </trkpt>
      <trkpt lat="47.25373" lon="-2.25103">
        <ele>18</ele>
        <time>2021-05-23T06:45:59.983Z</time>
      </trkpt>
      <trkpt lat="47.25372" lon="-2.25105">
        <ele>18</ele>
        <time>2021-05-23T06:46:00.982Z</time>
      </trkpt>
      <trkpt lat="47.25371" lon="-2.25106">
        <ele>18</ele>
        <time>2021-05-23T06:46:01.983Z</time>
      </trkpt>
      <trkpt lat="47.2537" lon="-2.25107">
        <ele>19</ele>
        <time>2021-05-23T06:46:02.982Z</time>
      </trkpt>
      <trkpt lat="47.25369" lon="-2.25109">
        <ele>19</ele>
        <time>2021-05-23T06:46:03.982Z</time>
      </trkpt>
      <trkpt lat="47.25369" lon="-2.2511">
        <ele>19</ele>
        <time>2021-05-23T06:46:04.982Z</time>
      </trkpt>
      <trkpt lat="47.25368" lon="-2.2511">
        <ele>18</ele>
        <time>2021-05-23T06:46:05.983Z</time>
      </trkpt>
      <trkpt lat="47.25367" lon="-2.2511">
        <ele>18</ele>
        <time>2021-05-23T06:46:06.983Z</time>
      </trkpt>
      <trkpt lat="47.25366" lon="-2.25112">
        <ele>18</ele>
        <time>2021-05-23T06:46:07.983Z</time>
      </trkpt>
      <trkpt lat="47.25365" lon="-2.25113">
        <ele>18</ele>
        <time>2021-05-23T06:46:08.983Z</time>
      </trkpt>
      <trkpt lat="47.25364" lon="-2.25116">
        <ele>19</ele>
        <time>2021-05-23T06:46:09.983Z</time>
      </trkpt>
      <trkpt lat="47.25363" lon="-2.25119">
        <ele>19</ele>
        <time>2021-05-23T06:46:10.983Z</time>
      </trkpt>
      <trkpt lat="47.25362" lon="-2.25123">
        <ele>19</ele>
        <time>2021-05-23T06:46:11.982Z</time>
      </trkpt>
      <trkpt lat="47.25362" lon="-2.25126">
        <ele>19</ele>
        <time>2021-05-23T06:46:12.983Z</time>
      </trkpt>
      <trkpt lat="47.25362" lon="-2.25129">
        <ele>19</ele>
        <time>2021-05-23T06:46:13.982Z</time>
      </trkpt>
      <trkpt lat="47.25363" lon="-2.25131">
        <ele>19</ele>
        <time>2021-05-23T06:46:14.983Z</time>
      </trkpt>
      <trkpt lat="47.25364" lon="-2.25134">
        <ele>19</ele>
        <time>2021-05-23T06:46:15.983Z</time>
      </trkpt>
      <trkpt lat="47.25364" lon="-2.25137">
        <ele>19</ele>
        <time>2021-05-23T06:46:16.982Z</time>
      </trkpt>
      <trkpt lat="47.25365" lon="-2.2514">
        <ele>20</ele>
        <time>2021-05-23T06:46:17.982Z</time>
      </trkpt>
      <trkpt lat="47.25365" lon="-2.25143">
        <ele>20</ele>
        <time>2021-05-23T06:46:18.983Z</time>
      </trkpt>
      <trkpt lat="47.25365" lon="-2.25146">
        <ele>20</ele>
        <time>2021-05-23T06:46:19.983Z</time>
      </trkpt>
      <trkpt lat="47.25364" lon="-2.2515">
        <ele>20</ele>
        <time>2021-05-23T06:46:20.983Z</time>
      </trkpt>
      <trkpt lat="47.25363" lon="-2.25154">
        <ele>20</ele>
        <time>2021-05-23T06:46:21.982Z</time>
      </trkpt>
      <trkpt lat="47.25362" lon="-2.25157">
        <ele>20</ele>
        <time>2021-05-23T06:46:22.983Z</time>
      </trkpt>
      <trkpt lat="47.25362" lon="-2.25161">
        <ele>20</ele>
        <time>2021-05-23T06:46:23.982Z</time>
      </trkpt>
      <trkpt lat="47.25361" lon="-2.25165">
        <ele>20</ele>
        <time>2021-05-23T06:46:24.983Z</time>
      </trkpt>
      <trkpt lat="47.2536" lon="-2.25168">
        <ele>20</ele>
        <time>2021-05-23T06:46:25.982Z</time>
      </trkpt>
      <trkpt lat="47.25359" lon="-2.25172">
        <ele>19</ele>
        <time>2021-05-23T06:46:26.982Z</time>
      </trkpt>
      <trkpt lat="47.25358" lon="-2.25175">
        <ele>19</ele>
        <time>2021-05-23T06:46:27.982Z</time>
      </trkpt>
      <trkpt lat="47.25357" lon="-2.25179">
        <ele>19</ele>
        <time>2021-05-23T06:46:28.983Z</time>
      </trkpt>
      <trkpt lat="47.25356" lon="-2.25182">
        <ele>19</ele>
        <time>2021-05-23T06:46:29.983Z</time>
      </trkpt>
      <trkpt lat="47.25355" lon="-2.25185">
        <ele>19</ele>
        <time>2021-05-23T06:46:30.983Z</time>
      </trkpt>
      <trkpt lat="47.25353" lon="-2.25188">
        <ele>19</ele>
        <time>2021-05-23T06:46:31.982Z</time>
      </trkpt>
      <trkpt lat="47.25352" lon="-2.25191">
        <ele>18</ele>
        <time>2021-05-23T06:46:32.983Z</time>
      </trkpt>
      <trkpt lat="47.25351" lon="-2.25194">
        <ele>18</ele>
        <time>2021-05-23T06:46:33.983Z</time>
      </trkpt>
      <trkpt lat="47.25349" lon="-2.25198">
        <ele>18</ele>
        <time>2021-05-23T06:46:34.983Z</time>
      </trkpt>
      <trkpt lat="47.25349" lon="-2.25202">
        <ele>17</ele>
        <time>2021-05-23T06:46:35.983Z</time>
      </trkpt>
      <trkpt lat="47.25348" lon="-2.25206">
        <ele>17</ele>
        <time>2021-05-23T06:46:36.983Z</time>
      </trkpt>
      <trkpt lat="47.25348" lon="-2.2521">
        <ele>17</ele>
        <time>2021-05-23T06:46:37.983Z</time>
      </trkpt>
      <trkpt lat="47.25348" lon="-2.25213">
        <ele>16</ele>
        <time>2021-05-23T06:46:38.983Z</time>
      </trkpt>
      <trkpt lat="47.25348" lon="-2.25216">
        <ele>16</ele>
        <time>2021-05-23T06:46:39.983Z</time>
      </trkpt>
      <trkpt lat="47.25347" lon="-2.25218">
        <ele>16</ele>
        <time>2021-05-23T06:46:40.983Z</time>
      </trkpt>
      <trkpt lat="47.25346" lon="-2.25219">
        <ele>15</ele>
        <time>2021-05-23T06:46:41.983Z</time>
      </trkpt>
      <trkpt lat="47.25344" lon="-2.2522">
        <ele>15</ele>
        <time>2021-05-23T06:46:42.983Z</time>
      </trkpt>
      <trkpt lat="47.25343" lon="-2.25221">
        <ele>15</ele>
        <time>2021-05-23T06:46:43.982Z</time>
      </trkpt>
      <trkpt lat="47.25341" lon="-2.25223">
        <ele>15</ele>
        <time>2021-05-23T06:46:44.983Z</time>
      </trkpt>
      <trkpt lat="47.25339" lon="-2.25225">
        <ele>16</ele>
        <time>2021-05-23T06:46:45.983Z</time>
      </trkpt>
      <trkpt lat="47.25338" lon="-2.25228">
        <ele>16</ele>
        <time>2021-05-23T06:46:46.983Z</time>
      </trkpt>
      <trkpt lat="47.25338" lon="-2.25231">
        <ele>15</ele>
        <time>2021-05-23T06:46:47.983Z</time>
      </trkpt>
      <trkpt lat="47.2534" lon="-2.25233">
        <ele>15</ele>
        <time>2021-05-23T06:46:48.983Z</time>
      </trkpt>
      <trkpt lat="47.25342" lon="-2.25235">
        <ele>15</ele>
        <time>2021-05-23T06:46:49.982Z</time>
      </trkpt>
      <trkpt lat="47.25344" lon="-2.25237">
        <ele>15</ele>
        <time>2021-05-23T06:46:50.982Z</time>
      </trkpt>
      <trkpt lat="47.25347" lon="-2.25238">
        <ele>15</ele>
        <time>2021-05-23T06:46:51.983Z</time>
      </trkpt>
      <trkpt lat="47.25349" lon="-2.25239">
        <ele>15</ele>
        <time>2021-05-23T06:46:52.983Z</time>
      </trkpt>
      <trkpt lat="47.2535" lon="-2.2524">
        <ele>15</ele>
        <time>2021-05-23T06:46:53.983Z</time>
      </trkpt>
      <trkpt lat="47.25351" lon="-2.25241">
        <ele>15</ele>
        <time>2021-05-23T06:46:54.983Z</time>
      </trkpt>
      <trkpt lat="47.25352" lon="-2.25243">
        <ele>15</ele>
        <time>2021-05-23T06:46:55.983Z</time>
      </trkpt>
      <trkpt lat="47.25353" lon="-2.25245">
        <ele>15</ele>
        <time>2021-05-23T06:46:56.982Z</time>
      </trkpt>
      <trkpt lat="47.25354" lon="-2.25246">
        <ele>16</ele>
        <time>2021-05-23T06:46:57.982Z</time>
      </trkpt>
      <trkpt lat="47.25356" lon="-2.25249">
        <ele>16</ele>
        <time>2021-05-23T06:46:58.982Z</time>
      </trkpt>
      <trkpt lat="47.25357" lon="-2.25252">
        <ele>16</ele>
        <time>2021-05-23T06:46:59.983Z</time>
      </trkpt>
      <trkpt lat="47.25358" lon="-2.25255">
        <ele>16</ele>
        <time>2021-05-23T06:47:00.983Z</time>
      </trkpt>
      <trkpt lat="47.25357" lon="-2.25258">
        <ele>16</ele>
        <time>2021-05-23T06:47:01.983Z</time>
      </trkpt>
      <trkpt lat="47.25356" lon="-2.25261">
        <ele>16</ele>
        <time>2021-05-23T06:47:02.983Z</time>
      </trkpt>
      <trkpt lat="47.25356" lon="-2.25265">
        <ele>16</ele>
        <time>2021-05-23T06:47:03.983Z</time>
      </trkpt>
      <trkpt lat="47.25356" lon="-2.25269">
        <ele>17</ele>
        <time>2021-05-23T06:47:04.982Z</time>
      </trkpt>
      <trkpt lat="47.25356" lon="-2.25272">
        <ele>17</ele>
        <time>2021-05-23T06:47:05.983Z</time>
      </trkpt>
      <trkpt lat="47.25356" lon="-2.25275">
        <ele>17</ele>
        <time>2021-05-23T06:47:06.983Z</time>
      </trkpt>
      <trkpt lat="47.25357" lon="-2.25277">
        <ele>17</ele>
        <time>2021-05-23T06:47:07.983Z</time>
      </trkpt>
      <trkpt lat="47.25356" lon="-2.25279">
        <ele>17</ele>
        <time>2021-05-23T06:47:08.982Z</time>
      </trkpt>
      <trkpt lat="47.25356" lon="-2.25282">
        <ele>17</ele>
        <time>2021-05-23T06:47:09.983Z</time>
      </trkpt>
      <trkpt lat="47.25356" lon="-2.25285">
        <ele>17</ele>
        <time>2021-05-23T06:47:10.983Z</time>
      </trkpt>
      <trkpt lat="47.25355" lon="-2.25288">
        <ele>17</ele>
        <time>2021-05-23T06:47:11.983Z</time>
      </trkpt>
      <trkpt lat="47.25355" lon="-2.25292">
        <ele>17</ele>
        <time>2021-05-23T06:47:12.982Z</time>
      </trkpt>
      <trkpt lat="47.25354" lon="-2.25295">
        <ele>16</ele>
        <time>2021-05-23T06:47:13.983Z</time>
      </trkpt>
      <trkpt lat="47.25354" lon="-2.25298">
        <ele>16</ele>
        <time>2021-05-23T06:47:14.983Z</time>
      </trkpt>
      <trkpt lat="47.25354" lon="-2.25301">
        <ele>15</ele>
        <time>2021-05-23T06:47:15.982Z</time>
      </trkpt>
      <trkpt lat="47.25353" lon="-2.25304">
        <ele>15</ele>
        <time>2021-05-23T06:47:16.982Z</time>
      </trkpt>
      <trkpt lat="47.25352" lon="-2.25306">
        <ele>14</ele>
        <time>2021-05-23T06:47:17.983Z</time>
      </trkpt>
      <trkpt lat="47.25352" lon="-2.25307">
        <ele>14</ele>
        <time>2021-05-23T06:47:18.983Z</time>
      </trkpt>
      <trkpt lat="47.25353" lon="-2.25307">
        <ele>13</ele>
        <time>2021-05-23T06:47:19.982Z</time>
      </trkpt>
      <trkpt lat="47.25353" lon="-2.25308">
        <ele>13</ele>
        <time>2021-05-23T06:47:20.983Z</time>
      </trkpt>
      <trkpt lat="47.25354" lon="-2.25308">
        <ele>12</ele>
        <time>2021-05-23T06:47:21.983Z</time>
      </trkpt>
      <trkpt lat="47.25354" lon="-2.25309">
        <ele>12</ele>
        <time>2021-05-23T06:47:22.983Z</time>
      </trkpt>
      <trkpt lat="47.25353" lon="-2.2531">
        <ele>11</ele>
        <time>2021-05-23T06:47:23.983Z</time>
      </trkpt>
      <trkpt lat="47.25353" lon="-2.25311">
        <ele>11</ele>
        <time>2021-05-23T06:47:24.983Z</time>
      </trkpt>
      <trkpt lat="47.25353" lon="-2.25312">
        <ele>11</ele>
        <time>2021-05-23T06:47:25.983Z</time>
      </trkpt>
      <trkpt lat="47.25353" lon="-2.25313">
        <ele>11</ele>
        <time>2021-05-23T06:47:26.982Z</time>
      </trkpt>
      <trkpt lat="47.25352" lon="-2.25314">
        <ele>11</ele>
        <time>2021-05-23T06:47:27.982Z</time>
      </trkpt>
      <trkpt lat="47.25351" lon="-2.25315">
        <ele>11</ele>
        <time>2021-05-23T06:47:28.982Z</time>
      </trkpt>
      <trkpt lat="47.25351" lon="-2.25316">
        <ele>11</ele>
        <time>2021-05-23T06:47:29.983Z</time>
      </trkpt>
      <trkpt lat="47.2535" lon="-2.25317">
        <ele>11</ele>
        <time>2021-05-23T06:47:30.983Z</time>
      </trkpt>
      <trkpt lat="47.25349" lon="-2.25319">
        <ele>11</ele>
        <time>2021-05-23T06:47:31.982Z</time>
      </trkpt>
      <trkpt lat="47.25348" lon="-2.25321">
        <ele>11</ele>
        <time>2021-05-23T06:47:32.982Z</time>
      </trkpt>
      <trkpt lat="47.25346" lon="-2.25324">
        <ele>11</ele>
        <time>2021-05-23T06:47:33.983Z</time>
      </trkpt>
      <trkpt lat="47.25346" lon="-2.25326">
        <ele>11</ele>
        <time>2021-05-23T06:47:34.983Z</time>
      </trkpt>
      <trkpt lat="47.25345" lon="-2.2533">
        <ele>11</ele>
        <time>2021-05-23T06:47:35.983Z</time>
      </trkpt>
      <trkpt lat="47.25344" lon="-2.25333">
        <ele>11</ele>
        <time>2021-05-23T06:47:36.983Z</time>
      </trkpt>
      <trkpt lat="47.25344" lon="-2.25336">
        <ele>11</ele>
        <time>2021-05-23T06:47:37.982Z</time>
      </trkpt>
      <trkpt lat="47.25344" lon="-2.25338">
        <ele>12</ele>
        <time>2021-05-23T06:47:38.983Z</time>
      </trkpt>
      <trkpt lat="47.25343" lon="-2.25342">
        <ele>12</ele>
        <time>2021-05-23T06:47:39.982Z</time>
      </trkpt>
      <trkpt lat="47.25343" lon="-2.25345">
        <ele>12</ele>
        <time>2021-05-23T06:47:40.982Z</time>
      </trkpt>
      <trkpt lat="47.25343" lon="-2.25349">
        <ele>12</ele>
        <time>2021-05-23T06:47:41.983Z</time>
      </trkpt>
      <trkpt lat="47.25343" lon="-2.25353">
        <ele>12</ele>
        <time>2021-05-23T06:47:42.983Z</time>
      </trkpt>
      <trkpt lat="47.25343" lon="-2.25356">
        <ele>13</ele>
        <time>2021-05-23T06:47:43.983Z</time>
      </trkpt>
      <trkpt lat="47.25344" lon="-2.25359">
        <ele>13</ele>
        <time>2021-05-23T06:47:44.983Z</time>
      </trkpt>
      <trkpt lat="47.25344" lon="-2.25362">
        <ele>12</ele>
        <time>2021-05-23T06:47:45.983Z</time>
      </trkpt>
      <trkpt lat="47.25344" lon="-2.25365">
        <ele>12</ele>
        <time>2021-05-23T06:47:46.982Z</time>
      </trkpt>
      <trkpt lat="47.25345" lon="-2.25368">
        <ele>11</ele>
        <time>2021-05-23T06:47:47.983Z</time>
      </trkpt>
      <trkpt lat="47.25346" lon="-2.25371">
        <ele>11</ele>
        <time>2021-05-23T06:47:48.983Z</time>
      </trkpt>
      <trkpt lat="47.25347" lon="-2.25375">
        <ele>10</ele>
        <time>2021-05-23T06:47:49.982Z</time>
      </trkpt>
      <trkpt lat="47.25347" lon="-2.25378">
        <ele>10</ele>
        <time>2021-05-23T06:47:50.983Z</time>
      </trkpt>
      <trkpt lat="47.25348" lon="-2.25381">
        <ele>9</ele>
        <time>2021-05-23T06:47:51.983Z</time>
      </trkpt>
      <trkpt lat="47.25349" lon="-2.25383">
        <ele>9</ele>
        <time>2021-05-23T06:47:52.983Z</time>
      </trkpt>
      <trkpt lat="47.25349" lon="-2.25385">
        <ele>9</ele>
        <time>2021-05-23T06:47:53.982Z</time>
      </trkpt>
      <trkpt lat="47.25349" lon="-2.25388">
        <ele>8</ele>
        <time>2021-05-23T06:47:54.983Z</time>
      </trkpt>
      <trkpt lat="47.25349" lon="-2.25391">
        <ele>9</ele>
        <time>2021-05-23T06:47:55.983Z</time>
      </trkpt>
      <trkpt lat="47.25348" lon="-2.25393">
        <ele>9</ele>
        <time>2021-05-23T06:47:56.982Z</time>
      </trkpt>
      <trkpt lat="47.25348" lon="-2.25397">
        <ele>9</ele>
        <time>2021-05-23T06:47:57.983Z</time>
      </trkpt>
      <trkpt lat="47.25348" lon="-2.254">
        <ele>9</ele>
        <time>2021-05-23T06:47:58.982Z</time>
      </trkpt>
      <trkpt lat="47.25347" lon="-2.25404">
        <ele>9</ele>
        <time>2021-05-23T06:47:59.982Z</time>
      </trkpt>
      <trkpt lat="47.25348" lon="-2.25407">
        <ele>8</ele>
        <time>2021-05-23T06:48:00.983Z</time>
      </trkpt>
      <trkpt lat="47.25348" lon="-2.2541">
        <ele>8</ele>
        <time>2021-05-23T06:48:01.983Z</time>
      </trkpt>
      <trkpt lat="47.25346" lon="-2.25412">
        <ele>8</ele>
        <time>2021-05-23T06:48:02.983Z</time>
      </trkpt>
      <trkpt lat="47.25345" lon="-2.25415">
        <ele>8</ele>
        <time>2021-05-23T06:48:03.983Z</time>
      </trkpt>
      <trkpt lat="47.25345" lon="-2.25416">
        <ele>8</ele>
        <time>2021-05-23T06:48:04.982Z</time>
      </trkpt>
      <trkpt lat="47.25344" lon="-2.25416">
        <ele>8</ele>
        <time>2021-05-23T06:48:05.982Z</time>
      </trkpt>
      <trkpt lat="47.25344" lon="-2.25416">
        <ele>8</ele>
        <time>2021-05-23T06:48:06.983Z</time>
      </trkpt>
      <trkpt lat="47.25343" lon="-2.25416">
        <ele>8</ele>
        <time>2021-05-23T06:48:07.983Z</time>
      </trkpt>
      <trkpt lat="47.25343" lon="-2.25415">
        <ele>8</ele>
        <time>2021-05-23T06:48:08.983Z</time>
      </trkpt>
      <trkpt lat="47.25342" lon="-2.25415">
        <ele>8</ele>
        <time>2021-05-23T06:48:09.983Z</time>
      </trkpt>
      <trkpt lat="47.25341" lon="-2.25414">
        <ele>9</ele>
        <time>2021-05-23T06:48:10.983Z</time>
      </trkpt>
      <trkpt lat="47.2534" lon="-2.25414">
        <ele>9</ele>
        <time>2021-05-23T06:48:11.983Z</time>
      </trkpt>
      <trkpt lat="47.25338" lon="-2.25413">
        <ele>9</ele>
        <time>2021-05-23T06:48:12.982Z</time>
      </trkpt>
      <trkpt lat="47.25337" lon="-2.25412">
        <ele>9</ele>
        <time>2021-05-23T06:48:13.983Z</time>
      </trkpt>
      <trkpt lat="47.25336" lon="-2.25412">
        <ele>10</ele>
        <time>2021-05-23T06:48:14.983Z</time>
      </trkpt>
      <trkpt lat="47.25334" lon="-2.25412">
        <ele>10</ele>
        <time>2021-05-23T06:48:15.983Z</time>
      </trkpt>
      <trkpt lat="47.25333" lon="-2.25412">
        <ele>10</ele>
        <time>2021-05-23T06:48:16.983Z</time>
      </trkpt>
      <trkpt lat="47.25331" lon="-2.25413">
        <ele>10</ele>
        <time>2021-05-23T06:48:17.983Z</time>
      </trkpt>
      <trkpt lat="47.2533" lon="-2.25414">
        <ele>11</ele>
        <time>2021-05-23T06:48:18.983Z</time>
      </trkpt>
      <trkpt lat="47.25328" lon="-2.25415">
        <ele>11</ele>
        <time>2021-05-23T06:48:19.983Z</time>
      </trkpt>
      <trkpt lat="47.25326" lon="-2.25415">
        <ele>11</ele>
        <time>2021-05-23T06:48:20.983Z</time>
      </trkpt>
      <trkpt lat="47.25324" lon="-2.25417">
        <ele>11</ele>
        <time>2021-05-23T06:48:21.983Z</time>
      </trkpt>
      <trkpt lat="47.25323" lon="-2.25418">
        <ele>11</ele>
        <time>2021-05-23T06:48:22.982Z</time>
      </trkpt>
      <trkpt lat="47.25321" lon="-2.25419">
        <ele>12</ele>
        <time>2021-05-23T06:48:23.983Z</time>
      </trkpt>
      <trkpt lat="47.25319" lon="-2.2542">
        <ele>12</ele>
        <time>2021-05-23T06:48:24.983Z</time>
      </trkpt>
      <trkpt lat="47.25317" lon="-2.2542">
        <ele>12</ele>
        <time>2021-05-23T06:48:25.983Z</time>
      </trkpt>
      <trkpt lat="47.25316" lon="-2.2542">
        <ele>12</ele>
        <time>2021-05-23T06:48:26.983Z</time>
      </trkpt>
      <trkpt lat="47.25314" lon="-2.2542">
        <ele>12</ele>
        <time>2021-05-23T06:48:27.983Z</time>
      </trkpt>
      <trkpt lat="47.25313" lon="-2.25419">
        <ele>11</ele>
        <time>2021-05-23T06:48:28.983Z</time>
      </trkpt>
      <trkpt lat="47.25312" lon="-2.25418">
        <ele>11</ele>
        <time>2021-05-23T06:48:29.983Z</time>
      </trkpt>
      <trkpt lat="47.25311" lon="-2.25415">
        <ele>11</ele>
        <time>2021-05-23T06:48:30.983Z</time>
      </trkpt>
      <trkpt lat="47.25309" lon="-2.25414">
        <ele>11</ele>
        <time>2021-05-23T06:48:31.983Z</time>
      </trkpt>
      <trkpt lat="47.25308" lon="-2.25413">
        <ele>11</ele>
        <time>2021-05-23T06:48:32.983Z</time>
      </trkpt>
      <trkpt lat="47.25307" lon="-2.25412">
        <ele>11</ele>
        <time>2021-05-23T06:48:33.983Z</time>
      </trkpt>
      <trkpt lat="47.25305" lon="-2.25411">
        <ele>11</ele>
        <time>2021-05-23T06:48:34.982Z</time>
      </trkpt>
      <trkpt lat="47.25304" lon="-2.2541">
        <ele>10</ele>
        <time>2021-05-23T06:48:35.983Z</time>
      </trkpt>
      <trkpt lat="47.25303" lon="-2.25408">
        <ele>10</ele>
        <time>2021-05-23T06:48:36.983Z</time>
      </trkpt>
      <trkpt lat="47.25302" lon="-2.25407">
        <ele>9</ele>
        <time>2021-05-23T06:48:37.983Z</time>
      </trkpt>
      <trkpt lat="47.253" lon="-2.25407">
        <ele>9</ele>
        <time>2021-05-23T06:48:38.983Z</time>
      </trkpt>
      <trkpt lat="47.25298" lon="-2.25405">
        <ele>9</ele>
        <time>2021-05-23T06:48:39.983Z</time>
      </trkpt>
      <trkpt lat="47.25296" lon="-2.25403">
        <ele>9</ele>
        <time>2021-05-23T06:48:40.982Z</time>
      </trkpt>
      <trkpt lat="47.25295" lon="-2.25403">
        <ele>9</ele>
        <time>2021-05-23T06:48:41.983Z</time>
      </trkpt>
      <trkpt lat="47.25294" lon="-2.25402">
        <ele>9</ele>
        <time>2021-05-23T06:48:42.982Z</time>
      </trkpt>
      <trkpt lat="47.25293" lon="-2.25401">
        <ele>9</ele>
        <time>2021-05-23T06:48:43.982Z</time>
      </trkpt>
      <trkpt lat="47.25292" lon="-2.254">
        <ele>10</ele>
        <time>2021-05-23T06:48:44.982Z</time>
      </trkpt>
      <trkpt lat="47.25291" lon="-2.25398">
        <ele>10</ele>
        <time>2021-05-23T06:48:45.983Z</time>
      </trkpt>
      <trkpt lat="47.2529" lon="-2.25397">
        <ele>10</ele>
        <time>2021-05-23T06:48:46.982Z</time>
      </trkpt>
      <trkpt lat="47.2529" lon="-2.25395">
        <ele>10</ele>
        <time>2021-05-23T06:48:47.983Z</time>
      </trkpt>
      <trkpt lat="47.25289" lon="-2.25393">
        <ele>11</ele>
        <time>2021-05-23T06:48:48.983Z</time>
      </trkpt>
      <trkpt lat="47.25289" lon="-2.2539">
        <ele>11</ele>
        <time>2021-05-23T06:48:49.983Z</time>
      </trkpt>
      <trkpt lat="47.25288" lon="-2.25389">
        <ele>11</ele>
        <time>2021-05-23T06:48:50.982Z</time>
      </trkpt>
      <trkpt lat="47.25287" lon="-2.25388">
        <ele>11</ele>
        <time>2021-05-23T06:48:51.983Z</time>
      </trkpt>
      <trkpt lat="47.25288" lon="-2.25388">
        <ele>12</ele>
        <time>2021-05-23T06:48:52.982Z</time>
      </trkpt>
      <trkpt lat="47.25289" lon="-2.25388">
        <ele>12</ele>
        <time>2021-05-23T06:48:53.983Z</time>
      </trkpt>
      <trkpt lat="47.2529" lon="-2.25388">
        <ele>13</ele>
        <time>2021-05-23T06:48:54.983Z</time>
      </trkpt>
      <trkpt lat="47.2529" lon="-2.25388">
        <ele>13</ele>
        <time>2021-05-23T06:48:55.982Z</time>
      </trkpt>
      <trkpt lat="47.2529" lon="-2.25386">
        <ele>14</ele>
        <time>2021-05-23T06:48:56.982Z</time>
      </trkpt>
      <trkpt lat="47.25289" lon="-2.25382">
        <ele>14</ele>
        <time>2021-05-23T06:48:57.983Z</time>
      </trkpt>
      <trkpt lat="47.25288" lon="-2.25378">
        <ele>14</ele>
        <time>2021-05-23T06:48:58.982Z</time>
      </trkpt>
      <trkpt lat="47.25288" lon="-2.25376">
        <ele>13</ele>
        <time>2021-05-23T06:48:59.982Z</time>
      </trkpt>
      <trkpt lat="47.25287" lon="-2.25374">
        <ele>13</ele>
        <time>2021-05-23T06:49:00.983Z</time>
      </trkpt>
      <trkpt lat="47.25287" lon="-2.25373">
        <ele>13</ele>
        <time>2021-05-23T06:49:01.983Z</time>
      </trkpt>
      <trkpt lat="47.25287" lon="-2.25372">
        <ele>12</ele>
        <time>2021-05-23T06:49:02.983Z</time>
      </trkpt>
      <trkpt lat="47.25287" lon="-2.25372">
        <ele>12</ele>
        <time>2021-05-23T06:49:03.983Z</time>
      </trkpt>
      <trkpt lat="47.25287" lon="-2.25372">
        <ele>11</ele>
        <time>2021-05-23T06:49:04.982Z</time>
      </trkpt>
      <trkpt lat="47.25287" lon="-2.25371">
        <ele>10</ele>
        <time>2021-05-23T06:49:05.982Z</time>
      </trkpt>
      <trkpt lat="47.25287" lon="-2.25371">
        <ele>8</ele>
        <time>2021-05-23T06:49:06.983Z</time>
      </trkpt>
      <trkpt lat="47.25287" lon="-2.25371">
        <ele>7</ele>
        <time>2021-05-23T06:49:07.983Z</time>
      </trkpt>
      <trkpt lat="47.25287" lon="-2.25371">
        <ele>6</ele>
        <time>2021-05-23T06:49:08.982Z</time>
      </trkpt>
      <trkpt lat="47.25287" lon="-2.25371">
        <ele>5</ele>
        <time>2021-05-23T06:49:09.983Z</time>
      </trkpt>
      <trkpt lat="47.25287" lon="-2.25371">
        <ele>5</ele>
        <time>2021-05-23T06:49:10.982Z</time>
      </trkpt>
      <trkpt lat="47.25286" lon="-2.25371">
        <ele>4</ele>
        <time>2021-05-23T06:49:11.982Z</time>
      </trkpt>
      <trkpt lat="47.25285" lon="-2.2537">
        <ele>4</ele>
        <time>2021-05-23T06:49:12.982Z</time>
      </trkpt>
      <trkpt lat="47.25284" lon="-2.25369">
        <ele>3</ele>
        <time>2021-05-23T06:49:13.982Z</time>
      </trkpt>
      <trkpt lat="47.25283" lon="-2.25369">
        <ele>3</ele>
        <time>2021-05-23T06:49:14.982Z</time>
      </trkpt>
      <trkpt lat="47.25283" lon="-2.25368">
        <ele>3</ele>
        <time>2021-05-23T06:49:15.982Z</time>
      </trkpt>
      <trkpt lat="47.25282" lon="-2.25368">
        <ele>2</ele>
        <time>2021-05-23T06:49:16.982Z</time>
      </trkpt>
      <trkpt lat="47.25282" lon="-2.25369">
        <ele>2</ele>
        <time>2021-05-23T06:49:17.982Z</time>
      </trkpt>
      <trkpt lat="47.25281" lon="-2.25368">
        <ele>1</ele>
        <time>2021-05-23T06:49:18.982Z</time>
      </trkpt>
      <trkpt lat="47.25281" lon="-2.25368">
        <ele>1</ele>
        <time>2021-05-23T06:49:19.982Z</time>
      </trkpt>
      <trkpt lat="47.25279" lon="-2.25368">
        <ele>1</ele>
        <time>2021-05-23T06:49:20.982Z</time>
      </trkpt>
      <trkpt lat="47.25277" lon="-2.25369">
        <ele>1</ele>
        <time>2021-05-23T06:49:21.982Z</time>
      </trkpt>
      <trkpt lat="47.25275" lon="-2.25371">
        <ele>1</ele>
        <time>2021-05-23T06:49:22.982Z</time>
      </trkpt>
      <trkpt lat="47.25275" lon="-2.25373">
        <ele>2</ele>
        <time>2021-05-23T06:49:23.982Z</time>
      </trkpt>
      <trkpt lat="47.25274" lon="-2.25374">
        <ele>2</ele>
        <time>2021-05-23T06:49:24.982Z</time>
      </trkpt>
      <trkpt lat="47.25274" lon="-2.25376">
        <ele>2</ele>
        <time>2021-05-23T06:49:25.983Z</time>
      </trkpt>
      <trkpt lat="47.25274" lon="-2.25378">
        <ele>2</ele>
        <time>2021-05-23T06:49:26.982Z</time>
      </trkpt>
      <trkpt lat="47.25275" lon="-2.2538">
        <ele>2</ele>
        <time>2021-05-23T06:49:27.982Z</time>
      </trkpt>
      <trkpt lat="47.25276" lon="-2.25383">
        <ele>2</ele>
        <time>2021-05-23T06:49:28.983Z</time>
      </trkpt>
      <trkpt lat="47.25277" lon="-2.25385">
        <ele>3</ele>
        <time>2021-05-23T06:49:29.982Z</time>
      </trkpt>
      <trkpt lat="47.25277" lon="-2.25389">
        <ele>3</ele>
        <time>2021-05-23T06:49:30.982Z</time>
      </trkpt>
      <trkpt lat="47.25277" lon="-2.25393">
        <ele>4</ele>
        <time>2021-05-23T06:49:31.983Z</time>
      </trkpt>
      <trkpt lat="47.25275" lon="-2.25396">
        <ele>5</ele>
        <time>2021-05-23T06:49:32.983Z</time>
      </trkpt>
      <trkpt lat="47.25274" lon="-2.25398">
        <ele>6</ele>
        <time>2021-05-23T06:49:33.983Z</time>
      </trkpt>
      <trkpt lat="47.25273" lon="-2.25401">
        <ele>6</ele>
        <time>2021-05-23T06:49:34.983Z</time>
      </trkpt>
      <trkpt lat="47.25271" lon="-2.25403">
        <ele>7</ele>
        <time>2021-05-23T06:49:35.983Z</time>
      </trkpt>
      <trkpt lat="47.2527" lon="-2.25404">
        <ele>7</ele>
        <time>2021-05-23T06:49:36.982Z</time>
      </trkpt>
      <trkpt lat="47.25269" lon="-2.25405">
        <ele>8</ele>
        <time>2021-05-23T06:49:37.983Z</time>
      </trkpt>
      <trkpt lat="47.25268" lon="-2.25404">
        <ele>8</ele>
        <time>2021-05-23T06:49:38.983Z</time>
      </trkpt>
      <trkpt lat="47.25266" lon="-2.25403">
        <ele>9</ele>
        <time>2021-05-23T06:49:39.982Z</time>
      </trkpt>
      <trkpt lat="47.25264" lon="-2.25403">
        <ele>9</ele>
        <time>2021-05-23T06:49:40.983Z</time>
      </trkpt>
      <trkpt lat="47.25262" lon="-2.25403">
        <ele>10</ele>
        <time>2021-05-23T06:49:41.983Z</time>
      </trkpt>
      <trkpt lat="47.2526" lon="-2.25404">
        <ele>10</ele>
        <time>2021-05-23T06:49:42.982Z</time>
      </trkpt>
      <trkpt lat="47.25258" lon="-2.25406">
        <ele>10</ele>
        <time>2021-05-23T06:49:43.983Z</time>
      </trkpt>
      <trkpt lat="47.25255" lon="-2.25409">
        <ele>10</ele>
        <time>2021-05-23T06:49:44.983Z</time>
      </trkpt>
      <trkpt lat="47.25254" lon="-2.25411">
        <ele>10</ele>
        <time>2021-05-23T06:49:45.983Z</time>
      </trkpt>
      <trkpt lat="47.25252" lon="-2.25414">
        <ele>10</ele>
        <time>2021-05-23T06:49:46.982Z</time>
      </trkpt>
      <trkpt lat="47.2525" lon="-2.25417">
        <ele>11</ele>
        <time>2021-05-23T06:49:47.983Z</time>
      </trkpt>
      <trkpt lat="47.25249" lon="-2.2542">
        <ele>12</ele>
        <time>2021-05-23T06:49:48.983Z</time>
      </trkpt>
      <trkpt lat="47.25248" lon="-2.25423">
        <ele>12</ele>
        <time>2021-05-23T06:49:49.983Z</time>
      </trkpt>
      <trkpt lat="47.25247" lon="-2.25425">
        <ele>13</ele>
        <time>2021-05-23T06:49:50.983Z</time>
      </trkpt>
      <trkpt lat="47.25247" lon="-2.25428">
        <ele>13</ele>
        <time>2021-05-23T06:49:51.983Z</time>
      </trkpt>
      <trkpt lat="47.25248" lon="-2.25431">
        <ele>14</ele>
        <time>2021-05-23T06:49:52.982Z</time>
      </trkpt>
      <trkpt lat="47.25248" lon="-2.25433">
        <ele>14</ele>
        <time>2021-05-23T06:49:53.982Z</time>
      </trkpt>
      <trkpt lat="47.25249" lon="-2.25436">
        <ele>14</ele>
        <time>2021-05-23T06:49:54.982Z</time>
      </trkpt>
      <trkpt lat="47.2525" lon="-2.25438">
        <ele>14</ele>
        <time>2021-05-23T06:49:55.983Z</time>
      </trkpt>
      <trkpt lat="47.2525" lon="-2.2544">
        <ele>15</ele>
        <time>2021-05-23T06:49:56.982Z</time>
      </trkpt>
      <trkpt lat="47.25249" lon="-2.25443">
        <ele>15</ele>
        <time>2021-05-23T06:49:57.982Z</time>
      </trkpt>
      <trkpt lat="47.25247" lon="-2.25446">
        <ele>15</ele>
        <time>2021-05-23T06:49:58.982Z</time>
      </trkpt>
      <trkpt lat="47.25245" lon="-2.2545">
        <ele>15</ele>
        <time>2021-05-23T06:49:59.982Z</time>
      </trkpt>
      <trkpt lat="47.25242" lon="-2.25453">
        <ele>15</ele>
        <time>2021-05-23T06:50:00.982Z</time>
      </trkpt>
      <trkpt lat="47.25239" lon="-2.25456">
        <ele>15</ele>
        <time>2021-05-23T06:50:01.982Z</time>
      </trkpt>
      <trkpt lat="47.25237" lon="-2.25459">
        <ele>15</ele>
        <time>2021-05-23T06:50:02.983Z</time>
      </trkpt>
      <trkpt lat="47.25235" lon="-2.25461">
        <ele>15</ele>
        <time>2021-05-23T06:50:03.982Z</time>
      </trkpt>
      <trkpt lat="47.25234" lon="-2.25463">
        <ele>15</ele>
        <time>2021-05-23T06:50:04.983Z</time>
      </trkpt>
      <trkpt lat="47.25233" lon="-2.25465">
        <ele>15</ele>
        <time>2021-05-23T06:50:05.983Z</time>
      </trkpt>
      <trkpt lat="47.25232" lon="-2.25467">
        <ele>15</ele>
        <time>2021-05-23T06:50:06.983Z</time>
      </trkpt>
      <trkpt lat="47.25231" lon="-2.25469">
        <ele>15</ele>
        <time>2021-05-23T06:50:07.982Z</time>
      </trkpt>
      <trkpt lat="47.2523" lon="-2.25472">
        <ele>15</ele>
        <time>2021-05-23T06:50:08.983Z</time>
      </trkpt>
      <trkpt lat="47.25229" lon="-2.25474">
        <ele>15</ele>
        <time>2021-05-23T06:50:09.983Z</time>
      </trkpt>
      <trkpt lat="47.25228" lon="-2.25476">
        <ele>15</ele>
        <time>2021-05-23T06:50:10.982Z</time>
      </trkpt>
      <trkpt lat="47.25226" lon="-2.25478">
        <ele>14</ele>
        <time>2021-05-23T06:50:11.982Z</time>
      </trkpt>
      <trkpt lat="47.25224" lon="-2.2548">
        <ele>14</ele>
        <time>2021-05-23T06:50:12.983Z</time>
      </trkpt>
      <trkpt lat="47.25223" lon="-2.25483">
        <ele>14</ele>
        <time>2021-05-23T06:50:13.983Z</time>
      </trkpt>
      <trkpt lat="47.25222" lon="-2.25486">
        <ele>13</ele>
        <time>2021-05-23T06:50:14.982Z</time>
      </trkpt>
      <trkpt lat="47.25221" lon="-2.25488">
        <ele>13</ele>
        <time>2021-05-23T06:50:15.982Z</time>
      </trkpt>
      <trkpt lat="47.2522" lon="-2.25491">
        <ele>13</ele>
        <time>2021-05-23T06:50:16.983Z</time>
      </trkpt>
      <trkpt lat="47.25219" lon="-2.25494">
        <ele>13</ele>
        <time>2021-05-23T06:50:17.983Z</time>
      </trkpt>
      <trkpt lat="47.25217" lon="-2.25496">
        <ele>13</ele>
        <time>2021-05-23T06:50:18.982Z</time>
      </trkpt>
      <trkpt lat="47.25215" lon="-2.25498">
        <ele>13</ele>
        <time>2021-05-23T06:50:19.983Z</time>
      </trkpt>
      <trkpt lat="47.25213" lon="-2.25501">
        <ele>13</ele>
        <time>2021-05-23T06:50:20.983Z</time>
      </trkpt>
      <trkpt lat="47.25212" lon="-2.25504">
        <ele>13</ele>
        <time>2021-05-23T06:50:21.982Z</time>
      </trkpt>
      <trkpt lat="47.25209" lon="-2.25507">
        <ele>13</ele>
        <time>2021-05-23T06:50:22.983Z</time>
      </trkpt>
      <trkpt lat="47.25207" lon="-2.25509">
        <ele>14</ele>
        <time>2021-05-23T06:50:23.983Z</time>
      </trkpt>
      <trkpt lat="47.25206" lon="-2.25511">
        <ele>14</ele>
        <time>2021-05-23T06:50:24.982Z</time>
      </trkpt>
      <trkpt lat="47.25205" lon="-2.25512">
        <ele>14</ele>
        <time>2021-05-23T06:50:25.982Z</time>
      </trkpt>
      <trkpt lat="47.25203" lon="-2.25512">
        <ele>15</ele>
        <time>2021-05-23T06:50:26.983Z</time>
      </trkpt>
      <trkpt lat="47.252" lon="-2.25512">
        <ele>15</ele>
        <time>2021-05-23T06:50:27.982Z</time>
      </trkpt>
      <trkpt lat="47.25198" lon="-2.25512">
        <ele>15</ele>
        <time>2021-05-23T06:50:28.983Z</time>
      </trkpt>
      <trkpt lat="47.25195" lon="-2.25512">
        <ele>16</ele>
        <time>2021-05-23T06:50:29.983Z</time>
      </trkpt>
      <trkpt lat="47.25193" lon="-2.25512">
        <ele>16</ele>
        <time>2021-05-23T06:50:30.982Z</time>
      </trkpt>
      <trkpt lat="47.25191" lon="-2.25511">
        <ele>16</ele>
        <time>2021-05-23T06:50:31.983Z</time>
      </trkpt>
      <trkpt lat="47.25189" lon="-2.2551">
        <ele>17</ele>
        <time>2021-05-23T06:50:32.982Z</time>
      </trkpt>
      <trkpt lat="47.25187" lon="-2.25509">
        <ele>17</ele>
        <time>2021-05-23T06:50:33.982Z</time>
      </trkpt>
      <trkpt lat="47.25185" lon="-2.25508">
        <ele>17</ele>
        <time>2021-05-23T06:50:34.982Z</time>
      </trkpt>
      <trkpt lat="47.25182" lon="-2.25507">
        <ele>18</ele>
        <time>2021-05-23T06:50:35.983Z</time>
      </trkpt>
      <trkpt lat="47.25179" lon="-2.25507">
        <ele>18</ele>
        <time>2021-05-23T06:50:36.982Z</time>
      </trkpt>
      <trkpt lat="47.25177" lon="-2.25508">
        <ele>18</ele>
        <time>2021-05-23T06:50:37.983Z</time>
      </trkpt>
      <trkpt lat="47.25175" lon="-2.25509">
        <ele>19</ele>
        <time>2021-05-23T06:50:38.983Z</time>
      </trkpt>
      <trkpt lat="47.25173" lon="-2.25511">
        <ele>19</ele>
        <time>2021-05-23T06:50:39.983Z</time>
      </trkpt>
      <trkpt lat="47.2517" lon="-2.25514">
        <ele>19</ele>
        <time>2021-05-23T06:50:40.982Z</time>
      </trkpt>
      <trkpt lat="47.25168" lon="-2.25517">
        <ele>20</ele>
        <time>2021-05-23T06:50:41.983Z</time>
      </trkpt>
      <trkpt lat="47.25167" lon="-2.2552">
        <ele>20</ele>
        <time>2021-05-23T06:50:42.983Z</time>
      </trkpt>
      <trkpt lat="47.25166" lon="-2.25522">
        <ele>19</ele>
        <time>2021-05-23T06:50:43.983Z</time>
      </trkpt>
      <trkpt lat="47.25165" lon="-2.25525">
        <ele>19</ele>
        <time>2021-05-23T06:50:44.983Z</time>
      </trkpt>
      <trkpt lat="47.25163" lon="-2.25527">
        <ele>19</ele>
        <time>2021-05-23T06:50:45.983Z</time>
      </trkpt>
      <trkpt lat="47.25162" lon="-2.2553">
        <ele>18</ele>
        <time>2021-05-23T06:50:46.982Z</time>
      </trkpt>
      <trkpt lat="47.2516" lon="-2.25532">
        <ele>18</ele>
        <time>2021-05-23T06:50:47.982Z</time>
      </trkpt>
      <trkpt lat="47.25158" lon="-2.25536">
        <ele>17</ele>
        <time>2021-05-23T06:50:48.982Z</time>
      </trkpt>
      <trkpt lat="47.25157" lon="-2.25539">
        <ele>17</ele>
        <time>2021-05-23T06:50:49.983Z</time>
      </trkpt>
      <trkpt lat="47.25156" lon="-2.25543">
        <ele>17</ele>
        <time>2021-05-23T06:50:50.982Z</time>
      </trkpt>
      <trkpt lat="47.25155" lon="-2.25546">
        <ele>17</ele>
        <time>2021-05-23T06:50:51.983Z</time>
      </trkpt>
      <trkpt lat="47.25155" lon="-2.25549">
        <ele>17</ele>
        <time>2021-05-23T06:50:52.982Z</time>
      </trkpt>
      <trkpt lat="47.25154" lon="-2.25552">
        <ele>17</ele>
        <time>2021-05-23T06:50:53.982Z</time>
      </trkpt>
      <trkpt lat="47.25153" lon="-2.25557">
        <ele>17</ele>
        <time>2021-05-23T06:50:54.982Z</time>
      </trkpt>
      <trkpt lat="47.25152" lon="-2.2556">
        <ele>17</ele>
        <time>2021-05-23T06:50:55.982Z</time>
      </trkpt>
      <trkpt lat="47.25151" lon="-2.25563">
        <ele>16</ele>
        <time>2021-05-23T06:50:56.982Z</time>
      </trkpt>
      <trkpt lat="47.25149" lon="-2.25567">
        <ele>16</ele>
        <time>2021-05-23T06:50:57.982Z</time>
      </trkpt>
      <trkpt lat="47.25146" lon="-2.2557">
        <ele>16</ele>
        <time>2021-05-23T06:50:58.982Z</time>
      </trkpt>
      <trkpt lat="47.25144" lon="-2.25572">
        <ele>16</ele>
        <time>2021-05-23T06:50:59.983Z</time>
      </trkpt>
      <trkpt lat="47.25143" lon="-2.25574">
        <ele>16</ele>
        <time>2021-05-23T06:51:00.982Z</time>
      </trkpt>
      <trkpt lat="47.25141" lon="-2.25573">
        <ele>16</ele>
        <time>2021-05-23T06:51:01.982Z</time>
      </trkpt>
      <trkpt lat="47.25139" lon="-2.25573">
        <ele>16</ele>
        <time>2021-05-23T06:51:02.983Z</time>
      </trkpt>
      <trkpt lat="47.25136" lon="-2.25574">
        <ele>16</ele>
        <time>2021-05-23T06:51:03.983Z</time>
      </trkpt>
      <trkpt lat="47.25133" lon="-2.25575">
        <ele>16</ele>
        <time>2021-05-23T06:51:04.982Z</time>
      </trkpt>
      <trkpt lat="47.2513" lon="-2.25576">
        <ele>17</ele>
        <time>2021-05-23T06:51:05.983Z</time>
      </trkpt>
      <trkpt lat="47.25128" lon="-2.25578">
        <ele>17</ele>
        <time>2021-05-23T06:51:06.983Z</time>
      </trkpt>
      <trkpt lat="47.25125" lon="-2.2558">
        <ele>17</ele>
        <time>2021-05-23T06:51:07.983Z</time>
      </trkpt>
      <trkpt lat="47.25123" lon="-2.25583">
        <ele>17</ele>
        <time>2021-05-23T06:51:08.983Z</time>
      </trkpt>
      <trkpt lat="47.25121" lon="-2.25586">
        <ele>17</ele>
        <time>2021-05-23T06:51:09.982Z</time>
      </trkpt>
      <trkpt lat="47.25119" lon="-2.25588">
        <ele>17</ele>
        <time>2021-05-23T06:51:10.983Z</time>
      </trkpt>
      <trkpt lat="47.25118" lon="-2.25591">
        <ele>17</ele>
        <time>2021-05-23T06:51:11.983Z</time>
      </trkpt>
      <trkpt lat="47.25117" lon="-2.25593">
        <ele>16</ele>
        <time>2021-05-23T06:51:12.983Z</time>
      </trkpt>
      <trkpt lat="47.25116" lon="-2.25595">
        <ele>16</ele>
        <time>2021-05-23T06:51:13.983Z</time>
      </trkpt>
      <trkpt lat="47.25115" lon="-2.25596">
        <ele>15</ele>
        <time>2021-05-23T06:51:14.983Z</time>
      </trkpt>
      <trkpt lat="47.25116" lon="-2.25596">
        <ele>15</ele>
        <time>2021-05-23T06:51:15.983Z</time>
      </trkpt>
      <trkpt lat="47.25116" lon="-2.25596">
        <ele>14</ele>
        <time>2021-05-23T06:51:16.983Z</time>
      </trkpt>
      <trkpt lat="47.25115" lon="-2.25596">
        <ele>14</ele>
        <time>2021-05-23T06:51:17.983Z</time>
      </trkpt>
      <trkpt lat="47.25114" lon="-2.25595">
        <ele>13</ele>
        <time>2021-05-23T06:51:18.982Z</time>
      </trkpt>
      <trkpt lat="47.25113" lon="-2.25594">
        <ele>13</ele>
        <time>2021-05-23T06:51:19.983Z</time>
      </trkpt>
      <trkpt lat="47.25112" lon="-2.25593">
        <ele>12</ele>
        <time>2021-05-23T06:51:20.983Z</time>
      </trkpt>
      <trkpt lat="47.25111" lon="-2.25593">
        <ele>12</ele>
        <time>2021-05-23T06:51:21.983Z</time>
      </trkpt>
      <trkpt lat="47.25111" lon="-2.25592">
        <ele>12</ele>
        <time>2021-05-23T06:51:22.983Z</time>
      </trkpt>
      <trkpt lat="47.25109" lon="-2.25592">
        <ele>12</ele>
        <time>2021-05-23T06:51:23.983Z</time>
      </trkpt>
      <trkpt lat="47.25109" lon="-2.25592">
        <ele>12</ele>
        <time>2021-05-23T06:51:24.982Z</time>
      </trkpt>
      <trkpt lat="47.25107" lon="-2.25593">
        <ele>12</ele>
        <time>2021-05-23T06:51:25.983Z</time>
      </trkpt>
      <trkpt lat="47.25105" lon="-2.25594">
        <ele>12</ele>
        <time>2021-05-23T06:51:26.983Z</time>
      </trkpt>
      <trkpt lat="47.25103" lon="-2.25596">
        <ele>12</ele>
        <time>2021-05-23T06:51:27.982Z</time>
      </trkpt>
      <trkpt lat="47.25102" lon="-2.25598">
        <ele>11</ele>
        <time>2021-05-23T06:51:28.983Z</time>
      </trkpt>
      <trkpt lat="47.251" lon="-2.256">
        <ele>11</ele>
        <time>2021-05-23T06:51:29.982Z</time>
      </trkpt>
      <trkpt lat="47.25099" lon="-2.25602">
        <ele>11</ele>
        <time>2021-05-23T06:51:30.983Z</time>
      </trkpt>
      <trkpt lat="47.25097" lon="-2.25605">
        <ele>11</ele>
        <time>2021-05-23T06:51:31.983Z</time>
      </trkpt>
      <trkpt lat="47.25096" lon="-2.25608">
        <ele>11</ele>
        <time>2021-05-23T06:51:32.982Z</time>
      </trkpt>
      <trkpt lat="47.25095" lon="-2.25611">
        <ele>11</ele>
        <time>2021-05-23T06:51:33.982Z</time>
      </trkpt>
      <trkpt lat="47.25094" lon="-2.25613">
        <ele>11</ele>
        <time>2021-05-23T06:51:34.983Z</time>
      </trkpt>
      <trkpt lat="47.25092" lon="-2.25616">
        <ele>11</ele>
        <time>2021-05-23T06:51:35.983Z</time>
      </trkpt>
      <trkpt lat="47.25091" lon="-2.25619">
        <ele>11</ele>
        <time>2021-05-23T06:51:36.982Z</time>
      </trkpt>
      <trkpt lat="47.2509" lon="-2.25621">
        <ele>11</ele>
        <time>2021-05-23T06:51:37.983Z</time>
      </trkpt>
      <trkpt lat="47.25089" lon="-2.25623">
        <ele>11</ele>
        <time>2021-05-23T06:51:38.983Z</time>
      </trkpt>
      <trkpt lat="47.25089" lon="-2.25624">
        <ele>11</ele>
        <time>2021-05-23T06:51:39.983Z</time>
      </trkpt>
      <trkpt lat="47.25087" lon="-2.25625">
        <ele>11</ele>
        <time>2021-05-23T06:51:40.982Z</time>
      </trkpt>
      <trkpt lat="47.25086" lon="-2.25625">
        <ele>10</ele>
        <time>2021-05-23T06:51:41.983Z</time>
      </trkpt>
      <trkpt lat="47.25085" lon="-2.25625">
        <ele>10</ele>
        <time>2021-05-23T06:51:42.983Z</time>
      </trkpt>
      <trkpt lat="47.25085" lon="-2.25625">
        <ele>9</ele>
        <time>2021-05-23T06:51:43.982Z</time>
      </trkpt>
      <trkpt lat="47.25084" lon="-2.25626">
        <ele>9</ele>
        <time>2021-05-23T06:51:44.983Z</time>
      </trkpt>
      <trkpt lat="47.25083" lon="-2.25626">
        <ele>9</ele>
        <time>2021-05-23T06:51:45.982Z</time>
      </trkpt>
      <trkpt lat="47.25082" lon="-2.25626">
        <ele>8</ele>
        <time>2021-05-23T06:51:46.983Z</time>
      </trkpt>
      <trkpt lat="47.25081" lon="-2.25625">
        <ele>8</ele>
        <time>2021-05-23T06:51:47.983Z</time>
      </trkpt>
      <trkpt lat="47.2508" lon="-2.25625">
        <ele>7</ele>
        <time>2021-05-23T06:51:48.983Z</time>
      </trkpt>
      <trkpt lat="47.25079" lon="-2.25625">
        <ele>7</ele>
        <time>2021-05-23T06:51:49.982Z</time>
      </trkpt>
      <trkpt lat="47.25079" lon="-2.25625">
        <ele>7</ele>
        <time>2021-05-23T06:51:50.983Z</time>
      </trkpt>
      <trkpt lat="47.25078" lon="-2.25625">
        <ele>7</ele>
        <time>2021-05-23T06:51:51.983Z</time>
      </trkpt>
      <trkpt lat="47.25077" lon="-2.25625">
        <ele>7</ele>
        <time>2021-05-23T06:51:52.983Z</time>
      </trkpt>
      <trkpt lat="47.25077" lon="-2.25625">
        <ele>7</ele>
        <time>2021-05-23T06:51:53.983Z</time>
      </trkpt>
      <trkpt lat="47.25076" lon="-2.25625">
        <ele>7</ele>
        <time>2021-05-23T06:51:54.983Z</time>
      </trkpt>
      <trkpt lat="47.25075" lon="-2.25625">
        <ele>7</ele>
        <time>2021-05-23T06:51:55.982Z</time>
      </trkpt>
      <trkpt lat="47.25074" lon="-2.25624">
        <ele>7</ele>
        <time>2021-05-23T06:51:56.982Z</time>
      </trkpt>
      <trkpt lat="47.25074" lon="-2.25624">
        <ele>7</ele>
        <time>2021-05-23T06:51:57.982Z</time>
      </trkpt>
      <trkpt lat="47.25073" lon="-2.25625">
        <ele>7</ele>
        <time>2021-05-23T06:51:58.983Z</time>
      </trkpt>
      <trkpt lat="47.25072" lon="-2.25626">
        <ele>8</ele>
        <time>2021-05-23T06:51:59.982Z</time>
      </trkpt>
      <trkpt lat="47.25071" lon="-2.25628">
        <ele>8</ele>
        <time>2021-05-23T06:52:00.982Z</time>
      </trkpt>
      <trkpt lat="47.2507" lon="-2.25629">
        <ele>8</ele>
        <time>2021-05-23T06:52:01.982Z</time>
      </trkpt>
      <trkpt lat="47.25069" lon="-2.2563">
        <ele>8</ele>
        <time>2021-05-23T06:52:02.983Z</time>
      </trkpt>
      <trkpt lat="47.25068" lon="-2.2563">
        <ele>8</ele>
        <time>2021-05-23T06:52:03.982Z</time>
      </trkpt>
      <trkpt lat="47.25068" lon="-2.25631">
        <ele>9</ele>
        <time>2021-05-23T06:52:04.983Z</time>
      </trkpt>
      <trkpt lat="47.25067" lon="-2.2563">
        <ele>9</ele>
        <time>2021-05-23T06:52:05.982Z</time>
      </trkpt>
      <trkpt lat="47.25067" lon="-2.25629">
        <ele>9</ele>
        <time>2021-05-23T06:52:06.983Z</time>
      </trkpt>
      <trkpt lat="47.25066" lon="-2.25628">
        <ele>9</ele>
        <time>2021-05-23T06:52:07.983Z</time>
      </trkpt>
      <trkpt lat="47.25065" lon="-2.25627">
        <ele>9</ele>
        <time>2021-05-23T06:52:08.983Z</time>
      </trkpt>
      <trkpt lat="47.25065" lon="-2.25625">
        <ele>9</ele>
        <time>2021-05-23T06:52:09.983Z</time>
      </trkpt>
      <trkpt lat="47.25064" lon="-2.25624">
        <ele>9</ele>
        <time>2021-05-23T06:52:10.983Z</time>
      </trkpt>
      <trkpt lat="47.25064" lon="-2.25623">
        <ele>9</ele>
        <time>2021-05-23T06:52:11.983Z</time>
      </trkpt>
      <trkpt lat="47.25063" lon="-2.25621">
        <ele>9</ele>
        <time>2021-05-23T06:52:12.983Z</time>
      </trkpt>
      <trkpt lat="47.25061" lon="-2.2562">
        <ele>10</ele>
        <time>2021-05-23T06:52:13.983Z</time>
      </trkpt>
      <trkpt lat="47.2506" lon="-2.25618">
        <ele>10</ele>
        <time>2021-05-23T06:52:14.983Z</time>
      </trkpt>
      <trkpt lat="47.25059" lon="-2.25616">
        <ele>10</ele>
        <time>2021-05-23T06:52:15.983Z</time>
      </trkpt>
      <trkpt lat="47.25058" lon="-2.25615">
        <ele>10</ele>
        <time>2021-05-23T06:52:16.982Z</time>
      </trkpt>
      <trkpt lat="47.25057" lon="-2.25613">
        <ele>10</ele>
        <time>2021-05-23T06:52:17.983Z</time>
      </trkpt>
      <trkpt lat="47.25056" lon="-2.2561">
        <ele>9</ele>
        <time>2021-05-23T06:52:18.983Z</time>
      </trkpt>
      <trkpt lat="47.25055" lon="-2.25607">
        <ele>9</ele>
        <time>2021-05-23T06:52:19.983Z</time>
      </trkpt>
      <trkpt lat="47.25054" lon="-2.25604">
        <ele>9</ele>
        <time>2021-05-23T06:52:20.983Z</time>
      </trkpt>
      <trkpt lat="47.25053" lon="-2.25602">
        <ele>9</ele>
        <time>2021-05-23T06:52:21.983Z</time>
      </trkpt>
      <trkpt lat="47.25051" lon="-2.25601">
        <ele>9</ele>
        <time>2021-05-23T06:52:22.982Z</time>
      </trkpt>
      <trkpt lat="47.25049" lon="-2.25601">
        <ele>9</ele>
        <time>2021-05-23T06:52:23.983Z</time>
      </trkpt>
      <trkpt lat="47.25046" lon="-2.25602">
        <ele>9</ele>
        <time>2021-05-23T06:52:24.982Z</time>
      </trkpt>
      <trkpt lat="47.25045" lon="-2.25603">
        <ele>9</ele>
        <time>2021-05-23T06:52:25.983Z</time>
      </trkpt>
      <trkpt lat="47.25043" lon="-2.25605">
        <ele>9</ele>
        <time>2021-05-23T06:52:26.983Z</time>
      </trkpt>
      <trkpt lat="47.25041" lon="-2.25607">
        <ele>10</ele>
        <time>2021-05-23T06:52:27.983Z</time>
      </trkpt>
      <trkpt lat="47.25039" lon="-2.25609">
        <ele>10</ele>
        <time>2021-05-23T06:52:28.982Z</time>
      </trkpt>
      <trkpt lat="47.25038" lon="-2.25612">
        <ele>10</ele>
        <time>2021-05-23T06:52:29.982Z</time>
      </trkpt>
      <trkpt lat="47.25037" lon="-2.25614">
        <ele>11</ele>
        <time>2021-05-23T06:52:30.983Z</time>
      </trkpt>
      <trkpt lat="47.25036" lon="-2.25617">
        <ele>11</ele>
        <time>2021-05-23T06:52:31.983Z</time>
      </trkpt>
      <trkpt lat="47.25034" lon="-2.25619">
        <ele>12</ele>
        <time>2021-05-23T06:52:32.983Z</time>
      </trkpt>
      <trkpt lat="47.25033" lon="-2.25621">
        <ele>13</ele>
        <time>2021-05-23T06:52:33.982Z</time>
      </trkpt>
      <trkpt lat="47.25032" lon="-2.25624">
        <ele>13</ele>
        <time>2021-05-23T06:52:34.982Z</time>
      </trkpt>
      <trkpt lat="47.25031" lon="-2.25626">
        <ele>14</ele>
        <time>2021-05-23T06:52:35.982Z</time>
      </trkpt>
      <trkpt lat="47.2503" lon="-2.25629">
        <ele>14</ele>
        <time>2021-05-23T06:52:36.982Z</time>
      </trkpt>
      <trkpt lat="47.25029" lon="-2.25631">
        <ele>15</ele>
        <time>2021-05-23T06:52:37.982Z</time>
      </trkpt>
      <trkpt lat="47.25028" lon="-2.25633">
        <ele>15</ele>
        <time>2021-05-23T06:52:38.982Z</time>
      </trkpt>
      <trkpt lat="47.25027" lon="-2.25633">
        <ele>16</ele>
        <time>2021-05-23T06:52:39.982Z</time>
      </trkpt>
      <trkpt lat="47.25026" lon="-2.25635">
        <ele>16</ele>
        <time>2021-05-23T06:52:40.983Z</time>
      </trkpt>
      <trkpt lat="47.25024" lon="-2.25637">
        <ele>16</ele>
        <time>2021-05-23T06:52:41.983Z</time>
      </trkpt>
      <trkpt lat="47.25023" lon="-2.25638">
        <ele>17</ele>
        <time>2021-05-23T06:52:42.983Z</time>
      </trkpt>
      <trkpt lat="47.25022" lon="-2.25641">
        <ele>17</ele>
        <time>2021-05-23T06:52:43.983Z</time>
      </trkpt>
      <trkpt lat="47.2502" lon="-2.25644">
        <ele>17</ele>
        <time>2021-05-23T06:52:44.983Z</time>
      </trkpt>
      <trkpt lat="47.25018" lon="-2.25645">
        <ele>18</ele>
        <time>2021-05-23T06:52:45.983Z</time>
      </trkpt>
      <trkpt lat="47.25017" lon="-2.25648">
        <ele>18</ele>
        <time>2021-05-23T06:52:46.983Z</time>
      </trkpt>
      <trkpt lat="47.25016" lon="-2.25652">
        <ele>18</ele>
        <time>2021-05-23T06:52:47.982Z</time>
      </trkpt>
      <trkpt lat="47.25013" lon="-2.25656">
        <ele>18</ele>
        <time>2021-05-23T06:52:48.982Z</time>
      </trkpt>
      <trkpt lat="47.25011" lon="-2.25659">
        <ele>19</ele>
        <time>2021-05-23T06:52:49.982Z</time>
      </trkpt>
      <trkpt lat="47.25008" lon="-2.25662">
        <ele>19</ele>
        <time>2021-05-23T06:52:50.983Z</time>
      </trkpt>
      <trkpt lat="47.25007" lon="-2.25665">
        <ele>19</ele>
        <time>2021-05-23T06:52:51.983Z</time>
      </trkpt>
      <trkpt lat="47.25006" lon="-2.25667">
        <ele>20</ele>
        <time>2021-05-23T06:52:52.982Z</time>
      </trkpt>
      <trkpt lat="47.25007" lon="-2.25671">
        <ele>20</ele>
        <time>2021-05-23T06:52:53.983Z</time>
      </trkpt>
      <trkpt lat="47.25008" lon="-2.25673">
        <ele>20</ele>
        <time>2021-05-23T06:52:54.982Z</time>
      </trkpt>
      <trkpt lat="47.25009" lon="-2.25675">
        <ele>20</ele>
        <time>2021-05-23T06:52:55.983Z</time>
      </trkpt>
      <trkpt lat="47.2501" lon="-2.25677">
        <ele>19</ele>
        <time>2021-05-23T06:52:56.983Z</time>
      </trkpt>
      <trkpt lat="47.25012" lon="-2.25679">
        <ele>19</ele>
        <time>2021-05-23T06:52:57.982Z</time>
      </trkpt>
      <trkpt lat="47.25014" lon="-2.25681">
        <ele>19</ele>
        <time>2021-05-23T06:52:58.983Z</time>
      </trkpt>
      <trkpt lat="47.25015" lon="-2.25682">
        <ele>18</ele>
        <time>2021-05-23T06:52:59.982Z</time>
      </trkpt>
      <trkpt lat="47.25016" lon="-2.25683">
        <ele>17</ele>
        <time>2021-05-23T06:53:00.982Z</time>
      </trkpt>
      <trkpt lat="47.25017" lon="-2.25684">
        <ele>17</ele>
        <time>2021-05-23T06:53:01.983Z</time>
      </trkpt>
      <trkpt lat="47.25017" lon="-2.25686">
        <ele>17</ele>
        <time>2021-05-23T06:53:02.983Z</time>
      </trkpt>
      <trkpt lat="47.25018" lon="-2.25687">
        <ele>16</ele>
        <time>2021-05-23T06:53:03.983Z</time>
      </trkpt>
      <trkpt lat="47.25018" lon="-2.25689">
        <ele>16</ele>
        <time>2021-05-23T06:53:04.982Z</time>
      </trkpt>
      <trkpt lat="47.25018" lon="-2.25691">
        <ele>15</ele>
        <time>2021-05-23T06:53:05.983Z</time>
      </trkpt>
      <trkpt lat="47.25018" lon="-2.25692">
        <ele>15</ele>
        <time>2021-05-23T06:53:06.983Z</time>
      </trkpt>
      <trkpt lat="47.25018" lon="-2.25693">
        <ele>15</ele>
        <time>2021-05-23T06:53:07.982Z</time>
      </trkpt>
      <trkpt lat="47.25017" lon="-2.25694">
        <ele>14</ele>
        <time>2021-05-23T06:53:08.982Z</time>
      </trkpt>
      <trkpt lat="47.25017" lon="-2.25695">
        <ele>14</ele>
        <time>2021-05-23T06:53:09.983Z</time>
      </trkpt>
      <trkpt lat="47.25016" lon="-2.25695">
        <ele>14</ele>
        <time>2021-05-23T06:53:10.982Z</time>
      </trkpt>
      <trkpt lat="47.25015" lon="-2.25696">
        <ele>13</ele>
        <time>2021-05-23T06:53:11.983Z</time>
      </trkpt>
      <trkpt lat="47.25014" lon="-2.25697">
        <ele>13</ele>
        <time>2021-05-23T06:53:12.983Z</time>
      </trkpt>
      <trkpt lat="47.25014" lon="-2.25698">
        <ele>13</ele>
        <time>2021-05-23T06:53:13.983Z</time>
      </trkpt>
      <trkpt lat="47.25013" lon="-2.25699">
        <ele>13</ele>
        <time>2021-05-23T06:53:14.983Z</time>
      </trkpt>
      <trkpt lat="47.25013" lon="-2.25699">
        <ele>12</ele>
        <time>2021-05-23T06:53:15.983Z</time>
      </trkpt>
      <trkpt lat="47.25012" lon="-2.25699">
        <ele>12</ele>
        <time>2021-05-23T06:53:16.983Z</time>
      </trkpt>
      <trkpt lat="47.25011" lon="-2.257">
        <ele>12</ele>
        <time>2021-05-23T06:53:17.983Z</time>
      </trkpt>
      <trkpt lat="47.25009" lon="-2.25702">
        <ele>12</ele>
        <time>2021-05-23T06:53:18.983Z</time>
      </trkpt>
      <trkpt lat="47.25008" lon="-2.25704">
        <ele>11</ele>
        <time>2021-05-23T06:53:19.983Z</time>
      </trkpt>
      <trkpt lat="47.25007" lon="-2.25706">
        <ele>10</ele>
        <time>2021-05-23T06:53:20.983Z</time>
      </trkpt>
      <trkpt lat="47.25007" lon="-2.25708">
        <ele>9</ele>
        <time>2021-05-23T06:53:21.983Z</time>
      </trkpt>
      <trkpt lat="47.25007" lon="-2.25709">
        <ele>8</ele>
        <time>2021-05-23T06:53:22.983Z</time>
      </trkpt>
      <trkpt lat="47.25006" lon="-2.25712">
        <ele>8</ele>
        <time>2021-05-23T06:53:23.982Z</time>
      </trkpt>
      <trkpt lat="47.25004" lon="-2.25714">
        <ele>7</ele>
        <time>2021-05-23T06:53:24.982Z</time>
      </trkpt>
      <trkpt lat="47.25001" lon="-2.25716">
        <ele>6</ele>
        <time>2021-05-23T06:53:25.983Z</time>
      </trkpt>
      <trkpt lat="47.24999" lon="-2.25719">
        <ele>6</ele>
        <time>2021-05-23T06:53:26.983Z</time>
      </trkpt>
      <trkpt lat="47.24997" lon="-2.25722">
        <ele>5</ele>
        <time>2021-05-23T06:53:27.983Z</time>
      </trkpt>
      <trkpt lat="47.24996" lon="-2.25725">
        <ele>5</ele>
        <time>2021-05-23T06:53:28.983Z</time>
      </trkpt>
      <trkpt lat="47.24994" lon="-2.25727">
        <ele>4</ele>
        <time>2021-05-23T06:53:29.983Z</time>
      </trkpt>
      <trkpt lat="47.24993" lon="-2.25731">
        <ele>4</ele>
        <time>2021-05-23T06:53:30.982Z</time>
      </trkpt>
      <trkpt lat="47.24992" lon="-2.25734">
        <ele>4</ele>
        <time>2021-05-23T06:53:31.983Z</time>
      </trkpt>
      <trkpt lat="47.24991" lon="-2.25737">
        <ele>4</ele>
        <time>2021-05-23T06:53:32.983Z</time>
      </trkpt>
      <trkpt lat="47.2499" lon="-2.25741">
        <ele>4</ele>
        <time>2021-05-23T06:53:33.982Z</time>
      </trkpt>
      <trkpt lat="47.2499" lon="-2.25744">
        <ele>3</ele>
        <time>2021-05-23T06:53:34.982Z</time>
      </trkpt>
      <trkpt lat="47.24988" lon="-2.25748">
        <ele>3</ele>
        <time>2021-05-23T06:53:35.982Z</time>
      </trkpt>
      <trkpt lat="47.24987" lon="-2.25751">
        <ele>3</ele>
        <time>2021-05-23T06:53:36.983Z</time>
      </trkpt>
      <trkpt lat="47.24986" lon="-2.25755">
        <ele>3</ele>
        <time>2021-05-23T06:53:37.982Z</time>
      </trkpt>
      <trkpt lat="47.24986" lon="-2.25758">
        <ele>3</ele>
        <time>2021-05-23T06:53:38.982Z</time>
      </trkpt>
      <trkpt lat="47.24986" lon="-2.25762">
        <ele>2</ele>
        <time>2021-05-23T06:53:39.982Z</time>
      </trkpt>
      <trkpt lat="47.24985" lon="-2.25766">
        <ele>1</ele>
        <time>2021-05-23T06:53:40.982Z</time>
      </trkpt>
      <trkpt lat="47.24985" lon="-2.25769">
        <ele>15.2</ele>
        <time>2021-05-23T06:53:41.983Z</time>
      </trkpt>
      <trkpt lat="47.24984" lon="-2.25773">
        <ele>15.4</ele>
        <time>2021-05-23T06:53:42.982Z</time>
      </trkpt>
      <trkpt lat="47.24984" lon="-2.25776">
        <ele>15.6</ele>
        <time>2021-05-23T06:53:43.983Z</time>
      </trkpt>
      <trkpt lat="47.24984" lon="-2.25779">
        <ele>15.8</ele>
        <time>2021-05-23T06:53:44.983Z</time>
      </trkpt>
      <trkpt lat="47.24983" lon="-2.25782">
        <ele>15.9</ele>
        <time>2021-05-23T06:53:45.983Z</time>
      </trkpt>
      <trkpt lat="47.24982" lon="-2.25786">
        <ele>16.1</ele>
        <time>2021-05-23T06:53:46.982Z</time>
      </trkpt>
      <trkpt lat="47.24981" lon="-2.25789">
        <ele>16.3</ele>
        <time>2021-05-23T06:53:47.982Z</time>
      </trkpt>
      <trkpt lat="47.2498" lon="-2.25793">
        <ele>16.6</ele>
        <time>2021-05-23T06:53:48.983Z</time>
      </trkpt>
      <trkpt lat="47.2498" lon="-2.25796">
        <ele>16.7</ele>
        <time>2021-05-23T06:53:49.983Z</time>
      </trkpt>
      <trkpt lat="47.24979" lon="-2.25799">
        <ele>17</ele>
        <time>2021-05-23T06:53:50.983Z</time>
      </trkpt>
      <trkpt lat="47.24978" lon="-2.25803">
        <ele>17.2</ele>
        <time>2021-05-23T06:53:51.983Z</time>
      </trkpt>
      <trkpt lat="47.24978" lon="-2.25806">
        <ele>17.3</ele>
        <time>2021-05-23T06:53:52.982Z</time>
      </trkpt>
      <trkpt lat="47.24977" lon="-2.25809">
        <ele>17.6</ele>
        <time>2021-05-23T06:53:53.983Z</time>
      </trkpt>
      <trkpt lat="47.24977" lon="-2.25812">
        <ele>-1</ele>
        <time>2021-05-23T06:53:54.983Z</time>
      </trkpt>
      <trkpt lat="47.24977" lon="-2.25815">
        <ele>-1</ele>
        <time>2021-05-23T06:53:55.983Z</time>
      </trkpt>
      <trkpt lat="47.24977" lon="-2.25818">
        <ele>18.1</ele>
        <time>2021-05-23T06:53:56.983Z</time>
      </trkpt>
      <trkpt lat="47.24976" lon="-2.25821">
        <ele>18.3</ele>
        <time>2021-05-23T06:53:57.983Z</time>
      </trkpt>
      <trkpt lat="47.24975" lon="-2.25825">
        <ele>18.5</ele>
        <time>2021-05-23T06:53:58.982Z</time>
      </trkpt>
      <trkpt lat="47.24975" lon="-2.25828">
        <ele>18.6</ele>
        <time>2021-05-23T06:53:59.983Z</time>
      </trkpt>
      <trkpt lat="47.24974" lon="-2.25831">
        <ele>18.9</ele>
        <time>2021-05-23T06:54:00.983Z</time>
      </trkpt>
      <trkpt lat="47.24973" lon="-2.25834">
        <ele>19</ele>
        <time>2021-05-23T06:54:01.982Z</time>
      </trkpt>
      <trkpt lat="47.24972" lon="-2.25838">
        <ele>19.2</ele>
        <time>2021-05-23T06:54:02.983Z</time>
      </trkpt>
      <trkpt lat="47.24971" lon="-2.25841">
        <ele>-1</ele>
        <time>2021-05-23T06:54:03.983Z</time>
      </trkpt>
      <trkpt lat="47.2497" lon="-2.25844">
        <ele>19.5</ele>
        <time>2021-05-23T06:54:04.983Z</time>
      </trkpt>
      <trkpt lat="47.24969" lon="-2.25847">
        <ele>19.6</ele>
        <time>2021-05-23T06:54:05.983Z</time>
      </trkpt>
      <trkpt lat="47.24967" lon="-2.2585">
        <ele>19.7</ele>
        <time>2021-05-23T06:54:06.982Z</time>
      </trkpt>
      <trkpt lat="47.24966" lon="-2.25853">
        <ele>19.8</ele>
        <time>2021-05-23T06:54:07.982Z</time>
      </trkpt>
      <trkpt lat="47.24965" lon="-2.25856">
        <ele>19.9</ele>
        <time>2021-05-23T06:54:08.983Z</time>
      </trkpt>
      <trkpt lat="47.24964" lon="-2.25859">
        <ele>20</ele>
        <time>2021-05-23T06:54:09.983Z</time>
      </trkpt>
      <trkpt lat="47.24962" lon="-2.25862">
        <ele>20</ele>
        <time>2021-05-23T06:54:10.983Z</time>
      </trkpt>
      <trkpt lat="47.24962" lon="-2.25865">
        <ele>20.1</ele>
        <time>2021-05-23T06:54:11.983Z</time>
      </trkpt>
      <trkpt lat="47.24961" lon="-2.25868">
        <ele>20.2</ele>
        <time>2021-05-23T06:54:12.982Z</time>
      </trkpt>
      <trkpt lat="47.2496" lon="-2.25871">
        <ele>20.2</ele>
        <time>2021-05-23T06:54:13.982Z</time>
      </trkpt>
      <trkpt lat="47.24959" lon="-2.25874">
        <ele>20.3</ele>
        <time>2021-05-23T06:54:14.983Z</time>
      </trkpt>
      <trkpt lat="47.24958" lon="-2.25877">
        <ele>20.3</ele>
        <time>2021-05-23T06:54:15.983Z</time>
      </trkpt>
      <trkpt lat="47.24957" lon="-2.2588">
        <ele>20.3</ele>
        <time>2021-05-23T06:54:16.982Z</time>
      </trkpt>
      <trkpt lat="47.24956" lon="-2.25883">
        <ele>20.3</ele>
        <time>2021-05-23T06:54:17.983Z</time>
      </trkpt>
      <trkpt lat="47.24956" lon="-2.25887">
        <ele>20.4</ele>
        <time>2021-05-23T06:54:18.983Z</time>
      </trkpt>
      <trkpt lat="47.24955" lon="-2.2589">
        <ele>20.4</ele>
        <time>2021-05-23T06:54:19.982Z</time>
      </trkpt>
      <trkpt lat="47.24954" lon="-2.25893">
        <ele>20.4</ele>
        <time>2021-05-23T06:54:20.983Z</time>
      </trkpt>
      <trkpt lat="47.24953" lon="-2.25895">
        <ele>1</ele>
        <time>2021-05-23T06:54:21.983Z</time>
      </trkpt>
      <trkpt lat="47.24952" lon="-2.25898">
        <ele>1</ele>
        <time>2021-05-23T06:54:22.982Z</time>
      </trkpt>
      <trkpt lat="47.2495" lon="-2.25901">
        <ele>1</ele>
        <time>2021-05-23T06:54:23.982Z</time>
      </trkpt>
      <trkpt lat="47.24949" lon="-2.25904">
        <ele>1</ele>
        <time>2021-05-23T06:54:24.982Z</time>
      </trkpt>
      <trkpt lat="47.24947" lon="-2.25906">
        <ele>1</ele>
        <time>2021-05-23T06:54:25.982Z</time>
      </trkpt>
      <trkpt lat="47.24946" lon="-2.25909">
        <ele>1</ele>
        <time>2021-05-23T06:54:26.983Z</time>
      </trkpt>
      <trkpt lat="47.24945" lon="-2.25911">
        <ele>1</ele>
        <time>2021-05-23T06:54:27.983Z</time>
      </trkpt>
      <trkpt lat="47.24945" lon="-2.25914">
        <ele>2</ele>
        <time>2021-05-23T06:54:28.983Z</time>
      </trkpt>
      <trkpt lat="47.24944" lon="-2.25917">
        <ele>2</ele>
        <time>2021-05-23T06:54:29.983Z</time>
      </trkpt>
      <trkpt lat="47.24943" lon="-2.2592">
        <ele>3</ele>
        <time>2021-05-23T06:54:30.983Z</time>
      </trkpt>
      <trkpt lat="47.24942" lon="-2.25923">
        <ele>3</ele>
        <time>2021-05-23T06:54:31.983Z</time>
      </trkpt>
      <trkpt lat="47.24941" lon="-2.25925">
        <ele>3</ele>
        <time>2021-05-23T06:54:32.982Z</time>
      </trkpt>
      <trkpt lat="47.24939" lon="-2.25928">
        <ele>4</ele>
        <time>2021-05-23T06:54:33.983Z</time>
      </trkpt>
      <trkpt lat="47.24938" lon="-2.2593">
        <ele>4</ele>
        <time>2021-05-23T06:54:34.983Z</time>
      </trkpt>
      <trkpt lat="47.24936" lon="-2.25932">
        <ele>5</ele>
        <time>2021-05-23T06:54:35.982Z</time>
      </trkpt>
      <trkpt lat="47.24934" lon="-2.25934">
        <ele>5</ele>
        <time>2021-05-23T06:54:36.983Z</time>
      </trkpt>
      <trkpt lat="47.24932" lon="-2.25936">
        <ele>6</ele>
        <time>2021-05-23T06:54:37.983Z</time>
      </trkpt>
      <trkpt lat="47.24932" lon="-2.25937">
        <ele>6</ele>
        <time>2021-05-23T06:54:38.982Z</time>
      </trkpt>
      <trkpt lat="47.2493" lon="-2.25939">
        <ele>7</ele>
        <time>2021-05-23T06:54:39.983Z</time>
      </trkpt>
      <trkpt lat="47.2493" lon="-2.25939">
        <ele>8</ele>
        <time>2021-05-23T06:54:40.983Z</time>
      </trkpt>
      <trkpt lat="47.24929" lon="-2.25941">
        <ele>9</ele>
        <time>2021-05-23T06:54:41.983Z</time>
      </trkpt>
      <trkpt lat="47.24928" lon="-2.25943">
        <ele>9</ele>
        <time>2021-05-23T06:54:42.983Z</time>
      </trkpt>
      <trkpt lat="47.24926" lon="-2.25944">
        <ele>10</ele>
        <time>2021-05-23T06:54:43.983Z</time>
      </trkpt>
      <trkpt lat="47.24926" lon="-2.25946">
        <ele>11</ele>
        <time>2021-05-23T06:54:44.983Z</time>
      </trkpt>
      <trkpt lat="47.24925" lon="-2.25948">
        <ele>12</ele>
        <time>2021-05-23T06:54:45.982Z</time>
      </trkpt>
      <trkpt lat="47.24924" lon="-2.25949">
        <ele>13</ele>
        <time>2021-05-23T06:54:46.983Z</time>
      </trkpt>
      <trkpt lat="47.24924" lon="-2.25951">
        <ele>14</ele>
        <time>2021-05-23T06:54:47.982Z</time>
      </trkpt>
      <trkpt lat="47.24923" lon="-2.25952">
        <ele>15</ele>
        <time>2021-05-23T06:54:48.982Z</time>
      </trkpt>
      <trkpt lat="47.24923" lon="-2.25954">
        <ele>15</ele>
        <time>2021-05-23T06:54:49.982Z</time>
      </trkpt>
      <trkpt lat="47.24923" lon="-2.25956">
        <ele>16</ele>
        <time>2021-05-23T06:54:50.983Z</time>
      </trkpt>
      <trkpt lat="47.24923" lon="-2.25957">
        <ele>16</ele>
        <time>2021-05-23T06:54:51.983Z</time>
      </trkpt>
      <trkpt lat="47.24922" lon="-2.25958">
        <ele>17</ele>
        <time>2021-05-23T06:54:52.983Z</time>
      </trkpt>
      <trkpt lat="47.24922" lon="-2.25958">
        <ele>17</ele>
        <time>2021-05-23T06:54:53.982Z</time>
      </trkpt>
      <trkpt lat="47.24923" lon="-2.25959">
        <ele>17</ele>
        <time>2021-05-23T06:54:54.983Z</time>
      </trkpt>
      <trkpt lat="47.24923" lon="-2.25959">
        <ele>17</ele>
        <time>2021-05-23T06:54:55.983Z</time>
      </trkpt>
      <trkpt lat="47.24923" lon="-2.2596">
        <ele>18</ele>
        <time>2021-05-23T06:54:56.983Z</time>
      </trkpt>
      <trkpt lat="47.24923" lon="-2.25961">
        <ele>18</ele>
        <time>2021-05-23T06:54:57.982Z</time>
      </trkpt>
      <trkpt lat="47.24923" lon="-2.25962">
        <ele>18</ele>
        <time>2021-05-23T06:54:58.982Z</time>
      </trkpt>
      <trkpt lat="47.24923" lon="-2.25963">
        <ele>18</ele>
        <time>2021-05-23T06:54:59.983Z</time>
      </trkpt>
      <trkpt lat="47.24923" lon="-2.25964">
        <ele>18</ele>
        <time>2021-05-23T06:55:00.983Z</time>
      </trkpt>
      <trkpt lat="47.24923" lon="-2.25965">
        <ele>18</ele>
        <time>2021-05-23T06:55:01.983Z</time>
      </trkpt>
      <trkpt lat="47.24923" lon="-2.25966">
        <ele>18</ele>
        <time>2021-05-23T06:55:02.982Z</time>
      </trkpt>
      <trkpt lat="47.24922" lon="-2.25966">
        <ele>18</ele>
        <time>2021-05-23T06:55:03.983Z</time>
      </trkpt>
      <trkpt lat="47.24921" lon="-2.25967">
        <ele>18</ele>
        <time>2021-05-23T06:55:04.983Z</time>
      </trkpt>
      <trkpt lat="47.24921" lon="-2.25968">
        <ele>18</ele>
        <time>2021-05-23T06:55:05.982Z</time>
      </trkpt>
      <trkpt lat="47.24921" lon="-2.25969">
        <ele>18</ele>
        <time>2021-05-23T06:55:06.982Z</time>
      </trkpt>
      <trkpt lat="47.24922" lon="-2.25971">
        <ele>18</ele>
        <time>2021-05-23T06:55:07.983Z</time>
      </trkpt>
      <trkpt lat="47.24924" lon="-2.25971">
        <ele>17</ele>
        <time>2021-05-23T06:55:08.983Z</time>
      </trkpt>
      <trkpt lat="47.24924" lon="-2.25973">
        <ele>17</ele>
        <time>2021-05-23T06:55:09.983Z</time>
      </trkpt>
      <trkpt lat="47.24925" lon="-2.25974">
        <ele>17</ele>
        <time>2021-05-23T06:55:10.983Z</time>
      </trkpt>
      <trkpt lat="47.24927" lon="-2.25975">
        <ele>17</ele>
        <time>2021-05-23T06:55:11.983Z</time>
      </trkpt>
      <trkpt lat="47.24928" lon="-2.25975">
        <ele>17</ele>
        <time>2021-05-23T06:55:12.982Z</time>
      </trkpt>
      <trkpt lat="47.24931" lon="-2.25974">
        <ele>17</ele>
        <time>2021-05-23T06:55:13.983Z</time>
      </trkpt>
      <trkpt lat="47.24933" lon="-2.25974">
        <ele>16</ele>
        <time>2021-05-23T06:55:14.983Z</time>
      </trkpt>
      <trkpt lat="47.24934" lon="-2.25973">
        <ele>16</ele>
        <time>2021-05-23T06:55:15.983Z</time>
      </trkpt>
      <trkpt lat="47.24935" lon="-2.25973">
        <ele>16</ele>
        <time>2021-05-23T06:55:16.982Z</time>
      </trkpt>
      <trkpt lat="47.24935" lon="-2.25973">
        <ele>16</ele>
        <time>2021-05-23T06:55:17.983Z</time>
      </trkpt>
      <trkpt lat="47.24935" lon="-2.25973">
        <ele>16</ele>
        <time>2021-05-23T06:55:18.983Z</time>
      </trkpt>
      <trkpt lat="47.24934" lon="-2.25973">
        <ele>16</ele>
        <time>2021-05-23T06:55:19.982Z</time>
      </trkpt>
      <trkpt lat="47.24932" lon="-2.25973">
        <ele>15</ele>
        <time>2021-05-23T06:55:20.982Z</time>
      </trkpt>
      <trkpt lat="47.24931" lon="-2.25974">
        <ele>15</ele>
        <time>2021-05-23T06:55:21.983Z</time>
      </trkpt>
      <trkpt lat="47.2493" lon="-2.25973">
        <ele>15</ele>
        <time>2021-05-23T06:55:22.982Z</time>
      </trkpt>
      <trkpt lat="47.2493" lon="-2.25973">
        <ele>14</ele>
        <time>2021-05-23T06:55:23.983Z</time>
      </trkpt>
      <trkpt lat="47.2493" lon="-2.25972">
        <ele>14</ele>
        <time>2021-05-23T06:55:24.982Z</time>
      </trkpt>
      <trkpt lat="47.24931" lon="-2.2597">
        <ele>14</ele>
        <time>2021-05-23T06:55:25.982Z</time>
      </trkpt>
      <trkpt lat="47.24932" lon="-2.25968">
        <ele>13</ele>
        <time>2021-05-23T06:55:26.982Z</time>
      </trkpt>
      <trkpt lat="47.24934" lon="-2.25966">
        <ele>13</ele>
        <time>2021-05-23T06:55:27.982Z</time>
      </trkpt>
      <trkpt lat="47.24936" lon="-2.25964">
        <ele>13</ele>
        <time>2021-05-23T06:55:28.982Z</time>
      </trkpt>
      <trkpt lat="47.24935" lon="-2.25963">
        <ele>12</ele>
        <time>2021-05-23T06:55:29.982Z</time>
      </trkpt>
      <trkpt lat="47.24934" lon="-2.25964">
        <ele>12</ele>
        <time>2021-05-23T06:55:30.983Z</time>
      </trkpt>
      <trkpt lat="47.24934" lon="-2.25965">
        <ele>12</ele>
        <time>2021-05-23T06:55:31.982Z</time>
      </trkpt>
      <trkpt lat="47.24932" lon="-2.25967">
        <ele>12</ele>
        <time>2021-05-23T06:55:32.983Z</time>
      </trkpt>
      <trkpt lat="47.24931" lon="-2.25968">
        <ele>12</ele>
        <time>2021-05-23T06:55:33.982Z</time>
      </trkpt>
      <trkpt lat="47.24931" lon="-2.25969">
        <ele>12</ele>
        <time>2021-05-23T06:55:34.983Z</time>
      </trkpt>
      <trkpt lat="47.24932" lon="-2.25969">
        <ele>12</ele>
        <time>2021-05-23T06:55:35.983Z</time>
      </trkpt>
      <trkpt lat="47.24934" lon="-2.25968">
        <ele>12</ele>
        <time>2021-05-23T06:55:36.982Z</time>
      </trkpt>
      <trkpt lat="47.24935" lon="-2.25967">
        <ele>12</ele>
        <time>2021-05-23T06:55:37.983Z</time>
      </trkpt>
      <trkpt lat="47.24936" lon="-2.25967">
        <ele>13</ele>
        <time>2021-05-23T06:55:38.983Z</time>
      </trkpt>
      <trkpt lat="47.24936" lon="-2.25967">
        <ele>13</ele>
        <time>2021-05-23T06:55:39.982Z</time>
      </trkpt>
      <trkpt lat="47.24936" lon="-2.25967">
        <ele>13</ele>
        <time>2021-05-23T06:55:40.982Z</time>
      </trkpt>
      <trkpt lat="47.24936" lon="-2.25967">
        <ele>13</ele>
        <time>2021-05-23T06:55:41.983Z</time>
      </trkpt>
      <trkpt lat="47.24936" lon="-2.25968">
        <ele>13</ele>
        <time>2021-05-23T06:55:42.983Z</time>
      </trkpt>
      <trkpt lat="47.24936" lon="-2.25969">
        <ele>13</ele>
        <time>2021-05-23T06:55:43.983Z</time>
      </trkpt>
      <trkpt lat="47.24936" lon="-2.2597">
        <ele>13</ele>
        <time>2021-05-23T06:55:44.983Z</time>
      </trkpt>
      <trkpt lat="47.24935" lon="-2.25971">
        <ele>14</ele>
        <time>2021-05-23T06:55:45.983Z</time>
      </trkpt>
      <trkpt lat="47.24935" lon="-2.25972">
        <ele>14</ele>
        <time>2021-05-23T06:55:46.982Z</time>
      </trkpt>
      <trkpt lat="47.24935" lon="-2.25973">
        <ele>14</ele>
        <time>2021-05-23T06:55:47.983Z</time>
      </trkpt>
      <trkpt lat="47.24934" lon="-2.25975">
        <ele>14</ele>
        <time>2021-05-23T06:55:48.983Z</time>
      </trkpt>
      <trkpt lat="47.24934" lon="-2.25976">
        <ele>15</ele>
        <time>2021-05-23T06:55:49.983Z</time>
      </trkpt>
      <trkpt lat="47.24934" lon="-2.25977">
        <ele>15</ele>
        <time>2021-05-23T06:55:50.982Z</time>
      </trkpt>
      <trkpt lat="47.24934" lon="-2.25978">
        <ele>15</ele>
        <time>2021-05-23T06:55:51.983Z</time>
      </trkpt>
      <trkpt lat="47.24934" lon="-2.2598">
        <ele>15</ele>
        <time>2021-05-23T06:55:52.982Z</time>
      </trkpt>
      <trkpt lat="47.24934" lon="-2.25981">
        <ele>16</ele>
        <time>2021-05-23T06:55:53.983Z</time>
      </trkpt>
      <trkpt lat="47.24935" lon="-2.25983">
        <ele>16</ele>
        <time>2021-05-23T06:55:54.982Z</time>
      </trkpt>
      <trkpt lat="47.24935" lon="-2.25985">
        <ele>16</ele>
        <time>2021-05-23T06:55:55.983Z</time>
      </trkpt>
      <trkpt lat="47.24936" lon="-2.25986">
        <ele>16</ele>
        <time>2021-05-23T06:55:56.983Z</time>
      </trkpt>
      <trkpt lat="47.24936" lon="-2.25988">
        <ele>16</ele>
        <time>2021-05-23T06:55:57.983Z</time>
      </trkpt>
      <trkpt lat="47.24936" lon="-2.2599">
        <ele>16</ele>
        <time>2021-05-23T06:55:58.983Z</time>
      </trkpt>
      <trkpt lat="47.24936" lon="-2.25992">
        <ele>17</ele>
        <time>2021-05-23T06:55:59.983Z</time>
      </trkpt>
      <trkpt lat="47.24937" lon="-2.25993">
        <ele>17</ele>
        <time>2021-05-23T06:56:00.983Z</time>
      </trkpt>
      <trkpt lat="47.24937" lon="-2.25994">
        <ele>17</ele>
        <time>2021-05-23T06:56:01.983Z</time>
      </trkpt>
      <trkpt lat="47.24937" lon="-2.25996">
        <ele>17</ele>
        <time>2021-05-23T06:56:02.983Z</time>
      </trkpt>
      <trkpt lat="47.24937" lon="-2.25997">
        <ele>17</ele>
        <time>2021-05-23T06:56:03.982Z</time>
      </trkpt>
      <trkpt lat="47.24937" lon="-2.25998">
        <ele>17</ele>
        <time>2021-05-23T06:56:04.983Z</time>
      </trkpt>
      <trkpt lat="47.24937" lon="-2.26">
        <ele>18</ele>
        <time>2021-05-23T06:56:05.983Z</time>
      </trkpt>
      <trkpt lat="47.24937" lon="-2.26002">
        <ele>19</ele>
        <time>2021-05-23T06:56:06.983Z</time>
      </trkpt>
      <trkpt lat="47.24937" lon="-2.26005">
        <ele>19</ele>
        <time>2021-05-23T06:56:07.983Z</time>
      </trkpt>
      <trkpt lat="47.24937" lon="-2.26006">
        <ele>20</ele>
        <time>2021-05-23T06:56:08.982Z</time>
      </trkpt>
      <trkpt lat="47.24937" lon="-2.26007">
        <ele>21</ele>
        <time>2021-05-23T06:56:09.983Z</time>
      </trkpt>
      <trkpt lat="47.24937" lon="-2.26009">
        <ele>21</ele>
        <time>2021-05-23T06:56:10.983Z</time>
      </trkpt>
      <trkpt lat="47.24935" lon="-2.26011">
        <ele>22</ele>
        <time>2021-05-23T06:56:11.983Z</time>
      </trkpt>
      <trkpt lat="47.24934" lon="-2.26013">
        <ele>22</ele>
        <time>2021-05-23T06:56:12.982Z</time>
      </trkpt>
      <trkpt lat="47.24933" lon="-2.26016">
        <ele>23</ele>
        <time>2021-05-23T06:56:13.982Z</time>
      </trkpt>
      <trkpt lat="47.24932" lon="-2.26019">
        <ele>23</ele>
        <time>2021-05-23T06:56:14.982Z</time>
      </trkpt>
      <trkpt lat="47.24932" lon="-2.26021">
        <ele>23</ele>
        <time>2021-05-23T06:56:15.982Z</time>
      </trkpt>
      <trkpt lat="47.24932" lon="-2.26024">
        <ele>23</ele>
        <time>2021-05-23T06:56:16.982Z</time>
      </trkpt>
      <trkpt lat="47.24932" lon="-2.26027">
        <ele>23</ele>
        <time>2021-05-23T06:56:17.983Z</time>
      </trkpt>
      <trkpt lat="47.24931" lon="-2.2603">
        <ele>24</ele>
        <time>2021-05-23T06:56:18.983Z</time>
      </trkpt>
      <trkpt lat="47.24931" lon="-2.26034">
        <ele>24</ele>
        <time>2021-05-23T06:56:19.982Z</time>
      </trkpt>
      <trkpt lat="47.24931" lon="-2.26036">
        <ele>24</ele>
        <time>2021-05-23T06:56:20.983Z</time>
      </trkpt>
      <trkpt lat="47.24931" lon="-2.2604">
        <ele>25</ele>
        <time>2021-05-23T06:56:21.983Z</time>
      </trkpt>
      <trkpt lat="47.2493" lon="-2.26043">
        <ele>25</ele>
        <time>2021-05-23T06:56:22.983Z</time>
      </trkpt>
      <trkpt lat="47.2493" lon="-2.26046">
        <ele>26</ele>
        <time>2021-05-23T06:56:23.982Z</time>
      </trkpt>
      <trkpt lat="47.2493" lon="-2.26049">
        <ele>26</ele>
        <time>2021-05-23T06:56:24.983Z</time>
      </trkpt>
      <trkpt lat="47.24929" lon="-2.26051">
        <ele>26</ele>
        <time>2021-05-23T06:56:25.982Z</time>
      </trkpt>
      <trkpt lat="47.24928" lon="-2.26055">
        <ele>27</ele>
        <time>2021-05-23T06:56:26.983Z</time>
      </trkpt>
      <trkpt lat="47.24928" lon="-2.26059">
        <ele>27</ele>
        <time>2021-05-23T06:56:27.983Z</time>
      </trkpt>
      <trkpt lat="47.24927" lon="-2.26063">
        <ele>28</ele>
        <time>2021-05-23T06:56:28.983Z</time>
      </trkpt>
      <trkpt lat="47.24926" lon="-2.26067">
        <ele>28</ele>
        <time>2021-05-23T06:56:29.982Z</time>
      </trkpt>
      <trkpt lat="47.24925" lon="-2.26069">
        <ele>28</ele>
        <time>2021-05-23T06:56:30.983Z</time>
      </trkpt>
      <trkpt lat="47.24923" lon="-2.26072">
        <ele>28</ele>
        <time>2021-05-23T06:56:31.982Z</time>
      </trkpt>
      <trkpt lat="47.24922" lon="-2.26074">
        <ele>28</ele>
        <time>2021-05-23T06:56:32.983Z</time>
      </trkpt>
      <trkpt lat="47.24919" lon="-2.26077">
        <ele>28</ele>
        <time>2021-05-23T06:56:33.983Z</time>
      </trkpt>
      <trkpt lat="47.24917" lon="-2.26079">
        <ele>28</ele>
        <time>2021-05-23T06:56:34.983Z</time>
      </trkpt>
      <trkpt lat="47.24915" lon="-2.2608">
        <ele>28</ele>
        <time>2021-05-23T06:56:35.982Z</time>
      </trkpt>
      <trkpt lat="47.24915" lon="-2.26082">
        <ele>28</ele>
        <time>2021-05-23T06:56:36.983Z</time>
      </trkpt>
      <trkpt lat="47.24915" lon="-2.26084">
        <ele>28</ele>
        <time>2021-05-23T06:56:37.983Z</time>
      </trkpt>
      <trkpt lat="47.24915" lon="-2.26087">
        <ele>28</ele>
        <time>2021-05-23T06:56:38.983Z</time>
      </trkpt>
      <trkpt lat="47.24915" lon="-2.26089">
        <ele>28</ele>
        <time>2021-05-23T06:56:39.983Z</time>
      </trkpt>
      <trkpt lat="47.24915" lon="-2.26091">
        <ele>27</ele>
        <time>2021-05-23T06:56:40.982Z</time>
      </trkpt>
      <trkpt lat="47.24915" lon="-2.26093">
        <ele>27</ele>
        <time>2021-05-23T06:56:41.983Z</time>
      </trkpt>
      <trkpt lat="47.24915" lon="-2.26095">
        <ele>27</ele>
        <time>2021-05-23T06:56:42.983Z</time>
      </trkpt>
      <trkpt lat="47.24915" lon="-2.26098">
        <ele>26</ele>
        <time>2021-05-23T06:56:43.983Z</time>
      </trkpt>
      <trkpt lat="47.24914" lon="-2.261">
        <ele>26</ele>
        <time>2021-05-23T06:56:44.983Z</time>
      </trkpt>
      <trkpt lat="47.24914" lon="-2.26102">
        <ele>26</ele>
        <time>2021-05-23T06:56:45.983Z</time>
      </trkpt>
      <trkpt lat="47.24915" lon="-2.26104">
        <ele>26</ele>
        <time>2021-05-23T06:56:46.982Z</time>
      </trkpt>
      <trkpt lat="47.24915" lon="-2.26105">
        <ele>25</ele>
        <time>2021-05-23T06:56:47.983Z</time>
      </trkpt>
      <trkpt lat="47.24915" lon="-2.26107">
        <ele>25</ele>
        <time>2021-05-23T06:56:48.983Z</time>
      </trkpt>
      <trkpt lat="47.24915" lon="-2.26109">
        <ele>25</ele>
        <time>2021-05-23T06:56:49.983Z</time>
      </trkpt>
      <trkpt lat="47.24915" lon="-2.26111">
        <ele>26</ele>
        <time>2021-05-23T06:56:50.983Z</time>
      </trkpt>
      <trkpt lat="47.24915" lon="-2.26112">
        <ele>26</ele>
        <time>2021-05-23T06:56:51.983Z</time>
      </trkpt>
      <trkpt lat="47.24915" lon="-2.26114">
        <ele>26</ele>
        <time>2021-05-23T06:56:52.982Z</time>
      </trkpt>
      <trkpt lat="47.24915" lon="-2.26115">
        <ele>26</ele>
        <time>2021-05-23T06:56:53.983Z</time>
      </trkpt>
      <trkpt lat="47.24914" lon="-2.26117">
        <ele>26</ele>
        <time>2021-05-23T06:56:54.983Z</time>
      </trkpt>
      <trkpt lat="47.24914" lon="-2.26119">
        <ele>26</ele>
        <time>2021-05-23T06:56:55.983Z</time>
      </trkpt>
      <trkpt lat="47.24914" lon="-2.26121">
        <ele>26</ele>
        <time>2021-05-23T06:56:56.982Z</time>
      </trkpt>
      <trkpt lat="47.24914" lon="-2.26122">
        <ele>26</ele>
        <time>2021-05-23T06:56:57.982Z</time>
      </trkpt>
      <trkpt lat="47.24914" lon="-2.26124">
        <ele>26</ele>
        <time>2021-05-23T06:56:58.982Z</time>
      </trkpt>
      <trkpt lat="47.24914" lon="-2.26126">
        <ele>26</ele>
        <time>2021-05-23T06:56:59.982Z</time>
      </trkpt>
      <trkpt lat="47.24914" lon="-2.26128">
        <ele>26</ele>
        <time>2021-05-23T06:57:00.982Z</time>
      </trkpt>
      <trkpt lat="47.24914" lon="-2.26129">
        <ele>26</ele>
        <time>2021-05-23T06:57:01.982Z</time>
      </trkpt>
      <trkpt lat="47.24914" lon="-2.26131">
        <ele>26</ele>
        <time>2021-05-23T06:57:02.983Z</time>
      </trkpt>
      <trkpt lat="47.24914" lon="-2.26133">
        <ele>27</ele>
        <time>2021-05-23T06:57:03.983Z</time>
      </trkpt>
      <trkpt lat="47.24914" lon="-2.26134">
        <ele>27</ele>
        <time>2021-05-23T06:57:04.983Z</time>
      </trkpt>
      <trkpt lat="47.24915" lon="-2.26136">
        <ele>27</ele>
        <time>2021-05-23T06:57:05.983Z</time>
      </trkpt>
      <trkpt lat="47.24915" lon="-2.26137">
        <ele>27</ele>
        <time>2021-05-23T06:57:06.982Z</time>
      </trkpt>
      <trkpt lat="47.24916" lon="-2.26139">
        <ele>27</ele>
        <time>2021-05-23T06:57:07.983Z</time>
      </trkpt>
      <trkpt lat="47.24916" lon="-2.26141">
        <ele>28</ele>
        <time>2021-05-23T06:57:08.982Z</time>
      </trkpt>
      <trkpt lat="47.24917" lon="-2.26143">
        <ele>28</ele>
        <time>2021-05-23T06:57:09.983Z</time>
      </trkpt>
      <trkpt lat="47.24918" lon="-2.26144">
        <ele>29</ele>
        <time>2021-05-23T06:57:10.983Z</time>
      </trkpt>
      <trkpt lat="47.24919" lon="-2.26145">
        <ele>30</ele>
        <time>2021-05-23T06:57:11.982Z</time>
      </trkpt>
      <trkpt lat="47.24921" lon="-2.26146">
        <ele>31</ele>
        <time>2021-05-23T06:57:12.983Z</time>
      </trkpt>
      <trkpt lat="47.24922" lon="-2.26147">
        <ele>32</ele>
        <time>2021-05-23T06:57:13.983Z</time>
      </trkpt>
      <trkpt lat="47.24923" lon="-2.26148">
        <ele>33</ele>
        <time>2021-05-23T06:57:14.983Z</time>
      </trkpt>
      <trkpt lat="47.24924" lon="-2.26149">
        <ele>33</ele>
        <time>2021-05-23T06:57:15.983Z</time>
      </trkpt>
      <trkpt lat="47.24925" lon="-2.26149">
        <ele>34</ele>
        <time>2021-05-23T06:57:16.983Z</time>
      </trkpt>
      <trkpt lat="47.24925" lon="-2.2615">
        <ele>34</ele>
        <time>2021-05-23T06:57:17.983Z</time>
      </trkpt>
      <trkpt lat="47.24926" lon="-2.26151">
        <ele>35</ele>
        <time>2021-05-23T06:57:18.983Z</time>
      </trkpt>
      <trkpt lat="47.24928" lon="-2.26152">
        <ele>35</ele>
        <time>2021-05-23T06:57:19.983Z</time>
      </trkpt>
      <trkpt lat="47.24929" lon="-2.26152">
        <ele>36</ele>
        <time>2021-05-23T06:57:20.982Z</time>
      </trkpt>
      <trkpt lat="47.2493" lon="-2.26152">
        <ele>36</ele>
        <time>2021-05-23T06:57:21.983Z</time>
      </trkpt>
      <trkpt lat="47.24931" lon="-2.26152">
        <ele>36</ele>
        <time>2021-05-23T06:57:22.983Z</time>
      </trkpt>
      <trkpt lat="47.24933" lon="-2.26151">
        <ele>35</ele>
        <time>2021-05-23T06:57:23.983Z</time>
      </trkpt>
      <trkpt lat="47.24934" lon="-2.26151">
        <ele>35</ele>
        <time>2021-05-23T06:57:24.983Z</time>
      </trkpt>
      <trkpt lat="47.24935" lon="-2.26152">
        <ele>35</ele>
        <time>2021-05-23T06:57:25.983Z</time>
      </trkpt>
      <trkpt lat="47.24937" lon="-2.26152">
        <ele>34</ele>
        <time>2021-05-23T06:57:26.983Z</time>
      </trkpt>
      <trkpt lat="47.24938" lon="-2.26152">
        <ele>33</ele>
        <time>2021-05-23T06:57:27.982Z</time>
      </trkpt>
      <trkpt lat="47.24939" lon="-2.26152">
        <ele>33</ele>
        <time>2021-05-23T06:57:28.983Z</time>
      </trkpt>
      <trkpt lat="47.24941" lon="-2.26152">
        <ele>32</ele>
        <time>2021-05-23T06:57:29.982Z</time>
      </trkpt>
      <trkpt lat="47.24942" lon="-2.26153">
        <ele>32</ele>
        <time>2021-05-23T06:57:30.983Z</time>
      </trkpt>
      <trkpt lat="47.24944" lon="-2.26153">
        <ele>31</ele>
        <time>2021-05-23T06:57:31.983Z</time>
      </trkpt>
      <trkpt lat="47.24945" lon="-2.26153">
        <ele>31</ele>
        <time>2021-05-23T06:57:32.983Z</time>
      </trkpt>
      <trkpt lat="47.24947" lon="-2.26153">
        <ele>30</ele>
        <time>2021-05-23T06:57:33.983Z</time>
      </trkpt>
      <trkpt lat="47.24949" lon="-2.26153">
        <ele>30</ele>
        <time>2021-05-23T06:57:34.983Z</time>
      </trkpt>
      <trkpt lat="47.24951" lon="-2.26154">
        <ele>30</ele>
        <time>2021-05-23T06:57:35.982Z</time>
      </trkpt>
      <trkpt lat="47.24953" lon="-2.26154">
        <ele>30</ele>
        <time>2021-05-23T06:57:36.983Z</time>
      </trkpt>
      <trkpt lat="47.24954" lon="-2.26154">
        <ele>30</ele>
        <time>2021-05-23T06:57:37.983Z</time>
      </trkpt>
      <trkpt lat="47.24956" lon="-2.26154">
        <ele>30</ele>
        <time>2021-05-23T06:57:38.983Z</time>
      </trkpt>
      <trkpt lat="47.24957" lon="-2.26155">
        <ele>30</ele>
        <time>2021-05-23T06:57:39.982Z</time>
      </trkpt>
      <trkpt lat="47.24958" lon="-2.26155">
        <ele>30</ele>
        <time>2021-05-23T06:57:40.982Z</time>
      </trkpt>
      <trkpt lat="47.2496" lon="-2.26155">
        <ele>30</ele>
        <time>2021-05-23T06:57:41.982Z</time>
      </trkpt>
      <trkpt lat="47.24961" lon="-2.26156">
        <ele>30</ele>
        <time>2021-05-23T06:57:42.983Z</time>
      </trkpt>
      <trkpt lat="47.24963" lon="-2.26156">
        <ele>30</ele>
        <time>2021-05-23T06:57:43.982Z</time>
      </trkpt>
      <trkpt lat="47.24964" lon="-2.26157">
        <ele>30</ele>
        <time>2021-05-23T06:57:44.982Z</time>
      </trkpt>
      <trkpt lat="47.24966" lon="-2.26157">
        <ele>31</ele>
        <time>2021-05-23T06:57:45.982Z</time>
      </trkpt>
      <trkpt lat="47.24967" lon="-2.26158">
        <ele>31</ele>
        <time>2021-05-23T06:57:46.983Z</time>
      </trkpt>
      <trkpt lat="47.24968" lon="-2.26159">
        <ele>32</ele>
        <time>2021-05-23T06:57:47.982Z</time>
      </trkpt>
      <trkpt lat="47.2497" lon="-2.26159">
        <ele>33</ele>
        <time>2021-05-23T06:57:48.982Z</time>
      </trkpt>
      <trkpt lat="47.24971" lon="-2.2616">
        <ele>33</ele>
        <time>2021-05-23T06:57:49.982Z</time>
      </trkpt>
      <trkpt lat="47.24973" lon="-2.26161">
        <ele>34</ele>
        <time>2021-05-23T06:57:50.982Z</time>
      </trkpt>
      <trkpt lat="47.24974" lon="-2.26162">
        <ele>34</ele>
        <time>2021-05-23T06:57:51.982Z</time>
      </trkpt>
      <trkpt lat="47.24976" lon="-2.26162">
        <ele>35</ele>
        <time>2021-05-23T06:57:52.982Z</time>
      </trkpt>
      <trkpt lat="47.24977" lon="-2.26162">
        <ele>35</ele>
        <time>2021-05-23T06:57:53.983Z</time>
      </trkpt>
      <trkpt lat="47.24978" lon="-2.26162">
        <ele>34</ele>
        <time>2021-05-23T06:57:54.983Z</time>
      </trkpt>
      <trkpt lat="47.24979" lon="-2.26162">
        <ele>34</ele>
        <time>2021-05-23T06:57:55.982Z</time>
      </trkpt>
      <trkpt lat="47.24981" lon="-2.26162">
        <ele>33</ele>
        <time>2021-05-23T06:57:56.982Z</time>
      </trkpt>
      <trkpt lat="47.24982" lon="-2.26161">
        <ele>32</ele>
        <time>2021-05-23T06:57:57.982Z</time>
      </trkpt>
      <trkpt lat="47.24983" lon="-2.26161">
        <ele>32</ele>
        <time>2021-05-23T06:57:58.983Z</time>
      </trkpt>
      <trkpt lat="47.24985" lon="-2.26161">
        <ele>31</ele>
        <time>2021-05-23T06:57:59.982Z</time>
      </trkpt>
      <trkpt lat="47.24987" lon="-2.26161">
        <ele>31</ele>
        <time>2021-05-23T06:58:00.983Z</time>
      </trkpt>
      <trkpt lat="47.24989" lon="-2.2616">
        <ele>31</ele>
        <time>2021-05-23T06:58:01.982Z</time>
      </trkpt>
      <trkpt lat="47.24991" lon="-2.26161">
        <ele>31</ele>
        <time>2021-05-23T06:58:02.982Z</time>
      </trkpt>
      <trkpt lat="47.24992" lon="-2.26162">
        <ele>31</ele>
        <time>2021-05-23T06:58:03.982Z</time>
      </trkpt>
      <trkpt lat="47.24994" lon="-2.26162">
        <ele>31</ele>
        <time>2021-05-23T06:58:04.982Z</time>
      </trkpt>
      <trkpt lat="47.24995" lon="-2.26163">
        <ele>32</ele>
        <time>2021-05-23T06:58:05.982Z</time>
      </trkpt>
      <trkpt lat="47.24996" lon="-2.26164">
        <ele>32</ele>
        <time>2021-05-23T06:58:06.982Z</time>
      </trkpt>
      <trkpt lat="47.24997" lon="-2.26165">
        <ele>32</ele>
        <time>2021-05-23T06:58:07.982Z</time>
      </trkpt>
      <trkpt lat="47.24998" lon="-2.26167">
        <ele>33</ele>
        <time>2021-05-23T06:58:08.982Z</time>
      </trkpt>
      <trkpt lat="47.24999" lon="-2.26169">
        <ele>33</ele>
        <time>2021-05-23T06:58:09.983Z</time>
      </trkpt>
      <trkpt lat="47.24999" lon="-2.26171">
        <ele>33</ele>
        <time>2021-05-23T06:58:10.982Z</time>
      </trkpt>
      <trkpt lat="47.25" lon="-2.26173">
        <ele>33</ele>
        <time>2021-05-23T06:58:11.983Z</time>
      </trkpt>
      <trkpt lat="47.25" lon="-2.26175">
        <ele>33</ele>
        <time>2021-05-23T06:58:12.982Z</time>
      </trkpt>
      <trkpt lat="47.25" lon="-2.26178">
        <ele>34</ele>
        <time>2021-05-23T06:58:13.983Z</time>
      </trkpt>
      <trkpt lat="47.24999" lon="-2.26181">
        <ele>34</ele>
        <time>2021-05-23T06:58:14.982Z</time>
      </trkpt>
      <trkpt lat="47.25" lon="-2.26183">
        <ele>34</ele>
        <time>2021-05-23T06:58:15.983Z</time>
      </trkpt>
      <trkpt lat="47.25" lon="-2.26186">
        <ele>34</ele>
        <time>2021-05-23T06:58:16.982Z</time>
      </trkpt>
      <trkpt lat="47.25" lon="-2.26188">
        <ele>34</ele>
        <time>2021-05-23T06:58:17.982Z</time>
      </trkpt>
      <trkpt lat="47.25" lon="-2.2619">
        <ele>34</ele>
        <time>2021-05-23T06:58:18.983Z</time>
      </trkpt>
      <trkpt lat="47.24999" lon="-2.26192">
        <ele>34</ele>
        <time>2021-05-23T06:58:19.983Z</time>
      </trkpt>
      <trkpt lat="47.24999" lon="-2.26195">
        <ele>34</ele>
        <time>2021-05-23T06:58:20.982Z</time>
      </trkpt>
      <trkpt lat="47.24999" lon="-2.26197">
        <ele>33</ele>
        <time>2021-05-23T06:58:21.983Z</time>
      </trkpt>
      <trkpt lat="47.24999" lon="-2.26199">
        <ele>33</ele>
        <time>2021-05-23T06:58:22.983Z</time>
      </trkpt>
      <trkpt lat="47.24999" lon="-2.26201">
        <ele>33</ele>
        <time>2021-05-23T06:58:23.983Z</time>
      </trkpt>
      <trkpt lat="47.24999" lon="-2.26203">
        <ele>32</ele>
        <time>2021-05-23T06:58:24.983Z</time>
      </trkpt>
      <trkpt lat="47.24999" lon="-2.26205">
        <ele>32</ele>
        <time>2021-05-23T06:58:25.983Z</time>
      </trkpt>
      <trkpt lat="47.25" lon="-2.26208">
        <ele>32</ele>
        <time>2021-05-23T06:58:26.983Z</time>
      </trkpt>
      <trkpt lat="47.25" lon="-2.2621">
        <ele>32</ele>
        <time>2021-05-23T06:58:27.982Z</time>
      </trkpt>
      <trkpt lat="47.25" lon="-2.26212">
        <ele>32</ele>
        <time>2021-05-23T06:58:28.983Z</time>
      </trkpt>
      <trkpt lat="47.25001" lon="-2.26214">
        <ele>32</ele>
        <time>2021-05-23T06:58:29.982Z</time>
      </trkpt>
      <trkpt lat="47.25001" lon="-2.26216">
        <ele>31</ele>
        <time>2021-05-23T06:58:30.983Z</time>
      </trkpt>
      <trkpt lat="47.25001" lon="-2.26218">
        <ele>31</ele>
        <time>2021-05-23T06:58:31.982Z</time>
      </trkpt>
      <trkpt lat="47.25001" lon="-2.2622">
        <ele>31</ele>
        <time>2021-05-23T06:58:32.982Z</time>
      </trkpt>
      <trkpt lat="47.25001" lon="-2.26222">
        <ele>31</ele>
        <time>2021-05-23T06:58:33.982Z</time>
      </trkpt>
      <trkpt lat="47.25001" lon="-2.26225">
        <ele>31</ele>
        <time>2021-05-23T06:58:34.982Z</time>
      </trkpt>
      <trkpt lat="47.25002" lon="-2.26227">
        <ele>31</ele>
        <time>2021-05-23T06:58:35.983Z</time>
      </trkpt>
      <trkpt lat="47.25002" lon="-2.2623">
        <ele>31</ele>
        <time>2021-05-23T06:58:36.983Z</time>
      </trkpt>
      <trkpt lat="47.25002" lon="-2.26232">
        <ele>31</ele>
        <time>2021-05-23T06:58:37.982Z</time>
      </trkpt>
      <trkpt lat="47.25002" lon="-2.26235">
        <ele>31</ele>
        <time>2021-05-23T06:58:38.983Z</time>
      </trkpt>
      <trkpt lat="47.25001" lon="-2.26237">
        <ele>31</ele>
        <time>2021-05-23T06:58:39.982Z</time>
      </trkpt>
      <trkpt lat="47.25002" lon="-2.26239">
        <ele>31</ele>
        <time>2021-05-23T06:58:40.983Z</time>
      </trkpt>
      <trkpt lat="47.25002" lon="-2.26241">
        <ele>30</ele>
        <time>2021-05-23T06:58:41.983Z</time>
      </trkpt>
      <trkpt lat="47.25002" lon="-2.26244">
        <ele>30</ele>
        <time>2021-05-23T06:58:42.982Z</time>
      </trkpt>
      <trkpt lat="47.25003" lon="-2.26247">
        <ele>30</ele>
        <time>2021-05-23T06:58:43.983Z</time>
      </trkpt>
      <trkpt lat="47.25003" lon="-2.26249">
        <ele>30</ele>
        <time>2021-05-23T06:58:44.982Z</time>
      </trkpt>
      <trkpt lat="47.25003" lon="-2.26251">
        <ele>30</ele>
        <time>2021-05-23T06:58:45.982Z</time>
      </trkpt>
      <trkpt lat="47.25003" lon="-2.26253">
        <ele>30</ele>
        <time>2021-05-23T06:58:46.983Z</time>
      </trkpt>
      <trkpt lat="47.25003" lon="-2.26256">
        <ele>30</ele>
        <time>2021-05-23T06:58:47.982Z</time>
      </trkpt>
      <trkpt lat="47.25003" lon="-2.26257">
        <ele>30</ele>
        <time>2021-05-23T06:58:48.982Z</time>
      </trkpt>
      <trkpt lat="47.25004" lon="-2.26259">
        <ele>30</ele>
        <time>2021-05-23T06:58:49.982Z</time>
      </trkpt>
      <trkpt lat="47.25004" lon="-2.26261">
        <ele>30</ele>
        <time>2021-05-23T06:58:50.983Z</time>
      </trkpt>
      <trkpt lat="47.25004" lon="-2.26264">
        <ele>30</ele>
        <time>2021-05-23T06:58:51.982Z</time>
      </trkpt>
      <trkpt lat="47.25005" lon="-2.26266">
        <ele>31</ele>
        <time>2021-05-23T06:58:52.983Z</time>
      </trkpt>
      <trkpt lat="47.25006" lon="-2.26268">
        <ele>31</ele>
        <time>2021-05-23T06:58:53.982Z</time>
      </trkpt>
      <trkpt lat="47.25007" lon="-2.26271">
        <ele>31</ele>
        <time>2021-05-23T06:58:54.983Z</time>
      </trkpt>
      <trkpt lat="47.25007" lon="-2.26273">
        <ele>32</ele>
        <time>2021-05-23T06:58:55.982Z</time>
      </trkpt>
      <trkpt lat="47.25007" lon="-2.26276">
        <ele>32</ele>
        <time>2021-05-23T06:58:56.983Z</time>
      </trkpt>
      <trkpt lat="47.25007" lon="-2.26278">
        <ele>32</ele>
        <time>2021-05-23T06:58:57.983Z</time>
      </trkpt>
      <trkpt lat="47.25008" lon="-2.2628">
        <ele>31</ele>
        <time>2021-05-23T06:58:58.983Z</time>
      </trkpt>
      <trkpt lat="47.25008" lon="-2.26283">
        <ele>31</ele>
        <time>2021-05-23T06:58:59.983Z</time>
      </trkpt>
      <trkpt lat="47.25008" lon="-2.26285">
        <ele>31</ele>
        <time>2021-05-23T06:59:00.983Z</time>
      </trkpt>
      <trkpt lat="47.25009" lon="-2.26287">
        <ele>31</ele>
        <time>2021-05-23T06:59:01.982Z</time>
      </trkpt>
      <trkpt lat="47.25009" lon="-2.26289">
        <ele>31</ele>
        <time>2021-05-23T06:59:02.983Z</time>
      </trkpt>
      <trkpt lat="47.25009" lon="-2.26292">
        <ele>30</ele>
        <time>2021-05-23T06:59:03.982Z</time>
      </trkpt>
      <trkpt lat="47.2501" lon="-2.26294">
        <ele>30</ele>
        <time>2021-05-23T06:59:04.983Z</time>
      </trkpt>
      <trkpt lat="47.2501" lon="-2.26296">
        <ele>29</ele>
        <time>2021-05-23T06:59:05.983Z</time>
      </trkpt>
      <trkpt lat="47.2501" lon="-2.26297">
        <ele>29</ele>
        <time>2021-05-23T06:59:06.982Z</time>
      </trkpt>
      <trkpt lat="47.25011" lon="-2.26299">
        <ele>28</ele>
        <time>2021-05-23T06:59:07.982Z</time>
      </trkpt>
      <trkpt lat="47.25011" lon="-2.26301">
        <ele>28</ele>
        <time>2021-05-23T06:59:08.983Z</time>
      </trkpt>
      <trkpt lat="47.25011" lon="-2.26303">
        <ele>28</ele>
        <time>2021-05-23T06:59:09.983Z</time>
      </trkpt>
      <trkpt lat="47.25011" lon="-2.26305">
        <ele>27</ele>
        <time>2021-05-23T06:59:10.983Z</time>
      </trkpt>
      <trkpt lat="47.25012" lon="-2.26307">
        <ele>27</ele>
        <time>2021-05-23T06:59:11.982Z</time>
      </trkpt>
      <trkpt lat="47.25012" lon="-2.26309">
        <ele>27</ele>
        <time>2021-05-23T06:59:12.983Z</time>
      </trkpt>
      <trkpt lat="47.25013" lon="-2.26311">
        <ele>27</ele>
        <time>2021-05-23T06:59:13.983Z</time>
      </trkpt>
      <trkpt lat="47.25013" lon="-2.26313">
        <ele>27</ele>
        <time>2021-05-23T06:59:14.983Z</time>
      </trkpt>
      <trkpt lat="47.25013" lon="-2.26315">
        <ele>27</ele>
        <time>2021-05-23T06:59:15.983Z</time>
      </trkpt>
      <trkpt lat="47.25013" lon="-2.26318">
        <ele>28</ele>
        <time>2021-05-23T06:59:16.983Z</time>
      </trkpt>
      <trkpt lat="47.25013" lon="-2.2632">
        <ele>28</ele>
        <time>2021-05-23T06:59:17.982Z</time>
      </trkpt>
      <trkpt lat="47.25013" lon="-2.26322">
        <ele>28</ele>
        <time>2021-05-23T06:59:18.983Z</time>
      </trkpt>
      <trkpt lat="47.25013" lon="-2.26324">
        <ele>28</ele>
        <time>2021-05-23T06:59:19.983Z</time>
      </trkpt>
      <trkpt lat="47.25013" lon="-2.26327">
        <ele>29</ele>
        <time>2021-05-23T06:59:20.982Z</time>
      </trkpt>
      <trkpt lat="47.25013" lon="-2.2633">
        <ele>29</ele>
        <time>2021-05-23T06:59:21.982Z</time>
      </trkpt>
      <trkpt lat="47.25013" lon="-2.26333">
        <ele>29</ele>
        <time>2021-05-23T06:59:22.983Z</time>
      </trkpt>
      <trkpt lat="47.25014" lon="-2.26337">
        <ele>30</ele>
        <time>2021-05-23T06:59:23.982Z</time>
      </trkpt>
      <trkpt lat="47.25014" lon="-2.2634">
        <ele>30</ele>
        <time>2021-05-23T06:59:24.983Z</time>
      </trkpt>
      <trkpt lat="47.25014" lon="-2.26344">
        <ele>30</ele>
        <time>2021-05-23T06:59:25.983Z</time>
      </trkpt>
      <trkpt lat="47.25014" lon="-2.26348">
        <ele>30</ele>
        <time>2021-05-23T06:59:26.983Z</time>
      </trkpt>
      <trkpt lat="47.25013" lon="-2.26352">
        <ele>30</ele>
        <time>2021-05-23T06:59:27.983Z</time>
      </trkpt>
      <trkpt lat="47.25012" lon="-2.26355">
        <ele>29</ele>
        <time>2021-05-23T06:59:28.983Z</time>
      </trkpt>
      <trkpt lat="47.25012" lon="-2.26357">
        <ele>29</ele>
        <time>2021-05-23T06:59:29.983Z</time>
      </trkpt>
      <trkpt lat="47.25011" lon="-2.2636">
        <ele>29</ele>
        <time>2021-05-23T06:59:30.982Z</time>
      </trkpt>
      <trkpt lat="47.25009" lon="-2.26362">
        <ele>29</ele>
        <time>2021-05-23T06:59:31.983Z</time>
      </trkpt>
      <trkpt lat="47.25007" lon="-2.26364">
        <ele>28</ele>
        <time>2021-05-23T06:59:32.982Z</time>
      </trkpt>
      <trkpt lat="47.25006" lon="-2.26365">
        <ele>28</ele>
        <time>2021-05-23T06:59:33.983Z</time>
      </trkpt>
      <trkpt lat="47.25004" lon="-2.26367">
        <ele>28</ele>
        <time>2021-05-23T06:59:34.982Z</time>
      </trkpt>
      <trkpt lat="47.25002" lon="-2.26368">
        <ele>27</ele>
        <time>2021-05-23T06:59:35.983Z</time>
      </trkpt>
      <trkpt lat="47.24998" lon="-2.26371">
        <ele>27</ele>
        <time>2021-05-23T06:59:36.983Z</time>
      </trkpt>
      <trkpt lat="47.24996" lon="-2.26372">
        <ele>28</ele>
        <time>2021-05-23T06:59:37.982Z</time>
      </trkpt>
      <trkpt lat="47.24994" lon="-2.26374">
        <ele>28</ele>
        <time>2021-05-23T06:59:38.983Z</time>
      </trkpt>
      <trkpt lat="47.24992" lon="-2.26375">
        <ele>28</ele>
        <time>2021-05-23T06:59:39.983Z</time>
      </trkpt>
      <trkpt lat="47.24989" lon="-2.26377">
        <ele>28</ele>
        <time>2021-05-23T06:59:40.983Z</time>
      </trkpt>
      <trkpt lat="47.24987" lon="-2.26378">
        <ele>28</ele>
        <time>2021-05-23T06:59:41.982Z</time>
      </trkpt>
      <trkpt lat="47.24986" lon="-2.26379">
        <ele>28</ele>
        <time>2021-05-23T06:59:42.983Z</time>
      </trkpt>
      <trkpt lat="47.24984" lon="-2.2638">
        <ele>28</ele>
        <time>2021-05-23T06:59:43.983Z</time>
      </trkpt>
      <trkpt lat="47.24983" lon="-2.26382">
        <ele>28</ele>
        <time>2021-05-23T06:59:44.983Z</time>
      </trkpt>
      <trkpt lat="47.24981" lon="-2.26383">
        <ele>29</ele>
        <time>2021-05-23T06:59:45.983Z</time>
      </trkpt>
      <trkpt lat="47.24979" lon="-2.26385">
        <ele>29</ele>
        <time>2021-05-23T06:59:46.983Z</time>
      </trkpt>
      <trkpt lat="47.24978" lon="-2.26387">
        <ele>29</ele>
        <time>2021-05-23T06:59:47.983Z</time>
      </trkpt>
      <trkpt lat="47.24976" lon="-2.26388">
        <ele>29</ele>
        <time>2021-05-23T06:59:48.982Z</time>
      </trkpt>
      <trkpt lat="47.24974" lon="-2.2639">
        <ele>29</ele>
        <time>2021-05-23T06:59:49.983Z</time>
      </trkpt>
      <trkpt lat="47.24972" lon="-2.26392">
        <ele>30</ele>
        <time>2021-05-23T06:59:50.982Z</time>
      </trkpt>
      <trkpt lat="47.2497" lon="-2.26393">
        <ele>30</ele>
        <time>2021-05-23T06:59:51.983Z</time>
      </trkpt>
      <trkpt lat="47.24968" lon="-2.26394">
        <ele>31</ele>
        <time>2021-05-23T06:59:52.983Z</time>
      </trkpt>
      <trkpt lat="47.24966" lon="-2.26394">
        <ele>31</ele>
        <time>2021-05-23T06:59:53.983Z</time>
      </trkpt>
      <trkpt lat="47.24964" lon="-2.26395">
        <ele>31</ele>
        <time>2021-05-23T06:59:54.982Z</time>
      </trkpt>
      <trkpt lat="47.24962" lon="-2.26396">
        <ele>31</ele>
        <time>2021-05-23T06:59:55.983Z</time>
      </trkpt>
      <trkpt lat="47.2496" lon="-2.26397">
        <ele>32</ele>
        <time>2021-05-23T06:59:56.982Z</time>
      </trkpt>
      <trkpt lat="47.24958" lon="-2.26399">
        <ele>32</ele>
        <time>2021-05-23T06:59:57.983Z</time>
      </trkpt>
      <trkpt lat="47.24956" lon="-2.264">
        <ele>32</ele>
        <time>2021-05-23T06:59:58.983Z</time>
      </trkpt>
      <trkpt lat="47.24954" lon="-2.26402">
        <ele>33</ele>
        <time>2021-05-23T06:59:59.983Z</time>
      </trkpt>
      <trkpt lat="47.24951" lon="-2.26403">
        <ele>33</ele>
        <time>2021-05-23T07:00:00.983Z</time>
      </trkpt>
      <trkpt lat="47.2495" lon="-2.26404">
        <ele>34</ele>
        <time>2021-05-23T07:00:01.983Z</time>
      </trkpt>
      <trkpt lat="47.24948" lon="-2.26405">
        <ele>34</ele>
        <time>2021-05-23T07:00:02.983Z</time>
      </trkpt>
      <trkpt lat="47.24947" lon="-2.26406">
        <ele>33</ele>
        <time>2021-05-23T07:00:03.983Z</time>
      </trkpt>
      <trkpt lat="47.24945" lon="-2.26407">
        <ele>33</ele>
        <time>2021-05-23T07:00:04.983Z</time>
      </trkpt>
      <trkpt lat="47.24943" lon="-2.26408">
        <ele>33</ele>
        <time>2021-05-23T07:00:05.983Z</time>
      </trkpt>
      <trkpt lat="47.24941" lon="-2.2641">
        <ele>33</ele>
        <time>2021-05-23T07:00:06.983Z</time>
      </trkpt>
      <trkpt lat="47.24938" lon="-2.26411">
        <ele>33</ele>
        <time>2021-05-23T07:00:07.983Z</time>
      </trkpt>
      <trkpt lat="47.24936" lon="-2.26411">
        <ele>33</ele>
        <time>2021-05-23T07:00:08.983Z</time>
      </trkpt>
      <trkpt lat="47.24933" lon="-2.26413">
        <ele>33</ele>
        <time>2021-05-23T07:00:09.983Z</time>
      </trkpt>
      <trkpt lat="47.24931" lon="-2.26414">
        <ele>33</ele>
        <time>2021-05-23T07:00:10.982Z</time>
      </trkpt>
      <trkpt lat="47.24928" lon="-2.26416">
        <ele>33</ele>
        <time>2021-05-23T07:00:11.983Z</time>
      </trkpt>
      <trkpt lat="47.24926" lon="-2.26419">
        <ele>33</ele>
        <time>2021-05-23T07:00:12.982Z</time>
      </trkpt>
      <trkpt lat="47.24924" lon="-2.26421">
        <ele>32</ele>
        <time>2021-05-23T07:00:13.983Z</time>
      </trkpt>
      <trkpt lat="47.24922" lon="-2.26423">
        <ele>33</ele>
        <time>2021-05-23T07:00:14.983Z</time>
      </trkpt>
      <trkpt lat="47.2492" lon="-2.26425">
        <ele>33</ele>
        <time>2021-05-23T07:00:15.983Z</time>
      </trkpt>
      <trkpt lat="47.24917" lon="-2.26426">
        <ele>33</ele>
        <time>2021-05-23T07:00:16.983Z</time>
      </trkpt>
      <trkpt lat="47.24915" lon="-2.26428">
        <ele>33</ele>
        <time>2021-05-23T07:00:17.983Z</time>
      </trkpt>
      <trkpt lat="47.24913" lon="-2.26429">
        <ele>33</ele>
        <time>2021-05-23T07:00:18.983Z</time>
      </trkpt>
      <trkpt lat="47.24911" lon="-2.2643">
        <ele>34</ele>
        <time>2021-05-23T07:00:19.983Z</time>
      </trkpt>
      <trkpt lat="47.24909" lon="-2.2643">
        <ele>34</ele>
        <time>2021-05-23T07:00:20.983Z</time>
      </trkpt>
      <trkpt lat="47.24907" lon="-2.26431">
        <ele>35</ele>
        <time>2021-05-23T07:00:21.982Z</time>
      </trkpt>
      <trkpt lat="47.24904" lon="-2.26431">
        <ele>35</ele>
        <time>2021-05-23T07:00:22.983Z</time>
      </trkpt>
      <trkpt lat="47.24901" lon="-2.26432">
        <ele>36</ele>
        <time>2021-05-23T07:00:23.983Z</time>
      </trkpt>
      <trkpt lat="47.24897" lon="-2.26435">
        <ele>37</ele>
        <time>2021-05-23T07:00:24.982Z</time>
      </trkpt>
      <trkpt lat="47.24894" lon="-2.26436">
        <ele>37</ele>
        <time>2021-05-23T07:00:25.983Z</time>
      </trkpt>
      <trkpt lat="47.24891" lon="-2.26437">
        <ele>37</ele>
        <time>2021-05-23T07:00:26.982Z</time>
      </trkpt>
      <trkpt lat="47.24888" lon="-2.26438">
        <ele>38</ele>
        <time>2021-05-23T07:00:27.982Z</time>
      </trkpt>
      <trkpt lat="47.24886" lon="-2.26439">
        <ele>38</ele>
        <time>2021-05-23T07:00:28.982Z</time>
      </trkpt>
      <trkpt lat="47.24884" lon="-2.2644">
        <ele>39</ele>
        <time>2021-05-23T07:00:29.982Z</time>
      </trkpt>
      <trkpt lat="47.24882" lon="-2.26441">
        <ele>39</ele>
        <time>2021-05-23T07:00:30.983Z</time>
      </trkpt>
      <trkpt lat="47.2488" lon="-2.26442">
        <ele>39</ele>
        <time>2021-05-23T07:00:31.982Z</time>
      </trkpt>
      <trkpt lat="47.24877" lon="-2.26443">
        <ele>39</ele>
        <time>2021-05-23T07:00:32.983Z</time>
      </trkpt>
      <trkpt lat="47.24876" lon="-2.26443">
        <ele>39</ele>
        <time>2021-05-23T07:00:33.982Z</time>
      </trkpt>
      <trkpt lat="47.24873" lon="-2.26444">
        <ele>40</ele>
        <time>2021-05-23T07:00:34.983Z</time>
      </trkpt>
      <trkpt lat="47.24871" lon="-2.26444">
        <ele>40</ele>
        <time>2021-05-23T07:00:35.983Z</time>
      </trkpt>
      <trkpt lat="47.24869" lon="-2.26444">
        <ele>40</ele>
        <time>2021-05-23T07:00:36.983Z</time>
      </trkpt>
      <trkpt lat="47.24868" lon="-2.26444">
        <ele>40</ele>
        <time>2021-05-23T07:00:37.982Z</time>
      </trkpt>
      <trkpt lat="47.24866" lon="-2.26444">
        <ele>40</ele>
        <time>2021-05-23T07:00:38.982Z</time>
      </trkpt>
      <trkpt lat="47.24864" lon="-2.26444">
        <ele>41</ele>
        <time>2021-05-23T07:00:39.983Z</time>
      </trkpt>
      <trkpt lat="47.24861" lon="-2.26444">
        <ele>41</ele>
        <time>2021-05-23T07:00:40.983Z</time>
      </trkpt>
      <trkpt lat="47.24859" lon="-2.26445">
        <ele>41</ele>
        <time>2021-05-23T07:00:41.983Z</time>
      </trkpt>
      <trkpt lat="47.24856" lon="-2.26445">
        <ele>41</ele>
        <time>2021-05-23T07:00:42.982Z</time>
      </trkpt>
      <trkpt lat="47.24853" lon="-2.26445">
        <ele>41</ele>
        <time>2021-05-23T07:00:43.983Z</time>
      </trkpt>
      <trkpt lat="47.24851" lon="-2.26446">
        <ele>41</ele>
        <time>2021-05-23T07:00:44.983Z</time>
      </trkpt>
      <trkpt lat="47.24849" lon="-2.26446">
        <ele>41</ele>
        <time>2021-05-23T07:00:45.983Z</time>
      </trkpt>
      <trkpt lat="47.24846" lon="-2.26447">
        <ele>41</ele>
        <time>2021-05-23T07:00:46.983Z</time>
      </trkpt>
      <trkpt lat="47.24843" lon="-2.26448">
        <ele>41</ele>
        <time>2021-05-23T07:00:47.982Z</time>
      </trkpt>
      <trkpt lat="47.24842" lon="-2.26448">
        <ele>41</ele>
        <time>2021-05-23T07:00:48.983Z</time>
      </trkpt>
      <trkpt lat="47.24839" lon="-2.26449">
        <ele>41</ele>
        <time>2021-05-23T07:00:49.983Z</time>
      </trkpt>
      <trkpt lat="47.24837" lon="-2.2645">
        <ele>41</ele>
        <time>2021-05-23T07:00:50.983Z</time>
      </trkpt>
      <trkpt lat="47.24835" lon="-2.2645">
        <ele>41</ele>
        <time>2021-05-23T07:00:51.983Z</time>
      </trkpt>
      <trkpt lat="47.24831" lon="-2.2645">
        <ele>41</ele>
        <time>2021-05-23T07:00:52.983Z</time>
      </trkpt>
      <trkpt lat="47.24829" lon="-2.2645">
        <ele>41</ele>
        <time>2021-05-23T07:00:53.982Z</time>
      </trkpt>
      <trkpt lat="47.24826" lon="-2.2645">
        <ele>41</ele>
        <time>2021-05-23T07:00:54.982Z</time>
      </trkpt>
      <trkpt lat="47.24824" lon="-2.26449">
        <ele>41</ele>
        <time>2021-05-23T07:00:55.983Z</time>
      </trkpt>
      <trkpt lat="47.24821" lon="-2.26449">
        <ele>41</ele>
        <time>2021-05-23T07:00:56.983Z</time>
      </trkpt>
      <trkpt lat="47.24817" lon="-2.26449">
        <ele>41</ele>
        <time>2021-05-23T07:00:57.982Z</time>
      </trkpt>
      <trkpt lat="47.24815" lon="-2.26449">
        <ele>41</ele>
        <time>2021-05-23T07:00:58.982Z</time>
      </trkpt>
      <trkpt lat="47.24812" lon="-2.26448">
        <ele>41</ele>
        <time>2021-05-23T07:00:59.983Z</time>
      </trkpt>
      <trkpt lat="47.2481" lon="-2.26448">
        <ele>40</ele>
        <time>2021-05-23T07:01:00.982Z</time>
      </trkpt>
      <trkpt lat="47.24807" lon="-2.26448">
        <ele>40</ele>
        <time>2021-05-23T07:01:01.982Z</time>
      </trkpt>
      <trkpt lat="47.24805" lon="-2.26447">
        <ele>40</ele>
        <time>2021-05-23T07:01:02.982Z</time>
      </trkpt>
      <trkpt lat="47.24803" lon="-2.26447">
        <ele>39</ele>
        <time>2021-05-23T07:01:03.982Z</time>
      </trkpt>
      <trkpt lat="47.248" lon="-2.26447">
        <ele>39</ele>
        <time>2021-05-23T07:01:04.982Z</time>
      </trkpt>
      <trkpt lat="47.24798" lon="-2.26446">
        <ele>38</ele>
        <time>2021-05-23T07:01:05.983Z</time>
      </trkpt>
      <trkpt lat="47.24797" lon="-2.26445">
        <ele>37</ele>
        <time>2021-05-23T07:01:06.982Z</time>
      </trkpt>
      <trkpt lat="47.24795" lon="-2.26444">
        <ele>37</ele>
        <time>2021-05-23T07:01:07.982Z</time>
      </trkpt>
      <trkpt lat="47.24794" lon="-2.26443">
        <ele>36</ele>
        <time>2021-05-23T07:01:08.983Z</time>
      </trkpt>
      <trkpt lat="47.24793" lon="-2.2644">
        <ele>35</ele>
        <time>2021-05-23T07:01:09.982Z</time>
      </trkpt>
      <trkpt lat="47.24792" lon="-2.26437">
        <ele>35</ele>
        <time>2021-05-23T07:01:10.983Z</time>
      </trkpt>
      <trkpt lat="47.24792" lon="-2.26433">
        <ele>35</ele>
        <time>2021-05-23T07:01:11.982Z</time>
      </trkpt>
      <trkpt lat="47.24791" lon="-2.26429">
        <ele>35</ele>
        <time>2021-05-23T07:01:12.982Z</time>
      </trkpt>
      <trkpt lat="47.24792" lon="-2.26426">
        <ele>34</ele>
        <time>2021-05-23T07:01:13.982Z</time>
      </trkpt>
      <trkpt lat="47.24793" lon="-2.26422">
        <ele>34</ele>
        <time>2021-05-23T07:01:14.982Z</time>
      </trkpt>
      <trkpt lat="47.24793" lon="-2.26418">
        <ele>33</ele>
        <time>2021-05-23T07:01:15.982Z</time>
      </trkpt>
      <trkpt lat="47.24794" lon="-2.26413">
        <ele>33</ele>
        <time>2021-05-23T07:01:16.982Z</time>
      </trkpt>
      <trkpt lat="47.24794" lon="-2.2641">
        <ele>32</ele>
        <time>2021-05-23T07:01:17.982Z</time>
      </trkpt>
      <trkpt lat="47.24794" lon="-2.26406">
        <ele>32</ele>
        <time>2021-05-23T07:01:18.982Z</time>
      </trkpt>
      <trkpt lat="47.24793" lon="-2.26403">
        <ele>31</ele>
        <time>2021-05-23T07:01:19.983Z</time>
      </trkpt>
      <trkpt lat="47.24793" lon="-2.26399">
        <ele>31</ele>
        <time>2021-05-23T07:01:20.983Z</time>
      </trkpt>
      <trkpt lat="47.24793" lon="-2.26396">
        <ele>30</ele>
        <time>2021-05-23T07:01:21.982Z</time>
      </trkpt>
      <trkpt lat="47.24793" lon="-2.26392">
        <ele>30</ele>
        <time>2021-05-23T07:01:22.983Z</time>
      </trkpt>
      <trkpt lat="47.24792" lon="-2.26389">
        <ele>29</ele>
        <time>2021-05-23T07:01:23.983Z</time>
      </trkpt>
      <trkpt lat="47.24792" lon="-2.26385">
        <ele>29</ele>
        <time>2021-05-23T07:01:24.983Z</time>
      </trkpt>
      <trkpt lat="47.24791" lon="-2.26382">
        <ele>29</ele>
        <time>2021-05-23T07:01:25.982Z</time>
      </trkpt>
      <trkpt lat="47.24791" lon="-2.26379">
        <ele>29</ele>
        <time>2021-05-23T07:01:26.983Z</time>
      </trkpt>
      <trkpt lat="47.24791" lon="-2.26375">
        <ele>29</ele>
        <time>2021-05-23T07:01:27.983Z</time>
      </trkpt>
      <trkpt lat="47.24791" lon="-2.26371">
        <ele>29</ele>
        <time>2021-05-23T07:01:28.983Z</time>
      </trkpt>
      <trkpt lat="47.2479" lon="-2.26368">
        <ele>29</ele>
        <time>2021-05-23T07:01:29.983Z</time>
      </trkpt>
      <trkpt lat="47.24789" lon="-2.26364">
        <ele>29</ele>
        <time>2021-05-23T07:01:30.982Z</time>
      </trkpt>
      <trkpt lat="47.24788" lon="-2.26361">
        <ele>29</ele>
        <time>2021-05-23T07:01:31.983Z</time>
      </trkpt>
      <trkpt lat="47.24787" lon="-2.26358">
        <ele>29</ele>
        <time>2021-05-23T07:01:32.983Z</time>
      </trkpt>
      <trkpt lat="47.24787" lon="-2.26355">
        <ele>29</ele>
        <time>2021-05-23T07:01:33.983Z</time>
      </trkpt>
      <trkpt lat="47.24786" lon="-2.26352">
        <ele>29</ele>
        <time>2021-05-23T07:01:34.983Z</time>
      </trkpt>
      <trkpt lat="47.24784" lon="-2.26348">
        <ele>28</ele>
        <time>2021-05-23T07:01:35.983Z</time>
      </trkpt>
      <trkpt lat="47.24783" lon="-2.26346">
        <ele>28</ele>
        <time>2021-05-23T07:01:36.983Z</time>
      </trkpt>
      <trkpt lat="47.24781" lon="-2.26343">
        <ele>28</ele>
        <time>2021-05-23T07:01:37.983Z</time>
      </trkpt>
      <trkpt lat="47.24779" lon="-2.26341">
        <ele>28</ele>
        <time>2021-05-23T07:01:38.983Z</time>
      </trkpt>
      <trkpt lat="47.24776" lon="-2.26339">
        <ele>28</ele>
        <time>2021-05-23T07:01:39.983Z</time>
      </trkpt>
      <trkpt lat="47.24773" lon="-2.26337">
        <ele>28</ele>
        <time>2021-05-23T07:01:40.983Z</time>
      </trkpt>
      <trkpt lat="47.24771" lon="-2.26335">
        <ele>28</ele>
        <time>2021-05-23T07:01:41.983Z</time>
      </trkpt>
      <trkpt lat="47.24769" lon="-2.26334">
        <ele>29</ele>
        <time>2021-05-23T07:01:42.982Z</time>
      </trkpt>
      <trkpt lat="47.24766" lon="-2.26333">
        <ele>29</ele>
        <time>2021-05-23T07:01:43.983Z</time>
      </trkpt>
      <trkpt lat="47.24764" lon="-2.26331">
        <ele>29</ele>
        <time>2021-05-23T07:01:44.982Z</time>
      </trkpt>
      <trkpt lat="47.24762" lon="-2.2633">
        <ele>29</ele>
        <time>2021-05-23T07:01:45.982Z</time>
      </trkpt>
      <trkpt lat="47.2476" lon="-2.26329">
        <ele>29</ele>
        <time>2021-05-23T07:01:46.982Z</time>
      </trkpt>
      <trkpt lat="47.24757" lon="-2.26328">
        <ele>29</ele>
        <time>2021-05-23T07:01:47.983Z</time>
      </trkpt>
      <trkpt lat="47.24755" lon="-2.26327">
        <ele>29</ele>
        <time>2021-05-23T07:01:48.983Z</time>
      </trkpt>
      <trkpt lat="47.24753" lon="-2.26326">
        <ele>29</ele>
        <time>2021-05-23T07:01:49.982Z</time>
      </trkpt>
      <trkpt lat="47.24751" lon="-2.26325">
        <ele>29</ele>
        <time>2021-05-23T07:01:50.983Z</time>
      </trkpt>
      <trkpt lat="47.24749" lon="-2.26324">
        <ele>29</ele>
        <time>2021-05-23T07:01:51.983Z</time>
      </trkpt>
      <trkpt lat="47.24746" lon="-2.26323">
        <ele>29</ele>
        <time>2021-05-23T07:01:52.982Z</time>
      </trkpt>
      <trkpt lat="47.24744" lon="-2.26323">
        <ele>30</ele>
        <time>2021-05-23T07:01:53.983Z</time>
      </trkpt>
      <trkpt lat="47.24742" lon="-2.26323">
        <ele>30</ele>
        <time>2021-05-23T07:01:54.983Z</time>
      </trkpt>
      <trkpt lat="47.24742" lon="-2.26322">
        <ele>30</ele>
        <time>2021-05-23T07:01:55.982Z</time>
      </trkpt>
      <trkpt lat="47.2474" lon="-2.26321">
        <ele>30</ele>
        <time>2021-05-23T07:01:56.983Z</time>
      </trkpt>
      <trkpt lat="47.24738" lon="-2.2632">
        <ele>30</ele>
        <time>2021-05-23T07:01:57.983Z</time>
      </trkpt>
      <trkpt lat="47.24737" lon="-2.26319">
        <ele>30</ele>
        <time>2021-05-23T07:01:58.982Z</time>
      </trkpt>
      <trkpt lat="47.24736" lon="-2.26318">
        <ele>30</ele>
        <time>2021-05-23T07:01:59.982Z</time>
      </trkpt>
      <trkpt lat="47.24735" lon="-2.26317">
        <ele>30</ele>
        <time>2021-05-23T07:02:00.983Z</time>
      </trkpt>
      <trkpt lat="47.24734" lon="-2.26316">
        <ele>30</ele>
        <time>2021-05-23T07:02:01.982Z</time>
      </trkpt>
      <trkpt lat="47.24733" lon="-2.26315">
        <ele>31</ele>
        <time>2021-05-23T07:02:02.983Z</time>
      </trkpt>
      <trkpt lat="47.24732" lon="-2.26314">
        <ele>31</ele>
        <time>2021-05-23T07:02:03.983Z</time>
      </trkpt>
      <trkpt lat="47.2473" lon="-2.26312">
        <ele>31</ele>
        <time>2021-05-23T07:02:04.982Z</time>
      </trkpt>
      <trkpt lat="47.24729" lon="-2.2631">
        <ele>31</ele>
        <time>2021-05-23T07:02:05.983Z</time>
      </trkpt>
      <trkpt lat="47.24726" lon="-2.26308">
        <ele>31</ele>
        <time>2021-05-23T07:02:06.983Z</time>
      </trkpt>
      <trkpt lat="47.24722" lon="-2.26306">
        <ele>31</ele>
        <time>2021-05-23T07:02:07.982Z</time>
      </trkpt>
      <trkpt lat="47.24719" lon="-2.26304">
        <ele>31</ele>
        <time>2021-05-23T07:02:08.982Z</time>
      </trkpt>
      <trkpt lat="47.24716" lon="-2.26302">
        <ele>31</ele>
        <time>2021-05-23T07:02:09.983Z</time>
      </trkpt>
      <trkpt lat="47.24714" lon="-2.263">
        <ele>31</ele>
        <time>2021-05-23T07:02:10.982Z</time>
      </trkpt>
      <trkpt lat="47.24711" lon="-2.26296">
        <ele>31</ele>
        <time>2021-05-23T07:02:11.983Z</time>
      </trkpt>
      <trkpt lat="47.24709" lon="-2.26292">
        <ele>30</ele>
        <time>2021-05-23T07:02:12.983Z</time>
      </trkpt>
      <trkpt lat="47.24708" lon="-2.26288">
        <ele>30</ele>
        <time>2021-05-23T07:02:13.982Z</time>
      </trkpt>
      <trkpt lat="47.24707" lon="-2.26284">
        <ele>30</ele>
        <time>2021-05-23T07:02:14.983Z</time>
      </trkpt>
      <trkpt lat="47.24707" lon="-2.26281">
        <ele>30</ele>
        <time>2021-05-23T07:02:15.983Z</time>
      </trkpt>
      <trkpt lat="47.24706" lon="-2.26278">
        <ele>30</ele>
        <time>2021-05-23T07:02:16.982Z</time>
      </trkpt>
      <trkpt lat="47.24704" lon="-2.26275">
        <ele>30</ele>
        <time>2021-05-23T07:02:17.982Z</time>
      </trkpt>
      <trkpt lat="47.24701" lon="-2.26272">
        <ele>30</ele>
        <time>2021-05-23T07:02:18.982Z</time>
      </trkpt>
      <trkpt lat="47.247" lon="-2.26269">
        <ele>30</ele>
        <time>2021-05-23T07:02:19.983Z</time>
      </trkpt>
      <trkpt lat="47.24699" lon="-2.26266">
        <ele>30</ele>
        <time>2021-05-23T07:02:20.983Z</time>
      </trkpt>
      <trkpt lat="47.24698" lon="-2.26263">
        <ele>30</ele>
        <time>2021-05-23T07:02:21.983Z</time>
      </trkpt>
      <trkpt lat="47.24697" lon="-2.26261">
        <ele>30</ele>
        <time>2021-05-23T07:02:22.983Z</time>
      </trkpt>
      <trkpt lat="47.24695" lon="-2.26259">
        <ele>30</ele>
        <time>2021-05-23T07:02:23.983Z</time>
      </trkpt>
      <trkpt lat="47.24694" lon="-2.26258">
        <ele>30</ele>
        <time>2021-05-23T07:02:24.983Z</time>
      </trkpt>
      <trkpt lat="47.24693" lon="-2.26256">
        <ele>30</ele>
        <time>2021-05-23T07:02:25.982Z</time>
      </trkpt>
      <trkpt lat="47.24692" lon="-2.26254">
        <ele>30</ele>
        <time>2021-05-23T07:02:26.983Z</time>
      </trkpt>
      <trkpt lat="47.2469" lon="-2.26251">
        <ele>30</ele>
        <time>2021-05-23T07:02:27.983Z</time>
      </trkpt>
      <trkpt lat="47.24689" lon="-2.26247">
        <ele>30</ele>
        <time>2021-05-23T07:02:28.983Z</time>
      </trkpt>
      <trkpt lat="47.24688" lon="-2.26243">
        <ele>30</ele>
        <time>2021-05-23T07:02:29.983Z</time>
      </trkpt>
      <trkpt lat="47.24688" lon="-2.2624">
        <ele>30</ele>
        <time>2021-05-23T07:02:30.983Z</time>
      </trkpt>
      <trkpt lat="47.24687" lon="-2.26236">
        <ele>30</ele>
        <time>2021-05-23T07:02:31.983Z</time>
      </trkpt>
      <trkpt lat="47.24687" lon="-2.26233">
        <ele>29</ele>
        <time>2021-05-23T07:02:32.982Z</time>
      </trkpt>
      <trkpt lat="47.24685" lon="-2.26231">
        <ele>29</ele>
        <time>2021-05-23T07:02:33.982Z</time>
      </trkpt>
      <trkpt lat="47.24685" lon="-2.26227">
        <ele>29</ele>
        <time>2021-05-23T07:02:34.982Z</time>
      </trkpt>
      <trkpt lat="47.24684" lon="-2.26224">
        <ele>29</ele>
        <time>2021-05-23T07:02:35.982Z</time>
      </trkpt>
      <trkpt lat="47.24684" lon="-2.26221">
        <ele>29</ele>
        <time>2021-05-23T07:02:36.983Z</time>
      </trkpt>
      <trkpt lat="47.24682" lon="-2.26218">
        <ele>29</ele>
        <time>2021-05-23T07:02:37.983Z</time>
      </trkpt>
      <trkpt lat="47.24681" lon="-2.26215">
        <ele>28</ele>
        <time>2021-05-23T07:02:38.982Z</time>
      </trkpt>
      <trkpt lat="47.24679" lon="-2.26211">
        <ele>28</ele>
        <time>2021-05-23T07:02:39.983Z</time>
      </trkpt>
      <trkpt lat="47.24678" lon="-2.26207">
        <ele>28</ele>
        <time>2021-05-23T07:02:40.983Z</time>
      </trkpt>
      <trkpt lat="47.24677" lon="-2.26203">
        <ele>28</ele>
        <time>2021-05-23T07:02:41.982Z</time>
      </trkpt>
      <trkpt lat="47.24675" lon="-2.26199">
        <ele>28</ele>
        <time>2021-05-23T07:02:42.983Z</time>
      </trkpt>
      <trkpt lat="47.24675" lon="-2.26196">
        <ele>28</ele>
        <time>2021-05-23T07:02:43.983Z</time>
      </trkpt>
      <trkpt lat="47.24674" lon="-2.26194">
        <ele>28</ele>
        <time>2021-05-23T07:02:44.983Z</time>
      </trkpt>
      <trkpt lat="47.24672" lon="-2.26192">
        <ele>28</ele>
        <time>2021-05-23T07:02:45.982Z</time>
      </trkpt>
      <trkpt lat="47.24671" lon="-2.26189">
        <ele>28</ele>
        <time>2021-05-23T07:02:46.983Z</time>
      </trkpt>
      <trkpt lat="47.24671" lon="-2.26186">
        <ele>28</ele>
        <time>2021-05-23T07:02:47.983Z</time>
      </trkpt>
      <trkpt lat="47.2467" lon="-2.26184">
        <ele>28</ele>
        <time>2021-05-23T07:02:48.983Z</time>
      </trkpt>
      <trkpt lat="47.2467" lon="-2.26182">
        <ele>28</ele>
        <time>2021-05-23T07:02:49.983Z</time>
      </trkpt>
      <trkpt lat="47.2467" lon="-2.26179">
        <ele>28</ele>
        <time>2021-05-23T07:02:50.983Z</time>
      </trkpt>
      <trkpt lat="47.2467" lon="-2.26176">
        <ele>28</ele>
        <time>2021-05-23T07:02:51.983Z</time>
      </trkpt>
      <trkpt lat="47.24671" lon="-2.26173">
        <ele>27</ele>
        <time>2021-05-23T07:02:52.982Z</time>
      </trkpt>
      <trkpt lat="47.24673" lon="-2.2617">
        <ele>27</ele>
        <time>2021-05-23T07:02:53.983Z</time>
      </trkpt>
      <trkpt lat="47.24673" lon="-2.26167">
        <ele>27</ele>
        <time>2021-05-23T07:02:54.983Z</time>
      </trkpt>
      <trkpt lat="47.24673" lon="-2.26164">
        <ele>27</ele>
        <time>2021-05-23T07:02:55.983Z</time>
      </trkpt>
      <trkpt lat="47.24672" lon="-2.26161">
        <ele>27</ele>
        <time>2021-05-23T07:02:56.982Z</time>
      </trkpt>
      <trkpt lat="47.24672" lon="-2.26158">
        <ele>26</ele>
        <time>2021-05-23T07:02:57.983Z</time>
      </trkpt>
      <trkpt lat="47.24672" lon="-2.26155">
        <ele>26</ele>
        <time>2021-05-23T07:02:58.983Z</time>
      </trkpt>
      <trkpt lat="47.24672" lon="-2.26152">
        <ele>26</ele>
        <time>2021-05-23T07:02:59.983Z</time>
      </trkpt>
      <trkpt lat="47.24672" lon="-2.26148">
        <ele>26</ele>
        <time>2021-05-23T07:03:00.983Z</time>
      </trkpt>
      <trkpt lat="47.24673" lon="-2.26143">
        <ele>26</ele>
        <time>2021-05-23T07:03:01.983Z</time>
      </trkpt>
      <trkpt lat="47.24673" lon="-2.26139">
        <ele>25</ele>
        <time>2021-05-23T07:03:02.983Z</time>
      </trkpt>
      <trkpt lat="47.24674" lon="-2.26134">
        <ele>25</ele>
        <time>2021-05-23T07:03:03.983Z</time>
      </trkpt>
      <trkpt lat="47.24675" lon="-2.2613">
        <ele>24</ele>
        <time>2021-05-23T07:03:04.983Z</time>
      </trkpt>
      <trkpt lat="47.24677" lon="-2.26126">
        <ele>24</ele>
        <time>2021-05-23T07:03:05.983Z</time>
      </trkpt>
      <trkpt lat="47.24678" lon="-2.26121">
        <ele>23</ele>
        <time>2021-05-23T07:03:06.983Z</time>
      </trkpt>
      <trkpt lat="47.2468" lon="-2.26117">
        <ele>23</ele>
        <time>2021-05-23T07:03:07.983Z</time>
      </trkpt>
      <trkpt lat="47.24681" lon="-2.26112">
        <ele>22</ele>
        <time>2021-05-23T07:03:08.983Z</time>
      </trkpt>
      <trkpt lat="47.24682" lon="-2.26108">
        <ele>22</ele>
        <time>2021-05-23T07:03:09.983Z</time>
      </trkpt>
      <trkpt lat="47.24681" lon="-2.26105">
        <ele>22</ele>
        <time>2021-05-23T07:03:10.982Z</time>
      </trkpt>
      <trkpt lat="47.24679" lon="-2.26103">
        <ele>21</ele>
        <time>2021-05-23T07:03:11.982Z</time>
      </trkpt>
      <trkpt lat="47.24677" lon="-2.261">
        <ele>21</ele>
        <time>2021-05-23T07:03:12.983Z</time>
      </trkpt>
      <trkpt lat="47.24674" lon="-2.26099">
        <ele>20</ele>
        <time>2021-05-23T07:03:13.983Z</time>
      </trkpt>
      <trkpt lat="47.24672" lon="-2.26097">
        <ele>20</ele>
        <time>2021-05-23T07:03:14.983Z</time>
      </trkpt>
      <trkpt lat="47.24669" lon="-2.26095">
        <ele>20</ele>
        <time>2021-05-23T07:03:15.982Z</time>
      </trkpt>
      <trkpt lat="47.24668" lon="-2.26092">
        <ele>19</ele>
        <time>2021-05-23T07:03:16.983Z</time>
      </trkpt>
      <trkpt lat="47.24666" lon="-2.26089">
        <ele>19</ele>
        <time>2021-05-23T07:03:17.983Z</time>
      </trkpt>
      <trkpt lat="47.24665" lon="-2.26086">
        <ele>19</ele>
        <time>2021-05-23T07:03:18.982Z</time>
      </trkpt>
      <trkpt lat="47.24664" lon="-2.26082">
        <ele>18</ele>
        <time>2021-05-23T07:03:19.982Z</time>
      </trkpt>
      <trkpt lat="47.24663" lon="-2.26079">
        <ele>18</ele>
        <time>2021-05-23T07:03:20.983Z</time>
      </trkpt>
      <trkpt lat="47.24662" lon="-2.26075">
        <ele>18</ele>
        <time>2021-05-23T07:03:21.982Z</time>
      </trkpt>
      <trkpt lat="47.24661" lon="-2.26071">
        <ele>17</ele>
        <time>2021-05-23T07:03:22.982Z</time>
      </trkpt>
      <trkpt lat="47.24659" lon="-2.26068">
        <ele>17</ele>
        <time>2021-05-23T07:03:23.982Z</time>
      </trkpt>
      <trkpt lat="47.24657" lon="-2.26066">
        <ele>17</ele>
        <time>2021-05-23T07:03:24.982Z</time>
      </trkpt>
      <trkpt lat="47.24655" lon="-2.26066">
        <ele>17</ele>
        <time>2021-05-23T07:03:25.983Z</time>
      </trkpt>
      <trkpt lat="47.24652" lon="-2.26066">
        <ele>17</ele>
        <time>2021-05-23T07:03:26.983Z</time>
      </trkpt>
      <trkpt lat="47.2465" lon="-2.26066">
        <ele>16</ele>
        <time>2021-05-23T07:03:27.982Z</time>
      </trkpt>
      <trkpt lat="47.24648" lon="-2.26066">
        <ele>16</ele>
        <time>2021-05-23T07:03:28.983Z</time>
      </trkpt>
      <trkpt lat="47.24646" lon="-2.26067">
        <ele>16</ele>
        <time>2021-05-23T07:03:29.982Z</time>
      </trkpt>
      <trkpt lat="47.24644" lon="-2.26069">
        <ele>16</ele>
        <time>2021-05-23T07:03:30.983Z</time>
      </trkpt>
      <trkpt lat="47.24642" lon="-2.2607">
        <ele>15</ele>
        <time>2021-05-23T07:03:31.983Z</time>
      </trkpt>
      <trkpt lat="47.2464" lon="-2.26073">
        <ele>15</ele>
        <time>2021-05-23T07:03:32.983Z</time>
      </trkpt>
      <trkpt lat="47.24637" lon="-2.26075">
        <ele>15</ele>
        <time>2021-05-23T07:03:33.983Z</time>
      </trkpt>
      <trkpt lat="47.24635" lon="-2.26077">
        <ele>14</ele>
        <time>2021-05-23T07:03:34.982Z</time>
      </trkpt>
      <trkpt lat="47.24632" lon="-2.26079">
        <ele>14</ele>
        <time>2021-05-23T07:03:35.982Z</time>
      </trkpt>
      <trkpt lat="47.2463" lon="-2.2608">
        <ele>13</ele>
        <time>2021-05-23T07:03:36.982Z</time>
      </trkpt>
      <trkpt lat="47.24628" lon="-2.26082">
        <ele>13</ele>
        <time>2021-05-23T07:03:37.983Z</time>
      </trkpt>
      <trkpt lat="47.24626" lon="-2.26083">
        <ele>13</ele>
        <time>2021-05-23T07:03:38.983Z</time>
      </trkpt>
      <trkpt lat="47.24625" lon="-2.26084">
        <ele>12</ele>
        <time>2021-05-23T07:03:39.983Z</time>
      </trkpt>
      <trkpt lat="47.24622" lon="-2.26085">
        <ele>12</ele>
        <time>2021-05-23T07:03:40.983Z</time>
      </trkpt>
      <trkpt lat="47.24619" lon="-2.26086">
        <ele>12</ele>
        <time>2021-05-23T07:03:41.983Z</time>
      </trkpt>
      <trkpt lat="47.24617" lon="-2.26088">
        <ele>11</ele>
        <time>2021-05-23T07:03:42.982Z</time>
      </trkpt>
      <trkpt lat="47.24615" lon="-2.26089">
        <ele>11</ele>
        <time>2021-05-23T07:03:43.982Z</time>
      </trkpt>
      <trkpt lat="47.24613" lon="-2.2609">
        <ele>11</ele>
        <time>2021-05-23T07:03:44.982Z</time>
      </trkpt>
      <trkpt lat="47.24611" lon="-2.26092">
        <ele>11</ele>
        <time>2021-05-23T07:03:45.982Z</time>
      </trkpt>
      <trkpt lat="47.2461" lon="-2.26094">
        <ele>11</ele>
        <time>2021-05-23T07:03:46.982Z</time>
      </trkpt>
      <trkpt lat="47.24608" lon="-2.26095">
        <ele>11</ele>
        <time>2021-05-23T07:03:47.982Z</time>
      </trkpt>
      <trkpt lat="47.24607" lon="-2.26096">
        <ele>11</ele>
        <time>2021-05-23T07:03:48.982Z</time>
      </trkpt>
      <trkpt lat="47.24606" lon="-2.26097">
        <ele>11</ele>
        <time>2021-05-23T07:03:49.982Z</time>
      </trkpt>
      <trkpt lat="47.24604" lon="-2.26099">
        <ele>11</ele>
        <time>2021-05-23T07:03:50.983Z</time>
      </trkpt>
      <trkpt lat="47.24602" lon="-2.26101">
        <ele>11</ele>
        <time>2021-05-23T07:03:51.983Z</time>
      </trkpt>
      <trkpt lat="47.24599" lon="-2.26103">
        <ele>10</ele>
        <time>2021-05-23T07:03:52.983Z</time>
      </trkpt>
      <trkpt lat="47.24598" lon="-2.26105">
        <ele>10</ele>
        <time>2021-05-23T07:03:53.983Z</time>
      </trkpt>
      <trkpt lat="47.24596" lon="-2.26107">
        <ele>10</ele>
        <time>2021-05-23T07:03:54.983Z</time>
      </trkpt>
      <trkpt lat="47.24594" lon="-2.26109">
        <ele>10</ele>
        <time>2021-05-23T07:03:55.983Z</time>
      </trkpt>
      <trkpt lat="47.24593" lon="-2.26111">
        <ele>10</ele>
        <time>2021-05-23T07:03:56.982Z</time>
      </trkpt>
      <trkpt lat="47.24591" lon="-2.26112">
        <ele>10</ele>
        <time>2021-05-23T07:03:57.983Z</time>
      </trkpt>
      <trkpt lat="47.24589" lon="-2.26113">
        <ele>10</ele>
        <time>2021-05-23T07:03:58.982Z</time>
      </trkpt>
      <trkpt lat="47.24586" lon="-2.26114">
        <ele>10</ele>
        <time>2021-05-23T07:03:59.983Z</time>
      </trkpt>
      <trkpt lat="47.24584" lon="-2.26115">
        <ele>9</ele>
        <time>2021-05-23T07:04:00.982Z</time>
      </trkpt>
      <trkpt lat="47.24583" lon="-2.26115">
        <ele>9</ele>
        <time>2021-05-23T07:04:01.982Z</time>
      </trkpt>
      <trkpt lat="47.24581" lon="-2.26115">
        <ele>9</ele>
        <time>2021-05-23T07:04:02.982Z</time>
      </trkpt>
      <trkpt lat="47.24578" lon="-2.26116">
        <ele>9</ele>
        <time>2021-05-23T07:04:03.982Z</time>
      </trkpt>
      <trkpt lat="47.24576" lon="-2.26117">
        <ele>9</ele>
        <time>2021-05-23T07:04:04.982Z</time>
      </trkpt>
      <trkpt lat="47.24574" lon="-2.26118">
        <ele>9</ele>
        <time>2021-05-23T07:04:05.983Z</time>
      </trkpt>
      <trkpt lat="47.24572" lon="-2.26119">
        <ele>8</ele>
        <time>2021-05-23T07:04:06.982Z</time>
      </trkpt>
      <trkpt lat="47.2457" lon="-2.2612">
        <ele>8</ele>
        <time>2021-05-23T07:04:07.983Z</time>
      </trkpt>
      <trkpt lat="47.24567" lon="-2.2612">
        <ele>8</ele>
        <time>2021-05-23T07:04:08.983Z</time>
      </trkpt>
      <trkpt lat="47.24565" lon="-2.2612">
        <ele>8</ele>
        <time>2021-05-23T07:04:09.983Z</time>
      </trkpt>
      <trkpt lat="47.24563" lon="-2.26119">
        <ele>7</ele>
        <time>2021-05-23T07:04:10.983Z</time>
      </trkpt>
      <trkpt lat="47.24561" lon="-2.26119">
        <ele>7</ele>
        <time>2021-05-23T07:04:11.983Z</time>
      </trkpt>
      <trkpt lat="47.24559" lon="-2.26119">
        <ele>7</ele>
        <time>2021-05-23T07:04:12.982Z</time>
      </trkpt>
      <trkpt lat="47.24558" lon="-2.26119">
        <ele>7</ele>
        <time>2021-05-23T07:04:13.982Z</time>
      </trkpt>
      <trkpt lat="47.24556" lon="-2.26119">
        <ele>6</ele>
        <time>2021-05-23T07:04:14.983Z</time>
      </trkpt>
      <trkpt lat="47.24554" lon="-2.2612">
        <ele>6</ele>
        <time>2021-05-23T07:04:15.982Z</time>
      </trkpt>
      <trkpt lat="47.24552" lon="-2.26121">
        <ele>6</ele>
        <time>2021-05-23T07:04:16.983Z</time>
      </trkpt>
      <trkpt lat="47.24551" lon="-2.26122">
        <ele>6</ele>
        <time>2021-05-23T07:04:17.982Z</time>
      </trkpt>
      <trkpt lat="47.24549" lon="-2.26124">
        <ele>6</ele>
        <time>2021-05-23T07:04:18.983Z</time>
      </trkpt>
      <trkpt lat="47.24547" lon="-2.26125">
        <ele>6</ele>
        <time>2021-05-23T07:04:19.982Z</time>
      </trkpt>
      <trkpt lat="47.24545" lon="-2.26126">
        <ele>6</ele>
        <time>2021-05-23T07:04:20.982Z</time>
      </trkpt>
      <trkpt lat="47.24543" lon="-2.26127">
        <ele>6</ele>
        <time>2021-05-23T07:04:21.983Z</time>
      </trkpt>
      <trkpt lat="47.24541" lon="-2.26126">
        <ele>6</ele>
        <time>2021-05-23T07:04:22.983Z</time>
      </trkpt>
      <trkpt lat="47.24539" lon="-2.26126">
        <ele>6</ele>
        <time>2021-05-23T07:04:23.983Z</time>
      </trkpt>
      <trkpt lat="47.24536" lon="-2.26126">
        <ele>6</ele>
        <time>2021-05-23T07:04:24.983Z</time>
      </trkpt>
      <trkpt lat="47.24534" lon="-2.26125">
        <ele>6</ele>
        <time>2021-05-23T07:04:25.983Z</time>
      </trkpt>
      <trkpt lat="47.24532" lon="-2.26124">
        <ele>6</ele>
        <time>2021-05-23T07:04:26.983Z</time>
      </trkpt>
      <trkpt lat="47.2453" lon="-2.26123">
        <ele>6</ele>
        <time>2021-05-23T07:04:27.983Z</time>
      </trkpt>
      <trkpt lat="47.24527" lon="-2.26122">
        <ele>5</ele>
        <time>2021-05-23T07:04:28.983Z</time>
      </trkpt>
      <trkpt lat="47.24525" lon="-2.26121">
        <ele>5</ele>
        <time>2021-05-23T07:04:29.983Z</time>
      </trkpt>
      <trkpt lat="47.24523" lon="-2.26122">
        <ele>5</ele>
        <time>2021-05-23T07:04:30.982Z</time>
      </trkpt>
      <trkpt lat="47.24522" lon="-2.26122">
        <ele>5</ele>
        <time>2021-05-23T07:04:31.982Z</time>
      </trkpt>
      <trkpt lat="47.24522" lon="-2.26123">
        <ele>5</ele>
        <time>2021-05-23T07:04:32.983Z</time>
      </trkpt>
      <trkpt lat="47.24521" lon="-2.26123">
        <ele>5</ele>
        <time>2021-05-23T07:04:33.983Z</time>
      </trkpt>
      <trkpt lat="47.24521" lon="-2.26123">
        <ele>5</ele>
        <time>2021-05-23T07:04:34.982Z</time>
      </trkpt>
      <trkpt lat="47.24521" lon="-2.26123">
        <ele>5</ele>
        <time>2021-05-23T07:04:35.983Z</time>
      </trkpt>
      <trkpt lat="47.24521" lon="-2.26123">
        <ele>4</ele>
        <time>2021-05-23T07:04:36.983Z</time>
      </trkpt>
      <trkpt lat="47.24521" lon="-2.26123">
        <ele>4</ele>
        <time>2021-05-23T07:04:37.982Z</time>
      </trkpt>
      <trkpt lat="47.24521" lon="-2.26124">
        <ele>4</ele>
        <time>2021-05-23T07:04:38.983Z</time>
      </trkpt>
      <trkpt lat="47.2452" lon="-2.26125">
        <ele>4</ele>
        <time>2021-05-23T07:04:39.983Z</time>
      </trkpt>
      <trkpt lat="47.24518" lon="-2.26125">
        <ele>4</ele>
        <time>2021-05-23T07:04:40.983Z</time>
      </trkpt>
      <trkpt lat="47.24516" lon="-2.26125">
        <ele>3</ele>
        <time>2021-05-23T07:04:41.983Z</time>
      </trkpt>
      <trkpt lat="47.24514" lon="-2.26125">
        <ele>3</ele>
        <time>2021-05-23T07:04:42.983Z</time>
      </trkpt>
      <trkpt lat="47.24513" lon="-2.26125">
        <ele>3</ele>
        <time>2021-05-23T07:04:43.983Z</time>
      </trkpt>
      <trkpt lat="47.24511" lon="-2.26125">
        <ele>3</ele>
        <time>2021-05-23T07:04:44.983Z</time>
      </trkpt>
      <trkpt lat="47.24509" lon="-2.26126">
        <ele>3</ele>
        <time>2021-05-23T07:04:45.983Z</time>
      </trkpt>
      <trkpt lat="47.24507" lon="-2.26129">
        <ele>3</ele>
        <time>2021-05-23T07:04:46.983Z</time>
      </trkpt>
      <trkpt lat="47.24506" lon="-2.26132">
        <ele>3</ele>
        <time>2021-05-23T07:04:47.982Z</time>
      </trkpt>
      <trkpt lat="47.24505" lon="-2.26134">
        <ele>4</ele>
        <time>2021-05-23T07:04:48.982Z</time>
      </trkpt>
      <trkpt lat="47.24504" lon="-2.26137">
        <ele>4</ele>
        <time>2021-05-23T07:04:49.982Z</time>
      </trkpt>
      <trkpt lat="47.24504" lon="-2.26139">
        <ele>4</ele>
        <time>2021-05-23T07:04:50.982Z</time>
      </trkpt>
      <trkpt lat="47.24504" lon="-2.2614">
        <ele>5</ele>
        <time>2021-05-23T07:04:51.982Z</time>
      </trkpt>
      <trkpt lat="47.24504" lon="-2.26141">
        <ele>5</ele>
        <time>2021-05-23T07:04:52.983Z</time>
      </trkpt>
      <trkpt lat="47.24505" lon="-2.26142">
        <ele>5</ele>
        <time>2021-05-23T07:04:53.982Z</time>
      </trkpt>
      <trkpt lat="47.24505" lon="-2.26144">
        <ele>6</ele>
        <time>2021-05-23T07:04:54.982Z</time>
      </trkpt>
      <trkpt lat="47.24505" lon="-2.26144">
        <ele>6</ele>
        <time>2021-05-23T07:04:55.982Z</time>
      </trkpt>
      <trkpt lat="47.24505" lon="-2.26145">
        <ele>7</ele>
        <time>2021-05-23T07:04:56.983Z</time>
      </trkpt>
      <trkpt lat="47.24504" lon="-2.26145">
        <ele>7</ele>
        <time>2021-05-23T07:04:57.982Z</time>
      </trkpt>
      <trkpt lat="47.24504" lon="-2.26145">
        <ele>8</ele>
        <time>2021-05-23T07:04:58.982Z</time>
      </trkpt>
      <trkpt lat="47.24504" lon="-2.26145">
        <ele>8</ele>
        <time>2021-05-23T07:04:59.982Z</time>
      </trkpt>
      <trkpt lat="47.24504" lon="-2.26145">
        <ele>8</ele>
        <time>2021-05-23T07:05:00.982Z</time>
      </trkpt>
      <trkpt lat="47.24504" lon="-2.26145">
        <ele>9</ele>
        <time>2021-05-23T07:05:01.982Z</time>
      </trkpt>
      <trkpt lat="47.24504" lon="-2.26145">
        <ele>9</ele>
        <time>2021-05-23T07:05:02.982Z</time>
      </trkpt>
      <trkpt lat="47.24504" lon="-2.26144">
        <ele>9</ele>
        <time>2021-05-23T07:05:03.982Z</time>
      </trkpt>
      <trkpt lat="47.24505" lon="-2.26143">
        <ele>9</ele>
        <time>2021-05-23T07:05:04.983Z</time>
      </trkpt>
      <trkpt lat="47.24506" lon="-2.26142">
        <ele>10</ele>
        <time>2021-05-23T07:05:05.982Z</time>
      </trkpt>
      <trkpt lat="47.24507" lon="-2.26141">
        <ele>10</ele>
        <time>2021-05-23T07:05:06.982Z</time>
      </trkpt>
      <trkpt lat="47.24507" lon="-2.26141">
        <ele>10</ele>
        <time>2021-05-23T07:05:07.982Z</time>
      </trkpt>
      <trkpt lat="47.24508" lon="-2.2614">
        <ele>11</ele>
        <time>2021-05-23T07:05:08.982Z</time>
      </trkpt>
      <trkpt lat="47.24508" lon="-2.26139">
        <ele>11</ele>
        <time>2021-05-23T07:05:09.982Z</time>
      </trkpt>
      <trkpt lat="47.24509" lon="-2.26139">
        <ele>11</ele>
        <time>2021-05-23T07:05:10.983Z</time>
      </trkpt>
      <trkpt lat="47.24509" lon="-2.26139">
        <ele>11</ele>
        <time>2021-05-23T07:05:11.982Z</time>
      </trkpt>
      <trkpt lat="47.2451" lon="-2.26138">
        <ele>11</ele>
        <time>2021-05-23T07:05:12.982Z</time>
      </trkpt>
      <trkpt lat="47.2451" lon="-2.26138">
        <ele>11</ele>
        <time>2021-05-23T07:05:13.982Z</time>
      </trkpt>
      <trkpt lat="47.2451" lon="-2.26138">
        <ele>11</ele>
        <time>2021-05-23T07:05:14.982Z</time>
      </trkpt>
      <trkpt lat="47.24511" lon="-2.26138">
        <ele>11</ele>
        <time>2021-05-23T07:05:15.982Z</time>
      </trkpt>
      <trkpt lat="47.24512" lon="-2.26139">
        <ele>12</ele>
        <time>2021-05-23T07:05:16.982Z</time>
      </trkpt>
      <trkpt lat="47.24512" lon="-2.26139">
        <ele>12</ele>
        <time>2021-05-23T07:05:17.982Z</time>
      </trkpt>
      <trkpt lat="47.24513" lon="-2.2614">
        <ele>12</ele>
        <time>2021-05-23T07:05:18.982Z</time>
      </trkpt>
      <trkpt lat="47.24514" lon="-2.26141">
        <ele>12</ele>
        <time>2021-05-23T07:05:19.982Z</time>
      </trkpt>
      <trkpt lat="47.24514" lon="-2.26142">
        <ele>12</ele>
        <time>2021-05-23T07:05:20.982Z</time>
      </trkpt>
      <trkpt lat="47.24514" lon="-2.26143">
        <ele>13</ele>
        <time>2021-05-23T07:05:21.982Z</time>
      </trkpt>
      <trkpt lat="47.24513" lon="-2.26144">
        <ele>13</ele>
        <time>2021-05-23T07:05:22.982Z</time>
      </trkpt>
      <trkpt lat="47.24514" lon="-2.26144">
        <ele>13</ele>
        <time>2021-05-23T07:05:23.982Z</time>
      </trkpt>
      <trkpt lat="47.24514" lon="-2.26145">
        <ele>13</ele>
        <time>2021-05-23T07:05:24.982Z</time>
      </trkpt>
      <trkpt lat="47.24514" lon="-2.26146">
        <ele>14</ele>
        <time>2021-05-23T07:05:25.983Z</time>
      </trkpt>
      <trkpt lat="47.24513" lon="-2.26148">
        <ele>14</ele>
        <time>2021-05-23T07:05:26.982Z</time>
      </trkpt>
      <trkpt lat="47.24512" lon="-2.26149">
        <ele>14</ele>
        <time>2021-05-23T07:05:27.983Z</time>
      </trkpt>
      <trkpt lat="47.24512" lon="-2.26151">
        <ele>14</ele>
        <time>2021-05-23T07:05:28.983Z</time>
      </trkpt>
      <trkpt lat="47.24513" lon="-2.26152">
        <ele>14</ele>
        <time>2021-05-23T07:05:29.982Z</time>
      </trkpt>
      <trkpt lat="47.24513" lon="-2.26153">
        <ele>14</ele>
        <time>2021-05-23T07:05:30.982Z</time>
      </trkpt>
      <trkpt lat="47.24512" lon="-2.26155">
        <ele>14</ele>
        <time>2021-05-23T07:05:31.982Z</time>
      </trkpt>
      <trkpt lat="47.24511" lon="-2.26157">
        <ele>14</ele>
        <time>2021-05-23T07:05:32.983Z</time>
      </trkpt>
      <trkpt lat="47.2451" lon="-2.26159">
        <ele>14</ele>
        <time>2021-05-23T07:05:33.983Z</time>
      </trkpt>
      <trkpt lat="47.24509" lon="-2.26161">
        <ele>14</ele>
        <time>2021-05-23T07:05:34.983Z</time>
      </trkpt>
      <trkpt lat="47.24507" lon="-2.26162">
        <ele>14</ele>
        <time>2021-05-23T07:05:35.982Z</time>
      </trkpt>
      <trkpt lat="47.24506" lon="-2.26163">
        <ele>14</ele>
        <time>2021-05-23T07:05:36.983Z</time>
      </trkpt>
      <trkpt lat="47.24505" lon="-2.26165">
        <ele>14</ele>
        <time>2021-05-23T07:05:37.983Z</time>
      </trkpt>
      <trkpt lat="47.24504" lon="-2.26165">
        <ele>15</ele>
        <time>2021-05-23T07:05:38.983Z</time>
      </trkpt>
      <trkpt lat="47.24502" lon="-2.26167">
        <ele>15</ele>
        <time>2021-05-23T07:05:39.983Z</time>
      </trkpt>
      <trkpt lat="47.24501" lon="-2.26169">
        <ele>15</ele>
        <time>2021-05-23T07:05:40.983Z</time>
      </trkpt>
      <trkpt lat="47.245" lon="-2.2617">
        <ele>15</ele>
        <time>2021-05-23T07:05:41.982Z</time>
      </trkpt>
      <trkpt lat="47.24499" lon="-2.26171">
        <ele>15</ele>
        <time>2021-05-23T07:05:42.983Z</time>
      </trkpt>
      <trkpt lat="47.24497" lon="-2.26173">
        <ele>16</ele>
        <time>2021-05-23T07:05:43.982Z</time>
      </trkpt>
      <trkpt lat="47.24496" lon="-2.26174">
        <ele>16</ele>
        <time>2021-05-23T07:05:44.983Z</time>
      </trkpt>
      <trkpt lat="47.24495" lon="-2.26175">
        <ele>16</ele>
        <time>2021-05-23T07:05:45.983Z</time>
      </trkpt>
      <trkpt lat="47.24494" lon="-2.26174">
        <ele>16</ele>
        <time>2021-05-23T07:05:46.983Z</time>
      </trkpt>
      <trkpt lat="47.24493" lon="-2.26174">
        <ele>16</ele>
        <time>2021-05-23T07:05:47.983Z</time>
      </trkpt>
      <trkpt lat="47.24492" lon="-2.26175">
        <ele>15</ele>
        <time>2021-05-23T07:05:48.983Z</time>
      </trkpt>
      <trkpt lat="47.24492" lon="-2.26176">
        <ele>15</ele>
        <time>2021-05-23T07:05:49.982Z</time>
      </trkpt>
      <trkpt lat="47.2449" lon="-2.26177">
        <ele>15</ele>
        <time>2021-05-23T07:05:50.983Z</time>
      </trkpt>
      <trkpt lat="47.24489" lon="-2.26178">
        <ele>15</ele>
        <time>2021-05-23T07:05:51.983Z</time>
      </trkpt>
      <trkpt lat="47.24488" lon="-2.26179">
        <ele>15</ele>
        <time>2021-05-23T07:05:52.983Z</time>
      </trkpt>
      <trkpt lat="47.24486" lon="-2.26179">
        <ele>15</ele>
        <time>2021-05-23T07:05:53.983Z</time>
      </trkpt>
      <trkpt lat="47.24485" lon="-2.2618">
        <ele>14</ele>
        <time>2021-05-23T07:05:54.983Z</time>
      </trkpt>
      <trkpt lat="47.24484" lon="-2.26181">
        <ele>14</ele>
        <time>2021-05-23T07:05:55.982Z</time>
      </trkpt>
      <trkpt lat="47.24483" lon="-2.26181">
        <ele>14</ele>
        <time>2021-05-23T07:05:56.983Z</time>
      </trkpt>
      <trkpt lat="47.24482" lon="-2.26181">
        <ele>13</ele>
        <time>2021-05-23T07:05:57.983Z</time>
      </trkpt>
      <trkpt lat="47.24481" lon="-2.2618">
        <ele>13</ele>
        <time>2021-05-23T07:05:58.983Z</time>
      </trkpt>
      <trkpt lat="47.2448" lon="-2.26179">
        <ele>13</ele>
        <time>2021-05-23T07:05:59.983Z</time>
      </trkpt>
      <trkpt lat="47.24479" lon="-2.26177">
        <ele>13</ele>
        <time>2021-05-23T07:06:00.982Z</time>
      </trkpt>
      <trkpt lat="47.24477" lon="-2.26175">
        <ele>13</ele>
        <time>2021-05-23T07:06:01.983Z</time>
      </trkpt>
      <trkpt lat="47.24475" lon="-2.26173">
        <ele>12</ele>
        <time>2021-05-23T07:06:02.983Z</time>
      </trkpt>
      <trkpt lat="47.24473" lon="-2.26172">
        <ele>12</ele>
        <time>2021-05-23T07:06:03.983Z</time>
      </trkpt>
      <trkpt lat="47.24471" lon="-2.26172">
        <ele>12</ele>
        <time>2021-05-23T07:06:04.982Z</time>
      </trkpt>
      <trkpt lat="47.24468" lon="-2.26173">
        <ele>12</ele>
        <time>2021-05-23T07:06:05.983Z</time>
      </trkpt>
      <trkpt lat="47.24466" lon="-2.26174">
        <ele>12</ele>
        <time>2021-05-23T07:06:06.982Z</time>
      </trkpt>
      <trkpt lat="47.24464" lon="-2.26175">
        <ele>11</ele>
        <time>2021-05-23T07:06:07.983Z</time>
      </trkpt>
      <trkpt lat="47.24462" lon="-2.26176">
        <ele>11</ele>
        <time>2021-05-23T07:06:08.982Z</time>
      </trkpt>
      <trkpt lat="47.2446" lon="-2.26178">
        <ele>11</ele>
        <time>2021-05-23T07:06:09.982Z</time>
      </trkpt>
      <trkpt lat="47.24459" lon="-2.26179">
        <ele>10</ele>
        <time>2021-05-23T07:06:10.983Z</time>
      </trkpt>
      <trkpt lat="47.24457" lon="-2.2618">
        <ele>10</ele>
        <time>2021-05-23T07:06:11.983Z</time>
      </trkpt>
      <trkpt lat="47.24455" lon="-2.26181">
        <ele>10</ele>
        <time>2021-05-23T07:06:12.982Z</time>
      </trkpt>
      <trkpt lat="47.24453" lon="-2.26182">
        <ele>10</ele>
        <time>2021-05-23T07:06:13.982Z</time>
      </trkpt>
      <trkpt lat="47.24451" lon="-2.26183">
        <ele>10</ele>
        <time>2021-05-23T07:06:14.983Z</time>
      </trkpt>
      <trkpt lat="47.24449" lon="-2.26184">
        <ele>10</ele>
        <time>2021-05-23T07:06:15.983Z</time>
      </trkpt>
      <trkpt lat="47.24446" lon="-2.26185">
        <ele>10</ele>
        <time>2021-05-23T07:06:16.983Z</time>
      </trkpt>
      <trkpt lat="47.24444" lon="-2.26186">
        <ele>10</ele>
        <time>2021-05-23T07:06:17.982Z</time>
      </trkpt>
      <trkpt lat="47.24441" lon="-2.26187">
        <ele>10</ele>
        <time>2021-05-23T07:06:18.982Z</time>
      </trkpt>
      <trkpt lat="47.24439" lon="-2.26187">
        <ele>10</ele>
        <time>2021-05-23T07:06:19.982Z</time>
      </trkpt>
      <trkpt lat="47.24437" lon="-2.26188">
        <ele>10</ele>
        <time>2021-05-23T07:06:20.983Z</time>
      </trkpt>
      <trkpt lat="47.24435" lon="-2.26188">
        <ele>10</ele>
        <time>2021-05-23T07:06:21.983Z</time>
      </trkpt>
      <trkpt lat="47.24433" lon="-2.2619">
        <ele>10</ele>
        <time>2021-05-23T07:06:22.983Z</time>
      </trkpt>
      <trkpt lat="47.24432" lon="-2.26192">
        <ele>10</ele>
        <time>2021-05-23T07:06:23.983Z</time>
      </trkpt>
      <trkpt lat="47.2443" lon="-2.26195">
        <ele>11</ele>
        <time>2021-05-23T07:06:24.983Z</time>
      </trkpt>
      <trkpt lat="47.2443" lon="-2.26197">
        <ele>11</ele>
        <time>2021-05-23T07:06:25.983Z</time>
      </trkpt>
      <trkpt lat="47.24429" lon="-2.26199">
        <ele>11</ele>
        <time>2021-05-23T07:06:26.982Z</time>
      </trkpt>
      <trkpt lat="47.24429" lon="-2.26202">
        <ele>11</ele>
        <time>2021-05-23T07:06:27.983Z</time>
      </trkpt>
      <trkpt lat="47.24429" lon="-2.26205">
        <ele>11</ele>
        <time>2021-05-23T07:06:28.983Z</time>
      </trkpt>
      <trkpt lat="47.24428" lon="-2.26209">
        <ele>12</ele>
        <time>2021-05-23T07:06:29.982Z</time>
      </trkpt>
      <trkpt lat="47.24428" lon="-2.26212">
        <ele>12</ele>
        <time>2021-05-23T07:06:30.983Z</time>
      </trkpt>
      <trkpt lat="47.24428" lon="-2.26215">
        <ele>12</ele>
        <time>2021-05-23T07:06:31.983Z</time>
      </trkpt>
      <trkpt lat="47.24428" lon="-2.26217">
        <ele>12</ele>
        <time>2021-05-23T07:06:32.982Z</time>
      </trkpt>
      <trkpt lat="47.24428" lon="-2.2622">
        <ele>13</ele>
        <time>2021-05-23T07:06:33.982Z</time>
      </trkpt>
      <trkpt lat="47.24429" lon="-2.26222">
        <ele>13</ele>
        <time>2021-05-23T07:06:34.982Z</time>
      </trkpt>
      <trkpt lat="47.24428" lon="-2.26224">
        <ele>13</ele>
        <time>2021-05-23T07:06:35.983Z</time>
      </trkpt>
      <trkpt lat="47.24428" lon="-2.26226">
        <ele>14</ele>
        <time>2021-05-23T07:06:36.983Z</time>
      </trkpt>
      <trkpt lat="47.24428" lon="-2.26227">
        <ele>14</ele>
        <time>2021-05-23T07:06:37.983Z</time>
      </trkpt>
      <trkpt lat="47.24429" lon="-2.26229">
        <ele>15</ele>
        <time>2021-05-23T07:06:38.983Z</time>
      </trkpt>
      <trkpt lat="47.24429" lon="-2.2623">
        <ele>15</ele>
        <time>2021-05-23T07:06:39.982Z</time>
      </trkpt>
      <trkpt lat="47.2443" lon="-2.26231">
        <ele>15</ele>
        <time>2021-05-23T07:06:40.983Z</time>
      </trkpt>
      <trkpt lat="47.24431" lon="-2.26231">
        <ele>15</ele>
        <time>2021-05-23T07:06:41.983Z</time>
      </trkpt>
      <trkpt lat="47.24431" lon="-2.26232">
        <ele>15</ele>
        <time>2021-05-23T07:06:42.983Z</time>
      </trkpt>
      <trkpt lat="47.2443" lon="-2.26234">
        <ele>15</ele>
        <time>2021-05-23T07:06:43.983Z</time>
      </trkpt>
      <trkpt lat="47.24431" lon="-2.26235">
        <ele>15</ele>
        <time>2021-05-23T07:06:44.983Z</time>
      </trkpt>
      <trkpt lat="47.24431" lon="-2.26236">
        <ele>15</ele>
        <time>2021-05-23T07:06:45.983Z</time>
      </trkpt>
      <trkpt lat="47.24432" lon="-2.26237">
        <ele>15</ele>
        <time>2021-05-23T07:06:46.983Z</time>
      </trkpt>
      <trkpt lat="47.24432" lon="-2.26238">
        <ele>15</ele>
        <time>2021-05-23T07:06:47.983Z</time>
      </trkpt>
      <trkpt lat="47.24433" lon="-2.26239">
        <ele>14</ele>
        <time>2021-05-23T07:06:48.983Z</time>
      </trkpt>
      <trkpt lat="47.24433" lon="-2.2624">
        <ele>14</ele>
        <time>2021-05-23T07:06:49.983Z</time>
      </trkpt>
      <trkpt lat="47.24434" lon="-2.26241">
        <ele>14</ele>
        <time>2021-05-23T07:06:50.983Z</time>
      </trkpt>
      <trkpt lat="47.24434" lon="-2.26243">
        <ele>13</ele>
        <time>2021-05-23T07:06:51.983Z</time>
      </trkpt>
      <trkpt lat="47.24433" lon="-2.26244">
        <ele>13</ele>
        <time>2021-05-23T07:06:52.982Z</time>
      </trkpt>
      <trkpt lat="47.24433" lon="-2.26247">
        <ele>13</ele>
        <time>2021-05-23T07:06:53.983Z</time>
      </trkpt>
      <trkpt lat="47.24432" lon="-2.26249">
        <ele>12</ele>
        <time>2021-05-23T07:06:54.983Z</time>
      </trkpt>
      <trkpt lat="47.24432" lon="-2.26251">
        <ele>11</ele>
        <time>2021-05-23T07:06:55.983Z</time>
      </trkpt>
      <trkpt lat="47.24431" lon="-2.26252">
        <ele>11</ele>
        <time>2021-05-23T07:06:56.983Z</time>
      </trkpt>
      <trkpt lat="47.2443" lon="-2.26253">
        <ele>11</ele>
        <time>2021-05-23T07:06:57.982Z</time>
      </trkpt>
      <trkpt lat="47.24429" lon="-2.26254">
        <ele>11</ele>
        <time>2021-05-23T07:06:58.983Z</time>
      </trkpt>
      <trkpt lat="47.24429" lon="-2.26256">
        <ele>11</ele>
        <time>2021-05-23T07:06:59.983Z</time>
      </trkpt>
      <trkpt lat="47.24428" lon="-2.26256">
        <ele>12</ele>
        <time>2021-05-23T07:07:00.982Z</time>
      </trkpt>
      <trkpt lat="47.24428" lon="-2.26257">
        <ele>12</ele>
        <time>2021-05-23T07:07:01.983Z</time>
      </trkpt>
      <trkpt lat="47.24428" lon="-2.26256">
        <ele>12</ele>
        <time>2021-05-23T07:07:02.982Z</time>
      </trkpt>
      <trkpt lat="47.24428" lon="-2.26256">
        <ele>13</ele>
        <time>2021-05-23T07:07:03.982Z</time>
      </trkpt>
      <trkpt lat="47.24428" lon="-2.26256">
        <ele>13</ele>
        <time>2021-05-23T07:07:04.983Z</time>
      </trkpt>
      <trkpt lat="47.24427" lon="-2.26256">
        <ele>13</ele>
        <time>2021-05-23T07:07:05.983Z</time>
      </trkpt>
      <trkpt lat="47.24425" lon="-2.26257">
        <ele>14</ele>
        <time>2021-05-23T07:07:06.983Z</time>
      </trkpt>
      <trkpt lat="47.24424" lon="-2.26257">
        <ele>14</ele>
        <time>2021-05-23T07:07:07.983Z</time>
      </trkpt>
      <trkpt lat="47.24423" lon="-2.26258">
        <ele>15</ele>
        <time>2021-05-23T07:07:08.983Z</time>
      </trkpt>
      <trkpt lat="47.24422" lon="-2.26258">
        <ele>15</ele>
        <time>2021-05-23T07:07:09.983Z</time>
      </trkpt>
      <trkpt lat="47.24421" lon="-2.26258">
        <ele>15</ele>
        <time>2021-05-23T07:07:10.983Z</time>
      </trkpt>
      <trkpt lat="47.2442" lon="-2.26258">
        <ele>16</ele>
        <time>2021-05-23T07:07:11.983Z</time>
      </trkpt>
      <trkpt lat="47.2442" lon="-2.26258">
        <ele>16</ele>
        <time>2021-05-23T07:07:12.983Z</time>
      </trkpt>
      <trkpt lat="47.24419" lon="-2.26258">
        <ele>16</ele>
        <time>2021-05-23T07:07:13.983Z</time>
      </trkpt>
      <trkpt lat="47.24418" lon="-2.26258">
        <ele>17</ele>
        <time>2021-05-23T07:07:14.983Z</time>
      </trkpt>
      <trkpt lat="47.24417" lon="-2.26258">
        <ele>17</ele>
        <time>2021-05-23T07:07:15.983Z</time>
      </trkpt>
      <trkpt lat="47.24416" lon="-2.26258">
        <ele>17</ele>
        <time>2021-05-23T07:07:16.983Z</time>
      </trkpt>
      <trkpt lat="47.24415" lon="-2.26258">
        <ele>18</ele>
        <time>2021-05-23T07:07:17.983Z</time>
      </trkpt>
      <trkpt lat="47.24413" lon="-2.26258">
        <ele>18</ele>
        <time>2021-05-23T07:07:18.982Z</time>
      </trkpt>
      <trkpt lat="47.24412" lon="-2.26258">
        <ele>19</ele>
        <time>2021-05-23T07:07:19.983Z</time>
      </trkpt>
      <trkpt lat="47.2441" lon="-2.26258">
        <ele>19</ele>
        <time>2021-05-23T07:07:20.983Z</time>
      </trkpt>
      <trkpt lat="47.24409" lon="-2.26258">
        <ele>20</ele>
        <time>2021-05-23T07:07:21.983Z</time>
      </trkpt>
      <trkpt lat="47.24407" lon="-2.26257">
        <ele>20</ele>
        <time>2021-05-23T07:07:22.982Z</time>
      </trkpt>
      <trkpt lat="47.24406" lon="-2.26256">
        <ele>20</ele>
        <time>2021-05-23T07:07:23.983Z</time>
      </trkpt>
      <trkpt lat="47.24405" lon="-2.26256">
        <ele>20</ele>
        <time>2021-05-23T07:07:24.982Z</time>
      </trkpt>
      <trkpt lat="47.24403" lon="-2.26255">
        <ele>20</ele>
        <time>2021-05-23T07:07:25.983Z</time>
      </trkpt>
      <trkpt lat="47.24401" lon="-2.26254">
        <ele>20</ele>
        <time>2021-05-23T07:07:26.982Z</time>
      </trkpt>
      <trkpt lat="47.24399" lon="-2.26255">
        <ele>20</ele>
        <time>2021-05-23T07:07:27.982Z</time>
      </trkpt>
      <trkpt lat="47.24396" lon="-2.26256">
        <ele>20</ele>
        <time>2021-05-23T07:07:28.982Z</time>
      </trkpt>
      <trkpt lat="47.24394" lon="-2.26257">
        <ele>21</ele>
        <time>2021-05-23T07:07:29.983Z</time>
      </trkpt>
      <trkpt lat="47.24392" lon="-2.26258">
        <ele>21</ele>
        <time>2021-05-23T07:07:30.983Z</time>
      </trkpt>
      <trkpt lat="47.24391" lon="-2.2626">
        <ele>21</ele>
        <time>2021-05-23T07:07:31.983Z</time>
      </trkpt>
      <trkpt lat="47.24389" lon="-2.26262">
        <ele>21</ele>
        <time>2021-05-23T07:07:32.983Z</time>
      </trkpt>
      <trkpt lat="47.24387" lon="-2.26265">
        <ele>21</ele>
        <time>2021-05-23T07:07:33.982Z</time>
      </trkpt>
      <trkpt lat="47.24384" lon="-2.26267">
        <ele>21</ele>
        <time>2021-05-23T07:07:34.983Z</time>
      </trkpt>
      <trkpt lat="47.24382" lon="-2.26268">
        <ele>21</ele>
        <time>2021-05-23T07:07:35.983Z</time>
      </trkpt>
      <trkpt lat="47.2438" lon="-2.26269">
        <ele>21</ele>
        <time>2021-05-23T07:07:36.983Z</time>
      </trkpt>
      <trkpt lat="47.24377" lon="-2.2627">
        <ele>21</ele>
        <time>2021-05-23T07:07:37.983Z</time>
      </trkpt>
      <trkpt lat="47.24376" lon="-2.2627">
        <ele>21</ele>
        <time>2021-05-23T07:07:38.983Z</time>
      </trkpt>
      <trkpt lat="47.24372" lon="-2.26271">
        <ele>20</ele>
        <time>2021-05-23T07:07:39.982Z</time>
      </trkpt>
      <trkpt lat="47.24369" lon="-2.26271">
        <ele>20</ele>
        <time>2021-05-23T07:07:40.983Z</time>
      </trkpt>
      <trkpt lat="47.24365" lon="-2.26272">
        <ele>20</ele>
        <time>2021-05-23T07:07:41.983Z</time>
      </trkpt>
      <trkpt lat="47.24362" lon="-2.26272">
        <ele>20</ele>
        <time>2021-05-23T07:07:42.983Z</time>
      </trkpt>
      <trkpt lat="47.2436" lon="-2.26272">
        <ele>20</ele>
        <time>2021-05-23T07:07:43.983Z</time>
      </trkpt>
      <trkpt lat="47.24357" lon="-2.26272">
        <ele>20</ele>
        <time>2021-05-23T07:07:44.982Z</time>
      </trkpt>
      <trkpt lat="47.24355" lon="-2.26272">
        <ele>20</ele>
        <time>2021-05-23T07:07:45.983Z</time>
      </trkpt>
      <trkpt lat="47.24353" lon="-2.26273">
        <ele>19</ele>
        <time>2021-05-23T07:07:46.982Z</time>
      </trkpt>
      <trkpt lat="47.24352" lon="-2.26274">
        <ele>19</ele>
        <time>2021-05-23T07:07:47.982Z</time>
      </trkpt>
      <trkpt lat="47.24349" lon="-2.26275">
        <ele>19</ele>
        <time>2021-05-23T07:07:48.982Z</time>
      </trkpt>
      <trkpt lat="47.24347" lon="-2.26276">
        <ele>19</ele>
        <time>2021-05-23T07:07:49.983Z</time>
      </trkpt>
      <trkpt lat="47.24346" lon="-2.26276">
        <ele>19</ele>
        <time>2021-05-23T07:07:50.983Z</time>
      </trkpt>
      <trkpt lat="47.24344" lon="-2.26277">
        <ele>18</ele>
        <time>2021-05-23T07:07:51.982Z</time>
      </trkpt>
      <trkpt lat="47.24343" lon="-2.26276">
        <ele>18</ele>
        <time>2021-05-23T07:07:52.982Z</time>
      </trkpt>
      <trkpt lat="47.24342" lon="-2.26275">
        <ele>18</ele>
        <time>2021-05-23T07:07:53.983Z</time>
      </trkpt>
      <trkpt lat="47.2434" lon="-2.26274">
        <ele>17</ele>
        <time>2021-05-23T07:07:54.983Z</time>
      </trkpt>
      <trkpt lat="47.24339" lon="-2.26273">
        <ele>17</ele>
        <time>2021-05-23T07:07:55.983Z</time>
      </trkpt>
      <trkpt lat="47.24337" lon="-2.26272">
        <ele>17</ele>
        <time>2021-05-23T07:07:56.983Z</time>
      </trkpt>
      <trkpt lat="47.24336" lon="-2.26271">
        <ele>16</ele>
        <time>2021-05-23T07:07:57.983Z</time>
      </trkpt>
      <trkpt lat="47.24335" lon="-2.26269">
        <ele>16</ele>
        <time>2021-05-23T07:07:58.983Z</time>
      </trkpt>
      <trkpt lat="47.24334" lon="-2.26267">
        <ele>15</ele>
        <time>2021-05-23T07:07:59.982Z</time>
      </trkpt>
      <trkpt lat="47.24334" lon="-2.26265">
        <ele>15</ele>
        <time>2021-05-23T07:08:00.983Z</time>
      </trkpt>
      <trkpt lat="47.24333" lon="-2.26263">
        <ele>15</ele>
        <time>2021-05-23T07:08:01.983Z</time>
      </trkpt>
      <trkpt lat="47.24333" lon="-2.26261">
        <ele>15</ele>
        <time>2021-05-23T07:08:02.983Z</time>
      </trkpt>
      <trkpt lat="47.24333" lon="-2.26259">
        <ele>15</ele>
        <time>2021-05-23T07:08:03.983Z</time>
      </trkpt>
      <trkpt lat="47.24331" lon="-2.26257">
        <ele>15</ele>
        <time>2021-05-23T07:08:04.983Z</time>
      </trkpt>
      <trkpt lat="47.24331" lon="-2.26254">
        <ele>14</ele>
        <time>2021-05-23T07:08:05.983Z</time>
      </trkpt>
      <trkpt lat="47.24331" lon="-2.26253">
        <ele>14</ele>
        <time>2021-05-23T07:08:06.983Z</time>
      </trkpt>
      <trkpt lat="47.2433" lon="-2.26252">
        <ele>14</ele>
        <time>2021-05-23T07:08:07.982Z</time>
      </trkpt>
      <trkpt lat="47.2433" lon="-2.26249">
        <ele>14</ele>
        <time>2021-05-23T07:08:08.983Z</time>
      </trkpt>
      <trkpt lat="47.24329" lon="-2.26248">
        <ele>14</ele>
        <time>2021-05-23T07:08:09.983Z</time>
      </trkpt>
      <trkpt lat="47.24328" lon="-2.26246">
        <ele>14</ele>
        <time>2021-05-23T07:08:10.983Z</time>
      </trkpt>
      <trkpt lat="47.24327" lon="-2.26245">
        <ele>14</ele>
        <time>2021-05-23T07:08:11.983Z</time>
      </trkpt>
      <trkpt lat="47.24326" lon="-2.26243">
        <ele>14</ele>
        <time>2021-05-23T07:08:12.983Z</time>
      </trkpt>
      <trkpt lat="47.24327" lon="-2.2624">
        <ele>14</ele>
        <time>2021-05-23T07:08:13.983Z</time>
      </trkpt>
      <trkpt lat="47.24327" lon="-2.26237">
        <ele>14</ele>
        <time>2021-05-23T07:08:14.983Z</time>
      </trkpt>
      <trkpt lat="47.24326" lon="-2.26236">
        <ele>14</ele>
        <time>2021-05-23T07:08:15.983Z</time>
      </trkpt>
      <trkpt lat="47.24325" lon="-2.26234">
        <ele>14</ele>
        <time>2021-05-23T07:08:16.982Z</time>
      </trkpt>
      <trkpt lat="47.24324" lon="-2.26232">
        <ele>14</ele>
        <time>2021-05-23T07:08:17.982Z</time>
      </trkpt>
      <trkpt lat="47.24323" lon="-2.26231">
        <ele>14</ele>
        <time>2021-05-23T07:08:18.983Z</time>
      </trkpt>
      <trkpt lat="47.24322" lon="-2.2623">
        <ele>14</ele>
        <time>2021-05-23T07:08:19.983Z</time>
      </trkpt>
      <trkpt lat="47.24321" lon="-2.26229">
        <ele>14</ele>
        <time>2021-05-23T07:08:20.983Z</time>
      </trkpt>
      <trkpt lat="47.2432" lon="-2.26228">
        <ele>14</ele>
        <time>2021-05-23T07:08:21.983Z</time>
      </trkpt>
      <trkpt lat="47.24319" lon="-2.26227">
        <ele>14</ele>
        <time>2021-05-23T07:08:22.983Z</time>
      </trkpt>
      <trkpt lat="47.24317" lon="-2.26227">
        <ele>14</ele>
        <time>2021-05-23T07:08:23.983Z</time>
      </trkpt>
      <trkpt lat="47.24316" lon="-2.26226">
        <ele>14</ele>
        <time>2021-05-23T07:08:24.983Z</time>
      </trkpt>
      <trkpt lat="47.24314" lon="-2.26225">
        <ele>14</ele>
        <time>2021-05-23T07:08:25.982Z</time>
      </trkpt>
      <trkpt lat="47.24313" lon="-2.26225">
        <ele>13</ele>
        <time>2021-05-23T07:08:26.983Z</time>
      </trkpt>
      <trkpt lat="47.24311" lon="-2.26225">
        <ele>13</ele>
        <time>2021-05-23T07:08:27.983Z</time>
      </trkpt>
      <trkpt lat="47.24309" lon="-2.26225">
        <ele>12</ele>
        <time>2021-05-23T07:08:28.983Z</time>
      </trkpt>
      <trkpt lat="47.24308" lon="-2.26224">
        <ele>12</ele>
        <time>2021-05-23T07:08:29.983Z</time>
      </trkpt>
      <trkpt lat="47.24307" lon="-2.26223">
        <ele>12</ele>
        <time>2021-05-23T07:08:30.983Z</time>
      </trkpt>
      <trkpt lat="47.24307" lon="-2.26222">
        <ele>12</ele>
        <time>2021-05-23T07:08:31.983Z</time>
      </trkpt>
      <trkpt lat="47.24305" lon="-2.26221">
        <ele>12</ele>
        <time>2021-05-23T07:08:32.983Z</time>
      </trkpt>
      <trkpt lat="47.24304" lon="-2.26221">
        <ele>12</ele>
        <time>2021-05-23T07:08:33.983Z</time>
      </trkpt>
      <trkpt lat="47.24303" lon="-2.26221">
        <ele>12</ele>
        <time>2021-05-23T07:08:34.983Z</time>
      </trkpt>
      <trkpt lat="47.243" lon="-2.26221">
        <ele>12</ele>
        <time>2021-05-23T07:08:35.983Z</time>
      </trkpt>
      <trkpt lat="47.24298" lon="-2.26221">
        <ele>12</ele>
        <time>2021-05-23T07:08:36.983Z</time>
      </trkpt>
      <trkpt lat="47.24296" lon="-2.26221">
        <ele>12</ele>
        <time>2021-05-23T07:08:37.982Z</time>
      </trkpt>
      <trkpt lat="47.24295" lon="-2.2622">
        <ele>12</ele>
        <time>2021-05-23T07:08:38.983Z</time>
      </trkpt>
      <trkpt lat="47.24293" lon="-2.2622">
        <ele>12</ele>
        <time>2021-05-23T07:08:39.983Z</time>
      </trkpt>
      <trkpt lat="47.24291" lon="-2.2622">
        <ele>12</ele>
        <time>2021-05-23T07:08:40.983Z</time>
      </trkpt>
      <trkpt lat="47.24289" lon="-2.26221">
        <ele>12</ele>
        <time>2021-05-23T07:08:41.983Z</time>
      </trkpt>
      <trkpt lat="47.24288" lon="-2.26223">
        <ele>12</ele>
        <time>2021-05-23T07:08:42.983Z</time>
      </trkpt>
      <trkpt lat="47.24286" lon="-2.26225">
        <ele>13</ele>
        <time>2021-05-23T07:08:43.983Z</time>
      </trkpt>
      <trkpt lat="47.24285" lon="-2.26228">
        <ele>13</ele>
        <time>2021-05-23T07:08:44.983Z</time>
      </trkpt>
      <trkpt lat="47.24284" lon="-2.2623">
        <ele>13</ele>
        <time>2021-05-23T07:08:45.983Z</time>
      </trkpt>
      <trkpt lat="47.24285" lon="-2.26233">
        <ele>13</ele>
        <time>2021-05-23T07:08:46.983Z</time>
      </trkpt>
      <trkpt lat="47.24285" lon="-2.26236">
        <ele>13</ele>
        <time>2021-05-23T07:08:47.982Z</time>
      </trkpt>
      <trkpt lat="47.24286" lon="-2.26238">
        <ele>13</ele>
        <time>2021-05-23T07:08:48.982Z</time>
      </trkpt>
      <trkpt lat="47.24286" lon="-2.2624">
        <ele>12</ele>
        <time>2021-05-23T07:08:49.982Z</time>
      </trkpt>
      <trkpt lat="47.24287" lon="-2.26243">
        <ele>12</ele>
        <time>2021-05-23T07:08:50.982Z</time>
      </trkpt>
      <trkpt lat="47.24287" lon="-2.26246">
        <ele>12</ele>
        <time>2021-05-23T07:08:51.982Z</time>
      </trkpt>
      <trkpt lat="47.24287" lon="-2.26248">
        <ele>12</ele>
        <time>2021-05-23T07:08:52.983Z</time>
      </trkpt>
      <trkpt lat="47.24287" lon="-2.26251">
        <ele>12</ele>
        <time>2021-05-23T07:08:53.983Z</time>
      </trkpt>
      <trkpt lat="47.24287" lon="-2.26254">
        <ele>12</ele>
        <time>2021-05-23T07:08:54.983Z</time>
      </trkpt>
      <trkpt lat="47.24287" lon="-2.26256">
        <ele>12</ele>
        <time>2021-05-23T07:08:55.983Z</time>
      </trkpt>
      <trkpt lat="47.24287" lon="-2.2626">
        <ele>12</ele>
        <time>2021-05-23T07:08:56.983Z</time>
      </trkpt>
      <trkpt lat="47.24286" lon="-2.26262">
        <ele>12</ele>
        <time>2021-05-23T07:08:57.983Z</time>
      </trkpt>
      <trkpt lat="47.24286" lon="-2.26264">
        <ele>12</ele>
        <time>2021-05-23T07:08:58.983Z</time>
      </trkpt>
      <trkpt lat="47.24286" lon="-2.26266">
        <ele>12</ele>
        <time>2021-05-23T07:08:59.983Z</time>
      </trkpt>
      <trkpt lat="47.24285" lon="-2.26268">
        <ele>12</ele>
        <time>2021-05-23T07:09:00.983Z</time>
      </trkpt>
      <trkpt lat="47.24284" lon="-2.26269">
        <ele>12</ele>
        <time>2021-05-23T07:09:01.983Z</time>
      </trkpt>
      <trkpt lat="47.24283" lon="-2.26271">
        <ele>12</ele>
        <time>2021-05-23T07:09:02.982Z</time>
      </trkpt>
      <trkpt lat="47.24282" lon="-2.26273">
        <ele>12</ele>
        <time>2021-05-23T07:09:03.982Z</time>
      </trkpt>
      <trkpt lat="47.24281" lon="-2.26275">
        <ele>12</ele>
        <time>2021-05-23T07:09:04.983Z</time>
      </trkpt>
      <trkpt lat="47.24279" lon="-2.26276">
        <ele>12</ele>
        <time>2021-05-23T07:09:05.982Z</time>
      </trkpt>
      <trkpt lat="47.24278" lon="-2.26277">
        <ele>13</ele>
        <time>2021-05-23T07:09:06.983Z</time>
      </trkpt>
      <trkpt lat="47.24277" lon="-2.26278">
        <ele>13</ele>
        <time>2021-05-23T07:09:07.983Z</time>
      </trkpt>
      <trkpt lat="47.24276" lon="-2.2628">
        <ele>14</ele>
        <time>2021-05-23T07:09:08.982Z</time>
      </trkpt>
      <trkpt lat="47.24274" lon="-2.26281">
        <ele>14</ele>
        <time>2021-05-23T07:09:09.983Z</time>
      </trkpt>
      <trkpt lat="47.24273" lon="-2.26283">
        <ele>15</ele>
        <time>2021-05-23T07:09:10.982Z</time>
      </trkpt>
      <trkpt lat="47.24272" lon="-2.26284">
        <ele>16</ele>
        <time>2021-05-23T07:09:11.983Z</time>
      </trkpt>
      <trkpt lat="47.24271" lon="-2.26286">
        <ele>16</ele>
        <time>2021-05-23T07:09:12.983Z</time>
      </trkpt>
      <trkpt lat="47.24269" lon="-2.26287">
        <ele>17</ele>
        <time>2021-05-23T07:09:13.983Z</time>
      </trkpt>
      <trkpt lat="47.24268" lon="-2.26288">
        <ele>17</ele>
        <time>2021-05-23T07:09:14.983Z</time>
      </trkpt>
      <trkpt lat="47.24266" lon="-2.2629">
        <ele>18</ele>
        <time>2021-05-23T07:09:15.982Z</time>
      </trkpt>
      <trkpt lat="47.24265" lon="-2.26291">
        <ele>18</ele>
        <time>2021-05-23T07:09:16.982Z</time>
      </trkpt>
      <trkpt lat="47.24263" lon="-2.26292">
        <ele>18</ele>
        <time>2021-05-23T07:09:17.983Z</time>
      </trkpt>
      <trkpt lat="47.24261" lon="-2.26293">
        <ele>19</ele>
        <time>2021-05-23T07:09:18.983Z</time>
      </trkpt>
      <trkpt lat="47.2426" lon="-2.26294">
        <ele>19</ele>
        <time>2021-05-23T07:09:19.983Z</time>
      </trkpt>
      <trkpt lat="47.24258" lon="-2.26295">
        <ele>19</ele>
        <time>2021-05-23T07:09:20.983Z</time>
      </trkpt>
      <trkpt lat="47.24256" lon="-2.26296">
        <ele>19</ele>
        <time>2021-05-23T07:09:21.982Z</time>
      </trkpt>
      <trkpt lat="47.24255" lon="-2.26296">
        <ele>20</ele>
        <time>2021-05-23T07:09:22.982Z</time>
      </trkpt>
      <trkpt lat="47.24254" lon="-2.26296">
        <ele>20</ele>
        <time>2021-05-23T07:09:23.982Z</time>
      </trkpt>
      <trkpt lat="47.24253" lon="-2.26296">
        <ele>20</ele>
        <time>2021-05-23T07:09:24.983Z</time>
      </trkpt>
      <trkpt lat="47.24251" lon="-2.26295">
        <ele>20</ele>
        <time>2021-05-23T07:09:25.983Z</time>
      </trkpt>
      <trkpt lat="47.24249" lon="-2.26295">
        <ele>20</ele>
        <time>2021-05-23T07:09:26.983Z</time>
      </trkpt>
      <trkpt lat="47.24247" lon="-2.26294">
        <ele>20</ele>
        <time>2021-05-23T07:09:27.983Z</time>
      </trkpt>
      <trkpt lat="47.24244" lon="-2.26293">
        <ele>20</ele>
        <time>2021-05-23T07:09:28.983Z</time>
      </trkpt>
      <trkpt lat="47.24242" lon="-2.26291">
        <ele>20</ele>
        <time>2021-05-23T07:09:29.983Z</time>
      </trkpt>
      <trkpt lat="47.24239" lon="-2.26289">
        <ele>20</ele>
        <time>2021-05-23T07:09:30.983Z</time>
      </trkpt>
      <trkpt lat="47.24236" lon="-2.26289">
        <ele>20</ele>
        <time>2021-05-23T07:09:31.982Z</time>
      </trkpt>
      <trkpt lat="47.24234" lon="-2.26289">
        <ele>20</ele>
        <time>2021-05-23T07:09:32.983Z</time>
      </trkpt>
      <trkpt lat="47.24231" lon="-2.26289">
        <ele>20</ele>
        <time>2021-05-23T07:09:33.982Z</time>
      </trkpt>
      <trkpt lat="47.24228" lon="-2.2629">
        <ele>20</ele>
        <time>2021-05-23T07:09:34.983Z</time>
      </trkpt>
      <trkpt lat="47.24226" lon="-2.26291">
        <ele>20</ele>
        <time>2021-05-23T07:09:35.983Z</time>
      </trkpt>
      <trkpt lat="47.24223" lon="-2.26292">
        <ele>19</ele>
        <time>2021-05-23T07:09:36.982Z</time>
      </trkpt>
      <trkpt lat="47.2422" lon="-2.26294">
        <ele>19</ele>
        <time>2021-05-23T07:09:37.983Z</time>
      </trkpt>
      <trkpt lat="47.24219" lon="-2.26295">
        <ele>19</ele>
        <time>2021-05-23T07:09:38.982Z</time>
      </trkpt>
      <trkpt lat="47.24218" lon="-2.26297">
        <ele>19</ele>
        <time>2021-05-23T07:09:39.983Z</time>
      </trkpt>
      <trkpt lat="47.24218" lon="-2.263">
        <ele>19</ele>
        <time>2021-05-23T07:09:40.983Z</time>
      </trkpt>
      <trkpt lat="47.24219" lon="-2.26302">
        <ele>19</ele>
        <time>2021-05-23T07:09:41.982Z</time>
      </trkpt>
      <trkpt lat="47.24221" lon="-2.26304">
        <ele>18</ele>
        <time>2021-05-23T07:09:42.982Z</time>
      </trkpt>
      <trkpt lat="47.24222" lon="-2.26305">
        <ele>18</ele>
        <time>2021-05-23T07:09:43.983Z</time>
      </trkpt>
      <trkpt lat="47.24224" lon="-2.26306">
        <ele>18</ele>
        <time>2021-05-23T07:09:44.982Z</time>
      </trkpt>
      <trkpt lat="47.24225" lon="-2.26308">
        <ele>18</ele>
        <time>2021-05-23T07:09:45.983Z</time>
      </trkpt>
      <trkpt lat="47.24225" lon="-2.2631">
        <ele>18</ele>
        <time>2021-05-23T07:09:46.983Z</time>
      </trkpt>
      <trkpt lat="47.24225" lon="-2.26313">
        <ele>18</ele>
        <time>2021-05-23T07:09:47.983Z</time>
      </trkpt>
      <trkpt lat="47.24226" lon="-2.26315">
        <ele>18</ele>
        <time>2021-05-23T07:09:48.982Z</time>
      </trkpt>
      <trkpt lat="47.24225" lon="-2.26317">
        <ele>18</ele>
        <time>2021-05-23T07:09:49.983Z</time>
      </trkpt>
      <trkpt lat="47.24225" lon="-2.26319">
        <ele>18</ele>
        <time>2021-05-23T07:09:50.983Z</time>
      </trkpt>
      <trkpt lat="47.24224" lon="-2.26322">
        <ele>18</ele>
        <time>2021-05-23T07:09:51.983Z</time>
      </trkpt>
      <trkpt lat="47.24224" lon="-2.26324">
        <ele>19</ele>
        <time>2021-05-23T07:09:52.983Z</time>
      </trkpt>
      <trkpt lat="47.24222" lon="-2.26328">
        <ele>19</ele>
        <time>2021-05-23T07:09:53.983Z</time>
      </trkpt>
      <trkpt lat="47.24222" lon="-2.2633">
        <ele>19</ele>
        <time>2021-05-23T07:09:54.982Z</time>
      </trkpt>
      <trkpt lat="47.24221" lon="-2.26332">
        <ele>19</ele>
        <time>2021-05-23T07:09:55.983Z</time>
      </trkpt>
      <trkpt lat="47.2422" lon="-2.26334">
        <ele>19</ele>
        <time>2021-05-23T07:09:56.983Z</time>
      </trkpt>
      <trkpt lat="47.24219" lon="-2.26335">
        <ele>19</ele>
        <time>2021-05-23T07:09:57.983Z</time>
      </trkpt>
      <trkpt lat="47.24217" lon="-2.26336">
        <ele>19</ele>
        <time>2021-05-23T07:09:58.983Z</time>
      </trkpt>
      <trkpt lat="47.24215" lon="-2.26336">
        <ele>19</ele>
        <time>2021-05-23T07:09:59.983Z</time>
      </trkpt>
      <trkpt lat="47.24213" lon="-2.26336">
        <ele>19</ele>
        <time>2021-05-23T07:10:00.982Z</time>
      </trkpt>
      <trkpt lat="47.24211" lon="-2.26336">
        <ele>19</ele>
        <time>2021-05-23T07:10:01.982Z</time>
      </trkpt>
      <trkpt lat="47.24209" lon="-2.26336">
        <ele>18</ele>
        <time>2021-05-23T07:10:02.982Z</time>
      </trkpt>
      <trkpt lat="47.24205" lon="-2.26338">
        <ele>18</ele>
        <time>2021-05-23T07:10:03.983Z</time>
      </trkpt>
      <trkpt lat="47.24203" lon="-2.26339">
        <ele>18</ele>
        <time>2021-05-23T07:10:04.982Z</time>
      </trkpt>
      <trkpt lat="47.242" lon="-2.2634">
        <ele>18</ele>
        <time>2021-05-23T07:10:05.983Z</time>
      </trkpt>
      <trkpt lat="47.24198" lon="-2.26341">
        <ele>18</ele>
        <time>2021-05-23T07:10:06.983Z</time>
      </trkpt>
      <trkpt lat="47.24196" lon="-2.26341">
        <ele>18</ele>
        <time>2021-05-23T07:10:07.982Z</time>
      </trkpt>
      <trkpt lat="47.24193" lon="-2.2634">
        <ele>18</ele>
        <time>2021-05-23T07:10:08.983Z</time>
      </trkpt>
      <trkpt lat="47.2419" lon="-2.26339">
        <ele>18</ele>
        <time>2021-05-23T07:10:09.982Z</time>
      </trkpt>
      <trkpt lat="47.24188" lon="-2.26339">
        <ele>18</ele>
        <time>2021-05-23T07:10:10.983Z</time>
      </trkpt>
      <trkpt lat="47.24186" lon="-2.26339">
        <ele>18</ele>
        <time>2021-05-23T07:10:11.983Z</time>
      </trkpt>
      <trkpt lat="47.24184" lon="-2.2634">
        <ele>18</ele>
        <time>2021-05-23T07:10:12.983Z</time>
      </trkpt>
      <trkpt lat="47.24183" lon="-2.26343">
        <ele>18</ele>
        <time>2021-05-23T07:10:13.983Z</time>
      </trkpt>
      <trkpt lat="47.24182" lon="-2.26348">
        <ele>18</ele>
        <time>2021-05-23T07:10:14.982Z</time>
      </trkpt>
      <trkpt lat="47.24181" lon="-2.26351">
        <ele>18</ele>
        <time>2021-05-23T07:10:15.983Z</time>
      </trkpt>
      <trkpt lat="47.24181" lon="-2.26355">
        <ele>18</ele>
        <time>2021-05-23T07:10:16.983Z</time>
      </trkpt>
      <trkpt lat="47.24181" lon="-2.26358">
        <ele>17</ele>
        <time>2021-05-23T07:10:17.982Z</time>
      </trkpt>
      <trkpt lat="47.24181" lon="-2.26362">
        <ele>17</ele>
        <time>2021-05-23T07:10:18.983Z</time>
      </trkpt>
      <trkpt lat="47.2418" lon="-2.26366">
        <ele>16</ele>
        <time>2021-05-23T07:10:19.982Z</time>
      </trkpt>
      <trkpt lat="47.2418" lon="-2.2637">
        <ele>16</ele>
        <time>2021-05-23T07:10:20.983Z</time>
      </trkpt>
      <trkpt lat="47.2418" lon="-2.26374">
        <ele>15</ele>
        <time>2021-05-23T07:10:21.982Z</time>
      </trkpt>
      <trkpt lat="47.24181" lon="-2.26378">
        <ele>14</ele>
        <time>2021-05-23T07:10:22.983Z</time>
      </trkpt>
      <trkpt lat="47.24181" lon="-2.26381">
        <ele>13</ele>
        <time>2021-05-23T07:10:23.982Z</time>
      </trkpt>
      <trkpt lat="47.24181" lon="-2.26384">
        <ele>13</ele>
        <time>2021-05-23T07:10:24.983Z</time>
      </trkpt>
      <trkpt lat="47.24182" lon="-2.26388">
        <ele>12</ele>
        <time>2021-05-23T07:10:25.983Z</time>
      </trkpt>
      <trkpt lat="47.24184" lon="-2.2639">
        <ele>12</ele>
        <time>2021-05-23T07:10:26.982Z</time>
      </trkpt>
      <trkpt lat="47.24185" lon="-2.26392">
        <ele>11</ele>
        <time>2021-05-23T07:10:27.982Z</time>
      </trkpt>
      <trkpt lat="47.24187" lon="-2.26394">
        <ele>10</ele>
        <time>2021-05-23T07:10:28.983Z</time>
      </trkpt>
      <trkpt lat="47.24188" lon="-2.26395">
        <ele>10</ele>
        <time>2021-05-23T07:10:29.983Z</time>
      </trkpt>
      <trkpt lat="47.24189" lon="-2.26396">
        <ele>10</ele>
        <time>2021-05-23T07:10:30.983Z</time>
      </trkpt>
      <trkpt lat="47.2419" lon="-2.26396">
        <ele>10</ele>
        <time>2021-05-23T07:10:31.983Z</time>
      </trkpt>
      <trkpt lat="47.2419" lon="-2.26397">
        <ele>10</ele>
        <time>2021-05-23T07:10:32.983Z</time>
      </trkpt>
      <trkpt lat="47.24191" lon="-2.26398">
        <ele>10</ele>
        <time>2021-05-23T07:10:33.983Z</time>
      </trkpt>
      <trkpt lat="47.24191" lon="-2.26399">
        <ele>9</ele>
        <time>2021-05-23T07:10:34.982Z</time>
      </trkpt>
      <trkpt lat="47.24192" lon="-2.264">
        <ele>9</ele>
        <time>2021-05-23T07:10:35.982Z</time>
      </trkpt>
      <trkpt lat="47.24191" lon="-2.264">
        <ele>9</ele>
        <time>2021-05-23T07:10:36.982Z</time>
      </trkpt>
      <trkpt lat="47.24191" lon="-2.264">
        <ele>9</ele>
        <time>2021-05-23T07:10:37.982Z</time>
      </trkpt>
      <trkpt lat="47.24192" lon="-2.264">
        <ele>8</ele>
        <time>2021-05-23T07:10:38.982Z</time>
      </trkpt>
      <trkpt lat="47.24194" lon="-2.264">
        <ele>8</ele>
        <time>2021-05-23T07:10:39.983Z</time>
      </trkpt>
      <trkpt lat="47.24196" lon="-2.264">
        <ele>8</ele>
        <time>2021-05-23T07:10:40.983Z</time>
      </trkpt>
      <trkpt lat="47.24198" lon="-2.264">
        <ele>8</ele>
        <time>2021-05-23T07:10:41.982Z</time>
      </trkpt>
      <trkpt lat="47.242" lon="-2.26401">
        <ele>8</ele>
        <time>2021-05-23T07:10:42.983Z</time>
      </trkpt>
      <trkpt lat="47.24202" lon="-2.26401">
        <ele>8</ele>
        <time>2021-05-23T07:10:43.983Z</time>
      </trkpt>
      <trkpt lat="47.24203" lon="-2.26401">
        <ele>8</ele>
        <time>2021-05-23T07:10:44.983Z</time>
      </trkpt>
      <trkpt lat="47.24205" lon="-2.26402">
        <ele>8</ele>
        <time>2021-05-23T07:10:45.982Z</time>
      </trkpt>
      <trkpt lat="47.24206" lon="-2.26403">
        <ele>8</ele>
        <time>2021-05-23T07:10:46.982Z</time>
      </trkpt>
      <trkpt lat="47.24207" lon="-2.26404">
        <ele>8</ele>
        <time>2021-05-23T07:10:47.983Z</time>
      </trkpt>
      <trkpt lat="47.24208" lon="-2.26405">
        <ele>9</ele>
        <time>2021-05-23T07:10:48.983Z</time>
      </trkpt>
      <trkpt lat="47.24209" lon="-2.26406">
        <ele>9</ele>
        <time>2021-05-23T07:10:49.983Z</time>
      </trkpt>
      <trkpt lat="47.2421" lon="-2.26408">
        <ele>9</ele>
        <time>2021-05-23T07:10:50.983Z</time>
      </trkpt>
      <trkpt lat="47.2421" lon="-2.2641">
        <ele>9</ele>
        <time>2021-05-23T07:10:51.983Z</time>
      </trkpt>
      <trkpt lat="47.2421" lon="-2.26412">
        <ele>10</ele>
        <time>2021-05-23T07:10:52.982Z</time>
      </trkpt>
      <trkpt lat="47.24211" lon="-2.26413">
        <ele>10</ele>
        <time>2021-05-23T07:10:53.983Z</time>
      </trkpt>
      <trkpt lat="47.24212" lon="-2.26415">
        <ele>10</ele>
        <time>2021-05-23T07:10:54.983Z</time>
      </trkpt>
      <trkpt lat="47.24213" lon="-2.26416">
        <ele>10</ele>
        <time>2021-05-23T07:10:55.982Z</time>
      </trkpt>
      <trkpt lat="47.24215" lon="-2.26417">
        <ele>11</ele>
        <time>2021-05-23T07:10:56.983Z</time>
      </trkpt>
      <trkpt lat="47.24216" lon="-2.26418">
        <ele>11</ele>
        <time>2021-05-23T07:10:57.983Z</time>
      </trkpt>
      <trkpt lat="47.24216" lon="-2.2642">
        <ele>11</ele>
        <time>2021-05-23T07:10:58.982Z</time>
      </trkpt>
      <trkpt lat="47.24217" lon="-2.26422">
        <ele>11</ele>
        <time>2021-05-23T07:10:59.983Z</time>
      </trkpt>
      <trkpt lat="47.24218" lon="-2.26423">
        <ele>11</ele>
        <time>2021-05-23T07:11:00.982Z</time>
      </trkpt>
      <trkpt lat="47.24218" lon="-2.26425">
        <ele>11</ele>
        <time>2021-05-23T07:11:01.982Z</time>
      </trkpt>
      <trkpt lat="47.24219" lon="-2.26426">
        <ele>11</ele>
        <time>2021-05-23T07:11:02.982Z</time>
      </trkpt>
      <trkpt lat="47.2422" lon="-2.26427">
        <ele>11</ele>
        <time>2021-05-23T07:11:03.982Z</time>
      </trkpt>
      <trkpt lat="47.2422" lon="-2.26429">
        <ele>12</ele>
        <time>2021-05-23T07:11:04.982Z</time>
      </trkpt>
      <trkpt lat="47.24221" lon="-2.26431">
        <ele>12</ele>
        <time>2021-05-23T07:11:05.982Z</time>
      </trkpt>
      <trkpt lat="47.24222" lon="-2.26433">
        <ele>12</ele>
        <time>2021-05-23T07:11:06.982Z</time>
      </trkpt>
      <trkpt lat="47.24223" lon="-2.26434">
        <ele>12</ele>
        <time>2021-05-23T07:11:07.982Z</time>
      </trkpt>
      <trkpt lat="47.24223" lon="-2.26435">
        <ele>12</ele>
        <time>2021-05-23T07:11:08.983Z</time>
      </trkpt>
      <trkpt lat="47.24223" lon="-2.26436">
        <ele>12</ele>
        <time>2021-05-23T07:11:09.983Z</time>
      </trkpt>
      <trkpt lat="47.24223" lon="-2.26436">
        <ele>13</ele>
        <time>2021-05-23T07:11:10.983Z</time>
      </trkpt>
      <trkpt lat="47.24224" lon="-2.26436">
        <ele>14</ele>
        <time>2021-05-23T07:11:11.983Z</time>
      </trkpt>
      <trkpt lat="47.24225" lon="-2.26437">
        <ele>14</ele>
        <time>2021-05-23T07:11:12.983Z</time>
      </trkpt>
      <trkpt lat="47.24225" lon="-2.26438">
        <ele>15</ele>
        <time>2021-05-23T07:11:13.983Z</time>
      </trkpt>
      <trkpt lat="47.24226" lon="-2.2644">
        <ele>16</ele>
        <time>2021-05-23T07:11:14.983Z</time>
      </trkpt>
      <trkpt lat="47.24227" lon="-2.26441">
        <ele>16</ele>
        <time>2021-05-23T07:11:15.983Z</time>
      </trkpt>
      <trkpt lat="47.24228" lon="-2.26442">
        <ele>17</ele>
        <time>2021-05-23T07:11:16.983Z</time>
      </trkpt>
      <trkpt lat="47.24228" lon="-2.26442">
        <ele>17</ele>
        <time>2021-05-23T07:11:17.983Z</time>
      </trkpt>
      <trkpt lat="47.24229" lon="-2.26443">
        <ele>18</ele>
        <time>2021-05-23T07:11:18.982Z</time>
      </trkpt>
      <trkpt lat="47.24229" lon="-2.26444">
        <ele>19</ele>
        <time>2021-05-23T07:11:19.982Z</time>
      </trkpt>
      <trkpt lat="47.24228" lon="-2.26446">
        <ele>19</ele>
        <time>2021-05-23T07:11:20.982Z</time>
      </trkpt>
      <trkpt lat="47.24228" lon="-2.26446">
        <ele>20</ele>
        <time>2021-05-23T07:11:21.983Z</time>
      </trkpt>
      <trkpt lat="47.24229" lon="-2.26447">
        <ele>20</ele>
        <time>2021-05-23T07:11:22.983Z</time>
      </trkpt>
      <trkpt lat="47.24229" lon="-2.2645">
        <ele>21</ele>
        <time>2021-05-23T07:11:23.983Z</time>
      </trkpt>
      <trkpt lat="47.2423" lon="-2.26452">
        <ele>21</ele>
        <time>2021-05-23T07:11:24.982Z</time>
      </trkpt>
      <trkpt lat="47.2423" lon="-2.26454">
        <ele>22</ele>
        <time>2021-05-23T07:11:25.983Z</time>
      </trkpt>
      <trkpt lat="47.2423" lon="-2.26456">
        <ele>22</ele>
        <time>2021-05-23T07:11:26.983Z</time>
      </trkpt>
      <trkpt lat="47.2423" lon="-2.26457">
        <ele>22</ele>
        <time>2021-05-23T07:11:27.983Z</time>
      </trkpt>
      <trkpt lat="47.2423" lon="-2.26457">
        <ele>22</ele>
        <time>2021-05-23T07:11:28.983Z</time>
      </trkpt>
      <trkpt lat="47.24229" lon="-2.26459">
        <ele>22</ele>
        <time>2021-05-23T07:11:29.983Z</time>
      </trkpt>
      <trkpt lat="47.24228" lon="-2.26461">
        <ele>22</ele>
        <time>2021-05-23T07:11:30.982Z</time>
      </trkpt>
      <trkpt lat="47.24227" lon="-2.26463">
        <ele>22</ele>
        <time>2021-05-23T07:11:31.983Z</time>
      </trkpt>
      <trkpt lat="47.24227" lon="-2.26465">
        <ele>22</ele>
        <time>2021-05-23T07:11:32.983Z</time>
      </trkpt>
      <trkpt lat="47.24227" lon="-2.26467">
        <ele>22</ele>
        <time>2021-05-23T07:11:33.983Z</time>
      </trkpt>
      <trkpt lat="47.24227" lon="-2.26468">
        <ele>22</ele>
        <time>2021-05-23T07:11:34.983Z</time>
      </trkpt>
      <trkpt lat="47.24227" lon="-2.26469">
        <ele>22</ele>
        <time>2021-05-23T07:11:35.982Z</time>
      </trkpt>
      <trkpt lat="47.24228" lon="-2.26471">
        <ele>22</ele>
        <time>2021-05-23T07:11:36.982Z</time>
      </trkpt>
      <trkpt lat="47.24228" lon="-2.26472">
        <ele>22</ele>
        <time>2021-05-23T07:11:37.983Z</time>
      </trkpt>
      <trkpt lat="47.24227" lon="-2.26474">
        <ele>22</ele>
        <time>2021-05-23T07:11:38.983Z</time>
      </trkpt>
      <trkpt lat="47.24227" lon="-2.26476">
        <ele>22</ele>
        <time>2021-05-23T07:11:39.982Z</time>
      </trkpt>
      <trkpt lat="47.24227" lon="-2.26478">
        <ele>23</ele>
        <time>2021-05-23T07:11:40.983Z</time>
      </trkpt>
      <trkpt lat="47.24227" lon="-2.2648">
        <ele>23</ele>
        <time>2021-05-23T07:11:41.983Z</time>
      </trkpt>
      <trkpt lat="47.24227" lon="-2.26481">
        <ele>22</ele>
        <time>2021-05-23T07:11:42.982Z</time>
      </trkpt>
      <trkpt lat="47.24227" lon="-2.26482">
        <ele>22</ele>
        <time>2021-05-23T07:11:43.983Z</time>
      </trkpt>
      <trkpt lat="47.24227" lon="-2.26484">
        <ele>22</ele>
        <time>2021-05-23T07:11:44.983Z</time>
      </trkpt>
      <trkpt lat="47.24228" lon="-2.26485">
        <ele>22</ele>
        <time>2021-05-23T07:11:45.982Z</time>
      </trkpt>
      <trkpt lat="47.24228" lon="-2.26486">
        <ele>22</ele>
        <time>2021-05-23T07:11:46.983Z</time>
      </trkpt>
      <trkpt lat="47.24227" lon="-2.26488">
        <ele>23</ele>
        <time>2021-05-23T07:11:47.983Z</time>
      </trkpt>
      <trkpt lat="47.24227" lon="-2.2649">
        <ele>23</ele>
        <time>2021-05-23T07:11:48.983Z</time>
      </trkpt>
      <trkpt lat="47.24227" lon="-2.26492">
        <ele>23</ele>
        <time>2021-05-23T07:11:49.983Z</time>
      </trkpt>
      <trkpt lat="47.24227" lon="-2.26494">
        <ele>24</ele>
        <time>2021-05-23T07:11:50.983Z</time>
      </trkpt>
      <trkpt lat="47.24227" lon="-2.26496">
        <ele>24</ele>
        <time>2021-05-23T07:11:51.983Z</time>
      </trkpt>
      <trkpt lat="47.24226" lon="-2.26498">
        <ele>24</ele>
        <time>2021-05-23T07:11:52.983Z</time>
      </trkpt>
      <trkpt lat="47.24227" lon="-2.265">
        <ele>25</ele>
        <time>2021-05-23T07:11:53.983Z</time>
      </trkpt>
      <trkpt lat="47.24227" lon="-2.26503">
        <ele>25</ele>
        <time>2021-05-23T07:11:54.983Z</time>
      </trkpt>
      <trkpt lat="47.24227" lon="-2.26506">
        <ele>25</ele>
        <time>2021-05-23T07:11:55.982Z</time>
      </trkpt>
      <trkpt lat="47.24226" lon="-2.26508">
        <ele>25</ele>
        <time>2021-05-23T07:11:56.983Z</time>
      </trkpt>
      <trkpt lat="47.24225" lon="-2.2651">
        <ele>26</ele>
        <time>2021-05-23T07:11:57.982Z</time>
      </trkpt>
      <trkpt lat="47.24223" lon="-2.26512">
        <ele>26</ele>
        <time>2021-05-23T07:11:58.983Z</time>
      </trkpt>
      <trkpt lat="47.24223" lon="-2.26513">
        <ele>26</ele>
        <time>2021-05-23T07:11:59.983Z</time>
      </trkpt>
      <trkpt lat="47.24223" lon="-2.26514">
        <ele>27</ele>
        <time>2021-05-23T07:12:00.982Z</time>
      </trkpt>
      <trkpt lat="47.24223" lon="-2.26515">
        <ele>27</ele>
        <time>2021-05-23T07:12:01.982Z</time>
      </trkpt>
      <trkpt lat="47.24224" lon="-2.26515">
        <ele>27</ele>
        <time>2021-05-23T07:12:02.983Z</time>
      </trkpt>
      <trkpt lat="47.24225" lon="-2.26516">
        <ele>27</ele>
        <time>2021-05-23T07:12:03.983Z</time>
      </trkpt>
      <trkpt lat="47.24225" lon="-2.26517">
        <ele>27</ele>
        <time>2021-05-23T07:12:04.982Z</time>
      </trkpt>
      <trkpt lat="47.24225" lon="-2.26518">
        <ele>26</ele>
        <time>2021-05-23T07:12:05.983Z</time>
      </trkpt>
      <trkpt lat="47.24225" lon="-2.26518">
        <ele>26</ele>
        <time>2021-05-23T07:12:06.983Z</time>
      </trkpt>
      <trkpt lat="47.24225" lon="-2.26518">
        <ele>25</ele>
        <time>2021-05-23T07:12:07.982Z</time>
      </trkpt>
      <trkpt lat="47.24225" lon="-2.26518">
        <ele>25</ele>
        <time>2021-05-23T07:12:08.982Z</time>
      </trkpt>
      <trkpt lat="47.24225" lon="-2.26519">
        <ele>25</ele>
        <time>2021-05-23T07:12:09.982Z</time>
      </trkpt>
      <trkpt lat="47.24225" lon="-2.26519">
        <ele>25</ele>
        <time>2021-05-23T07:12:10.982Z</time>
      </trkpt>
      <trkpt lat="47.24224" lon="-2.2652">
        <ele>25</ele>
        <time>2021-05-23T07:12:11.982Z</time>
      </trkpt>
      <trkpt lat="47.24224" lon="-2.26521">
        <ele>25</ele>
        <time>2021-05-23T07:12:12.983Z</time>
      </trkpt>
      <trkpt lat="47.24223" lon="-2.26522">
        <ele>24</ele>
        <time>2021-05-23T07:12:13.983Z</time>
      </trkpt>
      <trkpt lat="47.24222" lon="-2.26523">
        <ele>24</ele>
        <time>2021-05-23T07:12:14.982Z</time>
      </trkpt>
      <trkpt lat="47.24223" lon="-2.26524">
        <ele>24</ele>
        <time>2021-05-23T07:12:15.982Z</time>
      </trkpt>
      <trkpt lat="47.24223" lon="-2.26527">
        <ele>24</ele>
        <time>2021-05-23T07:12:16.982Z</time>
      </trkpt>
      <trkpt lat="47.24224" lon="-2.26529">
        <ele>24</ele>
        <time>2021-05-23T07:12:17.982Z</time>
      </trkpt>
      <trkpt lat="47.24224" lon="-2.26531">
        <ele>24</ele>
        <time>2021-05-23T07:12:18.983Z</time>
      </trkpt>
      <trkpt lat="47.24224" lon="-2.26533">
        <ele>23</ele>
        <time>2021-05-23T07:12:19.982Z</time>
      </trkpt>
      <trkpt lat="47.24225" lon="-2.26535">
        <ele>23</ele>
        <time>2021-05-23T07:12:20.982Z</time>
      </trkpt>
      <trkpt lat="47.24224" lon="-2.26537">
        <ele>23</ele>
        <time>2021-05-23T07:12:21.982Z</time>
      </trkpt>
      <trkpt lat="47.24224" lon="-2.26539">
        <ele>23</ele>
        <time>2021-05-23T07:12:22.983Z</time>
      </trkpt>
      <trkpt lat="47.24223" lon="-2.26542">
        <ele>23</ele>
        <time>2021-05-23T07:12:23.983Z</time>
      </trkpt>
      <trkpt lat="47.24223" lon="-2.26545">
        <ele>22</ele>
        <time>2021-05-23T07:12:24.982Z</time>
      </trkpt>
      <trkpt lat="47.24223" lon="-2.26548">
        <ele>22</ele>
        <time>2021-05-23T07:12:25.982Z</time>
      </trkpt>
      <trkpt lat="47.24222" lon="-2.26551">
        <ele>23</ele>
        <time>2021-05-23T07:12:26.983Z</time>
      </trkpt>
      <trkpt lat="47.24222" lon="-2.26553">
        <ele>23</ele>
        <time>2021-05-23T07:12:27.982Z</time>
      </trkpt>
      <trkpt lat="47.24223" lon="-2.26556">
        <ele>23</ele>
        <time>2021-05-23T07:12:28.982Z</time>
      </trkpt>
      <trkpt lat="47.24222" lon="-2.26559">
        <ele>23</ele>
        <time>2021-05-23T07:12:29.982Z</time>
      </trkpt>
      <trkpt lat="47.24222" lon="-2.26563">
        <ele>23</ele>
        <time>2021-05-23T07:12:30.982Z</time>
      </trkpt>
      <trkpt lat="47.24222" lon="-2.26565">
        <ele>23</ele>
        <time>2021-05-23T07:12:31.983Z</time>
      </trkpt>
      <trkpt lat="47.24222" lon="-2.26568">
        <ele>23</ele>
        <time>2021-05-23T07:12:32.983Z</time>
      </trkpt>
      <trkpt lat="47.24222" lon="-2.26572">
        <ele>23</ele>
        <time>2021-05-23T07:12:33.982Z</time>
      </trkpt>
      <trkpt lat="47.24221" lon="-2.26575">
        <ele>23</ele>
        <time>2021-05-23T07:12:34.983Z</time>
      </trkpt>
      <trkpt lat="47.24221" lon="-2.26577">
        <ele>23</ele>
        <time>2021-05-23T07:12:35.982Z</time>
      </trkpt>
      <trkpt lat="47.24222" lon="-2.26579">
        <ele>23</ele>
        <time>2021-05-23T07:12:36.983Z</time>
      </trkpt>
      <trkpt lat="47.24222" lon="-2.26581">
        <ele>23</ele>
        <time>2021-05-23T07:12:37.982Z</time>
      </trkpt>
      <trkpt lat="47.24222" lon="-2.26583">
        <ele>23</ele>
        <time>2021-05-23T07:12:38.982Z</time>
      </trkpt>
      <trkpt lat="47.24222" lon="-2.26586">
        <ele>23</ele>
        <time>2021-05-23T07:12:39.982Z</time>
      </trkpt>
      <trkpt lat="47.24221" lon="-2.26589">
        <ele>24</ele>
        <time>2021-05-23T07:12:40.982Z</time>
      </trkpt>
      <trkpt lat="47.24222" lon="-2.26591">
        <ele>24</ele>
        <time>2021-05-23T07:12:41.983Z</time>
      </trkpt>
      <trkpt lat="47.24222" lon="-2.26593">
        <ele>24</ele>
        <time>2021-05-23T07:12:42.982Z</time>
      </trkpt>
      <trkpt lat="47.24221" lon="-2.26596">
        <ele>24</ele>
        <time>2021-05-23T07:12:43.982Z</time>
      </trkpt>
      <trkpt lat="47.24221" lon="-2.266">
        <ele>24</ele>
        <time>2021-05-23T07:12:44.982Z</time>
      </trkpt>
      <trkpt lat="47.24221" lon="-2.26603">
        <ele>24</ele>
        <time>2021-05-23T07:12:45.982Z</time>
      </trkpt>
      <trkpt lat="47.24221" lon="-2.26606">
        <ele>24</ele>
        <time>2021-05-23T07:12:46.982Z</time>
      </trkpt>
      <trkpt lat="47.2422" lon="-2.26609">
        <ele>24</ele>
        <time>2021-05-23T07:12:47.983Z</time>
      </trkpt>
      <trkpt lat="47.2422" lon="-2.26611">
        <ele>24</ele>
        <time>2021-05-23T07:12:48.982Z</time>
      </trkpt>
      <trkpt lat="47.2422" lon="-2.26614">
        <ele>24</ele>
        <time>2021-05-23T07:12:49.983Z</time>
      </trkpt>
      <trkpt lat="47.2422" lon="-2.26618">
        <ele>24</ele>
        <time>2021-05-23T07:12:50.982Z</time>
      </trkpt>
      <trkpt lat="47.24219" lon="-2.26621">
        <ele>24</ele>
        <time>2021-05-23T07:12:51.982Z</time>
      </trkpt>
      <trkpt lat="47.24219" lon="-2.26624">
        <ele>23</ele>
        <time>2021-05-23T07:12:52.983Z</time>
      </trkpt>
      <trkpt lat="47.24218" lon="-2.26625">
        <ele>23</ele>
        <time>2021-05-23T07:12:53.982Z</time>
      </trkpt>
      <trkpt lat="47.24217" lon="-2.26626">
        <ele>23</ele>
        <time>2021-05-23T07:12:54.983Z</time>
      </trkpt>
      <trkpt lat="47.24215" lon="-2.26627">
        <ele>23</ele>
        <time>2021-05-23T07:12:55.983Z</time>
      </trkpt>
      <trkpt lat="47.24213" lon="-2.26627">
        <ele>23</ele>
        <time>2021-05-23T07:12:56.982Z</time>
      </trkpt>
      <trkpt lat="47.24212" lon="-2.26627">
        <ele>23</ele>
        <time>2021-05-23T07:12:57.983Z</time>
      </trkpt>
      <trkpt lat="47.24211" lon="-2.26626">
        <ele>23</ele>
        <time>2021-05-23T07:12:58.983Z</time>
      </trkpt>
      <trkpt lat="47.24209" lon="-2.26625">
        <ele>23</ele>
        <time>2021-05-23T07:12:59.983Z</time>
      </trkpt>
      <trkpt lat="47.24208" lon="-2.26625">
        <ele>24</ele>
        <time>2021-05-23T07:13:00.983Z</time>
      </trkpt>
      <trkpt lat="47.24206" lon="-2.26624">
        <ele>24</ele>
        <time>2021-05-23T07:13:01.983Z</time>
      </trkpt>
      <trkpt lat="47.24204" lon="-2.26623">
        <ele>24</ele>
        <time>2021-05-23T07:13:02.983Z</time>
      </trkpt>
      <trkpt lat="47.24202" lon="-2.26621">
        <ele>25</ele>
        <time>2021-05-23T07:13:03.983Z</time>
      </trkpt>
      <trkpt lat="47.242" lon="-2.2662">
        <ele>25</ele>
        <time>2021-05-23T07:13:04.983Z</time>
      </trkpt>
      <trkpt lat="47.24198" lon="-2.2662">
        <ele>26</ele>
        <time>2021-05-23T07:13:05.983Z</time>
      </trkpt>
      <trkpt lat="47.24196" lon="-2.26619">
        <ele>26</ele>
        <time>2021-05-23T07:13:06.983Z</time>
      </trkpt>
      <trkpt lat="47.24194" lon="-2.26619">
        <ele>27</ele>
        <time>2021-05-23T07:13:07.983Z</time>
      </trkpt>
      <trkpt lat="47.24192" lon="-2.26618">
        <ele>27</ele>
        <time>2021-05-23T07:13:08.983Z</time>
      </trkpt>
      <trkpt lat="47.24189" lon="-2.26616">
        <ele>27</ele>
        <time>2021-05-23T07:13:09.982Z</time>
      </trkpt>
      <trkpt lat="47.24187" lon="-2.26615">
        <ele>28</ele>
        <time>2021-05-23T07:13:10.983Z</time>
      </trkpt>
      <trkpt lat="47.24186" lon="-2.26614">
        <ele>28</ele>
        <time>2021-05-23T07:13:11.983Z</time>
      </trkpt>
      <trkpt lat="47.24183" lon="-2.26614">
        <ele>28</ele>
        <time>2021-05-23T07:13:12.982Z</time>
      </trkpt>
      <trkpt lat="47.2418" lon="-2.26613">
        <ele>29</ele>
        <time>2021-05-23T07:13:13.983Z</time>
      </trkpt>
      <trkpt lat="47.24177" lon="-2.26613">
        <ele>29</ele>
        <time>2021-05-23T07:13:14.983Z</time>
      </trkpt>
      <trkpt lat="47.24174" lon="-2.26612">
        <ele>30</ele>
        <time>2021-05-23T07:13:15.982Z</time>
      </trkpt>
      <trkpt lat="47.24172" lon="-2.26612">
        <ele>30</ele>
        <time>2021-05-23T07:13:16.983Z</time>
      </trkpt>
      <trkpt lat="47.2417" lon="-2.26611">
        <ele>30</ele>
        <time>2021-05-23T07:13:17.983Z</time>
      </trkpt>
      <trkpt lat="47.24167" lon="-2.26611">
        <ele>31</ele>
        <time>2021-05-23T07:13:18.983Z</time>
      </trkpt>
      <trkpt lat="47.24165" lon="-2.2661">
        <ele>31</ele>
        <time>2021-05-23T07:13:19.983Z</time>
      </trkpt>
      <trkpt lat="47.24163" lon="-2.26609">
        <ele>31</ele>
        <time>2021-05-23T07:13:20.983Z</time>
      </trkpt>
      <trkpt lat="47.24162" lon="-2.26607">
        <ele>31</ele>
        <time>2021-05-23T07:13:21.982Z</time>
      </trkpt>
      <trkpt lat="47.24161" lon="-2.26606">
        <ele>31</ele>
        <time>2021-05-23T07:13:22.983Z</time>
      </trkpt>
      <trkpt lat="47.24162" lon="-2.26603">
        <ele>31</ele>
        <time>2021-05-23T07:13:23.983Z</time>
      </trkpt>
      <trkpt lat="47.24162" lon="-2.26601">
        <ele>31</ele>
        <time>2021-05-23T07:13:24.982Z</time>
      </trkpt>
      <trkpt lat="47.24163" lon="-2.26598">
        <ele>30</ele>
        <time>2021-05-23T07:13:25.983Z</time>
      </trkpt>
      <trkpt lat="47.24164" lon="-2.26596">
        <ele>30</ele>
        <time>2021-05-23T07:13:26.982Z</time>
      </trkpt>
      <trkpt lat="47.24165" lon="-2.26592">
        <ele>29</ele>
        <time>2021-05-23T07:13:27.982Z</time>
      </trkpt>
      <trkpt lat="47.24166" lon="-2.26588">
        <ele>29</ele>
        <time>2021-05-23T07:13:28.983Z</time>
      </trkpt>
      <trkpt lat="47.24165" lon="-2.26585">
        <ele>28</ele>
        <time>2021-05-23T07:13:29.983Z</time>
      </trkpt>
      <trkpt lat="47.24164" lon="-2.26582">
        <ele>28</ele>
        <time>2021-05-23T07:13:30.983Z</time>
      </trkpt>
      <trkpt lat="47.24162" lon="-2.2658">
        <ele>27</ele>
        <time>2021-05-23T07:13:31.982Z</time>
      </trkpt>
      <trkpt lat="47.2416" lon="-2.26579">
        <ele>27</ele>
        <time>2021-05-23T07:13:32.983Z</time>
      </trkpt>
      <trkpt lat="47.24157" lon="-2.26577">
        <ele>27</ele>
        <time>2021-05-23T07:13:33.983Z</time>
      </trkpt>
      <trkpt lat="47.24154" lon="-2.26577">
        <ele>26</ele>
        <time>2021-05-23T07:13:34.983Z</time>
      </trkpt>
      <trkpt lat="47.24152" lon="-2.26576">
        <ele>26</ele>
        <time>2021-05-23T07:13:35.982Z</time>
      </trkpt>
      <trkpt lat="47.24149" lon="-2.26575">
        <ele>26</ele>
        <time>2021-05-23T07:13:36.982Z</time>
      </trkpt>
      <trkpt lat="47.24145" lon="-2.26574">
        <ele>26</ele>
        <time>2021-05-23T07:13:37.983Z</time>
      </trkpt>
      <trkpt lat="47.24143" lon="-2.26574">
        <ele>26</ele>
        <time>2021-05-23T07:13:38.983Z</time>
      </trkpt>
      <trkpt lat="47.24139" lon="-2.26574">
        <ele>26</ele>
        <time>2021-05-23T07:13:39.983Z</time>
      </trkpt>
      <trkpt lat="47.24137" lon="-2.26573">
        <ele>26</ele>
        <time>2021-05-23T07:13:40.983Z</time>
      </trkpt>
      <trkpt lat="47.24133" lon="-2.26573">
        <ele>26</ele>
        <time>2021-05-23T07:13:41.982Z</time>
      </trkpt>
      <trkpt lat="47.24131" lon="-2.26573">
        <ele>26</ele>
        <time>2021-05-23T07:13:42.983Z</time>
      </trkpt>
      <trkpt lat="47.24128" lon="-2.26573">
        <ele>25</ele>
        <time>2021-05-23T07:13:43.982Z</time>
      </trkpt>
      <trkpt lat="47.24125" lon="-2.26572">
        <ele>25</ele>
        <time>2021-05-23T07:13:44.983Z</time>
      </trkpt>
      <trkpt lat="47.24123" lon="-2.26572">
        <ele>25</ele>
        <time>2021-05-23T07:13:45.983Z</time>
      </trkpt>
      <trkpt lat="47.2412" lon="-2.26572">
        <ele>25</ele>
        <time>2021-05-23T07:13:46.983Z</time>
      </trkpt>
      <trkpt lat="47.24118" lon="-2.26572">
        <ele>25</ele>
        <time>2021-05-23T07:13:47.983Z</time>
      </trkpt>
      <trkpt lat="47.24115" lon="-2.26574">
        <ele>25</ele>
        <time>2021-05-23T07:13:48.983Z</time>
      </trkpt>
      <trkpt lat="47.24113" lon="-2.26576">
        <ele>25</ele>
        <time>2021-05-23T07:13:49.983Z</time>
      </trkpt>
      <trkpt lat="47.24112" lon="-2.26578">
        <ele>25</ele>
        <time>2021-05-23T07:13:50.983Z</time>
      </trkpt>
      <trkpt lat="47.24112" lon="-2.2658">
        <ele>24</ele>
        <time>2021-05-23T07:13:51.983Z</time>
      </trkpt>
      <trkpt lat="47.24111" lon="-2.26582">
        <ele>24</ele>
        <time>2021-05-23T07:13:52.983Z</time>
      </trkpt>
      <trkpt lat="47.24111" lon="-2.26584">
        <ele>23</ele>
        <time>2021-05-23T07:13:53.983Z</time>
      </trkpt>
      <trkpt lat="47.24111" lon="-2.26586">
        <ele>23</ele>
        <time>2021-05-23T07:13:54.982Z</time>
      </trkpt>
      <trkpt lat="47.24111" lon="-2.26588">
        <ele>22</ele>
        <time>2021-05-23T07:13:55.983Z</time>
      </trkpt>
      <trkpt lat="47.24111" lon="-2.2659">
        <ele>22</ele>
        <time>2021-05-23T07:13:56.983Z</time>
      </trkpt>
      <trkpt lat="47.24111" lon="-2.26592">
        <ele>21</ele>
        <time>2021-05-23T07:13:57.982Z</time>
      </trkpt>
      <trkpt lat="47.24112" lon="-2.26594">
        <ele>21</ele>
        <time>2021-05-23T07:13:58.982Z</time>
      </trkpt>
      <trkpt lat="47.24112" lon="-2.26595">
        <ele>20</ele>
        <time>2021-05-23T07:13:59.982Z</time>
      </trkpt>
      <trkpt lat="47.24113" lon="-2.26596">
        <ele>20</ele>
        <time>2021-05-23T07:14:00.983Z</time>
      </trkpt>
      <trkpt lat="47.24113" lon="-2.26597">
        <ele>20</ele>
        <time>2021-05-23T07:14:01.983Z</time>
      </trkpt>
      <trkpt lat="47.24113" lon="-2.26598">
        <ele>20</ele>
        <time>2021-05-23T07:14:02.983Z</time>
      </trkpt>
      <trkpt lat="47.24112" lon="-2.26599">
        <ele>20</ele>
        <time>2021-05-23T07:14:03.983Z</time>
      </trkpt>
      <trkpt lat="47.24112" lon="-2.266">
        <ele>19</ele>
        <time>2021-05-23T07:14:04.983Z</time>
      </trkpt>
      <trkpt lat="47.24112" lon="-2.26601">
        <ele>19</ele>
        <time>2021-05-23T07:14:05.983Z</time>
      </trkpt>
      <trkpt lat="47.24112" lon="-2.26602">
        <ele>19</ele>
        <time>2021-05-23T07:14:06.982Z</time>
      </trkpt>
      <trkpt lat="47.24112" lon="-2.26603">
        <ele>19</ele>
        <time>2021-05-23T07:14:07.983Z</time>
      </trkpt>
      <trkpt lat="47.24112" lon="-2.26603">
        <ele>19</ele>
        <time>2021-05-23T07:14:08.983Z</time>
      </trkpt>
      <trkpt lat="47.24113" lon="-2.26605">
        <ele>19</ele>
        <time>2021-05-23T07:14:09.983Z</time>
      </trkpt>
      <trkpt lat="47.24113" lon="-2.26607">
        <ele>19</ele>
        <time>2021-05-23T07:14:10.983Z</time>
      </trkpt>
      <trkpt lat="47.24113" lon="-2.2661">
        <ele>19</ele>
        <time>2021-05-23T07:14:11.983Z</time>
      </trkpt>
      <trkpt lat="47.24113" lon="-2.26613">
        <ele>18</ele>
        <time>2021-05-23T07:14:12.982Z</time>
      </trkpt>
      <trkpt lat="47.24113" lon="-2.26615">
        <ele>18</ele>
        <time>2021-05-23T07:14:13.983Z</time>
      </trkpt>
      <trkpt lat="47.24112" lon="-2.26617">
        <ele>18</ele>
        <time>2021-05-23T07:14:14.983Z</time>
      </trkpt>
      <trkpt lat="47.24112" lon="-2.2662">
        <ele>18</ele>
        <time>2021-05-23T07:14:15.983Z</time>
      </trkpt>
      <trkpt lat="47.24111" lon="-2.26621">
        <ele>17</ele>
        <time>2021-05-23T07:14:16.982Z</time>
      </trkpt>
      <trkpt lat="47.2411" lon="-2.26623">
        <ele>17</ele>
        <time>2021-05-23T07:14:17.983Z</time>
      </trkpt>
      <trkpt lat="47.2411" lon="-2.26625">
        <ele>17</ele>
        <time>2021-05-23T07:14:18.983Z</time>
      </trkpt>
      <trkpt lat="47.24109" lon="-2.26627">
        <ele>17</ele>
        <time>2021-05-23T07:14:19.983Z</time>
      </trkpt>
      <trkpt lat="47.24108" lon="-2.26628">
        <ele>17</ele>
        <time>2021-05-23T07:14:20.983Z</time>
      </trkpt>
      <trkpt lat="47.24108" lon="-2.26628">
        <ele>17</ele>
        <time>2021-05-23T07:14:21.982Z</time>
      </trkpt>
      <trkpt lat="47.24108" lon="-2.26629">
        <ele>17</ele>
        <time>2021-05-23T07:14:22.982Z</time>
      </trkpt>
      <trkpt lat="47.24107" lon="-2.2663">
        <ele>17</ele>
        <time>2021-05-23T07:14:23.982Z</time>
      </trkpt>
      <trkpt lat="47.24106" lon="-2.26631">
        <ele>18</ele>
        <time>2021-05-23T07:14:24.982Z</time>
      </trkpt>
      <trkpt lat="47.24105" lon="-2.26633">
        <ele>19</ele>
        <time>2021-05-23T07:14:25.982Z</time>
      </trkpt>
      <trkpt lat="47.24104" lon="-2.26634">
        <ele>20</ele>
        <time>2021-05-23T07:14:26.982Z</time>
      </trkpt>
      <trkpt lat="47.24103" lon="-2.26634">
        <ele>21</ele>
        <time>2021-05-23T07:14:27.982Z</time>
      </trkpt>
      <trkpt lat="47.24102" lon="-2.26635">
        <ele>21</ele>
        <time>2021-05-23T07:14:28.982Z</time>
      </trkpt>
      <trkpt lat="47.24102" lon="-2.26636">
        <ele>22</ele>
        <time>2021-05-23T07:14:29.983Z</time>
      </trkpt>
      <trkpt lat="47.24101" lon="-2.26637">
        <ele>23</ele>
        <time>2021-05-23T07:14:30.982Z</time>
      </trkpt>
      <trkpt lat="47.241" lon="-2.26638">
        <ele>24</ele>
        <time>2021-05-23T07:14:31.983Z</time>
      </trkpt>
      <trkpt lat="47.241" lon="-2.26638">
        <ele>24</ele>
        <time>2021-05-23T07:14:32.982Z</time>
      </trkpt>
      <trkpt lat="47.241" lon="-2.26638">
        <ele>25</ele>
        <time>2021-05-23T07:14:33.983Z</time>
      </trkpt>
      <trkpt lat="47.241" lon="-2.26639">
        <ele>25</ele>
        <time>2021-05-23T07:14:34.983Z</time>
      </trkpt>
      <trkpt lat="47.241" lon="-2.26639">
        <ele>25</ele>
        <time>2021-05-23T07:14:35.983Z</time>
      </trkpt>
      <trkpt lat="47.241" lon="-2.26639">
        <ele>26</ele>
        <time>2021-05-23T07:14:36.983Z</time>
      </trkpt>
      <trkpt lat="47.24099" lon="-2.26639">
        <ele>26</ele>
        <time>2021-05-23T07:14:37.983Z</time>
      </trkpt>
      <trkpt lat="47.241" lon="-2.26638">
        <ele>26</ele>
        <time>2021-05-23T07:14:38.982Z</time>
      </trkpt>
      <trkpt lat="47.24101" lon="-2.26638">
        <ele>27</ele>
        <time>2021-05-23T07:14:39.982Z</time>
      </trkpt>
      <trkpt lat="47.24101" lon="-2.26638">
        <ele>27</ele>
        <time>2021-05-23T07:14:40.983Z</time>
      </trkpt>
      <trkpt lat="47.24101" lon="-2.26638">
        <ele>28</ele>
        <time>2021-05-23T07:14:41.983Z</time>
      </trkpt>
      <trkpt lat="47.24101" lon="-2.26638">
        <ele>28</ele>
        <time>2021-05-23T07:14:42.982Z</time>
      </trkpt>
      <trkpt lat="47.24101" lon="-2.26637">
        <ele>28</ele>
        <time>2021-05-23T07:14:43.983Z</time>
      </trkpt>
      <trkpt lat="47.241" lon="-2.26636">
        <ele>28</ele>
        <time>2021-05-23T07:14:44.983Z</time>
      </trkpt>
      <trkpt lat="47.24099" lon="-2.26635">
        <ele>28</ele>
        <time>2021-05-23T07:14:45.983Z</time>
      </trkpt>
      <trkpt lat="47.24098" lon="-2.26635">
        <ele>28</ele>
        <time>2021-05-23T07:14:46.983Z</time>
      </trkpt>
      <trkpt lat="47.24097" lon="-2.26636">
        <ele>28</ele>
        <time>2021-05-23T07:14:47.983Z</time>
      </trkpt>
      <trkpt lat="47.24097" lon="-2.26635">
        <ele>27</ele>
        <time>2021-05-23T07:14:48.982Z</time>
      </trkpt>
      <trkpt lat="47.24098" lon="-2.26634">
        <ele>27</ele>
        <time>2021-05-23T07:14:49.983Z</time>
      </trkpt>
      <trkpt lat="47.24098" lon="-2.26634">
        <ele>26</ele>
        <time>2021-05-23T07:14:50.982Z</time>
      </trkpt>
      <trkpt lat="47.24098" lon="-2.26634">
        <ele>26</ele>
        <time>2021-05-23T07:14:51.982Z</time>
      </trkpt>
      <trkpt lat="47.24098" lon="-2.26634">
        <ele>25</ele>
        <time>2021-05-23T07:14:52.983Z</time>
      </trkpt>
      <trkpt lat="47.24098" lon="-2.26634">
        <ele>25</ele>
        <time>2021-05-23T07:14:53.982Z</time>
      </trkpt>
      <trkpt lat="47.24098" lon="-2.26634">
        <ele>24</ele>
        <time>2021-05-23T07:14:54.983Z</time>
      </trkpt>
      <trkpt lat="47.24097" lon="-2.26635">
        <ele>24</ele>
        <time>2021-05-23T07:14:55.982Z</time>
      </trkpt>
      <trkpt lat="47.24098" lon="-2.26635">
        <ele>24</ele>
        <time>2021-05-23T07:14:56.982Z</time>
      </trkpt>
      <trkpt lat="47.24097" lon="-2.26636">
        <ele>23</ele>
        <time>2021-05-23T07:14:57.982Z</time>
      </trkpt>
      <trkpt lat="47.24097" lon="-2.26636">
        <ele>23</ele>
        <time>2021-05-23T07:14:58.983Z</time>
      </trkpt>
      <trkpt lat="47.24097" lon="-2.26636">
        <ele>22</ele>
        <time>2021-05-23T07:14:59.983Z</time>
      </trkpt>
      <trkpt lat="47.24097" lon="-2.26636">
        <ele>22</ele>
        <time>2021-05-23T07:15:00.983Z</time>
      </trkpt>
      <trkpt lat="47.24097" lon="-2.26636">
        <ele>21</ele>
        <time>2021-05-23T07:15:01.983Z</time>
      </trkpt>
      <trkpt lat="47.24097" lon="-2.26636">
        <ele>21</ele>
        <time>2021-05-23T07:15:02.982Z</time>
      </trkpt>
      <trkpt lat="47.24097" lon="-2.26636">
        <ele>21</ele>
        <time>2021-05-23T07:15:03.983Z</time>
      </trkpt>
      <trkpt lat="47.24097" lon="-2.26636">
        <ele>21</ele>
        <time>2021-05-23T07:15:04.983Z</time>
      </trkpt>
      <trkpt lat="47.24097" lon="-2.26636">
        <ele>21</ele>
        <time>2021-05-23T07:15:05.983Z</time>
      </trkpt>
      <trkpt lat="47.24097" lon="-2.26636">
        <ele>20</ele>
        <time>2021-05-23T07:15:06.983Z</time>
      </trkpt>
      <trkpt lat="47.24096" lon="-2.26639">
        <ele>20</ele>
        <time>2021-05-23T07:15:07.983Z</time>
      </trkpt>
      <trkpt lat="47.24096" lon="-2.26642">
        <ele>20</ele>
        <time>2021-05-23T07:15:08.983Z</time>
      </trkpt>
      <trkpt lat="47.24094" lon="-2.26646">
        <ele>20</ele>
        <time>2021-05-23T07:15:09.982Z</time>
      </trkpt>
      <trkpt lat="47.24093" lon="-2.26648">
        <ele>20</ele>
        <time>2021-05-23T07:15:10.983Z</time>
      </trkpt>
      <trkpt lat="47.24091" lon="-2.26651">
        <ele>20</ele>
        <time>2021-05-23T07:15:11.983Z</time>
      </trkpt>
      <trkpt lat="47.2409" lon="-2.26655">
        <ele>20</ele>
        <time>2021-05-23T07:15:12.983Z</time>
      </trkpt>
      <trkpt lat="47.24089" lon="-2.26658">
        <ele>20</ele>
        <time>2021-05-23T07:15:13.983Z</time>
      </trkpt>
      <trkpt lat="47.24087" lon="-2.26661">
        <ele>21</ele>
        <time>2021-05-23T07:15:14.983Z</time>
      </trkpt>
      <trkpt lat="47.24086" lon="-2.26664">
        <ele>21</ele>
        <time>2021-05-23T07:15:15.983Z</time>
      </trkpt>
      <trkpt lat="47.24085" lon="-2.26667">
        <ele>21</ele>
        <time>2021-05-23T07:15:16.983Z</time>
      </trkpt>
      <trkpt lat="47.24084" lon="-2.26669">
        <ele>21</ele>
        <time>2021-05-23T07:15:17.982Z</time>
      </trkpt>
      <trkpt lat="47.24082" lon="-2.26672">
        <ele>22</ele>
        <time>2021-05-23T07:15:18.983Z</time>
      </trkpt>
      <trkpt lat="47.24081" lon="-2.26675">
        <ele>22</ele>
        <time>2021-05-23T07:15:19.983Z</time>
      </trkpt>
      <trkpt lat="47.2408" lon="-2.26677">
        <ele>22</ele>
        <time>2021-05-23T07:15:20.983Z</time>
      </trkpt>
      <trkpt lat="47.24079" lon="-2.2668">
        <ele>22</ele>
        <time>2021-05-23T07:15:21.983Z</time>
      </trkpt>
      <trkpt lat="47.24078" lon="-2.26683">
        <ele>22</ele>
        <time>2021-05-23T07:15:22.983Z</time>
      </trkpt>
      <trkpt lat="47.24076" lon="-2.26687">
        <ele>22</ele>
        <time>2021-05-23T07:15:23.983Z</time>
      </trkpt>
      <trkpt lat="47.24074" lon="-2.26689">
        <ele>22</ele>
        <time>2021-05-23T07:15:24.983Z</time>
      </trkpt>
      <trkpt lat="47.24073" lon="-2.26691">
        <ele>23</ele>
        <time>2021-05-23T07:15:25.983Z</time>
      </trkpt>
      <trkpt lat="47.24071" lon="-2.26694">
        <ele>23</ele>
        <time>2021-05-23T07:15:26.982Z</time>
      </trkpt>
      <trkpt lat="47.2407" lon="-2.26697">
        <ele>23</ele>
        <time>2021-05-23T07:15:27.983Z</time>
      </trkpt>
      <trkpt lat="47.24068" lon="-2.267">
        <ele>23</ele>
        <time>2021-05-23T07:15:28.983Z</time>
      </trkpt>
      <trkpt lat="47.24067" lon="-2.26702">
        <ele>24</ele>
        <time>2021-05-23T07:15:29.983Z</time>
      </trkpt>
      <trkpt lat="47.24065" lon="-2.26704">
        <ele>24</ele>
        <time>2021-05-23T07:15:30.983Z</time>
      </trkpt>
      <trkpt lat="47.24063" lon="-2.26706">
        <ele>25</ele>
        <time>2021-05-23T07:15:31.983Z</time>
      </trkpt>
      <trkpt lat="47.24062" lon="-2.26708">
        <ele>25</ele>
        <time>2021-05-23T07:15:32.983Z</time>
      </trkpt>
      <trkpt lat="47.2406" lon="-2.26709">
        <ele>25</ele>
        <time>2021-05-23T07:15:33.982Z</time>
      </trkpt>
      <trkpt lat="47.24059" lon="-2.26711">
        <ele>26</ele>
        <time>2021-05-23T07:15:34.983Z</time>
      </trkpt>
      <trkpt lat="47.24057" lon="-2.26713">
        <ele>26</ele>
        <time>2021-05-23T07:15:35.983Z</time>
      </trkpt>
      <trkpt lat="47.24055" lon="-2.26714">
        <ele>26</ele>
        <time>2021-05-23T07:15:36.982Z</time>
      </trkpt>
      <trkpt lat="47.24053" lon="-2.26716">
        <ele>26</ele>
        <time>2021-05-23T07:15:37.982Z</time>
      </trkpt>
      <trkpt lat="47.24051" lon="-2.26718">
        <ele>27</ele>
        <time>2021-05-23T07:15:38.982Z</time>
      </trkpt>
      <trkpt lat="47.24049" lon="-2.2672">
        <ele>27</ele>
        <time>2021-05-23T07:15:39.983Z</time>
      </trkpt>
      <trkpt lat="47.24047" lon="-2.26722">
        <ele>27</ele>
        <time>2021-05-23T07:15:40.983Z</time>
      </trkpt>
      <trkpt lat="47.24045" lon="-2.26724">
        <ele>27</ele>
        <time>2021-05-23T07:15:41.983Z</time>
      </trkpt>
      <trkpt lat="47.24043" lon="-2.26726">
        <ele>27</ele>
        <time>2021-05-23T07:15:42.983Z</time>
      </trkpt>
      <trkpt lat="47.2404" lon="-2.26727">
        <ele>27</ele>
        <time>2021-05-23T07:15:43.983Z</time>
      </trkpt>
      <trkpt lat="47.24038" lon="-2.26728">
        <ele>27</ele>
        <time>2021-05-23T07:15:44.983Z</time>
      </trkpt>
      <trkpt lat="47.24036" lon="-2.2673">
        <ele>26</ele>
        <time>2021-05-23T07:15:45.982Z</time>
      </trkpt>
      <trkpt lat="47.24034" lon="-2.26731">
        <ele>26</ele>
        <time>2021-05-23T07:15:46.983Z</time>
      </trkpt>
      <trkpt lat="47.24031" lon="-2.26732">
        <ele>26</ele>
        <time>2021-05-23T07:15:47.983Z</time>
      </trkpt>
      <trkpt lat="47.24028" lon="-2.26734">
        <ele>26</ele>
        <time>2021-05-23T07:15:48.983Z</time>
      </trkpt>
      <trkpt lat="47.24027" lon="-2.26735">
        <ele>26</ele>
        <time>2021-05-23T07:15:49.983Z</time>
      </trkpt>
      <trkpt lat="47.24024" lon="-2.26736">
        <ele>26</ele>
        <time>2021-05-23T07:15:50.983Z</time>
      </trkpt>
      <trkpt lat="47.24022" lon="-2.26737">
        <ele>26</ele>
        <time>2021-05-23T07:15:51.983Z</time>
      </trkpt>
      <trkpt lat="47.24019" lon="-2.26738">
        <ele>26</ele>
        <time>2021-05-23T07:15:52.983Z</time>
      </trkpt>
      <trkpt lat="47.24017" lon="-2.26739">
        <ele>26</ele>
        <time>2021-05-23T07:15:53.983Z</time>
      </trkpt>
      <trkpt lat="47.24014" lon="-2.2674">
        <ele>26</ele>
        <time>2021-05-23T07:15:54.983Z</time>
      </trkpt>
      <trkpt lat="47.24011" lon="-2.2674">
        <ele>26</ele>
        <time>2021-05-23T07:15:55.983Z</time>
      </trkpt>
      <trkpt lat="47.24008" lon="-2.2674">
        <ele>26</ele>
        <time>2021-05-23T07:15:56.983Z</time>
      </trkpt>
      <trkpt lat="47.24006" lon="-2.2674">
        <ele>26</ele>
        <time>2021-05-23T07:15:57.983Z</time>
      </trkpt>
      <trkpt lat="47.24004" lon="-2.2674">
        <ele>26</ele>
        <time>2021-05-23T07:15:58.983Z</time>
      </trkpt>
      <trkpt lat="47.24002" lon="-2.2674">
        <ele>26</ele>
        <time>2021-05-23T07:15:59.983Z</time>
      </trkpt>
      <trkpt lat="47.23998" lon="-2.2674">
        <ele>25</ele>
        <time>2021-05-23T07:16:00.983Z</time>
      </trkpt>
      <trkpt lat="47.23996" lon="-2.26739">
        <ele>25</ele>
        <time>2021-05-23T07:16:01.983Z</time>
      </trkpt>
      <trkpt lat="47.23993" lon="-2.26739">
        <ele>25</ele>
        <time>2021-05-23T07:16:02.983Z</time>
      </trkpt>
      <trkpt lat="47.23991" lon="-2.26738">
        <ele>25</ele>
        <time>2021-05-23T07:16:03.982Z</time>
      </trkpt>
      <trkpt lat="47.23988" lon="-2.26738">
        <ele>24</ele>
        <time>2021-05-23T07:16:04.982Z</time>
      </trkpt>
      <trkpt lat="47.23985" lon="-2.26738">
        <ele>24</ele>
        <time>2021-05-23T07:16:05.983Z</time>
      </trkpt>
      <trkpt lat="47.23983" lon="-2.26738">
        <ele>24</ele>
        <time>2021-05-23T07:16:06.983Z</time>
      </trkpt>
      <trkpt lat="47.2398" lon="-2.26737">
        <ele>23</ele>
        <time>2021-05-23T07:16:07.983Z</time>
      </trkpt>
      <trkpt lat="47.23979" lon="-2.26737">
        <ele>23</ele>
        <time>2021-05-23T07:16:08.983Z</time>
      </trkpt>
      <trkpt lat="47.23977" lon="-2.26737">
        <ele>22</ele>
        <time>2021-05-23T07:16:09.982Z</time>
      </trkpt>
      <trkpt lat="47.23973" lon="-2.26737">
        <ele>22</ele>
        <time>2021-05-23T07:16:10.983Z</time>
      </trkpt>
      <trkpt lat="47.2397" lon="-2.26737">
        <ele>21</ele>
        <time>2021-05-23T07:16:11.983Z</time>
      </trkpt>
      <trkpt lat="47.23968" lon="-2.26737">
        <ele>21</ele>
        <time>2021-05-23T07:16:12.982Z</time>
      </trkpt>
      <trkpt lat="47.23966" lon="-2.26737">
        <ele>21</ele>
        <time>2021-05-23T07:16:13.983Z</time>
      </trkpt>
      <trkpt lat="47.23964" lon="-2.26736">
        <ele>20</ele>
        <time>2021-05-23T07:16:14.983Z</time>
      </trkpt>
      <trkpt lat="47.23961" lon="-2.26734">
        <ele>20</ele>
        <time>2021-05-23T07:16:15.983Z</time>
      </trkpt>
      <trkpt lat="47.23959" lon="-2.26733">
        <ele>20</ele>
        <time>2021-05-23T07:16:16.982Z</time>
      </trkpt>
      <trkpt lat="47.23956" lon="-2.26733">
        <ele>20</ele>
        <time>2021-05-23T07:16:17.983Z</time>
      </trkpt>
      <trkpt lat="47.23954" lon="-2.26733">
        <ele>19</ele>
        <time>2021-05-23T07:16:18.983Z</time>
      </trkpt>
      <trkpt lat="47.23951" lon="-2.26734">
        <ele>19</ele>
        <time>2021-05-23T07:16:19.983Z</time>
      </trkpt>
      <trkpt lat="47.23948" lon="-2.26735">
        <ele>19</ele>
        <time>2021-05-23T07:16:20.983Z</time>
      </trkpt>
      <trkpt lat="47.23946" lon="-2.26736">
        <ele>19</ele>
        <time>2021-05-23T07:16:21.983Z</time>
      </trkpt>
      <trkpt lat="47.23944" lon="-2.26737">
        <ele>19</ele>
        <time>2021-05-23T07:16:22.983Z</time>
      </trkpt>
      <trkpt lat="47.23942" lon="-2.26738">
        <ele>20</ele>
        <time>2021-05-23T07:16:23.983Z</time>
      </trkpt>
      <trkpt lat="47.2394" lon="-2.26739">
        <ele>20</ele>
        <time>2021-05-23T07:16:24.983Z</time>
      </trkpt>
      <trkpt lat="47.23937" lon="-2.26741">
        <ele>20</ele>
        <time>2021-05-23T07:16:25.982Z</time>
      </trkpt>
      <trkpt lat="47.23935" lon="-2.26743">
        <ele>20</ele>
        <time>2021-05-23T07:16:26.982Z</time>
      </trkpt>
      <trkpt lat="47.23933" lon="-2.26745">
        <ele>19</ele>
        <time>2021-05-23T07:16:27.982Z</time>
      </trkpt>
      <trkpt lat="47.23931" lon="-2.26745">
        <ele>19</ele>
        <time>2021-05-23T07:16:28.982Z</time>
      </trkpt>
      <trkpt lat="47.23929" lon="-2.26746">
        <ele>19</ele>
        <time>2021-05-23T07:16:29.982Z</time>
      </trkpt>
      <trkpt lat="47.23927" lon="-2.26746">
        <ele>19</ele>
        <time>2021-05-23T07:16:30.983Z</time>
      </trkpt>
      <trkpt lat="47.23925" lon="-2.26746">
        <ele>19</ele>
        <time>2021-05-23T07:16:31.983Z</time>
      </trkpt>
      <trkpt lat="47.23924" lon="-2.26746">
        <ele>18</ele>
        <time>2021-05-23T07:16:32.983Z</time>
      </trkpt>
      <trkpt lat="47.23922" lon="-2.26746">
        <ele>18</ele>
        <time>2021-05-23T07:16:33.983Z</time>
      </trkpt>
      <trkpt lat="47.2392" lon="-2.26746">
        <ele>18</ele>
        <time>2021-05-23T07:16:34.982Z</time>
      </trkpt>
      <trkpt lat="47.23918" lon="-2.26747">
        <ele>18</ele>
        <time>2021-05-23T07:16:35.983Z</time>
      </trkpt>
      <trkpt lat="47.23915" lon="-2.26747">
        <ele>18</ele>
        <time>2021-05-23T07:16:36.983Z</time>
      </trkpt>
      <trkpt lat="47.23913" lon="-2.26747">
        <ele>18</ele>
        <time>2021-05-23T07:16:37.982Z</time>
      </trkpt>
      <trkpt lat="47.23911" lon="-2.26747">
        <ele>18</ele>
        <time>2021-05-23T07:16:38.982Z</time>
      </trkpt>
      <trkpt lat="47.23908" lon="-2.26746">
        <ele>18</ele>
        <time>2021-05-23T07:16:39.982Z</time>
      </trkpt>
      <trkpt lat="47.23905" lon="-2.26747">
        <ele>18</ele>
        <time>2021-05-23T07:16:40.982Z</time>
      </trkpt>
      <trkpt lat="47.23903" lon="-2.26746">
        <ele>18</ele>
        <time>2021-05-23T07:16:41.982Z</time>
      </trkpt>
      <trkpt lat="47.239" lon="-2.26746">
        <ele>18</ele>
        <time>2021-05-23T07:16:42.982Z</time>
      </trkpt>
      <trkpt lat="47.23898" lon="-2.26746">
        <ele>18</ele>
        <time>2021-05-23T07:16:43.982Z</time>
      </trkpt>
      <trkpt lat="47.23895" lon="-2.26746">
        <ele>18</ele>
        <time>2021-05-23T07:16:44.982Z</time>
      </trkpt>
      <trkpt lat="47.23893" lon="-2.26746">
        <ele>18</ele>
        <time>2021-05-23T07:16:45.983Z</time>
      </trkpt>
      <trkpt lat="47.23891" lon="-2.26746">
        <ele>18</ele>
        <time>2021-05-23T07:16:46.982Z</time>
      </trkpt>
      <trkpt lat="47.23889" lon="-2.26746">
        <ele>18</ele>
        <time>2021-05-23T07:16:47.982Z</time>
      </trkpt>
      <trkpt lat="47.23887" lon="-2.26748">
        <ele>18</ele>
        <time>2021-05-23T07:16:48.982Z</time>
      </trkpt>
      <trkpt lat="47.23886" lon="-2.2675">
        <ele>18</ele>
        <time>2021-05-23T07:16:49.982Z</time>
      </trkpt>
      <trkpt lat="47.23884" lon="-2.26753">
        <ele>18</ele>
        <time>2021-05-23T07:16:50.982Z</time>
      </trkpt>
      <trkpt lat="47.23883" lon="-2.26756">
        <ele>17</ele>
        <time>2021-05-23T07:16:51.983Z</time>
      </trkpt>
      <trkpt lat="47.23884" lon="-2.2676">
        <ele>17</ele>
        <time>2021-05-23T07:16:52.982Z</time>
      </trkpt>
      <trkpt lat="47.23885" lon="-2.26763">
        <ele>16</ele>
        <time>2021-05-23T07:16:53.982Z</time>
      </trkpt>
      <trkpt lat="47.23886" lon="-2.26767">
        <ele>16</ele>
        <time>2021-05-23T07:16:54.982Z</time>
      </trkpt>
      <trkpt lat="47.23886" lon="-2.26771">
        <ele>15</ele>
        <time>2021-05-23T07:16:55.982Z</time>
      </trkpt>
      <trkpt lat="47.23886" lon="-2.26774">
        <ele>15</ele>
        <time>2021-05-23T07:16:56.982Z</time>
      </trkpt>
      <trkpt lat="47.23888" lon="-2.26778">
        <ele>15</ele>
        <time>2021-05-23T07:16:57.982Z</time>
      </trkpt>
      <trkpt lat="47.23889" lon="-2.26782">
        <ele>14</ele>
        <time>2021-05-23T07:16:58.983Z</time>
      </trkpt>
      <trkpt lat="47.2389" lon="-2.26786">
        <ele>14</ele>
        <time>2021-05-23T07:16:59.982Z</time>
      </trkpt>
      <trkpt lat="47.23891" lon="-2.26789">
        <ele>13</ele>
        <time>2021-05-23T07:17:00.983Z</time>
      </trkpt>
      <trkpt lat="47.23891" lon="-2.26792">
        <ele>13</ele>
        <time>2021-05-23T07:17:01.983Z</time>
      </trkpt>
      <trkpt lat="47.23892" lon="-2.26796">
        <ele>12</ele>
        <time>2021-05-23T07:17:02.983Z</time>
      </trkpt>
      <trkpt lat="47.23893" lon="-2.26799">
        <ele>12</ele>
        <time>2021-05-23T07:17:03.983Z</time>
      </trkpt>
      <trkpt lat="47.23894" lon="-2.26802">
        <ele>11</ele>
        <time>2021-05-23T07:17:04.983Z</time>
      </trkpt>
      <trkpt lat="47.23895" lon="-2.26806">
        <ele>11</ele>
        <time>2021-05-23T07:17:05.983Z</time>
      </trkpt>
      <trkpt lat="47.23896" lon="-2.26809">
        <ele>11</ele>
        <time>2021-05-23T07:17:06.982Z</time>
      </trkpt>
      <trkpt lat="47.23896" lon="-2.26812">
        <ele>11</ele>
        <time>2021-05-23T07:17:07.982Z</time>
      </trkpt>
      <trkpt lat="47.23897" lon="-2.26816">
        <ele>10</ele>
        <time>2021-05-23T07:17:08.983Z</time>
      </trkpt>
      <trkpt lat="47.23897" lon="-2.26819">
        <ele>10</ele>
        <time>2021-05-23T07:17:09.983Z</time>
      </trkpt>
      <trkpt lat="47.23897" lon="-2.26822">
        <ele>9</ele>
        <time>2021-05-23T07:17:10.983Z</time>
      </trkpt>
      <trkpt lat="47.23896" lon="-2.26826">
        <ele>9</ele>
        <time>2021-05-23T07:17:11.983Z</time>
      </trkpt>
      <trkpt lat="47.23896" lon="-2.26829">
        <ele>8</ele>
        <time>2021-05-23T07:17:12.983Z</time>
      </trkpt>
      <trkpt lat="47.23895" lon="-2.26832">
        <ele>8</ele>
        <time>2021-05-23T07:17:13.983Z</time>
      </trkpt>
      <trkpt lat="47.23893" lon="-2.26834">
        <ele>8</ele>
        <time>2021-05-23T07:17:14.983Z</time>
      </trkpt>
      <trkpt lat="47.23892" lon="-2.26837">
        <ele>8</ele>
        <time>2021-05-23T07:17:15.983Z</time>
      </trkpt>
      <trkpt lat="47.2389" lon="-2.26838">
        <ele>8</ele>
        <time>2021-05-23T07:17:16.983Z</time>
      </trkpt>
      <trkpt lat="47.23887" lon="-2.2684">
        <ele>8</ele>
        <time>2021-05-23T07:17:17.983Z</time>
      </trkpt>
      <trkpt lat="47.23885" lon="-2.26841">
        <ele>8</ele>
        <time>2021-05-23T07:17:18.982Z</time>
      </trkpt>
      <trkpt lat="47.23883" lon="-2.26841">
        <ele>8</ele>
        <time>2021-05-23T07:17:19.983Z</time>
      </trkpt>
      <trkpt lat="47.2388" lon="-2.26842">
        <ele>8</ele>
        <time>2021-05-23T07:17:20.983Z</time>
      </trkpt>
      <trkpt lat="47.23878" lon="-2.26842">
        <ele>8</ele>
        <time>2021-05-23T07:17:21.983Z</time>
      </trkpt>
      <trkpt lat="47.23876" lon="-2.26842">
        <ele>8</ele>
        <time>2021-05-23T07:17:22.983Z</time>
      </trkpt>
      <trkpt lat="47.23874" lon="-2.26842">
        <ele>8</ele>
        <time>2021-05-23T07:17:23.983Z</time>
      </trkpt>
      <trkpt lat="47.23872" lon="-2.26843">
        <ele>8</ele>
        <time>2021-05-23T07:17:24.983Z</time>
      </trkpt>
      <trkpt lat="47.2387" lon="-2.26845">
        <ele>8</ele>
        <time>2021-05-23T07:17:25.983Z</time>
      </trkpt>
      <trkpt lat="47.23868" lon="-2.26847">
        <ele>8</ele>
        <time>2021-05-23T07:17:26.982Z</time>
      </trkpt>
      <trkpt lat="47.23866" lon="-2.26849">
        <ele>8</ele>
        <time>2021-05-23T07:17:27.983Z</time>
      </trkpt>
      <trkpt lat="47.23865" lon="-2.26852">
        <ele>9</ele>
        <time>2021-05-23T07:17:28.983Z</time>
      </trkpt>
      <trkpt lat="47.23865" lon="-2.26855">
        <ele>9</ele>
        <time>2021-05-23T07:17:29.983Z</time>
      </trkpt>
      <trkpt lat="47.23865" lon="-2.26859">
        <ele>9</ele>
        <time>2021-05-23T07:17:30.982Z</time>
      </trkpt>
      <trkpt lat="47.23865" lon="-2.26862">
        <ele>9</ele>
        <time>2021-05-23T07:17:31.983Z</time>
      </trkpt>
      <trkpt lat="47.23866" lon="-2.26866">
        <ele>8</ele>
        <time>2021-05-23T07:17:32.983Z</time>
      </trkpt>
      <trkpt lat="47.23867" lon="-2.26868">
        <ele>8</ele>
        <time>2021-05-23T07:17:33.983Z</time>
      </trkpt>
      <trkpt lat="47.23868" lon="-2.2687">
        <ele>8</ele>
        <time>2021-05-23T07:17:34.983Z</time>
      </trkpt>
      <trkpt lat="47.2387" lon="-2.26872">
        <ele>7</ele>
        <time>2021-05-23T07:17:35.983Z</time>
      </trkpt>
      <trkpt lat="47.23872" lon="-2.26874">
        <ele>7</ele>
        <time>2021-05-23T07:17:36.983Z</time>
      </trkpt>
      <trkpt lat="47.23875" lon="-2.26874">
        <ele>7</ele>
        <time>2021-05-23T07:17:37.983Z</time>
      </trkpt>
      <trkpt lat="47.23877" lon="-2.26875">
        <ele>7</ele>
        <time>2021-05-23T07:17:38.983Z</time>
      </trkpt>
      <trkpt lat="47.2388" lon="-2.26875">
        <ele>7</ele>
        <time>2021-05-23T07:17:39.983Z</time>
      </trkpt>
      <trkpt lat="47.23882" lon="-2.26875">
        <ele>7</ele>
        <time>2021-05-23T07:17:40.983Z</time>
      </trkpt>
      <trkpt lat="47.23885" lon="-2.26875">
        <ele>7</ele>
        <time>2021-05-23T07:17:41.983Z</time>
      </trkpt>
      <trkpt lat="47.23887" lon="-2.26876">
        <ele>7</ele>
        <time>2021-05-23T07:17:42.983Z</time>
      </trkpt>
      <trkpt lat="47.23889" lon="-2.26878">
        <ele>6</ele>
        <time>2021-05-23T07:17:43.983Z</time>
      </trkpt>
      <trkpt lat="47.23893" lon="-2.26879">
        <ele>6</ele>
        <time>2021-05-23T07:17:44.982Z</time>
      </trkpt>
      <trkpt lat="47.23896" lon="-2.2688">
        <ele>6</ele>
        <time>2021-05-23T07:17:45.982Z</time>
      </trkpt>
      <trkpt lat="47.23899" lon="-2.2688">
        <ele>6</ele>
        <time>2021-05-23T07:17:46.983Z</time>
      </trkpt>
      <trkpt lat="47.23901" lon="-2.2688">
        <ele>6</ele>
        <time>2021-05-23T07:17:47.982Z</time>
      </trkpt>
      <trkpt lat="47.23903" lon="-2.26881">
        <ele>6</ele>
        <time>2021-05-23T07:17:48.982Z</time>
      </trkpt>
      <trkpt lat="47.23906" lon="-2.26882">
        <ele>6</ele>
        <time>2021-05-23T07:17:49.983Z</time>
      </trkpt>
      <trkpt lat="47.23908" lon="-2.26884">
        <ele>6</ele>
        <time>2021-05-23T07:17:50.982Z</time>
      </trkpt>
      <trkpt lat="47.2391" lon="-2.26885">
        <ele>6</ele>
        <time>2021-05-23T07:17:51.983Z</time>
      </trkpt>
      <trkpt lat="47.23912" lon="-2.26886">
        <ele>7</ele>
        <time>2021-05-23T07:17:52.983Z</time>
      </trkpt>
      <trkpt lat="47.23914" lon="-2.26887">
        <ele>7</ele>
        <time>2021-05-23T07:17:53.982Z</time>
      </trkpt>
      <trkpt lat="47.23917" lon="-2.26888">
        <ele>7</ele>
        <time>2021-05-23T07:17:54.983Z</time>
      </trkpt>
      <trkpt lat="47.2392" lon="-2.26888">
        <ele>8</ele>
        <time>2021-05-23T07:17:55.983Z</time>
      </trkpt>
      <trkpt lat="47.23922" lon="-2.26889">
        <ele>8</ele>
        <time>2021-05-23T07:17:56.983Z</time>
      </trkpt>
      <trkpt lat="47.23925" lon="-2.2689">
        <ele>8</ele>
        <time>2021-05-23T07:17:57.982Z</time>
      </trkpt>
      <trkpt lat="47.23927" lon="-2.2689">
        <ele>9</ele>
        <time>2021-05-23T07:17:58.983Z</time>
      </trkpt>
      <trkpt lat="47.23929" lon="-2.26891">
        <ele>9</ele>
        <time>2021-05-23T07:17:59.983Z</time>
      </trkpt>
      <trkpt lat="47.23931" lon="-2.26892">
        <ele>9</ele>
        <time>2021-05-23T07:18:00.982Z</time>
      </trkpt>
      <trkpt lat="47.23932" lon="-2.26893">
        <ele>9</ele>
        <time>2021-05-23T07:18:01.983Z</time>
      </trkpt>
      <trkpt lat="47.23934" lon="-2.26894">
        <ele>9</ele>
        <time>2021-05-23T07:18:02.982Z</time>
      </trkpt>
      <trkpt lat="47.23935" lon="-2.26895">
        <ele>8</ele>
        <time>2021-05-23T07:18:03.983Z</time>
      </trkpt>
      <trkpt lat="47.23937" lon="-2.26896">
        <ele>8</ele>
        <time>2021-05-23T07:18:04.983Z</time>
      </trkpt>
      <trkpt lat="47.2394" lon="-2.26897">
        <ele>8</ele>
        <time>2021-05-23T07:18:05.983Z</time>
      </trkpt>
      <trkpt lat="47.23942" lon="-2.26899">
        <ele>8</ele>
        <time>2021-05-23T07:18:06.983Z</time>
      </trkpt>
      <trkpt lat="47.23945" lon="-2.26901">
        <ele>8</ele>
        <time>2021-05-23T07:18:07.983Z</time>
      </trkpt>
      <trkpt lat="47.23947" lon="-2.26903">
        <ele>8</ele>
        <time>2021-05-23T07:18:08.983Z</time>
      </trkpt>
      <trkpt lat="47.23948" lon="-2.26905">
        <ele>8</ele>
        <time>2021-05-23T07:18:09.982Z</time>
      </trkpt>
      <trkpt lat="47.23949" lon="-2.26909">
        <ele>8</ele>
        <time>2021-05-23T07:18:10.983Z</time>
      </trkpt>
      <trkpt lat="47.2395" lon="-2.26912">
        <ele>8</ele>
        <time>2021-05-23T07:18:11.982Z</time>
      </trkpt>
      <trkpt lat="47.2395" lon="-2.26915">
        <ele>8</ele>
        <time>2021-05-23T07:18:12.982Z</time>
      </trkpt>
      <trkpt lat="47.23951" lon="-2.26918">
        <ele>8</ele>
        <time>2021-05-23T07:18:13.983Z</time>
      </trkpt>
      <trkpt lat="47.23951" lon="-2.26922">
        <ele>8</ele>
        <time>2021-05-23T07:18:14.983Z</time>
      </trkpt>
      <trkpt lat="47.23951" lon="-2.26925">
        <ele>7</ele>
        <time>2021-05-23T07:18:15.982Z</time>
      </trkpt>
      <trkpt lat="47.23952" lon="-2.26928">
        <ele>7</ele>
        <time>2021-05-23T07:18:16.982Z</time>
      </trkpt>
      <trkpt lat="47.23952" lon="-2.26932">
        <ele>7</ele>
        <time>2021-05-23T07:18:17.982Z</time>
      </trkpt>
      <trkpt lat="47.23952" lon="-2.26935">
        <ele>7</ele>
        <time>2021-05-23T07:18:18.983Z</time>
      </trkpt>
      <trkpt lat="47.23953" lon="-2.26938">
        <ele>7</ele>
        <time>2021-05-23T07:18:19.983Z</time>
      </trkpt>
      <trkpt lat="47.23953" lon="-2.26942">
        <ele>7</ele>
        <time>2021-05-23T07:18:20.983Z</time>
      </trkpt>
      <trkpt lat="47.23953" lon="-2.26945">
        <ele>6</ele>
        <time>2021-05-23T07:18:21.983Z</time>
      </trkpt>
      <trkpt lat="47.23955" lon="-2.26948">
        <ele>6</ele>
        <time>2021-05-23T07:18:22.983Z</time>
      </trkpt>
      <trkpt lat="47.23956" lon="-2.2695">
        <ele>6</ele>
        <time>2021-05-23T07:18:23.983Z</time>
      </trkpt>
      <trkpt lat="47.23958" lon="-2.26952">
        <ele>6</ele>
        <time>2021-05-23T07:18:24.983Z</time>
      </trkpt>
      <trkpt lat="47.23961" lon="-2.26953">
        <ele>6</ele>
        <time>2021-05-23T07:18:25.982Z</time>
      </trkpt>
      <trkpt lat="47.23963" lon="-2.26954">
        <ele>6</ele>
        <time>2021-05-23T07:18:26.983Z</time>
      </trkpt>
      <trkpt lat="47.23966" lon="-2.26954">
        <ele>6</ele>
        <time>2021-05-23T07:18:27.982Z</time>
      </trkpt>
      <trkpt lat="47.23968" lon="-2.26955">
        <ele>6</ele>
        <time>2021-05-23T07:18:28.983Z</time>
      </trkpt>
      <trkpt lat="47.2397" lon="-2.26956">
        <ele>6</ele>
        <time>2021-05-23T07:18:29.983Z</time>
      </trkpt>
      <trkpt lat="47.23972" lon="-2.26957">
        <ele>5</ele>
        <time>2021-05-23T07:18:30.983Z</time>
      </trkpt>
      <trkpt lat="47.23974" lon="-2.26958">
        <ele>5</ele>
        <time>2021-05-23T07:18:31.983Z</time>
      </trkpt>
      <trkpt lat="47.23976" lon="-2.2696">
        <ele>5</ele>
        <time>2021-05-23T07:18:32.983Z</time>
      </trkpt>
      <trkpt lat="47.23978" lon="-2.26961">
        <ele>5</ele>
        <time>2021-05-23T07:18:33.982Z</time>
      </trkpt>
      <trkpt lat="47.2398" lon="-2.26962">
        <ele>5</ele>
        <time>2021-05-23T07:18:34.983Z</time>
      </trkpt>
      <trkpt lat="47.23983" lon="-2.26963">
        <ele>5</ele>
        <time>2021-05-23T07:18:35.983Z</time>
      </trkpt>
      <trkpt lat="47.23985" lon="-2.26963">
        <ele>5</ele>
        <time>2021-05-23T07:18:36.982Z</time>
      </trkpt>
      <trkpt lat="47.23987" lon="-2.26964">
        <ele>5</ele>
        <time>2021-05-23T07:18:37.982Z</time>
      </trkpt>
      <trkpt lat="47.23989" lon="-2.26965">
        <ele>5</ele>
        <time>2021-05-23T07:18:38.983Z</time>
      </trkpt>
      <trkpt lat="47.23991" lon="-2.26967">
        <ele>5</ele>
        <time>2021-05-23T07:18:39.983Z</time>
      </trkpt>
      <trkpt lat="47.23993" lon="-2.26968">
        <ele>5</ele>
        <time>2021-05-23T07:18:40.983Z</time>
      </trkpt>
      <trkpt lat="47.23995" lon="-2.26969">
        <ele>5</ele>
        <time>2021-05-23T07:18:41.983Z</time>
      </trkpt>
      <trkpt lat="47.23998" lon="-2.26969">
        <ele>5</ele>
        <time>2021-05-23T07:18:42.983Z</time>
      </trkpt>
      <trkpt lat="47.24" lon="-2.2697">
        <ele>5</ele>
        <time>2021-05-23T07:18:43.982Z</time>
      </trkpt>
      <trkpt lat="47.24002" lon="-2.26972">
        <ele>5</ele>
        <time>2021-05-23T07:18:44.983Z</time>
      </trkpt>
      <trkpt lat="47.24004" lon="-2.26974">
        <ele>6</ele>
        <time>2021-05-23T07:18:45.983Z</time>
      </trkpt>
      <trkpt lat="47.24006" lon="-2.26976">
        <ele>6</ele>
        <time>2021-05-23T07:18:46.983Z</time>
      </trkpt>
      <trkpt lat="47.24007" lon="-2.26978">
        <ele>6</ele>
        <time>2021-05-23T07:18:47.982Z</time>
      </trkpt>
      <trkpt lat="47.24009" lon="-2.2698">
        <ele>6</ele>
        <time>2021-05-23T07:18:48.983Z</time>
      </trkpt>
      <trkpt lat="47.2401" lon="-2.26983">
        <ele>6</ele>
        <time>2021-05-23T07:18:49.983Z</time>
      </trkpt>
      <trkpt lat="47.24012" lon="-2.26985">
        <ele>5</ele>
        <time>2021-05-23T07:18:50.983Z</time>
      </trkpt>
      <trkpt lat="47.24014" lon="-2.26988">
        <ele>5</ele>
        <time>2021-05-23T07:18:51.983Z</time>
      </trkpt>
      <trkpt lat="47.24015" lon="-2.2699">
        <ele>5</ele>
        <time>2021-05-23T07:18:52.983Z</time>
      </trkpt>
      <trkpt lat="47.24016" lon="-2.26994">
        <ele>6</ele>
        <time>2021-05-23T07:18:53.983Z</time>
      </trkpt>
      <trkpt lat="47.24017" lon="-2.26997">
        <ele>6</ele>
        <time>2021-05-23T07:18:54.982Z</time>
      </trkpt>
      <trkpt lat="47.24018" lon="-2.27">
        <ele>6</ele>
        <time>2021-05-23T07:18:55.983Z</time>
      </trkpt>
      <trkpt lat="47.24018" lon="-2.27003">
        <ele>6</ele>
        <time>2021-05-23T07:18:56.983Z</time>
      </trkpt>
      <trkpt lat="47.24018" lon="-2.27007">
        <ele>6</ele>
        <time>2021-05-23T07:18:57.983Z</time>
      </trkpt>
      <trkpt lat="47.24018" lon="-2.27009">
        <ele>6</ele>
        <time>2021-05-23T07:18:58.983Z</time>
      </trkpt>
      <trkpt lat="47.24018" lon="-2.27012">
        <ele>7</ele>
        <time>2021-05-23T07:18:59.983Z</time>
      </trkpt>
      <trkpt lat="47.24017" lon="-2.27014">
        <ele>7</ele>
        <time>2021-05-23T07:19:00.982Z</time>
      </trkpt>
      <trkpt lat="47.24016" lon="-2.27014">
        <ele>7</ele>
        <time>2021-05-23T07:19:01.982Z</time>
      </trkpt>
      <trkpt lat="47.24015" lon="-2.27015">
        <ele>8</ele>
        <time>2021-05-23T07:19:02.982Z</time>
      </trkpt>
      <trkpt lat="47.24013" lon="-2.27017">
        <ele>8</ele>
        <time>2021-05-23T07:19:03.983Z</time>
      </trkpt>
      <trkpt lat="47.24011" lon="-2.27019">
        <ele>8</ele>
        <time>2021-05-23T07:19:04.983Z</time>
      </trkpt>
      <trkpt lat="47.24009" lon="-2.27019">
        <ele>9</ele>
        <time>2021-05-23T07:19:05.982Z</time>
      </trkpt>
      <trkpt lat="47.24008" lon="-2.27021">
        <ele>9</ele>
        <time>2021-05-23T07:19:06.983Z</time>
      </trkpt>
      <trkpt lat="47.24007" lon="-2.27022">
        <ele>9</ele>
        <time>2021-05-23T07:19:07.982Z</time>
      </trkpt>
      <trkpt lat="47.24005" lon="-2.27023">
        <ele>9</ele>
        <time>2021-05-23T07:19:08.982Z</time>
      </trkpt>
      <trkpt lat="47.24004" lon="-2.27024">
        <ele>10</ele>
        <time>2021-05-23T07:19:09.983Z</time>
      </trkpt>
      <trkpt lat="47.24002" lon="-2.27026">
        <ele>10</ele>
        <time>2021-05-23T07:19:10.983Z</time>
      </trkpt>
      <trkpt lat="47.23999" lon="-2.27029">
        <ele>10</ele>
        <time>2021-05-23T07:19:11.982Z</time>
      </trkpt>
      <trkpt lat="47.23998" lon="-2.27033">
        <ele>10</ele>
        <time>2021-05-23T07:19:12.983Z</time>
      </trkpt>
      <trkpt lat="47.23996" lon="-2.27036">
        <ele>10</ele>
        <time>2021-05-23T07:19:13.983Z</time>
      </trkpt>
      <trkpt lat="47.23995" lon="-2.2704">
        <ele>10</ele>
        <time>2021-05-23T07:19:14.982Z</time>
      </trkpt>
      <trkpt lat="47.23995" lon="-2.27043">
        <ele>10</ele>
        <time>2021-05-23T07:19:15.982Z</time>
      </trkpt>
      <trkpt lat="47.23995" lon="-2.27046">
        <ele>9</ele>
        <time>2021-05-23T07:19:16.983Z</time>
      </trkpt>
      <trkpt lat="47.23995" lon="-2.27048">
        <ele>9</ele>
        <time>2021-05-23T07:19:17.983Z</time>
      </trkpt>
      <trkpt lat="47.23994" lon="-2.27051">
        <ele>8</ele>
        <time>2021-05-23T07:19:18.983Z</time>
      </trkpt>
      <trkpt lat="47.23994" lon="-2.27054">
        <ele>7</ele>
        <time>2021-05-23T07:19:19.982Z</time>
      </trkpt>
      <trkpt lat="47.23994" lon="-2.27057">
        <ele>7</ele>
        <time>2021-05-23T07:19:20.982Z</time>
      </trkpt>
      <trkpt lat="47.23993" lon="-2.27059">
        <ele>6</ele>
        <time>2021-05-23T07:19:21.983Z</time>
      </trkpt>
      <trkpt lat="47.23993" lon="-2.27063">
        <ele>6</ele>
        <time>2021-05-23T07:19:22.983Z</time>
      </trkpt>
      <trkpt lat="47.23993" lon="-2.27066">
        <ele>5</ele>
        <time>2021-05-23T07:19:23.982Z</time>
      </trkpt>
      <trkpt lat="47.23992" lon="-2.27069">
        <ele>4</ele>
        <time>2021-05-23T07:19:24.982Z</time>
      </trkpt>
      <trkpt lat="47.23992" lon="-2.27072">
        <ele>4</ele>
        <time>2021-05-23T07:19:25.983Z</time>
      </trkpt>
      <trkpt lat="47.23992" lon="-2.27076">
        <ele>3</ele>
        <time>2021-05-23T07:19:26.983Z</time>
      </trkpt>
      <trkpt lat="47.23992" lon="-2.27079">
        <ele>3</ele>
        <time>2021-05-23T07:19:27.983Z</time>
      </trkpt>
      <trkpt lat="47.23992" lon="-2.27082">
        <ele>2</ele>
        <time>2021-05-23T07:19:28.983Z</time>
      </trkpt>
      <trkpt lat="47.23992" lon="-2.27085">
        <ele>2</ele>
        <time>2021-05-23T07:19:29.982Z</time>
      </trkpt>
      <trkpt lat="47.23992" lon="-2.27088">
        <ele>2</ele>
        <time>2021-05-23T07:19:30.982Z</time>
      </trkpt>
      <trkpt lat="47.23992" lon="-2.27091">
        <ele>2</ele>
        <time>2021-05-23T07:19:31.983Z</time>
      </trkpt>
      <trkpt lat="47.23992" lon="-2.27095">
        <ele>2</ele>
        <time>2021-05-23T07:19:32.983Z</time>
      </trkpt>
      <trkpt lat="47.23991" lon="-2.27098">
        <ele>2</ele>
        <time>2021-05-23T07:19:33.983Z</time>
      </trkpt>
      <trkpt lat="47.23991" lon="-2.27101">
        <ele>2</ele>
        <time>2021-05-23T07:19:34.982Z</time>
      </trkpt>
      <trkpt lat="47.23991" lon="-2.27104">
        <ele>2</ele>
        <time>2021-05-23T07:19:35.982Z</time>
      </trkpt>
      <trkpt lat="47.23991" lon="-2.27107">
        <ele>2</ele>
        <time>2021-05-23T07:19:36.983Z</time>
      </trkpt>
      <trkpt lat="47.2399" lon="-2.2711">
        <ele>2</ele>
        <time>2021-05-23T07:19:37.983Z</time>
      </trkpt>
      <trkpt lat="47.2399" lon="-2.27112">
        <ele>2</ele>
        <time>2021-05-23T07:19:38.982Z</time>
      </trkpt>
      <trkpt lat="47.2399" lon="-2.27115">
        <ele>2</ele>
        <time>2021-05-23T07:19:39.983Z</time>
      </trkpt>
      <trkpt lat="47.2399" lon="-2.27118">
        <ele>2</ele>
        <time>2021-05-23T07:19:40.983Z</time>
      </trkpt>
      <trkpt lat="47.2399" lon="-2.27121">
        <ele>2</ele>
        <time>2021-05-23T07:19:41.983Z</time>
      </trkpt>
      <trkpt lat="47.23989" lon="-2.27124">
        <ele>2</ele>
        <time>2021-05-23T07:19:42.982Z</time>
      </trkpt>
      <trkpt lat="47.23988" lon="-2.27127">
        <ele>2</ele>
        <time>2021-05-23T07:19:43.982Z</time>
      </trkpt>
      <trkpt lat="47.23987" lon="-2.2713">
        <ele>2</ele>
        <time>2021-05-23T07:19:44.982Z</time>
      </trkpt>
      <trkpt lat="47.23987" lon="-2.27133">
        <ele>2</ele>
        <time>2021-05-23T07:19:45.983Z</time>
      </trkpt>
      <trkpt lat="47.23986" lon="-2.27136">
        <ele>2</ele>
        <time>2021-05-23T07:19:46.983Z</time>
      </trkpt>
      <trkpt lat="47.23986" lon="-2.27139">
        <ele>2</ele>
        <time>2021-05-23T07:19:47.983Z</time>
      </trkpt>
      <trkpt lat="47.23985" lon="-2.27141">
        <ele>2</ele>
        <time>2021-05-23T07:19:48.982Z</time>
      </trkpt>
      <trkpt lat="47.23985" lon="-2.27144">
        <ele>2</ele>
        <time>2021-05-23T07:19:49.983Z</time>
      </trkpt>
      <trkpt lat="47.23985" lon="-2.27148">
        <ele>2</ele>
        <time>2021-05-23T07:19:50.982Z</time>
      </trkpt>
      <trkpt lat="47.23985" lon="-2.27152">
        <ele>2</ele>
        <time>2021-05-23T07:19:51.983Z</time>
      </trkpt>
      <trkpt lat="47.23985" lon="-2.27155">
        <ele>2</ele>
        <time>2021-05-23T07:19:52.983Z</time>
      </trkpt>
      <trkpt lat="47.23985" lon="-2.27158">
        <ele>2</ele>
        <time>2021-05-23T07:19:53.983Z</time>
      </trkpt>
      <trkpt lat="47.23986" lon="-2.27161">
        <ele>2</ele>
        <time>2021-05-23T07:19:54.982Z</time>
      </trkpt>
      <trkpt lat="47.23986" lon="-2.27164">
        <ele>2</ele>
        <time>2021-05-23T07:19:55.983Z</time>
      </trkpt>
      <trkpt lat="47.23986" lon="-2.27168">
        <ele>2</ele>
        <time>2021-05-23T07:19:56.983Z</time>
      </trkpt>
      <trkpt lat="47.23987" lon="-2.27171">
        <ele>2</ele>
        <time>2021-05-23T07:19:57.983Z</time>
      </trkpt>
      <trkpt lat="47.23987" lon="-2.27174">
        <ele>2</ele>
        <time>2021-05-23T07:19:58.983Z</time>
      </trkpt>
      <trkpt lat="47.23987" lon="-2.27177">
        <ele>2</ele>
        <time>2021-05-23T07:19:59.983Z</time>
      </trkpt>
      <trkpt lat="47.23987" lon="-2.2718">
        <ele>1</ele>
        <time>2021-05-23T07:20:00.983Z</time>
      </trkpt>
      <trkpt lat="47.23987" lon="-2.27183">
        <ele>1</ele>
        <time>2021-05-23T07:20:01.983Z</time>
      </trkpt>
      <trkpt lat="47.23987" lon="-2.27186">
        <ele>1</ele>
        <time>2021-05-23T07:20:02.983Z</time>
      </trkpt>
      <trkpt lat="47.23987" lon="-2.27189">
        <ele>1</ele>
        <time>2021-05-23T07:20:03.983Z</time>
      </trkpt>
      <trkpt lat="47.23987" lon="-2.27191">
        <ele>1</ele>
        <time>2021-05-23T07:20:04.982Z</time>
      </trkpt>
      <trkpt lat="47.23987" lon="-2.27194">
        <ele>1</ele>
        <time>2021-05-23T07:20:05.983Z</time>
      </trkpt>
      <trkpt lat="47.23986" lon="-2.27197">
        <ele>1</ele>
        <time>2021-05-23T07:20:06.983Z</time>
      </trkpt>
      <trkpt lat="47.23986" lon="-2.272">
        <ele>1</ele>
        <time>2021-05-23T07:20:07.983Z</time>
      </trkpt>
      <trkpt lat="47.23986" lon="-2.27203">
        <ele>1</ele>
        <time>2021-05-23T07:20:08.983Z</time>
      </trkpt>
      <trkpt lat="47.23986" lon="-2.27206">
        <ele>1</ele>
        <time>2021-05-23T07:20:09.982Z</time>
      </trkpt>
      <trkpt lat="47.23986" lon="-2.2721">
        <ele>1</ele>
        <time>2021-05-23T07:20:10.983Z</time>
      </trkpt>
      <trkpt lat="47.23985" lon="-2.27213">
        <ele>1</ele>
        <time>2021-05-23T07:20:11.982Z</time>
      </trkpt>
      <trkpt lat="47.23985" lon="-2.27216">
        <ele>12</ele>
        <time>2021-05-23T07:20:12.982Z</time>
      </trkpt>
      <trkpt lat="47.23985" lon="-2.27219">
        <ele>12</ele>
        <time>2021-05-23T07:20:13.983Z</time>
      </trkpt>
      <trkpt lat="47.23985" lon="-2.27222">
        <ele>12</ele>
        <time>2021-05-23T07:20:14.983Z</time>
      </trkpt>
      <trkpt lat="47.23985" lon="-2.27226">
        <ele>12</ele>
        <time>2021-05-23T07:20:15.983Z</time>
      </trkpt>
      <trkpt lat="47.23985" lon="-2.27229">
        <ele>12</ele>
        <time>2021-05-23T07:20:16.983Z</time>
      </trkpt>
      <trkpt lat="47.23985" lon="-2.27232">
        <ele>12</ele>
        <time>2021-05-23T07:20:17.982Z</time>
      </trkpt>
      <trkpt lat="47.23986" lon="-2.27234">
        <ele>12</ele>
        <time>2021-05-23T07:20:18.983Z</time>
      </trkpt>
      <trkpt lat="47.23986" lon="-2.27237">
        <ele>12</ele>
        <time>2021-05-23T07:20:19.982Z</time>
      </trkpt>
      <trkpt lat="47.23985" lon="-2.2724">
        <ele>12</ele>
        <time>2021-05-23T07:20:20.983Z</time>
      </trkpt>
      <trkpt lat="47.23986" lon="-2.27243">
        <ele>12</ele>
        <time>2021-05-23T07:20:21.982Z</time>
      </trkpt>
      <trkpt lat="47.23987" lon="-2.27246">
        <ele>-1</ele>
        <time>2021-05-23T07:20:22.983Z</time>
      </trkpt>
      <trkpt lat="47.23987" lon="-2.27249">
        <ele>-1</ele>
        <time>2021-05-23T07:20:23.982Z</time>
      </trkpt>
      <trkpt lat="47.23988" lon="-2.27252">
        <ele>-1</ele>
        <time>2021-05-23T07:20:24.983Z</time>
      </trkpt>
      <trkpt lat="47.2399" lon="-2.27255">
        <ele>-2</ele>
        <time>2021-05-23T07:20:25.983Z</time>
      </trkpt>
      <trkpt lat="47.23991" lon="-2.27257">
        <ele>-2</ele>
        <time>2021-05-23T07:20:26.982Z</time>
      </trkpt>
      <trkpt lat="47.23993" lon="-2.27259">
        <ele>-2</ele>
        <time>2021-05-23T07:20:27.982Z</time>
      </trkpt>
      <trkpt lat="47.23993" lon="-2.27262">
        <ele>-2</ele>
        <time>2021-05-23T07:20:28.982Z</time>
      </trkpt>
      <trkpt lat="47.23993" lon="-2.27265">
        <ele>-4</ele>
        <time>2021-05-23T07:20:29.982Z</time>
      </trkpt>
      <trkpt lat="47.23993" lon="-2.27268">
        <ele>-4</ele>
        <time>2021-05-23T07:20:30.983Z</time>
      </trkpt>
      <trkpt lat="47.23993" lon="-2.27271">
        <ele>-2</ele>
        <time>2021-05-23T07:20:31.982Z</time>
      </trkpt>
      <trkpt lat="47.23993" lon="-2.27275">
        <ele>-2</ele>
        <time>2021-05-23T07:20:32.982Z</time>
      </trkpt>
      <trkpt lat="47.23994" lon="-2.27278">
        <ele>-3</ele>
        <time>2021-05-23T07:20:33.983Z</time>
      </trkpt>
      <trkpt lat="47.23994" lon="-2.2728">
        <ele>-1</ele>
        <time>2021-05-23T07:20:34.983Z</time>
      </trkpt>
      <trkpt lat="47.23994" lon="-2.27284">
        <ele>-1</ele>
        <time>2021-05-23T07:20:35.983Z</time>
      </trkpt>
      <trkpt lat="47.23994" lon="-2.27287">
        <ele>-1</ele>
        <time>2021-05-23T07:20:36.983Z</time>
      </trkpt>
      <trkpt lat="47.23995" lon="-2.27289">
        <ele>-1</ele>
        <time>2021-05-23T07:20:37.983Z</time>
      </trkpt>
      <trkpt lat="47.23995" lon="-2.27292">
        <ele>-1</ele>
        <time>2021-05-23T07:20:38.983Z</time>
      </trkpt>
      <trkpt lat="47.23996" lon="-2.27295">
        <ele>-1</ele>
        <time>2021-05-23T07:20:39.983Z</time>
      </trkpt>
      <trkpt lat="47.23996" lon="-2.27299">
        <ele>-1</ele>
        <time>2021-05-23T07:20:40.982Z</time>
      </trkpt>
      <trkpt lat="47.23997" lon="-2.27302">
        <ele>-1</ele>
        <time>2021-05-23T07:20:41.983Z</time>
      </trkpt>
      <trkpt lat="47.23997" lon="-2.27305">
        <ele>-3</ele>
        <time>2021-05-23T07:20:42.983Z</time>
      </trkpt>
      <trkpt lat="47.23998" lon="-2.27308">
        <ele>-2</ele>
        <time>2021-05-23T07:20:43.983Z</time>
      </trkpt>
      <trkpt lat="47.23998" lon="-2.27311">
        <ele>-4</ele>
        <time>2021-05-23T07:20:44.983Z</time>
      </trkpt>
      <trkpt lat="47.23998" lon="-2.27314">
        <ele>-3</ele>
        <time>2021-05-23T07:20:45.983Z</time>
      </trkpt>
      <trkpt lat="47.23998" lon="-2.27318">
        <ele>-3</ele>
        <time>2021-05-23T07:20:46.983Z</time>
      </trkpt>
      <trkpt lat="47.23999" lon="-2.27321">
        <ele>-3</ele>
        <time>2021-05-23T07:20:47.982Z</time>
      </trkpt>
      <trkpt lat="47.23999" lon="-2.27324">
        <ele>-3</ele>
        <time>2021-05-23T07:20:48.983Z</time>
      </trkpt>
      <trkpt lat="47.24" lon="-2.27327">
        <ele>-3</ele>
        <time>2021-05-23T07:20:49.983Z</time>
      </trkpt>
      <trkpt lat="47.24" lon="-2.2733">
        <ele>-3</ele>
        <time>2021-05-23T07:20:50.983Z</time>
      </trkpt>
      <trkpt lat="47.24001" lon="-2.27333">
        <ele>-4</ele>
        <time>2021-05-23T07:20:51.982Z</time>
      </trkpt>
      <trkpt lat="47.24001" lon="-2.27336">
        <ele>-2</ele>
        <time>2021-05-23T07:20:52.982Z</time>
      </trkpt>
      <trkpt lat="47.24001" lon="-2.27339">
        <ele>-2</ele>
        <time>2021-05-23T07:20:53.982Z</time>
      </trkpt>
      <trkpt lat="47.24001" lon="-2.27342">
        <ele>-3</ele>
        <time>2021-05-23T07:20:54.982Z</time>
      </trkpt>
      <trkpt lat="47.24001" lon="-2.27345">
        <ele>-2</ele>
        <time>2021-05-23T07:20:55.982Z</time>
      </trkpt>
      <trkpt lat="47.24001" lon="-2.27348">
        <ele>-2</ele>
        <time>2021-05-23T07:20:56.982Z</time>
      </trkpt>
      <trkpt lat="47.24001" lon="-2.27351">
        <ele>-2</ele>
        <time>2021-05-23T07:20:57.983Z</time>
      </trkpt>
      <trkpt lat="47.24001" lon="-2.27354">
        <ele>-2</ele>
        <time>2021-05-23T07:20:58.983Z</time>
      </trkpt>
      <trkpt lat="47.24001" lon="-2.27356">
        <ele>-2</ele>
        <time>2021-05-23T07:20:59.983Z</time>
      </trkpt>
      <trkpt lat="47.24001" lon="-2.27359">
        <ele>-2</ele>
        <time>2021-05-23T07:21:00.983Z</time>
      </trkpt>
      <trkpt lat="47.24" lon="-2.27362">
        <ele>-2</ele>
        <time>2021-05-23T07:21:01.982Z</time>
      </trkpt>
      <trkpt lat="47.24" lon="-2.27365">
        <ele>-2</ele>
        <time>2021-05-23T07:21:02.983Z</time>
      </trkpt>
      <trkpt lat="47.23999" lon="-2.27367">
        <ele>-3</ele>
        <time>2021-05-23T07:21:03.983Z</time>
      </trkpt>
      <trkpt lat="47.23998" lon="-2.27369">
        <ele>-1</ele>
        <time>2021-05-23T07:21:04.983Z</time>
      </trkpt>
      <trkpt lat="47.23997" lon="-2.27372">
        <ele>-1</ele>
        <time>2021-05-23T07:21:05.983Z</time>
      </trkpt>
      <trkpt lat="47.23996" lon="-2.27374">
        <ele>-3</ele>
        <time>2021-05-23T07:21:06.982Z</time>
      </trkpt>
      <trkpt lat="47.23996" lon="-2.27376">
        <ele>-2</ele>
        <time>2021-05-23T07:21:07.982Z</time>
      </trkpt>
      <trkpt lat="47.23995" lon="-2.27379">
        <ele>-2</ele>
        <time>2021-05-23T07:21:08.983Z</time>
      </trkpt>
      <trkpt lat="47.23995" lon="-2.27381">
        <ele>-3</ele>
        <time>2021-05-23T07:21:09.982Z</time>
      </trkpt>
      <trkpt lat="47.23994" lon="-2.27384">
        <ele>-3</ele>
        <time>2021-05-23T07:21:10.982Z</time>
      </trkpt>
      <trkpt lat="47.23993" lon="-2.27386">
        <ele>-3</ele>
        <time>2021-05-23T07:21:11.983Z</time>
      </trkpt>
      <trkpt lat="47.23992" lon="-2.27389">
        <ele>-3</ele>
        <time>2021-05-23T07:21:12.982Z</time>
      </trkpt>
      <trkpt lat="47.23991" lon="-2.27391">
        <ele>-2</ele>
        <time>2021-05-23T07:21:13.983Z</time>
      </trkpt>
      <trkpt lat="47.2399" lon="-2.27394">
        <ele>-2</ele>
        <time>2021-05-23T07:21:14.983Z</time>
      </trkpt>
      <trkpt lat="47.23989" lon="-2.27397">
        <ele>-1</ele>
        <time>2021-05-23T07:21:15.983Z</time>
      </trkpt>
      <trkpt lat="47.23988" lon="-2.274">
        <ele>-1</ele>
        <time>2021-05-23T07:21:16.983Z</time>
      </trkpt>
      <trkpt lat="47.23987" lon="-2.27403">
        <ele>-2</ele>
        <time>2021-05-23T07:21:17.983Z</time>
      </trkpt>
      <trkpt lat="47.23986" lon="-2.27406">
        <ele>9</ele>
        <time>2021-05-23T07:21:18.983Z</time>
      </trkpt>
      <trkpt lat="47.23985" lon="-2.27409">
        <ele>9</ele>
        <time>2021-05-23T07:21:19.983Z</time>
      </trkpt>
      <trkpt lat="47.23985" lon="-2.27412">
        <ele>9</ele>
        <time>2021-05-23T07:21:20.982Z</time>
      </trkpt>
      <trkpt lat="47.23984" lon="-2.27414">
        <ele>-1</ele>
        <time>2021-05-23T07:21:21.982Z</time>
      </trkpt>
      <trkpt lat="47.23984" lon="-2.27417">
        <ele>-1</ele>
        <time>2021-05-23T07:21:22.982Z</time>
      </trkpt>
      <trkpt lat="47.23983" lon="-2.2742">
        <ele>-3</ele>
        <time>2021-05-23T07:21:23.983Z</time>
      </trkpt>
      <trkpt lat="47.23982" lon="-2.27423">
        <ele>-3</ele>
        <time>2021-05-23T07:21:24.983Z</time>
      </trkpt>
      <trkpt lat="47.23981" lon="-2.27426">
        <ele>-2</ele>
        <time>2021-05-23T07:21:25.983Z</time>
      </trkpt>
      <trkpt lat="47.23981" lon="-2.27428">
        <ele>-2</ele>
        <time>2021-05-23T07:21:26.982Z</time>
      </trkpt>
      <trkpt lat="47.2398" lon="-2.27431">
        <ele>-2</ele>
        <time>2021-05-23T07:21:27.983Z</time>
      </trkpt>
      <trkpt lat="47.23979" lon="-2.27434">
        <ele>-2</ele>
        <time>2021-05-23T07:21:28.983Z</time>
      </trkpt>
      <trkpt lat="47.23979" lon="-2.27436">
        <ele>-3</ele>
        <time>2021-05-23T07:21:29.983Z</time>
      </trkpt>
      <trkpt lat="47.23978" lon="-2.27439">
        <ele>-1</ele>
        <time>2021-05-23T07:21:30.983Z</time>
      </trkpt>
      <trkpt lat="47.23977" lon="-2.27442">
        <ele>-2</ele>
        <time>2021-05-23T07:21:31.983Z</time>
      </trkpt>
      <trkpt lat="47.23976" lon="-2.27445">
        <ele>9.6</ele>
        <time>2021-05-23T07:21:32.983Z</time>
      </trkpt>
      <trkpt lat="47.23974" lon="-2.27448">
        <ele>9.6</ele>
        <time>2021-05-23T07:21:33.983Z</time>
      </trkpt>
      <trkpt lat="47.23973" lon="-2.27451">
        <ele>-1</ele>
        <time>2021-05-23T07:21:34.982Z</time>
      </trkpt>
      <trkpt lat="47.23972" lon="-2.27454">
        <ele>9.5</ele>
        <time>2021-05-23T07:21:35.983Z</time>
      </trkpt>
      <trkpt lat="47.2397" lon="-2.27457">
        <ele>9.5</ele>
        <time>2021-05-23T07:21:36.983Z</time>
      </trkpt>
      <trkpt lat="47.23969" lon="-2.27459">
        <ele>9.4</ele>
        <time>2021-05-23T07:21:37.982Z</time>
      </trkpt>
      <trkpt lat="47.23967" lon="-2.27462">
        <ele>9.3</ele>
        <time>2021-05-23T07:21:38.982Z</time>
      </trkpt>
      <trkpt lat="47.23966" lon="-2.27464">
        <ele>9.2</ele>
        <time>2021-05-23T07:21:39.983Z</time>
      </trkpt>
      <trkpt lat="47.23965" lon="-2.27467">
        <ele>9.1</ele>
        <time>2021-05-23T07:21:40.983Z</time>
      </trkpt>
      <trkpt lat="47.23964" lon="-2.27469">
        <ele>9</ele>
        <time>2021-05-23T07:21:41.982Z</time>
      </trkpt>
      <trkpt lat="47.23963" lon="-2.27472">
        <ele>8.8</ele>
        <time>2021-05-23T07:21:42.982Z</time>
      </trkpt>
      <trkpt lat="47.23961" lon="-2.27474">
        <ele>8.6</ele>
        <time>2021-05-23T07:21:43.983Z</time>
      </trkpt>
      <trkpt lat="47.2396" lon="-2.27477">
        <ele>8.5</ele>
        <time>2021-05-23T07:21:44.983Z</time>
      </trkpt>
      <trkpt lat="47.23959" lon="-2.2748">
        <ele>8.3</ele>
        <time>2021-05-23T07:21:45.982Z</time>
      </trkpt>
      <trkpt lat="47.23957" lon="-2.27483">
        <ele>8.1</ele>
        <time>2021-05-23T07:21:46.983Z</time>
      </trkpt>
      <trkpt lat="47.23956" lon="-2.27486">
        <ele>1</ele>
        <time>2021-05-23T07:21:47.983Z</time>
      </trkpt>
      <trkpt lat="47.23955" lon="-2.27488">
        <ele>1</ele>
        <time>2021-05-23T07:21:48.982Z</time>
      </trkpt>
      <trkpt lat="47.23953" lon="-2.27491">
        <ele>1</ele>
        <time>2021-05-23T07:21:49.983Z</time>
      </trkpt>
      <trkpt lat="47.23952" lon="-2.27493">
        <ele>1</ele>
        <time>2021-05-23T07:21:50.983Z</time>
      </trkpt>
      <trkpt lat="47.23951" lon="-2.27495">
        <ele>1</ele>
        <time>2021-05-23T07:21:51.983Z</time>
      </trkpt>
      <trkpt lat="47.23949" lon="-2.27498">
        <ele>1</ele>
        <time>2021-05-23T07:21:52.983Z</time>
      </trkpt>
      <trkpt lat="47.23948" lon="-2.275">
        <ele>1</ele>
        <time>2021-05-23T07:21:53.983Z</time>
      </trkpt>
      <trkpt lat="47.23947" lon="-2.27502">
        <ele>1</ele>
        <time>2021-05-23T07:21:54.983Z</time>
      </trkpt>
      <trkpt lat="47.23946" lon="-2.27504">
        <ele>1</ele>
        <time>2021-05-23T07:21:55.982Z</time>
      </trkpt>
      <trkpt lat="47.23945" lon="-2.27508">
        <ele>2</ele>
        <time>2021-05-23T07:21:56.983Z</time>
      </trkpt>
      <trkpt lat="47.23945" lon="-2.2751">
        <ele>2</ele>
        <time>2021-05-23T07:21:57.982Z</time>
      </trkpt>
      <trkpt lat="47.23944" lon="-2.27513">
        <ele>2</ele>
        <time>2021-05-23T07:21:58.983Z</time>
      </trkpt>
      <trkpt lat="47.23944" lon="-2.27515">
        <ele>2</ele>
        <time>2021-05-23T07:21:59.983Z</time>
      </trkpt>
      <trkpt lat="47.23943" lon="-2.27518">
        <ele>2</ele>
        <time>2021-05-23T07:22:00.983Z</time>
      </trkpt>
      <trkpt lat="47.23942" lon="-2.27521">
        <ele>1</ele>
        <time>2021-05-23T07:22:01.983Z</time>
      </trkpt>
      <trkpt lat="47.23941" lon="-2.27523">
        <ele>1</ele>
        <time>2021-05-23T07:22:02.982Z</time>
      </trkpt>
      <trkpt lat="47.2394" lon="-2.27525">
        <ele>1</ele>
        <time>2021-05-23T07:22:03.983Z</time>
      </trkpt>
      <trkpt lat="47.23938" lon="-2.27528">
        <ele>1</ele>
        <time>2021-05-23T07:22:04.983Z</time>
      </trkpt>
      <trkpt lat="47.23937" lon="-2.27531">
        <ele>1</ele>
        <time>2021-05-23T07:22:05.982Z</time>
      </trkpt>
      <trkpt lat="47.23935" lon="-2.27533">
        <ele>1</ele>
        <time>2021-05-23T07:22:06.982Z</time>
      </trkpt>
      <trkpt lat="47.23934" lon="-2.27535">
        <ele>1</ele>
        <time>2021-05-23T07:22:07.983Z</time>
      </trkpt>
      <trkpt lat="47.23932" lon="-2.27537">
        <ele>1</ele>
        <time>2021-05-23T07:22:08.983Z</time>
      </trkpt>
      <trkpt lat="47.2393" lon="-2.27539">
        <ele>1</ele>
        <time>2021-05-23T07:22:09.983Z</time>
      </trkpt>
      <trkpt lat="47.23928" lon="-2.27541">
        <ele>1</ele>
        <time>2021-05-23T07:22:10.982Z</time>
      </trkpt>
      <trkpt lat="47.23926" lon="-2.27542">
        <ele>1</ele>
        <time>2021-05-23T07:22:11.983Z</time>
      </trkpt>
      <trkpt lat="47.23924" lon="-2.27544">
        <ele>1</ele>
        <time>2021-05-23T07:22:12.983Z</time>
      </trkpt>
      <trkpt lat="47.23922" lon="-2.27545">
        <ele>1</ele>
        <time>2021-05-23T07:22:13.983Z</time>
      </trkpt>
      <trkpt lat="47.2392" lon="-2.27546">
        <ele>1</ele>
        <time>2021-05-23T07:22:14.983Z</time>
      </trkpt>
      <trkpt lat="47.23918" lon="-2.27547">
        <ele>1</ele>
        <time>2021-05-23T07:22:15.983Z</time>
      </trkpt>
      <trkpt lat="47.23916" lon="-2.27549">
        <ele>2</ele>
        <time>2021-05-23T07:22:16.983Z</time>
      </trkpt>
      <trkpt lat="47.23914" lon="-2.2755">
        <ele>2</ele>
        <time>2021-05-23T07:22:17.983Z</time>
      </trkpt>
      <trkpt lat="47.23912" lon="-2.27552">
        <ele>2</ele>
        <time>2021-05-23T07:22:18.983Z</time>
      </trkpt>
      <trkpt lat="47.2391" lon="-2.27554">
        <ele>2</ele>
        <time>2021-05-23T07:22:19.982Z</time>
      </trkpt>
      <trkpt lat="47.23908" lon="-2.27555">
        <ele>2</ele>
        <time>2021-05-23T07:22:20.983Z</time>
      </trkpt>
      <trkpt lat="47.23906" lon="-2.27557">
        <ele>2</ele>
        <time>2021-05-23T07:22:21.983Z</time>
      </trkpt>
      <trkpt lat="47.23905" lon="-2.27559">
        <ele>3</ele>
        <time>2021-05-23T07:22:22.982Z</time>
      </trkpt>
      <trkpt lat="47.23903" lon="-2.27562">
        <ele>3</ele>
        <time>2021-05-23T07:22:23.982Z</time>
      </trkpt>
      <trkpt lat="47.23902" lon="-2.27564">
        <ele>3</ele>
        <time>2021-05-23T07:22:24.983Z</time>
      </trkpt>
      <trkpt lat="47.239" lon="-2.27566">
        <ele>3</ele>
        <time>2021-05-23T07:22:25.982Z</time>
      </trkpt>
      <trkpt lat="47.23899" lon="-2.27569">
        <ele>3</ele>
        <time>2021-05-23T07:22:26.982Z</time>
      </trkpt>
      <trkpt lat="47.23897" lon="-2.27571">
        <ele>4</ele>
        <time>2021-05-23T07:22:27.983Z</time>
      </trkpt>
      <trkpt lat="47.23895" lon="-2.27572">
        <ele>4</ele>
        <time>2021-05-23T07:22:28.982Z</time>
      </trkpt>
      <trkpt lat="47.23893" lon="-2.27574">
        <ele>4</ele>
        <time>2021-05-23T07:22:29.983Z</time>
      </trkpt>
      <trkpt lat="47.23891" lon="-2.27575">
        <ele>4</ele>
        <time>2021-05-23T07:22:30.982Z</time>
      </trkpt>
      <trkpt lat="47.2389" lon="-2.27577">
        <ele>4</ele>
        <time>2021-05-23T07:22:31.983Z</time>
      </trkpt>
      <trkpt lat="47.23887" lon="-2.27579">
        <ele>4</ele>
        <time>2021-05-23T07:22:32.983Z</time>
      </trkpt>
      <trkpt lat="47.23885" lon="-2.2758">
        <ele>4</ele>
        <time>2021-05-23T07:22:33.983Z</time>
      </trkpt>
      <trkpt lat="47.23883" lon="-2.27582">
        <ele>4</ele>
        <time>2021-05-23T07:22:34.983Z</time>
      </trkpt>
      <trkpt lat="47.23882" lon="-2.27583">
        <ele>4</ele>
        <time>2021-05-23T07:22:35.983Z</time>
      </trkpt>
      <trkpt lat="47.2388" lon="-2.27585">
        <ele>4</ele>
        <time>2021-05-23T07:22:36.982Z</time>
      </trkpt>
      <trkpt lat="47.23878" lon="-2.27587">
        <ele>4</ele>
        <time>2021-05-23T07:22:37.982Z</time>
      </trkpt>
      <trkpt lat="47.23877" lon="-2.27589">
        <ele>4</ele>
        <time>2021-05-23T07:22:38.982Z</time>
      </trkpt>
      <trkpt lat="47.23875" lon="-2.2759">
        <ele>4</ele>
        <time>2021-05-23T07:22:39.983Z</time>
      </trkpt>
      <trkpt lat="47.23874" lon="-2.27592">
        <ele>4</ele>
        <time>2021-05-23T07:22:40.983Z</time>
      </trkpt>
      <trkpt lat="47.23873" lon="-2.27594">
        <ele>4</ele>
        <time>2021-05-23T07:22:41.982Z</time>
      </trkpt>
      <trkpt lat="47.23871" lon="-2.27595">
        <ele>4</ele>
        <time>2021-05-23T07:22:42.982Z</time>
      </trkpt>
      <trkpt lat="47.23871" lon="-2.27596">
        <ele>3</ele>
        <time>2021-05-23T07:22:43.982Z</time>
      </trkpt>
      <trkpt lat="47.2387" lon="-2.27597">
        <ele>3</ele>
        <time>2021-05-23T07:22:44.983Z</time>
      </trkpt>
      <trkpt lat="47.23869" lon="-2.27597">
        <ele>3</ele>
        <time>2021-05-23T07:22:45.982Z</time>
      </trkpt>
      <trkpt lat="47.23868" lon="-2.27597">
        <ele>3</ele>
        <time>2021-05-23T07:22:46.982Z</time>
      </trkpt>
      <trkpt lat="47.23868" lon="-2.27598">
        <ele>3</ele>
        <time>2021-05-23T07:22:47.982Z</time>
      </trkpt>
      <trkpt lat="47.23868" lon="-2.27598">
        <ele>3</ele>
        <time>2021-05-23T07:22:48.982Z</time>
      </trkpt>
      <trkpt lat="47.23868" lon="-2.27599">
        <ele>3</ele>
        <time>2021-05-23T07:22:49.982Z</time>
      </trkpt>
      <trkpt lat="47.23867" lon="-2.27599">
        <ele>3</ele>
        <time>2021-05-23T07:22:50.982Z</time>
      </trkpt>
      <trkpt lat="47.23866" lon="-2.27599">
        <ele>4</ele>
        <time>2021-05-23T07:22:51.982Z</time>
      </trkpt>
      <trkpt lat="47.23865" lon="-2.276">
        <ele>4</ele>
        <time>2021-05-23T07:22:52.983Z</time>
      </trkpt>
      <trkpt lat="47.23865" lon="-2.276">
        <ele>4</ele>
        <time>2021-05-23T07:22:53.982Z</time>
      </trkpt>
      <trkpt lat="47.23865" lon="-2.276">
        <ele>4</ele>
        <time>2021-05-23T07:22:54.983Z</time>
      </trkpt>
      <trkpt lat="47.23865" lon="-2.276">
        <ele>4</ele>
        <time>2021-05-23T07:22:55.983Z</time>
      </trkpt>
      <trkpt lat="47.23865" lon="-2.27599">
        <ele>4</ele>
        <time>2021-05-23T07:22:56.982Z</time>
      </trkpt>
      <trkpt lat="47.23863" lon="-2.27599">
        <ele>5</ele>
        <time>2021-05-23T07:22:57.983Z</time>
      </trkpt>
      <trkpt lat="47.23863" lon="-2.276">
        <ele>5</ele>
        <time>2021-05-23T07:22:58.982Z</time>
      </trkpt>
      <trkpt lat="47.23862" lon="-2.27601">
        <ele>5</ele>
        <time>2021-05-23T07:22:59.983Z</time>
      </trkpt>
      <trkpt lat="47.23862" lon="-2.27602">
        <ele>6</ele>
        <time>2021-05-23T07:23:00.983Z</time>
      </trkpt>
      <trkpt lat="47.23861" lon="-2.27602">
        <ele>6</ele>
        <time>2021-05-23T07:23:01.982Z</time>
      </trkpt>
      <trkpt lat="47.23861" lon="-2.27602">
        <ele>6</ele>
        <time>2021-05-23T07:23:02.983Z</time>
      </trkpt>
      <trkpt lat="47.23861" lon="-2.27602">
        <ele>7</ele>
        <time>2021-05-23T07:23:03.982Z</time>
      </trkpt>
      <trkpt lat="47.2386" lon="-2.27602">
        <ele>7</ele>
        <time>2021-05-23T07:23:04.983Z</time>
      </trkpt>
      <trkpt lat="47.23859" lon="-2.27603">
        <ele>8</ele>
        <time>2021-05-23T07:23:05.983Z</time>
      </trkpt>
      <trkpt lat="47.23858" lon="-2.27603">
        <ele>8</ele>
        <time>2021-05-23T07:23:06.982Z</time>
      </trkpt>
      <trkpt lat="47.23857" lon="-2.27603">
        <ele>9</ele>
        <time>2021-05-23T07:23:07.983Z</time>
      </trkpt>
      <trkpt lat="47.23856" lon="-2.27603">
        <ele>9</ele>
        <time>2021-05-23T07:23:08.983Z</time>
      </trkpt>
      <trkpt lat="47.23856" lon="-2.27603">
        <ele>10</ele>
        <time>2021-05-23T07:23:09.983Z</time>
      </trkpt>
      <trkpt lat="47.23856" lon="-2.27603">
        <ele>10</ele>
        <time>2021-05-23T07:23:10.982Z</time>
      </trkpt>
      <trkpt lat="47.23855" lon="-2.27604">
        <ele>11</ele>
        <time>2021-05-23T07:23:11.983Z</time>
      </trkpt>
      <trkpt lat="47.23855" lon="-2.27605">
        <ele>11</ele>
        <time>2021-05-23T07:23:12.983Z</time>
      </trkpt>
      <trkpt lat="47.23855" lon="-2.27606">
        <ele>11</ele>
        <time>2021-05-23T07:23:13.983Z</time>
      </trkpt>
      <trkpt lat="47.23855" lon="-2.27608">
        <ele>11</ele>
        <time>2021-05-23T07:23:14.983Z</time>
      </trkpt>
      <trkpt lat="47.23856" lon="-2.27608">
        <ele>11</ele>
        <time>2021-05-23T07:23:15.983Z</time>
      </trkpt>
      <trkpt lat="47.23856" lon="-2.27609">
        <ele>11</ele>
        <time>2021-05-23T07:23:16.983Z</time>
      </trkpt>
      <trkpt lat="47.23857" lon="-2.27609">
        <ele>11</ele>
        <time>2021-05-23T07:23:17.982Z</time>
      </trkpt>
      <trkpt lat="47.23857" lon="-2.27609">
        <ele>11</ele>
        <time>2021-05-23T07:23:18.982Z</time>
      </trkpt>
      <trkpt lat="47.23857" lon="-2.2761">
        <ele>12</ele>
        <time>2021-05-23T07:23:19.983Z</time>
      </trkpt>
      <trkpt lat="47.23858" lon="-2.2761">
        <ele>12</ele>
        <time>2021-05-23T07:23:20.983Z</time>
      </trkpt>
      <trkpt lat="47.2386" lon="-2.27609">
        <ele>12</ele>
        <time>2021-05-23T07:23:21.982Z</time>
      </trkpt>
      <trkpt lat="47.23861" lon="-2.27609">
        <ele>12</ele>
        <time>2021-05-23T07:23:22.982Z</time>
      </trkpt>
      <trkpt lat="47.23863" lon="-2.27609">
        <ele>12</ele>
        <time>2021-05-23T07:23:23.983Z</time>
      </trkpt>
      <trkpt lat="47.23864" lon="-2.27608">
        <ele>12</ele>
        <time>2021-05-23T07:23:24.983Z</time>
      </trkpt>
      <trkpt lat="47.23864" lon="-2.27608">
        <ele>13</ele>
        <time>2021-05-23T07:23:25.983Z</time>
      </trkpt>
      <trkpt lat="47.23865" lon="-2.27608">
        <ele>13</ele>
        <time>2021-05-23T07:23:26.983Z</time>
      </trkpt>
      <trkpt lat="47.23866" lon="-2.27608">
        <ele>13</ele>
        <time>2021-05-23T07:23:27.982Z</time>
      </trkpt>
      <trkpt lat="47.23867" lon="-2.27608">
        <ele>14</ele>
        <time>2021-05-23T07:23:28.983Z</time>
      </trkpt>
      <trkpt lat="47.23868" lon="-2.27609">
        <ele>14</ele>
        <time>2021-05-23T07:23:29.983Z</time>
      </trkpt>
      <trkpt lat="47.23868" lon="-2.2761">
        <ele>14</ele>
        <time>2021-05-23T07:23:30.982Z</time>
      </trkpt>
      <trkpt lat="47.23868" lon="-2.27612">
        <ele>14</ele>
        <time>2021-05-23T07:23:31.982Z</time>
      </trkpt>
      <trkpt lat="47.23868" lon="-2.27614">
        <ele>14</ele>
        <time>2021-05-23T07:23:32.983Z</time>
      </trkpt>
      <trkpt lat="47.23867" lon="-2.27616">
        <ele>14</ele>
        <time>2021-05-23T07:23:33.983Z</time>
      </trkpt>
      <trkpt lat="47.23868" lon="-2.27618">
        <ele>14</ele>
        <time>2021-05-23T07:23:34.983Z</time>
      </trkpt>
      <trkpt lat="47.23868" lon="-2.2762">
        <ele>14</ele>
        <time>2021-05-23T07:23:35.983Z</time>
      </trkpt>
      <trkpt lat="47.23869" lon="-2.27621">
        <ele>14</ele>
        <time>2021-05-23T07:23:36.983Z</time>
      </trkpt>
      <trkpt lat="47.23869" lon="-2.27623">
        <ele>14</ele>
        <time>2021-05-23T07:23:37.982Z</time>
      </trkpt>
      <trkpt lat="47.2387" lon="-2.27625">
        <ele>14</ele>
        <time>2021-05-23T07:23:38.983Z</time>
      </trkpt>
      <trkpt lat="47.2387" lon="-2.27626">
        <ele>14</ele>
        <time>2021-05-23T07:23:39.983Z</time>
      </trkpt>
      <trkpt lat="47.23871" lon="-2.27628">
        <ele>15</ele>
        <time>2021-05-23T07:23:40.982Z</time>
      </trkpt>
      <trkpt lat="47.23871" lon="-2.27628">
        <ele>15</ele>
        <time>2021-05-23T07:23:41.982Z</time>
      </trkpt>
      <trkpt lat="47.23871" lon="-2.27629">
        <ele>15</ele>
        <time>2021-05-23T07:23:42.983Z</time>
      </trkpt>
      <trkpt lat="47.23872" lon="-2.27629">
        <ele>16</ele>
        <time>2021-05-23T07:23:43.983Z</time>
      </trkpt>
      <trkpt lat="47.23872" lon="-2.27628">
        <ele>16</ele>
        <time>2021-05-23T07:23:44.982Z</time>
      </trkpt>
      <trkpt lat="47.23873" lon="-2.27628">
        <ele>16</ele>
        <time>2021-05-23T07:23:45.983Z</time>
      </trkpt>
      <trkpt lat="47.23872" lon="-2.27628">
        <ele>17</ele>
        <time>2021-05-23T07:23:46.983Z</time>
      </trkpt>
      <trkpt lat="47.23873" lon="-2.27628">
        <ele>17</ele>
        <time>2021-05-23T07:23:47.982Z</time>
      </trkpt>
      <trkpt lat="47.23873" lon="-2.27627">
        <ele>17</ele>
        <time>2021-05-23T07:23:48.982Z</time>
      </trkpt>
      <trkpt lat="47.23874" lon="-2.27627">
        <ele>17</ele>
        <time>2021-05-23T07:23:49.982Z</time>
      </trkpt>
      <trkpt lat="47.23875" lon="-2.27627">
        <ele>18</ele>
        <time>2021-05-23T07:23:50.983Z</time>
      </trkpt>
      <trkpt lat="47.23875" lon="-2.27627">
        <ele>18</ele>
        <time>2021-05-23T07:23:51.982Z</time>
      </trkpt>
      <trkpt lat="47.23875" lon="-2.27627">
        <ele>18</ele>
        <time>2021-05-23T07:23:52.983Z</time>
      </trkpt>
      <trkpt lat="47.23876" lon="-2.27627">
        <ele>18</ele>
        <time>2021-05-23T07:23:53.983Z</time>
      </trkpt>
      <trkpt lat="47.23876" lon="-2.27627">
        <ele>18</ele>
        <time>2021-05-23T07:23:54.983Z</time>
      </trkpt>
      <trkpt lat="47.23877" lon="-2.27628">
        <ele>18</ele>
        <time>2021-05-23T07:23:55.983Z</time>
      </trkpt>
      <trkpt lat="47.23877" lon="-2.27628">
        <ele>18</ele>
        <time>2021-05-23T07:23:56.982Z</time>
      </trkpt>
      <trkpt lat="47.23878" lon="-2.27628">
        <ele>18</ele>
        <time>2021-05-23T07:23:57.982Z</time>
      </trkpt>
      <trkpt lat="47.23878" lon="-2.27628">
        <ele>18</ele>
        <time>2021-05-23T07:23:58.983Z</time>
      </trkpt>
      <trkpt lat="47.23878" lon="-2.27628">
        <ele>19</ele>
        <time>2021-05-23T07:23:59.983Z</time>
      </trkpt>
      <trkpt lat="47.23878" lon="-2.27628">
        <ele>19</ele>
        <time>2021-05-23T07:24:00.983Z</time>
      </trkpt>
      <trkpt lat="47.23877" lon="-2.27628">
        <ele>19</ele>
        <time>2021-05-23T07:24:01.983Z</time>
      </trkpt>
      <trkpt lat="47.23877" lon="-2.27628">
        <ele>20</ele>
        <time>2021-05-23T07:24:02.983Z</time>
      </trkpt>
      <trkpt lat="47.23877" lon="-2.27628">
        <ele>20</ele>
        <time>2021-05-23T07:24:03.982Z</time>
      </trkpt>
      <trkpt lat="47.23876" lon="-2.27629">
        <ele>21</ele>
        <time>2021-05-23T07:24:04.982Z</time>
      </trkpt>
      <trkpt lat="47.23876" lon="-2.27629">
        <ele>21</ele>
        <time>2021-05-23T07:24:05.983Z</time>
      </trkpt>
      <trkpt lat="47.23875" lon="-2.27629">
        <ele>21</ele>
        <time>2021-05-23T07:24:06.983Z</time>
      </trkpt>
      <trkpt lat="47.23873" lon="-2.27629">
        <ele>21</ele>
        <time>2021-05-23T07:24:07.982Z</time>
      </trkpt>
      <trkpt lat="47.23871" lon="-2.27629">
        <ele>22</ele>
        <time>2021-05-23T07:24:08.983Z</time>
      </trkpt>
      <trkpt lat="47.23869" lon="-2.27629">
        <ele>22</ele>
        <time>2021-05-23T07:24:09.983Z</time>
      </trkpt>
      <trkpt lat="47.23867" lon="-2.27629">
        <ele>22</ele>
        <time>2021-05-23T07:24:10.982Z</time>
      </trkpt>
      <trkpt lat="47.23865" lon="-2.2763">
        <ele>22</ele>
        <time>2021-05-23T07:24:11.982Z</time>
      </trkpt>
      <trkpt lat="47.23863" lon="-2.2763">
        <ele>22</ele>
        <time>2021-05-23T07:24:12.983Z</time>
      </trkpt>
      <trkpt lat="47.23862" lon="-2.27631">
        <ele>22</ele>
        <time>2021-05-23T07:24:13.983Z</time>
      </trkpt>
      <trkpt lat="47.23859" lon="-2.27634">
        <ele>22</ele>
        <time>2021-05-23T07:24:14.983Z</time>
      </trkpt>
      <trkpt lat="47.23858" lon="-2.27635">
        <ele>22</ele>
        <time>2021-05-23T07:24:15.982Z</time>
      </trkpt>
      <trkpt lat="47.23856" lon="-2.27636">
        <ele>22</ele>
        <time>2021-05-23T07:24:16.983Z</time>
      </trkpt>
      <trkpt lat="47.23854" lon="-2.27638">
        <ele>22</ele>
        <time>2021-05-23T07:24:17.983Z</time>
      </trkpt>
      <trkpt lat="47.23853" lon="-2.27639">
        <ele>21</ele>
        <time>2021-05-23T07:24:18.983Z</time>
      </trkpt>
      <trkpt lat="47.23851" lon="-2.2764">
        <ele>21</ele>
        <time>2021-05-23T07:24:19.982Z</time>
      </trkpt>
      <trkpt lat="47.2385" lon="-2.27642">
        <ele>21</ele>
        <time>2021-05-23T07:24:20.983Z</time>
      </trkpt>
      <trkpt lat="47.23849" lon="-2.27643">
        <ele>20</ele>
        <time>2021-05-23T07:24:21.983Z</time>
      </trkpt>
      <trkpt lat="47.23847" lon="-2.27644">
        <ele>20</ele>
        <time>2021-05-23T07:24:22.983Z</time>
      </trkpt>
      <trkpt lat="47.23845" lon="-2.27645">
        <ele>19</ele>
        <time>2021-05-23T07:24:23.982Z</time>
      </trkpt>
      <trkpt lat="47.23842" lon="-2.27646">
        <ele>19</ele>
        <time>2021-05-23T07:24:24.982Z</time>
      </trkpt>
      <trkpt lat="47.23839" lon="-2.27649">
        <ele>19</ele>
        <time>2021-05-23T07:24:25.982Z</time>
      </trkpt>
      <trkpt lat="47.23837" lon="-2.2765">
        <ele>18</ele>
        <time>2021-05-23T07:24:26.982Z</time>
      </trkpt>
      <trkpt lat="47.23835" lon="-2.2765">
        <ele>18</ele>
        <time>2021-05-23T07:24:27.982Z</time>
      </trkpt>
      <trkpt lat="47.23834" lon="-2.2765">
        <ele>18</ele>
        <time>2021-05-23T07:24:28.983Z</time>
      </trkpt>
      <trkpt lat="47.23832" lon="-2.2765">
        <ele>18</ele>
        <time>2021-05-23T07:24:29.983Z</time>
      </trkpt>
      <trkpt lat="47.23829" lon="-2.27651">
        <ele>18</ele>
        <time>2021-05-23T07:24:30.983Z</time>
      </trkpt>
      <trkpt lat="47.23827" lon="-2.27651">
        <ele>18</ele>
        <time>2021-05-23T07:24:31.983Z</time>
      </trkpt>
      <trkpt lat="47.23824" lon="-2.27652">
        <ele>18</ele>
        <time>2021-05-23T07:24:32.983Z</time>
      </trkpt>
      <trkpt lat="47.23822" lon="-2.27652">
        <ele>18</ele>
        <time>2021-05-23T07:24:33.983Z</time>
      </trkpt>
      <trkpt lat="47.2382" lon="-2.27652">
        <ele>18</ele>
        <time>2021-05-23T07:24:34.982Z</time>
      </trkpt>
      <trkpt lat="47.23817" lon="-2.27652">
        <ele>18</ele>
        <time>2021-05-23T07:24:35.982Z</time>
      </trkpt>
      <trkpt lat="47.23815" lon="-2.27652">
        <ele>18</ele>
        <time>2021-05-23T07:24:36.983Z</time>
      </trkpt>
      <trkpt lat="47.23812" lon="-2.27652">
        <ele>18</ele>
        <time>2021-05-23T07:24:37.983Z</time>
      </trkpt>
      <trkpt lat="47.2381" lon="-2.27653">
        <ele>18</ele>
        <time>2021-05-23T07:24:38.983Z</time>
      </trkpt>
      <trkpt lat="47.23807" lon="-2.27654">
        <ele>18</ele>
        <time>2021-05-23T07:24:39.983Z</time>
      </trkpt>
      <trkpt lat="47.23805" lon="-2.27655">
        <ele>18</ele>
        <time>2021-05-23T07:24:40.983Z</time>
      </trkpt>
      <trkpt lat="47.23803" lon="-2.27657">
        <ele>18</ele>
        <time>2021-05-23T07:24:41.983Z</time>
      </trkpt>
      <trkpt lat="47.23801" lon="-2.27659">
        <ele>18</ele>
        <time>2021-05-23T07:24:42.983Z</time>
      </trkpt>
      <trkpt lat="47.23799" lon="-2.27661">
        <ele>18</ele>
        <time>2021-05-23T07:24:43.982Z</time>
      </trkpt>
      <trkpt lat="47.23797" lon="-2.27664">
        <ele>18</ele>
        <time>2021-05-23T07:24:44.983Z</time>
      </trkpt>
      <trkpt lat="47.23796" lon="-2.27666">
        <ele>18</ele>
        <time>2021-05-23T07:24:45.982Z</time>
      </trkpt>
      <trkpt lat="47.23795" lon="-2.27668">
        <ele>18</ele>
        <time>2021-05-23T07:24:46.982Z</time>
      </trkpt>
      <trkpt lat="47.23794" lon="-2.2767">
        <ele>17</ele>
        <time>2021-05-23T07:24:47.983Z</time>
      </trkpt>
      <trkpt lat="47.23793" lon="-2.27673">
        <ele>17</ele>
        <time>2021-05-23T07:24:48.982Z</time>
      </trkpt>
      <trkpt lat="47.23793" lon="-2.27675">
        <ele>16</ele>
        <time>2021-05-23T07:24:49.982Z</time>
      </trkpt>
      <trkpt lat="47.23792" lon="-2.27678">
        <ele>16</ele>
        <time>2021-05-23T07:24:50.983Z</time>
      </trkpt>
      <trkpt lat="47.23792" lon="-2.27681">
        <ele>15</ele>
        <time>2021-05-23T07:24:51.982Z</time>
      </trkpt>
      <trkpt lat="47.23792" lon="-2.27684">
        <ele>15</ele>
        <time>2021-05-23T07:24:52.982Z</time>
      </trkpt>
      <trkpt lat="47.23792" lon="-2.27686">
        <ele>14</ele>
        <time>2021-05-23T07:24:53.983Z</time>
      </trkpt>
      <trkpt lat="47.23791" lon="-2.27688">
        <ele>13</ele>
        <time>2021-05-23T07:24:54.982Z</time>
      </trkpt>
      <trkpt lat="47.2379" lon="-2.27691">
        <ele>13</ele>
        <time>2021-05-23T07:24:55.982Z</time>
      </trkpt>
      <trkpt lat="47.2379" lon="-2.27694">
        <ele>13</ele>
        <time>2021-05-23T07:24:56.982Z</time>
      </trkpt>
      <trkpt lat="47.2379" lon="-2.27697">
        <ele>13</ele>
        <time>2021-05-23T07:24:57.983Z</time>
      </trkpt>
      <trkpt lat="47.23789" lon="-2.27699">
        <ele>12</ele>
        <time>2021-05-23T07:24:58.983Z</time>
      </trkpt>
      <trkpt lat="47.23788" lon="-2.27702">
        <ele>12</ele>
        <time>2021-05-23T07:24:59.982Z</time>
      </trkpt>
      <trkpt lat="47.23786" lon="-2.27704">
        <ele>12</ele>
        <time>2021-05-23T07:25:00.983Z</time>
      </trkpt>
      <trkpt lat="47.23785" lon="-2.27706">
        <ele>12</ele>
        <time>2021-05-23T07:25:01.982Z</time>
      </trkpt>
      <trkpt lat="47.23784" lon="-2.27708">
        <ele>12</ele>
        <time>2021-05-23T07:25:02.983Z</time>
      </trkpt>
      <trkpt lat="47.23783" lon="-2.2771">
        <ele>12</ele>
        <time>2021-05-23T07:25:03.983Z</time>
      </trkpt>
      <trkpt lat="47.23782" lon="-2.27713">
        <ele>13</ele>
        <time>2021-05-23T07:25:04.982Z</time>
      </trkpt>
      <trkpt lat="47.23782" lon="-2.27716">
        <ele>13</ele>
        <time>2021-05-23T07:25:05.983Z</time>
      </trkpt>
      <trkpt lat="47.23781" lon="-2.27719">
        <ele>13</ele>
        <time>2021-05-23T07:25:06.982Z</time>
      </trkpt>
      <trkpt lat="47.23781" lon="-2.27723">
        <ele>13</ele>
        <time>2021-05-23T07:25:07.983Z</time>
      </trkpt>
      <trkpt lat="47.23781" lon="-2.27726">
        <ele>13</ele>
        <time>2021-05-23T07:25:08.983Z</time>
      </trkpt>
      <trkpt lat="47.23781" lon="-2.27729">
        <ele>13</ele>
        <time>2021-05-23T07:25:09.982Z</time>
      </trkpt>
      <trkpt lat="47.23781" lon="-2.27732">
        <ele>13</ele>
        <time>2021-05-23T07:25:10.982Z</time>
      </trkpt>
      <trkpt lat="47.23782" lon="-2.27736">
        <ele>13</ele>
        <time>2021-05-23T07:25:11.983Z</time>
      </trkpt>
      <trkpt lat="47.23782" lon="-2.27739">
        <ele>13</ele>
        <time>2021-05-23T07:25:12.983Z</time>
      </trkpt>
      <trkpt lat="47.23783" lon="-2.27742">
        <ele>13</ele>
        <time>2021-05-23T07:25:13.983Z</time>
      </trkpt>
      <trkpt lat="47.23784" lon="-2.27745">
        <ele>13</ele>
        <time>2021-05-23T07:25:14.983Z</time>
      </trkpt>
      <trkpt lat="47.23785" lon="-2.27748">
        <ele>13</ele>
        <time>2021-05-23T07:25:15.983Z</time>
      </trkpt>
      <trkpt lat="47.23785" lon="-2.27752">
        <ele>13</ele>
        <time>2021-05-23T07:25:16.982Z</time>
      </trkpt>
      <trkpt lat="47.23786" lon="-2.27755">
        <ele>13</ele>
        <time>2021-05-23T07:25:17.983Z</time>
      </trkpt>
      <trkpt lat="47.23786" lon="-2.27758">
        <ele>13</ele>
        <time>2021-05-23T07:25:18.983Z</time>
      </trkpt>
      <trkpt lat="47.23785" lon="-2.27761">
        <ele>13</ele>
        <time>2021-05-23T07:25:19.982Z</time>
      </trkpt>
      <trkpt lat="47.23784" lon="-2.27764">
        <ele>12</ele>
        <time>2021-05-23T07:25:20.982Z</time>
      </trkpt>
      <trkpt lat="47.23784" lon="-2.27766">
        <ele>12</ele>
        <time>2021-05-23T07:25:21.982Z</time>
      </trkpt>
      <trkpt lat="47.23783" lon="-2.27769">
        <ele>11</ele>
        <time>2021-05-23T07:25:22.982Z</time>
      </trkpt>
      <trkpt lat="47.23784" lon="-2.27772">
        <ele>11</ele>
        <time>2021-05-23T07:25:23.983Z</time>
      </trkpt>
      <trkpt lat="47.23784" lon="-2.27775">
        <ele>10</ele>
        <time>2021-05-23T07:25:24.982Z</time>
      </trkpt>
      <trkpt lat="47.23785" lon="-2.27778">
        <ele>10</ele>
        <time>2021-05-23T07:25:25.982Z</time>
      </trkpt>
      <trkpt lat="47.23786" lon="-2.27781">
        <ele>10</ele>
        <time>2021-05-23T07:25:26.983Z</time>
      </trkpt>
      <trkpt lat="47.23787" lon="-2.27784">
        <ele>10</ele>
        <time>2021-05-23T07:25:27.982Z</time>
      </trkpt>
      <trkpt lat="47.23788" lon="-2.27786">
        <ele>9</ele>
        <time>2021-05-23T07:25:28.982Z</time>
      </trkpt>
      <trkpt lat="47.23789" lon="-2.27788">
        <ele>9</ele>
        <time>2021-05-23T07:25:29.982Z</time>
      </trkpt>
      <trkpt lat="47.2379" lon="-2.2779">
        <ele>9</ele>
        <time>2021-05-23T07:25:30.982Z</time>
      </trkpt>
      <trkpt lat="47.2379" lon="-2.27792">
        <ele>9</ele>
        <time>2021-05-23T07:25:31.982Z</time>
      </trkpt>
      <trkpt lat="47.2379" lon="-2.27795">
        <ele>9</ele>
        <time>2021-05-23T07:25:32.982Z</time>
      </trkpt>
      <trkpt lat="47.2379" lon="-2.27798">
        <ele>9</ele>
        <time>2021-05-23T07:25:33.982Z</time>
      </trkpt>
      <trkpt lat="47.2379" lon="-2.27801">
        <ele>9</ele>
        <time>2021-05-23T07:25:34.982Z</time>
      </trkpt>
      <trkpt lat="47.2379" lon="-2.27803">
        <ele>9</ele>
        <time>2021-05-23T07:25:35.982Z</time>
      </trkpt>
      <trkpt lat="47.23791" lon="-2.27805">
        <ele>9</ele>
        <time>2021-05-23T07:25:36.982Z</time>
      </trkpt>
      <trkpt lat="47.23792" lon="-2.27805">
        <ele>9</ele>
        <time>2021-05-23T07:25:37.982Z</time>
      </trkpt>
      <trkpt lat="47.23794" lon="-2.27805">
        <ele>9</ele>
        <time>2021-05-23T07:25:38.982Z</time>
      </trkpt>
      <trkpt lat="47.23796" lon="-2.27804">
        <ele>8</ele>
        <time>2021-05-23T07:25:39.982Z</time>
      </trkpt>
      <trkpt lat="47.23799" lon="-2.27804">
        <ele>8</ele>
        <time>2021-05-23T07:25:40.982Z</time>
      </trkpt>
      <trkpt lat="47.23801" lon="-2.27803">
        <ele>8</ele>
        <time>2021-05-23T07:25:41.983Z</time>
      </trkpt>
      <trkpt lat="47.23804" lon="-2.27802">
        <ele>8</ele>
        <time>2021-05-23T07:25:42.982Z</time>
      </trkpt>
      <trkpt lat="47.23806" lon="-2.27801">
        <ele>8</ele>
        <time>2021-05-23T07:25:43.982Z</time>
      </trkpt>
      <trkpt lat="47.23808" lon="-2.27801">
        <ele>9</ele>
        <time>2021-05-23T07:25:44.982Z</time>
      </trkpt>
      <trkpt lat="47.23809" lon="-2.27802">
        <ele>9</ele>
        <time>2021-05-23T07:25:45.982Z</time>
      </trkpt>
      <trkpt lat="47.23811" lon="-2.27802">
        <ele>9</ele>
        <time>2021-05-23T07:25:46.983Z</time>
      </trkpt>
      <trkpt lat="47.23813" lon="-2.27803">
        <ele>9</ele>
        <time>2021-05-23T07:25:47.983Z</time>
      </trkpt>
      <trkpt lat="47.23814" lon="-2.27803">
        <ele>10</ele>
        <time>2021-05-23T07:25:48.982Z</time>
      </trkpt>
      <trkpt lat="47.23815" lon="-2.27804">
        <ele>10</ele>
        <time>2021-05-23T07:25:49.983Z</time>
      </trkpt>
      <trkpt lat="47.23816" lon="-2.27805">
        <ele>10</ele>
        <time>2021-05-23T07:25:50.983Z</time>
      </trkpt>
      <trkpt lat="47.23816" lon="-2.27806">
        <ele>9</ele>
        <time>2021-05-23T07:25:51.983Z</time>
      </trkpt>
      <trkpt lat="47.23816" lon="-2.27807">
        <ele>9</ele>
        <time>2021-05-23T07:25:52.983Z</time>
      </trkpt>
      <trkpt lat="47.23815" lon="-2.27809">
        <ele>9</ele>
        <time>2021-05-23T07:25:53.983Z</time>
      </trkpt>
      <trkpt lat="47.23814" lon="-2.2781">
        <ele>9</ele>
        <time>2021-05-23T07:25:54.983Z</time>
      </trkpt>
      <trkpt lat="47.23813" lon="-2.27812">
        <ele>9</ele>
        <time>2021-05-23T07:25:55.983Z</time>
      </trkpt>
      <trkpt lat="47.23811" lon="-2.27812">
        <ele>9</ele>
        <time>2021-05-23T07:25:56.982Z</time>
      </trkpt>
      <trkpt lat="47.23809" lon="-2.27812">
        <ele>9</ele>
        <time>2021-05-23T07:25:57.983Z</time>
      </trkpt>
      <trkpt lat="47.23806" lon="-2.27813">
        <ele>9</ele>
        <time>2021-05-23T07:25:58.983Z</time>
      </trkpt>
      <trkpt lat="47.23805" lon="-2.27815">
        <ele>9</ele>
        <time>2021-05-23T07:25:59.983Z</time>
      </trkpt>
      <trkpt lat="47.23803" lon="-2.27818">
        <ele>8</ele>
        <time>2021-05-23T07:26:00.983Z</time>
      </trkpt>
      <trkpt lat="47.23801" lon="-2.27821">
        <ele>8</ele>
        <time>2021-05-23T07:26:01.983Z</time>
      </trkpt>
      <trkpt lat="47.23799" lon="-2.27824">
        <ele>8</ele>
        <time>2021-05-23T07:26:02.982Z</time>
      </trkpt>
      <trkpt lat="47.23797" lon="-2.27826">
        <ele>7</ele>
        <time>2021-05-23T07:26:03.983Z</time>
      </trkpt>
      <trkpt lat="47.23796" lon="-2.27829">
        <ele>7</ele>
        <time>2021-05-23T07:26:04.983Z</time>
      </trkpt>
      <trkpt lat="47.23794" lon="-2.27831">
        <ele>6</ele>
        <time>2021-05-23T07:26:05.983Z</time>
      </trkpt>
      <trkpt lat="47.23793" lon="-2.27834">
        <ele>6</ele>
        <time>2021-05-23T07:26:06.983Z</time>
      </trkpt>
      <trkpt lat="47.23792" lon="-2.27837">
        <ele>5</ele>
        <time>2021-05-23T07:26:07.982Z</time>
      </trkpt>
      <trkpt lat="47.23792" lon="-2.2784">
        <ele>5</ele>
        <time>2021-05-23T07:26:08.983Z</time>
      </trkpt>
      <trkpt lat="47.23792" lon="-2.27844">
        <ele>5</ele>
        <time>2021-05-23T07:26:09.983Z</time>
      </trkpt>
      <trkpt lat="47.23792" lon="-2.27847">
        <ele>4</ele>
        <time>2021-05-23T07:26:10.983Z</time>
      </trkpt>
      <trkpt lat="47.23793" lon="-2.2785">
        <ele>4</ele>
        <time>2021-05-23T07:26:11.983Z</time>
      </trkpt>
      <trkpt lat="47.23793" lon="-2.27854">
        <ele>4</ele>
        <time>2021-05-23T07:26:12.983Z</time>
      </trkpt>
      <trkpt lat="47.23794" lon="-2.27857">
        <ele>3</ele>
        <time>2021-05-23T07:26:13.983Z</time>
      </trkpt>
      <trkpt lat="47.23795" lon="-2.27861">
        <ele>2</ele>
        <time>2021-05-23T07:26:14.983Z</time>
      </trkpt>
      <trkpt lat="47.23795" lon="-2.27865">
        <ele>2</ele>
        <time>2021-05-23T07:26:15.983Z</time>
      </trkpt>
      <trkpt lat="47.23796" lon="-2.27868">
        <ele>1</ele>
        <time>2021-05-23T07:26:16.983Z</time>
      </trkpt>
      <trkpt lat="47.23796" lon="-2.27872">
        <ele>5.7</ele>
        <time>2021-05-23T07:26:17.982Z</time>
      </trkpt>
      <trkpt lat="47.23796" lon="-2.27875">
        <ele>5.7</ele>
        <time>2021-05-23T07:26:18.983Z</time>
      </trkpt>
      <trkpt lat="47.23797" lon="-2.27879">
        <ele>5.6</ele>
        <time>2021-05-23T07:26:19.983Z</time>
      </trkpt>
      <trkpt lat="47.23797" lon="-2.27883">
        <ele>5.6</ele>
        <time>2021-05-23T07:26:20.983Z</time>
      </trkpt>
      <trkpt lat="47.23797" lon="-2.27887">
        <ele>5.5</ele>
        <time>2021-05-23T07:26:21.983Z</time>
      </trkpt>
      <trkpt lat="47.23798" lon="-2.2789">
        <ele>5.5</ele>
        <time>2021-05-23T07:26:22.983Z</time>
      </trkpt>
      <trkpt lat="47.23798" lon="-2.27894">
        <ele>5.5</ele>
        <time>2021-05-23T07:26:23.983Z</time>
      </trkpt>
      <trkpt lat="47.23799" lon="-2.27897">
        <ele>-1</ele>
        <time>2021-05-23T07:26:24.982Z</time>
      </trkpt>
      <trkpt lat="47.23799" lon="-2.279">
        <ele>-1</ele>
        <time>2021-05-23T07:26:25.982Z</time>
      </trkpt>
      <trkpt lat="47.238" lon="-2.27904">
        <ele>-2</ele>
        <time>2021-05-23T07:26:26.982Z</time>
      </trkpt>
      <trkpt lat="47.23801" lon="-2.27906">
        <ele>-2</ele>
        <time>2021-05-23T07:26:27.982Z</time>
      </trkpt>
      <trkpt lat="47.23802" lon="-2.2791">
        <ele>-3</ele>
        <time>2021-05-23T07:26:28.982Z</time>
      </trkpt>
      <trkpt lat="47.23802" lon="-2.27914">
        <ele>-3</ele>
        <time>2021-05-23T07:26:29.983Z</time>
      </trkpt>
      <trkpt lat="47.23802" lon="-2.27918">
        <ele>-3</ele>
        <time>2021-05-23T07:26:30.983Z</time>
      </trkpt>
      <trkpt lat="47.23803" lon="-2.27922">
        <ele>-4</ele>
        <time>2021-05-23T07:26:31.982Z</time>
      </trkpt>
      <trkpt lat="47.23803" lon="-2.27925">
        <ele>-2</ele>
        <time>2021-05-23T07:26:32.983Z</time>
      </trkpt>
      <trkpt lat="47.23804" lon="-2.27927">
        <ele>-2</ele>
        <time>2021-05-23T07:26:33.983Z</time>
      </trkpt>
      <trkpt lat="47.23804" lon="-2.27931">
        <ele>-2</ele>
        <time>2021-05-23T07:26:34.982Z</time>
      </trkpt>
      <trkpt lat="47.23805" lon="-2.27934">
        <ele>-2</ele>
        <time>2021-05-23T07:26:35.983Z</time>
      </trkpt>
      <trkpt lat="47.23805" lon="-2.27938">
        <ele>-2</ele>
        <time>2021-05-23T07:26:36.982Z</time>
      </trkpt>
      <trkpt lat="47.23805" lon="-2.27942">
        <ele>-2</ele>
        <time>2021-05-23T07:26:37.983Z</time>
      </trkpt>
      <trkpt lat="47.23805" lon="-2.27945">
        <ele>-2</ele>
        <time>2021-05-23T07:26:38.982Z</time>
      </trkpt>
      <trkpt lat="47.23805" lon="-2.27948">
        <ele>-2</ele>
        <time>2021-05-23T07:26:39.983Z</time>
      </trkpt>
      <trkpt lat="47.23804" lon="-2.27951">
        <ele>-2</ele>
        <time>2021-05-23T07:26:40.983Z</time>
      </trkpt>
      <trkpt lat="47.23802" lon="-2.27955">
        <ele>-2</ele>
        <time>2021-05-23T07:26:41.982Z</time>
      </trkpt>
      <trkpt lat="47.23801" lon="-2.27958">
        <ele>-2</ele>
        <time>2021-05-23T07:26:42.983Z</time>
      </trkpt>
      <trkpt lat="47.23801" lon="-2.27961">
        <ele>-2</ele>
        <time>2021-05-23T07:26:43.983Z</time>
      </trkpt>
      <trkpt lat="47.238" lon="-2.27965">
        <ele>-2</ele>
        <time>2021-05-23T07:26:44.983Z</time>
      </trkpt>
      <trkpt lat="47.238" lon="-2.27968">
        <ele>-2</ele>
        <time>2021-05-23T07:26:45.982Z</time>
      </trkpt>
      <trkpt lat="47.238" lon="-2.27971">
        <ele>-2</ele>
        <time>2021-05-23T07:26:46.982Z</time>
      </trkpt>
      <trkpt lat="47.23801" lon="-2.27975">
        <ele>-2</ele>
        <time>2021-05-23T07:26:47.983Z</time>
      </trkpt>
      <trkpt lat="47.23801" lon="-2.27978">
        <ele>-2</ele>
        <time>2021-05-23T07:26:48.983Z</time>
      </trkpt>
      <trkpt lat="47.23802" lon="-2.27981">
        <ele>-2</ele>
        <time>2021-05-23T07:26:49.983Z</time>
      </trkpt>
      <trkpt lat="47.23802" lon="-2.27985">
        <ele>-2</ele>
        <time>2021-05-23T07:26:50.982Z</time>
      </trkpt>
      <trkpt lat="47.23802" lon="-2.27988">
        <ele>-1</ele>
        <time>2021-05-23T07:26:51.982Z</time>
      </trkpt>
      <trkpt lat="47.23802" lon="-2.27992">
        <ele>-1</ele>
        <time>2021-05-23T07:26:52.982Z</time>
      </trkpt>
      <trkpt lat="47.23803" lon="-2.27995">
        <ele>5.7</ele>
        <time>2021-05-23T07:26:53.983Z</time>
      </trkpt>
      <trkpt lat="47.23803" lon="-2.27999">
        <ele>5.8</ele>
        <time>2021-05-23T07:26:54.982Z</time>
      </trkpt>
      <trkpt lat="47.23804" lon="-2.28002">
        <ele>5.9</ele>
        <time>2021-05-23T07:26:55.983Z</time>
      </trkpt>
      <trkpt lat="47.23804" lon="-2.28005">
        <ele>6</ele>
        <time>2021-05-23T07:26:56.983Z</time>
      </trkpt>
      <trkpt lat="47.23804" lon="-2.28008">
        <ele>6.1</ele>
        <time>2021-05-23T07:26:57.983Z</time>
      </trkpt>
      <trkpt lat="47.23805" lon="-2.28012">
        <ele>6.2</ele>
        <time>2021-05-23T07:26:58.983Z</time>
      </trkpt>
      <trkpt lat="47.23805" lon="-2.28015">
        <ele>6.3</ele>
        <time>2021-05-23T07:26:59.983Z</time>
      </trkpt>
      <trkpt lat="47.23805" lon="-2.28018">
        <ele>6.4</ele>
        <time>2021-05-23T07:27:00.983Z</time>
      </trkpt>
      <trkpt lat="47.23805" lon="-2.28021">
        <ele>6.5</ele>
        <time>2021-05-23T07:27:01.982Z</time>
      </trkpt>
      <trkpt lat="47.23805" lon="-2.28025">
        <ele>6.6</ele>
        <time>2021-05-23T07:27:02.983Z</time>
      </trkpt>
      <trkpt lat="47.23805" lon="-2.28029">
        <ele>6.7</ele>
        <time>2021-05-23T07:27:03.983Z</time>
      </trkpt>
      <trkpt lat="47.23805" lon="-2.28033">
        <ele>6.7</ele>
        <time>2021-05-23T07:27:04.983Z</time>
      </trkpt>
      <trkpt lat="47.23805" lon="-2.28036">
        <ele>6.8</ele>
        <time>2021-05-23T07:27:05.982Z</time>
      </trkpt>
      <trkpt lat="47.23805" lon="-2.28038">
        <ele>6.9</ele>
        <time>2021-05-23T07:27:06.983Z</time>
      </trkpt>
      <trkpt lat="47.23805" lon="-2.28041">
        <ele>-1</ele>
        <time>2021-05-23T07:27:07.983Z</time>
      </trkpt>
      <trkpt lat="47.23806" lon="-2.28043">
        <ele>7.1</ele>
        <time>2021-05-23T07:27:08.983Z</time>
      </trkpt>
      <trkpt lat="47.23807" lon="-2.28045">
        <ele>7.1</ele>
        <time>2021-05-23T07:27:09.983Z</time>
      </trkpt>
      <trkpt lat="47.23808" lon="-2.28046">
        <ele>7.2</ele>
        <time>2021-05-23T07:27:10.983Z</time>
      </trkpt>
      <trkpt lat="47.23809" lon="-2.28046">
        <ele>7.2</ele>
        <time>2021-05-23T07:27:11.983Z</time>
      </trkpt>
      <trkpt lat="47.2381" lon="-2.28047">
        <ele>7.3</ele>
        <time>2021-05-23T07:27:12.983Z</time>
      </trkpt>
      <trkpt lat="47.2381" lon="-2.28049">
        <ele>7.3</ele>
        <time>2021-05-23T07:27:13.983Z</time>
      </trkpt>
      <trkpt lat="47.2381" lon="-2.28049">
        <ele>7.3</ele>
        <time>2021-05-23T07:27:14.983Z</time>
      </trkpt>
      <trkpt lat="47.23811" lon="-2.2805">
        <ele>1</ele>
        <time>2021-05-23T07:27:15.983Z</time>
      </trkpt>
      <trkpt lat="47.23811" lon="-2.2805">
        <ele>1</ele>
        <time>2021-05-23T07:27:16.982Z</time>
      </trkpt>
      <trkpt lat="47.23812" lon="-2.28051">
        <ele>1</ele>
        <time>2021-05-23T07:27:17.983Z</time>
      </trkpt>
      <trkpt lat="47.23812" lon="-2.28051">
        <ele>7.4</ele>
        <time>2021-05-23T07:27:18.982Z</time>
      </trkpt>
      <trkpt lat="47.23813" lon="-2.28051">
        <ele>7.4</ele>
        <time>2021-05-23T07:27:19.983Z</time>
      </trkpt>
      <trkpt lat="47.23813" lon="-2.28051">
        <ele>7.4</ele>
        <time>2021-05-23T07:27:20.983Z</time>
      </trkpt>
      <trkpt lat="47.23814" lon="-2.28051">
        <ele>7.5</ele>
        <time>2021-05-23T07:27:21.982Z</time>
      </trkpt>
      <trkpt lat="47.23814" lon="-2.28052">
        <ele>7.5</ele>
        <time>2021-05-23T07:27:22.982Z</time>
      </trkpt>
      <trkpt lat="47.23814" lon="-2.28052">
        <ele>7.5</ele>
        <time>2021-05-23T07:27:23.983Z</time>
      </trkpt>
      <trkpt lat="47.23814" lon="-2.28053">
        <ele>1</ele>
        <time>2021-05-23T07:27:24.983Z</time>
      </trkpt>
      <trkpt lat="47.23815" lon="-2.28054">
        <ele>1</ele>
        <time>2021-05-23T07:27:25.983Z</time>
      </trkpt>
      <trkpt lat="47.23815" lon="-2.28055">
        <ele>2</ele>
        <time>2021-05-23T07:27:26.983Z</time>
      </trkpt>
      <trkpt lat="47.23815" lon="-2.28057">
        <ele>2</ele>
        <time>2021-05-23T07:27:27.983Z</time>
      </trkpt>
      <trkpt lat="47.23816" lon="-2.2806">
        <ele>3</ele>
        <time>2021-05-23T07:27:28.982Z</time>
      </trkpt>
      <trkpt lat="47.23816" lon="-2.28063">
        <ele>3</ele>
        <time>2021-05-23T07:27:29.983Z</time>
      </trkpt>
      <trkpt lat="47.23816" lon="-2.28065">
        <ele>3</ele>
        <time>2021-05-23T07:27:30.982Z</time>
      </trkpt>
      <trkpt lat="47.23817" lon="-2.28068">
        <ele>3</ele>
        <time>2021-05-23T07:27:31.983Z</time>
      </trkpt>
      <trkpt lat="47.23818" lon="-2.28071">
        <ele>3</ele>
        <time>2021-05-23T07:27:32.983Z</time>
      </trkpt>
      <trkpt lat="47.23819" lon="-2.28074">
        <ele>3</ele>
        <time>2021-05-23T07:27:33.983Z</time>
      </trkpt>
      <trkpt lat="47.2382" lon="-2.28077">
        <ele>3</ele>
        <time>2021-05-23T07:27:34.983Z</time>
      </trkpt>
      <trkpt lat="47.23821" lon="-2.2808">
        <ele>3</ele>
        <time>2021-05-23T07:27:35.983Z</time>
      </trkpt>
      <trkpt lat="47.23822" lon="-2.28082">
        <ele>3</ele>
        <time>2021-05-23T07:27:36.983Z</time>
      </trkpt>
      <trkpt lat="47.23823" lon="-2.28086">
        <ele>2</ele>
        <time>2021-05-23T07:27:37.983Z</time>
      </trkpt>
      <trkpt lat="47.23824" lon="-2.28088">
        <ele>2</ele>
        <time>2021-05-23T07:27:38.983Z</time>
      </trkpt>
      <trkpt lat="47.23825" lon="-2.28091">
        <ele>2</ele>
        <time>2021-05-23T07:27:39.983Z</time>
      </trkpt>
      <trkpt lat="47.23826" lon="-2.28094">
        <ele>2</ele>
        <time>2021-05-23T07:27:40.982Z</time>
      </trkpt>
      <trkpt lat="47.23827" lon="-2.28097">
        <ele>2</ele>
        <time>2021-05-23T07:27:41.983Z</time>
      </trkpt>
      <trkpt lat="47.23827" lon="-2.281">
        <ele>2</ele>
        <time>2021-05-23T07:27:42.983Z</time>
      </trkpt>
      <trkpt lat="47.23828" lon="-2.28103">
        <ele>2</ele>
        <time>2021-05-23T07:27:43.983Z</time>
      </trkpt>
      <trkpt lat="47.23828" lon="-2.28106">
        <ele>2</ele>
        <time>2021-05-23T07:27:44.983Z</time>
      </trkpt>
      <trkpt lat="47.23828" lon="-2.28107">
        <ele>2</ele>
        <time>2021-05-23T07:27:45.983Z</time>
      </trkpt>
      <trkpt lat="47.23828" lon="-2.28108">
        <ele>3</ele>
        <time>2021-05-23T07:27:46.983Z</time>
      </trkpt>
      <trkpt lat="47.23828" lon="-2.28108">
        <ele>3</ele>
        <time>2021-05-23T07:27:47.983Z</time>
      </trkpt>
      <trkpt lat="47.23828" lon="-2.28107">
        <ele>3</ele>
        <time>2021-05-23T07:27:48.983Z</time>
      </trkpt>
      <trkpt lat="47.23828" lon="-2.28107">
        <ele>3</ele>
        <time>2021-05-23T07:27:49.983Z</time>
      </trkpt>
      <trkpt lat="47.23828" lon="-2.28107">
        <ele>3</ele>
        <time>2021-05-23T07:27:50.983Z</time>
      </trkpt>
      <trkpt lat="47.23828" lon="-2.28107">
        <ele>3</ele>
        <time>2021-05-23T07:27:51.983Z</time>
      </trkpt>
      <trkpt lat="47.23828" lon="-2.28107">
        <ele>3</ele>
        <time>2021-05-23T07:27:52.983Z</time>
      </trkpt>
      <trkpt lat="47.23828" lon="-2.28107">
        <ele>3</ele>
        <time>2021-05-23T07:27:53.983Z</time>
      </trkpt>
      <trkpt lat="47.23828" lon="-2.28107">
        <ele>3</ele>
        <time>2021-05-23T07:27:54.983Z</time>
      </trkpt>
      <trkpt lat="47.23828" lon="-2.28107">
        <ele>3</ele>
        <time>2021-05-23T07:27:55.983Z</time>
      </trkpt>
      <trkpt lat="47.23828" lon="-2.28107">
        <ele>3</ele>
        <time>2021-05-23T07:27:56.983Z</time>
      </trkpt>
      <trkpt lat="47.23828" lon="-2.28107">
        <ele>3</ele>
        <time>2021-05-23T07:27:57.983Z</time>
      </trkpt>
      <trkpt lat="47.23828" lon="-2.28107">
        <ele>3</ele>
        <time>2021-05-23T07:27:58.982Z</time>
      </trkpt>
      <trkpt lat="47.23828" lon="-2.28107">
        <ele>3</ele>
        <time>2021-05-23T07:27:59.983Z</time>
      </trkpt>
      <trkpt lat="47.23828" lon="-2.28107">
        <ele>4</ele>
        <time>2021-05-23T07:28:00.982Z</time>
      </trkpt>
      <trkpt lat="47.23828" lon="-2.28107">
        <ele>4</ele>
        <time>2021-05-23T07:28:01.983Z</time>
      </trkpt>
      <trkpt lat="47.23828" lon="-2.28107">
        <ele>5</ele>
        <time>2021-05-23T07:28:02.983Z</time>
      </trkpt>
      <trkpt lat="47.23828" lon="-2.28107">
        <ele>5</ele>
        <time>2021-05-23T07:28:03.983Z</time>
      </trkpt>
      <trkpt lat="47.23828" lon="-2.28107">
        <ele>5</ele>
        <time>2021-05-23T07:28:04.983Z</time>
      </trkpt>
      <trkpt lat="47.23828" lon="-2.28107">
        <ele>6</ele>
        <time>2021-05-23T07:28:05.982Z</time>
      </trkpt>
      <trkpt lat="47.23828" lon="-2.28107">
        <ele>6</ele>
        <time>2021-05-23T07:28:06.982Z</time>
      </trkpt>
      <trkpt lat="47.23828" lon="-2.28107">
        <ele>6</ele>
        <time>2021-05-23T07:28:07.983Z</time>
      </trkpt>
      <trkpt lat="47.23828" lon="-2.28107">
        <ele>6</ele>
        <time>2021-05-23T07:28:08.983Z</time>
      </trkpt>
      <trkpt lat="47.23828" lon="-2.28107">
        <ele>6</ele>
        <time>2021-05-23T07:28:09.983Z</time>
      </trkpt>
      <trkpt lat="47.23828" lon="-2.28107">
        <ele>6</ele>
        <time>2021-05-23T07:28:10.982Z</time>
      </trkpt>
      <trkpt lat="47.23828" lon="-2.28107">
        <ele>7</ele>
        <time>2021-05-23T07:28:11.983Z</time>
      </trkpt>
      <trkpt lat="47.23828" lon="-2.28109">
        <ele>7</ele>
        <time>2021-05-23T07:28:12.983Z</time>
      </trkpt>
      <trkpt lat="47.23827" lon="-2.28112">
        <ele>7</ele>
        <time>2021-05-23T07:28:13.983Z</time>
      </trkpt>
      <trkpt lat="47.23827" lon="-2.28113">
        <ele>7</ele>
        <time>2021-05-23T07:28:14.983Z</time>
      </trkpt>
      <trkpt lat="47.23827" lon="-2.28115">
        <ele>7</ele>
        <time>2021-05-23T07:28:15.983Z</time>
      </trkpt>
      <trkpt lat="47.23826" lon="-2.28117">
        <ele>7</ele>
        <time>2021-05-23T07:28:16.983Z</time>
      </trkpt>
      <trkpt lat="47.23825" lon="-2.2812">
        <ele>7</ele>
        <time>2021-05-23T07:28:17.983Z</time>
      </trkpt>
      <trkpt lat="47.23825" lon="-2.28122">
        <ele>7</ele>
        <time>2021-05-23T07:28:18.983Z</time>
      </trkpt>
      <trkpt lat="47.23824" lon="-2.28125">
        <ele>7</ele>
        <time>2021-05-23T07:28:19.983Z</time>
      </trkpt>
      <trkpt lat="47.23824" lon="-2.28128">
        <ele>7</ele>
        <time>2021-05-23T07:28:20.983Z</time>
      </trkpt>
      <trkpt lat="47.23824" lon="-2.2813">
        <ele>7</ele>
        <time>2021-05-23T07:28:21.983Z</time>
      </trkpt>
      <trkpt lat="47.23824" lon="-2.28132">
        <ele>7</ele>
        <time>2021-05-23T07:28:22.982Z</time>
      </trkpt>
      <trkpt lat="47.23823" lon="-2.28135">
        <ele>7</ele>
        <time>2021-05-23T07:28:23.982Z</time>
      </trkpt>
      <trkpt lat="47.23823" lon="-2.28137">
        <ele>7</ele>
        <time>2021-05-23T07:28:24.982Z</time>
      </trkpt>
      <trkpt lat="47.23823" lon="-2.28139">
        <ele>7</ele>
        <time>2021-05-23T07:28:25.982Z</time>
      </trkpt>
      <trkpt lat="47.23823" lon="-2.28141">
        <ele>7</ele>
        <time>2021-05-23T07:28:26.983Z</time>
      </trkpt>
      <trkpt lat="47.23822" lon="-2.28144">
        <ele>7</ele>
        <time>2021-05-23T07:28:27.983Z</time>
      </trkpt>
      <trkpt lat="47.23822" lon="-2.28146">
        <ele>8</ele>
        <time>2021-05-23T07:28:28.982Z</time>
      </trkpt>
      <trkpt lat="47.23822" lon="-2.28148">
        <ele>8</ele>
        <time>2021-05-23T07:28:29.982Z</time>
      </trkpt>
      <trkpt lat="47.23821" lon="-2.2815">
        <ele>8</ele>
        <time>2021-05-23T07:28:30.983Z</time>
      </trkpt>
      <trkpt lat="47.23821" lon="-2.28151">
        <ele>8</ele>
        <time>2021-05-23T07:28:31.982Z</time>
      </trkpt>
      <trkpt lat="47.2382" lon="-2.28154">
        <ele>8</ele>
        <time>2021-05-23T07:28:32.982Z</time>
      </trkpt>
      <trkpt lat="47.2382" lon="-2.28157">
        <ele>8</ele>
        <time>2021-05-23T07:28:33.983Z</time>
      </trkpt>
      <trkpt lat="47.2382" lon="-2.2816">
        <ele>8</ele>
        <time>2021-05-23T07:28:34.983Z</time>
      </trkpt>
      <trkpt lat="47.2382" lon="-2.28162">
        <ele>8</ele>
        <time>2021-05-23T07:28:35.983Z</time>
      </trkpt>
      <trkpt lat="47.2382" lon="-2.28165">
        <ele>8</ele>
        <time>2021-05-23T07:28:36.982Z</time>
      </trkpt>
      <trkpt lat="47.2382" lon="-2.28167">
        <ele>8</ele>
        <time>2021-05-23T07:28:37.983Z</time>
      </trkpt>
      <trkpt lat="47.23819" lon="-2.2817">
        <ele>8</ele>
        <time>2021-05-23T07:28:38.983Z</time>
      </trkpt>
      <trkpt lat="47.23819" lon="-2.28172">
        <ele>7</ele>
        <time>2021-05-23T07:28:39.982Z</time>
      </trkpt>
      <trkpt lat="47.2382" lon="-2.28175">
        <ele>7</ele>
        <time>2021-05-23T07:28:40.982Z</time>
      </trkpt>
      <trkpt lat="47.2382" lon="-2.28179">
        <ele>7</ele>
        <time>2021-05-23T07:28:41.983Z</time>
      </trkpt>
      <trkpt lat="47.2382" lon="-2.28182">
        <ele>7</ele>
        <time>2021-05-23T07:28:42.982Z</time>
      </trkpt>
      <trkpt lat="47.2382" lon="-2.28185">
        <ele>7</ele>
        <time>2021-05-23T07:28:43.982Z</time>
      </trkpt>
      <trkpt lat="47.2382" lon="-2.28188">
        <ele>7</ele>
        <time>2021-05-23T07:28:44.983Z</time>
      </trkpt>
      <trkpt lat="47.2382" lon="-2.28191">
        <ele>7</ele>
        <time>2021-05-23T07:28:45.983Z</time>
      </trkpt>
      <trkpt lat="47.2382" lon="-2.28194">
        <ele>7</ele>
        <time>2021-05-23T07:28:46.982Z</time>
      </trkpt>
      <trkpt lat="47.2382" lon="-2.28197">
        <ele>7</ele>
        <time>2021-05-23T07:28:47.983Z</time>
      </trkpt>
      <trkpt lat="47.2382" lon="-2.282">
        <ele>7</ele>
        <time>2021-05-23T07:28:48.983Z</time>
      </trkpt>
      <trkpt lat="47.23819" lon="-2.28203">
        <ele>8</ele>
        <time>2021-05-23T07:28:49.983Z</time>
      </trkpt>
      <trkpt lat="47.23819" lon="-2.28206">
        <ele>8</ele>
        <time>2021-05-23T07:28:50.983Z</time>
      </trkpt>
      <trkpt lat="47.23819" lon="-2.28209">
        <ele>8</ele>
        <time>2021-05-23T07:28:51.982Z</time>
      </trkpt>
      <trkpt lat="47.23819" lon="-2.28212">
        <ele>8</ele>
        <time>2021-05-23T07:28:52.983Z</time>
      </trkpt>
      <trkpt lat="47.23819" lon="-2.28215">
        <ele>8</ele>
        <time>2021-05-23T07:28:53.983Z</time>
      </trkpt>
      <trkpt lat="47.23819" lon="-2.28218">
        <ele>8</ele>
        <time>2021-05-23T07:28:54.982Z</time>
      </trkpt>
      <trkpt lat="47.2382" lon="-2.28221">
        <ele>7</ele>
        <time>2021-05-23T07:28:55.982Z</time>
      </trkpt>
      <trkpt lat="47.23821" lon="-2.28225">
        <ele>7</ele>
        <time>2021-05-23T07:28:56.982Z</time>
      </trkpt>
      <trkpt lat="47.23821" lon="-2.28228">
        <ele>7</ele>
        <time>2021-05-23T07:28:57.983Z</time>
      </trkpt>
      <trkpt lat="47.23822" lon="-2.28231">
        <ele>7</ele>
        <time>2021-05-23T07:28:58.983Z</time>
      </trkpt>
      <trkpt lat="47.23823" lon="-2.28234">
        <ele>7</ele>
        <time>2021-05-23T07:28:59.982Z</time>
      </trkpt>
      <trkpt lat="47.23823" lon="-2.28237">
        <ele>7</ele>
        <time>2021-05-23T07:29:00.983Z</time>
      </trkpt>
      <trkpt lat="47.23824" lon="-2.28241">
        <ele>7</ele>
        <time>2021-05-23T07:29:01.983Z</time>
      </trkpt>
      <trkpt lat="47.23825" lon="-2.28245">
        <ele>6</ele>
        <time>2021-05-23T07:29:02.983Z</time>
      </trkpt>
      <trkpt lat="47.23825" lon="-2.28248">
        <ele>6</ele>
        <time>2021-05-23T07:29:03.983Z</time>
      </trkpt>
      <trkpt lat="47.23826" lon="-2.28252">
        <ele>7</ele>
        <time>2021-05-23T07:29:04.983Z</time>
      </trkpt>
      <trkpt lat="47.23826" lon="-2.28255">
        <ele>7</ele>
        <time>2021-05-23T07:29:05.982Z</time>
      </trkpt>
      <trkpt lat="47.23826" lon="-2.28259">
        <ele>7</ele>
        <time>2021-05-23T07:29:06.982Z</time>
      </trkpt>
      <trkpt lat="47.23825" lon="-2.28262">
        <ele>7</ele>
        <time>2021-05-23T07:29:07.982Z</time>
      </trkpt>
      <trkpt lat="47.23825" lon="-2.28266">
        <ele>7</ele>
        <time>2021-05-23T07:29:08.982Z</time>
      </trkpt>
      <trkpt lat="47.23825" lon="-2.28269">
        <ele>7</ele>
        <time>2021-05-23T07:29:09.982Z</time>
      </trkpt>
      <trkpt lat="47.23824" lon="-2.28273">
        <ele>7</ele>
        <time>2021-05-23T07:29:10.983Z</time>
      </trkpt>
      <trkpt lat="47.23824" lon="-2.28276">
        <ele>7</ele>
        <time>2021-05-23T07:29:11.983Z</time>
      </trkpt>
      <trkpt lat="47.23822" lon="-2.28279">
        <ele>7</ele>
        <time>2021-05-23T07:29:12.982Z</time>
      </trkpt>
      <trkpt lat="47.23821" lon="-2.28281">
        <ele>7</ele>
        <time>2021-05-23T07:29:13.983Z</time>
      </trkpt>
      <trkpt lat="47.2382" lon="-2.28284">
        <ele>7</ele>
        <time>2021-05-23T07:29:14.982Z</time>
      </trkpt>
      <trkpt lat="47.23818" lon="-2.28286">
        <ele>7</ele>
        <time>2021-05-23T07:29:15.983Z</time>
      </trkpt>
      <trkpt lat="47.23817" lon="-2.28287">
        <ele>7</ele>
        <time>2021-05-23T07:29:16.983Z</time>
      </trkpt>
      <trkpt lat="47.23815" lon="-2.2829">
        <ele>7</ele>
        <time>2021-05-23T07:29:17.982Z</time>
      </trkpt>
      <trkpt lat="47.23814" lon="-2.28292">
        <ele>7</ele>
        <time>2021-05-23T07:29:18.982Z</time>
      </trkpt>
      <trkpt lat="47.23813" lon="-2.28295">
        <ele>7</ele>
        <time>2021-05-23T07:29:19.982Z</time>
      </trkpt>
      <trkpt lat="47.23812" lon="-2.28297">
        <ele>7</ele>
        <time>2021-05-23T07:29:20.982Z</time>
      </trkpt>
      <trkpt lat="47.23811" lon="-2.283">
        <ele>7</ele>
        <time>2021-05-23T07:29:21.982Z</time>
      </trkpt>
      <trkpt lat="47.2381" lon="-2.28303">
        <ele>7</ele>
        <time>2021-05-23T07:29:22.982Z</time>
      </trkpt>
      <trkpt lat="47.2381" lon="-2.28306">
        <ele>7</ele>
        <time>2021-05-23T07:29:23.982Z</time>
      </trkpt>
      <trkpt lat="47.23809" lon="-2.28309">
        <ele>6</ele>
        <time>2021-05-23T07:29:24.982Z</time>
      </trkpt>
      <trkpt lat="47.23809" lon="-2.28312">
        <ele>6</ele>
        <time>2021-05-23T07:29:25.982Z</time>
      </trkpt>
      <trkpt lat="47.23808" lon="-2.28315">
        <ele>6</ele>
        <time>2021-05-23T07:29:26.982Z</time>
      </trkpt>
      <trkpt lat="47.23807" lon="-2.28319">
        <ele>7</ele>
        <time>2021-05-23T07:29:27.982Z</time>
      </trkpt>
      <trkpt lat="47.23806" lon="-2.28322">
        <ele>7</ele>
        <time>2021-05-23T07:29:28.982Z</time>
      </trkpt>
      <trkpt lat="47.23805" lon="-2.28325">
        <ele>7</ele>
        <time>2021-05-23T07:29:29.982Z</time>
      </trkpt>
      <trkpt lat="47.23803" lon="-2.28328">
        <ele>8</ele>
        <time>2021-05-23T07:29:30.982Z</time>
      </trkpt>
      <trkpt lat="47.23802" lon="-2.28331">
        <ele>8</ele>
        <time>2021-05-23T07:29:31.982Z</time>
      </trkpt>
      <trkpt lat="47.23801" lon="-2.28334">
        <ele>8</ele>
        <time>2021-05-23T07:29:32.982Z</time>
      </trkpt>
      <trkpt lat="47.23799" lon="-2.28337">
        <ele>8</ele>
        <time>2021-05-23T07:29:33.982Z</time>
      </trkpt>
      <trkpt lat="47.23797" lon="-2.28339">
        <ele>8</ele>
        <time>2021-05-23T07:29:34.982Z</time>
      </trkpt>
      <trkpt lat="47.23796" lon="-2.28341">
        <ele>8</ele>
        <time>2021-05-23T07:29:35.982Z</time>
      </trkpt>
      <trkpt lat="47.23794" lon="-2.28344">
        <ele>8</ele>
        <time>2021-05-23T07:29:36.982Z</time>
      </trkpt>
      <trkpt lat="47.23792" lon="-2.28347">
        <ele>8</ele>
        <time>2021-05-23T07:29:37.983Z</time>
      </trkpt>
      <trkpt lat="47.23791" lon="-2.28349">
        <ele>9</ele>
        <time>2021-05-23T07:29:38.983Z</time>
      </trkpt>
      <trkpt lat="47.23789" lon="-2.28351">
        <ele>9</ele>
        <time>2021-05-23T07:29:39.982Z</time>
      </trkpt>
      <trkpt lat="47.23788" lon="-2.28354">
        <ele>9</ele>
        <time>2021-05-23T07:29:40.982Z</time>
      </trkpt>
      <trkpt lat="47.23786" lon="-2.28356">
        <ele>9</ele>
        <time>2021-05-23T07:29:41.982Z</time>
      </trkpt>
      <trkpt lat="47.23785" lon="-2.28359">
        <ele>9</ele>
        <time>2021-05-23T07:29:42.983Z</time>
      </trkpt>
      <trkpt lat="47.23783" lon="-2.28361">
        <ele>9</ele>
        <time>2021-05-23T07:29:43.983Z</time>
      </trkpt>
      <trkpt lat="47.23782" lon="-2.28364">
        <ele>9</ele>
        <time>2021-05-23T07:29:44.983Z</time>
      </trkpt>
      <trkpt lat="47.2378" lon="-2.28366">
        <ele>10</ele>
        <time>2021-05-23T07:29:45.983Z</time>
      </trkpt>
      <trkpt lat="47.23778" lon="-2.28368">
        <ele>10</ele>
        <time>2021-05-23T07:29:46.983Z</time>
      </trkpt>
      <trkpt lat="47.23775" lon="-2.2837">
        <ele>10</ele>
        <time>2021-05-23T07:29:47.983Z</time>
      </trkpt>
      <trkpt lat="47.23773" lon="-2.28371">
        <ele>11</ele>
        <time>2021-05-23T07:29:48.983Z</time>
      </trkpt>
      <trkpt lat="47.23771" lon="-2.28373">
        <ele>11</ele>
        <time>2021-05-23T07:29:49.982Z</time>
      </trkpt>
      <trkpt lat="47.23769" lon="-2.28375">
        <ele>11</ele>
        <time>2021-05-23T07:29:50.983Z</time>
      </trkpt>
      <trkpt lat="47.23768" lon="-2.28378">
        <ele>11</ele>
        <time>2021-05-23T07:29:51.983Z</time>
      </trkpt>
      <trkpt lat="47.23767" lon="-2.28381">
        <ele>11</ele>
        <time>2021-05-23T07:29:52.983Z</time>
      </trkpt>
      <trkpt lat="47.23767" lon="-2.28384">
        <ele>11</ele>
        <time>2021-05-23T07:29:53.983Z</time>
      </trkpt>
      <trkpt lat="47.23767" lon="-2.28387">
        <ele>11</ele>
        <time>2021-05-23T07:29:54.983Z</time>
      </trkpt>
      <trkpt lat="47.23767" lon="-2.28391">
        <ele>11</ele>
        <time>2021-05-23T07:29:55.983Z</time>
      </trkpt>
      <trkpt lat="47.23768" lon="-2.28394">
        <ele>12</ele>
        <time>2021-05-23T07:29:56.982Z</time>
      </trkpt>
      <trkpt lat="47.23769" lon="-2.28396">
        <ele>12</ele>
        <time>2021-05-23T07:29:57.982Z</time>
      </trkpt>
      <trkpt lat="47.2377" lon="-2.28399">
        <ele>12</ele>
        <time>2021-05-23T07:29:58.982Z</time>
      </trkpt>
      <trkpt lat="47.23771" lon="-2.28401">
        <ele>13</ele>
        <time>2021-05-23T07:29:59.983Z</time>
      </trkpt>
      <trkpt lat="47.23771" lon="-2.28403">
        <ele>13</ele>
        <time>2021-05-23T07:30:00.982Z</time>
      </trkpt>
      <trkpt lat="47.23772" lon="-2.28407">
        <ele>13</ele>
        <time>2021-05-23T07:30:01.983Z</time>
      </trkpt>
      <trkpt lat="47.23772" lon="-2.28409">
        <ele>13</ele>
        <time>2021-05-23T07:30:02.982Z</time>
      </trkpt>
      <trkpt lat="47.23772" lon="-2.28412">
        <ele>13</ele>
        <time>2021-05-23T07:30:03.983Z</time>
      </trkpt>
      <trkpt lat="47.23772" lon="-2.28415">
        <ele>13</ele>
        <time>2021-05-23T07:30:04.982Z</time>
      </trkpt>
      <trkpt lat="47.23772" lon="-2.28418">
        <ele>13</ele>
        <time>2021-05-23T07:30:05.982Z</time>
      </trkpt>
      <trkpt lat="47.23772" lon="-2.2842">
        <ele>13</ele>
        <time>2021-05-23T07:30:06.982Z</time>
      </trkpt>
      <trkpt lat="47.23772" lon="-2.28423">
        <ele>13</ele>
        <time>2021-05-23T07:30:07.982Z</time>
      </trkpt>
      <trkpt lat="47.23772" lon="-2.28426">
        <ele>13</ele>
        <time>2021-05-23T07:30:08.982Z</time>
      </trkpt>
      <trkpt lat="47.23772" lon="-2.28429">
        <ele>13</ele>
        <time>2021-05-23T07:30:09.982Z</time>
      </trkpt>
      <trkpt lat="47.23772" lon="-2.28432">
        <ele>14</ele>
        <time>2021-05-23T07:30:10.982Z</time>
      </trkpt>
      <trkpt lat="47.23771" lon="-2.28436">
        <ele>14</ele>
        <time>2021-05-23T07:30:11.982Z</time>
      </trkpt>
      <trkpt lat="47.23771" lon="-2.28439">
        <ele>14</ele>
        <time>2021-05-23T07:30:12.983Z</time>
      </trkpt>
      <trkpt lat="47.2377" lon="-2.28441">
        <ele>14</ele>
        <time>2021-05-23T07:30:13.983Z</time>
      </trkpt>
      <trkpt lat="47.23769" lon="-2.28443">
        <ele>14</ele>
        <time>2021-05-23T07:30:14.982Z</time>
      </trkpt>
      <trkpt lat="47.23768" lon="-2.28445">
        <ele>14</ele>
        <time>2021-05-23T07:30:15.983Z</time>
      </trkpt>
      <trkpt lat="47.23766" lon="-2.28446">
        <ele>14</ele>
        <time>2021-05-23T07:30:16.983Z</time>
      </trkpt>
      <trkpt lat="47.23764" lon="-2.28448">
        <ele>14</ele>
        <time>2021-05-23T07:30:17.983Z</time>
      </trkpt>
      <trkpt lat="47.23762" lon="-2.28449">
        <ele>14</ele>
        <time>2021-05-23T07:30:18.982Z</time>
      </trkpt>
      <trkpt lat="47.23761" lon="-2.28452">
        <ele>14</ele>
        <time>2021-05-23T07:30:19.983Z</time>
      </trkpt>
      <trkpt lat="47.2376" lon="-2.28454">
        <ele>14</ele>
        <time>2021-05-23T07:30:20.983Z</time>
      </trkpt>
      <trkpt lat="47.23759" lon="-2.28456">
        <ele>14</ele>
        <time>2021-05-23T07:30:21.983Z</time>
      </trkpt>
      <trkpt lat="47.23758" lon="-2.2846">
        <ele>14</ele>
        <time>2021-05-23T07:30:22.982Z</time>
      </trkpt>
      <trkpt lat="47.23758" lon="-2.28463">
        <ele>14</ele>
        <time>2021-05-23T07:30:23.983Z</time>
      </trkpt>
      <trkpt lat="47.23757" lon="-2.28467">
        <ele>14</ele>
        <time>2021-05-23T07:30:24.983Z</time>
      </trkpt>
      <trkpt lat="47.23758" lon="-2.2847">
        <ele>14</ele>
        <time>2021-05-23T07:30:25.983Z</time>
      </trkpt>
      <trkpt lat="47.23758" lon="-2.28473">
        <ele>15</ele>
        <time>2021-05-23T07:30:26.983Z</time>
      </trkpt>
      <trkpt lat="47.2376" lon="-2.28476">
        <ele>15</ele>
        <time>2021-05-23T07:30:27.983Z</time>
      </trkpt>
      <trkpt lat="47.23761" lon="-2.28479">
        <ele>16</ele>
        <time>2021-05-23T07:30:28.983Z</time>
      </trkpt>
      <trkpt lat="47.23762" lon="-2.28482">
        <ele>16</ele>
        <time>2021-05-23T07:30:29.983Z</time>
      </trkpt>
      <trkpt lat="47.23764" lon="-2.28484">
        <ele>16</ele>
        <time>2021-05-23T07:30:30.983Z</time>
      </trkpt>
      <trkpt lat="47.23765" lon="-2.28486">
        <ele>16</ele>
        <time>2021-05-23T07:30:31.983Z</time>
      </trkpt>
      <trkpt lat="47.23766" lon="-2.28489">
        <ele>16</ele>
        <time>2021-05-23T07:30:32.983Z</time>
      </trkpt>
      <trkpt lat="47.23767" lon="-2.28492">
        <ele>16</ele>
        <time>2021-05-23T07:30:33.982Z</time>
      </trkpt>
      <trkpt lat="47.23769" lon="-2.28495">
        <ele>16</ele>
        <time>2021-05-23T07:30:34.983Z</time>
      </trkpt>
      <trkpt lat="47.2377" lon="-2.28498">
        <ele>16</ele>
        <time>2021-05-23T07:30:35.983Z</time>
      </trkpt>
      <trkpt lat="47.23771" lon="-2.285">
        <ele>16</ele>
        <time>2021-05-23T07:30:36.982Z</time>
      </trkpt>
      <trkpt lat="47.23774" lon="-2.28504">
        <ele>16</ele>
        <time>2021-05-23T07:30:37.983Z</time>
      </trkpt>
      <trkpt lat="47.23776" lon="-2.28507">
        <ele>15</ele>
        <time>2021-05-23T07:30:38.983Z</time>
      </trkpt>
      <trkpt lat="47.23778" lon="-2.28509">
        <ele>15</ele>
        <time>2021-05-23T07:30:39.983Z</time>
      </trkpt>
      <trkpt lat="47.2378" lon="-2.28511">
        <ele>14</ele>
        <time>2021-05-23T07:30:40.983Z</time>
      </trkpt>
      <trkpt lat="47.23783" lon="-2.28512">
        <ele>14</ele>
        <time>2021-05-23T07:30:41.983Z</time>
      </trkpt>
      <trkpt lat="47.23785" lon="-2.28514">
        <ele>13</ele>
        <time>2021-05-23T07:30:42.983Z</time>
      </trkpt>
      <trkpt lat="47.23786" lon="-2.28518">
        <ele>13</ele>
        <time>2021-05-23T07:30:43.983Z</time>
      </trkpt>
      <trkpt lat="47.23786" lon="-2.28521">
        <ele>13</ele>
        <time>2021-05-23T07:30:44.983Z</time>
      </trkpt>
      <trkpt lat="47.23787" lon="-2.28524">
        <ele>13</ele>
        <time>2021-05-23T07:30:45.982Z</time>
      </trkpt>
      <trkpt lat="47.23788" lon="-2.28528">
        <ele>12</ele>
        <time>2021-05-23T07:30:46.982Z</time>
      </trkpt>
      <trkpt lat="47.23788" lon="-2.28531">
        <ele>12</ele>
        <time>2021-05-23T07:30:47.982Z</time>
      </trkpt>
      <trkpt lat="47.23789" lon="-2.28533">
        <ele>11</ele>
        <time>2021-05-23T07:30:48.982Z</time>
      </trkpt>
      <trkpt lat="47.23789" lon="-2.28536">
        <ele>11</ele>
        <time>2021-05-23T07:30:49.983Z</time>
      </trkpt>
      <trkpt lat="47.23789" lon="-2.28539">
        <ele>11</ele>
        <time>2021-05-23T07:30:50.983Z</time>
      </trkpt>
      <trkpt lat="47.23788" lon="-2.28543">
        <ele>11</ele>
        <time>2021-05-23T07:30:51.982Z</time>
      </trkpt>
      <trkpt lat="47.23788" lon="-2.28547">
        <ele>10</ele>
        <time>2021-05-23T07:30:52.983Z</time>
      </trkpt>
      <trkpt lat="47.23787" lon="-2.2855">
        <ele>10</ele>
        <time>2021-05-23T07:30:53.983Z</time>
      </trkpt>
      <trkpt lat="47.23788" lon="-2.28554">
        <ele>10</ele>
        <time>2021-05-23T07:30:54.983Z</time>
      </trkpt>
      <trkpt lat="47.23787" lon="-2.28558">
        <ele>10</ele>
        <time>2021-05-23T07:30:55.983Z</time>
      </trkpt>
      <trkpt lat="47.23788" lon="-2.28562">
        <ele>10</ele>
        <time>2021-05-23T07:30:56.983Z</time>
      </trkpt>
      <trkpt lat="47.23788" lon="-2.28565">
        <ele>10</ele>
        <time>2021-05-23T07:30:57.982Z</time>
      </trkpt>
      <trkpt lat="47.23788" lon="-2.28568">
        <ele>10</ele>
        <time>2021-05-23T07:30:58.983Z</time>
      </trkpt>
      <trkpt lat="47.23788" lon="-2.28572">
        <ele>10</ele>
        <time>2021-05-23T07:30:59.983Z</time>
      </trkpt>
      <trkpt lat="47.23787" lon="-2.28575">
        <ele>10</ele>
        <time>2021-05-23T07:31:00.983Z</time>
      </trkpt>
      <trkpt lat="47.23787" lon="-2.28578">
        <ele>9</ele>
        <time>2021-05-23T07:31:01.982Z</time>
      </trkpt>
      <trkpt lat="47.23787" lon="-2.28581">
        <ele>9</ele>
        <time>2021-05-23T07:31:02.983Z</time>
      </trkpt>
      <trkpt lat="47.23788" lon="-2.28585">
        <ele>9</ele>
        <time>2021-05-23T07:31:03.983Z</time>
      </trkpt>
      <trkpt lat="47.23788" lon="-2.28588">
        <ele>9</ele>
        <time>2021-05-23T07:31:04.983Z</time>
      </trkpt>
      <trkpt lat="47.23788" lon="-2.28592">
        <ele>9</ele>
        <time>2021-05-23T07:31:05.983Z</time>
      </trkpt>
      <trkpt lat="47.23789" lon="-2.28595">
        <ele>9</ele>
        <time>2021-05-23T07:31:06.983Z</time>
      </trkpt>
      <trkpt lat="47.2379" lon="-2.28598">
        <ele>9</ele>
        <time>2021-05-23T07:31:07.982Z</time>
      </trkpt>
      <trkpt lat="47.23791" lon="-2.28601">
        <ele>9</ele>
        <time>2021-05-23T07:31:08.983Z</time>
      </trkpt>
      <trkpt lat="47.23792" lon="-2.28603">
        <ele>8</ele>
        <time>2021-05-23T07:31:09.983Z</time>
      </trkpt>
      <trkpt lat="47.23793" lon="-2.28606">
        <ele>8</ele>
        <time>2021-05-23T07:31:10.983Z</time>
      </trkpt>
      <trkpt lat="47.23794" lon="-2.28609">
        <ele>8</ele>
        <time>2021-05-23T07:31:11.982Z</time>
      </trkpt>
      <trkpt lat="47.23795" lon="-2.28612">
        <ele>8</ele>
        <time>2021-05-23T07:31:12.983Z</time>
      </trkpt>
      <trkpt lat="47.23795" lon="-2.28614">
        <ele>8</ele>
        <time>2021-05-23T07:31:13.983Z</time>
      </trkpt>
      <trkpt lat="47.23796" lon="-2.28618">
        <ele>7</ele>
        <time>2021-05-23T07:31:14.983Z</time>
      </trkpt>
      <trkpt lat="47.23796" lon="-2.28621">
        <ele>7</ele>
        <time>2021-05-23T07:31:15.982Z</time>
      </trkpt>
      <trkpt lat="47.23795" lon="-2.28624">
        <ele>7</ele>
        <time>2021-05-23T07:31:16.982Z</time>
      </trkpt>
      <trkpt lat="47.23795" lon="-2.28627">
        <ele>7</ele>
        <time>2021-05-23T07:31:17.983Z</time>
      </trkpt>
      <trkpt lat="47.23793" lon="-2.28629">
        <ele>7</ele>
        <time>2021-05-23T07:31:18.983Z</time>
      </trkpt>
      <trkpt lat="47.23792" lon="-2.28631">
        <ele>7</ele>
        <time>2021-05-23T07:31:19.983Z</time>
      </trkpt>
      <trkpt lat="47.23791" lon="-2.28633">
        <ele>7</ele>
        <time>2021-05-23T07:31:20.982Z</time>
      </trkpt>
      <trkpt lat="47.2379" lon="-2.28635">
        <ele>7</ele>
        <time>2021-05-23T07:31:21.983Z</time>
      </trkpt>
      <trkpt lat="47.23788" lon="-2.28637">
        <ele>7</ele>
        <time>2021-05-23T07:31:22.983Z</time>
      </trkpt>
      <trkpt lat="47.23788" lon="-2.28639">
        <ele>7</ele>
        <time>2021-05-23T07:31:23.983Z</time>
      </trkpt>
      <trkpt lat="47.23787" lon="-2.2864">
        <ele>7</ele>
        <time>2021-05-23T07:31:24.983Z</time>
      </trkpt>
      <trkpt lat="47.23786" lon="-2.28641">
        <ele>6</ele>
        <time>2021-05-23T07:31:25.983Z</time>
      </trkpt>
      <trkpt lat="47.23786" lon="-2.28643">
        <ele>6</ele>
        <time>2021-05-23T07:31:26.983Z</time>
      </trkpt>
      <trkpt lat="47.23786" lon="-2.28644">
        <ele>6</ele>
        <time>2021-05-23T07:31:27.983Z</time>
      </trkpt>
      <trkpt lat="47.23785" lon="-2.28647">
        <ele>6</ele>
        <time>2021-05-23T07:31:28.983Z</time>
      </trkpt>
      <trkpt lat="47.23784" lon="-2.2865">
        <ele>6</ele>
        <time>2021-05-23T07:31:29.982Z</time>
      </trkpt>
      <trkpt lat="47.23783" lon="-2.28652">
        <ele>6</ele>
        <time>2021-05-23T07:31:30.983Z</time>
      </trkpt>
      <trkpt lat="47.23782" lon="-2.28655">
        <ele>6</ele>
        <time>2021-05-23T07:31:31.982Z</time>
      </trkpt>
      <trkpt lat="47.23781" lon="-2.28658">
        <ele>6</ele>
        <time>2021-05-23T07:31:32.983Z</time>
      </trkpt>
      <trkpt lat="47.23779" lon="-2.28661">
        <ele>7</ele>
        <time>2021-05-23T07:31:33.983Z</time>
      </trkpt>
      <trkpt lat="47.23778" lon="-2.28664">
        <ele>7</ele>
        <time>2021-05-23T07:31:34.983Z</time>
      </trkpt>
      <trkpt lat="47.23777" lon="-2.28667">
        <ele>8</ele>
        <time>2021-05-23T07:31:35.983Z</time>
      </trkpt>
      <trkpt lat="47.23776" lon="-2.2867">
        <ele>9</ele>
        <time>2021-05-23T07:31:36.982Z</time>
      </trkpt>
      <trkpt lat="47.23775" lon="-2.28673">
        <ele>10</ele>
        <time>2021-05-23T07:31:37.982Z</time>
      </trkpt>
      <trkpt lat="47.23774" lon="-2.28677">
        <ele>10</ele>
        <time>2021-05-23T07:31:38.983Z</time>
      </trkpt>
      <trkpt lat="47.23773" lon="-2.2868">
        <ele>11</ele>
        <time>2021-05-23T07:31:39.983Z</time>
      </trkpt>
      <trkpt lat="47.23772" lon="-2.28684">
        <ele>11</ele>
        <time>2021-05-23T07:31:40.982Z</time>
      </trkpt>
      <trkpt lat="47.23771" lon="-2.28687">
        <ele>11</ele>
        <time>2021-05-23T07:31:41.983Z</time>
      </trkpt>
      <trkpt lat="47.2377" lon="-2.2869">
        <ele>12</ele>
        <time>2021-05-23T07:31:42.983Z</time>
      </trkpt>
      <trkpt lat="47.23768" lon="-2.28694">
        <ele>12</ele>
        <time>2021-05-23T07:31:43.982Z</time>
      </trkpt>
      <trkpt lat="47.23767" lon="-2.28697">
        <ele>12</ele>
        <time>2021-05-23T07:31:44.983Z</time>
      </trkpt>
      <trkpt lat="47.23766" lon="-2.287">
        <ele>12</ele>
        <time>2021-05-23T07:31:45.983Z</time>
      </trkpt>
      <trkpt lat="47.23765" lon="-2.28703">
        <ele>13</ele>
        <time>2021-05-23T07:31:46.983Z</time>
      </trkpt>
      <trkpt lat="47.23764" lon="-2.28705">
        <ele>13</ele>
        <time>2021-05-23T07:31:47.983Z</time>
      </trkpt>
      <trkpt lat="47.23763" lon="-2.28709">
        <ele>14</ele>
        <time>2021-05-23T07:31:48.983Z</time>
      </trkpt>
      <trkpt lat="47.23762" lon="-2.28711">
        <ele>14</ele>
        <time>2021-05-23T07:31:49.983Z</time>
      </trkpt>
      <trkpt lat="47.23762" lon="-2.28714">
        <ele>14</ele>
        <time>2021-05-23T07:31:50.983Z</time>
      </trkpt>
      <trkpt lat="47.23762" lon="-2.28717">
        <ele>14</ele>
        <time>2021-05-23T07:31:51.983Z</time>
      </trkpt>
      <trkpt lat="47.23761" lon="-2.28721">
        <ele>15</ele>
        <time>2021-05-23T07:31:52.983Z</time>
      </trkpt>
      <trkpt lat="47.23761" lon="-2.28724">
        <ele>15</ele>
        <time>2021-05-23T07:31:53.983Z</time>
      </trkpt>
      <trkpt lat="47.23761" lon="-2.28728">
        <ele>15</ele>
        <time>2021-05-23T07:31:54.982Z</time>
      </trkpt>
      <trkpt lat="47.23761" lon="-2.28733">
        <ele>14</ele>
        <time>2021-05-23T07:31:55.983Z</time>
      </trkpt>
      <trkpt lat="47.23761" lon="-2.28737">
        <ele>14</ele>
        <time>2021-05-23T07:31:56.983Z</time>
      </trkpt>
      <trkpt lat="47.23762" lon="-2.28741">
        <ele>14</ele>
        <time>2021-05-23T07:31:57.982Z</time>
      </trkpt>
      <trkpt lat="47.23762" lon="-2.28746">
        <ele>13</ele>
        <time>2021-05-23T07:31:58.983Z</time>
      </trkpt>
      <trkpt lat="47.23763" lon="-2.28749">
        <ele>13</ele>
        <time>2021-05-23T07:31:59.983Z</time>
      </trkpt>
      <trkpt lat="47.23764" lon="-2.28752">
        <ele>13</ele>
        <time>2021-05-23T07:32:00.983Z</time>
      </trkpt>
      <trkpt lat="47.23766" lon="-2.28755">
        <ele>13</ele>
        <time>2021-05-23T07:32:01.983Z</time>
      </trkpt>
      <trkpt lat="47.23767" lon="-2.28759">
        <ele>14</ele>
        <time>2021-05-23T07:32:02.983Z</time>
      </trkpt>
      <trkpt lat="47.23768" lon="-2.28763">
        <ele>14</ele>
        <time>2021-05-23T07:32:03.982Z</time>
      </trkpt>
      <trkpt lat="47.23768" lon="-2.28767">
        <ele>14</ele>
        <time>2021-05-23T07:32:04.983Z</time>
      </trkpt>
      <trkpt lat="47.23768" lon="-2.2877">
        <ele>14</ele>
        <time>2021-05-23T07:32:05.983Z</time>
      </trkpt>
      <trkpt lat="47.23768" lon="-2.28773">
        <ele>14</ele>
        <time>2021-05-23T07:32:06.983Z</time>
      </trkpt>
      <trkpt lat="47.23767" lon="-2.28777">
        <ele>14</ele>
        <time>2021-05-23T07:32:07.983Z</time>
      </trkpt>
      <trkpt lat="47.23767" lon="-2.2878">
        <ele>14</ele>
        <time>2021-05-23T07:32:08.982Z</time>
      </trkpt>
      <trkpt lat="47.23768" lon="-2.28783">
        <ele>14</ele>
        <time>2021-05-23T07:32:09.983Z</time>
      </trkpt>
      <trkpt lat="47.23768" lon="-2.28786">
        <ele>14</ele>
        <time>2021-05-23T07:32:10.983Z</time>
      </trkpt>
      <trkpt lat="47.23769" lon="-2.2879">
        <ele>14</ele>
        <time>2021-05-23T07:32:11.982Z</time>
      </trkpt>
      <trkpt lat="47.23769" lon="-2.28793">
        <ele>13</ele>
        <time>2021-05-23T07:32:12.983Z</time>
      </trkpt>
      <trkpt lat="47.23769" lon="-2.28797">
        <ele>13</ele>
        <time>2021-05-23T07:32:13.983Z</time>
      </trkpt>
      <trkpt lat="47.23769" lon="-2.288">
        <ele>13</ele>
        <time>2021-05-23T07:32:14.983Z</time>
      </trkpt>
      <trkpt lat="47.23769" lon="-2.28803">
        <ele>13</ele>
        <time>2021-05-23T07:32:15.982Z</time>
      </trkpt>
      <trkpt lat="47.23769" lon="-2.28807">
        <ele>13</ele>
        <time>2021-05-23T07:32:16.982Z</time>
      </trkpt>
      <trkpt lat="47.23769" lon="-2.28811">
        <ele>13</ele>
        <time>2021-05-23T07:32:17.983Z</time>
      </trkpt>
      <trkpt lat="47.23769" lon="-2.28814">
        <ele>13</ele>
        <time>2021-05-23T07:32:18.982Z</time>
      </trkpt>
      <trkpt lat="47.23769" lon="-2.28818">
        <ele>13</ele>
        <time>2021-05-23T07:32:19.982Z</time>
      </trkpt>
      <trkpt lat="47.23769" lon="-2.28821">
        <ele>13</ele>
        <time>2021-05-23T07:32:20.983Z</time>
      </trkpt>
      <trkpt lat="47.23769" lon="-2.28824">
        <ele>14</ele>
        <time>2021-05-23T07:32:21.983Z</time>
      </trkpt>
      <trkpt lat="47.23769" lon="-2.28828">
        <ele>13</ele>
        <time>2021-05-23T07:32:22.983Z</time>
      </trkpt>
      <trkpt lat="47.23769" lon="-2.28831">
        <ele>13</ele>
        <time>2021-05-23T07:32:23.983Z</time>
      </trkpt>
      <trkpt lat="47.23769" lon="-2.28834">
        <ele>13</ele>
        <time>2021-05-23T07:32:24.983Z</time>
      </trkpt>
      <trkpt lat="47.2377" lon="-2.28837">
        <ele>13</ele>
        <time>2021-05-23T07:32:25.983Z</time>
      </trkpt>
      <trkpt lat="47.2377" lon="-2.28841">
        <ele>13</ele>
        <time>2021-05-23T07:32:26.982Z</time>
      </trkpt>
      <trkpt lat="47.2377" lon="-2.28844">
        <ele>13</ele>
        <time>2021-05-23T07:32:27.983Z</time>
      </trkpt>
      <trkpt lat="47.23771" lon="-2.28847">
        <ele>13</ele>
        <time>2021-05-23T07:32:28.983Z</time>
      </trkpt>
      <trkpt lat="47.23771" lon="-2.28851">
        <ele>13</ele>
        <time>2021-05-23T07:32:29.982Z</time>
      </trkpt>
      <trkpt lat="47.23772" lon="-2.28854">
        <ele>13</ele>
        <time>2021-05-23T07:32:30.983Z</time>
      </trkpt>
      <trkpt lat="47.23772" lon="-2.28857">
        <ele>14</ele>
        <time>2021-05-23T07:32:31.983Z</time>
      </trkpt>
      <trkpt lat="47.23773" lon="-2.2886">
        <ele>14</ele>
        <time>2021-05-23T07:32:32.982Z</time>
      </trkpt>
      <trkpt lat="47.23774" lon="-2.28863">
        <ele>14</ele>
        <time>2021-05-23T07:32:33.983Z</time>
      </trkpt>
      <trkpt lat="47.23774" lon="-2.28866">
        <ele>14</ele>
        <time>2021-05-23T07:32:34.983Z</time>
      </trkpt>
      <trkpt lat="47.23775" lon="-2.28869">
        <ele>14</ele>
        <time>2021-05-23T07:32:35.983Z</time>
      </trkpt>
      <trkpt lat="47.23775" lon="-2.28873">
        <ele>14</ele>
        <time>2021-05-23T07:32:36.982Z</time>
      </trkpt>
      <trkpt lat="47.23776" lon="-2.28876">
        <ele>14</ele>
        <time>2021-05-23T07:32:37.982Z</time>
      </trkpt>
      <trkpt lat="47.23776" lon="-2.2888">
        <ele>14</ele>
        <time>2021-05-23T07:32:38.982Z</time>
      </trkpt>
      <trkpt lat="47.23776" lon="-2.28883">
        <ele>14</ele>
        <time>2021-05-23T07:32:39.983Z</time>
      </trkpt>
      <trkpt lat="47.23776" lon="-2.28886">
        <ele>14</ele>
        <time>2021-05-23T07:32:40.982Z</time>
      </trkpt>
      <trkpt lat="47.23776" lon="-2.28889">
        <ele>14</ele>
        <time>2021-05-23T07:32:41.983Z</time>
      </trkpt>
      <trkpt lat="47.23776" lon="-2.28893">
        <ele>14</ele>
        <time>2021-05-23T07:32:42.983Z</time>
      </trkpt>
      <trkpt lat="47.23776" lon="-2.28896">
        <ele>13</ele>
        <time>2021-05-23T07:32:43.983Z</time>
      </trkpt>
      <trkpt lat="47.23776" lon="-2.28899">
        <ele>13</ele>
        <time>2021-05-23T07:32:44.983Z</time>
      </trkpt>
      <trkpt lat="47.23777" lon="-2.28902">
        <ele>13</ele>
        <time>2021-05-23T07:32:45.983Z</time>
      </trkpt>
      <trkpt lat="47.23777" lon="-2.28904">
        <ele>13</ele>
        <time>2021-05-23T07:32:46.983Z</time>
      </trkpt>
      <trkpt lat="47.23778" lon="-2.28907">
        <ele>13</ele>
        <time>2021-05-23T07:32:47.983Z</time>
      </trkpt>
      <trkpt lat="47.23779" lon="-2.28909">
        <ele>13</ele>
        <time>2021-05-23T07:32:48.982Z</time>
      </trkpt>
      <trkpt lat="47.23779" lon="-2.2891">
        <ele>13</ele>
        <time>2021-05-23T07:32:49.983Z</time>
      </trkpt>
      <trkpt lat="47.23781" lon="-2.28912">
        <ele>13</ele>
        <time>2021-05-23T07:32:50.983Z</time>
      </trkpt>
      <trkpt lat="47.23782" lon="-2.28913">
        <ele>13</ele>
        <time>2021-05-23T07:32:51.983Z</time>
      </trkpt>
      <trkpt lat="47.23784" lon="-2.28914">
        <ele>14</ele>
        <time>2021-05-23T07:32:52.982Z</time>
      </trkpt>
      <trkpt lat="47.23787" lon="-2.28913">
        <ele>14</ele>
        <time>2021-05-23T07:32:53.983Z</time>
      </trkpt>
      <trkpt lat="47.23789" lon="-2.28913">
        <ele>14</ele>
        <time>2021-05-23T07:32:54.982Z</time>
      </trkpt>
      <trkpt lat="47.23792" lon="-2.28913">
        <ele>14</ele>
        <time>2021-05-23T07:32:55.983Z</time>
      </trkpt>
      <trkpt lat="47.23795" lon="-2.28913">
        <ele>14</ele>
        <time>2021-05-23T07:32:56.983Z</time>
      </trkpt>
      <trkpt lat="47.23797" lon="-2.28913">
        <ele>15</ele>
        <time>2021-05-23T07:32:57.983Z</time>
      </trkpt>
      <trkpt lat="47.238" lon="-2.28913">
        <ele>15</ele>
        <time>2021-05-23T07:32:58.983Z</time>
      </trkpt>
      <trkpt lat="47.23803" lon="-2.28913">
        <ele>15</ele>
        <time>2021-05-23T07:32:59.983Z</time>
      </trkpt>
      <trkpt lat="47.23805" lon="-2.28913">
        <ele>15</ele>
        <time>2021-05-23T07:33:00.982Z</time>
      </trkpt>
      <trkpt lat="47.23807" lon="-2.28913">
        <ele>15</ele>
        <time>2021-05-23T07:33:01.982Z</time>
      </trkpt>
      <trkpt lat="47.23809" lon="-2.28913">
        <ele>14</ele>
        <time>2021-05-23T07:33:02.982Z</time>
      </trkpt>
      <trkpt lat="47.23811" lon="-2.28914">
        <ele>14</ele>
        <time>2021-05-23T07:33:03.982Z</time>
      </trkpt>
      <trkpt lat="47.23813" lon="-2.28915">
        <ele>14</ele>
        <time>2021-05-23T07:33:04.982Z</time>
      </trkpt>
      <trkpt lat="47.23815" lon="-2.28916">
        <ele>14</ele>
        <time>2021-05-23T07:33:05.983Z</time>
      </trkpt>
      <trkpt lat="47.23816" lon="-2.28918">
        <ele>14</ele>
        <time>2021-05-23T07:33:06.982Z</time>
      </trkpt>
      <trkpt lat="47.23817" lon="-2.28921">
        <ele>15</ele>
        <time>2021-05-23T07:33:07.983Z</time>
      </trkpt>
      <trkpt lat="47.23818" lon="-2.28923">
        <ele>15</ele>
        <time>2021-05-23T07:33:08.982Z</time>
      </trkpt>
      <trkpt lat="47.23818" lon="-2.28926">
        <ele>15</ele>
        <time>2021-05-23T07:33:09.982Z</time>
      </trkpt>
      <trkpt lat="47.23818" lon="-2.28929">
        <ele>16</ele>
        <time>2021-05-23T07:33:10.983Z</time>
      </trkpt>
      <trkpt lat="47.23818" lon="-2.28932">
        <ele>16</ele>
        <time>2021-05-23T07:33:11.983Z</time>
      </trkpt>
      <trkpt lat="47.23817" lon="-2.28935">
        <ele>15</ele>
        <time>2021-05-23T07:33:12.983Z</time>
      </trkpt>
      <trkpt lat="47.23817" lon="-2.28938">
        <ele>15</ele>
        <time>2021-05-23T07:33:13.982Z</time>
      </trkpt>
      <trkpt lat="47.23816" lon="-2.28941">
        <ele>15</ele>
        <time>2021-05-23T07:33:14.983Z</time>
      </trkpt>
      <trkpt lat="47.23816" lon="-2.28944">
        <ele>15</ele>
        <time>2021-05-23T07:33:15.983Z</time>
      </trkpt>
      <trkpt lat="47.23815" lon="-2.28947">
        <ele>14</ele>
        <time>2021-05-23T07:33:16.983Z</time>
      </trkpt>
      <trkpt lat="47.23814" lon="-2.28949">
        <ele>14</ele>
        <time>2021-05-23T07:33:17.983Z</time>
      </trkpt>
      <trkpt lat="47.23813" lon="-2.28953">
        <ele>15</ele>
        <time>2021-05-23T07:33:18.982Z</time>
      </trkpt>
      <trkpt lat="47.23812" lon="-2.28956">
        <ele>15</ele>
        <time>2021-05-23T07:33:19.983Z</time>
      </trkpt>
      <trkpt lat="47.23812" lon="-2.28959">
        <ele>15</ele>
        <time>2021-05-23T07:33:20.983Z</time>
      </trkpt>
      <trkpt lat="47.23811" lon="-2.28963">
        <ele>15</ele>
        <time>2021-05-23T07:33:21.983Z</time>
      </trkpt>
      <trkpt lat="47.23811" lon="-2.28966">
        <ele>15</ele>
        <time>2021-05-23T07:33:22.983Z</time>
      </trkpt>
      <trkpt lat="47.2381" lon="-2.28969">
        <ele>15</ele>
        <time>2021-05-23T07:33:23.982Z</time>
      </trkpt>
      <trkpt lat="47.23809" lon="-2.28972">
        <ele>15</ele>
        <time>2021-05-23T07:33:24.983Z</time>
      </trkpt>
      <trkpt lat="47.23809" lon="-2.28976">
        <ele>15</ele>
        <time>2021-05-23T07:33:25.983Z</time>
      </trkpt>
      <trkpt lat="47.23808" lon="-2.28979">
        <ele>15</ele>
        <time>2021-05-23T07:33:26.983Z</time>
      </trkpt>
      <trkpt lat="47.23808" lon="-2.28983">
        <ele>15</ele>
        <time>2021-05-23T07:33:27.982Z</time>
      </trkpt>
      <trkpt lat="47.23807" lon="-2.28986">
        <ele>16</ele>
        <time>2021-05-23T07:33:28.983Z</time>
      </trkpt>
      <trkpt lat="47.23807" lon="-2.28989">
        <ele>16</ele>
        <time>2021-05-23T07:33:29.983Z</time>
      </trkpt>
      <trkpt lat="47.23806" lon="-2.28992">
        <ele>16</ele>
        <time>2021-05-23T07:33:30.983Z</time>
      </trkpt>
      <trkpt lat="47.23806" lon="-2.28996">
        <ele>16</ele>
        <time>2021-05-23T07:33:31.982Z</time>
      </trkpt>
      <trkpt lat="47.23805" lon="-2.28998">
        <ele>17</ele>
        <time>2021-05-23T07:33:32.983Z</time>
      </trkpt>
      <trkpt lat="47.23805" lon="-2.29001">
        <ele>17</ele>
        <time>2021-05-23T07:33:33.983Z</time>
      </trkpt>
      <trkpt lat="47.23804" lon="-2.29005">
        <ele>17</ele>
        <time>2021-05-23T07:33:34.982Z</time>
      </trkpt>
      <trkpt lat="47.23804" lon="-2.29008">
        <ele>17</ele>
        <time>2021-05-23T07:33:35.982Z</time>
      </trkpt>
      <trkpt lat="47.23803" lon="-2.29011">
        <ele>17</ele>
        <time>2021-05-23T07:33:36.983Z</time>
      </trkpt>
      <trkpt lat="47.23803" lon="-2.29014">
        <ele>17</ele>
        <time>2021-05-23T07:33:37.982Z</time>
      </trkpt>
      <trkpt lat="47.23803" lon="-2.29017">
        <ele>17</ele>
        <time>2021-05-23T07:33:38.983Z</time>
      </trkpt>
      <trkpt lat="47.23803" lon="-2.29019">
        <ele>18</ele>
        <time>2021-05-23T07:33:39.983Z</time>
      </trkpt>
      <trkpt lat="47.23803" lon="-2.29021">
        <ele>18</ele>
        <time>2021-05-23T07:33:40.982Z</time>
      </trkpt>
      <trkpt lat="47.23802" lon="-2.29023">
        <ele>18</ele>
        <time>2021-05-23T07:33:41.983Z</time>
      </trkpt>
      <trkpt lat="47.23802" lon="-2.29026">
        <ele>19</ele>
        <time>2021-05-23T07:33:42.983Z</time>
      </trkpt>
      <trkpt lat="47.23802" lon="-2.29029">
        <ele>19</ele>
        <time>2021-05-23T07:33:43.982Z</time>
      </trkpt>
      <trkpt lat="47.23802" lon="-2.29032">
        <ele>19</ele>
        <time>2021-05-23T07:33:44.983Z</time>
      </trkpt>
      <trkpt lat="47.23801" lon="-2.29035">
        <ele>19</ele>
        <time>2021-05-23T07:33:45.982Z</time>
      </trkpt>
      <trkpt lat="47.23801" lon="-2.29037">
        <ele>19</ele>
        <time>2021-05-23T07:33:46.982Z</time>
      </trkpt>
      <trkpt lat="47.23802" lon="-2.2904">
        <ele>20</ele>
        <time>2021-05-23T07:33:47.982Z</time>
      </trkpt>
      <trkpt lat="47.23802" lon="-2.29043">
        <ele>20</ele>
        <time>2021-05-23T07:33:48.982Z</time>
      </trkpt>
      <trkpt lat="47.23802" lon="-2.29045">
        <ele>20</ele>
        <time>2021-05-23T07:33:49.982Z</time>
      </trkpt>
      <trkpt lat="47.23802" lon="-2.29049">
        <ele>20</ele>
        <time>2021-05-23T07:33:50.982Z</time>
      </trkpt>
      <trkpt lat="47.23801" lon="-2.29051">
        <ele>21</ele>
        <time>2021-05-23T07:33:51.982Z</time>
      </trkpt>
      <trkpt lat="47.23801" lon="-2.29052">
        <ele>21</ele>
        <time>2021-05-23T07:33:52.982Z</time>
      </trkpt>
      <trkpt lat="47.238" lon="-2.29054">
        <ele>21</ele>
        <time>2021-05-23T07:33:53.982Z</time>
      </trkpt>
      <trkpt lat="47.23801" lon="-2.29057">
        <ele>21</ele>
        <time>2021-05-23T07:33:54.982Z</time>
      </trkpt>
      <trkpt lat="47.238" lon="-2.2906">
        <ele>21</ele>
        <time>2021-05-23T07:33:55.982Z</time>
      </trkpt>
      <trkpt lat="47.238" lon="-2.29064">
        <ele>21</ele>
        <time>2021-05-23T07:33:56.983Z</time>
      </trkpt>
      <trkpt lat="47.238" lon="-2.29066">
        <ele>22</ele>
        <time>2021-05-23T07:33:57.982Z</time>
      </trkpt>
      <trkpt lat="47.238" lon="-2.29069">
        <ele>22</ele>
        <time>2021-05-23T07:33:58.983Z</time>
      </trkpt>
      <trkpt lat="47.238" lon="-2.29072">
        <ele>22</ele>
        <time>2021-05-23T07:33:59.983Z</time>
      </trkpt>
      <trkpt lat="47.238" lon="-2.29075">
        <ele>22</ele>
        <time>2021-05-23T07:34:00.982Z</time>
      </trkpt>
      <trkpt lat="47.238" lon="-2.29078">
        <ele>23</ele>
        <time>2021-05-23T07:34:01.983Z</time>
      </trkpt>
      <trkpt lat="47.23799" lon="-2.29082">
        <ele>23</ele>
        <time>2021-05-23T07:34:02.983Z</time>
      </trkpt>
      <trkpt lat="47.23798" lon="-2.29085">
        <ele>23</ele>
        <time>2021-05-23T07:34:03.983Z</time>
      </trkpt>
      <trkpt lat="47.23797" lon="-2.29089">
        <ele>24</ele>
        <time>2021-05-23T07:34:04.982Z</time>
      </trkpt>
      <trkpt lat="47.23796" lon="-2.29093">
        <ele>24</ele>
        <time>2021-05-23T07:34:05.982Z</time>
      </trkpt>
      <trkpt lat="47.23796" lon="-2.29097">
        <ele>24</ele>
        <time>2021-05-23T07:34:06.982Z</time>
      </trkpt>
      <trkpt lat="47.23795" lon="-2.29101">
        <ele>24</ele>
        <time>2021-05-23T07:34:07.982Z</time>
      </trkpt>
      <trkpt lat="47.23794" lon="-2.29105">
        <ele>24</ele>
        <time>2021-05-23T07:34:08.982Z</time>
      </trkpt>
      <trkpt lat="47.23793" lon="-2.29109">
        <ele>24</ele>
        <time>2021-05-23T07:34:09.982Z</time>
      </trkpt>
      <trkpt lat="47.23793" lon="-2.29112">
        <ele>24</ele>
        <time>2021-05-23T07:34:10.982Z</time>
      </trkpt>
      <trkpt lat="47.23792" lon="-2.29114">
        <ele>24</ele>
        <time>2021-05-23T07:34:11.982Z</time>
      </trkpt>
      <trkpt lat="47.23791" lon="-2.29117">
        <ele>23</ele>
        <time>2021-05-23T07:34:12.982Z</time>
      </trkpt>
      <trkpt lat="47.2379" lon="-2.2912">
        <ele>23</ele>
        <time>2021-05-23T07:34:13.982Z</time>
      </trkpt>
      <trkpt lat="47.23789" lon="-2.29124">
        <ele>23</ele>
        <time>2021-05-23T07:34:14.982Z</time>
      </trkpt>
      <trkpt lat="47.23787" lon="-2.29127">
        <ele>22</ele>
        <time>2021-05-23T07:34:15.982Z</time>
      </trkpt>
      <trkpt lat="47.23786" lon="-2.2913">
        <ele>22</ele>
        <time>2021-05-23T07:34:16.982Z</time>
      </trkpt>
      <trkpt lat="47.23785" lon="-2.29133">
        <ele>21</ele>
        <time>2021-05-23T07:34:17.982Z</time>
      </trkpt>
      <trkpt lat="47.23783" lon="-2.29135">
        <ele>21</ele>
        <time>2021-05-23T07:34:18.983Z</time>
      </trkpt>
      <trkpt lat="47.23782" lon="-2.29137">
        <ele>20</ele>
        <time>2021-05-23T07:34:19.983Z</time>
      </trkpt>
      <trkpt lat="47.2378" lon="-2.2914">
        <ele>20</ele>
        <time>2021-05-23T07:34:20.983Z</time>
      </trkpt>
      <trkpt lat="47.23779" lon="-2.29141">
        <ele>19</ele>
        <time>2021-05-23T07:34:21.983Z</time>
      </trkpt>
      <trkpt lat="47.23777" lon="-2.29143">
        <ele>19</ele>
        <time>2021-05-23T07:34:22.983Z</time>
      </trkpt>
      <trkpt lat="47.23776" lon="-2.29144">
        <ele>19</ele>
        <time>2021-05-23T07:34:23.983Z</time>
      </trkpt>
      <trkpt lat="47.23774" lon="-2.29145">
        <ele>19</ele>
        <time>2021-05-23T07:34:24.982Z</time>
      </trkpt>
      <trkpt lat="47.23772" lon="-2.29147">
        <ele>18</ele>
        <time>2021-05-23T07:34:25.983Z</time>
      </trkpt>
      <trkpt lat="47.23771" lon="-2.29148">
        <ele>18</ele>
        <time>2021-05-23T07:34:26.983Z</time>
      </trkpt>
      <trkpt lat="47.23769" lon="-2.29149">
        <ele>18</ele>
        <time>2021-05-23T07:34:27.983Z</time>
      </trkpt>
      <trkpt lat="47.23768" lon="-2.2915">
        <ele>18</ele>
        <time>2021-05-23T07:34:28.982Z</time>
      </trkpt>
      <trkpt lat="47.23766" lon="-2.29151">
        <ele>18</ele>
        <time>2021-05-23T07:34:29.982Z</time>
      </trkpt>
      <trkpt lat="47.23763" lon="-2.29152">
        <ele>18</ele>
        <time>2021-05-23T07:34:30.983Z</time>
      </trkpt>
      <trkpt lat="47.23761" lon="-2.29154">
        <ele>18</ele>
        <time>2021-05-23T07:34:31.983Z</time>
      </trkpt>
      <trkpt lat="47.23758" lon="-2.29156">
        <ele>18</ele>
        <time>2021-05-23T07:34:32.983Z</time>
      </trkpt>
      <trkpt lat="47.23754" lon="-2.29157">
        <ele>18</ele>
        <time>2021-05-23T07:34:33.982Z</time>
      </trkpt>
      <trkpt lat="47.23752" lon="-2.29158">
        <ele>19</ele>
        <time>2021-05-23T07:34:34.982Z</time>
      </trkpt>
      <trkpt lat="47.23749" lon="-2.2916">
        <ele>19</ele>
        <time>2021-05-23T07:34:35.983Z</time>
      </trkpt>
      <trkpt lat="47.23746" lon="-2.29162">
        <ele>20</ele>
        <time>2021-05-23T07:34:36.983Z</time>
      </trkpt>
      <trkpt lat="47.23744" lon="-2.29164">
        <ele>20</ele>
        <time>2021-05-23T07:34:37.982Z</time>
      </trkpt>
      <trkpt lat="47.23741" lon="-2.29165">
        <ele>21</ele>
        <time>2021-05-23T07:34:38.983Z</time>
      </trkpt>
      <trkpt lat="47.23739" lon="-2.29166">
        <ele>21</ele>
        <time>2021-05-23T07:34:39.983Z</time>
      </trkpt>
      <trkpt lat="47.23736" lon="-2.29167">
        <ele>22</ele>
        <time>2021-05-23T07:34:40.982Z</time>
      </trkpt>
      <trkpt lat="47.23733" lon="-2.29167">
        <ele>22</ele>
        <time>2021-05-23T07:34:41.983Z</time>
      </trkpt>
      <trkpt lat="47.23731" lon="-2.29168">
        <ele>23</ele>
        <time>2021-05-23T07:34:42.982Z</time>
      </trkpt>
      <trkpt lat="47.23729" lon="-2.29169">
        <ele>23</ele>
        <time>2021-05-23T07:34:43.982Z</time>
      </trkpt>
      <trkpt lat="47.23726" lon="-2.2917">
        <ele>23</ele>
        <time>2021-05-23T07:34:44.983Z</time>
      </trkpt>
      <trkpt lat="47.23724" lon="-2.29171">
        <ele>23</ele>
        <time>2021-05-23T07:34:45.982Z</time>
      </trkpt>
      <trkpt lat="47.23721" lon="-2.29172">
        <ele>23</ele>
        <time>2021-05-23T07:34:46.983Z</time>
      </trkpt>
      <trkpt lat="47.23719" lon="-2.29173">
        <ele>23</ele>
        <time>2021-05-23T07:34:47.983Z</time>
      </trkpt>
      <trkpt lat="47.23717" lon="-2.29174">
        <ele>23</ele>
        <time>2021-05-23T07:34:48.982Z</time>
      </trkpt>
      <trkpt lat="47.23715" lon="-2.29175">
        <ele>23</ele>
        <time>2021-05-23T07:34:49.983Z</time>
      </trkpt>
      <trkpt lat="47.23713" lon="-2.29176">
        <ele>23</ele>
        <time>2021-05-23T07:34:50.983Z</time>
      </trkpt>
      <trkpt lat="47.2371" lon="-2.29177">
        <ele>24</ele>
        <time>2021-05-23T07:34:51.982Z</time>
      </trkpt>
      <trkpt lat="47.23709" lon="-2.29178">
        <ele>24</ele>
        <time>2021-05-23T07:34:52.983Z</time>
      </trkpt>
      <trkpt lat="47.23706" lon="-2.2918">
        <ele>24</ele>
        <time>2021-05-23T07:34:53.982Z</time>
      </trkpt>
      <trkpt lat="47.23704" lon="-2.29182">
        <ele>24</ele>
        <time>2021-05-23T07:34:54.982Z</time>
      </trkpt>
      <trkpt lat="47.23702" lon="-2.29183">
        <ele>24</ele>
        <time>2021-05-23T07:34:55.983Z</time>
      </trkpt>
      <trkpt lat="47.237" lon="-2.29183">
        <ele>24</ele>
        <time>2021-05-23T07:34:56.983Z</time>
      </trkpt>
      <trkpt lat="47.23697" lon="-2.29184">
        <ele>24</ele>
        <time>2021-05-23T07:34:57.983Z</time>
      </trkpt>
      <trkpt lat="47.23695" lon="-2.29185">
        <ele>24</ele>
        <time>2021-05-23T07:34:58.983Z</time>
      </trkpt>
      <trkpt lat="47.23693" lon="-2.29185">
        <ele>24</ele>
        <time>2021-05-23T07:34:59.982Z</time>
      </trkpt>
      <trkpt lat="47.2369" lon="-2.29185">
        <ele>24</ele>
        <time>2021-05-23T07:35:00.982Z</time>
      </trkpt>
      <trkpt lat="47.23688" lon="-2.29185">
        <ele>24</ele>
        <time>2021-05-23T07:35:01.983Z</time>
      </trkpt>
      <trkpt lat="47.23686" lon="-2.29186">
        <ele>24</ele>
        <time>2021-05-23T07:35:02.982Z</time>
      </trkpt>
      <trkpt lat="47.23683" lon="-2.29187">
        <ele>24</ele>
        <time>2021-05-23T07:35:03.982Z</time>
      </trkpt>
      <trkpt lat="47.23681" lon="-2.29187">
        <ele>24</ele>
        <time>2021-05-23T07:35:04.983Z</time>
      </trkpt>
      <trkpt lat="47.23679" lon="-2.29187">
        <ele>23</ele>
        <time>2021-05-23T07:35:05.983Z</time>
      </trkpt>
      <trkpt lat="47.23677" lon="-2.29188">
        <ele>23</ele>
        <time>2021-05-23T07:35:06.983Z</time>
      </trkpt>
      <trkpt lat="47.23675" lon="-2.29188">
        <ele>24</ele>
        <time>2021-05-23T07:35:07.983Z</time>
      </trkpt>
      <trkpt lat="47.23672" lon="-2.29189">
        <ele>24</ele>
        <time>2021-05-23T07:35:08.983Z</time>
      </trkpt>
      <trkpt lat="47.2367" lon="-2.29189">
        <ele>24</ele>
        <time>2021-05-23T07:35:09.982Z</time>
      </trkpt>
      <trkpt lat="47.23667" lon="-2.2919">
        <ele>24</ele>
        <time>2021-05-23T07:35:10.983Z</time>
      </trkpt>
      <trkpt lat="47.23665" lon="-2.2919">
        <ele>25</ele>
        <time>2021-05-23T07:35:11.983Z</time>
      </trkpt>
      <trkpt lat="47.23663" lon="-2.29191">
        <ele>25</ele>
        <time>2021-05-23T07:35:12.982Z</time>
      </trkpt>
      <trkpt lat="47.23661" lon="-2.29191">
        <ele>26</ele>
        <time>2021-05-23T07:35:13.983Z</time>
      </trkpt>
      <trkpt lat="47.23658" lon="-2.29191">
        <ele>26</ele>
        <time>2021-05-23T07:35:14.982Z</time>
      </trkpt>
      <trkpt lat="47.23657" lon="-2.29191">
        <ele>26</ele>
        <time>2021-05-23T07:35:15.982Z</time>
      </trkpt>
      <trkpt lat="47.23654" lon="-2.29192">
        <ele>27</ele>
        <time>2021-05-23T07:35:16.982Z</time>
      </trkpt>
      <trkpt lat="47.23652" lon="-2.29193">
        <ele>27</ele>
        <time>2021-05-23T07:35:17.982Z</time>
      </trkpt>
      <trkpt lat="47.23649" lon="-2.29194">
        <ele>27</ele>
        <time>2021-05-23T07:35:18.982Z</time>
      </trkpt>
      <trkpt lat="47.23647" lon="-2.29194">
        <ele>27</ele>
        <time>2021-05-23T07:35:19.983Z</time>
      </trkpt>
      <trkpt lat="47.23644" lon="-2.29195">
        <ele>27</ele>
        <time>2021-05-23T07:35:20.983Z</time>
      </trkpt>
      <trkpt lat="47.23643" lon="-2.29196">
        <ele>28</ele>
        <time>2021-05-23T07:35:21.982Z</time>
      </trkpt>
      <trkpt lat="47.23641" lon="-2.29197">
        <ele>28</ele>
        <time>2021-05-23T07:35:22.983Z</time>
      </trkpt>
      <trkpt lat="47.23639" lon="-2.29197">
        <ele>28</ele>
        <time>2021-05-23T07:35:23.983Z</time>
      </trkpt>
      <trkpt lat="47.23636" lon="-2.29197">
        <ele>28</ele>
        <time>2021-05-23T07:35:24.983Z</time>
      </trkpt>
      <trkpt lat="47.23634" lon="-2.29198">
        <ele>28</ele>
        <time>2021-05-23T07:35:25.983Z</time>
      </trkpt>
      <trkpt lat="47.23632" lon="-2.29199">
        <ele>28</ele>
        <time>2021-05-23T07:35:26.983Z</time>
      </trkpt>
      <trkpt lat="47.23631" lon="-2.292">
        <ele>28</ele>
        <time>2021-05-23T07:35:27.983Z</time>
      </trkpt>
      <trkpt lat="47.23628" lon="-2.29201">
        <ele>29</ele>
        <time>2021-05-23T07:35:28.983Z</time>
      </trkpt>
      <trkpt lat="47.23625" lon="-2.29202">
        <ele>29</ele>
        <time>2021-05-23T07:35:29.982Z</time>
      </trkpt>
      <trkpt lat="47.23622" lon="-2.29203">
        <ele>29</ele>
        <time>2021-05-23T07:35:30.983Z</time>
      </trkpt>
      <trkpt lat="47.2362" lon="-2.29204">
        <ele>29</ele>
        <time>2021-05-23T07:35:31.982Z</time>
      </trkpt>
      <trkpt lat="47.23619" lon="-2.29205">
        <ele>29</ele>
        <time>2021-05-23T07:35:32.983Z</time>
      </trkpt>
      <trkpt lat="47.23617" lon="-2.29206">
        <ele>28</ele>
        <time>2021-05-23T07:35:33.983Z</time>
      </trkpt>
      <trkpt lat="47.23615" lon="-2.29206">
        <ele>28</ele>
        <time>2021-05-23T07:35:34.983Z</time>
      </trkpt>
      <trkpt lat="47.23612" lon="-2.29205">
        <ele>27</ele>
        <time>2021-05-23T07:35:35.982Z</time>
      </trkpt>
      <trkpt lat="47.23609" lon="-2.29206">
        <ele>27</ele>
        <time>2021-05-23T07:35:36.983Z</time>
      </trkpt>
      <trkpt lat="47.23607" lon="-2.29207">
        <ele>26</ele>
        <time>2021-05-23T07:35:37.982Z</time>
      </trkpt>
      <trkpt lat="47.23604" lon="-2.29209">
        <ele>26</ele>
        <time>2021-05-23T07:35:38.983Z</time>
      </trkpt>
      <trkpt lat="47.23603" lon="-2.2921">
        <ele>25</ele>
        <time>2021-05-23T07:35:39.983Z</time>
      </trkpt>
      <trkpt lat="47.23602" lon="-2.29211">
        <ele>25</ele>
        <time>2021-05-23T07:35:40.983Z</time>
      </trkpt>
      <trkpt lat="47.23601" lon="-2.29212">
        <ele>24</ele>
        <time>2021-05-23T07:35:41.983Z</time>
      </trkpt>
      <trkpt lat="47.236" lon="-2.29213">
        <ele>24</ele>
        <time>2021-05-23T07:35:42.983Z</time>
      </trkpt>
      <trkpt lat="47.23598" lon="-2.29215">
        <ele>23</ele>
        <time>2021-05-23T07:35:43.982Z</time>
      </trkpt>
      <trkpt lat="47.23596" lon="-2.29217">
        <ele>23</ele>
        <time>2021-05-23T07:35:44.982Z</time>
      </trkpt>
      <trkpt lat="47.23595" lon="-2.2922">
        <ele>22</ele>
        <time>2021-05-23T07:35:45.983Z</time>
      </trkpt>
      <trkpt lat="47.23594" lon="-2.29222">
        <ele>22</ele>
        <time>2021-05-23T07:35:46.983Z</time>
      </trkpt>
      <trkpt lat="47.23592" lon="-2.29225">
        <ele>22</ele>
        <time>2021-05-23T07:35:47.983Z</time>
      </trkpt>
      <trkpt lat="47.23591" lon="-2.29228">
        <ele>22</ele>
        <time>2021-05-23T07:35:48.983Z</time>
      </trkpt>
      <trkpt lat="47.23589" lon="-2.29231">
        <ele>22</ele>
        <time>2021-05-23T07:35:49.983Z</time>
      </trkpt>
      <trkpt lat="47.23589" lon="-2.29233">
        <ele>22</ele>
        <time>2021-05-23T07:35:50.982Z</time>
      </trkpt>
      <trkpt lat="47.23588" lon="-2.29236">
        <ele>22</ele>
        <time>2021-05-23T07:35:51.983Z</time>
      </trkpt>
      <trkpt lat="47.23587" lon="-2.2924">
        <ele>22</ele>
        <time>2021-05-23T07:35:52.983Z</time>
      </trkpt>
      <trkpt lat="47.23587" lon="-2.29242">
        <ele>22</ele>
        <time>2021-05-23T07:35:53.982Z</time>
      </trkpt>
      <trkpt lat="47.23586" lon="-2.29245">
        <ele>22</ele>
        <time>2021-05-23T07:35:54.983Z</time>
      </trkpt>
      <trkpt lat="47.23586" lon="-2.29249">
        <ele>22</ele>
        <time>2021-05-23T07:35:55.983Z</time>
      </trkpt>
      <trkpt lat="47.23586" lon="-2.29253">
        <ele>21</ele>
        <time>2021-05-23T07:35:56.982Z</time>
      </trkpt>
      <trkpt lat="47.23586" lon="-2.29256">
        <ele>21</ele>
        <time>2021-05-23T07:35:57.982Z</time>
      </trkpt>
      <trkpt lat="47.23586" lon="-2.2926">
        <ele>21</ele>
        <time>2021-05-23T07:35:58.983Z</time>
      </trkpt>
      <trkpt lat="47.23586" lon="-2.29265">
        <ele>21</ele>
        <time>2021-05-23T07:35:59.982Z</time>
      </trkpt>
      <trkpt lat="47.23586" lon="-2.29269">
        <ele>21</ele>
        <time>2021-05-23T07:36:00.983Z</time>
      </trkpt>
      <trkpt lat="47.23586" lon="-2.29275">
        <ele>21</ele>
        <time>2021-05-23T07:36:01.983Z</time>
      </trkpt>
      <trkpt lat="47.23586" lon="-2.29279">
        <ele>21</ele>
        <time>2021-05-23T07:36:02.983Z</time>
      </trkpt>
      <trkpt lat="47.23586" lon="-2.29282">
        <ele>21</ele>
        <time>2021-05-23T07:36:03.983Z</time>
      </trkpt>
      <trkpt lat="47.23586" lon="-2.29286">
        <ele>21</ele>
        <time>2021-05-23T07:36:04.982Z</time>
      </trkpt>
      <trkpt lat="47.23586" lon="-2.2929">
        <ele>21</ele>
        <time>2021-05-23T07:36:05.983Z</time>
      </trkpt>
      <trkpt lat="47.23587" lon="-2.29294">
        <ele>21</ele>
        <time>2021-05-23T07:36:06.983Z</time>
      </trkpt>
      <trkpt lat="47.23588" lon="-2.29297">
        <ele>21</ele>
        <time>2021-05-23T07:36:07.983Z</time>
      </trkpt>
      <trkpt lat="47.23588" lon="-2.29301">
        <ele>22</ele>
        <time>2021-05-23T07:36:08.983Z</time>
      </trkpt>
      <trkpt lat="47.23589" lon="-2.29303">
        <ele>22</ele>
        <time>2021-05-23T07:36:09.983Z</time>
      </trkpt>
      <trkpt lat="47.23589" lon="-2.29306">
        <ele>23</ele>
        <time>2021-05-23T07:36:10.983Z</time>
      </trkpt>
      <trkpt lat="47.23588" lon="-2.29308">
        <ele>23</ele>
        <time>2021-05-23T07:36:11.983Z</time>
      </trkpt>
      <trkpt lat="47.23588" lon="-2.29311">
        <ele>23</ele>
        <time>2021-05-23T07:36:12.982Z</time>
      </trkpt>
      <trkpt lat="47.23588" lon="-2.29314">
        <ele>23</ele>
        <time>2021-05-23T07:36:13.983Z</time>
      </trkpt>
      <trkpt lat="47.23587" lon="-2.29317">
        <ele>23</ele>
        <time>2021-05-23T07:36:14.983Z</time>
      </trkpt>
      <trkpt lat="47.23587" lon="-2.2932">
        <ele>23</ele>
        <time>2021-05-23T07:36:15.983Z</time>
      </trkpt>
      <trkpt lat="47.23587" lon="-2.29324">
        <ele>23</ele>
        <time>2021-05-23T07:36:16.982Z</time>
      </trkpt>
      <trkpt lat="47.23587" lon="-2.29328">
        <ele>23</ele>
        <time>2021-05-23T07:36:17.983Z</time>
      </trkpt>
      <trkpt lat="47.23587" lon="-2.29331">
        <ele>23</ele>
        <time>2021-05-23T07:36:18.983Z</time>
      </trkpt>
      <trkpt lat="47.23587" lon="-2.29334">
        <ele>22</ele>
        <time>2021-05-23T07:36:19.982Z</time>
      </trkpt>
      <trkpt lat="47.23588" lon="-2.29338">
        <ele>22</ele>
        <time>2021-05-23T07:36:20.983Z</time>
      </trkpt>
      <trkpt lat="47.23588" lon="-2.2934">
        <ele>22</ele>
        <time>2021-05-23T07:36:21.982Z</time>
      </trkpt>
      <trkpt lat="47.23588" lon="-2.29341">
        <ele>22</ele>
        <time>2021-05-23T07:36:22.983Z</time>
      </trkpt>
      <trkpt lat="47.23588" lon="-2.29344">
        <ele>23</ele>
        <time>2021-05-23T07:36:23.982Z</time>
      </trkpt>
      <trkpt lat="47.23588" lon="-2.29347">
        <ele>23</ele>
        <time>2021-05-23T07:36:24.983Z</time>
      </trkpt>
      <trkpt lat="47.23588" lon="-2.2935">
        <ele>23</ele>
        <time>2021-05-23T07:36:25.982Z</time>
      </trkpt>
      <trkpt lat="47.23587" lon="-2.29354">
        <ele>23</ele>
        <time>2021-05-23T07:36:26.983Z</time>
      </trkpt>
      <trkpt lat="47.23587" lon="-2.29357">
        <ele>23</ele>
        <time>2021-05-23T07:36:27.982Z</time>
      </trkpt>
      <trkpt lat="47.23587" lon="-2.29361">
        <ele>22</ele>
        <time>2021-05-23T07:36:28.982Z</time>
      </trkpt>
      <trkpt lat="47.23586" lon="-2.29364">
        <ele>22</ele>
        <time>2021-05-23T07:36:29.983Z</time>
      </trkpt>
      <trkpt lat="47.23586" lon="-2.29367">
        <ele>22</ele>
        <time>2021-05-23T07:36:30.982Z</time>
      </trkpt>
      <trkpt lat="47.23586" lon="-2.2937">
        <ele>21</ele>
        <time>2021-05-23T07:36:31.982Z</time>
      </trkpt>
      <trkpt lat="47.23585" lon="-2.29373">
        <ele>21</ele>
        <time>2021-05-23T07:36:32.982Z</time>
      </trkpt>
      <trkpt lat="47.23586" lon="-2.29377">
        <ele>21</ele>
        <time>2021-05-23T07:36:33.983Z</time>
      </trkpt>
      <trkpt lat="47.23586" lon="-2.2938">
        <ele>21</ele>
        <time>2021-05-23T07:36:34.983Z</time>
      </trkpt>
      <trkpt lat="47.23587" lon="-2.29384">
        <ele>21</ele>
        <time>2021-05-23T07:36:35.983Z</time>
      </trkpt>
      <trkpt lat="47.23588" lon="-2.29388">
        <ele>21</ele>
        <time>2021-05-23T07:36:36.983Z</time>
      </trkpt>
      <trkpt lat="47.23589" lon="-2.29391">
        <ele>21</ele>
        <time>2021-05-23T07:36:37.982Z</time>
      </trkpt>
      <trkpt lat="47.23589" lon="-2.29395">
        <ele>21</ele>
        <time>2021-05-23T07:36:38.983Z</time>
      </trkpt>
      <trkpt lat="47.23589" lon="-2.29398">
        <ele>20</ele>
        <time>2021-05-23T07:36:39.983Z</time>
      </trkpt>
      <trkpt lat="47.23589" lon="-2.29401">
        <ele>20</ele>
        <time>2021-05-23T07:36:40.983Z</time>
      </trkpt>
      <trkpt lat="47.2359" lon="-2.29403">
        <ele>20</ele>
        <time>2021-05-23T07:36:41.982Z</time>
      </trkpt>
      <trkpt lat="47.2359" lon="-2.29407">
        <ele>20</ele>
        <time>2021-05-23T07:36:42.983Z</time>
      </trkpt>
      <trkpt lat="47.23589" lon="-2.29411">
        <ele>19</ele>
        <time>2021-05-23T07:36:43.982Z</time>
      </trkpt>
      <trkpt lat="47.23589" lon="-2.29413">
        <ele>19</ele>
        <time>2021-05-23T07:36:44.983Z</time>
      </trkpt>
      <trkpt lat="47.23589" lon="-2.29416">
        <ele>20</ele>
        <time>2021-05-23T07:36:45.983Z</time>
      </trkpt>
      <trkpt lat="47.23588" lon="-2.2942">
        <ele>20</ele>
        <time>2021-05-23T07:36:46.983Z</time>
      </trkpt>
      <trkpt lat="47.23588" lon="-2.29422">
        <ele>20</ele>
        <time>2021-05-23T07:36:47.982Z</time>
      </trkpt>
      <trkpt lat="47.23588" lon="-2.29426">
        <ele>20</ele>
        <time>2021-05-23T07:36:48.982Z</time>
      </trkpt>
      <trkpt lat="47.23587" lon="-2.2943">
        <ele>21</ele>
        <time>2021-05-23T07:36:49.982Z</time>
      </trkpt>
      <trkpt lat="47.23587" lon="-2.29434">
        <ele>21</ele>
        <time>2021-05-23T07:36:50.983Z</time>
      </trkpt>
      <trkpt lat="47.23588" lon="-2.29437">
        <ele>21</ele>
        <time>2021-05-23T07:36:51.983Z</time>
      </trkpt>
      <trkpt lat="47.23589" lon="-2.29441">
        <ele>21</ele>
        <time>2021-05-23T07:36:52.982Z</time>
      </trkpt>
      <trkpt lat="47.23589" lon="-2.29443">
        <ele>21</ele>
        <time>2021-05-23T07:36:53.983Z</time>
      </trkpt>
      <trkpt lat="47.2359" lon="-2.29446">
        <ele>22</ele>
        <time>2021-05-23T07:36:54.982Z</time>
      </trkpt>
      <trkpt lat="47.2359" lon="-2.29449">
        <ele>21</ele>
        <time>2021-05-23T07:36:55.982Z</time>
      </trkpt>
      <trkpt lat="47.2359" lon="-2.29453">
        <ele>21</ele>
        <time>2021-05-23T07:36:56.983Z</time>
      </trkpt>
      <trkpt lat="47.2359" lon="-2.29457">
        <ele>20</ele>
        <time>2021-05-23T07:36:57.983Z</time>
      </trkpt>
      <trkpt lat="47.2359" lon="-2.2946">
        <ele>20</ele>
        <time>2021-05-23T07:36:58.983Z</time>
      </trkpt>
      <trkpt lat="47.2359" lon="-2.29464">
        <ele>19</ele>
        <time>2021-05-23T07:36:59.983Z</time>
      </trkpt>
      <trkpt lat="47.2359" lon="-2.29468">
        <ele>18</ele>
        <time>2021-05-23T07:37:00.982Z</time>
      </trkpt>
      <trkpt lat="47.2359" lon="-2.29472">
        <ele>18</ele>
        <time>2021-05-23T07:37:01.982Z</time>
      </trkpt>
      <trkpt lat="47.23591" lon="-2.29476">
        <ele>18</ele>
        <time>2021-05-23T07:37:02.982Z</time>
      </trkpt>
      <trkpt lat="47.23591" lon="-2.2948">
        <ele>17</ele>
        <time>2021-05-23T07:37:03.983Z</time>
      </trkpt>
      <trkpt lat="47.23591" lon="-2.29484">
        <ele>17</ele>
        <time>2021-05-23T07:37:04.982Z</time>
      </trkpt>
      <trkpt lat="47.2359" lon="-2.29487">
        <ele>17</ele>
        <time>2021-05-23T07:37:05.983Z</time>
      </trkpt>
      <trkpt lat="47.2359" lon="-2.29491">
        <ele>16</ele>
        <time>2021-05-23T07:37:06.983Z</time>
      </trkpt>
      <trkpt lat="47.2359" lon="-2.29495">
        <ele>16</ele>
        <time>2021-05-23T07:37:07.982Z</time>
      </trkpt>
      <trkpt lat="47.2359" lon="-2.29498">
        <ele>17</ele>
        <time>2021-05-23T07:37:08.983Z</time>
      </trkpt>
      <trkpt lat="47.2359" lon="-2.29501">
        <ele>17</ele>
        <time>2021-05-23T07:37:09.983Z</time>
      </trkpt>
      <trkpt lat="47.23591" lon="-2.29504">
        <ele>17</ele>
        <time>2021-05-23T07:37:10.982Z</time>
      </trkpt>
      <trkpt lat="47.23591" lon="-2.29508">
        <ele>17</ele>
        <time>2021-05-23T07:37:11.983Z</time>
      </trkpt>
      <trkpt lat="47.23591" lon="-2.29511">
        <ele>18</ele>
        <time>2021-05-23T07:37:12.983Z</time>
      </trkpt>
      <trkpt lat="47.23591" lon="-2.29515">
        <ele>18</ele>
        <time>2021-05-23T07:37:13.982Z</time>
      </trkpt>
      <trkpt lat="47.23592" lon="-2.29519">
        <ele>18</ele>
        <time>2021-05-23T07:37:14.983Z</time>
      </trkpt>
      <trkpt lat="47.23591" lon="-2.29522">
        <ele>18</ele>
        <time>2021-05-23T07:37:15.982Z</time>
      </trkpt>
      <trkpt lat="47.2359" lon="-2.29526">
        <ele>17</ele>
        <time>2021-05-23T07:37:16.982Z</time>
      </trkpt>
      <trkpt lat="47.2359" lon="-2.29528">
        <ele>17</ele>
        <time>2021-05-23T07:37:17.982Z</time>
      </trkpt>
      <trkpt lat="47.23589" lon="-2.29531">
        <ele>16</ele>
        <time>2021-05-23T07:37:18.982Z</time>
      </trkpt>
      <trkpt lat="47.23589" lon="-2.29535">
        <ele>16</ele>
        <time>2021-05-23T07:37:19.982Z</time>
      </trkpt>
      <trkpt lat="47.23589" lon="-2.29538">
        <ele>16</ele>
        <time>2021-05-23T07:37:20.983Z</time>
      </trkpt>
      <trkpt lat="47.23589" lon="-2.29543">
        <ele>15</ele>
        <time>2021-05-23T07:37:21.983Z</time>
      </trkpt>
      <trkpt lat="47.23588" lon="-2.29545">
        <ele>14</ele>
        <time>2021-05-23T07:37:22.982Z</time>
      </trkpt>
      <trkpt lat="47.23588" lon="-2.29548">
        <ele>14</ele>
        <time>2021-05-23T07:37:23.983Z</time>
      </trkpt>
      <trkpt lat="47.23587" lon="-2.29551">
        <ele>13</ele>
        <time>2021-05-23T07:37:24.983Z</time>
      </trkpt>
      <trkpt lat="47.23586" lon="-2.29552">
        <ele>12</ele>
        <time>2021-05-23T07:37:25.982Z</time>
      </trkpt>
      <trkpt lat="47.23585" lon="-2.29553">
        <ele>12</ele>
        <time>2021-05-23T07:37:26.983Z</time>
      </trkpt>
      <trkpt lat="47.23583" lon="-2.29553">
        <ele>11</ele>
        <time>2021-05-23T07:37:27.983Z</time>
      </trkpt>
      <trkpt lat="47.23581" lon="-2.29554">
        <ele>11</ele>
        <time>2021-05-23T07:37:28.983Z</time>
      </trkpt>
      <trkpt lat="47.23579" lon="-2.29555">
        <ele>11</ele>
        <time>2021-05-23T07:37:29.983Z</time>
      </trkpt>
      <trkpt lat="47.23577" lon="-2.29556">
        <ele>11</ele>
        <time>2021-05-23T07:37:30.982Z</time>
      </trkpt>
      <trkpt lat="47.23575" lon="-2.29559">
        <ele>11</ele>
        <time>2021-05-23T07:37:31.983Z</time>
      </trkpt>
      <trkpt lat="47.23574" lon="-2.29562">
        <ele>12</ele>
        <time>2021-05-23T07:37:32.983Z</time>
      </trkpt>
      <trkpt lat="47.23572" lon="-2.29564">
        <ele>12</ele>
        <time>2021-05-23T07:37:33.983Z</time>
      </trkpt>
      <trkpt lat="47.23571" lon="-2.29567">
        <ele>12</ele>
        <time>2021-05-23T07:37:34.983Z</time>
      </trkpt>
      <trkpt lat="47.23569" lon="-2.29569">
        <ele>12</ele>
        <time>2021-05-23T07:37:35.982Z</time>
      </trkpt>
      <trkpt lat="47.23567" lon="-2.29571">
        <ele>13</ele>
        <time>2021-05-23T07:37:36.982Z</time>
      </trkpt>
      <trkpt lat="47.23566" lon="-2.29573">
        <ele>13</ele>
        <time>2021-05-23T07:37:37.983Z</time>
      </trkpt>
      <trkpt lat="47.23564" lon="-2.29575">
        <ele>13</ele>
        <time>2021-05-23T07:37:38.982Z</time>
      </trkpt>
      <trkpt lat="47.23563" lon="-2.29578">
        <ele>14</ele>
        <time>2021-05-23T07:37:39.982Z</time>
      </trkpt>
      <trkpt lat="47.23562" lon="-2.2958">
        <ele>14</ele>
        <time>2021-05-23T07:37:40.983Z</time>
      </trkpt>
      <trkpt lat="47.2356" lon="-2.29582">
        <ele>14</ele>
        <time>2021-05-23T07:37:41.983Z</time>
      </trkpt>
      <trkpt lat="47.23558" lon="-2.29583">
        <ele>14</ele>
        <time>2021-05-23T07:37:42.983Z</time>
      </trkpt>
      <trkpt lat="47.23556" lon="-2.29584">
        <ele>14</ele>
        <time>2021-05-23T07:37:43.983Z</time>
      </trkpt>
      <trkpt lat="47.23554" lon="-2.29584">
        <ele>14</ele>
        <time>2021-05-23T07:37:44.983Z</time>
      </trkpt>
      <trkpt lat="47.23551" lon="-2.29585">
        <ele>15</ele>
        <time>2021-05-23T07:37:45.983Z</time>
      </trkpt>
      <trkpt lat="47.23549" lon="-2.29584">
        <ele>15</ele>
        <time>2021-05-23T07:37:46.983Z</time>
      </trkpt>
      <trkpt lat="47.23547" lon="-2.29584">
        <ele>15</ele>
        <time>2021-05-23T07:37:47.983Z</time>
      </trkpt>
      <trkpt lat="47.23544" lon="-2.29583">
        <ele>15</ele>
        <time>2021-05-23T07:37:48.982Z</time>
      </trkpt>
      <trkpt lat="47.23542" lon="-2.29583">
        <ele>15</ele>
        <time>2021-05-23T07:37:49.982Z</time>
      </trkpt>
      <trkpt lat="47.2354" lon="-2.29583">
        <ele>15</ele>
        <time>2021-05-23T07:37:50.983Z</time>
      </trkpt>
      <trkpt lat="47.23537" lon="-2.29583">
        <ele>16</ele>
        <time>2021-05-23T07:37:51.983Z</time>
      </trkpt>
      <trkpt lat="47.23534" lon="-2.29582">
        <ele>16</ele>
        <time>2021-05-23T07:37:52.983Z</time>
      </trkpt>
      <trkpt lat="47.23533" lon="-2.29582">
        <ele>16</ele>
        <time>2021-05-23T07:37:53.982Z</time>
      </trkpt>
      <trkpt lat="47.23531" lon="-2.29583">
        <ele>16</ele>
        <time>2021-05-23T07:37:54.982Z</time>
      </trkpt>
      <trkpt lat="47.23528" lon="-2.29583">
        <ele>16</ele>
        <time>2021-05-23T07:37:55.983Z</time>
      </trkpt>
      <trkpt lat="47.23526" lon="-2.29584">
        <ele>16</ele>
        <time>2021-05-23T07:37:56.983Z</time>
      </trkpt>
      <trkpt lat="47.23524" lon="-2.29584">
        <ele>16</ele>
        <time>2021-05-23T07:37:57.983Z</time>
      </trkpt>
      <trkpt lat="47.23522" lon="-2.29585">
        <ele>16</ele>
        <time>2021-05-23T07:37:58.982Z</time>
      </trkpt>
      <trkpt lat="47.23519" lon="-2.29586">
        <ele>16</ele>
        <time>2021-05-23T07:37:59.982Z</time>
      </trkpt>
      <trkpt lat="47.23517" lon="-2.29588">
        <ele>16</ele>
        <time>2021-05-23T07:38:00.983Z</time>
      </trkpt>
      <trkpt lat="47.23516" lon="-2.29589">
        <ele>16</ele>
        <time>2021-05-23T07:38:01.982Z</time>
      </trkpt>
      <trkpt lat="47.23514" lon="-2.29591">
        <ele>16</ele>
        <time>2021-05-23T07:38:02.983Z</time>
      </trkpt>
      <trkpt lat="47.23513" lon="-2.29591">
        <ele>16</ele>
        <time>2021-05-23T07:38:03.983Z</time>
      </trkpt>
      <trkpt lat="47.23511" lon="-2.29594">
        <ele>16</ele>
        <time>2021-05-23T07:38:04.983Z</time>
      </trkpt>
      <trkpt lat="47.23509" lon="-2.29596">
        <ele>15</ele>
        <time>2021-05-23T07:38:05.982Z</time>
      </trkpt>
      <trkpt lat="47.23507" lon="-2.29599">
        <ele>15</ele>
        <time>2021-05-23T07:38:06.982Z</time>
      </trkpt>
      <trkpt lat="47.23506" lon="-2.29602">
        <ele>15</ele>
        <time>2021-05-23T07:38:07.983Z</time>
      </trkpt>
      <trkpt lat="47.23505" lon="-2.29606">
        <ele>15</ele>
        <time>2021-05-23T07:38:08.983Z</time>
      </trkpt>
      <trkpt lat="47.23504" lon="-2.29608">
        <ele>15</ele>
        <time>2021-05-23T07:38:09.982Z</time>
      </trkpt>
      <trkpt lat="47.23504" lon="-2.29611">
        <ele>15</ele>
        <time>2021-05-23T07:38:10.983Z</time>
      </trkpt>
      <trkpt lat="47.23504" lon="-2.29613">
        <ele>15</ele>
        <time>2021-05-23T07:38:11.982Z</time>
      </trkpt>
      <trkpt lat="47.23504" lon="-2.29616">
        <ele>15</ele>
        <time>2021-05-23T07:38:12.983Z</time>
      </trkpt>
      <trkpt lat="47.23505" lon="-2.29617">
        <ele>15</ele>
        <time>2021-05-23T07:38:13.982Z</time>
      </trkpt>
      <trkpt lat="47.23505" lon="-2.2962">
        <ele>15</ele>
        <time>2021-05-23T07:38:14.983Z</time>
      </trkpt>
      <trkpt lat="47.23505" lon="-2.29622">
        <ele>15</ele>
        <time>2021-05-23T07:38:15.983Z</time>
      </trkpt>
      <trkpt lat="47.23505" lon="-2.29625">
        <ele>15</ele>
        <time>2021-05-23T07:38:16.983Z</time>
      </trkpt>
      <trkpt lat="47.23505" lon="-2.29629">
        <ele>15</ele>
        <time>2021-05-23T07:38:17.983Z</time>
      </trkpt>
      <trkpt lat="47.23506" lon="-2.29632">
        <ele>14</ele>
        <time>2021-05-23T07:38:18.983Z</time>
      </trkpt>
      <trkpt lat="47.23506" lon="-2.29636">
        <ele>14</ele>
        <time>2021-05-23T07:38:19.982Z</time>
      </trkpt>
      <trkpt lat="47.23507" lon="-2.29639">
        <ele>14</ele>
        <time>2021-05-23T07:38:20.983Z</time>
      </trkpt>
      <trkpt lat="47.23508" lon="-2.29641">
        <ele>13</ele>
        <time>2021-05-23T07:38:21.983Z</time>
      </trkpt>
      <trkpt lat="47.2351" lon="-2.29644">
        <ele>13</ele>
        <time>2021-05-23T07:38:22.982Z</time>
      </trkpt>
      <trkpt lat="47.23511" lon="-2.29646">
        <ele>13</ele>
        <time>2021-05-23T07:38:23.982Z</time>
      </trkpt>
      <trkpt lat="47.23512" lon="-2.29649">
        <ele>13</ele>
        <time>2021-05-23T07:38:24.983Z</time>
      </trkpt>
      <trkpt lat="47.23513" lon="-2.29651">
        <ele>13</ele>
        <time>2021-05-23T07:38:25.983Z</time>
      </trkpt>
      <trkpt lat="47.23514" lon="-2.29654">
        <ele>13</ele>
        <time>2021-05-23T07:38:26.983Z</time>
      </trkpt>
      <trkpt lat="47.23514" lon="-2.29657">
        <ele>13</ele>
        <time>2021-05-23T07:38:27.983Z</time>
      </trkpt>
      <trkpt lat="47.23514" lon="-2.2966">
        <ele>13</ele>
        <time>2021-05-23T07:38:28.983Z</time>
      </trkpt>
      <trkpt lat="47.23514" lon="-2.29663">
        <ele>13</ele>
        <time>2021-05-23T07:38:29.983Z</time>
      </trkpt>
      <trkpt lat="47.23513" lon="-2.29667">
        <ele>13</ele>
        <time>2021-05-23T07:38:30.983Z</time>
      </trkpt>
      <trkpt lat="47.23513" lon="-2.2967">
        <ele>13</ele>
        <time>2021-05-23T07:38:31.983Z</time>
      </trkpt>
      <trkpt lat="47.23513" lon="-2.29673">
        <ele>13</ele>
        <time>2021-05-23T07:38:32.983Z</time>
      </trkpt>
      <trkpt lat="47.23513" lon="-2.29676">
        <ele>13</ele>
        <time>2021-05-23T07:38:33.983Z</time>
      </trkpt>
      <trkpt lat="47.23513" lon="-2.29679">
        <ele>13</ele>
        <time>2021-05-23T07:38:34.983Z</time>
      </trkpt>
      <trkpt lat="47.23514" lon="-2.29683">
        <ele>12</ele>
        <time>2021-05-23T07:38:35.983Z</time>
      </trkpt>
      <trkpt lat="47.23514" lon="-2.29686">
        <ele>12</ele>
        <time>2021-05-23T07:38:36.983Z</time>
      </trkpt>
      <trkpt lat="47.23515" lon="-2.29689">
        <ele>12</ele>
        <time>2021-05-23T07:38:37.983Z</time>
      </trkpt>
      <trkpt lat="47.23515" lon="-2.29692">
        <ele>11</ele>
        <time>2021-05-23T07:38:38.982Z</time>
      </trkpt>
      <trkpt lat="47.23515" lon="-2.29695">
        <ele>11</ele>
        <time>2021-05-23T07:38:39.983Z</time>
      </trkpt>
      <trkpt lat="47.23515" lon="-2.29698">
        <ele>11</ele>
        <time>2021-05-23T07:38:40.983Z</time>
      </trkpt>
      <trkpt lat="47.23515" lon="-2.29701">
        <ele>10</ele>
        <time>2021-05-23T07:38:41.982Z</time>
      </trkpt>
      <trkpt lat="47.23515" lon="-2.29704">
        <ele>10</ele>
        <time>2021-05-23T07:38:42.983Z</time>
      </trkpt>
      <trkpt lat="47.23515" lon="-2.29708">
        <ele>9</ele>
        <time>2021-05-23T07:38:43.983Z</time>
      </trkpt>
      <trkpt lat="47.23514" lon="-2.2971">
        <ele>9</ele>
        <time>2021-05-23T07:38:44.983Z</time>
      </trkpt>
      <trkpt lat="47.23512" lon="-2.29712">
        <ele>9</ele>
        <time>2021-05-23T07:38:45.983Z</time>
      </trkpt>
      <trkpt lat="47.23511" lon="-2.29714">
        <ele>9</ele>
        <time>2021-05-23T07:38:46.983Z</time>
      </trkpt>
      <trkpt lat="47.2351" lon="-2.29717">
        <ele>8</ele>
        <time>2021-05-23T07:38:47.983Z</time>
      </trkpt>
      <trkpt lat="47.23509" lon="-2.29721">
        <ele>8</ele>
        <time>2021-05-23T07:38:48.982Z</time>
      </trkpt>
      <trkpt lat="47.23508" lon="-2.29725">
        <ele>8</ele>
        <time>2021-05-23T07:38:49.983Z</time>
      </trkpt>
      <trkpt lat="47.23507" lon="-2.29727">
        <ele>8</ele>
        <time>2021-05-23T07:38:50.982Z</time>
      </trkpt>
      <trkpt lat="47.23506" lon="-2.2973">
        <ele>8</ele>
        <time>2021-05-23T07:38:51.983Z</time>
      </trkpt>
      <trkpt lat="47.23504" lon="-2.29732">
        <ele>8</ele>
        <time>2021-05-23T07:38:52.982Z</time>
      </trkpt>
      <trkpt lat="47.23503" lon="-2.29734">
        <ele>8</ele>
        <time>2021-05-23T07:38:53.983Z</time>
      </trkpt>
      <trkpt lat="47.23502" lon="-2.29737">
        <ele>8</ele>
        <time>2021-05-23T07:38:54.982Z</time>
      </trkpt>
      <trkpt lat="47.23501" lon="-2.29739">
        <ele>8</ele>
        <time>2021-05-23T07:38:55.982Z</time>
      </trkpt>
      <trkpt lat="47.235" lon="-2.29742">
        <ele>8</ele>
        <time>2021-05-23T07:38:56.983Z</time>
      </trkpt>
      <trkpt lat="47.23498" lon="-2.29745">
        <ele>8</ele>
        <time>2021-05-23T07:38:57.982Z</time>
      </trkpt>
      <trkpt lat="47.23497" lon="-2.29748">
        <ele>8</ele>
        <time>2021-05-23T07:38:58.982Z</time>
      </trkpt>
      <trkpt lat="47.23495" lon="-2.29751">
        <ele>9</ele>
        <time>2021-05-23T07:38:59.983Z</time>
      </trkpt>
      <trkpt lat="47.23494" lon="-2.29754">
        <ele>9</ele>
        <time>2021-05-23T07:39:00.983Z</time>
      </trkpt>
      <trkpt lat="47.23494" lon="-2.29757">
        <ele>9</ele>
        <time>2021-05-23T07:39:01.982Z</time>
      </trkpt>
      <trkpt lat="47.23493" lon="-2.29761">
        <ele>10</ele>
        <time>2021-05-23T07:39:02.982Z</time>
      </trkpt>
      <trkpt lat="47.23492" lon="-2.29765">
        <ele>10</ele>
        <time>2021-05-23T07:39:03.983Z</time>
      </trkpt>
      <trkpt lat="47.23491" lon="-2.29768">
        <ele>11</ele>
        <time>2021-05-23T07:39:04.982Z</time>
      </trkpt>
      <trkpt lat="47.2349" lon="-2.2977">
        <ele>11</ele>
        <time>2021-05-23T07:39:05.983Z</time>
      </trkpt>
      <trkpt lat="47.23489" lon="-2.29774">
        <ele>12</ele>
        <time>2021-05-23T07:39:06.982Z</time>
      </trkpt>
      <trkpt lat="47.23487" lon="-2.29776">
        <ele>13</ele>
        <time>2021-05-23T07:39:07.982Z</time>
      </trkpt>
      <trkpt lat="47.23486" lon="-2.29779">
        <ele>13</ele>
        <time>2021-05-23T07:39:08.983Z</time>
      </trkpt>
      <trkpt lat="47.23484" lon="-2.29782">
        <ele>14</ele>
        <time>2021-05-23T07:39:09.982Z</time>
      </trkpt>
      <trkpt lat="47.23483" lon="-2.29784">
        <ele>14</ele>
        <time>2021-05-23T07:39:10.982Z</time>
      </trkpt>
      <trkpt lat="47.23482" lon="-2.29787">
        <ele>14</ele>
        <time>2021-05-23T07:39:11.982Z</time>
      </trkpt>
      <trkpt lat="47.2348" lon="-2.29791">
        <ele>15</ele>
        <time>2021-05-23T07:39:12.983Z</time>
      </trkpt>
      <trkpt lat="47.23479" lon="-2.29793">
        <ele>15</ele>
        <time>2021-05-23T07:39:13.983Z</time>
      </trkpt>
      <trkpt lat="47.23478" lon="-2.29795">
        <ele>16</ele>
        <time>2021-05-23T07:39:14.982Z</time>
      </trkpt>
      <trkpt lat="47.23477" lon="-2.29797">
        <ele>16</ele>
        <time>2021-05-23T07:39:15.982Z</time>
      </trkpt>
      <trkpt lat="47.23475" lon="-2.29799">
        <ele>16</ele>
        <time>2021-05-23T07:39:16.983Z</time>
      </trkpt>
      <trkpt lat="47.23474" lon="-2.29801">
        <ele>17</ele>
        <time>2021-05-23T07:39:17.983Z</time>
      </trkpt>
      <trkpt lat="47.23472" lon="-2.29804">
        <ele>17</ele>
        <time>2021-05-23T07:39:18.982Z</time>
      </trkpt>
      <trkpt lat="47.23472" lon="-2.29807">
        <ele>17</ele>
        <time>2021-05-23T07:39:19.983Z</time>
      </trkpt>
      <trkpt lat="47.23471" lon="-2.2981">
        <ele>18</ele>
        <time>2021-05-23T07:39:20.983Z</time>
      </trkpt>
      <trkpt lat="47.23471" lon="-2.29812">
        <ele>18</ele>
        <time>2021-05-23T07:39:21.983Z</time>
      </trkpt>
      <trkpt lat="47.23471" lon="-2.29815">
        <ele>19</ele>
        <time>2021-05-23T07:39:22.983Z</time>
      </trkpt>
      <trkpt lat="47.2347" lon="-2.29818">
        <ele>19</ele>
        <time>2021-05-23T07:39:23.983Z</time>
      </trkpt>
      <trkpt lat="47.23471" lon="-2.29821">
        <ele>20</ele>
        <time>2021-05-23T07:39:24.983Z</time>
      </trkpt>
      <trkpt lat="47.23471" lon="-2.29823">
        <ele>20</ele>
        <time>2021-05-23T07:39:25.983Z</time>
      </trkpt>
      <trkpt lat="47.23471" lon="-2.29827">
        <ele>21</ele>
        <time>2021-05-23T07:39:26.983Z</time>
      </trkpt>
      <trkpt lat="47.23472" lon="-2.2983">
        <ele>21</ele>
        <time>2021-05-23T07:39:27.983Z</time>
      </trkpt>
      <trkpt lat="47.23472" lon="-2.29833">
        <ele>21</ele>
        <time>2021-05-23T07:39:28.983Z</time>
      </trkpt>
      <trkpt lat="47.23472" lon="-2.29836">
        <ele>21</ele>
        <time>2021-05-23T07:39:29.982Z</time>
      </trkpt>
      <trkpt lat="47.23472" lon="-2.29839">
        <ele>21</ele>
        <time>2021-05-23T07:39:30.982Z</time>
      </trkpt>
      <trkpt lat="47.23472" lon="-2.29842">
        <ele>21</ele>
        <time>2021-05-23T07:39:31.982Z</time>
      </trkpt>
      <trkpt lat="47.2347" lon="-2.29845">
        <ele>21</ele>
        <time>2021-05-23T07:39:32.983Z</time>
      </trkpt>
      <trkpt lat="47.23467" lon="-2.29847">
        <ele>21</ele>
        <time>2021-05-23T07:39:33.982Z</time>
      </trkpt>
      <trkpt lat="47.23464" lon="-2.29849">
        <ele>21</ele>
        <time>2021-05-23T07:39:34.983Z</time>
      </trkpt>
      <trkpt lat="47.23462" lon="-2.29851">
        <ele>21</ele>
        <time>2021-05-23T07:39:35.983Z</time>
      </trkpt>
      <trkpt lat="47.23459" lon="-2.29853">
        <ele>21</ele>
        <time>2021-05-23T07:39:36.983Z</time>
      </trkpt>
      <trkpt lat="47.23457" lon="-2.29854">
        <ele>21</ele>
        <time>2021-05-23T07:39:37.983Z</time>
      </trkpt>
      <trkpt lat="47.23454" lon="-2.29855">
        <ele>22</ele>
        <time>2021-05-23T07:39:38.983Z</time>
      </trkpt>
      <trkpt lat="47.23452" lon="-2.29856">
        <ele>22</ele>
        <time>2021-05-23T07:39:39.982Z</time>
      </trkpt>
      <trkpt lat="47.23449" lon="-2.29856">
        <ele>22</ele>
        <time>2021-05-23T07:39:40.982Z</time>
      </trkpt>
      <trkpt lat="47.23447" lon="-2.29856">
        <ele>23</ele>
        <time>2021-05-23T07:39:41.983Z</time>
      </trkpt>
      <trkpt lat="47.23446" lon="-2.29856">
        <ele>23</ele>
        <time>2021-05-23T07:39:42.983Z</time>
      </trkpt>
      <trkpt lat="47.23445" lon="-2.29856">
        <ele>23</ele>
        <time>2021-05-23T07:39:43.983Z</time>
      </trkpt>
      <trkpt lat="47.23444" lon="-2.29856">
        <ele>23</ele>
        <time>2021-05-23T07:39:44.983Z</time>
      </trkpt>
      <trkpt lat="47.23444" lon="-2.29856">
        <ele>23</ele>
        <time>2021-05-23T07:39:45.983Z</time>
      </trkpt>
      <trkpt lat="47.23443" lon="-2.29856">
        <ele>22</ele>
        <time>2021-05-23T07:39:46.983Z</time>
      </trkpt>
      <trkpt lat="47.23443" lon="-2.29855">
        <ele>22</ele>
        <time>2021-05-23T07:39:47.983Z</time>
      </trkpt>
      <trkpt lat="47.23442" lon="-2.29854">
        <ele>21</ele>
        <time>2021-05-23T07:39:48.982Z</time>
      </trkpt>
      <trkpt lat="47.23442" lon="-2.29852">
        <ele>21</ele>
        <time>2021-05-23T07:39:49.982Z</time>
      </trkpt>
      <trkpt lat="47.2344" lon="-2.29851">
        <ele>21</ele>
        <time>2021-05-23T07:39:50.983Z</time>
      </trkpt>
      <trkpt lat="47.23439" lon="-2.29849">
        <ele>20</ele>
        <time>2021-05-23T07:39:51.982Z</time>
      </trkpt>
      <trkpt lat="47.23437" lon="-2.29847">
        <ele>20</ele>
        <time>2021-05-23T07:39:52.982Z</time>
      </trkpt>
      <trkpt lat="47.23435" lon="-2.29846">
        <ele>20</ele>
        <time>2021-05-23T07:39:53.983Z</time>
      </trkpt>
      <trkpt lat="47.23433" lon="-2.29844">
        <ele>20</ele>
        <time>2021-05-23T07:39:54.983Z</time>
      </trkpt>
      <trkpt lat="47.23431" lon="-2.29843">
        <ele>20</ele>
        <time>2021-05-23T07:39:55.983Z</time>
      </trkpt>
      <trkpt lat="47.23429" lon="-2.29842">
        <ele>20</ele>
        <time>2021-05-23T07:39:56.983Z</time>
      </trkpt>
      <trkpt lat="47.23427" lon="-2.2984">
        <ele>19</ele>
        <time>2021-05-23T07:39:57.983Z</time>
      </trkpt>
      <trkpt lat="47.23425" lon="-2.29839">
        <ele>19</ele>
        <time>2021-05-23T07:39:58.983Z</time>
      </trkpt>
      <trkpt lat="47.23423" lon="-2.29839">
        <ele>19</ele>
        <time>2021-05-23T07:39:59.982Z</time>
      </trkpt>
      <trkpt lat="47.23421" lon="-2.29838">
        <ele>18</ele>
        <time>2021-05-23T07:40:00.983Z</time>
      </trkpt>
      <trkpt lat="47.23419" lon="-2.29836">
        <ele>18</ele>
        <time>2021-05-23T07:40:01.983Z</time>
      </trkpt>
      <trkpt lat="47.23417" lon="-2.29834">
        <ele>18</ele>
        <time>2021-05-23T07:40:02.983Z</time>
      </trkpt>
      <trkpt lat="47.23415" lon="-2.29833">
        <ele>17</ele>
        <time>2021-05-23T07:40:03.983Z</time>
      </trkpt>
      <trkpt lat="47.23412" lon="-2.29832">
        <ele>17</ele>
        <time>2021-05-23T07:40:04.982Z</time>
      </trkpt>
      <trkpt lat="47.23409" lon="-2.29831">
        <ele>16</ele>
        <time>2021-05-23T07:40:05.983Z</time>
      </trkpt>
      <trkpt lat="47.23408" lon="-2.29831">
        <ele>16</ele>
        <time>2021-05-23T07:40:06.983Z</time>
      </trkpt>
      <trkpt lat="47.23406" lon="-2.29832">
        <ele>15</ele>
        <time>2021-05-23T07:40:07.982Z</time>
      </trkpt>
      <trkpt lat="47.23406" lon="-2.29833">
        <ele>15</ele>
        <time>2021-05-23T07:40:08.982Z</time>
      </trkpt>
      <trkpt lat="47.23405" lon="-2.29835">
        <ele>15</ele>
        <time>2021-05-23T07:40:09.982Z</time>
      </trkpt>
      <trkpt lat="47.23405" lon="-2.29836">
        <ele>15</ele>
        <time>2021-05-23T07:40:10.982Z</time>
      </trkpt>
      <trkpt lat="47.23404" lon="-2.29838">
        <ele>14</ele>
        <time>2021-05-23T07:40:11.982Z</time>
      </trkpt>
      <trkpt lat="47.23403" lon="-2.29838">
        <ele>14</ele>
        <time>2021-05-23T07:40:12.983Z</time>
      </trkpt>
      <trkpt lat="47.23403" lon="-2.29836">
        <ele>14</ele>
        <time>2021-05-23T07:40:13.983Z</time>
      </trkpt>
      <trkpt lat="47.23404" lon="-2.29835">
        <ele>14</ele>
        <time>2021-05-23T07:40:14.983Z</time>
      </trkpt>
      <trkpt lat="47.23403" lon="-2.29834">
        <ele>13</ele>
        <time>2021-05-23T07:40:15.983Z</time>
      </trkpt>
      <trkpt lat="47.23403" lon="-2.29834">
        <ele>13</ele>
        <time>2021-05-23T07:40:16.983Z</time>
      </trkpt>
      <trkpt lat="47.23402" lon="-2.29834">
        <ele>13</ele>
        <time>2021-05-23T07:40:17.983Z</time>
      </trkpt>
      <trkpt lat="47.23402" lon="-2.29834">
        <ele>12</ele>
        <time>2021-05-23T07:40:18.983Z</time>
      </trkpt>
      <trkpt lat="47.23401" lon="-2.29834">
        <ele>12</ele>
        <time>2021-05-23T07:40:19.983Z</time>
      </trkpt>
      <trkpt lat="47.234" lon="-2.29835">
        <ele>11</ele>
        <time>2021-05-23T07:40:20.983Z</time>
      </trkpt>
      <trkpt lat="47.234" lon="-2.29837">
        <ele>11</ele>
        <time>2021-05-23T07:40:21.983Z</time>
      </trkpt>
      <trkpt lat="47.23399" lon="-2.29837">
        <ele>10</ele>
        <time>2021-05-23T07:40:22.983Z</time>
      </trkpt>
      <trkpt lat="47.23399" lon="-2.29838">
        <ele>10</ele>
        <time>2021-05-23T07:40:23.982Z</time>
      </trkpt>
      <trkpt lat="47.23399" lon="-2.29838">
        <ele>9</ele>
        <time>2021-05-23T07:40:24.983Z</time>
      </trkpt>
      <trkpt lat="47.23399" lon="-2.29839">
        <ele>8</ele>
        <time>2021-05-23T07:40:25.983Z</time>
      </trkpt>
      <trkpt lat="47.23398" lon="-2.29841">
        <ele>8</ele>
        <time>2021-05-23T07:40:26.982Z</time>
      </trkpt>
      <trkpt lat="47.23398" lon="-2.29843">
        <ele>7</ele>
        <time>2021-05-23T07:40:27.983Z</time>
      </trkpt>
      <trkpt lat="47.23397" lon="-2.29844">
        <ele>7</ele>
        <time>2021-05-23T07:40:28.983Z</time>
      </trkpt>
      <trkpt lat="47.23397" lon="-2.29846">
        <ele>7</ele>
        <time>2021-05-23T07:40:29.982Z</time>
      </trkpt>
      <trkpt lat="47.23396" lon="-2.29847">
        <ele>7</ele>
        <time>2021-05-23T07:40:30.983Z</time>
      </trkpt>
      <trkpt lat="47.23395" lon="-2.29848">
        <ele>7</ele>
        <time>2021-05-23T07:40:31.983Z</time>
      </trkpt>
      <trkpt lat="47.23395" lon="-2.29849">
        <ele>8</ele>
        <time>2021-05-23T07:40:32.982Z</time>
      </trkpt>
      <trkpt lat="47.23395" lon="-2.2985">
        <ele>8</ele>
        <time>2021-05-23T07:40:33.983Z</time>
      </trkpt>
      <trkpt lat="47.23396" lon="-2.2985">
        <ele>8</ele>
        <time>2021-05-23T07:40:34.983Z</time>
      </trkpt>
      <trkpt lat="47.23396" lon="-2.29851">
        <ele>8</ele>
        <time>2021-05-23T07:40:35.982Z</time>
      </trkpt>
      <trkpt lat="47.23397" lon="-2.29852">
        <ele>8</ele>
        <time>2021-05-23T07:40:36.983Z</time>
      </trkpt>
      <trkpt lat="47.23398" lon="-2.29852">
        <ele>7</ele>
        <time>2021-05-23T07:40:37.982Z</time>
      </trkpt>
      <trkpt lat="47.23398" lon="-2.29852">
        <ele>7</ele>
        <time>2021-05-23T07:40:38.983Z</time>
      </trkpt>
      <trkpt lat="47.23398" lon="-2.29852">
        <ele>7</ele>
        <time>2021-05-23T07:40:39.983Z</time>
      </trkpt>
      <trkpt lat="47.23398" lon="-2.29851">
        <ele>7</ele>
        <time>2021-05-23T07:40:40.983Z</time>
      </trkpt>
      <trkpt lat="47.23397" lon="-2.29851">
        <ele>7</ele>
        <time>2021-05-23T07:40:41.982Z</time>
      </trkpt>
      <trkpt lat="47.23397" lon="-2.29851">
        <ele>7</ele>
        <time>2021-05-23T07:40:42.983Z</time>
      </trkpt>
      <trkpt lat="47.23395" lon="-2.29851">
        <ele>7</ele>
        <time>2021-05-23T07:40:43.983Z</time>
      </trkpt>
      <trkpt lat="47.23394" lon="-2.29851">
        <ele>7</ele>
        <time>2021-05-23T07:40:44.983Z</time>
      </trkpt>
      <trkpt lat="47.23393" lon="-2.29852">
        <ele>8</ele>
        <time>2021-05-23T07:40:45.982Z</time>
      </trkpt>
      <trkpt lat="47.23392" lon="-2.29852">
        <ele>8</ele>
        <time>2021-05-23T07:40:46.983Z</time>
      </trkpt>
      <trkpt lat="47.2339" lon="-2.29851">
        <ele>9</ele>
        <time>2021-05-23T07:40:47.982Z</time>
      </trkpt>
      <trkpt lat="47.23389" lon="-2.2985">
        <ele>10</ele>
        <time>2021-05-23T07:40:48.982Z</time>
      </trkpt>
      <trkpt lat="47.23387" lon="-2.29851">
        <ele>11</ele>
        <time>2021-05-23T07:40:49.982Z</time>
      </trkpt>
      <trkpt lat="47.23386" lon="-2.29851">
        <ele>11</ele>
        <time>2021-05-23T07:40:50.983Z</time>
      </trkpt>
      <trkpt lat="47.23385" lon="-2.29852">
        <ele>12</ele>
        <time>2021-05-23T07:40:51.983Z</time>
      </trkpt>
      <trkpt lat="47.23384" lon="-2.29854">
        <ele>12</ele>
        <time>2021-05-23T07:40:52.983Z</time>
      </trkpt>
      <trkpt lat="47.23382" lon="-2.29854">
        <ele>13</ele>
        <time>2021-05-23T07:40:53.983Z</time>
      </trkpt>
      <trkpt lat="47.23381" lon="-2.29855">
        <ele>13</ele>
        <time>2021-05-23T07:40:54.983Z</time>
      </trkpt>
      <trkpt lat="47.2338" lon="-2.29856">
        <ele>13</ele>
        <time>2021-05-23T07:40:55.983Z</time>
      </trkpt>
      <trkpt lat="47.23378" lon="-2.29856">
        <ele>14</ele>
        <time>2021-05-23T07:40:56.983Z</time>
      </trkpt>
      <trkpt lat="47.23377" lon="-2.29855">
        <ele>14</ele>
        <time>2021-05-23T07:40:57.983Z</time>
      </trkpt>
      <trkpt lat="47.23375" lon="-2.29855">
        <ele>14</ele>
        <time>2021-05-23T07:40:58.983Z</time>
      </trkpt>
      <trkpt lat="47.23374" lon="-2.29854">
        <ele>14</ele>
        <time>2021-05-23T07:40:59.983Z</time>
      </trkpt>
      <trkpt lat="47.23373" lon="-2.29853">
        <ele>14</ele>
        <time>2021-05-23T07:41:00.983Z</time>
      </trkpt>
      <trkpt lat="47.23371" lon="-2.29851">
        <ele>14</ele>
        <time>2021-05-23T07:41:01.982Z</time>
      </trkpt>
      <trkpt lat="47.2337" lon="-2.2985">
        <ele>14</ele>
        <time>2021-05-23T07:41:02.983Z</time>
      </trkpt>
      <trkpt lat="47.23368" lon="-2.29848">
        <ele>14</ele>
        <time>2021-05-23T07:41:03.983Z</time>
      </trkpt>
      <trkpt lat="47.23366" lon="-2.29847">
        <ele>14</ele>
        <time>2021-05-23T07:41:04.983Z</time>
      </trkpt>
      <trkpt lat="47.23365" lon="-2.29845">
        <ele>14</ele>
        <time>2021-05-23T07:41:05.982Z</time>
      </trkpt>
      <trkpt lat="47.23362" lon="-2.29843">
        <ele>14</ele>
        <time>2021-05-23T07:41:06.982Z</time>
      </trkpt>
      <trkpt lat="47.2336" lon="-2.29842">
        <ele>14</ele>
        <time>2021-05-23T07:41:07.982Z</time>
      </trkpt>
      <trkpt lat="47.23359" lon="-2.29841">
        <ele>15</ele>
        <time>2021-05-23T07:41:08.983Z</time>
      </trkpt>
      <trkpt lat="47.23357" lon="-2.2984">
        <ele>15</ele>
        <time>2021-05-23T07:41:09.983Z</time>
      </trkpt>
      <trkpt lat="47.23355" lon="-2.2984">
        <ele>15</ele>
        <time>2021-05-23T07:41:10.982Z</time>
      </trkpt>
      <trkpt lat="47.23353" lon="-2.29841">
        <ele>15</ele>
        <time>2021-05-23T07:41:11.982Z</time>
      </trkpt>
      <trkpt lat="47.23352" lon="-2.29843">
        <ele>15</ele>
        <time>2021-05-23T07:41:12.983Z</time>
      </trkpt>
      <trkpt lat="47.23351" lon="-2.29845">
        <ele>15</ele>
        <time>2021-05-23T07:41:13.983Z</time>
      </trkpt>
      <trkpt lat="47.2335" lon="-2.29847">
        <ele>15</ele>
        <time>2021-05-23T07:41:14.983Z</time>
      </trkpt>
      <trkpt lat="47.2335" lon="-2.2985">
        <ele>15</ele>
        <time>2021-05-23T07:41:15.982Z</time>
      </trkpt>
      <trkpt lat="47.23351" lon="-2.29852">
        <ele>15</ele>
        <time>2021-05-23T07:41:16.983Z</time>
      </trkpt>
      <trkpt lat="47.23352" lon="-2.29855">
        <ele>14</ele>
        <time>2021-05-23T07:41:17.983Z</time>
      </trkpt>
      <trkpt lat="47.23354" lon="-2.29856">
        <ele>13</ele>
        <time>2021-05-23T07:41:18.983Z</time>
      </trkpt>
      <trkpt lat="47.23355" lon="-2.29858">
        <ele>12</ele>
        <time>2021-05-23T07:41:19.982Z</time>
      </trkpt>
      <trkpt lat="47.23357" lon="-2.29859">
        <ele>11</ele>
        <time>2021-05-23T07:41:20.982Z</time>
      </trkpt>
      <trkpt lat="47.23358" lon="-2.2986">
        <ele>11</ele>
        <time>2021-05-23T07:41:21.982Z</time>
      </trkpt>
      <trkpt lat="47.23358" lon="-2.2986">
        <ele>10</ele>
        <time>2021-05-23T07:41:22.983Z</time>
      </trkpt>
      <trkpt lat="47.23359" lon="-2.29861">
        <ele>10</ele>
        <time>2021-05-23T07:41:23.983Z</time>
      </trkpt>
      <trkpt lat="47.23359" lon="-2.29861">
        <ele>11</ele>
        <time>2021-05-23T07:41:24.982Z</time>
      </trkpt>
      <trkpt lat="47.23359" lon="-2.29861">
        <ele>11</ele>
        <time>2021-05-23T07:41:25.982Z</time>
      </trkpt>
      <trkpt lat="47.23359" lon="-2.29861">
        <ele>12</ele>
        <time>2021-05-23T07:41:26.982Z</time>
      </trkpt>
      <trkpt lat="47.23358" lon="-2.29861">
        <ele>12</ele>
        <time>2021-05-23T07:41:27.982Z</time>
      </trkpt>
      <trkpt lat="47.23358" lon="-2.29861">
        <ele>12</ele>
        <time>2021-05-23T07:41:28.983Z</time>
      </trkpt>
      <trkpt lat="47.23358" lon="-2.29861">
        <ele>13</ele>
        <time>2021-05-23T07:41:29.983Z</time>
      </trkpt>
      <trkpt lat="47.23358" lon="-2.29861">
        <ele>13</ele>
        <time>2021-05-23T07:41:30.983Z</time>
      </trkpt>
      <trkpt lat="47.23358" lon="-2.29861">
        <ele>13</ele>
        <time>2021-05-23T07:41:31.982Z</time>
      </trkpt>
      <trkpt lat="47.23358" lon="-2.29861">
        <ele>13</ele>
        <time>2021-05-23T07:41:32.982Z</time>
      </trkpt>
      <trkpt lat="47.23358" lon="-2.29861">
        <ele>13</ele>
        <time>2021-05-23T07:41:33.982Z</time>
      </trkpt>
      <trkpt lat="47.23358" lon="-2.29861">
        <ele>13</ele>
        <time>2021-05-23T07:41:34.982Z</time>
      </trkpt>
      <trkpt lat="47.23358" lon="-2.29861">
        <ele>13</ele>
        <time>2021-05-23T07:41:35.982Z</time>
      </trkpt>
      <trkpt lat="47.23358" lon="-2.29861">
        <ele>12</ele>
        <time>2021-05-23T07:41:36.982Z</time>
      </trkpt>
      <trkpt lat="47.23358" lon="-2.29861">
        <ele>12</ele>
        <time>2021-05-23T07:41:37.983Z</time>
      </trkpt>
      <trkpt lat="47.23358" lon="-2.29861">
        <ele>12</ele>
        <time>2021-05-23T07:41:38.982Z</time>
      </trkpt>
      <trkpt lat="47.23358" lon="-2.29861">
        <ele>12</ele>
        <time>2021-05-23T07:41:39.983Z</time>
      </trkpt>
      <trkpt lat="47.23358" lon="-2.29861">
        <ele>12</ele>
        <time>2021-05-23T07:41:40.982Z</time>
      </trkpt>
      <trkpt lat="47.23358" lon="-2.29861">
        <ele>12</ele>
        <time>2021-05-23T07:41:41.982Z</time>
      </trkpt>
      <trkpt lat="47.23358" lon="-2.29861">
        <ele>11</ele>
        <time>2021-05-23T07:41:42.983Z</time>
      </trkpt>
      <trkpt lat="47.2336" lon="-2.29862">
        <ele>11</ele>
        <time>2021-05-23T07:41:43.983Z</time>
      </trkpt>
      <trkpt lat="47.23363" lon="-2.29864">
        <ele>11</ele>
        <time>2021-05-23T07:41:44.982Z</time>
      </trkpt>
      <trkpt lat="47.23365" lon="-2.29865">
        <ele>11</ele>
        <time>2021-05-23T07:41:45.982Z</time>
      </trkpt>
      <trkpt lat="47.23368" lon="-2.29867">
        <ele>11</ele>
        <time>2021-05-23T07:41:46.982Z</time>
      </trkpt>
      <trkpt lat="47.2337" lon="-2.2987">
        <ele>11</ele>
        <time>2021-05-23T07:41:47.982Z</time>
      </trkpt>
      <trkpt lat="47.23372" lon="-2.29872">
        <ele>10</ele>
        <time>2021-05-23T07:41:48.983Z</time>
      </trkpt>
      <trkpt lat="47.23374" lon="-2.29873">
        <ele>10</ele>
        <time>2021-05-23T07:41:49.982Z</time>
      </trkpt>
      <trkpt lat="47.23377" lon="-2.29876">
        <ele>10</ele>
        <time>2021-05-23T07:41:50.982Z</time>
      </trkpt>
      <trkpt lat="47.23379" lon="-2.29878">
        <ele>9</ele>
        <time>2021-05-23T07:41:51.982Z</time>
      </trkpt>
      <trkpt lat="47.23381" lon="-2.2988">
        <ele>9</ele>
        <time>2021-05-23T07:41:52.982Z</time>
      </trkpt>
      <trkpt lat="47.23382" lon="-2.29881">
        <ele>8</ele>
        <time>2021-05-23T07:41:53.982Z</time>
      </trkpt>
      <trkpt lat="47.23383" lon="-2.29882">
        <ele>8</ele>
        <time>2021-05-23T07:41:54.983Z</time>
      </trkpt>
      <trkpt lat="47.23384" lon="-2.29884">
        <ele>7</ele>
        <time>2021-05-23T07:41:55.983Z</time>
      </trkpt>
      <trkpt lat="47.23385" lon="-2.29885">
        <ele>7</ele>
        <time>2021-05-23T07:41:56.983Z</time>
      </trkpt>
      <trkpt lat="47.23386" lon="-2.29887">
        <ele>8</ele>
        <time>2021-05-23T07:41:57.982Z</time>
      </trkpt>
      <trkpt lat="47.23387" lon="-2.29888">
        <ele>8</ele>
        <time>2021-05-23T07:41:58.983Z</time>
      </trkpt>
      <trkpt lat="47.23388" lon="-2.29889">
        <ele>8</ele>
        <time>2021-05-23T07:41:59.982Z</time>
      </trkpt>
      <trkpt lat="47.23389" lon="-2.2989">
        <ele>8</ele>
        <time>2021-05-23T07:42:00.983Z</time>
      </trkpt>
      <trkpt lat="47.2339" lon="-2.29892">
        <ele>8</ele>
        <time>2021-05-23T07:42:01.983Z</time>
      </trkpt>
      <trkpt lat="47.23392" lon="-2.29893">
        <ele>8</ele>
        <time>2021-05-23T07:42:02.983Z</time>
      </trkpt>
      <trkpt lat="47.23393" lon="-2.29894">
        <ele>9</ele>
        <time>2021-05-23T07:42:03.982Z</time>
      </trkpt>
      <trkpt lat="47.23394" lon="-2.29896">
        <ele>9</ele>
        <time>2021-05-23T07:42:04.983Z</time>
      </trkpt>
      <trkpt lat="47.23395" lon="-2.29897">
        <ele>10</ele>
        <time>2021-05-23T07:42:05.983Z</time>
      </trkpt>
      <trkpt lat="47.23397" lon="-2.29899">
        <ele>10</ele>
        <time>2021-05-23T07:42:06.983Z</time>
      </trkpt>
      <trkpt lat="47.23398" lon="-2.299">
        <ele>11</ele>
        <time>2021-05-23T07:42:07.983Z</time>
      </trkpt>
      <trkpt lat="47.23399" lon="-2.29902">
        <ele>11</ele>
        <time>2021-05-23T07:42:08.983Z</time>
      </trkpt>
      <trkpt lat="47.234" lon="-2.29903">
        <ele>11</ele>
        <time>2021-05-23T07:42:09.983Z</time>
      </trkpt>
      <trkpt lat="47.23401" lon="-2.29905">
        <ele>11</ele>
        <time>2021-05-23T07:42:10.983Z</time>
      </trkpt>
      <trkpt lat="47.23402" lon="-2.29906">
        <ele>11</ele>
        <time>2021-05-23T07:42:11.983Z</time>
      </trkpt>
      <trkpt lat="47.23403" lon="-2.29907">
        <ele>11</ele>
        <time>2021-05-23T07:42:12.983Z</time>
      </trkpt>
      <trkpt lat="47.23404" lon="-2.29908">
        <ele>11</ele>
        <time>2021-05-23T07:42:13.982Z</time>
      </trkpt>
      <trkpt lat="47.23404" lon="-2.29909">
        <ele>11</ele>
        <time>2021-05-23T07:42:14.983Z</time>
      </trkpt>
      <trkpt lat="47.23405" lon="-2.2991">
        <ele>11</ele>
        <time>2021-05-23T07:42:15.983Z</time>
      </trkpt>
      <trkpt lat="47.23405" lon="-2.2991">
        <ele>11</ele>
        <time>2021-05-23T07:42:16.983Z</time>
      </trkpt>
      <trkpt lat="47.23405" lon="-2.29911">
        <ele>12</ele>
        <time>2021-05-23T07:42:17.983Z</time>
      </trkpt>
      <trkpt lat="47.23406" lon="-2.29912">
        <ele>12</ele>
        <time>2021-05-23T07:42:18.982Z</time>
      </trkpt>
      <trkpt lat="47.23407" lon="-2.29913">
        <ele>12</ele>
        <time>2021-05-23T07:42:19.983Z</time>
      </trkpt>
      <trkpt lat="47.23409" lon="-2.29914">
        <ele>12</ele>
        <time>2021-05-23T07:42:20.983Z</time>
      </trkpt>
      <trkpt lat="47.2341" lon="-2.29916">
        <ele>13</ele>
        <time>2021-05-23T07:42:21.982Z</time>
      </trkpt>
      <trkpt lat="47.23412" lon="-2.29917">
        <ele>12</ele>
        <time>2021-05-23T07:42:22.982Z</time>
      </trkpt>
      <trkpt lat="47.23415" lon="-2.29918">
        <ele>12</ele>
        <time>2021-05-23T07:42:23.982Z</time>
      </trkpt>
      <trkpt lat="47.23416" lon="-2.29919">
        <ele>12</ele>
        <time>2021-05-23T07:42:24.982Z</time>
      </trkpt>
      <trkpt lat="47.23418" lon="-2.29919">
        <ele>12</ele>
        <time>2021-05-23T07:42:25.983Z</time>
      </trkpt>
      <trkpt lat="47.2342" lon="-2.2992">
        <ele>12</ele>
        <time>2021-05-23T07:42:26.982Z</time>
      </trkpt>
      <trkpt lat="47.23421" lon="-2.2992">
        <ele>12</ele>
        <time>2021-05-23T07:42:27.982Z</time>
      </trkpt>
      <trkpt lat="47.23423" lon="-2.2992">
        <ele>12</ele>
        <time>2021-05-23T07:42:28.983Z</time>
      </trkpt>
      <trkpt lat="47.23425" lon="-2.29922">
        <ele>13</ele>
        <time>2021-05-23T07:42:29.982Z</time>
      </trkpt>
      <trkpt lat="47.23426" lon="-2.29922">
        <ele>12</ele>
        <time>2021-05-23T07:42:30.983Z</time>
      </trkpt>
      <trkpt lat="47.23427" lon="-2.29922">
        <ele>12</ele>
        <time>2021-05-23T07:42:31.983Z</time>
      </trkpt>
      <trkpt lat="47.23428" lon="-2.29922">
        <ele>12</ele>
        <time>2021-05-23T07:42:32.983Z</time>
      </trkpt>
      <trkpt lat="47.23429" lon="-2.29922">
        <ele>12</ele>
        <time>2021-05-23T07:42:33.983Z</time>
      </trkpt>
      <trkpt lat="47.2343" lon="-2.29922">
        <ele>12</ele>
        <time>2021-05-23T07:42:34.982Z</time>
      </trkpt>
      <trkpt lat="47.23431" lon="-2.29923">
        <ele>12</ele>
        <time>2021-05-23T07:42:35.982Z</time>
      </trkpt>
      <trkpt lat="47.23433" lon="-2.29924">
        <ele>11</ele>
        <time>2021-05-23T07:42:36.983Z</time>
      </trkpt>
      <trkpt lat="47.23435" lon="-2.29925">
        <ele>11</ele>
        <time>2021-05-23T07:42:37.983Z</time>
      </trkpt>
      <trkpt lat="47.23437" lon="-2.29927">
        <ele>11</ele>
        <time>2021-05-23T07:42:38.983Z</time>
      </trkpt>
      <trkpt lat="47.23438" lon="-2.29929">
        <ele>10</ele>
        <time>2021-05-23T07:42:39.983Z</time>
      </trkpt>
      <trkpt lat="47.23439" lon="-2.29931">
        <ele>10</ele>
        <time>2021-05-23T07:42:40.982Z</time>
      </trkpt>
      <trkpt lat="47.23441" lon="-2.29934">
        <ele>10</ele>
        <time>2021-05-23T07:42:41.983Z</time>
      </trkpt>
      <trkpt lat="47.23442" lon="-2.29936">
        <ele>9</ele>
        <time>2021-05-23T07:42:42.982Z</time>
      </trkpt>
      <trkpt lat="47.23444" lon="-2.29938">
        <ele>9</ele>
        <time>2021-05-23T07:42:43.983Z</time>
      </trkpt>
      <trkpt lat="47.23446" lon="-2.2994">
        <ele>9</ele>
        <time>2021-05-23T07:42:44.983Z</time>
      </trkpt>
      <trkpt lat="47.23448" lon="-2.29941">
        <ele>10</ele>
        <time>2021-05-23T07:42:45.983Z</time>
      </trkpt>
      <trkpt lat="47.23451" lon="-2.29943">
        <ele>9</ele>
        <time>2021-05-23T07:42:46.982Z</time>
      </trkpt>
      <trkpt lat="47.23453" lon="-2.29944">
        <ele>9</ele>
        <time>2021-05-23T07:42:47.983Z</time>
      </trkpt>
      <trkpt lat="47.23455" lon="-2.29945">
        <ele>9</ele>
        <time>2021-05-23T07:42:48.982Z</time>
      </trkpt>
      <trkpt lat="47.23457" lon="-2.29947">
        <ele>9</ele>
        <time>2021-05-23T07:42:49.982Z</time>
      </trkpt>
      <trkpt lat="47.23459" lon="-2.29949">
        <ele>10</ele>
        <time>2021-05-23T07:42:50.983Z</time>
      </trkpt>
      <trkpt lat="47.23461" lon="-2.29952">
        <ele>10</ele>
        <time>2021-05-23T07:42:51.983Z</time>
      </trkpt>
      <trkpt lat="47.23463" lon="-2.29955">
        <ele>10</ele>
        <time>2021-05-23T07:42:52.983Z</time>
      </trkpt>
      <trkpt lat="47.23465" lon="-2.29957">
        <ele>10</ele>
        <time>2021-05-23T07:42:53.982Z</time>
      </trkpt>
      <trkpt lat="47.23467" lon="-2.2996">
        <ele>10</ele>
        <time>2021-05-23T07:42:54.983Z</time>
      </trkpt>
      <trkpt lat="47.23469" lon="-2.29962">
        <ele>10</ele>
        <time>2021-05-23T07:42:55.983Z</time>
      </trkpt>
      <trkpt lat="47.23471" lon="-2.29964">
        <ele>10</ele>
        <time>2021-05-23T07:42:56.982Z</time>
      </trkpt>
      <trkpt lat="47.23473" lon="-2.29967">
        <ele>10</ele>
        <time>2021-05-23T07:42:57.983Z</time>
      </trkpt>
      <trkpt lat="47.23474" lon="-2.2997">
        <ele>10</ele>
        <time>2021-05-23T07:42:58.983Z</time>
      </trkpt>
      <trkpt lat="47.23475" lon="-2.29973">
        <ele>10</ele>
        <time>2021-05-23T07:42:59.983Z</time>
      </trkpt>
      <trkpt lat="47.23476" lon="-2.29975">
        <ele>10</ele>
        <time>2021-05-23T07:43:00.983Z</time>
      </trkpt>
      <trkpt lat="47.23477" lon="-2.29978">
        <ele>11</ele>
        <time>2021-05-23T07:43:01.983Z</time>
      </trkpt>
      <trkpt lat="47.23478" lon="-2.29981">
        <ele>11</ele>
        <time>2021-05-23T07:43:02.983Z</time>
      </trkpt>
      <trkpt lat="47.23479" lon="-2.29983">
        <ele>11</ele>
        <time>2021-05-23T07:43:03.982Z</time>
      </trkpt>
      <trkpt lat="47.2348" lon="-2.29985">
        <ele>11</ele>
        <time>2021-05-23T07:43:04.983Z</time>
      </trkpt>
      <trkpt lat="47.23481" lon="-2.29987">
        <ele>12</ele>
        <time>2021-05-23T07:43:05.983Z</time>
      </trkpt>
      <trkpt lat="47.23482" lon="-2.29988">
        <ele>12</ele>
        <time>2021-05-23T07:43:06.983Z</time>
      </trkpt>
      <trkpt lat="47.23483" lon="-2.29991">
        <ele>13</ele>
        <time>2021-05-23T07:43:07.983Z</time>
      </trkpt>
      <trkpt lat="47.23484" lon="-2.29994">
        <ele>13</ele>
        <time>2021-05-23T07:43:08.983Z</time>
      </trkpt>
      <trkpt lat="47.23486" lon="-2.29996">
        <ele>13</ele>
        <time>2021-05-23T07:43:09.983Z</time>
      </trkpt>
      <trkpt lat="47.23487" lon="-2.29997">
        <ele>13</ele>
        <time>2021-05-23T07:43:10.983Z</time>
      </trkpt>
      <trkpt lat="47.23489" lon="-2.29998">
        <ele>14</ele>
        <time>2021-05-23T07:43:11.982Z</time>
      </trkpt>
      <trkpt lat="47.23491" lon="-2.29998">
        <ele>14</ele>
        <time>2021-05-23T07:43:12.983Z</time>
      </trkpt>
      <trkpt lat="47.23493" lon="-2.29998">
        <ele>15</ele>
        <time>2021-05-23T07:43:13.983Z</time>
      </trkpt>
      <trkpt lat="47.23496" lon="-2.29997">
        <ele>15</ele>
        <time>2021-05-23T07:43:14.983Z</time>
      </trkpt>
      <trkpt lat="47.23498" lon="-2.29996">
        <ele>15</ele>
        <time>2021-05-23T07:43:15.983Z</time>
      </trkpt>
      <trkpt lat="47.235" lon="-2.29995">
        <ele>15</ele>
        <time>2021-05-23T07:43:16.983Z</time>
      </trkpt>
      <trkpt lat="47.23503" lon="-2.29995">
        <ele>15</ele>
        <time>2021-05-23T07:43:17.983Z</time>
      </trkpt>
      <trkpt lat="47.23505" lon="-2.29994">
        <ele>15</ele>
        <time>2021-05-23T07:43:18.983Z</time>
      </trkpt>
      <trkpt lat="47.23508" lon="-2.29995">
        <ele>15</ele>
        <time>2021-05-23T07:43:19.983Z</time>
      </trkpt>
      <trkpt lat="47.2351" lon="-2.29995">
        <ele>14</ele>
        <time>2021-05-23T07:43:20.982Z</time>
      </trkpt>
      <trkpt lat="47.23512" lon="-2.29995">
        <ele>14</ele>
        <time>2021-05-23T07:43:21.983Z</time>
      </trkpt>
      <trkpt lat="47.23515" lon="-2.29996">
        <ele>14</ele>
        <time>2021-05-23T07:43:22.983Z</time>
      </trkpt>
      <trkpt lat="47.23517" lon="-2.29997">
        <ele>14</ele>
        <time>2021-05-23T07:43:23.983Z</time>
      </trkpt>
      <trkpt lat="47.23518" lon="-2.29998">
        <ele>14</ele>
        <time>2021-05-23T07:43:24.982Z</time>
      </trkpt>
      <trkpt lat="47.2352" lon="-2.3">
        <ele>14</ele>
        <time>2021-05-23T07:43:25.982Z</time>
      </trkpt>
      <trkpt lat="47.23522" lon="-2.30002">
        <ele>15</ele>
        <time>2021-05-23T07:43:26.983Z</time>
      </trkpt>
      <trkpt lat="47.23524" lon="-2.30004">
        <ele>15</ele>
        <time>2021-05-23T07:43:27.982Z</time>
      </trkpt>
      <trkpt lat="47.23526" lon="-2.30007">
        <ele>15</ele>
        <time>2021-05-23T07:43:28.983Z</time>
      </trkpt>
      <trkpt lat="47.23528" lon="-2.30009">
        <ele>15</ele>
        <time>2021-05-23T07:43:29.983Z</time>
      </trkpt>
      <trkpt lat="47.2353" lon="-2.3001">
        <ele>16</ele>
        <time>2021-05-23T07:43:30.982Z</time>
      </trkpt>
      <trkpt lat="47.23532" lon="-2.30012">
        <ele>16</ele>
        <time>2021-05-23T07:43:31.983Z</time>
      </trkpt>
      <trkpt lat="47.23535" lon="-2.30014">
        <ele>16</ele>
        <time>2021-05-23T07:43:32.983Z</time>
      </trkpt>
      <trkpt lat="47.23537" lon="-2.30015">
        <ele>17</ele>
        <time>2021-05-23T07:43:33.982Z</time>
      </trkpt>
      <trkpt lat="47.23539" lon="-2.30017">
        <ele>17</ele>
        <time>2021-05-23T07:43:34.983Z</time>
      </trkpt>
      <trkpt lat="47.2354" lon="-2.30018">
        <ele>17</ele>
        <time>2021-05-23T07:43:35.983Z</time>
      </trkpt>
      <trkpt lat="47.23542" lon="-2.30019">
        <ele>16</ele>
        <time>2021-05-23T07:43:36.983Z</time>
      </trkpt>
      <trkpt lat="47.23544" lon="-2.30022">
        <ele>16</ele>
        <time>2021-05-23T07:43:37.982Z</time>
      </trkpt>
      <trkpt lat="47.23546" lon="-2.30025">
        <ele>16</ele>
        <time>2021-05-23T07:43:38.982Z</time>
      </trkpt>
      <trkpt lat="47.23548" lon="-2.30027">
        <ele>16</ele>
        <time>2021-05-23T07:43:39.982Z</time>
      </trkpt>
      <trkpt lat="47.23549" lon="-2.30029">
        <ele>16</ele>
        <time>2021-05-23T07:43:40.982Z</time>
      </trkpt>
      <trkpt lat="47.23551" lon="-2.30033">
        <ele>16</ele>
        <time>2021-05-23T07:43:41.983Z</time>
      </trkpt>
      <trkpt lat="47.23552" lon="-2.30036">
        <ele>16</ele>
        <time>2021-05-23T07:43:42.983Z</time>
      </trkpt>
      <trkpt lat="47.23553" lon="-2.30039">
        <ele>16</ele>
        <time>2021-05-23T07:43:43.983Z</time>
      </trkpt>
      <trkpt lat="47.23554" lon="-2.30042">
        <ele>16</ele>
        <time>2021-05-23T07:43:44.983Z</time>
      </trkpt>
      <trkpt lat="47.23555" lon="-2.30046">
        <ele>16</ele>
        <time>2021-05-23T07:43:45.983Z</time>
      </trkpt>
      <trkpt lat="47.23555" lon="-2.3005">
        <ele>15</ele>
        <time>2021-05-23T07:43:46.983Z</time>
      </trkpt>
      <trkpt lat="47.23556" lon="-2.30053">
        <ele>15</ele>
        <time>2021-05-23T07:43:47.983Z</time>
      </trkpt>
      <trkpt lat="47.23557" lon="-2.30056">
        <ele>15</ele>
        <time>2021-05-23T07:43:48.983Z</time>
      </trkpt>
      <trkpt lat="47.23557" lon="-2.3006">
        <ele>15</ele>
        <time>2021-05-23T07:43:49.982Z</time>
      </trkpt>
      <trkpt lat="47.23558" lon="-2.30063">
        <ele>14</ele>
        <time>2021-05-23T07:43:50.983Z</time>
      </trkpt>
      <trkpt lat="47.23558" lon="-2.30067">
        <ele>14</ele>
        <time>2021-05-23T07:43:51.983Z</time>
      </trkpt>
      <trkpt lat="47.23559" lon="-2.3007">
        <ele>14</ele>
        <time>2021-05-23T07:43:52.983Z</time>
      </trkpt>
      <trkpt lat="47.23559" lon="-2.30073">
        <ele>14</ele>
        <time>2021-05-23T07:43:53.983Z</time>
      </trkpt>
      <trkpt lat="47.23559" lon="-2.30077">
        <ele>15</ele>
        <time>2021-05-23T07:43:54.983Z</time>
      </trkpt>
      <trkpt lat="47.23559" lon="-2.30079">
        <ele>15</ele>
        <time>2021-05-23T07:43:55.982Z</time>
      </trkpt>
      <trkpt lat="47.2356" lon="-2.30079">
        <ele>14</ele>
        <time>2021-05-23T07:43:56.983Z</time>
      </trkpt>
      <trkpt lat="47.2356" lon="-2.30081">
        <ele>14</ele>
        <time>2021-05-23T07:43:57.983Z</time>
      </trkpt>
      <trkpt lat="47.2356" lon="-2.30083">
        <ele>14</ele>
        <time>2021-05-23T07:43:58.983Z</time>
      </trkpt>
      <trkpt lat="47.23561" lon="-2.30086">
        <ele>13</ele>
        <time>2021-05-23T07:43:59.983Z</time>
      </trkpt>
      <trkpt lat="47.23561" lon="-2.30089">
        <ele>13</ele>
        <time>2021-05-23T07:44:00.983Z</time>
      </trkpt>
      <trkpt lat="47.23562" lon="-2.30092">
        <ele>13</ele>
        <time>2021-05-23T07:44:01.983Z</time>
      </trkpt>
      <trkpt lat="47.23562" lon="-2.30096">
        <ele>12</ele>
        <time>2021-05-23T07:44:02.983Z</time>
      </trkpt>
      <trkpt lat="47.23563" lon="-2.301">
        <ele>12</ele>
        <time>2021-05-23T07:44:03.983Z</time>
      </trkpt>
      <trkpt lat="47.23564" lon="-2.30103">
        <ele>12</ele>
        <time>2021-05-23T07:44:04.983Z</time>
      </trkpt>
      <trkpt lat="47.23564" lon="-2.30107">
        <ele>12</ele>
        <time>2021-05-23T07:44:05.983Z</time>
      </trkpt>
      <trkpt lat="47.23566" lon="-2.30109">
        <ele>12</ele>
        <time>2021-05-23T07:44:06.983Z</time>
      </trkpt>
      <trkpt lat="47.23568" lon="-2.30111">
        <ele>11</ele>
        <time>2021-05-23T07:44:07.982Z</time>
      </trkpt>
      <trkpt lat="47.2357" lon="-2.3011">
        <ele>11</ele>
        <time>2021-05-23T07:44:08.982Z</time>
      </trkpt>
      <trkpt lat="47.23573" lon="-2.30109">
        <ele>11</ele>
        <time>2021-05-23T07:44:09.983Z</time>
      </trkpt>
      <trkpt lat="47.23575" lon="-2.30108">
        <ele>10</ele>
        <time>2021-05-23T07:44:10.983Z</time>
      </trkpt>
      <trkpt lat="47.23578" lon="-2.30107">
        <ele>10</ele>
        <time>2021-05-23T07:44:11.983Z</time>
      </trkpt>
      <trkpt lat="47.2358" lon="-2.30107">
        <ele>9</ele>
        <time>2021-05-23T07:44:12.983Z</time>
      </trkpt>
      <trkpt lat="47.23583" lon="-2.30106">
        <ele>9</ele>
        <time>2021-05-23T07:44:13.982Z</time>
      </trkpt>
      <trkpt lat="47.23585" lon="-2.30105">
        <ele>9</ele>
        <time>2021-05-23T07:44:14.982Z</time>
      </trkpt>
      <trkpt lat="47.23588" lon="-2.30105">
        <ele>9</ele>
        <time>2021-05-23T07:44:15.983Z</time>
      </trkpt>
      <trkpt lat="47.2359" lon="-2.30104">
        <ele>9</ele>
        <time>2021-05-23T07:44:16.983Z</time>
      </trkpt>
      <trkpt lat="47.23593" lon="-2.30103">
        <ele>8</ele>
        <time>2021-05-23T07:44:17.982Z</time>
      </trkpt>
      <trkpt lat="47.23596" lon="-2.30102">
        <ele>8</ele>
        <time>2021-05-23T07:44:18.983Z</time>
      </trkpt>
      <trkpt lat="47.236" lon="-2.30102">
        <ele>8</ele>
        <time>2021-05-23T07:44:19.982Z</time>
      </trkpt>
      <trkpt lat="47.23602" lon="-2.30101">
        <ele>7</ele>
        <time>2021-05-23T07:44:20.983Z</time>
      </trkpt>
      <trkpt lat="47.23605" lon="-2.30101">
        <ele>7</ele>
        <time>2021-05-23T07:44:21.982Z</time>
      </trkpt>
      <trkpt lat="47.23608" lon="-2.301">
        <ele>7</ele>
        <time>2021-05-23T07:44:22.983Z</time>
      </trkpt>
      <trkpt lat="47.23611" lon="-2.30099">
        <ele>7</ele>
        <time>2021-05-23T07:44:23.982Z</time>
      </trkpt>
      <trkpt lat="47.23614" lon="-2.30099">
        <ele>7</ele>
        <time>2021-05-23T07:44:24.982Z</time>
      </trkpt>
      <trkpt lat="47.23617" lon="-2.30099">
        <ele>6</ele>
        <time>2021-05-23T07:44:25.983Z</time>
      </trkpt>
      <trkpt lat="47.23619" lon="-2.30099">
        <ele>6</ele>
        <time>2021-05-23T07:44:26.983Z</time>
      </trkpt>
      <trkpt lat="47.23622" lon="-2.301">
        <ele>6</ele>
        <time>2021-05-23T07:44:27.983Z</time>
      </trkpt>
      <trkpt lat="47.23624" lon="-2.30101">
        <ele>6</ele>
        <time>2021-05-23T07:44:28.983Z</time>
      </trkpt>
      <trkpt lat="47.23626" lon="-2.30102">
        <ele>6</ele>
        <time>2021-05-23T07:44:29.983Z</time>
      </trkpt>
      <trkpt lat="47.23628" lon="-2.30104">
        <ele>6</ele>
        <time>2021-05-23T07:44:30.983Z</time>
      </trkpt>
      <trkpt lat="47.2363" lon="-2.30106">
        <ele>5</ele>
        <time>2021-05-23T07:44:31.983Z</time>
      </trkpt>
      <trkpt lat="47.23633" lon="-2.30107">
        <ele>5</ele>
        <time>2021-05-23T07:44:32.983Z</time>
      </trkpt>
      <trkpt lat="47.23634" lon="-2.30109">
        <ele>4</ele>
        <time>2021-05-23T07:44:33.983Z</time>
      </trkpt>
      <trkpt lat="47.23637" lon="-2.3011">
        <ele>4</ele>
        <time>2021-05-23T07:44:34.983Z</time>
      </trkpt>
      <trkpt lat="47.2364" lon="-2.30112">
        <ele>4</ele>
        <time>2021-05-23T07:44:35.983Z</time>
      </trkpt>
      <trkpt lat="47.23643" lon="-2.30113">
        <ele>4</ele>
        <time>2021-05-23T07:44:36.983Z</time>
      </trkpt>
      <trkpt lat="47.23645" lon="-2.30115">
        <ele>4</ele>
        <time>2021-05-23T07:44:37.983Z</time>
      </trkpt>
      <trkpt lat="47.23646" lon="-2.30117">
        <ele>4</ele>
        <time>2021-05-23T07:44:38.983Z</time>
      </trkpt>
      <trkpt lat="47.23649" lon="-2.30119">
        <ele>4</ele>
        <time>2021-05-23T07:44:39.983Z</time>
      </trkpt>
      <trkpt lat="47.23651" lon="-2.3012">
        <ele>4</ele>
        <time>2021-05-23T07:44:40.983Z</time>
      </trkpt>
      <trkpt lat="47.23653" lon="-2.30122">
        <ele>4</ele>
        <time>2021-05-23T07:44:41.982Z</time>
      </trkpt>
      <trkpt lat="47.23655" lon="-2.30124">
        <ele>4</ele>
        <time>2021-05-23T07:44:42.983Z</time>
      </trkpt>
      <trkpt lat="47.23658" lon="-2.30125">
        <ele>4</ele>
        <time>2021-05-23T07:44:43.983Z</time>
      </trkpt>
      <trkpt lat="47.2366" lon="-2.30126">
        <ele>4</ele>
        <time>2021-05-23T07:44:44.983Z</time>
      </trkpt>
      <trkpt lat="47.23663" lon="-2.30127">
        <ele>5</ele>
        <time>2021-05-23T07:44:45.982Z</time>
      </trkpt>
      <trkpt lat="47.23665" lon="-2.30127">
        <ele>5</ele>
        <time>2021-05-23T07:44:46.983Z</time>
      </trkpt>
      <trkpt lat="47.23668" lon="-2.30129">
        <ele>5</ele>
        <time>2021-05-23T07:44:47.983Z</time>
      </trkpt>
      <trkpt lat="47.23669" lon="-2.30131">
        <ele>5</ele>
        <time>2021-05-23T07:44:48.983Z</time>
      </trkpt>
      <trkpt lat="47.23671" lon="-2.30132">
        <ele>5</ele>
        <time>2021-05-23T07:44:49.982Z</time>
      </trkpt>
      <trkpt lat="47.23674" lon="-2.30133">
        <ele>4</ele>
        <time>2021-05-23T07:44:50.983Z</time>
      </trkpt>
      <trkpt lat="47.23676" lon="-2.30134">
        <ele>3</ele>
        <time>2021-05-23T07:44:51.982Z</time>
      </trkpt>
      <trkpt lat="47.23678" lon="-2.30136">
        <ele>3</ele>
        <time>2021-05-23T07:44:52.983Z</time>
      </trkpt>
      <trkpt lat="47.23681" lon="-2.30137">
        <ele>3</ele>
        <time>2021-05-23T07:44:53.982Z</time>
      </trkpt>
      <trkpt lat="47.23682" lon="-2.3014">
        <ele>2</ele>
        <time>2021-05-23T07:44:54.983Z</time>
      </trkpt>
      <trkpt lat="47.23684" lon="-2.30142">
        <ele>2</ele>
        <time>2021-05-23T07:44:55.982Z</time>
      </trkpt>
      <trkpt lat="47.23685" lon="-2.30144">
        <ele>2</ele>
        <time>2021-05-23T07:44:56.983Z</time>
      </trkpt>
      <trkpt lat="47.23687" lon="-2.30147">
        <ele>2</ele>
        <time>2021-05-23T07:44:57.982Z</time>
      </trkpt>
      <trkpt lat="47.23689" lon="-2.3015">
        <ele>1</ele>
        <time>2021-05-23T07:44:58.982Z</time>
      </trkpt>
      <trkpt lat="47.23691" lon="-2.30152">
        <ele>2</ele>
        <time>2021-05-23T07:44:59.983Z</time>
      </trkpt>
      <trkpt lat="47.23692" lon="-2.30155">
        <ele>2</ele>
        <time>2021-05-23T07:45:00.983Z</time>
      </trkpt>
      <trkpt lat="47.23694" lon="-2.30158">
        <ele>2</ele>
        <time>2021-05-23T07:45:01.983Z</time>
      </trkpt>
      <trkpt lat="47.23695" lon="-2.30161">
        <ele>3</ele>
        <time>2021-05-23T07:45:02.982Z</time>
      </trkpt>
      <trkpt lat="47.23696" lon="-2.30164">
        <ele>3</ele>
        <time>2021-05-23T07:45:03.983Z</time>
      </trkpt>
      <trkpt lat="47.23697" lon="-2.30167">
        <ele>4</ele>
        <time>2021-05-23T07:45:04.983Z</time>
      </trkpt>
      <trkpt lat="47.23698" lon="-2.3017">
        <ele>4</ele>
        <time>2021-05-23T07:45:05.983Z</time>
      </trkpt>
      <trkpt lat="47.23699" lon="-2.30174">
        <ele>4</ele>
        <time>2021-05-23T07:45:06.983Z</time>
      </trkpt>
      <trkpt lat="47.237" lon="-2.30177">
        <ele>5</ele>
        <time>2021-05-23T07:45:07.982Z</time>
      </trkpt>
      <trkpt lat="47.23701" lon="-2.30181">
        <ele>5</ele>
        <time>2021-05-23T07:45:08.983Z</time>
      </trkpt>
      <trkpt lat="47.23702" lon="-2.30184">
        <ele>5</ele>
        <time>2021-05-23T07:45:09.982Z</time>
      </trkpt>
      <trkpt lat="47.23703" lon="-2.30188">
        <ele>6</ele>
        <time>2021-05-23T07:45:10.983Z</time>
      </trkpt>
      <trkpt lat="47.23703" lon="-2.30191">
        <ele>7</ele>
        <time>2021-05-23T07:45:11.983Z</time>
      </trkpt>
      <trkpt lat="47.23704" lon="-2.30194">
        <ele>8</ele>
        <time>2021-05-23T07:45:12.982Z</time>
      </trkpt>
      <trkpt lat="47.23705" lon="-2.30197">
        <ele>8</ele>
        <time>2021-05-23T07:45:13.983Z</time>
      </trkpt>
      <trkpt lat="47.23706" lon="-2.302">
        <ele>9</ele>
        <time>2021-05-23T07:45:14.983Z</time>
      </trkpt>
      <trkpt lat="47.23707" lon="-2.30203">
        <ele>9</ele>
        <time>2021-05-23T07:45:15.983Z</time>
      </trkpt>
      <trkpt lat="47.23708" lon="-2.30205">
        <ele>9</ele>
        <time>2021-05-23T07:45:16.982Z</time>
      </trkpt>
      <trkpt lat="47.2371" lon="-2.30208">
        <ele>9</ele>
        <time>2021-05-23T07:45:17.982Z</time>
      </trkpt>
      <trkpt lat="47.23712" lon="-2.3021">
        <ele>9</ele>
        <time>2021-05-23T07:45:18.982Z</time>
      </trkpt>
      <trkpt lat="47.23713" lon="-2.30213">
        <ele>10</ele>
        <time>2021-05-23T07:45:19.982Z</time>
      </trkpt>
      <trkpt lat="47.23715" lon="-2.30216">
        <ele>10</ele>
        <time>2021-05-23T07:45:20.982Z</time>
      </trkpt>
      <trkpt lat="47.23717" lon="-2.30219">
        <ele>10</ele>
        <time>2021-05-23T07:45:21.983Z</time>
      </trkpt>
      <trkpt lat="47.23718" lon="-2.30222">
        <ele>11</ele>
        <time>2021-05-23T07:45:22.982Z</time>
      </trkpt>
      <trkpt lat="47.23719" lon="-2.30225">
        <ele>11</ele>
        <time>2021-05-23T07:45:23.982Z</time>
      </trkpt>
      <trkpt lat="47.23721" lon="-2.30227">
        <ele>12</ele>
        <time>2021-05-23T07:45:24.982Z</time>
      </trkpt>
      <trkpt lat="47.23722" lon="-2.3023">
        <ele>12</ele>
        <time>2021-05-23T07:45:25.982Z</time>
      </trkpt>
      <trkpt lat="47.23723" lon="-2.30233">
        <ele>12</ele>
        <time>2021-05-23T07:45:26.982Z</time>
      </trkpt>
      <trkpt lat="47.23725" lon="-2.30236">
        <ele>12</ele>
        <time>2021-05-23T07:45:27.982Z</time>
      </trkpt>
      <trkpt lat="47.23726" lon="-2.3024">
        <ele>12</ele>
        <time>2021-05-23T07:45:28.982Z</time>
      </trkpt>
      <trkpt lat="47.23727" lon="-2.30243">
        <ele>12</ele>
        <time>2021-05-23T07:45:29.982Z</time>
      </trkpt>
      <trkpt lat="47.23728" lon="-2.30246">
        <ele>12</ele>
        <time>2021-05-23T07:45:30.982Z</time>
      </trkpt>
      <trkpt lat="47.23728" lon="-2.3025">
        <ele>11</ele>
        <time>2021-05-23T07:45:31.982Z</time>
      </trkpt>
      <trkpt lat="47.23729" lon="-2.30253">
        <ele>10</ele>
        <time>2021-05-23T07:45:32.982Z</time>
      </trkpt>
      <trkpt lat="47.2373" lon="-2.30257">
        <ele>10</ele>
        <time>2021-05-23T07:45:33.983Z</time>
      </trkpt>
      <trkpt lat="47.23731" lon="-2.3026">
        <ele>10</ele>
        <time>2021-05-23T07:45:34.982Z</time>
      </trkpt>
      <trkpt lat="47.23732" lon="-2.30264">
        <ele>10</ele>
        <time>2021-05-23T07:45:35.982Z</time>
      </trkpt>
      <trkpt lat="47.23733" lon="-2.30268">
        <ele>10</ele>
        <time>2021-05-23T07:45:36.982Z</time>
      </trkpt>
      <trkpt lat="47.23734" lon="-2.30271">
        <ele>10</ele>
        <time>2021-05-23T07:45:37.982Z</time>
      </trkpt>
      <trkpt lat="47.23735" lon="-2.30274">
        <ele>10</ele>
        <time>2021-05-23T07:45:38.982Z</time>
      </trkpt>
      <trkpt lat="47.23736" lon="-2.30277">
        <ele>9</ele>
        <time>2021-05-23T07:45:39.982Z</time>
      </trkpt>
      <trkpt lat="47.23738" lon="-2.3028">
        <ele>9</ele>
        <time>2021-05-23T07:45:40.982Z</time>
      </trkpt>
      <trkpt lat="47.23739" lon="-2.30282">
        <ele>8</ele>
        <time>2021-05-23T07:45:41.982Z</time>
      </trkpt>
      <trkpt lat="47.2374" lon="-2.30285">
        <ele>8</ele>
        <time>2021-05-23T07:45:42.982Z</time>
      </trkpt>
      <trkpt lat="47.23741" lon="-2.30287">
        <ele>7</ele>
        <time>2021-05-23T07:45:43.982Z</time>
      </trkpt>
      <trkpt lat="47.23743" lon="-2.30289">
        <ele>7</ele>
        <time>2021-05-23T07:45:44.982Z</time>
      </trkpt>
      <trkpt lat="47.23744" lon="-2.30292">
        <ele>7</ele>
        <time>2021-05-23T07:45:45.982Z</time>
      </trkpt>
      <trkpt lat="47.23746" lon="-2.30294">
        <ele>7</ele>
        <time>2021-05-23T07:45:46.982Z</time>
      </trkpt>
      <trkpt lat="47.23746" lon="-2.30296">
        <ele>7</ele>
        <time>2021-05-23T07:45:47.982Z</time>
      </trkpt>
      <trkpt lat="47.23747" lon="-2.30298">
        <ele>8</ele>
        <time>2021-05-23T07:45:48.983Z</time>
      </trkpt>
      <trkpt lat="47.23748" lon="-2.30299">
        <ele>8</ele>
        <time>2021-05-23T07:45:49.983Z</time>
      </trkpt>
      <trkpt lat="47.23748" lon="-2.303">
        <ele>8</ele>
        <time>2021-05-23T07:45:50.982Z</time>
      </trkpt>
      <trkpt lat="47.23748" lon="-2.30302">
        <ele>8</ele>
        <time>2021-05-23T07:45:51.983Z</time>
      </trkpt>
      <trkpt lat="47.23748" lon="-2.30304">
        <ele>8</ele>
        <time>2021-05-23T07:45:52.983Z</time>
      </trkpt>
      <trkpt lat="47.23748" lon="-2.30305">
        <ele>8</ele>
        <time>2021-05-23T07:45:53.982Z</time>
      </trkpt>
      <trkpt lat="47.23748" lon="-2.30307">
        <ele>9</ele>
        <time>2021-05-23T07:45:54.983Z</time>
      </trkpt>
      <trkpt lat="47.23748" lon="-2.3031">
        <ele>9</ele>
        <time>2021-05-23T07:45:55.983Z</time>
      </trkpt>
      <trkpt lat="47.23748" lon="-2.30312">
        <ele>9</ele>
        <time>2021-05-23T07:45:56.983Z</time>
      </trkpt>
      <trkpt lat="47.23748" lon="-2.30315">
        <ele>8</ele>
        <time>2021-05-23T07:45:57.982Z</time>
      </trkpt>
      <trkpt lat="47.23748" lon="-2.30318">
        <ele>8</ele>
        <time>2021-05-23T07:45:58.983Z</time>
      </trkpt>
      <trkpt lat="47.23748" lon="-2.30321">
        <ele>8</ele>
        <time>2021-05-23T07:45:59.983Z</time>
      </trkpt>
      <trkpt lat="47.23748" lon="-2.30325">
        <ele>7</ele>
        <time>2021-05-23T07:46:00.983Z</time>
      </trkpt>
      <trkpt lat="47.23749" lon="-2.30328">
        <ele>7</ele>
        <time>2021-05-23T07:46:01.983Z</time>
      </trkpt>
      <trkpt lat="47.23749" lon="-2.30332">
        <ele>6</ele>
        <time>2021-05-23T07:46:02.983Z</time>
      </trkpt>
      <trkpt lat="47.23749" lon="-2.30335">
        <ele>6</ele>
        <time>2021-05-23T07:46:03.983Z</time>
      </trkpt>
      <trkpt lat="47.23749" lon="-2.30338">
        <ele>6</ele>
        <time>2021-05-23T07:46:04.983Z</time>
      </trkpt>
      <trkpt lat="47.23749" lon="-2.30342">
        <ele>6</ele>
        <time>2021-05-23T07:46:05.983Z</time>
      </trkpt>
      <trkpt lat="47.23749" lon="-2.30346">
        <ele>6</ele>
        <time>2021-05-23T07:46:06.983Z</time>
      </trkpt>
      <trkpt lat="47.2375" lon="-2.30349">
        <ele>6</ele>
        <time>2021-05-23T07:46:07.983Z</time>
      </trkpt>
      <trkpt lat="47.2375" lon="-2.30353">
        <ele>5</ele>
        <time>2021-05-23T07:46:08.983Z</time>
      </trkpt>
      <trkpt lat="47.23751" lon="-2.30356">
        <ele>5</ele>
        <time>2021-05-23T07:46:09.982Z</time>
      </trkpt>
      <trkpt lat="47.23752" lon="-2.30359">
        <ele>4</ele>
        <time>2021-05-23T07:46:10.983Z</time>
      </trkpt>
      <trkpt lat="47.23753" lon="-2.30361">
        <ele>4</ele>
        <time>2021-05-23T07:46:11.983Z</time>
      </trkpt>
      <trkpt lat="47.23755" lon="-2.30363">
        <ele>4</ele>
        <time>2021-05-23T07:46:12.983Z</time>
      </trkpt>
      <trkpt lat="47.23757" lon="-2.30365">
        <ele>4</ele>
        <time>2021-05-23T07:46:13.983Z</time>
      </trkpt>
      <trkpt lat="47.23759" lon="-2.30366">
        <ele>4</ele>
        <time>2021-05-23T07:46:14.983Z</time>
      </trkpt>
      <trkpt lat="47.23761" lon="-2.30368">
        <ele>5</ele>
        <time>2021-05-23T07:46:15.983Z</time>
      </trkpt>
      <trkpt lat="47.23762" lon="-2.3037">
        <ele>5</ele>
        <time>2021-05-23T07:46:16.983Z</time>
      </trkpt>
      <trkpt lat="47.23764" lon="-2.30372">
        <ele>4</ele>
        <time>2021-05-23T07:46:17.983Z</time>
      </trkpt>
      <trkpt lat="47.23766" lon="-2.30374">
        <ele>4</ele>
        <time>2021-05-23T07:46:18.983Z</time>
      </trkpt>
      <trkpt lat="47.23767" lon="-2.30375">
        <ele>4</ele>
        <time>2021-05-23T07:46:19.982Z</time>
      </trkpt>
      <trkpt lat="47.23767" lon="-2.30377">
        <ele>4</ele>
        <time>2021-05-23T07:46:20.983Z</time>
      </trkpt>
      <trkpt lat="47.23767" lon="-2.30378">
        <ele>5</ele>
        <time>2021-05-23T07:46:21.983Z</time>
      </trkpt>
      <trkpt lat="47.23767" lon="-2.30379">
        <ele>5</ele>
        <time>2021-05-23T07:46:22.983Z</time>
      </trkpt>
      <trkpt lat="47.23768" lon="-2.3038">
        <ele>5</ele>
        <time>2021-05-23T07:46:23.983Z</time>
      </trkpt>
      <trkpt lat="47.23768" lon="-2.30381">
        <ele>5</ele>
        <time>2021-05-23T07:46:24.982Z</time>
      </trkpt>
      <trkpt lat="47.23768" lon="-2.30383">
        <ele>4</ele>
        <time>2021-05-23T07:46:25.983Z</time>
      </trkpt>
      <trkpt lat="47.23768" lon="-2.30385">
        <ele>4</ele>
        <time>2021-05-23T07:46:26.983Z</time>
      </trkpt>
      <trkpt lat="47.23769" lon="-2.30387">
        <ele>3</ele>
        <time>2021-05-23T07:46:27.982Z</time>
      </trkpt>
      <trkpt lat="47.23769" lon="-2.30388">
        <ele>3</ele>
        <time>2021-05-23T07:46:28.982Z</time>
      </trkpt>
      <trkpt lat="47.23769" lon="-2.3039">
        <ele>3</ele>
        <time>2021-05-23T07:46:29.982Z</time>
      </trkpt>
      <trkpt lat="47.23769" lon="-2.30391">
        <ele>3</ele>
        <time>2021-05-23T07:46:30.982Z</time>
      </trkpt>
      <trkpt lat="47.2377" lon="-2.30392">
        <ele>4</ele>
        <time>2021-05-23T07:46:31.982Z</time>
      </trkpt>
      <trkpt lat="47.23771" lon="-2.30394">
        <ele>4</ele>
        <time>2021-05-23T07:46:32.982Z</time>
      </trkpt>
      <trkpt lat="47.23771" lon="-2.30397">
        <ele>4</ele>
        <time>2021-05-23T07:46:33.982Z</time>
      </trkpt>
      <trkpt lat="47.23772" lon="-2.30399">
        <ele>4</ele>
        <time>2021-05-23T07:46:34.982Z</time>
      </trkpt>
      <trkpt lat="47.23772" lon="-2.30401">
        <ele>5</ele>
        <time>2021-05-23T07:46:35.983Z</time>
      </trkpt>
      <trkpt lat="47.23772" lon="-2.30403">
        <ele>6</ele>
        <time>2021-05-23T07:46:36.982Z</time>
      </trkpt>
      <trkpt lat="47.23772" lon="-2.30406">
        <ele>7</ele>
        <time>2021-05-23T07:46:37.983Z</time>
      </trkpt>
      <trkpt lat="47.23773" lon="-2.30408">
        <ele>8</ele>
        <time>2021-05-23T07:46:38.983Z</time>
      </trkpt>
      <trkpt lat="47.23773" lon="-2.3041">
        <ele>8</ele>
        <time>2021-05-23T07:46:39.983Z</time>
      </trkpt>
      <trkpt lat="47.23774" lon="-2.30413">
        <ele>9</ele>
        <time>2021-05-23T07:46:40.983Z</time>
      </trkpt>
      <trkpt lat="47.23774" lon="-2.30415">
        <ele>9</ele>
        <time>2021-05-23T07:46:41.982Z</time>
      </trkpt>
      <trkpt lat="47.23774" lon="-2.30417">
        <ele>9</ele>
        <time>2021-05-23T07:46:42.983Z</time>
      </trkpt>
      <trkpt lat="47.23774" lon="-2.30418">
        <ele>10</ele>
        <time>2021-05-23T07:46:43.983Z</time>
      </trkpt>
      <trkpt lat="47.23775" lon="-2.3042">
        <ele>11</ele>
        <time>2021-05-23T07:46:44.983Z</time>
      </trkpt>
      <trkpt lat="47.23777" lon="-2.30422">
        <ele>12</ele>
        <time>2021-05-23T07:46:45.983Z</time>
      </trkpt>
      <trkpt lat="47.23777" lon="-2.30424">
        <ele>12</ele>
        <time>2021-05-23T07:46:46.982Z</time>
      </trkpt>
      <trkpt lat="47.23778" lon="-2.30427">
        <ele>13</ele>
        <time>2021-05-23T07:46:47.982Z</time>
      </trkpt>
      <trkpt lat="47.23778" lon="-2.30429">
        <ele>14</ele>
        <time>2021-05-23T07:46:48.982Z</time>
      </trkpt>
      <trkpt lat="47.23779" lon="-2.30432">
        <ele>14</ele>
        <time>2021-05-23T07:46:49.983Z</time>
      </trkpt>
      <trkpt lat="47.23781" lon="-2.30435">
        <ele>14</ele>
        <time>2021-05-23T07:46:50.982Z</time>
      </trkpt>
      <trkpt lat="47.23782" lon="-2.30436">
        <ele>14</ele>
        <time>2021-05-23T07:46:51.982Z</time>
      </trkpt>
      <trkpt lat="47.23783" lon="-2.30438">
        <ele>14</ele>
        <time>2021-05-23T07:46:52.983Z</time>
      </trkpt>
      <trkpt lat="47.23784" lon="-2.3044">
        <ele>14</ele>
        <time>2021-05-23T07:46:53.983Z</time>
      </trkpt>
      <trkpt lat="47.23785" lon="-2.30443">
        <ele>14</ele>
        <time>2021-05-23T07:46:54.982Z</time>
      </trkpt>
      <trkpt lat="47.23785" lon="-2.30445">
        <ele>14</ele>
        <time>2021-05-23T07:46:55.983Z</time>
      </trkpt>
      <trkpt lat="47.23786" lon="-2.30447">
        <ele>13</ele>
        <time>2021-05-23T07:46:56.983Z</time>
      </trkpt>
      <trkpt lat="47.23787" lon="-2.30448">
        <ele>13</ele>
        <time>2021-05-23T07:46:57.982Z</time>
      </trkpt>
      <trkpt lat="47.23789" lon="-2.30449">
        <ele>13</ele>
        <time>2021-05-23T07:46:58.983Z</time>
      </trkpt>
      <trkpt lat="47.23791" lon="-2.3045">
        <ele>13</ele>
        <time>2021-05-23T07:46:59.983Z</time>
      </trkpt>
      <trkpt lat="47.23793" lon="-2.30451">
        <ele>12</ele>
        <time>2021-05-23T07:47:00.982Z</time>
      </trkpt>
      <trkpt lat="47.23795" lon="-2.30451">
        <ele>12</ele>
        <time>2021-05-23T07:47:01.983Z</time>
      </trkpt>
      <trkpt lat="47.23797" lon="-2.30452">
        <ele>12</ele>
        <time>2021-05-23T07:47:02.983Z</time>
      </trkpt>
      <trkpt lat="47.23797" lon="-2.30454">
        <ele>12</ele>
        <time>2021-05-23T07:47:03.983Z</time>
      </trkpt>
      <trkpt lat="47.23797" lon="-2.30457">
        <ele>12</ele>
        <time>2021-05-23T07:47:04.982Z</time>
      </trkpt>
      <trkpt lat="47.23797" lon="-2.3046">
        <ele>12</ele>
        <time>2021-05-23T07:47:05.982Z</time>
      </trkpt>
      <trkpt lat="47.23798" lon="-2.30463">
        <ele>11</ele>
        <time>2021-05-23T07:47:06.982Z</time>
      </trkpt>
      <trkpt lat="47.23798" lon="-2.30466">
        <ele>11</ele>
        <time>2021-05-23T07:47:07.982Z</time>
      </trkpt>
      <trkpt lat="47.23799" lon="-2.30469">
        <ele>11</ele>
        <time>2021-05-23T07:47:08.983Z</time>
      </trkpt>
      <trkpt lat="47.238" lon="-2.30473">
        <ele>10</ele>
        <time>2021-05-23T07:47:09.983Z</time>
      </trkpt>
      <trkpt lat="47.23801" lon="-2.30476">
        <ele>10</ele>
        <time>2021-05-23T07:47:10.982Z</time>
      </trkpt>
      <trkpt lat="47.23802" lon="-2.30479">
        <ele>10</ele>
        <time>2021-05-23T07:47:11.983Z</time>
      </trkpt>
      <trkpt lat="47.23803" lon="-2.30482">
        <ele>10</ele>
        <time>2021-05-23T07:47:12.983Z</time>
      </trkpt>
      <trkpt lat="47.23804" lon="-2.30484">
        <ele>10</ele>
        <time>2021-05-23T07:47:13.983Z</time>
      </trkpt>
      <trkpt lat="47.23806" lon="-2.30487">
        <ele>11</ele>
        <time>2021-05-23T07:47:14.982Z</time>
      </trkpt>
      <trkpt lat="47.23807" lon="-2.3049">
        <ele>11</ele>
        <time>2021-05-23T07:47:15.983Z</time>
      </trkpt>
      <trkpt lat="47.23807" lon="-2.30492">
        <ele>11</ele>
        <time>2021-05-23T07:47:16.983Z</time>
      </trkpt>
      <trkpt lat="47.23808" lon="-2.30495">
        <ele>11</ele>
        <time>2021-05-23T07:47:17.982Z</time>
      </trkpt>
      <trkpt lat="47.23809" lon="-2.30498">
        <ele>11</ele>
        <time>2021-05-23T07:47:18.983Z</time>
      </trkpt>
      <trkpt lat="47.2381" lon="-2.30501">
        <ele>11</ele>
        <time>2021-05-23T07:47:19.983Z</time>
      </trkpt>
      <trkpt lat="47.23811" lon="-2.30504">
        <ele>11</ele>
        <time>2021-05-23T07:47:20.983Z</time>
      </trkpt>
      <trkpt lat="47.23812" lon="-2.30507">
        <ele>11</ele>
        <time>2021-05-23T07:47:21.983Z</time>
      </trkpt>
      <trkpt lat="47.23814" lon="-2.3051">
        <ele>12</ele>
        <time>2021-05-23T07:47:22.983Z</time>
      </trkpt>
      <trkpt lat="47.23815" lon="-2.30512">
        <ele>12</ele>
        <time>2021-05-23T07:47:23.983Z</time>
      </trkpt>
      <trkpt lat="47.23816" lon="-2.30514">
        <ele>13</ele>
        <time>2021-05-23T07:47:24.983Z</time>
      </trkpt>
      <trkpt lat="47.23817" lon="-2.30516">
        <ele>13</ele>
        <time>2021-05-23T07:47:25.983Z</time>
      </trkpt>
      <trkpt lat="47.23819" lon="-2.30519">
        <ele>13</ele>
        <time>2021-05-23T07:47:26.983Z</time>
      </trkpt>
      <trkpt lat="47.2382" lon="-2.30522">
        <ele>13</ele>
        <time>2021-05-23T07:47:27.983Z</time>
      </trkpt>
      <trkpt lat="47.2382" lon="-2.30525">
        <ele>13</ele>
        <time>2021-05-23T07:47:28.983Z</time>
      </trkpt>
      <trkpt lat="47.23821" lon="-2.30527">
        <ele>14</ele>
        <time>2021-05-23T07:47:29.983Z</time>
      </trkpt>
      <trkpt lat="47.23821" lon="-2.3053">
        <ele>15</ele>
        <time>2021-05-23T07:47:30.983Z</time>
      </trkpt>
      <trkpt lat="47.23822" lon="-2.30533">
        <ele>15</ele>
        <time>2021-05-23T07:47:31.982Z</time>
      </trkpt>
      <trkpt lat="47.23822" lon="-2.30536">
        <ele>16</ele>
        <time>2021-05-23T07:47:32.982Z</time>
      </trkpt>
      <trkpt lat="47.23822" lon="-2.30539">
        <ele>16</ele>
        <time>2021-05-23T07:47:33.983Z</time>
      </trkpt>
      <trkpt lat="47.23822" lon="-2.30542">
        <ele>16</ele>
        <time>2021-05-23T07:47:34.983Z</time>
      </trkpt>
      <trkpt lat="47.23822" lon="-2.30545">
        <ele>17</ele>
        <time>2021-05-23T07:47:35.983Z</time>
      </trkpt>
      <trkpt lat="47.23822" lon="-2.30549">
        <ele>17</ele>
        <time>2021-05-23T07:47:36.983Z</time>
      </trkpt>
      <trkpt lat="47.23822" lon="-2.30553">
        <ele>17</ele>
        <time>2021-05-23T07:47:37.982Z</time>
      </trkpt>
      <trkpt lat="47.23822" lon="-2.30556">
        <ele>18</ele>
        <time>2021-05-23T07:47:38.982Z</time>
      </trkpt>
      <trkpt lat="47.23822" lon="-2.3056">
        <ele>18</ele>
        <time>2021-05-23T07:47:39.983Z</time>
      </trkpt>
      <trkpt lat="47.23822" lon="-2.30563">
        <ele>19</ele>
        <time>2021-05-23T07:47:40.982Z</time>
      </trkpt>
      <trkpt lat="47.23822" lon="-2.30566">
        <ele>19</ele>
        <time>2021-05-23T07:47:41.982Z</time>
      </trkpt>
      <trkpt lat="47.23822" lon="-2.30568">
        <ele>19</ele>
        <time>2021-05-23T07:47:42.983Z</time>
      </trkpt>
      <trkpt lat="47.23823" lon="-2.30571">
        <ele>19</ele>
        <time>2021-05-23T07:47:43.982Z</time>
      </trkpt>
      <trkpt lat="47.23823" lon="-2.30573">
        <ele>19</ele>
        <time>2021-05-23T07:47:44.983Z</time>
      </trkpt>
      <trkpt lat="47.23823" lon="-2.30574">
        <ele>19</ele>
        <time>2021-05-23T07:47:45.982Z</time>
      </trkpt>
      <trkpt lat="47.23823" lon="-2.30575">
        <ele>19</ele>
        <time>2021-05-23T07:47:46.983Z</time>
      </trkpt>
      <trkpt lat="47.23823" lon="-2.30576">
        <ele>19</ele>
        <time>2021-05-23T07:47:47.983Z</time>
      </trkpt>
      <trkpt lat="47.23823" lon="-2.30577">
        <ele>19</ele>
        <time>2021-05-23T07:47:48.983Z</time>
      </trkpt>
      <trkpt lat="47.23823" lon="-2.30577">
        <ele>19</ele>
        <time>2021-05-23T07:47:49.983Z</time>
      </trkpt>
      <trkpt lat="47.23823" lon="-2.30577">
        <ele>19</ele>
        <time>2021-05-23T07:47:50.983Z</time>
      </trkpt>
      <trkpt lat="47.23824" lon="-2.30578">
        <ele>19</ele>
        <time>2021-05-23T07:47:51.982Z</time>
      </trkpt>
      <trkpt lat="47.23825" lon="-2.3058">
        <ele>19</ele>
        <time>2021-05-23T07:47:52.983Z</time>
      </trkpt>
      <trkpt lat="47.23825" lon="-2.30583">
        <ele>19</ele>
        <time>2021-05-23T07:47:53.982Z</time>
      </trkpt>
      <trkpt lat="47.23826" lon="-2.30586">
        <ele>19</ele>
        <time>2021-05-23T07:47:54.983Z</time>
      </trkpt>
      <trkpt lat="47.23826" lon="-2.30588">
        <ele>19</ele>
        <time>2021-05-23T07:47:55.983Z</time>
      </trkpt>
      <trkpt lat="47.23826" lon="-2.30592">
        <ele>19</ele>
        <time>2021-05-23T07:47:56.982Z</time>
      </trkpt>
      <trkpt lat="47.23826" lon="-2.30595">
        <ele>19</ele>
        <time>2021-05-23T07:47:57.983Z</time>
      </trkpt>
      <trkpt lat="47.23827" lon="-2.30597">
        <ele>19</ele>
        <time>2021-05-23T07:47:58.983Z</time>
      </trkpt>
      <trkpt lat="47.23828" lon="-2.30599">
        <ele>19</ele>
        <time>2021-05-23T07:47:59.983Z</time>
      </trkpt>
      <trkpt lat="47.23828" lon="-2.30601">
        <ele>18</ele>
        <time>2021-05-23T07:48:00.983Z</time>
      </trkpt>
      <trkpt lat="47.23829" lon="-2.30602">
        <ele>18</ele>
        <time>2021-05-23T07:48:01.983Z</time>
      </trkpt>
      <trkpt lat="47.23829" lon="-2.30604">
        <ele>18</ele>
        <time>2021-05-23T07:48:02.982Z</time>
      </trkpt>
      <trkpt lat="47.23829" lon="-2.30606">
        <ele>18</ele>
        <time>2021-05-23T07:48:03.983Z</time>
      </trkpt>
      <trkpt lat="47.23829" lon="-2.30608">
        <ele>18</ele>
        <time>2021-05-23T07:48:04.983Z</time>
      </trkpt>
      <trkpt lat="47.23828" lon="-2.3061">
        <ele>18</ele>
        <time>2021-05-23T07:48:05.983Z</time>
      </trkpt>
      <trkpt lat="47.23828" lon="-2.30611">
        <ele>18</ele>
        <time>2021-05-23T07:48:06.982Z</time>
      </trkpt>
      <trkpt lat="47.23828" lon="-2.30613">
        <ele>18</ele>
        <time>2021-05-23T07:48:07.983Z</time>
      </trkpt>
      <trkpt lat="47.23828" lon="-2.30615">
        <ele>18</ele>
        <time>2021-05-23T07:48:08.983Z</time>
      </trkpt>
      <trkpt lat="47.23829" lon="-2.30616">
        <ele>18</ele>
        <time>2021-05-23T07:48:09.983Z</time>
      </trkpt>
      <trkpt lat="47.23829" lon="-2.30617">
        <ele>18</ele>
        <time>2021-05-23T07:48:10.983Z</time>
      </trkpt>
      <trkpt lat="47.23829" lon="-2.30619">
        <ele>18</ele>
        <time>2021-05-23T07:48:11.983Z</time>
      </trkpt>
      <trkpt lat="47.2383" lon="-2.30619">
        <ele>18</ele>
        <time>2021-05-23T07:48:12.982Z</time>
      </trkpt>
      <trkpt lat="47.2383" lon="-2.3062">
        <ele>19</ele>
        <time>2021-05-23T07:48:13.983Z</time>
      </trkpt>
      <trkpt lat="47.2383" lon="-2.30622">
        <ele>19</ele>
        <time>2021-05-23T07:48:14.982Z</time>
      </trkpt>
      <trkpt lat="47.23831" lon="-2.30624">
        <ele>19</ele>
        <time>2021-05-23T07:48:15.982Z</time>
      </trkpt>
      <trkpt lat="47.23831" lon="-2.30626">
        <ele>19</ele>
        <time>2021-05-23T07:48:16.983Z</time>
      </trkpt>
      <trkpt lat="47.23831" lon="-2.30628">
        <ele>19</ele>
        <time>2021-05-23T07:48:17.983Z</time>
      </trkpt>
      <trkpt lat="47.23832" lon="-2.30631">
        <ele>19</ele>
        <time>2021-05-23T07:48:18.982Z</time>
      </trkpt>
      <trkpt lat="47.23832" lon="-2.30633">
        <ele>19</ele>
        <time>2021-05-23T07:48:19.983Z</time>
      </trkpt>
      <trkpt lat="47.23832" lon="-2.30635">
        <ele>19</ele>
        <time>2021-05-23T07:48:20.983Z</time>
      </trkpt>
      <trkpt lat="47.23833" lon="-2.30637">
        <ele>19</ele>
        <time>2021-05-23T07:48:21.982Z</time>
      </trkpt>
      <trkpt lat="47.23833" lon="-2.3064">
        <ele>18</ele>
        <time>2021-05-23T07:48:22.983Z</time>
      </trkpt>
      <trkpt lat="47.23833" lon="-2.30642">
        <ele>18</ele>
        <time>2021-05-23T07:48:23.983Z</time>
      </trkpt>
      <trkpt lat="47.23833" lon="-2.30645">
        <ele>19</ele>
        <time>2021-05-23T07:48:24.982Z</time>
      </trkpt>
      <trkpt lat="47.23833" lon="-2.30648">
        <ele>19</ele>
        <time>2021-05-23T07:48:25.983Z</time>
      </trkpt>
      <trkpt lat="47.23833" lon="-2.30651">
        <ele>18</ele>
        <time>2021-05-23T07:48:26.983Z</time>
      </trkpt>
      <trkpt lat="47.23834" lon="-2.30654">
        <ele>18</ele>
        <time>2021-05-23T07:48:27.982Z</time>
      </trkpt>
      <trkpt lat="47.23834" lon="-2.30657">
        <ele>18</ele>
        <time>2021-05-23T07:48:28.983Z</time>
      </trkpt>
      <trkpt lat="47.23835" lon="-2.30659">
        <ele>17</ele>
        <time>2021-05-23T07:48:29.983Z</time>
      </trkpt>
      <trkpt lat="47.23835" lon="-2.30662">
        <ele>17</ele>
        <time>2021-05-23T07:48:30.982Z</time>
      </trkpt>
      <trkpt lat="47.23836" lon="-2.30664">
        <ele>16</ele>
        <time>2021-05-23T07:48:31.982Z</time>
      </trkpt>
      <trkpt lat="47.23837" lon="-2.30667">
        <ele>15</ele>
        <time>2021-05-23T07:48:32.983Z</time>
      </trkpt>
      <trkpt lat="47.23838" lon="-2.30669">
        <ele>15</ele>
        <time>2021-05-23T07:48:33.983Z</time>
      </trkpt>
      <trkpt lat="47.23839" lon="-2.30671">
        <ele>15</ele>
        <time>2021-05-23T07:48:34.983Z</time>
      </trkpt>
      <trkpt lat="47.2384" lon="-2.30673">
        <ele>14</ele>
        <time>2021-05-23T07:48:35.983Z</time>
      </trkpt>
      <trkpt lat="47.23841" lon="-2.30675">
        <ele>14</ele>
        <time>2021-05-23T07:48:36.982Z</time>
      </trkpt>
      <trkpt lat="47.23842" lon="-2.30677">
        <ele>13</ele>
        <time>2021-05-23T07:48:37.982Z</time>
      </trkpt>
      <trkpt lat="47.23843" lon="-2.30678">
        <ele>13</ele>
        <time>2021-05-23T07:48:38.983Z</time>
      </trkpt>
      <trkpt lat="47.23844" lon="-2.30679">
        <ele>13</ele>
        <time>2021-05-23T07:48:39.982Z</time>
      </trkpt>
      <trkpt lat="47.23845" lon="-2.30681">
        <ele>12</ele>
        <time>2021-05-23T07:48:40.983Z</time>
      </trkpt>
      <trkpt lat="47.23847" lon="-2.30683">
        <ele>11</ele>
        <time>2021-05-23T07:48:41.982Z</time>
      </trkpt>
      <trkpt lat="47.23848" lon="-2.30684">
        <ele>11</ele>
        <time>2021-05-23T07:48:42.983Z</time>
      </trkpt>
      <trkpt lat="47.23849" lon="-2.30685">
        <ele>10</ele>
        <time>2021-05-23T07:48:43.983Z</time>
      </trkpt>
      <trkpt lat="47.2385" lon="-2.30687">
        <ele>10</ele>
        <time>2021-05-23T07:48:44.983Z</time>
      </trkpt>
      <trkpt lat="47.23851" lon="-2.30688">
        <ele>10</ele>
        <time>2021-05-23T07:48:45.983Z</time>
      </trkpt>
      <trkpt lat="47.23852" lon="-2.3069">
        <ele>10</ele>
        <time>2021-05-23T07:48:46.983Z</time>
      </trkpt>
      <trkpt lat="47.23854" lon="-2.30692">
        <ele>10</ele>
        <time>2021-05-23T07:48:47.983Z</time>
      </trkpt>
      <trkpt lat="47.23855" lon="-2.30694">
        <ele>10</ele>
        <time>2021-05-23T07:48:48.983Z</time>
      </trkpt>
      <trkpt lat="47.23856" lon="-2.30697">
        <ele>10</ele>
        <time>2021-05-23T07:48:49.983Z</time>
      </trkpt>
      <trkpt lat="47.23858" lon="-2.307">
        <ele>10</ele>
        <time>2021-05-23T07:48:50.983Z</time>
      </trkpt>
      <trkpt lat="47.2386" lon="-2.30702">
        <ele>10</ele>
        <time>2021-05-23T07:48:51.982Z</time>
      </trkpt>
      <trkpt lat="47.23862" lon="-2.30704">
        <ele>10</ele>
        <time>2021-05-23T07:48:52.983Z</time>
      </trkpt>
      <trkpt lat="47.23864" lon="-2.30707">
        <ele>10</ele>
        <time>2021-05-23T07:48:53.983Z</time>
      </trkpt>
      <trkpt lat="47.23866" lon="-2.30708">
        <ele>9</ele>
        <time>2021-05-23T07:48:54.982Z</time>
      </trkpt>
      <trkpt lat="47.23868" lon="-2.30709">
        <ele>9</ele>
        <time>2021-05-23T07:48:55.982Z</time>
      </trkpt>
      <trkpt lat="47.2387" lon="-2.30708">
        <ele>9</ele>
        <time>2021-05-23T07:48:56.982Z</time>
      </trkpt>
      <trkpt lat="47.23872" lon="-2.30708">
        <ele>8</ele>
        <time>2021-05-23T07:48:57.982Z</time>
      </trkpt>
      <trkpt lat="47.23873" lon="-2.30708">
        <ele>8</ele>
        <time>2021-05-23T07:48:58.983Z</time>
      </trkpt>
      <trkpt lat="47.23875" lon="-2.30709">
        <ele>8</ele>
        <time>2021-05-23T07:48:59.983Z</time>
      </trkpt>
      <trkpt lat="47.23877" lon="-2.30709">
        <ele>7</ele>
        <time>2021-05-23T07:49:00.983Z</time>
      </trkpt>
      <trkpt lat="47.2388" lon="-2.30709">
        <ele>7</ele>
        <time>2021-05-23T07:49:01.983Z</time>
      </trkpt>
      <trkpt lat="47.23881" lon="-2.3071">
        <ele>6</ele>
        <time>2021-05-23T07:49:02.983Z</time>
      </trkpt>
      <trkpt lat="47.23882" lon="-2.30711">
        <ele>6</ele>
        <time>2021-05-23T07:49:03.983Z</time>
      </trkpt>
      <trkpt lat="47.23884" lon="-2.30713">
        <ele>5</ele>
        <time>2021-05-23T07:49:04.983Z</time>
      </trkpt>
      <trkpt lat="47.23885" lon="-2.30713">
        <ele>5</ele>
        <time>2021-05-23T07:49:05.982Z</time>
      </trkpt>
      <trkpt lat="47.23887" lon="-2.30713">
        <ele>5</ele>
        <time>2021-05-23T07:49:06.982Z</time>
      </trkpt>
      <trkpt lat="47.23889" lon="-2.30713">
        <ele>5</ele>
        <time>2021-05-23T07:49:07.983Z</time>
      </trkpt>
      <trkpt lat="47.23891" lon="-2.30712">
        <ele>5</ele>
        <time>2021-05-23T07:49:08.983Z</time>
      </trkpt>
      <trkpt lat="47.23893" lon="-2.30711">
        <ele>5</ele>
        <time>2021-05-23T07:49:09.983Z</time>
      </trkpt>
      <trkpt lat="47.23895" lon="-2.3071">
        <ele>5</ele>
        <time>2021-05-23T07:49:10.983Z</time>
      </trkpt>
      <trkpt lat="47.23897" lon="-2.3071">
        <ele>4</ele>
        <time>2021-05-23T07:49:11.983Z</time>
      </trkpt>
      <trkpt lat="47.23898" lon="-2.30711">
        <ele>4</ele>
        <time>2021-05-23T07:49:12.983Z</time>
      </trkpt>
      <trkpt lat="47.239" lon="-2.30712">
        <ele>4</ele>
        <time>2021-05-23T07:49:13.983Z</time>
      </trkpt>
      <trkpt lat="47.23901" lon="-2.30713">
        <ele>3</ele>
        <time>2021-05-23T07:49:14.982Z</time>
      </trkpt>
      <trkpt lat="47.23901" lon="-2.30713">
        <ele>3</ele>
        <time>2021-05-23T07:49:15.983Z</time>
      </trkpt>
      <trkpt lat="47.23901" lon="-2.30714">
        <ele>3</ele>
        <time>2021-05-23T07:49:16.983Z</time>
      </trkpt>
      <trkpt lat="47.23901" lon="-2.30715">
        <ele>3</ele>
        <time>2021-05-23T07:49:17.982Z</time>
      </trkpt>
      <trkpt lat="47.23901" lon="-2.30716">
        <ele>3</ele>
        <time>2021-05-23T07:49:18.983Z</time>
      </trkpt>
      <trkpt lat="47.23901" lon="-2.30717">
        <ele>3</ele>
        <time>2021-05-23T07:49:19.982Z</time>
      </trkpt>
      <trkpt lat="47.23901" lon="-2.30718">
        <ele>3</ele>
        <time>2021-05-23T07:49:20.982Z</time>
      </trkpt>
      <trkpt lat="47.23901" lon="-2.30719">
        <ele>3</ele>
        <time>2021-05-23T07:49:21.982Z</time>
      </trkpt>
      <trkpt lat="47.239" lon="-2.3072">
        <ele>2</ele>
        <time>2021-05-23T07:49:22.983Z</time>
      </trkpt>
      <trkpt lat="47.239" lon="-2.30721">
        <ele>2</ele>
        <time>2021-05-23T07:49:23.983Z</time>
      </trkpt>
      <trkpt lat="47.239" lon="-2.30722">
        <ele>2</ele>
        <time>2021-05-23T07:49:24.982Z</time>
      </trkpt>
      <trkpt lat="47.239" lon="-2.30723">
        <ele>2</ele>
        <time>2021-05-23T07:49:25.983Z</time>
      </trkpt>
      <trkpt lat="47.239" lon="-2.30725">
        <ele>1</ele>
        <time>2021-05-23T07:49:26.982Z</time>
      </trkpt>
      <trkpt lat="47.239" lon="-2.30727">
        <ele>1</ele>
        <time>2021-05-23T07:49:27.983Z</time>
      </trkpt>
      <trkpt lat="47.239" lon="-2.30729">
        <ele>9.8</ele>
        <time>2021-05-23T07:49:28.982Z</time>
      </trkpt>
      <trkpt lat="47.239" lon="-2.3073">
        <ele>9.6</ele>
        <time>2021-05-23T07:49:29.982Z</time>
      </trkpt>
      <trkpt lat="47.239" lon="-2.30731">
        <ele>9.5</ele>
        <time>2021-05-23T07:49:30.983Z</time>
      </trkpt>
      <trkpt lat="47.23899" lon="-2.30732">
        <ele>9.4</ele>
        <time>2021-05-23T07:49:31.983Z</time>
      </trkpt>
      <trkpt lat="47.23899" lon="-2.30733">
        <ele>9.2</ele>
        <time>2021-05-23T07:49:32.983Z</time>
      </trkpt>
      <trkpt lat="47.23898" lon="-2.30733">
        <ele>9.1</ele>
        <time>2021-05-23T07:49:33.983Z</time>
      </trkpt>
      <trkpt lat="47.23898" lon="-2.30734">
        <ele>9</ele>
        <time>2021-05-23T07:49:34.983Z</time>
      </trkpt>
      <trkpt lat="47.23898" lon="-2.30735">
        <ele>8.9</ele>
        <time>2021-05-23T07:49:35.983Z</time>
      </trkpt>
      <trkpt lat="47.23898" lon="-2.30737">
        <ele>8.7</ele>
        <time>2021-05-23T07:49:36.983Z</time>
      </trkpt>
      <trkpt lat="47.23897" lon="-2.30739">
        <ele>-1</ele>
        <time>2021-05-23T07:49:37.982Z</time>
      </trkpt>
      <trkpt lat="47.23895" lon="-2.30741">
        <ele>8</ele>
        <time>2021-05-23T07:49:38.983Z</time>
      </trkpt>
      <trkpt lat="47.23894" lon="-2.30743">
        <ele>7.6</ele>
        <time>2021-05-23T07:49:39.983Z</time>
      </trkpt>
      <trkpt lat="47.23892" lon="-2.30746">
        <ele>7.2</ele>
        <time>2021-05-23T07:49:40.983Z</time>
      </trkpt>
      <trkpt lat="47.23891" lon="-2.30749">
        <ele>6.7</ele>
        <time>2021-05-23T07:49:41.982Z</time>
      </trkpt>
      <trkpt lat="47.23889" lon="-2.30751">
        <ele>6.3</ele>
        <time>2021-05-23T07:49:42.983Z</time>
      </trkpt>
      <trkpt lat="47.23888" lon="-2.30753">
        <ele>6.1</ele>
        <time>2021-05-23T07:49:43.982Z</time>
      </trkpt>
      <trkpt lat="47.23887" lon="-2.30756">
        <ele>6</ele>
        <time>2021-05-23T07:49:44.983Z</time>
      </trkpt>
      <trkpt lat="47.23887" lon="-2.30759">
        <ele>5.8</ele>
        <time>2021-05-23T07:49:45.982Z</time>
      </trkpt>
      <trkpt lat="47.23887" lon="-2.30761">
        <ele>5.7</ele>
        <time>2021-05-23T07:49:46.982Z</time>
      </trkpt>
      <trkpt lat="47.23887" lon="-2.30764">
        <ele>5.6</ele>
        <time>2021-05-23T07:49:47.982Z</time>
      </trkpt>
      <trkpt lat="47.23887" lon="-2.30766">
        <ele>5.5</ele>
        <time>2021-05-23T07:49:48.982Z</time>
      </trkpt>
      <trkpt lat="47.23886" lon="-2.30768">
        <ele>5.4</ele>
        <time>2021-05-23T07:49:49.983Z</time>
      </trkpt>
      <trkpt lat="47.23886" lon="-2.30769">
        <ele>5.3</ele>
        <time>2021-05-23T07:49:50.983Z</time>
      </trkpt>
      <trkpt lat="47.23886" lon="-2.3077">
        <ele>5.3</ele>
        <time>2021-05-23T07:49:51.983Z</time>
      </trkpt>
      <trkpt lat="47.23885" lon="-2.3077">
        <ele>1</ele>
        <time>2021-05-23T07:49:52.983Z</time>
      </trkpt>
      <trkpt lat="47.23885" lon="-2.3077">
        <ele>2</ele>
        <time>2021-05-23T07:49:53.983Z</time>
      </trkpt>
      <trkpt lat="47.23885" lon="-2.30771">
        <ele>2</ele>
        <time>2021-05-23T07:49:54.982Z</time>
      </trkpt>
      <trkpt lat="47.23885" lon="-2.30771">
        <ele>2</ele>
        <time>2021-05-23T07:49:55.983Z</time>
      </trkpt>
      <trkpt lat="47.23885" lon="-2.30771">
        <ele>1</ele>
        <time>2021-05-23T07:49:56.983Z</time>
      </trkpt>
      <trkpt lat="47.23885" lon="-2.30771">
        <ele>1</ele>
        <time>2021-05-23T07:49:57.983Z</time>
      </trkpt>
      <trkpt lat="47.23885" lon="-2.30771">
        <ele>1</ele>
        <time>2021-05-23T07:49:58.983Z</time>
      </trkpt>
      <trkpt lat="47.23885" lon="-2.30772">
        <ele>1</ele>
        <time>2021-05-23T07:49:59.983Z</time>
      </trkpt>
      <trkpt lat="47.23885" lon="-2.30774">
        <ele>1</ele>
        <time>2021-05-23T07:50:00.983Z</time>
      </trkpt>
      <trkpt lat="47.23885" lon="-2.30776">
        <ele>2</ele>
        <time>2021-05-23T07:50:01.983Z</time>
      </trkpt>
      <trkpt lat="47.23885" lon="-2.30778">
        <ele>2</ele>
        <time>2021-05-23T07:50:02.983Z</time>
      </trkpt>
      <trkpt lat="47.23886" lon="-2.30782">
        <ele>2</ele>
        <time>2021-05-23T07:50:03.983Z</time>
      </trkpt>
      <trkpt lat="47.23886" lon="-2.30785">
        <ele>2</ele>
        <time>2021-05-23T07:50:04.983Z</time>
      </trkpt>
      <trkpt lat="47.23886" lon="-2.30789">
        <ele>2</ele>
        <time>2021-05-23T07:50:05.983Z</time>
      </trkpt>
      <trkpt lat="47.23887" lon="-2.30792">
        <ele>1</ele>
        <time>2021-05-23T07:50:06.983Z</time>
      </trkpt>
      <trkpt lat="47.23888" lon="-2.30796">
        <ele>4.5</ele>
        <time>2021-05-23T07:50:07.982Z</time>
      </trkpt>
      <trkpt lat="47.23889" lon="-2.30799">
        <ele>4.4</ele>
        <time>2021-05-23T07:50:08.982Z</time>
      </trkpt>
      <trkpt lat="47.2389" lon="-2.30802">
        <ele>4.3</ele>
        <time>2021-05-23T07:50:09.982Z</time>
      </trkpt>
      <trkpt lat="47.2389" lon="-2.30805">
        <ele>4.2</ele>
        <time>2021-05-23T07:50:10.982Z</time>
      </trkpt>
      <trkpt lat="47.23892" lon="-2.30809">
        <ele>4.1</ele>
        <time>2021-05-23T07:50:11.982Z</time>
      </trkpt>
      <trkpt lat="47.23893" lon="-2.30812">
        <ele>4</ele>
        <time>2021-05-23T07:50:12.983Z</time>
      </trkpt>
      <trkpt lat="47.23894" lon="-2.30815">
        <ele>3.9</ele>
        <time>2021-05-23T07:50:13.983Z</time>
      </trkpt>
      <trkpt lat="47.23896" lon="-2.30818">
        <ele>3.7</ele>
        <time>2021-05-23T07:50:14.982Z</time>
      </trkpt>
      <trkpt lat="47.23897" lon="-2.3082">
        <ele>3.6</ele>
        <time>2021-05-23T07:50:15.983Z</time>
      </trkpt>
      <trkpt lat="47.23898" lon="-2.30823">
        <ele>-1</ele>
        <time>2021-05-23T07:50:16.982Z</time>
      </trkpt>
      <trkpt lat="47.23899" lon="-2.30826">
        <ele>3.4</ele>
        <time>2021-05-23T07:50:17.982Z</time>
      </trkpt>
      <trkpt lat="47.239" lon="-2.30829">
        <ele>3.2</ele>
        <time>2021-05-23T07:50:18.983Z</time>
      </trkpt>
      <trkpt lat="47.23901" lon="-2.30832">
        <ele>3.1</ele>
        <time>2021-05-23T07:50:19.982Z</time>
      </trkpt>
      <trkpt lat="47.23902" lon="-2.30835">
        <ele>3</ele>
        <time>2021-05-23T07:50:20.983Z</time>
      </trkpt>
      <trkpt lat="47.23904" lon="-2.30838">
        <ele>3</ele>
        <time>2021-05-23T07:50:21.983Z</time>
      </trkpt>
      <trkpt lat="47.23906" lon="-2.3084">
        <ele>3</ele>
        <time>2021-05-23T07:50:22.983Z</time>
      </trkpt>
      <trkpt lat="47.23907" lon="-2.30841">
        <ele>3</ele>
        <time>2021-05-23T07:50:23.983Z</time>
      </trkpt>
      <trkpt lat="47.23909" lon="-2.30843">
        <ele>-1</ele>
        <time>2021-05-23T07:50:24.983Z</time>
      </trkpt>
      <trkpt lat="47.2391" lon="-2.30845">
        <ele>-1</ele>
        <time>2021-05-23T07:50:25.983Z</time>
      </trkpt>
      <trkpt lat="47.23912" lon="-2.30846">
        <ele>3</ele>
        <time>2021-05-23T07:50:26.983Z</time>
      </trkpt>
      <trkpt lat="47.23914" lon="-2.30848">
        <ele>3</ele>
        <time>2021-05-23T07:50:27.983Z</time>
      </trkpt>
      <trkpt lat="47.23915" lon="-2.3085">
        <ele>3</ele>
        <time>2021-05-23T07:50:28.983Z</time>
      </trkpt>
      <trkpt lat="47.23917" lon="-2.30853">
        <ele>2.8</ele>
        <time>2021-05-23T07:50:29.983Z</time>
      </trkpt>
      <trkpt lat="47.23918" lon="-2.30855">
        <ele>2.8</ele>
        <time>2021-05-23T07:50:30.983Z</time>
      </trkpt>
      <trkpt lat="47.23919" lon="-2.30858">
        <ele>2.9</ele>
        <time>2021-05-23T07:50:31.982Z</time>
      </trkpt>
      <trkpt lat="47.23921" lon="-2.30861">
        <ele>2.9</ele>
        <time>2021-05-23T07:50:32.983Z</time>
      </trkpt>
      <trkpt lat="47.23922" lon="-2.30863">
        <ele>3</ele>
        <time>2021-05-23T07:50:33.983Z</time>
      </trkpt>
      <trkpt lat="47.23924" lon="-2.30866">
        <ele>-2</ele>
        <time>2021-05-23T07:50:34.983Z</time>
      </trkpt>
      <trkpt lat="47.23925" lon="-2.30869">
        <ele>-1</ele>
        <time>2021-05-23T07:50:35.983Z</time>
      </trkpt>
      <trkpt lat="47.23927" lon="-2.30871">
        <ele>-2</ele>
        <time>2021-05-23T07:50:36.982Z</time>
      </trkpt>
      <trkpt lat="47.23928" lon="-2.30873">
        <ele>-3</ele>
        <time>2021-05-23T07:50:37.983Z</time>
      </trkpt>
      <trkpt lat="47.2393" lon="-2.30876">
        <ele>-4</ele>
        <time>2021-05-23T07:50:38.982Z</time>
      </trkpt>
      <trkpt lat="47.23931" lon="-2.30878">
        <ele>-5</ele>
        <time>2021-05-23T07:50:39.983Z</time>
      </trkpt>
      <trkpt lat="47.23932" lon="-2.30879">
        <ele>-5</ele>
        <time>2021-05-23T07:50:40.982Z</time>
      </trkpt>
      <trkpt lat="47.23934" lon="-2.30881">
        <ele>-5</ele>
        <time>2021-05-23T07:50:41.982Z</time>
      </trkpt>
      <trkpt lat="47.23935" lon="-2.30883">
        <ele>-5</ele>
        <time>2021-05-23T07:50:42.982Z</time>
      </trkpt>
      <trkpt lat="47.23936" lon="-2.30884">
        <ele>-5</ele>
        <time>2021-05-23T07:50:43.983Z</time>
      </trkpt>
      <trkpt lat="47.23937" lon="-2.30884">
        <ele>-5</ele>
        <time>2021-05-23T07:50:44.983Z</time>
      </trkpt>
      <trkpt lat="47.23938" lon="-2.30885">
        <ele>-7</ele>
        <time>2021-05-23T07:50:45.982Z</time>
      </trkpt>
      <trkpt lat="47.23938" lon="-2.30885">
        <ele>-5</ele>
        <time>2021-05-23T07:50:46.982Z</time>
      </trkpt>
      <trkpt lat="47.23939" lon="-2.30886">
        <ele>-5</ele>
        <time>2021-05-23T07:50:47.982Z</time>
      </trkpt>
      <trkpt lat="47.2394" lon="-2.30888">
        <ele>-6</ele>
        <time>2021-05-23T07:50:48.982Z</time>
      </trkpt>
      <trkpt lat="47.23942" lon="-2.3089">
        <ele>-4</ele>
        <time>2021-05-23T07:50:49.982Z</time>
      </trkpt>
      <trkpt lat="47.23943" lon="-2.30891">
        <ele>-5</ele>
        <time>2021-05-23T07:50:50.982Z</time>
      </trkpt>
      <trkpt lat="47.23944" lon="-2.30893">
        <ele>-5</ele>
        <time>2021-05-23T07:50:51.983Z</time>
      </trkpt>
      <trkpt lat="47.23946" lon="-2.30894">
        <ele>-5</ele>
        <time>2021-05-23T07:50:52.982Z</time>
      </trkpt>
      <trkpt lat="47.23947" lon="-2.30896">
        <ele>-5</ele>
        <time>2021-05-23T07:50:53.983Z</time>
      </trkpt>
      <trkpt lat="47.23949" lon="-2.30898">
        <ele>-6</ele>
        <time>2021-05-23T07:50:54.982Z</time>
      </trkpt>
      <trkpt lat="47.2395" lon="-2.309">
        <ele>-6</ele>
        <time>2021-05-23T07:50:55.983Z</time>
      </trkpt>
      <trkpt lat="47.23952" lon="-2.30902">
        <ele>-5</ele>
        <time>2021-05-23T07:50:56.982Z</time>
      </trkpt>
      <trkpt lat="47.23953" lon="-2.30904">
        <ele>-4</ele>
        <time>2021-05-23T07:50:57.983Z</time>
      </trkpt>
      <trkpt lat="47.23954" lon="-2.30906">
        <ele>-4</ele>
        <time>2021-05-23T07:50:58.982Z</time>
      </trkpt>
      <trkpt lat="47.23956" lon="-2.30909">
        <ele>-4</ele>
        <time>2021-05-23T07:50:59.983Z</time>
      </trkpt>
      <trkpt lat="47.23958" lon="-2.30911">
        <ele>-3</ele>
        <time>2021-05-23T07:51:00.983Z</time>
      </trkpt>
      <trkpt lat="47.23959" lon="-2.30914">
        <ele>-3</ele>
        <time>2021-05-23T07:51:01.983Z</time>
      </trkpt>
      <trkpt lat="47.2396" lon="-2.30916">
        <ele>-3</ele>
        <time>2021-05-23T07:51:02.982Z</time>
      </trkpt>
      <trkpt lat="47.23962" lon="-2.30919">
        <ele>-4</ele>
        <time>2021-05-23T07:51:03.983Z</time>
      </trkpt>
      <trkpt lat="47.23963" lon="-2.30921">
        <ele>-4</ele>
        <time>2021-05-23T07:51:04.983Z</time>
      </trkpt>
      <trkpt lat="47.23965" lon="-2.30924">
        <ele>-4</ele>
        <time>2021-05-23T07:51:05.983Z</time>
      </trkpt>
      <trkpt lat="47.23967" lon="-2.30927">
        <ele>-4</ele>
        <time>2021-05-23T07:51:06.983Z</time>
      </trkpt>
      <trkpt lat="47.23968" lon="-2.30929">
        <ele>-4</ele>
        <time>2021-05-23T07:51:07.983Z</time>
      </trkpt>
      <trkpt lat="47.23969" lon="-2.30932">
        <ele>-4</ele>
        <time>2021-05-23T07:51:08.982Z</time>
      </trkpt>
      <trkpt lat="47.23971" lon="-2.30936">
        <ele>-4</ele>
        <time>2021-05-23T07:51:09.983Z</time>
      </trkpt>
      <trkpt lat="47.23972" lon="-2.30939">
        <ele>-4</ele>
        <time>2021-05-23T07:51:10.983Z</time>
      </trkpt>
      <trkpt lat="47.23974" lon="-2.30942">
        <ele>-4</ele>
        <time>2021-05-23T07:51:11.983Z</time>
      </trkpt>
      <trkpt lat="47.23975" lon="-2.30946">
        <ele>-4</ele>
        <time>2021-05-23T07:51:12.982Z</time>
      </trkpt>
      <trkpt lat="47.23977" lon="-2.30949">
        <ele>-4</ele>
        <time>2021-05-23T07:51:13.983Z</time>
      </trkpt>
      <trkpt lat="47.23979" lon="-2.30953">
        <ele>-4</ele>
        <time>2021-05-23T07:51:14.983Z</time>
      </trkpt>
      <trkpt lat="47.23981" lon="-2.30956">
        <ele>-4</ele>
        <time>2021-05-23T07:51:15.982Z</time>
      </trkpt>
      <trkpt lat="47.23982" lon="-2.30959">
        <ele>-4</ele>
        <time>2021-05-23T07:51:16.982Z</time>
      </trkpt>
      <trkpt lat="47.23984" lon="-2.30962">
        <ele>-4</ele>
        <time>2021-05-23T07:51:17.983Z</time>
      </trkpt>
      <trkpt lat="47.23986" lon="-2.30965">
        <ele>-4</ele>
        <time>2021-05-23T07:51:18.983Z</time>
      </trkpt>
      <trkpt lat="47.23988" lon="-2.30969">
        <ele>-4</ele>
        <time>2021-05-23T07:51:19.983Z</time>
      </trkpt>
      <trkpt lat="47.2399" lon="-2.30972">
        <ele>-4</ele>
        <time>2021-05-23T07:51:20.983Z</time>
      </trkpt>
      <trkpt lat="47.23991" lon="-2.30975">
        <ele>-4</ele>
        <time>2021-05-23T07:51:21.983Z</time>
      </trkpt>
      <trkpt lat="47.23993" lon="-2.30978">
        <ele>-3</ele>
        <time>2021-05-23T07:51:22.983Z</time>
      </trkpt>
      <trkpt lat="47.23994" lon="-2.30981">
        <ele>-3</ele>
        <time>2021-05-23T07:51:23.982Z</time>
      </trkpt>
      <trkpt lat="47.23996" lon="-2.30984">
        <ele>-2</ele>
        <time>2021-05-23T07:51:24.983Z</time>
      </trkpt>
      <trkpt lat="47.23998" lon="-2.30987">
        <ele>-2</ele>
        <time>2021-05-23T07:51:25.983Z</time>
      </trkpt>
      <trkpt lat="47.24" lon="-2.30989">
        <ele>-1</ele>
        <time>2021-05-23T07:51:26.983Z</time>
      </trkpt>
      <trkpt lat="47.24001" lon="-2.30991">
        <ele>-1</ele>
        <time>2021-05-23T07:51:27.982Z</time>
      </trkpt>
      <trkpt lat="47.24003" lon="-2.30994">
        <ele>4.8</ele>
        <time>2021-05-23T07:51:28.983Z</time>
      </trkpt>
      <trkpt lat="47.24005" lon="-2.30997">
        <ele>4.9</ele>
        <time>2021-05-23T07:51:29.982Z</time>
      </trkpt>
      <trkpt lat="47.24006" lon="-2.31">
        <ele>5</ele>
        <time>2021-05-23T07:51:30.983Z</time>
      </trkpt>
      <trkpt lat="47.24009" lon="-2.31002">
        <ele>5</ele>
        <time>2021-05-23T07:51:31.983Z</time>
      </trkpt>
      <trkpt lat="47.24011" lon="-2.31005">
        <ele>5</ele>
        <time>2021-05-23T07:51:32.983Z</time>
      </trkpt>
      <trkpt lat="47.24013" lon="-2.31006">
        <ele>5</ele>
        <time>2021-05-23T07:51:33.983Z</time>
      </trkpt>
      <trkpt lat="47.24015" lon="-2.31009">
        <ele>5</ele>
        <time>2021-05-23T07:51:34.983Z</time>
      </trkpt>
      <trkpt lat="47.24017" lon="-2.31012">
        <ele>5</ele>
        <time>2021-05-23T07:51:35.982Z</time>
      </trkpt>
      <trkpt lat="47.24019" lon="-2.31015">
        <ele>5</ele>
        <time>2021-05-23T07:51:36.982Z</time>
      </trkpt>
      <trkpt lat="47.24021" lon="-2.31017">
        <ele>5</ele>
        <time>2021-05-23T07:51:37.983Z</time>
      </trkpt>
      <trkpt lat="47.24023" lon="-2.3102">
        <ele>5</ele>
        <time>2021-05-23T07:51:38.983Z</time>
      </trkpt>
      <trkpt lat="47.24025" lon="-2.31022">
        <ele>5</ele>
        <time>2021-05-23T07:51:39.983Z</time>
      </trkpt>
      <trkpt lat="47.24027" lon="-2.31024">
        <ele>-2</ele>
        <time>2021-05-23T07:51:40.983Z</time>
      </trkpt>
      <trkpt lat="47.24029" lon="-2.31027">
        <ele>-1</ele>
        <time>2021-05-23T07:51:41.982Z</time>
      </trkpt>
      <trkpt lat="47.24031" lon="-2.3103">
        <ele>-1</ele>
        <time>2021-05-23T07:51:42.982Z</time>
      </trkpt>
      <trkpt lat="47.24033" lon="-2.31032">
        <ele>-1</ele>
        <time>2021-05-23T07:51:43.982Z</time>
      </trkpt>
      <trkpt lat="47.24035" lon="-2.31034">
        <ele>-1</ele>
        <time>2021-05-23T07:51:44.982Z</time>
      </trkpt>
      <trkpt lat="47.24037" lon="-2.31036">
        <ele>5</ele>
        <time>2021-05-23T07:51:45.982Z</time>
      </trkpt>
      <trkpt lat="47.24038" lon="-2.31038">
        <ele>5</ele>
        <time>2021-05-23T07:51:46.983Z</time>
      </trkpt>
      <trkpt lat="47.2404" lon="-2.31041">
        <ele>5</ele>
        <time>2021-05-23T07:51:47.983Z</time>
      </trkpt>
      <trkpt lat="47.24042" lon="-2.31043">
        <ele>5</ele>
        <time>2021-05-23T07:51:48.983Z</time>
      </trkpt>
      <trkpt lat="47.24044" lon="-2.31046">
        <ele>5</ele>
        <time>2021-05-23T07:51:49.982Z</time>
      </trkpt>
      <trkpt lat="47.24046" lon="-2.31048">
        <ele>5</ele>
        <time>2021-05-23T07:51:50.983Z</time>
      </trkpt>
      <trkpt lat="47.24047" lon="-2.31052">
        <ele>5</ele>
        <time>2021-05-23T07:51:51.983Z</time>
      </trkpt>
      <trkpt lat="47.24049" lon="-2.31055">
        <ele>5</ele>
        <time>2021-05-23T07:51:52.983Z</time>
      </trkpt>
      <trkpt lat="47.24051" lon="-2.31058">
        <ele>5</ele>
        <time>2021-05-23T07:51:53.983Z</time>
      </trkpt>
      <trkpt lat="47.24052" lon="-2.3106">
        <ele>5</ele>
        <time>2021-05-23T07:51:54.983Z</time>
      </trkpt>
      <trkpt lat="47.24054" lon="-2.31063">
        <ele>-1</ele>
        <time>2021-05-23T07:51:55.982Z</time>
      </trkpt>
      <trkpt lat="47.24056" lon="-2.31065">
        <ele>-1</ele>
        <time>2021-05-23T07:51:56.983Z</time>
      </trkpt>
      <trkpt lat="47.24057" lon="-2.31068">
        <ele>-1</ele>
        <time>2021-05-23T07:51:57.983Z</time>
      </trkpt>
      <trkpt lat="47.24058" lon="-2.31071">
        <ele>-1</ele>
        <time>2021-05-23T07:51:58.983Z</time>
      </trkpt>
      <trkpt lat="47.2406" lon="-2.31073">
        <ele>-1</ele>
        <time>2021-05-23T07:51:59.983Z</time>
      </trkpt>
      <trkpt lat="47.24062" lon="-2.31076">
        <ele>-1</ele>
        <time>2021-05-23T07:52:00.983Z</time>
      </trkpt>
      <trkpt lat="47.24064" lon="-2.31079">
        <ele>-1</ele>
        <time>2021-05-23T07:52:01.983Z</time>
      </trkpt>
      <trkpt lat="47.24065" lon="-2.31082">
        <ele>-2</ele>
        <time>2021-05-23T07:52:02.983Z</time>
      </trkpt>
      <trkpt lat="47.24067" lon="-2.31084">
        <ele>-1</ele>
        <time>2021-05-23T07:52:03.982Z</time>
      </trkpt>
      <trkpt lat="47.24069" lon="-2.31086">
        <ele>-1</ele>
        <time>2021-05-23T07:52:04.982Z</time>
      </trkpt>
      <trkpt lat="47.24072" lon="-2.31088">
        <ele>-1</ele>
        <time>2021-05-23T07:52:05.982Z</time>
      </trkpt>
      <trkpt lat="47.24073" lon="-2.31091">
        <ele>-2</ele>
        <time>2021-05-23T07:52:06.983Z</time>
      </trkpt>
      <trkpt lat="47.24076" lon="-2.31094">
        <ele>-2</ele>
        <time>2021-05-23T07:52:07.983Z</time>
      </trkpt>
      <trkpt lat="47.24077" lon="-2.31097">
        <ele>-2</ele>
        <time>2021-05-23T07:52:08.983Z</time>
      </trkpt>
      <trkpt lat="47.24079" lon="-2.311">
        <ele>-2</ele>
        <time>2021-05-23T07:52:09.983Z</time>
      </trkpt>
      <trkpt lat="47.2408" lon="-2.31104">
        <ele>-3</ele>
        <time>2021-05-23T07:52:10.982Z</time>
      </trkpt>
      <trkpt lat="47.24081" lon="-2.31106">
        <ele>-3</ele>
        <time>2021-05-23T07:52:11.983Z</time>
      </trkpt>
      <trkpt lat="47.24083" lon="-2.31109">
        <ele>-4</ele>
        <time>2021-05-23T07:52:12.983Z</time>
      </trkpt>
      <trkpt lat="47.24084" lon="-2.31112">
        <ele>-4</ele>
        <time>2021-05-23T07:52:13.983Z</time>
      </trkpt>
      <trkpt lat="47.24087" lon="-2.31114">
        <ele>-4</ele>
        <time>2021-05-23T07:52:14.982Z</time>
      </trkpt>
      <trkpt lat="47.24089" lon="-2.31117">
        <ele>-4</ele>
        <time>2021-05-23T07:52:15.983Z</time>
      </trkpt>
      <trkpt lat="47.24091" lon="-2.31119">
        <ele>-4</ele>
        <time>2021-05-23T07:52:16.983Z</time>
      </trkpt>
      <trkpt lat="47.24093" lon="-2.31121">
        <ele>-5</ele>
        <time>2021-05-23T07:52:17.982Z</time>
      </trkpt>
      <trkpt lat="47.24095" lon="-2.31124">
        <ele>-5</ele>
        <time>2021-05-23T07:52:18.982Z</time>
      </trkpt>
      <trkpt lat="47.24097" lon="-2.31126">
        <ele>-3</ele>
        <time>2021-05-23T07:52:19.983Z</time>
      </trkpt>
      <trkpt lat="47.24098" lon="-2.31128">
        <ele>-3</ele>
        <time>2021-05-23T07:52:20.982Z</time>
      </trkpt>
      <trkpt lat="47.241" lon="-2.31132">
        <ele>-3</ele>
        <time>2021-05-23T07:52:21.983Z</time>
      </trkpt>
      <trkpt lat="47.24102" lon="-2.31134">
        <ele>-3</ele>
        <time>2021-05-23T07:52:22.983Z</time>
      </trkpt>
      <trkpt lat="47.24103" lon="-2.31136">
        <ele>-3</ele>
        <time>2021-05-23T07:52:23.983Z</time>
      </trkpt>
      <trkpt lat="47.24105" lon="-2.31139">
        <ele>-5</ele>
        <time>2021-05-23T07:52:24.983Z</time>
      </trkpt>
      <trkpt lat="47.24107" lon="-2.31142">
        <ele>-4</ele>
        <time>2021-05-23T07:52:25.983Z</time>
      </trkpt>
      <trkpt lat="47.24109" lon="-2.31144">
        <ele>-4</ele>
        <time>2021-05-23T07:52:26.983Z</time>
      </trkpt>
      <trkpt lat="47.2411" lon="-2.31146">
        <ele>-4</ele>
        <time>2021-05-23T07:52:27.983Z</time>
      </trkpt>
      <trkpt lat="47.24112" lon="-2.31149">
        <ele>-4</ele>
        <time>2021-05-23T07:52:28.982Z</time>
      </trkpt>
      <trkpt lat="47.24113" lon="-2.31152">
        <ele>-4</ele>
        <time>2021-05-23T07:52:29.983Z</time>
      </trkpt>
      <trkpt lat="47.24115" lon="-2.31154">
        <ele>-4</ele>
        <time>2021-05-23T07:52:30.983Z</time>
      </trkpt>
      <trkpt lat="47.24117" lon="-2.31157">
        <ele>-4</ele>
        <time>2021-05-23T07:52:31.983Z</time>
      </trkpt>
      <trkpt lat="47.24118" lon="-2.3116">
        <ele>-5</ele>
        <time>2021-05-23T07:52:32.982Z</time>
      </trkpt>
      <trkpt lat="47.2412" lon="-2.31163">
        <ele>-5</ele>
        <time>2021-05-23T07:52:33.983Z</time>
      </trkpt>
      <trkpt lat="47.24122" lon="-2.31165">
        <ele>-6</ele>
        <time>2021-05-23T07:52:34.983Z</time>
      </trkpt>
      <trkpt lat="47.24123" lon="-2.31168">
        <ele>-6</ele>
        <time>2021-05-23T07:52:35.983Z</time>
      </trkpt>
      <trkpt lat="47.24125" lon="-2.3117">
        <ele>-6</ele>
        <time>2021-05-23T07:52:36.982Z</time>
      </trkpt>
      <trkpt lat="47.24126" lon="-2.31173">
        <ele>-8</ele>
        <time>2021-05-23T07:52:37.982Z</time>
      </trkpt>
      <trkpt lat="47.24128" lon="-2.31176">
        <ele>-8</ele>
        <time>2021-05-23T07:52:38.983Z</time>
      </trkpt>
      <trkpt lat="47.24129" lon="-2.31179">
        <ele>-8</ele>
        <time>2021-05-23T07:52:39.983Z</time>
      </trkpt>
      <trkpt lat="47.24131" lon="-2.31181">
        <ele>-7</ele>
        <time>2021-05-23T07:52:40.983Z</time>
      </trkpt>
      <trkpt lat="47.24132" lon="-2.31184">
        <ele>-7</ele>
        <time>2021-05-23T07:52:41.983Z</time>
      </trkpt>
      <trkpt lat="47.24133" lon="-2.31187">
        <ele>-7</ele>
        <time>2021-05-23T07:52:42.982Z</time>
      </trkpt>
      <trkpt lat="47.24135" lon="-2.31189">
        <ele>-7</ele>
        <time>2021-05-23T07:52:43.983Z</time>
      </trkpt>
      <trkpt lat="47.24136" lon="-2.31192">
        <ele>-7</ele>
        <time>2021-05-23T07:52:44.983Z</time>
      </trkpt>
      <trkpt lat="47.24138" lon="-2.31195">
        <ele>-7</ele>
        <time>2021-05-23T07:52:45.982Z</time>
      </trkpt>
      <trkpt lat="47.24139" lon="-2.31198">
        <ele>-7</ele>
        <time>2021-05-23T07:52:46.983Z</time>
      </trkpt>
      <trkpt lat="47.2414" lon="-2.31201">
        <ele>-7</ele>
        <time>2021-05-23T07:52:47.982Z</time>
      </trkpt>
      <trkpt lat="47.24142" lon="-2.31203">
        <ele>-7</ele>
        <time>2021-05-23T07:52:48.983Z</time>
      </trkpt>
      <trkpt lat="47.24143" lon="-2.31206">
        <ele>-7</ele>
        <time>2021-05-23T07:52:49.983Z</time>
      </trkpt>
      <trkpt lat="47.24145" lon="-2.31209">
        <ele>-7</ele>
        <time>2021-05-23T07:52:50.983Z</time>
      </trkpt>
      <trkpt lat="47.24146" lon="-2.31212">
        <ele>-7</ele>
        <time>2021-05-23T07:52:51.983Z</time>
      </trkpt>
      <trkpt lat="47.24147" lon="-2.31215">
        <ele>-7</ele>
        <time>2021-05-23T07:52:52.982Z</time>
      </trkpt>
      <trkpt lat="47.24148" lon="-2.31218">
        <ele>-7</ele>
        <time>2021-05-23T07:52:53.982Z</time>
      </trkpt>
      <trkpt lat="47.2415" lon="-2.31221">
        <ele>-7</ele>
        <time>2021-05-23T07:52:54.983Z</time>
      </trkpt>
      <trkpt lat="47.24151" lon="-2.31223">
        <ele>-7</ele>
        <time>2021-05-23T07:52:55.983Z</time>
      </trkpt>
      <trkpt lat="47.24153" lon="-2.31226">
        <ele>-7</ele>
        <time>2021-05-23T07:52:56.982Z</time>
      </trkpt>
      <trkpt lat="47.24155" lon="-2.31228">
        <ele>-7</ele>
        <time>2021-05-23T07:52:57.983Z</time>
      </trkpt>
      <trkpt lat="47.24156" lon="-2.3123">
        <ele>-7</ele>
        <time>2021-05-23T07:52:58.982Z</time>
      </trkpt>
      <trkpt lat="47.24157" lon="-2.31232">
        <ele>-7</ele>
        <time>2021-05-23T07:52:59.983Z</time>
      </trkpt>
      <trkpt lat="47.24158" lon="-2.31235">
        <ele>-7</ele>
        <time>2021-05-23T07:53:00.982Z</time>
      </trkpt>
      <trkpt lat="47.2416" lon="-2.31238">
        <ele>-7</ele>
        <time>2021-05-23T07:53:01.983Z</time>
      </trkpt>
      <trkpt lat="47.24161" lon="-2.3124">
        <ele>-9</ele>
        <time>2021-05-23T07:53:02.983Z</time>
      </trkpt>
      <trkpt lat="47.24163" lon="-2.31243">
        <ele>-7</ele>
        <time>2021-05-23T07:53:03.983Z</time>
      </trkpt>
      <trkpt lat="47.24164" lon="-2.31246">
        <ele>-7</ele>
        <time>2021-05-23T07:53:04.983Z</time>
      </trkpt>
      <trkpt lat="47.24165" lon="-2.31248">
        <ele>-7</ele>
        <time>2021-05-23T07:53:05.983Z</time>
      </trkpt>
      <trkpt lat="47.24167" lon="-2.31251">
        <ele>-6</ele>
        <time>2021-05-23T07:53:06.983Z</time>
      </trkpt>
      <trkpt lat="47.24169" lon="-2.31254">
        <ele>-6</ele>
        <time>2021-05-23T07:53:07.982Z</time>
      </trkpt>
      <trkpt lat="47.24171" lon="-2.31257">
        <ele>-7</ele>
        <time>2021-05-23T07:53:08.983Z</time>
      </trkpt>
      <trkpt lat="47.24172" lon="-2.31259">
        <ele>-5</ele>
        <time>2021-05-23T07:53:09.983Z</time>
      </trkpt>
      <trkpt lat="47.24174" lon="-2.31262">
        <ele>-5</ele>
        <time>2021-05-23T07:53:10.983Z</time>
      </trkpt>
      <trkpt lat="47.24176" lon="-2.31264">
        <ele>-5</ele>
        <time>2021-05-23T07:53:11.983Z</time>
      </trkpt>
      <trkpt lat="47.24177" lon="-2.31266">
        <ele>-5</ele>
        <time>2021-05-23T07:53:12.983Z</time>
      </trkpt>
      <trkpt lat="47.24178" lon="-2.31268">
        <ele>-5</ele>
        <time>2021-05-23T07:53:13.983Z</time>
      </trkpt>
      <trkpt lat="47.2418" lon="-2.31272">
        <ele>-5</ele>
        <time>2021-05-23T07:53:14.983Z</time>
      </trkpt>
      <trkpt lat="47.24181" lon="-2.31274">
        <ele>-5</ele>
        <time>2021-05-23T07:53:15.982Z</time>
      </trkpt>
      <trkpt lat="47.24182" lon="-2.31276">
        <ele>-5</ele>
        <time>2021-05-23T07:53:16.983Z</time>
      </trkpt>
      <trkpt lat="47.24184" lon="-2.31279">
        <ele>-5</ele>
        <time>2021-05-23T07:53:17.983Z</time>
      </trkpt>
      <trkpt lat="47.24186" lon="-2.3128">
        <ele>-6</ele>
        <time>2021-05-23T07:53:18.982Z</time>
      </trkpt>
      <trkpt lat="47.24187" lon="-2.31283">
        <ele>-4</ele>
        <time>2021-05-23T07:53:19.983Z</time>
      </trkpt>
      <trkpt lat="47.24189" lon="-2.31285">
        <ele>-4</ele>
        <time>2021-05-23T07:53:20.983Z</time>
      </trkpt>
      <trkpt lat="47.2419" lon="-2.31287">
        <ele>-4</ele>
        <time>2021-05-23T07:53:21.982Z</time>
      </trkpt>
      <trkpt lat="47.24192" lon="-2.31289">
        <ele>-4</ele>
        <time>2021-05-23T07:53:22.983Z</time>
      </trkpt>
      <trkpt lat="47.24194" lon="-2.31291">
        <ele>-5</ele>
        <time>2021-05-23T07:53:23.982Z</time>
      </trkpt>
      <trkpt lat="47.24196" lon="-2.31294">
        <ele>-5</ele>
        <time>2021-05-23T07:53:24.983Z</time>
      </trkpt>
      <trkpt lat="47.24197" lon="-2.31297">
        <ele>-5</ele>
        <time>2021-05-23T07:53:25.983Z</time>
      </trkpt>
      <trkpt lat="47.24199" lon="-2.31299">
        <ele>-6</ele>
        <time>2021-05-23T07:53:26.982Z</time>
      </trkpt>
      <trkpt lat="47.242" lon="-2.31302">
        <ele>-6</ele>
        <time>2021-05-23T07:53:27.982Z</time>
      </trkpt>
      <trkpt lat="47.24201" lon="-2.31304">
        <ele>-6</ele>
        <time>2021-05-23T07:53:28.983Z</time>
      </trkpt>
      <trkpt lat="47.24203" lon="-2.31307">
        <ele>-7</ele>
        <time>2021-05-23T07:53:29.982Z</time>
      </trkpt>
      <trkpt lat="47.24204" lon="-2.3131">
        <ele>-7</ele>
        <time>2021-05-23T07:53:30.983Z</time>
      </trkpt>
      <trkpt lat="47.24206" lon="-2.31312">
        <ele>-7</ele>
        <time>2021-05-23T07:53:31.983Z</time>
      </trkpt>
      <trkpt lat="47.24207" lon="-2.31315">
        <ele>-8</ele>
        <time>2021-05-23T07:53:32.982Z</time>
      </trkpt>
      <trkpt lat="47.24208" lon="-2.31317">
        <ele>-8</ele>
        <time>2021-05-23T07:53:33.983Z</time>
      </trkpt>
      <trkpt lat="47.2421" lon="-2.3132">
        <ele>-8</ele>
        <time>2021-05-23T07:53:34.983Z</time>
      </trkpt>
      <trkpt lat="47.24211" lon="-2.31322">
        <ele>-8</ele>
        <time>2021-05-23T07:53:35.983Z</time>
      </trkpt>
      <trkpt lat="47.24213" lon="-2.31325">
        <ele>-9</ele>
        <time>2021-05-23T07:53:36.983Z</time>
      </trkpt>
      <trkpt lat="47.24215" lon="-2.31328">
        <ele>-9</ele>
        <time>2021-05-23T07:53:37.983Z</time>
      </trkpt>
      <trkpt lat="47.24216" lon="-2.31331">
        <ele>-9</ele>
        <time>2021-05-23T07:53:38.983Z</time>
      </trkpt>
      <trkpt lat="47.24218" lon="-2.31334">
        <ele>-9</ele>
        <time>2021-05-23T07:53:39.983Z</time>
      </trkpt>
      <trkpt lat="47.24219" lon="-2.31337">
        <ele>-9</ele>
        <time>2021-05-23T07:53:40.983Z</time>
      </trkpt>
      <trkpt lat="47.2422" lon="-2.3134">
        <ele>-8</ele>
        <time>2021-05-23T07:53:41.983Z</time>
      </trkpt>
      <trkpt lat="47.24222" lon="-2.31343">
        <ele>-8</ele>
        <time>2021-05-23T07:53:42.982Z</time>
      </trkpt>
      <trkpt lat="47.24223" lon="-2.31345">
        <ele>-7</ele>
        <time>2021-05-23T07:53:43.982Z</time>
      </trkpt>
      <trkpt lat="47.24225" lon="-2.31347">
        <ele>-7</ele>
        <time>2021-05-23T07:53:44.982Z</time>
      </trkpt>
      <trkpt lat="47.24227" lon="-2.3135">
        <ele>-6</ele>
        <time>2021-05-23T07:53:45.983Z</time>
      </trkpt>
      <trkpt lat="47.24228" lon="-2.31352">
        <ele>-7</ele>
        <time>2021-05-23T07:53:46.983Z</time>
      </trkpt>
      <trkpt lat="47.24229" lon="-2.31355">
        <ele>-5</ele>
        <time>2021-05-23T07:53:47.982Z</time>
      </trkpt>
      <trkpt lat="47.2423" lon="-2.31358">
        <ele>-4</ele>
        <time>2021-05-23T07:53:48.983Z</time>
      </trkpt>
      <trkpt lat="47.24231" lon="-2.31362">
        <ele>-4</ele>
        <time>2021-05-23T07:53:49.983Z</time>
      </trkpt>
      <trkpt lat="47.24233" lon="-2.31365">
        <ele>-4</ele>
        <time>2021-05-23T07:53:50.983Z</time>
      </trkpt>
      <trkpt lat="47.24234" lon="-2.31368">
        <ele>-4</ele>
        <time>2021-05-23T07:53:51.983Z</time>
      </trkpt>
      <trkpt lat="47.24235" lon="-2.31371">
        <ele>-4</ele>
        <time>2021-05-23T07:53:52.982Z</time>
      </trkpt>
      <trkpt lat="47.24236" lon="-2.31374">
        <ele>-4</ele>
        <time>2021-05-23T07:53:53.983Z</time>
      </trkpt>
      <trkpt lat="47.24238" lon="-2.31377">
        <ele>-6</ele>
        <time>2021-05-23T07:53:54.982Z</time>
      </trkpt>
      <trkpt lat="47.24239" lon="-2.31379">
        <ele>-6</ele>
        <time>2021-05-23T07:53:55.982Z</time>
      </trkpt>
      <trkpt lat="47.2424" lon="-2.31382">
        <ele>-4</ele>
        <time>2021-05-23T07:53:56.983Z</time>
      </trkpt>
      <trkpt lat="47.24242" lon="-2.31385">
        <ele>-4</ele>
        <time>2021-05-23T07:53:57.982Z</time>
      </trkpt>
      <trkpt lat="47.24243" lon="-2.31388">
        <ele>-5</ele>
        <time>2021-05-23T07:53:58.983Z</time>
      </trkpt>
      <trkpt lat="47.24245" lon="-2.31391">
        <ele>-5</ele>
        <time>2021-05-23T07:53:59.983Z</time>
      </trkpt>
      <trkpt lat="47.24246" lon="-2.31393">
        <ele>-5</ele>
        <time>2021-05-23T07:54:00.983Z</time>
      </trkpt>
      <trkpt lat="47.24248" lon="-2.31396">
        <ele>-5</ele>
        <time>2021-05-23T07:54:01.983Z</time>
      </trkpt>
      <trkpt lat="47.24249" lon="-2.31398">
        <ele>-5</ele>
        <time>2021-05-23T07:54:02.983Z</time>
      </trkpt>
      <trkpt lat="47.2425" lon="-2.31401">
        <ele>-5</ele>
        <time>2021-05-23T07:54:03.983Z</time>
      </trkpt>
      <trkpt lat="47.24252" lon="-2.31404">
        <ele>-4</ele>
        <time>2021-05-23T07:54:04.983Z</time>
      </trkpt>
      <trkpt lat="47.24253" lon="-2.31407">
        <ele>-5</ele>
        <time>2021-05-23T07:54:05.983Z</time>
      </trkpt>
      <trkpt lat="47.24254" lon="-2.3141">
        <ele>-3</ele>
        <time>2021-05-23T07:54:06.983Z</time>
      </trkpt>
      <trkpt lat="47.24256" lon="-2.31413">
        <ele>-3</ele>
        <time>2021-05-23T07:54:07.983Z</time>
      </trkpt>
      <trkpt lat="47.24257" lon="-2.31416">
        <ele>-3</ele>
        <time>2021-05-23T07:54:08.982Z</time>
      </trkpt>
      <trkpt lat="47.24258" lon="-2.31418">
        <ele>-3</ele>
        <time>2021-05-23T07:54:09.983Z</time>
      </trkpt>
      <trkpt lat="47.2426" lon="-2.31421">
        <ele>-3</ele>
        <time>2021-05-23T07:54:10.982Z</time>
      </trkpt>
      <trkpt lat="47.24261" lon="-2.31423">
        <ele>-3</ele>
        <time>2021-05-23T07:54:11.983Z</time>
      </trkpt>
      <trkpt lat="47.24263" lon="-2.31426">
        <ele>-2</ele>
        <time>2021-05-23T07:54:12.982Z</time>
      </trkpt>
      <trkpt lat="47.24264" lon="-2.31428">
        <ele>-4</ele>
        <time>2021-05-23T07:54:13.982Z</time>
      </trkpt>
      <trkpt lat="47.24266" lon="-2.3143">
        <ele>-3</ele>
        <time>2021-05-23T07:54:14.982Z</time>
      </trkpt>
      <trkpt lat="47.24267" lon="-2.31433">
        <ele>-3</ele>
        <time>2021-05-23T07:54:15.982Z</time>
      </trkpt>
      <trkpt lat="47.24269" lon="-2.31435">
        <ele>-4</ele>
        <time>2021-05-23T07:54:16.983Z</time>
      </trkpt>
      <trkpt lat="47.24271" lon="-2.31438">
        <ele>-4</ele>
        <time>2021-05-23T07:54:17.983Z</time>
      </trkpt>
      <trkpt lat="47.24273" lon="-2.3144">
        <ele>-4</ele>
        <time>2021-05-23T07:54:18.982Z</time>
      </trkpt>
      <trkpt lat="47.24274" lon="-2.31442">
        <ele>-4</ele>
        <time>2021-05-23T07:54:19.982Z</time>
      </trkpt>
      <trkpt lat="47.24276" lon="-2.31445">
        <ele>-4</ele>
        <time>2021-05-23T07:54:20.982Z</time>
      </trkpt>
      <trkpt lat="47.24277" lon="-2.31447">
        <ele>-3</ele>
        <time>2021-05-23T07:54:21.982Z</time>
      </trkpt>
      <trkpt lat="47.24279" lon="-2.3145">
        <ele>-3</ele>
        <time>2021-05-23T07:54:22.983Z</time>
      </trkpt>
      <trkpt lat="47.2428" lon="-2.31452">
        <ele>-4</ele>
        <time>2021-05-23T07:54:23.982Z</time>
      </trkpt>
      <trkpt lat="47.24282" lon="-2.31455">
        <ele>-2</ele>
        <time>2021-05-23T07:54:24.982Z</time>
      </trkpt>
      <trkpt lat="47.24283" lon="-2.31458">
        <ele>-2</ele>
        <time>2021-05-23T07:54:25.982Z</time>
      </trkpt>
      <trkpt lat="47.24285" lon="-2.31461">
        <ele>-2</ele>
        <time>2021-05-23T07:54:26.982Z</time>
      </trkpt>
      <trkpt lat="47.24286" lon="-2.31464">
        <ele>-2</ele>
        <time>2021-05-23T07:54:27.982Z</time>
      </trkpt>
      <trkpt lat="47.24287" lon="-2.31467">
        <ele>-2</ele>
        <time>2021-05-23T07:54:28.982Z</time>
      </trkpt>
      <trkpt lat="47.24288" lon="-2.31469">
        <ele>-2</ele>
        <time>2021-05-23T07:54:29.982Z</time>
      </trkpt>
      <trkpt lat="47.2429" lon="-2.31473">
        <ele>-3</ele>
        <time>2021-05-23T07:54:30.982Z</time>
      </trkpt>
      <trkpt lat="47.24292" lon="-2.31475">
        <ele>-3</ele>
        <time>2021-05-23T07:54:31.982Z</time>
      </trkpt>
      <trkpt lat="47.24294" lon="-2.31478">
        <ele>-3</ele>
        <time>2021-05-23T07:54:32.982Z</time>
      </trkpt>
      <trkpt lat="47.24295" lon="-2.3148">
        <ele>-3</ele>
        <time>2021-05-23T07:54:33.982Z</time>
      </trkpt>
      <trkpt lat="47.24297" lon="-2.31483">
        <ele>-5</ele>
        <time>2021-05-23T07:54:34.982Z</time>
      </trkpt>
      <trkpt lat="47.24299" lon="-2.31485">
        <ele>-4</ele>
        <time>2021-05-23T07:54:35.982Z</time>
      </trkpt>
      <trkpt lat="47.243" lon="-2.31488">
        <ele>-4</ele>
        <time>2021-05-23T07:54:36.982Z</time>
      </trkpt>
      <trkpt lat="47.24301" lon="-2.3149">
        <ele>-4</ele>
        <time>2021-05-23T07:54:37.982Z</time>
      </trkpt>
      <trkpt lat="47.24303" lon="-2.31493">
        <ele>-4</ele>
        <time>2021-05-23T07:54:38.982Z</time>
      </trkpt>
      <trkpt lat="47.24304" lon="-2.31495">
        <ele>-4</ele>
        <time>2021-05-23T07:54:39.983Z</time>
      </trkpt>
      <trkpt lat="47.24306" lon="-2.31498">
        <ele>-4</ele>
        <time>2021-05-23T07:54:40.982Z</time>
      </trkpt>
      <trkpt lat="47.24307" lon="-2.31502">
        <ele>-5</ele>
        <time>2021-05-23T07:54:41.982Z</time>
      </trkpt>
      <trkpt lat="47.24308" lon="-2.31505">
        <ele>-5</ele>
        <time>2021-05-23T07:54:42.983Z</time>
      </trkpt>
      <trkpt lat="47.2431" lon="-2.31508">
        <ele>-7</ele>
        <time>2021-05-23T07:54:43.983Z</time>
      </trkpt>
      <trkpt lat="47.24311" lon="-2.31511">
        <ele>-6</ele>
        <time>2021-05-23T07:54:44.983Z</time>
      </trkpt>
      <trkpt lat="47.24312" lon="-2.31514">
        <ele>-5</ele>
        <time>2021-05-23T07:54:45.983Z</time>
      </trkpt>
      <trkpt lat="47.24313" lon="-2.31517">
        <ele>-5</ele>
        <time>2021-05-23T07:54:46.983Z</time>
      </trkpt>
      <trkpt lat="47.24314" lon="-2.31521">
        <ele>-5</ele>
        <time>2021-05-23T07:54:47.983Z</time>
      </trkpt>
      <trkpt lat="47.24315" lon="-2.31524">
        <ele>-5</ele>
        <time>2021-05-23T07:54:48.983Z</time>
      </trkpt>
      <trkpt lat="47.24316" lon="-2.31527">
        <ele>-7</ele>
        <time>2021-05-23T07:54:49.983Z</time>
      </trkpt>
      <trkpt lat="47.24317" lon="-2.3153">
        <ele>-7</ele>
        <time>2021-05-23T07:54:50.982Z</time>
      </trkpt>
      <trkpt lat="47.24318" lon="-2.31533">
        <ele>-5</ele>
        <time>2021-05-23T07:54:51.983Z</time>
      </trkpt>
      <trkpt lat="47.24319" lon="-2.31536">
        <ele>-5</ele>
        <time>2021-05-23T07:54:52.983Z</time>
      </trkpt>
      <trkpt lat="47.24321" lon="-2.31538">
        <ele>-5</ele>
        <time>2021-05-23T07:54:53.983Z</time>
      </trkpt>
      <trkpt lat="47.24322" lon="-2.31541">
        <ele>-5</ele>
        <time>2021-05-23T07:54:54.983Z</time>
      </trkpt>
      <trkpt lat="47.24323" lon="-2.31542">
        <ele>-5</ele>
        <time>2021-05-23T07:54:55.983Z</time>
      </trkpt>
      <trkpt lat="47.24325" lon="-2.31543">
        <ele>-4</ele>
        <time>2021-05-23T07:54:56.983Z</time>
      </trkpt>
      <trkpt lat="47.24325" lon="-2.31544">
        <ele>-4</ele>
        <time>2021-05-23T07:54:57.983Z</time>
      </trkpt>
      <trkpt lat="47.24326" lon="-2.31545">
        <ele>-4</ele>
        <time>2021-05-23T07:54:58.983Z</time>
      </trkpt>
      <trkpt lat="47.24326" lon="-2.31546">
        <ele>-4</ele>
        <time>2021-05-23T07:54:59.983Z</time>
      </trkpt>
      <trkpt lat="47.24328" lon="-2.31548">
        <ele>-5</ele>
        <time>2021-05-23T07:55:00.983Z</time>
      </trkpt>
      <trkpt lat="47.2433" lon="-2.3155">
        <ele>-5</ele>
        <time>2021-05-23T07:55:01.982Z</time>
      </trkpt>
      <trkpt lat="47.24332" lon="-2.31551">
        <ele>-5</ele>
        <time>2021-05-23T07:55:02.982Z</time>
      </trkpt>
      <trkpt lat="47.24334" lon="-2.31553">
        <ele>-4</ele>
        <time>2021-05-23T07:55:03.983Z</time>
      </trkpt>
      <trkpt lat="47.24336" lon="-2.31554">
        <ele>-4</ele>
        <time>2021-05-23T07:55:04.983Z</time>
      </trkpt>
      <trkpt lat="47.24338" lon="-2.31554">
        <ele>-4</ele>
        <time>2021-05-23T07:55:05.983Z</time>
      </trkpt>
      <trkpt lat="47.2434" lon="-2.31555">
        <ele>-4</ele>
        <time>2021-05-23T07:55:06.983Z</time>
      </trkpt>
      <trkpt lat="47.24342" lon="-2.31555">
        <ele>-4</ele>
        <time>2021-05-23T07:55:07.983Z</time>
      </trkpt>
      <trkpt lat="47.24344" lon="-2.31554">
        <ele>-4</ele>
        <time>2021-05-23T07:55:08.982Z</time>
      </trkpt>
      <trkpt lat="47.24346" lon="-2.31554">
        <ele>-4</ele>
        <time>2021-05-23T07:55:09.983Z</time>
      </trkpt>
      <trkpt lat="47.24348" lon="-2.31553">
        <ele>-5</ele>
        <time>2021-05-23T07:55:10.982Z</time>
      </trkpt>
      <trkpt lat="47.2435" lon="-2.31552">
        <ele>-3</ele>
        <time>2021-05-23T07:55:11.982Z</time>
      </trkpt>
      <trkpt lat="47.24352" lon="-2.31551">
        <ele>-3</ele>
        <time>2021-05-23T07:55:12.983Z</time>
      </trkpt>
      <trkpt lat="47.24353" lon="-2.3155">
        <ele>-3</ele>
        <time>2021-05-23T07:55:13.983Z</time>
      </trkpt>
      <trkpt lat="47.24354" lon="-2.31548">
        <ele>-3</ele>
        <time>2021-05-23T07:55:14.983Z</time>
      </trkpt>
      <trkpt lat="47.24355" lon="-2.31547">
        <ele>-3</ele>
        <time>2021-05-23T07:55:15.983Z</time>
      </trkpt>
      <trkpt lat="47.24356" lon="-2.31544">
        <ele>-3</ele>
        <time>2021-05-23T07:55:16.982Z</time>
      </trkpt>
      <trkpt lat="47.24356" lon="-2.31542">
        <ele>-3</ele>
        <time>2021-05-23T07:55:17.982Z</time>
      </trkpt>
      <trkpt lat="47.24357" lon="-2.3154">
        <ele>-3</ele>
        <time>2021-05-23T07:55:18.982Z</time>
      </trkpt>
      <trkpt lat="47.24358" lon="-2.31538">
        <ele>-3</ele>
        <time>2021-05-23T07:55:19.983Z</time>
      </trkpt>
      <trkpt lat="47.24359" lon="-2.31536">
        <ele>-4</ele>
        <time>2021-05-23T07:55:20.983Z</time>
      </trkpt>
      <trkpt lat="47.2436" lon="-2.31534">
        <ele>-2</ele>
        <time>2021-05-23T07:55:21.983Z</time>
      </trkpt>
      <trkpt lat="47.24361" lon="-2.31532">
        <ele>-1</ele>
        <time>2021-05-23T07:55:22.983Z</time>
      </trkpt>
      <trkpt lat="47.24361" lon="-2.3153">
        <ele>-1</ele>
        <time>2021-05-23T07:55:23.983Z</time>
      </trkpt>
      <trkpt lat="47.24362" lon="-2.31529">
        <ele>10.6</ele>
        <time>2021-05-23T07:55:24.983Z</time>
      </trkpt>
      <trkpt lat="47.24363" lon="-2.31528">
        <ele>10.7</ele>
        <time>2021-05-23T07:55:25.982Z</time>
      </trkpt>
      <trkpt lat="47.24364" lon="-2.31528">
        <ele>10.8</ele>
        <time>2021-05-23T07:55:26.983Z</time>
      </trkpt>
      <trkpt lat="47.24365" lon="-2.3153">
        <ele>11</ele>
        <time>2021-05-23T07:55:27.983Z</time>
      </trkpt>
      <trkpt lat="47.24366" lon="-2.31532">
        <ele>11</ele>
        <time>2021-05-23T07:55:28.983Z</time>
      </trkpt>
      <trkpt lat="47.24366" lon="-2.31534">
        <ele>11</ele>
        <time>2021-05-23T07:55:29.983Z</time>
      </trkpt>
      <trkpt lat="47.24366" lon="-2.31536">
        <ele>11</ele>
        <time>2021-05-23T07:55:30.983Z</time>
      </trkpt>
      <trkpt lat="47.24366" lon="-2.31539">
        <ele>11</ele>
        <time>2021-05-23T07:55:31.983Z</time>
      </trkpt>
      <trkpt lat="47.24366" lon="-2.31541">
        <ele>11</ele>
        <time>2021-05-23T07:55:32.983Z</time>
      </trkpt>
      <trkpt lat="47.24366" lon="-2.31544">
        <ele>1</ele>
        <time>2021-05-23T07:55:33.983Z</time>
      </trkpt>
      <trkpt lat="47.24366" lon="-2.31547">
        <ele>1</ele>
        <time>2021-05-23T07:55:34.982Z</time>
      </trkpt>
      <trkpt lat="47.24366" lon="-2.3155">
        <ele>2</ele>
        <time>2021-05-23T07:55:35.983Z</time>
      </trkpt>
      <trkpt lat="47.24366" lon="-2.31553">
        <ele>2</ele>
        <time>2021-05-23T07:55:36.983Z</time>
      </trkpt>
      <trkpt lat="47.24366" lon="-2.31556">
        <ele>2</ele>
        <time>2021-05-23T07:55:37.983Z</time>
      </trkpt>
      <trkpt lat="47.24366" lon="-2.3156">
        <ele>2</ele>
        <time>2021-05-23T07:55:38.983Z</time>
      </trkpt>
      <trkpt lat="47.24366" lon="-2.31563">
        <ele>2</ele>
        <time>2021-05-23T07:55:39.983Z</time>
      </trkpt>
      <trkpt lat="47.24367" lon="-2.31566">
        <ele>2</ele>
        <time>2021-05-23T07:55:40.983Z</time>
      </trkpt>
      <trkpt lat="47.24368" lon="-2.31569">
        <ele>2</ele>
        <time>2021-05-23T07:55:41.983Z</time>
      </trkpt>
      <trkpt lat="47.24368" lon="-2.31571">
        <ele>2</ele>
        <time>2021-05-23T07:55:42.983Z</time>
      </trkpt>
      <trkpt lat="47.24369" lon="-2.31573">
        <ele>2</ele>
        <time>2021-05-23T07:55:43.982Z</time>
      </trkpt>
      <trkpt lat="47.2437" lon="-2.31576">
        <ele>2</ele>
        <time>2021-05-23T07:55:44.983Z</time>
      </trkpt>
      <trkpt lat="47.2437" lon="-2.31578">
        <ele>2</ele>
        <time>2021-05-23T07:55:45.983Z</time>
      </trkpt>
      <trkpt lat="47.2437" lon="-2.31579">
        <ele>2</ele>
        <time>2021-05-23T07:55:46.983Z</time>
      </trkpt>
      <trkpt lat="47.2437" lon="-2.31578">
        <ele>2</ele>
        <time>2021-05-23T07:55:47.982Z</time>
      </trkpt>
      <trkpt lat="47.2437" lon="-2.31578">
        <ele>3</ele>
        <time>2021-05-23T07:55:48.983Z</time>
      </trkpt>
      <trkpt lat="47.24369" lon="-2.31577">
        <ele>3</ele>
        <time>2021-05-23T07:55:49.983Z</time>
      </trkpt>
      <trkpt lat="47.24369" lon="-2.31576">
        <ele>3</ele>
        <time>2021-05-23T07:55:50.983Z</time>
      </trkpt>
      <trkpt lat="47.24368" lon="-2.31575">
        <ele>3</ele>
        <time>2021-05-23T07:55:51.982Z</time>
      </trkpt>
      <trkpt lat="47.24368" lon="-2.31574">
        <ele>4</ele>
        <time>2021-05-23T07:55:52.982Z</time>
      </trkpt>
      <trkpt lat="47.24368" lon="-2.31574">
        <ele>4</ele>
        <time>2021-05-23T07:55:53.983Z</time>
      </trkpt>
      <trkpt lat="47.24368" lon="-2.31574">
        <ele>4</ele>
        <time>2021-05-23T07:55:54.983Z</time>
      </trkpt>
      <trkpt lat="47.24368" lon="-2.31574">
        <ele>4</ele>
        <time>2021-05-23T07:55:55.983Z</time>
      </trkpt>
      <trkpt lat="47.24368" lon="-2.31575">
        <ele>5</ele>
        <time>2021-05-23T07:55:56.983Z</time>
      </trkpt>
      <trkpt lat="47.24368" lon="-2.31576">
        <ele>5</ele>
        <time>2021-05-23T07:55:57.982Z</time>
      </trkpt>
      <trkpt lat="47.24368" lon="-2.31577">
        <ele>6</ele>
        <time>2021-05-23T07:55:58.983Z</time>
      </trkpt>
      <trkpt lat="47.24368" lon="-2.31579">
        <ele>7</ele>
        <time>2021-05-23T07:55:59.983Z</time>
      </trkpt>
      <trkpt lat="47.24369" lon="-2.31579">
        <ele>8</ele>
        <time>2021-05-23T07:56:00.982Z</time>
      </trkpt>
      <trkpt lat="47.24369" lon="-2.3158">
        <ele>8</ele>
        <time>2021-05-23T07:56:01.983Z</time>
      </trkpt>
      <trkpt lat="47.2437" lon="-2.31581">
        <ele>8</ele>
        <time>2021-05-23T07:56:02.982Z</time>
      </trkpt>
      <trkpt lat="47.2437" lon="-2.31584">
        <ele>8</ele>
        <time>2021-05-23T07:56:03.983Z</time>
      </trkpt>
      <trkpt lat="47.24372" lon="-2.31586">
        <ele>8</ele>
        <time>2021-05-23T07:56:04.983Z</time>
      </trkpt>
      <trkpt lat="47.24372" lon="-2.31589">
        <ele>8</ele>
        <time>2021-05-23T07:56:05.982Z</time>
      </trkpt>
      <trkpt lat="47.24373" lon="-2.31591">
        <ele>8</ele>
        <time>2021-05-23T07:56:06.983Z</time>
      </trkpt>
      <trkpt lat="47.24373" lon="-2.31594">
        <ele>8</ele>
        <time>2021-05-23T07:56:07.982Z</time>
      </trkpt>
      <trkpt lat="47.24374" lon="-2.31597">
        <ele>8</ele>
        <time>2021-05-23T07:56:08.982Z</time>
      </trkpt>
      <trkpt lat="47.24374" lon="-2.316">
        <ele>8</ele>
        <time>2021-05-23T07:56:09.983Z</time>
      </trkpt>
      <trkpt lat="47.24375" lon="-2.31604">
        <ele>8</ele>
        <time>2021-05-23T07:56:10.983Z</time>
      </trkpt>
      <trkpt lat="47.24376" lon="-2.31606">
        <ele>8</ele>
        <time>2021-05-23T07:56:11.982Z</time>
      </trkpt>
      <trkpt lat="47.24376" lon="-2.3161">
        <ele>8</ele>
        <time>2021-05-23T07:56:12.982Z</time>
      </trkpt>
      <trkpt lat="47.24375" lon="-2.31613">
        <ele>8</ele>
        <time>2021-05-23T07:56:13.983Z</time>
      </trkpt>
      <trkpt lat="47.24374" lon="-2.31617">
        <ele>8</ele>
        <time>2021-05-23T07:56:14.982Z</time>
      </trkpt>
      <trkpt lat="47.24374" lon="-2.3162">
        <ele>8</ele>
        <time>2021-05-23T07:56:15.983Z</time>
      </trkpt>
      <trkpt lat="47.24374" lon="-2.31623">
        <ele>8</ele>
        <time>2021-05-23T07:56:16.983Z</time>
      </trkpt>
      <trkpt lat="47.24375" lon="-2.31626">
        <ele>8</ele>
        <time>2021-05-23T07:56:17.983Z</time>
      </trkpt>
      <trkpt lat="47.24375" lon="-2.3163">
        <ele>8</ele>
        <time>2021-05-23T07:56:18.982Z</time>
      </trkpt>
      <trkpt lat="47.24375" lon="-2.31633">
        <ele>7</ele>
        <time>2021-05-23T07:56:19.983Z</time>
      </trkpt>
      <trkpt lat="47.24375" lon="-2.31636">
        <ele>7</ele>
        <time>2021-05-23T07:56:20.983Z</time>
      </trkpt>
      <trkpt lat="47.24375" lon="-2.3164">
        <ele>7</ele>
        <time>2021-05-23T07:56:21.983Z</time>
      </trkpt>
      <trkpt lat="47.24374" lon="-2.31643">
        <ele>7</ele>
        <time>2021-05-23T07:56:22.983Z</time>
      </trkpt>
      <trkpt lat="47.24374" lon="-2.31647">
        <ele>6</ele>
        <time>2021-05-23T07:56:23.983Z</time>
      </trkpt>
      <trkpt lat="47.24374" lon="-2.3165">
        <ele>6</ele>
        <time>2021-05-23T07:56:24.983Z</time>
      </trkpt>
      <trkpt lat="47.24374" lon="-2.31653">
        <ele>6</ele>
        <time>2021-05-23T07:56:25.983Z</time>
      </trkpt>
      <trkpt lat="47.24374" lon="-2.31657">
        <ele>6</ele>
        <time>2021-05-23T07:56:26.983Z</time>
      </trkpt>
      <trkpt lat="47.24374" lon="-2.3166">
        <ele>6</ele>
        <time>2021-05-23T07:56:27.983Z</time>
      </trkpt>
      <trkpt lat="47.24375" lon="-2.31661">
        <ele>6</ele>
        <time>2021-05-23T07:56:28.982Z</time>
      </trkpt>
      <trkpt lat="47.24376" lon="-2.31663">
        <ele>7</ele>
        <time>2021-05-23T07:56:29.983Z</time>
      </trkpt>
      <trkpt lat="47.24377" lon="-2.31664">
        <ele>7</ele>
        <time>2021-05-23T07:56:30.982Z</time>
      </trkpt>
      <trkpt lat="47.24379" lon="-2.31664">
        <ele>8</ele>
        <time>2021-05-23T07:56:31.982Z</time>
      </trkpt>
      <trkpt lat="47.24381" lon="-2.31664">
        <ele>9</ele>
        <time>2021-05-23T07:56:32.983Z</time>
      </trkpt>
      <trkpt lat="47.24383" lon="-2.31664">
        <ele>10</ele>
        <time>2021-05-23T07:56:33.983Z</time>
      </trkpt>
      <trkpt lat="47.24385" lon="-2.31663">
        <ele>11</ele>
        <time>2021-05-23T07:56:34.983Z</time>
      </trkpt>
      <trkpt lat="47.24387" lon="-2.31663">
        <ele>12</ele>
        <time>2021-05-23T07:56:35.983Z</time>
      </trkpt>
      <trkpt lat="47.24389" lon="-2.31663">
        <ele>13</ele>
        <time>2021-05-23T07:56:36.983Z</time>
      </trkpt>
      <trkpt lat="47.24391" lon="-2.31663">
        <ele>14</ele>
        <time>2021-05-23T07:56:37.983Z</time>
      </trkpt>
      <trkpt lat="47.24394" lon="-2.31662">
        <ele>14</ele>
        <time>2021-05-23T07:56:38.983Z</time>
      </trkpt>
      <trkpt lat="47.24396" lon="-2.31662">
        <ele>15</ele>
        <time>2021-05-23T07:56:39.983Z</time>
      </trkpt>
      <trkpt lat="47.24398" lon="-2.31662">
        <ele>15</ele>
        <time>2021-05-23T07:56:40.982Z</time>
      </trkpt>
      <trkpt lat="47.244" lon="-2.31661">
        <ele>16</ele>
        <time>2021-05-23T07:56:41.983Z</time>
      </trkpt>
      <trkpt lat="47.24402" lon="-2.31661">
        <ele>16</ele>
        <time>2021-05-23T07:56:42.983Z</time>
      </trkpt>
      <trkpt lat="47.24404" lon="-2.31661">
        <ele>16</ele>
        <time>2021-05-23T07:56:43.982Z</time>
      </trkpt>
      <trkpt lat="47.24407" lon="-2.31661">
        <ele>16</ele>
        <time>2021-05-23T07:56:44.983Z</time>
      </trkpt>
      <trkpt lat="47.2441" lon="-2.31661">
        <ele>17</ele>
        <time>2021-05-23T07:56:45.983Z</time>
      </trkpt>
      <trkpt lat="47.24412" lon="-2.31661">
        <ele>17</ele>
        <time>2021-05-23T07:56:46.982Z</time>
      </trkpt>
      <trkpt lat="47.24414" lon="-2.31662">
        <ele>18</ele>
        <time>2021-05-23T07:56:47.982Z</time>
      </trkpt>
      <trkpt lat="47.24416" lon="-2.31662">
        <ele>18</ele>
        <time>2021-05-23T07:56:48.983Z</time>
      </trkpt>
      <trkpt lat="47.24418" lon="-2.31663">
        <ele>19</ele>
        <time>2021-05-23T07:56:49.983Z</time>
      </trkpt>
      <trkpt lat="47.2442" lon="-2.31663">
        <ele>19</ele>
        <time>2021-05-23T07:56:50.983Z</time>
      </trkpt>
      <trkpt lat="47.24421" lon="-2.31664">
        <ele>19</ele>
        <time>2021-05-23T07:56:51.983Z</time>
      </trkpt>
      <trkpt lat="47.24424" lon="-2.31664">
        <ele>20</ele>
        <time>2021-05-23T07:56:52.983Z</time>
      </trkpt>
      <trkpt lat="47.24426" lon="-2.31665">
        <ele>20</ele>
        <time>2021-05-23T07:56:53.982Z</time>
      </trkpt>
      <trkpt lat="47.24428" lon="-2.31665">
        <ele>20</ele>
        <time>2021-05-23T07:56:54.982Z</time>
      </trkpt>
      <trkpt lat="47.2443" lon="-2.31666">
        <ele>21</ele>
        <time>2021-05-23T07:56:55.983Z</time>
      </trkpt>
      <trkpt lat="47.24432" lon="-2.31668">
        <ele>21</ele>
        <time>2021-05-23T07:56:56.983Z</time>
      </trkpt>
      <trkpt lat="47.24434" lon="-2.31669">
        <ele>22</ele>
        <time>2021-05-23T07:56:57.983Z</time>
      </trkpt>
      <trkpt lat="47.24436" lon="-2.3167">
        <ele>23</ele>
        <time>2021-05-23T07:56:58.982Z</time>
      </trkpt>
      <trkpt lat="47.24438" lon="-2.31671">
        <ele>23</ele>
        <time>2021-05-23T07:56:59.982Z</time>
      </trkpt>
      <trkpt lat="47.2444" lon="-2.3167">
        <ele>23</ele>
        <time>2021-05-23T07:57:00.983Z</time>
      </trkpt>
      <trkpt lat="47.24442" lon="-2.3167">
        <ele>23</ele>
        <time>2021-05-23T07:57:01.983Z</time>
      </trkpt>
      <trkpt lat="47.24444" lon="-2.31672">
        <ele>23</ele>
        <time>2021-05-23T07:57:02.983Z</time>
      </trkpt>
      <trkpt lat="47.24445" lon="-2.31673">
        <ele>22</ele>
        <time>2021-05-23T07:57:03.982Z</time>
      </trkpt>
      <trkpt lat="47.24447" lon="-2.31675">
        <ele>22</ele>
        <time>2021-05-23T07:57:04.983Z</time>
      </trkpt>
      <trkpt lat="47.24448" lon="-2.31678">
        <ele>21</ele>
        <time>2021-05-23T07:57:05.983Z</time>
      </trkpt>
      <trkpt lat="47.2445" lon="-2.3168">
        <ele>21</ele>
        <time>2021-05-23T07:57:06.983Z</time>
      </trkpt>
      <trkpt lat="47.24451" lon="-2.31682">
        <ele>21</ele>
        <time>2021-05-23T07:57:07.983Z</time>
      </trkpt>
      <trkpt lat="47.24452" lon="-2.31684">
        <ele>20</ele>
        <time>2021-05-23T07:57:08.983Z</time>
      </trkpt>
      <trkpt lat="47.24453" lon="-2.31688">
        <ele>20</ele>
        <time>2021-05-23T07:57:09.982Z</time>
      </trkpt>
      <trkpt lat="47.24454" lon="-2.3169">
        <ele>20</ele>
        <time>2021-05-23T07:57:10.982Z</time>
      </trkpt>
      <trkpt lat="47.24456" lon="-2.31693">
        <ele>21</ele>
        <time>2021-05-23T07:57:11.982Z</time>
      </trkpt>
      <trkpt lat="47.24457" lon="-2.31696">
        <ele>21</ele>
        <time>2021-05-23T07:57:12.982Z</time>
      </trkpt>
      <trkpt lat="47.24458" lon="-2.31699">
        <ele>21</ele>
        <time>2021-05-23T07:57:13.983Z</time>
      </trkpt>
      <trkpt lat="47.24459" lon="-2.31701">
        <ele>21</ele>
        <time>2021-05-23T07:57:14.982Z</time>
      </trkpt>
      <trkpt lat="47.2446" lon="-2.31704">
        <ele>21</ele>
        <time>2021-05-23T07:57:15.983Z</time>
      </trkpt>
      <trkpt lat="47.24462" lon="-2.31706">
        <ele>21</ele>
        <time>2021-05-23T07:57:16.983Z</time>
      </trkpt>
      <trkpt lat="47.24464" lon="-2.31708">
        <ele>21</ele>
        <time>2021-05-23T07:57:17.982Z</time>
      </trkpt>
      <trkpt lat="47.24465" lon="-2.31711">
        <ele>20</ele>
        <time>2021-05-23T07:57:18.983Z</time>
      </trkpt>
      <trkpt lat="47.24467" lon="-2.31714">
        <ele>20</ele>
        <time>2021-05-23T07:57:19.983Z</time>
      </trkpt>
      <trkpt lat="47.24468" lon="-2.31716">
        <ele>20</ele>
        <time>2021-05-23T07:57:20.983Z</time>
      </trkpt>
      <trkpt lat="47.24469" lon="-2.31719">
        <ele>20</ele>
        <time>2021-05-23T07:57:21.982Z</time>
      </trkpt>
      <trkpt lat="47.24468" lon="-2.31723">
        <ele>20</ele>
        <time>2021-05-23T07:57:22.982Z</time>
      </trkpt>
      <trkpt lat="47.24468" lon="-2.31726">
        <ele>20</ele>
        <time>2021-05-23T07:57:23.983Z</time>
      </trkpt>
      <trkpt lat="47.24467" lon="-2.31729">
        <ele>20</ele>
        <time>2021-05-23T07:57:24.983Z</time>
      </trkpt>
      <trkpt lat="47.24466" lon="-2.31732">
        <ele>20</ele>
        <time>2021-05-23T07:57:25.983Z</time>
      </trkpt>
      <trkpt lat="47.24464" lon="-2.31736">
        <ele>21</ele>
        <time>2021-05-23T07:57:26.983Z</time>
      </trkpt>
      <trkpt lat="47.24463" lon="-2.3174">
        <ele>21</ele>
        <time>2021-05-23T07:57:27.983Z</time>
      </trkpt>
      <trkpt lat="47.24462" lon="-2.31743">
        <ele>21</ele>
        <time>2021-05-23T07:57:28.983Z</time>
      </trkpt>
      <trkpt lat="47.24461" lon="-2.31746">
        <ele>21</ele>
        <time>2021-05-23T07:57:29.983Z</time>
      </trkpt>
      <trkpt lat="47.24459" lon="-2.31749">
        <ele>21</ele>
        <time>2021-05-23T07:57:30.983Z</time>
      </trkpt>
      <trkpt lat="47.24458" lon="-2.31752">
        <ele>20</ele>
        <time>2021-05-23T07:57:31.982Z</time>
      </trkpt>
      <trkpt lat="47.24456" lon="-2.31755">
        <ele>20</ele>
        <time>2021-05-23T07:57:32.983Z</time>
      </trkpt>
      <trkpt lat="47.24455" lon="-2.31759">
        <ele>20</ele>
        <time>2021-05-23T07:57:33.983Z</time>
      </trkpt>
      <trkpt lat="47.24454" lon="-2.31762">
        <ele>20</ele>
        <time>2021-05-23T07:57:34.983Z</time>
      </trkpt>
      <trkpt lat="47.24452" lon="-2.31765">
        <ele>20</ele>
        <time>2021-05-23T07:57:35.983Z</time>
      </trkpt>
      <trkpt lat="47.24451" lon="-2.31768">
        <ele>20</ele>
        <time>2021-05-23T07:57:36.982Z</time>
      </trkpt>
      <trkpt lat="47.24449" lon="-2.31771">
        <ele>20</ele>
        <time>2021-05-23T07:57:37.983Z</time>
      </trkpt>
      <trkpt lat="47.24448" lon="-2.31774">
        <ele>20</ele>
        <time>2021-05-23T07:57:38.983Z</time>
      </trkpt>
      <trkpt lat="47.24446" lon="-2.31777">
        <ele>20</ele>
        <time>2021-05-23T07:57:39.983Z</time>
      </trkpt>
      <trkpt lat="47.24445" lon="-2.3178">
        <ele>20</ele>
        <time>2021-05-23T07:57:40.983Z</time>
      </trkpt>
      <trkpt lat="47.24444" lon="-2.31784">
        <ele>20</ele>
        <time>2021-05-23T07:57:41.983Z</time>
      </trkpt>
      <trkpt lat="47.24442" lon="-2.31787">
        <ele>20</ele>
        <time>2021-05-23T07:57:42.982Z</time>
      </trkpt>
      <trkpt lat="47.24441" lon="-2.3179">
        <ele>20</ele>
        <time>2021-05-23T07:57:43.983Z</time>
      </trkpt>
      <trkpt lat="47.2444" lon="-2.31793">
        <ele>20</ele>
        <time>2021-05-23T07:57:44.983Z</time>
      </trkpt>
      <trkpt lat="47.24438" lon="-2.31796">
        <ele>20</ele>
        <time>2021-05-23T07:57:45.982Z</time>
      </trkpt>
      <trkpt lat="47.24437" lon="-2.31799">
        <ele>20</ele>
        <time>2021-05-23T07:57:46.983Z</time>
      </trkpt>
      <trkpt lat="47.24435" lon="-2.31803">
        <ele>20</ele>
        <time>2021-05-23T07:57:47.983Z</time>
      </trkpt>
      <trkpt lat="47.24434" lon="-2.31806">
        <ele>19</ele>
        <time>2021-05-23T07:57:48.983Z</time>
      </trkpt>
      <trkpt lat="47.24432" lon="-2.31808">
        <ele>18</ele>
        <time>2021-05-23T07:57:49.983Z</time>
      </trkpt>
      <trkpt lat="47.24431" lon="-2.31811">
        <ele>18</ele>
        <time>2021-05-23T07:57:50.983Z</time>
      </trkpt>
      <trkpt lat="47.2443" lon="-2.31815">
        <ele>17</ele>
        <time>2021-05-23T07:57:51.982Z</time>
      </trkpt>
      <trkpt lat="47.24429" lon="-2.31818">
        <ele>16</ele>
        <time>2021-05-23T07:57:52.983Z</time>
      </trkpt>
      <trkpt lat="47.24427" lon="-2.31821">
        <ele>16</ele>
        <time>2021-05-23T07:57:53.983Z</time>
      </trkpt>
      <trkpt lat="47.24426" lon="-2.31825">
        <ele>15</ele>
        <time>2021-05-23T07:57:54.982Z</time>
      </trkpt>
      <trkpt lat="47.24425" lon="-2.31828">
        <ele>15</ele>
        <time>2021-05-23T07:57:55.983Z</time>
      </trkpt>
      <trkpt lat="47.24423" lon="-2.31831">
        <ele>14</ele>
        <time>2021-05-23T07:57:56.983Z</time>
      </trkpt>
      <trkpt lat="47.24422" lon="-2.31834">
        <ele>13</ele>
        <time>2021-05-23T07:57:57.983Z</time>
      </trkpt>
      <trkpt lat="47.24421" lon="-2.31838">
        <ele>12</ele>
        <time>2021-05-23T07:57:58.983Z</time>
      </trkpt>
      <trkpt lat="47.2442" lon="-2.31841">
        <ele>12</ele>
        <time>2021-05-23T07:57:59.983Z</time>
      </trkpt>
      <trkpt lat="47.24418" lon="-2.31845">
        <ele>11</ele>
        <time>2021-05-23T07:58:00.983Z</time>
      </trkpt>
      <trkpt lat="47.24417" lon="-2.31848">
        <ele>11</ele>
        <time>2021-05-23T07:58:01.983Z</time>
      </trkpt>
      <trkpt lat="47.24415" lon="-2.3185">
        <ele>10</ele>
        <time>2021-05-23T07:58:02.982Z</time>
      </trkpt>
      <trkpt lat="47.24415" lon="-2.31852">
        <ele>10</ele>
        <time>2021-05-23T07:58:03.983Z</time>
      </trkpt>
      <trkpt lat="47.24413" lon="-2.31856">
        <ele>9</ele>
        <time>2021-05-23T07:58:04.983Z</time>
      </trkpt>
      <trkpt lat="47.24412" lon="-2.3186">
        <ele>8</ele>
        <time>2021-05-23T07:58:05.983Z</time>
      </trkpt>
      <trkpt lat="47.24411" lon="-2.31863">
        <ele>8</ele>
        <time>2021-05-23T07:58:06.982Z</time>
      </trkpt>
      <trkpt lat="47.24411" lon="-2.31867">
        <ele>8</ele>
        <time>2021-05-23T07:58:07.983Z</time>
      </trkpt>
      <trkpt lat="47.24413" lon="-2.31869">
        <ele>8</ele>
        <time>2021-05-23T07:58:08.983Z</time>
      </trkpt>
      <trkpt lat="47.24415" lon="-2.3187">
        <ele>8</ele>
        <time>2021-05-23T07:58:09.983Z</time>
      </trkpt>
      <trkpt lat="47.24418" lon="-2.31871">
        <ele>9</ele>
        <time>2021-05-23T07:58:10.982Z</time>
      </trkpt>
      <trkpt lat="47.2442" lon="-2.31872">
        <ele>10</ele>
        <time>2021-05-23T07:58:11.982Z</time>
      </trkpt>
      <trkpt lat="47.24423" lon="-2.31874">
        <ele>10</ele>
        <time>2021-05-23T07:58:12.982Z</time>
      </trkpt>
      <trkpt lat="47.24425" lon="-2.31875">
        <ele>11</ele>
        <time>2021-05-23T07:58:13.983Z</time>
      </trkpt>
      <trkpt lat="47.24428" lon="-2.31876">
        <ele>11</ele>
        <time>2021-05-23T07:58:14.983Z</time>
      </trkpt>
      <trkpt lat="47.2443" lon="-2.31878">
        <ele>11</ele>
        <time>2021-05-23T07:58:15.983Z</time>
      </trkpt>
      <trkpt lat="47.24432" lon="-2.3188">
        <ele>11</ele>
        <time>2021-05-23T07:58:16.983Z</time>
      </trkpt>
      <trkpt lat="47.24434" lon="-2.31882">
        <ele>11</ele>
        <time>2021-05-23T07:58:17.983Z</time>
      </trkpt>
      <trkpt lat="47.24436" lon="-2.31884">
        <ele>11</ele>
        <time>2021-05-23T07:58:18.983Z</time>
      </trkpt>
      <trkpt lat="47.24438" lon="-2.31886">
        <ele>11</ele>
        <time>2021-05-23T07:58:19.983Z</time>
      </trkpt>
      <trkpt lat="47.24439" lon="-2.31889">
        <ele>10</ele>
        <time>2021-05-23T07:58:20.983Z</time>
      </trkpt>
      <trkpt lat="47.2444" lon="-2.31893">
        <ele>10</ele>
        <time>2021-05-23T07:58:21.983Z</time>
      </trkpt>
      <trkpt lat="47.24442" lon="-2.31895">
        <ele>10</ele>
        <time>2021-05-23T07:58:22.983Z</time>
      </trkpt>
      <trkpt lat="47.24443" lon="-2.31899">
        <ele>10</ele>
        <time>2021-05-23T07:58:23.982Z</time>
      </trkpt>
      <trkpt lat="47.24445" lon="-2.31902">
        <ele>9</ele>
        <time>2021-05-23T07:58:24.983Z</time>
      </trkpt>
      <trkpt lat="47.24447" lon="-2.31906">
        <ele>8</ele>
        <time>2021-05-23T07:58:25.983Z</time>
      </trkpt>
      <trkpt lat="47.24448" lon="-2.3191">
        <ele>8</ele>
        <time>2021-05-23T07:58:26.982Z</time>
      </trkpt>
      <trkpt lat="47.24449" lon="-2.31913">
        <ele>7</ele>
        <time>2021-05-23T07:58:27.983Z</time>
      </trkpt>
      <trkpt lat="47.24451" lon="-2.31916">
        <ele>6</ele>
        <time>2021-05-23T07:58:28.982Z</time>
      </trkpt>
      <trkpt lat="47.24452" lon="-2.3192">
        <ele>6</ele>
        <time>2021-05-23T07:58:29.982Z</time>
      </trkpt>
      <trkpt lat="47.24453" lon="-2.31923">
        <ele>6</ele>
        <time>2021-05-23T07:58:30.983Z</time>
      </trkpt>
      <trkpt lat="47.24454" lon="-2.31927">
        <ele>5</ele>
        <time>2021-05-23T07:58:31.983Z</time>
      </trkpt>
      <trkpt lat="47.24456" lon="-2.3193">
        <ele>5</ele>
        <time>2021-05-23T07:58:32.983Z</time>
      </trkpt>
      <trkpt lat="47.24457" lon="-2.31933">
        <ele>5</ele>
        <time>2021-05-23T07:58:33.983Z</time>
      </trkpt>
      <trkpt lat="47.24458" lon="-2.31936">
        <ele>5</ele>
        <time>2021-05-23T07:58:34.983Z</time>
      </trkpt>
      <trkpt lat="47.24459" lon="-2.31939">
        <ele>5</ele>
        <time>2021-05-23T07:58:35.982Z</time>
      </trkpt>
      <trkpt lat="47.2446" lon="-2.31943">
        <ele>5</ele>
        <time>2021-05-23T07:58:36.982Z</time>
      </trkpt>
      <trkpt lat="47.24461" lon="-2.31946">
        <ele>6</ele>
        <time>2021-05-23T07:58:37.982Z</time>
      </trkpt>
      <trkpt lat="47.24462" lon="-2.31949">
        <ele>6</ele>
        <time>2021-05-23T07:58:38.983Z</time>
      </trkpt>
      <trkpt lat="47.24463" lon="-2.31953">
        <ele>6</ele>
        <time>2021-05-23T07:58:39.983Z</time>
      </trkpt>
      <trkpt lat="47.24464" lon="-2.31957">
        <ele>6</ele>
        <time>2021-05-23T07:58:40.983Z</time>
      </trkpt>
      <trkpt lat="47.24466" lon="-2.3196">
        <ele>6</ele>
        <time>2021-05-23T07:58:41.983Z</time>
      </trkpt>
      <trkpt lat="47.24467" lon="-2.31964">
        <ele>6</ele>
        <time>2021-05-23T07:58:42.982Z</time>
      </trkpt>
      <trkpt lat="47.24468" lon="-2.31967">
        <ele>6</ele>
        <time>2021-05-23T07:58:43.983Z</time>
      </trkpt>
      <trkpt lat="47.24469" lon="-2.31969">
        <ele>5</ele>
        <time>2021-05-23T07:58:44.983Z</time>
      </trkpt>
      <trkpt lat="47.2447" lon="-2.31972">
        <ele>5</ele>
        <time>2021-05-23T07:58:45.983Z</time>
      </trkpt>
      <trkpt lat="47.24472" lon="-2.31975">
        <ele>4</ele>
        <time>2021-05-23T07:58:46.983Z</time>
      </trkpt>
      <trkpt lat="47.24473" lon="-2.31978">
        <ele>4</ele>
        <time>2021-05-23T07:58:47.983Z</time>
      </trkpt>
      <trkpt lat="47.24475" lon="-2.3198">
        <ele>5</ele>
        <time>2021-05-23T07:58:48.983Z</time>
      </trkpt>
      <trkpt lat="47.24477" lon="-2.31983">
        <ele>4</ele>
        <time>2021-05-23T07:58:49.983Z</time>
      </trkpt>
      <trkpt lat="47.24479" lon="-2.31986">
        <ele>4</ele>
        <time>2021-05-23T07:58:50.983Z</time>
      </trkpt>
      <trkpt lat="47.2448" lon="-2.31988">
        <ele>4</ele>
        <time>2021-05-23T07:58:51.983Z</time>
      </trkpt>
      <trkpt lat="47.24481" lon="-2.3199">
        <ele>4</ele>
        <time>2021-05-23T07:58:52.983Z</time>
      </trkpt>
      <trkpt lat="47.24484" lon="-2.31992">
        <ele>4</ele>
        <time>2021-05-23T07:58:53.983Z</time>
      </trkpt>
      <trkpt lat="47.24485" lon="-2.31994">
        <ele>4</ele>
        <time>2021-05-23T07:58:54.983Z</time>
      </trkpt>
      <trkpt lat="47.24487" lon="-2.31996">
        <ele>4</ele>
        <time>2021-05-23T07:58:55.983Z</time>
      </trkpt>
      <trkpt lat="47.24489" lon="-2.31998">
        <ele>5</ele>
        <time>2021-05-23T07:58:56.982Z</time>
      </trkpt>
      <trkpt lat="47.2449" lon="-2.32">
        <ele>5</ele>
        <time>2021-05-23T07:58:57.983Z</time>
      </trkpt>
      <trkpt lat="47.24492" lon="-2.32002">
        <ele>6</ele>
        <time>2021-05-23T07:58:58.982Z</time>
      </trkpt>
      <trkpt lat="47.24494" lon="-2.32004">
        <ele>6</ele>
        <time>2021-05-23T07:58:59.983Z</time>
      </trkpt>
      <trkpt lat="47.24496" lon="-2.32007">
        <ele>6</ele>
        <time>2021-05-23T07:59:00.982Z</time>
      </trkpt>
      <trkpt lat="47.24498" lon="-2.32009">
        <ele>7</ele>
        <time>2021-05-23T07:59:01.983Z</time>
      </trkpt>
      <trkpt lat="47.24501" lon="-2.32012">
        <ele>7</ele>
        <time>2021-05-23T07:59:02.983Z</time>
      </trkpt>
      <trkpt lat="47.24503" lon="-2.32014">
        <ele>7</ele>
        <time>2021-05-23T07:59:03.982Z</time>
      </trkpt>
      <trkpt lat="47.24505" lon="-2.32016">
        <ele>7</ele>
        <time>2021-05-23T07:59:04.983Z</time>
      </trkpt>
      <trkpt lat="47.24507" lon="-2.32018">
        <ele>6</ele>
        <time>2021-05-23T07:59:05.983Z</time>
      </trkpt>
      <trkpt lat="47.2451" lon="-2.3202">
        <ele>6</ele>
        <time>2021-05-23T07:59:06.983Z</time>
      </trkpt>
      <trkpt lat="47.24512" lon="-2.32022">
        <ele>5</ele>
        <time>2021-05-23T07:59:07.983Z</time>
      </trkpt>
      <trkpt lat="47.24514" lon="-2.32023">
        <ele>5</ele>
        <time>2021-05-23T07:59:08.983Z</time>
      </trkpt>
      <trkpt lat="47.24517" lon="-2.32024">
        <ele>4</ele>
        <time>2021-05-23T07:59:09.983Z</time>
      </trkpt>
      <trkpt lat="47.24519" lon="-2.32025">
        <ele>3</ele>
        <time>2021-05-23T07:59:10.982Z</time>
      </trkpt>
      <trkpt lat="47.24521" lon="-2.32026">
        <ele>3</ele>
        <time>2021-05-23T07:59:11.983Z</time>
      </trkpt>
      <trkpt lat="47.24524" lon="-2.32027">
        <ele>3</ele>
        <time>2021-05-23T07:59:12.983Z</time>
      </trkpt>
      <trkpt lat="47.24527" lon="-2.32028">
        <ele>2</ele>
        <time>2021-05-23T07:59:13.982Z</time>
      </trkpt>
      <trkpt lat="47.24529" lon="-2.32029">
        <ele>2</ele>
        <time>2021-05-23T07:59:14.983Z</time>
      </trkpt>
      <trkpt lat="47.24532" lon="-2.32031">
        <ele>2</ele>
        <time>2021-05-23T07:59:15.983Z</time>
      </trkpt>
      <trkpt lat="47.24534" lon="-2.32032">
        <ele>1</ele>
        <time>2021-05-23T07:59:16.983Z</time>
      </trkpt>
      <trkpt lat="47.24536" lon="-2.32033">
        <ele>1</ele>
        <time>2021-05-23T07:59:17.983Z</time>
      </trkpt>
      <trkpt lat="47.24539" lon="-2.32035">
        <ele>1</ele>
        <time>2021-05-23T07:59:18.982Z</time>
      </trkpt>
      <trkpt lat="47.24541" lon="-2.32036">
        <ele>2</ele>
        <time>2021-05-23T07:59:19.983Z</time>
      </trkpt>
      <trkpt lat="47.24543" lon="-2.32038">
        <ele>2</ele>
        <time>2021-05-23T07:59:20.983Z</time>
      </trkpt>
      <trkpt lat="47.24546" lon="-2.32039">
        <ele>2</ele>
        <time>2021-05-23T07:59:21.982Z</time>
      </trkpt>
      <trkpt lat="47.24548" lon="-2.32041">
        <ele>2</ele>
        <time>2021-05-23T07:59:22.982Z</time>
      </trkpt>
      <trkpt lat="47.2455" lon="-2.32043">
        <ele>2</ele>
        <time>2021-05-23T07:59:23.983Z</time>
      </trkpt>
      <trkpt lat="47.24552" lon="-2.32045">
        <ele>2</ele>
        <time>2021-05-23T07:59:24.982Z</time>
      </trkpt>
      <trkpt lat="47.24555" lon="-2.32047">
        <ele>2</ele>
        <time>2021-05-23T07:59:25.983Z</time>
      </trkpt>
      <trkpt lat="47.24557" lon="-2.32049">
        <ele>2</ele>
        <time>2021-05-23T07:59:26.983Z</time>
      </trkpt>
      <trkpt lat="47.24559" lon="-2.32051">
        <ele>2</ele>
        <time>2021-05-23T07:59:27.982Z</time>
      </trkpt>
      <trkpt lat="47.24561" lon="-2.32053">
        <ele>2</ele>
        <time>2021-05-23T07:59:28.982Z</time>
      </trkpt>
      <trkpt lat="47.24563" lon="-2.32055">
        <ele>2</ele>
        <time>2021-05-23T07:59:29.982Z</time>
      </trkpt>
      <trkpt lat="47.24566" lon="-2.32057">
        <ele>1</ele>
        <time>2021-05-23T07:59:30.983Z</time>
      </trkpt>
      <trkpt lat="47.24568" lon="-2.32058">
        <ele>1</ele>
        <time>2021-05-23T07:59:31.983Z</time>
      </trkpt>
      <trkpt lat="47.24571" lon="-2.3206">
        <ele>1</ele>
        <time>2021-05-23T07:59:32.982Z</time>
      </trkpt>
      <trkpt lat="47.24573" lon="-2.32061">
        <ele>9.4</ele>
        <time>2021-05-23T07:59:33.983Z</time>
      </trkpt>
      <trkpt lat="47.24575" lon="-2.32063">
        <ele>9.4</ele>
        <time>2021-05-23T07:59:34.983Z</time>
      </trkpt>
      <trkpt lat="47.24576" lon="-2.32065">
        <ele>9.5</ele>
        <time>2021-05-23T07:59:35.983Z</time>
      </trkpt>
      <trkpt lat="47.24578" lon="-2.32067">
        <ele>9.5</ele>
        <time>2021-05-23T07:59:36.983Z</time>
      </trkpt>
      <trkpt lat="47.24579" lon="-2.3207">
        <ele>9.4</ele>
        <time>2021-05-23T07:59:37.983Z</time>
      </trkpt>
      <trkpt lat="47.2458" lon="-2.32073">
        <ele>9.4</ele>
        <time>2021-05-23T07:59:38.982Z</time>
      </trkpt>
      <trkpt lat="47.24582" lon="-2.32075">
        <ele>9.3</ele>
        <time>2021-05-23T07:59:39.983Z</time>
      </trkpt>
      <trkpt lat="47.24583" lon="-2.32078">
        <ele>9.3</ele>
        <time>2021-05-23T07:59:40.983Z</time>
      </trkpt>
      <trkpt lat="47.24584" lon="-2.3208">
        <ele>9.2</ele>
        <time>2021-05-23T07:59:41.983Z</time>
      </trkpt>
      <trkpt lat="47.24586" lon="-2.32082">
        <ele>9.2</ele>
        <time>2021-05-23T07:59:42.983Z</time>
      </trkpt>
      <trkpt lat="47.24587" lon="-2.32084">
        <ele>-1</ele>
        <time>2021-05-23T07:59:43.983Z</time>
      </trkpt>
      <trkpt lat="47.24589" lon="-2.32086">
        <ele>9</ele>
        <time>2021-05-23T07:59:44.982Z</time>
      </trkpt>
      <trkpt lat="47.2459" lon="-2.32089">
        <ele>8.9</ele>
        <time>2021-05-23T07:59:45.982Z</time>
      </trkpt>
      <trkpt lat="47.24591" lon="-2.32092">
        <ele>8.7</ele>
        <time>2021-05-23T07:59:46.983Z</time>
      </trkpt>
      <trkpt lat="47.24593" lon="-2.32095">
        <ele>8.6</ele>
        <time>2021-05-23T07:59:47.983Z</time>
      </trkpt>
      <trkpt lat="47.24594" lon="-2.32098">
        <ele>-1</ele>
        <time>2021-05-23T07:59:48.982Z</time>
      </trkpt>
      <trkpt lat="47.24595" lon="-2.32102">
        <ele>-1</ele>
        <time>2021-05-23T07:59:49.983Z</time>
      </trkpt>
      <trkpt lat="47.24595" lon="-2.32105">
        <ele>-1</ele>
        <time>2021-05-23T07:59:50.983Z</time>
      </trkpt>
      <trkpt lat="47.24595" lon="-2.32109">
        <ele>-3</ele>
        <time>2021-05-23T07:59:51.983Z</time>
      </trkpt>
      <trkpt lat="47.24596" lon="-2.32113">
        <ele>-2</ele>
        <time>2021-05-23T07:59:52.983Z</time>
      </trkpt>
      <trkpt lat="47.24596" lon="-2.32117">
        <ele>-2</ele>
        <time>2021-05-23T07:59:53.983Z</time>
      </trkpt>
      <trkpt lat="47.24595" lon="-2.3212">
        <ele>-2</ele>
        <time>2021-05-23T07:59:54.983Z</time>
      </trkpt>
      <trkpt lat="47.24595" lon="-2.32124">
        <ele>-2</ele>
        <time>2021-05-23T07:59:55.983Z</time>
      </trkpt>
      <trkpt lat="47.24594" lon="-2.32127">
        <ele>-2</ele>
        <time>2021-05-23T07:59:56.983Z</time>
      </trkpt>
      <trkpt lat="47.24594" lon="-2.3213">
        <ele>-3</ele>
        <time>2021-05-23T07:59:57.982Z</time>
      </trkpt>
      <trkpt lat="47.24594" lon="-2.32133">
        <ele>-3</ele>
        <time>2021-05-23T07:59:58.982Z</time>
      </trkpt>
      <trkpt lat="47.24594" lon="-2.32136">
        <ele>-5</ele>
        <time>2021-05-23T07:59:59.983Z</time>
      </trkpt>
      <trkpt lat="47.24594" lon="-2.32139">
        <ele>-3</ele>
        <time>2021-05-23T08:00:00.983Z</time>
      </trkpt>
      <trkpt lat="47.24594" lon="-2.32142">
        <ele>-3</ele>
        <time>2021-05-23T08:00:01.982Z</time>
      </trkpt>
      <trkpt lat="47.24594" lon="-2.32145">
        <ele>-4</ele>
        <time>2021-05-23T08:00:02.982Z</time>
      </trkpt>
      <trkpt lat="47.24593" lon="-2.32148">
        <ele>-2</ele>
        <time>2021-05-23T08:00:03.983Z</time>
      </trkpt>
      <trkpt lat="47.24593" lon="-2.32151">
        <ele>-2</ele>
        <time>2021-05-23T08:00:04.982Z</time>
      </trkpt>
      <trkpt lat="47.24593" lon="-2.32155">
        <ele>-2</ele>
        <time>2021-05-23T08:00:05.983Z</time>
      </trkpt>
      <trkpt lat="47.24593" lon="-2.32158">
        <ele>-2</ele>
        <time>2021-05-23T08:00:06.982Z</time>
      </trkpt>
      <trkpt lat="47.24593" lon="-2.32162">
        <ele>-2</ele>
        <time>2021-05-23T08:00:07.982Z</time>
      </trkpt>
      <trkpt lat="47.24594" lon="-2.32166">
        <ele>-2</ele>
        <time>2021-05-23T08:00:08.982Z</time>
      </trkpt>
      <trkpt lat="47.24594" lon="-2.3217">
        <ele>-3</ele>
        <time>2021-05-23T08:00:09.982Z</time>
      </trkpt>
      <trkpt lat="47.24594" lon="-2.32173">
        <ele>-3</ele>
        <time>2021-05-23T08:00:10.982Z</time>
      </trkpt>
      <trkpt lat="47.24595" lon="-2.32176">
        <ele>-3</ele>
        <time>2021-05-23T08:00:11.982Z</time>
      </trkpt>
      <trkpt lat="47.24595" lon="-2.32179">
        <ele>-4</ele>
        <time>2021-05-23T08:00:12.982Z</time>
      </trkpt>
      <trkpt lat="47.24595" lon="-2.32183">
        <ele>-3</ele>
        <time>2021-05-23T08:00:13.982Z</time>
      </trkpt>
      <trkpt lat="47.24596" lon="-2.32186">
        <ele>-3</ele>
        <time>2021-05-23T08:00:14.982Z</time>
      </trkpt>
      <trkpt lat="47.24597" lon="-2.32189">
        <ele>-3</ele>
        <time>2021-05-23T08:00:15.983Z</time>
      </trkpt>
      <trkpt lat="47.24597" lon="-2.32192">
        <ele>-3</ele>
        <time>2021-05-23T08:00:16.983Z</time>
      </trkpt>
      <trkpt lat="47.24599" lon="-2.32195">
        <ele>-5</ele>
        <time>2021-05-23T08:00:17.983Z</time>
      </trkpt>
      <trkpt lat="47.246" lon="-2.32198">
        <ele>-4</ele>
        <time>2021-05-23T08:00:18.983Z</time>
      </trkpt>
      <trkpt lat="47.24601" lon="-2.32201">
        <ele>-4</ele>
        <time>2021-05-23T08:00:19.982Z</time>
      </trkpt>
      <trkpt lat="47.24602" lon="-2.32204">
        <ele>-6</ele>
        <time>2021-05-23T08:00:20.983Z</time>
      </trkpt>
      <trkpt lat="47.24603" lon="-2.32207">
        <ele>-5</ele>
        <time>2021-05-23T08:00:21.983Z</time>
      </trkpt>
      <trkpt lat="47.24604" lon="-2.32209">
        <ele>-4</ele>
        <time>2021-05-23T08:00:22.983Z</time>
      </trkpt>
      <trkpt lat="47.24605" lon="-2.32212">
        <ele>-4</ele>
        <time>2021-05-23T08:00:23.983Z</time>
      </trkpt>
      <trkpt lat="47.24607" lon="-2.32214">
        <ele>-4</ele>
        <time>2021-05-23T08:00:24.983Z</time>
      </trkpt>
      <trkpt lat="47.24608" lon="-2.32217">
        <ele>-4</ele>
        <time>2021-05-23T08:00:25.983Z</time>
      </trkpt>
      <trkpt lat="47.24609" lon="-2.3222">
        <ele>-4</ele>
        <time>2021-05-23T08:00:26.983Z</time>
      </trkpt>
      <trkpt lat="47.24611" lon="-2.32223">
        <ele>-4</ele>
        <time>2021-05-23T08:00:27.982Z</time>
      </trkpt>
      <trkpt lat="47.24612" lon="-2.32225">
        <ele>-3</ele>
        <time>2021-05-23T08:00:28.983Z</time>
      </trkpt>
      <trkpt lat="47.24614" lon="-2.32227">
        <ele>-3</ele>
        <time>2021-05-23T08:00:29.983Z</time>
      </trkpt>
      <trkpt lat="47.24616" lon="-2.32229">
        <ele>-3</ele>
        <time>2021-05-23T08:00:30.983Z</time>
      </trkpt>
      <trkpt lat="47.24617" lon="-2.32232">
        <ele>-3</ele>
        <time>2021-05-23T08:00:31.982Z</time>
      </trkpt>
      <trkpt lat="47.24619" lon="-2.32234">
        <ele>-2</ele>
        <time>2021-05-23T08:00:32.983Z</time>
      </trkpt>
      <trkpt lat="47.2462" lon="-2.32237">
        <ele>-2</ele>
        <time>2021-05-23T08:00:33.983Z</time>
      </trkpt>
      <trkpt lat="47.24622" lon="-2.32239">
        <ele>-2</ele>
        <time>2021-05-23T08:00:34.983Z</time>
      </trkpt>
      <trkpt lat="47.24623" lon="-2.32242">
        <ele>-2</ele>
        <time>2021-05-23T08:00:35.982Z</time>
      </trkpt>
      <trkpt lat="47.24625" lon="-2.32245">
        <ele>-2</ele>
        <time>2021-05-23T08:00:36.983Z</time>
      </trkpt>
      <trkpt lat="47.24626" lon="-2.32248">
        <ele>-2</ele>
        <time>2021-05-23T08:00:37.983Z</time>
      </trkpt>
      <trkpt lat="47.24628" lon="-2.3225">
        <ele>-2</ele>
        <time>2021-05-23T08:00:38.982Z</time>
      </trkpt>
      <trkpt lat="47.24629" lon="-2.32253">
        <ele>-2</ele>
        <time>2021-05-23T08:00:39.983Z</time>
      </trkpt>
      <trkpt lat="47.2463" lon="-2.32256">
        <ele>-2</ele>
        <time>2021-05-23T08:00:40.983Z</time>
      </trkpt>
      <trkpt lat="47.24632" lon="-2.32258">
        <ele>-2</ele>
        <time>2021-05-23T08:00:41.982Z</time>
      </trkpt>
      <trkpt lat="47.24633" lon="-2.32261">
        <ele>-2</ele>
        <time>2021-05-23T08:00:42.983Z</time>
      </trkpt>
      <trkpt lat="47.24634" lon="-2.32264">
        <ele>-1</ele>
        <time>2021-05-23T08:00:43.983Z</time>
      </trkpt>
      <trkpt lat="47.24636" lon="-2.32266">
        <ele>-1</ele>
        <time>2021-05-23T08:00:44.982Z</time>
      </trkpt>
      <trkpt lat="47.24637" lon="-2.32269">
        <ele>-1</ele>
        <time>2021-05-23T08:00:45.983Z</time>
      </trkpt>
      <trkpt lat="47.24639" lon="-2.32271">
        <ele>-1</ele>
        <time>2021-05-23T08:00:46.983Z</time>
      </trkpt>
      <trkpt lat="47.2464" lon="-2.32274">
        <ele>4.6</ele>
        <time>2021-05-23T08:00:47.982Z</time>
      </trkpt>
      <trkpt lat="47.24642" lon="-2.32276">
        <ele>4.4</ele>
        <time>2021-05-23T08:00:48.982Z</time>
      </trkpt>
      <trkpt lat="47.24644" lon="-2.32279">
        <ele>4.3</ele>
        <time>2021-05-23T08:00:49.982Z</time>
      </trkpt>
      <trkpt lat="47.24645" lon="-2.32282">
        <ele>-1</ele>
        <time>2021-05-23T08:00:50.982Z</time>
      </trkpt>
      <trkpt lat="47.24646" lon="-2.32285">
        <ele>3.9</ele>
        <time>2021-05-23T08:00:51.982Z</time>
      </trkpt>
      <trkpt lat="47.24648" lon="-2.32288">
        <ele>3.7</ele>
        <time>2021-05-23T08:00:52.982Z</time>
      </trkpt>
      <trkpt lat="47.24649" lon="-2.32291">
        <ele>3.6</ele>
        <time>2021-05-23T08:00:53.982Z</time>
      </trkpt>
      <trkpt lat="47.2465" lon="-2.32294">
        <ele>3.4</ele>
        <time>2021-05-23T08:00:54.983Z</time>
      </trkpt>
      <trkpt lat="47.24652" lon="-2.32297">
        <ele>3.2</ele>
        <time>2021-05-23T08:00:55.983Z</time>
      </trkpt>
      <trkpt lat="47.24653" lon="-2.323">
        <ele>3</ele>
        <time>2021-05-23T08:00:56.983Z</time>
      </trkpt>
      <trkpt lat="47.24655" lon="-2.32302">
        <ele>2.9</ele>
        <time>2021-05-23T08:00:57.982Z</time>
      </trkpt>
      <trkpt lat="47.24656" lon="-2.32305">
        <ele>2.7</ele>
        <time>2021-05-23T08:00:58.983Z</time>
      </trkpt>
      <trkpt lat="47.24657" lon="-2.32308">
        <ele>2.5</ele>
        <time>2021-05-23T08:00:59.983Z</time>
      </trkpt>
      <trkpt lat="47.24658" lon="-2.32311">
        <ele>1</ele>
        <time>2021-05-23T08:01:00.982Z</time>
      </trkpt>
      <trkpt lat="47.24659" lon="-2.32314">
        <ele>1</ele>
        <time>2021-05-23T08:01:01.983Z</time>
      </trkpt>
      <trkpt lat="47.24661" lon="-2.32317">
        <ele>1</ele>
        <time>2021-05-23T08:01:02.982Z</time>
      </trkpt>
      <trkpt lat="47.24662" lon="-2.3232">
        <ele>1.8</ele>
        <time>2021-05-23T08:01:03.983Z</time>
      </trkpt>
      <trkpt lat="47.24664" lon="-2.32322">
        <ele>1.7</ele>
        <time>2021-05-23T08:01:04.982Z</time>
      </trkpt>
      <trkpt lat="47.24665" lon="-2.32325">
        <ele>1.5</ele>
        <time>2021-05-23T08:01:05.982Z</time>
      </trkpt>
      <trkpt lat="47.24666" lon="-2.32328">
        <ele>1.3</ele>
        <time>2021-05-23T08:01:06.983Z</time>
      </trkpt>
      <trkpt lat="47.24667" lon="-2.32331">
        <ele>1.2</ele>
        <time>2021-05-23T08:01:07.983Z</time>
      </trkpt>
      <trkpt lat="47.24668" lon="-2.32334">
        <ele>1.2</ele>
        <time>2021-05-23T08:01:08.983Z</time>
      </trkpt>
      <trkpt lat="47.24669" lon="-2.32337">
        <ele>1.4</ele>
        <time>2021-05-23T08:01:09.983Z</time>
      </trkpt>
      <trkpt lat="47.24671" lon="-2.3234">
        <ele>1.7</ele>
        <time>2021-05-23T08:01:10.982Z</time>
      </trkpt>
      <trkpt lat="47.24673" lon="-2.32342">
        <ele>2</ele>
        <time>2021-05-23T08:01:11.983Z</time>
      </trkpt>
      <trkpt lat="47.24675" lon="-2.32344">
        <ele>2.2</ele>
        <time>2021-05-23T08:01:12.983Z</time>
      </trkpt>
      <trkpt lat="47.24677" lon="-2.32347">
        <ele>2.5</ele>
        <time>2021-05-23T08:01:13.983Z</time>
      </trkpt>
      <trkpt lat="47.24678" lon="-2.3235">
        <ele>2.8</ele>
        <time>2021-05-23T08:01:14.982Z</time>
      </trkpt>
      <trkpt lat="47.2468" lon="-2.32353">
        <ele>3</ele>
        <time>2021-05-23T08:01:15.983Z</time>
      </trkpt>
      <trkpt lat="47.24682" lon="-2.32355">
        <ele>3.2</ele>
        <time>2021-05-23T08:01:16.983Z</time>
      </trkpt>
      <trkpt lat="47.24683" lon="-2.32358">
        <ele>3.4</ele>
        <time>2021-05-23T08:01:17.983Z</time>
      </trkpt>
      <trkpt lat="47.24684" lon="-2.32361">
        <ele>3.6</ele>
        <time>2021-05-23T08:01:18.983Z</time>
      </trkpt>
      <trkpt lat="47.24686" lon="-2.32363">
        <ele>3.8</ele>
        <time>2021-05-23T08:01:19.983Z</time>
      </trkpt>
      <trkpt lat="47.24688" lon="-2.32366">
        <ele>4</ele>
        <time>2021-05-23T08:01:20.982Z</time>
      </trkpt>
      <trkpt lat="47.24689" lon="-2.32368">
        <ele>4.2</ele>
        <time>2021-05-23T08:01:21.983Z</time>
      </trkpt>
      <trkpt lat="47.2469" lon="-2.32371">
        <ele>4.3</ele>
        <time>2021-05-23T08:01:22.983Z</time>
      </trkpt>
      <trkpt lat="47.24692" lon="-2.32373">
        <ele>4.5</ele>
        <time>2021-05-23T08:01:23.983Z</time>
      </trkpt>
      <trkpt lat="47.24693" lon="-2.32375">
        <ele>4.6</ele>
        <time>2021-05-23T08:01:24.983Z</time>
      </trkpt>
      <trkpt lat="47.24695" lon="-2.32378">
        <ele>-1</ele>
        <time>2021-05-23T08:01:25.982Z</time>
      </trkpt>
      <trkpt lat="47.24697" lon="-2.32381">
        <ele>4.9</ele>
        <time>2021-05-23T08:01:26.982Z</time>
      </trkpt>
      <trkpt lat="47.24698" lon="-2.32383">
        <ele>5</ele>
        <time>2021-05-23T08:01:27.983Z</time>
      </trkpt>
      <trkpt lat="47.247" lon="-2.32385">
        <ele>5.2</ele>
        <time>2021-05-23T08:01:28.983Z</time>
      </trkpt>
      <trkpt lat="47.24702" lon="-2.32386">
        <ele>5.3</ele>
        <time>2021-05-23T08:01:29.982Z</time>
      </trkpt>
      <trkpt lat="47.24704" lon="-2.32386">
        <ele>5.3</ele>
        <time>2021-05-23T08:01:30.983Z</time>
      </trkpt>
      <trkpt lat="47.24706" lon="-2.32386">
        <ele>5.4</ele>
        <time>2021-05-23T08:01:31.983Z</time>
      </trkpt>
      <trkpt lat="47.24708" lon="-2.32386">
        <ele>5.4</ele>
        <time>2021-05-23T08:01:32.982Z</time>
      </trkpt>
      <trkpt lat="47.2471" lon="-2.32385">
        <ele>5.5</ele>
        <time>2021-05-23T08:01:33.983Z</time>
      </trkpt>
      <trkpt lat="47.24712" lon="-2.32384">
        <ele>5.5</ele>
        <time>2021-05-23T08:01:34.983Z</time>
      </trkpt>
      <trkpt lat="47.24714" lon="-2.32383">
        <ele>5.6</ele>
        <time>2021-05-23T08:01:35.983Z</time>
      </trkpt>
      <trkpt lat="47.24716" lon="-2.32382">
        <ele>5.6</ele>
        <time>2021-05-23T08:01:36.982Z</time>
      </trkpt>
      <trkpt lat="47.24718" lon="-2.3238">
        <ele>5.7</ele>
        <time>2021-05-23T08:01:37.983Z</time>
      </trkpt>
      <trkpt lat="47.2472" lon="-2.32379">
        <ele>5.8</ele>
        <time>2021-05-23T08:01:38.982Z</time>
      </trkpt>
      <trkpt lat="47.24722" lon="-2.32378">
        <ele>5.8</ele>
        <time>2021-05-23T08:01:39.982Z</time>
      </trkpt>
      <trkpt lat="47.24724" lon="-2.32377">
        <ele>5.9</ele>
        <time>2021-05-23T08:01:40.983Z</time>
      </trkpt>
      <trkpt lat="47.24726" lon="-2.32376">
        <ele>1</ele>
        <time>2021-05-23T08:01:41.982Z</time>
      </trkpt>
      <trkpt lat="47.24728" lon="-2.32375">
        <ele>1</ele>
        <time>2021-05-23T08:01:42.983Z</time>
      </trkpt>
      <trkpt lat="47.2473" lon="-2.32374">
        <ele>1</ele>
        <time>2021-05-23T08:01:43.983Z</time>
      </trkpt>
      <trkpt lat="47.24731" lon="-2.32374">
        <ele>1</ele>
        <time>2021-05-23T08:01:44.982Z</time>
      </trkpt>
      <trkpt lat="47.24732" lon="-2.32373">
        <ele>1</ele>
        <time>2021-05-23T08:01:45.983Z</time>
      </trkpt>
      <trkpt lat="47.24732" lon="-2.32373">
        <ele>1</ele>
        <time>2021-05-23T08:01:46.982Z</time>
      </trkpt>
      <trkpt lat="47.24733" lon="-2.32372">
        <ele>1</ele>
        <time>2021-05-23T08:01:47.983Z</time>
      </trkpt>
      <trkpt lat="47.24734" lon="-2.32372">
        <ele>1</ele>
        <time>2021-05-23T08:01:48.983Z</time>
      </trkpt>
      <trkpt lat="47.24734" lon="-2.32371">
        <ele>1</ele>
        <time>2021-05-23T08:01:49.983Z</time>
      </trkpt>
      <trkpt lat="47.24735" lon="-2.3237">
        <ele>1</ele>
        <time>2021-05-23T08:01:50.983Z</time>
      </trkpt>
      <trkpt lat="47.24736" lon="-2.32369">
        <ele>1</ele>
        <time>2021-05-23T08:01:51.982Z</time>
      </trkpt>
      <trkpt lat="47.24736" lon="-2.32368">
        <ele>1</ele>
        <time>2021-05-23T08:01:52.983Z</time>
      </trkpt>
      <trkpt lat="47.24736" lon="-2.32367">
        <ele>1</ele>
        <time>2021-05-23T08:01:53.983Z</time>
      </trkpt>
      <trkpt lat="47.24736" lon="-2.32366">
        <ele>1</ele>
        <time>2021-05-23T08:01:54.983Z</time>
      </trkpt>
      <trkpt lat="47.24737" lon="-2.32364">
        <ele>1</ele>
        <time>2021-05-23T08:01:55.983Z</time>
      </trkpt>
      <trkpt lat="47.24737" lon="-2.32363">
        <ele>1</ele>
        <time>2021-05-23T08:01:56.983Z</time>
      </trkpt>
      <trkpt lat="47.24737" lon="-2.32362">
        <ele>1</ele>
        <time>2021-05-23T08:01:57.983Z</time>
      </trkpt>
      <trkpt lat="47.24737" lon="-2.32361">
        <ele>1</ele>
        <time>2021-05-23T08:01:58.983Z</time>
      </trkpt>
      <trkpt lat="47.24737" lon="-2.3236">
        <ele>1</ele>
        <time>2021-05-23T08:01:59.983Z</time>
      </trkpt>
      <trkpt lat="47.24738" lon="-2.32359">
        <ele>1</ele>
        <time>2021-05-23T08:02:00.983Z</time>
      </trkpt>
      <trkpt lat="47.24738" lon="-2.32359">
        <ele>1</ele>
        <time>2021-05-23T08:02:01.983Z</time>
      </trkpt>
      <trkpt lat="47.24738" lon="-2.32358">
        <ele>1</ele>
        <time>2021-05-23T08:02:02.983Z</time>
      </trkpt>
      <trkpt lat="47.24738" lon="-2.32358">
        <ele>1</ele>
        <time>2021-05-23T08:02:03.983Z</time>
      </trkpt>
      <trkpt lat="47.24738" lon="-2.32358">
        <ele>6.7</ele>
        <time>2021-05-23T08:02:04.983Z</time>
      </trkpt>
      <trkpt lat="47.24739" lon="-2.32359">
        <ele>6.7</ele>
        <time>2021-05-23T08:02:05.983Z</time>
      </trkpt>
      <trkpt lat="47.24739" lon="-2.32359">
        <ele>6.7</ele>
        <time>2021-05-23T08:02:06.983Z</time>
      </trkpt>
      <trkpt lat="47.2474" lon="-2.3236">
        <ele>6.8</ele>
        <time>2021-05-23T08:02:07.983Z</time>
      </trkpt>
      <trkpt lat="47.24741" lon="-2.32361">
        <ele>6.8</ele>
        <time>2021-05-23T08:02:08.983Z</time>
      </trkpt>
      <trkpt lat="47.24742" lon="-2.32361">
        <ele>1</ele>
        <time>2021-05-23T08:02:09.983Z</time>
      </trkpt>
      <trkpt lat="47.24744" lon="-2.32361">
        <ele>1</ele>
        <time>2021-05-23T08:02:10.983Z</time>
      </trkpt>
      <trkpt lat="47.24745" lon="-2.32361">
        <ele>2</ele>
        <time>2021-05-23T08:02:11.982Z</time>
      </trkpt>
      <trkpt lat="47.24747" lon="-2.32361">
        <ele>2</ele>
        <time>2021-05-23T08:02:12.983Z</time>
      </trkpt>
      <trkpt lat="47.24748" lon="-2.32361">
        <ele>3</ele>
        <time>2021-05-23T08:02:13.983Z</time>
      </trkpt>
      <trkpt lat="47.24748" lon="-2.32362">
        <ele>4</ele>
        <time>2021-05-23T08:02:14.982Z</time>
      </trkpt>
      <trkpt lat="47.24749" lon="-2.32362">
        <ele>4</ele>
        <time>2021-05-23T08:02:15.982Z</time>
      </trkpt>
      <trkpt lat="47.24749" lon="-2.32362">
        <ele>4</ele>
        <time>2021-05-23T08:02:16.982Z</time>
      </trkpt>
      <trkpt lat="47.2475" lon="-2.32363">
        <ele>4</ele>
        <time>2021-05-23T08:02:17.983Z</time>
      </trkpt>
      <trkpt lat="47.24751" lon="-2.32364">
        <ele>4</ele>
        <time>2021-05-23T08:02:18.982Z</time>
      </trkpt>
      <trkpt lat="47.24753" lon="-2.32365">
        <ele>4</ele>
        <time>2021-05-23T08:02:19.983Z</time>
      </trkpt>
      <trkpt lat="47.24754" lon="-2.32367">
        <ele>4</ele>
        <time>2021-05-23T08:02:20.983Z</time>
      </trkpt>
      <trkpt lat="47.24755" lon="-2.32369">
        <ele>4</ele>
        <time>2021-05-23T08:02:21.982Z</time>
      </trkpt>
      <trkpt lat="47.24756" lon="-2.32372">
        <ele>5</ele>
        <time>2021-05-23T08:02:22.983Z</time>
      </trkpt>
      <trkpt lat="47.24757" lon="-2.32375">
        <ele>5</ele>
        <time>2021-05-23T08:02:23.983Z</time>
      </trkpt>
      <trkpt lat="47.24759" lon="-2.32378">
        <ele>5</ele>
        <time>2021-05-23T08:02:24.982Z</time>
      </trkpt>
      <trkpt lat="47.2476" lon="-2.32381">
        <ele>5</ele>
        <time>2021-05-23T08:02:25.983Z</time>
      </trkpt>
      <trkpt lat="47.24761" lon="-2.32384">
        <ele>5</ele>
        <time>2021-05-23T08:02:26.983Z</time>
      </trkpt>
      <trkpt lat="47.24762" lon="-2.32387">
        <ele>4</ele>
        <time>2021-05-23T08:02:27.982Z</time>
      </trkpt>
      <trkpt lat="47.24763" lon="-2.3239">
        <ele>4</ele>
        <time>2021-05-23T08:02:28.983Z</time>
      </trkpt>
      <trkpt lat="47.24764" lon="-2.32393">
        <ele>4</ele>
        <time>2021-05-23T08:02:29.983Z</time>
      </trkpt>
      <trkpt lat="47.24765" lon="-2.32397">
        <ele>4</ele>
        <time>2021-05-23T08:02:30.982Z</time>
      </trkpt>
      <trkpt lat="47.24766" lon="-2.324">
        <ele>3</ele>
        <time>2021-05-23T08:02:31.983Z</time>
      </trkpt>
      <trkpt lat="47.24767" lon="-2.32404">
        <ele>3</ele>
        <time>2021-05-23T08:02:32.983Z</time>
      </trkpt>
      <trkpt lat="47.24769" lon="-2.32407">
        <ele>3</ele>
        <time>2021-05-23T08:02:33.982Z</time>
      </trkpt>
      <trkpt lat="47.2477" lon="-2.3241">
        <ele>3</ele>
        <time>2021-05-23T08:02:34.982Z</time>
      </trkpt>
      <trkpt lat="47.24771" lon="-2.32413">
        <ele>3</ele>
        <time>2021-05-23T08:02:35.982Z</time>
      </trkpt>
      <trkpt lat="47.24773" lon="-2.32417">
        <ele>3</ele>
        <time>2021-05-23T08:02:36.982Z</time>
      </trkpt>
      <trkpt lat="47.24774" lon="-2.3242">
        <ele>3</ele>
        <time>2021-05-23T08:02:37.983Z</time>
      </trkpt>
      <trkpt lat="47.24775" lon="-2.32423">
        <ele>3</ele>
        <time>2021-05-23T08:02:38.983Z</time>
      </trkpt>
      <trkpt lat="47.24776" lon="-2.32426">
        <ele>4</ele>
        <time>2021-05-23T08:02:39.983Z</time>
      </trkpt>
      <trkpt lat="47.24778" lon="-2.3243">
        <ele>4</ele>
        <time>2021-05-23T08:02:40.983Z</time>
      </trkpt>
      <trkpt lat="47.24779" lon="-2.32433">
        <ele>4</ele>
        <time>2021-05-23T08:02:41.983Z</time>
      </trkpt>
      <trkpt lat="47.2478" lon="-2.32436">
        <ele>3</ele>
        <time>2021-05-23T08:02:42.983Z</time>
      </trkpt>
      <trkpt lat="47.24782" lon="-2.32439">
        <ele>3</ele>
        <time>2021-05-23T08:02:43.983Z</time>
      </trkpt>
      <trkpt lat="47.24783" lon="-2.32442">
        <ele>3</ele>
        <time>2021-05-23T08:02:44.983Z</time>
      </trkpt>
      <trkpt lat="47.24785" lon="-2.32445">
        <ele>3</ele>
        <time>2021-05-23T08:02:45.983Z</time>
      </trkpt>
      <trkpt lat="47.24786" lon="-2.32448">
        <ele>3</ele>
        <time>2021-05-23T08:02:46.983Z</time>
      </trkpt>
      <trkpt lat="47.24788" lon="-2.32452">
        <ele>4</ele>
        <time>2021-05-23T08:02:47.983Z</time>
      </trkpt>
      <trkpt lat="47.24789" lon="-2.32455">
        <ele>5</ele>
        <time>2021-05-23T08:02:48.983Z</time>
      </trkpt>
      <trkpt lat="47.2479" lon="-2.32458">
        <ele>5</ele>
        <time>2021-05-23T08:02:49.983Z</time>
      </trkpt>
      <trkpt lat="47.24791" lon="-2.32462">
        <ele>6</ele>
        <time>2021-05-23T08:02:50.982Z</time>
      </trkpt>
      <trkpt lat="47.24792" lon="-2.32465">
        <ele>6</ele>
        <time>2021-05-23T08:02:51.983Z</time>
      </trkpt>
      <trkpt lat="47.24793" lon="-2.32469">
        <ele>6</ele>
        <time>2021-05-23T08:02:52.983Z</time>
      </trkpt>
      <trkpt lat="47.24794" lon="-2.32472">
        <ele>5</ele>
        <time>2021-05-23T08:02:53.982Z</time>
      </trkpt>
      <trkpt lat="47.24796" lon="-2.32475">
        <ele>5</ele>
        <time>2021-05-23T08:02:54.983Z</time>
      </trkpt>
      <trkpt lat="47.24797" lon="-2.32478">
        <ele>5</ele>
        <time>2021-05-23T08:02:55.982Z</time>
      </trkpt>
      <trkpt lat="47.24799" lon="-2.32482">
        <ele>5</ele>
        <time>2021-05-23T08:02:56.983Z</time>
      </trkpt>
      <trkpt lat="47.248" lon="-2.32485">
        <ele>5</ele>
        <time>2021-05-23T08:02:57.983Z</time>
      </trkpt>
      <trkpt lat="47.24801" lon="-2.32488">
        <ele>4</ele>
        <time>2021-05-23T08:02:58.982Z</time>
      </trkpt>
      <trkpt lat="47.24802" lon="-2.32491">
        <ele>4</ele>
        <time>2021-05-23T08:02:59.983Z</time>
      </trkpt>
      <trkpt lat="47.24803" lon="-2.32494">
        <ele>4</ele>
        <time>2021-05-23T08:03:00.983Z</time>
      </trkpt>
      <trkpt lat="47.24804" lon="-2.32497">
        <ele>4</ele>
        <time>2021-05-23T08:03:01.983Z</time>
      </trkpt>
      <trkpt lat="47.24805" lon="-2.325">
        <ele>4</ele>
        <time>2021-05-23T08:03:02.983Z</time>
      </trkpt>
      <trkpt lat="47.24806" lon="-2.32503">
        <ele>4</ele>
        <time>2021-05-23T08:03:03.983Z</time>
      </trkpt>
      <trkpt lat="47.24807" lon="-2.32507">
        <ele>4</ele>
        <time>2021-05-23T08:03:04.983Z</time>
      </trkpt>
      <trkpt lat="47.24808" lon="-2.3251">
        <ele>5</ele>
        <time>2021-05-23T08:03:05.983Z</time>
      </trkpt>
      <trkpt lat="47.24809" lon="-2.32513">
        <ele>5</ele>
        <time>2021-05-23T08:03:06.983Z</time>
      </trkpt>
      <trkpt lat="47.2481" lon="-2.32517">
        <ele>4</ele>
        <time>2021-05-23T08:03:07.983Z</time>
      </trkpt>
      <trkpt lat="47.24811" lon="-2.3252">
        <ele>4</ele>
        <time>2021-05-23T08:03:08.983Z</time>
      </trkpt>
      <trkpt lat="47.24812" lon="-2.32524">
        <ele>4</ele>
        <time>2021-05-23T08:03:09.983Z</time>
      </trkpt>
      <trkpt lat="47.24814" lon="-2.32527">
        <ele>3</ele>
        <time>2021-05-23T08:03:10.983Z</time>
      </trkpt>
      <trkpt lat="47.24815" lon="-2.3253">
        <ele>3</ele>
        <time>2021-05-23T08:03:11.983Z</time>
      </trkpt>
      <trkpt lat="47.24816" lon="-2.32533">
        <ele>4</ele>
        <time>2021-05-23T08:03:12.983Z</time>
      </trkpt>
      <trkpt lat="47.24817" lon="-2.32536">
        <ele>4</ele>
        <time>2021-05-23T08:03:13.982Z</time>
      </trkpt>
      <trkpt lat="47.24819" lon="-2.32539">
        <ele>4</ele>
        <time>2021-05-23T08:03:14.983Z</time>
      </trkpt>
      <trkpt lat="47.2482" lon="-2.32542">
        <ele>4</ele>
        <time>2021-05-23T08:03:15.982Z</time>
      </trkpt>
      <trkpt lat="47.24821" lon="-2.32545">
        <ele>3</ele>
        <time>2021-05-23T08:03:16.983Z</time>
      </trkpt>
      <trkpt lat="47.24822" lon="-2.32548">
        <ele>3</ele>
        <time>2021-05-23T08:03:17.983Z</time>
      </trkpt>
      <trkpt lat="47.24824" lon="-2.32552">
        <ele>2</ele>
        <time>2021-05-23T08:03:18.982Z</time>
      </trkpt>
      <trkpt lat="47.24825" lon="-2.32555">
        <ele>2</ele>
        <time>2021-05-23T08:03:19.982Z</time>
      </trkpt>
      <trkpt lat="47.24827" lon="-2.32558">
        <ele>2</ele>
        <time>2021-05-23T08:03:20.983Z</time>
      </trkpt>
      <trkpt lat="47.24828" lon="-2.32561">
        <ele>2</ele>
        <time>2021-05-23T08:03:21.982Z</time>
      </trkpt>
      <trkpt lat="47.2483" lon="-2.32564">
        <ele>2</ele>
        <time>2021-05-23T08:03:22.983Z</time>
      </trkpt>
      <trkpt lat="47.24831" lon="-2.32567">
        <ele>3</ele>
        <time>2021-05-23T08:03:23.982Z</time>
      </trkpt>
      <trkpt lat="47.24833" lon="-2.3257">
        <ele>3</ele>
        <time>2021-05-23T08:03:24.983Z</time>
      </trkpt>
      <trkpt lat="47.24834" lon="-2.32573">
        <ele>4</ele>
        <time>2021-05-23T08:03:25.983Z</time>
      </trkpt>
      <trkpt lat="47.24836" lon="-2.32575">
        <ele>4</ele>
        <time>2021-05-23T08:03:26.983Z</time>
      </trkpt>
      <trkpt lat="47.24836" lon="-2.32577">
        <ele>4</ele>
        <time>2021-05-23T08:03:27.982Z</time>
      </trkpt>
      <trkpt lat="47.24837" lon="-2.32579">
        <ele>4</ele>
        <time>2021-05-23T08:03:28.982Z</time>
      </trkpt>
      <trkpt lat="47.24837" lon="-2.32581">
        <ele>3</ele>
        <time>2021-05-23T08:03:29.982Z</time>
      </trkpt>
      <trkpt lat="47.24837" lon="-2.32582">
        <ele>3</ele>
        <time>2021-05-23T08:03:30.982Z</time>
      </trkpt>
      <trkpt lat="47.24836" lon="-2.32582">
        <ele>4</ele>
        <time>2021-05-23T08:03:31.982Z</time>
      </trkpt>
      <trkpt lat="47.24836" lon="-2.32583">
        <ele>4</ele>
        <time>2021-05-23T08:03:32.983Z</time>
      </trkpt>
      <trkpt lat="47.24835" lon="-2.32583">
        <ele>5</ele>
        <time>2021-05-23T08:03:33.983Z</time>
      </trkpt>
      <trkpt lat="47.24835" lon="-2.32584">
        <ele>5</ele>
        <time>2021-05-23T08:03:34.982Z</time>
      </trkpt>
      <trkpt lat="47.24834" lon="-2.32584">
        <ele>5</ele>
        <time>2021-05-23T08:03:35.982Z</time>
      </trkpt>
      <trkpt lat="47.24834" lon="-2.32584">
        <ele>6</ele>
        <time>2021-05-23T08:03:36.982Z</time>
      </trkpt>
      <trkpt lat="47.24834" lon="-2.32585">
        <ele>6</ele>
        <time>2021-05-23T08:03:37.982Z</time>
      </trkpt>
      <trkpt lat="47.24833" lon="-2.32585">
        <ele>6</ele>
        <time>2021-05-23T08:03:38.982Z</time>
      </trkpt>
      <trkpt lat="47.24833" lon="-2.32585">
        <ele>6</ele>
        <time>2021-05-23T08:03:39.982Z</time>
      </trkpt>
      <trkpt lat="47.24834" lon="-2.32586">
        <ele>6</ele>
        <time>2021-05-23T08:03:40.982Z</time>
      </trkpt>
      <trkpt lat="47.24835" lon="-2.32586">
        <ele>6</ele>
        <time>2021-05-23T08:03:41.982Z</time>
      </trkpt>
      <trkpt lat="47.24836" lon="-2.32586">
        <ele>6</ele>
        <time>2021-05-23T08:03:42.982Z</time>
      </trkpt>
      <trkpt lat="47.24837" lon="-2.32586">
        <ele>6</ele>
        <time>2021-05-23T08:03:43.983Z</time>
      </trkpt>
      <trkpt lat="47.24839" lon="-2.32588">
        <ele>5</ele>
        <time>2021-05-23T08:03:44.982Z</time>
      </trkpt>
      <trkpt lat="47.2484" lon="-2.3259">
        <ele>5</ele>
        <time>2021-05-23T08:03:45.982Z</time>
      </trkpt>
      <trkpt lat="47.24842" lon="-2.32592">
        <ele>4</ele>
        <time>2021-05-23T08:03:46.982Z</time>
      </trkpt>
      <trkpt lat="47.24843" lon="-2.32595">
        <ele>4</ele>
        <time>2021-05-23T08:03:47.982Z</time>
      </trkpt>
      <trkpt lat="47.24844" lon="-2.32598">
        <ele>4</ele>
        <time>2021-05-23T08:03:48.982Z</time>
      </trkpt>
      <trkpt lat="47.24845" lon="-2.32601">
        <ele>3</ele>
        <time>2021-05-23T08:03:49.982Z</time>
      </trkpt>
      <trkpt lat="47.24846" lon="-2.32604">
        <ele>3</ele>
        <time>2021-05-23T08:03:50.982Z</time>
      </trkpt>
      <trkpt lat="47.24847" lon="-2.32608">
        <ele>3</ele>
        <time>2021-05-23T08:03:51.982Z</time>
      </trkpt>
      <trkpt lat="47.24848" lon="-2.32611">
        <ele>2</ele>
        <time>2021-05-23T08:03:52.982Z</time>
      </trkpt>
      <trkpt lat="47.24849" lon="-2.32615">
        <ele>2</ele>
        <time>2021-05-23T08:03:53.982Z</time>
      </trkpt>
      <trkpt lat="47.2485" lon="-2.32619">
        <ele>2</ele>
        <time>2021-05-23T08:03:54.982Z</time>
      </trkpt>
      <trkpt lat="47.24851" lon="-2.32623">
        <ele>3</ele>
        <time>2021-05-23T08:03:55.982Z</time>
      </trkpt>
      <trkpt lat="47.24852" lon="-2.32626">
        <ele>3</ele>
        <time>2021-05-23T08:03:56.982Z</time>
      </trkpt>
      <trkpt lat="47.24853" lon="-2.3263">
        <ele>3</ele>
        <time>2021-05-23T08:03:57.982Z</time>
      </trkpt>
      <trkpt lat="47.24854" lon="-2.32633">
        <ele>4</ele>
        <time>2021-05-23T08:03:58.982Z</time>
      </trkpt>
      <trkpt lat="47.24856" lon="-2.32636">
        <ele>4</ele>
        <time>2021-05-23T08:03:59.982Z</time>
      </trkpt>
      <trkpt lat="47.24857" lon="-2.32639">
        <ele>5</ele>
        <time>2021-05-23T08:04:00.982Z</time>
      </trkpt>
      <trkpt lat="47.24859" lon="-2.32642">
        <ele>5</ele>
        <time>2021-05-23T08:04:01.982Z</time>
      </trkpt>
      <trkpt lat="47.24861" lon="-2.32644">
        <ele>5</ele>
        <time>2021-05-23T08:04:02.983Z</time>
      </trkpt>
      <trkpt lat="47.24863" lon="-2.32647">
        <ele>5</ele>
        <time>2021-05-23T08:04:03.983Z</time>
      </trkpt>
      <trkpt lat="47.24865" lon="-2.3265">
        <ele>5</ele>
        <time>2021-05-23T08:04:04.983Z</time>
      </trkpt>
      <trkpt lat="47.24867" lon="-2.32653">
        <ele>6</ele>
        <time>2021-05-23T08:04:05.983Z</time>
      </trkpt>
      <trkpt lat="47.24869" lon="-2.32656">
        <ele>6</ele>
        <time>2021-05-23T08:04:06.982Z</time>
      </trkpt>
      <trkpt lat="47.2487" lon="-2.32659">
        <ele>6</ele>
        <time>2021-05-23T08:04:07.983Z</time>
      </trkpt>
      <trkpt lat="47.24872" lon="-2.32662">
        <ele>6</ele>
        <time>2021-05-23T08:04:08.982Z</time>
      </trkpt>
      <trkpt lat="47.24873" lon="-2.32666">
        <ele>6</ele>
        <time>2021-05-23T08:04:09.983Z</time>
      </trkpt>
      <trkpt lat="47.24875" lon="-2.32669">
        <ele>6</ele>
        <time>2021-05-23T08:04:10.982Z</time>
      </trkpt>
      <trkpt lat="47.24876" lon="-2.32671">
        <ele>6</ele>
        <time>2021-05-23T08:04:11.982Z</time>
      </trkpt>
      <trkpt lat="47.24878" lon="-2.32674">
        <ele>6</ele>
        <time>2021-05-23T08:04:12.982Z</time>
      </trkpt>
      <trkpt lat="47.24879" lon="-2.32677">
        <ele>5</ele>
        <time>2021-05-23T08:04:13.983Z</time>
      </trkpt>
      <trkpt lat="47.2488" lon="-2.32681">
        <ele>5</ele>
        <time>2021-05-23T08:04:14.983Z</time>
      </trkpt>
      <trkpt lat="47.24881" lon="-2.32684">
        <ele>5</ele>
        <time>2021-05-23T08:04:15.983Z</time>
      </trkpt>
      <trkpt lat="47.24881" lon="-2.32689">
        <ele>5</ele>
        <time>2021-05-23T08:04:16.982Z</time>
      </trkpt>
      <trkpt lat="47.24882" lon="-2.32692">
        <ele>5</ele>
        <time>2021-05-23T08:04:17.983Z</time>
      </trkpt>
      <trkpt lat="47.24883" lon="-2.32695">
        <ele>5</ele>
        <time>2021-05-23T08:04:18.983Z</time>
      </trkpt>
      <trkpt lat="47.24884" lon="-2.32698">
        <ele>5</ele>
        <time>2021-05-23T08:04:19.983Z</time>
      </trkpt>
      <trkpt lat="47.24885" lon="-2.32701">
        <ele>4</ele>
        <time>2021-05-23T08:04:20.983Z</time>
      </trkpt>
      <trkpt lat="47.24887" lon="-2.32704">
        <ele>3</ele>
        <time>2021-05-23T08:04:21.982Z</time>
      </trkpt>
      <trkpt lat="47.24888" lon="-2.32707">
        <ele>3</ele>
        <time>2021-05-23T08:04:22.982Z</time>
      </trkpt>
      <trkpt lat="47.2489" lon="-2.3271">
        <ele>3</ele>
        <time>2021-05-23T08:04:23.982Z</time>
      </trkpt>
      <trkpt lat="47.24891" lon="-2.32714">
        <ele>2</ele>
        <time>2021-05-23T08:04:24.982Z</time>
      </trkpt>
      <trkpt lat="47.24892" lon="-2.32717">
        <ele>2</ele>
        <time>2021-05-23T08:04:25.982Z</time>
      </trkpt>
      <trkpt lat="47.24893" lon="-2.32719">
        <ele>2</ele>
        <time>2021-05-23T08:04:26.982Z</time>
      </trkpt>
      <trkpt lat="47.24895" lon="-2.32722">
        <ele>2</ele>
        <time>2021-05-23T08:04:27.983Z</time>
      </trkpt>
      <trkpt lat="47.24896" lon="-2.32725">
        <ele>1</ele>
        <time>2021-05-23T08:04:28.982Z</time>
      </trkpt>
      <trkpt lat="47.24897" lon="-2.32729">
        <ele>1</ele>
        <time>2021-05-23T08:04:29.983Z</time>
      </trkpt>
      <trkpt lat="47.24898" lon="-2.32732">
        <ele>1</ele>
        <time>2021-05-23T08:04:30.982Z</time>
      </trkpt>
      <trkpt lat="47.24899" lon="-2.32736">
        <ele>1</ele>
        <time>2021-05-23T08:04:31.983Z</time>
      </trkpt>
      <trkpt lat="47.24901" lon="-2.32738">
        <ele>1</ele>
        <time>2021-05-23T08:04:32.982Z</time>
      </trkpt>
      <trkpt lat="47.24903" lon="-2.32741">
        <ele>10</ele>
        <time>2021-05-23T08:04:33.983Z</time>
      </trkpt>
      <trkpt lat="47.24905" lon="-2.32745">
        <ele>10</ele>
        <time>2021-05-23T08:04:34.983Z</time>
      </trkpt>
      <trkpt lat="47.24906" lon="-2.32748">
        <ele>10</ele>
        <time>2021-05-23T08:04:35.983Z</time>
      </trkpt>
      <trkpt lat="47.24908" lon="-2.32752">
        <ele>9.9</ele>
        <time>2021-05-23T08:04:36.983Z</time>
      </trkpt>
      <trkpt lat="47.24909" lon="-2.32755">
        <ele>-1</ele>
        <time>2021-05-23T08:04:37.982Z</time>
      </trkpt>
      <trkpt lat="47.2491" lon="-2.32758">
        <ele>9.7</ele>
        <time>2021-05-23T08:04:38.983Z</time>
      </trkpt>
      <trkpt lat="47.24911" lon="-2.32762">
        <ele>9.6</ele>
        <time>2021-05-23T08:04:39.983Z</time>
      </trkpt>
      <trkpt lat="47.24912" lon="-2.32765">
        <ele>-1</ele>
        <time>2021-05-23T08:04:40.983Z</time>
      </trkpt>
      <trkpt lat="47.24913" lon="-2.32768">
        <ele>-1</ele>
        <time>2021-05-23T08:04:41.982Z</time>
      </trkpt>
      <trkpt lat="47.24913" lon="-2.32772">
        <ele>-1</ele>
        <time>2021-05-23T08:04:42.983Z</time>
      </trkpt>
      <trkpt lat="47.24915" lon="-2.32776">
        <ele>-1</ele>
        <time>2021-05-23T08:04:43.983Z</time>
      </trkpt>
      <trkpt lat="47.24916" lon="-2.32779">
        <ele>-1</ele>
        <time>2021-05-23T08:04:44.983Z</time>
      </trkpt>
      <trkpt lat="47.24917" lon="-2.32782">
        <ele>-1</ele>
        <time>2021-05-23T08:04:45.983Z</time>
      </trkpt>
      <trkpt lat="47.24919" lon="-2.32785">
        <ele>-1</ele>
        <time>2021-05-23T08:04:46.983Z</time>
      </trkpt>
      <trkpt lat="47.2492" lon="-2.32788">
        <ele>-1</ele>
        <time>2021-05-23T08:04:47.983Z</time>
      </trkpt>
      <trkpt lat="47.24921" lon="-2.3279">
        <ele>-1</ele>
        <time>2021-05-23T08:04:48.983Z</time>
      </trkpt>
      <trkpt lat="47.24923" lon="-2.32794">
        <ele>-1</ele>
        <time>2021-05-23T08:04:49.982Z</time>
      </trkpt>
      <trkpt lat="47.24924" lon="-2.32797">
        <ele>8.4</ele>
        <time>2021-05-23T08:04:50.983Z</time>
      </trkpt>
      <trkpt lat="47.24925" lon="-2.32801">
        <ele>8.3</ele>
        <time>2021-05-23T08:04:51.982Z</time>
      </trkpt>
      <trkpt lat="47.24926" lon="-2.32804">
        <ele>8.2</ele>
        <time>2021-05-23T08:04:52.983Z</time>
      </trkpt>
      <trkpt lat="47.24927" lon="-2.32808">
        <ele>8.2</ele>
        <time>2021-05-23T08:04:53.983Z</time>
      </trkpt>
      <trkpt lat="47.24929" lon="-2.32811">
        <ele>-1</ele>
        <time>2021-05-23T08:04:54.983Z</time>
      </trkpt>
      <trkpt lat="47.2493" lon="-2.32814">
        <ele>8</ele>
        <time>2021-05-23T08:04:55.982Z</time>
      </trkpt>
      <trkpt lat="47.24931" lon="-2.32817">
        <ele>8</ele>
        <time>2021-05-23T08:04:56.983Z</time>
      </trkpt>
      <trkpt lat="47.24932" lon="-2.3282">
        <ele>7.9</ele>
        <time>2021-05-23T08:04:57.982Z</time>
      </trkpt>
      <trkpt lat="47.24934" lon="-2.32824">
        <ele>7.9</ele>
        <time>2021-05-23T08:04:58.983Z</time>
      </trkpt>
      <trkpt lat="47.24935" lon="-2.32827">
        <ele>7.8</ele>
        <time>2021-05-23T08:04:59.983Z</time>
      </trkpt>
      <trkpt lat="47.24936" lon="-2.32831">
        <ele>7.8</ele>
        <time>2021-05-23T08:05:00.983Z</time>
      </trkpt>
      <trkpt lat="47.24937" lon="-2.32834">
        <ele>7.7</ele>
        <time>2021-05-23T08:05:01.983Z</time>
      </trkpt>
      <trkpt lat="47.24938" lon="-2.32838">
        <ele>1</ele>
        <time>2021-05-23T08:05:02.983Z</time>
      </trkpt>
      <trkpt lat="47.24939" lon="-2.32841">
        <ele>1</ele>
        <time>2021-05-23T08:05:03.983Z</time>
      </trkpt>
      <trkpt lat="47.2494" lon="-2.32845">
        <ele>1</ele>
        <time>2021-05-23T08:05:04.982Z</time>
      </trkpt>
      <trkpt lat="47.24942" lon="-2.32848">
        <ele>1</ele>
        <time>2021-05-23T08:05:05.982Z</time>
      </trkpt>
      <trkpt lat="47.24943" lon="-2.32851">
        <ele>1</ele>
        <time>2021-05-23T08:05:06.983Z</time>
      </trkpt>
      <trkpt lat="47.24944" lon="-2.32854">
        <ele>2</ele>
        <time>2021-05-23T08:05:07.982Z</time>
      </trkpt>
      <trkpt lat="47.24946" lon="-2.32857">
        <ele>3</ele>
        <time>2021-05-23T08:05:08.983Z</time>
      </trkpt>
      <trkpt lat="47.24947" lon="-2.3286">
        <ele>3</ele>
        <time>2021-05-23T08:05:09.982Z</time>
      </trkpt>
      <trkpt lat="47.24948" lon="-2.32863">
        <ele>4</ele>
        <time>2021-05-23T08:05:10.983Z</time>
      </trkpt>
      <trkpt lat="47.24949" lon="-2.32866">
        <ele>4</ele>
        <time>2021-05-23T08:05:11.982Z</time>
      </trkpt>
      <trkpt lat="47.2495" lon="-2.3287">
        <ele>5</ele>
        <time>2021-05-23T08:05:12.983Z</time>
      </trkpt>
      <trkpt lat="47.24951" lon="-2.32873">
        <ele>5</ele>
        <time>2021-05-23T08:05:13.983Z</time>
      </trkpt>
      <trkpt lat="47.24952" lon="-2.32877">
        <ele>5</ele>
        <time>2021-05-23T08:05:14.983Z</time>
      </trkpt>
      <trkpt lat="47.24953" lon="-2.3288">
        <ele>5</ele>
        <time>2021-05-23T08:05:15.983Z</time>
      </trkpt>
      <trkpt lat="47.24954" lon="-2.32884">
        <ele>5</ele>
        <time>2021-05-23T08:05:16.983Z</time>
      </trkpt>
      <trkpt lat="47.24955" lon="-2.32887">
        <ele>5</ele>
        <time>2021-05-23T08:05:17.983Z</time>
      </trkpt>
      <trkpt lat="47.24956" lon="-2.3289">
        <ele>5</ele>
        <time>2021-05-23T08:05:18.982Z</time>
      </trkpt>
      <trkpt lat="47.24957" lon="-2.32893">
        <ele>4</ele>
        <time>2021-05-23T08:05:19.983Z</time>
      </trkpt>
      <trkpt lat="47.24958" lon="-2.32896">
        <ele>4</ele>
        <time>2021-05-23T08:05:20.983Z</time>
      </trkpt>
      <trkpt lat="47.24959" lon="-2.32899">
        <ele>4</ele>
        <time>2021-05-23T08:05:21.983Z</time>
      </trkpt>
      <trkpt lat="47.2496" lon="-2.32902">
        <ele>4</ele>
        <time>2021-05-23T08:05:22.982Z</time>
      </trkpt>
      <trkpt lat="47.24962" lon="-2.32905">
        <ele>4</ele>
        <time>2021-05-23T08:05:23.983Z</time>
      </trkpt>
      <trkpt lat="47.24963" lon="-2.32908">
        <ele>5</ele>
        <time>2021-05-23T08:05:24.983Z</time>
      </trkpt>
      <trkpt lat="47.24964" lon="-2.32911">
        <ele>5</ele>
        <time>2021-05-23T08:05:25.982Z</time>
      </trkpt>
      <trkpt lat="47.24966" lon="-2.32914">
        <ele>5</ele>
        <time>2021-05-23T08:05:26.982Z</time>
      </trkpt>
      <trkpt lat="47.24966" lon="-2.32917">
        <ele>5</ele>
        <time>2021-05-23T08:05:27.982Z</time>
      </trkpt>
      <trkpt lat="47.24967" lon="-2.32921">
        <ele>5</ele>
        <time>2021-05-23T08:05:28.983Z</time>
      </trkpt>
      <trkpt lat="47.24968" lon="-2.32925">
        <ele>5</ele>
        <time>2021-05-23T08:05:29.983Z</time>
      </trkpt>
      <trkpt lat="47.24969" lon="-2.32928">
        <ele>5</ele>
        <time>2021-05-23T08:05:30.983Z</time>
      </trkpt>
      <trkpt lat="47.24969" lon="-2.32932">
        <ele>5</ele>
        <time>2021-05-23T08:05:31.982Z</time>
      </trkpt>
      <trkpt lat="47.2497" lon="-2.32935">
        <ele>5</ele>
        <time>2021-05-23T08:05:32.983Z</time>
      </trkpt>
      <trkpt lat="47.24971" lon="-2.32938">
        <ele>5</ele>
        <time>2021-05-23T08:05:33.983Z</time>
      </trkpt>
      <trkpt lat="47.24972" lon="-2.32942">
        <ele>5</ele>
        <time>2021-05-23T08:05:34.983Z</time>
      </trkpt>
      <trkpt lat="47.24972" lon="-2.32946">
        <ele>5</ele>
        <time>2021-05-23T08:05:35.983Z</time>
      </trkpt>
      <trkpt lat="47.24973" lon="-2.32949">
        <ele>5</ele>
        <time>2021-05-23T08:05:36.982Z</time>
      </trkpt>
      <trkpt lat="47.24973" lon="-2.32953">
        <ele>4</ele>
        <time>2021-05-23T08:05:37.983Z</time>
      </trkpt>
      <trkpt lat="47.24974" lon="-2.32957">
        <ele>4</ele>
        <time>2021-05-23T08:05:38.983Z</time>
      </trkpt>
      <trkpt lat="47.24975" lon="-2.3296">
        <ele>3</ele>
        <time>2021-05-23T08:05:39.983Z</time>
      </trkpt>
      <trkpt lat="47.24976" lon="-2.32964">
        <ele>3</ele>
        <time>2021-05-23T08:05:40.982Z</time>
      </trkpt>
      <trkpt lat="47.24976" lon="-2.32967">
        <ele>3</ele>
        <time>2021-05-23T08:05:41.983Z</time>
      </trkpt>
      <trkpt lat="47.24977" lon="-2.32971">
        <ele>3</ele>
        <time>2021-05-23T08:05:42.983Z</time>
      </trkpt>
      <trkpt lat="47.24978" lon="-2.32974">
        <ele>3</ele>
        <time>2021-05-23T08:05:43.983Z</time>
      </trkpt>
      <trkpt lat="47.24979" lon="-2.32978">
        <ele>3</ele>
        <time>2021-05-23T08:05:44.983Z</time>
      </trkpt>
      <trkpt lat="47.24979" lon="-2.32982">
        <ele>3</ele>
        <time>2021-05-23T08:05:45.982Z</time>
      </trkpt>
      <trkpt lat="47.24981" lon="-2.32985">
        <ele>2</ele>
        <time>2021-05-23T08:05:46.983Z</time>
      </trkpt>
      <trkpt lat="47.24982" lon="-2.32988">
        <ele>2</ele>
        <time>2021-05-23T08:05:47.982Z</time>
      </trkpt>
      <trkpt lat="47.24983" lon="-2.32992">
        <ele>2</ele>
        <time>2021-05-23T08:05:48.983Z</time>
      </trkpt>
      <trkpt lat="47.24984" lon="-2.32995">
        <ele>1</ele>
        <time>2021-05-23T08:05:49.982Z</time>
      </trkpt>
      <trkpt lat="47.24985" lon="-2.32998">
        <ele>1</ele>
        <time>2021-05-23T08:05:50.982Z</time>
      </trkpt>
      <trkpt lat="47.24987" lon="-2.33001">
        <ele>1</ele>
        <time>2021-05-23T08:05:51.983Z</time>
      </trkpt>
      <trkpt lat="47.24988" lon="-2.33005">
        <ele>1</ele>
        <time>2021-05-23T08:05:52.983Z</time>
      </trkpt>
      <trkpt lat="47.24989" lon="-2.33008">
        <ele>1</ele>
        <time>2021-05-23T08:05:53.982Z</time>
      </trkpt>
      <trkpt lat="47.2499" lon="-2.33011">
        <ele>1</ele>
        <time>2021-05-23T08:05:54.982Z</time>
      </trkpt>
      <trkpt lat="47.24992" lon="-2.33014">
        <ele>1</ele>
        <time>2021-05-23T08:05:55.982Z</time>
      </trkpt>
      <trkpt lat="47.24993" lon="-2.33017">
        <ele>1</ele>
        <time>2021-05-23T08:05:56.982Z</time>
      </trkpt>
      <trkpt lat="47.24994" lon="-2.3302">
        <ele>1</ele>
        <time>2021-05-23T08:05:57.983Z</time>
      </trkpt>
      <trkpt lat="47.24995" lon="-2.33023">
        <ele>1</ele>
        <time>2021-05-23T08:05:58.982Z</time>
      </trkpt>
      <trkpt lat="47.24997" lon="-2.33026">
        <ele>1</ele>
        <time>2021-05-23T08:05:59.982Z</time>
      </trkpt>
      <trkpt lat="47.24998" lon="-2.33029">
        <ele>1</ele>
        <time>2021-05-23T08:06:00.982Z</time>
      </trkpt>
      <trkpt lat="47.24999" lon="-2.33032">
        <ele>1</ele>
        <time>2021-05-23T08:06:01.982Z</time>
      </trkpt>
      <trkpt lat="47.25" lon="-2.33036">
        <ele>1</ele>
        <time>2021-05-23T08:06:02.982Z</time>
      </trkpt>
      <trkpt lat="47.25001" lon="-2.33039">
        <ele>1</ele>
        <time>2021-05-23T08:06:03.983Z</time>
      </trkpt>
      <trkpt lat="47.25003" lon="-2.33041">
        <ele>1</ele>
        <time>2021-05-23T08:06:04.982Z</time>
      </trkpt>
      <trkpt lat="47.25004" lon="-2.33044">
        <ele>2</ele>
        <time>2021-05-23T08:06:05.983Z</time>
      </trkpt>
      <trkpt lat="47.25006" lon="-2.33047">
        <ele>3</ele>
        <time>2021-05-23T08:06:06.983Z</time>
      </trkpt>
      <trkpt lat="47.25008" lon="-2.33051">
        <ele>4</ele>
        <time>2021-05-23T08:06:07.982Z</time>
      </trkpt>
      <trkpt lat="47.25009" lon="-2.33054">
        <ele>5</ele>
        <time>2021-05-23T08:06:08.983Z</time>
      </trkpt>
      <trkpt lat="47.25011" lon="-2.33057">
        <ele>5</ele>
        <time>2021-05-23T08:06:09.983Z</time>
      </trkpt>
      <trkpt lat="47.25012" lon="-2.33061">
        <ele>5</ele>
        <time>2021-05-23T08:06:10.983Z</time>
      </trkpt>
      <trkpt lat="47.25013" lon="-2.33064">
        <ele>5</ele>
        <time>2021-05-23T08:06:11.983Z</time>
      </trkpt>
      <trkpt lat="47.25015" lon="-2.33067">
        <ele>5</ele>
        <time>2021-05-23T08:06:12.982Z</time>
      </trkpt>
      <trkpt lat="47.25016" lon="-2.3307">
        <ele>6</ele>
        <time>2021-05-23T08:06:13.983Z</time>
      </trkpt>
      <trkpt lat="47.25017" lon="-2.33074">
        <ele>5</ele>
        <time>2021-05-23T08:06:14.983Z</time>
      </trkpt>
      <trkpt lat="47.25019" lon="-2.33077">
        <ele>5</ele>
        <time>2021-05-23T08:06:15.983Z</time>
      </trkpt>
      <trkpt lat="47.2502" lon="-2.3308">
        <ele>4</ele>
        <time>2021-05-23T08:06:16.983Z</time>
      </trkpt>
      <trkpt lat="47.25021" lon="-2.33083">
        <ele>3</ele>
        <time>2021-05-23T08:06:17.983Z</time>
      </trkpt>
      <trkpt lat="47.25022" lon="-2.33086">
        <ele>3</ele>
        <time>2021-05-23T08:06:18.983Z</time>
      </trkpt>
      <trkpt lat="47.25024" lon="-2.33089">
        <ele>3</ele>
        <time>2021-05-23T08:06:19.983Z</time>
      </trkpt>
      <trkpt lat="47.25025" lon="-2.33092">
        <ele>2</ele>
        <time>2021-05-23T08:06:20.982Z</time>
      </trkpt>
      <trkpt lat="47.25027" lon="-2.33095">
        <ele>2</ele>
        <time>2021-05-23T08:06:21.983Z</time>
      </trkpt>
      <trkpt lat="47.25028" lon="-2.33098">
        <ele>2</ele>
        <time>2021-05-23T08:06:22.982Z</time>
      </trkpt>
      <trkpt lat="47.25029" lon="-2.33102">
        <ele>1</ele>
        <time>2021-05-23T08:06:23.983Z</time>
      </trkpt>
      <trkpt lat="47.2503" lon="-2.33105">
        <ele>1</ele>
        <time>2021-05-23T08:06:24.983Z</time>
      </trkpt>
      <trkpt lat="47.25031" lon="-2.33108">
        <ele>1</ele>
        <time>2021-05-23T08:06:25.983Z</time>
      </trkpt>
      <trkpt lat="47.25033" lon="-2.33111">
        <ele>7.2</ele>
        <time>2021-05-23T08:06:26.982Z</time>
      </trkpt>
      <trkpt lat="47.25034" lon="-2.33114">
        <ele>7.2</ele>
        <time>2021-05-23T08:06:27.982Z</time>
      </trkpt>
      <trkpt lat="47.25036" lon="-2.33117">
        <ele>7.3</ele>
        <time>2021-05-23T08:06:28.983Z</time>
      </trkpt>
      <trkpt lat="47.25037" lon="-2.3312">
        <ele>7.3</ele>
        <time>2021-05-23T08:06:29.982Z</time>
      </trkpt>
      <trkpt lat="47.25038" lon="-2.33123">
        <ele>7.3</ele>
        <time>2021-05-23T08:06:30.983Z</time>
      </trkpt>
      <trkpt lat="47.2504" lon="-2.33126">
        <ele>-2</ele>
        <time>2021-05-23T08:06:31.983Z</time>
      </trkpt>
      <trkpt lat="47.25041" lon="-2.33129">
        <ele>-1</ele>
        <time>2021-05-23T08:06:32.983Z</time>
      </trkpt>
      <trkpt lat="47.25043" lon="-2.33132">
        <ele>-1</ele>
        <time>2021-05-23T08:06:33.983Z</time>
      </trkpt>
      <trkpt lat="47.25045" lon="-2.33134">
        <ele>-1</ele>
        <time>2021-05-23T08:06:34.983Z</time>
      </trkpt>
      <trkpt lat="47.25047" lon="-2.33138">
        <ele>7.7</ele>
        <time>2021-05-23T08:06:35.983Z</time>
      </trkpt>
      <trkpt lat="47.25048" lon="-2.33141">
        <ele>7.7</ele>
        <time>2021-05-23T08:06:36.983Z</time>
      </trkpt>
      <trkpt lat="47.2505" lon="-2.33144">
        <ele>7.8</ele>
        <time>2021-05-23T08:06:37.983Z</time>
      </trkpt>
      <trkpt lat="47.25051" lon="-2.33146">
        <ele>7.9</ele>
        <time>2021-05-23T08:06:38.983Z</time>
      </trkpt>
      <trkpt lat="47.25053" lon="-2.33149">
        <ele>8</ele>
        <time>2021-05-23T08:06:39.982Z</time>
      </trkpt>
      <trkpt lat="47.25055" lon="-2.33151">
        <ele>8.1</ele>
        <time>2021-05-23T08:06:40.983Z</time>
      </trkpt>
      <trkpt lat="47.25057" lon="-2.33153">
        <ele>1</ele>
        <time>2021-05-23T08:06:41.982Z</time>
      </trkpt>
      <trkpt lat="47.25058" lon="-2.33156">
        <ele>1</ele>
        <time>2021-05-23T08:06:42.982Z</time>
      </trkpt>
      <trkpt lat="47.25059" lon="-2.33159">
        <ele>1</ele>
        <time>2021-05-23T08:06:43.982Z</time>
      </trkpt>
      <trkpt lat="47.25059" lon="-2.33162">
        <ele>1</ele>
        <time>2021-05-23T08:06:44.983Z</time>
      </trkpt>
      <trkpt lat="47.2506" lon="-2.33165">
        <ele>2</ele>
        <time>2021-05-23T08:06:45.982Z</time>
      </trkpt>
      <trkpt lat="47.25061" lon="-2.33169">
        <ele>2</ele>
        <time>2021-05-23T08:06:46.983Z</time>
      </trkpt>
      <trkpt lat="47.25062" lon="-2.33172">
        <ele>3</ele>
        <time>2021-05-23T08:06:47.982Z</time>
      </trkpt>
      <trkpt lat="47.25063" lon="-2.33175">
        <ele>3</ele>
        <time>2021-05-23T08:06:48.982Z</time>
      </trkpt>
      <trkpt lat="47.25064" lon="-2.33178">
        <ele>3</ele>
        <time>2021-05-23T08:06:49.982Z</time>
      </trkpt>
      <trkpt lat="47.25066" lon="-2.33181">
        <ele>3</ele>
        <time>2021-05-23T08:06:50.982Z</time>
      </trkpt>
      <trkpt lat="47.25067" lon="-2.33184">
        <ele>4</ele>
        <time>2021-05-23T08:06:51.982Z</time>
      </trkpt>
      <trkpt lat="47.25068" lon="-2.33187">
        <ele>4</ele>
        <time>2021-05-23T08:06:52.982Z</time>
      </trkpt>
      <trkpt lat="47.2507" lon="-2.33191">
        <ele>4</ele>
        <time>2021-05-23T08:06:53.983Z</time>
      </trkpt>
      <trkpt lat="47.25071" lon="-2.33194">
        <ele>5</ele>
        <time>2021-05-23T08:06:54.982Z</time>
      </trkpt>
      <trkpt lat="47.25073" lon="-2.33196">
        <ele>5</ele>
        <time>2021-05-23T08:06:55.983Z</time>
      </trkpt>
      <trkpt lat="47.25074" lon="-2.33199">
        <ele>4</ele>
        <time>2021-05-23T08:06:56.983Z</time>
      </trkpt>
      <trkpt lat="47.25076" lon="-2.33202">
        <ele>4</ele>
        <time>2021-05-23T08:06:57.983Z</time>
      </trkpt>
      <trkpt lat="47.25077" lon="-2.33205">
        <ele>4</ele>
        <time>2021-05-23T08:06:58.983Z</time>
      </trkpt>
      <trkpt lat="47.25079" lon="-2.33208">
        <ele>4</ele>
        <time>2021-05-23T08:06:59.982Z</time>
      </trkpt>
      <trkpt lat="47.2508" lon="-2.33211">
        <ele>4</ele>
        <time>2021-05-23T08:07:00.983Z</time>
      </trkpt>
      <trkpt lat="47.25082" lon="-2.33214">
        <ele>4</ele>
        <time>2021-05-23T08:07:01.983Z</time>
      </trkpt>
      <trkpt lat="47.25084" lon="-2.33216">
        <ele>4</ele>
        <time>2021-05-23T08:07:02.982Z</time>
      </trkpt>
      <trkpt lat="47.25085" lon="-2.33219">
        <ele>4</ele>
        <time>2021-05-23T08:07:03.983Z</time>
      </trkpt>
      <trkpt lat="47.25087" lon="-2.33221">
        <ele>4</ele>
        <time>2021-05-23T08:07:04.983Z</time>
      </trkpt>
      <trkpt lat="47.25088" lon="-2.33224">
        <ele>4</ele>
        <time>2021-05-23T08:07:05.983Z</time>
      </trkpt>
      <trkpt lat="47.2509" lon="-2.33227">
        <ele>4</ele>
        <time>2021-05-23T08:07:06.982Z</time>
      </trkpt>
      <trkpt lat="47.25091" lon="-2.33229">
        <ele>4</ele>
        <time>2021-05-23T08:07:07.983Z</time>
      </trkpt>
      <trkpt lat="47.25092" lon="-2.33231">
        <ele>4</ele>
        <time>2021-05-23T08:07:08.983Z</time>
      </trkpt>
      <trkpt lat="47.25093" lon="-2.33233">
        <ele>4</ele>
        <time>2021-05-23T08:07:09.983Z</time>
      </trkpt>
      <trkpt lat="47.25094" lon="-2.33235">
        <ele>4</ele>
        <time>2021-05-23T08:07:10.983Z</time>
      </trkpt>
      <trkpt lat="47.25095" lon="-2.33238">
        <ele>4</ele>
        <time>2021-05-23T08:07:11.983Z</time>
      </trkpt>
      <trkpt lat="47.25096" lon="-2.33241">
        <ele>4</ele>
        <time>2021-05-23T08:07:12.983Z</time>
      </trkpt>
      <trkpt lat="47.25098" lon="-2.33244">
        <ele>4</ele>
        <time>2021-05-23T08:07:13.982Z</time>
      </trkpt>
      <trkpt lat="47.251" lon="-2.33247">
        <ele>4</ele>
        <time>2021-05-23T08:07:14.983Z</time>
      </trkpt>
      <trkpt lat="47.25102" lon="-2.3325">
        <ele>4</ele>
        <time>2021-05-23T08:07:15.983Z</time>
      </trkpt>
      <trkpt lat="47.25103" lon="-2.33252">
        <ele>5</ele>
        <time>2021-05-23T08:07:16.982Z</time>
      </trkpt>
      <trkpt lat="47.25105" lon="-2.33255">
        <ele>5</ele>
        <time>2021-05-23T08:07:17.983Z</time>
      </trkpt>
      <trkpt lat="47.25106" lon="-2.33258">
        <ele>5</ele>
        <time>2021-05-23T08:07:18.983Z</time>
      </trkpt>
      <trkpt lat="47.25108" lon="-2.33261">
        <ele>5</ele>
        <time>2021-05-23T08:07:19.983Z</time>
      </trkpt>
      <trkpt lat="47.2511" lon="-2.33263">
        <ele>5</ele>
        <time>2021-05-23T08:07:20.983Z</time>
      </trkpt>
      <trkpt lat="47.25112" lon="-2.33266">
        <ele>5</ele>
        <time>2021-05-23T08:07:21.983Z</time>
      </trkpt>
      <trkpt lat="47.25113" lon="-2.33268">
        <ele>4</ele>
        <time>2021-05-23T08:07:22.983Z</time>
      </trkpt>
      <trkpt lat="47.25115" lon="-2.33271">
        <ele>4</ele>
        <time>2021-05-23T08:07:23.983Z</time>
      </trkpt>
      <trkpt lat="47.25116" lon="-2.33274">
        <ele>4</ele>
        <time>2021-05-23T08:07:24.982Z</time>
      </trkpt>
      <trkpt lat="47.25118" lon="-2.33277">
        <ele>3</ele>
        <time>2021-05-23T08:07:25.983Z</time>
      </trkpt>
      <trkpt lat="47.25119" lon="-2.33279">
        <ele>3</ele>
        <time>2021-05-23T08:07:26.983Z</time>
      </trkpt>
      <trkpt lat="47.25121" lon="-2.33282">
        <ele>3</ele>
        <time>2021-05-23T08:07:27.983Z</time>
      </trkpt>
      <trkpt lat="47.25122" lon="-2.33285">
        <ele>2</ele>
        <time>2021-05-23T08:07:28.983Z</time>
      </trkpt>
      <trkpt lat="47.25123" lon="-2.33288">
        <ele>2</ele>
        <time>2021-05-23T08:07:29.983Z</time>
      </trkpt>
      <trkpt lat="47.25125" lon="-2.33291">
        <ele>2</ele>
        <time>2021-05-23T08:07:30.983Z</time>
      </trkpt>
      <trkpt lat="47.25126" lon="-2.33294">
        <ele>2</ele>
        <time>2021-05-23T08:07:31.982Z</time>
      </trkpt>
      <trkpt lat="47.25127" lon="-2.33297">
        <ele>2</ele>
        <time>2021-05-23T08:07:32.983Z</time>
      </trkpt>
      <trkpt lat="47.25128" lon="-2.333">
        <ele>1</ele>
        <time>2021-05-23T08:07:33.983Z</time>
      </trkpt>
      <trkpt lat="47.2513" lon="-2.33303">
        <ele>1</ele>
        <time>2021-05-23T08:07:34.982Z</time>
      </trkpt>
      <trkpt lat="47.25131" lon="-2.33306">
        <ele>1</ele>
        <time>2021-05-23T08:07:35.983Z</time>
      </trkpt>
      <trkpt lat="47.25133" lon="-2.33309">
        <ele>1</ele>
        <time>2021-05-23T08:07:36.983Z</time>
      </trkpt>
      <trkpt lat="47.25134" lon="-2.33312">
        <ele>7.7</ele>
        <time>2021-05-23T08:07:37.983Z</time>
      </trkpt>
      <trkpt lat="47.25136" lon="-2.33315">
        <ele>7.8</ele>
        <time>2021-05-23T08:07:38.982Z</time>
      </trkpt>
      <trkpt lat="47.25137" lon="-2.33318">
        <ele>7.8</ele>
        <time>2021-05-23T08:07:39.983Z</time>
      </trkpt>
      <trkpt lat="47.25139" lon="-2.33321">
        <ele>1</ele>
        <time>2021-05-23T08:07:40.983Z</time>
      </trkpt>
      <trkpt lat="47.25141" lon="-2.33323">
        <ele>1</ele>
        <time>2021-05-23T08:07:41.982Z</time>
      </trkpt>
      <trkpt lat="47.25142" lon="-2.33326">
        <ele>1</ele>
        <time>2021-05-23T08:07:42.983Z</time>
      </trkpt>
      <trkpt lat="47.25144" lon="-2.3333">
        <ele>8</ele>
        <time>2021-05-23T08:07:43.983Z</time>
      </trkpt>
      <trkpt lat="47.25145" lon="-2.33332">
        <ele>8</ele>
        <time>2021-05-23T08:07:44.982Z</time>
      </trkpt>
      <trkpt lat="47.25147" lon="-2.33335">
        <ele>7.9</ele>
        <time>2021-05-23T08:07:45.982Z</time>
      </trkpt>
      <trkpt lat="47.25149" lon="-2.33338">
        <ele>7.7</ele>
        <time>2021-05-23T08:07:46.983Z</time>
      </trkpt>
      <trkpt lat="47.2515" lon="-2.33341">
        <ele>7.5</ele>
        <time>2021-05-23T08:07:47.982Z</time>
      </trkpt>
      <trkpt lat="47.25152" lon="-2.33344">
        <ele>7.2</ele>
        <time>2021-05-23T08:07:48.983Z</time>
      </trkpt>
      <trkpt lat="47.25153" lon="-2.33347">
        <ele>1</ele>
        <time>2021-05-23T08:07:49.983Z</time>
      </trkpt>
      <trkpt lat="47.25155" lon="-2.33349">
        <ele>1</ele>
        <time>2021-05-23T08:07:50.983Z</time>
      </trkpt>
      <trkpt lat="47.25156" lon="-2.33352">
        <ele>1</ele>
        <time>2021-05-23T08:07:51.982Z</time>
      </trkpt>
      <trkpt lat="47.25158" lon="-2.33355">
        <ele>1</ele>
        <time>2021-05-23T08:07:52.983Z</time>
      </trkpt>
      <trkpt lat="47.25159" lon="-2.33358">
        <ele>1</ele>
        <time>2021-05-23T08:07:53.983Z</time>
      </trkpt>
      <trkpt lat="47.25161" lon="-2.33361">
        <ele>1</ele>
        <time>2021-05-23T08:07:54.982Z</time>
      </trkpt>
      <trkpt lat="47.25162" lon="-2.33364">
        <ele>1</ele>
        <time>2021-05-23T08:07:55.982Z</time>
      </trkpt>
      <trkpt lat="47.25164" lon="-2.33367">
        <ele>2</ele>
        <time>2021-05-23T08:07:56.983Z</time>
      </trkpt>
      <trkpt lat="47.25165" lon="-2.33369">
        <ele>2</ele>
        <time>2021-05-23T08:07:57.983Z</time>
      </trkpt>
      <trkpt lat="47.25166" lon="-2.33372">
        <ele>2</ele>
        <time>2021-05-23T08:07:58.982Z</time>
      </trkpt>
      <trkpt lat="47.25168" lon="-2.33375">
        <ele>1</ele>
        <time>2021-05-23T08:07:59.982Z</time>
      </trkpt>
      <trkpt lat="47.2517" lon="-2.33378">
        <ele>1</ele>
        <time>2021-05-23T08:08:00.982Z</time>
      </trkpt>
      <trkpt lat="47.25171" lon="-2.33379">
        <ele>1</ele>
        <time>2021-05-23T08:08:01.983Z</time>
      </trkpt>
      <trkpt lat="47.25173" lon="-2.3338">
        <ele>1</ele>
        <time>2021-05-23T08:08:02.983Z</time>
      </trkpt>
      <trkpt lat="47.25175" lon="-2.3338">
        <ele>2</ele>
        <time>2021-05-23T08:08:03.982Z</time>
      </trkpt>
      <trkpt lat="47.25177" lon="-2.33381">
        <ele>2</ele>
        <time>2021-05-23T08:08:04.983Z</time>
      </trkpt>
      <trkpt lat="47.25179" lon="-2.33383">
        <ele>2</ele>
        <time>2021-05-23T08:08:05.983Z</time>
      </trkpt>
      <trkpt lat="47.25179" lon="-2.33385">
        <ele>2</ele>
        <time>2021-05-23T08:08:06.983Z</time>
      </trkpt>
      <trkpt lat="47.25179" lon="-2.33387">
        <ele>2</ele>
        <time>2021-05-23T08:08:07.982Z</time>
      </trkpt>
      <trkpt lat="47.25179" lon="-2.3339">
        <ele>2</ele>
        <time>2021-05-23T08:08:08.983Z</time>
      </trkpt>
      <trkpt lat="47.25179" lon="-2.33393">
        <ele>2</ele>
        <time>2021-05-23T08:08:09.982Z</time>
      </trkpt>
      <trkpt lat="47.25179" lon="-2.33396">
        <ele>2</ele>
        <time>2021-05-23T08:08:10.983Z</time>
      </trkpt>
      <trkpt lat="47.2518" lon="-2.33399">
        <ele>1</ele>
        <time>2021-05-23T08:08:11.983Z</time>
      </trkpt>
      <trkpt lat="47.25181" lon="-2.33402">
        <ele>1</ele>
        <time>2021-05-23T08:08:12.982Z</time>
      </trkpt>
      <trkpt lat="47.25183" lon="-2.33405">
        <ele>3.8</ele>
        <time>2021-05-23T08:08:13.983Z</time>
      </trkpt>
      <trkpt lat="47.25184" lon="-2.33409">
        <ele>3.7</ele>
        <time>2021-05-23T08:08:14.982Z</time>
      </trkpt>
      <trkpt lat="47.25185" lon="-2.33412">
        <ele>3.6</ele>
        <time>2021-05-23T08:08:15.983Z</time>
      </trkpt>
      <trkpt lat="47.25187" lon="-2.33414">
        <ele>3.6</ele>
        <time>2021-05-23T08:08:16.982Z</time>
      </trkpt>
      <trkpt lat="47.25188" lon="-2.33418">
        <ele>3.6</ele>
        <time>2021-05-23T08:08:17.983Z</time>
      </trkpt>
      <trkpt lat="47.2519" lon="-2.33421">
        <ele>3.8</ele>
        <time>2021-05-23T08:08:18.983Z</time>
      </trkpt>
      <trkpt lat="47.25191" lon="-2.33424">
        <ele>4</ele>
        <time>2021-05-23T08:08:19.983Z</time>
      </trkpt>
      <trkpt lat="47.25193" lon="-2.33427">
        <ele>4.3</ele>
        <time>2021-05-23T08:08:20.983Z</time>
      </trkpt>
      <trkpt lat="47.25194" lon="-2.3343">
        <ele>4.5</ele>
        <time>2021-05-23T08:08:21.982Z</time>
      </trkpt>
      <trkpt lat="47.25196" lon="-2.33433">
        <ele>4.7</ele>
        <time>2021-05-23T08:08:22.982Z</time>
      </trkpt>
      <trkpt lat="47.25197" lon="-2.33436">
        <ele>-1</ele>
        <time>2021-05-23T08:08:23.982Z</time>
      </trkpt>
      <trkpt lat="47.25199" lon="-2.33439">
        <ele>-1</ele>
        <time>2021-05-23T08:08:24.983Z</time>
      </trkpt>
      <trkpt lat="47.252" lon="-2.33442">
        <ele>-1</ele>
        <time>2021-05-23T08:08:25.982Z</time>
      </trkpt>
      <trkpt lat="47.25201" lon="-2.33445">
        <ele>-2</ele>
        <time>2021-05-23T08:08:26.983Z</time>
      </trkpt>
      <trkpt lat="47.25203" lon="-2.33448">
        <ele>-2</ele>
        <time>2021-05-23T08:08:27.983Z</time>
      </trkpt>
      <trkpt lat="47.25204" lon="-2.33451">
        <ele>-3</ele>
        <time>2021-05-23T08:08:28.983Z</time>
      </trkpt>
      <trkpt lat="47.25205" lon="-2.33454">
        <ele>-3</ele>
        <time>2021-05-23T08:08:29.983Z</time>
      </trkpt>
      <trkpt lat="47.25207" lon="-2.33457">
        <ele>-3</ele>
        <time>2021-05-23T08:08:30.982Z</time>
      </trkpt>
      <trkpt lat="47.25208" lon="-2.3346">
        <ele>-2</ele>
        <time>2021-05-23T08:08:31.983Z</time>
      </trkpt>
      <trkpt lat="47.2521" lon="-2.33463">
        <ele>-1</ele>
        <time>2021-05-23T08:08:32.982Z</time>
      </trkpt>
      <trkpt lat="47.25211" lon="-2.33466">
        <ele>-1</ele>
        <time>2021-05-23T08:08:33.983Z</time>
      </trkpt>
      <trkpt lat="47.25213" lon="-2.33469">
        <ele>6.4</ele>
        <time>2021-05-23T08:08:34.982Z</time>
      </trkpt>
      <trkpt lat="47.25214" lon="-2.33472">
        <ele>6.5</ele>
        <time>2021-05-23T08:08:35.983Z</time>
      </trkpt>
      <trkpt lat="47.25216" lon="-2.33474">
        <ele>6.6</ele>
        <time>2021-05-23T08:08:36.983Z</time>
      </trkpt>
      <trkpt lat="47.25218" lon="-2.33477">
        <ele>-1</ele>
        <time>2021-05-23T08:08:37.982Z</time>
      </trkpt>
      <trkpt lat="47.25219" lon="-2.3348">
        <ele>6.7</ele>
        <time>2021-05-23T08:08:38.983Z</time>
      </trkpt>
      <trkpt lat="47.25221" lon="-2.33483">
        <ele>6.8</ele>
        <time>2021-05-23T08:08:39.983Z</time>
      </trkpt>
      <trkpt lat="47.25223" lon="-2.33486">
        <ele>6.8</ele>
        <time>2021-05-23T08:08:40.983Z</time>
      </trkpt>
      <trkpt lat="47.25225" lon="-2.33489">
        <ele>1</ele>
        <time>2021-05-23T08:08:41.983Z</time>
      </trkpt>
      <trkpt lat="47.25226" lon="-2.33492">
        <ele>1</ele>
        <time>2021-05-23T08:08:42.982Z</time>
      </trkpt>
      <trkpt lat="47.25227" lon="-2.33495">
        <ele>1</ele>
        <time>2021-05-23T08:08:43.983Z</time>
      </trkpt>
      <trkpt lat="47.25229" lon="-2.33498">
        <ele>1</ele>
        <time>2021-05-23T08:08:44.983Z</time>
      </trkpt>
      <trkpt lat="47.2523" lon="-2.33501">
        <ele>2</ele>
        <time>2021-05-23T08:08:45.983Z</time>
      </trkpt>
      <trkpt lat="47.25231" lon="-2.33504">
        <ele>2</ele>
        <time>2021-05-23T08:08:46.983Z</time>
      </trkpt>
      <trkpt lat="47.25232" lon="-2.33508">
        <ele>3</ele>
        <time>2021-05-23T08:08:47.982Z</time>
      </trkpt>
      <trkpt lat="47.25234" lon="-2.33511">
        <ele>3</ele>
        <time>2021-05-23T08:08:48.982Z</time>
      </trkpt>
      <trkpt lat="47.25235" lon="-2.33514">
        <ele>4</ele>
        <time>2021-05-23T08:08:49.983Z</time>
      </trkpt>
      <trkpt lat="47.25237" lon="-2.33517">
        <ele>4</ele>
        <time>2021-05-23T08:08:50.982Z</time>
      </trkpt>
      <trkpt lat="47.25238" lon="-2.3352">
        <ele>4</ele>
        <time>2021-05-23T08:08:51.983Z</time>
      </trkpt>
      <trkpt lat="47.25239" lon="-2.33523">
        <ele>4</ele>
        <time>2021-05-23T08:08:52.982Z</time>
      </trkpt>
      <trkpt lat="47.25241" lon="-2.33526">
        <ele>4</ele>
        <time>2021-05-23T08:08:53.983Z</time>
      </trkpt>
      <trkpt lat="47.25242" lon="-2.33529">
        <ele>4</ele>
        <time>2021-05-23T08:08:54.983Z</time>
      </trkpt>
      <trkpt lat="47.25243" lon="-2.33532">
        <ele>3</ele>
        <time>2021-05-23T08:08:55.983Z</time>
      </trkpt>
      <trkpt lat="47.25245" lon="-2.33535">
        <ele>3</ele>
        <time>2021-05-23T08:08:56.983Z</time>
      </trkpt>
      <trkpt lat="47.25246" lon="-2.33537">
        <ele>3</ele>
        <time>2021-05-23T08:08:57.982Z</time>
      </trkpt>
      <trkpt lat="47.25248" lon="-2.3354">
        <ele>3</ele>
        <time>2021-05-23T08:08:58.983Z</time>
      </trkpt>
      <trkpt lat="47.2525" lon="-2.33543">
        <ele>3</ele>
        <time>2021-05-23T08:08:59.983Z</time>
      </trkpt>
      <trkpt lat="47.25251" lon="-2.33546">
        <ele>3</ele>
        <time>2021-05-23T08:09:00.982Z</time>
      </trkpt>
      <trkpt lat="47.25253" lon="-2.33549">
        <ele>3</ele>
        <time>2021-05-23T08:09:01.983Z</time>
      </trkpt>
      <trkpt lat="47.25254" lon="-2.33552">
        <ele>3</ele>
        <time>2021-05-23T08:09:02.983Z</time>
      </trkpt>
      <trkpt lat="47.25256" lon="-2.33555">
        <ele>3</ele>
        <time>2021-05-23T08:09:03.983Z</time>
      </trkpt>
      <trkpt lat="47.25257" lon="-2.33558">
        <ele>3</ele>
        <time>2021-05-23T08:09:04.983Z</time>
      </trkpt>
      <trkpt lat="47.25259" lon="-2.33561">
        <ele>3</ele>
        <time>2021-05-23T08:09:05.982Z</time>
      </trkpt>
      <trkpt lat="47.2526" lon="-2.33565">
        <ele>2</ele>
        <time>2021-05-23T08:09:06.982Z</time>
      </trkpt>
      <trkpt lat="47.25262" lon="-2.33567">
        <ele>2</ele>
        <time>2021-05-23T08:09:07.982Z</time>
      </trkpt>
      <trkpt lat="47.25263" lon="-2.33571">
        <ele>3</ele>
        <time>2021-05-23T08:09:08.983Z</time>
      </trkpt>
      <trkpt lat="47.25265" lon="-2.33573">
        <ele>2</ele>
        <time>2021-05-23T08:09:09.982Z</time>
      </trkpt>
      <trkpt lat="47.25267" lon="-2.33576">
        <ele>2</ele>
        <time>2021-05-23T08:09:10.982Z</time>
      </trkpt>
      <trkpt lat="47.25269" lon="-2.33578">
        <ele>2</ele>
        <time>2021-05-23T08:09:11.983Z</time>
      </trkpt>
      <trkpt lat="47.25271" lon="-2.3358">
        <ele>1</ele>
        <time>2021-05-23T08:09:12.983Z</time>
      </trkpt>
      <trkpt lat="47.25273" lon="-2.33581">
        <ele>1</ele>
        <time>2021-05-23T08:09:13.982Z</time>
      </trkpt>
      <trkpt lat="47.25275" lon="-2.3358">
        <ele>1</ele>
        <time>2021-05-23T08:09:14.983Z</time>
      </trkpt>
      <trkpt lat="47.25277" lon="-2.33579">
        <ele>1</ele>
        <time>2021-05-23T08:09:15.983Z</time>
      </trkpt>
      <trkpt lat="47.25279" lon="-2.33578">
        <ele>1</ele>
        <time>2021-05-23T08:09:16.983Z</time>
      </trkpt>
      <trkpt lat="47.25281" lon="-2.33578">
        <ele>1</ele>
        <time>2021-05-23T08:09:17.983Z</time>
      </trkpt>
      <trkpt lat="47.25282" lon="-2.33579">
        <ele>1</ele>
        <time>2021-05-23T08:09:18.983Z</time>
      </trkpt>
      <trkpt lat="47.25282" lon="-2.33581">
        <ele>1</ele>
        <time>2021-05-23T08:09:19.983Z</time>
      </trkpt>
      <trkpt lat="47.25282" lon="-2.33584">
        <ele>4.9</ele>
        <time>2021-05-23T08:09:20.982Z</time>
      </trkpt>
      <trkpt lat="47.25282" lon="-2.33588">
        <ele>5</ele>
        <time>2021-05-23T08:09:21.982Z</time>
      </trkpt>
      <trkpt lat="47.25283" lon="-2.33591">
        <ele>5</ele>
        <time>2021-05-23T08:09:22.982Z</time>
      </trkpt>
      <trkpt lat="47.25284" lon="-2.33594">
        <ele>5.1</ele>
        <time>2021-05-23T08:09:23.982Z</time>
      </trkpt>
      <trkpt lat="47.25285" lon="-2.33596">
        <ele>5.3</ele>
        <time>2021-05-23T08:09:24.982Z</time>
      </trkpt>
      <trkpt lat="47.25287" lon="-2.33599">
        <ele>5.4</ele>
        <time>2021-05-23T08:09:25.983Z</time>
      </trkpt>
      <trkpt lat="47.25289" lon="-2.33602">
        <ele>5.5</ele>
        <time>2021-05-23T08:09:26.983Z</time>
      </trkpt>
      <trkpt lat="47.25291" lon="-2.33605">
        <ele>5.6</ele>
        <time>2021-05-23T08:09:27.983Z</time>
      </trkpt>
      <trkpt lat="47.25293" lon="-2.33607">
        <ele>5.7</ele>
        <time>2021-05-23T08:09:28.982Z</time>
      </trkpt>
      <trkpt lat="47.25295" lon="-2.3361">
        <ele>5.8</ele>
        <time>2021-05-23T08:09:29.982Z</time>
      </trkpt>
      <trkpt lat="47.25297" lon="-2.33613">
        <ele>5.9</ele>
        <time>2021-05-23T08:09:30.983Z</time>
      </trkpt>
      <trkpt lat="47.25299" lon="-2.33615">
        <ele>5.9</ele>
        <time>2021-05-23T08:09:31.982Z</time>
      </trkpt>
      <trkpt lat="47.25301" lon="-2.33618">
        <ele>6</ele>
        <time>2021-05-23T08:09:32.982Z</time>
      </trkpt>
      <trkpt lat="47.25303" lon="-2.33621">
        <ele>6.1</ele>
        <time>2021-05-23T08:09:33.982Z</time>
      </trkpt>
      <trkpt lat="47.25305" lon="-2.33624">
        <ele>1</ele>
        <time>2021-05-23T08:09:34.982Z</time>
      </trkpt>
      <trkpt lat="47.25308" lon="-2.33627">
        <ele>2</ele>
        <time>2021-05-23T08:09:35.982Z</time>
      </trkpt>
      <trkpt lat="47.2531" lon="-2.33629">
        <ele>2</ele>
        <time>2021-05-23T08:09:36.982Z</time>
      </trkpt>
      <trkpt lat="47.25312" lon="-2.33631">
        <ele>3</ele>
        <time>2021-05-23T08:09:37.983Z</time>
      </trkpt>
      <trkpt lat="47.25314" lon="-2.33633">
        <ele>3</ele>
        <time>2021-05-23T08:09:38.982Z</time>
      </trkpt>
      <trkpt lat="47.25316" lon="-2.33635">
        <ele>3</ele>
        <time>2021-05-23T08:09:39.982Z</time>
      </trkpt>
      <trkpt lat="47.25319" lon="-2.33637">
        <ele>3</ele>
        <time>2021-05-23T08:09:40.982Z</time>
      </trkpt>
      <trkpt lat="47.25321" lon="-2.33639">
        <ele>4</ele>
        <time>2021-05-23T08:09:41.982Z</time>
      </trkpt>
      <trkpt lat="47.25323" lon="-2.33641">
        <ele>4</ele>
        <time>2021-05-23T08:09:42.982Z</time>
      </trkpt>
      <trkpt lat="47.25325" lon="-2.33643">
        <ele>4</ele>
        <time>2021-05-23T08:09:43.982Z</time>
      </trkpt>
      <trkpt lat="47.25326" lon="-2.33646">
        <ele>3</ele>
        <time>2021-05-23T08:09:44.983Z</time>
      </trkpt>
      <trkpt lat="47.25328" lon="-2.33648">
        <ele>3</ele>
        <time>2021-05-23T08:09:45.983Z</time>
      </trkpt>
      <trkpt lat="47.2533" lon="-2.3365">
        <ele>3</ele>
        <time>2021-05-23T08:09:46.982Z</time>
      </trkpt>
      <trkpt lat="47.25332" lon="-2.33653">
        <ele>2</ele>
        <time>2021-05-23T08:09:47.983Z</time>
      </trkpt>
      <trkpt lat="47.25334" lon="-2.33655">
        <ele>2</ele>
        <time>2021-05-23T08:09:48.982Z</time>
      </trkpt>
      <trkpt lat="47.25336" lon="-2.33658">
        <ele>1</ele>
        <time>2021-05-23T08:09:49.983Z</time>
      </trkpt>
      <trkpt lat="47.25337" lon="-2.33661">
        <ele>1</ele>
        <time>2021-05-23T08:09:50.982Z</time>
      </trkpt>
      <trkpt lat="47.25339" lon="-2.33664">
        <ele>1</ele>
        <time>2021-05-23T08:09:51.983Z</time>
      </trkpt>
      <trkpt lat="47.2534" lon="-2.33667">
        <ele>2</ele>
        <time>2021-05-23T08:09:52.983Z</time>
      </trkpt>
      <trkpt lat="47.25342" lon="-2.33669">
        <ele>2</ele>
        <time>2021-05-23T08:09:53.983Z</time>
      </trkpt>
      <trkpt lat="47.25344" lon="-2.33672">
        <ele>2</ele>
        <time>2021-05-23T08:09:54.983Z</time>
      </trkpt>
      <trkpt lat="47.25346" lon="-2.33674">
        <ele>3</ele>
        <time>2021-05-23T08:09:55.982Z</time>
      </trkpt>
      <trkpt lat="47.25347" lon="-2.33677">
        <ele>3</ele>
        <time>2021-05-23T08:09:56.983Z</time>
      </trkpt>
      <trkpt lat="47.25349" lon="-2.3368">
        <ele>4</ele>
        <time>2021-05-23T08:09:57.983Z</time>
      </trkpt>
      <trkpt lat="47.25351" lon="-2.33682">
        <ele>4</ele>
        <time>2021-05-23T08:09:58.983Z</time>
      </trkpt>
      <trkpt lat="47.25353" lon="-2.33684">
        <ele>5</ele>
        <time>2021-05-23T08:09:59.983Z</time>
      </trkpt>
      <trkpt lat="47.25355" lon="-2.33686">
        <ele>5</ele>
        <time>2021-05-23T08:10:00.982Z</time>
      </trkpt>
      <trkpt lat="47.25357" lon="-2.33688">
        <ele>5</ele>
        <time>2021-05-23T08:10:01.983Z</time>
      </trkpt>
      <trkpt lat="47.25359" lon="-2.33691">
        <ele>5</ele>
        <time>2021-05-23T08:10:02.982Z</time>
      </trkpt>
      <trkpt lat="47.25361" lon="-2.33693">
        <ele>5</ele>
        <time>2021-05-23T08:10:03.982Z</time>
      </trkpt>
      <trkpt lat="47.25363" lon="-2.33694">
        <ele>5</ele>
        <time>2021-05-23T08:10:04.982Z</time>
      </trkpt>
      <trkpt lat="47.25365" lon="-2.33695">
        <ele>4</ele>
        <time>2021-05-23T08:10:05.982Z</time>
      </trkpt>
      <trkpt lat="47.25367" lon="-2.33696">
        <ele>4</ele>
        <time>2021-05-23T08:10:06.982Z</time>
      </trkpt>
      <trkpt lat="47.25369" lon="-2.33698">
        <ele>3</ele>
        <time>2021-05-23T08:10:07.983Z</time>
      </trkpt>
      <trkpt lat="47.25371" lon="-2.337">
        <ele>3</ele>
        <time>2021-05-23T08:10:08.982Z</time>
      </trkpt>
      <trkpt lat="47.25373" lon="-2.33702">
        <ele>3</ele>
        <time>2021-05-23T08:10:09.982Z</time>
      </trkpt>
      <trkpt lat="47.25375" lon="-2.33704">
        <ele>3</ele>
        <time>2021-05-23T08:10:10.982Z</time>
      </trkpt>
      <trkpt lat="47.25376" lon="-2.33706">
        <ele>2</ele>
        <time>2021-05-23T08:10:11.982Z</time>
      </trkpt>
      <trkpt lat="47.25378" lon="-2.33708">
        <ele>2</ele>
        <time>2021-05-23T08:10:12.983Z</time>
      </trkpt>
      <trkpt lat="47.2538" lon="-2.3371">
        <ele>2</ele>
        <time>2021-05-23T08:10:13.982Z</time>
      </trkpt>
      <trkpt lat="47.25381" lon="-2.33713">
        <ele>2</ele>
        <time>2021-05-23T08:10:14.983Z</time>
      </trkpt>
      <trkpt lat="47.25383" lon="-2.33715">
        <ele>1</ele>
        <time>2021-05-23T08:10:15.983Z</time>
      </trkpt>
      <trkpt lat="47.25384" lon="-2.33717">
        <ele>1</ele>
        <time>2021-05-23T08:10:16.983Z</time>
      </trkpt>
      <trkpt lat="47.25384" lon="-2.3372">
        <ele>1</ele>
        <time>2021-05-23T08:10:17.982Z</time>
      </trkpt>
      <trkpt lat="47.25384" lon="-2.33723">
        <ele>5.5</ele>
        <time>2021-05-23T08:10:18.983Z</time>
      </trkpt>
      <trkpt lat="47.25383" lon="-2.33726">
        <ele>5.5</ele>
        <time>2021-05-23T08:10:19.983Z</time>
      </trkpt>
      <trkpt lat="47.25383" lon="-2.3373">
        <ele>5.4</ele>
        <time>2021-05-23T08:10:20.982Z</time>
      </trkpt>
      <trkpt lat="47.25383" lon="-2.33734">
        <ele>1</ele>
        <time>2021-05-23T08:10:21.982Z</time>
      </trkpt>
      <trkpt lat="47.25383" lon="-2.33737">
        <ele>1</ele>
        <time>2021-05-23T08:10:22.983Z</time>
      </trkpt>
      <trkpt lat="47.25383" lon="-2.33741">
        <ele>1</ele>
        <time>2021-05-23T08:10:23.983Z</time>
      </trkpt>
      <trkpt lat="47.25383" lon="-2.33744">
        <ele>1</ele>
        <time>2021-05-23T08:10:24.982Z</time>
      </trkpt>
      <trkpt lat="47.25384" lon="-2.33748">
        <ele>1</ele>
        <time>2021-05-23T08:10:25.983Z</time>
      </trkpt>
      <trkpt lat="47.25384" lon="-2.33752">
        <ele>1</ele>
        <time>2021-05-23T08:10:26.982Z</time>
      </trkpt>
      <trkpt lat="47.25385" lon="-2.33755">
        <ele>1</ele>
        <time>2021-05-23T08:10:27.982Z</time>
      </trkpt>
      <trkpt lat="47.25387" lon="-2.33758">
        <ele>4.7</ele>
        <time>2021-05-23T08:10:28.982Z</time>
      </trkpt>
      <trkpt lat="47.25388" lon="-2.3376">
        <ele>4.6</ele>
        <time>2021-05-23T08:10:29.982Z</time>
      </trkpt>
      <trkpt lat="47.2539" lon="-2.33764">
        <ele>4.5</ele>
        <time>2021-05-23T08:10:30.982Z</time>
      </trkpt>
      <trkpt lat="47.25392" lon="-2.33767">
        <ele>4.4</ele>
        <time>2021-05-23T08:10:31.982Z</time>
      </trkpt>
      <trkpt lat="47.25393" lon="-2.3377">
        <ele>4.3</ele>
        <time>2021-05-23T08:10:32.983Z</time>
      </trkpt>
      <trkpt lat="47.25395" lon="-2.33774">
        <ele>4.2</ele>
        <time>2021-05-23T08:10:33.983Z</time>
      </trkpt>
      <trkpt lat="47.25397" lon="-2.33777">
        <ele>4</ele>
        <time>2021-05-23T08:10:34.983Z</time>
      </trkpt>
      <trkpt lat="47.25398" lon="-2.3378">
        <ele>3.9</ele>
        <time>2021-05-23T08:10:35.983Z</time>
      </trkpt>
      <trkpt lat="47.254" lon="-2.33783">
        <ele>3.8</ele>
        <time>2021-05-23T08:10:36.983Z</time>
      </trkpt>
      <trkpt lat="47.25402" lon="-2.33785">
        <ele>3.7</ele>
        <time>2021-05-23T08:10:37.983Z</time>
      </trkpt>
      <trkpt lat="47.25403" lon="-2.33789">
        <ele>3.6</ele>
        <time>2021-05-23T08:10:38.982Z</time>
      </trkpt>
      <trkpt lat="47.25405" lon="-2.33792">
        <ele>3.5</ele>
        <time>2021-05-23T08:10:39.983Z</time>
      </trkpt>
      <trkpt lat="47.25406" lon="-2.33795">
        <ele>-1</ele>
        <time>2021-05-23T08:10:40.982Z</time>
      </trkpt>
      <trkpt lat="47.25408" lon="-2.33798">
        <ele>3.3</ele>
        <time>2021-05-23T08:10:41.982Z</time>
      </trkpt>
      <trkpt lat="47.2541" lon="-2.33801">
        <ele>3.2</ele>
        <time>2021-05-23T08:10:42.983Z</time>
      </trkpt>
      <trkpt lat="47.25412" lon="-2.33804">
        <ele>-1</ele>
        <time>2021-05-23T08:10:43.982Z</time>
      </trkpt>
      <trkpt lat="47.25413" lon="-2.33807">
        <ele>-1</ele>
        <time>2021-05-23T08:10:44.983Z</time>
      </trkpt>
      <trkpt lat="47.25415" lon="-2.3381">
        <ele>-1</ele>
        <time>2021-05-23T08:10:45.982Z</time>
      </trkpt>
      <trkpt lat="47.25417" lon="-2.33813">
        <ele>-1</ele>
        <time>2021-05-23T08:10:46.982Z</time>
      </trkpt>
      <trkpt lat="47.25418" lon="-2.33816">
        <ele>-3</ele>
        <time>2021-05-23T08:10:47.983Z</time>
      </trkpt>
      <trkpt lat="47.2542" lon="-2.33818">
        <ele>-2</ele>
        <time>2021-05-23T08:10:48.983Z</time>
      </trkpt>
      <trkpt lat="47.25421" lon="-2.33821">
        <ele>-2</ele>
        <time>2021-05-23T08:10:49.983Z</time>
      </trkpt>
      <trkpt lat="47.25423" lon="-2.33824">
        <ele>-3</ele>
        <time>2021-05-23T08:10:50.982Z</time>
      </trkpt>
      <trkpt lat="47.25424" lon="-2.33827">
        <ele>-1</ele>
        <time>2021-05-23T08:10:51.982Z</time>
      </trkpt>
      <trkpt lat="47.25426" lon="-2.3383">
        <ele>2.7</ele>
        <time>2021-05-23T08:10:52.983Z</time>
      </trkpt>
      <trkpt lat="47.25428" lon="-2.33832">
        <ele>2.7</ele>
        <time>2021-05-23T08:10:53.983Z</time>
      </trkpt>
      <trkpt lat="47.2543" lon="-2.33834">
        <ele>2.8</ele>
        <time>2021-05-23T08:10:54.983Z</time>
      </trkpt>
      <trkpt lat="47.25432" lon="-2.33836">
        <ele>3</ele>
        <time>2021-05-23T08:10:55.983Z</time>
      </trkpt>
      <trkpt lat="47.25434" lon="-2.33838">
        <ele>3.2</ele>
        <time>2021-05-23T08:10:56.983Z</time>
      </trkpt>
      <trkpt lat="47.25436" lon="-2.33841">
        <ele>-1</ele>
        <time>2021-05-23T08:10:57.983Z</time>
      </trkpt>
      <trkpt lat="47.25438" lon="-2.33843">
        <ele>3.5</ele>
        <time>2021-05-23T08:10:58.982Z</time>
      </trkpt>
      <trkpt lat="47.2544" lon="-2.33845">
        <ele>3.6</ele>
        <time>2021-05-23T08:10:59.983Z</time>
      </trkpt>
      <trkpt lat="47.25442" lon="-2.33847">
        <ele>3.8</ele>
        <time>2021-05-23T08:11:00.983Z</time>
      </trkpt>
      <trkpt lat="47.25444" lon="-2.33849">
        <ele>3.9</ele>
        <time>2021-05-23T08:11:01.982Z</time>
      </trkpt>
      <trkpt lat="47.25446" lon="-2.33851">
        <ele>4</ele>
        <time>2021-05-23T08:11:02.982Z</time>
      </trkpt>
      <trkpt lat="47.25448" lon="-2.33853">
        <ele>4.1</ele>
        <time>2021-05-23T08:11:03.983Z</time>
      </trkpt>
      <trkpt lat="47.2545" lon="-2.33855">
        <ele>4.2</ele>
        <time>2021-05-23T08:11:04.983Z</time>
      </trkpt>
      <trkpt lat="47.25451" lon="-2.33858">
        <ele>4.3</ele>
        <time>2021-05-23T08:11:05.983Z</time>
      </trkpt>
      <trkpt lat="47.25453" lon="-2.33859">
        <ele>4.4</ele>
        <time>2021-05-23T08:11:06.983Z</time>
      </trkpt>
      <trkpt lat="47.25454" lon="-2.33861">
        <ele>4.5</ele>
        <time>2021-05-23T08:11:07.982Z</time>
      </trkpt>
      <trkpt lat="47.25456" lon="-2.33862">
        <ele>4.6</ele>
        <time>2021-05-23T08:11:08.982Z</time>
      </trkpt>
      <trkpt lat="47.25457" lon="-2.33864">
        <ele>1</ele>
        <time>2021-05-23T08:11:09.982Z</time>
      </trkpt>
      <trkpt lat="47.25459" lon="-2.33866">
        <ele>1</ele>
        <time>2021-05-23T08:11:10.982Z</time>
      </trkpt>
      <trkpt lat="47.2546" lon="-2.33869">
        <ele>1</ele>
        <time>2021-05-23T08:11:11.983Z</time>
      </trkpt>
      <trkpt lat="47.25462" lon="-2.33871">
        <ele>1</ele>
        <time>2021-05-23T08:11:12.982Z</time>
      </trkpt>
      <trkpt lat="47.25464" lon="-2.33873">
        <ele>1</ele>
        <time>2021-05-23T08:11:13.983Z</time>
      </trkpt>
      <trkpt lat="47.25465" lon="-2.33875">
        <ele>1</ele>
        <time>2021-05-23T08:11:14.983Z</time>
      </trkpt>
      <trkpt lat="47.25467" lon="-2.33878">
        <ele>1</ele>
        <time>2021-05-23T08:11:15.982Z</time>
      </trkpt>
      <trkpt lat="47.25468" lon="-2.33881">
        <ele>1</ele>
        <time>2021-05-23T08:11:16.982Z</time>
      </trkpt>
      <trkpt lat="47.25469" lon="-2.33884">
        <ele>1</ele>
        <time>2021-05-23T08:11:17.982Z</time>
      </trkpt>
      <trkpt lat="47.2547" lon="-2.33887">
        <ele>5.1</ele>
        <time>2021-05-23T08:11:18.983Z</time>
      </trkpt>
      <trkpt lat="47.25472" lon="-2.33889">
        <ele>5.1</ele>
        <time>2021-05-23T08:11:19.982Z</time>
      </trkpt>
      <trkpt lat="47.25473" lon="-2.33891">
        <ele>5.1</ele>
        <time>2021-05-23T08:11:20.982Z</time>
      </trkpt>
      <trkpt lat="47.25474" lon="-2.33894">
        <ele>5.1</ele>
        <time>2021-05-23T08:11:21.983Z</time>
      </trkpt>
      <trkpt lat="47.25475" lon="-2.33897">
        <ele>5.1</ele>
        <time>2021-05-23T08:11:22.982Z</time>
      </trkpt>
      <trkpt lat="47.25477" lon="-2.339">
        <ele>5.1</ele>
        <time>2021-05-23T08:11:23.983Z</time>
      </trkpt>
      <trkpt lat="47.25478" lon="-2.33901">
        <ele>5.1</ele>
        <time>2021-05-23T08:11:24.982Z</time>
      </trkpt>
      <trkpt lat="47.2548" lon="-2.33904">
        <ele>5.1</ele>
        <time>2021-05-23T08:11:25.983Z</time>
      </trkpt>
      <trkpt lat="47.25481" lon="-2.33906">
        <ele>-1</ele>
        <time>2021-05-23T08:11:26.982Z</time>
      </trkpt>
      <trkpt lat="47.25483" lon="-2.33908">
        <ele>5.1</ele>
        <time>2021-05-23T08:11:27.982Z</time>
      </trkpt>
      <trkpt lat="47.25484" lon="-2.3391">
        <ele>5.1</ele>
        <time>2021-05-23T08:11:28.982Z</time>
      </trkpt>
      <trkpt lat="47.25485" lon="-2.33911">
        <ele>5.1</ele>
        <time>2021-05-23T08:11:29.983Z</time>
      </trkpt>
      <trkpt lat="47.25486" lon="-2.33912">
        <ele>5.1</ele>
        <time>2021-05-23T08:11:30.983Z</time>
      </trkpt>
      <trkpt lat="47.25486" lon="-2.33912">
        <ele>5.1</ele>
        <time>2021-05-23T08:11:31.982Z</time>
      </trkpt>
      <trkpt lat="47.25486" lon="-2.33912">
        <ele>5.1</ele>
        <time>2021-05-23T08:11:32.982Z</time>
      </trkpt>
      <trkpt lat="47.25486" lon="-2.33912">
        <ele>5.1</ele>
        <time>2021-05-23T08:11:33.983Z</time>
      </trkpt>
      <trkpt lat="47.25486" lon="-2.33912">
        <ele>5.1</ele>
        <time>2021-05-23T08:11:34.983Z</time>
      </trkpt>
      <trkpt lat="47.25486" lon="-2.33912">
        <ele>1</ele>
        <time>2021-05-23T08:11:35.983Z</time>
      </trkpt>
      <trkpt lat="47.25486" lon="-2.33912">
        <ele>1</ele>
        <time>2021-05-23T08:11:36.982Z</time>
      </trkpt>
      <trkpt lat="47.25486" lon="-2.33912">
        <ele>1</ele>
        <time>2021-05-23T08:11:37.982Z</time>
      </trkpt>
      <trkpt lat="47.25486" lon="-2.33912">
        <ele>1</ele>
        <time>2021-05-23T08:11:38.983Z</time>
      </trkpt>
      <trkpt lat="47.25486" lon="-2.33912">
        <ele>1</ele>
        <time>2021-05-23T08:11:39.982Z</time>
      </trkpt>
      <trkpt lat="47.25486" lon="-2.33912">
        <ele>1</ele>
        <time>2021-05-23T08:11:40.982Z</time>
      </trkpt>
      <trkpt lat="47.25487" lon="-2.33913">
        <ele>1</ele>
        <time>2021-05-23T08:11:41.982Z</time>
      </trkpt>
      <trkpt lat="47.25487" lon="-2.33913">
        <ele>1</ele>
        <time>2021-05-23T08:11:42.982Z</time>
      </trkpt>
      <trkpt lat="47.25488" lon="-2.33914">
        <ele>1</ele>
        <time>2021-05-23T08:11:43.983Z</time>
      </trkpt>
      <trkpt lat="47.2549" lon="-2.33915">
        <ele>1</ele>
        <time>2021-05-23T08:11:44.982Z</time>
      </trkpt>
      <trkpt lat="47.25491" lon="-2.33916">
        <ele>1</ele>
        <time>2021-05-23T08:11:45.982Z</time>
      </trkpt>
      <trkpt lat="47.25492" lon="-2.33916">
        <ele>5</ele>
        <time>2021-05-23T08:11:46.982Z</time>
      </trkpt>
      <trkpt lat="47.25492" lon="-2.33917">
        <ele>5</ele>
        <time>2021-05-23T08:11:47.982Z</time>
      </trkpt>
      <trkpt lat="47.25493" lon="-2.33918">
        <ele>5</ele>
        <time>2021-05-23T08:11:48.983Z</time>
      </trkpt>
      <trkpt lat="47.25493" lon="-2.33919">
        <ele>5</ele>
        <time>2021-05-23T08:11:49.982Z</time>
      </trkpt>
      <trkpt lat="47.25493" lon="-2.3392">
        <ele>5</ele>
        <time>2021-05-23T08:11:50.982Z</time>
      </trkpt>
      <trkpt lat="47.25494" lon="-2.33921">
        <ele>5</ele>
        <time>2021-05-23T08:11:51.982Z</time>
      </trkpt>
      <trkpt lat="47.25494" lon="-2.33922">
        <ele>5</ele>
        <time>2021-05-23T08:11:52.982Z</time>
      </trkpt>
      <trkpt lat="47.25494" lon="-2.33923">
        <ele>5</ele>
        <time>2021-05-23T08:11:53.983Z</time>
      </trkpt>
      <trkpt lat="47.25494" lon="-2.33924">
        <ele>5</ele>
        <time>2021-05-23T08:11:54.982Z</time>
      </trkpt>
      <trkpt lat="47.25495" lon="-2.33926">
        <ele>5</ele>
        <time>2021-05-23T08:11:55.982Z</time>
      </trkpt>
      <trkpt lat="47.25495" lon="-2.33927">
        <ele>5</ele>
        <time>2021-05-23T08:11:56.982Z</time>
      </trkpt>
      <trkpt lat="47.25496" lon="-2.33928">
        <ele>5</ele>
        <time>2021-05-23T08:11:57.983Z</time>
      </trkpt>
      <trkpt lat="47.25498" lon="-2.33928">
        <ele>5</ele>
        <time>2021-05-23T08:11:58.982Z</time>
      </trkpt>
      <trkpt lat="47.25499" lon="-2.33929">
        <ele>5</ele>
        <time>2021-05-23T08:11:59.982Z</time>
      </trkpt>
      <trkpt lat="47.25501" lon="-2.3393">
        <ele>5.2</ele>
        <time>2021-05-23T08:12:00.982Z</time>
      </trkpt>
      <trkpt lat="47.25502" lon="-2.3393">
        <ele>5.3</ele>
        <time>2021-05-23T08:12:01.982Z</time>
      </trkpt>
      <trkpt lat="47.25503" lon="-2.33931">
        <ele>5.3</ele>
        <time>2021-05-23T08:12:02.983Z</time>
      </trkpt>
      <trkpt lat="47.25504" lon="-2.33931">
        <ele>5.4</ele>
        <time>2021-05-23T08:12:03.982Z</time>
      </trkpt>
      <trkpt lat="47.25505" lon="-2.33932">
        <ele>5.4</ele>
        <time>2021-05-23T08:12:04.982Z</time>
      </trkpt>
      <trkpt lat="47.25507" lon="-2.33933">
        <ele>5.5</ele>
        <time>2021-05-23T08:12:05.983Z</time>
      </trkpt>
      <trkpt lat="47.25508" lon="-2.33934">
        <ele>1</ele>
        <time>2021-05-23T08:12:06.983Z</time>
      </trkpt>
      <trkpt lat="47.25509" lon="-2.33934">
        <ele>1</ele>
        <time>2021-05-23T08:12:07.982Z</time>
      </trkpt>
      <trkpt lat="47.25511" lon="-2.33935">
        <ele>2</ele>
        <time>2021-05-23T08:12:08.983Z</time>
      </trkpt>
      <trkpt lat="47.25512" lon="-2.33935">
        <ele>2</ele>
        <time>2021-05-23T08:12:09.982Z</time>
      </trkpt>
      <trkpt lat="47.25513" lon="-2.33936">
        <ele>2</ele>
        <time>2021-05-23T08:12:10.983Z</time>
      </trkpt>
      <trkpt lat="47.25514" lon="-2.33937">
        <ele>1</ele>
        <time>2021-05-23T08:12:11.983Z</time>
      </trkpt>
      <trkpt lat="47.25516" lon="-2.33938">
        <ele>1</ele>
        <time>2021-05-23T08:12:12.983Z</time>
      </trkpt>
      <trkpt lat="47.25517" lon="-2.33939">
        <ele>1</ele>
        <time>2021-05-23T08:12:13.983Z</time>
      </trkpt>
      <trkpt lat="47.25518" lon="-2.3394">
        <ele>1</ele>
        <time>2021-05-23T08:12:14.982Z</time>
      </trkpt>
      <trkpt lat="47.25519" lon="-2.33941">
        <ele>1</ele>
        <time>2021-05-23T08:12:15.983Z</time>
      </trkpt>
      <trkpt lat="47.2552" lon="-2.33942">
        <ele>2</ele>
        <time>2021-05-23T08:12:16.983Z</time>
      </trkpt>
      <trkpt lat="47.25521" lon="-2.33943">
        <ele>2</ele>
        <time>2021-05-23T08:12:17.983Z</time>
      </trkpt>
      <trkpt lat="47.25522" lon="-2.33944">
        <ele>2</ele>
        <time>2021-05-23T08:12:18.982Z</time>
      </trkpt>
      <trkpt lat="47.25523" lon="-2.33945">
        <ele>2</ele>
        <time>2021-05-23T08:12:19.983Z</time>
      </trkpt>
      <trkpt lat="47.25524" lon="-2.33946">
        <ele>2</ele>
        <time>2021-05-23T08:12:20.983Z</time>
      </trkpt>
      <trkpt lat="47.25525" lon="-2.33946">
        <ele>2</ele>
        <time>2021-05-23T08:12:21.982Z</time>
      </trkpt>
      <trkpt lat="47.25526" lon="-2.33947">
        <ele>2</ele>
        <time>2021-05-23T08:12:22.983Z</time>
      </trkpt>
      <trkpt lat="47.25527" lon="-2.33949">
        <ele>2</ele>
        <time>2021-05-23T08:12:23.983Z</time>
      </trkpt>
      <trkpt lat="47.25528" lon="-2.3395">
        <ele>2</ele>
        <time>2021-05-23T08:12:24.983Z</time>
      </trkpt>
      <trkpt lat="47.25529" lon="-2.33951">
        <ele>1</ele>
        <time>2021-05-23T08:12:25.983Z</time>
      </trkpt>
      <trkpt lat="47.2553" lon="-2.33952">
        <ele>1</ele>
        <time>2021-05-23T08:12:26.982Z</time>
      </trkpt>
      <trkpt lat="47.25531" lon="-2.33953">
        <ele>1</ele>
        <time>2021-05-23T08:12:27.983Z</time>
      </trkpt>
      <trkpt lat="47.25531" lon="-2.33953">
        <ele>1</ele>
        <time>2021-05-23T08:12:28.983Z</time>
      </trkpt>
      <trkpt lat="47.25531" lon="-2.33953">
        <ele>1</ele>
        <time>2021-05-23T08:12:29.982Z</time>
      </trkpt>
      <trkpt lat="47.25531" lon="-2.33953">
        <ele>1</ele>
        <time>2021-05-23T08:12:30.982Z</time>
      </trkpt>
      <trkpt lat="47.25531" lon="-2.33953">
        <ele>2</ele>
        <time>2021-05-23T08:12:31.983Z</time>
      </trkpt>
      <trkpt lat="47.25532" lon="-2.33954">
        <ele>3</ele>
        <time>2021-05-23T08:12:32.983Z</time>
      </trkpt>
      <trkpt lat="47.25533" lon="-2.33955">
        <ele>3</ele>
        <time>2021-05-23T08:12:33.983Z</time>
      </trkpt>
      <trkpt lat="47.25534" lon="-2.33956">
        <ele>3</ele>
        <time>2021-05-23T08:12:34.982Z</time>
      </trkpt>
      <trkpt lat="47.25536" lon="-2.33957">
        <ele>4</ele>
        <time>2021-05-23T08:12:35.983Z</time>
      </trkpt>
      <trkpt lat="47.25537" lon="-2.33959">
        <ele>4</ele>
        <time>2021-05-23T08:12:36.983Z</time>
      </trkpt>
      <trkpt lat="47.25539" lon="-2.3396">
        <ele>4</ele>
        <time>2021-05-23T08:12:37.983Z</time>
      </trkpt>
      <trkpt lat="47.25541" lon="-2.33962">
        <ele>4</ele>
        <time>2021-05-23T08:12:38.983Z</time>
      </trkpt>
      <trkpt lat="47.25543" lon="-2.33964">
        <ele>5</ele>
        <time>2021-05-23T08:12:39.983Z</time>
      </trkpt>
      <trkpt lat="47.25544" lon="-2.33966">
        <ele>5</ele>
        <time>2021-05-23T08:12:40.983Z</time>
      </trkpt>
      <trkpt lat="47.25546" lon="-2.33967">
        <ele>5</ele>
        <time>2021-05-23T08:12:41.982Z</time>
      </trkpt>
      <trkpt lat="47.25548" lon="-2.33969">
        <ele>5</ele>
        <time>2021-05-23T08:12:42.982Z</time>
      </trkpt>
      <trkpt lat="47.2555" lon="-2.3397">
        <ele>6</ele>
        <time>2021-05-23T08:12:43.983Z</time>
      </trkpt>
      <trkpt lat="47.25552" lon="-2.33972">
        <ele>6</ele>
        <time>2021-05-23T08:12:44.983Z</time>
      </trkpt>
      <trkpt lat="47.25555" lon="-2.33974">
        <ele>7</ele>
        <time>2021-05-23T08:12:45.983Z</time>
      </trkpt>
      <trkpt lat="47.25557" lon="-2.33976">
        <ele>7</ele>
        <time>2021-05-23T08:12:46.982Z</time>
      </trkpt>
      <trkpt lat="47.25559" lon="-2.33978">
        <ele>8</ele>
        <time>2021-05-23T08:12:47.983Z</time>
      </trkpt>
      <trkpt lat="47.25561" lon="-2.33981">
        <ele>8</ele>
        <time>2021-05-23T08:12:48.982Z</time>
      </trkpt>
      <trkpt lat="47.25563" lon="-2.33983">
        <ele>8</ele>
        <time>2021-05-23T08:12:49.982Z</time>
      </trkpt>
      <trkpt lat="47.25566" lon="-2.33985">
        <ele>8</ele>
        <time>2021-05-23T08:12:50.983Z</time>
      </trkpt>
      <trkpt lat="47.25568" lon="-2.33987">
        <ele>8</ele>
        <time>2021-05-23T08:12:51.983Z</time>
      </trkpt>
      <trkpt lat="47.2557" lon="-2.3399">
        <ele>8</ele>
        <time>2021-05-23T08:12:52.982Z</time>
      </trkpt>
      <trkpt lat="47.25572" lon="-2.33993">
        <ele>8</ele>
        <time>2021-05-23T08:12:53.983Z</time>
      </trkpt>
      <trkpt lat="47.25574" lon="-2.33996">
        <ele>8</ele>
        <time>2021-05-23T08:12:54.983Z</time>
      </trkpt>
      <trkpt lat="47.25576" lon="-2.33999">
        <ele>8</ele>
        <time>2021-05-23T08:12:55.983Z</time>
      </trkpt>
      <trkpt lat="47.25578" lon="-2.34">
        <ele>8</ele>
        <time>2021-05-23T08:12:56.982Z</time>
      </trkpt>
      <trkpt lat="47.25581" lon="-2.34002">
        <ele>8</ele>
        <time>2021-05-23T08:12:57.982Z</time>
      </trkpt>
      <trkpt lat="47.25583" lon="-2.34005">
        <ele>8</ele>
        <time>2021-05-23T08:12:58.983Z</time>
      </trkpt>
      <trkpt lat="47.25585" lon="-2.34007">
        <ele>7</ele>
        <time>2021-05-23T08:12:59.982Z</time>
      </trkpt>
      <trkpt lat="47.25587" lon="-2.3401">
        <ele>7</ele>
        <time>2021-05-23T08:13:00.983Z</time>
      </trkpt>
      <trkpt lat="47.25589" lon="-2.34012">
        <ele>6</ele>
        <time>2021-05-23T08:13:01.983Z</time>
      </trkpt>
      <trkpt lat="47.25591" lon="-2.34015">
        <ele>6</ele>
        <time>2021-05-23T08:13:02.983Z</time>
      </trkpt>
      <trkpt lat="47.25593" lon="-2.34017">
        <ele>5</ele>
        <time>2021-05-23T08:13:03.983Z</time>
      </trkpt>
      <trkpt lat="47.25596" lon="-2.34019">
        <ele>5</ele>
        <time>2021-05-23T08:13:04.983Z</time>
      </trkpt>
      <trkpt lat="47.25598" lon="-2.34021">
        <ele>5</ele>
        <time>2021-05-23T08:13:05.983Z</time>
      </trkpt>
      <trkpt lat="47.256" lon="-2.34023">
        <ele>4</ele>
        <time>2021-05-23T08:13:06.983Z</time>
      </trkpt>
      <trkpt lat="47.25602" lon="-2.34026">
        <ele>4</ele>
        <time>2021-05-23T08:13:07.982Z</time>
      </trkpt>
      <trkpt lat="47.25604" lon="-2.34029">
        <ele>4</ele>
        <time>2021-05-23T08:13:08.983Z</time>
      </trkpt>
      <trkpt lat="47.25606" lon="-2.34031">
        <ele>4</ele>
        <time>2021-05-23T08:13:09.983Z</time>
      </trkpt>
      <trkpt lat="47.25608" lon="-2.34034">
        <ele>4</ele>
        <time>2021-05-23T08:13:10.983Z</time>
      </trkpt>
      <trkpt lat="47.25609" lon="-2.34037">
        <ele>4</ele>
        <time>2021-05-23T08:13:11.982Z</time>
      </trkpt>
      <trkpt lat="47.25611" lon="-2.3404">
        <ele>3</ele>
        <time>2021-05-23T08:13:12.983Z</time>
      </trkpt>
      <trkpt lat="47.25612" lon="-2.34042">
        <ele>3</ele>
        <time>2021-05-23T08:13:13.983Z</time>
      </trkpt>
      <trkpt lat="47.25614" lon="-2.34045">
        <ele>3</ele>
        <time>2021-05-23T08:13:14.982Z</time>
      </trkpt>
      <trkpt lat="47.25615" lon="-2.34047">
        <ele>2</ele>
        <time>2021-05-23T08:13:15.982Z</time>
      </trkpt>
      <trkpt lat="47.25617" lon="-2.3405">
        <ele>2</ele>
        <time>2021-05-23T08:13:16.983Z</time>
      </trkpt>
      <trkpt lat="47.25618" lon="-2.34053">
        <ele>2</ele>
        <time>2021-05-23T08:13:17.983Z</time>
      </trkpt>
      <trkpt lat="47.25619" lon="-2.34056">
        <ele>2</ele>
        <time>2021-05-23T08:13:18.983Z</time>
      </trkpt>
      <trkpt lat="47.2562" lon="-2.3406">
        <ele>1</ele>
        <time>2021-05-23T08:13:19.983Z</time>
      </trkpt>
      <trkpt lat="47.2562" lon="-2.34063">
        <ele>1</ele>
        <time>2021-05-23T08:13:20.983Z</time>
      </trkpt>
      <trkpt lat="47.25621" lon="-2.34067">
        <ele>3.8</ele>
        <time>2021-05-23T08:13:21.983Z</time>
      </trkpt>
      <trkpt lat="47.25622" lon="-2.3407">
        <ele>3.7</ele>
        <time>2021-05-23T08:13:22.983Z</time>
      </trkpt>
      <trkpt lat="47.25623" lon="-2.34073">
        <ele>3.7</ele>
        <time>2021-05-23T08:13:23.983Z</time>
      </trkpt>
      <trkpt lat="47.25624" lon="-2.34077">
        <ele>3.6</ele>
        <time>2021-05-23T08:13:24.983Z</time>
      </trkpt>
      <trkpt lat="47.25625" lon="-2.3408">
        <ele>3.6</ele>
        <time>2021-05-23T08:13:25.982Z</time>
      </trkpt>
      <trkpt lat="47.25626" lon="-2.34083">
        <ele>3.5</ele>
        <time>2021-05-23T08:13:26.983Z</time>
      </trkpt>
      <trkpt lat="47.25626" lon="-2.34087">
        <ele>3.6</ele>
        <time>2021-05-23T08:13:27.983Z</time>
      </trkpt>
      <trkpt lat="47.25627" lon="-2.34091">
        <ele>3.6</ele>
        <time>2021-05-23T08:13:28.982Z</time>
      </trkpt>
      <trkpt lat="47.25628" lon="-2.34095">
        <ele>3.6</ele>
        <time>2021-05-23T08:13:29.982Z</time>
      </trkpt>
      <trkpt lat="47.25629" lon="-2.34099">
        <ele>3.6</ele>
        <time>2021-05-23T08:13:30.982Z</time>
      </trkpt>
      <trkpt lat="47.2563" lon="-2.34103">
        <ele>3.6</ele>
        <time>2021-05-23T08:13:31.983Z</time>
      </trkpt>
      <trkpt lat="47.25631" lon="-2.34107">
        <ele>3.6</ele>
        <time>2021-05-23T08:13:32.982Z</time>
      </trkpt>
      <trkpt lat="47.25632" lon="-2.34111">
        <ele>3.6</ele>
        <time>2021-05-23T08:13:33.982Z</time>
      </trkpt>
      <trkpt lat="47.25632" lon="-2.34114">
        <ele>3.6</ele>
        <time>2021-05-23T08:13:34.982Z</time>
      </trkpt>
      <trkpt lat="47.25633" lon="-2.34118">
        <ele>3.6</ele>
        <time>2021-05-23T08:13:35.983Z</time>
      </trkpt>
      <trkpt lat="47.25634" lon="-2.3412">
        <ele>3.6</ele>
        <time>2021-05-23T08:13:36.983Z</time>
      </trkpt>
      <trkpt lat="47.25636" lon="-2.34124">
        <ele>3.6</ele>
        <time>2021-05-23T08:13:37.982Z</time>
      </trkpt>
      <trkpt lat="47.25637" lon="-2.34127">
        <ele>3.6</ele>
        <time>2021-05-23T08:13:38.983Z</time>
      </trkpt>
      <trkpt lat="47.25638" lon="-2.3413">
        <ele>3.6</ele>
        <time>2021-05-23T08:13:39.983Z</time>
      </trkpt>
      <trkpt lat="47.25639" lon="-2.34133">
        <ele>3.5</ele>
        <time>2021-05-23T08:13:40.983Z</time>
      </trkpt>
      <trkpt lat="47.2564" lon="-2.34137">
        <ele>1</ele>
        <time>2021-05-23T08:13:41.982Z</time>
      </trkpt>
      <trkpt lat="47.25641" lon="-2.34141">
        <ele>1</ele>
        <time>2021-05-23T08:13:42.982Z</time>
      </trkpt>
      <trkpt lat="47.25643" lon="-2.34144">
        <ele>1</ele>
        <time>2021-05-23T08:13:43.982Z</time>
      </trkpt>
      <trkpt lat="47.25644" lon="-2.34147">
        <ele>2</ele>
        <time>2021-05-23T08:13:44.982Z</time>
      </trkpt>
      <trkpt lat="47.25646" lon="-2.34151">
        <ele>2</ele>
        <time>2021-05-23T08:13:45.983Z</time>
      </trkpt>
      <trkpt lat="47.25648" lon="-2.34155">
        <ele>2</ele>
        <time>2021-05-23T08:13:46.983Z</time>
      </trkpt>
      <trkpt lat="47.2565" lon="-2.34158">
        <ele>3</ele>
        <time>2021-05-23T08:13:47.983Z</time>
      </trkpt>
      <trkpt lat="47.25651" lon="-2.34162">
        <ele>3</ele>
        <time>2021-05-23T08:13:48.982Z</time>
      </trkpt>
      <trkpt lat="47.25653" lon="-2.34165">
        <ele>4</ele>
        <time>2021-05-23T08:13:49.983Z</time>
      </trkpt>
      <trkpt lat="47.25655" lon="-2.34168">
        <ele>4</ele>
        <time>2021-05-23T08:13:50.983Z</time>
      </trkpt>
      <trkpt lat="47.25656" lon="-2.34172">
        <ele>5</ele>
        <time>2021-05-23T08:13:51.983Z</time>
      </trkpt>
      <trkpt lat="47.25658" lon="-2.34175">
        <ele>5</ele>
        <time>2021-05-23T08:13:52.982Z</time>
      </trkpt>
      <trkpt lat="47.25659" lon="-2.34179">
        <ele>5</ele>
        <time>2021-05-23T08:13:53.982Z</time>
      </trkpt>
      <trkpt lat="47.25661" lon="-2.34182">
        <ele>4</ele>
        <time>2021-05-23T08:13:54.983Z</time>
      </trkpt>
      <trkpt lat="47.25662" lon="-2.34185">
        <ele>4</ele>
        <time>2021-05-23T08:13:55.982Z</time>
      </trkpt>
      <trkpt lat="47.25664" lon="-2.34188">
        <ele>4</ele>
        <time>2021-05-23T08:13:56.983Z</time>
      </trkpt>
      <trkpt lat="47.25665" lon="-2.3419">
        <ele>3</ele>
        <time>2021-05-23T08:13:57.983Z</time>
      </trkpt>
      <trkpt lat="47.25667" lon="-2.34193">
        <ele>3</ele>
        <time>2021-05-23T08:13:58.982Z</time>
      </trkpt>
      <trkpt lat="47.2567" lon="-2.34195">
        <ele>2</ele>
        <time>2021-05-23T08:13:59.983Z</time>
      </trkpt>
      <trkpt lat="47.25672" lon="-2.34197">
        <ele>2</ele>
        <time>2021-05-23T08:14:00.982Z</time>
      </trkpt>
      <trkpt lat="47.25675" lon="-2.34198">
        <ele>2</ele>
        <time>2021-05-23T08:14:01.983Z</time>
      </trkpt>
      <trkpt lat="47.25678" lon="-2.34199">
        <ele>2</ele>
        <time>2021-05-23T08:14:02.983Z</time>
      </trkpt>
      <trkpt lat="47.25681" lon="-2.34199">
        <ele>2</ele>
        <time>2021-05-23T08:14:03.983Z</time>
      </trkpt>
      <trkpt lat="47.25684" lon="-2.34199">
        <ele>2</ele>
        <time>2021-05-23T08:14:04.983Z</time>
      </trkpt>
      <trkpt lat="47.25686" lon="-2.34199">
        <ele>2</ele>
        <time>2021-05-23T08:14:05.983Z</time>
      </trkpt>
      <trkpt lat="47.25689" lon="-2.34199">
        <ele>2</ele>
        <time>2021-05-23T08:14:06.983Z</time>
      </trkpt>
      <trkpt lat="47.25692" lon="-2.34199">
        <ele>3</ele>
        <time>2021-05-23T08:14:07.983Z</time>
      </trkpt>
      <trkpt lat="47.25695" lon="-2.34199">
        <ele>3</ele>
        <time>2021-05-23T08:14:08.982Z</time>
      </trkpt>
      <trkpt lat="47.25698" lon="-2.34199">
        <ele>4</ele>
        <time>2021-05-23T08:14:09.983Z</time>
      </trkpt>
      <trkpt lat="47.257" lon="-2.34199">
        <ele>4</ele>
        <time>2021-05-23T08:14:10.982Z</time>
      </trkpt>
      <trkpt lat="47.25703" lon="-2.34199">
        <ele>4</ele>
        <time>2021-05-23T08:14:11.983Z</time>
      </trkpt>
      <trkpt lat="47.25706" lon="-2.34198">
        <ele>4</ele>
        <time>2021-05-23T08:14:12.982Z</time>
      </trkpt>
      <trkpt lat="47.25709" lon="-2.34197">
        <ele>4</ele>
        <time>2021-05-23T08:14:13.983Z</time>
      </trkpt>
      <trkpt lat="47.25711" lon="-2.34196">
        <ele>4</ele>
        <time>2021-05-23T08:14:14.983Z</time>
      </trkpt>
      <trkpt lat="47.25713" lon="-2.34195">
        <ele>4</ele>
        <time>2021-05-23T08:14:15.983Z</time>
      </trkpt>
      <trkpt lat="47.25716" lon="-2.34194">
        <ele>4</ele>
        <time>2021-05-23T08:14:16.983Z</time>
      </trkpt>
      <trkpt lat="47.25718" lon="-2.34193">
        <ele>4</ele>
        <time>2021-05-23T08:14:17.982Z</time>
      </trkpt>
      <trkpt lat="47.25721" lon="-2.34192">
        <ele>4</ele>
        <time>2021-05-23T08:14:18.983Z</time>
      </trkpt>
      <trkpt lat="47.25724" lon="-2.34191">
        <ele>5</ele>
        <time>2021-05-23T08:14:19.982Z</time>
      </trkpt>
      <trkpt lat="47.25727" lon="-2.34191">
        <ele>5</ele>
        <time>2021-05-23T08:14:20.983Z</time>
      </trkpt>
      <trkpt lat="47.25729" lon="-2.3419">
        <ele>4</ele>
        <time>2021-05-23T08:14:21.983Z</time>
      </trkpt>
      <trkpt lat="47.25732" lon="-2.3419">
        <ele>4</ele>
        <time>2021-05-23T08:14:22.983Z</time>
      </trkpt>
      <trkpt lat="47.25735" lon="-2.34189">
        <ele>4</ele>
        <time>2021-05-23T08:14:23.982Z</time>
      </trkpt>
      <trkpt lat="47.25737" lon="-2.34188">
        <ele>3</ele>
        <time>2021-05-23T08:14:24.982Z</time>
      </trkpt>
      <trkpt lat="47.2574" lon="-2.34187">
        <ele>3</ele>
        <time>2021-05-23T08:14:25.983Z</time>
      </trkpt>
      <trkpt lat="47.25742" lon="-2.34187">
        <ele>3</ele>
        <time>2021-05-23T08:14:26.983Z</time>
      </trkpt>
      <trkpt lat="47.25745" lon="-2.34186">
        <ele>3</ele>
        <time>2021-05-23T08:14:27.982Z</time>
      </trkpt>
      <trkpt lat="47.25748" lon="-2.34185">
        <ele>3</ele>
        <time>2021-05-23T08:14:28.983Z</time>
      </trkpt>
      <trkpt lat="47.25751" lon="-2.34184">
        <ele>3</ele>
        <time>2021-05-23T08:14:29.983Z</time>
      </trkpt>
      <trkpt lat="47.25754" lon="-2.34183">
        <ele>3</ele>
        <time>2021-05-23T08:14:30.983Z</time>
      </trkpt>
      <trkpt lat="47.25757" lon="-2.34183">
        <ele>4</ele>
        <time>2021-05-23T08:14:31.983Z</time>
      </trkpt>
      <trkpt lat="47.2576" lon="-2.34182">
        <ele>4</ele>
        <time>2021-05-23T08:14:32.982Z</time>
      </trkpt>
      <trkpt lat="47.25762" lon="-2.34181">
        <ele>4</ele>
        <time>2021-05-23T08:14:33.982Z</time>
      </trkpt>
      <trkpt lat="47.25765" lon="-2.3418">
        <ele>4</ele>
        <time>2021-05-23T08:14:34.982Z</time>
      </trkpt>
      <trkpt lat="47.25767" lon="-2.34179">
        <ele>4</ele>
        <time>2021-05-23T08:14:35.983Z</time>
      </trkpt>
      <trkpt lat="47.25769" lon="-2.34179">
        <ele>4</ele>
        <time>2021-05-23T08:14:36.983Z</time>
      </trkpt>
      <trkpt lat="47.25771" lon="-2.34178">
        <ele>4</ele>
        <time>2021-05-23T08:14:37.982Z</time>
      </trkpt>
      <trkpt lat="47.25773" lon="-2.34178">
        <ele>4</ele>
        <time>2021-05-23T08:14:38.982Z</time>
      </trkpt>
      <trkpt lat="47.25776" lon="-2.34178">
        <ele>4</ele>
        <time>2021-05-23T08:14:39.982Z</time>
      </trkpt>
      <trkpt lat="47.25778" lon="-2.34177">
        <ele>4</ele>
        <time>2021-05-23T08:14:40.983Z</time>
      </trkpt>
      <trkpt lat="47.2578" lon="-2.34177">
        <ele>5</ele>
        <time>2021-05-23T08:14:41.982Z</time>
      </trkpt>
      <trkpt lat="47.25783" lon="-2.34176">
        <ele>5</ele>
        <time>2021-05-23T08:14:42.982Z</time>
      </trkpt>
      <trkpt lat="47.25786" lon="-2.34176">
        <ele>5</ele>
        <time>2021-05-23T08:14:43.982Z</time>
      </trkpt>
      <trkpt lat="47.25788" lon="-2.34175">
        <ele>5</ele>
        <time>2021-05-23T08:14:44.982Z</time>
      </trkpt>
      <trkpt lat="47.25791" lon="-2.34175">
        <ele>5</ele>
        <time>2021-05-23T08:14:45.982Z</time>
      </trkpt>
      <trkpt lat="47.25794" lon="-2.34176">
        <ele>5</ele>
        <time>2021-05-23T08:14:46.982Z</time>
      </trkpt>
      <trkpt lat="47.25797" lon="-2.34176">
        <ele>4</ele>
        <time>2021-05-23T08:14:47.982Z</time>
      </trkpt>
      <trkpt lat="47.25799" lon="-2.34176">
        <ele>4</ele>
        <time>2021-05-23T08:14:48.982Z</time>
      </trkpt>
      <trkpt lat="47.25801" lon="-2.34176">
        <ele>4</ele>
        <time>2021-05-23T08:14:49.982Z</time>
      </trkpt>
      <trkpt lat="47.25802" lon="-2.34176">
        <ele>3</ele>
        <time>2021-05-23T08:14:50.982Z</time>
      </trkpt>
      <trkpt lat="47.25805" lon="-2.34176">
        <ele>3</ele>
        <time>2021-05-23T08:14:51.982Z</time>
      </trkpt>
      <trkpt lat="47.25807" lon="-2.34176">
        <ele>3</ele>
        <time>2021-05-23T08:14:52.982Z</time>
      </trkpt>
      <trkpt lat="47.25809" lon="-2.34177">
        <ele>4</ele>
        <time>2021-05-23T08:14:53.982Z</time>
      </trkpt>
      <trkpt lat="47.25811" lon="-2.34178">
        <ele>4</ele>
        <time>2021-05-23T08:14:54.982Z</time>
      </trkpt>
      <trkpt lat="47.25814" lon="-2.34178">
        <ele>5</ele>
        <time>2021-05-23T08:14:55.983Z</time>
      </trkpt>
      <trkpt lat="47.25816" lon="-2.34178">
        <ele>6</ele>
        <time>2021-05-23T08:14:56.983Z</time>
      </trkpt>
      <trkpt lat="47.25818" lon="-2.34179">
        <ele>7</ele>
        <time>2021-05-23T08:14:57.982Z</time>
      </trkpt>
      <trkpt lat="47.25821" lon="-2.3418">
        <ele>7</ele>
        <time>2021-05-23T08:14:58.982Z</time>
      </trkpt>
      <trkpt lat="47.25824" lon="-2.3418">
        <ele>8</ele>
        <time>2021-05-23T08:14:59.982Z</time>
      </trkpt>
      <trkpt lat="47.25826" lon="-2.34178">
        <ele>8</ele>
        <time>2021-05-23T08:15:00.982Z</time>
      </trkpt>
      <trkpt lat="47.25828" lon="-2.34176">
        <ele>8</ele>
        <time>2021-05-23T08:15:01.982Z</time>
      </trkpt>
      <trkpt lat="47.2583" lon="-2.34173">
        <ele>8</ele>
        <time>2021-05-23T08:15:02.982Z</time>
      </trkpt>
      <trkpt lat="47.25831" lon="-2.3417">
        <ele>8</ele>
        <time>2021-05-23T08:15:03.982Z</time>
      </trkpt>
      <trkpt lat="47.25833" lon="-2.34166">
        <ele>8</ele>
        <time>2021-05-23T08:15:04.982Z</time>
      </trkpt>
      <trkpt lat="47.25834" lon="-2.34163">
        <ele>8</ele>
        <time>2021-05-23T08:15:05.982Z</time>
      </trkpt>
      <trkpt lat="47.25835" lon="-2.3416">
        <ele>8</ele>
        <time>2021-05-23T08:15:06.983Z</time>
      </trkpt>
      <trkpt lat="47.25836" lon="-2.34158">
        <ele>7</ele>
        <time>2021-05-23T08:15:07.982Z</time>
      </trkpt>
      <trkpt lat="47.25838" lon="-2.34156">
        <ele>7</ele>
        <time>2021-05-23T08:15:08.983Z</time>
      </trkpt>
      <trkpt lat="47.25841" lon="-2.34156">
        <ele>7</ele>
        <time>2021-05-23T08:15:09.982Z</time>
      </trkpt>
      <trkpt lat="47.25843" lon="-2.34156">
        <ele>7</ele>
        <time>2021-05-23T08:15:10.982Z</time>
      </trkpt>
      <trkpt lat="47.25846" lon="-2.34157">
        <ele>7</ele>
        <time>2021-05-23T08:15:11.982Z</time>
      </trkpt>
      <trkpt lat="47.25849" lon="-2.34157">
        <ele>7</ele>
        <time>2021-05-23T08:15:12.982Z</time>
      </trkpt>
      <trkpt lat="47.25852" lon="-2.34158">
        <ele>8</ele>
        <time>2021-05-23T08:15:13.982Z</time>
      </trkpt>
      <trkpt lat="47.25855" lon="-2.34159">
        <ele>8</ele>
        <time>2021-05-23T08:15:14.982Z</time>
      </trkpt>
      <trkpt lat="47.25858" lon="-2.3416">
        <ele>7</ele>
        <time>2021-05-23T08:15:15.982Z</time>
      </trkpt>
      <trkpt lat="47.25861" lon="-2.34161">
        <ele>7</ele>
        <time>2021-05-23T08:15:16.982Z</time>
      </trkpt>
      <trkpt lat="47.25864" lon="-2.34164">
        <ele>8</ele>
        <time>2021-05-23T08:15:17.982Z</time>
      </trkpt>
      <trkpt lat="47.25867" lon="-2.34165">
        <ele>8</ele>
        <time>2021-05-23T08:15:18.982Z</time>
      </trkpt>
      <trkpt lat="47.25869" lon="-2.34166">
        <ele>8</ele>
        <time>2021-05-23T08:15:19.983Z</time>
      </trkpt>
      <trkpt lat="47.25872" lon="-2.34165">
        <ele>8</ele>
        <time>2021-05-23T08:15:20.982Z</time>
      </trkpt>
      <trkpt lat="47.25874" lon="-2.34164">
        <ele>7</ele>
        <time>2021-05-23T08:15:21.983Z</time>
      </trkpt>
      <trkpt lat="47.25876" lon="-2.34163">
        <ele>6</ele>
        <time>2021-05-23T08:15:22.982Z</time>
      </trkpt>
      <trkpt lat="47.25878" lon="-2.34163">
        <ele>5</ele>
        <time>2021-05-23T08:15:23.983Z</time>
      </trkpt>
      <trkpt lat="47.25881" lon="-2.34163">
        <ele>5</ele>
        <time>2021-05-23T08:15:24.983Z</time>
      </trkpt>
      <trkpt lat="47.25882" lon="-2.34162">
        <ele>4</ele>
        <time>2021-05-23T08:15:25.982Z</time>
      </trkpt>
      <trkpt lat="47.25884" lon="-2.34161">
        <ele>4</ele>
        <time>2021-05-23T08:15:26.983Z</time>
      </trkpt>
      <trkpt lat="47.25885" lon="-2.3416">
        <ele>3</ele>
        <time>2021-05-23T08:15:27.982Z</time>
      </trkpt>
      <trkpt lat="47.25886" lon="-2.34159">
        <ele>3</ele>
        <time>2021-05-23T08:15:28.982Z</time>
      </trkpt>
      <trkpt lat="47.25886" lon="-2.34158">
        <ele>2</ele>
        <time>2021-05-23T08:15:29.983Z</time>
      </trkpt>
      <trkpt lat="47.25887" lon="-2.34157">
        <ele>2</ele>
        <time>2021-05-23T08:15:30.982Z</time>
      </trkpt>
      <trkpt lat="47.25888" lon="-2.34156">
        <ele>1</ele>
        <time>2021-05-23T08:15:31.982Z</time>
      </trkpt>
      <trkpt lat="47.25888" lon="-2.34154">
        <ele>1</ele>
        <time>2021-05-23T08:15:32.983Z</time>
      </trkpt>
      <trkpt lat="47.25889" lon="-2.34153">
        <ele>1</ele>
        <time>2021-05-23T08:15:33.982Z</time>
      </trkpt>
      <trkpt lat="47.2589" lon="-2.34153">
        <ele>1</ele>
        <time>2021-05-23T08:15:34.983Z</time>
      </trkpt>
      <trkpt lat="47.25891" lon="-2.34152">
        <ele>1</ele>
        <time>2021-05-23T08:15:35.983Z</time>
      </trkpt>
      <trkpt lat="47.25892" lon="-2.34152">
        <ele>1</ele>
        <time>2021-05-23T08:15:36.982Z</time>
      </trkpt>
      <trkpt lat="47.25893" lon="-2.34152">
        <ele>1</ele>
        <time>2021-05-23T08:15:37.983Z</time>
      </trkpt>
      <trkpt lat="47.25894" lon="-2.34153">
        <ele>1</ele>
        <time>2021-05-23T08:15:38.983Z</time>
      </trkpt>
      <trkpt lat="47.25895" lon="-2.34153">
        <ele>2</ele>
        <time>2021-05-23T08:15:39.983Z</time>
      </trkpt>
      <trkpt lat="47.25896" lon="-2.34153">
        <ele>2</ele>
        <time>2021-05-23T08:15:40.983Z</time>
      </trkpt>
      <trkpt lat="47.25898" lon="-2.34154">
        <ele>2</ele>
        <time>2021-05-23T08:15:41.983Z</time>
      </trkpt>
      <trkpt lat="47.25899" lon="-2.34154">
        <ele>2</ele>
        <time>2021-05-23T08:15:42.982Z</time>
      </trkpt>
      <trkpt lat="47.259" lon="-2.34154">
        <ele>3</ele>
        <time>2021-05-23T08:15:43.983Z</time>
      </trkpt>
      <trkpt lat="47.25901" lon="-2.34154">
        <ele>3</ele>
        <time>2021-05-23T08:15:44.983Z</time>
      </trkpt>
      <trkpt lat="47.25902" lon="-2.34154">
        <ele>3</ele>
        <time>2021-05-23T08:15:45.982Z</time>
      </trkpt>
      <trkpt lat="47.25903" lon="-2.34154">
        <ele>3</ele>
        <time>2021-05-23T08:15:46.983Z</time>
      </trkpt>
      <trkpt lat="47.25905" lon="-2.34154">
        <ele>3</ele>
        <time>2021-05-23T08:15:47.983Z</time>
      </trkpt>
      <trkpt lat="47.25906" lon="-2.34154">
        <ele>3</ele>
        <time>2021-05-23T08:15:48.983Z</time>
      </trkpt>
      <trkpt lat="47.25907" lon="-2.34154">
        <ele>4</ele>
        <time>2021-05-23T08:15:49.982Z</time>
      </trkpt>
      <trkpt lat="47.25907" lon="-2.34154">
        <ele>4</ele>
        <time>2021-05-23T08:15:50.982Z</time>
      </trkpt>
      <trkpt lat="47.25907" lon="-2.34155">
        <ele>4</ele>
        <time>2021-05-23T08:15:51.983Z</time>
      </trkpt>
      <trkpt lat="47.25907" lon="-2.34155">
        <ele>4</ele>
        <time>2021-05-23T08:15:52.982Z</time>
      </trkpt>
      <trkpt lat="47.25907" lon="-2.34156">
        <ele>5</ele>
        <time>2021-05-23T08:15:53.983Z</time>
      </trkpt>
      <trkpt lat="47.25907" lon="-2.34156">
        <ele>5</ele>
        <time>2021-05-23T08:15:54.983Z</time>
      </trkpt>
      <trkpt lat="47.25908" lon="-2.34156">
        <ele>5</ele>
        <time>2021-05-23T08:15:55.983Z</time>
      </trkpt>
      <trkpt lat="47.25908" lon="-2.34157">
        <ele>5</ele>
        <time>2021-05-23T08:15:56.983Z</time>
      </trkpt>
      <trkpt lat="47.25908" lon="-2.34157">
        <ele>5</ele>
        <time>2021-05-23T08:15:57.983Z</time>
      </trkpt>
      <trkpt lat="47.25908" lon="-2.34157">
        <ele>5</ele>
        <time>2021-05-23T08:15:58.983Z</time>
      </trkpt>
      <trkpt lat="47.25907" lon="-2.34156">
        <ele>5</ele>
        <time>2021-05-23T08:15:59.983Z</time>
      </trkpt>
      <trkpt lat="47.25907" lon="-2.34156">
        <ele>5</ele>
        <time>2021-05-23T08:16:00.983Z</time>
      </trkpt>
      <trkpt lat="47.25907" lon="-2.34156">
        <ele>4</ele>
        <time>2021-05-23T08:16:01.983Z</time>
      </trkpt>
      <trkpt lat="47.25907" lon="-2.34156">
        <ele>4</ele>
        <time>2021-05-23T08:16:02.983Z</time>
      </trkpt>
      <trkpt lat="47.25907" lon="-2.34156">
        <ele>4</ele>
        <time>2021-05-23T08:16:03.983Z</time>
      </trkpt>
      <trkpt lat="47.25907" lon="-2.34156">
        <ele>4</ele>
        <time>2021-05-23T08:16:04.983Z</time>
      </trkpt>
      <trkpt lat="47.25907" lon="-2.34156">
        <ele>4</ele>
        <time>2021-05-23T08:16:05.983Z</time>
      </trkpt>
      <trkpt lat="47.25907" lon="-2.34156">
        <ele>4</ele>
        <time>2021-05-23T08:16:06.983Z</time>
      </trkpt>
      <trkpt lat="47.25907" lon="-2.34156">
        <ele>4</ele>
        <time>2021-05-23T08:16:07.983Z</time>
      </trkpt>
      <trkpt lat="47.25907" lon="-2.34156">
        <ele>4</ele>
        <time>2021-05-23T08:16:08.983Z</time>
      </trkpt>
      <trkpt lat="47.25907" lon="-2.34156">
        <ele>3</ele>
        <time>2021-05-23T08:16:09.983Z</time>
      </trkpt>
      <trkpt lat="47.25907" lon="-2.34156">
        <ele>3</ele>
        <time>2021-05-23T08:16:10.983Z</time>
      </trkpt>
      <trkpt lat="47.25907" lon="-2.34156">
        <ele>3</ele>
        <time>2021-05-23T08:16:11.983Z</time>
      </trkpt>
      <trkpt lat="47.25907" lon="-2.34156">
        <ele>3</ele>
        <time>2021-05-23T08:16:12.982Z</time>
      </trkpt>
      <trkpt lat="47.25907" lon="-2.34156">
        <ele>3</ele>
        <time>2021-05-23T08:16:13.983Z</time>
      </trkpt>
      <trkpt lat="47.25908" lon="-2.34156">
        <ele>3</ele>
        <time>2021-05-23T08:16:14.983Z</time>
      </trkpt>
      <trkpt lat="47.25909" lon="-2.34153">
        <ele>3</ele>
        <time>2021-05-23T08:16:15.982Z</time>
      </trkpt>
      <trkpt lat="47.2591" lon="-2.3415">
        <ele>3</ele>
        <time>2021-05-23T08:16:16.983Z</time>
      </trkpt>
      <trkpt lat="47.2591" lon="-2.34148">
        <ele>3</ele>
        <time>2021-05-23T08:16:17.983Z</time>
      </trkpt>
      <trkpt lat="47.25911" lon="-2.34146">
        <ele>3</ele>
        <time>2021-05-23T08:16:18.983Z</time>
      </trkpt>
      <trkpt lat="47.25912" lon="-2.34145">
        <ele>3</ele>
        <time>2021-05-23T08:16:19.983Z</time>
      </trkpt>
      <trkpt lat="47.25913" lon="-2.34143">
        <ele>4</ele>
        <time>2021-05-23T08:16:20.983Z</time>
      </trkpt>
      <trkpt lat="47.25915" lon="-2.34142">
        <ele>4</ele>
        <time>2021-05-23T08:16:21.983Z</time>
      </trkpt>
      <trkpt lat="47.25917" lon="-2.3414">
        <ele>4</ele>
        <time>2021-05-23T08:16:22.983Z</time>
      </trkpt>
      <trkpt lat="47.25918" lon="-2.34139">
        <ele>3</ele>
        <time>2021-05-23T08:16:23.983Z</time>
      </trkpt>
      <trkpt lat="47.25919" lon="-2.34138">
        <ele>3</ele>
        <time>2021-05-23T08:16:24.982Z</time>
      </trkpt>
      <trkpt lat="47.25921" lon="-2.34137">
        <ele>2</ele>
        <time>2021-05-23T08:16:25.983Z</time>
      </trkpt>
      <trkpt lat="47.25922" lon="-2.34136">
        <ele>2</ele>
        <time>2021-05-23T08:16:26.983Z</time>
      </trkpt>
      <trkpt lat="47.25925" lon="-2.34135">
        <ele>2</ele>
        <time>2021-05-23T08:16:27.982Z</time>
      </trkpt>
      <trkpt lat="47.25926" lon="-2.34135">
        <ele>1</ele>
        <time>2021-05-23T08:16:28.982Z</time>
      </trkpt>
      <trkpt lat="47.25928" lon="-2.34134">
        <ele>1</ele>
        <time>2021-05-23T08:16:29.983Z</time>
      </trkpt>
      <trkpt lat="47.25929" lon="-2.34133">
        <ele>1</ele>
        <time>2021-05-23T08:16:30.983Z</time>
      </trkpt>
      <trkpt lat="47.25931" lon="-2.34132">
        <ele>1</ele>
        <time>2021-05-23T08:16:31.983Z</time>
      </trkpt>
      <trkpt lat="47.25932" lon="-2.34131">
        <ele>1</ele>
        <time>2021-05-23T08:16:32.983Z</time>
      </trkpt>
      <trkpt lat="47.25933" lon="-2.34131">
        <ele>1</ele>
        <time>2021-05-23T08:16:33.983Z</time>
      </trkpt>
      <trkpt lat="47.25934" lon="-2.34129">
        <ele>1</ele>
        <time>2021-05-23T08:16:34.983Z</time>
      </trkpt>
      <trkpt lat="47.25935" lon="-2.34129">
        <ele>2</ele>
        <time>2021-05-23T08:16:35.983Z</time>
      </trkpt>
      <trkpt lat="47.25937" lon="-2.34127">
        <ele>2</ele>
        <time>2021-05-23T08:16:36.983Z</time>
      </trkpt>
      <trkpt lat="47.25938" lon="-2.34126">
        <ele>2</ele>
        <time>2021-05-23T08:16:37.983Z</time>
      </trkpt>
      <trkpt lat="47.25939" lon="-2.34124">
        <ele>3</ele>
        <time>2021-05-23T08:16:38.983Z</time>
      </trkpt>
      <trkpt lat="47.2594" lon="-2.34123">
        <ele>3</ele>
        <time>2021-05-23T08:16:39.983Z</time>
      </trkpt>
      <trkpt lat="47.2594" lon="-2.34122">
        <ele>3</ele>
        <time>2021-05-23T08:16:40.983Z</time>
      </trkpt>
      <trkpt lat="47.25941" lon="-2.34121">
        <ele>3</ele>
        <time>2021-05-23T08:16:41.983Z</time>
      </trkpt>
      <trkpt lat="47.25943" lon="-2.3412">
        <ele>3</ele>
        <time>2021-05-23T08:16:42.982Z</time>
      </trkpt>
      <trkpt lat="47.25944" lon="-2.34119">
        <ele>3</ele>
        <time>2021-05-23T08:16:43.982Z</time>
      </trkpt>
      <trkpt lat="47.25945" lon="-2.34119">
        <ele>3</ele>
        <time>2021-05-23T08:16:44.982Z</time>
      </trkpt>
      <trkpt lat="47.25947" lon="-2.34118">
        <ele>3</ele>
        <time>2021-05-23T08:16:45.983Z</time>
      </trkpt>
      <trkpt lat="47.25948" lon="-2.34117">
        <ele>3</ele>
        <time>2021-05-23T08:16:46.983Z</time>
      </trkpt>
      <trkpt lat="47.25949" lon="-2.34116">
        <ele>3</ele>
        <time>2021-05-23T08:16:47.983Z</time>
      </trkpt>
      <trkpt lat="47.25951" lon="-2.34115">
        <ele>3</ele>
        <time>2021-05-23T08:16:48.983Z</time>
      </trkpt>
      <trkpt lat="47.25952" lon="-2.34114">
        <ele>3</ele>
        <time>2021-05-23T08:16:49.983Z</time>
      </trkpt>
      <trkpt lat="47.25953" lon="-2.34114">
        <ele>3</ele>
        <time>2021-05-23T08:16:50.983Z</time>
      </trkpt>
      <trkpt lat="47.25955" lon="-2.34113">
        <ele>3</ele>
        <time>2021-05-23T08:16:51.983Z</time>
      </trkpt>
      <trkpt lat="47.25956" lon="-2.34112">
        <ele>3</ele>
        <time>2021-05-23T08:16:52.982Z</time>
      </trkpt>
      <trkpt lat="47.25957" lon="-2.34111">
        <ele>3</ele>
        <time>2021-05-23T08:16:53.982Z</time>
      </trkpt>
      <trkpt lat="47.25958" lon="-2.3411">
        <ele>3</ele>
        <time>2021-05-23T08:16:54.983Z</time>
      </trkpt>
      <trkpt lat="47.25959" lon="-2.3411">
        <ele>3</ele>
        <time>2021-05-23T08:16:55.983Z</time>
      </trkpt>
      <trkpt lat="47.2596" lon="-2.3411">
        <ele>4</ele>
        <time>2021-05-23T08:16:56.983Z</time>
      </trkpt>
      <trkpt lat="47.25961" lon="-2.3411">
        <ele>4</ele>
        <time>2021-05-23T08:16:57.983Z</time>
      </trkpt>
      <trkpt lat="47.25963" lon="-2.3411">
        <ele>3</ele>
        <time>2021-05-23T08:16:58.983Z</time>
      </trkpt>
      <trkpt lat="47.25964" lon="-2.3411">
        <ele>3</ele>
        <time>2021-05-23T08:16:59.983Z</time>
      </trkpt>
      <trkpt lat="47.25965" lon="-2.3411">
        <ele>3</ele>
        <time>2021-05-23T08:17:00.983Z</time>
      </trkpt>
      <trkpt lat="47.25967" lon="-2.3411">
        <ele>3</ele>
        <time>2021-05-23T08:17:01.982Z</time>
      </trkpt>
      <trkpt lat="47.25968" lon="-2.34111">
        <ele>3</ele>
        <time>2021-05-23T08:17:02.983Z</time>
      </trkpt>
      <trkpt lat="47.25969" lon="-2.34111">
        <ele>3</ele>
        <time>2021-05-23T08:17:03.983Z</time>
      </trkpt>
      <trkpt lat="47.25971" lon="-2.3411">
        <ele>3</ele>
        <time>2021-05-23T08:17:04.983Z</time>
      </trkpt>
      <trkpt lat="47.25972" lon="-2.34111">
        <ele>3</ele>
        <time>2021-05-23T08:17:05.982Z</time>
      </trkpt>
      <trkpt lat="47.25973" lon="-2.34111">
        <ele>3</ele>
        <time>2021-05-23T08:17:06.983Z</time>
      </trkpt>
      <trkpt lat="47.25975" lon="-2.34111">
        <ele>3</ele>
        <time>2021-05-23T08:17:07.983Z</time>
      </trkpt>
      <trkpt lat="47.25976" lon="-2.34111">
        <ele>3</ele>
        <time>2021-05-23T08:17:08.983Z</time>
      </trkpt>
      <trkpt lat="47.25978" lon="-2.34112">
        <ele>3</ele>
        <time>2021-05-23T08:17:09.983Z</time>
      </trkpt>
      <trkpt lat="47.25979" lon="-2.34113">
        <ele>4</ele>
        <time>2021-05-23T08:17:10.983Z</time>
      </trkpt>
      <trkpt lat="47.2598" lon="-2.34113">
        <ele>4</ele>
        <time>2021-05-23T08:17:11.983Z</time>
      </trkpt>
      <trkpt lat="47.25982" lon="-2.34113">
        <ele>3</ele>
        <time>2021-05-23T08:17:12.982Z</time>
      </trkpt>
      <trkpt lat="47.25983" lon="-2.34114">
        <ele>3</ele>
        <time>2021-05-23T08:17:13.983Z</time>
      </trkpt>
      <trkpt lat="47.25985" lon="-2.34114">
        <ele>3</ele>
        <time>2021-05-23T08:17:14.982Z</time>
      </trkpt>
      <trkpt lat="47.25986" lon="-2.34114">
        <ele>3</ele>
        <time>2021-05-23T08:17:15.982Z</time>
      </trkpt>
      <trkpt lat="47.25988" lon="-2.34114">
        <ele>3</ele>
        <time>2021-05-23T08:17:16.983Z</time>
      </trkpt>
      <trkpt lat="47.25989" lon="-2.34114">
        <ele>3</ele>
        <time>2021-05-23T08:17:17.982Z</time>
      </trkpt>
      <trkpt lat="47.2599" lon="-2.34114">
        <ele>3</ele>
        <time>2021-05-23T08:17:18.982Z</time>
      </trkpt>
      <trkpt lat="47.25991" lon="-2.34114">
        <ele>3</ele>
        <time>2021-05-23T08:17:19.983Z</time>
      </trkpt>
      <trkpt lat="47.25993" lon="-2.34115">
        <ele>2</ele>
        <time>2021-05-23T08:17:20.983Z</time>
      </trkpt>
      <trkpt lat="47.25994" lon="-2.34116">
        <ele>2</ele>
        <time>2021-05-23T08:17:21.983Z</time>
      </trkpt>
      <trkpt lat="47.25995" lon="-2.34116">
        <ele>2</ele>
        <time>2021-05-23T08:17:22.983Z</time>
      </trkpt>
      <trkpt lat="47.25997" lon="-2.34117">
        <ele>2</ele>
        <time>2021-05-23T08:17:23.983Z</time>
      </trkpt>
      <trkpt lat="47.25998" lon="-2.34118">
        <ele>1</ele>
        <time>2021-05-23T08:17:24.982Z</time>
      </trkpt>
      <trkpt lat="47.26" lon="-2.34118">
        <ele>1</ele>
        <time>2021-05-23T08:17:25.983Z</time>
      </trkpt>
      <trkpt lat="47.26001" lon="-2.34119">
        <ele>4.8</ele>
        <time>2021-05-23T08:17:26.983Z</time>
      </trkpt>
      <trkpt lat="47.26002" lon="-2.34119">
        <ele>4.8</ele>
        <time>2021-05-23T08:17:27.982Z</time>
      </trkpt>
      <trkpt lat="47.26003" lon="-2.3412">
        <ele>4.8</ele>
        <time>2021-05-23T08:17:28.983Z</time>
      </trkpt>
      <trkpt lat="47.26005" lon="-2.3412">
        <ele>4.8</ele>
        <time>2021-05-23T08:17:29.983Z</time>
      </trkpt>
      <trkpt lat="47.26006" lon="-2.34121">
        <ele>4.8</ele>
        <time>2021-05-23T08:17:30.983Z</time>
      </trkpt>
      <trkpt lat="47.26007" lon="-2.34121">
        <ele>4.9</ele>
        <time>2021-05-23T08:17:31.982Z</time>
      </trkpt>
      <trkpt lat="47.26008" lon="-2.34122">
        <ele>4.9</ele>
        <time>2021-05-23T08:17:32.983Z</time>
      </trkpt>
      <trkpt lat="47.2601" lon="-2.34122">
        <ele>4.9</ele>
        <time>2021-05-23T08:17:33.983Z</time>
      </trkpt>
      <trkpt lat="47.26011" lon="-2.34122">
        <ele>4.9</ele>
        <time>2021-05-23T08:17:34.983Z</time>
      </trkpt>
      <trkpt lat="47.26012" lon="-2.34123">
        <ele>4.9</ele>
        <time>2021-05-23T08:17:35.983Z</time>
      </trkpt>
      <trkpt lat="47.26014" lon="-2.34124">
        <ele>5</ele>
        <time>2021-05-23T08:17:36.983Z</time>
      </trkpt>
      <trkpt lat="47.26015" lon="-2.34125">
        <ele>5</ele>
        <time>2021-05-23T08:17:37.982Z</time>
      </trkpt>
      <trkpt lat="47.26016" lon="-2.34126">
        <ele>5</ele>
        <time>2021-05-23T08:17:38.983Z</time>
      </trkpt>
      <trkpt lat="47.26018" lon="-2.34126">
        <ele>5</ele>
        <time>2021-05-23T08:17:39.983Z</time>
      </trkpt>
      <trkpt lat="47.26019" lon="-2.34126">
        <ele>5</ele>
        <time>2021-05-23T08:17:40.983Z</time>
      </trkpt>
      <trkpt lat="47.2602" lon="-2.34127">
        <ele>5.1</ele>
        <time>2021-05-23T08:17:41.983Z</time>
      </trkpt>
      <trkpt lat="47.26022" lon="-2.34127">
        <ele>5.1</ele>
        <time>2021-05-23T08:17:42.982Z</time>
      </trkpt>
      <trkpt lat="47.26023" lon="-2.34127">
        <ele>5.1</ele>
        <time>2021-05-23T08:17:43.983Z</time>
      </trkpt>
      <trkpt lat="47.26024" lon="-2.34128">
        <ele>5.1</ele>
        <time>2021-05-23T08:17:44.983Z</time>
      </trkpt>
      <trkpt lat="47.26026" lon="-2.34128">
        <ele>5.2</ele>
        <time>2021-05-23T08:17:45.982Z</time>
      </trkpt>
      <trkpt lat="47.26027" lon="-2.34128">
        <ele>5.2</ele>
        <time>2021-05-23T08:17:46.983Z</time>
      </trkpt>
      <trkpt lat="47.26029" lon="-2.34128">
        <ele>1</ele>
        <time>2021-05-23T08:17:47.982Z</time>
      </trkpt>
      <trkpt lat="47.26031" lon="-2.34128">
        <ele>1</ele>
        <time>2021-05-23T08:17:48.983Z</time>
      </trkpt>
      <trkpt lat="47.26033" lon="-2.34127">
        <ele>2</ele>
        <time>2021-05-23T08:17:49.982Z</time>
      </trkpt>
      <trkpt lat="47.26034" lon="-2.34126">
        <ele>3</ele>
        <time>2021-05-23T08:17:50.982Z</time>
      </trkpt>
      <trkpt lat="47.26034" lon="-2.34125">
        <ele>3</ele>
        <time>2021-05-23T08:17:51.983Z</time>
      </trkpt>
      <trkpt lat="47.26033" lon="-2.34124">
        <ele>4</ele>
        <time>2021-05-23T08:17:52.983Z</time>
      </trkpt>
      <trkpt lat="47.26032" lon="-2.34123">
        <ele>4</ele>
        <time>2021-05-23T08:17:53.982Z</time>
      </trkpt>
      <trkpt lat="47.26032" lon="-2.34121">
        <ele>5</ele>
        <time>2021-05-23T08:17:54.983Z</time>
      </trkpt>
      <trkpt lat="47.26032" lon="-2.3412">
        <ele>5</ele>
        <time>2021-05-23T08:17:55.982Z</time>
      </trkpt>
      <trkpt lat="47.26033" lon="-2.34119">
        <ele>5</ele>
        <time>2021-05-23T08:17:56.983Z</time>
      </trkpt>
      <trkpt lat="47.26033" lon="-2.34118">
        <ele>5</ele>
        <time>2021-05-23T08:17:57.983Z</time>
      </trkpt>
      <trkpt lat="47.26033" lon="-2.34116">
        <ele>5</ele>
        <time>2021-05-23T08:17:58.983Z</time>
      </trkpt>
      <trkpt lat="47.26034" lon="-2.34115">
        <ele>6</ele>
        <time>2021-05-23T08:17:59.982Z</time>
      </trkpt>
      <trkpt lat="47.26034" lon="-2.34113">
        <ele>6</ele>
        <time>2021-05-23T08:18:00.983Z</time>
      </trkpt>
      <trkpt lat="47.26033" lon="-2.34112">
        <ele>6</ele>
        <time>2021-05-23T08:18:01.983Z</time>
      </trkpt>
      <trkpt lat="47.26034" lon="-2.34111">
        <ele>6</ele>
        <time>2021-05-23T08:18:02.983Z</time>
      </trkpt>
      <trkpt lat="47.26034" lon="-2.3411">
        <ele>6</ele>
        <time>2021-05-23T08:18:03.982Z</time>
      </trkpt>
      <trkpt lat="47.26035" lon="-2.34108">
        <ele>7</ele>
        <time>2021-05-23T08:18:04.983Z</time>
      </trkpt>
      <trkpt lat="47.26035" lon="-2.34107">
        <ele>7</ele>
        <time>2021-05-23T08:18:05.983Z</time>
      </trkpt>
      <trkpt lat="47.26035" lon="-2.34106">
        <ele>7</ele>
        <time>2021-05-23T08:18:06.982Z</time>
      </trkpt>
      <trkpt lat="47.26036" lon="-2.34105">
        <ele>7</ele>
        <time>2021-05-23T08:18:07.983Z</time>
      </trkpt>
      <trkpt lat="47.26037" lon="-2.34104">
        <ele>7</ele>
        <time>2021-05-23T08:18:08.983Z</time>
      </trkpt>
      <trkpt lat="47.26039" lon="-2.34104">
        <ele>7</ele>
        <time>2021-05-23T08:18:09.983Z</time>
      </trkpt>
      <trkpt lat="47.26041" lon="-2.34103">
        <ele>7</ele>
        <time>2021-05-23T08:18:10.983Z</time>
      </trkpt>
      <trkpt lat="47.26042" lon="-2.34102">
        <ele>7</ele>
        <time>2021-05-23T08:18:11.983Z</time>
      </trkpt>
      <trkpt lat="47.26044" lon="-2.34101">
        <ele>7</ele>
        <time>2021-05-23T08:18:12.983Z</time>
      </trkpt>
      <trkpt lat="47.26045" lon="-2.341">
        <ele>6</ele>
        <time>2021-05-23T08:18:13.982Z</time>
      </trkpt>
      <trkpt lat="47.26047" lon="-2.34099">
        <ele>6</ele>
        <time>2021-05-23T08:18:14.983Z</time>
      </trkpt>
      <trkpt lat="47.26049" lon="-2.34098">
        <ele>6</ele>
        <time>2021-05-23T08:18:15.982Z</time>
      </trkpt>
      <trkpt lat="47.26049" lon="-2.34096">
        <ele>5</ele>
        <time>2021-05-23T08:18:16.982Z</time>
      </trkpt>
      <trkpt lat="47.2605" lon="-2.34094">
        <ele>5</ele>
        <time>2021-05-23T08:18:17.983Z</time>
      </trkpt>
      <trkpt lat="47.2605" lon="-2.34092">
        <ele>4</ele>
        <time>2021-05-23T08:18:18.982Z</time>
      </trkpt>
      <trkpt lat="47.26051" lon="-2.3409">
        <ele>4</ele>
        <time>2021-05-23T08:18:19.983Z</time>
      </trkpt>
      <trkpt lat="47.26052" lon="-2.34087">
        <ele>4</ele>
        <time>2021-05-23T08:18:20.982Z</time>
      </trkpt>
      <trkpt lat="47.26052" lon="-2.34086">
        <ele>4</ele>
        <time>2021-05-23T08:18:21.983Z</time>
      </trkpt>
      <trkpt lat="47.26053" lon="-2.34084">
        <ele>4</ele>
        <time>2021-05-23T08:18:22.983Z</time>
      </trkpt>
      <trkpt lat="47.26052" lon="-2.34082">
        <ele>3</ele>
        <time>2021-05-23T08:18:23.982Z</time>
      </trkpt>
      <trkpt lat="47.26052" lon="-2.3408">
        <ele>3</ele>
        <time>2021-05-23T08:18:24.983Z</time>
      </trkpt>
      <trkpt lat="47.26051" lon="-2.34077">
        <ele>3</ele>
        <time>2021-05-23T08:18:25.982Z</time>
      </trkpt>
      <trkpt lat="47.26051" lon="-2.34075">
        <ele>3</ele>
        <time>2021-05-23T08:18:26.983Z</time>
      </trkpt>
      <trkpt lat="47.26052" lon="-2.34073">
        <ele>2</ele>
        <time>2021-05-23T08:18:27.983Z</time>
      </trkpt>
      <trkpt lat="47.26053" lon="-2.34071">
        <ele>2</ele>
        <time>2021-05-23T08:18:28.982Z</time>
      </trkpt>
      <trkpt lat="47.26054" lon="-2.34068">
        <ele>2</ele>
        <time>2021-05-23T08:18:29.983Z</time>
      </trkpt>
      <trkpt lat="47.26055" lon="-2.34066">
        <ele>2</ele>
        <time>2021-05-23T08:18:30.983Z</time>
      </trkpt>
      <trkpt lat="47.26056" lon="-2.34064">
        <ele>2</ele>
        <time>2021-05-23T08:18:31.983Z</time>
      </trkpt>
      <trkpt lat="47.26056" lon="-2.34061">
        <ele>2</ele>
        <time>2021-05-23T08:18:32.983Z</time>
      </trkpt>
      <trkpt lat="47.26056" lon="-2.34058">
        <ele>3</ele>
        <time>2021-05-23T08:18:33.983Z</time>
      </trkpt>
      <trkpt lat="47.26056" lon="-2.34056">
        <ele>3</ele>
        <time>2021-05-23T08:18:34.983Z</time>
      </trkpt>
      <trkpt lat="47.26056" lon="-2.34054">
        <ele>2</ele>
        <time>2021-05-23T08:18:35.983Z</time>
      </trkpt>
      <trkpt lat="47.26056" lon="-2.34052">
        <ele>2</ele>
        <time>2021-05-23T08:18:36.983Z</time>
      </trkpt>
      <trkpt lat="47.26056" lon="-2.34049">
        <ele>2</ele>
        <time>2021-05-23T08:18:37.982Z</time>
      </trkpt>
      <trkpt lat="47.26057" lon="-2.34047">
        <ele>2</ele>
        <time>2021-05-23T08:18:38.983Z</time>
      </trkpt>
      <trkpt lat="47.26057" lon="-2.34045">
        <ele>2</ele>
        <time>2021-05-23T08:18:39.983Z</time>
      </trkpt>
      <trkpt lat="47.26057" lon="-2.34042">
        <ele>2</ele>
        <time>2021-05-23T08:18:40.983Z</time>
      </trkpt>
      <trkpt lat="47.26057" lon="-2.3404">
        <ele>2</ele>
        <time>2021-05-23T08:18:41.982Z</time>
      </trkpt>
      <trkpt lat="47.26058" lon="-2.34038">
        <ele>2</ele>
        <time>2021-05-23T08:18:42.983Z</time>
      </trkpt>
      <trkpt lat="47.26058" lon="-2.34036">
        <ele>2</ele>
        <time>2021-05-23T08:18:43.983Z</time>
      </trkpt>
      <trkpt lat="47.26058" lon="-2.34034">
        <ele>2</ele>
        <time>2021-05-23T08:18:44.983Z</time>
      </trkpt>
      <trkpt lat="47.26059" lon="-2.34032">
        <ele>2</ele>
        <time>2021-05-23T08:18:45.982Z</time>
      </trkpt>
      <trkpt lat="47.26059" lon="-2.34031">
        <ele>2</ele>
        <time>2021-05-23T08:18:46.982Z</time>
      </trkpt>
      <trkpt lat="47.2606" lon="-2.34029">
        <ele>2</ele>
        <time>2021-05-23T08:18:47.983Z</time>
      </trkpt>
      <trkpt lat="47.2606" lon="-2.34028">
        <ele>2</ele>
        <time>2021-05-23T08:18:48.983Z</time>
      </trkpt>
      <trkpt lat="47.26062" lon="-2.34026">
        <ele>2</ele>
        <time>2021-05-23T08:18:49.983Z</time>
      </trkpt>
      <trkpt lat="47.26063" lon="-2.34024">
        <ele>1</ele>
        <time>2021-05-23T08:18:50.982Z</time>
      </trkpt>
      <trkpt lat="47.26064" lon="-2.34021">
        <ele>1</ele>
        <time>2021-05-23T08:18:51.983Z</time>
      </trkpt>
      <trkpt lat="47.26064" lon="-2.34018">
        <ele>2</ele>
        <time>2021-05-23T08:18:52.982Z</time>
      </trkpt>
      <trkpt lat="47.26064" lon="-2.34016">
        <ele>2</ele>
        <time>2021-05-23T08:18:53.983Z</time>
      </trkpt>
      <trkpt lat="47.26065" lon="-2.34015">
        <ele>2</ele>
        <time>2021-05-23T08:18:54.982Z</time>
      </trkpt>
      <trkpt lat="47.26065" lon="-2.34014">
        <ele>2</ele>
        <time>2021-05-23T08:18:55.983Z</time>
      </trkpt>
      <trkpt lat="47.26065" lon="-2.34013">
        <ele>2</ele>
        <time>2021-05-23T08:18:56.982Z</time>
      </trkpt>
      <trkpt lat="47.26065" lon="-2.34011">
        <ele>2</ele>
        <time>2021-05-23T08:18:57.983Z</time>
      </trkpt>
      <trkpt lat="47.26065" lon="-2.34009">
        <ele>1</ele>
        <time>2021-05-23T08:18:58.982Z</time>
      </trkpt>
      <trkpt lat="47.26065" lon="-2.34007">
        <ele>1</ele>
        <time>2021-05-23T08:18:59.982Z</time>
      </trkpt>
      <trkpt lat="47.26065" lon="-2.34005">
        <ele>7.6</ele>
        <time>2021-05-23T08:19:00.982Z</time>
      </trkpt>
      <trkpt lat="47.26065" lon="-2.34003">
        <ele>7.6</ele>
        <time>2021-05-23T08:19:01.983Z</time>
      </trkpt>
      <trkpt lat="47.26065" lon="-2.34001">
        <ele>7.6</ele>
        <time>2021-05-23T08:19:02.983Z</time>
      </trkpt>
      <trkpt lat="47.26065" lon="-2.33999">
        <ele>7.5</ele>
        <time>2021-05-23T08:19:03.983Z</time>
      </trkpt>
      <trkpt lat="47.26065" lon="-2.33997">
        <ele>7.4</ele>
        <time>2021-05-23T08:19:04.983Z</time>
      </trkpt>
      <trkpt lat="47.26065" lon="-2.33995">
        <ele>7.3</ele>
        <time>2021-05-23T08:19:05.983Z</time>
      </trkpt>
      <trkpt lat="47.26065" lon="-2.33992">
        <ele>7.2</ele>
        <time>2021-05-23T08:19:06.982Z</time>
      </trkpt>
      <trkpt lat="47.26066" lon="-2.3399">
        <ele>7.1</ele>
        <time>2021-05-23T08:19:07.983Z</time>
      </trkpt>
      <trkpt lat="47.26067" lon="-2.33988">
        <ele>7.1</ele>
        <time>2021-05-23T08:19:08.983Z</time>
      </trkpt>
      <trkpt lat="47.26068" lon="-2.33986">
        <ele>7</ele>
        <time>2021-05-23T08:19:09.983Z</time>
      </trkpt>
      <trkpt lat="47.26069" lon="-2.33985">
        <ele>-1</ele>
        <time>2021-05-23T08:19:10.983Z</time>
      </trkpt>
      <trkpt lat="47.2607" lon="-2.33982">
        <ele>-1</ele>
        <time>2021-05-23T08:19:11.983Z</time>
      </trkpt>
      <trkpt lat="47.2607" lon="-2.3398">
        <ele>-1</ele>
        <time>2021-05-23T08:19:12.983Z</time>
      </trkpt>
      <trkpt lat="47.26071" lon="-2.33978">
        <ele>-1</ele>
        <time>2021-05-23T08:19:13.983Z</time>
      </trkpt>
      <trkpt lat="47.26071" lon="-2.33976">
        <ele>-1</ele>
        <time>2021-05-23T08:19:14.982Z</time>
      </trkpt>
      <trkpt lat="47.26071" lon="-2.33973">
        <ele>-1</ele>
        <time>2021-05-23T08:19:15.983Z</time>
      </trkpt>
      <trkpt lat="47.26071" lon="-2.3397">
        <ele>-1</ele>
        <time>2021-05-23T08:19:16.983Z</time>
      </trkpt>
      <trkpt lat="47.2607" lon="-2.33967">
        <ele>-2</ele>
        <time>2021-05-23T08:19:17.983Z</time>
      </trkpt>
      <trkpt lat="47.2607" lon="-2.33965">
        <ele>6.1</ele>
        <time>2021-05-23T08:19:18.982Z</time>
      </trkpt>
      <trkpt lat="47.26071" lon="-2.33964">
        <ele>6.1</ele>
        <time>2021-05-23T08:19:19.983Z</time>
      </trkpt>
      <trkpt lat="47.26071" lon="-2.33962">
        <ele>6</ele>
        <time>2021-05-23T08:19:20.982Z</time>
      </trkpt>
      <trkpt lat="47.26071" lon="-2.3396">
        <ele>5.9</ele>
        <time>2021-05-23T08:19:21.983Z</time>
      </trkpt>
      <trkpt lat="47.26071" lon="-2.33958">
        <ele>5.8</ele>
        <time>2021-05-23T08:19:22.983Z</time>
      </trkpt>
      <trkpt lat="47.26072" lon="-2.33956">
        <ele>5.8</ele>
        <time>2021-05-23T08:19:23.982Z</time>
      </trkpt>
      <trkpt lat="47.26072" lon="-2.33956">
        <ele>5.7</ele>
        <time>2021-05-23T08:19:24.983Z</time>
      </trkpt>
      <trkpt lat="47.26072" lon="-2.33954">
        <ele>5.7</ele>
        <time>2021-05-23T08:19:25.982Z</time>
      </trkpt>
      <trkpt lat="47.26073" lon="-2.33952">
        <ele>5.6</ele>
        <time>2021-05-23T08:19:26.982Z</time>
      </trkpt>
      <trkpt lat="47.26073" lon="-2.33949">
        <ele>1</ele>
        <time>2021-05-23T08:19:27.982Z</time>
      </trkpt>
      <trkpt lat="47.26073" lon="-2.33947">
        <ele>1</ele>
        <time>2021-05-23T08:19:28.983Z</time>
      </trkpt>
      <trkpt lat="47.26074" lon="-2.33943">
        <ele>1</ele>
        <time>2021-05-23T08:19:29.982Z</time>
      </trkpt>
      <trkpt lat="47.26076" lon="-2.3394">
        <ele>2</ele>
        <time>2021-05-23T08:19:30.982Z</time>
      </trkpt>
      <trkpt lat="47.26072" lon="-2.33936">
        <ele>2</ele>
        <time>2021-05-23T08:19:31.983Z</time>
      </trkpt>
      <trkpt lat="47.26067" lon="-2.33933">
        <ele>2</ele>
        <time>2021-05-23T08:19:32.983Z</time>
      </trkpt>
      <trkpt lat="47.26065" lon="-2.33931">
        <ele>2</ele>
        <time>2021-05-23T08:19:33.983Z</time>
      </trkpt>
      <trkpt lat="47.26063" lon="-2.33929">
        <ele>2</ele>
        <time>2021-05-23T08:19:34.983Z</time>
      </trkpt>
      <trkpt lat="47.26063" lon="-2.33926">
        <ele>1</ele>
        <time>2021-05-23T08:19:35.983Z</time>
      </trkpt>
      <trkpt lat="47.26063" lon="-2.33925">
        <ele>1</ele>
        <time>2021-05-23T08:19:36.983Z</time>
      </trkpt>
      <trkpt lat="47.26063" lon="-2.33923">
        <ele>4.3</ele>
        <time>2021-05-23T08:19:37.983Z</time>
      </trkpt>
      <trkpt lat="47.26063" lon="-2.33921">
        <ele>4.2</ele>
        <time>2021-05-23T08:19:38.982Z</time>
      </trkpt>
      <trkpt lat="47.26063" lon="-2.33919">
        <ele>4.1</ele>
        <time>2021-05-23T08:19:39.983Z</time>
      </trkpt>
      <trkpt lat="47.26064" lon="-2.33917">
        <ele>4</ele>
        <time>2021-05-23T08:19:40.983Z</time>
      </trkpt>
      <trkpt lat="47.26064" lon="-2.33915">
        <ele>4</ele>
        <time>2021-05-23T08:19:41.983Z</time>
      </trkpt>
      <trkpt lat="47.26065" lon="-2.33914">
        <ele>4</ele>
        <time>2021-05-23T08:19:42.983Z</time>
      </trkpt>
      <trkpt lat="47.26066" lon="-2.33912">
        <ele>4</ele>
        <time>2021-05-23T08:19:43.983Z</time>
      </trkpt>
      <trkpt lat="47.26067" lon="-2.33911">
        <ele>4</ele>
        <time>2021-05-23T08:19:44.982Z</time>
      </trkpt>
      <trkpt lat="47.26067" lon="-2.33909">
        <ele>-1</ele>
        <time>2021-05-23T08:19:45.983Z</time>
      </trkpt>
      <trkpt lat="47.26068" lon="-2.33907">
        <ele>4</ele>
        <time>2021-05-23T08:19:46.983Z</time>
      </trkpt>
      <trkpt lat="47.26069" lon="-2.33905">
        <ele>4</ele>
        <time>2021-05-23T08:19:47.982Z</time>
      </trkpt>
      <trkpt lat="47.26069" lon="-2.33903">
        <ele>4</ele>
        <time>2021-05-23T08:19:48.982Z</time>
      </trkpt>
      <trkpt lat="47.26069" lon="-2.339">
        <ele>4</ele>
        <time>2021-05-23T08:19:49.983Z</time>
      </trkpt>
      <trkpt lat="47.26069" lon="-2.33898">
        <ele>4</ele>
        <time>2021-05-23T08:19:50.982Z</time>
      </trkpt>
      <trkpt lat="47.2607" lon="-2.33895">
        <ele>4</ele>
        <time>2021-05-23T08:19:51.983Z</time>
      </trkpt>
      <trkpt lat="47.2607" lon="-2.33893">
        <ele>4</ele>
        <time>2021-05-23T08:19:52.983Z</time>
      </trkpt>
      <trkpt lat="47.26071" lon="-2.3389">
        <ele>1</ele>
        <time>2021-05-23T08:19:53.983Z</time>
      </trkpt>
      <trkpt lat="47.26072" lon="-2.33888">
        <ele>1</ele>
        <time>2021-05-23T08:19:54.983Z</time>
      </trkpt>
      <trkpt lat="47.26074" lon="-2.33885">
        <ele>1</ele>
        <time>2021-05-23T08:19:55.983Z</time>
      </trkpt>
      <trkpt lat="47.26075" lon="-2.33884">
        <ele>2</ele>
        <time>2021-05-23T08:19:56.983Z</time>
      </trkpt>
      <trkpt lat="47.26076" lon="-2.33882">
        <ele>2</ele>
        <time>2021-05-23T08:19:57.982Z</time>
      </trkpt>
      <trkpt lat="47.26075" lon="-2.3388">
        <ele>2</ele>
        <time>2021-05-23T08:19:58.983Z</time>
      </trkpt>
      <trkpt lat="47.26075" lon="-2.33878">
        <ele>2</ele>
        <time>2021-05-23T08:19:59.983Z</time>
      </trkpt>
      <trkpt lat="47.26075" lon="-2.33876">
        <ele>1</ele>
        <time>2021-05-23T08:20:00.982Z</time>
      </trkpt>
      <trkpt lat="47.26075" lon="-2.33874">
        <ele>1</ele>
        <time>2021-05-23T08:20:01.983Z</time>
      </trkpt>
      <trkpt lat="47.26075" lon="-2.33871">
        <ele>1</ele>
        <time>2021-05-23T08:20:02.983Z</time>
      </trkpt>
      <trkpt lat="47.26075" lon="-2.33869">
        <ele>1</ele>
        <time>2021-05-23T08:20:03.982Z</time>
      </trkpt>
      <trkpt lat="47.26075" lon="-2.33866">
        <ele>1</ele>
        <time>2021-05-23T08:20:04.983Z</time>
      </trkpt>
      <trkpt lat="47.26076" lon="-2.33864">
        <ele>1</ele>
        <time>2021-05-23T08:20:05.983Z</time>
      </trkpt>
      <trkpt lat="47.26076" lon="-2.33862">
        <ele>1</ele>
        <time>2021-05-23T08:20:06.983Z</time>
      </trkpt>
      <trkpt lat="47.26076" lon="-2.3386">
        <ele>1</ele>
        <time>2021-05-23T08:20:07.982Z</time>
      </trkpt>
      <trkpt lat="47.26076" lon="-2.33857">
        <ele>1</ele>
        <time>2021-05-23T08:20:08.983Z</time>
      </trkpt>
      <trkpt lat="47.26076" lon="-2.33854">
        <ele>2</ele>
        <time>2021-05-23T08:20:09.983Z</time>
      </trkpt>
      <trkpt lat="47.26076" lon="-2.33853">
        <ele>2</ele>
        <time>2021-05-23T08:20:10.983Z</time>
      </trkpt>
      <trkpt lat="47.26076" lon="-2.33851">
        <ele>2</ele>
        <time>2021-05-23T08:20:11.983Z</time>
      </trkpt>
      <trkpt lat="47.26077" lon="-2.33849">
        <ele>2</ele>
        <time>2021-05-23T08:20:12.983Z</time>
      </trkpt>
      <trkpt lat="47.26077" lon="-2.33847">
        <ele>1</ele>
        <time>2021-05-23T08:20:13.983Z</time>
      </trkpt>
      <trkpt lat="47.26077" lon="-2.33845">
        <ele>1</ele>
        <time>2021-05-23T08:20:14.982Z</time>
      </trkpt>
      <trkpt lat="47.26078" lon="-2.33843">
        <ele>1</ele>
        <time>2021-05-23T08:20:15.983Z</time>
      </trkpt>
      <trkpt lat="47.26079" lon="-2.33841">
        <ele>1</ele>
        <time>2021-05-23T08:20:16.983Z</time>
      </trkpt>
      <trkpt lat="47.26079" lon="-2.33839">
        <ele>1</ele>
        <time>2021-05-23T08:20:17.983Z</time>
      </trkpt>
      <trkpt lat="47.2608" lon="-2.33837">
        <ele>1</ele>
        <time>2021-05-23T08:20:18.982Z</time>
      </trkpt>
      <trkpt lat="47.2608" lon="-2.33835">
        <ele>2</ele>
        <time>2021-05-23T08:20:19.983Z</time>
      </trkpt>
      <trkpt lat="47.2608" lon="-2.33832">
        <ele>2</ele>
        <time>2021-05-23T08:20:20.982Z</time>
      </trkpt>
      <trkpt lat="47.2608" lon="-2.33831">
        <ele>2</ele>
        <time>2021-05-23T08:20:21.982Z</time>
      </trkpt>
      <trkpt lat="47.26081" lon="-2.33828">
        <ele>2</ele>
        <time>2021-05-23T08:20:22.983Z</time>
      </trkpt>
      <trkpt lat="47.26083" lon="-2.33826">
        <ele>2</ele>
        <time>2021-05-23T08:20:23.983Z</time>
      </trkpt>
      <trkpt lat="47.26084" lon="-2.33824">
        <ele>2</ele>
        <time>2021-05-23T08:20:24.983Z</time>
      </trkpt>
      <trkpt lat="47.26085" lon="-2.33822">
        <ele>2</ele>
        <time>2021-05-23T08:20:25.983Z</time>
      </trkpt>
      <trkpt lat="47.26086" lon="-2.33819">
        <ele>2</ele>
        <time>2021-05-23T08:20:26.983Z</time>
      </trkpt>
      <trkpt lat="47.26086" lon="-2.33816">
        <ele>2</ele>
        <time>2021-05-23T08:20:27.983Z</time>
      </trkpt>
      <trkpt lat="47.26087" lon="-2.33814">
        <ele>2</ele>
        <time>2021-05-23T08:20:28.983Z</time>
      </trkpt>
      <trkpt lat="47.26088" lon="-2.33811">
        <ele>2</ele>
        <time>2021-05-23T08:20:29.982Z</time>
      </trkpt>
      <trkpt lat="47.26089" lon="-2.33808">
        <ele>2</ele>
        <time>2021-05-23T08:20:30.982Z</time>
      </trkpt>
      <trkpt lat="47.2609" lon="-2.33806">
        <ele>3</ele>
        <time>2021-05-23T08:20:31.982Z</time>
      </trkpt>
      <trkpt lat="47.26091" lon="-2.33802">
        <ele>3</ele>
        <time>2021-05-23T08:20:32.983Z</time>
      </trkpt>
      <trkpt lat="47.26092" lon="-2.338">
        <ele>3</ele>
        <time>2021-05-23T08:20:33.983Z</time>
      </trkpt>
      <trkpt lat="47.26093" lon="-2.33797">
        <ele>3</ele>
        <time>2021-05-23T08:20:34.983Z</time>
      </trkpt>
      <trkpt lat="47.26093" lon="-2.33793">
        <ele>3</ele>
        <time>2021-05-23T08:20:35.983Z</time>
      </trkpt>
      <trkpt lat="47.26094" lon="-2.3379">
        <ele>3</ele>
        <time>2021-05-23T08:20:36.982Z</time>
      </trkpt>
      <trkpt lat="47.26095" lon="-2.33786">
        <ele>3</ele>
        <time>2021-05-23T08:20:37.983Z</time>
      </trkpt>
      <trkpt lat="47.26096" lon="-2.33782">
        <ele>3</ele>
        <time>2021-05-23T08:20:38.983Z</time>
      </trkpt>
      <trkpt lat="47.26097" lon="-2.33779">
        <ele>3</ele>
        <time>2021-05-23T08:20:39.982Z</time>
      </trkpt>
      <trkpt lat="47.26097" lon="-2.33775">
        <ele>3</ele>
        <time>2021-05-23T08:20:40.983Z</time>
      </trkpt>
      <trkpt lat="47.26097" lon="-2.33772">
        <ele>2</ele>
        <time>2021-05-23T08:20:41.983Z</time>
      </trkpt>
      <trkpt lat="47.26097" lon="-2.33768">
        <ele>2</ele>
        <time>2021-05-23T08:20:42.983Z</time>
      </trkpt>
      <trkpt lat="47.26096" lon="-2.33763">
        <ele>2</ele>
        <time>2021-05-23T08:20:43.982Z</time>
      </trkpt>
      <trkpt lat="47.26095" lon="-2.3376">
        <ele>2</ele>
        <time>2021-05-23T08:20:44.983Z</time>
      </trkpt>
      <trkpt lat="47.26094" lon="-2.33757">
        <ele>2</ele>
        <time>2021-05-23T08:20:45.983Z</time>
      </trkpt>
      <trkpt lat="47.26094" lon="-2.33754">
        <ele>2</ele>
        <time>2021-05-23T08:20:46.982Z</time>
      </trkpt>
      <trkpt lat="47.26093" lon="-2.3375">
        <ele>2</ele>
        <time>2021-05-23T08:20:47.983Z</time>
      </trkpt>
      <trkpt lat="47.26093" lon="-2.33748">
        <ele>3</ele>
        <time>2021-05-23T08:20:48.983Z</time>
      </trkpt>
      <trkpt lat="47.26093" lon="-2.33745">
        <ele>3</ele>
        <time>2021-05-23T08:20:49.983Z</time>
      </trkpt>
      <trkpt lat="47.26092" lon="-2.33741">
        <ele>3</ele>
        <time>2021-05-23T08:20:50.983Z</time>
      </trkpt>
      <trkpt lat="47.26091" lon="-2.33737">
        <ele>3</ele>
        <time>2021-05-23T08:20:51.982Z</time>
      </trkpt>
      <trkpt lat="47.26091" lon="-2.33733">
        <ele>4</ele>
        <time>2021-05-23T08:20:52.983Z</time>
      </trkpt>
      <trkpt lat="47.26091" lon="-2.33729">
        <ele>4</ele>
        <time>2021-05-23T08:20:53.982Z</time>
      </trkpt>
      <trkpt lat="47.2609" lon="-2.33726">
        <ele>4</ele>
        <time>2021-05-23T08:20:54.982Z</time>
      </trkpt>
      <trkpt lat="47.2609" lon="-2.33722">
        <ele>5</ele>
        <time>2021-05-23T08:20:55.983Z</time>
      </trkpt>
      <trkpt lat="47.26089" lon="-2.33719">
        <ele>5</ele>
        <time>2021-05-23T08:20:56.983Z</time>
      </trkpt>
      <trkpt lat="47.26089" lon="-2.33716">
        <ele>5</ele>
        <time>2021-05-23T08:20:57.982Z</time>
      </trkpt>
      <trkpt lat="47.26088" lon="-2.33713">
        <ele>5</ele>
        <time>2021-05-23T08:20:58.982Z</time>
      </trkpt>
      <trkpt lat="47.26087" lon="-2.3371">
        <ele>5</ele>
        <time>2021-05-23T08:20:59.983Z</time>
      </trkpt>
      <trkpt lat="47.26086" lon="-2.33707">
        <ele>5</ele>
        <time>2021-05-23T08:21:00.983Z</time>
      </trkpt>
      <trkpt lat="47.26085" lon="-2.33704">
        <ele>4</ele>
        <time>2021-05-23T08:21:01.983Z</time>
      </trkpt>
      <trkpt lat="47.26085" lon="-2.33701">
        <ele>4</ele>
        <time>2021-05-23T08:21:02.983Z</time>
      </trkpt>
      <trkpt lat="47.26084" lon="-2.33698">
        <ele>4</ele>
        <time>2021-05-23T08:21:03.983Z</time>
      </trkpt>
      <trkpt lat="47.26084" lon="-2.33695">
        <ele>4</ele>
        <time>2021-05-23T08:21:04.982Z</time>
      </trkpt>
      <trkpt lat="47.26084" lon="-2.33691">
        <ele>3</ele>
        <time>2021-05-23T08:21:05.983Z</time>
      </trkpt>
      <trkpt lat="47.26083" lon="-2.33688">
        <ele>3</ele>
        <time>2021-05-23T08:21:06.982Z</time>
      </trkpt>
      <trkpt lat="47.26082" lon="-2.33685">
        <ele>2</ele>
        <time>2021-05-23T08:21:07.983Z</time>
      </trkpt>
      <trkpt lat="47.26082" lon="-2.33683">
        <ele>2</ele>
        <time>2021-05-23T08:21:08.982Z</time>
      </trkpt>
      <trkpt lat="47.26081" lon="-2.3368">
        <ele>2</ele>
        <time>2021-05-23T08:21:09.983Z</time>
      </trkpt>
      <trkpt lat="47.2608" lon="-2.33676">
        <ele>1</ele>
        <time>2021-05-23T08:21:10.983Z</time>
      </trkpt>
      <trkpt lat="47.2608" lon="-2.33673">
        <ele>1</ele>
        <time>2021-05-23T08:21:11.983Z</time>
      </trkpt>
      <trkpt lat="47.26079" lon="-2.3367">
        <ele>1</ele>
        <time>2021-05-23T08:21:12.983Z</time>
      </trkpt>
      <trkpt lat="47.26079" lon="-2.33667">
        <ele>3.1</ele>
        <time>2021-05-23T08:21:13.982Z</time>
      </trkpt>
      <trkpt lat="47.26079" lon="-2.33663">
        <ele>3.1</ele>
        <time>2021-05-23T08:21:14.982Z</time>
      </trkpt>
      <trkpt lat="47.26078" lon="-2.33659">
        <ele>3.1</ele>
        <time>2021-05-23T08:21:15.983Z</time>
      </trkpt>
      <trkpt lat="47.26077" lon="-2.33655">
        <ele>3.1</ele>
        <time>2021-05-23T08:21:16.983Z</time>
      </trkpt>
      <trkpt lat="47.26077" lon="-2.33652">
        <ele>3.1</ele>
        <time>2021-05-23T08:21:17.983Z</time>
      </trkpt>
      <trkpt lat="47.26078" lon="-2.33649">
        <ele>3.1</ele>
        <time>2021-05-23T08:21:18.982Z</time>
      </trkpt>
      <trkpt lat="47.26079" lon="-2.33646">
        <ele>3.1</ele>
        <time>2021-05-23T08:21:19.983Z</time>
      </trkpt>
      <trkpt lat="47.26081" lon="-2.33642">
        <ele>3</ele>
        <time>2021-05-23T08:21:20.982Z</time>
      </trkpt>
      <trkpt lat="47.26082" lon="-2.33638">
        <ele>3</ele>
        <time>2021-05-23T08:21:21.983Z</time>
      </trkpt>
      <trkpt lat="47.26082" lon="-2.33635">
        <ele>3</ele>
        <time>2021-05-23T08:21:22.982Z</time>
      </trkpt>
      <trkpt lat="47.26083" lon="-2.33633">
        <ele>3</ele>
        <time>2021-05-23T08:21:23.983Z</time>
      </trkpt>
      <trkpt lat="47.26083" lon="-2.3363">
        <ele>-1</ele>
        <time>2021-05-23T08:21:24.982Z</time>
      </trkpt>
      <trkpt lat="47.26084" lon="-2.33626">
        <ele>-1</ele>
        <time>2021-05-23T08:21:25.983Z</time>
      </trkpt>
      <trkpt lat="47.26085" lon="-2.33623">
        <ele>3</ele>
        <time>2021-05-23T08:21:26.983Z</time>
      </trkpt>
      <trkpt lat="47.26086" lon="-2.33619">
        <ele>3.1</ele>
        <time>2021-05-23T08:21:27.982Z</time>
      </trkpt>
      <trkpt lat="47.26088" lon="-2.33616">
        <ele>-1</ele>
        <time>2021-05-23T08:21:28.983Z</time>
      </trkpt>
      <trkpt lat="47.26089" lon="-2.33613">
        <ele>-1</ele>
        <time>2021-05-23T08:21:29.983Z</time>
      </trkpt>
      <trkpt lat="47.2609" lon="-2.33609">
        <ele>3.2</ele>
        <time>2021-05-23T08:21:30.982Z</time>
      </trkpt>
      <trkpt lat="47.26092" lon="-2.33606">
        <ele>3.2</ele>
        <time>2021-05-23T08:21:31.982Z</time>
      </trkpt>
      <trkpt lat="47.26093" lon="-2.33604">
        <ele>3.2</ele>
        <time>2021-05-23T08:21:32.983Z</time>
      </trkpt>
      <trkpt lat="47.26094" lon="-2.33602">
        <ele>-1</ele>
        <time>2021-05-23T08:21:33.983Z</time>
      </trkpt>
      <trkpt lat="47.26096" lon="-2.33601">
        <ele>3.3</ele>
        <time>2021-05-23T08:21:34.982Z</time>
      </trkpt>
      <trkpt lat="47.26098" lon="-2.336">
        <ele>3.4</ele>
        <time>2021-05-23T08:21:35.983Z</time>
      </trkpt>
      <trkpt lat="47.26101" lon="-2.33598">
        <ele>3.4</ele>
        <time>2021-05-23T08:21:36.983Z</time>
      </trkpt>
      <trkpt lat="47.26103" lon="-2.33595">
        <ele>3.5</ele>
        <time>2021-05-23T08:21:37.983Z</time>
      </trkpt>
      <trkpt lat="47.26104" lon="-2.33593">
        <ele>3.5</ele>
        <time>2021-05-23T08:21:38.982Z</time>
      </trkpt>
      <trkpt lat="47.26106" lon="-2.3359">
        <ele>3.6</ele>
        <time>2021-05-23T08:21:39.983Z</time>
      </trkpt>
      <trkpt lat="47.26108" lon="-2.33587">
        <ele>1</ele>
        <time>2021-05-23T08:21:40.983Z</time>
      </trkpt>
      <trkpt lat="47.26109" lon="-2.33584">
        <ele>1</ele>
        <time>2021-05-23T08:21:41.982Z</time>
      </trkpt>
      <trkpt lat="47.26111" lon="-2.33582">
        <ele>1</ele>
        <time>2021-05-23T08:21:42.982Z</time>
      </trkpt>
      <trkpt lat="47.26113" lon="-2.3358">
        <ele>1</ele>
        <time>2021-05-23T08:21:43.982Z</time>
      </trkpt>
      <trkpt lat="47.26115" lon="-2.33577">
        <ele>2</ele>
        <time>2021-05-23T08:21:44.983Z</time>
      </trkpt>
      <trkpt lat="47.26116" lon="-2.33574">
        <ele>2</ele>
        <time>2021-05-23T08:21:45.982Z</time>
      </trkpt>
      <trkpt lat="47.26118" lon="-2.33572">
        <ele>3</ele>
        <time>2021-05-23T08:21:46.983Z</time>
      </trkpt>
      <trkpt lat="47.26119" lon="-2.33569">
        <ele>3</ele>
        <time>2021-05-23T08:21:47.983Z</time>
      </trkpt>
      <trkpt lat="47.26121" lon="-2.33566">
        <ele>3</ele>
        <time>2021-05-23T08:21:48.982Z</time>
      </trkpt>
      <trkpt lat="47.26123" lon="-2.33563">
        <ele>4</ele>
        <time>2021-05-23T08:21:49.983Z</time>
      </trkpt>
      <trkpt lat="47.26124" lon="-2.33561">
        <ele>4</ele>
        <time>2021-05-23T08:21:50.982Z</time>
      </trkpt>
      <trkpt lat="47.26125" lon="-2.33558">
        <ele>4</ele>
        <time>2021-05-23T08:21:51.983Z</time>
      </trkpt>
      <trkpt lat="47.26126" lon="-2.33556">
        <ele>4</ele>
        <time>2021-05-23T08:21:52.983Z</time>
      </trkpt>
      <trkpt lat="47.26127" lon="-2.33553">
        <ele>4</ele>
        <time>2021-05-23T08:21:53.982Z</time>
      </trkpt>
      <trkpt lat="47.26129" lon="-2.3355">
        <ele>3</ele>
        <time>2021-05-23T08:21:54.983Z</time>
      </trkpt>
      <trkpt lat="47.2613" lon="-2.33547">
        <ele>3</ele>
        <time>2021-05-23T08:21:55.983Z</time>
      </trkpt>
      <trkpt lat="47.26132" lon="-2.33545">
        <ele>2</ele>
        <time>2021-05-23T08:21:56.983Z</time>
      </trkpt>
      <trkpt lat="47.26133" lon="-2.33543">
        <ele>2</ele>
        <time>2021-05-23T08:21:57.982Z</time>
      </trkpt>
      <trkpt lat="47.26134" lon="-2.3354">
        <ele>1</ele>
        <time>2021-05-23T08:21:58.983Z</time>
      </trkpt>
      <trkpt lat="47.26136" lon="-2.33537">
        <ele>3.3</ele>
        <time>2021-05-23T08:21:59.983Z</time>
      </trkpt>
      <trkpt lat="47.26137" lon="-2.33534">
        <ele>3.3</ele>
        <time>2021-05-23T08:22:00.983Z</time>
      </trkpt>
      <trkpt lat="47.26139" lon="-2.33531">
        <ele>3.3</ele>
        <time>2021-05-23T08:22:01.983Z</time>
      </trkpt>
      <trkpt lat="47.2614" lon="-2.33529">
        <ele>3.3</ele>
        <time>2021-05-23T08:22:02.982Z</time>
      </trkpt>
      <trkpt lat="47.26142" lon="-2.33526">
        <ele>1</ele>
        <time>2021-05-23T08:22:03.982Z</time>
      </trkpt>
      <trkpt lat="47.26143" lon="-2.33523">
        <ele>1</ele>
        <time>2021-05-23T08:22:04.983Z</time>
      </trkpt>
      <trkpt lat="47.26145" lon="-2.33521">
        <ele>1</ele>
        <time>2021-05-23T08:22:05.983Z</time>
      </trkpt>
      <trkpt lat="47.26146" lon="-2.33519">
        <ele>2</ele>
        <time>2021-05-23T08:22:06.983Z</time>
      </trkpt>
      <trkpt lat="47.26148" lon="-2.33517">
        <ele>3</ele>
        <time>2021-05-23T08:22:07.982Z</time>
      </trkpt>
      <trkpt lat="47.26148" lon="-2.33513">
        <ele>3</ele>
        <time>2021-05-23T08:22:08.983Z</time>
      </trkpt>
      <trkpt lat="47.26148" lon="-2.3351">
        <ele>3</ele>
        <time>2021-05-23T08:22:09.983Z</time>
      </trkpt>
      <trkpt lat="47.26148" lon="-2.33507">
        <ele>3</ele>
        <time>2021-05-23T08:22:10.983Z</time>
      </trkpt>
      <trkpt lat="47.26148" lon="-2.33504">
        <ele>2</ele>
        <time>2021-05-23T08:22:11.983Z</time>
      </trkpt>
      <trkpt lat="47.26149" lon="-2.33501">
        <ele>2</ele>
        <time>2021-05-23T08:22:12.983Z</time>
      </trkpt>
      <trkpt lat="47.26148" lon="-2.33496">
        <ele>2</ele>
        <time>2021-05-23T08:22:13.983Z</time>
      </trkpt>
      <trkpt lat="47.26148" lon="-2.33492">
        <ele>2</ele>
        <time>2021-05-23T08:22:14.982Z</time>
      </trkpt>
      <trkpt lat="47.26149" lon="-2.33489">
        <ele>2</ele>
        <time>2021-05-23T08:22:15.983Z</time>
      </trkpt>
      <trkpt lat="47.26149" lon="-2.33486">
        <ele>2</ele>
        <time>2021-05-23T08:22:16.983Z</time>
      </trkpt>
      <trkpt lat="47.2615" lon="-2.33482">
        <ele>2</ele>
        <time>2021-05-23T08:22:17.983Z</time>
      </trkpt>
      <trkpt lat="47.2615" lon="-2.33478">
        <ele>2</ele>
        <time>2021-05-23T08:22:18.982Z</time>
      </trkpt>
      <trkpt lat="47.26151" lon="-2.33475">
        <ele>2</ele>
        <time>2021-05-23T08:22:19.982Z</time>
      </trkpt>
      <trkpt lat="47.26151" lon="-2.33472">
        <ele>1</ele>
        <time>2021-05-23T08:22:20.983Z</time>
      </trkpt>
      <trkpt lat="47.26152" lon="-2.33469">
        <ele>1</ele>
        <time>2021-05-23T08:22:21.983Z</time>
      </trkpt>
      <trkpt lat="47.26154" lon="-2.33467">
        <ele>2.8</ele>
        <time>2021-05-23T08:22:22.983Z</time>
      </trkpt>
      <trkpt lat="47.26156" lon="-2.33465">
        <ele>2.9</ele>
        <time>2021-05-23T08:22:23.982Z</time>
      </trkpt>
      <trkpt lat="47.26158" lon="-2.33465">
        <ele>2.9</ele>
        <time>2021-05-23T08:22:24.983Z</time>
      </trkpt>
      <trkpt lat="47.2616" lon="-2.33464">
        <ele>2.9</ele>
        <time>2021-05-23T08:22:25.983Z</time>
      </trkpt>
      <trkpt lat="47.26162" lon="-2.33464">
        <ele>2.9</ele>
        <time>2021-05-23T08:22:26.983Z</time>
      </trkpt>
      <trkpt lat="47.26165" lon="-2.33463">
        <ele>3</ele>
        <time>2021-05-23T08:22:27.983Z</time>
      </trkpt>
      <trkpt lat="47.26167" lon="-2.33463">
        <ele>1</ele>
        <time>2021-05-23T08:22:28.983Z</time>
      </trkpt>
      <trkpt lat="47.2617" lon="-2.33463">
        <ele>1</ele>
        <time>2021-05-23T08:22:29.982Z</time>
      </trkpt>
      <trkpt lat="47.26171" lon="-2.33463">
        <ele>1</ele>
        <time>2021-05-23T08:22:30.982Z</time>
      </trkpt>
      <trkpt lat="47.26174" lon="-2.33463">
        <ele>1</ele>
        <time>2021-05-23T08:22:31.983Z</time>
      </trkpt>
      <trkpt lat="47.26177" lon="-2.33463">
        <ele>1</ele>
        <time>2021-05-23T08:22:32.983Z</time>
      </trkpt>
      <trkpt lat="47.26179" lon="-2.33462">
        <ele>1</ele>
        <time>2021-05-23T08:22:33.983Z</time>
      </trkpt>
      <trkpt lat="47.26181" lon="-2.33462">
        <ele>2</ele>
        <time>2021-05-23T08:22:34.983Z</time>
      </trkpt>
      <trkpt lat="47.26183" lon="-2.33462">
        <ele>2</ele>
        <time>2021-05-23T08:22:35.983Z</time>
      </trkpt>
      <trkpt lat="47.26186" lon="-2.33461">
        <ele>3</ele>
        <time>2021-05-23T08:22:36.983Z</time>
      </trkpt>
      <trkpt lat="47.26189" lon="-2.3346">
        <ele>3</ele>
        <time>2021-05-23T08:22:37.983Z</time>
      </trkpt>
      <trkpt lat="47.26191" lon="-2.3346">
        <ele>3</ele>
        <time>2021-05-23T08:22:38.982Z</time>
      </trkpt>
      <trkpt lat="47.26194" lon="-2.3346">
        <ele>3</ele>
        <time>2021-05-23T08:22:39.982Z</time>
      </trkpt>
      <trkpt lat="47.26196" lon="-2.33459">
        <ele>4</ele>
        <time>2021-05-23T08:22:40.983Z</time>
      </trkpt>
      <trkpt lat="47.26198" lon="-2.33459">
        <ele>4</ele>
        <time>2021-05-23T08:22:41.982Z</time>
      </trkpt>
      <trkpt lat="47.26201" lon="-2.33459">
        <ele>4</ele>
        <time>2021-05-23T08:22:42.983Z</time>
      </trkpt>
      <trkpt lat="47.26204" lon="-2.33458">
        <ele>4</ele>
        <time>2021-05-23T08:22:43.983Z</time>
      </trkpt>
      <trkpt lat="47.26206" lon="-2.33458">
        <ele>4</ele>
        <time>2021-05-23T08:22:44.982Z</time>
      </trkpt>
      <trkpt lat="47.26208" lon="-2.33457">
        <ele>4</ele>
        <time>2021-05-23T08:22:45.983Z</time>
      </trkpt>
      <trkpt lat="47.2621" lon="-2.33457">
        <ele>4</ele>
        <time>2021-05-23T08:22:46.983Z</time>
      </trkpt>
      <trkpt lat="47.26213" lon="-2.33456">
        <ele>4</ele>
        <time>2021-05-23T08:22:47.983Z</time>
      </trkpt>
      <trkpt lat="47.26215" lon="-2.33456">
        <ele>4</ele>
        <time>2021-05-23T08:22:48.983Z</time>
      </trkpt>
      <trkpt lat="47.26218" lon="-2.33455">
        <ele>4</ele>
        <time>2021-05-23T08:22:49.983Z</time>
      </trkpt>
      <trkpt lat="47.2622" lon="-2.33454">
        <ele>4</ele>
        <time>2021-05-23T08:22:50.983Z</time>
      </trkpt>
      <trkpt lat="47.26223" lon="-2.33454">
        <ele>3</ele>
        <time>2021-05-23T08:22:51.983Z</time>
      </trkpt>
      <trkpt lat="47.26225" lon="-2.33453">
        <ele>3</ele>
        <time>2021-05-23T08:22:52.982Z</time>
      </trkpt>
      <trkpt lat="47.26227" lon="-2.33452">
        <ele>3</ele>
        <time>2021-05-23T08:22:53.982Z</time>
      </trkpt>
      <trkpt lat="47.26228" lon="-2.33452">
        <ele>3</ele>
        <time>2021-05-23T08:22:54.983Z</time>
      </trkpt>
      <trkpt lat="47.2623" lon="-2.3345">
        <ele>3</ele>
        <time>2021-05-23T08:22:55.982Z</time>
      </trkpt>
      <trkpt lat="47.26232" lon="-2.33449">
        <ele>2</ele>
        <time>2021-05-23T08:22:56.983Z</time>
      </trkpt>
      <trkpt lat="47.26234" lon="-2.33446">
        <ele>2</ele>
        <time>2021-05-23T08:22:57.982Z</time>
      </trkpt>
      <trkpt lat="47.26235" lon="-2.33443">
        <ele>2</ele>
        <time>2021-05-23T08:22:58.982Z</time>
      </trkpt>
      <trkpt lat="47.26236" lon="-2.3344">
        <ele>2</ele>
        <time>2021-05-23T08:22:59.982Z</time>
      </trkpt>
      <trkpt lat="47.26239" lon="-2.33437">
        <ele>2</ele>
        <time>2021-05-23T08:23:00.983Z</time>
      </trkpt>
      <trkpt lat="47.26241" lon="-2.33435">
        <ele>2</ele>
        <time>2021-05-23T08:23:01.982Z</time>
      </trkpt>
      <trkpt lat="47.26244" lon="-2.33434">
        <ele>1</ele>
        <time>2021-05-23T08:23:02.982Z</time>
      </trkpt>
      <trkpt lat="47.26246" lon="-2.33433">
        <ele>1</ele>
        <time>2021-05-23T08:23:03.983Z</time>
      </trkpt>
      <trkpt lat="47.26248" lon="-2.33432">
        <ele>1</ele>
        <time>2021-05-23T08:23:04.982Z</time>
      </trkpt>
      <trkpt lat="47.26251" lon="-2.33432">
        <ele>1</ele>
        <time>2021-05-23T08:23:05.983Z</time>
      </trkpt>
      <trkpt lat="47.26253" lon="-2.33432">
        <ele>2</ele>
        <time>2021-05-23T08:23:06.983Z</time>
      </trkpt>
      <trkpt lat="47.26256" lon="-2.33431">
        <ele>2</ele>
        <time>2021-05-23T08:23:07.982Z</time>
      </trkpt>
      <trkpt lat="47.26258" lon="-2.33431">
        <ele>2</ele>
        <time>2021-05-23T08:23:08.982Z</time>
      </trkpt>
      <trkpt lat="47.2626" lon="-2.33429">
        <ele>2</ele>
        <time>2021-05-23T08:23:09.982Z</time>
      </trkpt>
      <trkpt lat="47.26263" lon="-2.33428">
        <ele>3</ele>
        <time>2021-05-23T08:23:10.982Z</time>
      </trkpt>
      <trkpt lat="47.26265" lon="-2.33428">
        <ele>3</ele>
        <time>2021-05-23T08:23:11.982Z</time>
      </trkpt>
      <trkpt lat="47.26268" lon="-2.33428">
        <ele>4</ele>
        <time>2021-05-23T08:23:12.982Z</time>
      </trkpt>
      <trkpt lat="47.26269" lon="-2.33429">
        <ele>4</ele>
        <time>2021-05-23T08:23:13.982Z</time>
      </trkpt>
      <trkpt lat="47.26273" lon="-2.33428">
        <ele>5</ele>
        <time>2021-05-23T08:23:14.982Z</time>
      </trkpt>
      <trkpt lat="47.26276" lon="-2.33428">
        <ele>5</ele>
        <time>2021-05-23T08:23:15.982Z</time>
      </trkpt>
      <trkpt lat="47.26278" lon="-2.33429">
        <ele>5</ele>
        <time>2021-05-23T08:23:16.982Z</time>
      </trkpt>
      <trkpt lat="47.26281" lon="-2.33429">
        <ele>6</ele>
        <time>2021-05-23T08:23:17.982Z</time>
      </trkpt>
      <trkpt lat="47.26283" lon="-2.33429">
        <ele>7</ele>
        <time>2021-05-23T08:23:18.982Z</time>
      </trkpt>
      <trkpt lat="47.26286" lon="-2.33429">
        <ele>8</ele>
        <time>2021-05-23T08:23:19.982Z</time>
      </trkpt>
      <trkpt lat="47.26288" lon="-2.33429">
        <ele>8</ele>
        <time>2021-05-23T08:23:20.982Z</time>
      </trkpt>
      <trkpt lat="47.2629" lon="-2.33429">
        <ele>9</ele>
        <time>2021-05-23T08:23:21.982Z</time>
      </trkpt>
      <trkpt lat="47.26293" lon="-2.33428">
        <ele>10</ele>
        <time>2021-05-23T08:23:22.983Z</time>
      </trkpt>
      <trkpt lat="47.26295" lon="-2.33428">
        <ele>11</ele>
        <time>2021-05-23T08:23:23.983Z</time>
      </trkpt>
      <trkpt lat="47.26298" lon="-2.33428">
        <ele>12</ele>
        <time>2021-05-23T08:23:24.983Z</time>
      </trkpt>
      <trkpt lat="47.263" lon="-2.33427">
        <ele>12</ele>
        <time>2021-05-23T08:23:25.982Z</time>
      </trkpt>
      <trkpt lat="47.26303" lon="-2.33427">
        <ele>13</ele>
        <time>2021-05-23T08:23:26.983Z</time>
      </trkpt>
      <trkpt lat="47.26305" lon="-2.33427">
        <ele>12</ele>
        <time>2021-05-23T08:23:27.983Z</time>
      </trkpt>
      <trkpt lat="47.26307" lon="-2.33426">
        <ele>12</ele>
        <time>2021-05-23T08:23:28.983Z</time>
      </trkpt>
      <trkpt lat="47.26311" lon="-2.33425">
        <ele>12</ele>
        <time>2021-05-23T08:23:29.983Z</time>
      </trkpt>
      <trkpt lat="47.26313" lon="-2.33422">
        <ele>11</ele>
        <time>2021-05-23T08:23:30.983Z</time>
      </trkpt>
      <trkpt lat="47.26316" lon="-2.3342">
        <ele>11</ele>
        <time>2021-05-23T08:23:31.983Z</time>
      </trkpt>
      <trkpt lat="47.26319" lon="-2.33417">
        <ele>10</ele>
        <time>2021-05-23T08:23:32.982Z</time>
      </trkpt>
      <trkpt lat="47.2632" lon="-2.33415">
        <ele>9</ele>
        <time>2021-05-23T08:23:33.983Z</time>
      </trkpt>
      <trkpt lat="47.26322" lon="-2.33412">
        <ele>9</ele>
        <time>2021-05-23T08:23:34.982Z</time>
      </trkpt>
      <trkpt lat="47.26325" lon="-2.33409">
        <ele>8</ele>
        <time>2021-05-23T08:23:35.982Z</time>
      </trkpt>
      <trkpt lat="47.26327" lon="-2.33407">
        <ele>8</ele>
        <time>2021-05-23T08:23:36.983Z</time>
      </trkpt>
      <trkpt lat="47.26329" lon="-2.33405">
        <ele>7</ele>
        <time>2021-05-23T08:23:37.982Z</time>
      </trkpt>
      <trkpt lat="47.2633" lon="-2.33403">
        <ele>6</ele>
        <time>2021-05-23T08:23:38.983Z</time>
      </trkpt>
      <trkpt lat="47.26333" lon="-2.33402">
        <ele>6</ele>
        <time>2021-05-23T08:23:39.983Z</time>
      </trkpt>
      <trkpt lat="47.26335" lon="-2.33401">
        <ele>6</ele>
        <time>2021-05-23T08:23:40.982Z</time>
      </trkpt>
      <trkpt lat="47.26337" lon="-2.33399">
        <ele>5</ele>
        <time>2021-05-23T08:23:41.983Z</time>
      </trkpt>
      <trkpt lat="47.2634" lon="-2.33397">
        <ele>5</ele>
        <time>2021-05-23T08:23:42.983Z</time>
      </trkpt>
      <trkpt lat="47.26342" lon="-2.33396">
        <ele>4</ele>
        <time>2021-05-23T08:23:43.983Z</time>
      </trkpt>
      <trkpt lat="47.26344" lon="-2.33396">
        <ele>4</ele>
        <time>2021-05-23T08:23:44.983Z</time>
      </trkpt>
      <trkpt lat="47.26347" lon="-2.33396">
        <ele>4</ele>
        <time>2021-05-23T08:23:45.983Z</time>
      </trkpt>
      <trkpt lat="47.2635" lon="-2.33395">
        <ele>4</ele>
        <time>2021-05-23T08:23:46.982Z</time>
      </trkpt>
      <trkpt lat="47.26352" lon="-2.33394">
        <ele>4</ele>
        <time>2021-05-23T08:23:47.983Z</time>
      </trkpt>
      <trkpt lat="47.26353" lon="-2.33392">
        <ele>4</ele>
        <time>2021-05-23T08:23:48.983Z</time>
      </trkpt>
      <trkpt lat="47.26356" lon="-2.33391">
        <ele>4</ele>
        <time>2021-05-23T08:23:49.983Z</time>
      </trkpt>
      <trkpt lat="47.26359" lon="-2.3339">
        <ele>4</ele>
        <time>2021-05-23T08:23:50.983Z</time>
      </trkpt>
      <trkpt lat="47.26361" lon="-2.33388">
        <ele>4</ele>
        <time>2021-05-23T08:23:51.983Z</time>
      </trkpt>
      <trkpt lat="47.26363" lon="-2.33387">
        <ele>4</ele>
        <time>2021-05-23T08:23:52.983Z</time>
      </trkpt>
      <trkpt lat="47.26366" lon="-2.33386">
        <ele>4</ele>
        <time>2021-05-23T08:23:53.983Z</time>
      </trkpt>
      <trkpt lat="47.26369" lon="-2.33384">
        <ele>4</ele>
        <time>2021-05-23T08:23:54.982Z</time>
      </trkpt>
      <trkpt lat="47.26371" lon="-2.33383">
        <ele>4</ele>
        <time>2021-05-23T08:23:55.983Z</time>
      </trkpt>
      <trkpt lat="47.26374" lon="-2.33381">
        <ele>4</ele>
        <time>2021-05-23T08:23:56.983Z</time>
      </trkpt>
      <trkpt lat="47.26376" lon="-2.3338">
        <ele>4</ele>
        <time>2021-05-23T08:23:57.983Z</time>
      </trkpt>
      <trkpt lat="47.26377" lon="-2.33379">
        <ele>4</ele>
        <time>2021-05-23T08:23:58.982Z</time>
      </trkpt>
      <trkpt lat="47.2638" lon="-2.33378">
        <ele>4</ele>
        <time>2021-05-23T08:23:59.983Z</time>
      </trkpt>
      <trkpt lat="47.26382" lon="-2.33376">
        <ele>4</ele>
        <time>2021-05-23T08:24:00.982Z</time>
      </trkpt>
      <trkpt lat="47.26385" lon="-2.33375">
        <ele>4</ele>
        <time>2021-05-23T08:24:01.983Z</time>
      </trkpt>
      <trkpt lat="47.26387" lon="-2.33373">
        <ele>4</ele>
        <time>2021-05-23T08:24:02.983Z</time>
      </trkpt>
      <trkpt lat="47.26389" lon="-2.33372">
        <ele>4</ele>
        <time>2021-05-23T08:24:03.983Z</time>
      </trkpt>
      <trkpt lat="47.26392" lon="-2.3337">
        <ele>4</ele>
        <time>2021-05-23T08:24:04.983Z</time>
      </trkpt>
      <trkpt lat="47.26394" lon="-2.33368">
        <ele>4</ele>
        <time>2021-05-23T08:24:05.983Z</time>
      </trkpt>
      <trkpt lat="47.26396" lon="-2.33367">
        <ele>4</ele>
        <time>2021-05-23T08:24:06.983Z</time>
      </trkpt>
      <trkpt lat="47.26398" lon="-2.33366">
        <ele>4</ele>
        <time>2021-05-23T08:24:07.982Z</time>
      </trkpt>
      <trkpt lat="47.264" lon="-2.33364">
        <ele>4</ele>
        <time>2021-05-23T08:24:08.983Z</time>
      </trkpt>
      <trkpt lat="47.26402" lon="-2.33363">
        <ele>4</ele>
        <time>2021-05-23T08:24:09.983Z</time>
      </trkpt>
      <trkpt lat="47.26404" lon="-2.33362">
        <ele>3</ele>
        <time>2021-05-23T08:24:10.983Z</time>
      </trkpt>
      <trkpt lat="47.26406" lon="-2.33361">
        <ele>3</ele>
        <time>2021-05-23T08:24:11.983Z</time>
      </trkpt>
      <trkpt lat="47.26408" lon="-2.3336">
        <ele>3</ele>
        <time>2021-05-23T08:24:12.983Z</time>
      </trkpt>
      <trkpt lat="47.26409" lon="-2.33358">
        <ele>3</ele>
        <time>2021-05-23T08:24:13.983Z</time>
      </trkpt>
      <trkpt lat="47.2641" lon="-2.33355">
        <ele>3</ele>
        <time>2021-05-23T08:24:14.982Z</time>
      </trkpt>
      <trkpt lat="47.2641" lon="-2.33352">
        <ele>2</ele>
        <time>2021-05-23T08:24:15.982Z</time>
      </trkpt>
      <trkpt lat="47.2641" lon="-2.33348">
        <ele>2</ele>
        <time>2021-05-23T08:24:16.983Z</time>
      </trkpt>
      <trkpt lat="47.26411" lon="-2.33345">
        <ele>2</ele>
        <time>2021-05-23T08:24:17.983Z</time>
      </trkpt>
      <trkpt lat="47.26413" lon="-2.33341">
        <ele>1</ele>
        <time>2021-05-23T08:24:18.983Z</time>
      </trkpt>
      <trkpt lat="47.26414" lon="-2.33338">
        <ele>1</ele>
        <time>2021-05-23T08:24:19.983Z</time>
      </trkpt>
      <trkpt lat="47.26415" lon="-2.33334">
        <ele>1</ele>
        <time>2021-05-23T08:24:20.982Z</time>
      </trkpt>
      <trkpt lat="47.26415" lon="-2.3333">
        <ele>1</ele>
        <time>2021-05-23T08:24:21.982Z</time>
      </trkpt>
      <trkpt lat="47.26416" lon="-2.33327">
        <ele>1</ele>
        <time>2021-05-23T08:24:22.982Z</time>
      </trkpt>
      <trkpt lat="47.26417" lon="-2.33323">
        <ele>1</ele>
        <time>2021-05-23T08:24:23.982Z</time>
      </trkpt>
      <trkpt lat="47.26418" lon="-2.33318">
        <ele>1.01</ele>
        <time>2021-05-23T08:24:24.982Z</time>
      </trkpt>
      <trkpt lat="47.26418" lon="-2.33315">
        <ele>1.01</ele>
        <time>2021-05-23T08:24:25.983Z</time>
      </trkpt>
      <trkpt lat="47.26417" lon="-2.3331">
        <ele>1.01</ele>
        <time>2021-05-23T08:24:26.982Z</time>
      </trkpt>
      <trkpt lat="47.26417" lon="-2.33307">
        <ele>1</ele>
        <time>2021-05-23T08:24:27.983Z</time>
      </trkpt>
      <trkpt lat="47.26416" lon="-2.33302">
        <ele>1</ele>
        <time>2021-05-23T08:24:28.982Z</time>
      </trkpt>
      <trkpt lat="47.26416" lon="-2.33298">
        <ele>1</ele>
        <time>2021-05-23T08:24:29.983Z</time>
      </trkpt>
      <trkpt lat="47.26415" lon="-2.33294">
        <ele>1</ele>
        <time>2021-05-23T08:24:30.983Z</time>
      </trkpt>
      <trkpt lat="47.26414" lon="-2.33291">
        <ele>1</ele>
        <time>2021-05-23T08:24:31.983Z</time>
      </trkpt>
      <trkpt lat="47.26414" lon="-2.33287">
        <ele>1</ele>
        <time>2021-05-23T08:24:32.982Z</time>
      </trkpt>
      <trkpt lat="47.26414" lon="-2.33283">
        <ele>1</ele>
        <time>2021-05-23T08:24:33.983Z</time>
      </trkpt>
      <trkpt lat="47.26414" lon="-2.33279">
        <ele>1</ele>
        <time>2021-05-23T08:24:34.983Z</time>
      </trkpt>
      <trkpt lat="47.26415" lon="-2.33277">
        <ele>1</ele>
        <time>2021-05-23T08:24:35.983Z</time>
      </trkpt>
      <trkpt lat="47.26417" lon="-2.33275">
        <ele>1.01</ele>
        <time>2021-05-23T08:24:36.982Z</time>
      </trkpt>
      <trkpt lat="47.2642" lon="-2.33274">
        <ele>1</ele>
        <time>2021-05-23T08:24:37.983Z</time>
      </trkpt>
      <trkpt lat="47.26422" lon="-2.33274">
        <ele>1</ele>
        <time>2021-05-23T08:24:38.983Z</time>
      </trkpt>
      <trkpt lat="47.26425" lon="-2.33274">
        <ele>1</ele>
        <time>2021-05-23T08:24:39.983Z</time>
      </trkpt>
      <trkpt lat="47.26427" lon="-2.33275">
        <ele>1</ele>
        <time>2021-05-23T08:24:40.982Z</time>
      </trkpt>
      <trkpt lat="47.2643" lon="-2.33275">
        <ele>1</ele>
        <time>2021-05-23T08:24:41.983Z</time>
      </trkpt>
      <trkpt lat="47.26432" lon="-2.33276">
        <ele>1</ele>
        <time>2021-05-23T08:24:42.983Z</time>
      </trkpt>
      <trkpt lat="47.26435" lon="-2.33277">
        <ele>2</ele>
        <time>2021-05-23T08:24:43.983Z</time>
      </trkpt>
      <trkpt lat="47.26438" lon="-2.33277">
        <ele>2</ele>
        <time>2021-05-23T08:24:44.982Z</time>
      </trkpt>
      <trkpt lat="47.26441" lon="-2.33278">
        <ele>3</ele>
        <time>2021-05-23T08:24:45.982Z</time>
      </trkpt>
      <trkpt lat="47.26443" lon="-2.33278">
        <ele>3</ele>
        <time>2021-05-23T08:24:46.982Z</time>
      </trkpt>
      <trkpt lat="47.26446" lon="-2.33279">
        <ele>4</ele>
        <time>2021-05-23T08:24:47.983Z</time>
      </trkpt>
      <trkpt lat="47.26448" lon="-2.33279">
        <ele>3</ele>
        <time>2021-05-23T08:24:48.983Z</time>
      </trkpt>
      <trkpt lat="47.26451" lon="-2.33279">
        <ele>3</ele>
        <time>2021-05-23T08:24:49.983Z</time>
      </trkpt>
      <trkpt lat="47.26453" lon="-2.33279">
        <ele>3</ele>
        <time>2021-05-23T08:24:50.983Z</time>
      </trkpt>
      <trkpt lat="47.26456" lon="-2.33279">
        <ele>2</ele>
        <time>2021-05-23T08:24:51.983Z</time>
      </trkpt>
      <trkpt lat="47.26459" lon="-2.33278">
        <ele>2</ele>
        <time>2021-05-23T08:24:52.983Z</time>
      </trkpt>
      <trkpt lat="47.26462" lon="-2.33278">
        <ele>2</ele>
        <time>2021-05-23T08:24:53.983Z</time>
      </trkpt>
      <trkpt lat="47.26465" lon="-2.33277">
        <ele>2</ele>
        <time>2021-05-23T08:24:54.983Z</time>
      </trkpt>
      <trkpt lat="47.26468" lon="-2.33278">
        <ele>2</ele>
        <time>2021-05-23T08:24:55.983Z</time>
      </trkpt>
      <trkpt lat="47.2647" lon="-2.33277">
        <ele>2</ele>
        <time>2021-05-23T08:24:56.983Z</time>
      </trkpt>
      <trkpt lat="47.26472" lon="-2.33277">
        <ele>1</ele>
        <time>2021-05-23T08:24:57.983Z</time>
      </trkpt>
      <trkpt lat="47.26475" lon="-2.33277">
        <ele>1</ele>
        <time>2021-05-23T08:24:58.983Z</time>
      </trkpt>
      <trkpt lat="47.26478" lon="-2.33277">
        <ele>2</ele>
        <time>2021-05-23T08:24:59.983Z</time>
      </trkpt>
      <trkpt lat="47.2648" lon="-2.33276">
        <ele>2</ele>
        <time>2021-05-23T08:25:00.982Z</time>
      </trkpt>
      <trkpt lat="47.26482" lon="-2.33275">
        <ele>2</ele>
        <time>2021-05-23T08:25:01.983Z</time>
      </trkpt>
      <trkpt lat="47.26484" lon="-2.33273">
        <ele>2</ele>
        <time>2021-05-23T08:25:02.983Z</time>
      </trkpt>
      <trkpt lat="47.26486" lon="-2.3327">
        <ele>2</ele>
        <time>2021-05-23T08:25:03.983Z</time>
      </trkpt>
      <trkpt lat="47.26488" lon="-2.33267">
        <ele>2</ele>
        <time>2021-05-23T08:25:04.983Z</time>
      </trkpt>
      <trkpt lat="47.2649" lon="-2.33265">
        <ele>2</ele>
        <time>2021-05-23T08:25:05.982Z</time>
      </trkpt>
      <trkpt lat="47.26492" lon="-2.33262">
        <ele>2</ele>
        <time>2021-05-23T08:25:06.983Z</time>
      </trkpt>
      <trkpt lat="47.26493" lon="-2.33259">
        <ele>3</ele>
        <time>2021-05-23T08:25:07.983Z</time>
      </trkpt>
      <trkpt lat="47.26495" lon="-2.33256">
        <ele>3</ele>
        <time>2021-05-23T08:25:08.983Z</time>
      </trkpt>
      <trkpt lat="47.26497" lon="-2.33253">
        <ele>2</ele>
        <time>2021-05-23T08:25:09.982Z</time>
      </trkpt>
      <trkpt lat="47.26499" lon="-2.3325">
        <ele>2</ele>
        <time>2021-05-23T08:25:10.983Z</time>
      </trkpt>
      <trkpt lat="47.265" lon="-2.33247">
        <ele>2</ele>
        <time>2021-05-23T08:25:11.983Z</time>
      </trkpt>
      <trkpt lat="47.26501" lon="-2.33244">
        <ele>2</ele>
        <time>2021-05-23T08:25:12.983Z</time>
      </trkpt>
      <trkpt lat="47.26503" lon="-2.33241">
        <ele>2</ele>
        <time>2021-05-23T08:25:13.982Z</time>
      </trkpt>
      <trkpt lat="47.26504" lon="-2.33239">
        <ele>1</ele>
        <time>2021-05-23T08:25:14.983Z</time>
      </trkpt>
      <trkpt lat="47.26507" lon="-2.33236">
        <ele>1.8</ele>
        <time>2021-05-23T08:25:15.983Z</time>
      </trkpt>
      <trkpt lat="47.26509" lon="-2.33234">
        <ele>1.8</ele>
        <time>2021-05-23T08:25:16.982Z</time>
      </trkpt>
      <trkpt lat="47.26511" lon="-2.33233">
        <ele>1.8</ele>
        <time>2021-05-23T08:25:17.983Z</time>
      </trkpt>
      <trkpt lat="47.26513" lon="-2.33231">
        <ele>1.8</ele>
        <time>2021-05-23T08:25:18.983Z</time>
      </trkpt>
      <trkpt lat="47.26516" lon="-2.33229">
        <ele>1.8</ele>
        <time>2021-05-23T08:25:19.982Z</time>
      </trkpt>
      <trkpt lat="47.26519" lon="-2.33226">
        <ele>-1</ele>
        <time>2021-05-23T08:25:20.983Z</time>
      </trkpt>
      <trkpt lat="47.26521" lon="-2.33225">
        <ele>1.8</ele>
        <time>2021-05-23T08:25:21.983Z</time>
      </trkpt>
      <trkpt lat="47.26524" lon="-2.33224">
        <ele>1.8</ele>
        <time>2021-05-23T08:25:22.983Z</time>
      </trkpt>
      <trkpt lat="47.26526" lon="-2.33222">
        <ele>1.8</ele>
        <time>2021-05-23T08:25:23.983Z</time>
      </trkpt>
      <trkpt lat="47.26529" lon="-2.33221">
        <ele>1.8</ele>
        <time>2021-05-23T08:25:24.983Z</time>
      </trkpt>
      <trkpt lat="47.26531" lon="-2.33219">
        <ele>1</ele>
        <time>2021-05-23T08:25:25.982Z</time>
      </trkpt>
      <trkpt lat="47.26533" lon="-2.33218">
        <ele>1</ele>
        <time>2021-05-23T08:25:26.982Z</time>
      </trkpt>
      <trkpt lat="47.26536" lon="-2.33216">
        <ele>1</ele>
        <time>2021-05-23T08:25:27.983Z</time>
      </trkpt>
      <trkpt lat="47.26538" lon="-2.33215">
        <ele>1</ele>
        <time>2021-05-23T08:25:28.983Z</time>
      </trkpt>
      <trkpt lat="47.2654" lon="-2.33213">
        <ele>1</ele>
        <time>2021-05-23T08:25:29.982Z</time>
      </trkpt>
      <trkpt lat="47.26543" lon="-2.33212">
        <ele>1</ele>
        <time>2021-05-23T08:25:30.983Z</time>
      </trkpt>
      <trkpt lat="47.26545" lon="-2.3321">
        <ele>2</ele>
        <time>2021-05-23T08:25:31.983Z</time>
      </trkpt>
      <trkpt lat="47.26548" lon="-2.33209">
        <ele>2</ele>
        <time>2021-05-23T08:25:32.982Z</time>
      </trkpt>
      <trkpt lat="47.2655" lon="-2.33208">
        <ele>2</ele>
        <time>2021-05-23T08:25:33.983Z</time>
      </trkpt>
      <trkpt lat="47.26553" lon="-2.33207">
        <ele>2</ele>
        <time>2021-05-23T08:25:34.982Z</time>
      </trkpt>
      <trkpt lat="47.26555" lon="-2.33206">
        <ele>3</ele>
        <time>2021-05-23T08:25:35.982Z</time>
      </trkpt>
      <trkpt lat="47.26557" lon="-2.33205">
        <ele>3</ele>
        <time>2021-05-23T08:25:36.983Z</time>
      </trkpt>
      <trkpt lat="47.2656" lon="-2.33204">
        <ele>3</ele>
        <time>2021-05-23T08:25:37.983Z</time>
      </trkpt>
      <trkpt lat="47.26562" lon="-2.33202">
        <ele>3</ele>
        <time>2021-05-23T08:25:38.983Z</time>
      </trkpt>
      <trkpt lat="47.26565" lon="-2.33201">
        <ele>4</ele>
        <time>2021-05-23T08:25:39.982Z</time>
      </trkpt>
      <trkpt lat="47.26567" lon="-2.33199">
        <ele>4</ele>
        <time>2021-05-23T08:25:40.982Z</time>
      </trkpt>
      <trkpt lat="47.26569" lon="-2.33198">
        <ele>3</ele>
        <time>2021-05-23T08:25:41.982Z</time>
      </trkpt>
      <trkpt lat="47.26572" lon="-2.33197">
        <ele>3</ele>
        <time>2021-05-23T08:25:42.983Z</time>
      </trkpt>
      <trkpt lat="47.26574" lon="-2.33195">
        <ele>3</ele>
        <time>2021-05-23T08:25:43.983Z</time>
      </trkpt>
      <trkpt lat="47.26576" lon="-2.33193">
        <ele>4</ele>
        <time>2021-05-23T08:25:44.983Z</time>
      </trkpt>
      <trkpt lat="47.26578" lon="-2.33191">
        <ele>3</ele>
        <time>2021-05-23T08:25:45.982Z</time>
      </trkpt>
      <trkpt lat="47.2658" lon="-2.33189">
        <ele>3</ele>
        <time>2021-05-23T08:25:46.983Z</time>
      </trkpt>
      <trkpt lat="47.26582" lon="-2.33186">
        <ele>2</ele>
        <time>2021-05-23T08:25:47.983Z</time>
      </trkpt>
      <trkpt lat="47.26584" lon="-2.33183">
        <ele>2</ele>
        <time>2021-05-23T08:25:48.982Z</time>
      </trkpt>
      <trkpt lat="47.26585" lon="-2.3318">
        <ele>2</ele>
        <time>2021-05-23T08:25:49.983Z</time>
      </trkpt>
      <trkpt lat="47.26587" lon="-2.33177">
        <ele>2</ele>
        <time>2021-05-23T08:25:50.983Z</time>
      </trkpt>
      <trkpt lat="47.26588" lon="-2.33173">
        <ele>3</ele>
        <time>2021-05-23T08:25:51.983Z</time>
      </trkpt>
      <trkpt lat="47.26589" lon="-2.3317">
        <ele>2</ele>
        <time>2021-05-23T08:25:52.983Z</time>
      </trkpt>
      <trkpt lat="47.26589" lon="-2.33167">
        <ele>2</ele>
        <time>2021-05-23T08:25:53.983Z</time>
      </trkpt>
      <trkpt lat="47.2659" lon="-2.33163">
        <ele>2</ele>
        <time>2021-05-23T08:25:54.982Z</time>
      </trkpt>
      <trkpt lat="47.2659" lon="-2.3316">
        <ele>1</ele>
        <time>2021-05-23T08:25:55.982Z</time>
      </trkpt>
      <trkpt lat="47.26591" lon="-2.33157">
        <ele>1</ele>
        <time>2021-05-23T08:25:56.983Z</time>
      </trkpt>
      <trkpt lat="47.26592" lon="-2.33154">
        <ele>1</ele>
        <time>2021-05-23T08:25:57.983Z</time>
      </trkpt>
      <trkpt lat="47.26593" lon="-2.33151">
        <ele>1</ele>
        <time>2021-05-23T08:25:58.982Z</time>
      </trkpt>
      <trkpt lat="47.26595" lon="-2.33149">
        <ele>2.5</ele>
        <time>2021-05-23T08:25:59.983Z</time>
      </trkpt>
      <trkpt lat="47.26597" lon="-2.33148">
        <ele>2.5</ele>
        <time>2021-05-23T08:26:00.982Z</time>
      </trkpt>
      <trkpt lat="47.26598" lon="-2.33148">
        <ele>2.6</ele>
        <time>2021-05-23T08:26:01.983Z</time>
      </trkpt>
      <trkpt lat="47.266" lon="-2.33147">
        <ele>2.5</ele>
        <time>2021-05-23T08:26:02.983Z</time>
      </trkpt>
      <trkpt lat="47.26602" lon="-2.33148">
        <ele>2.5</ele>
        <time>2021-05-23T08:26:03.982Z</time>
      </trkpt>
      <trkpt lat="47.26603" lon="-2.33148">
        <ele>2.5</ele>
        <time>2021-05-23T08:26:04.983Z</time>
      </trkpt>
      <trkpt lat="47.26604" lon="-2.33148">
        <ele>2.5</ele>
        <time>2021-05-23T08:26:05.982Z</time>
      </trkpt>
      <trkpt lat="47.26605" lon="-2.33148">
        <ele>1</ele>
        <time>2021-05-23T08:26:06.983Z</time>
      </trkpt>
      <trkpt lat="47.26606" lon="-2.33149">
        <ele>1</ele>
        <time>2021-05-23T08:26:07.983Z</time>
      </trkpt>
      <trkpt lat="47.26607" lon="-2.33149">
        <ele>2</ele>
        <time>2021-05-23T08:26:08.982Z</time>
      </trkpt>
      <trkpt lat="47.26607" lon="-2.3315">
        <ele>2</ele>
        <time>2021-05-23T08:26:09.983Z</time>
      </trkpt>
      <trkpt lat="47.26608" lon="-2.3315">
        <ele>2</ele>
        <time>2021-05-23T08:26:10.982Z</time>
      </trkpt>
      <trkpt lat="47.26607" lon="-2.33151">
        <ele>3</ele>
        <time>2021-05-23T08:26:11.983Z</time>
      </trkpt>
      <trkpt lat="47.26607" lon="-2.33151">
        <ele>3</ele>
        <time>2021-05-23T08:26:12.983Z</time>
      </trkpt>
      <trkpt lat="47.26607" lon="-2.33151">
        <ele>2</ele>
        <time>2021-05-23T08:26:13.982Z</time>
      </trkpt>
      <trkpt lat="47.26607" lon="-2.3315">
        <ele>2</ele>
        <time>2021-05-23T08:26:14.982Z</time>
      </trkpt>
      <trkpt lat="47.26606" lon="-2.3315">
        <ele>2</ele>
        <time>2021-05-23T08:26:15.983Z</time>
      </trkpt>
      <trkpt lat="47.26606" lon="-2.3315">
        <ele>2</ele>
        <time>2021-05-23T08:26:16.983Z</time>
      </trkpt>
      <trkpt lat="47.26606" lon="-2.3315">
        <ele>3</ele>
        <time>2021-05-23T08:26:17.983Z</time>
      </trkpt>
      <trkpt lat="47.26606" lon="-2.3315">
        <ele>3</ele>
        <time>2021-05-23T08:26:18.982Z</time>
      </trkpt>
      <trkpt lat="47.26607" lon="-2.3315">
        <ele>4</ele>
        <time>2021-05-23T08:26:19.983Z</time>
      </trkpt>
      <trkpt lat="47.26607" lon="-2.33151">
        <ele>4</ele>
        <time>2021-05-23T08:26:20.982Z</time>
      </trkpt>
      <trkpt lat="47.26608" lon="-2.33152">
        <ele>5</ele>
        <time>2021-05-23T08:26:21.983Z</time>
      </trkpt>
      <trkpt lat="47.26608" lon="-2.33152">
        <ele>5</ele>
        <time>2021-05-23T08:26:22.982Z</time>
      </trkpt>
      <trkpt lat="47.26608" lon="-2.33152">
        <ele>6</ele>
        <time>2021-05-23T08:26:23.983Z</time>
      </trkpt>
      <trkpt lat="47.26608" lon="-2.33152">
        <ele>6</ele>
        <time>2021-05-23T08:26:24.982Z</time>
      </trkpt>
      <trkpt lat="47.26608" lon="-2.33152">
        <ele>7</ele>
        <time>2021-05-23T08:26:25.983Z</time>
      </trkpt>
      <trkpt lat="47.26608" lon="-2.33152">
        <ele>7</ele>
        <time>2021-05-23T08:26:26.983Z</time>
      </trkpt>
      <trkpt lat="47.26608" lon="-2.33152">
        <ele>8</ele>
        <time>2021-05-23T08:26:27.983Z</time>
      </trkpt>
      <trkpt lat="47.26608" lon="-2.33152">
        <ele>8</ele>
        <time>2021-05-23T08:26:28.982Z</time>
      </trkpt>
      <trkpt lat="47.26608" lon="-2.33152">
        <ele>8</ele>
        <time>2021-05-23T08:26:29.983Z</time>
      </trkpt>
      <trkpt lat="47.26608" lon="-2.33152">
        <ele>8</ele>
        <time>2021-05-23T08:26:30.983Z</time>
      </trkpt>
      <trkpt lat="47.26608" lon="-2.33152">
        <ele>9</ele>
        <time>2021-05-23T08:26:31.982Z</time>
      </trkpt>
      <trkpt lat="47.26608" lon="-2.33152">
        <ele>9</ele>
        <time>2021-05-23T08:26:32.983Z</time>
      </trkpt>
      <trkpt lat="47.26608" lon="-2.33152">
        <ele>9</ele>
        <time>2021-05-23T08:26:33.982Z</time>
      </trkpt>
      <trkpt lat="47.26608" lon="-2.33152">
        <ele>9</ele>
        <time>2021-05-23T08:26:34.983Z</time>
      </trkpt>
      <trkpt lat="47.26608" lon="-2.33152">
        <ele>9</ele>
        <time>2021-05-23T08:26:35.983Z</time>
      </trkpt>
      <trkpt lat="47.26608" lon="-2.33152">
        <ele>9</ele>
        <time>2021-05-23T08:26:36.983Z</time>
      </trkpt>
      <trkpt lat="47.26608" lon="-2.33152">
        <ele>9</ele>
        <time>2021-05-23T08:26:37.983Z</time>
      </trkpt>
      <trkpt lat="47.26608" lon="-2.33152">
        <ele>8</ele>
        <time>2021-05-23T08:26:38.983Z</time>
      </trkpt>
      <trkpt lat="47.26608" lon="-2.33153">
        <ele>8</ele>
        <time>2021-05-23T08:26:39.983Z</time>
      </trkpt>
      <trkpt lat="47.26608" lon="-2.33153">
        <ele>8</ele>
        <time>2021-05-23T08:26:40.982Z</time>
      </trkpt>
      <trkpt lat="47.26608" lon="-2.33153">
        <ele>8</ele>
        <time>2021-05-23T08:26:41.983Z</time>
      </trkpt>
      <trkpt lat="47.26608" lon="-2.33153">
        <ele>8</ele>
        <time>2021-05-23T08:26:42.983Z</time>
      </trkpt>
      <trkpt lat="47.26608" lon="-2.33153">
        <ele>8</ele>
        <time>2021-05-23T08:26:43.983Z</time>
      </trkpt>
      <trkpt lat="47.26608" lon="-2.33153">
        <ele>8</ele>
        <time>2021-05-23T08:26:44.982Z</time>
      </trkpt>
      <trkpt lat="47.26608" lon="-2.33153">
        <ele>8</ele>
        <time>2021-05-23T08:26:45.982Z</time>
      </trkpt>
      <trkpt lat="47.26608" lon="-2.33153">
        <ele>8</ele>
        <time>2021-05-23T08:26:46.982Z</time>
      </trkpt>
      <trkpt lat="47.26608" lon="-2.33153">
        <ele>8</ele>
        <time>2021-05-23T08:26:47.983Z</time>
      </trkpt>
      <trkpt lat="47.26608" lon="-2.33153">
        <ele>7</ele>
        <time>2021-05-23T08:26:48.983Z</time>
      </trkpt>
      <trkpt lat="47.26608" lon="-2.33153">
        <ele>7</ele>
        <time>2021-05-23T08:26:49.983Z</time>
      </trkpt>
      <trkpt lat="47.26608" lon="-2.33153">
        <ele>7</ele>
        <time>2021-05-23T08:26:50.983Z</time>
      </trkpt>
      <trkpt lat="47.26609" lon="-2.33153">
        <ele>7</ele>
        <time>2021-05-23T08:26:51.983Z</time>
      </trkpt>
      <trkpt lat="47.26612" lon="-2.33153">
        <ele>7</ele>
        <time>2021-05-23T08:26:52.983Z</time>
      </trkpt>
      <trkpt lat="47.26615" lon="-2.33154">
        <ele>7</ele>
        <time>2021-05-23T08:26:53.982Z</time>
      </trkpt>
      <trkpt lat="47.26618" lon="-2.33154">
        <ele>7</ele>
        <time>2021-05-23T08:26:54.983Z</time>
      </trkpt>
      <trkpt lat="47.26622" lon="-2.33154">
        <ele>7</ele>
        <time>2021-05-23T08:26:55.983Z</time>
      </trkpt>
      <trkpt lat="47.26624" lon="-2.33153">
        <ele>7</ele>
        <time>2021-05-23T08:26:56.983Z</time>
      </trkpt>
      <trkpt lat="47.26628" lon="-2.33153">
        <ele>7</ele>
        <time>2021-05-23T08:26:57.983Z</time>
      </trkpt>
      <trkpt lat="47.26631" lon="-2.33153">
        <ele>7</ele>
        <time>2021-05-23T08:26:58.983Z</time>
      </trkpt>
      <trkpt lat="47.26635" lon="-2.33153">
        <ele>7</ele>
        <time>2021-05-23T08:26:59.983Z</time>
      </trkpt>
      <trkpt lat="47.26638" lon="-2.33151">
        <ele>6</ele>
        <time>2021-05-23T08:27:00.983Z</time>
      </trkpt>
      <trkpt lat="47.26641" lon="-2.33149">
        <ele>6</ele>
        <time>2021-05-23T08:27:01.983Z</time>
      </trkpt>
      <trkpt lat="47.26643" lon="-2.33147">
        <ele>5</ele>
        <time>2021-05-23T08:27:02.983Z</time>
      </trkpt>
      <trkpt lat="47.26645" lon="-2.33145">
        <ele>4</ele>
        <time>2021-05-23T08:27:03.983Z</time>
      </trkpt>
      <trkpt lat="47.26647" lon="-2.33144">
        <ele>4</ele>
        <time>2021-05-23T08:27:04.983Z</time>
      </trkpt>
      <trkpt lat="47.26649" lon="-2.33142">
        <ele>3</ele>
        <time>2021-05-23T08:27:05.982Z</time>
      </trkpt>
      <trkpt lat="47.26651" lon="-2.3314">
        <ele>2</ele>
        <time>2021-05-23T08:27:06.982Z</time>
      </trkpt>
      <trkpt lat="47.26654" lon="-2.33139">
        <ele>2</ele>
        <time>2021-05-23T08:27:07.982Z</time>
      </trkpt>
      <trkpt lat="47.26656" lon="-2.33137">
        <ele>2</ele>
        <time>2021-05-23T08:27:08.982Z</time>
      </trkpt>
      <trkpt lat="47.26658" lon="-2.33135">
        <ele>2</ele>
        <time>2021-05-23T08:27:09.982Z</time>
      </trkpt>
      <trkpt lat="47.2666" lon="-2.33133">
        <ele>2</ele>
        <time>2021-05-23T08:27:10.982Z</time>
      </trkpt>
      <trkpt lat="47.26663" lon="-2.33131">
        <ele>2</ele>
        <time>2021-05-23T08:27:11.982Z</time>
      </trkpt>
      <trkpt lat="47.26664" lon="-2.33129">
        <ele>2</ele>
        <time>2021-05-23T08:27:12.982Z</time>
      </trkpt>
      <trkpt lat="47.26667" lon="-2.33126">
        <ele>2</ele>
        <time>2021-05-23T08:27:13.982Z</time>
      </trkpt>
      <trkpt lat="47.26669" lon="-2.33125">
        <ele>2</ele>
        <time>2021-05-23T08:27:14.982Z</time>
      </trkpt>
      <trkpt lat="47.26671" lon="-2.33123">
        <ele>2</ele>
        <time>2021-05-23T08:27:15.982Z</time>
      </trkpt>
      <trkpt lat="47.26674" lon="-2.33121">
        <ele>2</ele>
        <time>2021-05-23T08:27:16.982Z</time>
      </trkpt>
      <trkpt lat="47.26676" lon="-2.33119">
        <ele>2</ele>
        <time>2021-05-23T08:27:17.982Z</time>
      </trkpt>
      <trkpt lat="47.26679" lon="-2.33117">
        <ele>2</ele>
        <time>2021-05-23T08:27:18.982Z</time>
      </trkpt>
      <trkpt lat="47.26681" lon="-2.33115">
        <ele>2</ele>
        <time>2021-05-23T08:27:19.982Z</time>
      </trkpt>
      <trkpt lat="47.26683" lon="-2.33113">
        <ele>2</ele>
        <time>2021-05-23T08:27:20.982Z</time>
      </trkpt>
      <trkpt lat="47.26685" lon="-2.33111">
        <ele>2</ele>
        <time>2021-05-23T08:27:21.982Z</time>
      </trkpt>
      <trkpt lat="47.26688" lon="-2.33109">
        <ele>2</ele>
        <time>2021-05-23T08:27:22.982Z</time>
      </trkpt>
      <trkpt lat="47.26689" lon="-2.33106">
        <ele>2</ele>
        <time>2021-05-23T08:27:23.983Z</time>
      </trkpt>
      <trkpt lat="47.26691" lon="-2.33104">
        <ele>2</ele>
        <time>2021-05-23T08:27:24.983Z</time>
      </trkpt>
      <trkpt lat="47.26693" lon="-2.33102">
        <ele>2</ele>
        <time>2021-05-23T08:27:25.982Z</time>
      </trkpt>
      <trkpt lat="47.26695" lon="-2.331">
        <ele>2</ele>
        <time>2021-05-23T08:27:26.983Z</time>
      </trkpt>
      <trkpt lat="47.26697" lon="-2.33098">
        <ele>2</ele>
        <time>2021-05-23T08:27:27.983Z</time>
      </trkpt>
      <trkpt lat="47.26699" lon="-2.33096">
        <ele>2</ele>
        <time>2021-05-23T08:27:28.983Z</time>
      </trkpt>
      <trkpt lat="47.26701" lon="-2.33094">
        <ele>2</ele>
        <time>2021-05-23T08:27:29.982Z</time>
      </trkpt>
      <trkpt lat="47.26703" lon="-2.33092">
        <ele>2</ele>
        <time>2021-05-23T08:27:30.983Z</time>
      </trkpt>
      <trkpt lat="47.26705" lon="-2.33089">
        <ele>2</ele>
        <time>2021-05-23T08:27:31.983Z</time>
      </trkpt>
      <trkpt lat="47.26706" lon="-2.33088">
        <ele>3</ele>
        <time>2021-05-23T08:27:32.983Z</time>
      </trkpt>
      <trkpt lat="47.26709" lon="-2.33085">
        <ele>3</ele>
        <time>2021-05-23T08:27:33.983Z</time>
      </trkpt>
      <trkpt lat="47.2671" lon="-2.33083">
        <ele>3</ele>
        <time>2021-05-23T08:27:34.983Z</time>
      </trkpt>
      <trkpt lat="47.26713" lon="-2.3308">
        <ele>3</ele>
        <time>2021-05-23T08:27:35.982Z</time>
      </trkpt>
      <trkpt lat="47.26715" lon="-2.33078">
        <ele>3</ele>
        <time>2021-05-23T08:27:36.983Z</time>
      </trkpt>
      <trkpt lat="47.26717" lon="-2.33076">
        <ele>3</ele>
        <time>2021-05-23T08:27:37.983Z</time>
      </trkpt>
      <trkpt lat="47.26718" lon="-2.33074">
        <ele>4</ele>
        <time>2021-05-23T08:27:38.983Z</time>
      </trkpt>
      <trkpt lat="47.2672" lon="-2.33071">
        <ele>4</ele>
        <time>2021-05-23T08:27:39.983Z</time>
      </trkpt>
      <trkpt lat="47.26722" lon="-2.33068">
        <ele>3</ele>
        <time>2021-05-23T08:27:40.982Z</time>
      </trkpt>
      <trkpt lat="47.26724" lon="-2.33065">
        <ele>3</ele>
        <time>2021-05-23T08:27:41.982Z</time>
      </trkpt>
      <trkpt lat="47.26726" lon="-2.33062">
        <ele>2</ele>
        <time>2021-05-23T08:27:42.983Z</time>
      </trkpt>
      <trkpt lat="47.26727" lon="-2.33059">
        <ele>2</ele>
        <time>2021-05-23T08:27:43.983Z</time>
      </trkpt>
      <trkpt lat="47.26728" lon="-2.33055">
        <ele>2</ele>
        <time>2021-05-23T08:27:44.983Z</time>
      </trkpt>
      <trkpt lat="47.2673" lon="-2.33051">
        <ele>1</ele>
        <time>2021-05-23T08:27:45.983Z</time>
      </trkpt>
      <trkpt lat="47.26731" lon="-2.33047">
        <ele>1</ele>
        <time>2021-05-23T08:27:46.983Z</time>
      </trkpt>
      <trkpt lat="47.26731" lon="-2.33043">
        <ele>5.8</ele>
        <time>2021-05-23T08:27:47.983Z</time>
      </trkpt>
      <trkpt lat="47.26732" lon="-2.3304">
        <ele>1</ele>
        <time>2021-05-23T08:27:48.983Z</time>
      </trkpt>
      <trkpt lat="47.26733" lon="-2.33035">
        <ele>1</ele>
        <time>2021-05-23T08:27:49.982Z</time>
      </trkpt>
      <trkpt lat="47.26734" lon="-2.33032">
        <ele>1</ele>
        <time>2021-05-23T08:27:50.982Z</time>
      </trkpt>
      <trkpt lat="47.26734" lon="-2.33029">
        <ele>1</ele>
        <time>2021-05-23T08:27:51.983Z</time>
      </trkpt>
      <trkpt lat="47.26735" lon="-2.33026">
        <ele>1</ele>
        <time>2021-05-23T08:27:52.983Z</time>
      </trkpt>
      <trkpt lat="47.26735" lon="-2.33022">
        <ele>2</ele>
        <time>2021-05-23T08:27:53.982Z</time>
      </trkpt>
      <trkpt lat="47.26735" lon="-2.33019">
        <ele>1</ele>
        <time>2021-05-23T08:27:54.983Z</time>
      </trkpt>
      <trkpt lat="47.26734" lon="-2.33016">
        <ele>1</ele>
        <time>2021-05-23T08:27:55.983Z</time>
      </trkpt>
      <trkpt lat="47.26735" lon="-2.33012">
        <ele>1</ele>
        <time>2021-05-23T08:27:56.982Z</time>
      </trkpt>
      <trkpt lat="47.26735" lon="-2.33008">
        <ele>1</ele>
        <time>2021-05-23T08:27:57.982Z</time>
      </trkpt>
      <trkpt lat="47.26735" lon="-2.33005">
        <ele>1</ele>
        <time>2021-05-23T08:27:58.983Z</time>
      </trkpt>
      <trkpt lat="47.26736" lon="-2.33001">
        <ele>1</ele>
        <time>2021-05-23T08:27:59.983Z</time>
      </trkpt>
      <trkpt lat="47.26737" lon="-2.32997">
        <ele>1</ele>
        <time>2021-05-23T08:28:00.983Z</time>
      </trkpt>
      <trkpt lat="47.26737" lon="-2.32994">
        <ele>1</ele>
        <time>2021-05-23T08:28:01.983Z</time>
      </trkpt>
      <trkpt lat="47.26738" lon="-2.3299">
        <ele>6.7</ele>
        <time>2021-05-23T08:28:02.983Z</time>
      </trkpt>
      <trkpt lat="47.26739" lon="-2.32987">
        <ele>6.7</ele>
        <time>2021-05-23T08:28:03.983Z</time>
      </trkpt>
      <trkpt lat="47.2674" lon="-2.32983">
        <ele>6.7</ele>
        <time>2021-05-23T08:28:04.983Z</time>
      </trkpt>
      <trkpt lat="47.26742" lon="-2.3298">
        <ele>6.8</ele>
        <time>2021-05-23T08:28:05.983Z</time>
      </trkpt>
      <trkpt lat="47.26744" lon="-2.32978">
        <ele>6.8</ele>
        <time>2021-05-23T08:28:06.983Z</time>
      </trkpt>
      <trkpt lat="47.26746" lon="-2.32975">
        <ele>1</ele>
        <time>2021-05-23T08:28:07.982Z</time>
      </trkpt>
      <trkpt lat="47.26748" lon="-2.32971">
        <ele>1</ele>
        <time>2021-05-23T08:28:08.982Z</time>
      </trkpt>
      <trkpt lat="47.2675" lon="-2.32968">
        <ele>2</ele>
        <time>2021-05-23T08:28:09.983Z</time>
      </trkpt>
      <trkpt lat="47.26752" lon="-2.32966">
        <ele>2</ele>
        <time>2021-05-23T08:28:10.983Z</time>
      </trkpt>
      <trkpt lat="47.26754" lon="-2.32965">
        <ele>3</ele>
        <time>2021-05-23T08:28:11.983Z</time>
      </trkpt>
      <trkpt lat="47.26757" lon="-2.32962">
        <ele>3</ele>
        <time>2021-05-23T08:28:12.983Z</time>
      </trkpt>
      <trkpt lat="47.26759" lon="-2.3296">
        <ele>3</ele>
        <time>2021-05-23T08:28:13.983Z</time>
      </trkpt>
      <trkpt lat="47.26761" lon="-2.32958">
        <ele>2</ele>
        <time>2021-05-23T08:28:14.983Z</time>
      </trkpt>
      <trkpt lat="47.26763" lon="-2.32956">
        <ele>2</ele>
        <time>2021-05-23T08:28:15.983Z</time>
      </trkpt>
      <trkpt lat="47.26765" lon="-2.32954">
        <ele>2</ele>
        <time>2021-05-23T08:28:16.982Z</time>
      </trkpt>
      <trkpt lat="47.26768" lon="-2.32951">
        <ele>2</ele>
        <time>2021-05-23T08:28:17.983Z</time>
      </trkpt>
      <trkpt lat="47.2677" lon="-2.32948">
        <ele>1</ele>
        <time>2021-05-23T08:28:18.983Z</time>
      </trkpt>
      <trkpt lat="47.26772" lon="-2.32946">
        <ele>1</ele>
        <time>2021-05-23T08:28:19.983Z</time>
      </trkpt>
      <trkpt lat="47.26773" lon="-2.32944">
        <ele>1</ele>
        <time>2021-05-23T08:28:20.983Z</time>
      </trkpt>
      <trkpt lat="47.26775" lon="-2.32942">
        <ele>1</ele>
        <time>2021-05-23T08:28:21.983Z</time>
      </trkpt>
      <trkpt lat="47.26777" lon="-2.32938">
        <ele>1</ele>
        <time>2021-05-23T08:28:22.982Z</time>
      </trkpt>
      <trkpt lat="47.26779" lon="-2.32936">
        <ele>1</ele>
        <time>2021-05-23T08:28:23.983Z</time>
      </trkpt>
      <trkpt lat="47.26781" lon="-2.32934">
        <ele>1</ele>
        <time>2021-05-23T08:28:24.983Z</time>
      </trkpt>
      <trkpt lat="47.26782" lon="-2.32932">
        <ele>1</ele>
        <time>2021-05-23T08:28:25.983Z</time>
      </trkpt>
      <trkpt lat="47.26785" lon="-2.3293">
        <ele>2</ele>
        <time>2021-05-23T08:28:26.983Z</time>
      </trkpt>
      <trkpt lat="47.26787" lon="-2.32928">
        <ele>1</ele>
        <time>2021-05-23T08:28:27.982Z</time>
      </trkpt>
      <trkpt lat="47.26789" lon="-2.32927">
        <ele>1</ele>
        <time>2021-05-23T08:28:28.983Z</time>
      </trkpt>
      <trkpt lat="47.26791" lon="-2.32925">
        <ele>1</ele>
        <time>2021-05-23T08:28:29.983Z</time>
      </trkpt>
      <trkpt lat="47.26793" lon="-2.32924">
        <ele>1</ele>
        <time>2021-05-23T08:28:30.982Z</time>
      </trkpt>
      <trkpt lat="47.26795" lon="-2.32922">
        <ele>2</ele>
        <time>2021-05-23T08:28:31.982Z</time>
      </trkpt>
      <trkpt lat="47.26798" lon="-2.32921">
        <ele>2</ele>
        <time>2021-05-23T08:28:32.983Z</time>
      </trkpt>
      <trkpt lat="47.268" lon="-2.3292">
        <ele>2</ele>
        <time>2021-05-23T08:28:33.982Z</time>
      </trkpt>
      <trkpt lat="47.26801" lon="-2.32919">
        <ele>3</ele>
        <time>2021-05-23T08:28:34.983Z</time>
      </trkpt>
      <trkpt lat="47.26803" lon="-2.32918">
        <ele>2</ele>
        <time>2021-05-23T08:28:35.983Z</time>
      </trkpt>
      <trkpt lat="47.26805" lon="-2.32917">
        <ele>3</ele>
        <time>2021-05-23T08:28:36.983Z</time>
      </trkpt>
      <trkpt lat="47.26808" lon="-2.32916">
        <ele>3</ele>
        <time>2021-05-23T08:28:37.983Z</time>
      </trkpt>
      <trkpt lat="47.2681" lon="-2.32914">
        <ele>3</ele>
        <time>2021-05-23T08:28:38.983Z</time>
      </trkpt>
      <trkpt lat="47.26812" lon="-2.32913">
        <ele>3</ele>
        <time>2021-05-23T08:28:39.983Z</time>
      </trkpt>
      <trkpt lat="47.26814" lon="-2.32911">
        <ele>3</ele>
        <time>2021-05-23T08:28:40.983Z</time>
      </trkpt>
      <trkpt lat="47.26816" lon="-2.32909">
        <ele>4</ele>
        <time>2021-05-23T08:28:41.983Z</time>
      </trkpt>
      <trkpt lat="47.26817" lon="-2.32907">
        <ele>5</ele>
        <time>2021-05-23T08:28:42.982Z</time>
      </trkpt>
      <trkpt lat="47.26819" lon="-2.32905">
        <ele>6</ele>
        <time>2021-05-23T08:28:43.983Z</time>
      </trkpt>
      <trkpt lat="47.2682" lon="-2.32904">
        <ele>6</ele>
        <time>2021-05-23T08:28:44.983Z</time>
      </trkpt>
      <trkpt lat="47.26823" lon="-2.32902">
        <ele>7</ele>
        <time>2021-05-23T08:28:45.983Z</time>
      </trkpt>
      <trkpt lat="47.26825" lon="-2.329">
        <ele>8</ele>
        <time>2021-05-23T08:28:46.982Z</time>
      </trkpt>
      <trkpt lat="47.26827" lon="-2.32898">
        <ele>9</ele>
        <time>2021-05-23T08:28:47.983Z</time>
      </trkpt>
      <trkpt lat="47.26829" lon="-2.32897">
        <ele>9</ele>
        <time>2021-05-23T08:28:48.983Z</time>
      </trkpt>
      <trkpt lat="47.26831" lon="-2.32895">
        <ele>10</ele>
        <time>2021-05-23T08:28:49.983Z</time>
      </trkpt>
      <trkpt lat="47.26833" lon="-2.32893">
        <ele>10</ele>
        <time>2021-05-23T08:28:50.983Z</time>
      </trkpt>
      <trkpt lat="47.26835" lon="-2.32891">
        <ele>10</ele>
        <time>2021-05-23T08:28:51.982Z</time>
      </trkpt>
      <trkpt lat="47.26837" lon="-2.3289">
        <ele>10</ele>
        <time>2021-05-23T08:28:52.982Z</time>
      </trkpt>
      <trkpt lat="47.2684" lon="-2.32889">
        <ele>11</ele>
        <time>2021-05-23T08:28:53.983Z</time>
      </trkpt>
      <trkpt lat="47.26843" lon="-2.32889">
        <ele>11</ele>
        <time>2021-05-23T08:28:54.983Z</time>
      </trkpt>
      <trkpt lat="47.26846" lon="-2.32889">
        <ele>11</ele>
        <time>2021-05-23T08:28:55.983Z</time>
      </trkpt>
      <trkpt lat="47.26849" lon="-2.32888">
        <ele>11</ele>
        <time>2021-05-23T08:28:56.983Z</time>
      </trkpt>
      <trkpt lat="47.26852" lon="-2.32886">
        <ele>11</ele>
        <time>2021-05-23T08:28:57.983Z</time>
      </trkpt>
      <trkpt lat="47.26854" lon="-2.32885">
        <ele>11</ele>
        <time>2021-05-23T08:28:58.982Z</time>
      </trkpt>
      <trkpt lat="47.26858" lon="-2.32883">
        <ele>10</ele>
        <time>2021-05-23T08:28:59.982Z</time>
      </trkpt>
      <trkpt lat="47.2686" lon="-2.3288">
        <ele>10</ele>
        <time>2021-05-23T08:29:00.982Z</time>
      </trkpt>
      <trkpt lat="47.26862" lon="-2.32879">
        <ele>9</ele>
        <time>2021-05-23T08:29:01.983Z</time>
      </trkpt>
      <trkpt lat="47.26864" lon="-2.32875">
        <ele>9</ele>
        <time>2021-05-23T08:29:02.983Z</time>
      </trkpt>
      <trkpt lat="47.26865" lon="-2.32872">
        <ele>9</ele>
        <time>2021-05-23T08:29:03.983Z</time>
      </trkpt>
      <trkpt lat="47.26865" lon="-2.32867">
        <ele>9</ele>
        <time>2021-05-23T08:29:04.983Z</time>
      </trkpt>
      <trkpt lat="47.26864" lon="-2.32863">
        <ele>8</ele>
        <time>2021-05-23T08:29:05.983Z</time>
      </trkpt>
      <trkpt lat="47.26863" lon="-2.3286">
        <ele>8</ele>
        <time>2021-05-23T08:29:06.982Z</time>
      </trkpt>
      <trkpt lat="47.26862" lon="-2.32857">
        <ele>8</ele>
        <time>2021-05-23T08:29:07.982Z</time>
      </trkpt>
      <trkpt lat="47.26861" lon="-2.32854">
        <ele>7</ele>
        <time>2021-05-23T08:29:08.983Z</time>
      </trkpt>
      <trkpt lat="47.2686" lon="-2.32853">
        <ele>7</ele>
        <time>2021-05-23T08:29:09.983Z</time>
      </trkpt>
      <trkpt lat="47.26859" lon="-2.32851">
        <ele>6</ele>
        <time>2021-05-23T08:29:10.983Z</time>
      </trkpt>
      <trkpt lat="47.26858" lon="-2.32849">
        <ele>7</ele>
        <time>2021-05-23T08:29:11.983Z</time>
      </trkpt>
      <trkpt lat="47.26857" lon="-2.32847">
        <ele>7</ele>
        <time>2021-05-23T08:29:12.983Z</time>
      </trkpt>
      <trkpt lat="47.26856" lon="-2.32844">
        <ele>6</ele>
        <time>2021-05-23T08:29:13.982Z</time>
      </trkpt>
      <trkpt lat="47.26855" lon="-2.32842">
        <ele>6</ele>
        <time>2021-05-23T08:29:14.983Z</time>
      </trkpt>
      <trkpt lat="47.26854" lon="-2.3284">
        <ele>5</ele>
        <time>2021-05-23T08:29:15.982Z</time>
      </trkpt>
      <trkpt lat="47.26854" lon="-2.32839">
        <ele>5</ele>
        <time>2021-05-23T08:29:16.983Z</time>
      </trkpt>
      <trkpt lat="47.26853" lon="-2.32837">
        <ele>5</ele>
        <time>2021-05-23T08:29:17.983Z</time>
      </trkpt>
      <trkpt lat="47.26852" lon="-2.32834">
        <ele>4</ele>
        <time>2021-05-23T08:29:18.982Z</time>
      </trkpt>
      <trkpt lat="47.26852" lon="-2.32833">
        <ele>5</ele>
        <time>2021-05-23T08:29:19.983Z</time>
      </trkpt>
      <trkpt lat="47.26851" lon="-2.32831">
        <ele>5</ele>
        <time>2021-05-23T08:29:20.982Z</time>
      </trkpt>
      <trkpt lat="47.2685" lon="-2.32829">
        <ele>5</ele>
        <time>2021-05-23T08:29:21.983Z</time>
      </trkpt>
      <trkpt lat="47.26849" lon="-2.32827">
        <ele>6</ele>
        <time>2021-05-23T08:29:22.983Z</time>
      </trkpt>
      <trkpt lat="47.26849" lon="-2.32824">
        <ele>6</ele>
        <time>2021-05-23T08:29:23.983Z</time>
      </trkpt>
      <trkpt lat="47.26848" lon="-2.32823">
        <ele>6</ele>
        <time>2021-05-23T08:29:24.983Z</time>
      </trkpt>
      <trkpt lat="47.26847" lon="-2.32821">
        <ele>7</ele>
        <time>2021-05-23T08:29:25.983Z</time>
      </trkpt>
      <trkpt lat="47.26847" lon="-2.32819">
        <ele>7</ele>
        <time>2021-05-23T08:29:26.982Z</time>
      </trkpt>
      <trkpt lat="47.26846" lon="-2.32817">
        <ele>7</ele>
        <time>2021-05-23T08:29:27.983Z</time>
      </trkpt>
      <trkpt lat="47.26845" lon="-2.32815">
        <ele>8</ele>
        <time>2021-05-23T08:29:28.983Z</time>
      </trkpt>
      <trkpt lat="47.26844" lon="-2.32813">
        <ele>8</ele>
        <time>2021-05-23T08:29:29.982Z</time>
      </trkpt>
      <trkpt lat="47.26843" lon="-2.3281">
        <ele>8</ele>
        <time>2021-05-23T08:29:30.983Z</time>
      </trkpt>
      <trkpt lat="47.26843" lon="-2.32808">
        <ele>8</ele>
        <time>2021-05-23T08:29:31.983Z</time>
      </trkpt>
      <trkpt lat="47.26842" lon="-2.32806">
        <ele>8</ele>
        <time>2021-05-23T08:29:32.982Z</time>
      </trkpt>
      <trkpt lat="47.26842" lon="-2.32804">
        <ele>8</ele>
        <time>2021-05-23T08:29:33.982Z</time>
      </trkpt>
      <trkpt lat="47.26842" lon="-2.32803">
        <ele>7</ele>
        <time>2021-05-23T08:29:34.983Z</time>
      </trkpt>
      <trkpt lat="47.26841" lon="-2.32801">
        <ele>7</ele>
        <time>2021-05-23T08:29:35.983Z</time>
      </trkpt>
      <trkpt lat="47.26841" lon="-2.32799">
        <ele>8</ele>
        <time>2021-05-23T08:29:36.982Z</time>
      </trkpt>
      <trkpt lat="47.2684" lon="-2.32797">
        <ele>8</ele>
        <time>2021-05-23T08:29:37.982Z</time>
      </trkpt>
      <trkpt lat="47.26839" lon="-2.32795">
        <ele>8</ele>
        <time>2021-05-23T08:29:38.982Z</time>
      </trkpt>
      <trkpt lat="47.26837" lon="-2.32793">
        <ele>8</ele>
        <time>2021-05-23T08:29:39.983Z</time>
      </trkpt>
      <trkpt lat="47.26836" lon="-2.32791">
        <ele>8</ele>
        <time>2021-05-23T08:29:40.983Z</time>
      </trkpt>
      <trkpt lat="47.26835" lon="-2.32789">
        <ele>8</ele>
        <time>2021-05-23T08:29:41.983Z</time>
      </trkpt>
      <trkpt lat="47.26835" lon="-2.32786">
        <ele>8</ele>
        <time>2021-05-23T08:29:42.982Z</time>
      </trkpt>
      <trkpt lat="47.26835" lon="-2.32785">
        <ele>8</ele>
        <time>2021-05-23T08:29:43.983Z</time>
      </trkpt>
      <trkpt lat="47.26835" lon="-2.32782">
        <ele>9</ele>
        <time>2021-05-23T08:29:44.982Z</time>
      </trkpt>
      <trkpt lat="47.26835" lon="-2.32781">
        <ele>10</ele>
        <time>2021-05-23T08:29:45.982Z</time>
      </trkpt>
      <trkpt lat="47.26834" lon="-2.32779">
        <ele>10</ele>
        <time>2021-05-23T08:29:46.982Z</time>
      </trkpt>
      <trkpt lat="47.26834" lon="-2.32777">
        <ele>10</ele>
        <time>2021-05-23T08:29:47.982Z</time>
      </trkpt>
      <trkpt lat="47.26833" lon="-2.32775">
        <ele>10</ele>
        <time>2021-05-23T08:29:48.982Z</time>
      </trkpt>
      <trkpt lat="47.26833" lon="-2.32773">
        <ele>10</ele>
        <time>2021-05-23T08:29:49.982Z</time>
      </trkpt>
      <trkpt lat="47.26832" lon="-2.32771">
        <ele>11</ele>
        <time>2021-05-23T08:29:50.982Z</time>
      </trkpt>
      <trkpt lat="47.26831" lon="-2.3277">
        <ele>11</ele>
        <time>2021-05-23T08:29:51.982Z</time>
      </trkpt>
      <trkpt lat="47.26831" lon="-2.32768">
        <ele>11</ele>
        <time>2021-05-23T08:29:52.983Z</time>
      </trkpt>
      <trkpt lat="47.26831" lon="-2.32766">
        <ele>10</ele>
        <time>2021-05-23T08:29:53.982Z</time>
      </trkpt>
      <trkpt lat="47.2683" lon="-2.32764">
        <ele>10</ele>
        <time>2021-05-23T08:29:54.982Z</time>
      </trkpt>
      <trkpt lat="47.26829" lon="-2.32761">
        <ele>10</ele>
        <time>2021-05-23T08:29:55.983Z</time>
      </trkpt>
      <trkpt lat="47.26829" lon="-2.32759">
        <ele>10</ele>
        <time>2021-05-23T08:29:56.982Z</time>
      </trkpt>
      <trkpt lat="47.26828" lon="-2.32757">
        <ele>9</ele>
        <time>2021-05-23T08:29:57.982Z</time>
      </trkpt>
      <trkpt lat="47.26827" lon="-2.32755">
        <ele>9</ele>
        <time>2021-05-23T08:29:58.982Z</time>
      </trkpt>
      <trkpt lat="47.26826" lon="-2.32753">
        <ele>9</ele>
        <time>2021-05-23T08:29:59.982Z</time>
      </trkpt>
      <trkpt lat="47.26826" lon="-2.32752">
        <ele>10</ele>
        <time>2021-05-23T08:30:00.983Z</time>
      </trkpt>
      <trkpt lat="47.26826" lon="-2.3275">
        <ele>10</ele>
        <time>2021-05-23T08:30:01.983Z</time>
      </trkpt>
      <trkpt lat="47.26825" lon="-2.32748">
        <ele>11</ele>
        <time>2021-05-23T08:30:02.983Z</time>
      </trkpt>
      <trkpt lat="47.26823" lon="-2.32746">
        <ele>11</ele>
        <time>2021-05-23T08:30:03.983Z</time>
      </trkpt>
      <trkpt lat="47.26823" lon="-2.32744">
        <ele>11</ele>
        <time>2021-05-23T08:30:04.982Z</time>
      </trkpt>
      <trkpt lat="47.26822" lon="-2.32742">
        <ele>11</ele>
        <time>2021-05-23T08:30:05.983Z</time>
      </trkpt>
      <trkpt lat="47.26822" lon="-2.3274">
        <ele>11</ele>
        <time>2021-05-23T08:30:06.983Z</time>
      </trkpt>
      <trkpt lat="47.26821" lon="-2.32738">
        <ele>10</ele>
        <time>2021-05-23T08:30:07.983Z</time>
      </trkpt>
      <trkpt lat="47.26821" lon="-2.32737">
        <ele>10</ele>
        <time>2021-05-23T08:30:08.982Z</time>
      </trkpt>
      <trkpt lat="47.2682" lon="-2.32735">
        <ele>10</ele>
        <time>2021-05-23T08:30:09.983Z</time>
      </trkpt>
      <trkpt lat="47.26819" lon="-2.32733">
        <ele>10</ele>
        <time>2021-05-23T08:30:10.983Z</time>
      </trkpt>
      <trkpt lat="47.26818" lon="-2.32731">
        <ele>10</ele>
        <time>2021-05-23T08:30:11.982Z</time>
      </trkpt>
      <trkpt lat="47.26817" lon="-2.32729">
        <ele>10</ele>
        <time>2021-05-23T08:30:12.983Z</time>
      </trkpt>
      <trkpt lat="47.26815" lon="-2.32727">
        <ele>10</ele>
        <time>2021-05-23T08:30:13.983Z</time>
      </trkpt>
      <trkpt lat="47.26815" lon="-2.32725">
        <ele>9</ele>
        <time>2021-05-23T08:30:14.982Z</time>
      </trkpt>
      <trkpt lat="47.26814" lon="-2.32723">
        <ele>9</ele>
        <time>2021-05-23T08:30:15.983Z</time>
      </trkpt>
      <trkpt lat="47.26813" lon="-2.32721">
        <ele>9</ele>
        <time>2021-05-23T08:30:16.982Z</time>
      </trkpt>
      <trkpt lat="47.26812" lon="-2.3272">
        <ele>9</ele>
        <time>2021-05-23T08:30:17.983Z</time>
      </trkpt>
      <trkpt lat="47.2681" lon="-2.32718">
        <ele>9</ele>
        <time>2021-05-23T08:30:18.983Z</time>
      </trkpt>
      <trkpt lat="47.26809" lon="-2.32715">
        <ele>9</ele>
        <time>2021-05-23T08:30:19.983Z</time>
      </trkpt>
      <trkpt lat="47.26808" lon="-2.32713">
        <ele>9</ele>
        <time>2021-05-23T08:30:20.983Z</time>
      </trkpt>
      <trkpt lat="47.26807" lon="-2.32711">
        <ele>10</ele>
        <time>2021-05-23T08:30:21.982Z</time>
      </trkpt>
      <trkpt lat="47.26805" lon="-2.32709">
        <ele>10</ele>
        <time>2021-05-23T08:30:22.983Z</time>
      </trkpt>
      <trkpt lat="47.26805" lon="-2.32708">
        <ele>10</ele>
        <time>2021-05-23T08:30:23.983Z</time>
      </trkpt>
      <trkpt lat="47.26804" lon="-2.32705">
        <ele>11</ele>
        <time>2021-05-23T08:30:24.983Z</time>
      </trkpt>
      <trkpt lat="47.26803" lon="-2.32703">
        <ele>11</ele>
        <time>2021-05-23T08:30:25.982Z</time>
      </trkpt>
      <trkpt lat="47.26802" lon="-2.327">
        <ele>12</ele>
        <time>2021-05-23T08:30:26.983Z</time>
      </trkpt>
      <trkpt lat="47.26801" lon="-2.32698">
        <ele>12</ele>
        <time>2021-05-23T08:30:27.983Z</time>
      </trkpt>
      <trkpt lat="47.268" lon="-2.32697">
        <ele>12</ele>
        <time>2021-05-23T08:30:28.983Z</time>
      </trkpt>
      <trkpt lat="47.26798" lon="-2.32695">
        <ele>12</ele>
        <time>2021-05-23T08:30:29.983Z</time>
      </trkpt>
      <trkpt lat="47.26797" lon="-2.32692">
        <ele>12</ele>
        <time>2021-05-23T08:30:30.983Z</time>
      </trkpt>
      <trkpt lat="47.26796" lon="-2.32689">
        <ele>13</ele>
        <time>2021-05-23T08:30:31.983Z</time>
      </trkpt>
      <trkpt lat="47.26796" lon="-2.32686">
        <ele>13</ele>
        <time>2021-05-23T08:30:32.983Z</time>
      </trkpt>
      <trkpt lat="47.26795" lon="-2.32684">
        <ele>14</ele>
        <time>2021-05-23T08:30:33.983Z</time>
      </trkpt>
      <trkpt lat="47.26796" lon="-2.3268">
        <ele>14</ele>
        <time>2021-05-23T08:30:34.983Z</time>
      </trkpt>
      <trkpt lat="47.26797" lon="-2.32678">
        <ele>15</ele>
        <time>2021-05-23T08:30:35.982Z</time>
      </trkpt>
      <trkpt lat="47.26798" lon="-2.32675">
        <ele>15</ele>
        <time>2021-05-23T08:30:36.982Z</time>
      </trkpt>
      <trkpt lat="47.268" lon="-2.32672">
        <ele>15</ele>
        <time>2021-05-23T08:30:37.982Z</time>
      </trkpt>
      <trkpt lat="47.26801" lon="-2.32669">
        <ele>15</ele>
        <time>2021-05-23T08:30:38.983Z</time>
      </trkpt>
      <trkpt lat="47.26803" lon="-2.32666">
        <ele>16</ele>
        <time>2021-05-23T08:30:39.983Z</time>
      </trkpt>
      <trkpt lat="47.26804" lon="-2.32662">
        <ele>15</ele>
        <time>2021-05-23T08:30:40.983Z</time>
      </trkpt>
      <trkpt lat="47.26805" lon="-2.32659">
        <ele>15</ele>
        <time>2021-05-23T08:30:41.983Z</time>
      </trkpt>
      <trkpt lat="47.26806" lon="-2.32656">
        <ele>15</ele>
        <time>2021-05-23T08:30:42.983Z</time>
      </trkpt>
      <trkpt lat="47.26807" lon="-2.32652">
        <ele>15</ele>
        <time>2021-05-23T08:30:43.983Z</time>
      </trkpt>
      <trkpt lat="47.26807" lon="-2.32648">
        <ele>15</ele>
        <time>2021-05-23T08:30:44.982Z</time>
      </trkpt>
      <trkpt lat="47.26808" lon="-2.32643">
        <ele>15</ele>
        <time>2021-05-23T08:30:45.983Z</time>
      </trkpt>
      <trkpt lat="47.26807" lon="-2.3264">
        <ele>15</ele>
        <time>2021-05-23T08:30:46.983Z</time>
      </trkpt>
      <trkpt lat="47.26807" lon="-2.32636">
        <ele>16</ele>
        <time>2021-05-23T08:30:47.983Z</time>
      </trkpt>
      <trkpt lat="47.26807" lon="-2.32633">
        <ele>16</ele>
        <time>2021-05-23T08:30:48.983Z</time>
      </trkpt>
      <trkpt lat="47.26806" lon="-2.3263">
        <ele>16</ele>
        <time>2021-05-23T08:30:49.982Z</time>
      </trkpt>
      <trkpt lat="47.26806" lon="-2.32626">
        <ele>16</ele>
        <time>2021-05-23T08:30:50.982Z</time>
      </trkpt>
      <trkpt lat="47.26805" lon="-2.32624">
        <ele>17</ele>
        <time>2021-05-23T08:30:51.983Z</time>
      </trkpt>
      <trkpt lat="47.26804" lon="-2.3262">
        <ele>17</ele>
        <time>2021-05-23T08:30:52.983Z</time>
      </trkpt>
      <trkpt lat="47.26804" lon="-2.32616">
        <ele>17</ele>
        <time>2021-05-23T08:30:53.983Z</time>
      </trkpt>
      <trkpt lat="47.26803" lon="-2.32613">
        <ele>17</ele>
        <time>2021-05-23T08:30:54.983Z</time>
      </trkpt>
      <trkpt lat="47.26802" lon="-2.3261">
        <ele>17</ele>
        <time>2021-05-23T08:30:55.983Z</time>
      </trkpt>
      <trkpt lat="47.26801" lon="-2.32606">
        <ele>16</ele>
        <time>2021-05-23T08:30:56.983Z</time>
      </trkpt>
      <trkpt lat="47.26801" lon="-2.32603">
        <ele>16</ele>
        <time>2021-05-23T08:30:57.983Z</time>
      </trkpt>
      <trkpt lat="47.268" lon="-2.326">
        <ele>16</ele>
        <time>2021-05-23T08:30:58.983Z</time>
      </trkpt>
      <trkpt lat="47.26799" lon="-2.32596">
        <ele>15</ele>
        <time>2021-05-23T08:30:59.983Z</time>
      </trkpt>
      <trkpt lat="47.26799" lon="-2.32593">
        <ele>15</ele>
        <time>2021-05-23T08:31:00.982Z</time>
      </trkpt>
      <trkpt lat="47.26798" lon="-2.32589">
        <ele>14</ele>
        <time>2021-05-23T08:31:01.983Z</time>
      </trkpt>
      <trkpt lat="47.26797" lon="-2.32585">
        <ele>14</ele>
        <time>2021-05-23T08:31:02.983Z</time>
      </trkpt>
      <trkpt lat="47.26797" lon="-2.32582">
        <ele>13</ele>
        <time>2021-05-23T08:31:03.983Z</time>
      </trkpt>
      <trkpt lat="47.26796" lon="-2.32578">
        <ele>13</ele>
        <time>2021-05-23T08:31:04.983Z</time>
      </trkpt>
      <trkpt lat="47.26795" lon="-2.32576">
        <ele>12</ele>
        <time>2021-05-23T08:31:05.983Z</time>
      </trkpt>
      <trkpt lat="47.26794" lon="-2.32571">
        <ele>12</ele>
        <time>2021-05-23T08:31:06.982Z</time>
      </trkpt>
      <trkpt lat="47.26794" lon="-2.32567">
        <ele>12</ele>
        <time>2021-05-23T08:31:07.983Z</time>
      </trkpt>
      <trkpt lat="47.26793" lon="-2.32565">
        <ele>11</ele>
        <time>2021-05-23T08:31:08.982Z</time>
      </trkpt>
      <trkpt lat="47.26793" lon="-2.32561">
        <ele>11</ele>
        <time>2021-05-23T08:31:09.982Z</time>
      </trkpt>
      <trkpt lat="47.26793" lon="-2.32558">
        <ele>11</ele>
        <time>2021-05-23T08:31:10.983Z</time>
      </trkpt>
      <trkpt lat="47.26792" lon="-2.32553">
        <ele>11</ele>
        <time>2021-05-23T08:31:11.982Z</time>
      </trkpt>
      <trkpt lat="47.26792" lon="-2.3255">
        <ele>11</ele>
        <time>2021-05-23T08:31:12.982Z</time>
      </trkpt>
      <trkpt lat="47.26792" lon="-2.32547">
        <ele>11</ele>
        <time>2021-05-23T08:31:13.983Z</time>
      </trkpt>
      <trkpt lat="47.26792" lon="-2.32543">
        <ele>12</ele>
        <time>2021-05-23T08:31:14.983Z</time>
      </trkpt>
      <trkpt lat="47.26792" lon="-2.32539">
        <ele>12</ele>
        <time>2021-05-23T08:31:15.982Z</time>
      </trkpt>
      <trkpt lat="47.26792" lon="-2.32535">
        <ele>12</ele>
        <time>2021-05-23T08:31:16.983Z</time>
      </trkpt>
      <trkpt lat="47.26792" lon="-2.32531">
        <ele>12</ele>
        <time>2021-05-23T08:31:17.982Z</time>
      </trkpt>
      <trkpt lat="47.26792" lon="-2.32527">
        <ele>12</ele>
        <time>2021-05-23T08:31:18.982Z</time>
      </trkpt>
      <trkpt lat="47.26792" lon="-2.32524">
        <ele>12</ele>
        <time>2021-05-23T08:31:19.983Z</time>
      </trkpt>
      <trkpt lat="47.26792" lon="-2.32521">
        <ele>12</ele>
        <time>2021-05-23T08:31:20.983Z</time>
      </trkpt>
      <trkpt lat="47.26791" lon="-2.32517">
        <ele>13</ele>
        <time>2021-05-23T08:31:21.983Z</time>
      </trkpt>
      <trkpt lat="47.26791" lon="-2.32513">
        <ele>13</ele>
        <time>2021-05-23T08:31:22.982Z</time>
      </trkpt>
      <trkpt lat="47.26791" lon="-2.3251">
        <ele>12</ele>
        <time>2021-05-23T08:31:23.982Z</time>
      </trkpt>
      <trkpt lat="47.2679" lon="-2.32507">
        <ele>13</ele>
        <time>2021-05-23T08:31:24.983Z</time>
      </trkpt>
      <trkpt lat="47.2679" lon="-2.32503">
        <ele>13</ele>
        <time>2021-05-23T08:31:25.982Z</time>
      </trkpt>
      <trkpt lat="47.2679" lon="-2.325">
        <ele>14</ele>
        <time>2021-05-23T08:31:26.983Z</time>
      </trkpt>
      <trkpt lat="47.26789" lon="-2.32497">
        <ele>14</ele>
        <time>2021-05-23T08:31:27.982Z</time>
      </trkpt>
      <trkpt lat="47.26789" lon="-2.32492">
        <ele>14</ele>
        <time>2021-05-23T08:31:28.983Z</time>
      </trkpt>
      <trkpt lat="47.26788" lon="-2.32489">
        <ele>14</ele>
        <time>2021-05-23T08:31:29.983Z</time>
      </trkpt>
      <trkpt lat="47.26788" lon="-2.32485">
        <ele>14</ele>
        <time>2021-05-23T08:31:30.983Z</time>
      </trkpt>
      <trkpt lat="47.26788" lon="-2.32482">
        <ele>14</ele>
        <time>2021-05-23T08:31:31.983Z</time>
      </trkpt>
      <trkpt lat="47.26788" lon="-2.32479">
        <ele>14</ele>
        <time>2021-05-23T08:31:32.983Z</time>
      </trkpt>
      <trkpt lat="47.26788" lon="-2.32475">
        <ele>15</ele>
        <time>2021-05-23T08:31:33.983Z</time>
      </trkpt>
      <trkpt lat="47.26788" lon="-2.32472">
        <ele>14</ele>
        <time>2021-05-23T08:31:34.983Z</time>
      </trkpt>
      <trkpt lat="47.26788" lon="-2.32468">
        <ele>14</ele>
        <time>2021-05-23T08:31:35.983Z</time>
      </trkpt>
      <trkpt lat="47.26787" lon="-2.32465">
        <ele>15</ele>
        <time>2021-05-23T08:31:36.983Z</time>
      </trkpt>
      <trkpt lat="47.26787" lon="-2.32462">
        <ele>15</ele>
        <time>2021-05-23T08:31:37.983Z</time>
      </trkpt>
      <trkpt lat="47.26786" lon="-2.32458">
        <ele>15</ele>
        <time>2021-05-23T08:31:38.982Z</time>
      </trkpt>
      <trkpt lat="47.26786" lon="-2.32455">
        <ele>16</ele>
        <time>2021-05-23T08:31:39.983Z</time>
      </trkpt>
      <trkpt lat="47.26785" lon="-2.32451">
        <ele>16</ele>
        <time>2021-05-23T08:31:40.982Z</time>
      </trkpt>
      <trkpt lat="47.26785" lon="-2.32448">
        <ele>16</ele>
        <time>2021-05-23T08:31:41.982Z</time>
      </trkpt>
      <trkpt lat="47.26784" lon="-2.32444">
        <ele>16</ele>
        <time>2021-05-23T08:31:42.983Z</time>
      </trkpt>
      <trkpt lat="47.26784" lon="-2.3244">
        <ele>16</ele>
        <time>2021-05-23T08:31:43.982Z</time>
      </trkpt>
      <trkpt lat="47.26783" lon="-2.32436">
        <ele>16</ele>
        <time>2021-05-23T08:31:44.983Z</time>
      </trkpt>
      <trkpt lat="47.26783" lon="-2.32433">
        <ele>16</ele>
        <time>2021-05-23T08:31:45.983Z</time>
      </trkpt>
      <trkpt lat="47.26782" lon="-2.3243">
        <ele>16</ele>
        <time>2021-05-23T08:31:46.983Z</time>
      </trkpt>
      <trkpt lat="47.26781" lon="-2.32427">
        <ele>16</ele>
        <time>2021-05-23T08:31:47.983Z</time>
      </trkpt>
      <trkpt lat="47.2678" lon="-2.32423">
        <ele>16</ele>
        <time>2021-05-23T08:31:48.983Z</time>
      </trkpt>
      <trkpt lat="47.2678" lon="-2.32419">
        <ele>16</ele>
        <time>2021-05-23T08:31:49.983Z</time>
      </trkpt>
      <trkpt lat="47.2678" lon="-2.32415">
        <ele>16</ele>
        <time>2021-05-23T08:31:50.983Z</time>
      </trkpt>
      <trkpt lat="47.2678" lon="-2.32412">
        <ele>16</ele>
        <time>2021-05-23T08:31:51.983Z</time>
      </trkpt>
      <trkpt lat="47.26779" lon="-2.32408">
        <ele>16</ele>
        <time>2021-05-23T08:31:52.983Z</time>
      </trkpt>
      <trkpt lat="47.26779" lon="-2.32405">
        <ele>16</ele>
        <time>2021-05-23T08:31:53.983Z</time>
      </trkpt>
      <trkpt lat="47.26778" lon="-2.32402">
        <ele>16</ele>
        <time>2021-05-23T08:31:54.983Z</time>
      </trkpt>
      <trkpt lat="47.26778" lon="-2.32398">
        <ele>16</ele>
        <time>2021-05-23T08:31:55.982Z</time>
      </trkpt>
      <trkpt lat="47.26777" lon="-2.32394">
        <ele>15</ele>
        <time>2021-05-23T08:31:56.982Z</time>
      </trkpt>
      <trkpt lat="47.26777" lon="-2.32392">
        <ele>15</ele>
        <time>2021-05-23T08:31:57.983Z</time>
      </trkpt>
      <trkpt lat="47.26776" lon="-2.32388">
        <ele>15</ele>
        <time>2021-05-23T08:31:58.983Z</time>
      </trkpt>
      <trkpt lat="47.26776" lon="-2.32385">
        <ele>15</ele>
        <time>2021-05-23T08:31:59.982Z</time>
      </trkpt>
      <trkpt lat="47.26775" lon="-2.32381">
        <ele>14</ele>
        <time>2021-05-23T08:32:00.982Z</time>
      </trkpt>
      <trkpt lat="47.26775" lon="-2.32379">
        <ele>14</ele>
        <time>2021-05-23T08:32:01.983Z</time>
      </trkpt>
      <trkpt lat="47.26776" lon="-2.32375">
        <ele>14</ele>
        <time>2021-05-23T08:32:02.983Z</time>
      </trkpt>
      <trkpt lat="47.26777" lon="-2.32371">
        <ele>14</ele>
        <time>2021-05-23T08:32:03.983Z</time>
      </trkpt>
      <trkpt lat="47.26778" lon="-2.32369">
        <ele>15</ele>
        <time>2021-05-23T08:32:04.982Z</time>
      </trkpt>
      <trkpt lat="47.2678" lon="-2.32367">
        <ele>15</ele>
        <time>2021-05-23T08:32:05.983Z</time>
      </trkpt>
      <trkpt lat="47.26782" lon="-2.32365">
        <ele>16</ele>
        <time>2021-05-23T08:32:06.982Z</time>
      </trkpt>
      <trkpt lat="47.26785" lon="-2.32364">
        <ele>16</ele>
        <time>2021-05-23T08:32:07.982Z</time>
      </trkpt>
      <trkpt lat="47.26788" lon="-2.32363">
        <ele>16</ele>
        <time>2021-05-23T08:32:08.983Z</time>
      </trkpt>
      <trkpt lat="47.26791" lon="-2.32362">
        <ele>17</ele>
        <time>2021-05-23T08:32:09.983Z</time>
      </trkpt>
      <trkpt lat="47.26794" lon="-2.32362">
        <ele>17</ele>
        <time>2021-05-23T08:32:10.983Z</time>
      </trkpt>
      <trkpt lat="47.26798" lon="-2.32361">
        <ele>18</ele>
        <time>2021-05-23T08:32:11.982Z</time>
      </trkpt>
      <trkpt lat="47.26801" lon="-2.3236">
        <ele>18</ele>
        <time>2021-05-23T08:32:12.982Z</time>
      </trkpt>
      <trkpt lat="47.26804" lon="-2.32358">
        <ele>19</ele>
        <time>2021-05-23T08:32:13.982Z</time>
      </trkpt>
      <trkpt lat="47.26807" lon="-2.32358">
        <ele>19</ele>
        <time>2021-05-23T08:32:14.983Z</time>
      </trkpt>
      <trkpt lat="47.2681" lon="-2.32357">
        <ele>19</ele>
        <time>2021-05-23T08:32:15.983Z</time>
      </trkpt>
      <trkpt lat="47.26812" lon="-2.32357">
        <ele>19</ele>
        <time>2021-05-23T08:32:16.983Z</time>
      </trkpt>
      <trkpt lat="47.26815" lon="-2.32356">
        <ele>19</ele>
        <time>2021-05-23T08:32:17.983Z</time>
      </trkpt>
      <trkpt lat="47.26818" lon="-2.32356">
        <ele>19</ele>
        <time>2021-05-23T08:32:18.982Z</time>
      </trkpt>
      <trkpt lat="47.26821" lon="-2.32355">
        <ele>19</ele>
        <time>2021-05-23T08:32:19.983Z</time>
      </trkpt>
      <trkpt lat="47.26824" lon="-2.32355">
        <ele>19</ele>
        <time>2021-05-23T08:32:20.983Z</time>
      </trkpt>
      <trkpt lat="47.26826" lon="-2.32354">
        <ele>19</ele>
        <time>2021-05-23T08:32:21.983Z</time>
      </trkpt>
      <trkpt lat="47.2683" lon="-2.32353">
        <ele>19</ele>
        <time>2021-05-23T08:32:22.982Z</time>
      </trkpt>
      <trkpt lat="47.26833" lon="-2.32352">
        <ele>19</ele>
        <time>2021-05-23T08:32:23.982Z</time>
      </trkpt>
      <trkpt lat="47.26837" lon="-2.32352">
        <ele>18</ele>
        <time>2021-05-23T08:32:24.983Z</time>
      </trkpt>
      <trkpt lat="47.26839" lon="-2.32352">
        <ele>18</ele>
        <time>2021-05-23T08:32:25.982Z</time>
      </trkpt>
      <trkpt lat="47.26842" lon="-2.32352">
        <ele>17</ele>
        <time>2021-05-23T08:32:26.983Z</time>
      </trkpt>
      <trkpt lat="47.26846" lon="-2.32352">
        <ele>17</ele>
        <time>2021-05-23T08:32:27.983Z</time>
      </trkpt>
      <trkpt lat="47.26848" lon="-2.32352">
        <ele>18</ele>
        <time>2021-05-23T08:32:28.982Z</time>
      </trkpt>
      <trkpt lat="47.26851" lon="-2.32351">
        <ele>18</ele>
        <time>2021-05-23T08:32:29.983Z</time>
      </trkpt>
      <trkpt lat="47.26854" lon="-2.32351">
        <ele>18</ele>
        <time>2021-05-23T08:32:30.983Z</time>
      </trkpt>
      <trkpt lat="47.26857" lon="-2.3235">
        <ele>19</ele>
        <time>2021-05-23T08:32:31.983Z</time>
      </trkpt>
      <trkpt lat="47.26861" lon="-2.3235">
        <ele>19</ele>
        <time>2021-05-23T08:32:32.983Z</time>
      </trkpt>
      <trkpt lat="47.26863" lon="-2.32351">
        <ele>19</ele>
        <time>2021-05-23T08:32:33.982Z</time>
      </trkpt>
      <trkpt lat="47.26866" lon="-2.32351">
        <ele>19</ele>
        <time>2021-05-23T08:32:34.983Z</time>
      </trkpt>
      <trkpt lat="47.26868" lon="-2.3235">
        <ele>19</ele>
        <time>2021-05-23T08:32:35.982Z</time>
      </trkpt>
      <trkpt lat="47.26871" lon="-2.3235">
        <ele>19</ele>
        <time>2021-05-23T08:32:36.983Z</time>
      </trkpt>
      <trkpt lat="47.26874" lon="-2.32349">
        <ele>19</ele>
        <time>2021-05-23T08:32:37.983Z</time>
      </trkpt>
      <trkpt lat="47.26877" lon="-2.32348">
        <ele>19</ele>
        <time>2021-05-23T08:32:38.983Z</time>
      </trkpt>
      <trkpt lat="47.26879" lon="-2.32348">
        <ele>19</ele>
        <time>2021-05-23T08:32:39.983Z</time>
      </trkpt>
      <trkpt lat="47.26881" lon="-2.32347">
        <ele>19</ele>
        <time>2021-05-23T08:32:40.983Z</time>
      </trkpt>
      <trkpt lat="47.26884" lon="-2.32347">
        <ele>18</ele>
        <time>2021-05-23T08:32:41.982Z</time>
      </trkpt>
      <trkpt lat="47.26887" lon="-2.32346">
        <ele>18</ele>
        <time>2021-05-23T08:32:42.982Z</time>
      </trkpt>
      <trkpt lat="47.2689" lon="-2.32346">
        <ele>18</ele>
        <time>2021-05-23T08:32:43.982Z</time>
      </trkpt>
      <trkpt lat="47.26892" lon="-2.32346">
        <ele>17</ele>
        <time>2021-05-23T08:32:44.982Z</time>
      </trkpt>
      <trkpt lat="47.26894" lon="-2.32345">
        <ele>17</ele>
        <time>2021-05-23T08:32:45.983Z</time>
      </trkpt>
      <trkpt lat="47.26897" lon="-2.32344">
        <ele>17</ele>
        <time>2021-05-23T08:32:46.982Z</time>
      </trkpt>
      <trkpt lat="47.26899" lon="-2.32344">
        <ele>17</ele>
        <time>2021-05-23T08:32:47.983Z</time>
      </trkpt>
      <trkpt lat="47.26901" lon="-2.32344">
        <ele>17</ele>
        <time>2021-05-23T08:32:48.983Z</time>
      </trkpt>
      <trkpt lat="47.26901" lon="-2.32343">
        <ele>17</ele>
        <time>2021-05-23T08:32:49.982Z</time>
      </trkpt>
      <trkpt lat="47.26902" lon="-2.32343">
        <ele>18</ele>
        <time>2021-05-23T08:32:50.983Z</time>
      </trkpt>
      <trkpt lat="47.26902" lon="-2.32342">
        <ele>18</ele>
        <time>2021-05-23T08:32:51.983Z</time>
      </trkpt>
      <trkpt lat="47.26902" lon="-2.32341">
        <ele>17</ele>
        <time>2021-05-23T08:32:52.983Z</time>
      </trkpt>
      <trkpt lat="47.26902" lon="-2.32341">
        <ele>17</ele>
        <time>2021-05-23T08:32:53.983Z</time>
      </trkpt>
      <trkpt lat="47.26902" lon="-2.32341">
        <ele>16</ele>
        <time>2021-05-23T08:32:54.982Z</time>
      </trkpt>
      <trkpt lat="47.26903" lon="-2.32341">
        <ele>16</ele>
        <time>2021-05-23T08:32:55.982Z</time>
      </trkpt>
      <trkpt lat="47.26904" lon="-2.32341">
        <ele>16</ele>
        <time>2021-05-23T08:32:56.983Z</time>
      </trkpt>
      <trkpt lat="47.26905" lon="-2.32341">
        <ele>16</ele>
        <time>2021-05-23T08:32:57.982Z</time>
      </trkpt>
      <trkpt lat="47.26907" lon="-2.32341">
        <ele>15</ele>
        <time>2021-05-23T08:32:58.983Z</time>
      </trkpt>
      <trkpt lat="47.26908" lon="-2.3234">
        <ele>15</ele>
        <time>2021-05-23T08:32:59.982Z</time>
      </trkpt>
      <trkpt lat="47.26911" lon="-2.3234">
        <ele>14</ele>
        <time>2021-05-23T08:33:00.983Z</time>
      </trkpt>
      <trkpt lat="47.26913" lon="-2.32339">
        <ele>13</ele>
        <time>2021-05-23T08:33:01.982Z</time>
      </trkpt>
      <trkpt lat="47.26915" lon="-2.32338">
        <ele>12</ele>
        <time>2021-05-23T08:33:02.982Z</time>
      </trkpt>
      <trkpt lat="47.26917" lon="-2.32337">
        <ele>11</ele>
        <time>2021-05-23T08:33:03.983Z</time>
      </trkpt>
      <trkpt lat="47.26919" lon="-2.32336">
        <ele>10</ele>
        <time>2021-05-23T08:33:04.982Z</time>
      </trkpt>
      <trkpt lat="47.26921" lon="-2.32335">
        <ele>10</ele>
        <time>2021-05-23T08:33:05.982Z</time>
      </trkpt>
      <trkpt lat="47.26922" lon="-2.32334">
        <ele>9</ele>
        <time>2021-05-23T08:33:06.982Z</time>
      </trkpt>
      <trkpt lat="47.26923" lon="-2.32333">
        <ele>9</ele>
        <time>2021-05-23T08:33:07.983Z</time>
      </trkpt>
      <trkpt lat="47.26923" lon="-2.32333">
        <ele>9</ele>
        <time>2021-05-23T08:33:08.982Z</time>
      </trkpt>
      <trkpt lat="47.26924" lon="-2.32333">
        <ele>9</ele>
        <time>2021-05-23T08:33:09.982Z</time>
      </trkpt>
      <trkpt lat="47.26924" lon="-2.32334">
        <ele>9</ele>
        <time>2021-05-23T08:33:10.983Z</time>
      </trkpt>
      <trkpt lat="47.26924" lon="-2.32334">
        <ele>9</ele>
        <time>2021-05-23T08:33:11.983Z</time>
      </trkpt>
      <trkpt lat="47.26924" lon="-2.32335">
        <ele>9</ele>
        <time>2021-05-23T08:33:12.983Z</time>
      </trkpt>
      <trkpt lat="47.26924" lon="-2.32336">
        <ele>9</ele>
        <time>2021-05-23T08:33:13.983Z</time>
      </trkpt>
      <trkpt lat="47.26924" lon="-2.32339">
        <ele>9</ele>
        <time>2021-05-23T08:33:14.982Z</time>
      </trkpt>
      <trkpt lat="47.26924" lon="-2.32341">
        <ele>9</ele>
        <time>2021-05-23T08:33:15.983Z</time>
      </trkpt>
      <trkpt lat="47.26925" lon="-2.32344">
        <ele>9</ele>
        <time>2021-05-23T08:33:16.983Z</time>
      </trkpt>
      <trkpt lat="47.26927" lon="-2.32346">
        <ele>8</ele>
        <time>2021-05-23T08:33:17.983Z</time>
      </trkpt>
      <trkpt lat="47.26929" lon="-2.32347">
        <ele>8</ele>
        <time>2021-05-23T08:33:18.983Z</time>
      </trkpt>
      <trkpt lat="47.26931" lon="-2.32349">
        <ele>8</ele>
        <time>2021-05-23T08:33:19.982Z</time>
      </trkpt>
      <trkpt lat="47.26933" lon="-2.32351">
        <ele>8</ele>
        <time>2021-05-23T08:33:20.983Z</time>
      </trkpt>
      <trkpt lat="47.26934" lon="-2.32354">
        <ele>8</ele>
        <time>2021-05-23T08:33:21.983Z</time>
      </trkpt>
      <trkpt lat="47.26935" lon="-2.32357">
        <ele>8</ele>
        <time>2021-05-23T08:33:22.983Z</time>
      </trkpt>
      <trkpt lat="47.26936" lon="-2.3236">
        <ele>8</ele>
        <time>2021-05-23T08:33:23.983Z</time>
      </trkpt>
      <trkpt lat="47.26937" lon="-2.32363">
        <ele>8</ele>
        <time>2021-05-23T08:33:24.983Z</time>
      </trkpt>
      <trkpt lat="47.26939" lon="-2.32365">
        <ele>8</ele>
        <time>2021-05-23T08:33:25.983Z</time>
      </trkpt>
      <trkpt lat="47.2694" lon="-2.32367">
        <ele>8</ele>
        <time>2021-05-23T08:33:26.983Z</time>
      </trkpt>
      <trkpt lat="47.26941" lon="-2.3237">
        <ele>8</ele>
        <time>2021-05-23T08:33:27.983Z</time>
      </trkpt>
      <trkpt lat="47.26941" lon="-2.32373">
        <ele>7</ele>
        <time>2021-05-23T08:33:28.983Z</time>
      </trkpt>
      <trkpt lat="47.26942" lon="-2.32377">
        <ele>7</ele>
        <time>2021-05-23T08:33:29.983Z</time>
      </trkpt>
      <trkpt lat="47.26942" lon="-2.3238">
        <ele>7</ele>
        <time>2021-05-23T08:33:30.983Z</time>
      </trkpt>
      <trkpt lat="47.26942" lon="-2.32385">
        <ele>7</ele>
        <time>2021-05-23T08:33:31.983Z</time>
      </trkpt>
      <trkpt lat="47.26943" lon="-2.32388">
        <ele>7</ele>
        <time>2021-05-23T08:33:32.983Z</time>
      </trkpt>
      <trkpt lat="47.26944" lon="-2.32391">
        <ele>6</ele>
        <time>2021-05-23T08:33:33.983Z</time>
      </trkpt>
      <trkpt lat="47.26944" lon="-2.32394">
        <ele>6</ele>
        <time>2021-05-23T08:33:34.982Z</time>
      </trkpt>
      <trkpt lat="47.26945" lon="-2.32397">
        <ele>5</ele>
        <time>2021-05-23T08:33:35.983Z</time>
      </trkpt>
      <trkpt lat="47.26947" lon="-2.324">
        <ele>5</ele>
        <time>2021-05-23T08:33:36.983Z</time>
      </trkpt>
      <trkpt lat="47.26948" lon="-2.32403">
        <ele>4</ele>
        <time>2021-05-23T08:33:37.983Z</time>
      </trkpt>
      <trkpt lat="47.26949" lon="-2.32407">
        <ele>4</ele>
        <time>2021-05-23T08:33:38.983Z</time>
      </trkpt>
      <trkpt lat="47.2695" lon="-2.3241">
        <ele>3</ele>
        <time>2021-05-23T08:33:39.982Z</time>
      </trkpt>
      <trkpt lat="47.26951" lon="-2.32413">
        <ele>3</ele>
        <time>2021-05-23T08:33:40.983Z</time>
      </trkpt>
      <trkpt lat="47.26952" lon="-2.32417">
        <ele>3</ele>
        <time>2021-05-23T08:33:41.982Z</time>
      </trkpt>
      <trkpt lat="47.26954" lon="-2.32421">
        <ele>3</ele>
        <time>2021-05-23T08:33:42.983Z</time>
      </trkpt>
      <trkpt lat="47.26956" lon="-2.32425">
        <ele>3</ele>
        <time>2021-05-23T08:33:43.983Z</time>
      </trkpt>
      <trkpt lat="47.26957" lon="-2.32428">
        <ele>3</ele>
        <time>2021-05-23T08:33:44.982Z</time>
      </trkpt>
      <trkpt lat="47.26959" lon="-2.32431">
        <ele>3</ele>
        <time>2021-05-23T08:33:45.983Z</time>
      </trkpt>
      <trkpt lat="47.26961" lon="-2.32434">
        <ele>3</ele>
        <time>2021-05-23T08:33:46.983Z</time>
      </trkpt>
      <trkpt lat="47.26963" lon="-2.32437">
        <ele>4</ele>
        <time>2021-05-23T08:33:47.983Z</time>
      </trkpt>
      <trkpt lat="47.26965" lon="-2.3244">
        <ele>4</ele>
        <time>2021-05-23T08:33:48.982Z</time>
      </trkpt>
      <trkpt lat="47.26967" lon="-2.32442">
        <ele>5</ele>
        <time>2021-05-23T08:33:49.983Z</time>
      </trkpt>
      <trkpt lat="47.26969" lon="-2.32444">
        <ele>6</ele>
        <time>2021-05-23T08:33:50.983Z</time>
      </trkpt>
      <trkpt lat="47.26971" lon="-2.32447">
        <ele>7</ele>
        <time>2021-05-23T08:33:51.983Z</time>
      </trkpt>
      <trkpt lat="47.26973" lon="-2.32449">
        <ele>8</ele>
        <time>2021-05-23T08:33:52.983Z</time>
      </trkpt>
      <trkpt lat="47.26974" lon="-2.32452">
        <ele>9</ele>
        <time>2021-05-23T08:33:53.982Z</time>
      </trkpt>
      <trkpt lat="47.26976" lon="-2.32455">
        <ele>9</ele>
        <time>2021-05-23T08:33:54.983Z</time>
      </trkpt>
      <trkpt lat="47.26978" lon="-2.32457">
        <ele>10</ele>
        <time>2021-05-23T08:33:55.982Z</time>
      </trkpt>
      <trkpt lat="47.2698" lon="-2.32459">
        <ele>11</ele>
        <time>2021-05-23T08:33:56.983Z</time>
      </trkpt>
      <trkpt lat="47.26982" lon="-2.32462">
        <ele>12</ele>
        <time>2021-05-23T08:33:57.982Z</time>
      </trkpt>
      <trkpt lat="47.26983" lon="-2.32465">
        <ele>12</ele>
        <time>2021-05-23T08:33:58.983Z</time>
      </trkpt>
      <trkpt lat="47.26985" lon="-2.32467">
        <ele>13</ele>
        <time>2021-05-23T08:33:59.982Z</time>
      </trkpt>
      <trkpt lat="47.26986" lon="-2.3247">
        <ele>13</ele>
        <time>2021-05-23T08:34:00.982Z</time>
      </trkpt>
      <trkpt lat="47.26988" lon="-2.32473">
        <ele>13</ele>
        <time>2021-05-23T08:34:01.982Z</time>
      </trkpt>
      <trkpt lat="47.2699" lon="-2.32476">
        <ele>13</ele>
        <time>2021-05-23T08:34:02.983Z</time>
      </trkpt>
      <trkpt lat="47.26991" lon="-2.32479">
        <ele>13</ele>
        <time>2021-05-23T08:34:03.983Z</time>
      </trkpt>
      <trkpt lat="47.26992" lon="-2.32483">
        <ele>13</ele>
        <time>2021-05-23T08:34:04.982Z</time>
      </trkpt>
      <trkpt lat="47.26993" lon="-2.32486">
        <ele>13</ele>
        <time>2021-05-23T08:34:05.982Z</time>
      </trkpt>
      <trkpt lat="47.26994" lon="-2.32489">
        <ele>12</ele>
        <time>2021-05-23T08:34:06.982Z</time>
      </trkpt>
      <trkpt lat="47.26995" lon="-2.32492">
        <ele>12</ele>
        <time>2021-05-23T08:34:07.982Z</time>
      </trkpt>
      <trkpt lat="47.26996" lon="-2.32495">
        <ele>12</ele>
        <time>2021-05-23T08:34:08.982Z</time>
      </trkpt>
      <trkpt lat="47.26998" lon="-2.325">
        <ele>12</ele>
        <time>2021-05-23T08:34:09.982Z</time>
      </trkpt>
      <trkpt lat="47.27" lon="-2.32503">
        <ele>12</ele>
        <time>2021-05-23T08:34:10.982Z</time>
      </trkpt>
      <trkpt lat="47.27001" lon="-2.32505">
        <ele>12</ele>
        <time>2021-05-23T08:34:11.983Z</time>
      </trkpt>
      <trkpt lat="47.27003" lon="-2.32507">
        <ele>12</ele>
        <time>2021-05-23T08:34:12.982Z</time>
      </trkpt>
      <trkpt lat="47.27006" lon="-2.32508">
        <ele>12</ele>
        <time>2021-05-23T08:34:13.983Z</time>
      </trkpt>
      <trkpt lat="47.27009" lon="-2.32509">
        <ele>12</ele>
        <time>2021-05-23T08:34:14.982Z</time>
      </trkpt>
      <trkpt lat="47.27013" lon="-2.32508">
        <ele>12</ele>
        <time>2021-05-23T08:34:15.983Z</time>
      </trkpt>
      <trkpt lat="47.27015" lon="-2.32507">
        <ele>13</ele>
        <time>2021-05-23T08:34:16.982Z</time>
      </trkpt>
      <trkpt lat="47.27017" lon="-2.32506">
        <ele>12</ele>
        <time>2021-05-23T08:34:17.983Z</time>
      </trkpt>
      <trkpt lat="47.2702" lon="-2.32505">
        <ele>12</ele>
        <time>2021-05-23T08:34:18.983Z</time>
      </trkpt>
      <trkpt lat="47.27022" lon="-2.32504">
        <ele>12</ele>
        <time>2021-05-23T08:34:19.983Z</time>
      </trkpt>
      <trkpt lat="47.27024" lon="-2.32503">
        <ele>12</ele>
        <time>2021-05-23T08:34:20.983Z</time>
      </trkpt>
      <trkpt lat="47.27026" lon="-2.32502">
        <ele>12</ele>
        <time>2021-05-23T08:34:21.983Z</time>
      </trkpt>
      <trkpt lat="47.27028" lon="-2.32499">
        <ele>12</ele>
        <time>2021-05-23T08:34:22.983Z</time>
      </trkpt>
      <trkpt lat="47.27029" lon="-2.32496">
        <ele>11</ele>
        <time>2021-05-23T08:34:23.982Z</time>
      </trkpt>
      <trkpt lat="47.27029" lon="-2.32493">
        <ele>11</ele>
        <time>2021-05-23T08:34:24.983Z</time>
      </trkpt>
      <trkpt lat="47.27029" lon="-2.3249">
        <ele>11</ele>
        <time>2021-05-23T08:34:25.982Z</time>
      </trkpt>
      <trkpt lat="47.27029" lon="-2.32485">
        <ele>10</ele>
        <time>2021-05-23T08:34:26.983Z</time>
      </trkpt>
      <trkpt lat="47.27028" lon="-2.32481">
        <ele>9</ele>
        <time>2021-05-23T08:34:27.982Z</time>
      </trkpt>
      <trkpt lat="47.27028" lon="-2.32476">
        <ele>9</ele>
        <time>2021-05-23T08:34:28.983Z</time>
      </trkpt>
      <trkpt lat="47.27028" lon="-2.32472">
        <ele>8</ele>
        <time>2021-05-23T08:34:29.983Z</time>
      </trkpt>
      <trkpt lat="47.27028" lon="-2.32468">
        <ele>8</ele>
        <time>2021-05-23T08:34:30.983Z</time>
      </trkpt>
      <trkpt lat="47.27029" lon="-2.32464">
        <ele>7</ele>
        <time>2021-05-23T08:34:31.983Z</time>
      </trkpt>
      <trkpt lat="47.27028" lon="-2.3246">
        <ele>7</ele>
        <time>2021-05-23T08:34:32.982Z</time>
      </trkpt>
      <trkpt lat="47.27028" lon="-2.32456">
        <ele>6</ele>
        <time>2021-05-23T08:34:33.982Z</time>
      </trkpt>
      <trkpt lat="47.27028" lon="-2.32452">
        <ele>6</ele>
        <time>2021-05-23T08:34:34.983Z</time>
      </trkpt>
      <trkpt lat="47.27028" lon="-2.32448">
        <ele>6</ele>
        <time>2021-05-23T08:34:35.982Z</time>
      </trkpt>
      <trkpt lat="47.27027" lon="-2.32445">
        <ele>5</ele>
        <time>2021-05-23T08:34:36.982Z</time>
      </trkpt>
      <trkpt lat="47.27027" lon="-2.32441">
        <ele>5</ele>
        <time>2021-05-23T08:34:37.982Z</time>
      </trkpt>
      <trkpt lat="47.27027" lon="-2.32437">
        <ele>6</ele>
        <time>2021-05-23T08:34:38.983Z</time>
      </trkpt>
      <trkpt lat="47.27027" lon="-2.32434">
        <ele>6</ele>
        <time>2021-05-23T08:34:39.983Z</time>
      </trkpt>
      <trkpt lat="47.27026" lon="-2.3243">
        <ele>6</ele>
        <time>2021-05-23T08:34:40.982Z</time>
      </trkpt>
      <trkpt lat="47.27025" lon="-2.32427">
        <ele>6</ele>
        <time>2021-05-23T08:34:41.983Z</time>
      </trkpt>
      <trkpt lat="47.27025" lon="-2.32422">
        <ele>6</ele>
        <time>2021-05-23T08:34:42.982Z</time>
      </trkpt>
      <trkpt lat="47.27026" lon="-2.32419">
        <ele>6</ele>
        <time>2021-05-23T08:34:43.983Z</time>
      </trkpt>
      <trkpt lat="47.27026" lon="-2.32415">
        <ele>6</ele>
        <time>2021-05-23T08:34:44.983Z</time>
      </trkpt>
      <trkpt lat="47.27026" lon="-2.32413">
        <ele>6</ele>
        <time>2021-05-23T08:34:45.983Z</time>
      </trkpt>
      <trkpt lat="47.27026" lon="-2.32409">
        <ele>6</ele>
        <time>2021-05-23T08:34:46.983Z</time>
      </trkpt>
      <trkpt lat="47.27026" lon="-2.32405">
        <ele>6</ele>
        <time>2021-05-23T08:34:47.983Z</time>
      </trkpt>
      <trkpt lat="47.27026" lon="-2.32401">
        <ele>7</ele>
        <time>2021-05-23T08:34:48.982Z</time>
      </trkpt>
      <trkpt lat="47.27026" lon="-2.32398">
        <ele>7</ele>
        <time>2021-05-23T08:34:49.982Z</time>
      </trkpt>
      <trkpt lat="47.27025" lon="-2.32395">
        <ele>7</ele>
        <time>2021-05-23T08:34:50.983Z</time>
      </trkpt>
      <trkpt lat="47.27025" lon="-2.3239">
        <ele>7</ele>
        <time>2021-05-23T08:34:51.982Z</time>
      </trkpt>
      <trkpt lat="47.27024" lon="-2.32386">
        <ele>6</ele>
        <time>2021-05-23T08:34:52.983Z</time>
      </trkpt>
      <trkpt lat="47.27022" lon="-2.32382">
        <ele>6</ele>
        <time>2021-05-23T08:34:53.982Z</time>
      </trkpt>
      <trkpt lat="47.27021" lon="-2.32379">
        <ele>6</ele>
        <time>2021-05-23T08:34:54.983Z</time>
      </trkpt>
      <trkpt lat="47.27021" lon="-2.32376">
        <ele>6</ele>
        <time>2021-05-23T08:34:55.982Z</time>
      </trkpt>
      <trkpt lat="47.27021" lon="-2.32374">
        <ele>6</ele>
        <time>2021-05-23T08:34:56.982Z</time>
      </trkpt>
      <trkpt lat="47.2702" lon="-2.32371">
        <ele>6</ele>
        <time>2021-05-23T08:34:57.983Z</time>
      </trkpt>
      <trkpt lat="47.2702" lon="-2.32368">
        <ele>6</ele>
        <time>2021-05-23T08:34:58.982Z</time>
      </trkpt>
      <trkpt lat="47.2702" lon="-2.32366">
        <ele>5</ele>
        <time>2021-05-23T08:34:59.982Z</time>
      </trkpt>
      <trkpt lat="47.27019" lon="-2.32362">
        <ele>5</ele>
        <time>2021-05-23T08:35:00.982Z</time>
      </trkpt>
      <trkpt lat="47.27019" lon="-2.32359">
        <ele>5</ele>
        <time>2021-05-23T08:35:01.983Z</time>
      </trkpt>
      <trkpt lat="47.27018" lon="-2.32355">
        <ele>5</ele>
        <time>2021-05-23T08:35:02.983Z</time>
      </trkpt>
      <trkpt lat="47.27018" lon="-2.32351">
        <ele>5</ele>
        <time>2021-05-23T08:35:03.983Z</time>
      </trkpt>
      <trkpt lat="47.27018" lon="-2.32349">
        <ele>5</ele>
        <time>2021-05-23T08:35:04.983Z</time>
      </trkpt>
      <trkpt lat="47.27017" lon="-2.32345">
        <ele>5</ele>
        <time>2021-05-23T08:35:05.982Z</time>
      </trkpt>
      <trkpt lat="47.27016" lon="-2.32341">
        <ele>4</ele>
        <time>2021-05-23T08:35:06.983Z</time>
      </trkpt>
      <trkpt lat="47.27016" lon="-2.32337">
        <ele>4</ele>
        <time>2021-05-23T08:35:07.983Z</time>
      </trkpt>
      <trkpt lat="47.27016" lon="-2.32334">
        <ele>4</ele>
        <time>2021-05-23T08:35:08.983Z</time>
      </trkpt>
      <trkpt lat="47.27015" lon="-2.32331">
        <ele>4</ele>
        <time>2021-05-23T08:35:09.982Z</time>
      </trkpt>
      <trkpt lat="47.27015" lon="-2.32327">
        <ele>4</ele>
        <time>2021-05-23T08:35:10.983Z</time>
      </trkpt>
      <trkpt lat="47.27014" lon="-2.32324">
        <ele>5</ele>
        <time>2021-05-23T08:35:11.983Z</time>
      </trkpt>
      <trkpt lat="47.27014" lon="-2.3232">
        <ele>4</ele>
        <time>2021-05-23T08:35:12.983Z</time>
      </trkpt>
      <trkpt lat="47.27014" lon="-2.32316">
        <ele>4</ele>
        <time>2021-05-23T08:35:13.982Z</time>
      </trkpt>
      <trkpt lat="47.27014" lon="-2.32311">
        <ele>4</ele>
        <time>2021-05-23T08:35:14.983Z</time>
      </trkpt>
      <trkpt lat="47.27013" lon="-2.32307">
        <ele>4</ele>
        <time>2021-05-23T08:35:15.982Z</time>
      </trkpt>
      <trkpt lat="47.27014" lon="-2.32303">
        <ele>4</ele>
        <time>2021-05-23T08:35:16.983Z</time>
      </trkpt>
      <trkpt lat="47.27014" lon="-2.32299">
        <ele>4</ele>
        <time>2021-05-23T08:35:17.983Z</time>
      </trkpt>
      <trkpt lat="47.27015" lon="-2.32295">
        <ele>4</ele>
        <time>2021-05-23T08:35:18.983Z</time>
      </trkpt>
      <trkpt lat="47.27015" lon="-2.32292">
        <ele>4</ele>
        <time>2021-05-23T08:35:19.983Z</time>
      </trkpt>
      <trkpt lat="47.27015" lon="-2.32288">
        <ele>4</ele>
        <time>2021-05-23T08:35:20.983Z</time>
      </trkpt>
      <trkpt lat="47.27016" lon="-2.32284">
        <ele>4</ele>
        <time>2021-05-23T08:35:21.983Z</time>
      </trkpt>
      <trkpt lat="47.27016" lon="-2.32281">
        <ele>4</ele>
        <time>2021-05-23T08:35:22.983Z</time>
      </trkpt>
      <trkpt lat="47.27016" lon="-2.32277">
        <ele>5</ele>
        <time>2021-05-23T08:35:23.983Z</time>
      </trkpt>
      <trkpt lat="47.27016" lon="-2.32274">
        <ele>5</ele>
        <time>2021-05-23T08:35:24.982Z</time>
      </trkpt>
      <trkpt lat="47.27016" lon="-2.3227">
        <ele>5</ele>
        <time>2021-05-23T08:35:25.982Z</time>
      </trkpt>
      <trkpt lat="47.27017" lon="-2.32267">
        <ele>5</ele>
        <time>2021-05-23T08:35:26.983Z</time>
      </trkpt>
      <trkpt lat="47.27017" lon="-2.32263">
        <ele>5</ele>
        <time>2021-05-23T08:35:27.982Z</time>
      </trkpt>
      <trkpt lat="47.27018" lon="-2.32259">
        <ele>5</ele>
        <time>2021-05-23T08:35:28.982Z</time>
      </trkpt>
      <trkpt lat="47.2702" lon="-2.32256">
        <ele>5</ele>
        <time>2021-05-23T08:35:29.982Z</time>
      </trkpt>
      <trkpt lat="47.27021" lon="-2.32252">
        <ele>5</ele>
        <time>2021-05-23T08:35:30.983Z</time>
      </trkpt>
      <trkpt lat="47.27021" lon="-2.32249">
        <ele>6</ele>
        <time>2021-05-23T08:35:31.983Z</time>
      </trkpt>
      <trkpt lat="47.27021" lon="-2.32246">
        <ele>6</ele>
        <time>2021-05-23T08:35:32.983Z</time>
      </trkpt>
      <trkpt lat="47.2702" lon="-2.32242">
        <ele>6</ele>
        <time>2021-05-23T08:35:33.983Z</time>
      </trkpt>
      <trkpt lat="47.27018" lon="-2.32237">
        <ele>6</ele>
        <time>2021-05-23T08:35:34.983Z</time>
      </trkpt>
      <trkpt lat="47.27017" lon="-2.32234">
        <ele>6</ele>
        <time>2021-05-23T08:35:35.983Z</time>
      </trkpt>
      <trkpt lat="47.27016" lon="-2.32231">
        <ele>7</ele>
        <time>2021-05-23T08:35:36.983Z</time>
      </trkpt>
      <trkpt lat="47.27015" lon="-2.32229">
        <ele>7</ele>
        <time>2021-05-23T08:35:37.982Z</time>
      </trkpt>
      <trkpt lat="47.27014" lon="-2.32226">
        <ele>7</ele>
        <time>2021-05-23T08:35:38.983Z</time>
      </trkpt>
      <trkpt lat="47.27013" lon="-2.32223">
        <ele>7</ele>
        <time>2021-05-23T08:35:39.983Z</time>
      </trkpt>
      <trkpt lat="47.27012" lon="-2.3222">
        <ele>7</ele>
        <time>2021-05-23T08:35:40.983Z</time>
      </trkpt>
      <trkpt lat="47.27012" lon="-2.32217">
        <ele>7</ele>
        <time>2021-05-23T08:35:41.983Z</time>
      </trkpt>
      <trkpt lat="47.27012" lon="-2.32214">
        <ele>7</ele>
        <time>2021-05-23T08:35:42.983Z</time>
      </trkpt>
      <trkpt lat="47.27011" lon="-2.3221">
        <ele>7</ele>
        <time>2021-05-23T08:35:43.982Z</time>
      </trkpt>
      <trkpt lat="47.2701" lon="-2.32207">
        <ele>7</ele>
        <time>2021-05-23T08:35:44.982Z</time>
      </trkpt>
      <trkpt lat="47.27009" lon="-2.32204">
        <ele>6</ele>
        <time>2021-05-23T08:35:45.983Z</time>
      </trkpt>
      <trkpt lat="47.27008" lon="-2.32201">
        <ele>6</ele>
        <time>2021-05-23T08:35:46.983Z</time>
      </trkpt>
      <trkpt lat="47.27006" lon="-2.32198">
        <ele>6</ele>
        <time>2021-05-23T08:35:47.983Z</time>
      </trkpt>
      <trkpt lat="47.27003" lon="-2.32194">
        <ele>6</ele>
        <time>2021-05-23T08:35:48.983Z</time>
      </trkpt>
      <trkpt lat="47.27" lon="-2.3219">
        <ele>5</ele>
        <time>2021-05-23T08:35:49.982Z</time>
      </trkpt>
      <trkpt lat="47.26998" lon="-2.32187">
        <ele>5</ele>
        <time>2021-05-23T08:35:50.983Z</time>
      </trkpt>
      <trkpt lat="47.26998" lon="-2.32184">
        <ele>5</ele>
        <time>2021-05-23T08:35:51.983Z</time>
      </trkpt>
      <trkpt lat="47.26997" lon="-2.32181">
        <ele>5</ele>
        <time>2021-05-23T08:35:52.983Z</time>
      </trkpt>
      <trkpt lat="47.26996" lon="-2.32178">
        <ele>4</ele>
        <time>2021-05-23T08:35:53.982Z</time>
      </trkpt>
      <trkpt lat="47.26995" lon="-2.32175">
        <ele>4</ele>
        <time>2021-05-23T08:35:54.983Z</time>
      </trkpt>
      <trkpt lat="47.26993" lon="-2.32172">
        <ele>3</ele>
        <time>2021-05-23T08:35:55.982Z</time>
      </trkpt>
      <trkpt lat="47.26992" lon="-2.32169">
        <ele>2</ele>
        <time>2021-05-23T08:35:56.983Z</time>
      </trkpt>
      <trkpt lat="47.26989" lon="-2.32167">
        <ele>2</ele>
        <time>2021-05-23T08:35:57.982Z</time>
      </trkpt>
      <trkpt lat="47.26987" lon="-2.32164">
        <ele>1</ele>
        <time>2021-05-23T08:35:58.983Z</time>
      </trkpt>
      <trkpt lat="47.26985" lon="-2.32161">
        <ele>1</ele>
        <time>2021-05-23T08:35:59.983Z</time>
      </trkpt>
      <trkpt lat="47.26983" lon="-2.32158">
        <ele>5.2</ele>
        <time>2021-05-23T08:36:00.983Z</time>
      </trkpt>
      <trkpt lat="47.26982" lon="-2.32155">
        <ele>5.4</ele>
        <time>2021-05-23T08:36:01.983Z</time>
      </trkpt>
      <trkpt lat="47.2698" lon="-2.32152">
        <ele>5.6</ele>
        <time>2021-05-23T08:36:02.982Z</time>
      </trkpt>
      <trkpt lat="47.2698" lon="-2.32148">
        <ele>5.7</ele>
        <time>2021-05-23T08:36:03.983Z</time>
      </trkpt>
      <trkpt lat="47.26981" lon="-2.32146">
        <ele>5.7</ele>
        <time>2021-05-23T08:36:04.983Z</time>
      </trkpt>
      <trkpt lat="47.26982" lon="-2.32143">
        <ele>5.7</ele>
        <time>2021-05-23T08:36:05.983Z</time>
      </trkpt>
      <trkpt lat="47.26985" lon="-2.32141">
        <ele>5.7</ele>
        <time>2021-05-23T08:36:06.983Z</time>
      </trkpt>
      <trkpt lat="47.26987" lon="-2.32137">
        <ele>5.7</ele>
        <time>2021-05-23T08:36:07.982Z</time>
      </trkpt>
      <trkpt lat="47.2699" lon="-2.32135">
        <ele>1</ele>
        <time>2021-05-23T08:36:08.983Z</time>
      </trkpt>
      <trkpt lat="47.26992" lon="-2.32134">
        <ele>1</ele>
        <time>2021-05-23T08:36:09.982Z</time>
      </trkpt>
      <trkpt lat="47.26994" lon="-2.32132">
        <ele>1</ele>
        <time>2021-05-23T08:36:10.983Z</time>
      </trkpt>
      <trkpt lat="47.26996" lon="-2.32131">
        <ele>1</ele>
        <time>2021-05-23T08:36:11.982Z</time>
      </trkpt>
      <trkpt lat="47.26998" lon="-2.32128">
        <ele>1</ele>
        <time>2021-05-23T08:36:12.982Z</time>
      </trkpt>
      <trkpt lat="47.26999" lon="-2.32127">
        <ele>2</ele>
        <time>2021-05-23T08:36:13.983Z</time>
      </trkpt>
      <trkpt lat="47.27" lon="-2.32123">
        <ele>2</ele>
        <time>2021-05-23T08:36:14.983Z</time>
      </trkpt>
      <trkpt lat="47.27001" lon="-2.32119">
        <ele>1</ele>
        <time>2021-05-23T08:36:15.983Z</time>
      </trkpt>
      <trkpt lat="47.27003" lon="-2.32117">
        <ele>1</ele>
        <time>2021-05-23T08:36:16.982Z</time>
      </trkpt>
      <trkpt lat="47.27004" lon="-2.32114">
        <ele>1</ele>
        <time>2021-05-23T08:36:17.982Z</time>
      </trkpt>
      <trkpt lat="47.27005" lon="-2.32111">
        <ele>1</ele>
        <time>2021-05-23T08:36:18.983Z</time>
      </trkpt>
      <trkpt lat="47.27006" lon="-2.32108">
        <ele>1</ele>
        <time>2021-05-23T08:36:19.982Z</time>
      </trkpt>
      <trkpt lat="47.27006" lon="-2.32104">
        <ele>1</ele>
        <time>2021-05-23T08:36:20.983Z</time>
      </trkpt>
      <trkpt lat="47.27006" lon="-2.32101">
        <ele>1</ele>
        <time>2021-05-23T08:36:21.982Z</time>
      </trkpt>
      <trkpt lat="47.27005" lon="-2.32098">
        <ele>1</ele>
        <time>2021-05-23T08:36:22.983Z</time>
      </trkpt>
      <trkpt lat="47.27004" lon="-2.32095">
        <ele>1</ele>
        <time>2021-05-23T08:36:23.982Z</time>
      </trkpt>
      <trkpt lat="47.27004" lon="-2.32092">
        <ele>1</ele>
        <time>2021-05-23T08:36:24.983Z</time>
      </trkpt>
      <trkpt lat="47.27004" lon="-2.32088">
        <ele>1</ele>
        <time>2021-05-23T08:36:25.983Z</time>
      </trkpt>
      <trkpt lat="47.27005" lon="-2.32084">
        <ele>1</ele>
        <time>2021-05-23T08:36:26.983Z</time>
      </trkpt>
      <trkpt lat="47.27005" lon="-2.32081">
        <ele>1</ele>
        <time>2021-05-23T08:36:27.983Z</time>
      </trkpt>
      <trkpt lat="47.27004" lon="-2.32078">
        <ele>2</ele>
        <time>2021-05-23T08:36:28.983Z</time>
      </trkpt>
      <trkpt lat="47.27004" lon="-2.32075">
        <ele>2</ele>
        <time>2021-05-23T08:36:29.983Z</time>
      </trkpt>
      <trkpt lat="47.27003" lon="-2.32071">
        <ele>2</ele>
        <time>2021-05-23T08:36:30.983Z</time>
      </trkpt>
      <trkpt lat="47.27003" lon="-2.32067">
        <ele>2</ele>
        <time>2021-05-23T08:36:31.982Z</time>
      </trkpt>
      <trkpt lat="47.27004" lon="-2.32063">
        <ele>2</ele>
        <time>2021-05-23T08:36:32.983Z</time>
      </trkpt>
      <trkpt lat="47.27003" lon="-2.32058">
        <ele>2</ele>
        <time>2021-05-23T08:36:33.983Z</time>
      </trkpt>
      <trkpt lat="47.27003" lon="-2.32056">
        <ele>2</ele>
        <time>2021-05-23T08:36:34.982Z</time>
      </trkpt>
      <trkpt lat="47.27003" lon="-2.32052">
        <ele>2</ele>
        <time>2021-05-23T08:36:35.983Z</time>
      </trkpt>
      <trkpt lat="47.27003" lon="-2.32049">
        <ele>2</ele>
        <time>2021-05-23T08:36:36.982Z</time>
      </trkpt>
      <trkpt lat="47.27003" lon="-2.32046">
        <ele>2</ele>
        <time>2021-05-23T08:36:37.982Z</time>
      </trkpt>
      <trkpt lat="47.27002" lon="-2.32041">
        <ele>2</ele>
        <time>2021-05-23T08:36:38.983Z</time>
      </trkpt>
      <trkpt lat="47.27002" lon="-2.32039">
        <ele>2</ele>
        <time>2021-05-23T08:36:39.983Z</time>
      </trkpt>
      <trkpt lat="47.27001" lon="-2.32036">
        <ele>2</ele>
        <time>2021-05-23T08:36:40.983Z</time>
      </trkpt>
      <trkpt lat="47.27001" lon="-2.32033">
        <ele>2</ele>
        <time>2021-05-23T08:36:41.983Z</time>
      </trkpt>
      <trkpt lat="47.27" lon="-2.32031">
        <ele>1</ele>
        <time>2021-05-23T08:36:42.983Z</time>
      </trkpt>
      <trkpt lat="47.27" lon="-2.32029">
        <ele>1</ele>
        <time>2021-05-23T08:36:43.983Z</time>
      </trkpt>
      <trkpt lat="47.26999" lon="-2.32026">
        <ele>1</ele>
        <time>2021-05-23T08:36:44.983Z</time>
      </trkpt>
      <trkpt lat="47.26999" lon="-2.32023">
        <ele>1</ele>
        <time>2021-05-23T08:36:45.983Z</time>
      </trkpt>
      <trkpt lat="47.26999" lon="-2.3202">
        <ele>1</ele>
        <time>2021-05-23T08:36:46.983Z</time>
      </trkpt>
      <trkpt lat="47.26999" lon="-2.32017">
        <ele>1</ele>
        <time>2021-05-23T08:36:47.983Z</time>
      </trkpt>
      <trkpt lat="47.26999" lon="-2.32014">
        <ele>2</ele>
        <time>2021-05-23T08:36:48.982Z</time>
      </trkpt>
      <trkpt lat="47.26999" lon="-2.32011">
        <ele>2</ele>
        <time>2021-05-23T08:36:49.983Z</time>
      </trkpt>
      <trkpt lat="47.26999" lon="-2.32007">
        <ele>2</ele>
        <time>2021-05-23T08:36:50.983Z</time>
      </trkpt>
      <trkpt lat="47.26999" lon="-2.32003">
        <ele>2</ele>
        <time>2021-05-23T08:36:51.982Z</time>
      </trkpt>
      <trkpt lat="47.27" lon="-2.32">
        <ele>2</ele>
        <time>2021-05-23T08:36:52.983Z</time>
      </trkpt>
      <trkpt lat="47.27001" lon="-2.31998">
        <ele>2</ele>
        <time>2021-05-23T08:36:53.982Z</time>
      </trkpt>
      <trkpt lat="47.27003" lon="-2.31996">
        <ele>3</ele>
        <time>2021-05-23T08:36:54.983Z</time>
      </trkpt>
      <trkpt lat="47.27005" lon="-2.31994">
        <ele>2</ele>
        <time>2021-05-23T08:36:55.983Z</time>
      </trkpt>
      <trkpt lat="47.27007" lon="-2.31992">
        <ele>3</ele>
        <time>2021-05-23T08:36:56.982Z</time>
      </trkpt>
      <trkpt lat="47.27009" lon="-2.31991">
        <ele>3</ele>
        <time>2021-05-23T08:36:57.982Z</time>
      </trkpt>
      <trkpt lat="47.27012" lon="-2.3199">
        <ele>3</ele>
        <time>2021-05-23T08:36:58.983Z</time>
      </trkpt>
      <trkpt lat="47.27015" lon="-2.31988">
        <ele>3</ele>
        <time>2021-05-23T08:36:59.983Z</time>
      </trkpt>
      <trkpt lat="47.27017" lon="-2.31986">
        <ele>3</ele>
        <time>2021-05-23T08:37:00.983Z</time>
      </trkpt>
      <trkpt lat="47.2702" lon="-2.31985">
        <ele>4</ele>
        <time>2021-05-23T08:37:01.983Z</time>
      </trkpt>
      <trkpt lat="47.27022" lon="-2.31983">
        <ele>4</ele>
        <time>2021-05-23T08:37:02.983Z</time>
      </trkpt>
      <trkpt lat="47.27025" lon="-2.31981">
        <ele>5</ele>
        <time>2021-05-23T08:37:03.983Z</time>
      </trkpt>
      <trkpt lat="47.27028" lon="-2.31978">
        <ele>5</ele>
        <time>2021-05-23T08:37:04.982Z</time>
      </trkpt>
      <trkpt lat="47.27031" lon="-2.31976">
        <ele>5</ele>
        <time>2021-05-23T08:37:05.983Z</time>
      </trkpt>
      <trkpt lat="47.27033" lon="-2.31974">
        <ele>5</ele>
        <time>2021-05-23T08:37:06.983Z</time>
      </trkpt>
      <trkpt lat="47.27035" lon="-2.31972">
        <ele>5</ele>
        <time>2021-05-23T08:37:07.983Z</time>
      </trkpt>
      <trkpt lat="47.27038" lon="-2.3197">
        <ele>6</ele>
        <time>2021-05-23T08:37:08.982Z</time>
      </trkpt>
      <trkpt lat="47.27041" lon="-2.3197">
        <ele>6</ele>
        <time>2021-05-23T08:37:09.983Z</time>
      </trkpt>
      <trkpt lat="47.27043" lon="-2.31969">
        <ele>6</ele>
        <time>2021-05-23T08:37:10.982Z</time>
      </trkpt>
      <trkpt lat="47.27045" lon="-2.31969">
        <ele>7</ele>
        <time>2021-05-23T08:37:11.982Z</time>
      </trkpt>
      <trkpt lat="47.27048" lon="-2.3197">
        <ele>8</ele>
        <time>2021-05-23T08:37:12.983Z</time>
      </trkpt>
      <trkpt lat="47.27051" lon="-2.3197">
        <ele>8</ele>
        <time>2021-05-23T08:37:13.982Z</time>
      </trkpt>
      <trkpt lat="47.27054" lon="-2.31969">
        <ele>9</ele>
        <time>2021-05-23T08:37:14.983Z</time>
      </trkpt>
      <trkpt lat="47.27057" lon="-2.31969">
        <ele>9</ele>
        <time>2021-05-23T08:37:15.983Z</time>
      </trkpt>
      <trkpt lat="47.2706" lon="-2.31969">
        <ele>10</ele>
        <time>2021-05-23T08:37:16.983Z</time>
      </trkpt>
      <trkpt lat="47.27063" lon="-2.31969">
        <ele>10</ele>
        <time>2021-05-23T08:37:17.983Z</time>
      </trkpt>
      <trkpt lat="47.27066" lon="-2.31969">
        <ele>11</ele>
        <time>2021-05-23T08:37:18.982Z</time>
      </trkpt>
      <trkpt lat="47.27069" lon="-2.31969">
        <ele>11</ele>
        <time>2021-05-23T08:37:19.983Z</time>
      </trkpt>
      <trkpt lat="47.27072" lon="-2.31968">
        <ele>11</ele>
        <time>2021-05-23T08:37:20.983Z</time>
      </trkpt>
      <trkpt lat="47.27074" lon="-2.31968">
        <ele>11</ele>
        <time>2021-05-23T08:37:21.983Z</time>
      </trkpt>
      <trkpt lat="47.27077" lon="-2.31967">
        <ele>11</ele>
        <time>2021-05-23T08:37:22.983Z</time>
      </trkpt>
      <trkpt lat="47.27079" lon="-2.31967">
        <ele>12</ele>
        <time>2021-05-23T08:37:23.983Z</time>
      </trkpt>
      <trkpt lat="47.27082" lon="-2.31966">
        <ele>12</ele>
        <time>2021-05-23T08:37:24.983Z</time>
      </trkpt>
      <trkpt lat="47.27084" lon="-2.31966">
        <ele>12</ele>
        <time>2021-05-23T08:37:25.982Z</time>
      </trkpt>
      <trkpt lat="47.27087" lon="-2.31966">
        <ele>12</ele>
        <time>2021-05-23T08:37:26.983Z</time>
      </trkpt>
      <trkpt lat="47.2709" lon="-2.31966">
        <ele>13</ele>
        <time>2021-05-23T08:37:27.983Z</time>
      </trkpt>
      <trkpt lat="47.27093" lon="-2.31966">
        <ele>13</ele>
        <time>2021-05-23T08:37:28.983Z</time>
      </trkpt>
      <trkpt lat="47.27095" lon="-2.31966">
        <ele>13</ele>
        <time>2021-05-23T08:37:29.982Z</time>
      </trkpt>
      <trkpt lat="47.27097" lon="-2.31967">
        <ele>13</ele>
        <time>2021-05-23T08:37:30.983Z</time>
      </trkpt>
      <trkpt lat="47.271" lon="-2.31968">
        <ele>14</ele>
        <time>2021-05-23T08:37:31.982Z</time>
      </trkpt>
      <trkpt lat="47.27103" lon="-2.31969">
        <ele>14</ele>
        <time>2021-05-23T08:37:32.982Z</time>
      </trkpt>
      <trkpt lat="47.27107" lon="-2.31971">
        <ele>14</ele>
        <time>2021-05-23T08:37:33.982Z</time>
      </trkpt>
      <trkpt lat="47.2711" lon="-2.31971">
        <ele>14</ele>
        <time>2021-05-23T08:37:34.983Z</time>
      </trkpt>
      <trkpt lat="47.27112" lon="-2.3197">
        <ele>14</ele>
        <time>2021-05-23T08:37:35.983Z</time>
      </trkpt>
      <trkpt lat="47.27114" lon="-2.31969">
        <ele>14</ele>
        <time>2021-05-23T08:37:36.982Z</time>
      </trkpt>
      <trkpt lat="47.27116" lon="-2.31969">
        <ele>14</ele>
        <time>2021-05-23T08:37:37.983Z</time>
      </trkpt>
      <trkpt lat="47.27119" lon="-2.3197">
        <ele>14</ele>
        <time>2021-05-23T08:37:38.983Z</time>
      </trkpt>
      <trkpt lat="47.27122" lon="-2.31971">
        <ele>14</ele>
        <time>2021-05-23T08:37:39.983Z</time>
      </trkpt>
      <trkpt lat="47.27125" lon="-2.31973">
        <ele>14</ele>
        <time>2021-05-23T08:37:40.983Z</time>
      </trkpt>
      <trkpt lat="47.27128" lon="-2.31974">
        <ele>13</ele>
        <time>2021-05-23T08:37:41.983Z</time>
      </trkpt>
      <trkpt lat="47.27131" lon="-2.31976">
        <ele>13</ele>
        <time>2021-05-23T08:37:42.982Z</time>
      </trkpt>
      <trkpt lat="47.27134" lon="-2.31977">
        <ele>13</ele>
        <time>2021-05-23T08:37:43.983Z</time>
      </trkpt>
      <trkpt lat="47.27137" lon="-2.31978">
        <ele>13</ele>
        <time>2021-05-23T08:37:44.983Z</time>
      </trkpt>
      <trkpt lat="47.27139" lon="-2.31979">
        <ele>12</ele>
        <time>2021-05-23T08:37:45.982Z</time>
      </trkpt>
      <trkpt lat="47.27141" lon="-2.31981">
        <ele>12</ele>
        <time>2021-05-23T08:37:46.983Z</time>
      </trkpt>
      <trkpt lat="47.27142" lon="-2.31984">
        <ele>12</ele>
        <time>2021-05-23T08:37:47.982Z</time>
      </trkpt>
      <trkpt lat="47.27144" lon="-2.31985">
        <ele>12</ele>
        <time>2021-05-23T08:37:48.983Z</time>
      </trkpt>
      <trkpt lat="47.27145" lon="-2.31987">
        <ele>12</ele>
        <time>2021-05-23T08:37:49.982Z</time>
      </trkpt>
      <trkpt lat="47.27146" lon="-2.31989">
        <ele>13</ele>
        <time>2021-05-23T08:37:50.983Z</time>
      </trkpt>
      <trkpt lat="47.27148" lon="-2.31991">
        <ele>13</ele>
        <time>2021-05-23T08:37:51.983Z</time>
      </trkpt>
      <trkpt lat="47.2715" lon="-2.31994">
        <ele>14</ele>
        <time>2021-05-23T08:37:52.983Z</time>
      </trkpt>
      <trkpt lat="47.27152" lon="-2.31996">
        <ele>14</ele>
        <time>2021-05-23T08:37:53.982Z</time>
      </trkpt>
      <trkpt lat="47.27154" lon="-2.31998">
        <ele>14</ele>
        <time>2021-05-23T08:37:54.983Z</time>
      </trkpt>
      <trkpt lat="47.27157" lon="-2.31999">
        <ele>14</ele>
        <time>2021-05-23T08:37:55.982Z</time>
      </trkpt>
      <trkpt lat="47.2716" lon="-2.32">
        <ele>14</ele>
        <time>2021-05-23T08:37:56.983Z</time>
      </trkpt>
      <trkpt lat="47.27163" lon="-2.31999">
        <ele>14</ele>
        <time>2021-05-23T08:37:57.983Z</time>
      </trkpt>
      <trkpt lat="47.27165" lon="-2.31998">
        <ele>14</ele>
        <time>2021-05-23T08:37:58.983Z</time>
      </trkpt>
      <trkpt lat="47.27166" lon="-2.31996">
        <ele>14</ele>
        <time>2021-05-23T08:37:59.983Z</time>
      </trkpt>
      <trkpt lat="47.27168" lon="-2.31993">
        <ele>14</ele>
        <time>2021-05-23T08:38:00.983Z</time>
      </trkpt>
      <trkpt lat="47.2717" lon="-2.3199">
        <ele>14</ele>
        <time>2021-05-23T08:38:01.983Z</time>
      </trkpt>
      <trkpt lat="47.27172" lon="-2.31988">
        <ele>13</ele>
        <time>2021-05-23T08:38:02.983Z</time>
      </trkpt>
      <trkpt lat="47.27174" lon="-2.31986">
        <ele>13</ele>
        <time>2021-05-23T08:38:03.983Z</time>
      </trkpt>
      <trkpt lat="47.27176" lon="-2.31983">
        <ele>13</ele>
        <time>2021-05-23T08:38:04.983Z</time>
      </trkpt>
      <trkpt lat="47.27177" lon="-2.31979">
        <ele>13</ele>
        <time>2021-05-23T08:38:05.983Z</time>
      </trkpt>
      <trkpt lat="47.27178" lon="-2.31975">
        <ele>13</ele>
        <time>2021-05-23T08:38:06.983Z</time>
      </trkpt>
      <trkpt lat="47.27179" lon="-2.31972">
        <ele>12</ele>
        <time>2021-05-23T08:38:07.983Z</time>
      </trkpt>
      <trkpt lat="47.2718" lon="-2.31969">
        <ele>12</ele>
        <time>2021-05-23T08:38:08.983Z</time>
      </trkpt>
      <trkpt lat="47.27182" lon="-2.31967">
        <ele>11</ele>
        <time>2021-05-23T08:38:09.983Z</time>
      </trkpt>
      <trkpt lat="47.27184" lon="-2.31965">
        <ele>10</ele>
        <time>2021-05-23T08:38:10.983Z</time>
      </trkpt>
      <trkpt lat="47.27185" lon="-2.31964">
        <ele>9</ele>
        <time>2021-05-23T08:38:11.982Z</time>
      </trkpt>
      <trkpt lat="47.27187" lon="-2.31961">
        <ele>8</ele>
        <time>2021-05-23T08:38:12.983Z</time>
      </trkpt>
      <trkpt lat="47.27189" lon="-2.3196">
        <ele>7</ele>
        <time>2021-05-23T08:38:13.983Z</time>
      </trkpt>
      <trkpt lat="47.27192" lon="-2.31957">
        <ele>7</ele>
        <time>2021-05-23T08:38:14.983Z</time>
      </trkpt>
      <trkpt lat="47.27195" lon="-2.31956">
        <ele>6</ele>
        <time>2021-05-23T08:38:15.982Z</time>
      </trkpt>
      <trkpt lat="47.27197" lon="-2.31954">
        <ele>6</ele>
        <time>2021-05-23T08:38:16.983Z</time>
      </trkpt>
      <trkpt lat="47.27199" lon="-2.31952">
        <ele>6</ele>
        <time>2021-05-23T08:38:17.982Z</time>
      </trkpt>
      <trkpt lat="47.272" lon="-2.31951">
        <ele>5</ele>
        <time>2021-05-23T08:38:18.983Z</time>
      </trkpt>
      <trkpt lat="47.27201" lon="-2.31949">
        <ele>6</ele>
        <time>2021-05-23T08:38:19.983Z</time>
      </trkpt>
      <trkpt lat="47.27201" lon="-2.31947">
        <ele>6</ele>
        <time>2021-05-23T08:38:20.983Z</time>
      </trkpt>
      <trkpt lat="47.27203" lon="-2.31945">
        <ele>6</ele>
        <time>2021-05-23T08:38:21.983Z</time>
      </trkpt>
      <trkpt lat="47.27204" lon="-2.31943">
        <ele>6</ele>
        <time>2021-05-23T08:38:22.983Z</time>
      </trkpt>
      <trkpt lat="47.27205" lon="-2.3194">
        <ele>6</ele>
        <time>2021-05-23T08:38:23.983Z</time>
      </trkpt>
      <trkpt lat="47.27207" lon="-2.31937">
        <ele>6</ele>
        <time>2021-05-23T08:38:24.983Z</time>
      </trkpt>
      <trkpt lat="47.27209" lon="-2.31934">
        <ele>6</ele>
        <time>2021-05-23T08:38:25.983Z</time>
      </trkpt>
      <trkpt lat="47.27211" lon="-2.31932">
        <ele>6</ele>
        <time>2021-05-23T08:38:26.983Z</time>
      </trkpt>
      <trkpt lat="47.27213" lon="-2.31929">
        <ele>6</ele>
        <time>2021-05-23T08:38:27.983Z</time>
      </trkpt>
      <trkpt lat="47.27215" lon="-2.31927">
        <ele>6</ele>
        <time>2021-05-23T08:38:28.982Z</time>
      </trkpt>
      <trkpt lat="47.27217" lon="-2.31926">
        <ele>6</ele>
        <time>2021-05-23T08:38:29.983Z</time>
      </trkpt>
      <trkpt lat="47.27219" lon="-2.31926">
        <ele>6</ele>
        <time>2021-05-23T08:38:30.983Z</time>
      </trkpt>
      <trkpt lat="47.2722" lon="-2.31926">
        <ele>6</ele>
        <time>2021-05-23T08:38:31.983Z</time>
      </trkpt>
      <trkpt lat="47.27221" lon="-2.31926">
        <ele>6</ele>
        <time>2021-05-23T08:38:32.983Z</time>
      </trkpt>
      <trkpt lat="47.27222" lon="-2.31926">
        <ele>6</ele>
        <time>2021-05-23T08:38:33.983Z</time>
      </trkpt>
      <trkpt lat="47.27223" lon="-2.31927">
        <ele>6</ele>
        <time>2021-05-23T08:38:34.983Z</time>
      </trkpt>
      <trkpt lat="47.27225" lon="-2.31927">
        <ele>6</ele>
        <time>2021-05-23T08:38:35.983Z</time>
      </trkpt>
      <trkpt lat="47.27226" lon="-2.31928">
        <ele>6</ele>
        <time>2021-05-23T08:38:36.982Z</time>
      </trkpt>
      <trkpt lat="47.27228" lon="-2.31929">
        <ele>6</ele>
        <time>2021-05-23T08:38:37.983Z</time>
      </trkpt>
      <trkpt lat="47.27231" lon="-2.31929">
        <ele>6</ele>
        <time>2021-05-23T08:38:38.983Z</time>
      </trkpt>
      <trkpt lat="47.27233" lon="-2.3193">
        <ele>7</ele>
        <time>2021-05-23T08:38:39.983Z</time>
      </trkpt>
      <trkpt lat="47.27235" lon="-2.3193">
        <ele>7</ele>
        <time>2021-05-23T08:38:40.983Z</time>
      </trkpt>
      <trkpt lat="47.27237" lon="-2.3193">
        <ele>8</ele>
        <time>2021-05-23T08:38:41.982Z</time>
      </trkpt>
      <trkpt lat="47.27239" lon="-2.3193">
        <ele>9</ele>
        <time>2021-05-23T08:38:42.982Z</time>
      </trkpt>
      <trkpt lat="47.27241" lon="-2.3193">
        <ele>9</ele>
        <time>2021-05-23T08:38:43.983Z</time>
      </trkpt>
      <trkpt lat="47.27244" lon="-2.31931">
        <ele>10</ele>
        <time>2021-05-23T08:38:44.983Z</time>
      </trkpt>
      <trkpt lat="47.27246" lon="-2.31931">
        <ele>10</ele>
        <time>2021-05-23T08:38:45.983Z</time>
      </trkpt>
      <trkpt lat="47.27249" lon="-2.31932">
        <ele>10</ele>
        <time>2021-05-23T08:38:46.983Z</time>
      </trkpt>
      <trkpt lat="47.27252" lon="-2.31933">
        <ele>11</ele>
        <time>2021-05-23T08:38:47.983Z</time>
      </trkpt>
      <trkpt lat="47.27255" lon="-2.31935">
        <ele>11</ele>
        <time>2021-05-23T08:38:48.983Z</time>
      </trkpt>
      <trkpt lat="47.27257" lon="-2.31937">
        <ele>11</ele>
        <time>2021-05-23T08:38:49.983Z</time>
      </trkpt>
      <trkpt lat="47.2726" lon="-2.31938">
        <ele>11</ele>
        <time>2021-05-23T08:38:50.983Z</time>
      </trkpt>
      <trkpt lat="47.27262" lon="-2.3194">
        <ele>11</ele>
        <time>2021-05-23T08:38:51.983Z</time>
      </trkpt>
      <trkpt lat="47.27265" lon="-2.31942">
        <ele>11</ele>
        <time>2021-05-23T08:38:52.982Z</time>
      </trkpt>
      <trkpt lat="47.27268" lon="-2.31944">
        <ele>11</ele>
        <time>2021-05-23T08:38:53.983Z</time>
      </trkpt>
      <trkpt lat="47.2727" lon="-2.31945">
        <ele>12</ele>
        <time>2021-05-23T08:38:54.982Z</time>
      </trkpt>
      <trkpt lat="47.27272" lon="-2.31946">
        <ele>12</ele>
        <time>2021-05-23T08:38:55.982Z</time>
      </trkpt>
      <trkpt lat="47.27275" lon="-2.31947">
        <ele>13</ele>
        <time>2021-05-23T08:38:56.982Z</time>
      </trkpt>
      <trkpt lat="47.27278" lon="-2.31948">
        <ele>14</ele>
        <time>2021-05-23T08:38:57.983Z</time>
      </trkpt>
      <trkpt lat="47.27281" lon="-2.31949">
        <ele>14</ele>
        <time>2021-05-23T08:38:58.982Z</time>
      </trkpt>
      <trkpt lat="47.27283" lon="-2.31951">
        <ele>15</ele>
        <time>2021-05-23T08:38:59.982Z</time>
      </trkpt>
      <trkpt lat="47.27285" lon="-2.31952">
        <ele>16</ele>
        <time>2021-05-23T08:39:00.983Z</time>
      </trkpt>
      <trkpt lat="47.27287" lon="-2.31953">
        <ele>17</ele>
        <time>2021-05-23T08:39:01.983Z</time>
      </trkpt>
      <trkpt lat="47.2729" lon="-2.31956">
        <ele>17</ele>
        <time>2021-05-23T08:39:02.982Z</time>
      </trkpt>
      <trkpt lat="47.27293" lon="-2.31957">
        <ele>18</ele>
        <time>2021-05-23T08:39:03.983Z</time>
      </trkpt>
      <trkpt lat="47.27294" lon="-2.31958">
        <ele>18</ele>
        <time>2021-05-23T08:39:04.982Z</time>
      </trkpt>
      <trkpt lat="47.27297" lon="-2.31959">
        <ele>18</ele>
        <time>2021-05-23T08:39:05.982Z</time>
      </trkpt>
      <trkpt lat="47.273" lon="-2.31961">
        <ele>18</ele>
        <time>2021-05-23T08:39:06.982Z</time>
      </trkpt>
      <trkpt lat="47.27302" lon="-2.31962">
        <ele>18</ele>
        <time>2021-05-23T08:39:07.983Z</time>
      </trkpt>
      <trkpt lat="47.27305" lon="-2.31963">
        <ele>18</ele>
        <time>2021-05-23T08:39:08.983Z</time>
      </trkpt>
      <trkpt lat="47.27307" lon="-2.31964">
        <ele>18</ele>
        <time>2021-05-23T08:39:09.983Z</time>
      </trkpt>
      <trkpt lat="47.27309" lon="-2.31966">
        <ele>17</ele>
        <time>2021-05-23T08:39:10.982Z</time>
      </trkpt>
      <trkpt lat="47.27311" lon="-2.31967">
        <ele>17</ele>
        <time>2021-05-23T08:39:11.982Z</time>
      </trkpt>
      <trkpt lat="47.27314" lon="-2.31969">
        <ele>16</ele>
        <time>2021-05-23T08:39:12.982Z</time>
      </trkpt>
      <trkpt lat="47.27316" lon="-2.3197">
        <ele>16</ele>
        <time>2021-05-23T08:39:13.983Z</time>
      </trkpt>
      <trkpt lat="47.27318" lon="-2.31972">
        <ele>17</ele>
        <time>2021-05-23T08:39:14.982Z</time>
      </trkpt>
      <trkpt lat="47.2732" lon="-2.31974">
        <ele>17</ele>
        <time>2021-05-23T08:39:15.983Z</time>
      </trkpt>
      <trkpt lat="47.27323" lon="-2.31975">
        <ele>18</ele>
        <time>2021-05-23T08:39:16.983Z</time>
      </trkpt>
      <trkpt lat="47.27325" lon="-2.31977">
        <ele>18</ele>
        <time>2021-05-23T08:39:17.983Z</time>
      </trkpt>
      <trkpt lat="47.27328" lon="-2.31979">
        <ele>18</ele>
        <time>2021-05-23T08:39:18.982Z</time>
      </trkpt>
      <trkpt lat="47.2733" lon="-2.31981">
        <ele>19</ele>
        <time>2021-05-23T08:39:19.982Z</time>
      </trkpt>
      <trkpt lat="47.27332" lon="-2.31983">
        <ele>19</ele>
        <time>2021-05-23T08:39:20.983Z</time>
      </trkpt>
      <trkpt lat="47.27334" lon="-2.31986">
        <ele>19</ele>
        <time>2021-05-23T08:39:21.983Z</time>
      </trkpt>
      <trkpt lat="47.27336" lon="-2.31988">
        <ele>20</ele>
        <time>2021-05-23T08:39:22.983Z</time>
      </trkpt>
      <trkpt lat="47.27338" lon="-2.31989">
        <ele>21</ele>
        <time>2021-05-23T08:39:23.983Z</time>
      </trkpt>
      <trkpt lat="47.2734" lon="-2.31992">
        <ele>21</ele>
        <time>2021-05-23T08:39:24.982Z</time>
      </trkpt>
      <trkpt lat="47.27343" lon="-2.31994">
        <ele>22</ele>
        <time>2021-05-23T08:39:25.983Z</time>
      </trkpt>
      <trkpt lat="47.27345" lon="-2.31997">
        <ele>23</ele>
        <time>2021-05-23T08:39:26.983Z</time>
      </trkpt>
      <trkpt lat="47.27347" lon="-2.31999">
        <ele>24</ele>
        <time>2021-05-23T08:39:27.983Z</time>
      </trkpt>
      <trkpt lat="47.27349" lon="-2.32001">
        <ele>24</ele>
        <time>2021-05-23T08:39:28.983Z</time>
      </trkpt>
      <trkpt lat="47.27352" lon="-2.32003">
        <ele>25</ele>
        <time>2021-05-23T08:39:29.983Z</time>
      </trkpt>
      <trkpt lat="47.27354" lon="-2.32006">
        <ele>26</ele>
        <time>2021-05-23T08:39:30.982Z</time>
      </trkpt>
      <trkpt lat="47.27356" lon="-2.32008">
        <ele>27</ele>
        <time>2021-05-23T08:39:31.983Z</time>
      </trkpt>
      <trkpt lat="47.27358" lon="-2.3201">
        <ele>27</ele>
        <time>2021-05-23T08:39:32.983Z</time>
      </trkpt>
      <trkpt lat="47.2736" lon="-2.32011">
        <ele>28</ele>
        <time>2021-05-23T08:39:33.982Z</time>
      </trkpt>
      <trkpt lat="47.27363" lon="-2.32013">
        <ele>29</ele>
        <time>2021-05-23T08:39:34.983Z</time>
      </trkpt>
      <trkpt lat="47.27366" lon="-2.32015">
        <ele>29</ele>
        <time>2021-05-23T08:39:35.983Z</time>
      </trkpt>
      <trkpt lat="47.27368" lon="-2.32016">
        <ele>28</ele>
        <time>2021-05-23T08:39:36.983Z</time>
      </trkpt>
      <trkpt lat="47.27369" lon="-2.32017">
        <ele>28</ele>
        <time>2021-05-23T08:39:37.982Z</time>
      </trkpt>
      <trkpt lat="47.27371" lon="-2.32018">
        <ele>27</ele>
        <time>2021-05-23T08:39:38.983Z</time>
      </trkpt>
      <trkpt lat="47.27373" lon="-2.32019">
        <ele>27</ele>
        <time>2021-05-23T08:39:39.982Z</time>
      </trkpt>
      <trkpt lat="47.27376" lon="-2.3202">
        <ele>27</ele>
        <time>2021-05-23T08:39:40.983Z</time>
      </trkpt>
      <trkpt lat="47.27378" lon="-2.3202">
        <ele>27</ele>
        <time>2021-05-23T08:39:41.982Z</time>
      </trkpt>
      <trkpt lat="47.2738" lon="-2.32021">
        <ele>26</ele>
        <time>2021-05-23T08:39:42.982Z</time>
      </trkpt>
      <trkpt lat="47.27382" lon="-2.32024">
        <ele>26</ele>
        <time>2021-05-23T08:39:43.983Z</time>
      </trkpt>
      <trkpt lat="47.27385" lon="-2.32027">
        <ele>26</ele>
        <time>2021-05-23T08:39:44.983Z</time>
      </trkpt>
      <trkpt lat="47.27388" lon="-2.32029">
        <ele>26</ele>
        <time>2021-05-23T08:39:45.983Z</time>
      </trkpt>
      <trkpt lat="47.2739" lon="-2.32031">
        <ele>26</ele>
        <time>2021-05-23T08:39:46.983Z</time>
      </trkpt>
      <trkpt lat="47.27392" lon="-2.32033">
        <ele>25</ele>
        <time>2021-05-23T08:39:47.982Z</time>
      </trkpt>
      <trkpt lat="47.27394" lon="-2.32034">
        <ele>25</ele>
        <time>2021-05-23T08:39:48.983Z</time>
      </trkpt>
      <trkpt lat="47.27397" lon="-2.32036">
        <ele>24</ele>
        <time>2021-05-23T08:39:49.983Z</time>
      </trkpt>
      <trkpt lat="47.27398" lon="-2.32038">
        <ele>24</ele>
        <time>2021-05-23T08:39:50.983Z</time>
      </trkpt>
      <trkpt lat="47.274" lon="-2.3204">
        <ele>22</ele>
        <time>2021-05-23T08:39:51.982Z</time>
      </trkpt>
      <trkpt lat="47.27403" lon="-2.32042">
        <ele>21</ele>
        <time>2021-05-23T08:39:52.982Z</time>
      </trkpt>
      <trkpt lat="47.27405" lon="-2.32043">
        <ele>20</ele>
        <time>2021-05-23T08:39:53.982Z</time>
      </trkpt>
      <trkpt lat="47.27407" lon="-2.32045">
        <ele>20</ele>
        <time>2021-05-23T08:39:54.983Z</time>
      </trkpt>
      <trkpt lat="47.2741" lon="-2.32046">
        <ele>20</ele>
        <time>2021-05-23T08:39:55.982Z</time>
      </trkpt>
      <trkpt lat="47.27413" lon="-2.32047">
        <ele>20</ele>
        <time>2021-05-23T08:39:56.983Z</time>
      </trkpt>
      <trkpt lat="47.27415" lon="-2.32049">
        <ele>20</ele>
        <time>2021-05-23T08:39:57.982Z</time>
      </trkpt>
      <trkpt lat="47.27418" lon="-2.3205">
        <ele>20</ele>
        <time>2021-05-23T08:39:58.983Z</time>
      </trkpt>
      <trkpt lat="47.2742" lon="-2.3205">
        <ele>20</ele>
        <time>2021-05-23T08:39:59.983Z</time>
      </trkpt>
      <trkpt lat="47.27422" lon="-2.32049">
        <ele>19</ele>
        <time>2021-05-23T08:40:00.983Z</time>
      </trkpt>
      <trkpt lat="47.27425" lon="-2.32048">
        <ele>19</ele>
        <time>2021-05-23T08:40:01.983Z</time>
      </trkpt>
      <trkpt lat="47.27428" lon="-2.32046">
        <ele>18</ele>
        <time>2021-05-23T08:40:02.983Z</time>
      </trkpt>
      <trkpt lat="47.2743" lon="-2.32043">
        <ele>17</ele>
        <time>2021-05-23T08:40:03.982Z</time>
      </trkpt>
      <trkpt lat="47.27432" lon="-2.3204">
        <ele>17</ele>
        <time>2021-05-23T08:40:04.983Z</time>
      </trkpt>
      <trkpt lat="47.27433" lon="-2.32035">
        <ele>16</ele>
        <time>2021-05-23T08:40:05.982Z</time>
      </trkpt>
      <trkpt lat="47.27435" lon="-2.32032">
        <ele>15</ele>
        <time>2021-05-23T08:40:06.982Z</time>
      </trkpt>
      <trkpt lat="47.27437" lon="-2.32027">
        <ele>14</ele>
        <time>2021-05-23T08:40:07.983Z</time>
      </trkpt>
      <trkpt lat="47.27439" lon="-2.32023">
        <ele>14</ele>
        <time>2021-05-23T08:40:08.982Z</time>
      </trkpt>
      <trkpt lat="47.2744" lon="-2.32019">
        <ele>13</ele>
        <time>2021-05-23T08:40:09.983Z</time>
      </trkpt>
      <trkpt lat="47.27441" lon="-2.32016">
        <ele>12</ele>
        <time>2021-05-23T08:40:10.983Z</time>
      </trkpt>
      <trkpt lat="47.27443" lon="-2.32011">
        <ele>11</ele>
        <time>2021-05-23T08:40:11.983Z</time>
      </trkpt>
      <trkpt lat="47.27444" lon="-2.32007">
        <ele>11</ele>
        <time>2021-05-23T08:40:12.982Z</time>
      </trkpt>
      <trkpt lat="47.27444" lon="-2.32004">
        <ele>10</ele>
        <time>2021-05-23T08:40:13.983Z</time>
      </trkpt>
      <trkpt lat="47.27445" lon="-2.32001">
        <ele>9</ele>
        <time>2021-05-23T08:40:14.982Z</time>
      </trkpt>
      <trkpt lat="47.27446" lon="-2.31999">
        <ele>9</ele>
        <time>2021-05-23T08:40:15.982Z</time>
      </trkpt>
      <trkpt lat="47.27448" lon="-2.31995">
        <ele>8</ele>
        <time>2021-05-23T08:40:16.982Z</time>
      </trkpt>
      <trkpt lat="47.27449" lon="-2.31992">
        <ele>8</ele>
        <time>2021-05-23T08:40:17.983Z</time>
      </trkpt>
      <trkpt lat="47.2745" lon="-2.3199">
        <ele>7</ele>
        <time>2021-05-23T08:40:18.983Z</time>
      </trkpt>
      <trkpt lat="47.27451" lon="-2.31987">
        <ele>7</ele>
        <time>2021-05-23T08:40:19.983Z</time>
      </trkpt>
      <trkpt lat="47.27452" lon="-2.31984">
        <ele>7</ele>
        <time>2021-05-23T08:40:20.983Z</time>
      </trkpt>
      <trkpt lat="47.27454" lon="-2.3198">
        <ele>7</ele>
        <time>2021-05-23T08:40:21.983Z</time>
      </trkpt>
      <trkpt lat="47.27455" lon="-2.31977">
        <ele>7</ele>
        <time>2021-05-23T08:40:22.983Z</time>
      </trkpt>
      <trkpt lat="47.27455" lon="-2.31974">
        <ele>7</ele>
        <time>2021-05-23T08:40:23.983Z</time>
      </trkpt>
      <trkpt lat="47.27456" lon="-2.31972">
        <ele>6</ele>
        <time>2021-05-23T08:40:24.983Z</time>
      </trkpt>
      <trkpt lat="47.27458" lon="-2.31969">
        <ele>6</ele>
        <time>2021-05-23T08:40:25.983Z</time>
      </trkpt>
      <trkpt lat="47.27459" lon="-2.31965">
        <ele>6</ele>
        <time>2021-05-23T08:40:26.983Z</time>
      </trkpt>
      <trkpt lat="47.2746" lon="-2.31962">
        <ele>6</ele>
        <time>2021-05-23T08:40:27.983Z</time>
      </trkpt>
      <trkpt lat="47.27462" lon="-2.31959">
        <ele>5</ele>
        <time>2021-05-23T08:40:28.983Z</time>
      </trkpt>
      <trkpt lat="47.27463" lon="-2.31957">
        <ele>5</ele>
        <time>2021-05-23T08:40:29.982Z</time>
      </trkpt>
      <trkpt lat="47.27464" lon="-2.31954">
        <ele>5</ele>
        <time>2021-05-23T08:40:30.983Z</time>
      </trkpt>
      <trkpt lat="47.27466" lon="-2.31951">
        <ele>5</ele>
        <time>2021-05-23T08:40:31.983Z</time>
      </trkpt>
      <trkpt lat="47.27468" lon="-2.31948">
        <ele>5</ele>
        <time>2021-05-23T08:40:32.982Z</time>
      </trkpt>
      <trkpt lat="47.2747" lon="-2.31945">
        <ele>4</ele>
        <time>2021-05-23T08:40:33.983Z</time>
      </trkpt>
      <trkpt lat="47.27471" lon="-2.31941">
        <ele>4</ele>
        <time>2021-05-23T08:40:34.983Z</time>
      </trkpt>
      <trkpt lat="47.27472" lon="-2.31939">
        <ele>4</ele>
        <time>2021-05-23T08:40:35.982Z</time>
      </trkpt>
      <trkpt lat="47.27474" lon="-2.31935">
        <ele>3</ele>
        <time>2021-05-23T08:40:36.982Z</time>
      </trkpt>
      <trkpt lat="47.27476" lon="-2.31932">
        <ele>3</ele>
        <time>2021-05-23T08:40:37.982Z</time>
      </trkpt>
      <trkpt lat="47.27477" lon="-2.31929">
        <ele>3</ele>
        <time>2021-05-23T08:40:38.983Z</time>
      </trkpt>
      <trkpt lat="47.27479" lon="-2.31925">
        <ele>3</ele>
        <time>2021-05-23T08:40:39.982Z</time>
      </trkpt>
      <trkpt lat="47.2748" lon="-2.31923">
        <ele>3</ele>
        <time>2021-05-23T08:40:40.983Z</time>
      </trkpt>
      <trkpt lat="47.27481" lon="-2.3192">
        <ele>3</ele>
        <time>2021-05-23T08:40:41.983Z</time>
      </trkpt>
      <trkpt lat="47.27483" lon="-2.31916">
        <ele>3</ele>
        <time>2021-05-23T08:40:42.983Z</time>
      </trkpt>
      <trkpt lat="47.27484" lon="-2.31913">
        <ele>4</ele>
        <time>2021-05-23T08:40:43.983Z</time>
      </trkpt>
      <trkpt lat="47.27485" lon="-2.3191">
        <ele>4</ele>
        <time>2021-05-23T08:40:44.982Z</time>
      </trkpt>
      <trkpt lat="47.27486" lon="-2.31907">
        <ele>4</ele>
        <time>2021-05-23T08:40:45.982Z</time>
      </trkpt>
      <trkpt lat="47.27487" lon="-2.31903">
        <ele>5</ele>
        <time>2021-05-23T08:40:46.983Z</time>
      </trkpt>
      <trkpt lat="47.27488" lon="-2.319">
        <ele>5</ele>
        <time>2021-05-23T08:40:47.982Z</time>
      </trkpt>
      <trkpt lat="47.2749" lon="-2.31897">
        <ele>5</ele>
        <time>2021-05-23T08:40:48.983Z</time>
      </trkpt>
      <trkpt lat="47.27491" lon="-2.31894">
        <ele>5</ele>
        <time>2021-05-23T08:40:49.983Z</time>
      </trkpt>
      <trkpt lat="47.27493" lon="-2.31891">
        <ele>5</ele>
        <time>2021-05-23T08:40:50.982Z</time>
      </trkpt>
      <trkpt lat="47.27494" lon="-2.31887">
        <ele>5</ele>
        <time>2021-05-23T08:40:51.983Z</time>
      </trkpt>
      <trkpt lat="47.27495" lon="-2.31885">
        <ele>4</ele>
        <time>2021-05-23T08:40:52.982Z</time>
      </trkpt>
      <trkpt lat="47.27497" lon="-2.31881">
        <ele>4</ele>
        <time>2021-05-23T08:40:53.983Z</time>
      </trkpt>
      <trkpt lat="47.27498" lon="-2.31878">
        <ele>4</ele>
        <time>2021-05-23T08:40:54.983Z</time>
      </trkpt>
      <trkpt lat="47.27498" lon="-2.31874">
        <ele>3</ele>
        <time>2021-05-23T08:40:55.983Z</time>
      </trkpt>
      <trkpt lat="47.275" lon="-2.31871">
        <ele>3</ele>
        <time>2021-05-23T08:40:56.982Z</time>
      </trkpt>
      <trkpt lat="47.27501" lon="-2.31868">
        <ele>3</ele>
        <time>2021-05-23T08:40:57.982Z</time>
      </trkpt>
      <trkpt lat="47.27502" lon="-2.31865">
        <ele>3</ele>
        <time>2021-05-23T08:40:58.982Z</time>
      </trkpt>
      <trkpt lat="47.27504" lon="-2.31861">
        <ele>3</ele>
        <time>2021-05-23T08:40:59.983Z</time>
      </trkpt>
      <trkpt lat="47.27505" lon="-2.31858">
        <ele>3</ele>
        <time>2021-05-23T08:41:00.983Z</time>
      </trkpt>
      <trkpt lat="47.27506" lon="-2.31855">
        <ele>3</ele>
        <time>2021-05-23T08:41:01.983Z</time>
      </trkpt>
      <trkpt lat="47.27507" lon="-2.31852">
        <ele>3</ele>
        <time>2021-05-23T08:41:02.982Z</time>
      </trkpt>
      <trkpt lat="47.27508" lon="-2.31849">
        <ele>4</ele>
        <time>2021-05-23T08:41:03.982Z</time>
      </trkpt>
      <trkpt lat="47.27509" lon="-2.31845">
        <ele>4</ele>
        <time>2021-05-23T08:41:04.983Z</time>
      </trkpt>
      <trkpt lat="47.27511" lon="-2.31841">
        <ele>4</ele>
        <time>2021-05-23T08:41:05.983Z</time>
      </trkpt>
      <trkpt lat="47.27512" lon="-2.31838">
        <ele>5</ele>
        <time>2021-05-23T08:41:06.983Z</time>
      </trkpt>
      <trkpt lat="47.27513" lon="-2.31835">
        <ele>5</ele>
        <time>2021-05-23T08:41:07.982Z</time>
      </trkpt>
      <trkpt lat="47.27514" lon="-2.31831">
        <ele>6</ele>
        <time>2021-05-23T08:41:08.982Z</time>
      </trkpt>
      <trkpt lat="47.27516" lon="-2.31827">
        <ele>6</ele>
        <time>2021-05-23T08:41:09.983Z</time>
      </trkpt>
      <trkpt lat="47.27517" lon="-2.31824">
        <ele>6</ele>
        <time>2021-05-23T08:41:10.982Z</time>
      </trkpt>
      <trkpt lat="47.27517" lon="-2.31821">
        <ele>6</ele>
        <time>2021-05-23T08:41:11.983Z</time>
      </trkpt>
      <trkpt lat="47.27518" lon="-2.31817">
        <ele>6</ele>
        <time>2021-05-23T08:41:12.982Z</time>
      </trkpt>
      <trkpt lat="47.2752" lon="-2.31813">
        <ele>6</ele>
        <time>2021-05-23T08:41:13.982Z</time>
      </trkpt>
      <trkpt lat="47.27521" lon="-2.3181">
        <ele>6</ele>
        <time>2021-05-23T08:41:14.983Z</time>
      </trkpt>
      <trkpt lat="47.27522" lon="-2.31807">
        <ele>6</ele>
        <time>2021-05-23T08:41:15.982Z</time>
      </trkpt>
      <trkpt lat="47.27522" lon="-2.31803">
        <ele>6</ele>
        <time>2021-05-23T08:41:16.983Z</time>
      </trkpt>
      <trkpt lat="47.27523" lon="-2.31799">
        <ele>6</ele>
        <time>2021-05-23T08:41:17.982Z</time>
      </trkpt>
      <trkpt lat="47.27524" lon="-2.31796">
        <ele>6</ele>
        <time>2021-05-23T08:41:18.982Z</time>
      </trkpt>
      <trkpt lat="47.27526" lon="-2.31792">
        <ele>6</ele>
        <time>2021-05-23T08:41:19.983Z</time>
      </trkpt>
      <trkpt lat="47.27527" lon="-2.31789">
        <ele>6</ele>
        <time>2021-05-23T08:41:20.983Z</time>
      </trkpt>
      <trkpt lat="47.27528" lon="-2.31786">
        <ele>6</ele>
        <time>2021-05-23T08:41:21.982Z</time>
      </trkpt>
      <trkpt lat="47.27529" lon="-2.31782">
        <ele>6</ele>
        <time>2021-05-23T08:41:22.982Z</time>
      </trkpt>
      <trkpt lat="47.2753" lon="-2.31779">
        <ele>6</ele>
        <time>2021-05-23T08:41:23.982Z</time>
      </trkpt>
      <trkpt lat="47.2753" lon="-2.31776">
        <ele>6</ele>
        <time>2021-05-23T08:41:24.982Z</time>
      </trkpt>
      <trkpt lat="47.2753" lon="-2.31772">
        <ele>6</ele>
        <time>2021-05-23T08:41:25.983Z</time>
      </trkpt>
      <trkpt lat="47.27531" lon="-2.31769">
        <ele>6</ele>
        <time>2021-05-23T08:41:26.983Z</time>
      </trkpt>
      <trkpt lat="47.27532" lon="-2.31765">
        <ele>5</ele>
        <time>2021-05-23T08:41:27.982Z</time>
      </trkpt>
      <trkpt lat="47.27532" lon="-2.31762">
        <ele>5</ele>
        <time>2021-05-23T08:41:28.982Z</time>
      </trkpt>
      <trkpt lat="47.27533" lon="-2.31759">
        <ele>5</ele>
        <time>2021-05-23T08:41:29.982Z</time>
      </trkpt>
      <trkpt lat="47.27534" lon="-2.31756">
        <ele>5</ele>
        <time>2021-05-23T08:41:30.983Z</time>
      </trkpt>
      <trkpt lat="47.27534" lon="-2.31753">
        <ele>5</ele>
        <time>2021-05-23T08:41:31.982Z</time>
      </trkpt>
      <trkpt lat="47.27535" lon="-2.31749">
        <ele>5</ele>
        <time>2021-05-23T08:41:32.982Z</time>
      </trkpt>
      <trkpt lat="47.27535" lon="-2.31745">
        <ele>5</ele>
        <time>2021-05-23T08:41:33.982Z</time>
      </trkpt>
      <trkpt lat="47.27536" lon="-2.31741">
        <ele>4</ele>
        <time>2021-05-23T08:41:34.983Z</time>
      </trkpt>
      <trkpt lat="47.27537" lon="-2.31738">
        <ele>5</ele>
        <time>2021-05-23T08:41:35.982Z</time>
      </trkpt>
      <trkpt lat="47.27538" lon="-2.31735">
        <ele>5</ele>
        <time>2021-05-23T08:41:36.983Z</time>
      </trkpt>
      <trkpt lat="47.2754" lon="-2.31731">
        <ele>6</ele>
        <time>2021-05-23T08:41:37.982Z</time>
      </trkpt>
      <trkpt lat="47.27541" lon="-2.31727">
        <ele>6</ele>
        <time>2021-05-23T08:41:38.982Z</time>
      </trkpt>
      <trkpt lat="47.27541" lon="-2.31724">
        <ele>6</ele>
        <time>2021-05-23T08:41:39.982Z</time>
      </trkpt>
      <trkpt lat="47.27542" lon="-2.31721">
        <ele>7</ele>
        <time>2021-05-23T08:41:40.983Z</time>
      </trkpt>
      <trkpt lat="47.27543" lon="-2.31717">
        <ele>7</ele>
        <time>2021-05-23T08:41:41.982Z</time>
      </trkpt>
      <trkpt lat="47.27544" lon="-2.31713">
        <ele>8</ele>
        <time>2021-05-23T08:41:42.982Z</time>
      </trkpt>
      <trkpt lat="47.27545" lon="-2.3171">
        <ele>8</ele>
        <time>2021-05-23T08:41:43.982Z</time>
      </trkpt>
      <trkpt lat="47.27545" lon="-2.31707">
        <ele>9</ele>
        <time>2021-05-23T08:41:44.983Z</time>
      </trkpt>
      <trkpt lat="47.27545" lon="-2.31703">
        <ele>9</ele>
        <time>2021-05-23T08:41:45.982Z</time>
      </trkpt>
      <trkpt lat="47.27546" lon="-2.31699">
        <ele>9</ele>
        <time>2021-05-23T08:41:46.982Z</time>
      </trkpt>
      <trkpt lat="47.27547" lon="-2.31696">
        <ele>9</ele>
        <time>2021-05-23T08:41:47.982Z</time>
      </trkpt>
      <trkpt lat="47.27548" lon="-2.31693">
        <ele>10</ele>
        <time>2021-05-23T08:41:48.982Z</time>
      </trkpt>
      <trkpt lat="47.27548" lon="-2.3169">
        <ele>10</ele>
        <time>2021-05-23T08:41:49.983Z</time>
      </trkpt>
      <trkpt lat="47.27549" lon="-2.31687">
        <ele>11</ele>
        <time>2021-05-23T08:41:50.983Z</time>
      </trkpt>
      <trkpt lat="47.2755" lon="-2.31683">
        <ele>11</ele>
        <time>2021-05-23T08:41:51.982Z</time>
      </trkpt>
      <trkpt lat="47.27551" lon="-2.3168">
        <ele>11</ele>
        <time>2021-05-23T08:41:52.982Z</time>
      </trkpt>
      <trkpt lat="47.27552" lon="-2.31677">
        <ele>11</ele>
        <time>2021-05-23T08:41:53.982Z</time>
      </trkpt>
      <trkpt lat="47.27553" lon="-2.31673">
        <ele>10</ele>
        <time>2021-05-23T08:41:54.982Z</time>
      </trkpt>
      <trkpt lat="47.27554" lon="-2.3167">
        <ele>10</ele>
        <time>2021-05-23T08:41:55.982Z</time>
      </trkpt>
      <trkpt lat="47.27554" lon="-2.31667">
        <ele>10</ele>
        <time>2021-05-23T08:41:56.982Z</time>
      </trkpt>
      <trkpt lat="47.27555" lon="-2.31664">
        <ele>10</ele>
        <time>2021-05-23T08:41:57.983Z</time>
      </trkpt>
      <trkpt lat="47.27556" lon="-2.31661">
        <ele>10</ele>
        <time>2021-05-23T08:41:58.983Z</time>
      </trkpt>
      <trkpt lat="47.27557" lon="-2.31658">
        <ele>10</ele>
        <time>2021-05-23T08:41:59.982Z</time>
      </trkpt>
      <trkpt lat="47.27558" lon="-2.31655">
        <ele>11</ele>
        <time>2021-05-23T08:42:00.983Z</time>
      </trkpt>
      <trkpt lat="47.27559" lon="-2.31651">
        <ele>11</ele>
        <time>2021-05-23T08:42:01.983Z</time>
      </trkpt>
      <trkpt lat="47.27561" lon="-2.31648">
        <ele>11</ele>
        <time>2021-05-23T08:42:02.983Z</time>
      </trkpt>
      <trkpt lat="47.27563" lon="-2.31643">
        <ele>11</ele>
        <time>2021-05-23T08:42:03.982Z</time>
      </trkpt>
      <trkpt lat="47.27564" lon="-2.31641">
        <ele>11</ele>
        <time>2021-05-23T08:42:04.982Z</time>
      </trkpt>
      <trkpt lat="47.27565" lon="-2.31637">
        <ele>12</ele>
        <time>2021-05-23T08:42:05.983Z</time>
      </trkpt>
      <trkpt lat="47.27566" lon="-2.31633">
        <ele>12</ele>
        <time>2021-05-23T08:42:06.982Z</time>
      </trkpt>
      <trkpt lat="47.27566" lon="-2.3163">
        <ele>12</ele>
        <time>2021-05-23T08:42:07.982Z</time>
      </trkpt>
      <trkpt lat="47.27567" lon="-2.31627">
        <ele>12</ele>
        <time>2021-05-23T08:42:08.983Z</time>
      </trkpt>
      <trkpt lat="47.27567" lon="-2.31624">
        <ele>13</ele>
        <time>2021-05-23T08:42:09.983Z</time>
      </trkpt>
      <trkpt lat="47.27568" lon="-2.3162">
        <ele>13</ele>
        <time>2021-05-23T08:42:10.982Z</time>
      </trkpt>
      <trkpt lat="47.27569" lon="-2.31617">
        <ele>13</ele>
        <time>2021-05-23T08:42:11.982Z</time>
      </trkpt>
      <trkpt lat="47.2757" lon="-2.31615">
        <ele>14</ele>
        <time>2021-05-23T08:42:12.983Z</time>
      </trkpt>
      <trkpt lat="47.27571" lon="-2.31611">
        <ele>14</ele>
        <time>2021-05-23T08:42:13.982Z</time>
      </trkpt>
      <trkpt lat="47.27572" lon="-2.31607">
        <ele>14</ele>
        <time>2021-05-23T08:42:14.982Z</time>
      </trkpt>
      <trkpt lat="47.27573" lon="-2.31603">
        <ele>14</ele>
        <time>2021-05-23T08:42:15.982Z</time>
      </trkpt>
      <trkpt lat="47.27574" lon="-2.316">
        <ele>14</ele>
        <time>2021-05-23T08:42:16.982Z</time>
      </trkpt>
      <trkpt lat="47.27575" lon="-2.31596">
        <ele>13</ele>
        <time>2021-05-23T08:42:17.982Z</time>
      </trkpt>
      <trkpt lat="47.27576" lon="-2.31592">
        <ele>13</ele>
        <time>2021-05-23T08:42:18.982Z</time>
      </trkpt>
      <trkpt lat="47.27577" lon="-2.31589">
        <ele>13</ele>
        <time>2021-05-23T08:42:19.982Z</time>
      </trkpt>
      <trkpt lat="47.27578" lon="-2.31585">
        <ele>13</ele>
        <time>2021-05-23T08:42:20.982Z</time>
      </trkpt>
      <trkpt lat="47.2758" lon="-2.31581">
        <ele>12</ele>
        <time>2021-05-23T08:42:21.982Z</time>
      </trkpt>
      <trkpt lat="47.27581" lon="-2.31578">
        <ele>12</ele>
        <time>2021-05-23T08:42:22.982Z</time>
      </trkpt>
      <trkpt lat="47.27582" lon="-2.31575">
        <ele>12</ele>
        <time>2021-05-23T08:42:23.982Z</time>
      </trkpt>
      <trkpt lat="47.27583" lon="-2.31572">
        <ele>12</ele>
        <time>2021-05-23T08:42:24.982Z</time>
      </trkpt>
      <trkpt lat="47.27585" lon="-2.3157">
        <ele>11</ele>
        <time>2021-05-23T08:42:25.982Z</time>
      </trkpt>
      <trkpt lat="47.27586" lon="-2.31568">
        <ele>11</ele>
        <time>2021-05-23T08:42:26.982Z</time>
      </trkpt>
      <trkpt lat="47.27587" lon="-2.31565">
        <ele>11</ele>
        <time>2021-05-23T08:42:27.982Z</time>
      </trkpt>
      <trkpt lat="47.27589" lon="-2.31562">
        <ele>10</ele>
        <time>2021-05-23T08:42:28.982Z</time>
      </trkpt>
      <trkpt lat="47.2759" lon="-2.31559">
        <ele>10</ele>
        <time>2021-05-23T08:42:29.982Z</time>
      </trkpt>
      <trkpt lat="47.27591" lon="-2.31556">
        <ele>10</ele>
        <time>2021-05-23T08:42:30.982Z</time>
      </trkpt>
      <trkpt lat="47.27592" lon="-2.31553">
        <ele>10</ele>
        <time>2021-05-23T08:42:31.983Z</time>
      </trkpt>
      <trkpt lat="47.27592" lon="-2.31548">
        <ele>10</ele>
        <time>2021-05-23T08:42:32.982Z</time>
      </trkpt>
      <trkpt lat="47.27593" lon="-2.31545">
        <ele>10</ele>
        <time>2021-05-23T08:42:33.983Z</time>
      </trkpt>
      <trkpt lat="47.27594" lon="-2.31541">
        <ele>10</ele>
        <time>2021-05-23T08:42:34.983Z</time>
      </trkpt>
      <trkpt lat="47.27595" lon="-2.31538">
        <ele>10</ele>
        <time>2021-05-23T08:42:35.983Z</time>
      </trkpt>
      <trkpt lat="47.27595" lon="-2.31535">
        <ele>10</ele>
        <time>2021-05-23T08:42:36.983Z</time>
      </trkpt>
      <trkpt lat="47.27596" lon="-2.31531">
        <ele>10</ele>
        <time>2021-05-23T08:42:37.983Z</time>
      </trkpt>
      <trkpt lat="47.27597" lon="-2.31528">
        <ele>10</ele>
        <time>2021-05-23T08:42:38.983Z</time>
      </trkpt>
      <trkpt lat="47.27598" lon="-2.31524">
        <ele>10</ele>
        <time>2021-05-23T08:42:39.983Z</time>
      </trkpt>
      <trkpt lat="47.27599" lon="-2.3152">
        <ele>10</ele>
        <time>2021-05-23T08:42:40.983Z</time>
      </trkpt>
      <trkpt lat="47.276" lon="-2.31517">
        <ele>10</ele>
        <time>2021-05-23T08:42:41.982Z</time>
      </trkpt>
      <trkpt lat="47.27601" lon="-2.31513">
        <ele>10</ele>
        <time>2021-05-23T08:42:42.983Z</time>
      </trkpt>
      <trkpt lat="47.27602" lon="-2.31509">
        <ele>10</ele>
        <time>2021-05-23T08:42:43.983Z</time>
      </trkpt>
      <trkpt lat="47.27602" lon="-2.31507">
        <ele>10</ele>
        <time>2021-05-23T08:42:44.982Z</time>
      </trkpt>
      <trkpt lat="47.27603" lon="-2.31503">
        <ele>10</ele>
        <time>2021-05-23T08:42:45.983Z</time>
      </trkpt>
      <trkpt lat="47.27604" lon="-2.31499">
        <ele>10</ele>
        <time>2021-05-23T08:42:46.983Z</time>
      </trkpt>
      <trkpt lat="47.27604" lon="-2.31496">
        <ele>10</ele>
        <time>2021-05-23T08:42:47.983Z</time>
      </trkpt>
      <trkpt lat="47.27605" lon="-2.31492">
        <ele>10</ele>
        <time>2021-05-23T08:42:48.983Z</time>
      </trkpt>
      <trkpt lat="47.27605" lon="-2.31488">
        <ele>11</ele>
        <time>2021-05-23T08:42:49.983Z</time>
      </trkpt>
      <trkpt lat="47.27605" lon="-2.31485">
        <ele>11</ele>
        <time>2021-05-23T08:42:50.983Z</time>
      </trkpt>
      <trkpt lat="47.27607" lon="-2.31481">
        <ele>11</ele>
        <time>2021-05-23T08:42:51.983Z</time>
      </trkpt>
      <trkpt lat="47.27607" lon="-2.31477">
        <ele>11</ele>
        <time>2021-05-23T08:42:52.983Z</time>
      </trkpt>
      <trkpt lat="47.27608" lon="-2.31474">
        <ele>11</ele>
        <time>2021-05-23T08:42:53.983Z</time>
      </trkpt>
      <trkpt lat="47.27608" lon="-2.3147">
        <ele>11</ele>
        <time>2021-05-23T08:42:54.982Z</time>
      </trkpt>
      <trkpt lat="47.27608" lon="-2.31468">
        <ele>11</ele>
        <time>2021-05-23T08:42:55.983Z</time>
      </trkpt>
      <trkpt lat="47.27608" lon="-2.31464">
        <ele>11</ele>
        <time>2021-05-23T08:42:56.982Z</time>
      </trkpt>
      <trkpt lat="47.27609" lon="-2.31461">
        <ele>11</ele>
        <time>2021-05-23T08:42:57.982Z</time>
      </trkpt>
      <trkpt lat="47.2761" lon="-2.31458">
        <ele>11</ele>
        <time>2021-05-23T08:42:58.983Z</time>
      </trkpt>
      <trkpt lat="47.2761" lon="-2.31454">
        <ele>11</ele>
        <time>2021-05-23T08:42:59.983Z</time>
      </trkpt>
      <trkpt lat="47.2761" lon="-2.31451">
        <ele>11</ele>
        <time>2021-05-23T08:43:00.982Z</time>
      </trkpt>
      <trkpt lat="47.27611" lon="-2.31448">
        <ele>11</ele>
        <time>2021-05-23T08:43:01.983Z</time>
      </trkpt>
      <trkpt lat="47.27611" lon="-2.31445">
        <ele>11</ele>
        <time>2021-05-23T08:43:02.983Z</time>
      </trkpt>
      <trkpt lat="47.27612" lon="-2.31441">
        <ele>11</ele>
        <time>2021-05-23T08:43:03.983Z</time>
      </trkpt>
      <trkpt lat="47.27614" lon="-2.31437">
        <ele>11</ele>
        <time>2021-05-23T08:43:04.983Z</time>
      </trkpt>
      <trkpt lat="47.27615" lon="-2.31434">
        <ele>11</ele>
        <time>2021-05-23T08:43:05.983Z</time>
      </trkpt>
      <trkpt lat="47.27616" lon="-2.3143">
        <ele>11</ele>
        <time>2021-05-23T08:43:06.983Z</time>
      </trkpt>
      <trkpt lat="47.27618" lon="-2.31427">
        <ele>11</ele>
        <time>2021-05-23T08:43:07.983Z</time>
      </trkpt>
      <trkpt lat="47.27619" lon="-2.31424">
        <ele>11</ele>
        <time>2021-05-23T08:43:08.983Z</time>
      </trkpt>
      <trkpt lat="47.2762" lon="-2.31421">
        <ele>11</ele>
        <time>2021-05-23T08:43:09.982Z</time>
      </trkpt>
      <trkpt lat="47.27621" lon="-2.31416">
        <ele>12</ele>
        <time>2021-05-23T08:43:10.982Z</time>
      </trkpt>
      <trkpt lat="47.27621" lon="-2.31412">
        <ele>12</ele>
        <time>2021-05-23T08:43:11.983Z</time>
      </trkpt>
      <trkpt lat="47.27622" lon="-2.31409">
        <ele>12</ele>
        <time>2021-05-23T08:43:12.983Z</time>
      </trkpt>
      <trkpt lat="47.27623" lon="-2.31406">
        <ele>12</ele>
        <time>2021-05-23T08:43:13.983Z</time>
      </trkpt>
      <trkpt lat="47.27624" lon="-2.31403">
        <ele>12</ele>
        <time>2021-05-23T08:43:14.982Z</time>
      </trkpt>
      <trkpt lat="47.27625" lon="-2.31398">
        <ele>12</ele>
        <time>2021-05-23T08:43:15.983Z</time>
      </trkpt>
      <trkpt lat="47.27627" lon="-2.31395">
        <ele>12</ele>
        <time>2021-05-23T08:43:16.982Z</time>
      </trkpt>
      <trkpt lat="47.27628" lon="-2.31392">
        <ele>12</ele>
        <time>2021-05-23T08:43:17.982Z</time>
      </trkpt>
      <trkpt lat="47.27629" lon="-2.31388">
        <ele>12</ele>
        <time>2021-05-23T08:43:18.983Z</time>
      </trkpt>
      <trkpt lat="47.2763" lon="-2.31384">
        <ele>12</ele>
        <time>2021-05-23T08:43:19.983Z</time>
      </trkpt>
      <trkpt lat="47.27631" lon="-2.31382">
        <ele>11</ele>
        <time>2021-05-23T08:43:20.983Z</time>
      </trkpt>
      <trkpt lat="47.27632" lon="-2.31378">
        <ele>11</ele>
        <time>2021-05-23T08:43:21.982Z</time>
      </trkpt>
      <trkpt lat="47.27633" lon="-2.31375">
        <ele>11</ele>
        <time>2021-05-23T08:43:22.983Z</time>
      </trkpt>
      <trkpt lat="47.27634" lon="-2.31371">
        <ele>11</ele>
        <time>2021-05-23T08:43:23.983Z</time>
      </trkpt>
      <trkpt lat="47.27635" lon="-2.31368">
        <ele>10</ele>
        <time>2021-05-23T08:43:24.983Z</time>
      </trkpt>
      <trkpt lat="47.27637" lon="-2.31364">
        <ele>10</ele>
        <time>2021-05-23T08:43:25.983Z</time>
      </trkpt>
      <trkpt lat="47.27638" lon="-2.3136">
        <ele>10</ele>
        <time>2021-05-23T08:43:26.983Z</time>
      </trkpt>
      <trkpt lat="47.2764" lon="-2.31357">
        <ele>10</ele>
        <time>2021-05-23T08:43:27.983Z</time>
      </trkpt>
      <trkpt lat="47.27641" lon="-2.31352">
        <ele>10</ele>
        <time>2021-05-23T08:43:28.983Z</time>
      </trkpt>
      <trkpt lat="47.27643" lon="-2.31349">
        <ele>10</ele>
        <time>2021-05-23T08:43:29.982Z</time>
      </trkpt>
      <trkpt lat="47.27645" lon="-2.31344">
        <ele>11</ele>
        <time>2021-05-23T08:43:30.983Z</time>
      </trkpt>
      <trkpt lat="47.27646" lon="-2.31341">
        <ele>11</ele>
        <time>2021-05-23T08:43:31.983Z</time>
      </trkpt>
      <trkpt lat="47.27647" lon="-2.31338">
        <ele>11</ele>
        <time>2021-05-23T08:43:32.983Z</time>
      </trkpt>
      <trkpt lat="47.27649" lon="-2.31335">
        <ele>12</ele>
        <time>2021-05-23T08:43:33.983Z</time>
      </trkpt>
      <trkpt lat="47.2765" lon="-2.31331">
        <ele>12</ele>
        <time>2021-05-23T08:43:34.983Z</time>
      </trkpt>
      <trkpt lat="47.27651" lon="-2.31328">
        <ele>12</ele>
        <time>2021-05-23T08:43:35.983Z</time>
      </trkpt>
      <trkpt lat="47.27652" lon="-2.31325">
        <ele>11</ele>
        <time>2021-05-23T08:43:36.983Z</time>
      </trkpt>
      <trkpt lat="47.27653" lon="-2.31321">
        <ele>11</ele>
        <time>2021-05-23T08:43:37.983Z</time>
      </trkpt>
      <trkpt lat="47.27654" lon="-2.31318">
        <ele>11</ele>
        <time>2021-05-23T08:43:38.982Z</time>
      </trkpt>
      <trkpt lat="47.27655" lon="-2.31314">
        <ele>12</ele>
        <time>2021-05-23T08:43:39.983Z</time>
      </trkpt>
      <trkpt lat="47.27657" lon="-2.31311">
        <ele>12</ele>
        <time>2021-05-23T08:43:40.983Z</time>
      </trkpt>
      <trkpt lat="47.27658" lon="-2.31307">
        <ele>12</ele>
        <time>2021-05-23T08:43:41.983Z</time>
      </trkpt>
      <trkpt lat="47.27659" lon="-2.31304">
        <ele>13</ele>
        <time>2021-05-23T08:43:42.982Z</time>
      </trkpt>
      <trkpt lat="47.2766" lon="-2.313">
        <ele>13</ele>
        <time>2021-05-23T08:43:43.983Z</time>
      </trkpt>
      <trkpt lat="47.27661" lon="-2.31297">
        <ele>13</ele>
        <time>2021-05-23T08:43:44.983Z</time>
      </trkpt>
      <trkpt lat="47.27661" lon="-2.31293">
        <ele>13</ele>
        <time>2021-05-23T08:43:45.983Z</time>
      </trkpt>
      <trkpt lat="47.27662" lon="-2.3129">
        <ele>12</ele>
        <time>2021-05-23T08:43:46.983Z</time>
      </trkpt>
      <trkpt lat="47.27664" lon="-2.31287">
        <ele>12</ele>
        <time>2021-05-23T08:43:47.982Z</time>
      </trkpt>
      <trkpt lat="47.27665" lon="-2.31283">
        <ele>12</ele>
        <time>2021-05-23T08:43:48.983Z</time>
      </trkpt>
      <trkpt lat="47.27667" lon="-2.3128">
        <ele>12</ele>
        <time>2021-05-23T08:43:49.982Z</time>
      </trkpt>
      <trkpt lat="47.27668" lon="-2.31276">
        <ele>12</ele>
        <time>2021-05-23T08:43:50.983Z</time>
      </trkpt>
      <trkpt lat="47.27669" lon="-2.31273">
        <ele>12</ele>
        <time>2021-05-23T08:43:51.983Z</time>
      </trkpt>
      <trkpt lat="47.27671" lon="-2.3127">
        <ele>12</ele>
        <time>2021-05-23T08:43:52.982Z</time>
      </trkpt>
      <trkpt lat="47.27672" lon="-2.31266">
        <ele>12</ele>
        <time>2021-05-23T08:43:53.982Z</time>
      </trkpt>
      <trkpt lat="47.27673" lon="-2.31262">
        <ele>12</ele>
        <time>2021-05-23T08:43:54.982Z</time>
      </trkpt>
      <trkpt lat="47.27675" lon="-2.31259">
        <ele>11</ele>
        <time>2021-05-23T08:43:55.983Z</time>
      </trkpt>
      <trkpt lat="47.27676" lon="-2.31256">
        <ele>11</ele>
        <time>2021-05-23T08:43:56.983Z</time>
      </trkpt>
      <trkpt lat="47.27677" lon="-2.31252">
        <ele>11</ele>
        <time>2021-05-23T08:43:57.983Z</time>
      </trkpt>
      <trkpt lat="47.27678" lon="-2.31249">
        <ele>11</ele>
        <time>2021-05-23T08:43:58.983Z</time>
      </trkpt>
      <trkpt lat="47.27679" lon="-2.31245">
        <ele>11</ele>
        <time>2021-05-23T08:43:59.982Z</time>
      </trkpt>
      <trkpt lat="47.2768" lon="-2.31243">
        <ele>11</ele>
        <time>2021-05-23T08:44:00.983Z</time>
      </trkpt>
      <trkpt lat="47.27681" lon="-2.31239">
        <ele>12</ele>
        <time>2021-05-23T08:44:01.983Z</time>
      </trkpt>
      <trkpt lat="47.27682" lon="-2.31236">
        <ele>12</ele>
        <time>2021-05-23T08:44:02.983Z</time>
      </trkpt>
      <trkpt lat="47.27683" lon="-2.31233">
        <ele>12</ele>
        <time>2021-05-23T08:44:03.982Z</time>
      </trkpt>
      <trkpt lat="47.27684" lon="-2.31228">
        <ele>12</ele>
        <time>2021-05-23T08:44:04.982Z</time>
      </trkpt>
      <trkpt lat="47.27685" lon="-2.31225">
        <ele>12</ele>
        <time>2021-05-23T08:44:05.983Z</time>
      </trkpt>
      <trkpt lat="47.27685" lon="-2.31221">
        <ele>12</ele>
        <time>2021-05-23T08:44:06.983Z</time>
      </trkpt>
      <trkpt lat="47.27685" lon="-2.31217">
        <ele>13</ele>
        <time>2021-05-23T08:44:07.983Z</time>
      </trkpt>
      <trkpt lat="47.27685" lon="-2.31215">
        <ele>13</ele>
        <time>2021-05-23T08:44:08.982Z</time>
      </trkpt>
      <trkpt lat="47.27685" lon="-2.3121">
        <ele>13</ele>
        <time>2021-05-23T08:44:09.983Z</time>
      </trkpt>
      <trkpt lat="47.27686" lon="-2.31207">
        <ele>13</ele>
        <time>2021-05-23T08:44:10.983Z</time>
      </trkpt>
      <trkpt lat="47.27686" lon="-2.31204">
        <ele>14</ele>
        <time>2021-05-23T08:44:11.982Z</time>
      </trkpt>
      <trkpt lat="47.27687" lon="-2.31201">
        <ele>14</ele>
        <time>2021-05-23T08:44:12.983Z</time>
      </trkpt>
      <trkpt lat="47.27688" lon="-2.31197">
        <ele>14</ele>
        <time>2021-05-23T08:44:13.983Z</time>
      </trkpt>
      <trkpt lat="47.27688" lon="-2.31194">
        <ele>14</ele>
        <time>2021-05-23T08:44:14.982Z</time>
      </trkpt>
      <trkpt lat="47.27689" lon="-2.31191">
        <ele>14</ele>
        <time>2021-05-23T08:44:15.983Z</time>
      </trkpt>
      <trkpt lat="47.27689" lon="-2.31188">
        <ele>14</ele>
        <time>2021-05-23T08:44:16.983Z</time>
      </trkpt>
      <trkpt lat="47.2769" lon="-2.31185">
        <ele>14</ele>
        <time>2021-05-23T08:44:17.983Z</time>
      </trkpt>
      <trkpt lat="47.2769" lon="-2.31181">
        <ele>13</ele>
        <time>2021-05-23T08:44:18.982Z</time>
      </trkpt>
      <trkpt lat="47.27691" lon="-2.31179">
        <ele>13</ele>
        <time>2021-05-23T08:44:19.983Z</time>
      </trkpt>
      <trkpt lat="47.27693" lon="-2.31175">
        <ele>13</ele>
        <time>2021-05-23T08:44:20.982Z</time>
      </trkpt>
      <trkpt lat="47.27693" lon="-2.31172">
        <ele>13</ele>
        <time>2021-05-23T08:44:21.983Z</time>
      </trkpt>
      <trkpt lat="47.27694" lon="-2.31169">
        <ele>13</ele>
        <time>2021-05-23T08:44:22.983Z</time>
      </trkpt>
      <trkpt lat="47.27694" lon="-2.31166">
        <ele>13</ele>
        <time>2021-05-23T08:44:23.983Z</time>
      </trkpt>
      <trkpt lat="47.27695" lon="-2.31162">
        <ele>12</ele>
        <time>2021-05-23T08:44:24.982Z</time>
      </trkpt>
      <trkpt lat="47.27696" lon="-2.31158">
        <ele>12</ele>
        <time>2021-05-23T08:44:25.982Z</time>
      </trkpt>
      <trkpt lat="47.27697" lon="-2.31155">
        <ele>12</ele>
        <time>2021-05-23T08:44:26.983Z</time>
      </trkpt>
      <trkpt lat="47.27698" lon="-2.31152">
        <ele>12</ele>
        <time>2021-05-23T08:44:27.982Z</time>
      </trkpt>
      <trkpt lat="47.27699" lon="-2.31148">
        <ele>12</ele>
        <time>2021-05-23T08:44:28.983Z</time>
      </trkpt>
      <trkpt lat="47.277" lon="-2.31145">
        <ele>12</ele>
        <time>2021-05-23T08:44:29.982Z</time>
      </trkpt>
      <trkpt lat="47.27701" lon="-2.31141">
        <ele>12</ele>
        <time>2021-05-23T08:44:30.983Z</time>
      </trkpt>
      <trkpt lat="47.27702" lon="-2.31137">
        <ele>12</ele>
        <time>2021-05-23T08:44:31.983Z</time>
      </trkpt>
      <trkpt lat="47.27703" lon="-2.31135">
        <ele>13</ele>
        <time>2021-05-23T08:44:32.983Z</time>
      </trkpt>
      <trkpt lat="47.27704" lon="-2.31131">
        <ele>13</ele>
        <time>2021-05-23T08:44:33.982Z</time>
      </trkpt>
      <trkpt lat="47.27705" lon="-2.31127">
        <ele>14</ele>
        <time>2021-05-23T08:44:34.983Z</time>
      </trkpt>
      <trkpt lat="47.27706" lon="-2.31125">
        <ele>14</ele>
        <time>2021-05-23T08:44:35.983Z</time>
      </trkpt>
      <trkpt lat="47.27707" lon="-2.31121">
        <ele>14</ele>
        <time>2021-05-23T08:44:36.983Z</time>
      </trkpt>
      <trkpt lat="47.27707" lon="-2.31118">
        <ele>14</ele>
        <time>2021-05-23T08:44:37.982Z</time>
      </trkpt>
      <trkpt lat="47.27708" lon="-2.31115">
        <ele>14</ele>
        <time>2021-05-23T08:44:38.982Z</time>
      </trkpt>
      <trkpt lat="47.2771" lon="-2.31111">
        <ele>15</ele>
        <time>2021-05-23T08:44:39.983Z</time>
      </trkpt>
      <trkpt lat="47.27711" lon="-2.31107">
        <ele>15</ele>
        <time>2021-05-23T08:44:40.983Z</time>
      </trkpt>
      <trkpt lat="47.27712" lon="-2.31104">
        <ele>16</ele>
        <time>2021-05-23T08:44:41.983Z</time>
      </trkpt>
      <trkpt lat="47.27714" lon="-2.311">
        <ele>16</ele>
        <time>2021-05-23T08:44:42.983Z</time>
      </trkpt>
      <trkpt lat="47.27715" lon="-2.31097">
        <ele>16</ele>
        <time>2021-05-23T08:44:43.983Z</time>
      </trkpt>
      <trkpt lat="47.27716" lon="-2.31093">
        <ele>16</ele>
        <time>2021-05-23T08:44:44.983Z</time>
      </trkpt>
      <trkpt lat="47.27716" lon="-2.31089">
        <ele>16</ele>
        <time>2021-05-23T08:44:45.983Z</time>
      </trkpt>
      <trkpt lat="47.27717" lon="-2.31085">
        <ele>16</ele>
        <time>2021-05-23T08:44:46.983Z</time>
      </trkpt>
      <trkpt lat="47.27718" lon="-2.31082">
        <ele>16</ele>
        <time>2021-05-23T08:44:47.983Z</time>
      </trkpt>
      <trkpt lat="47.27718" lon="-2.31078">
        <ele>16</ele>
        <time>2021-05-23T08:44:48.982Z</time>
      </trkpt>
      <trkpt lat="47.27717" lon="-2.31075">
        <ele>16</ele>
        <time>2021-05-23T08:44:49.982Z</time>
      </trkpt>
      <trkpt lat="47.27716" lon="-2.31071">
        <ele>16</ele>
        <time>2021-05-23T08:44:50.983Z</time>
      </trkpt>
      <trkpt lat="47.27715" lon="-2.31068">
        <ele>16</ele>
        <time>2021-05-23T08:44:51.982Z</time>
      </trkpt>
      <trkpt lat="47.27713" lon="-2.31065">
        <ele>15</ele>
        <time>2021-05-23T08:44:52.983Z</time>
      </trkpt>
      <trkpt lat="47.27712" lon="-2.31062">
        <ele>15</ele>
        <time>2021-05-23T08:44:53.982Z</time>
      </trkpt>
      <trkpt lat="47.2771" lon="-2.31058">
        <ele>15</ele>
        <time>2021-05-23T08:44:54.983Z</time>
      </trkpt>
      <trkpt lat="47.27709" lon="-2.31055">
        <ele>15</ele>
        <time>2021-05-23T08:44:55.983Z</time>
      </trkpt>
      <trkpt lat="47.27708" lon="-2.31052">
        <ele>15</ele>
        <time>2021-05-23T08:44:56.983Z</time>
      </trkpt>
      <trkpt lat="47.27707" lon="-2.31049">
        <ele>14</ele>
        <time>2021-05-23T08:44:57.983Z</time>
      </trkpt>
      <trkpt lat="47.27705" lon="-2.31046">
        <ele>14</ele>
        <time>2021-05-23T08:44:58.983Z</time>
      </trkpt>
      <trkpt lat="47.27703" lon="-2.31043">
        <ele>14</ele>
        <time>2021-05-23T08:44:59.982Z</time>
      </trkpt>
      <trkpt lat="47.27702" lon="-2.3104">
        <ele>13</ele>
        <time>2021-05-23T08:45:00.982Z</time>
      </trkpt>
      <trkpt lat="47.277" lon="-2.31037">
        <ele>14</ele>
        <time>2021-05-23T08:45:01.982Z</time>
      </trkpt>
      <trkpt lat="47.27699" lon="-2.31034">
        <ele>13</ele>
        <time>2021-05-23T08:45:02.983Z</time>
      </trkpt>
      <trkpt lat="47.27698" lon="-2.31031">
        <ele>13</ele>
        <time>2021-05-23T08:45:03.983Z</time>
      </trkpt>
      <trkpt lat="47.27696" lon="-2.31028">
        <ele>13</ele>
        <time>2021-05-23T08:45:04.983Z</time>
      </trkpt>
      <trkpt lat="47.27694" lon="-2.31025">
        <ele>13</ele>
        <time>2021-05-23T08:45:05.983Z</time>
      </trkpt>
      <trkpt lat="47.27692" lon="-2.31021">
        <ele>13</ele>
        <time>2021-05-23T08:45:06.983Z</time>
      </trkpt>
      <trkpt lat="47.2769" lon="-2.31018">
        <ele>13</ele>
        <time>2021-05-23T08:45:07.983Z</time>
      </trkpt>
      <trkpt lat="47.27688" lon="-2.31014">
        <ele>13</ele>
        <time>2021-05-23T08:45:08.983Z</time>
      </trkpt>
      <trkpt lat="47.27687" lon="-2.31011">
        <ele>13</ele>
        <time>2021-05-23T08:45:09.983Z</time>
      </trkpt>
      <trkpt lat="47.27685" lon="-2.31008">
        <ele>13</ele>
        <time>2021-05-23T08:45:10.982Z</time>
      </trkpt>
      <trkpt lat="47.27683" lon="-2.31005">
        <ele>13</ele>
        <time>2021-05-23T08:45:11.983Z</time>
      </trkpt>
      <trkpt lat="47.27681" lon="-2.31002">
        <ele>13</ele>
        <time>2021-05-23T08:45:12.982Z</time>
      </trkpt>
      <trkpt lat="47.2768" lon="-2.31">
        <ele>13</ele>
        <time>2021-05-23T08:45:13.983Z</time>
      </trkpt>
      <trkpt lat="47.27678" lon="-2.30997">
        <ele>13</ele>
        <time>2021-05-23T08:45:14.983Z</time>
      </trkpt>
      <trkpt lat="47.27675" lon="-2.30994">
        <ele>13</ele>
        <time>2021-05-23T08:45:15.983Z</time>
      </trkpt>
      <trkpt lat="47.27673" lon="-2.30991">
        <ele>13</ele>
        <time>2021-05-23T08:45:16.982Z</time>
      </trkpt>
      <trkpt lat="47.27672" lon="-2.30988">
        <ele>14</ele>
        <time>2021-05-23T08:45:17.983Z</time>
      </trkpt>
      <trkpt lat="47.2767" lon="-2.30985">
        <ele>14</ele>
        <time>2021-05-23T08:45:18.983Z</time>
      </trkpt>
      <trkpt lat="47.2767" lon="-2.30981">
        <ele>13</ele>
        <time>2021-05-23T08:45:19.983Z</time>
      </trkpt>
      <trkpt lat="47.27669" lon="-2.30977">
        <ele>13</ele>
        <time>2021-05-23T08:45:20.983Z</time>
      </trkpt>
      <trkpt lat="47.27668" lon="-2.30974">
        <ele>13</ele>
        <time>2021-05-23T08:45:21.983Z</time>
      </trkpt>
      <trkpt lat="47.27666" lon="-2.3097">
        <ele>13</ele>
        <time>2021-05-23T08:45:22.983Z</time>
      </trkpt>
      <trkpt lat="47.27665" lon="-2.30967">
        <ele>14</ele>
        <time>2021-05-23T08:45:23.983Z</time>
      </trkpt>
      <trkpt lat="47.27664" lon="-2.30963">
        <ele>14</ele>
        <time>2021-05-23T08:45:24.983Z</time>
      </trkpt>
      <trkpt lat="47.27664" lon="-2.3096">
        <ele>14</ele>
        <time>2021-05-23T08:45:25.983Z</time>
      </trkpt>
      <trkpt lat="47.27663" lon="-2.30956">
        <ele>15</ele>
        <time>2021-05-23T08:45:26.983Z</time>
      </trkpt>
      <trkpt lat="47.27662" lon="-2.30952">
        <ele>15</ele>
        <time>2021-05-23T08:45:27.983Z</time>
      </trkpt>
      <trkpt lat="47.27661" lon="-2.30949">
        <ele>15</ele>
        <time>2021-05-23T08:45:28.983Z</time>
      </trkpt>
      <trkpt lat="47.27659" lon="-2.30945">
        <ele>15</ele>
        <time>2021-05-23T08:45:29.982Z</time>
      </trkpt>
      <trkpt lat="47.27658" lon="-2.30941">
        <ele>16</ele>
        <time>2021-05-23T08:45:30.983Z</time>
      </trkpt>
      <trkpt lat="47.27657" lon="-2.30937">
        <ele>16</ele>
        <time>2021-05-23T08:45:31.983Z</time>
      </trkpt>
      <trkpt lat="47.27656" lon="-2.30933">
        <ele>16</ele>
        <time>2021-05-23T08:45:32.983Z</time>
      </trkpt>
      <trkpt lat="47.27655" lon="-2.3093">
        <ele>17</ele>
        <time>2021-05-23T08:45:33.983Z</time>
      </trkpt>
      <trkpt lat="47.27653" lon="-2.30928">
        <ele>17</ele>
        <time>2021-05-23T08:45:34.983Z</time>
      </trkpt>
      <trkpt lat="47.27652" lon="-2.30926">
        <ele>17</ele>
        <time>2021-05-23T08:45:35.983Z</time>
      </trkpt>
      <trkpt lat="47.2765" lon="-2.30923">
        <ele>17</ele>
        <time>2021-05-23T08:45:36.983Z</time>
      </trkpt>
      <trkpt lat="47.27648" lon="-2.3092">
        <ele>16</ele>
        <time>2021-05-23T08:45:37.982Z</time>
      </trkpt>
      <trkpt lat="47.27646" lon="-2.30918">
        <ele>16</ele>
        <time>2021-05-23T08:45:38.982Z</time>
      </trkpt>
      <trkpt lat="47.27644" lon="-2.30915">
        <ele>16</ele>
        <time>2021-05-23T08:45:39.982Z</time>
      </trkpt>
      <trkpt lat="47.27642" lon="-2.30912">
        <ele>16</ele>
        <time>2021-05-23T08:45:40.983Z</time>
      </trkpt>
      <trkpt lat="47.27641" lon="-2.30908">
        <ele>16</ele>
        <time>2021-05-23T08:45:41.983Z</time>
      </trkpt>
      <trkpt lat="47.27639" lon="-2.30905">
        <ele>15</ele>
        <time>2021-05-23T08:45:42.982Z</time>
      </trkpt>
      <trkpt lat="47.27637" lon="-2.30902">
        <ele>15</ele>
        <time>2021-05-23T08:45:43.983Z</time>
      </trkpt>
      <trkpt lat="47.27637" lon="-2.30898">
        <ele>15</ele>
        <time>2021-05-23T08:45:44.983Z</time>
      </trkpt>
      <trkpt lat="47.27636" lon="-2.30895">
        <ele>15</ele>
        <time>2021-05-23T08:45:45.983Z</time>
      </trkpt>
      <trkpt lat="47.27634" lon="-2.30892">
        <ele>15</ele>
        <time>2021-05-23T08:45:46.983Z</time>
      </trkpt>
      <trkpt lat="47.27633" lon="-2.30889">
        <ele>15</ele>
        <time>2021-05-23T08:45:47.982Z</time>
      </trkpt>
      <trkpt lat="47.27632" lon="-2.30886">
        <ele>15</ele>
        <time>2021-05-23T08:45:48.983Z</time>
      </trkpt>
      <trkpt lat="47.27631" lon="-2.30883">
        <ele>16</ele>
        <time>2021-05-23T08:45:49.983Z</time>
      </trkpt>
      <trkpt lat="47.27629" lon="-2.3088">
        <ele>17</ele>
        <time>2021-05-23T08:45:50.983Z</time>
      </trkpt>
      <trkpt lat="47.27627" lon="-2.30877">
        <ele>17</ele>
        <time>2021-05-23T08:45:51.983Z</time>
      </trkpt>
      <trkpt lat="47.27624" lon="-2.30873">
        <ele>17</ele>
        <time>2021-05-23T08:45:52.982Z</time>
      </trkpt>
      <trkpt lat="47.27622" lon="-2.3087">
        <ele>17</ele>
        <time>2021-05-23T08:45:53.983Z</time>
      </trkpt>
      <trkpt lat="47.27621" lon="-2.30867">
        <ele>17</ele>
        <time>2021-05-23T08:45:54.982Z</time>
      </trkpt>
      <trkpt lat="47.2762" lon="-2.30863">
        <ele>18</ele>
        <time>2021-05-23T08:45:55.983Z</time>
      </trkpt>
      <trkpt lat="47.27619" lon="-2.3086">
        <ele>18</ele>
        <time>2021-05-23T08:45:56.983Z</time>
      </trkpt>
      <trkpt lat="47.27618" lon="-2.30857">
        <ele>18</ele>
        <time>2021-05-23T08:45:57.982Z</time>
      </trkpt>
      <trkpt lat="47.27616" lon="-2.30855">
        <ele>18</ele>
        <time>2021-05-23T08:45:58.983Z</time>
      </trkpt>
      <trkpt lat="47.27615" lon="-2.30852">
        <ele>17</ele>
        <time>2021-05-23T08:45:59.983Z</time>
      </trkpt>
      <trkpt lat="47.27613" lon="-2.3085">
        <ele>17</ele>
        <time>2021-05-23T08:46:00.982Z</time>
      </trkpt>
      <trkpt lat="47.27612" lon="-2.30847">
        <ele>16</ele>
        <time>2021-05-23T08:46:01.983Z</time>
      </trkpt>
      <trkpt lat="47.27611" lon="-2.30844">
        <ele>16</ele>
        <time>2021-05-23T08:46:02.983Z</time>
      </trkpt>
      <trkpt lat="47.2761" lon="-2.30841">
        <ele>16</ele>
        <time>2021-05-23T08:46:03.983Z</time>
      </trkpt>
      <trkpt lat="47.27609" lon="-2.30838">
        <ele>15</ele>
        <time>2021-05-23T08:46:04.983Z</time>
      </trkpt>
      <trkpt lat="47.27608" lon="-2.30835">
        <ele>15</ele>
        <time>2021-05-23T08:46:05.982Z</time>
      </trkpt>
      <trkpt lat="47.27607" lon="-2.30832">
        <ele>14</ele>
        <time>2021-05-23T08:46:06.983Z</time>
      </trkpt>
      <trkpt lat="47.27605" lon="-2.30829">
        <ele>14</ele>
        <time>2021-05-23T08:46:07.982Z</time>
      </trkpt>
      <trkpt lat="47.27605" lon="-2.30826">
        <ele>13</ele>
        <time>2021-05-23T08:46:08.982Z</time>
      </trkpt>
      <trkpt lat="47.27603" lon="-2.30822">
        <ele>13</ele>
        <time>2021-05-23T08:46:09.983Z</time>
      </trkpt>
      <trkpt lat="47.27601" lon="-2.30819">
        <ele>13</ele>
        <time>2021-05-23T08:46:10.983Z</time>
      </trkpt>
      <trkpt lat="47.27599" lon="-2.30817">
        <ele>13</ele>
        <time>2021-05-23T08:46:11.983Z</time>
      </trkpt>
      <trkpt lat="47.27597" lon="-2.30814">
        <ele>13</ele>
        <time>2021-05-23T08:46:12.982Z</time>
      </trkpt>
      <trkpt lat="47.27596" lon="-2.3081">
        <ele>13</ele>
        <time>2021-05-23T08:46:13.982Z</time>
      </trkpt>
      <trkpt lat="47.27596" lon="-2.30807">
        <ele>14</ele>
        <time>2021-05-23T08:46:14.982Z</time>
      </trkpt>
      <trkpt lat="47.27594" lon="-2.30805">
        <ele>14</ele>
        <time>2021-05-23T08:46:15.983Z</time>
      </trkpt>
      <trkpt lat="47.27594" lon="-2.30803">
        <ele>15</ele>
        <time>2021-05-23T08:46:16.983Z</time>
      </trkpt>
      <trkpt lat="47.27593" lon="-2.308">
        <ele>15</ele>
        <time>2021-05-23T08:46:17.982Z</time>
      </trkpt>
      <trkpt lat="47.27591" lon="-2.30796">
        <ele>16</ele>
        <time>2021-05-23T08:46:18.982Z</time>
      </trkpt>
      <trkpt lat="47.27589" lon="-2.30791">
        <ele>16</ele>
        <time>2021-05-23T08:46:19.983Z</time>
      </trkpt>
      <trkpt lat="47.27588" lon="-2.30787">
        <ele>16</ele>
        <time>2021-05-23T08:46:20.983Z</time>
      </trkpt>
      <trkpt lat="47.27586" lon="-2.30784">
        <ele>17</ele>
        <time>2021-05-23T08:46:21.982Z</time>
      </trkpt>
      <trkpt lat="47.27585" lon="-2.30781">
        <ele>17</ele>
        <time>2021-05-23T08:46:22.983Z</time>
      </trkpt>
      <trkpt lat="47.27584" lon="-2.30779">
        <ele>17</ele>
        <time>2021-05-23T08:46:23.983Z</time>
      </trkpt>
      <trkpt lat="47.27582" lon="-2.30775">
        <ele>17</ele>
        <time>2021-05-23T08:46:24.982Z</time>
      </trkpt>
      <trkpt lat="47.27581" lon="-2.30772">
        <ele>17</ele>
        <time>2021-05-23T08:46:25.983Z</time>
      </trkpt>
      <trkpt lat="47.27581" lon="-2.30769">
        <ele>18</ele>
        <time>2021-05-23T08:46:26.982Z</time>
      </trkpt>
      <trkpt lat="47.27579" lon="-2.30766">
        <ele>18</ele>
        <time>2021-05-23T08:46:27.983Z</time>
      </trkpt>
      <trkpt lat="47.27578" lon="-2.30763">
        <ele>19</ele>
        <time>2021-05-23T08:46:28.983Z</time>
      </trkpt>
      <trkpt lat="47.27577" lon="-2.3076">
        <ele>19</ele>
        <time>2021-05-23T08:46:29.983Z</time>
      </trkpt>
      <trkpt lat="47.27576" lon="-2.30757">
        <ele>19</ele>
        <time>2021-05-23T08:46:30.982Z</time>
      </trkpt>
      <trkpt lat="47.27576" lon="-2.30754">
        <ele>19</ele>
        <time>2021-05-23T08:46:31.983Z</time>
      </trkpt>
      <trkpt lat="47.27575" lon="-2.30751">
        <ele>20</ele>
        <time>2021-05-23T08:46:32.982Z</time>
      </trkpt>
      <trkpt lat="47.27574" lon="-2.30747">
        <ele>20</ele>
        <time>2021-05-23T08:46:33.982Z</time>
      </trkpt>
      <trkpt lat="47.27574" lon="-2.30743">
        <ele>20</ele>
        <time>2021-05-23T08:46:34.982Z</time>
      </trkpt>
      <trkpt lat="47.27573" lon="-2.3074">
        <ele>20</ele>
        <time>2021-05-23T08:46:35.982Z</time>
      </trkpt>
      <trkpt lat="47.27571" lon="-2.30736">
        <ele>20</ele>
        <time>2021-05-23T08:46:36.983Z</time>
      </trkpt>
      <trkpt lat="47.2757" lon="-2.30732">
        <ele>20</ele>
        <time>2021-05-23T08:46:37.982Z</time>
      </trkpt>
      <trkpt lat="47.27569" lon="-2.30729">
        <ele>20</ele>
        <time>2021-05-23T08:46:38.982Z</time>
      </trkpt>
      <trkpt lat="47.27568" lon="-2.30726">
        <ele>20</ele>
        <time>2021-05-23T08:46:39.982Z</time>
      </trkpt>
      <trkpt lat="47.27567" lon="-2.30722">
        <ele>20</ele>
        <time>2021-05-23T08:46:40.982Z</time>
      </trkpt>
      <trkpt lat="47.27567" lon="-2.30719">
        <ele>20</ele>
        <time>2021-05-23T08:46:41.982Z</time>
      </trkpt>
      <trkpt lat="47.27566" lon="-2.30715">
        <ele>21</ele>
        <time>2021-05-23T08:46:42.982Z</time>
      </trkpt>
      <trkpt lat="47.27565" lon="-2.30711">
        <ele>21</ele>
        <time>2021-05-23T08:46:43.982Z</time>
      </trkpt>
      <trkpt lat="47.27564" lon="-2.30706">
        <ele>21</ele>
        <time>2021-05-23T08:46:44.982Z</time>
      </trkpt>
      <trkpt lat="47.27563" lon="-2.30703">
        <ele>21</ele>
        <time>2021-05-23T08:46:45.982Z</time>
      </trkpt>
      <trkpt lat="47.27561" lon="-2.30698">
        <ele>21</ele>
        <time>2021-05-23T08:46:46.982Z</time>
      </trkpt>
      <trkpt lat="47.27561" lon="-2.30694">
        <ele>21</ele>
        <time>2021-05-23T08:46:47.982Z</time>
      </trkpt>
      <trkpt lat="47.2756" lon="-2.3069">
        <ele>21</ele>
        <time>2021-05-23T08:46:48.983Z</time>
      </trkpt>
      <trkpt lat="47.2756" lon="-2.30687">
        <ele>21</ele>
        <time>2021-05-23T08:46:49.982Z</time>
      </trkpt>
      <trkpt lat="47.2756" lon="-2.30684">
        <ele>21</ele>
        <time>2021-05-23T08:46:50.983Z</time>
      </trkpt>
      <trkpt lat="47.2756" lon="-2.3068">
        <ele>21</ele>
        <time>2021-05-23T08:46:51.982Z</time>
      </trkpt>
      <trkpt lat="47.27559" lon="-2.30677">
        <ele>21</ele>
        <time>2021-05-23T08:46:52.982Z</time>
      </trkpt>
      <trkpt lat="47.27559" lon="-2.30674">
        <ele>20</ele>
        <time>2021-05-23T08:46:53.982Z</time>
      </trkpt>
      <trkpt lat="47.27558" lon="-2.30671">
        <ele>20</ele>
        <time>2021-05-23T08:46:54.982Z</time>
      </trkpt>
      <trkpt lat="47.27557" lon="-2.30666">
        <ele>20</ele>
        <time>2021-05-23T08:46:55.983Z</time>
      </trkpt>
      <trkpt lat="47.27556" lon="-2.30662">
        <ele>19</ele>
        <time>2021-05-23T08:46:56.982Z</time>
      </trkpt>
      <trkpt lat="47.27554" lon="-2.30659">
        <ele>19</ele>
        <time>2021-05-23T08:46:57.982Z</time>
      </trkpt>
      <trkpt lat="47.27553" lon="-2.30655">
        <ele>18</ele>
        <time>2021-05-23T08:46:58.983Z</time>
      </trkpt>
      <trkpt lat="47.27553" lon="-2.30651">
        <ele>18</ele>
        <time>2021-05-23T08:46:59.983Z</time>
      </trkpt>
      <trkpt lat="47.27552" lon="-2.30647">
        <ele>18</ele>
        <time>2021-05-23T08:47:00.982Z</time>
      </trkpt>
      <trkpt lat="47.27551" lon="-2.30643">
        <ele>18</ele>
        <time>2021-05-23T08:47:01.983Z</time>
      </trkpt>
      <trkpt lat="47.27551" lon="-2.30639">
        <ele>18</ele>
        <time>2021-05-23T08:47:02.983Z</time>
      </trkpt>
      <trkpt lat="47.2755" lon="-2.30635">
        <ele>17</ele>
        <time>2021-05-23T08:47:03.983Z</time>
      </trkpt>
      <trkpt lat="47.27549" lon="-2.30632">
        <ele>17</ele>
        <time>2021-05-23T08:47:04.983Z</time>
      </trkpt>
      <trkpt lat="47.27547" lon="-2.30628">
        <ele>17</ele>
        <time>2021-05-23T08:47:05.983Z</time>
      </trkpt>
      <trkpt lat="47.27546" lon="-2.30625">
        <ele>16</ele>
        <time>2021-05-23T08:47:06.982Z</time>
      </trkpt>
      <trkpt lat="47.27545" lon="-2.30622">
        <ele>16</ele>
        <time>2021-05-23T08:47:07.982Z</time>
      </trkpt>
      <trkpt lat="47.27544" lon="-2.30619">
        <ele>16</ele>
        <time>2021-05-23T08:47:08.983Z</time>
      </trkpt>
      <trkpt lat="47.27543" lon="-2.30616">
        <ele>16</ele>
        <time>2021-05-23T08:47:09.983Z</time>
      </trkpt>
      <trkpt lat="47.27542" lon="-2.30612">
        <ele>16</ele>
        <time>2021-05-23T08:47:10.983Z</time>
      </trkpt>
      <trkpt lat="47.27542" lon="-2.30608">
        <ele>16</ele>
        <time>2021-05-23T08:47:11.983Z</time>
      </trkpt>
      <trkpt lat="47.27543" lon="-2.30604">
        <ele>16</ele>
        <time>2021-05-23T08:47:12.982Z</time>
      </trkpt>
      <trkpt lat="47.27543" lon="-2.30599">
        <ele>16</ele>
        <time>2021-05-23T08:47:13.983Z</time>
      </trkpt>
      <trkpt lat="47.27542" lon="-2.30596">
        <ele>16</ele>
        <time>2021-05-23T08:47:14.983Z</time>
      </trkpt>
      <trkpt lat="47.27541" lon="-2.30592">
        <ele>16</ele>
        <time>2021-05-23T08:47:15.982Z</time>
      </trkpt>
      <trkpt lat="47.2754" lon="-2.30588">
        <ele>16</ele>
        <time>2021-05-23T08:47:16.983Z</time>
      </trkpt>
      <trkpt lat="47.2754" lon="-2.30584">
        <ele>17</ele>
        <time>2021-05-23T08:47:17.983Z</time>
      </trkpt>
      <trkpt lat="47.27538" lon="-2.3058">
        <ele>17</ele>
        <time>2021-05-23T08:47:18.983Z</time>
      </trkpt>
      <trkpt lat="47.27537" lon="-2.30576">
        <ele>17</ele>
        <time>2021-05-23T08:47:19.983Z</time>
      </trkpt>
      <trkpt lat="47.27536" lon="-2.30573">
        <ele>16</ele>
        <time>2021-05-23T08:47:20.983Z</time>
      </trkpt>
      <trkpt lat="47.27535" lon="-2.30569">
        <ele>16</ele>
        <time>2021-05-23T08:47:21.983Z</time>
      </trkpt>
      <trkpt lat="47.27534" lon="-2.30565">
        <ele>16</ele>
        <time>2021-05-23T08:47:22.983Z</time>
      </trkpt>
      <trkpt lat="47.27533" lon="-2.30562">
        <ele>16</ele>
        <time>2021-05-23T08:47:23.983Z</time>
      </trkpt>
      <trkpt lat="47.27532" lon="-2.30558">
        <ele>17</ele>
        <time>2021-05-23T08:47:24.983Z</time>
      </trkpt>
      <trkpt lat="47.27531" lon="-2.30555">
        <ele>17</ele>
        <time>2021-05-23T08:47:25.983Z</time>
      </trkpt>
      <trkpt lat="47.27531" lon="-2.30552">
        <ele>17</ele>
        <time>2021-05-23T08:47:26.982Z</time>
      </trkpt>
      <trkpt lat="47.2753" lon="-2.30548">
        <ele>18</ele>
        <time>2021-05-23T08:47:27.983Z</time>
      </trkpt>
      <trkpt lat="47.27529" lon="-2.30545">
        <ele>18</ele>
        <time>2021-05-23T08:47:28.982Z</time>
      </trkpt>
      <trkpt lat="47.27528" lon="-2.30542">
        <ele>18</ele>
        <time>2021-05-23T08:47:29.983Z</time>
      </trkpt>
      <trkpt lat="47.27527" lon="-2.30539">
        <ele>18</ele>
        <time>2021-05-23T08:47:30.982Z</time>
      </trkpt>
      <trkpt lat="47.27526" lon="-2.30535">
        <ele>18</ele>
        <time>2021-05-23T08:47:31.983Z</time>
      </trkpt>
      <trkpt lat="47.27525" lon="-2.30531">
        <ele>18</ele>
        <time>2021-05-23T08:47:32.983Z</time>
      </trkpt>
      <trkpt lat="47.27525" lon="-2.30527">
        <ele>18</ele>
        <time>2021-05-23T08:47:33.982Z</time>
      </trkpt>
      <trkpt lat="47.27525" lon="-2.30524">
        <ele>18</ele>
        <time>2021-05-23T08:47:34.983Z</time>
      </trkpt>
      <trkpt lat="47.27524" lon="-2.3052">
        <ele>19</ele>
        <time>2021-05-23T08:47:35.983Z</time>
      </trkpt>
      <trkpt lat="47.27523" lon="-2.30516">
        <ele>19</ele>
        <time>2021-05-23T08:47:36.983Z</time>
      </trkpt>
      <trkpt lat="47.27522" lon="-2.30513">
        <ele>19</ele>
        <time>2021-05-23T08:47:37.983Z</time>
      </trkpt>
      <trkpt lat="47.27521" lon="-2.3051">
        <ele>19</ele>
        <time>2021-05-23T08:47:38.983Z</time>
      </trkpt>
      <trkpt lat="47.2752" lon="-2.30508">
        <ele>19</ele>
        <time>2021-05-23T08:47:39.983Z</time>
      </trkpt>
      <trkpt lat="47.27519" lon="-2.30504">
        <ele>19</ele>
        <time>2021-05-23T08:47:40.983Z</time>
      </trkpt>
      <trkpt lat="47.27519" lon="-2.30501">
        <ele>19</ele>
        <time>2021-05-23T08:47:41.983Z</time>
      </trkpt>
      <trkpt lat="47.27518" lon="-2.30498">
        <ele>19</ele>
        <time>2021-05-23T08:47:42.983Z</time>
      </trkpt>
      <trkpt lat="47.27517" lon="-2.30494">
        <ele>19</ele>
        <time>2021-05-23T08:47:43.982Z</time>
      </trkpt>
      <trkpt lat="47.27516" lon="-2.30491">
        <ele>19</ele>
        <time>2021-05-23T08:47:44.982Z</time>
      </trkpt>
      <trkpt lat="47.27515" lon="-2.30488">
        <ele>19</ele>
        <time>2021-05-23T08:47:45.982Z</time>
      </trkpt>
      <trkpt lat="47.27514" lon="-2.30484">
        <ele>19</ele>
        <time>2021-05-23T08:47:46.983Z</time>
      </trkpt>
      <trkpt lat="47.27512" lon="-2.30481">
        <ele>19</ele>
        <time>2021-05-23T08:47:47.983Z</time>
      </trkpt>
      <trkpt lat="47.27511" lon="-2.30477">
        <ele>19</ele>
        <time>2021-05-23T08:47:48.982Z</time>
      </trkpt>
      <trkpt lat="47.2751" lon="-2.30473">
        <ele>19</ele>
        <time>2021-05-23T08:47:49.983Z</time>
      </trkpt>
      <trkpt lat="47.27509" lon="-2.30469">
        <ele>20</ele>
        <time>2021-05-23T08:47:50.983Z</time>
      </trkpt>
      <trkpt lat="47.27509" lon="-2.30465">
        <ele>20</ele>
        <time>2021-05-23T08:47:51.983Z</time>
      </trkpt>
      <trkpt lat="47.27508" lon="-2.30463">
        <ele>20</ele>
        <time>2021-05-23T08:47:52.983Z</time>
      </trkpt>
      <trkpt lat="47.27507" lon="-2.3046">
        <ele>21</ele>
        <time>2021-05-23T08:47:53.982Z</time>
      </trkpt>
      <trkpt lat="47.27506" lon="-2.30456">
        <ele>21</ele>
        <time>2021-05-23T08:47:54.982Z</time>
      </trkpt>
      <trkpt lat="47.27506" lon="-2.30453">
        <ele>21</ele>
        <time>2021-05-23T08:47:55.983Z</time>
      </trkpt>
      <trkpt lat="47.27505" lon="-2.30449">
        <ele>20</ele>
        <time>2021-05-23T08:47:56.983Z</time>
      </trkpt>
      <trkpt lat="47.27503" lon="-2.30445">
        <ele>20</ele>
        <time>2021-05-23T08:47:57.983Z</time>
      </trkpt>
      <trkpt lat="47.27503" lon="-2.30441">
        <ele>19</ele>
        <time>2021-05-23T08:47:58.983Z</time>
      </trkpt>
      <trkpt lat="47.27502" lon="-2.30437">
        <ele>19</ele>
        <time>2021-05-23T08:47:59.982Z</time>
      </trkpt>
      <trkpt lat="47.27501" lon="-2.30433">
        <ele>18</ele>
        <time>2021-05-23T08:48:00.983Z</time>
      </trkpt>
      <trkpt lat="47.27501" lon="-2.30429">
        <ele>18</ele>
        <time>2021-05-23T08:48:01.983Z</time>
      </trkpt>
      <trkpt lat="47.275" lon="-2.30424">
        <ele>18</ele>
        <time>2021-05-23T08:48:02.982Z</time>
      </trkpt>
      <trkpt lat="47.275" lon="-2.3042">
        <ele>18</ele>
        <time>2021-05-23T08:48:03.982Z</time>
      </trkpt>
      <trkpt lat="47.27499" lon="-2.30416">
        <ele>18</ele>
        <time>2021-05-23T08:48:04.983Z</time>
      </trkpt>
      <trkpt lat="47.27498" lon="-2.30412">
        <ele>18</ele>
        <time>2021-05-23T08:48:05.983Z</time>
      </trkpt>
      <trkpt lat="47.27498" lon="-2.30408">
        <ele>18</ele>
        <time>2021-05-23T08:48:06.983Z</time>
      </trkpt>
      <trkpt lat="47.27498" lon="-2.30404">
        <ele>18</ele>
        <time>2021-05-23T08:48:07.983Z</time>
      </trkpt>
      <trkpt lat="47.27497" lon="-2.30401">
        <ele>19</ele>
        <time>2021-05-23T08:48:08.983Z</time>
      </trkpt>
      <trkpt lat="47.27497" lon="-2.30397">
        <ele>19</ele>
        <time>2021-05-23T08:48:09.983Z</time>
      </trkpt>
      <trkpt lat="47.27496" lon="-2.30393">
        <ele>19</ele>
        <time>2021-05-23T08:48:10.983Z</time>
      </trkpt>
      <trkpt lat="47.27495" lon="-2.3039">
        <ele>19</ele>
        <time>2021-05-23T08:48:11.983Z</time>
      </trkpt>
      <trkpt lat="47.27494" lon="-2.30386">
        <ele>19</ele>
        <time>2021-05-23T08:48:12.983Z</time>
      </trkpt>
      <trkpt lat="47.27493" lon="-2.30382">
        <ele>19</ele>
        <time>2021-05-23T08:48:13.982Z</time>
      </trkpt>
      <trkpt lat="47.27492" lon="-2.30379">
        <ele>19</ele>
        <time>2021-05-23T08:48:14.983Z</time>
      </trkpt>
      <trkpt lat="47.27492" lon="-2.30375">
        <ele>19</ele>
        <time>2021-05-23T08:48:15.983Z</time>
      </trkpt>
      <trkpt lat="47.27491" lon="-2.30371">
        <ele>18</ele>
        <time>2021-05-23T08:48:16.983Z</time>
      </trkpt>
      <trkpt lat="47.2749" lon="-2.30369">
        <ele>19</ele>
        <time>2021-05-23T08:48:17.983Z</time>
      </trkpt>
      <trkpt lat="47.27488" lon="-2.30365">
        <ele>19</ele>
        <time>2021-05-23T08:48:18.983Z</time>
      </trkpt>
      <trkpt lat="47.27487" lon="-2.30362">
        <ele>19</ele>
        <time>2021-05-23T08:48:19.983Z</time>
      </trkpt>
      <trkpt lat="47.27486" lon="-2.30358">
        <ele>19</ele>
        <time>2021-05-23T08:48:20.983Z</time>
      </trkpt>
      <trkpt lat="47.27486" lon="-2.30356">
        <ele>19</ele>
        <time>2021-05-23T08:48:21.983Z</time>
      </trkpt>
      <trkpt lat="47.27485" lon="-2.30352">
        <ele>19</ele>
        <time>2021-05-23T08:48:22.982Z</time>
      </trkpt>
      <trkpt lat="47.27484" lon="-2.30348">
        <ele>19</ele>
        <time>2021-05-23T08:48:23.982Z</time>
      </trkpt>
      <trkpt lat="47.27483" lon="-2.30345">
        <ele>19</ele>
        <time>2021-05-23T08:48:24.983Z</time>
      </trkpt>
      <trkpt lat="47.27483" lon="-2.30342">
        <ele>19</ele>
        <time>2021-05-23T08:48:25.983Z</time>
      </trkpt>
      <trkpt lat="47.27483" lon="-2.30339">
        <ele>20</ele>
        <time>2021-05-23T08:48:26.982Z</time>
      </trkpt>
      <trkpt lat="47.27482" lon="-2.30336">
        <ele>20</ele>
        <time>2021-05-23T08:48:27.983Z</time>
      </trkpt>
      <trkpt lat="47.27482" lon="-2.30333">
        <ele>20</ele>
        <time>2021-05-23T08:48:28.983Z</time>
      </trkpt>
      <trkpt lat="47.27483" lon="-2.30329">
        <ele>20</ele>
        <time>2021-05-23T08:48:29.983Z</time>
      </trkpt>
      <trkpt lat="47.27481" lon="-2.30325">
        <ele>20</ele>
        <time>2021-05-23T08:48:30.983Z</time>
      </trkpt>
      <trkpt lat="47.2748" lon="-2.30322">
        <ele>20</ele>
        <time>2021-05-23T08:48:31.983Z</time>
      </trkpt>
      <trkpt lat="47.27478" lon="-2.30317">
        <ele>20</ele>
        <time>2021-05-23T08:48:32.983Z</time>
      </trkpt>
      <trkpt lat="47.27478" lon="-2.30314">
        <ele>21</ele>
        <time>2021-05-23T08:48:33.983Z</time>
      </trkpt>
      <trkpt lat="47.27477" lon="-2.3031">
        <ele>21</ele>
        <time>2021-05-23T08:48:34.983Z</time>
      </trkpt>
      <trkpt lat="47.27476" lon="-2.30307">
        <ele>21</ele>
        <time>2021-05-23T08:48:35.983Z</time>
      </trkpt>
      <trkpt lat="47.27475" lon="-2.30304">
        <ele>21</ele>
        <time>2021-05-23T08:48:36.982Z</time>
      </trkpt>
      <trkpt lat="47.27473" lon="-2.303">
        <ele>21</ele>
        <time>2021-05-23T08:48:37.982Z</time>
      </trkpt>
      <trkpt lat="47.27473" lon="-2.30297">
        <ele>22</ele>
        <time>2021-05-23T08:48:38.983Z</time>
      </trkpt>
      <trkpt lat="47.27472" lon="-2.30293">
        <ele>22</ele>
        <time>2021-05-23T08:48:39.982Z</time>
      </trkpt>
      <trkpt lat="47.27472" lon="-2.30289">
        <ele>22</ele>
        <time>2021-05-23T08:48:40.983Z</time>
      </trkpt>
      <trkpt lat="47.27471" lon="-2.30286">
        <ele>21</ele>
        <time>2021-05-23T08:48:41.982Z</time>
      </trkpt>
      <trkpt lat="47.2747" lon="-2.30282">
        <ele>21</ele>
        <time>2021-05-23T08:48:42.983Z</time>
      </trkpt>
      <trkpt lat="47.2747" lon="-2.30279">
        <ele>21</ele>
        <time>2021-05-23T08:48:43.983Z</time>
      </trkpt>
      <trkpt lat="47.27469" lon="-2.30275">
        <ele>21</ele>
        <time>2021-05-23T08:48:44.983Z</time>
      </trkpt>
      <trkpt lat="47.27468" lon="-2.30271">
        <ele>22</ele>
        <time>2021-05-23T08:48:45.983Z</time>
      </trkpt>
      <trkpt lat="47.27468" lon="-2.30267">
        <ele>22</ele>
        <time>2021-05-23T08:48:46.983Z</time>
      </trkpt>
      <trkpt lat="47.27467" lon="-2.30263">
        <ele>22</ele>
        <time>2021-05-23T08:48:47.983Z</time>
      </trkpt>
      <trkpt lat="47.27465" lon="-2.3026">
        <ele>23</ele>
        <time>2021-05-23T08:48:48.983Z</time>
      </trkpt>
      <trkpt lat="47.27465" lon="-2.30258">
        <ele>23</ele>
        <time>2021-05-23T08:48:49.982Z</time>
      </trkpt>
      <trkpt lat="47.27464" lon="-2.30255">
        <ele>23</ele>
        <time>2021-05-23T08:48:50.982Z</time>
      </trkpt>
      <trkpt lat="47.27463" lon="-2.30252">
        <ele>23</ele>
        <time>2021-05-23T08:48:51.983Z</time>
      </trkpt>
      <trkpt lat="47.27462" lon="-2.30249">
        <ele>23</ele>
        <time>2021-05-23T08:48:52.983Z</time>
      </trkpt>
      <trkpt lat="47.27461" lon="-2.30246">
        <ele>22</ele>
        <time>2021-05-23T08:48:53.983Z</time>
      </trkpt>
      <trkpt lat="47.2746" lon="-2.30243">
        <ele>22</ele>
        <time>2021-05-23T08:48:54.982Z</time>
      </trkpt>
      <trkpt lat="47.2746" lon="-2.3024">
        <ele>22</ele>
        <time>2021-05-23T08:48:55.983Z</time>
      </trkpt>
      <trkpt lat="47.27459" lon="-2.30238">
        <ele>22</ele>
        <time>2021-05-23T08:48:56.982Z</time>
      </trkpt>
      <trkpt lat="47.27458" lon="-2.30235">
        <ele>22</ele>
        <time>2021-05-23T08:48:57.983Z</time>
      </trkpt>
      <trkpt lat="47.27458" lon="-2.30232">
        <ele>22</ele>
        <time>2021-05-23T08:48:58.982Z</time>
      </trkpt>
      <trkpt lat="47.27458" lon="-2.30229">
        <ele>22</ele>
        <time>2021-05-23T08:48:59.983Z</time>
      </trkpt>
      <trkpt lat="47.27457" lon="-2.30226">
        <ele>22</ele>
        <time>2021-05-23T08:49:00.982Z</time>
      </trkpt>
      <trkpt lat="47.27457" lon="-2.30224">
        <ele>22</ele>
        <time>2021-05-23T08:49:01.983Z</time>
      </trkpt>
      <trkpt lat="47.27457" lon="-2.30221">
        <ele>22</ele>
        <time>2021-05-23T08:49:02.982Z</time>
      </trkpt>
      <trkpt lat="47.27458" lon="-2.3022">
        <ele>22</ele>
        <time>2021-05-23T08:49:03.983Z</time>
      </trkpt>
      <trkpt lat="47.27459" lon="-2.3022">
        <ele>22</ele>
        <time>2021-05-23T08:49:04.983Z</time>
      </trkpt>
      <trkpt lat="47.2746" lon="-2.30219">
        <ele>22</ele>
        <time>2021-05-23T08:49:05.983Z</time>
      </trkpt>
      <trkpt lat="47.27462" lon="-2.30218">
        <ele>22</ele>
        <time>2021-05-23T08:49:06.983Z</time>
      </trkpt>
      <trkpt lat="47.27464" lon="-2.30217">
        <ele>22</ele>
        <time>2021-05-23T08:49:07.982Z</time>
      </trkpt>
      <trkpt lat="47.27466" lon="-2.30216">
        <ele>22</ele>
        <time>2021-05-23T08:49:08.982Z</time>
      </trkpt>
      <trkpt lat="47.27468" lon="-2.30215">
        <ele>22</ele>
        <time>2021-05-23T08:49:09.983Z</time>
      </trkpt>
      <trkpt lat="47.2747" lon="-2.30214">
        <ele>23</ele>
        <time>2021-05-23T08:49:10.983Z</time>
      </trkpt>
      <trkpt lat="47.27472" lon="-2.30213">
        <ele>23</ele>
        <time>2021-05-23T08:49:11.982Z</time>
      </trkpt>
      <trkpt lat="47.27475" lon="-2.30213">
        <ele>23</ele>
        <time>2021-05-23T08:49:12.983Z</time>
      </trkpt>
      <trkpt lat="47.27478" lon="-2.30212">
        <ele>23</ele>
        <time>2021-05-23T08:49:13.983Z</time>
      </trkpt>
      <trkpt lat="47.2748" lon="-2.30211">
        <ele>23</ele>
        <time>2021-05-23T08:49:14.983Z</time>
      </trkpt>
      <trkpt lat="47.27483" lon="-2.3021">
        <ele>23</ele>
        <time>2021-05-23T08:49:15.982Z</time>
      </trkpt>
      <trkpt lat="47.27486" lon="-2.30209">
        <ele>24</ele>
        <time>2021-05-23T08:49:16.983Z</time>
      </trkpt>
      <trkpt lat="47.27488" lon="-2.30208">
        <ele>24</ele>
        <time>2021-05-23T08:49:17.982Z</time>
      </trkpt>
      <trkpt lat="47.27492" lon="-2.30207">
        <ele>25</ele>
        <time>2021-05-23T08:49:18.983Z</time>
      </trkpt>
      <trkpt lat="47.27495" lon="-2.30205">
        <ele>25</ele>
        <time>2021-05-23T08:49:19.982Z</time>
      </trkpt>
      <trkpt lat="47.27498" lon="-2.30203">
        <ele>26</ele>
        <time>2021-05-23T08:49:20.982Z</time>
      </trkpt>
      <trkpt lat="47.27501" lon="-2.30202">
        <ele>27</ele>
        <time>2021-05-23T08:49:21.982Z</time>
      </trkpt>
      <trkpt lat="47.27503" lon="-2.30201">
        <ele>28</ele>
        <time>2021-05-23T08:49:22.983Z</time>
      </trkpt>
      <trkpt lat="47.27506" lon="-2.30201">
        <ele>29</ele>
        <time>2021-05-23T08:49:23.982Z</time>
      </trkpt>
      <trkpt lat="47.27508" lon="-2.30201">
        <ele>29</ele>
        <time>2021-05-23T08:49:24.983Z</time>
      </trkpt>
      <trkpt lat="47.2751" lon="-2.302">
        <ele>30</ele>
        <time>2021-05-23T08:49:25.983Z</time>
      </trkpt>
      <trkpt lat="47.27511" lon="-2.30198">
        <ele>30</ele>
        <time>2021-05-23T08:49:26.983Z</time>
      </trkpt>
      <trkpt lat="47.27512" lon="-2.30195">
        <ele>30</ele>
        <time>2021-05-23T08:49:27.983Z</time>
      </trkpt>
      <trkpt lat="47.27514" lon="-2.30192">
        <ele>30</ele>
        <time>2021-05-23T08:49:28.983Z</time>
      </trkpt>
      <trkpt lat="47.27514" lon="-2.30188">
        <ele>30</ele>
        <time>2021-05-23T08:49:29.982Z</time>
      </trkpt>
      <trkpt lat="47.27515" lon="-2.30186">
        <ele>30</ele>
        <time>2021-05-23T08:49:30.982Z</time>
      </trkpt>
      <trkpt lat="47.27517" lon="-2.30182">
        <ele>30</ele>
        <time>2021-05-23T08:49:31.983Z</time>
      </trkpt>
      <trkpt lat="47.27519" lon="-2.3018">
        <ele>30</ele>
        <time>2021-05-23T08:49:32.983Z</time>
      </trkpt>
      <trkpt lat="47.27521" lon="-2.30178">
        <ele>30</ele>
        <time>2021-05-23T08:49:33.982Z</time>
      </trkpt>
      <trkpt lat="47.27524" lon="-2.30176">
        <ele>29</ele>
        <time>2021-05-23T08:49:34.982Z</time>
      </trkpt>
      <trkpt lat="47.27525" lon="-2.30174">
        <ele>29</ele>
        <time>2021-05-23T08:49:35.983Z</time>
      </trkpt>
      <trkpt lat="47.27527" lon="-2.30174">
        <ele>29</ele>
        <time>2021-05-23T08:49:36.983Z</time>
      </trkpt>
      <trkpt lat="47.2753" lon="-2.30172">
        <ele>29</ele>
        <time>2021-05-23T08:49:37.983Z</time>
      </trkpt>
      <trkpt lat="47.27532" lon="-2.30172">
        <ele>29</ele>
        <time>2021-05-23T08:49:38.983Z</time>
      </trkpt>
      <trkpt lat="47.27534" lon="-2.3017">
        <ele>29</ele>
        <time>2021-05-23T08:49:39.982Z</time>
      </trkpt>
      <trkpt lat="47.27536" lon="-2.30169">
        <ele>28</ele>
        <time>2021-05-23T08:49:40.983Z</time>
      </trkpt>
      <trkpt lat="47.27539" lon="-2.30168">
        <ele>28</ele>
        <time>2021-05-23T08:49:41.983Z</time>
      </trkpt>
      <trkpt lat="47.2754" lon="-2.30167">
        <ele>28</ele>
        <time>2021-05-23T08:49:42.982Z</time>
      </trkpt>
      <trkpt lat="47.27542" lon="-2.30166">
        <ele>28</ele>
        <time>2021-05-23T08:49:43.982Z</time>
      </trkpt>
      <trkpt lat="47.27543" lon="-2.30165">
        <ele>28</ele>
        <time>2021-05-23T08:49:44.982Z</time>
      </trkpt>
      <trkpt lat="47.27546" lon="-2.30163">
        <ele>28</ele>
        <time>2021-05-23T08:49:45.982Z</time>
      </trkpt>
      <trkpt lat="47.27547" lon="-2.30162">
        <ele>28</ele>
        <time>2021-05-23T08:49:46.983Z</time>
      </trkpt>
      <trkpt lat="47.27549" lon="-2.30161">
        <ele>28</ele>
        <time>2021-05-23T08:49:47.983Z</time>
      </trkpt>
      <trkpt lat="47.27551" lon="-2.30159">
        <ele>27</ele>
        <time>2021-05-23T08:49:48.983Z</time>
      </trkpt>
      <trkpt lat="47.27553" lon="-2.30158">
        <ele>27</ele>
        <time>2021-05-23T08:49:49.983Z</time>
      </trkpt>
      <trkpt lat="47.27554" lon="-2.30158">
        <ele>27</ele>
        <time>2021-05-23T08:49:50.983Z</time>
      </trkpt>
      <trkpt lat="47.27556" lon="-2.30157">
        <ele>27</ele>
        <time>2021-05-23T08:49:51.983Z</time>
      </trkpt>
      <trkpt lat="47.27558" lon="-2.30157">
        <ele>26</ele>
        <time>2021-05-23T08:49:52.982Z</time>
      </trkpt>
      <trkpt lat="47.2756" lon="-2.30156">
        <ele>26</ele>
        <time>2021-05-23T08:49:53.983Z</time>
      </trkpt>
      <trkpt lat="47.27563" lon="-2.30155">
        <ele>26</ele>
        <time>2021-05-23T08:49:54.982Z</time>
      </trkpt>
      <trkpt lat="47.27566" lon="-2.30154">
        <ele>26</ele>
        <time>2021-05-23T08:49:55.983Z</time>
      </trkpt>
      <trkpt lat="47.27569" lon="-2.30153">
        <ele>26</ele>
        <time>2021-05-23T08:49:56.982Z</time>
      </trkpt>
      <trkpt lat="47.27572" lon="-2.30151">
        <ele>25</ele>
        <time>2021-05-23T08:49:57.983Z</time>
      </trkpt>
      <trkpt lat="47.27575" lon="-2.3015">
        <ele>25</ele>
        <time>2021-05-23T08:49:58.983Z</time>
      </trkpt>
      <trkpt lat="47.27578" lon="-2.30148">
        <ele>25</ele>
        <time>2021-05-23T08:49:59.982Z</time>
      </trkpt>
      <trkpt lat="47.2758" lon="-2.30146">
        <ele>25</ele>
        <time>2021-05-23T08:50:00.983Z</time>
      </trkpt>
      <trkpt lat="47.27582" lon="-2.30145">
        <ele>25</ele>
        <time>2021-05-23T08:50:01.983Z</time>
      </trkpt>
      <trkpt lat="47.27585" lon="-2.30143">
        <ele>25</ele>
        <time>2021-05-23T08:50:02.983Z</time>
      </trkpt>
      <trkpt lat="47.27587" lon="-2.30142">
        <ele>26</ele>
        <time>2021-05-23T08:50:03.983Z</time>
      </trkpt>
      <trkpt lat="47.27589" lon="-2.30141">
        <ele>26</ele>
        <time>2021-05-23T08:50:04.983Z</time>
      </trkpt>
      <trkpt lat="47.27592" lon="-2.3014">
        <ele>26</ele>
        <time>2021-05-23T08:50:05.983Z</time>
      </trkpt>
      <trkpt lat="47.27594" lon="-2.30139">
        <ele>26</ele>
        <time>2021-05-23T08:50:06.983Z</time>
      </trkpt>
      <trkpt lat="47.27596" lon="-2.30138">
        <ele>27</ele>
        <time>2021-05-23T08:50:07.982Z</time>
      </trkpt>
      <trkpt lat="47.27598" lon="-2.30136">
        <ele>27</ele>
        <time>2021-05-23T08:50:08.982Z</time>
      </trkpt>
      <trkpt lat="47.27601" lon="-2.30134">
        <ele>27</ele>
        <time>2021-05-23T08:50:09.983Z</time>
      </trkpt>
      <trkpt lat="47.27602" lon="-2.30132">
        <ele>28</ele>
        <time>2021-05-23T08:50:10.983Z</time>
      </trkpt>
      <trkpt lat="47.27604" lon="-2.3013">
        <ele>28</ele>
        <time>2021-05-23T08:50:11.982Z</time>
      </trkpt>
      <trkpt lat="47.27606" lon="-2.30127">
        <ele>28</ele>
        <time>2021-05-23T08:50:12.982Z</time>
      </trkpt>
      <trkpt lat="47.27609" lon="-2.30125">
        <ele>28</ele>
        <time>2021-05-23T08:50:13.983Z</time>
      </trkpt>
      <trkpt lat="47.27611" lon="-2.30124">
        <ele>28</ele>
        <time>2021-05-23T08:50:14.982Z</time>
      </trkpt>
      <trkpt lat="47.27613" lon="-2.30123">
        <ele>28</ele>
        <time>2021-05-23T08:50:15.983Z</time>
      </trkpt>
      <trkpt lat="47.27616" lon="-2.30122">
        <ele>27</ele>
        <time>2021-05-23T08:50:16.983Z</time>
      </trkpt>
      <trkpt lat="47.27619" lon="-2.30122">
        <ele>27</ele>
        <time>2021-05-23T08:50:17.983Z</time>
      </trkpt>
      <trkpt lat="47.27622" lon="-2.30122">
        <ele>27</ele>
        <time>2021-05-23T08:50:18.983Z</time>
      </trkpt>
      <trkpt lat="47.27625" lon="-2.30123">
        <ele>27</ele>
        <time>2021-05-23T08:50:19.983Z</time>
      </trkpt>
      <trkpt lat="47.27628" lon="-2.30124">
        <ele>27</ele>
        <time>2021-05-23T08:50:20.983Z</time>
      </trkpt>
      <trkpt lat="47.2763" lon="-2.30126">
        <ele>27</ele>
        <time>2021-05-23T08:50:21.982Z</time>
      </trkpt>
      <trkpt lat="47.27633" lon="-2.30127">
        <ele>27</ele>
        <time>2021-05-23T08:50:22.983Z</time>
      </trkpt>
      <trkpt lat="47.27635" lon="-2.3013">
        <ele>26</ele>
        <time>2021-05-23T08:50:23.982Z</time>
      </trkpt>
      <trkpt lat="47.27637" lon="-2.30132">
        <ele>26</ele>
        <time>2021-05-23T08:50:24.982Z</time>
      </trkpt>
      <trkpt lat="47.27638" lon="-2.30134">
        <ele>25</ele>
        <time>2021-05-23T08:50:25.983Z</time>
      </trkpt>
      <trkpt lat="47.2764" lon="-2.30136">
        <ele>26</ele>
        <time>2021-05-23T08:50:26.983Z</time>
      </trkpt>
      <trkpt lat="47.27641" lon="-2.30139">
        <ele>26</ele>
        <time>2021-05-23T08:50:27.982Z</time>
      </trkpt>
      <trkpt lat="47.27643" lon="-2.30141">
        <ele>26</ele>
        <time>2021-05-23T08:50:28.983Z</time>
      </trkpt>
      <trkpt lat="47.27644" lon="-2.30142">
        <ele>27</ele>
        <time>2021-05-23T08:50:29.983Z</time>
      </trkpt>
      <trkpt lat="47.27646" lon="-2.30145">
        <ele>27</ele>
        <time>2021-05-23T08:50:30.983Z</time>
      </trkpt>
      <trkpt lat="47.27648" lon="-2.30146">
        <ele>27</ele>
        <time>2021-05-23T08:50:31.982Z</time>
      </trkpt>
      <trkpt lat="47.2765" lon="-2.30148">
        <ele>28</ele>
        <time>2021-05-23T08:50:32.983Z</time>
      </trkpt>
      <trkpt lat="47.27653" lon="-2.30149">
        <ele>28</ele>
        <time>2021-05-23T08:50:33.983Z</time>
      </trkpt>
      <trkpt lat="47.27655" lon="-2.3015">
        <ele>28</ele>
        <time>2021-05-23T08:50:34.982Z</time>
      </trkpt>
      <trkpt lat="47.27657" lon="-2.30151">
        <ele>29</ele>
        <time>2021-05-23T08:50:35.982Z</time>
      </trkpt>
      <trkpt lat="47.2766" lon="-2.30152">
        <ele>29</ele>
        <time>2021-05-23T08:50:36.983Z</time>
      </trkpt>
      <trkpt lat="47.27662" lon="-2.30152">
        <ele>29</ele>
        <time>2021-05-23T08:50:37.983Z</time>
      </trkpt>
      <trkpt lat="47.27665" lon="-2.30152">
        <ele>29</ele>
        <time>2021-05-23T08:50:38.983Z</time>
      </trkpt>
      <trkpt lat="47.27667" lon="-2.30152">
        <ele>30</ele>
        <time>2021-05-23T08:50:39.983Z</time>
      </trkpt>
      <trkpt lat="47.27669" lon="-2.30152">
        <ele>30</ele>
        <time>2021-05-23T08:50:40.983Z</time>
      </trkpt>
      <trkpt lat="47.27671" lon="-2.30152">
        <ele>31</ele>
        <time>2021-05-23T08:50:41.982Z</time>
      </trkpt>
      <trkpt lat="47.27674" lon="-2.30152">
        <ele>31</ele>
        <time>2021-05-23T08:50:42.982Z</time>
      </trkpt>
      <trkpt lat="47.27676" lon="-2.30152">
        <ele>31</ele>
        <time>2021-05-23T08:50:43.983Z</time>
      </trkpt>
      <trkpt lat="47.27679" lon="-2.30151">
        <ele>32</ele>
        <time>2021-05-23T08:50:44.983Z</time>
      </trkpt>
      <trkpt lat="47.27682" lon="-2.30151">
        <ele>32</ele>
        <time>2021-05-23T08:50:45.983Z</time>
      </trkpt>
      <trkpt lat="47.27684" lon="-2.30149">
        <ele>32</ele>
        <time>2021-05-23T08:50:46.983Z</time>
      </trkpt>
      <trkpt lat="47.27687" lon="-2.30148">
        <ele>32</ele>
        <time>2021-05-23T08:50:47.982Z</time>
      </trkpt>
      <trkpt lat="47.27689" lon="-2.30148">
        <ele>32</ele>
        <time>2021-05-23T08:50:48.983Z</time>
      </trkpt>
      <trkpt lat="47.27691" lon="-2.30147">
        <ele>32</ele>
        <time>2021-05-23T08:50:49.983Z</time>
      </trkpt>
      <trkpt lat="47.27694" lon="-2.30147">
        <ele>32</ele>
        <time>2021-05-23T08:50:50.983Z</time>
      </trkpt>
      <trkpt lat="47.27697" lon="-2.30146">
        <ele>31</ele>
        <time>2021-05-23T08:50:51.983Z</time>
      </trkpt>
      <trkpt lat="47.277" lon="-2.30145">
        <ele>31</ele>
        <time>2021-05-23T08:50:52.983Z</time>
      </trkpt>
      <trkpt lat="47.27703" lon="-2.30144">
        <ele>31</ele>
        <time>2021-05-23T08:50:53.983Z</time>
      </trkpt>
      <trkpt lat="47.27706" lon="-2.30144">
        <ele>30</ele>
        <time>2021-05-23T08:50:54.983Z</time>
      </trkpt>
      <trkpt lat="47.27708" lon="-2.30144">
        <ele>30</ele>
        <time>2021-05-23T08:50:55.983Z</time>
      </trkpt>
      <trkpt lat="47.2771" lon="-2.30145">
        <ele>30</ele>
        <time>2021-05-23T08:50:56.983Z</time>
      </trkpt>
      <trkpt lat="47.27713" lon="-2.30144">
        <ele>31</ele>
        <time>2021-05-23T08:50:57.983Z</time>
      </trkpt>
      <trkpt lat="47.27715" lon="-2.30144">
        <ele>31</ele>
        <time>2021-05-23T08:50:58.983Z</time>
      </trkpt>
      <trkpt lat="47.27718" lon="-2.30144">
        <ele>31</ele>
        <time>2021-05-23T08:50:59.983Z</time>
      </trkpt>
      <trkpt lat="47.2772" lon="-2.30144">
        <ele>32</ele>
        <time>2021-05-23T08:51:00.982Z</time>
      </trkpt>
      <trkpt lat="47.27723" lon="-2.30143">
        <ele>32</ele>
        <time>2021-05-23T08:51:01.983Z</time>
      </trkpt>
      <trkpt lat="47.27726" lon="-2.30142">
        <ele>32</ele>
        <time>2021-05-23T08:51:02.983Z</time>
      </trkpt>
      <trkpt lat="47.27728" lon="-2.3014">
        <ele>32</ele>
        <time>2021-05-23T08:51:03.983Z</time>
      </trkpt>
      <trkpt lat="47.27731" lon="-2.30138">
        <ele>32</ele>
        <time>2021-05-23T08:51:04.983Z</time>
      </trkpt>
      <trkpt lat="47.27734" lon="-2.30137">
        <ele>32</ele>
        <time>2021-05-23T08:51:05.982Z</time>
      </trkpt>
      <trkpt lat="47.27736" lon="-2.30136">
        <ele>32</ele>
        <time>2021-05-23T08:51:06.982Z</time>
      </trkpt>
      <trkpt lat="47.27739" lon="-2.30136">
        <ele>32</ele>
        <time>2021-05-23T08:51:07.983Z</time>
      </trkpt>
      <trkpt lat="47.27741" lon="-2.30135">
        <ele>32</ele>
        <time>2021-05-23T08:51:08.983Z</time>
      </trkpt>
      <trkpt lat="47.27744" lon="-2.30134">
        <ele>32</ele>
        <time>2021-05-23T08:51:09.982Z</time>
      </trkpt>
      <trkpt lat="47.27747" lon="-2.30133">
        <ele>32</ele>
        <time>2021-05-23T08:51:10.983Z</time>
      </trkpt>
      <trkpt lat="47.27749" lon="-2.30131">
        <ele>32</ele>
        <time>2021-05-23T08:51:11.983Z</time>
      </trkpt>
      <trkpt lat="47.27752" lon="-2.3013">
        <ele>33</ele>
        <time>2021-05-23T08:51:12.982Z</time>
      </trkpt>
      <trkpt lat="47.27755" lon="-2.30128">
        <ele>33</ele>
        <time>2021-05-23T08:51:13.982Z</time>
      </trkpt>
      <trkpt lat="47.27758" lon="-2.30127">
        <ele>34</ele>
        <time>2021-05-23T08:51:14.982Z</time>
      </trkpt>
      <trkpt lat="47.2776" lon="-2.30126">
        <ele>34</ele>
        <time>2021-05-23T08:51:15.983Z</time>
      </trkpt>
      <trkpt lat="47.27763" lon="-2.30125">
        <ele>35</ele>
        <time>2021-05-23T08:51:16.983Z</time>
      </trkpt>
      <trkpt lat="47.27765" lon="-2.30123">
        <ele>35</ele>
        <time>2021-05-23T08:51:17.983Z</time>
      </trkpt>
      <trkpt lat="47.27768" lon="-2.30122">
        <ele>35</ele>
        <time>2021-05-23T08:51:18.982Z</time>
      </trkpt>
      <trkpt lat="47.27771" lon="-2.3012">
        <ele>35</ele>
        <time>2021-05-23T08:51:19.982Z</time>
      </trkpt>
      <trkpt lat="47.27774" lon="-2.30119">
        <ele>36</ele>
        <time>2021-05-23T08:51:20.983Z</time>
      </trkpt>
      <trkpt lat="47.27776" lon="-2.30117">
        <ele>36</ele>
        <time>2021-05-23T08:51:21.982Z</time>
      </trkpt>
      <trkpt lat="47.27779" lon="-2.30116">
        <ele>36</ele>
        <time>2021-05-23T08:51:22.982Z</time>
      </trkpt>
      <trkpt lat="47.27781" lon="-2.30115">
        <ele>36</ele>
        <time>2021-05-23T08:51:23.982Z</time>
      </trkpt>
      <trkpt lat="47.27784" lon="-2.30113">
        <ele>36</ele>
        <time>2021-05-23T08:51:24.983Z</time>
      </trkpt>
      <trkpt lat="47.27786" lon="-2.30112">
        <ele>36</ele>
        <time>2021-05-23T08:51:25.983Z</time>
      </trkpt>
      <trkpt lat="47.27789" lon="-2.3011">
        <ele>36</ele>
        <time>2021-05-23T08:51:26.982Z</time>
      </trkpt>
      <trkpt lat="47.27792" lon="-2.30109">
        <ele>36</ele>
        <time>2021-05-23T08:51:27.982Z</time>
      </trkpt>
      <trkpt lat="47.27794" lon="-2.30107">
        <ele>36</ele>
        <time>2021-05-23T08:51:28.983Z</time>
      </trkpt>
      <trkpt lat="47.27796" lon="-2.30106">
        <ele>35</ele>
        <time>2021-05-23T08:51:29.982Z</time>
      </trkpt>
      <trkpt lat="47.27798" lon="-2.30104">
        <ele>34</ele>
        <time>2021-05-23T08:51:30.982Z</time>
      </trkpt>
      <trkpt lat="47.278" lon="-2.30103">
        <ele>34</ele>
        <time>2021-05-23T08:51:31.982Z</time>
      </trkpt>
      <trkpt lat="47.27803" lon="-2.30101">
        <ele>35</ele>
        <time>2021-05-23T08:51:32.982Z</time>
      </trkpt>
      <trkpt lat="47.27806" lon="-2.301">
        <ele>35</ele>
        <time>2021-05-23T08:51:33.983Z</time>
      </trkpt>
      <trkpt lat="47.27808" lon="-2.30098">
        <ele>35</ele>
        <time>2021-05-23T08:51:34.983Z</time>
      </trkpt>
      <trkpt lat="47.27811" lon="-2.30096">
        <ele>35</ele>
        <time>2021-05-23T08:51:35.983Z</time>
      </trkpt>
      <trkpt lat="47.27813" lon="-2.30094">
        <ele>35</ele>
        <time>2021-05-23T08:51:36.982Z</time>
      </trkpt>
      <trkpt lat="47.27816" lon="-2.30092">
        <ele>34</ele>
        <time>2021-05-23T08:51:37.982Z</time>
      </trkpt>
      <trkpt lat="47.27818" lon="-2.3009">
        <ele>34</ele>
        <time>2021-05-23T08:51:38.982Z</time>
      </trkpt>
      <trkpt lat="47.2782" lon="-2.30089">
        <ele>33</ele>
        <time>2021-05-23T08:51:39.982Z</time>
      </trkpt>
      <trkpt lat="47.27823" lon="-2.30087">
        <ele>33</ele>
        <time>2021-05-23T08:51:40.982Z</time>
      </trkpt>
      <trkpt lat="47.27825" lon="-2.30086">
        <ele>34</ele>
        <time>2021-05-23T08:51:41.982Z</time>
      </trkpt>
      <trkpt lat="47.27827" lon="-2.30084">
        <ele>34</ele>
        <time>2021-05-23T08:51:42.982Z</time>
      </trkpt>
      <trkpt lat="47.2783" lon="-2.30082">
        <ele>34</ele>
        <time>2021-05-23T08:51:43.983Z</time>
      </trkpt>
      <trkpt lat="47.27832" lon="-2.30081">
        <ele>34</ele>
        <time>2021-05-23T08:51:44.982Z</time>
      </trkpt>
      <trkpt lat="47.27834" lon="-2.30079">
        <ele>33</ele>
        <time>2021-05-23T08:51:45.983Z</time>
      </trkpt>
      <trkpt lat="47.27837" lon="-2.30077">
        <ele>33</ele>
        <time>2021-05-23T08:51:46.982Z</time>
      </trkpt>
      <trkpt lat="47.27839" lon="-2.30075">
        <ele>32</ele>
        <time>2021-05-23T08:51:47.982Z</time>
      </trkpt>
      <trkpt lat="47.27842" lon="-2.30073">
        <ele>31</ele>
        <time>2021-05-23T08:51:48.983Z</time>
      </trkpt>
      <trkpt lat="47.27844" lon="-2.30072">
        <ele>30</ele>
        <time>2021-05-23T08:51:49.982Z</time>
      </trkpt>
      <trkpt lat="47.27846" lon="-2.3007">
        <ele>29</ele>
        <time>2021-05-23T08:51:50.983Z</time>
      </trkpt>
      <trkpt lat="47.27848" lon="-2.30068">
        <ele>29</ele>
        <time>2021-05-23T08:51:51.982Z</time>
      </trkpt>
      <trkpt lat="47.27851" lon="-2.30067">
        <ele>29</ele>
        <time>2021-05-23T08:51:52.982Z</time>
      </trkpt>
      <trkpt lat="47.27853" lon="-2.30065">
        <ele>29</ele>
        <time>2021-05-23T08:51:53.982Z</time>
      </trkpt>
      <trkpt lat="47.27855" lon="-2.30064">
        <ele>29</ele>
        <time>2021-05-23T08:51:54.983Z</time>
      </trkpt>
      <trkpt lat="47.27857" lon="-2.30062">
        <ele>29</ele>
        <time>2021-05-23T08:51:55.983Z</time>
      </trkpt>
      <trkpt lat="47.27858" lon="-2.3006">
        <ele>30</ele>
        <time>2021-05-23T08:51:56.983Z</time>
      </trkpt>
      <trkpt lat="47.2786" lon="-2.30059">
        <ele>30</ele>
        <time>2021-05-23T08:51:57.983Z</time>
      </trkpt>
      <trkpt lat="47.27862" lon="-2.30058">
        <ele>30</ele>
        <time>2021-05-23T08:51:58.983Z</time>
      </trkpt>
      <trkpt lat="47.27864" lon="-2.30056">
        <ele>31</ele>
        <time>2021-05-23T08:51:59.982Z</time>
      </trkpt>
      <trkpt lat="47.27866" lon="-2.30055">
        <ele>31</ele>
        <time>2021-05-23T08:52:00.983Z</time>
      </trkpt>
      <trkpt lat="47.27869" lon="-2.30053">
        <ele>31</ele>
        <time>2021-05-23T08:52:01.982Z</time>
      </trkpt>
      <trkpt lat="47.27872" lon="-2.30051">
        <ele>31</ele>
        <time>2021-05-23T08:52:02.983Z</time>
      </trkpt>
      <trkpt lat="47.27874" lon="-2.30049">
        <ele>31</ele>
        <time>2021-05-23T08:52:03.982Z</time>
      </trkpt>
      <trkpt lat="47.27876" lon="-2.30047">
        <ele>31</ele>
        <time>2021-05-23T08:52:04.983Z</time>
      </trkpt>
      <trkpt lat="47.27878" lon="-2.30045">
        <ele>31</ele>
        <time>2021-05-23T08:52:05.983Z</time>
      </trkpt>
      <trkpt lat="47.27881" lon="-2.30042">
        <ele>31</ele>
        <time>2021-05-23T08:52:06.982Z</time>
      </trkpt>
      <trkpt lat="47.27882" lon="-2.3004">
        <ele>30</ele>
        <time>2021-05-23T08:52:07.982Z</time>
      </trkpt>
      <trkpt lat="47.27884" lon="-2.30038">
        <ele>30</ele>
        <time>2021-05-23T08:52:08.982Z</time>
      </trkpt>
      <trkpt lat="47.27886" lon="-2.30034">
        <ele>29</ele>
        <time>2021-05-23T08:52:09.983Z</time>
      </trkpt>
      <trkpt lat="47.27887" lon="-2.30031">
        <ele>28</ele>
        <time>2021-05-23T08:52:10.983Z</time>
      </trkpt>
      <trkpt lat="47.27888" lon="-2.30027">
        <ele>28</ele>
        <time>2021-05-23T08:52:11.983Z</time>
      </trkpt>
      <trkpt lat="47.2789" lon="-2.30023">
        <ele>27</ele>
        <time>2021-05-23T08:52:12.983Z</time>
      </trkpt>
      <trkpt lat="47.27891" lon="-2.30019">
        <ele>27</ele>
        <time>2021-05-23T08:52:13.982Z</time>
      </trkpt>
      <trkpt lat="47.27891" lon="-2.30015">
        <ele>27</ele>
        <time>2021-05-23T08:52:14.983Z</time>
      </trkpt>
      <trkpt lat="47.27891" lon="-2.30011">
        <ele>27</ele>
        <time>2021-05-23T08:52:15.983Z</time>
      </trkpt>
      <trkpt lat="47.27891" lon="-2.30007">
        <ele>27</ele>
        <time>2021-05-23T08:52:16.982Z</time>
      </trkpt>
      <trkpt lat="47.27891" lon="-2.30004">
        <ele>27</ele>
        <time>2021-05-23T08:52:17.982Z</time>
      </trkpt>
      <trkpt lat="47.27891" lon="-2.3">
        <ele>27</ele>
        <time>2021-05-23T08:52:18.983Z</time>
      </trkpt>
      <trkpt lat="47.27891" lon="-2.29997">
        <ele>27</ele>
        <time>2021-05-23T08:52:19.983Z</time>
      </trkpt>
      <trkpt lat="47.27891" lon="-2.29993">
        <ele>26</ele>
        <time>2021-05-23T08:52:20.982Z</time>
      </trkpt>
      <trkpt lat="47.27891" lon="-2.29989">
        <ele>26</ele>
        <time>2021-05-23T08:52:21.983Z</time>
      </trkpt>
      <trkpt lat="47.2789" lon="-2.29986">
        <ele>26</ele>
        <time>2021-05-23T08:52:22.983Z</time>
      </trkpt>
      <trkpt lat="47.2789" lon="-2.29982">
        <ele>26</ele>
        <time>2021-05-23T08:52:23.983Z</time>
      </trkpt>
      <trkpt lat="47.2789" lon="-2.29978">
        <ele>26</ele>
        <time>2021-05-23T08:52:24.983Z</time>
      </trkpt>
      <trkpt lat="47.2789" lon="-2.29974">
        <ele>26</ele>
        <time>2021-05-23T08:52:25.983Z</time>
      </trkpt>
      <trkpt lat="47.2789" lon="-2.2997">
        <ele>26</ele>
        <time>2021-05-23T08:52:26.982Z</time>
      </trkpt>
      <trkpt lat="47.2789" lon="-2.29967">
        <ele>26</ele>
        <time>2021-05-23T08:52:27.983Z</time>
      </trkpt>
      <trkpt lat="47.27889" lon="-2.29963">
        <ele>27</ele>
        <time>2021-05-23T08:52:28.983Z</time>
      </trkpt>
      <trkpt lat="47.27889" lon="-2.29959">
        <ele>27</ele>
        <time>2021-05-23T08:52:29.982Z</time>
      </trkpt>
      <trkpt lat="47.27888" lon="-2.29955">
        <ele>27</ele>
        <time>2021-05-23T08:52:30.982Z</time>
      </trkpt>
      <trkpt lat="47.27888" lon="-2.29951">
        <ele>27</ele>
        <time>2021-05-23T08:52:31.983Z</time>
      </trkpt>
      <trkpt lat="47.27887" lon="-2.29947">
        <ele>28</ele>
        <time>2021-05-23T08:52:32.982Z</time>
      </trkpt>
      <trkpt lat="47.27887" lon="-2.29943">
        <ele>28</ele>
        <time>2021-05-23T08:52:33.983Z</time>
      </trkpt>
      <trkpt lat="47.27888" lon="-2.29939">
        <ele>28</ele>
        <time>2021-05-23T08:52:34.982Z</time>
      </trkpt>
      <trkpt lat="47.27888" lon="-2.29935">
        <ele>28</ele>
        <time>2021-05-23T08:52:35.983Z</time>
      </trkpt>
      <trkpt lat="47.27887" lon="-2.29932">
        <ele>28</ele>
        <time>2021-05-23T08:52:36.982Z</time>
      </trkpt>
      <trkpt lat="47.27887" lon="-2.29928">
        <ele>28</ele>
        <time>2021-05-23T08:52:37.982Z</time>
      </trkpt>
      <trkpt lat="47.27887" lon="-2.29924">
        <ele>28</ele>
        <time>2021-05-23T08:52:38.982Z</time>
      </trkpt>
      <trkpt lat="47.27888" lon="-2.2992">
        <ele>28</ele>
        <time>2021-05-23T08:52:39.982Z</time>
      </trkpt>
      <trkpt lat="47.27888" lon="-2.29917">
        <ele>28</ele>
        <time>2021-05-23T08:52:40.982Z</time>
      </trkpt>
      <trkpt lat="47.27888" lon="-2.29913">
        <ele>28</ele>
        <time>2021-05-23T08:52:41.982Z</time>
      </trkpt>
      <trkpt lat="47.27887" lon="-2.29909">
        <ele>27</ele>
        <time>2021-05-23T08:52:42.983Z</time>
      </trkpt>
      <trkpt lat="47.27886" lon="-2.29906">
        <ele>27</ele>
        <time>2021-05-23T08:52:43.983Z</time>
      </trkpt>
      <trkpt lat="47.27886" lon="-2.29902">
        <ele>27</ele>
        <time>2021-05-23T08:52:44.983Z</time>
      </trkpt>
      <trkpt lat="47.27886" lon="-2.29898">
        <ele>27</ele>
        <time>2021-05-23T08:52:45.983Z</time>
      </trkpt>
      <trkpt lat="47.27886" lon="-2.29894">
        <ele>27</ele>
        <time>2021-05-23T08:52:46.983Z</time>
      </trkpt>
      <trkpt lat="47.27886" lon="-2.2989">
        <ele>27</ele>
        <time>2021-05-23T08:52:47.983Z</time>
      </trkpt>
      <trkpt lat="47.27886" lon="-2.29887">
        <ele>27</ele>
        <time>2021-05-23T08:52:48.983Z</time>
      </trkpt>
      <trkpt lat="47.27886" lon="-2.29883">
        <ele>27</ele>
        <time>2021-05-23T08:52:49.982Z</time>
      </trkpt>
      <trkpt lat="47.27885" lon="-2.29879">
        <ele>27</ele>
        <time>2021-05-23T08:52:50.982Z</time>
      </trkpt>
      <trkpt lat="47.27885" lon="-2.29876">
        <ele>27</ele>
        <time>2021-05-23T08:52:51.982Z</time>
      </trkpt>
      <trkpt lat="47.27885" lon="-2.29872">
        <ele>27</ele>
        <time>2021-05-23T08:52:52.983Z</time>
      </trkpt>
      <trkpt lat="47.27885" lon="-2.29869">
        <ele>27</ele>
        <time>2021-05-23T08:52:53.983Z</time>
      </trkpt>
      <trkpt lat="47.27884" lon="-2.29865">
        <ele>27</ele>
        <time>2021-05-23T08:52:54.983Z</time>
      </trkpt>
      <trkpt lat="47.27884" lon="-2.29861">
        <ele>28</ele>
        <time>2021-05-23T08:52:55.982Z</time>
      </trkpt>
      <trkpt lat="47.27885" lon="-2.29858">
        <ele>28</ele>
        <time>2021-05-23T08:52:56.983Z</time>
      </trkpt>
      <trkpt lat="47.27885" lon="-2.29854">
        <ele>28</ele>
        <time>2021-05-23T08:52:57.983Z</time>
      </trkpt>
      <trkpt lat="47.27885" lon="-2.29851">
        <ele>28</ele>
        <time>2021-05-23T08:52:58.983Z</time>
      </trkpt>
      <trkpt lat="47.27885" lon="-2.29848">
        <ele>28</ele>
        <time>2021-05-23T08:52:59.983Z</time>
      </trkpt>
      <trkpt lat="47.27885" lon="-2.29844">
        <ele>28</ele>
        <time>2021-05-23T08:53:00.982Z</time>
      </trkpt>
      <trkpt lat="47.27885" lon="-2.2984">
        <ele>28</ele>
        <time>2021-05-23T08:53:01.983Z</time>
      </trkpt>
      <trkpt lat="47.27886" lon="-2.29836">
        <ele>29</ele>
        <time>2021-05-23T08:53:02.982Z</time>
      </trkpt>
      <trkpt lat="47.27886" lon="-2.29832">
        <ele>29</ele>
        <time>2021-05-23T08:53:03.983Z</time>
      </trkpt>
      <trkpt lat="47.27885" lon="-2.29829">
        <ele>29</ele>
        <time>2021-05-23T08:53:04.983Z</time>
      </trkpt>
      <trkpt lat="47.27885" lon="-2.29825">
        <ele>29</ele>
        <time>2021-05-23T08:53:05.982Z</time>
      </trkpt>
      <trkpt lat="47.27884" lon="-2.29821">
        <ele>29</ele>
        <time>2021-05-23T08:53:06.983Z</time>
      </trkpt>
      <trkpt lat="47.27883" lon="-2.29817">
        <ele>29</ele>
        <time>2021-05-23T08:53:07.982Z</time>
      </trkpt>
      <trkpt lat="47.27882" lon="-2.29813">
        <ele>30</ele>
        <time>2021-05-23T08:53:08.982Z</time>
      </trkpt>
      <trkpt lat="47.27882" lon="-2.29809">
        <ele>30</ele>
        <time>2021-05-23T08:53:09.982Z</time>
      </trkpt>
      <trkpt lat="47.27882" lon="-2.29806">
        <ele>31</ele>
        <time>2021-05-23T08:53:10.982Z</time>
      </trkpt>
      <trkpt lat="47.27881" lon="-2.29802">
        <ele>31</ele>
        <time>2021-05-23T08:53:11.983Z</time>
      </trkpt>
      <trkpt lat="47.2788" lon="-2.29799">
        <ele>31</ele>
        <time>2021-05-23T08:53:12.983Z</time>
      </trkpt>
      <trkpt lat="47.2788" lon="-2.29795">
        <ele>32</ele>
        <time>2021-05-23T08:53:13.982Z</time>
      </trkpt>
      <trkpt lat="47.2788" lon="-2.29791">
        <ele>32</ele>
        <time>2021-05-23T08:53:14.983Z</time>
      </trkpt>
      <trkpt lat="47.2788" lon="-2.29787">
        <ele>32</ele>
        <time>2021-05-23T08:53:15.982Z</time>
      </trkpt>
      <trkpt lat="47.27879" lon="-2.29784">
        <ele>32</ele>
        <time>2021-05-23T08:53:16.983Z</time>
      </trkpt>
      <trkpt lat="47.27879" lon="-2.2978">
        <ele>32</ele>
        <time>2021-05-23T08:53:17.983Z</time>
      </trkpt>
      <trkpt lat="47.27878" lon="-2.29776">
        <ele>32</ele>
        <time>2021-05-23T08:53:18.983Z</time>
      </trkpt>
      <trkpt lat="47.27877" lon="-2.29773">
        <ele>32</ele>
        <time>2021-05-23T08:53:19.982Z</time>
      </trkpt>
      <trkpt lat="47.27876" lon="-2.2977">
        <ele>32</ele>
        <time>2021-05-23T08:53:20.983Z</time>
      </trkpt>
      <trkpt lat="47.27874" lon="-2.29767">
        <ele>31</ele>
        <time>2021-05-23T08:53:21.983Z</time>
      </trkpt>
      <trkpt lat="47.27874" lon="-2.29764">
        <ele>31</ele>
        <time>2021-05-23T08:53:22.983Z</time>
      </trkpt>
      <trkpt lat="47.27873" lon="-2.2976">
        <ele>30</ele>
        <time>2021-05-23T08:53:23.983Z</time>
      </trkpt>
      <trkpt lat="47.27872" lon="-2.29757">
        <ele>30</ele>
        <time>2021-05-23T08:53:24.983Z</time>
      </trkpt>
      <trkpt lat="47.27872" lon="-2.29753">
        <ele>30</ele>
        <time>2021-05-23T08:53:25.982Z</time>
      </trkpt>
      <trkpt lat="47.27871" lon="-2.29749">
        <ele>30</ele>
        <time>2021-05-23T08:53:26.983Z</time>
      </trkpt>
      <trkpt lat="47.27871" lon="-2.29746">
        <ele>31</ele>
        <time>2021-05-23T08:53:27.982Z</time>
      </trkpt>
      <trkpt lat="47.27871" lon="-2.29742">
        <ele>31</ele>
        <time>2021-05-23T08:53:28.982Z</time>
      </trkpt>
      <trkpt lat="47.2787" lon="-2.29738">
        <ele>31</ele>
        <time>2021-05-23T08:53:29.983Z</time>
      </trkpt>
      <trkpt lat="47.27869" lon="-2.29735">
        <ele>31</ele>
        <time>2021-05-23T08:53:30.983Z</time>
      </trkpt>
      <trkpt lat="47.27869" lon="-2.29731">
        <ele>31</ele>
        <time>2021-05-23T08:53:31.983Z</time>
      </trkpt>
      <trkpt lat="47.27869" lon="-2.29727">
        <ele>31</ele>
        <time>2021-05-23T08:53:32.983Z</time>
      </trkpt>
      <trkpt lat="47.27868" lon="-2.29723">
        <ele>31</ele>
        <time>2021-05-23T08:53:33.982Z</time>
      </trkpt>
      <trkpt lat="47.27868" lon="-2.2972">
        <ele>31</ele>
        <time>2021-05-23T08:53:34.982Z</time>
      </trkpt>
      <trkpt lat="47.27867" lon="-2.29716">
        <ele>31</ele>
        <time>2021-05-23T08:53:35.983Z</time>
      </trkpt>
      <trkpt lat="47.27867" lon="-2.29712">
        <ele>31</ele>
        <time>2021-05-23T08:53:36.983Z</time>
      </trkpt>
      <trkpt lat="47.27867" lon="-2.29708">
        <ele>31</ele>
        <time>2021-05-23T08:53:37.983Z</time>
      </trkpt>
      <trkpt lat="47.27866" lon="-2.29705">
        <ele>31</ele>
        <time>2021-05-23T08:53:38.983Z</time>
      </trkpt>
      <trkpt lat="47.27866" lon="-2.29701">
        <ele>31</ele>
        <time>2021-05-23T08:53:39.983Z</time>
      </trkpt>
      <trkpt lat="47.27865" lon="-2.29697">
        <ele>31</ele>
        <time>2021-05-23T08:53:40.982Z</time>
      </trkpt>
      <trkpt lat="47.27865" lon="-2.29694">
        <ele>31</ele>
        <time>2021-05-23T08:53:41.983Z</time>
      </trkpt>
      <trkpt lat="47.27865" lon="-2.2969">
        <ele>31</ele>
        <time>2021-05-23T08:53:42.983Z</time>
      </trkpt>
      <trkpt lat="47.27864" lon="-2.29686">
        <ele>31</ele>
        <time>2021-05-23T08:53:43.982Z</time>
      </trkpt>
      <trkpt lat="47.27864" lon="-2.29682">
        <ele>31</ele>
        <time>2021-05-23T08:53:44.983Z</time>
      </trkpt>
      <trkpt lat="47.27863" lon="-2.29678">
        <ele>31</ele>
        <time>2021-05-23T08:53:45.983Z</time>
      </trkpt>
      <trkpt lat="47.27863" lon="-2.29674">
        <ele>31</ele>
        <time>2021-05-23T08:53:46.983Z</time>
      </trkpt>
      <trkpt lat="47.27862" lon="-2.2967">
        <ele>31</ele>
        <time>2021-05-23T08:53:47.983Z</time>
      </trkpt>
      <trkpt lat="47.27862" lon="-2.29666">
        <ele>32</ele>
        <time>2021-05-23T08:53:48.982Z</time>
      </trkpt>
      <trkpt lat="47.27861" lon="-2.29662">
        <ele>32</ele>
        <time>2021-05-23T08:53:49.982Z</time>
      </trkpt>
      <trkpt lat="47.27861" lon="-2.29659">
        <ele>32</ele>
        <time>2021-05-23T08:53:50.982Z</time>
      </trkpt>
      <trkpt lat="47.2786" lon="-2.29655">
        <ele>32</ele>
        <time>2021-05-23T08:53:51.983Z</time>
      </trkpt>
      <trkpt lat="47.2786" lon="-2.29651">
        <ele>31</ele>
        <time>2021-05-23T08:53:52.982Z</time>
      </trkpt>
      <trkpt lat="47.2786" lon="-2.29648">
        <ele>31</ele>
        <time>2021-05-23T08:53:53.983Z</time>
      </trkpt>
      <trkpt lat="47.2786" lon="-2.29644">
        <ele>31</ele>
        <time>2021-05-23T08:53:54.983Z</time>
      </trkpt>
      <trkpt lat="47.27859" lon="-2.2964">
        <ele>32</ele>
        <time>2021-05-23T08:53:55.982Z</time>
      </trkpt>
      <trkpt lat="47.27859" lon="-2.29636">
        <ele>32</ele>
        <time>2021-05-23T08:53:56.983Z</time>
      </trkpt>
      <trkpt lat="47.27858" lon="-2.29632">
        <ele>32</ele>
        <time>2021-05-23T08:53:57.982Z</time>
      </trkpt>
      <trkpt lat="47.27858" lon="-2.29629">
        <ele>33</ele>
        <time>2021-05-23T08:53:58.983Z</time>
      </trkpt>
      <trkpt lat="47.27857" lon="-2.29625">
        <ele>33</ele>
        <time>2021-05-23T08:53:59.982Z</time>
      </trkpt>
      <trkpt lat="47.27857" lon="-2.29622">
        <ele>34</ele>
        <time>2021-05-23T08:54:00.983Z</time>
      </trkpt>
      <trkpt lat="47.27856" lon="-2.29618">
        <ele>34</ele>
        <time>2021-05-23T08:54:01.982Z</time>
      </trkpt>
      <trkpt lat="47.27856" lon="-2.29614">
        <ele>34</ele>
        <time>2021-05-23T08:54:02.983Z</time>
      </trkpt>
      <trkpt lat="47.27855" lon="-2.29611">
        <ele>34</ele>
        <time>2021-05-23T08:54:03.982Z</time>
      </trkpt>
      <trkpt lat="47.27855" lon="-2.29607">
        <ele>34</ele>
        <time>2021-05-23T08:54:04.983Z</time>
      </trkpt>
      <trkpt lat="47.27853" lon="-2.29604">
        <ele>34</ele>
        <time>2021-05-23T08:54:05.983Z</time>
      </trkpt>
      <trkpt lat="47.27851" lon="-2.296">
        <ele>34</ele>
        <time>2021-05-23T08:54:06.982Z</time>
      </trkpt>
      <trkpt lat="47.27849" lon="-2.29597">
        <ele>34</ele>
        <time>2021-05-23T08:54:07.982Z</time>
      </trkpt>
      <trkpt lat="47.27847" lon="-2.29594">
        <ele>34</ele>
        <time>2021-05-23T08:54:08.983Z</time>
      </trkpt>
      <trkpt lat="47.27845" lon="-2.29592">
        <ele>34</ele>
        <time>2021-05-23T08:54:09.983Z</time>
      </trkpt>
      <trkpt lat="47.27842" lon="-2.2959">
        <ele>34</ele>
        <time>2021-05-23T08:54:10.982Z</time>
      </trkpt>
      <trkpt lat="47.2784" lon="-2.2959">
        <ele>34</ele>
        <time>2021-05-23T08:54:11.983Z</time>
      </trkpt>
      <trkpt lat="47.27837" lon="-2.29591">
        <ele>34</ele>
        <time>2021-05-23T08:54:12.983Z</time>
      </trkpt>
      <trkpt lat="47.27834" lon="-2.29591">
        <ele>33</ele>
        <time>2021-05-23T08:54:13.983Z</time>
      </trkpt>
      <trkpt lat="47.27831" lon="-2.29591">
        <ele>32</ele>
        <time>2021-05-23T08:54:14.983Z</time>
      </trkpt>
      <trkpt lat="47.27829" lon="-2.29591">
        <ele>32</ele>
        <time>2021-05-23T08:54:15.982Z</time>
      </trkpt>
      <trkpt lat="47.27826" lon="-2.29591">
        <ele>31</ele>
        <time>2021-05-23T08:54:16.983Z</time>
      </trkpt>
      <trkpt lat="47.27824" lon="-2.29591">
        <ele>31</ele>
        <time>2021-05-23T08:54:17.982Z</time>
      </trkpt>
      <trkpt lat="47.27821" lon="-2.29591">
        <ele>31</ele>
        <time>2021-05-23T08:54:18.983Z</time>
      </trkpt>
      <trkpt lat="47.27818" lon="-2.29591">
        <ele>31</ele>
        <time>2021-05-23T08:54:19.982Z</time>
      </trkpt>
      <trkpt lat="47.27815" lon="-2.29591">
        <ele>31</ele>
        <time>2021-05-23T08:54:20.983Z</time>
      </trkpt>
      <trkpt lat="47.27813" lon="-2.29592">
        <ele>31</ele>
        <time>2021-05-23T08:54:21.982Z</time>
      </trkpt>
      <trkpt lat="47.2781" lon="-2.29593">
        <ele>30</ele>
        <time>2021-05-23T08:54:22.983Z</time>
      </trkpt>
      <trkpt lat="47.27807" lon="-2.29593">
        <ele>30</ele>
        <time>2021-05-23T08:54:23.983Z</time>
      </trkpt>
      <trkpt lat="47.27804" lon="-2.29593">
        <ele>29</ele>
        <time>2021-05-23T08:54:24.982Z</time>
      </trkpt>
      <trkpt lat="47.27801" lon="-2.29593">
        <ele>29</ele>
        <time>2021-05-23T08:54:25.982Z</time>
      </trkpt>
      <trkpt lat="47.27799" lon="-2.29593">
        <ele>29</ele>
        <time>2021-05-23T08:54:26.983Z</time>
      </trkpt>
      <trkpt lat="47.27797" lon="-2.29594">
        <ele>29</ele>
        <time>2021-05-23T08:54:27.982Z</time>
      </trkpt>
      <trkpt lat="47.27794" lon="-2.29593">
        <ele>29</ele>
        <time>2021-05-23T08:54:28.983Z</time>
      </trkpt>
      <trkpt lat="47.27791" lon="-2.29592">
        <ele>29</ele>
        <time>2021-05-23T08:54:29.983Z</time>
      </trkpt>
      <trkpt lat="47.27788" lon="-2.29592">
        <ele>30</ele>
        <time>2021-05-23T08:54:30.983Z</time>
      </trkpt>
      <trkpt lat="47.27785" lon="-2.29591">
        <ele>30</ele>
        <time>2021-05-23T08:54:31.982Z</time>
      </trkpt>
      <trkpt lat="47.27783" lon="-2.29591">
        <ele>30</ele>
        <time>2021-05-23T08:54:32.982Z</time>
      </trkpt>
      <trkpt lat="47.2778" lon="-2.29591">
        <ele>31</ele>
        <time>2021-05-23T08:54:33.983Z</time>
      </trkpt>
      <trkpt lat="47.27779" lon="-2.29591">
        <ele>31</ele>
        <time>2021-05-23T08:54:34.983Z</time>
      </trkpt>
      <trkpt lat="47.27777" lon="-2.29592">
        <ele>31</ele>
        <time>2021-05-23T08:54:35.983Z</time>
      </trkpt>
      <trkpt lat="47.27775" lon="-2.29592">
        <ele>32</ele>
        <time>2021-05-23T08:54:36.982Z</time>
      </trkpt>
      <trkpt lat="47.27773" lon="-2.29592">
        <ele>32</ele>
        <time>2021-05-23T08:54:37.982Z</time>
      </trkpt>
      <trkpt lat="47.27772" lon="-2.2959">
        <ele>32</ele>
        <time>2021-05-23T08:54:38.983Z</time>
      </trkpt>
      <trkpt lat="47.2777" lon="-2.29588">
        <ele>33</ele>
        <time>2021-05-23T08:54:39.983Z</time>
      </trkpt>
      <trkpt lat="47.27769" lon="-2.29586">
        <ele>33</ele>
        <time>2021-05-23T08:54:40.983Z</time>
      </trkpt>
      <trkpt lat="47.27767" lon="-2.29583">
        <ele>33</ele>
        <time>2021-05-23T08:54:41.983Z</time>
      </trkpt>
      <trkpt lat="47.27765" lon="-2.2958">
        <ele>33</ele>
        <time>2021-05-23T08:54:42.983Z</time>
      </trkpt>
      <trkpt lat="47.27764" lon="-2.29576">
        <ele>33</ele>
        <time>2021-05-23T08:54:43.983Z</time>
      </trkpt>
      <trkpt lat="47.27762" lon="-2.29573">
        <ele>33</ele>
        <time>2021-05-23T08:54:44.982Z</time>
      </trkpt>
      <trkpt lat="47.27761" lon="-2.2957">
        <ele>32</ele>
        <time>2021-05-23T08:54:45.982Z</time>
      </trkpt>
      <trkpt lat="47.27759" lon="-2.29567">
        <ele>32</ele>
        <time>2021-05-23T08:54:46.982Z</time>
      </trkpt>
      <trkpt lat="47.27757" lon="-2.29565">
        <ele>33</ele>
        <time>2021-05-23T08:54:47.982Z</time>
      </trkpt>
      <trkpt lat="47.27755" lon="-2.29562">
        <ele>32</ele>
        <time>2021-05-23T08:54:48.983Z</time>
      </trkpt>
      <trkpt lat="47.27754" lon="-2.29561">
        <ele>32</ele>
        <time>2021-05-23T08:54:49.983Z</time>
      </trkpt>
      <trkpt lat="47.27752" lon="-2.29558">
        <ele>32</ele>
        <time>2021-05-23T08:54:50.983Z</time>
      </trkpt>
      <trkpt lat="47.2775" lon="-2.29556">
        <ele>32</ele>
        <time>2021-05-23T08:54:51.982Z</time>
      </trkpt>
      <trkpt lat="47.27749" lon="-2.29554">
        <ele>32</ele>
        <time>2021-05-23T08:54:52.983Z</time>
      </trkpt>
      <trkpt lat="47.27748" lon="-2.29552">
        <ele>32</ele>
        <time>2021-05-23T08:54:53.982Z</time>
      </trkpt>
      <trkpt lat="47.27747" lon="-2.2955">
        <ele>32</ele>
        <time>2021-05-23T08:54:54.983Z</time>
      </trkpt>
      <trkpt lat="47.27745" lon="-2.29548">
        <ele>32</ele>
        <time>2021-05-23T08:54:55.982Z</time>
      </trkpt>
      <trkpt lat="47.27744" lon="-2.29546">
        <ele>33</ele>
        <time>2021-05-23T08:54:56.983Z</time>
      </trkpt>
      <trkpt lat="47.27742" lon="-2.29545">
        <ele>33</ele>
        <time>2021-05-23T08:54:57.983Z</time>
      </trkpt>
      <trkpt lat="47.2774" lon="-2.29543">
        <ele>33</ele>
        <time>2021-05-23T08:54:58.983Z</time>
      </trkpt>
      <trkpt lat="47.27736" lon="-2.2954">
        <ele>34</ele>
        <time>2021-05-23T08:54:59.983Z</time>
      </trkpt>
      <trkpt lat="47.27733" lon="-2.29538">
        <ele>34</ele>
        <time>2021-05-23T08:55:00.983Z</time>
      </trkpt>
      <trkpt lat="47.2773" lon="-2.29536">
        <ele>34</ele>
        <time>2021-05-23T08:55:01.983Z</time>
      </trkpt>
      <trkpt lat="47.27727" lon="-2.29534">
        <ele>33</ele>
        <time>2021-05-23T08:55:02.983Z</time>
      </trkpt>
      <trkpt lat="47.27724" lon="-2.29531">
        <ele>33</ele>
        <time>2021-05-23T08:55:03.983Z</time>
      </trkpt>
      <trkpt lat="47.27721" lon="-2.29529">
        <ele>32</ele>
        <time>2021-05-23T08:55:04.983Z</time>
      </trkpt>
      <trkpt lat="47.27719" lon="-2.29526">
        <ele>32</ele>
        <time>2021-05-23T08:55:05.983Z</time>
      </trkpt>
      <trkpt lat="47.27717" lon="-2.29524">
        <ele>32</ele>
        <time>2021-05-23T08:55:06.983Z</time>
      </trkpt>
      <trkpt lat="47.27716" lon="-2.29522">
        <ele>32</ele>
        <time>2021-05-23T08:55:07.983Z</time>
      </trkpt>
      <trkpt lat="47.27713" lon="-2.29519">
        <ele>32</ele>
        <time>2021-05-23T08:55:08.983Z</time>
      </trkpt>
      <trkpt lat="47.27711" lon="-2.29517">
        <ele>32</ele>
        <time>2021-05-23T08:55:09.983Z</time>
      </trkpt>
      <trkpt lat="47.2771" lon="-2.29516">
        <ele>33</ele>
        <time>2021-05-23T08:55:10.983Z</time>
      </trkpt>
      <trkpt lat="47.27708" lon="-2.29514">
        <ele>33</ele>
        <time>2021-05-23T08:55:11.983Z</time>
      </trkpt>
      <trkpt lat="47.27707" lon="-2.29513">
        <ele>34</ele>
        <time>2021-05-23T08:55:12.983Z</time>
      </trkpt>
      <trkpt lat="47.27704" lon="-2.29511">
        <ele>34</ele>
        <time>2021-05-23T08:55:13.983Z</time>
      </trkpt>
      <trkpt lat="47.27702" lon="-2.2951">
        <ele>34</ele>
        <time>2021-05-23T08:55:14.983Z</time>
      </trkpt>
      <trkpt lat="47.277" lon="-2.29509">
        <ele>33</ele>
        <time>2021-05-23T08:55:15.983Z</time>
      </trkpt>
      <trkpt lat="47.27698" lon="-2.29507">
        <ele>33</ele>
        <time>2021-05-23T08:55:16.983Z</time>
      </trkpt>
      <trkpt lat="47.27694" lon="-2.29505">
        <ele>32</ele>
        <time>2021-05-23T08:55:17.982Z</time>
      </trkpt>
      <trkpt lat="47.27691" lon="-2.29503">
        <ele>31</ele>
        <time>2021-05-23T08:55:18.982Z</time>
      </trkpt>
      <trkpt lat="47.27689" lon="-2.29501">
        <ele>31</ele>
        <time>2021-05-23T08:55:19.982Z</time>
      </trkpt>
      <trkpt lat="47.27687" lon="-2.29499">
        <ele>31</ele>
        <time>2021-05-23T08:55:20.982Z</time>
      </trkpt>
      <trkpt lat="47.27684" lon="-2.29497">
        <ele>30</ele>
        <time>2021-05-23T08:55:21.983Z</time>
      </trkpt>
      <trkpt lat="47.27681" lon="-2.29494">
        <ele>30</ele>
        <time>2021-05-23T08:55:22.983Z</time>
      </trkpt>
      <trkpt lat="47.27679" lon="-2.29492">
        <ele>30</ele>
        <time>2021-05-23T08:55:23.983Z</time>
      </trkpt>
      <trkpt lat="47.27677" lon="-2.29489">
        <ele>29</ele>
        <time>2021-05-23T08:55:24.983Z</time>
      </trkpt>
      <trkpt lat="47.27676" lon="-2.29488">
        <ele>29</ele>
        <time>2021-05-23T08:55:25.983Z</time>
      </trkpt>
      <trkpt lat="47.27673" lon="-2.29485">
        <ele>30</ele>
        <time>2021-05-23T08:55:26.983Z</time>
      </trkpt>
      <trkpt lat="47.27671" lon="-2.29483">
        <ele>30</ele>
        <time>2021-05-23T08:55:27.983Z</time>
      </trkpt>
      <trkpt lat="47.27669" lon="-2.29481">
        <ele>30</ele>
        <time>2021-05-23T08:55:28.983Z</time>
      </trkpt>
      <trkpt lat="47.27667" lon="-2.29479">
        <ele>30</ele>
        <time>2021-05-23T08:55:29.983Z</time>
      </trkpt>
      <trkpt lat="47.27665" lon="-2.29477">
        <ele>30</ele>
        <time>2021-05-23T08:55:30.983Z</time>
      </trkpt>
      <trkpt lat="47.27663" lon="-2.29475">
        <ele>30</ele>
        <time>2021-05-23T08:55:31.983Z</time>
      </trkpt>
      <trkpt lat="47.2766" lon="-2.29473">
        <ele>30</ele>
        <time>2021-05-23T08:55:32.982Z</time>
      </trkpt>
      <trkpt lat="47.27658" lon="-2.29471">
        <ele>30</ele>
        <time>2021-05-23T08:55:33.983Z</time>
      </trkpt>
      <trkpt lat="47.27655" lon="-2.29468">
        <ele>30</ele>
        <time>2021-05-23T08:55:34.983Z</time>
      </trkpt>
      <trkpt lat="47.27652" lon="-2.29467">
        <ele>30</ele>
        <time>2021-05-23T08:55:35.983Z</time>
      </trkpt>
      <trkpt lat="47.2765" lon="-2.29465">
        <ele>30</ele>
        <time>2021-05-23T08:55:36.983Z</time>
      </trkpt>
      <trkpt lat="47.27648" lon="-2.29463">
        <ele>30</ele>
        <time>2021-05-23T08:55:37.982Z</time>
      </trkpt>
      <trkpt lat="47.27645" lon="-2.29461">
        <ele>29</ele>
        <time>2021-05-23T08:55:38.982Z</time>
      </trkpt>
      <trkpt lat="47.27643" lon="-2.29459">
        <ele>29</ele>
        <time>2021-05-23T08:55:39.983Z</time>
      </trkpt>
      <trkpt lat="47.2764" lon="-2.29457">
        <ele>29</ele>
        <time>2021-05-23T08:55:40.983Z</time>
      </trkpt>
      <trkpt lat="47.27639" lon="-2.29455">
        <ele>28</ele>
        <time>2021-05-23T08:55:41.983Z</time>
      </trkpt>
      <trkpt lat="47.27637" lon="-2.29454">
        <ele>28</ele>
        <time>2021-05-23T08:55:42.983Z</time>
      </trkpt>
      <trkpt lat="47.27635" lon="-2.29451">
        <ele>28</ele>
        <time>2021-05-23T08:55:43.983Z</time>
      </trkpt>
      <trkpt lat="47.27632" lon="-2.29449">
        <ele>27</ele>
        <time>2021-05-23T08:55:44.982Z</time>
      </trkpt>
      <trkpt lat="47.2763" lon="-2.29447">
        <ele>27</ele>
        <time>2021-05-23T08:55:45.982Z</time>
      </trkpt>
      <trkpt lat="47.27628" lon="-2.29445">
        <ele>27</ele>
        <time>2021-05-23T08:55:46.983Z</time>
      </trkpt>
      <trkpt lat="47.27626" lon="-2.29443">
        <ele>28</ele>
        <time>2021-05-23T08:55:47.982Z</time>
      </trkpt>
      <trkpt lat="47.27624" lon="-2.29441">
        <ele>28</ele>
        <time>2021-05-23T08:55:48.983Z</time>
      </trkpt>
      <trkpt lat="47.27622" lon="-2.29438">
        <ele>28</ele>
        <time>2021-05-23T08:55:49.983Z</time>
      </trkpt>
      <trkpt lat="47.2762" lon="-2.29436">
        <ele>28</ele>
        <time>2021-05-23T08:55:50.982Z</time>
      </trkpt>
      <trkpt lat="47.27617" lon="-2.29433">
        <ele>28</ele>
        <time>2021-05-23T08:55:51.983Z</time>
      </trkpt>
      <trkpt lat="47.27615" lon="-2.29431">
        <ele>28</ele>
        <time>2021-05-23T08:55:52.982Z</time>
      </trkpt>
      <trkpt lat="47.27612" lon="-2.29429">
        <ele>28</ele>
        <time>2021-05-23T08:55:53.983Z</time>
      </trkpt>
      <trkpt lat="47.2761" lon="-2.29428">
        <ele>27</ele>
        <time>2021-05-23T08:55:54.982Z</time>
      </trkpt>
      <trkpt lat="47.27608" lon="-2.29426">
        <ele>27</ele>
        <time>2021-05-23T08:55:55.983Z</time>
      </trkpt>
      <trkpt lat="47.27606" lon="-2.29425">
        <ele>27</ele>
        <time>2021-05-23T08:55:56.982Z</time>
      </trkpt>
      <trkpt lat="47.27604" lon="-2.29424">
        <ele>26</ele>
        <time>2021-05-23T08:55:57.982Z</time>
      </trkpt>
      <trkpt lat="47.27602" lon="-2.29422">
        <ele>26</ele>
        <time>2021-05-23T08:55:58.983Z</time>
      </trkpt>
      <trkpt lat="47.276" lon="-2.29421">
        <ele>26</ele>
        <time>2021-05-23T08:55:59.983Z</time>
      </trkpt>
      <trkpt lat="47.27599" lon="-2.29419">
        <ele>26</ele>
        <time>2021-05-23T08:56:00.982Z</time>
      </trkpt>
      <trkpt lat="47.27597" lon="-2.29417">
        <ele>27</ele>
        <time>2021-05-23T08:56:01.983Z</time>
      </trkpt>
      <trkpt lat="47.27595" lon="-2.29415">
        <ele>28</ele>
        <time>2021-05-23T08:56:02.982Z</time>
      </trkpt>
      <trkpt lat="47.27593" lon="-2.29413">
        <ele>28</ele>
        <time>2021-05-23T08:56:03.983Z</time>
      </trkpt>
      <trkpt lat="47.27591" lon="-2.29411">
        <ele>29</ele>
        <time>2021-05-23T08:56:04.982Z</time>
      </trkpt>
      <trkpt lat="47.27589" lon="-2.29408">
        <ele>29</ele>
        <time>2021-05-23T08:56:05.982Z</time>
      </trkpt>
      <trkpt lat="47.27587" lon="-2.29406">
        <ele>29</ele>
        <time>2021-05-23T08:56:06.983Z</time>
      </trkpt>
      <trkpt lat="47.27585" lon="-2.29404">
        <ele>29</ele>
        <time>2021-05-23T08:56:07.983Z</time>
      </trkpt>
      <trkpt lat="47.27583" lon="-2.29403">
        <ele>30</ele>
        <time>2021-05-23T08:56:08.983Z</time>
      </trkpt>
      <trkpt lat="47.2758" lon="-2.294">
        <ele>30</ele>
        <time>2021-05-23T08:56:09.982Z</time>
      </trkpt>
      <trkpt lat="47.27578" lon="-2.29399">
        <ele>30</ele>
        <time>2021-05-23T08:56:10.982Z</time>
      </trkpt>
      <trkpt lat="47.27576" lon="-2.29397">
        <ele>30</ele>
        <time>2021-05-23T08:56:11.983Z</time>
      </trkpt>
      <trkpt lat="47.27573" lon="-2.29395">
        <ele>31</ele>
        <time>2021-05-23T08:56:12.983Z</time>
      </trkpt>
      <trkpt lat="47.27571" lon="-2.29392">
        <ele>30</ele>
        <time>2021-05-23T08:56:13.983Z</time>
      </trkpt>
      <trkpt lat="47.27568" lon="-2.2939">
        <ele>30</ele>
        <time>2021-05-23T08:56:14.983Z</time>
      </trkpt>
      <trkpt lat="47.27566" lon="-2.29388">
        <ele>30</ele>
        <time>2021-05-23T08:56:15.983Z</time>
      </trkpt>
      <trkpt lat="47.27565" lon="-2.29385">
        <ele>30</ele>
        <time>2021-05-23T08:56:16.982Z</time>
      </trkpt>
      <trkpt lat="47.27564" lon="-2.29383">
        <ele>31</ele>
        <time>2021-05-23T08:56:17.982Z</time>
      </trkpt>
      <trkpt lat="47.27562" lon="-2.29382">
        <ele>31</ele>
        <time>2021-05-23T08:56:18.982Z</time>
      </trkpt>
      <trkpt lat="47.2756" lon="-2.2938">
        <ele>31</ele>
        <time>2021-05-23T08:56:19.982Z</time>
      </trkpt>
      <trkpt lat="47.27558" lon="-2.29379">
        <ele>31</ele>
        <time>2021-05-23T08:56:20.983Z</time>
      </trkpt>
      <trkpt lat="47.27556" lon="-2.29377">
        <ele>31</ele>
        <time>2021-05-23T08:56:21.983Z</time>
      </trkpt>
      <trkpt lat="47.27554" lon="-2.29375">
        <ele>31</ele>
        <time>2021-05-23T08:56:22.982Z</time>
      </trkpt>
      <trkpt lat="47.27552" lon="-2.29373">
        <ele>31</ele>
        <time>2021-05-23T08:56:23.983Z</time>
      </trkpt>
      <trkpt lat="47.2755" lon="-2.29371">
        <ele>31</ele>
        <time>2021-05-23T08:56:24.982Z</time>
      </trkpt>
      <trkpt lat="47.27549" lon="-2.2937">
        <ele>31</ele>
        <time>2021-05-23T08:56:25.982Z</time>
      </trkpt>
      <trkpt lat="47.27547" lon="-2.29367">
        <ele>31</ele>
        <time>2021-05-23T08:56:26.982Z</time>
      </trkpt>
      <trkpt lat="47.27544" lon="-2.29365">
        <ele>30</ele>
        <time>2021-05-23T08:56:27.983Z</time>
      </trkpt>
      <trkpt lat="47.27542" lon="-2.29363">
        <ele>30</ele>
        <time>2021-05-23T08:56:28.982Z</time>
      </trkpt>
      <trkpt lat="47.2754" lon="-2.29361">
        <ele>30</ele>
        <time>2021-05-23T08:56:29.982Z</time>
      </trkpt>
      <trkpt lat="47.27538" lon="-2.29359">
        <ele>30</ele>
        <time>2021-05-23T08:56:30.983Z</time>
      </trkpt>
      <trkpt lat="47.27536" lon="-2.29356">
        <ele>30</ele>
        <time>2021-05-23T08:56:31.982Z</time>
      </trkpt>
      <trkpt lat="47.27534" lon="-2.29354">
        <ele>30</ele>
        <time>2021-05-23T08:56:32.982Z</time>
      </trkpt>
      <trkpt lat="47.27532" lon="-2.29352">
        <ele>30</ele>
        <time>2021-05-23T08:56:33.983Z</time>
      </trkpt>
      <trkpt lat="47.27529" lon="-2.29351">
        <ele>30</ele>
        <time>2021-05-23T08:56:34.982Z</time>
      </trkpt>
      <trkpt lat="47.27527" lon="-2.29349">
        <ele>30</ele>
        <time>2021-05-23T08:56:35.982Z</time>
      </trkpt>
      <trkpt lat="47.27524" lon="-2.29347">
        <ele>30</ele>
        <time>2021-05-23T08:56:36.982Z</time>
      </trkpt>
      <trkpt lat="47.27522" lon="-2.29345">
        <ele>30</ele>
        <time>2021-05-23T08:56:37.982Z</time>
      </trkpt>
      <trkpt lat="47.27519" lon="-2.29344">
        <ele>30</ele>
        <time>2021-05-23T08:56:38.983Z</time>
      </trkpt>
      <trkpt lat="47.27516" lon="-2.29342">
        <ele>30</ele>
        <time>2021-05-23T08:56:39.982Z</time>
      </trkpt>
      <trkpt lat="47.27513" lon="-2.29341">
        <ele>29</ele>
        <time>2021-05-23T08:56:40.982Z</time>
      </trkpt>
      <trkpt lat="47.2751" lon="-2.2934">
        <ele>29</ele>
        <time>2021-05-23T08:56:41.983Z</time>
      </trkpt>
      <trkpt lat="47.27508" lon="-2.29338">
        <ele>29</ele>
        <time>2021-05-23T08:56:42.982Z</time>
      </trkpt>
      <trkpt lat="47.27505" lon="-2.29337">
        <ele>28</ele>
        <time>2021-05-23T08:56:43.983Z</time>
      </trkpt>
      <trkpt lat="47.27502" lon="-2.29336">
        <ele>27</ele>
        <time>2021-05-23T08:56:44.982Z</time>
      </trkpt>
      <trkpt lat="47.27499" lon="-2.29334">
        <ele>27</ele>
        <time>2021-05-23T08:56:45.982Z</time>
      </trkpt>
      <trkpt lat="47.27497" lon="-2.29332">
        <ele>26</ele>
        <time>2021-05-23T08:56:46.982Z</time>
      </trkpt>
      <trkpt lat="47.27496" lon="-2.2933">
        <ele>26</ele>
        <time>2021-05-23T08:56:47.982Z</time>
      </trkpt>
      <trkpt lat="47.27494" lon="-2.29328">
        <ele>26</ele>
        <time>2021-05-23T08:56:48.982Z</time>
      </trkpt>
      <trkpt lat="47.27492" lon="-2.29325">
        <ele>26</ele>
        <time>2021-05-23T08:56:49.983Z</time>
      </trkpt>
      <trkpt lat="47.2749" lon="-2.29322">
        <ele>26</ele>
        <time>2021-05-23T08:56:50.983Z</time>
      </trkpt>
      <trkpt lat="47.2749" lon="-2.2932">
        <ele>26</ele>
        <time>2021-05-23T08:56:51.982Z</time>
      </trkpt>
      <trkpt lat="47.2749" lon="-2.29317">
        <ele>26</ele>
        <time>2021-05-23T08:56:52.983Z</time>
      </trkpt>
      <trkpt lat="47.2749" lon="-2.29313">
        <ele>26</ele>
        <time>2021-05-23T08:56:53.983Z</time>
      </trkpt>
      <trkpt lat="47.27491" lon="-2.2931">
        <ele>26</ele>
        <time>2021-05-23T08:56:54.983Z</time>
      </trkpt>
      <trkpt lat="47.27493" lon="-2.29307">
        <ele>26</ele>
        <time>2021-05-23T08:56:55.983Z</time>
      </trkpt>
      <trkpt lat="47.27495" lon="-2.29304">
        <ele>26</ele>
        <time>2021-05-23T08:56:56.982Z</time>
      </trkpt>
      <trkpt lat="47.27497" lon="-2.29302">
        <ele>25</ele>
        <time>2021-05-23T08:56:57.982Z</time>
      </trkpt>
      <trkpt lat="47.27499" lon="-2.29299">
        <ele>25</ele>
        <time>2021-05-23T08:56:58.983Z</time>
      </trkpt>
      <trkpt lat="47.27501" lon="-2.29295">
        <ele>25</ele>
        <time>2021-05-23T08:56:59.983Z</time>
      </trkpt>
      <trkpt lat="47.27504" lon="-2.29293">
        <ele>25</ele>
        <time>2021-05-23T08:57:00.983Z</time>
      </trkpt>
      <trkpt lat="47.27506" lon="-2.29291">
        <ele>24</ele>
        <time>2021-05-23T08:57:01.982Z</time>
      </trkpt>
      <trkpt lat="47.27508" lon="-2.29289">
        <ele>24</ele>
        <time>2021-05-23T08:57:02.983Z</time>
      </trkpt>
      <trkpt lat="47.2751" lon="-2.29286">
        <ele>24</ele>
        <time>2021-05-23T08:57:03.983Z</time>
      </trkpt>
      <trkpt lat="47.27513" lon="-2.29284">
        <ele>24</ele>
        <time>2021-05-23T08:57:04.982Z</time>
      </trkpt>
      <trkpt lat="47.27516" lon="-2.29282">
        <ele>25</ele>
        <time>2021-05-23T08:57:05.983Z</time>
      </trkpt>
      <trkpt lat="47.27518" lon="-2.29279">
        <ele>26</ele>
        <time>2021-05-23T08:57:06.982Z</time>
      </trkpt>
      <trkpt lat="47.2752" lon="-2.29277">
        <ele>26</ele>
        <time>2021-05-23T08:57:07.983Z</time>
      </trkpt>
      <trkpt lat="47.27522" lon="-2.29274">
        <ele>27</ele>
        <time>2021-05-23T08:57:08.982Z</time>
      </trkpt>
      <trkpt lat="47.27524" lon="-2.29271">
        <ele>27</ele>
        <time>2021-05-23T08:57:09.982Z</time>
      </trkpt>
      <trkpt lat="47.27526" lon="-2.29269">
        <ele>27</ele>
        <time>2021-05-23T08:57:10.982Z</time>
      </trkpt>
      <trkpt lat="47.27528" lon="-2.29266">
        <ele>27</ele>
        <time>2021-05-23T08:57:11.982Z</time>
      </trkpt>
      <trkpt lat="47.2753" lon="-2.29264">
        <ele>27</ele>
        <time>2021-05-23T08:57:12.982Z</time>
      </trkpt>
      <trkpt lat="47.27532" lon="-2.2926">
        <ele>27</ele>
        <time>2021-05-23T08:57:13.983Z</time>
      </trkpt>
      <trkpt lat="47.27533" lon="-2.29258">
        <ele>26</ele>
        <time>2021-05-23T08:57:14.982Z</time>
      </trkpt>
      <trkpt lat="47.27536" lon="-2.29255">
        <ele>26</ele>
        <time>2021-05-23T08:57:15.982Z</time>
      </trkpt>
      <trkpt lat="47.27538" lon="-2.29252">
        <ele>26</ele>
        <time>2021-05-23T08:57:16.982Z</time>
      </trkpt>
      <trkpt lat="47.2754" lon="-2.2925">
        <ele>26</ele>
        <time>2021-05-23T08:57:17.983Z</time>
      </trkpt>
      <trkpt lat="47.27541" lon="-2.29248">
        <ele>25</ele>
        <time>2021-05-23T08:57:18.983Z</time>
      </trkpt>
      <trkpt lat="47.27543" lon="-2.29246">
        <ele>25</ele>
        <time>2021-05-23T08:57:19.983Z</time>
      </trkpt>
      <trkpt lat="47.27544" lon="-2.29243">
        <ele>25</ele>
        <time>2021-05-23T08:57:20.982Z</time>
      </trkpt>
      <trkpt lat="47.27546" lon="-2.2924">
        <ele>26</ele>
        <time>2021-05-23T08:57:21.983Z</time>
      </trkpt>
      <trkpt lat="47.27548" lon="-2.29237">
        <ele>26</ele>
        <time>2021-05-23T08:57:22.983Z</time>
      </trkpt>
      <trkpt lat="47.2755" lon="-2.29234">
        <ele>26</ele>
        <time>2021-05-23T08:57:23.982Z</time>
      </trkpt>
      <trkpt lat="47.27552" lon="-2.29231">
        <ele>26</ele>
        <time>2021-05-23T08:57:24.983Z</time>
      </trkpt>
      <trkpt lat="47.27553" lon="-2.29229">
        <ele>26</ele>
        <time>2021-05-23T08:57:25.983Z</time>
      </trkpt>
      <trkpt lat="47.27555" lon="-2.29227">
        <ele>26</ele>
        <time>2021-05-23T08:57:26.983Z</time>
      </trkpt>
      <trkpt lat="47.27557" lon="-2.29225">
        <ele>26</ele>
        <time>2021-05-23T08:57:27.982Z</time>
      </trkpt>
      <trkpt lat="47.2756" lon="-2.29223">
        <ele>26</ele>
        <time>2021-05-23T08:57:28.982Z</time>
      </trkpt>
      <trkpt lat="47.27561" lon="-2.2922">
        <ele>26</ele>
        <time>2021-05-23T08:57:29.982Z</time>
      </trkpt>
      <trkpt lat="47.27564" lon="-2.29216">
        <ele>26</ele>
        <time>2021-05-23T08:57:30.983Z</time>
      </trkpt>
      <trkpt lat="47.27566" lon="-2.29214">
        <ele>26</ele>
        <time>2021-05-23T08:57:31.982Z</time>
      </trkpt>
      <trkpt lat="47.27569" lon="-2.29211">
        <ele>26</ele>
        <time>2021-05-23T08:57:32.983Z</time>
      </trkpt>
      <trkpt lat="47.2757" lon="-2.29209">
        <ele>26</ele>
        <time>2021-05-23T08:57:33.982Z</time>
      </trkpt>
      <trkpt lat="47.27571" lon="-2.29207">
        <ele>26</ele>
        <time>2021-05-23T08:57:34.982Z</time>
      </trkpt>
      <trkpt lat="47.27574" lon="-2.29204">
        <ele>26</ele>
        <time>2021-05-23T08:57:35.982Z</time>
      </trkpt>
      <trkpt lat="47.27576" lon="-2.29201">
        <ele>25</ele>
        <time>2021-05-23T08:57:36.982Z</time>
      </trkpt>
      <trkpt lat="47.27578" lon="-2.29198">
        <ele>25</ele>
        <time>2021-05-23T08:57:37.983Z</time>
      </trkpt>
      <trkpt lat="47.27579" lon="-2.29196">
        <ele>25</ele>
        <time>2021-05-23T08:57:38.982Z</time>
      </trkpt>
      <trkpt lat="47.27581" lon="-2.29194">
        <ele>24</ele>
        <time>2021-05-23T08:57:39.982Z</time>
      </trkpt>
      <trkpt lat="47.27582" lon="-2.29192">
        <ele>24</ele>
        <time>2021-05-23T08:57:40.983Z</time>
      </trkpt>
      <trkpt lat="47.27584" lon="-2.29189">
        <ele>24</ele>
        <time>2021-05-23T08:57:41.982Z</time>
      </trkpt>
      <trkpt lat="47.27585" lon="-2.29187">
        <ele>24</ele>
        <time>2021-05-23T08:57:42.983Z</time>
      </trkpt>
      <trkpt lat="47.27587" lon="-2.29184">
        <ele>24</ele>
        <time>2021-05-23T08:57:43.982Z</time>
      </trkpt>
      <trkpt lat="47.27589" lon="-2.29182">
        <ele>24</ele>
        <time>2021-05-23T08:57:44.982Z</time>
      </trkpt>
      <trkpt lat="47.27591" lon="-2.2918">
        <ele>24</ele>
        <time>2021-05-23T08:57:45.982Z</time>
      </trkpt>
      <trkpt lat="47.27593" lon="-2.29177">
        <ele>24</ele>
        <time>2021-05-23T08:57:46.982Z</time>
      </trkpt>
      <trkpt lat="47.27595" lon="-2.29175">
        <ele>25</ele>
        <time>2021-05-23T08:57:47.982Z</time>
      </trkpt>
      <trkpt lat="47.27597" lon="-2.29173">
        <ele>25</ele>
        <time>2021-05-23T08:57:48.982Z</time>
      </trkpt>
      <trkpt lat="47.27599" lon="-2.2917">
        <ele>26</ele>
        <time>2021-05-23T08:57:49.983Z</time>
      </trkpt>
      <trkpt lat="47.27601" lon="-2.29168">
        <ele>26</ele>
        <time>2021-05-23T08:57:50.982Z</time>
      </trkpt>
      <trkpt lat="47.27603" lon="-2.29165">
        <ele>27</ele>
        <time>2021-05-23T08:57:51.982Z</time>
      </trkpt>
      <trkpt lat="47.27605" lon="-2.29163">
        <ele>27</ele>
        <time>2021-05-23T08:57:52.982Z</time>
      </trkpt>
      <trkpt lat="47.27607" lon="-2.2916">
        <ele>27</ele>
        <time>2021-05-23T08:57:53.982Z</time>
      </trkpt>
      <trkpt lat="47.27609" lon="-2.29158">
        <ele>27</ele>
        <time>2021-05-23T08:57:54.982Z</time>
      </trkpt>
      <trkpt lat="47.27611" lon="-2.29155">
        <ele>27</ele>
        <time>2021-05-23T08:57:55.982Z</time>
      </trkpt>
      <trkpt lat="47.27613" lon="-2.29152">
        <ele>27</ele>
        <time>2021-05-23T08:57:56.982Z</time>
      </trkpt>
      <trkpt lat="47.27614" lon="-2.2915">
        <ele>28</ele>
        <time>2021-05-23T08:57:57.982Z</time>
      </trkpt>
      <trkpt lat="47.27616" lon="-2.29147">
        <ele>28</ele>
        <time>2021-05-23T08:57:58.982Z</time>
      </trkpt>
      <trkpt lat="47.27617" lon="-2.29144">
        <ele>28</ele>
        <time>2021-05-23T08:57:59.982Z</time>
      </trkpt>
      <trkpt lat="47.27618" lon="-2.29141">
        <ele>28</ele>
        <time>2021-05-23T08:58:00.982Z</time>
      </trkpt>
      <trkpt lat="47.27619" lon="-2.29138">
        <ele>29</ele>
        <time>2021-05-23T08:58:01.983Z</time>
      </trkpt>
      <trkpt lat="47.27621" lon="-2.29135">
        <ele>29</ele>
        <time>2021-05-23T08:58:02.983Z</time>
      </trkpt>
      <trkpt lat="47.27622" lon="-2.29132">
        <ele>29</ele>
        <time>2021-05-23T08:58:03.982Z</time>
      </trkpt>
      <trkpt lat="47.27623" lon="-2.29128">
        <ele>30</ele>
        <time>2021-05-23T08:58:04.983Z</time>
      </trkpt>
      <trkpt lat="47.27625" lon="-2.29125">
        <ele>30</ele>
        <time>2021-05-23T08:58:05.982Z</time>
      </trkpt>
      <trkpt lat="47.27626" lon="-2.29122">
        <ele>30</ele>
        <time>2021-05-23T08:58:06.982Z</time>
      </trkpt>
      <trkpt lat="47.27627" lon="-2.29118">
        <ele>30</ele>
        <time>2021-05-23T08:58:07.983Z</time>
      </trkpt>
      <trkpt lat="47.27628" lon="-2.29115">
        <ele>30</ele>
        <time>2021-05-23T08:58:08.983Z</time>
      </trkpt>
      <trkpt lat="47.27631" lon="-2.29113">
        <ele>30</ele>
        <time>2021-05-23T08:58:09.982Z</time>
      </trkpt>
      <trkpt lat="47.27633" lon="-2.2911">
        <ele>30</ele>
        <time>2021-05-23T08:58:10.983Z</time>
      </trkpt>
      <trkpt lat="47.27636" lon="-2.29106">
        <ele>29</ele>
        <time>2021-05-23T08:58:11.983Z</time>
      </trkpt>
      <trkpt lat="47.27638" lon="-2.29102">
        <ele>29</ele>
        <time>2021-05-23T08:58:12.983Z</time>
      </trkpt>
      <trkpt lat="47.2764" lon="-2.29099">
        <ele>29</ele>
        <time>2021-05-23T08:58:13.982Z</time>
      </trkpt>
      <trkpt lat="47.27641" lon="-2.29095">
        <ele>29</ele>
        <time>2021-05-23T08:58:14.983Z</time>
      </trkpt>
      <trkpt lat="47.27643" lon="-2.29093">
        <ele>29</ele>
        <time>2021-05-23T08:58:15.983Z</time>
      </trkpt>
      <trkpt lat="47.27645" lon="-2.2909">
        <ele>29</ele>
        <time>2021-05-23T08:58:16.983Z</time>
      </trkpt>
      <trkpt lat="47.27646" lon="-2.29087">
        <ele>29</ele>
        <time>2021-05-23T08:58:17.983Z</time>
      </trkpt>
      <trkpt lat="47.27647" lon="-2.29085">
        <ele>29</ele>
        <time>2021-05-23T08:58:18.982Z</time>
      </trkpt>
      <trkpt lat="47.27649" lon="-2.29082">
        <ele>29</ele>
        <time>2021-05-23T08:58:19.983Z</time>
      </trkpt>
      <trkpt lat="47.27652" lon="-2.29079">
        <ele>30</ele>
        <time>2021-05-23T08:58:20.982Z</time>
      </trkpt>
      <trkpt lat="47.27653" lon="-2.29076">
        <ele>30</ele>
        <time>2021-05-23T08:58:21.983Z</time>
      </trkpt>
      <trkpt lat="47.27654" lon="-2.29073">
        <ele>31</ele>
        <time>2021-05-23T08:58:22.983Z</time>
      </trkpt>
      <trkpt lat="47.27655" lon="-2.29071">
        <ele>31</ele>
        <time>2021-05-23T08:58:23.982Z</time>
      </trkpt>
      <trkpt lat="47.27657" lon="-2.29067">
        <ele>31</ele>
        <time>2021-05-23T08:58:24.983Z</time>
      </trkpt>
      <trkpt lat="47.27659" lon="-2.29064">
        <ele>32</ele>
        <time>2021-05-23T08:58:25.982Z</time>
      </trkpt>
      <trkpt lat="47.2766" lon="-2.29061">
        <ele>32</ele>
        <time>2021-05-23T08:58:26.983Z</time>
      </trkpt>
      <trkpt lat="47.27662" lon="-2.29058">
        <ele>32</ele>
        <time>2021-05-23T08:58:27.983Z</time>
      </trkpt>
      <trkpt lat="47.27664" lon="-2.29056">
        <ele>32</ele>
        <time>2021-05-23T08:58:28.983Z</time>
      </trkpt>
      <trkpt lat="47.27666" lon="-2.29052">
        <ele>32</ele>
        <time>2021-05-23T08:58:29.982Z</time>
      </trkpt>
      <trkpt lat="47.27667" lon="-2.29049">
        <ele>32</ele>
        <time>2021-05-23T08:58:30.983Z</time>
      </trkpt>
      <trkpt lat="47.27669" lon="-2.29046">
        <ele>32</ele>
        <time>2021-05-23T08:58:31.983Z</time>
      </trkpt>
      <trkpt lat="47.2767" lon="-2.29043">
        <ele>32</ele>
        <time>2021-05-23T08:58:32.982Z</time>
      </trkpt>
      <trkpt lat="47.27671" lon="-2.29041">
        <ele>31</ele>
        <time>2021-05-23T08:58:33.982Z</time>
      </trkpt>
      <trkpt lat="47.27673" lon="-2.29038">
        <ele>32</ele>
        <time>2021-05-23T08:58:34.983Z</time>
      </trkpt>
      <trkpt lat="47.27675" lon="-2.29035">
        <ele>32</ele>
        <time>2021-05-23T08:58:35.982Z</time>
      </trkpt>
      <trkpt lat="47.27677" lon="-2.29032">
        <ele>32</ele>
        <time>2021-05-23T08:58:36.983Z</time>
      </trkpt>
      <trkpt lat="47.27678" lon="-2.2903">
        <ele>31</ele>
        <time>2021-05-23T08:58:37.982Z</time>
      </trkpt>
      <trkpt lat="47.27679" lon="-2.29028">
        <ele>31</ele>
        <time>2021-05-23T08:58:38.983Z</time>
      </trkpt>
      <trkpt lat="47.27681" lon="-2.29025">
        <ele>30</ele>
        <time>2021-05-23T08:58:39.983Z</time>
      </trkpt>
      <trkpt lat="47.27682" lon="-2.29023">
        <ele>30</ele>
        <time>2021-05-23T08:58:40.983Z</time>
      </trkpt>
      <trkpt lat="47.27684" lon="-2.2902">
        <ele>30</ele>
        <time>2021-05-23T08:58:41.983Z</time>
      </trkpt>
      <trkpt lat="47.27685" lon="-2.29017">
        <ele>30</ele>
        <time>2021-05-23T08:58:42.982Z</time>
      </trkpt>
      <trkpt lat="47.27687" lon="-2.29014">
        <ele>30</ele>
        <time>2021-05-23T08:58:43.983Z</time>
      </trkpt>
      <trkpt lat="47.27688" lon="-2.29011">
        <ele>30</ele>
        <time>2021-05-23T08:58:44.983Z</time>
      </trkpt>
      <trkpt lat="47.27689" lon="-2.29008">
        <ele>30</ele>
        <time>2021-05-23T08:58:45.983Z</time>
      </trkpt>
      <trkpt lat="47.27689" lon="-2.29004">
        <ele>29</ele>
        <time>2021-05-23T08:58:46.982Z</time>
      </trkpt>
      <trkpt lat="47.27689" lon="-2.29002">
        <ele>29</ele>
        <time>2021-05-23T08:58:47.982Z</time>
      </trkpt>
      <trkpt lat="47.2769" lon="-2.28998">
        <ele>29</ele>
        <time>2021-05-23T08:58:48.983Z</time>
      </trkpt>
      <trkpt lat="47.27692" lon="-2.28995">
        <ele>28</ele>
        <time>2021-05-23T08:58:49.983Z</time>
      </trkpt>
      <trkpt lat="47.27693" lon="-2.28992">
        <ele>28</ele>
        <time>2021-05-23T08:58:50.983Z</time>
      </trkpt>
      <trkpt lat="47.27694" lon="-2.2899">
        <ele>28</ele>
        <time>2021-05-23T08:58:51.983Z</time>
      </trkpt>
      <trkpt lat="47.27695" lon="-2.28987">
        <ele>28</ele>
        <time>2021-05-23T08:58:52.983Z</time>
      </trkpt>
      <trkpt lat="47.27697" lon="-2.28983">
        <ele>27</ele>
        <time>2021-05-23T08:58:53.983Z</time>
      </trkpt>
      <trkpt lat="47.27699" lon="-2.28979">
        <ele>27</ele>
        <time>2021-05-23T08:58:54.982Z</time>
      </trkpt>
      <trkpt lat="47.277" lon="-2.28976">
        <ele>27</ele>
        <time>2021-05-23T08:58:55.983Z</time>
      </trkpt>
      <trkpt lat="47.27701" lon="-2.28973">
        <ele>26</ele>
        <time>2021-05-23T08:58:56.982Z</time>
      </trkpt>
      <trkpt lat="47.27701" lon="-2.28969">
        <ele>26</ele>
        <time>2021-05-23T08:58:57.983Z</time>
      </trkpt>
      <trkpt lat="47.27703" lon="-2.28964">
        <ele>26</ele>
        <time>2021-05-23T08:58:58.982Z</time>
      </trkpt>
      <trkpt lat="47.27704" lon="-2.28961">
        <ele>27</ele>
        <time>2021-05-23T08:58:59.983Z</time>
      </trkpt>
      <trkpt lat="47.27705" lon="-2.28958">
        <ele>27</ele>
        <time>2021-05-23T08:59:00.983Z</time>
      </trkpt>
      <trkpt lat="47.27706" lon="-2.28954">
        <ele>27</ele>
        <time>2021-05-23T08:59:01.983Z</time>
      </trkpt>
      <trkpt lat="47.27707" lon="-2.28951">
        <ele>27</ele>
        <time>2021-05-23T08:59:02.983Z</time>
      </trkpt>
      <trkpt lat="47.27708" lon="-2.28949">
        <ele>27</ele>
        <time>2021-05-23T08:59:03.983Z</time>
      </trkpt>
      <trkpt lat="47.27709" lon="-2.28946">
        <ele>27</ele>
        <time>2021-05-23T08:59:04.983Z</time>
      </trkpt>
      <trkpt lat="47.27711" lon="-2.28944">
        <ele>27</ele>
        <time>2021-05-23T08:59:05.982Z</time>
      </trkpt>
      <trkpt lat="47.27713" lon="-2.28941">
        <ele>27</ele>
        <time>2021-05-23T08:59:06.983Z</time>
      </trkpt>
      <trkpt lat="47.27716" lon="-2.28938">
        <ele>27</ele>
        <time>2021-05-23T08:59:07.983Z</time>
      </trkpt>
      <trkpt lat="47.27718" lon="-2.28936">
        <ele>27</ele>
        <time>2021-05-23T08:59:08.982Z</time>
      </trkpt>
      <trkpt lat="47.27721" lon="-2.28933">
        <ele>27</ele>
        <time>2021-05-23T08:59:09.983Z</time>
      </trkpt>
      <trkpt lat="47.27722" lon="-2.2893">
        <ele>27</ele>
        <time>2021-05-23T08:59:10.983Z</time>
      </trkpt>
      <trkpt lat="47.27724" lon="-2.28927">
        <ele>28</ele>
        <time>2021-05-23T08:59:11.983Z</time>
      </trkpt>
      <trkpt lat="47.27726" lon="-2.28924">
        <ele>28</ele>
        <time>2021-05-23T08:59:12.983Z</time>
      </trkpt>
      <trkpt lat="47.27727" lon="-2.28921">
        <ele>28</ele>
        <time>2021-05-23T08:59:13.982Z</time>
      </trkpt>
      <trkpt lat="47.27728" lon="-2.28919">
        <ele>28</ele>
        <time>2021-05-23T08:59:14.983Z</time>
      </trkpt>
      <trkpt lat="47.2773" lon="-2.28915">
        <ele>28</ele>
        <time>2021-05-23T08:59:15.982Z</time>
      </trkpt>
      <trkpt lat="47.27732" lon="-2.28913">
        <ele>28</ele>
        <time>2021-05-23T08:59:16.982Z</time>
      </trkpt>
      <trkpt lat="47.27733" lon="-2.28911">
        <ele>28</ele>
        <time>2021-05-23T08:59:17.983Z</time>
      </trkpt>
      <trkpt lat="47.27735" lon="-2.28907">
        <ele>27</ele>
        <time>2021-05-23T08:59:18.983Z</time>
      </trkpt>
      <trkpt lat="47.27737" lon="-2.28905">
        <ele>27</ele>
        <time>2021-05-23T08:59:19.983Z</time>
      </trkpt>
      <trkpt lat="47.2774" lon="-2.28902">
        <ele>27</ele>
        <time>2021-05-23T08:59:20.982Z</time>
      </trkpt>
      <trkpt lat="47.27742" lon="-2.289">
        <ele>27</ele>
        <time>2021-05-23T08:59:21.982Z</time>
      </trkpt>
      <trkpt lat="47.27743" lon="-2.28898">
        <ele>27</ele>
        <time>2021-05-23T08:59:22.982Z</time>
      </trkpt>
      <trkpt lat="47.27744" lon="-2.28895">
        <ele>27</ele>
        <time>2021-05-23T08:59:23.983Z</time>
      </trkpt>
      <trkpt lat="47.27746" lon="-2.28892">
        <ele>26</ele>
        <time>2021-05-23T08:59:24.983Z</time>
      </trkpt>
      <trkpt lat="47.27748" lon="-2.28889">
        <ele>26</ele>
        <time>2021-05-23T08:59:25.982Z</time>
      </trkpt>
      <trkpt lat="47.2775" lon="-2.28887">
        <ele>26</ele>
        <time>2021-05-23T08:59:26.982Z</time>
      </trkpt>
      <trkpt lat="47.27752" lon="-2.28885">
        <ele>26</ele>
        <time>2021-05-23T08:59:27.983Z</time>
      </trkpt>
      <trkpt lat="47.27753" lon="-2.28883">
        <ele>25</ele>
        <time>2021-05-23T08:59:28.983Z</time>
      </trkpt>
      <trkpt lat="47.27754" lon="-2.28881">
        <ele>25</ele>
        <time>2021-05-23T08:59:29.983Z</time>
      </trkpt>
      <trkpt lat="47.27755" lon="-2.28878">
        <ele>25</ele>
        <time>2021-05-23T08:59:30.983Z</time>
      </trkpt>
      <trkpt lat="47.27757" lon="-2.28876">
        <ele>25</ele>
        <time>2021-05-23T08:59:31.982Z</time>
      </trkpt>
      <trkpt lat="47.27758" lon="-2.28873">
        <ele>25</ele>
        <time>2021-05-23T08:59:32.983Z</time>
      </trkpt>
      <trkpt lat="47.2776" lon="-2.2887">
        <ele>25</ele>
        <time>2021-05-23T08:59:33.982Z</time>
      </trkpt>
      <trkpt lat="47.27761" lon="-2.28868">
        <ele>26</ele>
        <time>2021-05-23T08:59:34.983Z</time>
      </trkpt>
      <trkpt lat="47.27763" lon="-2.28865">
        <ele>26</ele>
        <time>2021-05-23T08:59:35.983Z</time>
      </trkpt>
      <trkpt lat="47.27765" lon="-2.28862">
        <ele>27</ele>
        <time>2021-05-23T08:59:36.982Z</time>
      </trkpt>
      <trkpt lat="47.27768" lon="-2.28859">
        <ele>27</ele>
        <time>2021-05-23T08:59:37.982Z</time>
      </trkpt>
      <trkpt lat="47.2777" lon="-2.28856">
        <ele>28</ele>
        <time>2021-05-23T08:59:38.983Z</time>
      </trkpt>
      <trkpt lat="47.27773" lon="-2.28852">
        <ele>28</ele>
        <time>2021-05-23T08:59:39.983Z</time>
      </trkpt>
      <trkpt lat="47.27774" lon="-2.28849">
        <ele>28</ele>
        <time>2021-05-23T08:59:40.983Z</time>
      </trkpt>
      <trkpt lat="47.27776" lon="-2.28846">
        <ele>29</ele>
        <time>2021-05-23T08:59:41.983Z</time>
      </trkpt>
      <trkpt lat="47.27777" lon="-2.28844">
        <ele>29</ele>
        <time>2021-05-23T08:59:42.982Z</time>
      </trkpt>
      <trkpt lat="47.27779" lon="-2.28841">
        <ele>29</ele>
        <time>2021-05-23T08:59:43.982Z</time>
      </trkpt>
      <trkpt lat="47.27781" lon="-2.28838">
        <ele>28</ele>
        <time>2021-05-23T08:59:44.982Z</time>
      </trkpt>
      <trkpt lat="47.27782" lon="-2.28835">
        <ele>28</ele>
        <time>2021-05-23T08:59:45.983Z</time>
      </trkpt>
      <trkpt lat="47.27784" lon="-2.28832">
        <ele>27</ele>
        <time>2021-05-23T08:59:46.983Z</time>
      </trkpt>
      <trkpt lat="47.27786" lon="-2.28829">
        <ele>27</ele>
        <time>2021-05-23T08:59:47.983Z</time>
      </trkpt>
      <trkpt lat="47.27788" lon="-2.28825">
        <ele>26</ele>
        <time>2021-05-23T08:59:48.983Z</time>
      </trkpt>
      <trkpt lat="47.2779" lon="-2.2882">
        <ele>26</ele>
        <time>2021-05-23T08:59:49.983Z</time>
      </trkpt>
      <trkpt lat="47.27791" lon="-2.28816">
        <ele>26</ele>
        <time>2021-05-23T08:59:50.983Z</time>
      </trkpt>
      <trkpt lat="47.27791" lon="-2.28813">
        <ele>25</ele>
        <time>2021-05-23T08:59:51.983Z</time>
      </trkpt>
      <trkpt lat="47.27791" lon="-2.28809">
        <ele>25</ele>
        <time>2021-05-23T08:59:52.983Z</time>
      </trkpt>
      <trkpt lat="47.2779" lon="-2.28804">
        <ele>25</ele>
        <time>2021-05-23T08:59:53.983Z</time>
      </trkpt>
      <trkpt lat="47.27788" lon="-2.28801">
        <ele>25</ele>
        <time>2021-05-23T08:59:54.982Z</time>
      </trkpt>
      <trkpt lat="47.27783" lon="-2.288">
        <ele>24</ele>
        <time>2021-05-23T08:59:55.983Z</time>
      </trkpt>
      <trkpt lat="47.27782" lon="-2.28799">
        <ele>24</ele>
        <time>2021-05-23T08:59:56.983Z</time>
      </trkpt>
      <trkpt lat="47.27778" lon="-2.28798">
        <ele>23</ele>
        <time>2021-05-23T08:59:57.983Z</time>
      </trkpt>
      <trkpt lat="47.27775" lon="-2.28798">
        <ele>23</ele>
        <time>2021-05-23T08:59:58.983Z</time>
      </trkpt>
      <trkpt lat="47.27772" lon="-2.28799">
        <ele>23</ele>
        <time>2021-05-23T08:59:59.983Z</time>
      </trkpt>
      <trkpt lat="47.2777" lon="-2.288">
        <ele>23</ele>
        <time>2021-05-23T09:00:00.982Z</time>
      </trkpt>
      <trkpt lat="47.27767" lon="-2.288">
        <ele>23</ele>
        <time>2021-05-23T09:00:01.983Z</time>
      </trkpt>
      <trkpt lat="47.27764" lon="-2.28801">
        <ele>24</ele>
        <time>2021-05-23T09:00:02.983Z</time>
      </trkpt>
      <trkpt lat="47.27762" lon="-2.28802">
        <ele>24</ele>
        <time>2021-05-23T09:00:03.983Z</time>
      </trkpt>
      <trkpt lat="47.27759" lon="-2.28803">
        <ele>24</ele>
        <time>2021-05-23T09:00:04.983Z</time>
      </trkpt>
      <trkpt lat="47.27756" lon="-2.28803">
        <ele>25</ele>
        <time>2021-05-23T09:00:05.983Z</time>
      </trkpt>
      <trkpt lat="47.27753" lon="-2.28803">
        <ele>25</ele>
        <time>2021-05-23T09:00:06.982Z</time>
      </trkpt>
      <trkpt lat="47.2775" lon="-2.28804">
        <ele>25</ele>
        <time>2021-05-23T09:00:07.982Z</time>
      </trkpt>
      <trkpt lat="47.27748" lon="-2.28805">
        <ele>26</ele>
        <time>2021-05-23T09:00:08.982Z</time>
      </trkpt>
      <trkpt lat="47.27746" lon="-2.28806">
        <ele>26</ele>
        <time>2021-05-23T09:00:09.982Z</time>
      </trkpt>
      <trkpt lat="47.27744" lon="-2.28807">
        <ele>27</ele>
        <time>2021-05-23T09:00:10.982Z</time>
      </trkpt>
      <trkpt lat="47.27741" lon="-2.28808">
        <ele>27</ele>
        <time>2021-05-23T09:00:11.982Z</time>
      </trkpt>
      <trkpt lat="47.27738" lon="-2.28809">
        <ele>27</ele>
        <time>2021-05-23T09:00:12.983Z</time>
      </trkpt>
      <trkpt lat="47.27735" lon="-2.2881">
        <ele>28</ele>
        <time>2021-05-23T09:00:13.983Z</time>
      </trkpt>
      <trkpt lat="47.27732" lon="-2.28811">
        <ele>28</ele>
        <time>2021-05-23T09:00:14.982Z</time>
      </trkpt>
      <trkpt lat="47.2773" lon="-2.28812">
        <ele>28</ele>
        <time>2021-05-23T09:00:15.983Z</time>
      </trkpt>
      <trkpt lat="47.27727" lon="-2.28813">
        <ele>28</ele>
        <time>2021-05-23T09:00:16.982Z</time>
      </trkpt>
      <trkpt lat="47.27725" lon="-2.28813">
        <ele>28</ele>
        <time>2021-05-23T09:00:17.982Z</time>
      </trkpt>
      <trkpt lat="47.27723" lon="-2.28815">
        <ele>28</ele>
        <time>2021-05-23T09:00:18.982Z</time>
      </trkpt>
      <trkpt lat="47.27721" lon="-2.28816">
        <ele>28</ele>
        <time>2021-05-23T09:00:19.982Z</time>
      </trkpt>
      <trkpt lat="47.27718" lon="-2.28816">
        <ele>28</ele>
        <time>2021-05-23T09:00:20.983Z</time>
      </trkpt>
      <trkpt lat="47.27716" lon="-2.28817">
        <ele>27</ele>
        <time>2021-05-23T09:00:21.982Z</time>
      </trkpt>
      <trkpt lat="47.27713" lon="-2.28817">
        <ele>27</ele>
        <time>2021-05-23T09:00:22.983Z</time>
      </trkpt>
      <trkpt lat="47.27712" lon="-2.28817">
        <ele>26</ele>
        <time>2021-05-23T09:00:23.982Z</time>
      </trkpt>
      <trkpt lat="47.27709" lon="-2.28818">
        <ele>26</ele>
        <time>2021-05-23T09:00:24.982Z</time>
      </trkpt>
      <trkpt lat="47.27707" lon="-2.28818">
        <ele>26</ele>
        <time>2021-05-23T09:00:25.983Z</time>
      </trkpt>
      <trkpt lat="47.27705" lon="-2.28818">
        <ele>26</ele>
        <time>2021-05-23T09:00:26.983Z</time>
      </trkpt>
      <trkpt lat="47.27703" lon="-2.28817">
        <ele>26</ele>
        <time>2021-05-23T09:00:27.982Z</time>
      </trkpt>
      <trkpt lat="47.27702" lon="-2.28815">
        <ele>25</ele>
        <time>2021-05-23T09:00:28.983Z</time>
      </trkpt>
      <trkpt lat="47.277" lon="-2.28812">
        <ele>25</ele>
        <time>2021-05-23T09:00:29.983Z</time>
      </trkpt>
      <trkpt lat="47.27698" lon="-2.2881">
        <ele>25</ele>
        <time>2021-05-23T09:00:30.983Z</time>
      </trkpt>
      <trkpt lat="47.27697" lon="-2.28807">
        <ele>25</ele>
        <time>2021-05-23T09:00:31.983Z</time>
      </trkpt>
      <trkpt lat="47.27696" lon="-2.28805">
        <ele>24</ele>
        <time>2021-05-23T09:00:32.983Z</time>
      </trkpt>
      <trkpt lat="47.27695" lon="-2.28802">
        <ele>24</ele>
        <time>2021-05-23T09:00:33.983Z</time>
      </trkpt>
      <trkpt lat="47.27694" lon="-2.28799">
        <ele>24</ele>
        <time>2021-05-23T09:00:34.982Z</time>
      </trkpt>
      <trkpt lat="47.27692" lon="-2.28796">
        <ele>24</ele>
        <time>2021-05-23T09:00:35.983Z</time>
      </trkpt>
      <trkpt lat="47.27692" lon="-2.28793">
        <ele>24</ele>
        <time>2021-05-23T09:00:36.982Z</time>
      </trkpt>
      <trkpt lat="47.27692" lon="-2.28791">
        <ele>24</ele>
        <time>2021-05-23T09:00:37.982Z</time>
      </trkpt>
      <trkpt lat="47.2769" lon="-2.28787">
        <ele>24</ele>
        <time>2021-05-23T09:00:38.983Z</time>
      </trkpt>
      <trkpt lat="47.27689" lon="-2.28785">
        <ele>24</ele>
        <time>2021-05-23T09:00:39.982Z</time>
      </trkpt>
      <trkpt lat="47.27688" lon="-2.28782">
        <ele>24</ele>
        <time>2021-05-23T09:00:40.983Z</time>
      </trkpt>
      <trkpt lat="47.27685" lon="-2.2878">
        <ele>24</ele>
        <time>2021-05-23T09:00:41.982Z</time>
      </trkpt>
      <trkpt lat="47.27683" lon="-2.28778">
        <ele>24</ele>
        <time>2021-05-23T09:00:42.983Z</time>
      </trkpt>
      <trkpt lat="47.27681" lon="-2.28776">
        <ele>25</ele>
        <time>2021-05-23T09:00:43.983Z</time>
      </trkpt>
      <trkpt lat="47.27679" lon="-2.28775">
        <ele>25</ele>
        <time>2021-05-23T09:00:44.983Z</time>
      </trkpt>
      <trkpt lat="47.27677" lon="-2.28773">
        <ele>26</ele>
        <time>2021-05-23T09:00:45.982Z</time>
      </trkpt>
      <trkpt lat="47.27676" lon="-2.28772">
        <ele>26</ele>
        <time>2021-05-23T09:00:46.983Z</time>
      </trkpt>
      <trkpt lat="47.27675" lon="-2.28771">
        <ele>26</ele>
        <time>2021-05-23T09:00:47.982Z</time>
      </trkpt>
      <trkpt lat="47.27673" lon="-2.2877">
        <ele>26</ele>
        <time>2021-05-23T09:00:48.982Z</time>
      </trkpt>
      <trkpt lat="47.27672" lon="-2.28769">
        <ele>26</ele>
        <time>2021-05-23T09:00:49.983Z</time>
      </trkpt>
      <trkpt lat="47.27671" lon="-2.28768">
        <ele>26</ele>
        <time>2021-05-23T09:00:50.982Z</time>
      </trkpt>
      <trkpt lat="47.27668" lon="-2.28766">
        <ele>27</ele>
        <time>2021-05-23T09:00:51.983Z</time>
      </trkpt>
      <trkpt lat="47.27665" lon="-2.28764">
        <ele>27</ele>
        <time>2021-05-23T09:00:52.983Z</time>
      </trkpt>
      <trkpt lat="47.27663" lon="-2.28763">
        <ele>27</ele>
        <time>2021-05-23T09:00:53.982Z</time>
      </trkpt>
      <trkpt lat="47.27659" lon="-2.28762">
        <ele>27</ele>
        <time>2021-05-23T09:00:54.983Z</time>
      </trkpt>
      <trkpt lat="47.27656" lon="-2.28761">
        <ele>28</ele>
        <time>2021-05-23T09:00:55.983Z</time>
      </trkpt>
      <trkpt lat="47.27653" lon="-2.2876">
        <ele>28</ele>
        <time>2021-05-23T09:00:56.983Z</time>
      </trkpt>
      <trkpt lat="47.27651" lon="-2.28759">
        <ele>29</ele>
        <time>2021-05-23T09:00:57.982Z</time>
      </trkpt>
      <trkpt lat="47.27649" lon="-2.28759">
        <ele>30</ele>
        <time>2021-05-23T09:00:58.983Z</time>
      </trkpt>
      <trkpt lat="47.27648" lon="-2.28759">
        <ele>30</ele>
        <time>2021-05-23T09:00:59.982Z</time>
      </trkpt>
      <trkpt lat="47.27646" lon="-2.28759">
        <ele>31</ele>
        <time>2021-05-23T09:01:00.982Z</time>
      </trkpt>
      <trkpt lat="47.27644" lon="-2.28759">
        <ele>31</ele>
        <time>2021-05-23T09:01:01.983Z</time>
      </trkpt>
      <trkpt lat="47.27642" lon="-2.28758">
        <ele>31</ele>
        <time>2021-05-23T09:01:02.983Z</time>
      </trkpt>
      <trkpt lat="47.27639" lon="-2.28756">
        <ele>32</ele>
        <time>2021-05-23T09:01:03.983Z</time>
      </trkpt>
      <trkpt lat="47.27637" lon="-2.28755">
        <ele>32</ele>
        <time>2021-05-23T09:01:04.983Z</time>
      </trkpt>
      <trkpt lat="47.27635" lon="-2.28755">
        <ele>32</ele>
        <time>2021-05-23T09:01:05.982Z</time>
      </trkpt>
      <trkpt lat="47.27632" lon="-2.28754">
        <ele>33</ele>
        <time>2021-05-23T09:01:06.983Z</time>
      </trkpt>
      <trkpt lat="47.27629" lon="-2.28753">
        <ele>33</ele>
        <time>2021-05-23T09:01:07.982Z</time>
      </trkpt>
      <trkpt lat="47.27627" lon="-2.28752">
        <ele>33</ele>
        <time>2021-05-23T09:01:08.982Z</time>
      </trkpt>
      <trkpt lat="47.27625" lon="-2.28752">
        <ele>33</ele>
        <time>2021-05-23T09:01:09.983Z</time>
      </trkpt>
      <trkpt lat="47.27623" lon="-2.28751">
        <ele>33</ele>
        <time>2021-05-23T09:01:10.983Z</time>
      </trkpt>
      <trkpt lat="47.2762" lon="-2.2875">
        <ele>33</ele>
        <time>2021-05-23T09:01:11.983Z</time>
      </trkpt>
      <trkpt lat="47.27617" lon="-2.2875">
        <ele>33</ele>
        <time>2021-05-23T09:01:12.982Z</time>
      </trkpt>
      <trkpt lat="47.27615" lon="-2.28749">
        <ele>33</ele>
        <time>2021-05-23T09:01:13.983Z</time>
      </trkpt>
      <trkpt lat="47.27613" lon="-2.28748">
        <ele>32</ele>
        <time>2021-05-23T09:01:14.982Z</time>
      </trkpt>
      <trkpt lat="47.2761" lon="-2.28747">
        <ele>32</ele>
        <time>2021-05-23T09:01:15.983Z</time>
      </trkpt>
      <trkpt lat="47.27608" lon="-2.28746">
        <ele>32</ele>
        <time>2021-05-23T09:01:16.982Z</time>
      </trkpt>
      <trkpt lat="47.27606" lon="-2.28745">
        <ele>32</ele>
        <time>2021-05-23T09:01:17.983Z</time>
      </trkpt>
      <trkpt lat="47.27603" lon="-2.28744">
        <ele>33</ele>
        <time>2021-05-23T09:01:18.983Z</time>
      </trkpt>
      <trkpt lat="47.276" lon="-2.28742">
        <ele>33</ele>
        <time>2021-05-23T09:01:19.983Z</time>
      </trkpt>
      <trkpt lat="47.27598" lon="-2.2874">
        <ele>33</ele>
        <time>2021-05-23T09:01:20.982Z</time>
      </trkpt>
      <trkpt lat="47.27595" lon="-2.28739">
        <ele>33</ele>
        <time>2021-05-23T09:01:21.983Z</time>
      </trkpt>
      <trkpt lat="47.27592" lon="-2.28736">
        <ele>32</ele>
        <time>2021-05-23T09:01:22.982Z</time>
      </trkpt>
      <trkpt lat="47.27589" lon="-2.28734">
        <ele>32</ele>
        <time>2021-05-23T09:01:23.983Z</time>
      </trkpt>
      <trkpt lat="47.27587" lon="-2.28733">
        <ele>32</ele>
        <time>2021-05-23T09:01:24.983Z</time>
      </trkpt>
      <trkpt lat="47.27586" lon="-2.28732">
        <ele>31</ele>
        <time>2021-05-23T09:01:25.983Z</time>
      </trkpt>
      <trkpt lat="47.27584" lon="-2.2873">
        <ele>31</ele>
        <time>2021-05-23T09:01:26.982Z</time>
      </trkpt>
      <trkpt lat="47.27581" lon="-2.28729">
        <ele>30</ele>
        <time>2021-05-23T09:01:27.983Z</time>
      </trkpt>
      <trkpt lat="47.27579" lon="-2.28728">
        <ele>30</ele>
        <time>2021-05-23T09:01:28.983Z</time>
      </trkpt>
      <trkpt lat="47.27576" lon="-2.28728">
        <ele>29</ele>
        <time>2021-05-23T09:01:29.982Z</time>
      </trkpt>
      <trkpt lat="47.27574" lon="-2.28726">
        <ele>29</ele>
        <time>2021-05-23T09:01:30.983Z</time>
      </trkpt>
      <trkpt lat="47.27571" lon="-2.28725">
        <ele>29</ele>
        <time>2021-05-23T09:01:31.983Z</time>
      </trkpt>
      <trkpt lat="47.27569" lon="-2.28724">
        <ele>29</ele>
        <time>2021-05-23T09:01:32.983Z</time>
      </trkpt>
      <trkpt lat="47.27566" lon="-2.28724">
        <ele>29</ele>
        <time>2021-05-23T09:01:33.983Z</time>
      </trkpt>
      <trkpt lat="47.27563" lon="-2.28723">
        <ele>28</ele>
        <time>2021-05-23T09:01:34.982Z</time>
      </trkpt>
      <trkpt lat="47.27561" lon="-2.28723">
        <ele>28</ele>
        <time>2021-05-23T09:01:35.983Z</time>
      </trkpt>
      <trkpt lat="47.27559" lon="-2.28723">
        <ele>28</ele>
        <time>2021-05-23T09:01:36.982Z</time>
      </trkpt>
      <trkpt lat="47.27557" lon="-2.28721">
        <ele>28</ele>
        <time>2021-05-23T09:01:37.982Z</time>
      </trkpt>
      <trkpt lat="47.27555" lon="-2.2872">
        <ele>28</ele>
        <time>2021-05-23T09:01:38.982Z</time>
      </trkpt>
      <trkpt lat="47.27552" lon="-2.28718">
        <ele>28</ele>
        <time>2021-05-23T09:01:39.982Z</time>
      </trkpt>
      <trkpt lat="47.27549" lon="-2.28716">
        <ele>28</ele>
        <time>2021-05-23T09:01:40.983Z</time>
      </trkpt>
      <trkpt lat="47.27547" lon="-2.28714">
        <ele>28</ele>
        <time>2021-05-23T09:01:41.983Z</time>
      </trkpt>
      <trkpt lat="47.27544" lon="-2.28711">
        <ele>28</ele>
        <time>2021-05-23T09:01:42.983Z</time>
      </trkpt>
      <trkpt lat="47.27541" lon="-2.28708">
        <ele>28</ele>
        <time>2021-05-23T09:01:43.983Z</time>
      </trkpt>
      <trkpt lat="47.27539" lon="-2.28706">
        <ele>28</ele>
        <time>2021-05-23T09:01:44.983Z</time>
      </trkpt>
      <trkpt lat="47.27537" lon="-2.28704">
        <ele>27</ele>
        <time>2021-05-23T09:01:45.982Z</time>
      </trkpt>
      <trkpt lat="47.27536" lon="-2.28702">
        <ele>27</ele>
        <time>2021-05-23T09:01:46.983Z</time>
      </trkpt>
      <trkpt lat="47.27534" lon="-2.28701">
        <ele>27</ele>
        <time>2021-05-23T09:01:47.983Z</time>
      </trkpt>
      <trkpt lat="47.27532" lon="-2.28699">
        <ele>27</ele>
        <time>2021-05-23T09:01:48.983Z</time>
      </trkpt>
      <trkpt lat="47.2753" lon="-2.28697">
        <ele>26</ele>
        <time>2021-05-23T09:01:49.983Z</time>
      </trkpt>
      <trkpt lat="47.27528" lon="-2.28694">
        <ele>26</ele>
        <time>2021-05-23T09:01:50.983Z</time>
      </trkpt>
      <trkpt lat="47.27526" lon="-2.28692">
        <ele>26</ele>
        <time>2021-05-23T09:01:51.982Z</time>
      </trkpt>
      <trkpt lat="47.27524" lon="-2.28688">
        <ele>26</ele>
        <time>2021-05-23T09:01:52.982Z</time>
      </trkpt>
      <trkpt lat="47.27522" lon="-2.28685">
        <ele>26</ele>
        <time>2021-05-23T09:01:53.983Z</time>
      </trkpt>
      <trkpt lat="47.2752" lon="-2.28683">
        <ele>26</ele>
        <time>2021-05-23T09:01:54.983Z</time>
      </trkpt>
      <trkpt lat="47.27518" lon="-2.2868">
        <ele>26</ele>
        <time>2021-05-23T09:01:55.982Z</time>
      </trkpt>
      <trkpt lat="47.27516" lon="-2.28678">
        <ele>26</ele>
        <time>2021-05-23T09:01:56.983Z</time>
      </trkpt>
      <trkpt lat="47.27514" lon="-2.28675">
        <ele>26</ele>
        <time>2021-05-23T09:01:57.983Z</time>
      </trkpt>
      <trkpt lat="47.27512" lon="-2.28673">
        <ele>26</ele>
        <time>2021-05-23T09:01:58.983Z</time>
      </trkpt>
      <trkpt lat="47.27509" lon="-2.28671">
        <ele>27</ele>
        <time>2021-05-23T09:01:59.983Z</time>
      </trkpt>
      <trkpt lat="47.27507" lon="-2.28668">
        <ele>27</ele>
        <time>2021-05-23T09:02:00.982Z</time>
      </trkpt>
      <trkpt lat="47.27505" lon="-2.28665">
        <ele>27</ele>
        <time>2021-05-23T09:02:01.983Z</time>
      </trkpt>
      <trkpt lat="47.27503" lon="-2.28662">
        <ele>27</ele>
        <time>2021-05-23T09:02:02.982Z</time>
      </trkpt>
      <trkpt lat="47.27501" lon="-2.28659">
        <ele>27</ele>
        <time>2021-05-23T09:02:03.983Z</time>
      </trkpt>
      <trkpt lat="47.27499" lon="-2.28656">
        <ele>28</ele>
        <time>2021-05-23T09:02:04.983Z</time>
      </trkpt>
      <trkpt lat="47.27497" lon="-2.28651">
        <ele>28</ele>
        <time>2021-05-23T09:02:05.982Z</time>
      </trkpt>
      <trkpt lat="47.27496" lon="-2.28647">
        <ele>28</ele>
        <time>2021-05-23T09:02:06.983Z</time>
      </trkpt>
      <trkpt lat="47.27495" lon="-2.28643">
        <ele>28</ele>
        <time>2021-05-23T09:02:07.983Z</time>
      </trkpt>
      <trkpt lat="47.27495" lon="-2.28641">
        <ele>28</ele>
        <time>2021-05-23T09:02:08.982Z</time>
      </trkpt>
      <trkpt lat="47.27494" lon="-2.28638">
        <ele>28</ele>
        <time>2021-05-23T09:02:09.983Z</time>
      </trkpt>
      <trkpt lat="47.27492" lon="-2.28635">
        <ele>27</ele>
        <time>2021-05-23T09:02:10.983Z</time>
      </trkpt>
      <trkpt lat="47.27491" lon="-2.28631">
        <ele>27</ele>
        <time>2021-05-23T09:02:11.982Z</time>
      </trkpt>
      <trkpt lat="47.27489" lon="-2.28628">
        <ele>27</ele>
        <time>2021-05-23T09:02:12.983Z</time>
      </trkpt>
      <trkpt lat="47.27488" lon="-2.28625">
        <ele>27</ele>
        <time>2021-05-23T09:02:13.982Z</time>
      </trkpt>
      <trkpt lat="47.27488" lon="-2.28621">
        <ele>27</ele>
        <time>2021-05-23T09:02:14.983Z</time>
      </trkpt>
      <trkpt lat="47.27486" lon="-2.28618">
        <ele>27</ele>
        <time>2021-05-23T09:02:15.982Z</time>
      </trkpt>
      <trkpt lat="47.27484" lon="-2.28615">
        <ele>26</ele>
        <time>2021-05-23T09:02:16.983Z</time>
      </trkpt>
      <trkpt lat="47.27482" lon="-2.28613">
        <ele>27</ele>
        <time>2021-05-23T09:02:17.983Z</time>
      </trkpt>
      <trkpt lat="47.27479" lon="-2.28612">
        <ele>27</ele>
        <time>2021-05-23T09:02:18.982Z</time>
      </trkpt>
      <trkpt lat="47.27476" lon="-2.28612">
        <ele>27</ele>
        <time>2021-05-23T09:02:19.983Z</time>
      </trkpt>
      <trkpt lat="47.27474" lon="-2.28613">
        <ele>27</ele>
        <time>2021-05-23T09:02:20.983Z</time>
      </trkpt>
      <trkpt lat="47.27471" lon="-2.28616">
        <ele>27</ele>
        <time>2021-05-23T09:02:21.983Z</time>
      </trkpt>
      <trkpt lat="47.27469" lon="-2.28618">
        <ele>27</ele>
        <time>2021-05-23T09:02:22.982Z</time>
      </trkpt>
      <trkpt lat="47.27468" lon="-2.28621">
        <ele>27</ele>
        <time>2021-05-23T09:02:23.982Z</time>
      </trkpt>
      <trkpt lat="47.27466" lon="-2.28624">
        <ele>27</ele>
        <time>2021-05-23T09:02:24.983Z</time>
      </trkpt>
      <trkpt lat="47.27465" lon="-2.28626">
        <ele>27</ele>
        <time>2021-05-23T09:02:25.983Z</time>
      </trkpt>
      <trkpt lat="47.27463" lon="-2.28629">
        <ele>27</ele>
        <time>2021-05-23T09:02:26.983Z</time>
      </trkpt>
      <trkpt lat="47.27462" lon="-2.28633">
        <ele>27</ele>
        <time>2021-05-23T09:02:27.983Z</time>
      </trkpt>
      <trkpt lat="47.2746" lon="-2.28635">
        <ele>27</ele>
        <time>2021-05-23T09:02:28.982Z</time>
      </trkpt>
      <trkpt lat="47.27457" lon="-2.28637">
        <ele>26</ele>
        <time>2021-05-23T09:02:29.982Z</time>
      </trkpt>
      <trkpt lat="47.27455" lon="-2.28638">
        <ele>26</ele>
        <time>2021-05-23T09:02:30.983Z</time>
      </trkpt>
      <trkpt lat="47.27452" lon="-2.28639">
        <ele>26</ele>
        <time>2021-05-23T09:02:31.983Z</time>
      </trkpt>
      <trkpt lat="47.2745" lon="-2.28641">
        <ele>26</ele>
        <time>2021-05-23T09:02:32.983Z</time>
      </trkpt>
      <trkpt lat="47.27449" lon="-2.28642">
        <ele>26</ele>
        <time>2021-05-23T09:02:33.982Z</time>
      </trkpt>
      <trkpt lat="47.27448" lon="-2.28644">
        <ele>25</ele>
        <time>2021-05-23T09:02:34.983Z</time>
      </trkpt>
      <trkpt lat="47.27447" lon="-2.28645">
        <ele>26</ele>
        <time>2021-05-23T09:02:35.983Z</time>
      </trkpt>
      <trkpt lat="47.27446" lon="-2.28646">
        <ele>26</ele>
        <time>2021-05-23T09:02:36.983Z</time>
      </trkpt>
      <trkpt lat="47.27444" lon="-2.28646">
        <ele>26</ele>
        <time>2021-05-23T09:02:37.982Z</time>
      </trkpt>
      <trkpt lat="47.27442" lon="-2.28646">
        <ele>26</ele>
        <time>2021-05-23T09:02:38.982Z</time>
      </trkpt>
      <trkpt lat="47.27441" lon="-2.28646">
        <ele>27</ele>
        <time>2021-05-23T09:02:39.983Z</time>
      </trkpt>
      <trkpt lat="47.27439" lon="-2.28646">
        <ele>27</ele>
        <time>2021-05-23T09:02:40.983Z</time>
      </trkpt>
      <trkpt lat="47.27437" lon="-2.28646">
        <ele>28</ele>
        <time>2021-05-23T09:02:41.983Z</time>
      </trkpt>
      <trkpt lat="47.27435" lon="-2.28646">
        <ele>28</ele>
        <time>2021-05-23T09:02:42.983Z</time>
      </trkpt>
      <trkpt lat="47.27433" lon="-2.28645">
        <ele>29</ele>
        <time>2021-05-23T09:02:43.982Z</time>
      </trkpt>
      <trkpt lat="47.27432" lon="-2.28645">
        <ele>29</ele>
        <time>2021-05-23T09:02:44.983Z</time>
      </trkpt>
      <trkpt lat="47.2743" lon="-2.28644">
        <ele>29</ele>
        <time>2021-05-23T09:02:45.983Z</time>
      </trkpt>
      <trkpt lat="47.27428" lon="-2.28644">
        <ele>30</ele>
        <time>2021-05-23T09:02:46.983Z</time>
      </trkpt>
      <trkpt lat="47.27425" lon="-2.28642">
        <ele>30</ele>
        <time>2021-05-23T09:02:47.983Z</time>
      </trkpt>
      <trkpt lat="47.27422" lon="-2.2864">
        <ele>30</ele>
        <time>2021-05-23T09:02:48.982Z</time>
      </trkpt>
      <trkpt lat="47.2742" lon="-2.28639">
        <ele>30</ele>
        <time>2021-05-23T09:02:49.982Z</time>
      </trkpt>
      <trkpt lat="47.27418" lon="-2.28638">
        <ele>30</ele>
        <time>2021-05-23T09:02:50.983Z</time>
      </trkpt>
      <trkpt lat="47.27416" lon="-2.28637">
        <ele>30</ele>
        <time>2021-05-23T09:02:51.982Z</time>
      </trkpt>
      <trkpt lat="47.27414" lon="-2.28637">
        <ele>30</ele>
        <time>2021-05-23T09:02:52.983Z</time>
      </trkpt>
      <trkpt lat="47.27413" lon="-2.28637">
        <ele>30</ele>
        <time>2021-05-23T09:02:53.983Z</time>
      </trkpt>
      <trkpt lat="47.27412" lon="-2.28637">
        <ele>31</ele>
        <time>2021-05-23T09:02:54.983Z</time>
      </trkpt>
      <trkpt lat="47.2741" lon="-2.28637">
        <ele>31</ele>
        <time>2021-05-23T09:02:55.982Z</time>
      </trkpt>
      <trkpt lat="47.27408" lon="-2.28636">
        <ele>31</ele>
        <time>2021-05-23T09:02:56.982Z</time>
      </trkpt>
      <trkpt lat="47.27406" lon="-2.28634">
        <ele>31</ele>
        <time>2021-05-23T09:02:57.983Z</time>
      </trkpt>
      <trkpt lat="47.27404" lon="-2.28633">
        <ele>31</ele>
        <time>2021-05-23T09:02:58.983Z</time>
      </trkpt>
      <trkpt lat="47.27402" lon="-2.28632">
        <ele>32</ele>
        <time>2021-05-23T09:02:59.983Z</time>
      </trkpt>
      <trkpt lat="47.27401" lon="-2.28631">
        <ele>32</ele>
        <time>2021-05-23T09:03:00.982Z</time>
      </trkpt>
      <trkpt lat="47.27399" lon="-2.2863">
        <ele>32</ele>
        <time>2021-05-23T09:03:01.983Z</time>
      </trkpt>
      <trkpt lat="47.27397" lon="-2.28629">
        <ele>33</ele>
        <time>2021-05-23T09:03:02.982Z</time>
      </trkpt>
      <trkpt lat="47.27394" lon="-2.28627">
        <ele>33</ele>
        <time>2021-05-23T09:03:03.983Z</time>
      </trkpt>
      <trkpt lat="47.2739" lon="-2.28624">
        <ele>33</ele>
        <time>2021-05-23T09:03:04.983Z</time>
      </trkpt>
      <trkpt lat="47.27387" lon="-2.28622">
        <ele>33</ele>
        <time>2021-05-23T09:03:05.983Z</time>
      </trkpt>
      <trkpt lat="47.27385" lon="-2.28621">
        <ele>33</ele>
        <time>2021-05-23T09:03:06.983Z</time>
      </trkpt>
      <trkpt lat="47.27383" lon="-2.2862">
        <ele>33</ele>
        <time>2021-05-23T09:03:07.983Z</time>
      </trkpt>
      <trkpt lat="47.2738" lon="-2.2862">
        <ele>33</ele>
        <time>2021-05-23T09:03:08.983Z</time>
      </trkpt>
      <trkpt lat="47.27377" lon="-2.28619">
        <ele>33</ele>
        <time>2021-05-23T09:03:09.983Z</time>
      </trkpt>
      <trkpt lat="47.27374" lon="-2.28618">
        <ele>33</ele>
        <time>2021-05-23T09:03:10.983Z</time>
      </trkpt>
      <trkpt lat="47.2737" lon="-2.28616">
        <ele>33</ele>
        <time>2021-05-23T09:03:11.983Z</time>
      </trkpt>
      <trkpt lat="47.27366" lon="-2.28614">
        <ele>33</ele>
        <time>2021-05-23T09:03:12.983Z</time>
      </trkpt>
      <trkpt lat="47.27364" lon="-2.28613">
        <ele>33</ele>
        <time>2021-05-23T09:03:13.983Z</time>
      </trkpt>
      <trkpt lat="47.27361" lon="-2.28612">
        <ele>33</ele>
        <time>2021-05-23T09:03:14.983Z</time>
      </trkpt>
      <trkpt lat="47.27359" lon="-2.28612">
        <ele>33</ele>
        <time>2021-05-23T09:03:15.983Z</time>
      </trkpt>
      <trkpt lat="47.27358" lon="-2.28612">
        <ele>34</ele>
        <time>2021-05-23T09:03:16.983Z</time>
      </trkpt>
      <trkpt lat="47.27356" lon="-2.28612">
        <ele>34</ele>
        <time>2021-05-23T09:03:17.983Z</time>
      </trkpt>
      <trkpt lat="47.27355" lon="-2.28612">
        <ele>34</ele>
        <time>2021-05-23T09:03:18.983Z</time>
      </trkpt>
      <trkpt lat="47.27354" lon="-2.28612">
        <ele>34</ele>
        <time>2021-05-23T09:03:19.983Z</time>
      </trkpt>
      <trkpt lat="47.27352" lon="-2.28611">
        <ele>35</ele>
        <time>2021-05-23T09:03:20.983Z</time>
      </trkpt>
      <trkpt lat="47.2735" lon="-2.28611">
        <ele>35</ele>
        <time>2021-05-23T09:03:21.983Z</time>
      </trkpt>
      <trkpt lat="47.27348" lon="-2.2861">
        <ele>35</ele>
        <time>2021-05-23T09:03:22.982Z</time>
      </trkpt>
      <trkpt lat="47.27345" lon="-2.28609">
        <ele>35</ele>
        <time>2021-05-23T09:03:23.982Z</time>
      </trkpt>
      <trkpt lat="47.27342" lon="-2.28609">
        <ele>36</ele>
        <time>2021-05-23T09:03:24.982Z</time>
      </trkpt>
      <trkpt lat="47.27339" lon="-2.28608">
        <ele>36</ele>
        <time>2021-05-23T09:03:25.982Z</time>
      </trkpt>
      <trkpt lat="47.27337" lon="-2.28607">
        <ele>36</ele>
        <time>2021-05-23T09:03:26.982Z</time>
      </trkpt>
      <trkpt lat="47.27334" lon="-2.28606">
        <ele>37</ele>
        <time>2021-05-23T09:03:27.983Z</time>
      </trkpt>
      <trkpt lat="47.27332" lon="-2.28605">
        <ele>37</ele>
        <time>2021-05-23T09:03:28.982Z</time>
      </trkpt>
      <trkpt lat="47.27329" lon="-2.28604">
        <ele>37</ele>
        <time>2021-05-23T09:03:29.982Z</time>
      </trkpt>
      <trkpt lat="47.27327" lon="-2.28603">
        <ele>38</ele>
        <time>2021-05-23T09:03:30.982Z</time>
      </trkpt>
      <trkpt lat="47.27325" lon="-2.28603">
        <ele>38</ele>
        <time>2021-05-23T09:03:31.983Z</time>
      </trkpt>
      <trkpt lat="47.27322" lon="-2.28602">
        <ele>38</ele>
        <time>2021-05-23T09:03:32.982Z</time>
      </trkpt>
      <trkpt lat="47.2732" lon="-2.28603">
        <ele>39</ele>
        <time>2021-05-23T09:03:33.982Z</time>
      </trkpt>
      <trkpt lat="47.27317" lon="-2.28603">
        <ele>39</ele>
        <time>2021-05-23T09:03:34.982Z</time>
      </trkpt>
      <trkpt lat="47.27314" lon="-2.28603">
        <ele>39</ele>
        <time>2021-05-23T09:03:35.982Z</time>
      </trkpt>
      <trkpt lat="47.27313" lon="-2.28602">
        <ele>39</ele>
        <time>2021-05-23T09:03:36.983Z</time>
      </trkpt>
      <trkpt lat="47.2731" lon="-2.286">
        <ele>39</ele>
        <time>2021-05-23T09:03:37.982Z</time>
      </trkpt>
      <trkpt lat="47.27307" lon="-2.28598">
        <ele>39</ele>
        <time>2021-05-23T09:03:38.982Z</time>
      </trkpt>
      <trkpt lat="47.27304" lon="-2.28596">
        <ele>39</ele>
        <time>2021-05-23T09:03:39.982Z</time>
      </trkpt>
      <trkpt lat="47.273" lon="-2.28595">
        <ele>39</ele>
        <time>2021-05-23T09:03:40.982Z</time>
      </trkpt>
      <trkpt lat="47.27298" lon="-2.28594">
        <ele>39</ele>
        <time>2021-05-23T09:03:41.982Z</time>
      </trkpt>
      <trkpt lat="47.27296" lon="-2.28593">
        <ele>39</ele>
        <time>2021-05-23T09:03:42.982Z</time>
      </trkpt>
      <trkpt lat="47.27294" lon="-2.28592">
        <ele>39</ele>
        <time>2021-05-23T09:03:43.982Z</time>
      </trkpt>
      <trkpt lat="47.27291" lon="-2.28591">
        <ele>38</ele>
        <time>2021-05-23T09:03:44.982Z</time>
      </trkpt>
      <trkpt lat="47.27288" lon="-2.2859">
        <ele>38</ele>
        <time>2021-05-23T09:03:45.982Z</time>
      </trkpt>
      <trkpt lat="47.27285" lon="-2.28589">
        <ele>38</ele>
        <time>2021-05-23T09:03:46.983Z</time>
      </trkpt>
      <trkpt lat="47.27283" lon="-2.2859">
        <ele>37</ele>
        <time>2021-05-23T09:03:47.983Z</time>
      </trkpt>
      <trkpt lat="47.27279" lon="-2.2859">
        <ele>37</ele>
        <time>2021-05-23T09:03:48.983Z</time>
      </trkpt>
      <trkpt lat="47.27276" lon="-2.2859">
        <ele>37</ele>
        <time>2021-05-23T09:03:49.983Z</time>
      </trkpt>
      <trkpt lat="47.27273" lon="-2.2859">
        <ele>37</ele>
        <time>2021-05-23T09:03:50.982Z</time>
      </trkpt>
      <trkpt lat="47.2727" lon="-2.2859">
        <ele>36</ele>
        <time>2021-05-23T09:03:51.983Z</time>
      </trkpt>
      <trkpt lat="47.27266" lon="-2.2859">
        <ele>36</ele>
        <time>2021-05-23T09:03:52.983Z</time>
      </trkpt>
      <trkpt lat="47.27263" lon="-2.2859">
        <ele>36</ele>
        <time>2021-05-23T09:03:53.982Z</time>
      </trkpt>
      <trkpt lat="47.27262" lon="-2.28591">
        <ele>36</ele>
        <time>2021-05-23T09:03:54.983Z</time>
      </trkpt>
      <trkpt lat="47.2726" lon="-2.28591">
        <ele>36</ele>
        <time>2021-05-23T09:03:55.983Z</time>
      </trkpt>
      <trkpt lat="47.27257" lon="-2.28592">
        <ele>36</ele>
        <time>2021-05-23T09:03:56.982Z</time>
      </trkpt>
      <trkpt lat="47.27253" lon="-2.28591">
        <ele>36</ele>
        <time>2021-05-23T09:03:57.983Z</time>
      </trkpt>
      <trkpt lat="47.2725" lon="-2.28591">
        <ele>36</ele>
        <time>2021-05-23T09:03:58.982Z</time>
      </trkpt>
      <trkpt lat="47.27248" lon="-2.28591">
        <ele>36</ele>
        <time>2021-05-23T09:03:59.983Z</time>
      </trkpt>
      <trkpt lat="47.27246" lon="-2.28592">
        <ele>36</ele>
        <time>2021-05-23T09:04:00.982Z</time>
      </trkpt>
      <trkpt lat="47.27243" lon="-2.28593">
        <ele>36</ele>
        <time>2021-05-23T09:04:01.982Z</time>
      </trkpt>
      <trkpt lat="47.27241" lon="-2.28594">
        <ele>36</ele>
        <time>2021-05-23T09:04:02.982Z</time>
      </trkpt>
      <trkpt lat="47.27238" lon="-2.28595">
        <ele>36</ele>
        <time>2021-05-23T09:04:03.983Z</time>
      </trkpt>
      <trkpt lat="47.27236" lon="-2.28595">
        <ele>36</ele>
        <time>2021-05-23T09:04:04.983Z</time>
      </trkpt>
      <trkpt lat="47.27233" lon="-2.28596">
        <ele>35</ele>
        <time>2021-05-23T09:04:05.982Z</time>
      </trkpt>
      <trkpt lat="47.27231" lon="-2.28598">
        <ele>35</ele>
        <time>2021-05-23T09:04:06.983Z</time>
      </trkpt>
      <trkpt lat="47.27229" lon="-2.28598">
        <ele>35</ele>
        <time>2021-05-23T09:04:07.982Z</time>
      </trkpt>
      <trkpt lat="47.27225" lon="-2.28598">
        <ele>35</ele>
        <time>2021-05-23T09:04:08.983Z</time>
      </trkpt>
      <trkpt lat="47.27222" lon="-2.28598">
        <ele>34</ele>
        <time>2021-05-23T09:04:09.983Z</time>
      </trkpt>
      <trkpt lat="47.27219" lon="-2.28597">
        <ele>34</ele>
        <time>2021-05-23T09:04:10.983Z</time>
      </trkpt>
      <trkpt lat="47.27216" lon="-2.28598">
        <ele>34</ele>
        <time>2021-05-23T09:04:11.983Z</time>
      </trkpt>
      <trkpt lat="47.27213" lon="-2.28597">
        <ele>34</ele>
        <time>2021-05-23T09:04:12.982Z</time>
      </trkpt>
      <trkpt lat="47.2721" lon="-2.28598">
        <ele>33</ele>
        <time>2021-05-23T09:04:13.982Z</time>
      </trkpt>
      <trkpt lat="47.27208" lon="-2.28599">
        <ele>33</ele>
        <time>2021-05-23T09:04:14.983Z</time>
      </trkpt>
      <trkpt lat="47.27206" lon="-2.286">
        <ele>33</ele>
        <time>2021-05-23T09:04:15.983Z</time>
      </trkpt>
      <trkpt lat="47.27204" lon="-2.28601">
        <ele>33</ele>
        <time>2021-05-23T09:04:16.983Z</time>
      </trkpt>
      <trkpt lat="47.27201" lon="-2.286">
        <ele>33</ele>
        <time>2021-05-23T09:04:17.983Z</time>
      </trkpt>
      <trkpt lat="47.27199" lon="-2.28599">
        <ele>33</ele>
        <time>2021-05-23T09:04:18.983Z</time>
      </trkpt>
      <trkpt lat="47.27197" lon="-2.28598">
        <ele>33</ele>
        <time>2021-05-23T09:04:19.983Z</time>
      </trkpt>
      <trkpt lat="47.27194" lon="-2.28595">
        <ele>33</ele>
        <time>2021-05-23T09:04:20.983Z</time>
      </trkpt>
      <trkpt lat="47.27193" lon="-2.28592">
        <ele>32</ele>
        <time>2021-05-23T09:04:21.983Z</time>
      </trkpt>
      <trkpt lat="47.27191" lon="-2.28589">
        <ele>32</ele>
        <time>2021-05-23T09:04:22.983Z</time>
      </trkpt>
      <trkpt lat="47.27189" lon="-2.28586">
        <ele>32</ele>
        <time>2021-05-23T09:04:23.983Z</time>
      </trkpt>
      <trkpt lat="47.27187" lon="-2.28583">
        <ele>32</ele>
        <time>2021-05-23T09:04:24.982Z</time>
      </trkpt>
      <trkpt lat="47.27185" lon="-2.28579">
        <ele>31</ele>
        <time>2021-05-23T09:04:25.983Z</time>
      </trkpt>
      <trkpt lat="47.27183" lon="-2.28575">
        <ele>31</ele>
        <time>2021-05-23T09:04:26.982Z</time>
      </trkpt>
      <trkpt lat="47.27181" lon="-2.28571">
        <ele>31</ele>
        <time>2021-05-23T09:04:27.982Z</time>
      </trkpt>
      <trkpt lat="47.2718" lon="-2.28567">
        <ele>30</ele>
        <time>2021-05-23T09:04:28.982Z</time>
      </trkpt>
      <trkpt lat="47.27179" lon="-2.28564">
        <ele>30</ele>
        <time>2021-05-23T09:04:29.982Z</time>
      </trkpt>
      <trkpt lat="47.27178" lon="-2.2856">
        <ele>29</ele>
        <time>2021-05-23T09:04:30.983Z</time>
      </trkpt>
      <trkpt lat="47.27177" lon="-2.28557">
        <ele>29</ele>
        <time>2021-05-23T09:04:31.982Z</time>
      </trkpt>
      <trkpt lat="47.27175" lon="-2.28553">
        <ele>29</ele>
        <time>2021-05-23T09:04:32.982Z</time>
      </trkpt>
      <trkpt lat="47.27174" lon="-2.2855">
        <ele>29</ele>
        <time>2021-05-23T09:04:33.983Z</time>
      </trkpt>
      <trkpt lat="47.27173" lon="-2.28546">
        <ele>29</ele>
        <time>2021-05-23T09:04:34.982Z</time>
      </trkpt>
      <trkpt lat="47.27172" lon="-2.28542">
        <ele>29</ele>
        <time>2021-05-23T09:04:35.983Z</time>
      </trkpt>
      <trkpt lat="47.27172" lon="-2.28539">
        <ele>29</ele>
        <time>2021-05-23T09:04:36.983Z</time>
      </trkpt>
      <trkpt lat="47.27171" lon="-2.28535">
        <ele>29</ele>
        <time>2021-05-23T09:04:37.983Z</time>
      </trkpt>
      <trkpt lat="47.27171" lon="-2.28531">
        <ele>29</ele>
        <time>2021-05-23T09:04:38.982Z</time>
      </trkpt>
      <trkpt lat="47.2717" lon="-2.28527">
        <ele>29</ele>
        <time>2021-05-23T09:04:39.983Z</time>
      </trkpt>
      <trkpt lat="47.2717" lon="-2.28523">
        <ele>29</ele>
        <time>2021-05-23T09:04:40.983Z</time>
      </trkpt>
      <trkpt lat="47.27169" lon="-2.2852">
        <ele>29</ele>
        <time>2021-05-23T09:04:41.983Z</time>
      </trkpt>
      <trkpt lat="47.27168" lon="-2.28517">
        <ele>30</ele>
        <time>2021-05-23T09:04:42.983Z</time>
      </trkpt>
      <trkpt lat="47.27167" lon="-2.28514">
        <ele>30</ele>
        <time>2021-05-23T09:04:43.983Z</time>
      </trkpt>
      <trkpt lat="47.27166" lon="-2.2851">
        <ele>31</ele>
        <time>2021-05-23T09:04:44.982Z</time>
      </trkpt>
      <trkpt lat="47.27165" lon="-2.28507">
        <ele>31</ele>
        <time>2021-05-23T09:04:45.983Z</time>
      </trkpt>
      <trkpt lat="47.27164" lon="-2.28503">
        <ele>31</ele>
        <time>2021-05-23T09:04:46.983Z</time>
      </trkpt>
      <trkpt lat="47.27163" lon="-2.285">
        <ele>31</ele>
        <time>2021-05-23T09:04:47.982Z</time>
      </trkpt>
      <trkpt lat="47.27162" lon="-2.28497">
        <ele>31</ele>
        <time>2021-05-23T09:04:48.982Z</time>
      </trkpt>
      <trkpt lat="47.27161" lon="-2.28494">
        <ele>31</ele>
        <time>2021-05-23T09:04:49.983Z</time>
      </trkpt>
      <trkpt lat="47.2716" lon="-2.28492">
        <ele>31</ele>
        <time>2021-05-23T09:04:50.983Z</time>
      </trkpt>
      <trkpt lat="47.2716" lon="-2.28489">
        <ele>31</ele>
        <time>2021-05-23T09:04:51.982Z</time>
      </trkpt>
      <trkpt lat="47.27159" lon="-2.28486">
        <ele>31</ele>
        <time>2021-05-23T09:04:52.983Z</time>
      </trkpt>
      <trkpt lat="47.27159" lon="-2.28484">
        <ele>32</ele>
        <time>2021-05-23T09:04:53.983Z</time>
      </trkpt>
      <trkpt lat="47.27158" lon="-2.28481">
        <ele>32</ele>
        <time>2021-05-23T09:04:54.983Z</time>
      </trkpt>
      <trkpt lat="47.27157" lon="-2.28478">
        <ele>31</ele>
        <time>2021-05-23T09:04:55.983Z</time>
      </trkpt>
      <trkpt lat="47.27156" lon="-2.28476">
        <ele>31</ele>
        <time>2021-05-23T09:04:56.983Z</time>
      </trkpt>
      <trkpt lat="47.27156" lon="-2.28472">
        <ele>32</ele>
        <time>2021-05-23T09:04:57.983Z</time>
      </trkpt>
      <trkpt lat="47.27156" lon="-2.28469">
        <ele>32</ele>
        <time>2021-05-23T09:04:58.983Z</time>
      </trkpt>
      <trkpt lat="47.27156" lon="-2.28465">
        <ele>33</ele>
        <time>2021-05-23T09:04:59.983Z</time>
      </trkpt>
      <trkpt lat="47.27156" lon="-2.28461">
        <ele>33</ele>
        <time>2021-05-23T09:05:00.983Z</time>
      </trkpt>
      <trkpt lat="47.27154" lon="-2.28456">
        <ele>33</ele>
        <time>2021-05-23T09:05:01.983Z</time>
      </trkpt>
      <trkpt lat="47.27153" lon="-2.28453">
        <ele>33</ele>
        <time>2021-05-23T09:05:02.983Z</time>
      </trkpt>
      <trkpt lat="47.27152" lon="-2.28448">
        <ele>33</ele>
        <time>2021-05-23T09:05:03.983Z</time>
      </trkpt>
      <trkpt lat="47.27151" lon="-2.28444">
        <ele>33</ele>
        <time>2021-05-23T09:05:04.983Z</time>
      </trkpt>
      <trkpt lat="47.2715" lon="-2.28441">
        <ele>33</ele>
        <time>2021-05-23T09:05:05.983Z</time>
      </trkpt>
      <trkpt lat="47.27149" lon="-2.28437">
        <ele>33</ele>
        <time>2021-05-23T09:05:06.982Z</time>
      </trkpt>
      <trkpt lat="47.27149" lon="-2.28434">
        <ele>33</ele>
        <time>2021-05-23T09:05:07.983Z</time>
      </trkpt>
      <trkpt lat="47.27148" lon="-2.28431">
        <ele>33</ele>
        <time>2021-05-23T09:05:08.983Z</time>
      </trkpt>
      <trkpt lat="47.27148" lon="-2.28428">
        <ele>34</ele>
        <time>2021-05-23T09:05:09.983Z</time>
      </trkpt>
      <trkpt lat="47.27147" lon="-2.28425">
        <ele>34</ele>
        <time>2021-05-23T09:05:10.982Z</time>
      </trkpt>
      <trkpt lat="47.27146" lon="-2.2842">
        <ele>34</ele>
        <time>2021-05-23T09:05:11.982Z</time>
      </trkpt>
      <trkpt lat="47.27146" lon="-2.28416">
        <ele>35</ele>
        <time>2021-05-23T09:05:12.982Z</time>
      </trkpt>
      <trkpt lat="47.27146" lon="-2.28413">
        <ele>35</ele>
        <time>2021-05-23T09:05:13.982Z</time>
      </trkpt>
      <trkpt lat="47.27146" lon="-2.28408">
        <ele>35</ele>
        <time>2021-05-23T09:05:14.983Z</time>
      </trkpt>
      <trkpt lat="47.27145" lon="-2.28404">
        <ele>35</ele>
        <time>2021-05-23T09:05:15.982Z</time>
      </trkpt>
      <trkpt lat="47.27145" lon="-2.284">
        <ele>36</ele>
        <time>2021-05-23T09:05:16.983Z</time>
      </trkpt>
      <trkpt lat="47.27144" lon="-2.28396">
        <ele>36</ele>
        <time>2021-05-23T09:05:17.982Z</time>
      </trkpt>
      <trkpt lat="47.27143" lon="-2.28392">
        <ele>36</ele>
        <time>2021-05-23T09:05:18.983Z</time>
      </trkpt>
      <trkpt lat="47.27142" lon="-2.28388">
        <ele>35</ele>
        <time>2021-05-23T09:05:19.982Z</time>
      </trkpt>
      <trkpt lat="47.27142" lon="-2.28384">
        <ele>35</ele>
        <time>2021-05-23T09:05:20.982Z</time>
      </trkpt>
      <trkpt lat="47.27141" lon="-2.2838">
        <ele>35</ele>
        <time>2021-05-23T09:05:21.982Z</time>
      </trkpt>
      <trkpt lat="47.27142" lon="-2.28376">
        <ele>34</ele>
        <time>2021-05-23T09:05:22.982Z</time>
      </trkpt>
      <trkpt lat="47.27141" lon="-2.28372">
        <ele>34</ele>
        <time>2021-05-23T09:05:23.982Z</time>
      </trkpt>
      <trkpt lat="47.27141" lon="-2.28369">
        <ele>34</ele>
        <time>2021-05-23T09:05:24.983Z</time>
      </trkpt>
      <trkpt lat="47.2714" lon="-2.28365">
        <ele>34</ele>
        <time>2021-05-23T09:05:25.982Z</time>
      </trkpt>
      <trkpt lat="47.2714" lon="-2.28361">
        <ele>33</ele>
        <time>2021-05-23T09:05:26.982Z</time>
      </trkpt>
      <trkpt lat="47.2714" lon="-2.28358">
        <ele>33</ele>
        <time>2021-05-23T09:05:27.982Z</time>
      </trkpt>
      <trkpt lat="47.27139" lon="-2.28354">
        <ele>33</ele>
        <time>2021-05-23T09:05:28.982Z</time>
      </trkpt>
      <trkpt lat="47.27139" lon="-2.2835">
        <ele>33</ele>
        <time>2021-05-23T09:05:29.983Z</time>
      </trkpt>
      <trkpt lat="47.27139" lon="-2.28346">
        <ele>33</ele>
        <time>2021-05-23T09:05:30.982Z</time>
      </trkpt>
      <trkpt lat="47.27139" lon="-2.28342">
        <ele>33</ele>
        <time>2021-05-23T09:05:31.982Z</time>
      </trkpt>
      <trkpt lat="47.27138" lon="-2.28338">
        <ele>33</ele>
        <time>2021-05-23T09:05:32.982Z</time>
      </trkpt>
      <trkpt lat="47.27137" lon="-2.28335">
        <ele>33</ele>
        <time>2021-05-23T09:05:33.982Z</time>
      </trkpt>
      <trkpt lat="47.27136" lon="-2.28331">
        <ele>33</ele>
        <time>2021-05-23T09:05:34.982Z</time>
      </trkpt>
      <trkpt lat="47.27134" lon="-2.28327">
        <ele>33</ele>
        <time>2021-05-23T09:05:35.982Z</time>
      </trkpt>
      <trkpt lat="47.27134" lon="-2.28323">
        <ele>33</ele>
        <time>2021-05-23T09:05:36.982Z</time>
      </trkpt>
      <trkpt lat="47.27134" lon="-2.28319">
        <ele>32</ele>
        <time>2021-05-23T09:05:37.982Z</time>
      </trkpt>
      <trkpt lat="47.27133" lon="-2.28315">
        <ele>32</ele>
        <time>2021-05-23T09:05:38.982Z</time>
      </trkpt>
      <trkpt lat="47.27132" lon="-2.2831">
        <ele>32</ele>
        <time>2021-05-23T09:05:39.983Z</time>
      </trkpt>
      <trkpt lat="47.27131" lon="-2.28307">
        <ele>32</ele>
        <time>2021-05-23T09:05:40.983Z</time>
      </trkpt>
      <trkpt lat="47.27131" lon="-2.28303">
        <ele>32</ele>
        <time>2021-05-23T09:05:41.983Z</time>
      </trkpt>
      <trkpt lat="47.2713" lon="-2.28299">
        <ele>32</ele>
        <time>2021-05-23T09:05:42.983Z</time>
      </trkpt>
      <trkpt lat="47.27129" lon="-2.28295">
        <ele>32</ele>
        <time>2021-05-23T09:05:43.983Z</time>
      </trkpt>
      <trkpt lat="47.27128" lon="-2.28292">
        <ele>32</ele>
        <time>2021-05-23T09:05:44.983Z</time>
      </trkpt>
      <trkpt lat="47.27127" lon="-2.28289">
        <ele>33</ele>
        <time>2021-05-23T09:05:45.983Z</time>
      </trkpt>
      <trkpt lat="47.27126" lon="-2.28286">
        <ele>33</ele>
        <time>2021-05-23T09:05:46.983Z</time>
      </trkpt>
      <trkpt lat="47.27124" lon="-2.28283">
        <ele>33</ele>
        <time>2021-05-23T09:05:47.983Z</time>
      </trkpt>
      <trkpt lat="47.27122" lon="-2.2828">
        <ele>33</ele>
        <time>2021-05-23T09:05:48.982Z</time>
      </trkpt>
      <trkpt lat="47.27121" lon="-2.28276">
        <ele>33</ele>
        <time>2021-05-23T09:05:49.983Z</time>
      </trkpt>
      <trkpt lat="47.2712" lon="-2.28273">
        <ele>32</ele>
        <time>2021-05-23T09:05:50.983Z</time>
      </trkpt>
      <trkpt lat="47.27118" lon="-2.2827">
        <ele>32</ele>
        <time>2021-05-23T09:05:51.982Z</time>
      </trkpt>
      <trkpt lat="47.27118" lon="-2.28265">
        <ele>32</ele>
        <time>2021-05-23T09:05:52.983Z</time>
      </trkpt>
      <trkpt lat="47.27117" lon="-2.28262">
        <ele>31</ele>
        <time>2021-05-23T09:05:53.983Z</time>
      </trkpt>
      <trkpt lat="47.27116" lon="-2.28259">
        <ele>31</ele>
        <time>2021-05-23T09:05:54.982Z</time>
      </trkpt>
      <trkpt lat="47.27115" lon="-2.28255">
        <ele>31</ele>
        <time>2021-05-23T09:05:55.983Z</time>
      </trkpt>
      <trkpt lat="47.27114" lon="-2.28251">
        <ele>31</ele>
        <time>2021-05-23T09:05:56.983Z</time>
      </trkpt>
      <trkpt lat="47.27113" lon="-2.28248">
        <ele>32</ele>
        <time>2021-05-23T09:05:57.982Z</time>
      </trkpt>
      <trkpt lat="47.27112" lon="-2.28245">
        <ele>32</ele>
        <time>2021-05-23T09:05:58.982Z</time>
      </trkpt>
      <trkpt lat="47.27112" lon="-2.2824">
        <ele>32</ele>
        <time>2021-05-23T09:05:59.983Z</time>
      </trkpt>
      <trkpt lat="47.27112" lon="-2.28236">
        <ele>33</ele>
        <time>2021-05-23T09:06:00.983Z</time>
      </trkpt>
      <trkpt lat="47.27112" lon="-2.28232">
        <ele>33</ele>
        <time>2021-05-23T09:06:01.982Z</time>
      </trkpt>
      <trkpt lat="47.27113" lon="-2.2823">
        <ele>32</ele>
        <time>2021-05-23T09:06:02.982Z</time>
      </trkpt>
      <trkpt lat="47.27113" lon="-2.28225">
        <ele>32</ele>
        <time>2021-05-23T09:06:03.983Z</time>
      </trkpt>
      <trkpt lat="47.27114" lon="-2.28222">
        <ele>31</ele>
        <time>2021-05-23T09:06:04.982Z</time>
      </trkpt>
      <trkpt lat="47.27114" lon="-2.28218">
        <ele>31</ele>
        <time>2021-05-23T09:06:05.983Z</time>
      </trkpt>
      <trkpt lat="47.27115" lon="-2.28215">
        <ele>31</ele>
        <time>2021-05-23T09:06:06.983Z</time>
      </trkpt>
      <trkpt lat="47.27115" lon="-2.28211">
        <ele>31</ele>
        <time>2021-05-23T09:06:07.983Z</time>
      </trkpt>
      <trkpt lat="47.27116" lon="-2.28206">
        <ele>31</ele>
        <time>2021-05-23T09:06:08.982Z</time>
      </trkpt>
      <trkpt lat="47.27117" lon="-2.28202">
        <ele>30</ele>
        <time>2021-05-23T09:06:09.983Z</time>
      </trkpt>
      <trkpt lat="47.27118" lon="-2.28199">
        <ele>30</ele>
        <time>2021-05-23T09:06:10.983Z</time>
      </trkpt>
      <trkpt lat="47.27119" lon="-2.28196">
        <ele>30</ele>
        <time>2021-05-23T09:06:11.983Z</time>
      </trkpt>
      <trkpt lat="47.27119" lon="-2.28192">
        <ele>30</ele>
        <time>2021-05-23T09:06:12.983Z</time>
      </trkpt>
      <trkpt lat="47.27119" lon="-2.28189">
        <ele>29</ele>
        <time>2021-05-23T09:06:13.983Z</time>
      </trkpt>
      <trkpt lat="47.2712" lon="-2.28185">
        <ele>29</ele>
        <time>2021-05-23T09:06:14.983Z</time>
      </trkpt>
      <trkpt lat="47.2712" lon="-2.28182">
        <ele>30</ele>
        <time>2021-05-23T09:06:15.983Z</time>
      </trkpt>
      <trkpt lat="47.27121" lon="-2.28178">
        <ele>30</ele>
        <time>2021-05-23T09:06:16.983Z</time>
      </trkpt>
      <trkpt lat="47.27122" lon="-2.28174">
        <ele>30</ele>
        <time>2021-05-23T09:06:17.983Z</time>
      </trkpt>
      <trkpt lat="47.27122" lon="-2.2817">
        <ele>30</ele>
        <time>2021-05-23T09:06:18.983Z</time>
      </trkpt>
      <trkpt lat="47.27122" lon="-2.28166">
        <ele>31</ele>
        <time>2021-05-23T09:06:19.983Z</time>
      </trkpt>
      <trkpt lat="47.27123" lon="-2.28163">
        <ele>31</ele>
        <time>2021-05-23T09:06:20.982Z</time>
      </trkpt>
      <trkpt lat="47.27123" lon="-2.2816">
        <ele>32</ele>
        <time>2021-05-23T09:06:21.982Z</time>
      </trkpt>
      <trkpt lat="47.27124" lon="-2.28156">
        <ele>33</ele>
        <time>2021-05-23T09:06:22.983Z</time>
      </trkpt>
      <trkpt lat="47.27125" lon="-2.28152">
        <ele>33</ele>
        <time>2021-05-23T09:06:23.983Z</time>
      </trkpt>
      <trkpt lat="47.27125" lon="-2.28149">
        <ele>33</ele>
        <time>2021-05-23T09:06:24.983Z</time>
      </trkpt>
      <trkpt lat="47.27124" lon="-2.28145">
        <ele>33</ele>
        <time>2021-05-23T09:06:25.983Z</time>
      </trkpt>
      <trkpt lat="47.27123" lon="-2.28141">
        <ele>33</ele>
        <time>2021-05-23T09:06:26.983Z</time>
      </trkpt>
      <trkpt lat="47.27123" lon="-2.28138">
        <ele>32</ele>
        <time>2021-05-23T09:06:27.983Z</time>
      </trkpt>
      <trkpt lat="47.27122" lon="-2.28136">
        <ele>32</ele>
        <time>2021-05-23T09:06:28.983Z</time>
      </trkpt>
      <trkpt lat="47.27122" lon="-2.28134">
        <ele>32</ele>
        <time>2021-05-23T09:06:29.983Z</time>
      </trkpt>
      <trkpt lat="47.27123" lon="-2.28131">
        <ele>32</ele>
        <time>2021-05-23T09:06:30.982Z</time>
      </trkpt>
      <trkpt lat="47.27123" lon="-2.2813">
        <ele>32</ele>
        <time>2021-05-23T09:06:31.983Z</time>
      </trkpt>
      <trkpt lat="47.27123" lon="-2.28127">
        <ele>32</ele>
        <time>2021-05-23T09:06:32.983Z</time>
      </trkpt>
      <trkpt lat="47.27122" lon="-2.28125">
        <ele>32</ele>
        <time>2021-05-23T09:06:33.983Z</time>
      </trkpt>
      <trkpt lat="47.27122" lon="-2.28123">
        <ele>32</ele>
        <time>2021-05-23T09:06:34.982Z</time>
      </trkpt>
      <trkpt lat="47.27122" lon="-2.28121">
        <ele>32</ele>
        <time>2021-05-23T09:06:35.983Z</time>
      </trkpt>
      <trkpt lat="47.27123" lon="-2.28119">
        <ele>33</ele>
        <time>2021-05-23T09:06:36.983Z</time>
      </trkpt>
      <trkpt lat="47.27123" lon="-2.28117">
        <ele>33</ele>
        <time>2021-05-23T09:06:37.983Z</time>
      </trkpt>
      <trkpt lat="47.27123" lon="-2.28114">
        <ele>33</ele>
        <time>2021-05-23T09:06:38.983Z</time>
      </trkpt>
      <trkpt lat="47.27124" lon="-2.28112">
        <ele>34</ele>
        <time>2021-05-23T09:06:39.982Z</time>
      </trkpt>
      <trkpt lat="47.27123" lon="-2.2811">
        <ele>34</ele>
        <time>2021-05-23T09:06:40.983Z</time>
      </trkpt>
      <trkpt lat="47.27123" lon="-2.28108">
        <ele>34</ele>
        <time>2021-05-23T09:06:41.983Z</time>
      </trkpt>
      <trkpt lat="47.27123" lon="-2.28105">
        <ele>34</ele>
        <time>2021-05-23T09:06:42.983Z</time>
      </trkpt>
      <trkpt lat="47.27123" lon="-2.28103">
        <ele>34</ele>
        <time>2021-05-23T09:06:43.982Z</time>
      </trkpt>
      <trkpt lat="47.27123" lon="-2.28101">
        <ele>35</ele>
        <time>2021-05-23T09:06:44.982Z</time>
      </trkpt>
      <trkpt lat="47.27123" lon="-2.28099">
        <ele>35</ele>
        <time>2021-05-23T09:06:45.983Z</time>
      </trkpt>
      <trkpt lat="47.27123" lon="-2.28097">
        <ele>35</ele>
        <time>2021-05-23T09:06:46.982Z</time>
      </trkpt>
      <trkpt lat="47.27123" lon="-2.28094">
        <ele>35</ele>
        <time>2021-05-23T09:06:47.983Z</time>
      </trkpt>
      <trkpt lat="47.27122" lon="-2.28092">
        <ele>35</ele>
        <time>2021-05-23T09:06:48.983Z</time>
      </trkpt>
      <trkpt lat="47.27122" lon="-2.2809">
        <ele>34</ele>
        <time>2021-05-23T09:06:49.982Z</time>
      </trkpt>
      <trkpt lat="47.27122" lon="-2.28088">
        <ele>34</ele>
        <time>2021-05-23T09:06:50.983Z</time>
      </trkpt>
      <trkpt lat="47.27122" lon="-2.28085">
        <ele>34</ele>
        <time>2021-05-23T09:06:51.983Z</time>
      </trkpt>
      <trkpt lat="47.27122" lon="-2.28083">
        <ele>34</ele>
        <time>2021-05-23T09:06:52.983Z</time>
      </trkpt>
      <trkpt lat="47.27122" lon="-2.2808">
        <ele>34</ele>
        <time>2021-05-23T09:06:53.982Z</time>
      </trkpt>
      <trkpt lat="47.27122" lon="-2.28078">
        <ele>34</ele>
        <time>2021-05-23T09:06:54.983Z</time>
      </trkpt>
      <trkpt lat="47.27123" lon="-2.28076">
        <ele>33</ele>
        <time>2021-05-23T09:06:55.983Z</time>
      </trkpt>
      <trkpt lat="47.27123" lon="-2.28073">
        <ele>33</ele>
        <time>2021-05-23T09:06:56.983Z</time>
      </trkpt>
      <trkpt lat="47.27123" lon="-2.28071">
        <ele>33</ele>
        <time>2021-05-23T09:06:57.983Z</time>
      </trkpt>
      <trkpt lat="47.27123" lon="-2.28069">
        <ele>32</ele>
        <time>2021-05-23T09:06:58.983Z</time>
      </trkpt>
      <trkpt lat="47.27123" lon="-2.28067">
        <ele>32</ele>
        <time>2021-05-23T09:06:59.982Z</time>
      </trkpt>
      <trkpt lat="47.27123" lon="-2.28064">
        <ele>33</ele>
        <time>2021-05-23T09:07:00.983Z</time>
      </trkpt>
      <trkpt lat="47.27123" lon="-2.28062">
        <ele>33</ele>
        <time>2021-05-23T09:07:01.983Z</time>
      </trkpt>
      <trkpt lat="47.27123" lon="-2.28059">
        <ele>33</ele>
        <time>2021-05-23T09:07:02.982Z</time>
      </trkpt>
      <trkpt lat="47.27123" lon="-2.28057">
        <ele>33</ele>
        <time>2021-05-23T09:07:03.983Z</time>
      </trkpt>
      <trkpt lat="47.27122" lon="-2.28055">
        <ele>34</ele>
        <time>2021-05-23T09:07:04.983Z</time>
      </trkpt>
      <trkpt lat="47.27122" lon="-2.28052">
        <ele>34</ele>
        <time>2021-05-23T09:07:05.983Z</time>
      </trkpt>
      <trkpt lat="47.27122" lon="-2.2805">
        <ele>34</ele>
        <time>2021-05-23T09:07:06.983Z</time>
      </trkpt>
      <trkpt lat="47.27122" lon="-2.28047">
        <ele>34</ele>
        <time>2021-05-23T09:07:07.983Z</time>
      </trkpt>
      <trkpt lat="47.27121" lon="-2.28045">
        <ele>34</ele>
        <time>2021-05-23T09:07:08.983Z</time>
      </trkpt>
      <trkpt lat="47.27121" lon="-2.28043">
        <ele>34</ele>
        <time>2021-05-23T09:07:09.983Z</time>
      </trkpt>
      <trkpt lat="47.2712" lon="-2.2804">
        <ele>34</ele>
        <time>2021-05-23T09:07:10.983Z</time>
      </trkpt>
      <trkpt lat="47.2712" lon="-2.28038">
        <ele>35</ele>
        <time>2021-05-23T09:07:11.983Z</time>
      </trkpt>
      <trkpt lat="47.2712" lon="-2.28036">
        <ele>35</ele>
        <time>2021-05-23T09:07:12.983Z</time>
      </trkpt>
      <trkpt lat="47.27119" lon="-2.28034">
        <ele>35</ele>
        <time>2021-05-23T09:07:13.982Z</time>
      </trkpt>
      <trkpt lat="47.27119" lon="-2.28031">
        <ele>35</ele>
        <time>2021-05-23T09:07:14.983Z</time>
      </trkpt>
      <trkpt lat="47.27118" lon="-2.28029">
        <ele>35</ele>
        <time>2021-05-23T09:07:15.982Z</time>
      </trkpt>
      <trkpt lat="47.27118" lon="-2.28028">
        <ele>35</ele>
        <time>2021-05-23T09:07:16.983Z</time>
      </trkpt>
      <trkpt lat="47.27118" lon="-2.28026">
        <ele>35</ele>
        <time>2021-05-23T09:07:17.982Z</time>
      </trkpt>
      <trkpt lat="47.27117" lon="-2.28024">
        <ele>35</ele>
        <time>2021-05-23T09:07:18.983Z</time>
      </trkpt>
      <trkpt lat="47.27117" lon="-2.28021">
        <ele>35</ele>
        <time>2021-05-23T09:07:19.983Z</time>
      </trkpt>
      <trkpt lat="47.27117" lon="-2.28019">
        <ele>35</ele>
        <time>2021-05-23T09:07:20.983Z</time>
      </trkpt>
      <trkpt lat="47.27116" lon="-2.28017">
        <ele>36</ele>
        <time>2021-05-23T09:07:21.982Z</time>
      </trkpt>
      <trkpt lat="47.27116" lon="-2.28015">
        <ele>36</ele>
        <time>2021-05-23T09:07:22.982Z</time>
      </trkpt>
      <trkpt lat="47.27116" lon="-2.28012">
        <ele>37</ele>
        <time>2021-05-23T09:07:23.983Z</time>
      </trkpt>
      <trkpt lat="47.27115" lon="-2.28009">
        <ele>37</ele>
        <time>2021-05-23T09:07:24.983Z</time>
      </trkpt>
      <trkpt lat="47.27115" lon="-2.28007">
        <ele>37</ele>
        <time>2021-05-23T09:07:25.982Z</time>
      </trkpt>
      <trkpt lat="47.27115" lon="-2.28005">
        <ele>38</ele>
        <time>2021-05-23T09:07:26.983Z</time>
      </trkpt>
      <trkpt lat="47.27114" lon="-2.28003">
        <ele>37</ele>
        <time>2021-05-23T09:07:27.983Z</time>
      </trkpt>
      <trkpt lat="47.27113" lon="-2.28002">
        <ele>37</ele>
        <time>2021-05-23T09:07:28.983Z</time>
      </trkpt>
      <trkpt lat="47.27113" lon="-2.28">
        <ele>37</ele>
        <time>2021-05-23T09:07:29.982Z</time>
      </trkpt>
      <trkpt lat="47.27112" lon="-2.27998">
        <ele>37</ele>
        <time>2021-05-23T09:07:30.983Z</time>
      </trkpt>
      <trkpt lat="47.27111" lon="-2.27997">
        <ele>37</ele>
        <time>2021-05-23T09:07:31.983Z</time>
      </trkpt>
      <trkpt lat="47.27109" lon="-2.27995">
        <ele>36</ele>
        <time>2021-05-23T09:07:32.983Z</time>
      </trkpt>
      <trkpt lat="47.27108" lon="-2.27993">
        <ele>36</ele>
        <time>2021-05-23T09:07:33.983Z</time>
      </trkpt>
      <trkpt lat="47.27107" lon="-2.27992">
        <ele>36</ele>
        <time>2021-05-23T09:07:34.983Z</time>
      </trkpt>
      <trkpt lat="47.27106" lon="-2.27991">
        <ele>36</ele>
        <time>2021-05-23T09:07:35.982Z</time>
      </trkpt>
      <trkpt lat="47.27104" lon="-2.2799">
        <ele>36</ele>
        <time>2021-05-23T09:07:36.982Z</time>
      </trkpt>
      <trkpt lat="47.27104" lon="-2.27989">
        <ele>36</ele>
        <time>2021-05-23T09:07:37.983Z</time>
      </trkpt>
      <trkpt lat="47.27103" lon="-2.27989">
        <ele>36</ele>
        <time>2021-05-23T09:07:38.983Z</time>
      </trkpt>
      <trkpt lat="47.27103" lon="-2.27989">
        <ele>36</ele>
        <time>2021-05-23T09:07:39.983Z</time>
      </trkpt>
      <trkpt lat="47.27103" lon="-2.27989">
        <ele>36</ele>
        <time>2021-05-23T09:07:40.983Z</time>
      </trkpt>
      <trkpt lat="47.27103" lon="-2.27989">
        <ele>36</ele>
        <time>2021-05-23T09:07:41.983Z</time>
      </trkpt>
      <trkpt lat="47.27103" lon="-2.27988">
        <ele>36</ele>
        <time>2021-05-23T09:07:42.983Z</time>
      </trkpt>
      <trkpt lat="47.27103" lon="-2.27988">
        <ele>36</ele>
        <time>2021-05-23T09:07:43.983Z</time>
      </trkpt>
      <trkpt lat="47.27103" lon="-2.27989">
        <ele>36</ele>
        <time>2021-05-23T09:07:44.983Z</time>
      </trkpt>
      <trkpt lat="47.27103" lon="-2.27989">
        <ele>35</ele>
        <time>2021-05-23T09:07:45.983Z</time>
      </trkpt>
      <trkpt lat="47.27104" lon="-2.27989">
        <ele>35</ele>
        <time>2021-05-23T09:07:46.983Z</time>
      </trkpt>
      <trkpt lat="47.27104" lon="-2.2799">
        <ele>35</ele>
        <time>2021-05-23T09:07:47.983Z</time>
      </trkpt>
      <trkpt lat="47.27105" lon="-2.2799">
        <ele>36</ele>
        <time>2021-05-23T09:07:48.983Z</time>
      </trkpt>
      <trkpt lat="47.27106" lon="-2.2799">
        <ele>36</ele>
        <time>2021-05-23T09:07:49.983Z</time>
      </trkpt>
      <trkpt lat="47.27106" lon="-2.2799">
        <ele>36</ele>
        <time>2021-05-23T09:07:50.983Z</time>
      </trkpt>
      <trkpt lat="47.27105" lon="-2.27989">
        <ele>37</ele>
        <time>2021-05-23T09:07:51.982Z</time>
      </trkpt>
      <trkpt lat="47.27105" lon="-2.27988">
        <ele>37</ele>
        <time>2021-05-23T09:07:52.983Z</time>
      </trkpt>
      <trkpt lat="47.27105" lon="-2.27988">
        <ele>37</ele>
        <time>2021-05-23T09:07:53.983Z</time>
      </trkpt>
      <trkpt lat="47.27105" lon="-2.27988">
        <ele>37</ele>
        <time>2021-05-23T09:07:54.982Z</time>
      </trkpt>
      <trkpt lat="47.27105" lon="-2.27988">
        <ele>37</ele>
        <time>2021-05-23T09:07:55.983Z</time>
      </trkpt>
      <trkpt lat="47.27105" lon="-2.27988">
        <ele>37</ele>
        <time>2021-05-23T09:07:56.983Z</time>
      </trkpt>
      <trkpt lat="47.27105" lon="-2.27988">
        <ele>37</ele>
        <time>2021-05-23T09:07:57.983Z</time>
      </trkpt>
      <trkpt lat="47.27105" lon="-2.27988">
        <ele>37</ele>
        <time>2021-05-23T09:07:58.982Z</time>
      </trkpt>
      <trkpt lat="47.27105" lon="-2.27988">
        <ele>37</ele>
        <time>2021-05-23T09:07:59.983Z</time>
      </trkpt>
      <trkpt lat="47.27105" lon="-2.27988">
        <ele>36</ele>
        <time>2021-05-23T09:08:00.983Z</time>
      </trkpt>
      <trkpt lat="47.27105" lon="-2.27988">
        <ele>36</ele>
        <time>2021-05-23T09:08:01.983Z</time>
      </trkpt>
      <trkpt lat="47.27105" lon="-2.27988">
        <ele>36</ele>
        <time>2021-05-23T09:08:02.983Z</time>
      </trkpt>
      <trkpt lat="47.27105" lon="-2.27988">
        <ele>36</ele>
        <time>2021-05-23T09:08:03.983Z</time>
      </trkpt>
      <trkpt lat="47.27105" lon="-2.27988">
        <ele>36</ele>
        <time>2021-05-23T09:08:04.983Z</time>
      </trkpt>
      <trkpt lat="47.27105" lon="-2.27988">
        <ele>36</ele>
        <time>2021-05-23T09:08:05.982Z</time>
      </trkpt>
      <trkpt lat="47.27105" lon="-2.27988">
        <ele>36</ele>
        <time>2021-05-23T09:08:06.982Z</time>
      </trkpt>
      <trkpt lat="47.27104" lon="-2.27988">
        <ele>36</ele>
        <time>2021-05-23T09:08:07.982Z</time>
      </trkpt>
      <trkpt lat="47.27102" lon="-2.27988">
        <ele>36</ele>
        <time>2021-05-23T09:08:08.982Z</time>
      </trkpt>
      <trkpt lat="47.27101" lon="-2.27987">
        <ele>36</ele>
        <time>2021-05-23T09:08:09.983Z</time>
      </trkpt>
      <trkpt lat="47.27099" lon="-2.27987">
        <ele>36</ele>
        <time>2021-05-23T09:08:10.983Z</time>
      </trkpt>
      <trkpt lat="47.27098" lon="-2.27988">
        <ele>35</ele>
        <time>2021-05-23T09:08:11.983Z</time>
      </trkpt>
      <trkpt lat="47.27098" lon="-2.27989">
        <ele>35</ele>
        <time>2021-05-23T09:08:12.982Z</time>
      </trkpt>
      <trkpt lat="47.27098" lon="-2.27989">
        <ele>35</ele>
        <time>2021-05-23T09:08:13.982Z</time>
      </trkpt>
      <trkpt lat="47.27097" lon="-2.27994">
        <ele>35</ele>
        <time>2021-05-23T09:08:14.983Z</time>
      </trkpt>
      <trkpt lat="47.27096" lon="-2.27996">
        <ele>35</ele>
        <time>2021-05-23T09:08:15.983Z</time>
      </trkpt>
      <trkpt lat="47.27095" lon="-2.27998">
        <ele>35</ele>
        <time>2021-05-23T09:08:16.982Z</time>
      </trkpt>
      <trkpt lat="47.27095" lon="-2.28">
        <ele>35</ele>
        <time>2021-05-23T09:08:17.983Z</time>
      </trkpt>
      <trkpt lat="47.27095" lon="-2.28002">
        <ele>34</ele>
        <time>2021-05-23T09:08:18.982Z</time>
      </trkpt>
      <trkpt lat="47.27095" lon="-2.28004">
        <ele>34</ele>
        <time>2021-05-23T09:08:19.983Z</time>
      </trkpt>
      <trkpt lat="47.27095" lon="-2.28004">
        <ele>35</ele>
        <time>2021-05-23T09:08:20.983Z</time>
      </trkpt>
      <trkpt lat="47.27096" lon="-2.28005">
        <ele>35</ele>
        <time>2021-05-23T09:08:21.982Z</time>
      </trkpt>
      <trkpt lat="47.27096" lon="-2.28005">
        <ele>35</ele>
        <time>2021-05-23T09:08:22.983Z</time>
      </trkpt>
      <trkpt lat="47.27095" lon="-2.28005">
        <ele>36</ele>
        <time>2021-05-23T09:08:23.982Z</time>
      </trkpt>
      <trkpt lat="47.27096" lon="-2.28005">
        <ele>36</ele>
        <time>2021-05-23T09:08:24.982Z</time>
      </trkpt>
      <trkpt lat="47.27096" lon="-2.28006">
        <ele>36</ele>
        <time>2021-05-23T09:08:25.983Z</time>
      </trkpt>
      <trkpt lat="47.27096" lon="-2.28006">
        <ele>36</ele>
        <time>2021-05-23T09:08:26.983Z</time>
      </trkpt>
      <trkpt lat="47.27096" lon="-2.28005">
        <ele>36</ele>
        <time>2021-05-23T09:08:27.983Z</time>
      </trkpt>
      <trkpt lat="47.27096" lon="-2.28005">
        <ele>36</ele>
        <time>2021-05-23T09:08:28.983Z</time>
      </trkpt>
      <trkpt lat="47.27096" lon="-2.28005">
        <ele>36</ele>
        <time>2021-05-23T09:08:29.983Z</time>
      </trkpt>
      <trkpt lat="47.27096" lon="-2.28005">
        <ele>36</ele>
        <time>2021-05-23T09:08:30.982Z</time>
      </trkpt>
      <trkpt lat="47.27096" lon="-2.28005">
        <ele>36</ele>
        <time>2021-05-23T09:08:31.983Z</time>
      </trkpt>
      <trkpt lat="47.27096" lon="-2.28005">
        <ele>36</ele>
        <time>2021-05-23T09:08:32.983Z</time>
      </trkpt>
      <trkpt lat="47.27096" lon="-2.28005">
        <ele>36</ele>
        <time>2021-05-23T09:08:33.983Z</time>
      </trkpt>
      <trkpt lat="47.27096" lon="-2.28005">
        <ele>36</ele>
        <time>2021-05-23T09:08:34.982Z</time>
      </trkpt>
      <trkpt lat="47.27096" lon="-2.28005">
        <ele>36</ele>
        <time>2021-05-23T09:08:35.982Z</time>
      </trkpt>
      <trkpt lat="47.27096" lon="-2.28005">
        <ele>36</ele>
        <time>2021-05-23T09:08:36.982Z</time>
      </trkpt>
      <trkpt lat="47.27096" lon="-2.28005">
        <ele>36</ele>
        <time>2021-05-23T09:08:37.983Z</time>
      </trkpt>
      <trkpt lat="47.27096" lon="-2.28005">
        <ele>36</ele>
        <time>2021-05-23T09:08:38.983Z</time>
      </trkpt>
      <trkpt lat="47.27096" lon="-2.28004">
        <ele>36</ele>
        <time>2021-05-23T09:08:39.982Z</time>
      </trkpt>
      <trkpt lat="47.27096" lon="-2.28002">
        <ele>36</ele>
        <time>2021-05-23T09:08:40.983Z</time>
      </trkpt>
      <trkpt lat="47.27096" lon="-2.27999">
        <ele>36</ele>
        <time>2021-05-23T09:08:41.983Z</time>
      </trkpt>
      <trkpt lat="47.27096" lon="-2.27997">
        <ele>36</ele>
        <time>2021-05-23T09:08:42.982Z</time>
      </trkpt>
      <trkpt lat="47.27096" lon="-2.27994">
        <ele>36</ele>
        <time>2021-05-23T09:08:43.982Z</time>
      </trkpt>
      <trkpt lat="47.27095" lon="-2.27992">
        <ele>36</ele>
        <time>2021-05-23T09:08:44.983Z</time>
      </trkpt>
      <trkpt lat="47.27094" lon="-2.27991">
        <ele>36</ele>
        <time>2021-05-23T09:08:45.983Z</time>
      </trkpt>
      <trkpt lat="47.27093" lon="-2.27989">
        <ele>36</ele>
        <time>2021-05-23T09:08:46.983Z</time>
      </trkpt>
      <trkpt lat="47.27091" lon="-2.27987">
        <ele>36</ele>
        <time>2021-05-23T09:08:47.982Z</time>
      </trkpt>
      <trkpt lat="47.2709" lon="-2.27985">
        <ele>36</ele>
        <time>2021-05-23T09:08:48.982Z</time>
      </trkpt>
      <trkpt lat="47.27089" lon="-2.27984">
        <ele>36</ele>
        <time>2021-05-23T09:08:49.983Z</time>
      </trkpt>
      <trkpt lat="47.27087" lon="-2.27983">
        <ele>37</ele>
        <time>2021-05-23T09:08:50.983Z</time>
      </trkpt>
      <trkpt lat="47.27085" lon="-2.27981">
        <ele>37</ele>
        <time>2021-05-23T09:08:51.983Z</time>
      </trkpt>
      <trkpt lat="47.27084" lon="-2.2798">
        <ele>37</ele>
        <time>2021-05-23T09:08:52.982Z</time>
      </trkpt>
      <trkpt lat="47.27083" lon="-2.27979">
        <ele>37</ele>
        <time>2021-05-23T09:08:53.983Z</time>
      </trkpt>
      <trkpt lat="47.27081" lon="-2.27977">
        <ele>37</ele>
        <time>2021-05-23T09:08:54.982Z</time>
      </trkpt>
      <trkpt lat="47.2708" lon="-2.27975">
        <ele>37</ele>
        <time>2021-05-23T09:08:55.982Z</time>
      </trkpt>
      <trkpt lat="47.27078" lon="-2.27973">
        <ele>37</ele>
        <time>2021-05-23T09:08:56.983Z</time>
      </trkpt>
      <trkpt lat="47.27077" lon="-2.27971">
        <ele>37</ele>
        <time>2021-05-23T09:08:57.982Z</time>
      </trkpt>
      <trkpt lat="47.27075" lon="-2.27969">
        <ele>37</ele>
        <time>2021-05-23T09:08:58.983Z</time>
      </trkpt>
      <trkpt lat="47.27074" lon="-2.27967">
        <ele>37</ele>
        <time>2021-05-23T09:08:59.982Z</time>
      </trkpt>
      <trkpt lat="47.27072" lon="-2.27964">
        <ele>37</ele>
        <time>2021-05-23T09:09:00.983Z</time>
      </trkpt>
      <trkpt lat="47.27071" lon="-2.27961">
        <ele>37</ele>
        <time>2021-05-23T09:09:01.982Z</time>
      </trkpt>
      <trkpt lat="47.2707" lon="-2.27958">
        <ele>37</ele>
        <time>2021-05-23T09:09:02.983Z</time>
      </trkpt>
      <trkpt lat="47.27069" lon="-2.27955">
        <ele>37</ele>
        <time>2021-05-23T09:09:03.983Z</time>
      </trkpt>
      <trkpt lat="47.27069" lon="-2.27952">
        <ele>38</ele>
        <time>2021-05-23T09:09:04.983Z</time>
      </trkpt>
      <trkpt lat="47.27068" lon="-2.27949">
        <ele>38</ele>
        <time>2021-05-23T09:09:05.983Z</time>
      </trkpt>
      <trkpt lat="47.27068" lon="-2.27946">
        <ele>38</ele>
        <time>2021-05-23T09:09:06.983Z</time>
      </trkpt>
      <trkpt lat="47.27068" lon="-2.27943">
        <ele>38</ele>
        <time>2021-05-23T09:09:07.982Z</time>
      </trkpt>
      <trkpt lat="47.27068" lon="-2.27939">
        <ele>38</ele>
        <time>2021-05-23T09:09:08.983Z</time>
      </trkpt>
      <trkpt lat="47.27068" lon="-2.27935">
        <ele>38</ele>
        <time>2021-05-23T09:09:09.982Z</time>
      </trkpt>
      <trkpt lat="47.27068" lon="-2.27932">
        <ele>38</ele>
        <time>2021-05-23T09:09:10.983Z</time>
      </trkpt>
      <trkpt lat="47.27069" lon="-2.27928">
        <ele>38</ele>
        <time>2021-05-23T09:09:11.983Z</time>
      </trkpt>
      <trkpt lat="47.27069" lon="-2.27925">
        <ele>38</ele>
        <time>2021-05-23T09:09:12.983Z</time>
      </trkpt>
      <trkpt lat="47.2707" lon="-2.27922">
        <ele>38</ele>
        <time>2021-05-23T09:09:13.983Z</time>
      </trkpt>
      <trkpt lat="47.2707" lon="-2.27919">
        <ele>38</ele>
        <time>2021-05-23T09:09:14.983Z</time>
      </trkpt>
      <trkpt lat="47.27071" lon="-2.27916">
        <ele>37</ele>
        <time>2021-05-23T09:09:15.983Z</time>
      </trkpt>
      <trkpt lat="47.27071" lon="-2.27913">
        <ele>37</ele>
        <time>2021-05-23T09:09:16.983Z</time>
      </trkpt>
      <trkpt lat="47.27073" lon="-2.2791">
        <ele>37</ele>
        <time>2021-05-23T09:09:17.982Z</time>
      </trkpt>
      <trkpt lat="47.27074" lon="-2.27908">
        <ele>38</ele>
        <time>2021-05-23T09:09:18.983Z</time>
      </trkpt>
      <trkpt lat="47.27076" lon="-2.27905">
        <ele>38</ele>
        <time>2021-05-23T09:09:19.983Z</time>
      </trkpt>
      <trkpt lat="47.27078" lon="-2.27903">
        <ele>38</ele>
        <time>2021-05-23T09:09:20.983Z</time>
      </trkpt>
      <trkpt lat="47.2708" lon="-2.279">
        <ele>38</ele>
        <time>2021-05-23T09:09:21.983Z</time>
      </trkpt>
      <trkpt lat="47.27082" lon="-2.27898">
        <ele>38</ele>
        <time>2021-05-23T09:09:22.982Z</time>
      </trkpt>
      <trkpt lat="47.27084" lon="-2.27896">
        <ele>38</ele>
        <time>2021-05-23T09:09:23.983Z</time>
      </trkpt>
      <trkpt lat="47.27086" lon="-2.27894">
        <ele>38</ele>
        <time>2021-05-23T09:09:24.983Z</time>
      </trkpt>
      <trkpt lat="47.27087" lon="-2.27893">
        <ele>38</ele>
        <time>2021-05-23T09:09:25.983Z</time>
      </trkpt>
      <trkpt lat="47.27089" lon="-2.2789">
        <ele>38</ele>
        <time>2021-05-23T09:09:26.982Z</time>
      </trkpt>
      <trkpt lat="47.27091" lon="-2.27888">
        <ele>38</ele>
        <time>2021-05-23T09:09:27.982Z</time>
      </trkpt>
      <trkpt lat="47.27092" lon="-2.27886">
        <ele>38</ele>
        <time>2021-05-23T09:09:28.983Z</time>
      </trkpt>
      <trkpt lat="47.27094" lon="-2.27884">
        <ele>39</ele>
        <time>2021-05-23T09:09:29.982Z</time>
      </trkpt>
      <trkpt lat="47.27095" lon="-2.27881">
        <ele>39</ele>
        <time>2021-05-23T09:09:30.983Z</time>
      </trkpt>
      <trkpt lat="47.27097" lon="-2.27878">
        <ele>39</ele>
        <time>2021-05-23T09:09:31.982Z</time>
      </trkpt>
      <trkpt lat="47.27099" lon="-2.27874">
        <ele>40</ele>
        <time>2021-05-23T09:09:32.982Z</time>
      </trkpt>
      <trkpt lat="47.271" lon="-2.27871">
        <ele>40</ele>
        <time>2021-05-23T09:09:33.983Z</time>
      </trkpt>
      <trkpt lat="47.27101" lon="-2.27867">
        <ele>39</ele>
        <time>2021-05-23T09:09:34.983Z</time>
      </trkpt>
      <trkpt lat="47.27102" lon="-2.27863">
        <ele>39</ele>
        <time>2021-05-23T09:09:35.983Z</time>
      </trkpt>
      <trkpt lat="47.27103" lon="-2.27859">
        <ele>39</ele>
        <time>2021-05-23T09:09:36.983Z</time>
      </trkpt>
      <trkpt lat="47.27104" lon="-2.27856">
        <ele>39</ele>
        <time>2021-05-23T09:09:37.983Z</time>
      </trkpt>
      <trkpt lat="47.27105" lon="-2.27853">
        <ele>38</ele>
        <time>2021-05-23T09:09:38.983Z</time>
      </trkpt>
      <trkpt lat="47.27106" lon="-2.27849">
        <ele>38</ele>
        <time>2021-05-23T09:09:39.983Z</time>
      </trkpt>
      <trkpt lat="47.27107" lon="-2.27844">
        <ele>37</ele>
        <time>2021-05-23T09:09:40.983Z</time>
      </trkpt>
      <trkpt lat="47.27108" lon="-2.27841">
        <ele>37</ele>
        <time>2021-05-23T09:09:41.983Z</time>
      </trkpt>
      <trkpt lat="47.27109" lon="-2.27837">
        <ele>37</ele>
        <time>2021-05-23T09:09:42.982Z</time>
      </trkpt>
      <trkpt lat="47.27109" lon="-2.27834">
        <ele>36</ele>
        <time>2021-05-23T09:09:43.982Z</time>
      </trkpt>
      <trkpt lat="47.2711" lon="-2.27831">
        <ele>36</ele>
        <time>2021-05-23T09:09:44.983Z</time>
      </trkpt>
      <trkpt lat="47.27111" lon="-2.27826">
        <ele>36</ele>
        <time>2021-05-23T09:09:45.982Z</time>
      </trkpt>
      <trkpt lat="47.27112" lon="-2.27823">
        <ele>36</ele>
        <time>2021-05-23T09:09:46.983Z</time>
      </trkpt>
      <trkpt lat="47.27113" lon="-2.2782">
        <ele>36</ele>
        <time>2021-05-23T09:09:47.983Z</time>
      </trkpt>
      <trkpt lat="47.27114" lon="-2.27817">
        <ele>36</ele>
        <time>2021-05-23T09:09:48.983Z</time>
      </trkpt>
      <trkpt lat="47.27116" lon="-2.27814">
        <ele>36</ele>
        <time>2021-05-23T09:09:49.982Z</time>
      </trkpt>
      <trkpt lat="47.27116" lon="-2.27811">
        <ele>36</ele>
        <time>2021-05-23T09:09:50.983Z</time>
      </trkpt>
      <trkpt lat="47.27117" lon="-2.27807">
        <ele>35</ele>
        <time>2021-05-23T09:09:51.983Z</time>
      </trkpt>
      <trkpt lat="47.27116" lon="-2.27803">
        <ele>35</ele>
        <time>2021-05-23T09:09:52.982Z</time>
      </trkpt>
      <trkpt lat="47.27116" lon="-2.27799">
        <ele>35</ele>
        <time>2021-05-23T09:09:53.982Z</time>
      </trkpt>
      <trkpt lat="47.27114" lon="-2.27796">
        <ele>35</ele>
        <time>2021-05-23T09:09:54.982Z</time>
      </trkpt>
      <trkpt lat="47.27113" lon="-2.27792">
        <ele>35</ele>
        <time>2021-05-23T09:09:55.982Z</time>
      </trkpt>
      <trkpt lat="47.27112" lon="-2.27789">
        <ele>35</ele>
        <time>2021-05-23T09:09:56.982Z</time>
      </trkpt>
      <trkpt lat="47.2711" lon="-2.27787">
        <ele>35</ele>
        <time>2021-05-23T09:09:57.982Z</time>
      </trkpt>
      <trkpt lat="47.27108" lon="-2.27783">
        <ele>34</ele>
        <time>2021-05-23T09:09:58.983Z</time>
      </trkpt>
      <trkpt lat="47.27108" lon="-2.2778">
        <ele>34</ele>
        <time>2021-05-23T09:09:59.982Z</time>
      </trkpt>
      <trkpt lat="47.27107" lon="-2.27776">
        <ele>34</ele>
        <time>2021-05-23T09:10:00.982Z</time>
      </trkpt>
      <trkpt lat="47.27106" lon="-2.27773">
        <ele>34</ele>
        <time>2021-05-23T09:10:01.982Z</time>
      </trkpt>
      <trkpt lat="47.27105" lon="-2.27771">
        <ele>33</ele>
        <time>2021-05-23T09:10:02.982Z</time>
      </trkpt>
      <trkpt lat="47.27105" lon="-2.2777">
        <ele>33</ele>
        <time>2021-05-23T09:10:03.982Z</time>
      </trkpt>
      <trkpt lat="47.27105" lon="-2.2777">
        <ele>33</ele>
        <time>2021-05-23T09:10:04.982Z</time>
      </trkpt>
      <trkpt lat="47.27105" lon="-2.2777">
        <ele>33</ele>
        <time>2021-05-23T09:10:05.983Z</time>
      </trkpt>
      <trkpt lat="47.27105" lon="-2.2777">
        <ele>34</ele>
        <time>2021-05-23T09:10:06.983Z</time>
      </trkpt>
      <trkpt lat="47.27105" lon="-2.2777">
        <ele>34</ele>
        <time>2021-05-23T09:10:07.983Z</time>
      </trkpt>
      <trkpt lat="47.27105" lon="-2.27771">
        <ele>34</ele>
        <time>2021-05-23T09:10:08.982Z</time>
      </trkpt>
      <trkpt lat="47.27105" lon="-2.27771">
        <ele>34</ele>
        <time>2021-05-23T09:10:09.982Z</time>
      </trkpt>
      <trkpt lat="47.27106" lon="-2.27771">
        <ele>34</ele>
        <time>2021-05-23T09:10:10.983Z</time>
      </trkpt>
      <trkpt lat="47.27106" lon="-2.27771">
        <ele>34</ele>
        <time>2021-05-23T09:10:11.982Z</time>
      </trkpt>
      <trkpt lat="47.27106" lon="-2.2777">
        <ele>35</ele>
        <time>2021-05-23T09:10:12.982Z</time>
      </trkpt>
      <trkpt lat="47.27105" lon="-2.27769">
        <ele>35</ele>
        <time>2021-05-23T09:10:13.982Z</time>
      </trkpt>
      <trkpt lat="47.27105" lon="-2.27767">
        <ele>35</ele>
        <time>2021-05-23T09:10:14.982Z</time>
      </trkpt>
      <trkpt lat="47.27104" lon="-2.27765">
        <ele>35</ele>
        <time>2021-05-23T09:10:15.983Z</time>
      </trkpt>
      <trkpt lat="47.27103" lon="-2.27762">
        <ele>35</ele>
        <time>2021-05-23T09:10:16.982Z</time>
      </trkpt>
      <trkpt lat="47.27101" lon="-2.27759">
        <ele>35</ele>
        <time>2021-05-23T09:10:17.982Z</time>
      </trkpt>
      <trkpt lat="47.27099" lon="-2.27756">
        <ele>36</ele>
        <time>2021-05-23T09:10:18.982Z</time>
      </trkpt>
      <trkpt lat="47.27097" lon="-2.27756">
        <ele>36</ele>
        <time>2021-05-23T09:10:19.982Z</time>
      </trkpt>
      <trkpt lat="47.27095" lon="-2.27754">
        <ele>35</ele>
        <time>2021-05-23T09:10:20.982Z</time>
      </trkpt>
      <trkpt lat="47.27093" lon="-2.27753">
        <ele>35</ele>
        <time>2021-05-23T09:10:21.982Z</time>
      </trkpt>
      <trkpt lat="47.27091" lon="-2.27751">
        <ele>36</ele>
        <time>2021-05-23T09:10:22.982Z</time>
      </trkpt>
      <trkpt lat="47.27088" lon="-2.2775">
        <ele>36</ele>
        <time>2021-05-23T09:10:23.982Z</time>
      </trkpt>
      <trkpt lat="47.27086" lon="-2.27749">
        <ele>35</ele>
        <time>2021-05-23T09:10:24.983Z</time>
      </trkpt>
      <trkpt lat="47.27083" lon="-2.27747">
        <ele>35</ele>
        <time>2021-05-23T09:10:25.983Z</time>
      </trkpt>
      <trkpt lat="47.27081" lon="-2.27746">
        <ele>35</ele>
        <time>2021-05-23T09:10:26.982Z</time>
      </trkpt>
      <trkpt lat="47.27079" lon="-2.27745">
        <ele>34</ele>
        <time>2021-05-23T09:10:27.983Z</time>
      </trkpt>
      <trkpt lat="47.27077" lon="-2.27743">
        <ele>33</ele>
        <time>2021-05-23T09:10:28.982Z</time>
      </trkpt>
      <trkpt lat="47.27075" lon="-2.27743">
        <ele>32</ele>
        <time>2021-05-23T09:10:29.983Z</time>
      </trkpt>
      <trkpt lat="47.27072" lon="-2.27742">
        <ele>31</ele>
        <time>2021-05-23T09:10:30.982Z</time>
      </trkpt>
      <trkpt lat="47.2707" lon="-2.27741">
        <ele>31</ele>
        <time>2021-05-23T09:10:31.982Z</time>
      </trkpt>
      <trkpt lat="47.27068" lon="-2.27739">
        <ele>30</ele>
        <time>2021-05-23T09:10:32.982Z</time>
      </trkpt>
      <trkpt lat="47.27066" lon="-2.27738">
        <ele>30</ele>
        <time>2021-05-23T09:10:33.983Z</time>
      </trkpt>
      <trkpt lat="47.27064" lon="-2.27737">
        <ele>29</ele>
        <time>2021-05-23T09:10:34.983Z</time>
      </trkpt>
      <trkpt lat="47.27062" lon="-2.27736">
        <ele>29</ele>
        <time>2021-05-23T09:10:35.983Z</time>
      </trkpt>
      <trkpt lat="47.27059" lon="-2.27735">
        <ele>29</ele>
        <time>2021-05-23T09:10:36.983Z</time>
      </trkpt>
      <trkpt lat="47.27057" lon="-2.27734">
        <ele>29</ele>
        <time>2021-05-23T09:10:37.983Z</time>
      </trkpt>
      <trkpt lat="47.27055" lon="-2.27732">
        <ele>29</ele>
        <time>2021-05-23T09:10:38.982Z</time>
      </trkpt>
      <trkpt lat="47.27052" lon="-2.27732">
        <ele>29</ele>
        <time>2021-05-23T09:10:39.982Z</time>
      </trkpt>
      <trkpt lat="47.2705" lon="-2.27731">
        <ele>30</ele>
        <time>2021-05-23T09:10:40.983Z</time>
      </trkpt>
      <trkpt lat="47.27048" lon="-2.27731">
        <ele>30</ele>
        <time>2021-05-23T09:10:41.983Z</time>
      </trkpt>
      <trkpt lat="47.27045" lon="-2.2773">
        <ele>30</ele>
        <time>2021-05-23T09:10:42.982Z</time>
      </trkpt>
      <trkpt lat="47.27043" lon="-2.27728">
        <ele>30</ele>
        <time>2021-05-23T09:10:43.983Z</time>
      </trkpt>
      <trkpt lat="47.2704" lon="-2.27727">
        <ele>30</ele>
        <time>2021-05-23T09:10:44.982Z</time>
      </trkpt>
      <trkpt lat="47.27038" lon="-2.27727">
        <ele>30</ele>
        <time>2021-05-23T09:10:45.983Z</time>
      </trkpt>
      <trkpt lat="47.27036" lon="-2.27726">
        <ele>30</ele>
        <time>2021-05-23T09:10:46.983Z</time>
      </trkpt>
      <trkpt lat="47.27035" lon="-2.27726">
        <ele>30</ele>
        <time>2021-05-23T09:10:47.983Z</time>
      </trkpt>
      <trkpt lat="47.27033" lon="-2.27725">
        <ele>30</ele>
        <time>2021-05-23T09:10:48.983Z</time>
      </trkpt>
      <trkpt lat="47.27031" lon="-2.27724">
        <ele>29</ele>
        <time>2021-05-23T09:10:49.982Z</time>
      </trkpt>
      <trkpt lat="47.27029" lon="-2.27723">
        <ele>29</ele>
        <time>2021-05-23T09:10:50.983Z</time>
      </trkpt>
      <trkpt lat="47.27027" lon="-2.27721">
        <ele>29</ele>
        <time>2021-05-23T09:10:51.983Z</time>
      </trkpt>
      <trkpt lat="47.27026" lon="-2.27718">
        <ele>29</ele>
        <time>2021-05-23T09:10:52.982Z</time>
      </trkpt>
      <trkpt lat="47.27025" lon="-2.27716">
        <ele>28</ele>
        <time>2021-05-23T09:10:53.983Z</time>
      </trkpt>
      <trkpt lat="47.27025" lon="-2.27712">
        <ele>28</ele>
        <time>2021-05-23T09:10:54.983Z</time>
      </trkpt>
      <trkpt lat="47.27026" lon="-2.27708">
        <ele>28</ele>
        <time>2021-05-23T09:10:55.983Z</time>
      </trkpt>
      <trkpt lat="47.27027" lon="-2.27705">
        <ele>28</ele>
        <time>2021-05-23T09:10:56.982Z</time>
      </trkpt>
      <trkpt lat="47.27028" lon="-2.27702">
        <ele>28</ele>
        <time>2021-05-23T09:10:57.982Z</time>
      </trkpt>
      <trkpt lat="47.27029" lon="-2.27699">
        <ele>28</ele>
        <time>2021-05-23T09:10:58.983Z</time>
      </trkpt>
      <trkpt lat="47.27031" lon="-2.27696">
        <ele>28</ele>
        <time>2021-05-23T09:10:59.982Z</time>
      </trkpt>
      <trkpt lat="47.27032" lon="-2.27694">
        <ele>29</ele>
        <time>2021-05-23T09:11:00.983Z</time>
      </trkpt>
      <trkpt lat="47.27034" lon="-2.27691">
        <ele>29</ele>
        <time>2021-05-23T09:11:01.983Z</time>
      </trkpt>
      <trkpt lat="47.27036" lon="-2.27688">
        <ele>29</ele>
        <time>2021-05-23T09:11:02.983Z</time>
      </trkpt>
      <trkpt lat="47.27039" lon="-2.27685">
        <ele>29</ele>
        <time>2021-05-23T09:11:03.982Z</time>
      </trkpt>
      <trkpt lat="47.27041" lon="-2.27682">
        <ele>29</ele>
        <time>2021-05-23T09:11:04.983Z</time>
      </trkpt>
      <trkpt lat="47.27043" lon="-2.27679">
        <ele>29</ele>
        <time>2021-05-23T09:11:05.983Z</time>
      </trkpt>
      <trkpt lat="47.27045" lon="-2.27676">
        <ele>30</ele>
        <time>2021-05-23T09:11:06.983Z</time>
      </trkpt>
      <trkpt lat="47.27047" lon="-2.27674">
        <ele>30</ele>
        <time>2021-05-23T09:11:07.983Z</time>
      </trkpt>
      <trkpt lat="47.27048" lon="-2.27672">
        <ele>31</ele>
        <time>2021-05-23T09:11:08.982Z</time>
      </trkpt>
      <trkpt lat="47.2705" lon="-2.2767">
        <ele>31</ele>
        <time>2021-05-23T09:11:09.982Z</time>
      </trkpt>
      <trkpt lat="47.27052" lon="-2.27668">
        <ele>32</ele>
        <time>2021-05-23T09:11:10.982Z</time>
      </trkpt>
      <trkpt lat="47.27054" lon="-2.27665">
        <ele>32</ele>
        <time>2021-05-23T09:11:11.983Z</time>
      </trkpt>
      <trkpt lat="47.27055" lon="-2.27663">
        <ele>33</ele>
        <time>2021-05-23T09:11:12.983Z</time>
      </trkpt>
      <trkpt lat="47.27057" lon="-2.27661">
        <ele>33</ele>
        <time>2021-05-23T09:11:13.982Z</time>
      </trkpt>
      <trkpt lat="47.2706" lon="-2.27659">
        <ele>33</ele>
        <time>2021-05-23T09:11:14.982Z</time>
      </trkpt>
      <trkpt lat="47.27062" lon="-2.27657">
        <ele>33</ele>
        <time>2021-05-23T09:11:15.983Z</time>
      </trkpt>
      <trkpt lat="47.27065" lon="-2.27654">
        <ele>33</ele>
        <time>2021-05-23T09:11:16.983Z</time>
      </trkpt>
      <trkpt lat="47.27068" lon="-2.27652">
        <ele>33</ele>
        <time>2021-05-23T09:11:17.983Z</time>
      </trkpt>
      <trkpt lat="47.2707" lon="-2.2765">
        <ele>33</ele>
        <time>2021-05-23T09:11:18.982Z</time>
      </trkpt>
      <trkpt lat="47.27072" lon="-2.27649">
        <ele>33</ele>
        <time>2021-05-23T09:11:19.982Z</time>
      </trkpt>
      <trkpt lat="47.27075" lon="-2.27647">
        <ele>32</ele>
        <time>2021-05-23T09:11:20.982Z</time>
      </trkpt>
      <trkpt lat="47.27077" lon="-2.27645">
        <ele>32</ele>
        <time>2021-05-23T09:11:21.982Z</time>
      </trkpt>
      <trkpt lat="47.27079" lon="-2.27644">
        <ele>32</ele>
        <time>2021-05-23T09:11:22.983Z</time>
      </trkpt>
      <trkpt lat="47.27081" lon="-2.27642">
        <ele>31</ele>
        <time>2021-05-23T09:11:23.982Z</time>
      </trkpt>
      <trkpt lat="47.27084" lon="-2.2764">
        <ele>31</ele>
        <time>2021-05-23T09:11:24.982Z</time>
      </trkpt>
      <trkpt lat="47.27087" lon="-2.27638">
        <ele>30</ele>
        <time>2021-05-23T09:11:25.983Z</time>
      </trkpt>
      <trkpt lat="47.27089" lon="-2.27636">
        <ele>30</ele>
        <time>2021-05-23T09:11:26.983Z</time>
      </trkpt>
      <trkpt lat="47.27091" lon="-2.27634">
        <ele>30</ele>
        <time>2021-05-23T09:11:27.983Z</time>
      </trkpt>
      <trkpt lat="47.27093" lon="-2.27633">
        <ele>30</ele>
        <time>2021-05-23T09:11:28.982Z</time>
      </trkpt>
      <trkpt lat="47.27095" lon="-2.27632">
        <ele>30</ele>
        <time>2021-05-23T09:11:29.982Z</time>
      </trkpt>
      <trkpt lat="47.27098" lon="-2.2763">
        <ele>29</ele>
        <time>2021-05-23T09:11:30.982Z</time>
      </trkpt>
      <trkpt lat="47.271" lon="-2.27628">
        <ele>29</ele>
        <time>2021-05-23T09:11:31.983Z</time>
      </trkpt>
      <trkpt lat="47.27101" lon="-2.27627">
        <ele>29</ele>
        <time>2021-05-23T09:11:32.982Z</time>
      </trkpt>
      <trkpt lat="47.27102" lon="-2.27627">
        <ele>29</ele>
        <time>2021-05-23T09:11:33.982Z</time>
      </trkpt>
      <trkpt lat="47.27103" lon="-2.27626">
        <ele>30</ele>
        <time>2021-05-23T09:11:34.982Z</time>
      </trkpt>
      <trkpt lat="47.27105" lon="-2.27625">
        <ele>30</ele>
        <time>2021-05-23T09:11:35.983Z</time>
      </trkpt>
      <trkpt lat="47.27108" lon="-2.27624">
        <ele>30</ele>
        <time>2021-05-23T09:11:36.983Z</time>
      </trkpt>
      <trkpt lat="47.27111" lon="-2.27623">
        <ele>30</ele>
        <time>2021-05-23T09:11:37.982Z</time>
      </trkpt>
      <trkpt lat="47.27113" lon="-2.27622">
        <ele>31</ele>
        <time>2021-05-23T09:11:38.982Z</time>
      </trkpt>
      <trkpt lat="47.27116" lon="-2.27622">
        <ele>31</ele>
        <time>2021-05-23T09:11:39.982Z</time>
      </trkpt>
      <trkpt lat="47.27118" lon="-2.2762">
        <ele>31</ele>
        <time>2021-05-23T09:11:40.983Z</time>
      </trkpt>
      <trkpt lat="47.27121" lon="-2.27618">
        <ele>32</ele>
        <time>2021-05-23T09:11:41.983Z</time>
      </trkpt>
      <trkpt lat="47.27123" lon="-2.27617">
        <ele>32</ele>
        <time>2021-05-23T09:11:42.983Z</time>
      </trkpt>
      <trkpt lat="47.27125" lon="-2.27616">
        <ele>33</ele>
        <time>2021-05-23T09:11:43.982Z</time>
      </trkpt>
      <trkpt lat="47.27128" lon="-2.27615">
        <ele>33</ele>
        <time>2021-05-23T09:11:44.982Z</time>
      </trkpt>
      <trkpt lat="47.2713" lon="-2.27612">
        <ele>33</ele>
        <time>2021-05-23T09:11:45.982Z</time>
      </trkpt>
      <trkpt lat="47.27133" lon="-2.2761">
        <ele>33</ele>
        <time>2021-05-23T09:11:46.982Z</time>
      </trkpt>
      <trkpt lat="47.27135" lon="-2.27608">
        <ele>33</ele>
        <time>2021-05-23T09:11:47.983Z</time>
      </trkpt>
      <trkpt lat="47.27137" lon="-2.27606">
        <ele>33</ele>
        <time>2021-05-23T09:11:48.982Z</time>
      </trkpt>
      <trkpt lat="47.27139" lon="-2.27603">
        <ele>33</ele>
        <time>2021-05-23T09:11:49.982Z</time>
      </trkpt>
      <trkpt lat="47.27141" lon="-2.276">
        <ele>33</ele>
        <time>2021-05-23T09:11:50.982Z</time>
      </trkpt>
      <trkpt lat="47.27143" lon="-2.27597">
        <ele>33</ele>
        <time>2021-05-23T09:11:51.983Z</time>
      </trkpt>
      <trkpt lat="47.27145" lon="-2.27595">
        <ele>34</ele>
        <time>2021-05-23T09:11:52.982Z</time>
      </trkpt>
      <trkpt lat="47.27146" lon="-2.27591">
        <ele>34</ele>
        <time>2021-05-23T09:11:53.982Z</time>
      </trkpt>
      <trkpt lat="47.27147" lon="-2.27586">
        <ele>34</ele>
        <time>2021-05-23T09:11:54.983Z</time>
      </trkpt>
      <trkpt lat="47.27149" lon="-2.27582">
        <ele>34</ele>
        <time>2021-05-23T09:11:55.983Z</time>
      </trkpt>
      <trkpt lat="47.27149" lon="-2.27579">
        <ele>34</ele>
        <time>2021-05-23T09:11:56.982Z</time>
      </trkpt>
      <trkpt lat="47.27149" lon="-2.27575">
        <ele>35</ele>
        <time>2021-05-23T09:11:57.983Z</time>
      </trkpt>
      <trkpt lat="47.2715" lon="-2.2757">
        <ele>35</ele>
        <time>2021-05-23T09:11:58.983Z</time>
      </trkpt>
      <trkpt lat="47.2715" lon="-2.27566">
        <ele>35</ele>
        <time>2021-05-23T09:11:59.983Z</time>
      </trkpt>
      <trkpt lat="47.2715" lon="-2.27562">
        <ele>35</ele>
        <time>2021-05-23T09:12:00.983Z</time>
      </trkpt>
      <trkpt lat="47.2715" lon="-2.27558">
        <ele>35</ele>
        <time>2021-05-23T09:12:01.983Z</time>
      </trkpt>
      <trkpt lat="47.2715" lon="-2.27554">
        <ele>35</ele>
        <time>2021-05-23T09:12:02.983Z</time>
      </trkpt>
      <trkpt lat="47.2715" lon="-2.27551">
        <ele>35</ele>
        <time>2021-05-23T09:12:03.982Z</time>
      </trkpt>
      <trkpt lat="47.2715" lon="-2.27547">
        <ele>34</ele>
        <time>2021-05-23T09:12:04.982Z</time>
      </trkpt>
      <trkpt lat="47.2715" lon="-2.27543">
        <ele>34</ele>
        <time>2021-05-23T09:12:05.983Z</time>
      </trkpt>
      <trkpt lat="47.27149" lon="-2.27539">
        <ele>34</ele>
        <time>2021-05-23T09:12:06.983Z</time>
      </trkpt>
      <trkpt lat="47.27149" lon="-2.27536">
        <ele>34</ele>
        <time>2021-05-23T09:12:07.983Z</time>
      </trkpt>
      <trkpt lat="47.27149" lon="-2.27531">
        <ele>34</ele>
        <time>2021-05-23T09:12:08.983Z</time>
      </trkpt>
      <trkpt lat="47.27149" lon="-2.27527">
        <ele>33</ele>
        <time>2021-05-23T09:12:09.983Z</time>
      </trkpt>
      <trkpt lat="47.27149" lon="-2.27523">
        <ele>33</ele>
        <time>2021-05-23T09:12:10.983Z</time>
      </trkpt>
      <trkpt lat="47.27149" lon="-2.27519">
        <ele>33</ele>
        <time>2021-05-23T09:12:11.983Z</time>
      </trkpt>
      <trkpt lat="47.27149" lon="-2.27515">
        <ele>33</ele>
        <time>2021-05-23T09:12:12.983Z</time>
      </trkpt>
      <trkpt lat="47.27149" lon="-2.27512">
        <ele>32</ele>
        <time>2021-05-23T09:12:13.982Z</time>
      </trkpt>
      <trkpt lat="47.27148" lon="-2.27509">
        <ele>32</ele>
        <time>2021-05-23T09:12:14.982Z</time>
      </trkpt>
      <trkpt lat="47.27148" lon="-2.27505">
        <ele>31</ele>
        <time>2021-05-23T09:12:15.983Z</time>
      </trkpt>
      <trkpt lat="47.27148" lon="-2.27502">
        <ele>31</ele>
        <time>2021-05-23T09:12:16.983Z</time>
      </trkpt>
      <trkpt lat="47.27148" lon="-2.27498">
        <ele>31</ele>
        <time>2021-05-23T09:12:17.983Z</time>
      </trkpt>
      <trkpt lat="47.27147" lon="-2.27494">
        <ele>30</ele>
        <time>2021-05-23T09:12:18.983Z</time>
      </trkpt>
      <trkpt lat="47.27147" lon="-2.2749">
        <ele>30</ele>
        <time>2021-05-23T09:12:19.982Z</time>
      </trkpt>
      <trkpt lat="47.27147" lon="-2.27487">
        <ele>30</ele>
        <time>2021-05-23T09:12:20.982Z</time>
      </trkpt>
      <trkpt lat="47.27147" lon="-2.27483">
        <ele>30</ele>
        <time>2021-05-23T09:12:21.983Z</time>
      </trkpt>
      <trkpt lat="47.27147" lon="-2.2748">
        <ele>30</ele>
        <time>2021-05-23T09:12:22.982Z</time>
      </trkpt>
      <trkpt lat="47.27147" lon="-2.27476">
        <ele>30</ele>
        <time>2021-05-23T09:12:23.983Z</time>
      </trkpt>
      <trkpt lat="47.27147" lon="-2.27472">
        <ele>30</ele>
        <time>2021-05-23T09:12:24.983Z</time>
      </trkpt>
      <trkpt lat="47.27147" lon="-2.27469">
        <ele>30</ele>
        <time>2021-05-23T09:12:25.983Z</time>
      </trkpt>
      <trkpt lat="47.27146" lon="-2.27465">
        <ele>30</ele>
        <time>2021-05-23T09:12:26.983Z</time>
      </trkpt>
      <trkpt lat="47.27146" lon="-2.27462">
        <ele>29</ele>
        <time>2021-05-23T09:12:27.982Z</time>
      </trkpt>
      <trkpt lat="47.27145" lon="-2.27459">
        <ele>29</ele>
        <time>2021-05-23T09:12:28.982Z</time>
      </trkpt>
      <trkpt lat="47.27146" lon="-2.27456">
        <ele>29</ele>
        <time>2021-05-23T09:12:29.982Z</time>
      </trkpt>
      <trkpt lat="47.27145" lon="-2.27453">
        <ele>28</ele>
        <time>2021-05-23T09:12:30.983Z</time>
      </trkpt>
      <trkpt lat="47.27144" lon="-2.27449">
        <ele>28</ele>
        <time>2021-05-23T09:12:31.982Z</time>
      </trkpt>
      <trkpt lat="47.27142" lon="-2.27446">
        <ele>28</ele>
        <time>2021-05-23T09:12:32.983Z</time>
      </trkpt>
      <trkpt lat="47.27141" lon="-2.27442">
        <ele>28</ele>
        <time>2021-05-23T09:12:33.983Z</time>
      </trkpt>
      <trkpt lat="47.2714" lon="-2.27438">
        <ele>27</ele>
        <time>2021-05-23T09:12:34.982Z</time>
      </trkpt>
      <trkpt lat="47.27139" lon="-2.27435">
        <ele>27</ele>
        <time>2021-05-23T09:12:35.983Z</time>
      </trkpt>
      <trkpt lat="47.27138" lon="-2.2743">
        <ele>27</ele>
        <time>2021-05-23T09:12:36.982Z</time>
      </trkpt>
      <trkpt lat="47.27138" lon="-2.27426">
        <ele>27</ele>
        <time>2021-05-23T09:12:37.983Z</time>
      </trkpt>
      <trkpt lat="47.27137" lon="-2.27422">
        <ele>27</ele>
        <time>2021-05-23T09:12:38.983Z</time>
      </trkpt>
      <trkpt lat="47.27137" lon="-2.27418">
        <ele>28</ele>
        <time>2021-05-23T09:12:39.982Z</time>
      </trkpt>
      <trkpt lat="47.27137" lon="-2.27414">
        <ele>28</ele>
        <time>2021-05-23T09:12:40.983Z</time>
      </trkpt>
      <trkpt lat="47.27137" lon="-2.27409">
        <ele>28</ele>
        <time>2021-05-23T09:12:41.983Z</time>
      </trkpt>
      <trkpt lat="47.27138" lon="-2.27406">
        <ele>29</ele>
        <time>2021-05-23T09:12:42.982Z</time>
      </trkpt>
      <trkpt lat="47.27138" lon="-2.27403">
        <ele>29</ele>
        <time>2021-05-23T09:12:43.983Z</time>
      </trkpt>
      <trkpt lat="47.27138" lon="-2.27399">
        <ele>29</ele>
        <time>2021-05-23T09:12:44.983Z</time>
      </trkpt>
      <trkpt lat="47.27137" lon="-2.27395">
        <ele>30</ele>
        <time>2021-05-23T09:12:45.982Z</time>
      </trkpt>
      <trkpt lat="47.27136" lon="-2.27391">
        <ele>30</ele>
        <time>2021-05-23T09:12:46.983Z</time>
      </trkpt>
      <trkpt lat="47.27135" lon="-2.27387">
        <ele>30</ele>
        <time>2021-05-23T09:12:47.983Z</time>
      </trkpt>
      <trkpt lat="47.27134" lon="-2.27383">
        <ele>30</ele>
        <time>2021-05-23T09:12:48.982Z</time>
      </trkpt>
      <trkpt lat="47.27134" lon="-2.27379">
        <ele>30</ele>
        <time>2021-05-23T09:12:49.983Z</time>
      </trkpt>
      <trkpt lat="47.27133" lon="-2.27375">
        <ele>30</ele>
        <time>2021-05-23T09:12:50.983Z</time>
      </trkpt>
      <trkpt lat="47.27133" lon="-2.27373">
        <ele>30</ele>
        <time>2021-05-23T09:12:51.982Z</time>
      </trkpt>
      <trkpt lat="47.27133" lon="-2.2737">
        <ele>30</ele>
        <time>2021-05-23T09:12:52.982Z</time>
      </trkpt>
      <trkpt lat="47.27132" lon="-2.27367">
        <ele>31</ele>
        <time>2021-05-23T09:12:53.983Z</time>
      </trkpt>
      <trkpt lat="47.27132" lon="-2.27364">
        <ele>31</ele>
        <time>2021-05-23T09:12:54.983Z</time>
      </trkpt>
      <trkpt lat="47.27131" lon="-2.2736">
        <ele>31</ele>
        <time>2021-05-23T09:12:55.983Z</time>
      </trkpt>
      <trkpt lat="47.2713" lon="-2.27357">
        <ele>30</ele>
        <time>2021-05-23T09:12:56.982Z</time>
      </trkpt>
      <trkpt lat="47.27129" lon="-2.27353">
        <ele>30</ele>
        <time>2021-05-23T09:12:57.983Z</time>
      </trkpt>
      <trkpt lat="47.27128" lon="-2.27349">
        <ele>30</ele>
        <time>2021-05-23T09:12:58.982Z</time>
      </trkpt>
      <trkpt lat="47.27128" lon="-2.27345">
        <ele>30</ele>
        <time>2021-05-23T09:12:59.983Z</time>
      </trkpt>
      <trkpt lat="47.27127" lon="-2.27341">
        <ele>30</ele>
        <time>2021-05-23T09:13:00.983Z</time>
      </trkpt>
      <trkpt lat="47.27127" lon="-2.27337">
        <ele>30</ele>
        <time>2021-05-23T09:13:01.983Z</time>
      </trkpt>
      <trkpt lat="47.27126" lon="-2.27333">
        <ele>31</ele>
        <time>2021-05-23T09:13:02.982Z</time>
      </trkpt>
      <trkpt lat="47.27126" lon="-2.27328">
        <ele>31</ele>
        <time>2021-05-23T09:13:03.983Z</time>
      </trkpt>
      <trkpt lat="47.27125" lon="-2.27325">
        <ele>31</ele>
        <time>2021-05-23T09:13:04.982Z</time>
      </trkpt>
      <trkpt lat="47.27124" lon="-2.27321">
        <ele>31</ele>
        <time>2021-05-23T09:13:05.982Z</time>
      </trkpt>
      <trkpt lat="47.27123" lon="-2.27317">
        <ele>31</ele>
        <time>2021-05-23T09:13:06.982Z</time>
      </trkpt>
      <trkpt lat="47.27123" lon="-2.27314">
        <ele>31</ele>
        <time>2021-05-23T09:13:07.983Z</time>
      </trkpt>
      <trkpt lat="47.27122" lon="-2.2731">
        <ele>31</ele>
        <time>2021-05-23T09:13:08.982Z</time>
      </trkpt>
      <trkpt lat="47.27121" lon="-2.27306">
        <ele>31</ele>
        <time>2021-05-23T09:13:09.982Z</time>
      </trkpt>
      <trkpt lat="47.27121" lon="-2.27302">
        <ele>31</ele>
        <time>2021-05-23T09:13:10.982Z</time>
      </trkpt>
      <trkpt lat="47.2712" lon="-2.273">
        <ele>30</ele>
        <time>2021-05-23T09:13:11.982Z</time>
      </trkpt>
      <trkpt lat="47.27119" lon="-2.27296">
        <ele>30</ele>
        <time>2021-05-23T09:13:12.983Z</time>
      </trkpt>
      <trkpt lat="47.27118" lon="-2.27293">
        <ele>30</ele>
        <time>2021-05-23T09:13:13.983Z</time>
      </trkpt>
      <trkpt lat="47.27116" lon="-2.2729">
        <ele>30</ele>
        <time>2021-05-23T09:13:14.983Z</time>
      </trkpt>
      <trkpt lat="47.27115" lon="-2.27287">
        <ele>30</ele>
        <time>2021-05-23T09:13:15.982Z</time>
      </trkpt>
      <trkpt lat="47.27114" lon="-2.27284">
        <ele>30</ele>
        <time>2021-05-23T09:13:16.983Z</time>
      </trkpt>
      <trkpt lat="47.27112" lon="-2.27281">
        <ele>30</ele>
        <time>2021-05-23T09:13:17.983Z</time>
      </trkpt>
      <trkpt lat="47.27111" lon="-2.27277">
        <ele>30</ele>
        <time>2021-05-23T09:13:18.983Z</time>
      </trkpt>
      <trkpt lat="47.2711" lon="-2.27273">
        <ele>29</ele>
        <time>2021-05-23T09:13:19.983Z</time>
      </trkpt>
      <trkpt lat="47.27109" lon="-2.2727">
        <ele>29</ele>
        <time>2021-05-23T09:13:20.982Z</time>
      </trkpt>
      <trkpt lat="47.27108" lon="-2.27267">
        <ele>29</ele>
        <time>2021-05-23T09:13:21.983Z</time>
      </trkpt>
      <trkpt lat="47.27107" lon="-2.27263">
        <ele>29</ele>
        <time>2021-05-23T09:13:22.983Z</time>
      </trkpt>
      <trkpt lat="47.27105" lon="-2.2726">
        <ele>28</ele>
        <time>2021-05-23T09:13:23.983Z</time>
      </trkpt>
      <trkpt lat="47.27104" lon="-2.27257">
        <ele>28</ele>
        <time>2021-05-23T09:13:24.983Z</time>
      </trkpt>
      <trkpt lat="47.27102" lon="-2.27254">
        <ele>27</ele>
        <time>2021-05-23T09:13:25.983Z</time>
      </trkpt>
      <trkpt lat="47.271" lon="-2.27251">
        <ele>27</ele>
        <time>2021-05-23T09:13:26.983Z</time>
      </trkpt>
      <trkpt lat="47.27099" lon="-2.27248">
        <ele>26</ele>
        <time>2021-05-23T09:13:27.982Z</time>
      </trkpt>
      <trkpt lat="47.27097" lon="-2.27245">
        <ele>26</ele>
        <time>2021-05-23T09:13:28.983Z</time>
      </trkpt>
      <trkpt lat="47.27095" lon="-2.27242">
        <ele>26</ele>
        <time>2021-05-23T09:13:29.983Z</time>
      </trkpt>
      <trkpt lat="47.27093" lon="-2.27239">
        <ele>26</ele>
        <time>2021-05-23T09:13:30.983Z</time>
      </trkpt>
      <trkpt lat="47.27091" lon="-2.27236">
        <ele>26</ele>
        <time>2021-05-23T09:13:31.982Z</time>
      </trkpt>
      <trkpt lat="47.27089" lon="-2.27234">
        <ele>26</ele>
        <time>2021-05-23T09:13:32.982Z</time>
      </trkpt>
      <trkpt lat="47.27088" lon="-2.27231">
        <ele>26</ele>
        <time>2021-05-23T09:13:33.983Z</time>
      </trkpt>
      <trkpt lat="47.27086" lon="-2.27227">
        <ele>26</ele>
        <time>2021-05-23T09:13:34.983Z</time>
      </trkpt>
      <trkpt lat="47.27085" lon="-2.27224">
        <ele>26</ele>
        <time>2021-05-23T09:13:35.983Z</time>
      </trkpt>
      <trkpt lat="47.27083" lon="-2.27221">
        <ele>26</ele>
        <time>2021-05-23T09:13:36.982Z</time>
      </trkpt>
      <trkpt lat="47.2708" lon="-2.27217">
        <ele>26</ele>
        <time>2021-05-23T09:13:37.982Z</time>
      </trkpt>
      <trkpt lat="47.27078" lon="-2.27213">
        <ele>26</ele>
        <time>2021-05-23T09:13:38.983Z</time>
      </trkpt>
      <trkpt lat="47.27075" lon="-2.27209">
        <ele>25</ele>
        <time>2021-05-23T09:13:39.983Z</time>
      </trkpt>
      <trkpt lat="47.27074" lon="-2.27206">
        <ele>25</ele>
        <time>2021-05-23T09:13:40.983Z</time>
      </trkpt>
      <trkpt lat="47.27072" lon="-2.27203">
        <ele>24</ele>
        <time>2021-05-23T09:13:41.982Z</time>
      </trkpt>
      <trkpt lat="47.2707" lon="-2.27199">
        <ele>24</ele>
        <time>2021-05-23T09:13:42.983Z</time>
      </trkpt>
      <trkpt lat="47.27068" lon="-2.27196">
        <ele>23</ele>
        <time>2021-05-23T09:13:43.982Z</time>
      </trkpt>
      <trkpt lat="47.27066" lon="-2.27192">
        <ele>23</ele>
        <time>2021-05-23T09:13:44.983Z</time>
      </trkpt>
      <trkpt lat="47.27064" lon="-2.2719">
        <ele>23</ele>
        <time>2021-05-23T09:13:45.983Z</time>
      </trkpt>
      <trkpt lat="47.27062" lon="-2.27186">
        <ele>23</ele>
        <time>2021-05-23T09:13:46.983Z</time>
      </trkpt>
      <trkpt lat="47.27061" lon="-2.27182">
        <ele>23</ele>
        <time>2021-05-23T09:13:47.983Z</time>
      </trkpt>
      <trkpt lat="47.27059" lon="-2.27179">
        <ele>23</ele>
        <time>2021-05-23T09:13:48.983Z</time>
      </trkpt>
      <trkpt lat="47.27057" lon="-2.27175">
        <ele>23</ele>
        <time>2021-05-23T09:13:49.982Z</time>
      </trkpt>
      <trkpt lat="47.27055" lon="-2.27172">
        <ele>23</ele>
        <time>2021-05-23T09:13:50.983Z</time>
      </trkpt>
      <trkpt lat="47.27053" lon="-2.27168">
        <ele>23</ele>
        <time>2021-05-23T09:13:51.982Z</time>
      </trkpt>
      <trkpt lat="47.27051" lon="-2.27166">
        <ele>23</ele>
        <time>2021-05-23T09:13:52.983Z</time>
      </trkpt>
      <trkpt lat="47.27049" lon="-2.27163">
        <ele>23</ele>
        <time>2021-05-23T09:13:53.983Z</time>
      </trkpt>
      <trkpt lat="47.27047" lon="-2.2716">
        <ele>23</ele>
        <time>2021-05-23T09:13:54.983Z</time>
      </trkpt>
      <trkpt lat="47.27045" lon="-2.27157">
        <ele>22</ele>
        <time>2021-05-23T09:13:55.982Z</time>
      </trkpt>
      <trkpt lat="47.27043" lon="-2.27153">
        <ele>23</ele>
        <time>2021-05-23T09:13:56.983Z</time>
      </trkpt>
      <trkpt lat="47.27041" lon="-2.2715">
        <ele>23</ele>
        <time>2021-05-23T09:13:57.983Z</time>
      </trkpt>
      <trkpt lat="47.2704" lon="-2.27145">
        <ele>23</ele>
        <time>2021-05-23T09:13:58.983Z</time>
      </trkpt>
      <trkpt lat="47.27038" lon="-2.27142">
        <ele>23</ele>
        <time>2021-05-23T09:13:59.983Z</time>
      </trkpt>
      <trkpt lat="47.27036" lon="-2.2714">
        <ele>23</ele>
        <time>2021-05-23T09:14:00.983Z</time>
      </trkpt>
      <trkpt lat="47.27035" lon="-2.27138">
        <ele>23</ele>
        <time>2021-05-23T09:14:01.983Z</time>
      </trkpt>
      <trkpt lat="47.27034" lon="-2.27136">
        <ele>22</ele>
        <time>2021-05-23T09:14:02.983Z</time>
      </trkpt>
      <trkpt lat="47.27032" lon="-2.27134">
        <ele>22</ele>
        <time>2021-05-23T09:14:03.983Z</time>
      </trkpt>
      <trkpt lat="47.27031" lon="-2.27132">
        <ele>22</ele>
        <time>2021-05-23T09:14:04.983Z</time>
      </trkpt>
      <trkpt lat="47.27029" lon="-2.27131">
        <ele>23</ele>
        <time>2021-05-23T09:14:05.983Z</time>
      </trkpt>
      <trkpt lat="47.27028" lon="-2.27128">
        <ele>23</ele>
        <time>2021-05-23T09:14:06.983Z</time>
      </trkpt>
      <trkpt lat="47.27027" lon="-2.27127">
        <ele>23</ele>
        <time>2021-05-23T09:14:07.982Z</time>
      </trkpt>
      <trkpt lat="47.27026" lon="-2.27125">
        <ele>23</ele>
        <time>2021-05-23T09:14:08.983Z</time>
      </trkpt>
      <trkpt lat="47.27024" lon="-2.27123">
        <ele>22</ele>
        <time>2021-05-23T09:14:09.983Z</time>
      </trkpt>
      <trkpt lat="47.27024" lon="-2.27121">
        <ele>22</ele>
        <time>2021-05-23T09:14:10.983Z</time>
      </trkpt>
      <trkpt lat="47.27023" lon="-2.27119">
        <ele>22</ele>
        <time>2021-05-23T09:14:11.983Z</time>
      </trkpt>
      <trkpt lat="47.27022" lon="-2.27118">
        <ele>22</ele>
        <time>2021-05-23T09:14:12.983Z</time>
      </trkpt>
      <trkpt lat="47.27022" lon="-2.27118">
        <ele>22</ele>
        <time>2021-05-23T09:14:13.983Z</time>
      </trkpt>
      <trkpt lat="47.27021" lon="-2.27117">
        <ele>21</ele>
        <time>2021-05-23T09:14:14.983Z</time>
      </trkpt>
      <trkpt lat="47.27021" lon="-2.27116">
        <ele>21</ele>
        <time>2021-05-23T09:14:15.983Z</time>
      </trkpt>
      <trkpt lat="47.2702" lon="-2.27115">
        <ele>22</ele>
        <time>2021-05-23T09:14:16.983Z</time>
      </trkpt>
      <trkpt lat="47.27019" lon="-2.27113">
        <ele>22</ele>
        <time>2021-05-23T09:14:17.983Z</time>
      </trkpt>
      <trkpt lat="47.27018" lon="-2.2711">
        <ele>22</ele>
        <time>2021-05-23T09:14:18.983Z</time>
      </trkpt>
      <trkpt lat="47.27018" lon="-2.27109">
        <ele>23</ele>
        <time>2021-05-23T09:14:19.983Z</time>
      </trkpt>
      <trkpt lat="47.27017" lon="-2.27107">
        <ele>23</ele>
        <time>2021-05-23T09:14:20.983Z</time>
      </trkpt>
      <trkpt lat="47.27016" lon="-2.27106">
        <ele>23</ele>
        <time>2021-05-23T09:14:21.983Z</time>
      </trkpt>
      <trkpt lat="47.27016" lon="-2.27104">
        <ele>23</ele>
        <time>2021-05-23T09:14:22.982Z</time>
      </trkpt>
      <trkpt lat="47.27016" lon="-2.27103">
        <ele>23</ele>
        <time>2021-05-23T09:14:23.983Z</time>
      </trkpt>
      <trkpt lat="47.27015" lon="-2.271">
        <ele>24</ele>
        <time>2021-05-23T09:14:24.983Z</time>
      </trkpt>
      <trkpt lat="47.27015" lon="-2.27098">
        <ele>23</ele>
        <time>2021-05-23T09:14:25.983Z</time>
      </trkpt>
      <trkpt lat="47.27014" lon="-2.27096">
        <ele>23</ele>
        <time>2021-05-23T09:14:26.983Z</time>
      </trkpt>
      <trkpt lat="47.27013" lon="-2.27095">
        <ele>23</ele>
        <time>2021-05-23T09:14:27.982Z</time>
      </trkpt>
      <trkpt lat="47.27013" lon="-2.27093">
        <ele>23</ele>
        <time>2021-05-23T09:14:28.983Z</time>
      </trkpt>
      <trkpt lat="47.27013" lon="-2.27091">
        <ele>23</ele>
        <time>2021-05-23T09:14:29.982Z</time>
      </trkpt>
      <trkpt lat="47.27012" lon="-2.27089">
        <ele>23</ele>
        <time>2021-05-23T09:14:30.983Z</time>
      </trkpt>
      <trkpt lat="47.27012" lon="-2.27087">
        <ele>23</ele>
        <time>2021-05-23T09:14:31.983Z</time>
      </trkpt>
      <trkpt lat="47.27012" lon="-2.27085">
        <ele>23</ele>
        <time>2021-05-23T09:14:32.983Z</time>
      </trkpt>
      <trkpt lat="47.27011" lon="-2.27082">
        <ele>24</ele>
        <time>2021-05-23T09:14:33.983Z</time>
      </trkpt>
      <trkpt lat="47.27011" lon="-2.2708">
        <ele>24</ele>
        <time>2021-05-23T09:14:34.982Z</time>
      </trkpt>
      <trkpt lat="47.2701" lon="-2.27078">
        <ele>25</ele>
        <time>2021-05-23T09:14:35.982Z</time>
      </trkpt>
      <trkpt lat="47.2701" lon="-2.27076">
        <ele>25</ele>
        <time>2021-05-23T09:14:36.982Z</time>
      </trkpt>
      <trkpt lat="47.2701" lon="-2.27073">
        <ele>25</ele>
        <time>2021-05-23T09:14:37.983Z</time>
      </trkpt>
      <trkpt lat="47.27009" lon="-2.27071">
        <ele>25</ele>
        <time>2021-05-23T09:14:38.983Z</time>
      </trkpt>
      <trkpt lat="47.27007" lon="-2.27068">
        <ele>25</ele>
        <time>2021-05-23T09:14:39.982Z</time>
      </trkpt>
      <trkpt lat="47.27006" lon="-2.27065">
        <ele>25</ele>
        <time>2021-05-23T09:14:40.983Z</time>
      </trkpt>
      <trkpt lat="47.27005" lon="-2.27062">
        <ele>25</ele>
        <time>2021-05-23T09:14:41.982Z</time>
      </trkpt>
      <trkpt lat="47.27003" lon="-2.27059">
        <ele>25</ele>
        <time>2021-05-23T09:14:42.982Z</time>
      </trkpt>
      <trkpt lat="47.27002" lon="-2.27057">
        <ele>26</ele>
        <time>2021-05-23T09:14:43.982Z</time>
      </trkpt>
      <trkpt lat="47.27" lon="-2.27054">
        <ele>26</ele>
        <time>2021-05-23T09:14:44.983Z</time>
      </trkpt>
      <trkpt lat="47.26998" lon="-2.27051">
        <ele>26</ele>
        <time>2021-05-23T09:14:45.983Z</time>
      </trkpt>
      <trkpt lat="47.26997" lon="-2.27048">
        <ele>26</ele>
        <time>2021-05-23T09:14:46.983Z</time>
      </trkpt>
      <trkpt lat="47.26995" lon="-2.27045">
        <ele>27</ele>
        <time>2021-05-23T09:14:47.983Z</time>
      </trkpt>
      <trkpt lat="47.26994" lon="-2.27042">
        <ele>27</ele>
        <time>2021-05-23T09:14:48.982Z</time>
      </trkpt>
      <trkpt lat="47.26993" lon="-2.2704">
        <ele>27</ele>
        <time>2021-05-23T09:14:49.983Z</time>
      </trkpt>
      <trkpt lat="47.26992" lon="-2.27037">
        <ele>27</ele>
        <time>2021-05-23T09:14:50.983Z</time>
      </trkpt>
      <trkpt lat="47.2699" lon="-2.27034">
        <ele>27</ele>
        <time>2021-05-23T09:14:51.983Z</time>
      </trkpt>
      <trkpt lat="47.26987" lon="-2.27031">
        <ele>27</ele>
        <time>2021-05-23T09:14:52.983Z</time>
      </trkpt>
      <trkpt lat="47.26985" lon="-2.27028">
        <ele>27</ele>
        <time>2021-05-23T09:14:53.983Z</time>
      </trkpt>
      <trkpt lat="47.26983" lon="-2.27025">
        <ele>27</ele>
        <time>2021-05-23T09:14:54.982Z</time>
      </trkpt>
      <trkpt lat="47.26982" lon="-2.27023">
        <ele>27</ele>
        <time>2021-05-23T09:14:55.983Z</time>
      </trkpt>
      <trkpt lat="47.26979" lon="-2.27021">
        <ele>26</ele>
        <time>2021-05-23T09:14:56.983Z</time>
      </trkpt>
      <trkpt lat="47.26978" lon="-2.27019">
        <ele>26</ele>
        <time>2021-05-23T09:14:57.983Z</time>
      </trkpt>
      <trkpt lat="47.26976" lon="-2.27017">
        <ele>26</ele>
        <time>2021-05-23T09:14:58.983Z</time>
      </trkpt>
      <trkpt lat="47.26974" lon="-2.27015">
        <ele>26</ele>
        <time>2021-05-23T09:14:59.983Z</time>
      </trkpt>
      <trkpt lat="47.26973" lon="-2.27013">
        <ele>26</ele>
        <time>2021-05-23T09:15:00.983Z</time>
      </trkpt>
      <trkpt lat="47.26972" lon="-2.27011">
        <ele>27</ele>
        <time>2021-05-23T09:15:01.983Z</time>
      </trkpt>
      <trkpt lat="47.2697" lon="-2.27009">
        <ele>27</ele>
        <time>2021-05-23T09:15:02.982Z</time>
      </trkpt>
      <trkpt lat="47.26969" lon="-2.27007">
        <ele>27</ele>
        <time>2021-05-23T09:15:03.982Z</time>
      </trkpt>
      <trkpt lat="47.26967" lon="-2.27005">
        <ele>27</ele>
        <time>2021-05-23T09:15:04.983Z</time>
      </trkpt>
      <trkpt lat="47.26966" lon="-2.27002">
        <ele>27</ele>
        <time>2021-05-23T09:15:05.983Z</time>
      </trkpt>
      <trkpt lat="47.26965" lon="-2.26999">
        <ele>27</ele>
        <time>2021-05-23T09:15:06.983Z</time>
      </trkpt>
      <trkpt lat="47.26964" lon="-2.26995">
        <ele>27</ele>
        <time>2021-05-23T09:15:07.983Z</time>
      </trkpt>
      <trkpt lat="47.26962" lon="-2.2699">
        <ele>27</ele>
        <time>2021-05-23T09:15:08.983Z</time>
      </trkpt>
      <trkpt lat="47.26962" lon="-2.26985">
        <ele>27</ele>
        <time>2021-05-23T09:15:09.982Z</time>
      </trkpt>
      <trkpt lat="47.26962" lon="-2.26981">
        <ele>27</ele>
        <time>2021-05-23T09:15:10.983Z</time>
      </trkpt>
      <trkpt lat="47.26961" lon="-2.26977">
        <ele>26</ele>
        <time>2021-05-23T09:15:11.983Z</time>
      </trkpt>
      <trkpt lat="47.26961" lon="-2.26972">
        <ele>25</ele>
        <time>2021-05-23T09:15:12.982Z</time>
      </trkpt>
      <trkpt lat="47.26961" lon="-2.26968">
        <ele>25</ele>
        <time>2021-05-23T09:15:13.983Z</time>
      </trkpt>
      <trkpt lat="47.26961" lon="-2.26964">
        <ele>24</ele>
        <time>2021-05-23T09:15:14.982Z</time>
      </trkpt>
      <trkpt lat="47.26962" lon="-2.26961">
        <ele>24</ele>
        <time>2021-05-23T09:15:15.983Z</time>
      </trkpt>
      <trkpt lat="47.26963" lon="-2.26957">
        <ele>23</ele>
        <time>2021-05-23T09:15:16.983Z</time>
      </trkpt>
      <trkpt lat="47.26963" lon="-2.26953">
        <ele>23</ele>
        <time>2021-05-23T09:15:17.982Z</time>
      </trkpt>
      <trkpt lat="47.26964" lon="-2.26949">
        <ele>22</ele>
        <time>2021-05-23T09:15:18.983Z</time>
      </trkpt>
      <trkpt lat="47.26965" lon="-2.26946">
        <ele>22</ele>
        <time>2021-05-23T09:15:19.983Z</time>
      </trkpt>
      <trkpt lat="47.26966" lon="-2.26943">
        <ele>22</ele>
        <time>2021-05-23T09:15:20.983Z</time>
      </trkpt>
      <trkpt lat="47.26966" lon="-2.26939">
        <ele>21</ele>
        <time>2021-05-23T09:15:21.982Z</time>
      </trkpt>
      <trkpt lat="47.26967" lon="-2.26935">
        <ele>21</ele>
        <time>2021-05-23T09:15:22.982Z</time>
      </trkpt>
      <trkpt lat="47.26967" lon="-2.26931">
        <ele>22</ele>
        <time>2021-05-23T09:15:23.982Z</time>
      </trkpt>
      <trkpt lat="47.26967" lon="-2.26927">
        <ele>22</ele>
        <time>2021-05-23T09:15:24.982Z</time>
      </trkpt>
      <trkpt lat="47.26967" lon="-2.26924">
        <ele>22</ele>
        <time>2021-05-23T09:15:25.982Z</time>
      </trkpt>
      <trkpt lat="47.26967" lon="-2.26921">
        <ele>22</ele>
        <time>2021-05-23T09:15:26.983Z</time>
      </trkpt>
      <trkpt lat="47.26967" lon="-2.26917">
        <ele>23</ele>
        <time>2021-05-23T09:15:27.982Z</time>
      </trkpt>
      <trkpt lat="47.26967" lon="-2.26911">
        <ele>23</ele>
        <time>2021-05-23T09:15:28.983Z</time>
      </trkpt>
      <trkpt lat="47.26967" lon="-2.26907">
        <ele>23</ele>
        <time>2021-05-23T09:15:29.983Z</time>
      </trkpt>
      <trkpt lat="47.26967" lon="-2.26904">
        <ele>23</ele>
        <time>2021-05-23T09:15:30.983Z</time>
      </trkpt>
      <trkpt lat="47.26967" lon="-2.269">
        <ele>23</ele>
        <time>2021-05-23T09:15:31.983Z</time>
      </trkpt>
      <trkpt lat="47.26966" lon="-2.26896">
        <ele>23</ele>
        <time>2021-05-23T09:15:32.982Z</time>
      </trkpt>
      <trkpt lat="47.26966" lon="-2.26893">
        <ele>23</ele>
        <time>2021-05-23T09:15:33.983Z</time>
      </trkpt>
      <trkpt lat="47.26965" lon="-2.26889">
        <ele>22</ele>
        <time>2021-05-23T09:15:34.982Z</time>
      </trkpt>
      <trkpt lat="47.26964" lon="-2.26885">
        <ele>22</ele>
        <time>2021-05-23T09:15:35.983Z</time>
      </trkpt>
      <trkpt lat="47.26964" lon="-2.26881">
        <ele>22</ele>
        <time>2021-05-23T09:15:36.983Z</time>
      </trkpt>
      <trkpt lat="47.26963" lon="-2.26878">
        <ele>21</ele>
        <time>2021-05-23T09:15:37.983Z</time>
      </trkpt>
      <trkpt lat="47.26962" lon="-2.26874">
        <ele>21</ele>
        <time>2021-05-23T09:15:38.982Z</time>
      </trkpt>
      <trkpt lat="47.26961" lon="-2.2687">
        <ele>21</ele>
        <time>2021-05-23T09:15:39.983Z</time>
      </trkpt>
      <trkpt lat="47.2696" lon="-2.26867">
        <ele>21</ele>
        <time>2021-05-23T09:15:40.982Z</time>
      </trkpt>
      <trkpt lat="47.26959" lon="-2.26863">
        <ele>20</ele>
        <time>2021-05-23T09:15:41.983Z</time>
      </trkpt>
      <trkpt lat="47.26959" lon="-2.2686">
        <ele>20</ele>
        <time>2021-05-23T09:15:42.982Z</time>
      </trkpt>
      <trkpt lat="47.26958" lon="-2.26857">
        <ele>19</ele>
        <time>2021-05-23T09:15:43.983Z</time>
      </trkpt>
      <trkpt lat="47.26958" lon="-2.26851">
        <ele>19</ele>
        <time>2021-05-23T09:15:44.983Z</time>
      </trkpt>
      <trkpt lat="47.26957" lon="-2.26846">
        <ele>19</ele>
        <time>2021-05-23T09:15:45.983Z</time>
      </trkpt>
      <trkpt lat="47.26957" lon="-2.26842">
        <ele>19</ele>
        <time>2021-05-23T09:15:46.982Z</time>
      </trkpt>
      <trkpt lat="47.26956" lon="-2.26838">
        <ele>18</ele>
        <time>2021-05-23T09:15:47.983Z</time>
      </trkpt>
      <trkpt lat="47.26955" lon="-2.26834">
        <ele>18</ele>
        <time>2021-05-23T09:15:48.983Z</time>
      </trkpt>
      <trkpt lat="47.26955" lon="-2.26831">
        <ele>18</ele>
        <time>2021-05-23T09:15:49.983Z</time>
      </trkpt>
      <trkpt lat="47.26956" lon="-2.26828">
        <ele>19</ele>
        <time>2021-05-23T09:15:50.983Z</time>
      </trkpt>
      <trkpt lat="47.26957" lon="-2.26827">
        <ele>19</ele>
        <time>2021-05-23T09:15:51.982Z</time>
      </trkpt>
      <trkpt lat="47.26959" lon="-2.26826">
        <ele>19</ele>
        <time>2021-05-23T09:15:52.983Z</time>
      </trkpt>
      <trkpt lat="47.2696" lon="-2.26826">
        <ele>19</ele>
        <time>2021-05-23T09:15:53.982Z</time>
      </trkpt>
      <trkpt lat="47.26962" lon="-2.26824">
        <ele>20</ele>
        <time>2021-05-23T09:15:54.983Z</time>
      </trkpt>
      <trkpt lat="47.26963" lon="-2.26823">
        <ele>20</ele>
        <time>2021-05-23T09:15:55.983Z</time>
      </trkpt>
      <trkpt lat="47.26965" lon="-2.26822">
        <ele>20</ele>
        <time>2021-05-23T09:15:56.982Z</time>
      </trkpt>
      <trkpt lat="47.26967" lon="-2.2682">
        <ele>20</ele>
        <time>2021-05-23T09:15:57.983Z</time>
      </trkpt>
      <trkpt lat="47.26968" lon="-2.26818">
        <ele>19</ele>
        <time>2021-05-23T09:15:58.982Z</time>
      </trkpt>
      <trkpt lat="47.26969" lon="-2.26816">
        <ele>19</ele>
        <time>2021-05-23T09:15:59.983Z</time>
      </trkpt>
      <trkpt lat="47.2697" lon="-2.26815">
        <ele>18</ele>
        <time>2021-05-23T09:16:00.983Z</time>
      </trkpt>
      <trkpt lat="47.26971" lon="-2.26813">
        <ele>17</ele>
        <time>2021-05-23T09:16:01.983Z</time>
      </trkpt>
      <trkpt lat="47.26973" lon="-2.26811">
        <ele>17</ele>
        <time>2021-05-23T09:16:02.983Z</time>
      </trkpt>
      <trkpt lat="47.26975" lon="-2.2681">
        <ele>16</ele>
        <time>2021-05-23T09:16:03.983Z</time>
      </trkpt>
      <trkpt lat="47.26978" lon="-2.26808">
        <ele>16</ele>
        <time>2021-05-23T09:16:04.982Z</time>
      </trkpt>
      <trkpt lat="47.2698" lon="-2.26807">
        <ele>16</ele>
        <time>2021-05-23T09:16:05.983Z</time>
      </trkpt>
      <trkpt lat="47.26982" lon="-2.26806">
        <ele>15</ele>
        <time>2021-05-23T09:16:06.982Z</time>
      </trkpt>
      <trkpt lat="47.26983" lon="-2.26805">
        <ele>15</ele>
        <time>2021-05-23T09:16:07.982Z</time>
      </trkpt>
      <trkpt lat="47.26984" lon="-2.26804">
        <ele>15</ele>
        <time>2021-05-23T09:16:08.983Z</time>
      </trkpt>
      <trkpt lat="47.26984" lon="-2.26803">
        <ele>15</ele>
        <time>2021-05-23T09:16:09.983Z</time>
      </trkpt>
      <trkpt lat="47.26985" lon="-2.26802">
        <ele>15</ele>
        <time>2021-05-23T09:16:10.983Z</time>
      </trkpt>
      <trkpt lat="47.26985" lon="-2.268">
        <ele>15</ele>
        <time>2021-05-23T09:16:11.983Z</time>
      </trkpt>
      <trkpt lat="47.26987" lon="-2.26799">
        <ele>15</ele>
        <time>2021-05-23T09:16:12.983Z</time>
      </trkpt>
      <trkpt lat="47.26989" lon="-2.26798">
        <ele>15</ele>
        <time>2021-05-23T09:16:13.983Z</time>
      </trkpt>
      <trkpt lat="47.26991" lon="-2.26797">
        <ele>16</ele>
        <time>2021-05-23T09:16:14.983Z</time>
      </trkpt>
      <trkpt lat="47.26993" lon="-2.26796">
        <ele>16</ele>
        <time>2021-05-23T09:16:15.983Z</time>
      </trkpt>
      <trkpt lat="47.26995" lon="-2.26794">
        <ele>16</ele>
        <time>2021-05-23T09:16:16.983Z</time>
      </trkpt>
      <trkpt lat="47.26997" lon="-2.26792">
        <ele>16</ele>
        <time>2021-05-23T09:16:17.983Z</time>
      </trkpt>
      <trkpt lat="47.26999" lon="-2.26789">
        <ele>16</ele>
        <time>2021-05-23T09:16:18.982Z</time>
      </trkpt>
      <trkpt lat="47.27001" lon="-2.26786">
        <ele>16</ele>
        <time>2021-05-23T09:16:19.983Z</time>
      </trkpt>
      <trkpt lat="47.27003" lon="-2.26783">
        <ele>16</ele>
        <time>2021-05-23T09:16:20.983Z</time>
      </trkpt>
      <trkpt lat="47.27004" lon="-2.26781">
        <ele>16</ele>
        <time>2021-05-23T09:16:21.983Z</time>
      </trkpt>
      <trkpt lat="47.27006" lon="-2.26779">
        <ele>16</ele>
        <time>2021-05-23T09:16:22.983Z</time>
      </trkpt>
      <trkpt lat="47.27008" lon="-2.26777">
        <ele>16</ele>
        <time>2021-05-23T09:16:23.983Z</time>
      </trkpt>
      <trkpt lat="47.2701" lon="-2.26774">
        <ele>16</ele>
        <time>2021-05-23T09:16:24.983Z</time>
      </trkpt>
      <trkpt lat="47.27011" lon="-2.2677">
        <ele>16</ele>
        <time>2021-05-23T09:16:25.983Z</time>
      </trkpt>
      <trkpt lat="47.27013" lon="-2.26767">
        <ele>16</ele>
        <time>2021-05-23T09:16:26.983Z</time>
      </trkpt>
      <trkpt lat="47.27015" lon="-2.26766">
        <ele>17</ele>
        <time>2021-05-23T09:16:27.982Z</time>
      </trkpt>
      <trkpt lat="47.27017" lon="-2.26765">
        <ele>17</ele>
        <time>2021-05-23T09:16:28.983Z</time>
      </trkpt>
      <trkpt lat="47.27018" lon="-2.26764">
        <ele>17</ele>
        <time>2021-05-23T09:16:29.983Z</time>
      </trkpt>
      <trkpt lat="47.2702" lon="-2.26763">
        <ele>18</ele>
        <time>2021-05-23T09:16:30.982Z</time>
      </trkpt>
      <trkpt lat="47.27022" lon="-2.26763">
        <ele>18</ele>
        <time>2021-05-23T09:16:31.983Z</time>
      </trkpt>
      <trkpt lat="47.27022" lon="-2.26763">
        <ele>18</ele>
        <time>2021-05-23T09:16:32.983Z</time>
      </trkpt>
      <trkpt lat="47.27022" lon="-2.26762">
        <ele>18</ele>
        <time>2021-05-23T09:16:33.983Z</time>
      </trkpt>
      <trkpt lat="47.27023" lon="-2.26761">
        <ele>18</ele>
        <time>2021-05-23T09:16:34.983Z</time>
      </trkpt>
      <trkpt lat="47.27024" lon="-2.2676">
        <ele>19</ele>
        <time>2021-05-23T09:16:35.982Z</time>
      </trkpt>
      <trkpt lat="47.27026" lon="-2.26759">
        <ele>19</ele>
        <time>2021-05-23T09:16:36.983Z</time>
      </trkpt>
      <trkpt lat="47.27026" lon="-2.26757">
        <ele>19</ele>
        <time>2021-05-23T09:16:37.983Z</time>
      </trkpt>
      <trkpt lat="47.27027" lon="-2.26756">
        <ele>19</ele>
        <time>2021-05-23T09:16:38.983Z</time>
      </trkpt>
      <trkpt lat="47.27028" lon="-2.26754">
        <ele>19</ele>
        <time>2021-05-23T09:16:39.983Z</time>
      </trkpt>
      <trkpt lat="47.27029" lon="-2.26752">
        <ele>19</ele>
        <time>2021-05-23T09:16:40.982Z</time>
      </trkpt>
      <trkpt lat="47.2703" lon="-2.26749">
        <ele>19</ele>
        <time>2021-05-23T09:16:41.983Z</time>
      </trkpt>
      <trkpt lat="47.2703" lon="-2.26747">
        <ele>20</ele>
        <time>2021-05-23T09:16:42.983Z</time>
      </trkpt>
      <trkpt lat="47.27031" lon="-2.26744">
        <ele>20</ele>
        <time>2021-05-23T09:16:43.982Z</time>
      </trkpt>
      <trkpt lat="47.27032" lon="-2.26741">
        <ele>20</ele>
        <time>2021-05-23T09:16:44.983Z</time>
      </trkpt>
      <trkpt lat="47.27033" lon="-2.26738">
        <ele>20</ele>
        <time>2021-05-23T09:16:45.983Z</time>
      </trkpt>
      <trkpt lat="47.27033" lon="-2.26735">
        <ele>20</ele>
        <time>2021-05-23T09:16:46.983Z</time>
      </trkpt>
      <trkpt lat="47.27033" lon="-2.26731">
        <ele>20</ele>
        <time>2021-05-23T09:16:47.983Z</time>
      </trkpt>
      <trkpt lat="47.27033" lon="-2.26726">
        <ele>19</ele>
        <time>2021-05-23T09:16:48.983Z</time>
      </trkpt>
      <trkpt lat="47.27034" lon="-2.26723">
        <ele>19</ele>
        <time>2021-05-23T09:16:49.983Z</time>
      </trkpt>
      <trkpt lat="47.27034" lon="-2.2672">
        <ele>19</ele>
        <time>2021-05-23T09:16:50.983Z</time>
      </trkpt>
      <trkpt lat="47.27035" lon="-2.26716">
        <ele>19</ele>
        <time>2021-05-23T09:16:51.983Z</time>
      </trkpt>
      <trkpt lat="47.27035" lon="-2.26713">
        <ele>18</ele>
        <time>2021-05-23T09:16:52.983Z</time>
      </trkpt>
      <trkpt lat="47.27036" lon="-2.2671">
        <ele>18</ele>
        <time>2021-05-23T09:16:53.983Z</time>
      </trkpt>
      <trkpt lat="47.27037" lon="-2.26707">
        <ele>18</ele>
        <time>2021-05-23T09:16:54.982Z</time>
      </trkpt>
      <trkpt lat="47.27037" lon="-2.26703">
        <ele>18</ele>
        <time>2021-05-23T09:16:55.983Z</time>
      </trkpt>
      <trkpt lat="47.27037" lon="-2.267">
        <ele>18</ele>
        <time>2021-05-23T09:16:56.982Z</time>
      </trkpt>
      <trkpt lat="47.27037" lon="-2.26697">
        <ele>18</ele>
        <time>2021-05-23T09:16:57.983Z</time>
      </trkpt>
      <trkpt lat="47.27036" lon="-2.26694">
        <ele>17</ele>
        <time>2021-05-23T09:16:58.983Z</time>
      </trkpt>
      <trkpt lat="47.27035" lon="-2.26692">
        <ele>17</ele>
        <time>2021-05-23T09:16:59.982Z</time>
      </trkpt>
      <trkpt lat="47.27034" lon="-2.26689">
        <ele>17</ele>
        <time>2021-05-23T09:17:00.983Z</time>
      </trkpt>
      <trkpt lat="47.27033" lon="-2.26685">
        <ele>17</ele>
        <time>2021-05-23T09:17:01.983Z</time>
      </trkpt>
      <trkpt lat="47.27033" lon="-2.26682">
        <ele>17</ele>
        <time>2021-05-23T09:17:02.982Z</time>
      </trkpt>
      <trkpt lat="47.27033" lon="-2.26678">
        <ele>16</ele>
        <time>2021-05-23T09:17:03.982Z</time>
      </trkpt>
      <trkpt lat="47.27033" lon="-2.26675">
        <ele>16</ele>
        <time>2021-05-23T09:17:04.982Z</time>
      </trkpt>
      <trkpt lat="47.27034" lon="-2.26671">
        <ele>16</ele>
        <time>2021-05-23T09:17:05.982Z</time>
      </trkpt>
      <trkpt lat="47.27035" lon="-2.26668">
        <ele>16</ele>
        <time>2021-05-23T09:17:06.982Z</time>
      </trkpt>
      <trkpt lat="47.27035" lon="-2.26665">
        <ele>16</ele>
        <time>2021-05-23T09:17:07.982Z</time>
      </trkpt>
      <trkpt lat="47.27035" lon="-2.26662">
        <ele>16</ele>
        <time>2021-05-23T09:17:08.983Z</time>
      </trkpt>
      <trkpt lat="47.27035" lon="-2.26659">
        <ele>16</ele>
        <time>2021-05-23T09:17:09.982Z</time>
      </trkpt>
      <trkpt lat="47.27035" lon="-2.26656">
        <ele>16</ele>
        <time>2021-05-23T09:17:10.982Z</time>
      </trkpt>
      <trkpt lat="47.27035" lon="-2.26652">
        <ele>16</ele>
        <time>2021-05-23T09:17:11.982Z</time>
      </trkpt>
      <trkpt lat="47.27035" lon="-2.26649">
        <ele>16</ele>
        <time>2021-05-23T09:17:12.982Z</time>
      </trkpt>
      <trkpt lat="47.27034" lon="-2.26646">
        <ele>16</ele>
        <time>2021-05-23T09:17:13.982Z</time>
      </trkpt>
      <trkpt lat="47.27033" lon="-2.26643">
        <ele>16</ele>
        <time>2021-05-23T09:17:14.982Z</time>
      </trkpt>
      <trkpt lat="47.27032" lon="-2.26641">
        <ele>17</ele>
        <time>2021-05-23T09:17:15.983Z</time>
      </trkpt>
      <trkpt lat="47.27031" lon="-2.26639">
        <ele>17</ele>
        <time>2021-05-23T09:17:16.982Z</time>
      </trkpt>
      <trkpt lat="47.27029" lon="-2.26636">
        <ele>17</ele>
        <time>2021-05-23T09:17:17.983Z</time>
      </trkpt>
      <trkpt lat="47.27028" lon="-2.26635">
        <ele>18</ele>
        <time>2021-05-23T09:17:18.982Z</time>
      </trkpt>
      <trkpt lat="47.27027" lon="-2.26633">
        <ele>18</ele>
        <time>2021-05-23T09:17:19.982Z</time>
      </trkpt>
      <trkpt lat="47.27025" lon="-2.2663">
        <ele>18</ele>
        <time>2021-05-23T09:17:20.982Z</time>
      </trkpt>
      <trkpt lat="47.27024" lon="-2.26628">
        <ele>18</ele>
        <time>2021-05-23T09:17:21.983Z</time>
      </trkpt>
      <trkpt lat="47.27022" lon="-2.26626">
        <ele>18</ele>
        <time>2021-05-23T09:17:22.982Z</time>
      </trkpt>
      <trkpt lat="47.2702" lon="-2.26624">
        <ele>19</ele>
        <time>2021-05-23T09:17:23.982Z</time>
      </trkpt>
      <trkpt lat="47.27018" lon="-2.26621">
        <ele>19</ele>
        <time>2021-05-23T09:17:24.982Z</time>
      </trkpt>
      <trkpt lat="47.27016" lon="-2.26618">
        <ele>19</ele>
        <time>2021-05-23T09:17:25.982Z</time>
      </trkpt>
      <trkpt lat="47.27014" lon="-2.26615">
        <ele>19</ele>
        <time>2021-05-23T09:17:26.983Z</time>
      </trkpt>
      <trkpt lat="47.27013" lon="-2.26613">
        <ele>19</ele>
        <time>2021-05-23T09:17:27.982Z</time>
      </trkpt>
      <trkpt lat="47.27011" lon="-2.2661">
        <ele>19</ele>
        <time>2021-05-23T09:17:28.982Z</time>
      </trkpt>
      <trkpt lat="47.2701" lon="-2.26607">
        <ele>19</ele>
        <time>2021-05-23T09:17:29.982Z</time>
      </trkpt>
      <trkpt lat="47.27008" lon="-2.26604">
        <ele>20</ele>
        <time>2021-05-23T09:17:30.982Z</time>
      </trkpt>
      <trkpt lat="47.27007" lon="-2.26601">
        <ele>20</ele>
        <time>2021-05-23T09:17:31.982Z</time>
      </trkpt>
      <trkpt lat="47.27005" lon="-2.26597">
        <ele>20</ele>
        <time>2021-05-23T09:17:32.982Z</time>
      </trkpt>
      <trkpt lat="47.27003" lon="-2.26594">
        <ele>20</ele>
        <time>2021-05-23T09:17:33.982Z</time>
      </trkpt>
      <trkpt lat="47.27" lon="-2.26591">
        <ele>20</ele>
        <time>2021-05-23T09:17:34.982Z</time>
      </trkpt>
      <trkpt lat="47.26998" lon="-2.26588">
        <ele>20</ele>
        <time>2021-05-23T09:17:35.983Z</time>
      </trkpt>
      <trkpt lat="47.26996" lon="-2.26585">
        <ele>21</ele>
        <time>2021-05-23T09:17:36.982Z</time>
      </trkpt>
      <trkpt lat="47.26995" lon="-2.26583">
        <ele>21</ele>
        <time>2021-05-23T09:17:37.983Z</time>
      </trkpt>
      <trkpt lat="47.26993" lon="-2.26582">
        <ele>21</ele>
        <time>2021-05-23T09:17:38.983Z</time>
      </trkpt>
      <trkpt lat="47.26992" lon="-2.2658">
        <ele>22</ele>
        <time>2021-05-23T09:17:39.982Z</time>
      </trkpt>
      <trkpt lat="47.2699" lon="-2.26578">
        <ele>22</ele>
        <time>2021-05-23T09:17:40.983Z</time>
      </trkpt>
      <trkpt lat="47.26988" lon="-2.26575">
        <ele>22</ele>
        <time>2021-05-23T09:17:41.982Z</time>
      </trkpt>
      <trkpt lat="47.26987" lon="-2.26573">
        <ele>23</ele>
        <time>2021-05-23T09:17:42.983Z</time>
      </trkpt>
      <trkpt lat="47.26987" lon="-2.26572">
        <ele>23</ele>
        <time>2021-05-23T09:17:43.983Z</time>
      </trkpt>
      <trkpt lat="47.26986" lon="-2.26571">
        <ele>22</ele>
        <time>2021-05-23T09:17:44.983Z</time>
      </trkpt>
      <trkpt lat="47.26985" lon="-2.26569">
        <ele>22</ele>
        <time>2021-05-23T09:17:45.983Z</time>
      </trkpt>
      <trkpt lat="47.26984" lon="-2.26567">
        <ele>22</ele>
        <time>2021-05-23T09:17:46.982Z</time>
      </trkpt>
      <trkpt lat="47.26982" lon="-2.26565">
        <ele>22</ele>
        <time>2021-05-23T09:17:47.982Z</time>
      </trkpt>
      <trkpt lat="47.26981" lon="-2.26564">
        <ele>22</ele>
        <time>2021-05-23T09:17:48.982Z</time>
      </trkpt>
      <trkpt lat="47.26981" lon="-2.26562">
        <ele>22</ele>
        <time>2021-05-23T09:17:49.982Z</time>
      </trkpt>
      <trkpt lat="47.26982" lon="-2.2656">
        <ele>22</ele>
        <time>2021-05-23T09:17:50.983Z</time>
      </trkpt>
      <trkpt lat="47.26982" lon="-2.26559">
        <ele>22</ele>
        <time>2021-05-23T09:17:51.983Z</time>
      </trkpt>
      <trkpt lat="47.26981" lon="-2.26557">
        <ele>22</ele>
        <time>2021-05-23T09:17:52.983Z</time>
      </trkpt>
      <trkpt lat="47.26981" lon="-2.26556">
        <ele>22</ele>
        <time>2021-05-23T09:17:53.983Z</time>
      </trkpt>
      <trkpt lat="47.26981" lon="-2.26554">
        <ele>21</ele>
        <time>2021-05-23T09:17:54.983Z</time>
      </trkpt>
      <trkpt lat="47.2698" lon="-2.26552">
        <ele>21</ele>
        <time>2021-05-23T09:17:55.983Z</time>
      </trkpt>
      <trkpt lat="47.26979" lon="-2.26551">
        <ele>21</ele>
        <time>2021-05-23T09:17:56.982Z</time>
      </trkpt>
      <trkpt lat="47.26979" lon="-2.26549">
        <ele>21</ele>
        <time>2021-05-23T09:17:57.983Z</time>
      </trkpt>
      <trkpt lat="47.26978" lon="-2.26548">
        <ele>21</ele>
        <time>2021-05-23T09:17:58.983Z</time>
      </trkpt>
      <trkpt lat="47.26978" lon="-2.26546">
        <ele>21</ele>
        <time>2021-05-23T09:17:59.983Z</time>
      </trkpt>
      <trkpt lat="47.26977" lon="-2.26544">
        <ele>21</ele>
        <time>2021-05-23T09:18:00.983Z</time>
      </trkpt>
      <trkpt lat="47.26977" lon="-2.26542">
        <ele>21</ele>
        <time>2021-05-23T09:18:01.983Z</time>
      </trkpt>
      <trkpt lat="47.26975" lon="-2.2654">
        <ele>20</ele>
        <time>2021-05-23T09:18:02.983Z</time>
      </trkpt>
      <trkpt lat="47.26975" lon="-2.26537">
        <ele>20</ele>
        <time>2021-05-23T09:18:03.982Z</time>
      </trkpt>
      <trkpt lat="47.26974" lon="-2.26534">
        <ele>20</ele>
        <time>2021-05-23T09:18:04.983Z</time>
      </trkpt>
      <trkpt lat="47.26973" lon="-2.26531">
        <ele>19</ele>
        <time>2021-05-23T09:18:05.983Z</time>
      </trkpt>
      <trkpt lat="47.26972" lon="-2.26527">
        <ele>20</ele>
        <time>2021-05-23T09:18:06.982Z</time>
      </trkpt>
      <trkpt lat="47.26973" lon="-2.26523">
        <ele>20</ele>
        <time>2021-05-23T09:18:07.983Z</time>
      </trkpt>
      <trkpt lat="47.26973" lon="-2.26521">
        <ele>20</ele>
        <time>2021-05-23T09:18:08.982Z</time>
      </trkpt>
      <trkpt lat="47.26971" lon="-2.2652">
        <ele>20</ele>
        <time>2021-05-23T09:18:09.983Z</time>
      </trkpt>
      <trkpt lat="47.2697" lon="-2.26517">
        <ele>20</ele>
        <time>2021-05-23T09:18:10.982Z</time>
      </trkpt>
      <trkpt lat="47.26969" lon="-2.26515">
        <ele>20</ele>
        <time>2021-05-23T09:18:11.982Z</time>
      </trkpt>
      <trkpt lat="47.26969" lon="-2.26513">
        <ele>20</ele>
        <time>2021-05-23T09:18:12.983Z</time>
      </trkpt>
      <trkpt lat="47.26968" lon="-2.26511">
        <ele>20</ele>
        <time>2021-05-23T09:18:13.983Z</time>
      </trkpt>
      <trkpt lat="47.26968" lon="-2.26508">
        <ele>20</ele>
        <time>2021-05-23T09:18:14.982Z</time>
      </trkpt>
      <trkpt lat="47.26968" lon="-2.26507">
        <ele>19</ele>
        <time>2021-05-23T09:18:15.982Z</time>
      </trkpt>
      <trkpt lat="47.26969" lon="-2.26505">
        <ele>19</ele>
        <time>2021-05-23T09:18:16.982Z</time>
      </trkpt>
      <trkpt lat="47.26969" lon="-2.26504">
        <ele>19</ele>
        <time>2021-05-23T09:18:17.982Z</time>
      </trkpt>
      <trkpt lat="47.26971" lon="-2.26503">
        <ele>19</ele>
        <time>2021-05-23T09:18:18.983Z</time>
      </trkpt>
      <trkpt lat="47.26973" lon="-2.26501">
        <ele>20</ele>
        <time>2021-05-23T09:18:19.983Z</time>
      </trkpt>
      <trkpt lat="47.26975" lon="-2.265">
        <ele>20</ele>
        <time>2021-05-23T09:18:20.983Z</time>
      </trkpt>
      <trkpt lat="47.26978" lon="-2.26498">
        <ele>20</ele>
        <time>2021-05-23T09:18:21.983Z</time>
      </trkpt>
      <trkpt lat="47.2698" lon="-2.26496">
        <ele>20</ele>
        <time>2021-05-23T09:18:22.983Z</time>
      </trkpt>
      <trkpt lat="47.26982" lon="-2.26495">
        <ele>20</ele>
        <time>2021-05-23T09:18:23.982Z</time>
      </trkpt>
      <trkpt lat="47.26984" lon="-2.26493">
        <ele>20</ele>
        <time>2021-05-23T09:18:24.983Z</time>
      </trkpt>
      <trkpt lat="47.26986" lon="-2.26491">
        <ele>20</ele>
        <time>2021-05-23T09:18:25.982Z</time>
      </trkpt>
      <trkpt lat="47.26988" lon="-2.26489">
        <ele>20</ele>
        <time>2021-05-23T09:18:26.983Z</time>
      </trkpt>
      <trkpt lat="47.2699" lon="-2.26487">
        <ele>20</ele>
        <time>2021-05-23T09:18:27.983Z</time>
      </trkpt>
      <trkpt lat="47.26992" lon="-2.26486">
        <ele>20</ele>
        <time>2021-05-23T09:18:28.983Z</time>
      </trkpt>
      <trkpt lat="47.26994" lon="-2.26483">
        <ele>20</ele>
        <time>2021-05-23T09:18:29.983Z</time>
      </trkpt>
      <trkpt lat="47.26997" lon="-2.26481">
        <ele>21</ele>
        <time>2021-05-23T09:18:30.983Z</time>
      </trkpt>
      <trkpt lat="47.26999" lon="-2.26478">
        <ele>21</ele>
        <time>2021-05-23T09:18:31.983Z</time>
      </trkpt>
      <trkpt lat="47.27002" lon="-2.26474">
        <ele>22</ele>
        <time>2021-05-23T09:18:32.983Z</time>
      </trkpt>
      <trkpt lat="47.27003" lon="-2.26471">
        <ele>23</ele>
        <time>2021-05-23T09:18:33.983Z</time>
      </trkpt>
      <trkpt lat="47.27005" lon="-2.26468">
        <ele>24</ele>
        <time>2021-05-23T09:18:34.983Z</time>
      </trkpt>
      <trkpt lat="47.27006" lon="-2.26465">
        <ele>24</ele>
        <time>2021-05-23T09:18:35.983Z</time>
      </trkpt>
      <trkpt lat="47.27006" lon="-2.26462">
        <ele>25</ele>
        <time>2021-05-23T09:18:36.983Z</time>
      </trkpt>
      <trkpt lat="47.27008" lon="-2.26459">
        <ele>25</ele>
        <time>2021-05-23T09:18:37.983Z</time>
      </trkpt>
      <trkpt lat="47.27009" lon="-2.26457">
        <ele>25</ele>
        <time>2021-05-23T09:18:38.983Z</time>
      </trkpt>
      <trkpt lat="47.27011" lon="-2.26455">
        <ele>25</ele>
        <time>2021-05-23T09:18:39.982Z</time>
      </trkpt>
      <trkpt lat="47.27013" lon="-2.26452">
        <ele>25</ele>
        <time>2021-05-23T09:18:40.983Z</time>
      </trkpt>
      <trkpt lat="47.27015" lon="-2.2645">
        <ele>25</ele>
        <time>2021-05-23T09:18:41.983Z</time>
      </trkpt>
      <trkpt lat="47.27017" lon="-2.26447">
        <ele>25</ele>
        <time>2021-05-23T09:18:42.983Z</time>
      </trkpt>
      <trkpt lat="47.27018" lon="-2.26445">
        <ele>25</ele>
        <time>2021-05-23T09:18:43.983Z</time>
      </trkpt>
      <trkpt lat="47.27019" lon="-2.26442">
        <ele>24</ele>
        <time>2021-05-23T09:18:44.983Z</time>
      </trkpt>
      <trkpt lat="47.2702" lon="-2.26439">
        <ele>24</ele>
        <time>2021-05-23T09:18:45.983Z</time>
      </trkpt>
      <trkpt lat="47.27021" lon="-2.26436">
        <ele>23</ele>
        <time>2021-05-23T09:18:46.983Z</time>
      </trkpt>
      <trkpt lat="47.27023" lon="-2.26434">
        <ele>23</ele>
        <time>2021-05-23T09:18:47.983Z</time>
      </trkpt>
      <trkpt lat="47.27025" lon="-2.26431">
        <ele>22</ele>
        <time>2021-05-23T09:18:48.982Z</time>
      </trkpt>
      <trkpt lat="47.27027" lon="-2.26429">
        <ele>22</ele>
        <time>2021-05-23T09:18:49.982Z</time>
      </trkpt>
      <trkpt lat="47.27029" lon="-2.26427">
        <ele>21</ele>
        <time>2021-05-23T09:18:50.983Z</time>
      </trkpt>
      <trkpt lat="47.27031" lon="-2.26424">
        <ele>21</ele>
        <time>2021-05-23T09:18:51.983Z</time>
      </trkpt>
      <trkpt lat="47.27032" lon="-2.26422">
        <ele>20</ele>
        <time>2021-05-23T09:18:52.983Z</time>
      </trkpt>
      <trkpt lat="47.27035" lon="-2.26419">
        <ele>20</ele>
        <time>2021-05-23T09:18:53.983Z</time>
      </trkpt>
      <trkpt lat="47.27036" lon="-2.26417">
        <ele>20</ele>
        <time>2021-05-23T09:18:54.982Z</time>
      </trkpt>
      <trkpt lat="47.27038" lon="-2.26415">
        <ele>19</ele>
        <time>2021-05-23T09:18:55.983Z</time>
      </trkpt>
      <trkpt lat="47.2704" lon="-2.26412">
        <ele>19</ele>
        <time>2021-05-23T09:18:56.983Z</time>
      </trkpt>
      <trkpt lat="47.27043" lon="-2.26409">
        <ele>19</ele>
        <time>2021-05-23T09:18:57.983Z</time>
      </trkpt>
      <trkpt lat="47.27044" lon="-2.26407">
        <ele>19</ele>
        <time>2021-05-23T09:18:58.983Z</time>
      </trkpt>
      <trkpt lat="47.27046" lon="-2.26404">
        <ele>19</ele>
        <time>2021-05-23T09:18:59.982Z</time>
      </trkpt>
      <trkpt lat="47.27048" lon="-2.26401">
        <ele>19</ele>
        <time>2021-05-23T09:19:00.983Z</time>
      </trkpt>
      <trkpt lat="47.27049" lon="-2.26399">
        <ele>19</ele>
        <time>2021-05-23T09:19:01.982Z</time>
      </trkpt>
      <trkpt lat="47.27051" lon="-2.26397">
        <ele>19</ele>
        <time>2021-05-23T09:19:02.982Z</time>
      </trkpt>
      <trkpt lat="47.27053" lon="-2.26395">
        <ele>19</ele>
        <time>2021-05-23T09:19:03.983Z</time>
      </trkpt>
      <trkpt lat="47.27054" lon="-2.26393">
        <ele>19</ele>
        <time>2021-05-23T09:19:04.982Z</time>
      </trkpt>
      <trkpt lat="47.27057" lon="-2.26391">
        <ele>20</ele>
        <time>2021-05-23T09:19:05.983Z</time>
      </trkpt>
      <trkpt lat="47.27059" lon="-2.26389">
        <ele>20</ele>
        <time>2021-05-23T09:19:06.983Z</time>
      </trkpt>
      <trkpt lat="47.27061" lon="-2.26387">
        <ele>20</ele>
        <time>2021-05-23T09:19:07.983Z</time>
      </trkpt>
      <trkpt lat="47.27062" lon="-2.26385">
        <ele>20</ele>
        <time>2021-05-23T09:19:08.983Z</time>
      </trkpt>
      <trkpt lat="47.27064" lon="-2.26383">
        <ele>20</ele>
        <time>2021-05-23T09:19:09.982Z</time>
      </trkpt>
      <trkpt lat="47.27066" lon="-2.2638">
        <ele>20</ele>
        <time>2021-05-23T09:19:10.983Z</time>
      </trkpt>
      <trkpt lat="47.27068" lon="-2.26377">
        <ele>21</ele>
        <time>2021-05-23T09:19:11.983Z</time>
      </trkpt>
      <trkpt lat="47.2707" lon="-2.26375">
        <ele>21</ele>
        <time>2021-05-23T09:19:12.983Z</time>
      </trkpt>
      <trkpt lat="47.27072" lon="-2.26372">
        <ele>21</ele>
        <time>2021-05-23T09:19:13.983Z</time>
      </trkpt>
      <trkpt lat="47.27074" lon="-2.2637">
        <ele>21</ele>
        <time>2021-05-23T09:19:14.982Z</time>
      </trkpt>
      <trkpt lat="47.27076" lon="-2.26367">
        <ele>21</ele>
        <time>2021-05-23T09:19:15.983Z</time>
      </trkpt>
      <trkpt lat="47.27077" lon="-2.26365">
        <ele>21</ele>
        <time>2021-05-23T09:19:16.983Z</time>
      </trkpt>
      <trkpt lat="47.27079" lon="-2.26362">
        <ele>21</ele>
        <time>2021-05-23T09:19:17.982Z</time>
      </trkpt>
      <trkpt lat="47.27081" lon="-2.2636">
        <ele>20</ele>
        <time>2021-05-23T09:19:18.983Z</time>
      </trkpt>
      <trkpt lat="47.27084" lon="-2.26357">
        <ele>20</ele>
        <time>2021-05-23T09:19:19.982Z</time>
      </trkpt>
      <trkpt lat="47.27085" lon="-2.26354">
        <ele>20</ele>
        <time>2021-05-23T09:19:20.983Z</time>
      </trkpt>
      <trkpt lat="47.27087" lon="-2.26351">
        <ele>19</ele>
        <time>2021-05-23T09:19:21.983Z</time>
      </trkpt>
      <trkpt lat="47.27089" lon="-2.26349">
        <ele>19</ele>
        <time>2021-05-23T09:19:22.983Z</time>
      </trkpt>
      <trkpt lat="47.27091" lon="-2.26346">
        <ele>20</ele>
        <time>2021-05-23T09:19:23.983Z</time>
      </trkpt>
      <trkpt lat="47.27093" lon="-2.26344">
        <ele>20</ele>
        <time>2021-05-23T09:19:24.983Z</time>
      </trkpt>
      <trkpt lat="47.27095" lon="-2.26341">
        <ele>20</ele>
        <time>2021-05-23T09:19:25.983Z</time>
      </trkpt>
      <trkpt lat="47.27097" lon="-2.26338">
        <ele>20</ele>
        <time>2021-05-23T09:19:26.983Z</time>
      </trkpt>
      <trkpt lat="47.27098" lon="-2.26336">
        <ele>20</ele>
        <time>2021-05-23T09:19:27.983Z</time>
      </trkpt>
      <trkpt lat="47.271" lon="-2.26333">
        <ele>20</ele>
        <time>2021-05-23T09:19:28.983Z</time>
      </trkpt>
      <trkpt lat="47.27102" lon="-2.26331">
        <ele>20</ele>
        <time>2021-05-23T09:19:29.983Z</time>
      </trkpt>
      <trkpt lat="47.27104" lon="-2.26328">
        <ele>20</ele>
        <time>2021-05-23T09:19:30.983Z</time>
      </trkpt>
      <trkpt lat="47.27106" lon="-2.26325">
        <ele>20</ele>
        <time>2021-05-23T09:19:31.982Z</time>
      </trkpt>
      <trkpt lat="47.27107" lon="-2.26322">
        <ele>20</ele>
        <time>2021-05-23T09:19:32.982Z</time>
      </trkpt>
      <trkpt lat="47.27109" lon="-2.26319">
        <ele>20</ele>
        <time>2021-05-23T09:19:33.983Z</time>
      </trkpt>
      <trkpt lat="47.27111" lon="-2.26317">
        <ele>20</ele>
        <time>2021-05-23T09:19:34.983Z</time>
      </trkpt>
      <trkpt lat="47.27112" lon="-2.26314">
        <ele>19</ele>
        <time>2021-05-23T09:19:35.983Z</time>
      </trkpt>
      <trkpt lat="47.27114" lon="-2.26312">
        <ele>19</ele>
        <time>2021-05-23T09:19:36.983Z</time>
      </trkpt>
      <trkpt lat="47.27115" lon="-2.26309">
        <ele>19</ele>
        <time>2021-05-23T09:19:37.983Z</time>
      </trkpt>
      <trkpt lat="47.27116" lon="-2.26306">
        <ele>19</ele>
        <time>2021-05-23T09:19:38.983Z</time>
      </trkpt>
      <trkpt lat="47.27118" lon="-2.26304">
        <ele>19</ele>
        <time>2021-05-23T09:19:39.983Z</time>
      </trkpt>
      <trkpt lat="47.2712" lon="-2.26301">
        <ele>19</ele>
        <time>2021-05-23T09:19:40.982Z</time>
      </trkpt>
      <trkpt lat="47.27121" lon="-2.26298">
        <ele>19</ele>
        <time>2021-05-23T09:19:41.983Z</time>
      </trkpt>
      <trkpt lat="47.27123" lon="-2.26295">
        <ele>19</ele>
        <time>2021-05-23T09:19:42.983Z</time>
      </trkpt>
      <trkpt lat="47.27124" lon="-2.26292">
        <ele>19</ele>
        <time>2021-05-23T09:19:43.983Z</time>
      </trkpt>
      <trkpt lat="47.27126" lon="-2.26289">
        <ele>19</ele>
        <time>2021-05-23T09:19:44.983Z</time>
      </trkpt>
      <trkpt lat="47.27127" lon="-2.26286">
        <ele>19</ele>
        <time>2021-05-23T09:19:45.982Z</time>
      </trkpt>
      <trkpt lat="47.27129" lon="-2.26284">
        <ele>19</ele>
        <time>2021-05-23T09:19:46.983Z</time>
      </trkpt>
      <trkpt lat="47.27132" lon="-2.26282">
        <ele>19</ele>
        <time>2021-05-23T09:19:47.982Z</time>
      </trkpt>
      <trkpt lat="47.27134" lon="-2.26279">
        <ele>19</ele>
        <time>2021-05-23T09:19:48.983Z</time>
      </trkpt>
      <trkpt lat="47.27135" lon="-2.26277">
        <ele>20</ele>
        <time>2021-05-23T09:19:49.983Z</time>
      </trkpt>
      <trkpt lat="47.27137" lon="-2.26275">
        <ele>20</ele>
        <time>2021-05-23T09:19:50.982Z</time>
      </trkpt>
      <trkpt lat="47.27139" lon="-2.26272">
        <ele>20</ele>
        <time>2021-05-23T09:19:51.983Z</time>
      </trkpt>
      <trkpt lat="47.27142" lon="-2.2627">
        <ele>20</ele>
        <time>2021-05-23T09:19:52.983Z</time>
      </trkpt>
      <trkpt lat="47.27144" lon="-2.26268">
        <ele>20</ele>
        <time>2021-05-23T09:19:53.983Z</time>
      </trkpt>
      <trkpt lat="47.27146" lon="-2.26266">
        <ele>20</ele>
        <time>2021-05-23T09:19:54.982Z</time>
      </trkpt>
      <trkpt lat="47.27148" lon="-2.26264">
        <ele>20</ele>
        <time>2021-05-23T09:19:55.982Z</time>
      </trkpt>
      <trkpt lat="47.27151" lon="-2.26262">
        <ele>20</ele>
        <time>2021-05-23T09:19:56.983Z</time>
      </trkpt>
      <trkpt lat="47.27153" lon="-2.26259">
        <ele>20</ele>
        <time>2021-05-23T09:19:57.983Z</time>
      </trkpt>
      <trkpt lat="47.27155" lon="-2.26257">
        <ele>20</ele>
        <time>2021-05-23T09:19:58.983Z</time>
      </trkpt>
      <trkpt lat="47.27157" lon="-2.26254">
        <ele>20</ele>
        <time>2021-05-23T09:19:59.982Z</time>
      </trkpt>
      <trkpt lat="47.27158" lon="-2.26252">
        <ele>20</ele>
        <time>2021-05-23T09:20:00.983Z</time>
      </trkpt>
      <trkpt lat="47.2716" lon="-2.26249">
        <ele>20</ele>
        <time>2021-05-23T09:20:01.982Z</time>
      </trkpt>
      <trkpt lat="47.27162" lon="-2.26247">
        <ele>20</ele>
        <time>2021-05-23T09:20:02.982Z</time>
      </trkpt>
      <trkpt lat="47.27164" lon="-2.26244">
        <ele>19</ele>
        <time>2021-05-23T09:20:03.983Z</time>
      </trkpt>
      <trkpt lat="47.27166" lon="-2.26242">
        <ele>19</ele>
        <time>2021-05-23T09:20:04.983Z</time>
      </trkpt>
      <trkpt lat="47.27168" lon="-2.26239">
        <ele>18</ele>
        <time>2021-05-23T09:20:05.983Z</time>
      </trkpt>
      <trkpt lat="47.2717" lon="-2.26237">
        <ele>18</ele>
        <time>2021-05-23T09:20:06.983Z</time>
      </trkpt>
      <trkpt lat="47.27172" lon="-2.26234">
        <ele>17</ele>
        <time>2021-05-23T09:20:07.983Z</time>
      </trkpt>
      <trkpt lat="47.27174" lon="-2.26232">
        <ele>17</ele>
        <time>2021-05-23T09:20:08.983Z</time>
      </trkpt>
      <trkpt lat="47.27175" lon="-2.26229">
        <ele>17</ele>
        <time>2021-05-23T09:20:09.983Z</time>
      </trkpt>
      <trkpt lat="47.27177" lon="-2.26227">
        <ele>16</ele>
        <time>2021-05-23T09:20:10.983Z</time>
      </trkpt>
      <trkpt lat="47.27179" lon="-2.26224">
        <ele>16</ele>
        <time>2021-05-23T09:20:11.983Z</time>
      </trkpt>
      <trkpt lat="47.27181" lon="-2.26222">
        <ele>15</ele>
        <time>2021-05-23T09:20:12.983Z</time>
      </trkpt>
      <trkpt lat="47.27183" lon="-2.2622">
        <ele>15</ele>
        <time>2021-05-23T09:20:13.983Z</time>
      </trkpt>
      <trkpt lat="47.27185" lon="-2.26218">
        <ele>15</ele>
        <time>2021-05-23T09:20:14.983Z</time>
      </trkpt>
      <trkpt lat="47.27187" lon="-2.26216">
        <ele>15</ele>
        <time>2021-05-23T09:20:15.983Z</time>
      </trkpt>
      <trkpt lat="47.27188" lon="-2.26214">
        <ele>15</ele>
        <time>2021-05-23T09:20:16.983Z</time>
      </trkpt>
      <trkpt lat="47.27191" lon="-2.26212">
        <ele>15</ele>
        <time>2021-05-23T09:20:17.983Z</time>
      </trkpt>
      <trkpt lat="47.27194" lon="-2.26209">
        <ele>14</ele>
        <time>2021-05-23T09:20:18.983Z</time>
      </trkpt>
      <trkpt lat="47.27196" lon="-2.26207">
        <ele>14</ele>
        <time>2021-05-23T09:20:19.983Z</time>
      </trkpt>
      <trkpt lat="47.27199" lon="-2.26205">
        <ele>14</ele>
        <time>2021-05-23T09:20:20.983Z</time>
      </trkpt>
      <trkpt lat="47.27201" lon="-2.26203">
        <ele>14</ele>
        <time>2021-05-23T09:20:21.983Z</time>
      </trkpt>
      <trkpt lat="47.27204" lon="-2.262">
        <ele>13</ele>
        <time>2021-05-23T09:20:22.983Z</time>
      </trkpt>
      <trkpt lat="47.27206" lon="-2.26198">
        <ele>14</ele>
        <time>2021-05-23T09:20:23.982Z</time>
      </trkpt>
      <trkpt lat="47.27209" lon="-2.26195">
        <ele>14</ele>
        <time>2021-05-23T09:20:24.983Z</time>
      </trkpt>
      <trkpt lat="47.27211" lon="-2.26193">
        <ele>14</ele>
        <time>2021-05-23T09:20:25.982Z</time>
      </trkpt>
      <trkpt lat="47.27213" lon="-2.26192">
        <ele>14</ele>
        <time>2021-05-23T09:20:26.983Z</time>
      </trkpt>
      <trkpt lat="47.27215" lon="-2.26191">
        <ele>14</ele>
        <time>2021-05-23T09:20:27.983Z</time>
      </trkpt>
      <trkpt lat="47.27217" lon="-2.26189">
        <ele>14</ele>
        <time>2021-05-23T09:20:28.983Z</time>
      </trkpt>
      <trkpt lat="47.27219" lon="-2.26188">
        <ele>14</ele>
        <time>2021-05-23T09:20:29.983Z</time>
      </trkpt>
      <trkpt lat="47.27221" lon="-2.26186">
        <ele>14</ele>
        <time>2021-05-23T09:20:30.983Z</time>
      </trkpt>
      <trkpt lat="47.27224" lon="-2.26184">
        <ele>14</ele>
        <time>2021-05-23T09:20:31.983Z</time>
      </trkpt>
      <trkpt lat="47.27227" lon="-2.26183">
        <ele>15</ele>
        <time>2021-05-23T09:20:32.983Z</time>
      </trkpt>
      <trkpt lat="47.27229" lon="-2.26181">
        <ele>15</ele>
        <time>2021-05-23T09:20:33.983Z</time>
      </trkpt>
      <trkpt lat="47.27231" lon="-2.26179">
        <ele>15</ele>
        <time>2021-05-23T09:20:34.983Z</time>
      </trkpt>
      <trkpt lat="47.27234" lon="-2.26177">
        <ele>15</ele>
        <time>2021-05-23T09:20:35.983Z</time>
      </trkpt>
      <trkpt lat="47.27236" lon="-2.26175">
        <ele>16</ele>
        <time>2021-05-23T09:20:36.983Z</time>
      </trkpt>
      <trkpt lat="47.27238" lon="-2.26174">
        <ele>16</ele>
        <time>2021-05-23T09:20:37.982Z</time>
      </trkpt>
      <trkpt lat="47.2724" lon="-2.26172">
        <ele>16</ele>
        <time>2021-05-23T09:20:38.983Z</time>
      </trkpt>
      <trkpt lat="47.27242" lon="-2.26171">
        <ele>16</ele>
        <time>2021-05-23T09:20:39.983Z</time>
      </trkpt>
      <trkpt lat="47.27245" lon="-2.2617">
        <ele>16</ele>
        <time>2021-05-23T09:20:40.983Z</time>
      </trkpt>
      <trkpt lat="47.27247" lon="-2.26169">
        <ele>16</ele>
        <time>2021-05-23T09:20:41.983Z</time>
      </trkpt>
      <trkpt lat="47.27249" lon="-2.26169">
        <ele>16</ele>
        <time>2021-05-23T09:20:42.983Z</time>
      </trkpt>
      <trkpt lat="47.27251" lon="-2.26167">
        <ele>16</ele>
        <time>2021-05-23T09:20:43.982Z</time>
      </trkpt>
      <trkpt lat="47.27253" lon="-2.26166">
        <ele>16</ele>
        <time>2021-05-23T09:20:44.982Z</time>
      </trkpt>
      <trkpt lat="47.27255" lon="-2.26164">
        <ele>17</ele>
        <time>2021-05-23T09:20:45.983Z</time>
      </trkpt>
      <trkpt lat="47.27257" lon="-2.26162">
        <ele>17</ele>
        <time>2021-05-23T09:20:46.983Z</time>
      </trkpt>
      <trkpt lat="47.27259" lon="-2.26161">
        <ele>17</ele>
        <time>2021-05-23T09:20:47.983Z</time>
      </trkpt>
      <trkpt lat="47.27261" lon="-2.2616">
        <ele>17</ele>
        <time>2021-05-23T09:20:48.983Z</time>
      </trkpt>
      <trkpt lat="47.27264" lon="-2.26159">
        <ele>17</ele>
        <time>2021-05-23T09:20:49.983Z</time>
      </trkpt>
      <trkpt lat="47.27266" lon="-2.26158">
        <ele>16</ele>
        <time>2021-05-23T09:20:50.983Z</time>
      </trkpt>
      <trkpt lat="47.27269" lon="-2.26158">
        <ele>16</ele>
        <time>2021-05-23T09:20:51.982Z</time>
      </trkpt>
      <trkpt lat="47.27271" lon="-2.26157">
        <ele>16</ele>
        <time>2021-05-23T09:20:52.983Z</time>
      </trkpt>
      <trkpt lat="47.27272" lon="-2.26156">
        <ele>17</ele>
        <time>2021-05-23T09:20:53.983Z</time>
      </trkpt>
      <trkpt lat="47.27274" lon="-2.26156">
        <ele>17</ele>
        <time>2021-05-23T09:20:54.983Z</time>
      </trkpt>
      <trkpt lat="47.27277" lon="-2.26156">
        <ele>17</ele>
        <time>2021-05-23T09:20:55.983Z</time>
      </trkpt>
      <trkpt lat="47.27279" lon="-2.26155">
        <ele>17</ele>
        <time>2021-05-23T09:20:56.983Z</time>
      </trkpt>
      <trkpt lat="47.27281" lon="-2.26154">
        <ele>17</ele>
        <time>2021-05-23T09:20:57.983Z</time>
      </trkpt>
      <trkpt lat="47.27284" lon="-2.26154">
        <ele>17</ele>
        <time>2021-05-23T09:20:58.983Z</time>
      </trkpt>
      <trkpt lat="47.27286" lon="-2.26152">
        <ele>17</ele>
        <time>2021-05-23T09:20:59.982Z</time>
      </trkpt>
      <trkpt lat="47.27288" lon="-2.26151">
        <ele>17</ele>
        <time>2021-05-23T09:21:00.983Z</time>
      </trkpt>
      <trkpt lat="47.2729" lon="-2.26149">
        <ele>17</ele>
        <time>2021-05-23T09:21:01.983Z</time>
      </trkpt>
      <trkpt lat="47.27292" lon="-2.26149">
        <ele>17</ele>
        <time>2021-05-23T09:21:02.983Z</time>
      </trkpt>
      <trkpt lat="47.27295" lon="-2.26147">
        <ele>16</ele>
        <time>2021-05-23T09:21:03.983Z</time>
      </trkpt>
      <trkpt lat="47.27297" lon="-2.26147">
        <ele>16</ele>
        <time>2021-05-23T09:21:04.983Z</time>
      </trkpt>
      <trkpt lat="47.273" lon="-2.26146">
        <ele>16</ele>
        <time>2021-05-23T09:21:05.982Z</time>
      </trkpt>
      <trkpt lat="47.27302" lon="-2.26145">
        <ele>15</ele>
        <time>2021-05-23T09:21:06.983Z</time>
      </trkpt>
      <trkpt lat="47.27305" lon="-2.26145">
        <ele>15</ele>
        <time>2021-05-23T09:21:07.983Z</time>
      </trkpt>
      <trkpt lat="47.27307" lon="-2.26144">
        <ele>15</ele>
        <time>2021-05-23T09:21:08.983Z</time>
      </trkpt>
      <trkpt lat="47.27309" lon="-2.26143">
        <ele>14</ele>
        <time>2021-05-23T09:21:09.983Z</time>
      </trkpt>
      <trkpt lat="47.27312" lon="-2.26142">
        <ele>14</ele>
        <time>2021-05-23T09:21:10.983Z</time>
      </trkpt>
      <trkpt lat="47.27314" lon="-2.26141">
        <ele>14</ele>
        <time>2021-05-23T09:21:11.983Z</time>
      </trkpt>
      <trkpt lat="47.27317" lon="-2.26139">
        <ele>15</ele>
        <time>2021-05-23T09:21:12.983Z</time>
      </trkpt>
      <trkpt lat="47.27319" lon="-2.26138">
        <ele>15</ele>
        <time>2021-05-23T09:21:13.983Z</time>
      </trkpt>
      <trkpt lat="47.27321" lon="-2.26137">
        <ele>15</ele>
        <time>2021-05-23T09:21:14.983Z</time>
      </trkpt>
      <trkpt lat="47.27324" lon="-2.26136">
        <ele>15</ele>
        <time>2021-05-23T09:21:15.983Z</time>
      </trkpt>
      <trkpt lat="47.27326" lon="-2.26136">
        <ele>15</ele>
        <time>2021-05-23T09:21:16.983Z</time>
      </trkpt>
      <trkpt lat="47.27328" lon="-2.26135">
        <ele>15</ele>
        <time>2021-05-23T09:21:17.983Z</time>
      </trkpt>
      <trkpt lat="47.27331" lon="-2.26134">
        <ele>15</ele>
        <time>2021-05-23T09:21:18.983Z</time>
      </trkpt>
      <trkpt lat="47.27333" lon="-2.26134">
        <ele>15</ele>
        <time>2021-05-23T09:21:19.982Z</time>
      </trkpt>
      <trkpt lat="47.27336" lon="-2.26133">
        <ele>15</ele>
        <time>2021-05-23T09:21:20.982Z</time>
      </trkpt>
      <trkpt lat="47.27338" lon="-2.26132">
        <ele>15</ele>
        <time>2021-05-23T09:21:21.982Z</time>
      </trkpt>
      <trkpt lat="47.2734" lon="-2.2613">
        <ele>15</ele>
        <time>2021-05-23T09:21:22.982Z</time>
      </trkpt>
      <trkpt lat="47.27343" lon="-2.26129">
        <ele>15</ele>
        <time>2021-05-23T09:21:23.983Z</time>
      </trkpt>
      <trkpt lat="47.27345" lon="-2.26128">
        <ele>15</ele>
        <time>2021-05-23T09:21:24.983Z</time>
      </trkpt>
      <trkpt lat="47.27348" lon="-2.26128">
        <ele>15</ele>
        <time>2021-05-23T09:21:25.983Z</time>
      </trkpt>
      <trkpt lat="47.2735" lon="-2.26127">
        <ele>14</ele>
        <time>2021-05-23T09:21:26.983Z</time>
      </trkpt>
      <trkpt lat="47.27352" lon="-2.26126">
        <ele>14</ele>
        <time>2021-05-23T09:21:27.983Z</time>
      </trkpt>
      <trkpt lat="47.27355" lon="-2.26125">
        <ele>14</ele>
        <time>2021-05-23T09:21:28.983Z</time>
      </trkpt>
      <trkpt lat="47.27358" lon="-2.26124">
        <ele>14</ele>
        <time>2021-05-23T09:21:29.982Z</time>
      </trkpt>
      <trkpt lat="47.2736" lon="-2.26123">
        <ele>14</ele>
        <time>2021-05-23T09:21:30.983Z</time>
      </trkpt>
      <trkpt lat="47.27363" lon="-2.26122">
        <ele>14</ele>
        <time>2021-05-23T09:21:31.983Z</time>
      </trkpt>
      <trkpt lat="47.27365" lon="-2.26121">
        <ele>14</ele>
        <time>2021-05-23T09:21:32.983Z</time>
      </trkpt>
      <trkpt lat="47.27368" lon="-2.26121">
        <ele>14</ele>
        <time>2021-05-23T09:21:33.982Z</time>
      </trkpt>
      <trkpt lat="47.27371" lon="-2.2612">
        <ele>14</ele>
        <time>2021-05-23T09:21:34.983Z</time>
      </trkpt>
      <trkpt lat="47.27373" lon="-2.26119">
        <ele>15</ele>
        <time>2021-05-23T09:21:35.982Z</time>
      </trkpt>
      <trkpt lat="47.27375" lon="-2.26117">
        <ele>15</ele>
        <time>2021-05-23T09:21:36.982Z</time>
      </trkpt>
      <trkpt lat="47.27377" lon="-2.26116">
        <ele>15</ele>
        <time>2021-05-23T09:21:37.983Z</time>
      </trkpt>
      <trkpt lat="47.2738" lon="-2.26115">
        <ele>16</ele>
        <time>2021-05-23T09:21:38.983Z</time>
      </trkpt>
      <trkpt lat="47.27382" lon="-2.26114">
        <ele>16</ele>
        <time>2021-05-23T09:21:39.983Z</time>
      </trkpt>
      <trkpt lat="47.27384" lon="-2.26113">
        <ele>16</ele>
        <time>2021-05-23T09:21:40.982Z</time>
      </trkpt>
      <trkpt lat="47.27386" lon="-2.26113">
        <ele>17</ele>
        <time>2021-05-23T09:21:41.982Z</time>
      </trkpt>
      <trkpt lat="47.27389" lon="-2.26112">
        <ele>17</ele>
        <time>2021-05-23T09:21:42.983Z</time>
      </trkpt>
      <trkpt lat="47.27391" lon="-2.26112">
        <ele>17</ele>
        <time>2021-05-23T09:21:43.983Z</time>
      </trkpt>
      <trkpt lat="47.27393" lon="-2.26111">
        <ele>17</ele>
        <time>2021-05-23T09:21:44.983Z</time>
      </trkpt>
      <trkpt lat="47.27395" lon="-2.26111">
        <ele>18</ele>
        <time>2021-05-23T09:21:45.982Z</time>
      </trkpt>
      <trkpt lat="47.27398" lon="-2.2611">
        <ele>18</ele>
        <time>2021-05-23T09:21:46.982Z</time>
      </trkpt>
      <trkpt lat="47.27401" lon="-2.26109">
        <ele>19</ele>
        <time>2021-05-23T09:21:47.983Z</time>
      </trkpt>
      <trkpt lat="47.27404" lon="-2.26109">
        <ele>19</ele>
        <time>2021-05-23T09:21:48.983Z</time>
      </trkpt>
      <trkpt lat="47.27406" lon="-2.26108">
        <ele>19</ele>
        <time>2021-05-23T09:21:49.982Z</time>
      </trkpt>
      <trkpt lat="47.27408" lon="-2.26107">
        <ele>20</ele>
        <time>2021-05-23T09:21:50.983Z</time>
      </trkpt>
      <trkpt lat="47.27411" lon="-2.26106">
        <ele>20</ele>
        <time>2021-05-23T09:21:51.982Z</time>
      </trkpt>
      <trkpt lat="47.27414" lon="-2.26105">
        <ele>21</ele>
        <time>2021-05-23T09:21:52.982Z</time>
      </trkpt>
      <trkpt lat="47.27416" lon="-2.26104">
        <ele>21</ele>
        <time>2021-05-23T09:21:53.983Z</time>
      </trkpt>
      <trkpt lat="47.27419" lon="-2.26102">
        <ele>21</ele>
        <time>2021-05-23T09:21:54.982Z</time>
      </trkpt>
      <trkpt lat="47.27421" lon="-2.261">
        <ele>21</ele>
        <time>2021-05-23T09:21:55.983Z</time>
      </trkpt>
      <trkpt lat="47.27423" lon="-2.26098">
        <ele>21</ele>
        <time>2021-05-23T09:21:56.982Z</time>
      </trkpt>
      <trkpt lat="47.27426" lon="-2.26095">
        <ele>21</ele>
        <time>2021-05-23T09:21:57.983Z</time>
      </trkpt>
      <trkpt lat="47.27428" lon="-2.26094">
        <ele>21</ele>
        <time>2021-05-23T09:21:58.983Z</time>
      </trkpt>
      <trkpt lat="47.2743" lon="-2.26092">
        <ele>21</ele>
        <time>2021-05-23T09:21:59.983Z</time>
      </trkpt>
      <trkpt lat="47.27432" lon="-2.26091">
        <ele>20</ele>
        <time>2021-05-23T09:22:00.983Z</time>
      </trkpt>
      <trkpt lat="47.27434" lon="-2.26089">
        <ele>20</ele>
        <time>2021-05-23T09:22:01.982Z</time>
      </trkpt>
      <trkpt lat="47.27436" lon="-2.26088">
        <ele>20</ele>
        <time>2021-05-23T09:22:02.983Z</time>
      </trkpt>
      <trkpt lat="47.27438" lon="-2.26087">
        <ele>20</ele>
        <time>2021-05-23T09:22:03.982Z</time>
      </trkpt>
      <trkpt lat="47.2744" lon="-2.26087">
        <ele>20</ele>
        <time>2021-05-23T09:22:04.983Z</time>
      </trkpt>
      <trkpt lat="47.27443" lon="-2.26085">
        <ele>19</ele>
        <time>2021-05-23T09:22:05.983Z</time>
      </trkpt>
      <trkpt lat="47.27445" lon="-2.26083">
        <ele>19</ele>
        <time>2021-05-23T09:22:06.982Z</time>
      </trkpt>
      <trkpt lat="47.27448" lon="-2.26081">
        <ele>19</ele>
        <time>2021-05-23T09:22:07.983Z</time>
      </trkpt>
      <trkpt lat="47.2745" lon="-2.26079">
        <ele>18</ele>
        <time>2021-05-23T09:22:08.983Z</time>
      </trkpt>
      <trkpt lat="47.27453" lon="-2.26076">
        <ele>18</ele>
        <time>2021-05-23T09:22:09.983Z</time>
      </trkpt>
      <trkpt lat="47.27455" lon="-2.26074">
        <ele>18</ele>
        <time>2021-05-23T09:22:10.983Z</time>
      </trkpt>
      <trkpt lat="47.27456" lon="-2.26072">
        <ele>18</ele>
        <time>2021-05-23T09:22:11.983Z</time>
      </trkpt>
      <trkpt lat="47.27457" lon="-2.26069">
        <ele>18</ele>
        <time>2021-05-23T09:22:12.982Z</time>
      </trkpt>
      <trkpt lat="47.27459" lon="-2.26067">
        <ele>18</ele>
        <time>2021-05-23T09:22:13.983Z</time>
      </trkpt>
      <trkpt lat="47.27461" lon="-2.26065">
        <ele>18</ele>
        <time>2021-05-23T09:22:14.982Z</time>
      </trkpt>
      <trkpt lat="47.27463" lon="-2.26062">
        <ele>19</ele>
        <time>2021-05-23T09:22:15.983Z</time>
      </trkpt>
      <trkpt lat="47.27465" lon="-2.2606">
        <ele>19</ele>
        <time>2021-05-23T09:22:16.982Z</time>
      </trkpt>
      <trkpt lat="47.27467" lon="-2.26057">
        <ele>19</ele>
        <time>2021-05-23T09:22:17.983Z</time>
      </trkpt>
      <trkpt lat="47.27469" lon="-2.26054">
        <ele>19</ele>
        <time>2021-05-23T09:22:18.982Z</time>
      </trkpt>
      <trkpt lat="47.27471" lon="-2.26051">
        <ele>19</ele>
        <time>2021-05-23T09:22:19.983Z</time>
      </trkpt>
      <trkpt lat="47.27473" lon="-2.26048">
        <ele>19</ele>
        <time>2021-05-23T09:22:20.983Z</time>
      </trkpt>
      <trkpt lat="47.27475" lon="-2.26045">
        <ele>19</ele>
        <time>2021-05-23T09:22:21.982Z</time>
      </trkpt>
      <trkpt lat="47.27477" lon="-2.26042">
        <ele>19</ele>
        <time>2021-05-23T09:22:22.982Z</time>
      </trkpt>
      <trkpt lat="47.27479" lon="-2.26039">
        <ele>19</ele>
        <time>2021-05-23T09:22:23.982Z</time>
      </trkpt>
      <trkpt lat="47.27482" lon="-2.26036">
        <ele>20</ele>
        <time>2021-05-23T09:22:24.982Z</time>
      </trkpt>
      <trkpt lat="47.27483" lon="-2.26033">
        <ele>20</ele>
        <time>2021-05-23T09:22:25.982Z</time>
      </trkpt>
      <trkpt lat="47.27485" lon="-2.26031">
        <ele>20</ele>
        <time>2021-05-23T09:22:26.982Z</time>
      </trkpt>
      <trkpt lat="47.27487" lon="-2.26029">
        <ele>20</ele>
        <time>2021-05-23T09:22:27.982Z</time>
      </trkpt>
      <trkpt lat="47.27488" lon="-2.26026">
        <ele>20</ele>
        <time>2021-05-23T09:22:28.983Z</time>
      </trkpt>
      <trkpt lat="47.2749" lon="-2.26023">
        <ele>20</ele>
        <time>2021-05-23T09:22:29.982Z</time>
      </trkpt>
      <trkpt lat="47.27492" lon="-2.2602">
        <ele>20</ele>
        <time>2021-05-23T09:22:30.983Z</time>
      </trkpt>
      <trkpt lat="47.27494" lon="-2.26017">
        <ele>20</ele>
        <time>2021-05-23T09:22:31.983Z</time>
      </trkpt>
      <trkpt lat="47.27496" lon="-2.26014">
        <ele>20</ele>
        <time>2021-05-23T09:22:32.983Z</time>
      </trkpt>
      <trkpt lat="47.27498" lon="-2.2601">
        <ele>21</ele>
        <time>2021-05-23T09:22:33.982Z</time>
      </trkpt>
      <trkpt lat="47.27501" lon="-2.26007">
        <ele>21</ele>
        <time>2021-05-23T09:22:34.983Z</time>
      </trkpt>
      <trkpt lat="47.27503" lon="-2.26004">
        <ele>21</ele>
        <time>2021-05-23T09:22:35.983Z</time>
      </trkpt>
      <trkpt lat="47.27505" lon="-2.26002">
        <ele>21</ele>
        <time>2021-05-23T09:22:36.983Z</time>
      </trkpt>
      <trkpt lat="47.27507" lon="-2.25998">
        <ele>21</ele>
        <time>2021-05-23T09:22:37.983Z</time>
      </trkpt>
      <trkpt lat="47.27508" lon="-2.25995">
        <ele>21</ele>
        <time>2021-05-23T09:22:38.983Z</time>
      </trkpt>
      <trkpt lat="47.2751" lon="-2.25993">
        <ele>20</ele>
        <time>2021-05-23T09:22:39.982Z</time>
      </trkpt>
      <trkpt lat="47.27511" lon="-2.2599">
        <ele>20</ele>
        <time>2021-05-23T09:22:40.982Z</time>
      </trkpt>
      <trkpt lat="47.27513" lon="-2.25987">
        <ele>20</ele>
        <time>2021-05-23T09:22:41.983Z</time>
      </trkpt>
      <trkpt lat="47.27515" lon="-2.25984">
        <ele>20</ele>
        <time>2021-05-23T09:22:42.983Z</time>
      </trkpt>
      <trkpt lat="47.27517" lon="-2.25982">
        <ele>20</ele>
        <time>2021-05-23T09:22:43.983Z</time>
      </trkpt>
      <trkpt lat="47.27518" lon="-2.25979">
        <ele>20</ele>
        <time>2021-05-23T09:22:44.983Z</time>
      </trkpt>
      <trkpt lat="47.2752" lon="-2.25977">
        <ele>20</ele>
        <time>2021-05-23T09:22:45.983Z</time>
      </trkpt>
      <trkpt lat="47.27522" lon="-2.25974">
        <ele>20</ele>
        <time>2021-05-23T09:22:46.983Z</time>
      </trkpt>
      <trkpt lat="47.27525" lon="-2.25972">
        <ele>19</ele>
        <time>2021-05-23T09:22:47.983Z</time>
      </trkpt>
      <trkpt lat="47.27526" lon="-2.2597">
        <ele>19</ele>
        <time>2021-05-23T09:22:48.983Z</time>
      </trkpt>
      <trkpt lat="47.27529" lon="-2.25967">
        <ele>19</ele>
        <time>2021-05-23T09:22:49.983Z</time>
      </trkpt>
      <trkpt lat="47.27531" lon="-2.25965">
        <ele>18</ele>
        <time>2021-05-23T09:22:50.983Z</time>
      </trkpt>
      <trkpt lat="47.27533" lon="-2.25963">
        <ele>18</ele>
        <time>2021-05-23T09:22:51.983Z</time>
      </trkpt>
      <trkpt lat="47.27535" lon="-2.25961">
        <ele>17</ele>
        <time>2021-05-23T09:22:52.983Z</time>
      </trkpt>
      <trkpt lat="47.27537" lon="-2.25959">
        <ele>17</ele>
        <time>2021-05-23T09:22:53.983Z</time>
      </trkpt>
      <trkpt lat="47.27539" lon="-2.25957">
        <ele>16</ele>
        <time>2021-05-23T09:22:54.983Z</time>
      </trkpt>
      <trkpt lat="47.27541" lon="-2.25955">
        <ele>16</ele>
        <time>2021-05-23T09:22:55.983Z</time>
      </trkpt>
      <trkpt lat="47.27543" lon="-2.25953">
        <ele>16</ele>
        <time>2021-05-23T09:22:56.983Z</time>
      </trkpt>
      <trkpt lat="47.27546" lon="-2.25951">
        <ele>16</ele>
        <time>2021-05-23T09:22:57.982Z</time>
      </trkpt>
      <trkpt lat="47.27549" lon="-2.25949">
        <ele>15</ele>
        <time>2021-05-23T09:22:58.983Z</time>
      </trkpt>
      <trkpt lat="47.27551" lon="-2.25947">
        <ele>15</ele>
        <time>2021-05-23T09:22:59.982Z</time>
      </trkpt>
      <trkpt lat="47.27553" lon="-2.25946">
        <ele>15</ele>
        <time>2021-05-23T09:23:00.983Z</time>
      </trkpt>
      <trkpt lat="47.27556" lon="-2.25945">
        <ele>15</ele>
        <time>2021-05-23T09:23:01.982Z</time>
      </trkpt>
      <trkpt lat="47.27558" lon="-2.25943">
        <ele>15</ele>
        <time>2021-05-23T09:23:02.983Z</time>
      </trkpt>
      <trkpt lat="47.2756" lon="-2.25941">
        <ele>15</ele>
        <time>2021-05-23T09:23:03.983Z</time>
      </trkpt>
      <trkpt lat="47.27562" lon="-2.2594">
        <ele>15</ele>
        <time>2021-05-23T09:23:04.982Z</time>
      </trkpt>
      <trkpt lat="47.27563" lon="-2.25938">
        <ele>15</ele>
        <time>2021-05-23T09:23:05.983Z</time>
      </trkpt>
      <trkpt lat="47.27564" lon="-2.25937">
        <ele>15</ele>
        <time>2021-05-23T09:23:06.982Z</time>
      </trkpt>
      <trkpt lat="47.27566" lon="-2.25936">
        <ele>15</ele>
        <time>2021-05-23T09:23:07.982Z</time>
      </trkpt>
      <trkpt lat="47.27568" lon="-2.25934">
        <ele>15</ele>
        <time>2021-05-23T09:23:08.982Z</time>
      </trkpt>
      <trkpt lat="47.27569" lon="-2.25932">
        <ele>15</ele>
        <time>2021-05-23T09:23:09.982Z</time>
      </trkpt>
      <trkpt lat="47.27571" lon="-2.2593">
        <ele>15</ele>
        <time>2021-05-23T09:23:10.983Z</time>
      </trkpt>
      <trkpt lat="47.27573" lon="-2.25928">
        <ele>15</ele>
        <time>2021-05-23T09:23:11.982Z</time>
      </trkpt>
      <trkpt lat="47.27575" lon="-2.25926">
        <ele>14</ele>
        <time>2021-05-23T09:23:12.982Z</time>
      </trkpt>
      <trkpt lat="47.27577" lon="-2.25923">
        <ele>14</ele>
        <time>2021-05-23T09:23:13.983Z</time>
      </trkpt>
      <trkpt lat="47.27578" lon="-2.25921">
        <ele>14</ele>
        <time>2021-05-23T09:23:14.983Z</time>
      </trkpt>
      <trkpt lat="47.2758" lon="-2.2592">
        <ele>13</ele>
        <time>2021-05-23T09:23:15.983Z</time>
      </trkpt>
      <trkpt lat="47.27582" lon="-2.25917">
        <ele>13</ele>
        <time>2021-05-23T09:23:16.983Z</time>
      </trkpt>
      <trkpt lat="47.27585" lon="-2.25915">
        <ele>13</ele>
        <time>2021-05-23T09:23:17.983Z</time>
      </trkpt>
      <trkpt lat="47.27587" lon="-2.25913">
        <ele>13</ele>
        <time>2021-05-23T09:23:18.982Z</time>
      </trkpt>
      <trkpt lat="47.27589" lon="-2.25912">
        <ele>13</ele>
        <time>2021-05-23T09:23:19.983Z</time>
      </trkpt>
      <trkpt lat="47.27591" lon="-2.2591">
        <ele>13</ele>
        <time>2021-05-23T09:23:20.983Z</time>
      </trkpt>
      <trkpt lat="47.27592" lon="-2.25908">
        <ele>13</ele>
        <time>2021-05-23T09:23:21.983Z</time>
      </trkpt>
      <trkpt lat="47.27594" lon="-2.25907">
        <ele>13</ele>
        <time>2021-05-23T09:23:22.983Z</time>
      </trkpt>
      <trkpt lat="47.27596" lon="-2.25906">
        <ele>13</ele>
        <time>2021-05-23T09:23:23.983Z</time>
      </trkpt>
      <trkpt lat="47.27599" lon="-2.25904">
        <ele>13</ele>
        <time>2021-05-23T09:23:24.982Z</time>
      </trkpt>
      <trkpt lat="47.27601" lon="-2.25903">
        <ele>13</ele>
        <time>2021-05-23T09:23:25.982Z</time>
      </trkpt>
      <trkpt lat="47.27603" lon="-2.25901">
        <ele>13</ele>
        <time>2021-05-23T09:23:26.983Z</time>
      </trkpt>
      <trkpt lat="47.27605" lon="-2.25899">
        <ele>13</ele>
        <time>2021-05-23T09:23:27.983Z</time>
      </trkpt>
      <trkpt lat="47.27608" lon="-2.25898">
        <ele>13</ele>
        <time>2021-05-23T09:23:28.982Z</time>
      </trkpt>
      <trkpt lat="47.2761" lon="-2.25896">
        <ele>13</ele>
        <time>2021-05-23T09:23:29.982Z</time>
      </trkpt>
      <trkpt lat="47.27613" lon="-2.25894">
        <ele>13</ele>
        <time>2021-05-23T09:23:30.983Z</time>
      </trkpt>
      <trkpt lat="47.27616" lon="-2.25892">
        <ele>13</ele>
        <time>2021-05-23T09:23:31.983Z</time>
      </trkpt>
      <trkpt lat="47.27618" lon="-2.25891">
        <ele>13</ele>
        <time>2021-05-23T09:23:32.982Z</time>
      </trkpt>
      <trkpt lat="47.2762" lon="-2.25888">
        <ele>13</ele>
        <time>2021-05-23T09:23:33.983Z</time>
      </trkpt>
      <trkpt lat="47.27623" lon="-2.25886">
        <ele>14</ele>
        <time>2021-05-23T09:23:34.982Z</time>
      </trkpt>
      <trkpt lat="47.27626" lon="-2.25884">
        <ele>14</ele>
        <time>2021-05-23T09:23:35.983Z</time>
      </trkpt>
      <trkpt lat="47.2763" lon="-2.25883">
        <ele>14</ele>
        <time>2021-05-23T09:23:36.982Z</time>
      </trkpt>
      <trkpt lat="47.27632" lon="-2.25882">
        <ele>14</ele>
        <time>2021-05-23T09:23:37.983Z</time>
      </trkpt>
      <trkpt lat="47.27635" lon="-2.25881">
        <ele>14</ele>
        <time>2021-05-23T09:23:38.983Z</time>
      </trkpt>
      <trkpt lat="47.27637" lon="-2.2588">
        <ele>14</ele>
        <time>2021-05-23T09:23:39.983Z</time>
      </trkpt>
      <trkpt lat="47.27639" lon="-2.25878">
        <ele>14</ele>
        <time>2021-05-23T09:23:40.983Z</time>
      </trkpt>
      <trkpt lat="47.27642" lon="-2.25877">
        <ele>14</ele>
        <time>2021-05-23T09:23:41.983Z</time>
      </trkpt>
      <trkpt lat="47.27644" lon="-2.25876">
        <ele>14</ele>
        <time>2021-05-23T09:23:42.983Z</time>
      </trkpt>
      <trkpt lat="47.27647" lon="-2.25876">
        <ele>14</ele>
        <time>2021-05-23T09:23:43.982Z</time>
      </trkpt>
      <trkpt lat="47.27649" lon="-2.25876">
        <ele>14</ele>
        <time>2021-05-23T09:23:44.983Z</time>
      </trkpt>
      <trkpt lat="47.27652" lon="-2.25876">
        <ele>15</ele>
        <time>2021-05-23T09:23:45.983Z</time>
      </trkpt>
      <trkpt lat="47.27655" lon="-2.25876">
        <ele>15</ele>
        <time>2021-05-23T09:23:46.983Z</time>
      </trkpt>
      <trkpt lat="47.27658" lon="-2.25875">
        <ele>15</ele>
        <time>2021-05-23T09:23:47.982Z</time>
      </trkpt>
      <trkpt lat="47.2766" lon="-2.25874">
        <ele>16</ele>
        <time>2021-05-23T09:23:48.983Z</time>
      </trkpt>
      <trkpt lat="47.27662" lon="-2.25872">
        <ele>16</ele>
        <time>2021-05-23T09:23:49.983Z</time>
      </trkpt>
      <trkpt lat="47.27665" lon="-2.25871">
        <ele>16</ele>
        <time>2021-05-23T09:23:50.982Z</time>
      </trkpt>
      <trkpt lat="47.27668" lon="-2.25869">
        <ele>16</ele>
        <time>2021-05-23T09:23:51.983Z</time>
      </trkpt>
      <trkpt lat="47.27671" lon="-2.25867">
        <ele>16</ele>
        <time>2021-05-23T09:23:52.983Z</time>
      </trkpt>
      <trkpt lat="47.27674" lon="-2.25866">
        <ele>16</ele>
        <time>2021-05-23T09:23:53.983Z</time>
      </trkpt>
      <trkpt lat="47.27676" lon="-2.25864">
        <ele>16</ele>
        <time>2021-05-23T09:23:54.983Z</time>
      </trkpt>
      <trkpt lat="47.27678" lon="-2.25862">
        <ele>16</ele>
        <time>2021-05-23T09:23:55.983Z</time>
      </trkpt>
      <trkpt lat="47.2768" lon="-2.2586">
        <ele>16</ele>
        <time>2021-05-23T09:23:56.982Z</time>
      </trkpt>
      <trkpt lat="47.27683" lon="-2.25858">
        <ele>16</ele>
        <time>2021-05-23T09:23:57.982Z</time>
      </trkpt>
      <trkpt lat="47.27686" lon="-2.25857">
        <ele>16</ele>
        <time>2021-05-23T09:23:58.982Z</time>
      </trkpt>
      <trkpt lat="47.27688" lon="-2.25854">
        <ele>16</ele>
        <time>2021-05-23T09:23:59.983Z</time>
      </trkpt>
      <trkpt lat="47.2769" lon="-2.25851">
        <ele>15</ele>
        <time>2021-05-23T09:24:00.982Z</time>
      </trkpt>
      <trkpt lat="47.27691" lon="-2.25848">
        <ele>15</ele>
        <time>2021-05-23T09:24:01.983Z</time>
      </trkpt>
      <trkpt lat="47.27693" lon="-2.25847">
        <ele>15</ele>
        <time>2021-05-23T09:24:02.983Z</time>
      </trkpt>
      <trkpt lat="47.27695" lon="-2.25846">
        <ele>15</ele>
        <time>2021-05-23T09:24:03.982Z</time>
      </trkpt>
      <trkpt lat="47.27697" lon="-2.25844">
        <ele>15</ele>
        <time>2021-05-23T09:24:04.983Z</time>
      </trkpt>
      <trkpt lat="47.277" lon="-2.25844">
        <ele>15</ele>
        <time>2021-05-23T09:24:05.982Z</time>
      </trkpt>
      <trkpt lat="47.27702" lon="-2.25845">
        <ele>15</ele>
        <time>2021-05-23T09:24:06.982Z</time>
      </trkpt>
      <trkpt lat="47.27704" lon="-2.25847">
        <ele>15</ele>
        <time>2021-05-23T09:24:07.982Z</time>
      </trkpt>
      <trkpt lat="47.27706" lon="-2.25849">
        <ele>15</ele>
        <time>2021-05-23T09:24:08.983Z</time>
      </trkpt>
      <trkpt lat="47.27707" lon="-2.25851">
        <ele>15</ele>
        <time>2021-05-23T09:24:09.983Z</time>
      </trkpt>
      <trkpt lat="47.27708" lon="-2.25852">
        <ele>14</ele>
        <time>2021-05-23T09:24:10.982Z</time>
      </trkpt>
      <trkpt lat="47.2771" lon="-2.25854">
        <ele>14</ele>
        <time>2021-05-23T09:24:11.983Z</time>
      </trkpt>
      <trkpt lat="47.27713" lon="-2.25855">
        <ele>14</ele>
        <time>2021-05-23T09:24:12.983Z</time>
      </trkpt>
      <trkpt lat="47.27715" lon="-2.25856">
        <ele>14</ele>
        <time>2021-05-23T09:24:13.983Z</time>
      </trkpt>
      <trkpt lat="47.27717" lon="-2.25857">
        <ele>15</ele>
        <time>2021-05-23T09:24:14.983Z</time>
      </trkpt>
      <trkpt lat="47.2772" lon="-2.25858">
        <ele>15</ele>
        <time>2021-05-23T09:24:15.983Z</time>
      </trkpt>
      <trkpt lat="47.27723" lon="-2.25859">
        <ele>15</ele>
        <time>2021-05-23T09:24:16.982Z</time>
      </trkpt>
      <trkpt lat="47.27726" lon="-2.2586">
        <ele>15</ele>
        <time>2021-05-23T09:24:17.982Z</time>
      </trkpt>
      <trkpt lat="47.27729" lon="-2.25861">
        <ele>16</ele>
        <time>2021-05-23T09:24:18.983Z</time>
      </trkpt>
      <trkpt lat="47.27732" lon="-2.25861">
        <ele>16</ele>
        <time>2021-05-23T09:24:19.983Z</time>
      </trkpt>
      <trkpt lat="47.27736" lon="-2.25862">
        <ele>16</ele>
        <time>2021-05-23T09:24:20.983Z</time>
      </trkpt>
      <trkpt lat="47.27739" lon="-2.25863">
        <ele>16</ele>
        <time>2021-05-23T09:24:21.982Z</time>
      </trkpt>
      <trkpt lat="47.2774" lon="-2.25864">
        <ele>16</ele>
        <time>2021-05-23T09:24:22.983Z</time>
      </trkpt>
      <trkpt lat="47.27743" lon="-2.25864">
        <ele>16</ele>
        <time>2021-05-23T09:24:23.983Z</time>
      </trkpt>
      <trkpt lat="47.27745" lon="-2.25865">
        <ele>16</ele>
        <time>2021-05-23T09:24:24.983Z</time>
      </trkpt>
      <trkpt lat="47.27747" lon="-2.25865">
        <ele>16</ele>
        <time>2021-05-23T09:24:25.983Z</time>
      </trkpt>
      <trkpt lat="47.2775" lon="-2.25866">
        <ele>16</ele>
        <time>2021-05-23T09:24:26.983Z</time>
      </trkpt>
      <trkpt lat="47.27752" lon="-2.25868">
        <ele>17</ele>
        <time>2021-05-23T09:24:27.983Z</time>
      </trkpt>
      <trkpt lat="47.27754" lon="-2.25869">
        <ele>17</ele>
        <time>2021-05-23T09:24:28.983Z</time>
      </trkpt>
      <trkpt lat="47.27756" lon="-2.25872">
        <ele>17</ele>
        <time>2021-05-23T09:24:29.983Z</time>
      </trkpt>
      <trkpt lat="47.27758" lon="-2.25874">
        <ele>17</ele>
        <time>2021-05-23T09:24:30.983Z</time>
      </trkpt>
      <trkpt lat="47.2776" lon="-2.25877">
        <ele>17</ele>
        <time>2021-05-23T09:24:31.983Z</time>
      </trkpt>
      <trkpt lat="47.27761" lon="-2.2588">
        <ele>17</ele>
        <time>2021-05-23T09:24:32.983Z</time>
      </trkpt>
      <trkpt lat="47.27762" lon="-2.25884">
        <ele>17</ele>
        <time>2021-05-23T09:24:33.982Z</time>
      </trkpt>
      <trkpt lat="47.27763" lon="-2.25887">
        <ele>17</ele>
        <time>2021-05-23T09:24:34.983Z</time>
      </trkpt>
      <trkpt lat="47.27763" lon="-2.2589">
        <ele>17</ele>
        <time>2021-05-23T09:24:35.983Z</time>
      </trkpt>
      <trkpt lat="47.27764" lon="-2.25893">
        <ele>17</ele>
        <time>2021-05-23T09:24:36.983Z</time>
      </trkpt>
      <trkpt lat="47.27765" lon="-2.25896">
        <ele>17</ele>
        <time>2021-05-23T09:24:37.983Z</time>
      </trkpt>
      <trkpt lat="47.27766" lon="-2.259">
        <ele>17</ele>
        <time>2021-05-23T09:24:38.983Z</time>
      </trkpt>
      <trkpt lat="47.27768" lon="-2.25903">
        <ele>17</ele>
        <time>2021-05-23T09:24:39.982Z</time>
      </trkpt>
      <trkpt lat="47.27769" lon="-2.25906">
        <ele>16</ele>
        <time>2021-05-23T09:24:40.982Z</time>
      </trkpt>
      <trkpt lat="47.2777" lon="-2.25909">
        <ele>16</ele>
        <time>2021-05-23T09:24:41.983Z</time>
      </trkpt>
      <trkpt lat="47.27772" lon="-2.25911">
        <ele>16</ele>
        <time>2021-05-23T09:24:42.983Z</time>
      </trkpt>
      <trkpt lat="47.27774" lon="-2.25914">
        <ele>16</ele>
        <time>2021-05-23T09:24:43.983Z</time>
      </trkpt>
      <trkpt lat="47.27776" lon="-2.25916">
        <ele>16</ele>
        <time>2021-05-23T09:24:44.983Z</time>
      </trkpt>
      <trkpt lat="47.27778" lon="-2.25917">
        <ele>16</ele>
        <time>2021-05-23T09:24:45.983Z</time>
      </trkpt>
      <trkpt lat="47.27781" lon="-2.25919">
        <ele>16</ele>
        <time>2021-05-23T09:24:46.983Z</time>
      </trkpt>
      <trkpt lat="47.27782" lon="-2.25921">
        <ele>16</ele>
        <time>2021-05-23T09:24:47.983Z</time>
      </trkpt>
      <trkpt lat="47.27784" lon="-2.25922">
        <ele>16</ele>
        <time>2021-05-23T09:24:48.982Z</time>
      </trkpt>
      <trkpt lat="47.27785" lon="-2.25923">
        <ele>16</ele>
        <time>2021-05-23T09:24:49.983Z</time>
      </trkpt>
      <trkpt lat="47.27786" lon="-2.25923">
        <ele>16</ele>
        <time>2021-05-23T09:24:50.983Z</time>
      </trkpt>
      <trkpt lat="47.27787" lon="-2.25923">
        <ele>16</ele>
        <time>2021-05-23T09:24:51.983Z</time>
      </trkpt>
      <trkpt lat="47.27788" lon="-2.25923">
        <ele>16</ele>
        <time>2021-05-23T09:24:52.983Z</time>
      </trkpt>
      <trkpt lat="47.27787" lon="-2.25924">
        <ele>16</ele>
        <time>2021-05-23T09:24:53.982Z</time>
      </trkpt>
      <trkpt lat="47.27787" lon="-2.25924">
        <ele>16</ele>
        <time>2021-05-23T09:24:54.983Z</time>
      </trkpt>
      <trkpt lat="47.27786" lon="-2.25926">
        <ele>17</ele>
        <time>2021-05-23T09:24:55.983Z</time>
      </trkpt>
      <trkpt lat="47.27784" lon="-2.25927">
        <ele>17</ele>
        <time>2021-05-23T09:24:56.982Z</time>
      </trkpt>
      <trkpt lat="47.27784" lon="-2.25928">
        <ele>17</ele>
        <time>2021-05-23T09:24:57.983Z</time>
      </trkpt>
      <trkpt lat="47.27785" lon="-2.25929">
        <ele>17</ele>
        <time>2021-05-23T09:24:58.983Z</time>
      </trkpt>
      <trkpt lat="47.27786" lon="-2.2593">
        <ele>18</ele>
        <time>2021-05-23T09:24:59.983Z</time>
      </trkpt>
      <trkpt lat="47.27786" lon="-2.25931">
        <ele>18</ele>
        <time>2021-05-23T09:25:00.983Z</time>
      </trkpt>
      <trkpt lat="47.27787" lon="-2.25931">
        <ele>18</ele>
        <time>2021-05-23T09:25:01.983Z</time>
      </trkpt>
      <trkpt lat="47.27788" lon="-2.25931">
        <ele>19</ele>
        <time>2021-05-23T09:25:02.983Z</time>
      </trkpt>
      <trkpt lat="47.27788" lon="-2.25932">
        <ele>19</ele>
        <time>2021-05-23T09:25:03.982Z</time>
      </trkpt>
      <trkpt lat="47.27788" lon="-2.25932">
        <ele>19</ele>
        <time>2021-05-23T09:25:04.983Z</time>
      </trkpt>
      <trkpt lat="47.27789" lon="-2.25932">
        <ele>20</ele>
        <time>2021-05-23T09:25:05.983Z</time>
      </trkpt>
      <trkpt lat="47.27789" lon="-2.25933">
        <ele>20</ele>
        <time>2021-05-23T09:25:06.983Z</time>
      </trkpt>
      <trkpt lat="47.27789" lon="-2.25933">
        <ele>19</ele>
        <time>2021-05-23T09:25:07.983Z</time>
      </trkpt>
      <trkpt lat="47.27789" lon="-2.25933">
        <ele>19</ele>
        <time>2021-05-23T09:25:08.983Z</time>
      </trkpt>
      <trkpt lat="47.27789" lon="-2.25934">
        <ele>19</ele>
        <time>2021-05-23T09:25:09.983Z</time>
      </trkpt>
      <trkpt lat="47.27789" lon="-2.25934">
        <ele>19</ele>
        <time>2021-05-23T09:25:10.982Z</time>
      </trkpt>
      <trkpt lat="47.27789" lon="-2.25935">
        <ele>19</ele>
        <time>2021-05-23T09:25:11.983Z</time>
      </trkpt>
      <trkpt lat="47.27789" lon="-2.25934">
        <ele>19</ele>
        <time>2021-05-23T09:25:12.983Z</time>
      </trkpt>
      <trkpt lat="47.2779" lon="-2.25934">
        <ele>19</ele>
        <time>2021-05-23T09:25:13.983Z</time>
      </trkpt>
      <trkpt lat="47.2779" lon="-2.25934">
        <ele>19</ele>
        <time>2021-05-23T09:25:14.983Z</time>
      </trkpt>
      <trkpt lat="47.27791" lon="-2.25934">
        <ele>19</ele>
        <time>2021-05-23T09:25:15.983Z</time>
      </trkpt>
      <trkpt lat="47.27791" lon="-2.25934">
        <ele>19</ele>
        <time>2021-05-23T09:25:16.983Z</time>
      </trkpt>
      <trkpt lat="47.2779" lon="-2.25934">
        <ele>18</ele>
        <time>2021-05-23T09:25:17.982Z</time>
      </trkpt>
      <trkpt lat="47.2779" lon="-2.25934">
        <ele>18</ele>
        <time>2021-05-23T09:25:18.983Z</time>
      </trkpt>
      <trkpt lat="47.2779" lon="-2.25934">
        <ele>18</ele>
        <time>2021-05-23T09:25:19.983Z</time>
      </trkpt>
      <trkpt lat="47.2779" lon="-2.25934">
        <ele>18</ele>
        <time>2021-05-23T09:25:20.983Z</time>
      </trkpt>
      <trkpt lat="47.2779" lon="-2.25935">
        <ele>17</ele>
        <time>2021-05-23T09:25:21.982Z</time>
      </trkpt>
      <trkpt lat="47.2779" lon="-2.25935">
        <ele>17</ele>
        <time>2021-05-23T09:25:22.982Z</time>
      </trkpt>
      <trkpt lat="47.2779" lon="-2.25934">
        <ele>17</ele>
        <time>2021-05-23T09:25:23.982Z</time>
      </trkpt>
      <trkpt lat="47.2779" lon="-2.25934">
        <ele>17</ele>
        <time>2021-05-23T09:25:24.982Z</time>
      </trkpt>
      <trkpt lat="47.2779" lon="-2.25934">
        <ele>17</ele>
        <time>2021-05-23T09:25:25.982Z</time>
      </trkpt>
      <trkpt lat="47.2779" lon="-2.25934">
        <ele>17</ele>
        <time>2021-05-23T09:25:26.982Z</time>
      </trkpt>
      <trkpt lat="47.2779" lon="-2.25934">
        <ele>16</ele>
        <time>2021-05-23T09:25:27.982Z</time>
      </trkpt>
      <trkpt lat="47.2779" lon="-2.25934">
        <ele>16</ele>
        <time>2021-05-23T09:25:28.982Z</time>
      </trkpt>
      <trkpt lat="47.2779" lon="-2.25934">
        <ele>15</ele>
        <time>2021-05-23T09:25:29.983Z</time>
      </trkpt>
      <trkpt lat="47.2779" lon="-2.25934">
        <ele>15</ele>
        <time>2021-05-23T09:25:30.982Z</time>
      </trkpt>
      <trkpt lat="47.2779" lon="-2.25934">
        <ele>14</ele>
        <time>2021-05-23T09:25:31.982Z</time>
      </trkpt>
      <trkpt lat="47.2779" lon="-2.25934">
        <ele>14</ele>
        <time>2021-05-23T09:25:32.982Z</time>
      </trkpt>
      <trkpt lat="47.2779" lon="-2.25934">
        <ele>13</ele>
        <time>2021-05-23T09:25:33.982Z</time>
      </trkpt>
      <trkpt lat="47.2779" lon="-2.25934">
        <ele>13</ele>
        <time>2021-05-23T09:25:34.982Z</time>
      </trkpt>
      <trkpt lat="47.2779" lon="-2.25934">
        <ele>13</ele>
        <time>2021-05-23T09:25:35.982Z</time>
      </trkpt>
      <trkpt lat="47.2779" lon="-2.25934">
        <ele>13</ele>
        <time>2021-05-23T09:25:36.983Z</time>
      </trkpt>
      <trkpt lat="47.2779" lon="-2.25934">
        <ele>13</ele>
        <time>2021-05-23T09:25:37.982Z</time>
      </trkpt>
      <trkpt lat="47.2779" lon="-2.25934">
        <ele>12</ele>
        <time>2021-05-23T09:25:38.982Z</time>
      </trkpt>
      <trkpt lat="47.2779" lon="-2.25934">
        <ele>12</ele>
        <time>2021-05-23T09:25:39.982Z</time>
      </trkpt>
      <trkpt lat="47.2779" lon="-2.25934">
        <ele>12</ele>
        <time>2021-05-23T09:25:40.983Z</time>
      </trkpt>
      <trkpt lat="47.2779" lon="-2.25934">
        <ele>12</ele>
        <time>2021-05-23T09:25:41.982Z</time>
      </trkpt>
      <trkpt lat="47.2779" lon="-2.25934">
        <ele>12</ele>
        <time>2021-05-23T09:25:42.982Z</time>
      </trkpt>
      <trkpt lat="47.2779" lon="-2.25934">
        <ele>12</ele>
        <time>2021-05-23T09:25:43.982Z</time>
      </trkpt>
      <trkpt lat="47.2779" lon="-2.25934">
        <ele>12</ele>
        <time>2021-05-23T09:25:44.982Z</time>
      </trkpt>
      <trkpt lat="47.27791" lon="-2.25934">
        <ele>12</ele>
        <time>2021-05-23T09:25:45.982Z</time>
      </trkpt>
      <trkpt lat="47.27791" lon="-2.25933">
        <ele>12</ele>
        <time>2021-05-23T09:25:46.983Z</time>
      </trkpt>
      <trkpt lat="47.27792" lon="-2.25932">
        <ele>12</ele>
        <time>2021-05-23T09:25:47.982Z</time>
      </trkpt>
      <trkpt lat="47.27793" lon="-2.25931">
        <ele>12</ele>
        <time>2021-05-23T09:25:48.983Z</time>
      </trkpt>
      <trkpt lat="47.27793" lon="-2.2593">
        <ele>12</ele>
        <time>2021-05-23T09:25:49.983Z</time>
      </trkpt>
      <trkpt lat="47.27794" lon="-2.25928">
        <ele>12</ele>
        <time>2021-05-23T09:25:50.982Z</time>
      </trkpt>
      <trkpt lat="47.27795" lon="-2.25927">
        <ele>12</ele>
        <time>2021-05-23T09:25:51.982Z</time>
      </trkpt>
      <trkpt lat="47.27796" lon="-2.25927">
        <ele>12</ele>
        <time>2021-05-23T09:25:52.982Z</time>
      </trkpt>
      <trkpt lat="47.27796" lon="-2.25926">
        <ele>12</ele>
        <time>2021-05-23T09:25:53.983Z</time>
      </trkpt>
      <trkpt lat="47.27796" lon="-2.25926">
        <ele>12</ele>
        <time>2021-05-23T09:25:54.982Z</time>
      </trkpt>
      <trkpt lat="47.27796" lon="-2.25925">
        <ele>12</ele>
        <time>2021-05-23T09:25:55.983Z</time>
      </trkpt>
      <trkpt lat="47.27796" lon="-2.25925">
        <ele>12</ele>
        <time>2021-05-23T09:25:56.982Z</time>
      </trkpt>
      <trkpt lat="47.27796" lon="-2.25926">
        <ele>11</ele>
        <time>2021-05-23T09:25:57.982Z</time>
      </trkpt>
      <trkpt lat="47.27796" lon="-2.25927">
        <ele>11</ele>
        <time>2021-05-23T09:25:58.983Z</time>
      </trkpt>
      <trkpt lat="47.27795" lon="-2.25927">
        <ele>11</ele>
        <time>2021-05-23T09:25:59.983Z</time>
      </trkpt>
      <trkpt lat="47.27795" lon="-2.25928">
        <ele>11</ele>
        <time>2021-05-23T09:26:00.983Z</time>
      </trkpt>
      <trkpt lat="47.27795" lon="-2.25929">
        <ele>11</ele>
        <time>2021-05-23T09:26:01.983Z</time>
      </trkpt>
      <trkpt lat="47.27795" lon="-2.25929">
        <ele>11</ele>
        <time>2021-05-23T09:26:02.983Z</time>
      </trkpt>
      <trkpt lat="47.27796" lon="-2.25929">
        <ele>11</ele>
        <time>2021-05-23T09:26:03.982Z</time>
      </trkpt>
      <trkpt lat="47.27796" lon="-2.25929">
        <ele>11</ele>
        <time>2021-05-23T09:26:04.983Z</time>
      </trkpt>
      <trkpt lat="47.27797" lon="-2.2593">
        <ele>10</ele>
        <time>2021-05-23T09:26:05.982Z</time>
      </trkpt>
      <trkpt lat="47.27799" lon="-2.25931">
        <ele>10</ele>
        <time>2021-05-23T09:26:06.983Z</time>
      </trkpt>
      <trkpt lat="47.27801" lon="-2.25932">
        <ele>10</ele>
        <time>2021-05-23T09:26:07.982Z</time>
      </trkpt>
      <trkpt lat="47.27801" lon="-2.25932">
        <ele>10</ele>
        <time>2021-05-23T09:26:08.982Z</time>
      </trkpt>
      <trkpt lat="47.27801" lon="-2.25931">
        <ele>10</ele>
        <time>2021-05-23T09:26:09.982Z</time>
      </trkpt>
      <trkpt lat="47.27802" lon="-2.25931">
        <ele>10</ele>
        <time>2021-05-23T09:26:10.982Z</time>
      </trkpt>
      <trkpt lat="47.27803" lon="-2.25931">
        <ele>10</ele>
        <time>2021-05-23T09:26:11.983Z</time>
      </trkpt>
      <trkpt lat="47.27803" lon="-2.25931">
        <ele>10</ele>
        <time>2021-05-23T09:26:12.982Z</time>
      </trkpt>
      <trkpt lat="47.27804" lon="-2.25931">
        <ele>10</ele>
        <time>2021-05-23T09:26:13.983Z</time>
      </trkpt>
      <trkpt lat="47.27805" lon="-2.25931">
        <ele>10</ele>
        <time>2021-05-23T09:26:14.983Z</time>
      </trkpt>
      <trkpt lat="47.27806" lon="-2.25931">
        <ele>10</ele>
        <time>2021-05-23T09:26:15.982Z</time>
      </trkpt>
      <trkpt lat="47.27806" lon="-2.25931">
        <ele>10</ele>
        <time>2021-05-23T09:26:16.982Z</time>
      </trkpt>
      <trkpt lat="47.27807" lon="-2.25931">
        <ele>10</ele>
        <time>2021-05-23T09:26:17.983Z</time>
      </trkpt>
      <trkpt lat="47.27807" lon="-2.25931">
        <ele>9</ele>
        <time>2021-05-23T09:26:18.983Z</time>
      </trkpt>
      <trkpt lat="47.27807" lon="-2.2593">
        <ele>8</ele>
        <time>2021-05-23T09:26:19.983Z</time>
      </trkpt>
      <trkpt lat="47.27807" lon="-2.2593">
        <ele>8</ele>
        <time>2021-05-23T09:26:20.983Z</time>
      </trkpt>
      <trkpt lat="47.27808" lon="-2.2593">
        <ele>8</ele>
        <time>2021-05-23T09:26:21.983Z</time>
      </trkpt>
      <trkpt lat="47.27808" lon="-2.2593">
        <ele>8</ele>
        <time>2021-05-23T09:26:22.983Z</time>
      </trkpt>
      <trkpt lat="47.27808" lon="-2.2593">
        <ele>8</ele>
        <time>2021-05-23T09:26:23.983Z</time>
      </trkpt>
      <trkpt lat="47.27809" lon="-2.2593">
        <ele>8</ele>
        <time>2021-05-23T09:26:24.983Z</time>
      </trkpt>
      <trkpt lat="47.2781" lon="-2.2593">
        <ele>8</ele>
        <time>2021-05-23T09:26:25.982Z</time>
      </trkpt>
      <trkpt lat="47.27809" lon="-2.2593">
        <ele>7</ele>
        <time>2021-05-23T09:26:26.983Z</time>
      </trkpt>
      <trkpt lat="47.2781" lon="-2.25929">
        <ele>7</ele>
        <time>2021-05-23T09:26:27.983Z</time>
      </trkpt>
      <trkpt lat="47.2781" lon="-2.25929">
        <ele>8</ele>
        <time>2021-05-23T09:26:28.983Z</time>
      </trkpt>
      <trkpt lat="47.2781" lon="-2.25929">
        <ele>8</ele>
        <time>2021-05-23T09:26:29.983Z</time>
      </trkpt>
      <trkpt lat="47.2781" lon="-2.25929">
        <ele>9</ele>
        <time>2021-05-23T09:26:30.983Z</time>
      </trkpt>
      <trkpt lat="47.2781" lon="-2.25929">
        <ele>9</ele>
        <time>2021-05-23T09:26:31.983Z</time>
      </trkpt>
      <trkpt lat="47.2781" lon="-2.25929">
        <ele>10</ele>
        <time>2021-05-23T09:26:32.982Z</time>
      </trkpt>
      <trkpt lat="47.2781" lon="-2.25928">
        <ele>10</ele>
        <time>2021-05-23T09:26:33.983Z</time>
      </trkpt>
      <trkpt lat="47.2781" lon="-2.25928">
        <ele>10</ele>
        <time>2021-05-23T09:26:34.983Z</time>
      </trkpt>
      <trkpt lat="47.27809" lon="-2.25928">
        <ele>10</ele>
        <time>2021-05-23T09:26:35.982Z</time>
      </trkpt>
      <trkpt lat="47.27809" lon="-2.25928">
        <ele>9</ele>
        <time>2021-05-23T09:26:36.983Z</time>
      </trkpt>
      <trkpt lat="47.27809" lon="-2.25927">
        <ele>9</ele>
        <time>2021-05-23T09:26:37.982Z</time>
      </trkpt>
      <trkpt lat="47.27809" lon="-2.25927">
        <ele>9</ele>
        <time>2021-05-23T09:26:38.982Z</time>
      </trkpt>
      <trkpt lat="47.27809" lon="-2.25927">
        <ele>8</ele>
        <time>2021-05-23T09:26:39.983Z</time>
      </trkpt>
      <trkpt lat="47.27809" lon="-2.25927">
        <ele>8</ele>
        <time>2021-05-23T09:26:40.983Z</time>
      </trkpt>
      <trkpt lat="47.27809" lon="-2.25927">
        <ele>8</ele>
        <time>2021-05-23T09:26:41.983Z</time>
      </trkpt>
      <trkpt lat="47.27809" lon="-2.25927">
        <ele>8</ele>
        <time>2021-05-23T09:26:42.982Z</time>
      </trkpt>
      <trkpt lat="47.27809" lon="-2.25927">
        <ele>8</ele>
        <time>2021-05-23T09:26:43.983Z</time>
      </trkpt>
      <trkpt lat="47.27809" lon="-2.25927">
        <ele>8</ele>
        <time>2021-05-23T09:26:44.983Z</time>
      </trkpt>
      <trkpt lat="47.27809" lon="-2.25927">
        <ele>8</ele>
        <time>2021-05-23T09:26:45.983Z</time>
      </trkpt>
      <trkpt lat="47.27809" lon="-2.25927">
        <ele>8</ele>
        <time>2021-05-23T09:26:46.982Z</time>
      </trkpt>
      <trkpt lat="47.27809" lon="-2.25927">
        <ele>7</ele>
        <time>2021-05-23T09:26:47.982Z</time>
      </trkpt>
      <trkpt lat="47.27809" lon="-2.25928">
        <ele>7</ele>
        <time>2021-05-23T09:26:48.983Z</time>
      </trkpt>
      <trkpt lat="47.27809" lon="-2.25928">
        <ele>7</ele>
        <time>2021-05-23T09:26:49.983Z</time>
      </trkpt>
      <trkpt lat="47.27809" lon="-2.25928">
        <ele>7</ele>
        <time>2021-05-23T09:26:50.983Z</time>
      </trkpt>
      <trkpt lat="47.27809" lon="-2.25928">
        <ele>7</ele>
        <time>2021-05-23T09:26:51.983Z</time>
      </trkpt>
      <trkpt lat="47.27809" lon="-2.25928">
        <ele>7</ele>
        <time>2021-05-23T09:26:52.983Z</time>
      </trkpt>
      <trkpt lat="47.27809" lon="-2.25929">
        <ele>7</ele>
        <time>2021-05-23T09:26:53.983Z</time>
      </trkpt>
      <trkpt lat="47.27808" lon="-2.25929">
        <ele>7</ele>
        <time>2021-05-23T09:26:54.983Z</time>
      </trkpt>
      <trkpt lat="47.27808" lon="-2.25929">
        <ele>7</ele>
        <time>2021-05-23T09:26:55.983Z</time>
      </trkpt>
      <trkpt lat="47.27808" lon="-2.25929">
        <ele>7</ele>
        <time>2021-05-23T09:26:56.983Z</time>
      </trkpt>
      <trkpt lat="47.27807" lon="-2.25929">
        <ele>7</ele>
        <time>2021-05-23T09:26:57.983Z</time>
      </trkpt>
      <trkpt lat="47.27807" lon="-2.25929">
        <ele>7</ele>
        <time>2021-05-23T09:26:58.982Z</time>
      </trkpt>
      <trkpt lat="47.27807" lon="-2.25929">
        <ele>7</ele>
        <time>2021-05-23T09:26:59.983Z</time>
      </trkpt>
      <trkpt lat="47.27807" lon="-2.25929">
        <ele>7</ele>
        <time>2021-05-23T09:27:00.983Z</time>
      </trkpt>
      <trkpt lat="47.27806" lon="-2.2593">
        <ele>7</ele>
        <time>2021-05-23T09:27:01.983Z</time>
      </trkpt>
      <trkpt lat="47.27806" lon="-2.25931">
        <ele>7</ele>
        <time>2021-05-23T09:27:02.983Z</time>
      </trkpt>
      <trkpt lat="47.27806" lon="-2.25932">
        <ele>7</ele>
        <time>2021-05-23T09:27:03.982Z</time>
      </trkpt>
      <trkpt lat="47.27806" lon="-2.25932">
        <ele>7</ele>
        <time>2021-05-23T09:27:04.982Z</time>
      </trkpt>
      <trkpt lat="47.27806" lon="-2.25932">
        <ele>7</ele>
        <time>2021-05-23T09:27:05.982Z</time>
      </trkpt>
      <trkpt lat="47.27806" lon="-2.25932">
        <ele>7</ele>
        <time>2021-05-23T09:27:06.983Z</time>
      </trkpt>
      <trkpt lat="47.27806" lon="-2.25932">
        <ele>7</ele>
        <time>2021-05-23T09:27:07.983Z</time>
      </trkpt>
      <trkpt lat="47.27805" lon="-2.25932">
        <ele>7</ele>
        <time>2021-05-23T09:27:08.982Z</time>
      </trkpt>
      <trkpt lat="47.27804" lon="-2.25932">
        <ele>7</ele>
        <time>2021-05-23T09:27:09.983Z</time>
      </trkpt>
      <trkpt lat="47.27804" lon="-2.25933">
        <ele>7</ele>
        <time>2021-05-23T09:27:10.983Z</time>
      </trkpt>
      <trkpt lat="47.27803" lon="-2.25934">
        <ele>7</ele>
        <time>2021-05-23T09:27:11.983Z</time>
      </trkpt>
      <trkpt lat="47.27802" lon="-2.25936">
        <ele>7</ele>
        <time>2021-05-23T09:27:12.983Z</time>
      </trkpt>
      <trkpt lat="47.27802" lon="-2.25938">
        <ele>7</ele>
        <time>2021-05-23T09:27:13.983Z</time>
      </trkpt>
      <trkpt lat="47.27801" lon="-2.2594">
        <ele>7</ele>
        <time>2021-05-23T09:27:14.983Z</time>
      </trkpt>
      <trkpt lat="47.278" lon="-2.25942">
        <ele>7</ele>
        <time>2021-05-23T09:27:15.982Z</time>
      </trkpt>
      <trkpt lat="47.278" lon="-2.25944">
        <ele>7</ele>
        <time>2021-05-23T09:27:16.983Z</time>
      </trkpt>
      <trkpt lat="47.27799" lon="-2.25945">
        <ele>7</ele>
        <time>2021-05-23T09:27:17.982Z</time>
      </trkpt>
      <trkpt lat="47.27799" lon="-2.25947">
        <ele>7</ele>
        <time>2021-05-23T09:27:18.983Z</time>
      </trkpt>
      <trkpt lat="47.27799" lon="-2.25949">
        <ele>7</ele>
        <time>2021-05-23T09:27:19.982Z</time>
      </trkpt>
      <trkpt lat="47.27799" lon="-2.2595">
        <ele>8</ele>
        <time>2021-05-23T09:27:20.983Z</time>
      </trkpt>
      <trkpt lat="47.278" lon="-2.25951">
        <ele>8</ele>
        <time>2021-05-23T09:27:21.982Z</time>
      </trkpt>
      <trkpt lat="47.278" lon="-2.25953">
        <ele>8</ele>
        <time>2021-05-23T09:27:22.982Z</time>
      </trkpt>
      <trkpt lat="47.278" lon="-2.25954">
        <ele>8</ele>
        <time>2021-05-23T09:27:23.982Z</time>
      </trkpt>
      <trkpt lat="47.278" lon="-2.25956">
        <ele>8</ele>
        <time>2021-05-23T09:27:24.983Z</time>
      </trkpt>
      <trkpt lat="47.278" lon="-2.25958">
        <ele>8</ele>
        <time>2021-05-23T09:27:25.983Z</time>
      </trkpt>
      <trkpt lat="47.278" lon="-2.25959">
        <ele>8</ele>
        <time>2021-05-23T09:27:26.982Z</time>
      </trkpt>
      <trkpt lat="47.278" lon="-2.25961">
        <ele>8</ele>
        <time>2021-05-23T09:27:27.982Z</time>
      </trkpt>
      <trkpt lat="47.278" lon="-2.25962">
        <ele>8</ele>
        <time>2021-05-23T09:27:28.983Z</time>
      </trkpt>
      <trkpt lat="47.27801" lon="-2.25963">
        <ele>8</ele>
        <time>2021-05-23T09:27:29.983Z</time>
      </trkpt>
      <trkpt lat="47.27801" lon="-2.25964">
        <ele>8</ele>
        <time>2021-05-23T09:27:30.983Z</time>
      </trkpt>
      <trkpt lat="47.27802" lon="-2.25966">
        <ele>8</ele>
        <time>2021-05-23T09:27:31.983Z</time>
      </trkpt>
      <trkpt lat="47.27802" lon="-2.25967">
        <ele>8</ele>
        <time>2021-05-23T09:27:32.983Z</time>
      </trkpt>
      <trkpt lat="47.27802" lon="-2.25969">
        <ele>9</ele>
        <time>2021-05-23T09:27:33.983Z</time>
      </trkpt>
      <trkpt lat="47.27802" lon="-2.25971">
        <ele>9</ele>
        <time>2021-05-23T09:27:34.982Z</time>
      </trkpt>
      <trkpt lat="47.27802" lon="-2.25973">
        <ele>9</ele>
        <time>2021-05-23T09:27:35.983Z</time>
      </trkpt>
      <trkpt lat="47.27802" lon="-2.25975">
        <ele>9</ele>
        <time>2021-05-23T09:27:36.982Z</time>
      </trkpt>
      <trkpt lat="47.27802" lon="-2.25976">
        <ele>9</ele>
        <time>2021-05-23T09:27:37.983Z</time>
      </trkpt>
      <trkpt lat="47.27801" lon="-2.25978">
        <ele>9</ele>
        <time>2021-05-23T09:27:38.982Z</time>
      </trkpt>
      <trkpt lat="47.27801" lon="-2.2598">
        <ele>9</ele>
        <time>2021-05-23T09:27:39.983Z</time>
      </trkpt>
      <trkpt lat="47.278" lon="-2.25981">
        <ele>10</ele>
        <time>2021-05-23T09:27:40.983Z</time>
      </trkpt>
      <trkpt lat="47.278" lon="-2.25983">
        <ele>10</ele>
        <time>2021-05-23T09:27:41.982Z</time>
      </trkpt>
      <trkpt lat="47.278" lon="-2.25984">
        <ele>10</ele>
        <time>2021-05-23T09:27:42.982Z</time>
      </trkpt>
      <trkpt lat="47.278" lon="-2.25986">
        <ele>10</ele>
        <time>2021-05-23T09:27:43.983Z</time>
      </trkpt>
      <trkpt lat="47.278" lon="-2.25988">
        <ele>11</ele>
        <time>2021-05-23T09:27:44.983Z</time>
      </trkpt>
      <trkpt lat="47.278" lon="-2.25989">
        <ele>11</ele>
        <time>2021-05-23T09:27:45.983Z</time>
      </trkpt>
      <trkpt lat="47.278" lon="-2.25991">
        <ele>11</ele>
        <time>2021-05-23T09:27:46.983Z</time>
      </trkpt>
      <trkpt lat="47.278" lon="-2.25992">
        <ele>11</ele>
        <time>2021-05-23T09:27:47.982Z</time>
      </trkpt>
      <trkpt lat="47.278" lon="-2.25992">
        <ele>12</ele>
        <time>2021-05-23T09:27:48.982Z</time>
      </trkpt>
      <trkpt lat="47.27799" lon="-2.25993">
        <ele>12</ele>
        <time>2021-05-23T09:27:49.983Z</time>
      </trkpt>
      <trkpt lat="47.27799" lon="-2.25993">
        <ele>12</ele>
        <time>2021-05-23T09:27:50.983Z</time>
      </trkpt>
      <trkpt lat="47.27799" lon="-2.25993">
        <ele>12</ele>
        <time>2021-05-23T09:27:51.983Z</time>
      </trkpt>
      <trkpt lat="47.278" lon="-2.25994">
        <ele>13</ele>
        <time>2021-05-23T09:27:52.982Z</time>
      </trkpt>
      <trkpt lat="47.27801" lon="-2.25996">
        <ele>13</ele>
        <time>2021-05-23T09:27:53.983Z</time>
      </trkpt>
      <trkpt lat="47.27801" lon="-2.25997">
        <ele>13</ele>
        <time>2021-05-23T09:27:54.983Z</time>
      </trkpt>
      <trkpt lat="47.27801" lon="-2.25998">
        <ele>13</ele>
        <time>2021-05-23T09:27:55.982Z</time>
      </trkpt>
      <trkpt lat="47.278" lon="-2.25999">
        <ele>13</ele>
        <time>2021-05-23T09:27:56.983Z</time>
      </trkpt>
      <trkpt lat="47.27799" lon="-2.25999">
        <ele>13</ele>
        <time>2021-05-23T09:27:57.983Z</time>
      </trkpt>
      <trkpt lat="47.27799" lon="-2.26">
        <ele>13</ele>
        <time>2021-05-23T09:27:58.982Z</time>
      </trkpt>
      <trkpt lat="47.27799" lon="-2.26002">
        <ele>13</ele>
        <time>2021-05-23T09:27:59.982Z</time>
      </trkpt>
      <trkpt lat="47.27799" lon="-2.26004">
        <ele>13</ele>
        <time>2021-05-23T09:28:00.983Z</time>
      </trkpt>
      <trkpt lat="47.27799" lon="-2.26006">
        <ele>13</ele>
        <time>2021-05-23T09:28:01.982Z</time>
      </trkpt>
      <trkpt lat="47.27799" lon="-2.26007">
        <ele>13</ele>
        <time>2021-05-23T09:28:02.983Z</time>
      </trkpt>
      <trkpt lat="47.27798" lon="-2.26009">
        <ele>13</ele>
        <time>2021-05-23T09:28:03.983Z</time>
      </trkpt>
      <trkpt lat="47.27797" lon="-2.2601">
        <ele>12</ele>
        <time>2021-05-23T09:28:04.982Z</time>
      </trkpt>
      <trkpt lat="47.27797" lon="-2.26011">
        <ele>12</ele>
        <time>2021-05-23T09:28:05.983Z</time>
      </trkpt>
      <trkpt lat="47.27797" lon="-2.26013">
        <ele>12</ele>
        <time>2021-05-23T09:28:06.983Z</time>
      </trkpt>
      <trkpt lat="47.27797" lon="-2.26015">
        <ele>11</ele>
        <time>2021-05-23T09:28:07.983Z</time>
      </trkpt>
      <trkpt lat="47.27797" lon="-2.26016">
        <ele>11</ele>
        <time>2021-05-23T09:28:08.983Z</time>
      </trkpt>
      <trkpt lat="47.27797" lon="-2.26017">
        <ele>11</ele>
        <time>2021-05-23T09:28:09.982Z</time>
      </trkpt>
      <trkpt lat="47.27796" lon="-2.26019">
        <ele>11</ele>
        <time>2021-05-23T09:28:10.982Z</time>
      </trkpt>
      <trkpt lat="47.27796" lon="-2.2602">
        <ele>11</ele>
        <time>2021-05-23T09:28:11.982Z</time>
      </trkpt>
      <trkpt lat="47.27796" lon="-2.26021">
        <ele>11</ele>
        <time>2021-05-23T09:28:12.983Z</time>
      </trkpt>
      <trkpt lat="47.27796" lon="-2.26021">
        <ele>10</ele>
        <time>2021-05-23T09:28:13.983Z</time>
      </trkpt>
      <trkpt lat="47.27795" lon="-2.26023">
        <ele>10</ele>
        <time>2021-05-23T09:28:14.982Z</time>
      </trkpt>
      <trkpt lat="47.27794" lon="-2.26023">
        <ele>10</ele>
        <time>2021-05-23T09:28:15.983Z</time>
      </trkpt>
      <trkpt lat="47.27794" lon="-2.26024">
        <ele>10</ele>
        <time>2021-05-23T09:28:16.983Z</time>
      </trkpt>
      <trkpt lat="47.27793" lon="-2.26026">
        <ele>10</ele>
        <time>2021-05-23T09:28:17.983Z</time>
      </trkpt>
      <trkpt lat="47.27793" lon="-2.26027">
        <ele>10</ele>
        <time>2021-05-23T09:28:18.983Z</time>
      </trkpt>
      <trkpt lat="47.27793" lon="-2.26028">
        <ele>10</ele>
        <time>2021-05-23T09:28:19.982Z</time>
      </trkpt>
      <trkpt lat="47.27793" lon="-2.2603">
        <ele>9</ele>
        <time>2021-05-23T09:28:20.982Z</time>
      </trkpt>
      <trkpt lat="47.27793" lon="-2.26031">
        <ele>9</ele>
        <time>2021-05-23T09:28:21.983Z</time>
      </trkpt>
      <trkpt lat="47.27792" lon="-2.26032">
        <ele>8</ele>
        <time>2021-05-23T09:28:22.982Z</time>
      </trkpt>
      <trkpt lat="47.27791" lon="-2.26033">
        <ele>8</ele>
        <time>2021-05-23T09:28:23.983Z</time>
      </trkpt>
      <trkpt lat="47.2779" lon="-2.26035">
        <ele>8</ele>
        <time>2021-05-23T09:28:24.982Z</time>
      </trkpt>
      <trkpt lat="47.2779" lon="-2.26037">
        <ele>8</ele>
        <time>2021-05-23T09:28:25.982Z</time>
      </trkpt>
      <trkpt lat="47.27789" lon="-2.26038">
        <ele>8</ele>
        <time>2021-05-23T09:28:26.982Z</time>
      </trkpt>
      <trkpt lat="47.27789" lon="-2.26041">
        <ele>8</ele>
        <time>2021-05-23T09:28:27.983Z</time>
      </trkpt>
      <trkpt lat="47.27789" lon="-2.26043">
        <ele>8</ele>
        <time>2021-05-23T09:28:28.982Z</time>
      </trkpt>
      <trkpt lat="47.27789" lon="-2.26045">
        <ele>9</ele>
        <time>2021-05-23T09:28:29.982Z</time>
      </trkpt>
      <trkpt lat="47.27789" lon="-2.26046">
        <ele>9</ele>
        <time>2021-05-23T09:28:30.983Z</time>
      </trkpt>
      <trkpt lat="47.2779" lon="-2.26047">
        <ele>10</ele>
        <time>2021-05-23T09:28:31.982Z</time>
      </trkpt>
      <trkpt lat="47.2779" lon="-2.26048">
        <ele>10</ele>
        <time>2021-05-23T09:28:32.983Z</time>
      </trkpt>
      <trkpt lat="47.2779" lon="-2.26049">
        <ele>10</ele>
        <time>2021-05-23T09:28:33.982Z</time>
      </trkpt>
      <trkpt lat="47.27789" lon="-2.2605">
        <ele>11</ele>
        <time>2021-05-23T09:28:34.982Z</time>
      </trkpt>
      <trkpt lat="47.27789" lon="-2.26051">
        <ele>11</ele>
        <time>2021-05-23T09:28:35.983Z</time>
      </trkpt>
      <trkpt lat="47.27788" lon="-2.26053">
        <ele>11</ele>
        <time>2021-05-23T09:28:36.982Z</time>
      </trkpt>
      <trkpt lat="47.27788" lon="-2.26054">
        <ele>12</ele>
        <time>2021-05-23T09:28:37.983Z</time>
      </trkpt>
      <trkpt lat="47.27787" lon="-2.26055">
        <ele>12</ele>
        <time>2021-05-23T09:28:38.982Z</time>
      </trkpt>
      <trkpt lat="47.27785" lon="-2.26056">
        <ele>12</ele>
        <time>2021-05-23T09:28:39.983Z</time>
      </trkpt>
      <trkpt lat="47.27785" lon="-2.26057">
        <ele>12</ele>
        <time>2021-05-23T09:28:40.983Z</time>
      </trkpt>
      <trkpt lat="47.27785" lon="-2.26058">
        <ele>12</ele>
        <time>2021-05-23T09:28:41.983Z</time>
      </trkpt>
      <trkpt lat="47.27785" lon="-2.26059">
        <ele>12</ele>
        <time>2021-05-23T09:28:42.982Z</time>
      </trkpt>
      <trkpt lat="47.27785" lon="-2.2606">
        <ele>12</ele>
        <time>2021-05-23T09:28:43.983Z</time>
      </trkpt>
      <trkpt lat="47.27783" lon="-2.26061">
        <ele>12</ele>
        <time>2021-05-23T09:28:44.983Z</time>
      </trkpt>
      <trkpt lat="47.27783" lon="-2.26062">
        <ele>12</ele>
        <time>2021-05-23T09:28:45.983Z</time>
      </trkpt>
      <trkpt lat="47.27782" lon="-2.26063">
        <ele>12</ele>
        <time>2021-05-23T09:28:46.983Z</time>
      </trkpt>
      <trkpt lat="47.27781" lon="-2.26064">
        <ele>12</ele>
        <time>2021-05-23T09:28:47.983Z</time>
      </trkpt>
      <trkpt lat="47.27781" lon="-2.26065">
        <ele>13</ele>
        <time>2021-05-23T09:28:48.983Z</time>
      </trkpt>
      <trkpt lat="47.2778" lon="-2.26065">
        <ele>13</ele>
        <time>2021-05-23T09:28:49.982Z</time>
      </trkpt>
      <trkpt lat="47.27781" lon="-2.26065">
        <ele>13</ele>
        <time>2021-05-23T09:28:50.982Z</time>
      </trkpt>
      <trkpt lat="47.27781" lon="-2.26064">
        <ele>13</ele>
        <time>2021-05-23T09:28:51.982Z</time>
      </trkpt>
      <trkpt lat="47.27782" lon="-2.26065">
        <ele>13</ele>
        <time>2021-05-23T09:28:52.983Z</time>
      </trkpt>
      <trkpt lat="47.27782" lon="-2.26066">
        <ele>14</ele>
        <time>2021-05-23T09:28:53.983Z</time>
      </trkpt>
      <trkpt lat="47.27782" lon="-2.26066">
        <ele>14</ele>
        <time>2021-05-23T09:28:54.983Z</time>
      </trkpt>
      <trkpt lat="47.27782" lon="-2.26066">
        <ele>14</ele>
        <time>2021-05-23T09:28:55.983Z</time>
      </trkpt>
      <trkpt lat="47.27781" lon="-2.26066">
        <ele>15</ele>
        <time>2021-05-23T09:28:56.982Z</time>
      </trkpt>
      <trkpt lat="47.27782" lon="-2.26066">
        <ele>15</ele>
        <time>2021-05-23T09:28:57.983Z</time>
      </trkpt>
      <trkpt lat="47.27782" lon="-2.26066">
        <ele>15</ele>
        <time>2021-05-23T09:28:58.983Z</time>
      </trkpt>
      <trkpt lat="47.27782" lon="-2.26065">
        <ele>15</ele>
        <time>2021-05-23T09:28:59.983Z</time>
      </trkpt>
      <trkpt lat="47.27782" lon="-2.26065">
        <ele>15</ele>
        <time>2021-05-23T09:29:00.983Z</time>
      </trkpt>
      <trkpt lat="47.27782" lon="-2.26065">
        <ele>15</ele>
        <time>2021-05-23T09:29:01.983Z</time>
      </trkpt>
      <trkpt lat="47.27782" lon="-2.26065">
        <ele>15</ele>
        <time>2021-05-23T09:29:02.983Z</time>
      </trkpt>
      <trkpt lat="47.27782" lon="-2.26065">
        <ele>15</ele>
        <time>2021-05-23T09:29:03.982Z</time>
      </trkpt>
      <trkpt lat="47.27782" lon="-2.26065">
        <ele>16</ele>
        <time>2021-05-23T09:29:04.983Z</time>
      </trkpt>
      <trkpt lat="47.27782" lon="-2.26065">
        <ele>16</ele>
        <time>2021-05-23T09:29:05.982Z</time>
      </trkpt>
      <trkpt lat="47.27782" lon="-2.26065">
        <ele>16</ele>
        <time>2021-05-23T09:29:06.983Z</time>
      </trkpt>
      <trkpt lat="47.27782" lon="-2.26065">
        <ele>16</ele>
        <time>2021-05-23T09:29:07.983Z</time>
      </trkpt>
      <trkpt lat="47.27782" lon="-2.26065">
        <ele>16</ele>
        <time>2021-05-23T09:29:08.982Z</time>
      </trkpt>
      <trkpt lat="47.27782" lon="-2.26065">
        <ele>16</ele>
        <time>2021-05-23T09:29:09.983Z</time>
      </trkpt>
      <trkpt lat="47.27782" lon="-2.26065">
        <ele>16</ele>
        <time>2021-05-23T09:29:10.983Z</time>
      </trkpt>
      <trkpt lat="47.27782" lon="-2.26065">
        <ele>17</ele>
        <time>2021-05-23T09:29:11.983Z</time>
      </trkpt>
      <trkpt lat="47.27782" lon="-2.26065">
        <ele>17</ele>
        <time>2021-05-23T09:29:12.982Z</time>
      </trkpt>
      <trkpt lat="47.27782" lon="-2.26065">
        <ele>17</ele>
        <time>2021-05-23T09:29:13.982Z</time>
      </trkpt>
      <trkpt lat="47.27782" lon="-2.26065">
        <ele>17</ele>
        <time>2021-05-23T09:29:14.983Z</time>
      </trkpt>
      <trkpt lat="47.27782" lon="-2.26065">
        <ele>17</ele>
        <time>2021-05-23T09:29:15.983Z</time>
      </trkpt>
      <trkpt lat="47.27782" lon="-2.26065">
        <ele>17</ele>
        <time>2021-05-23T09:29:16.983Z</time>
      </trkpt>
      <trkpt lat="47.27782" lon="-2.26065">
        <ele>17</ele>
        <time>2021-05-23T09:29:17.982Z</time>
      </trkpt>
      <trkpt lat="47.27782" lon="-2.26064">
        <ele>17</ele>
        <time>2021-05-23T09:29:18.983Z</time>
      </trkpt>
      <trkpt lat="47.27782" lon="-2.26064">
        <ele>17</ele>
        <time>2021-05-23T09:29:19.982Z</time>
      </trkpt>
      <trkpt lat="47.27782" lon="-2.26064">
        <ele>17</ele>
        <time>2021-05-23T09:29:20.983Z</time>
      </trkpt>
      <trkpt lat="47.27782" lon="-2.26064">
        <ele>17</ele>
        <time>2021-05-23T09:29:21.982Z</time>
      </trkpt>
      <trkpt lat="47.27782" lon="-2.26064">
        <ele>18</ele>
        <time>2021-05-23T09:29:22.983Z</time>
      </trkpt>
      <trkpt lat="47.27782" lon="-2.26064">
        <ele>18</ele>
        <time>2021-05-23T09:29:23.983Z</time>
      </trkpt>
      <trkpt lat="47.27782" lon="-2.26064">
        <ele>18</ele>
        <time>2021-05-23T09:29:24.982Z</time>
      </trkpt>
      <trkpt lat="47.27782" lon="-2.26064">
        <ele>18</ele>
        <time>2021-05-23T09:29:25.983Z</time>
      </trkpt>
      <trkpt lat="47.27782" lon="-2.26064">
        <ele>18</ele>
        <time>2021-05-23T09:29:26.982Z</time>
      </trkpt>
      <trkpt lat="47.27782" lon="-2.26064">
        <ele>18</ele>
        <time>2021-05-23T09:29:27.983Z</time>
      </trkpt>
      <trkpt lat="47.27782" lon="-2.26064">
        <ele>18</ele>
        <time>2021-05-23T09:29:28.983Z</time>
      </trkpt>
      <trkpt lat="47.27782" lon="-2.26064">
        <ele>18</ele>
        <time>2021-05-23T09:29:29.983Z</time>
      </trkpt>
      <trkpt lat="47.27782" lon="-2.26064">
        <ele>18</ele>
        <time>2021-05-23T09:29:30.983Z</time>
      </trkpt>
      <trkpt lat="47.27782" lon="-2.26064">
        <ele>18</ele>
        <time>2021-05-23T09:29:31.983Z</time>
      </trkpt>
      <trkpt lat="47.27782" lon="-2.26064">
        <ele>18</ele>
        <time>2021-05-23T09:29:32.983Z</time>
      </trkpt>
      <trkpt lat="47.27781" lon="-2.26064">
        <ele>18</ele>
        <time>2021-05-23T09:29:33.983Z</time>
      </trkpt>
      <trkpt lat="47.27781" lon="-2.26063">
        <ele>18</ele>
        <time>2021-05-23T09:29:34.983Z</time>
      </trkpt>
      <trkpt lat="47.27781" lon="-2.26063">
        <ele>18</ele>
        <time>2021-05-23T09:29:35.983Z</time>
      </trkpt>
      <trkpt lat="47.27781" lon="-2.26063">
        <ele>18</ele>
        <time>2021-05-23T09:29:36.983Z</time>
      </trkpt>
      <trkpt lat="47.27781" lon="-2.26063">
        <ele>18</ele>
        <time>2021-05-23T09:29:37.983Z</time>
      </trkpt>
      <trkpt lat="47.27781" lon="-2.26063">
        <ele>18</ele>
        <time>2021-05-23T09:29:38.982Z</time>
      </trkpt>
      <trkpt lat="47.2778" lon="-2.26063">
        <ele>18</ele>
        <time>2021-05-23T09:29:39.983Z</time>
      </trkpt>
      <trkpt lat="47.2778" lon="-2.26063">
        <ele>18</ele>
        <time>2021-05-23T09:29:40.983Z</time>
      </trkpt>
      <trkpt lat="47.2778" lon="-2.26063">
        <ele>18</ele>
        <time>2021-05-23T09:29:41.983Z</time>
      </trkpt>
      <trkpt lat="47.2778" lon="-2.26063">
        <ele>18</ele>
        <time>2021-05-23T09:29:42.983Z</time>
      </trkpt>
      <trkpt lat="47.2778" lon="-2.26062">
        <ele>18</ele>
        <time>2021-05-23T09:29:43.983Z</time>
      </trkpt>
      <trkpt lat="47.2778" lon="-2.26062">
        <ele>18</ele>
        <time>2021-05-23T09:29:44.983Z</time>
      </trkpt>
      <trkpt lat="47.2778" lon="-2.26062">
        <ele>18</ele>
        <time>2021-05-23T09:29:45.982Z</time>
      </trkpt>
      <trkpt lat="47.2778" lon="-2.26062">
        <ele>18</ele>
        <time>2021-05-23T09:29:46.983Z</time>
      </trkpt>
      <trkpt lat="47.2778" lon="-2.26062">
        <ele>18</ele>
        <time>2021-05-23T09:29:47.983Z</time>
      </trkpt>
      <trkpt lat="47.2778" lon="-2.26062">
        <ele>18</ele>
        <time>2021-05-23T09:29:48.982Z</time>
      </trkpt>
      <trkpt lat="47.2778" lon="-2.26062">
        <ele>18</ele>
        <time>2021-05-23T09:29:49.983Z</time>
      </trkpt>
      <trkpt lat="47.2778" lon="-2.26062">
        <ele>18</ele>
        <time>2021-05-23T09:29:50.983Z</time>
      </trkpt>
      <trkpt lat="47.2778" lon="-2.26062">
        <ele>18</ele>
        <time>2021-05-23T09:29:51.982Z</time>
      </trkpt>
      <trkpt lat="47.2778" lon="-2.26062">
        <ele>18</ele>
        <time>2021-05-23T09:29:52.982Z</time>
      </trkpt>
      <trkpt lat="47.2778" lon="-2.26062">
        <ele>18</ele>
        <time>2021-05-23T09:29:53.983Z</time>
      </trkpt>
      <trkpt lat="47.2778" lon="-2.26062">
        <ele>18</ele>
        <time>2021-05-23T09:29:54.983Z</time>
      </trkpt>
      <trkpt lat="47.2778" lon="-2.26062">
        <ele>18</ele>
        <time>2021-05-23T09:29:55.983Z</time>
      </trkpt>
      <trkpt lat="47.2778" lon="-2.26062">
        <ele>18</ele>
        <time>2021-05-23T09:29:56.982Z</time>
      </trkpt>
      <trkpt lat="47.2778" lon="-2.26062">
        <ele>18</ele>
        <time>2021-05-23T09:29:57.982Z</time>
      </trkpt>
      <trkpt lat="47.2778" lon="-2.26062">
        <ele>18</ele>
        <time>2021-05-23T09:29:58.982Z</time>
      </trkpt>
      <trkpt lat="47.2778" lon="-2.26062">
        <ele>18</ele>
        <time>2021-05-23T09:29:59.983Z</time>
      </trkpt>
      <trkpt lat="47.2778" lon="-2.26062">
        <ele>18</ele>
        <time>2021-05-23T09:30:00.982Z</time>
      </trkpt>
      <trkpt lat="47.2778" lon="-2.26063">
        <ele>18</ele>
        <time>2021-05-23T09:30:01.982Z</time>
      </trkpt>
      <trkpt lat="47.2778" lon="-2.26063">
        <ele>18</ele>
        <time>2021-05-23T09:30:02.982Z</time>
      </trkpt>
      <trkpt lat="47.2778" lon="-2.26063">
        <ele>18</ele>
        <time>2021-05-23T09:30:03.982Z</time>
      </trkpt>
      <trkpt lat="47.2778" lon="-2.26063">
        <ele>18</ele>
        <time>2021-05-23T09:30:04.982Z</time>
      </trkpt>
      <trkpt lat="47.2778" lon="-2.26064">
        <ele>18</ele>
        <time>2021-05-23T09:30:05.982Z</time>
      </trkpt>
      <trkpt lat="47.2778" lon="-2.26064">
        <ele>18</ele>
        <time>2021-05-23T09:30:06.982Z</time>
      </trkpt>
      <trkpt lat="47.2778" lon="-2.26064">
        <ele>18</ele>
        <time>2021-05-23T09:30:07.983Z</time>
      </trkpt>
      <trkpt lat="47.2778" lon="-2.26064">
        <ele>18</ele>
        <time>2021-05-23T09:30:08.982Z</time>
      </trkpt>
      <trkpt lat="47.2778" lon="-2.26065">
        <ele>18</ele>
        <time>2021-05-23T09:30:09.982Z</time>
      </trkpt>
      <trkpt lat="47.2778" lon="-2.26065">
        <ele>18</ele>
        <time>2021-05-23T09:30:10.983Z</time>
      </trkpt>
      <trkpt lat="47.2778" lon="-2.26066">
        <ele>18</ele>
        <time>2021-05-23T09:30:11.982Z</time>
      </trkpt>
      <trkpt lat="47.27781" lon="-2.26066">
        <ele>18</ele>
        <time>2021-05-23T09:30:12.982Z</time>
      </trkpt>
      <trkpt lat="47.27781" lon="-2.26067">
        <ele>18</ele>
        <time>2021-05-23T09:30:13.983Z</time>
      </trkpt>
      <trkpt lat="47.27779" lon="-2.2607">
        <ele>18</ele>
        <time>2021-05-23T09:30:14.982Z</time>
      </trkpt>
      <trkpt lat="47.27778" lon="-2.26072">
        <ele>18</ele>
        <time>2021-05-23T09:30:15.983Z</time>
      </trkpt>
      <trkpt lat="47.27778" lon="-2.26075">
        <ele>18</ele>
        <time>2021-05-23T09:30:16.982Z</time>
      </trkpt>
      <trkpt lat="47.27778" lon="-2.26077">
        <ele>18</ele>
        <time>2021-05-23T09:30:17.982Z</time>
      </trkpt>
      <trkpt lat="47.27778" lon="-2.2608">
        <ele>18</ele>
        <time>2021-05-23T09:30:18.983Z</time>
      </trkpt>
      <trkpt lat="47.27778" lon="-2.26083">
        <ele>18</ele>
        <time>2021-05-23T09:30:19.982Z</time>
      </trkpt>
      <trkpt lat="47.27777" lon="-2.26086">
        <ele>18</ele>
        <time>2021-05-23T09:30:20.982Z</time>
      </trkpt>
      <trkpt lat="47.27776" lon="-2.26088">
        <ele>19</ele>
        <time>2021-05-23T09:30:21.982Z</time>
      </trkpt>
      <trkpt lat="47.27776" lon="-2.26091">
        <ele>19</ele>
        <time>2021-05-23T09:30:22.982Z</time>
      </trkpt>
      <trkpt lat="47.27775" lon="-2.26093">
        <ele>19</ele>
        <time>2021-05-23T09:30:23.982Z</time>
      </trkpt>
      <trkpt lat="47.27774" lon="-2.26094">
        <ele>19</ele>
        <time>2021-05-23T09:30:24.983Z</time>
      </trkpt>
      <trkpt lat="47.27774" lon="-2.26095">
        <ele>19</ele>
        <time>2021-05-23T09:30:25.982Z</time>
      </trkpt>
      <trkpt lat="47.27773" lon="-2.26096">
        <ele>20</ele>
        <time>2021-05-23T09:30:26.983Z</time>
      </trkpt>
      <trkpt lat="47.27772" lon="-2.26097">
        <ele>20</ele>
        <time>2021-05-23T09:30:27.983Z</time>
      </trkpt>
      <trkpt lat="47.27771" lon="-2.26098">
        <ele>20</ele>
        <time>2021-05-23T09:30:28.983Z</time>
      </trkpt>
      <trkpt lat="47.27771" lon="-2.261">
        <ele>20</ele>
        <time>2021-05-23T09:30:29.983Z</time>
      </trkpt>
      <trkpt lat="47.2777" lon="-2.26101">
        <ele>20</ele>
        <time>2021-05-23T09:30:30.983Z</time>
      </trkpt>
      <trkpt lat="47.27769" lon="-2.26103">
        <ele>21</ele>
        <time>2021-05-23T09:30:31.983Z</time>
      </trkpt>
      <trkpt lat="47.27768" lon="-2.26104">
        <ele>21</ele>
        <time>2021-05-23T09:30:32.982Z</time>
      </trkpt>
      <trkpt lat="47.27767" lon="-2.26105">
        <ele>21</ele>
        <time>2021-05-23T09:30:33.982Z</time>
      </trkpt>
      <trkpt lat="47.27766" lon="-2.26106">
        <ele>20</ele>
        <time>2021-05-23T09:30:34.982Z</time>
      </trkpt>
      <trkpt lat="47.27765" lon="-2.26107">
        <ele>20</ele>
        <time>2021-05-23T09:30:35.983Z</time>
      </trkpt>
      <trkpt lat="47.27765" lon="-2.26108">
        <ele>20</ele>
        <time>2021-05-23T09:30:36.983Z</time>
      </trkpt>
      <trkpt lat="47.27765" lon="-2.26109">
        <ele>20</ele>
        <time>2021-05-23T09:30:37.983Z</time>
      </trkpt>
      <trkpt lat="47.27765" lon="-2.2611">
        <ele>19</ele>
        <time>2021-05-23T09:30:38.983Z</time>
      </trkpt>
      <trkpt lat="47.27765" lon="-2.26111">
        <ele>19</ele>
        <time>2021-05-23T09:30:39.983Z</time>
      </trkpt>
      <trkpt lat="47.27765" lon="-2.26112">
        <ele>19</ele>
        <time>2021-05-23T09:30:40.982Z</time>
      </trkpt>
      <trkpt lat="47.27764" lon="-2.26114">
        <ele>18</ele>
        <time>2021-05-23T09:30:41.983Z</time>
      </trkpt>
      <trkpt lat="47.27763" lon="-2.26115">
        <ele>18</ele>
        <time>2021-05-23T09:30:42.983Z</time>
      </trkpt>
      <trkpt lat="47.27762" lon="-2.26116">
        <ele>17</ele>
        <time>2021-05-23T09:30:43.982Z</time>
      </trkpt>
      <trkpt lat="47.27761" lon="-2.26117">
        <ele>17</ele>
        <time>2021-05-23T09:30:44.982Z</time>
      </trkpt>
      <trkpt lat="47.27761" lon="-2.26118">
        <ele>16</ele>
        <time>2021-05-23T09:30:45.983Z</time>
      </trkpt>
      <trkpt lat="47.2776" lon="-2.26119">
        <ele>16</ele>
        <time>2021-05-23T09:30:46.983Z</time>
      </trkpt>
      <trkpt lat="47.2776" lon="-2.2612">
        <ele>15</ele>
        <time>2021-05-23T09:30:47.982Z</time>
      </trkpt>
      <trkpt lat="47.2776" lon="-2.26121">
        <ele>15</ele>
        <time>2021-05-23T09:30:48.983Z</time>
      </trkpt>
      <trkpt lat="47.2776" lon="-2.26123">
        <ele>15</ele>
        <time>2021-05-23T09:30:49.982Z</time>
      </trkpt>
      <trkpt lat="47.2776" lon="-2.26124">
        <ele>14</ele>
        <time>2021-05-23T09:30:50.983Z</time>
      </trkpt>
      <trkpt lat="47.2776" lon="-2.26126">
        <ele>14</ele>
        <time>2021-05-23T09:30:51.982Z</time>
      </trkpt>
      <trkpt lat="47.27761" lon="-2.26128">
        <ele>13</ele>
        <time>2021-05-23T09:30:52.983Z</time>
      </trkpt>
      <trkpt lat="47.27762" lon="-2.26131">
        <ele>13</ele>
        <time>2021-05-23T09:30:53.983Z</time>
      </trkpt>
      <trkpt lat="47.27762" lon="-2.26133">
        <ele>13</ele>
        <time>2021-05-23T09:30:54.982Z</time>
      </trkpt>
      <trkpt lat="47.27762" lon="-2.26135">
        <ele>13</ele>
        <time>2021-05-23T09:30:55.983Z</time>
      </trkpt>
      <trkpt lat="47.27763" lon="-2.26137">
        <ele>13</ele>
        <time>2021-05-23T09:30:56.982Z</time>
      </trkpt>
      <trkpt lat="47.27763" lon="-2.2614">
        <ele>13</ele>
        <time>2021-05-23T09:30:57.982Z</time>
      </trkpt>
      <trkpt lat="47.27763" lon="-2.26143">
        <ele>13</ele>
        <time>2021-05-23T09:30:58.983Z</time>
      </trkpt>
      <trkpt lat="47.27764" lon="-2.26146">
        <ele>12</ele>
        <time>2021-05-23T09:30:59.982Z</time>
      </trkpt>
      <trkpt lat="47.27764" lon="-2.26149">
        <ele>12</ele>
        <time>2021-05-23T09:31:00.983Z</time>
      </trkpt>
      <trkpt lat="47.27763" lon="-2.26153">
        <ele>11</ele>
        <time>2021-05-23T09:31:01.983Z</time>
      </trkpt>
      <trkpt lat="47.27763" lon="-2.26156">
        <ele>11</ele>
        <time>2021-05-23T09:31:02.982Z</time>
      </trkpt>
      <trkpt lat="47.27763" lon="-2.26158">
        <ele>10</ele>
        <time>2021-05-23T09:31:03.983Z</time>
      </trkpt>
      <trkpt lat="47.27763" lon="-2.26162">
        <ele>10</ele>
        <time>2021-05-23T09:31:04.983Z</time>
      </trkpt>
      <trkpt lat="47.27762" lon="-2.26165">
        <ele>10</ele>
        <time>2021-05-23T09:31:05.983Z</time>
      </trkpt>
      <trkpt lat="47.27762" lon="-2.26169">
        <ele>9</ele>
        <time>2021-05-23T09:31:06.983Z</time>
      </trkpt>
      <trkpt lat="47.27761" lon="-2.26171">
        <ele>9</ele>
        <time>2021-05-23T09:31:07.983Z</time>
      </trkpt>
      <trkpt lat="47.2776" lon="-2.26175">
        <ele>8</ele>
        <time>2021-05-23T09:31:08.983Z</time>
      </trkpt>
      <trkpt lat="47.2776" lon="-2.26179">
        <ele>8</ele>
        <time>2021-05-23T09:31:09.983Z</time>
      </trkpt>
      <trkpt lat="47.27759" lon="-2.26183">
        <ele>8</ele>
        <time>2021-05-23T09:31:10.983Z</time>
      </trkpt>
      <trkpt lat="47.2776" lon="-2.26186">
        <ele>8</ele>
        <time>2021-05-23T09:31:11.983Z</time>
      </trkpt>
      <trkpt lat="47.2776" lon="-2.2619">
        <ele>8</ele>
        <time>2021-05-23T09:31:12.983Z</time>
      </trkpt>
      <trkpt lat="47.27759" lon="-2.26192">
        <ele>8</ele>
        <time>2021-05-23T09:31:13.983Z</time>
      </trkpt>
      <trkpt lat="47.27758" lon="-2.26195">
        <ele>8</ele>
        <time>2021-05-23T09:31:14.983Z</time>
      </trkpt>
      <trkpt lat="47.27757" lon="-2.26197">
        <ele>8</ele>
        <time>2021-05-23T09:31:15.982Z</time>
      </trkpt>
      <trkpt lat="47.27756" lon="-2.26201">
        <ele>8</ele>
        <time>2021-05-23T09:31:16.983Z</time>
      </trkpt>
      <trkpt lat="47.27754" lon="-2.26205">
        <ele>8</ele>
        <time>2021-05-23T09:31:17.983Z</time>
      </trkpt>
      <trkpt lat="47.27753" lon="-2.26207">
        <ele>8</ele>
        <time>2021-05-23T09:31:18.983Z</time>
      </trkpt>
      <trkpt lat="47.27751" lon="-2.2621">
        <ele>8</ele>
        <time>2021-05-23T09:31:19.983Z</time>
      </trkpt>
      <trkpt lat="47.2775" lon="-2.26212">
        <ele>8</ele>
        <time>2021-05-23T09:31:20.983Z</time>
      </trkpt>
      <trkpt lat="47.27748" lon="-2.26215">
        <ele>8</ele>
        <time>2021-05-23T09:31:21.982Z</time>
      </trkpt>
      <trkpt lat="47.27746" lon="-2.26218">
        <ele>8</ele>
        <time>2021-05-23T09:31:22.982Z</time>
      </trkpt>
      <trkpt lat="47.27744" lon="-2.2622">
        <ele>8</ele>
        <time>2021-05-23T09:31:23.983Z</time>
      </trkpt>
      <trkpt lat="47.27742" lon="-2.26223">
        <ele>8</ele>
        <time>2021-05-23T09:31:24.983Z</time>
      </trkpt>
      <trkpt lat="47.27741" lon="-2.26226">
        <ele>8</ele>
        <time>2021-05-23T09:31:25.983Z</time>
      </trkpt>
      <trkpt lat="47.2774" lon="-2.26229">
        <ele>8</ele>
        <time>2021-05-23T09:31:26.983Z</time>
      </trkpt>
      <trkpt lat="47.27739" lon="-2.26232">
        <ele>8</ele>
        <time>2021-05-23T09:31:27.983Z</time>
      </trkpt>
      <trkpt lat="47.27737" lon="-2.26235">
        <ele>8</ele>
        <time>2021-05-23T09:31:28.983Z</time>
      </trkpt>
      <trkpt lat="47.27735" lon="-2.26238">
        <ele>8</ele>
        <time>2021-05-23T09:31:29.983Z</time>
      </trkpt>
      <trkpt lat="47.27734" lon="-2.2624">
        <ele>8</ele>
        <time>2021-05-23T09:31:30.983Z</time>
      </trkpt>
      <trkpt lat="47.27732" lon="-2.26243">
        <ele>8</ele>
        <time>2021-05-23T09:31:31.983Z</time>
      </trkpt>
      <trkpt lat="47.27731" lon="-2.26246">
        <ele>8</ele>
        <time>2021-05-23T09:31:32.983Z</time>
      </trkpt>
      <trkpt lat="47.27729" lon="-2.26249">
        <ele>8</ele>
        <time>2021-05-23T09:31:33.983Z</time>
      </trkpt>
      <trkpt lat="47.27728" lon="-2.26252">
        <ele>8</ele>
        <time>2021-05-23T09:31:34.983Z</time>
      </trkpt>
      <trkpt lat="47.27727" lon="-2.26255">
        <ele>8</ele>
        <time>2021-05-23T09:31:35.983Z</time>
      </trkpt>
      <trkpt lat="47.27726" lon="-2.26258">
        <ele>8</ele>
        <time>2021-05-23T09:31:36.982Z</time>
      </trkpt>
      <trkpt lat="47.27725" lon="-2.2626">
        <ele>9</ele>
        <time>2021-05-23T09:31:37.983Z</time>
      </trkpt>
      <trkpt lat="47.27723" lon="-2.26263">
        <ele>9</ele>
        <time>2021-05-23T09:31:38.983Z</time>
      </trkpt>
      <trkpt lat="47.27721" lon="-2.26266">
        <ele>9</ele>
        <time>2021-05-23T09:31:39.983Z</time>
      </trkpt>
      <trkpt lat="47.2772" lon="-2.26269">
        <ele>8</ele>
        <time>2021-05-23T09:31:40.983Z</time>
      </trkpt>
      <trkpt lat="47.27718" lon="-2.26271">
        <ele>8</ele>
        <time>2021-05-23T09:31:41.982Z</time>
      </trkpt>
      <trkpt lat="47.27716" lon="-2.26273">
        <ele>8</ele>
        <time>2021-05-23T09:31:42.983Z</time>
      </trkpt>
      <trkpt lat="47.27713" lon="-2.26275">
        <ele>8</ele>
        <time>2021-05-23T09:31:43.983Z</time>
      </trkpt>
      <trkpt lat="47.2771" lon="-2.26276">
        <ele>8</ele>
        <time>2021-05-23T09:31:44.983Z</time>
      </trkpt>
      <trkpt lat="47.27706" lon="-2.26279">
        <ele>8</ele>
        <time>2021-05-23T09:31:45.982Z</time>
      </trkpt>
      <trkpt lat="47.27704" lon="-2.26283">
        <ele>8</ele>
        <time>2021-05-23T09:31:46.983Z</time>
      </trkpt>
      <trkpt lat="47.27702" lon="-2.26286">
        <ele>8</ele>
        <time>2021-05-23T09:31:47.983Z</time>
      </trkpt>
      <trkpt lat="47.277" lon="-2.26288">
        <ele>8</ele>
        <time>2021-05-23T09:31:48.983Z</time>
      </trkpt>
      <trkpt lat="47.27698" lon="-2.26291">
        <ele>8</ele>
        <time>2021-05-23T09:31:49.982Z</time>
      </trkpt>
      <trkpt lat="47.27696" lon="-2.26295">
        <ele>9</ele>
        <time>2021-05-23T09:31:50.983Z</time>
      </trkpt>
      <trkpt lat="47.27694" lon="-2.26298">
        <ele>9</ele>
        <time>2021-05-23T09:31:51.983Z</time>
      </trkpt>
      <trkpt lat="47.27694" lon="-2.263">
        <ele>10</ele>
        <time>2021-05-23T09:31:52.982Z</time>
      </trkpt>
      <trkpt lat="47.27693" lon="-2.26303">
        <ele>10</ele>
        <time>2021-05-23T09:31:53.982Z</time>
      </trkpt>
      <trkpt lat="47.27691" lon="-2.26305">
        <ele>10</ele>
        <time>2021-05-23T09:31:54.983Z</time>
      </trkpt>
      <trkpt lat="47.27689" lon="-2.26307">
        <ele>11</ele>
        <time>2021-05-23T09:31:55.983Z</time>
      </trkpt>
      <trkpt lat="47.27688" lon="-2.26309">
        <ele>11</ele>
        <time>2021-05-23T09:31:56.983Z</time>
      </trkpt>
      <trkpt lat="47.27687" lon="-2.26312">
        <ele>11</ele>
        <time>2021-05-23T09:31:57.982Z</time>
      </trkpt>
      <trkpt lat="47.27686" lon="-2.26315">
        <ele>12</ele>
        <time>2021-05-23T09:31:58.983Z</time>
      </trkpt>
      <trkpt lat="47.27685" lon="-2.26318">
        <ele>12</ele>
        <time>2021-05-23T09:31:59.983Z</time>
      </trkpt>
      <trkpt lat="47.27683" lon="-2.2632">
        <ele>13</ele>
        <time>2021-05-23T09:32:00.983Z</time>
      </trkpt>
      <trkpt lat="47.27681" lon="-2.26323">
        <ele>13</ele>
        <time>2021-05-23T09:32:01.983Z</time>
      </trkpt>
      <trkpt lat="47.27679" lon="-2.26325">
        <ele>14</ele>
        <time>2021-05-23T09:32:02.982Z</time>
      </trkpt>
      <trkpt lat="47.27676" lon="-2.26327">
        <ele>14</ele>
        <time>2021-05-23T09:32:03.983Z</time>
      </trkpt>
      <trkpt lat="47.27675" lon="-2.2633">
        <ele>14</ele>
        <time>2021-05-23T09:32:04.983Z</time>
      </trkpt>
      <trkpt lat="47.27674" lon="-2.26334">
        <ele>14</ele>
        <time>2021-05-23T09:32:05.983Z</time>
      </trkpt>
      <trkpt lat="47.27673" lon="-2.26337">
        <ele>15</ele>
        <time>2021-05-23T09:32:06.983Z</time>
      </trkpt>
      <trkpt lat="47.27672" lon="-2.2634">
        <ele>15</ele>
        <time>2021-05-23T09:32:07.982Z</time>
      </trkpt>
      <trkpt lat="47.27671" lon="-2.26343">
        <ele>15</ele>
        <time>2021-05-23T09:32:08.982Z</time>
      </trkpt>
      <trkpt lat="47.2767" lon="-2.26346">
        <ele>16</ele>
        <time>2021-05-23T09:32:09.983Z</time>
      </trkpt>
      <trkpt lat="47.27669" lon="-2.26349">
        <ele>16</ele>
        <time>2021-05-23T09:32:10.983Z</time>
      </trkpt>
      <trkpt lat="47.27669" lon="-2.26351">
        <ele>16</ele>
        <time>2021-05-23T09:32:11.983Z</time>
      </trkpt>
      <trkpt lat="47.27669" lon="-2.26354">
        <ele>16</ele>
        <time>2021-05-23T09:32:12.982Z</time>
      </trkpt>
      <trkpt lat="47.2767" lon="-2.26357">
        <ele>16</ele>
        <time>2021-05-23T09:32:13.982Z</time>
      </trkpt>
      <trkpt lat="47.27671" lon="-2.26359">
        <ele>16</ele>
        <time>2021-05-23T09:32:14.982Z</time>
      </trkpt>
      <trkpt lat="47.27672" lon="-2.26362">
        <ele>15</ele>
        <time>2021-05-23T09:32:15.983Z</time>
      </trkpt>
      <trkpt lat="47.27673" lon="-2.26364">
        <ele>15</ele>
        <time>2021-05-23T09:32:16.983Z</time>
      </trkpt>
      <trkpt lat="47.27674" lon="-2.26367">
        <ele>15</ele>
        <time>2021-05-23T09:32:17.982Z</time>
      </trkpt>
      <trkpt lat="47.27675" lon="-2.2637">
        <ele>15</ele>
        <time>2021-05-23T09:32:18.983Z</time>
      </trkpt>
      <trkpt lat="47.27676" lon="-2.26373">
        <ele>15</ele>
        <time>2021-05-23T09:32:19.983Z</time>
      </trkpt>
      <trkpt lat="47.27678" lon="-2.26376">
        <ele>15</ele>
        <time>2021-05-23T09:32:20.983Z</time>
      </trkpt>
      <trkpt lat="47.27679" lon="-2.26379">
        <ele>14</ele>
        <time>2021-05-23T09:32:21.983Z</time>
      </trkpt>
      <trkpt lat="47.27681" lon="-2.26383">
        <ele>14</ele>
        <time>2021-05-23T09:32:22.982Z</time>
      </trkpt>
      <trkpt lat="47.27682" lon="-2.26386">
        <ele>14</ele>
        <time>2021-05-23T09:32:23.982Z</time>
      </trkpt>
      <trkpt lat="47.27684" lon="-2.26389">
        <ele>13</ele>
        <time>2021-05-23T09:32:24.983Z</time>
      </trkpt>
      <trkpt lat="47.27685" lon="-2.26393">
        <ele>13</ele>
        <time>2021-05-23T09:32:25.983Z</time>
      </trkpt>
      <trkpt lat="47.27686" lon="-2.26397">
        <ele>13</ele>
        <time>2021-05-23T09:32:26.982Z</time>
      </trkpt>
      <trkpt lat="47.27686" lon="-2.264">
        <ele>13</ele>
        <time>2021-05-23T09:32:27.982Z</time>
      </trkpt>
      <trkpt lat="47.27687" lon="-2.26404">
        <ele>12</ele>
        <time>2021-05-23T09:32:28.983Z</time>
      </trkpt>
      <trkpt lat="47.27688" lon="-2.26408">
        <ele>12</ele>
        <time>2021-05-23T09:32:29.983Z</time>
      </trkpt>
      <trkpt lat="47.27689" lon="-2.26411">
        <ele>13</ele>
        <time>2021-05-23T09:32:30.982Z</time>
      </trkpt>
      <trkpt lat="47.27691" lon="-2.26415">
        <ele>13</ele>
        <time>2021-05-23T09:32:31.982Z</time>
      </trkpt>
      <trkpt lat="47.27692" lon="-2.26418">
        <ele>13</ele>
        <time>2021-05-23T09:32:32.982Z</time>
      </trkpt>
      <trkpt lat="47.27693" lon="-2.2642">
        <ele>13</ele>
        <time>2021-05-23T09:32:33.983Z</time>
      </trkpt>
      <trkpt lat="47.27694" lon="-2.26422">
        <ele>13</ele>
        <time>2021-05-23T09:32:34.983Z</time>
      </trkpt>
      <trkpt lat="47.27694" lon="-2.26425">
        <ele>13</ele>
        <time>2021-05-23T09:32:35.983Z</time>
      </trkpt>
      <trkpt lat="47.27695" lon="-2.26428">
        <ele>13</ele>
        <time>2021-05-23T09:32:36.983Z</time>
      </trkpt>
      <trkpt lat="47.27696" lon="-2.2643">
        <ele>13</ele>
        <time>2021-05-23T09:32:37.983Z</time>
      </trkpt>
      <trkpt lat="47.27698" lon="-2.26433">
        <ele>13</ele>
        <time>2021-05-23T09:32:38.983Z</time>
      </trkpt>
      <trkpt lat="47.277" lon="-2.26436">
        <ele>13</ele>
        <time>2021-05-23T09:32:39.983Z</time>
      </trkpt>
      <trkpt lat="47.27701" lon="-2.26438">
        <ele>13</ele>
        <time>2021-05-23T09:32:40.983Z</time>
      </trkpt>
      <trkpt lat="47.27702" lon="-2.2644">
        <ele>13</ele>
        <time>2021-05-23T09:32:41.983Z</time>
      </trkpt>
      <trkpt lat="47.27703" lon="-2.26442">
        <ele>13</ele>
        <time>2021-05-23T09:32:42.983Z</time>
      </trkpt>
      <trkpt lat="47.27703" lon="-2.26444">
        <ele>12</ele>
        <time>2021-05-23T09:32:43.983Z</time>
      </trkpt>
      <trkpt lat="47.27704" lon="-2.26447">
        <ele>12</ele>
        <time>2021-05-23T09:32:44.983Z</time>
      </trkpt>
      <trkpt lat="47.27705" lon="-2.2645">
        <ele>12</ele>
        <time>2021-05-23T09:32:45.983Z</time>
      </trkpt>
      <trkpt lat="47.27706" lon="-2.26453">
        <ele>12</ele>
        <time>2021-05-23T09:32:46.982Z</time>
      </trkpt>
      <trkpt lat="47.27708" lon="-2.26456">
        <ele>12</ele>
        <time>2021-05-23T09:32:47.983Z</time>
      </trkpt>
      <trkpt lat="47.27709" lon="-2.26458">
        <ele>12</ele>
        <time>2021-05-23T09:32:48.983Z</time>
      </trkpt>
      <trkpt lat="47.2771" lon="-2.26461">
        <ele>12</ele>
        <time>2021-05-23T09:32:49.983Z</time>
      </trkpt>
      <trkpt lat="47.2771" lon="-2.26463">
        <ele>12</ele>
        <time>2021-05-23T09:32:50.982Z</time>
      </trkpt>
      <trkpt lat="47.27711" lon="-2.26466">
        <ele>12</ele>
        <time>2021-05-23T09:32:51.983Z</time>
      </trkpt>
      <trkpt lat="47.27712" lon="-2.26469">
        <ele>12</ele>
        <time>2021-05-23T09:32:52.983Z</time>
      </trkpt>
      <trkpt lat="47.27713" lon="-2.26472">
        <ele>12</ele>
        <time>2021-05-23T09:32:53.982Z</time>
      </trkpt>
      <trkpt lat="47.27715" lon="-2.26475">
        <ele>12</ele>
        <time>2021-05-23T09:32:54.983Z</time>
      </trkpt>
      <trkpt lat="47.27715" lon="-2.26479">
        <ele>12</ele>
        <time>2021-05-23T09:32:55.983Z</time>
      </trkpt>
      <trkpt lat="47.27717" lon="-2.26483">
        <ele>12</ele>
        <time>2021-05-23T09:32:56.983Z</time>
      </trkpt>
      <trkpt lat="47.27718" lon="-2.26487">
        <ele>13</ele>
        <time>2021-05-23T09:32:57.983Z</time>
      </trkpt>
      <trkpt lat="47.2772" lon="-2.2649">
        <ele>13</ele>
        <time>2021-05-23T09:32:58.983Z</time>
      </trkpt>
      <trkpt lat="47.27721" lon="-2.26493">
        <ele>14</ele>
        <time>2021-05-23T09:32:59.983Z</time>
      </trkpt>
      <trkpt lat="47.27722" lon="-2.26496">
        <ele>14</ele>
        <time>2021-05-23T09:33:00.983Z</time>
      </trkpt>
      <trkpt lat="47.27724" lon="-2.265">
        <ele>14</ele>
        <time>2021-05-23T09:33:01.983Z</time>
      </trkpt>
      <trkpt lat="47.27725" lon="-2.26503">
        <ele>14</ele>
        <time>2021-05-23T09:33:02.983Z</time>
      </trkpt>
      <trkpt lat="47.27727" lon="-2.26506">
        <ele>14</ele>
        <time>2021-05-23T09:33:03.982Z</time>
      </trkpt>
      <trkpt lat="47.27729" lon="-2.26508">
        <ele>14</ele>
        <time>2021-05-23T09:33:04.983Z</time>
      </trkpt>
      <trkpt lat="47.27731" lon="-2.2651">
        <ele>14</ele>
        <time>2021-05-23T09:33:05.983Z</time>
      </trkpt>
      <trkpt lat="47.27733" lon="-2.26512">
        <ele>14</ele>
        <time>2021-05-23T09:33:06.983Z</time>
      </trkpt>
      <trkpt lat="47.27734" lon="-2.26512">
        <ele>14</ele>
        <time>2021-05-23T09:33:07.982Z</time>
      </trkpt>
      <trkpt lat="47.27736" lon="-2.26513">
        <ele>14</ele>
        <time>2021-05-23T09:33:08.982Z</time>
      </trkpt>
      <trkpt lat="47.27738" lon="-2.26513">
        <ele>14</ele>
        <time>2021-05-23T09:33:09.982Z</time>
      </trkpt>
      <trkpt lat="47.27742" lon="-2.26513">
        <ele>14</ele>
        <time>2021-05-23T09:33:10.983Z</time>
      </trkpt>
      <trkpt lat="47.27745" lon="-2.26513">
        <ele>14</ele>
        <time>2021-05-23T09:33:11.982Z</time>
      </trkpt>
      <trkpt lat="47.27746" lon="-2.26513">
        <ele>14</ele>
        <time>2021-05-23T09:33:12.983Z</time>
      </trkpt>
      <trkpt lat="47.27747" lon="-2.26513">
        <ele>14</ele>
        <time>2021-05-23T09:33:13.982Z</time>
      </trkpt>
      <trkpt lat="47.27749" lon="-2.26513">
        <ele>14</ele>
        <time>2021-05-23T09:33:14.982Z</time>
      </trkpt>
      <trkpt lat="47.2775" lon="-2.26513">
        <ele>15</ele>
        <time>2021-05-23T09:33:15.983Z</time>
      </trkpt>
      <trkpt lat="47.27752" lon="-2.26512">
        <ele>15</ele>
        <time>2021-05-23T09:33:16.983Z</time>
      </trkpt>
      <trkpt lat="47.27753" lon="-2.26512">
        <ele>15</ele>
        <time>2021-05-23T09:33:17.983Z</time>
      </trkpt>
      <trkpt lat="47.27756" lon="-2.26511">
        <ele>15</ele>
        <time>2021-05-23T09:33:18.983Z</time>
      </trkpt>
      <trkpt lat="47.27757" lon="-2.26509">
        <ele>15</ele>
        <time>2021-05-23T09:33:19.982Z</time>
      </trkpt>
      <trkpt lat="47.2776" lon="-2.26508">
        <ele>15</ele>
        <time>2021-05-23T09:33:20.982Z</time>
      </trkpt>
      <trkpt lat="47.27762" lon="-2.26506">
        <ele>15</ele>
        <time>2021-05-23T09:33:21.983Z</time>
      </trkpt>
      <trkpt lat="47.27764" lon="-2.26505">
        <ele>15</ele>
        <time>2021-05-23T09:33:22.983Z</time>
      </trkpt>
      <trkpt lat="47.27766" lon="-2.26503">
        <ele>15</ele>
        <time>2021-05-23T09:33:23.983Z</time>
      </trkpt>
      <trkpt lat="47.27769" lon="-2.26501">
        <ele>15</ele>
        <time>2021-05-23T09:33:24.983Z</time>
      </trkpt>
      <trkpt lat="47.27771" lon="-2.26499">
        <ele>15</ele>
        <time>2021-05-23T09:33:25.983Z</time>
      </trkpt>
      <trkpt lat="47.27773" lon="-2.26496">
        <ele>15</ele>
        <time>2021-05-23T09:33:26.983Z</time>
      </trkpt>
      <trkpt lat="47.27775" lon="-2.26494">
        <ele>15</ele>
        <time>2021-05-23T09:33:27.983Z</time>
      </trkpt>
      <trkpt lat="47.27776" lon="-2.26491">
        <ele>15</ele>
        <time>2021-05-23T09:33:28.983Z</time>
      </trkpt>
      <trkpt lat="47.27776" lon="-2.26489">
        <ele>16</ele>
        <time>2021-05-23T09:33:29.983Z</time>
      </trkpt>
      <trkpt lat="47.27777" lon="-2.26486">
        <ele>16</ele>
        <time>2021-05-23T09:33:30.983Z</time>
      </trkpt>
      <trkpt lat="47.27777" lon="-2.26483">
        <ele>16</ele>
        <time>2021-05-23T09:33:31.982Z</time>
      </trkpt>
      <trkpt lat="47.27777" lon="-2.26481">
        <ele>16</ele>
        <time>2021-05-23T09:33:32.982Z</time>
      </trkpt>
      <trkpt lat="47.27778" lon="-2.26479">
        <ele>16</ele>
        <time>2021-05-23T09:33:33.982Z</time>
      </trkpt>
      <trkpt lat="47.27779" lon="-2.26477">
        <ele>16</ele>
        <time>2021-05-23T09:33:34.982Z</time>
      </trkpt>
      <trkpt lat="47.27781" lon="-2.26475">
        <ele>16</ele>
        <time>2021-05-23T09:33:35.983Z</time>
      </trkpt>
      <trkpt lat="47.27782" lon="-2.26474">
        <ele>16</ele>
        <time>2021-05-23T09:33:36.982Z</time>
      </trkpt>
      <trkpt lat="47.27783" lon="-2.26473">
        <ele>16</ele>
        <time>2021-05-23T09:33:37.983Z</time>
      </trkpt>
      <trkpt lat="47.27784" lon="-2.26471">
        <ele>16</ele>
        <time>2021-05-23T09:33:38.983Z</time>
      </trkpt>
      <trkpt lat="47.27786" lon="-2.2647">
        <ele>16</ele>
        <time>2021-05-23T09:33:39.982Z</time>
      </trkpt>
      <trkpt lat="47.27788" lon="-2.26469">
        <ele>16</ele>
        <time>2021-05-23T09:33:40.982Z</time>
      </trkpt>
      <trkpt lat="47.27791" lon="-2.26467">
        <ele>16</ele>
        <time>2021-05-23T09:33:41.982Z</time>
      </trkpt>
      <trkpt lat="47.27794" lon="-2.26464">
        <ele>16</ele>
        <time>2021-05-23T09:33:42.983Z</time>
      </trkpt>
      <trkpt lat="47.27796" lon="-2.26462">
        <ele>16</ele>
        <time>2021-05-23T09:33:43.983Z</time>
      </trkpt>
      <trkpt lat="47.27798" lon="-2.2646">
        <ele>16</ele>
        <time>2021-05-23T09:33:44.982Z</time>
      </trkpt>
      <trkpt lat="47.27799" lon="-2.26458">
        <ele>16</ele>
        <time>2021-05-23T09:33:45.982Z</time>
      </trkpt>
      <trkpt lat="47.278" lon="-2.26455">
        <ele>16</ele>
        <time>2021-05-23T09:33:46.982Z</time>
      </trkpt>
      <trkpt lat="47.27802" lon="-2.26452">
        <ele>16</ele>
        <time>2021-05-23T09:33:47.982Z</time>
      </trkpt>
      <trkpt lat="47.27805" lon="-2.26449">
        <ele>16</ele>
        <time>2021-05-23T09:33:48.982Z</time>
      </trkpt>
      <trkpt lat="47.27807" lon="-2.26446">
        <ele>16</ele>
        <time>2021-05-23T09:33:49.983Z</time>
      </trkpt>
      <trkpt lat="47.27809" lon="-2.26443">
        <ele>16</ele>
        <time>2021-05-23T09:33:50.983Z</time>
      </trkpt>
      <trkpt lat="47.27811" lon="-2.26441">
        <ele>16</ele>
        <time>2021-05-23T09:33:51.982Z</time>
      </trkpt>
      <trkpt lat="47.27813" lon="-2.26438">
        <ele>16</ele>
        <time>2021-05-23T09:33:52.982Z</time>
      </trkpt>
      <trkpt lat="47.27816" lon="-2.26434">
        <ele>16</ele>
        <time>2021-05-23T09:33:53.983Z</time>
      </trkpt>
      <trkpt lat="47.27818" lon="-2.2643">
        <ele>16</ele>
        <time>2021-05-23T09:33:54.983Z</time>
      </trkpt>
      <trkpt lat="47.2782" lon="-2.26427">
        <ele>16</ele>
        <time>2021-05-23T09:33:55.983Z</time>
      </trkpt>
      <trkpt lat="47.27821" lon="-2.26424">
        <ele>16</ele>
        <time>2021-05-23T09:33:56.983Z</time>
      </trkpt>
      <trkpt lat="47.27822" lon="-2.26421">
        <ele>16</ele>
        <time>2021-05-23T09:33:57.983Z</time>
      </trkpt>
      <trkpt lat="47.27824" lon="-2.26418">
        <ele>16</ele>
        <time>2021-05-23T09:33:58.983Z</time>
      </trkpt>
      <trkpt lat="47.27825" lon="-2.26415">
        <ele>16</ele>
        <time>2021-05-23T09:33:59.983Z</time>
      </trkpt>
      <trkpt lat="47.27827" lon="-2.26412">
        <ele>16</ele>
        <time>2021-05-23T09:34:00.983Z</time>
      </trkpt>
      <trkpt lat="47.27829" lon="-2.2641">
        <ele>16</ele>
        <time>2021-05-23T09:34:01.983Z</time>
      </trkpt>
      <trkpt lat="47.27831" lon="-2.26408">
        <ele>16</ele>
        <time>2021-05-23T09:34:02.983Z</time>
      </trkpt>
      <trkpt lat="47.27833" lon="-2.26405">
        <ele>16</ele>
        <time>2021-05-23T09:34:03.983Z</time>
      </trkpt>
      <trkpt lat="47.27835" lon="-2.26403">
        <ele>16</ele>
        <time>2021-05-23T09:34:04.983Z</time>
      </trkpt>
      <trkpt lat="47.27837" lon="-2.264">
        <ele>16</ele>
        <time>2021-05-23T09:34:05.983Z</time>
      </trkpt>
      <trkpt lat="47.27839" lon="-2.26398">
        <ele>16</ele>
        <time>2021-05-23T09:34:06.983Z</time>
      </trkpt>
      <trkpt lat="47.27841" lon="-2.26395">
        <ele>16</ele>
        <time>2021-05-23T09:34:07.983Z</time>
      </trkpt>
      <trkpt lat="47.27842" lon="-2.26392">
        <ele>16</ele>
        <time>2021-05-23T09:34:08.983Z</time>
      </trkpt>
      <trkpt lat="47.27844" lon="-2.26389">
        <ele>16</ele>
        <time>2021-05-23T09:34:09.983Z</time>
      </trkpt>
      <trkpt lat="47.27846" lon="-2.26386">
        <ele>16</ele>
        <time>2021-05-23T09:34:10.983Z</time>
      </trkpt>
      <trkpt lat="47.27847" lon="-2.26383">
        <ele>16</ele>
        <time>2021-05-23T09:34:11.982Z</time>
      </trkpt>
      <trkpt lat="47.27849" lon="-2.2638">
        <ele>16</ele>
        <time>2021-05-23T09:34:12.983Z</time>
      </trkpt>
      <trkpt lat="47.2785" lon="-2.26377">
        <ele>16</ele>
        <time>2021-05-23T09:34:13.983Z</time>
      </trkpt>
      <trkpt lat="47.27851" lon="-2.26374">
        <ele>16</ele>
        <time>2021-05-23T09:34:14.983Z</time>
      </trkpt>
      <trkpt lat="47.27852" lon="-2.26372">
        <ele>16</ele>
        <time>2021-05-23T09:34:15.983Z</time>
      </trkpt>
      <trkpt lat="47.27854" lon="-2.26369">
        <ele>16</ele>
        <time>2021-05-23T09:34:16.983Z</time>
      </trkpt>
      <trkpt lat="47.27855" lon="-2.26367">
        <ele>16</ele>
        <time>2021-05-23T09:34:17.983Z</time>
      </trkpt>
      <trkpt lat="47.27857" lon="-2.26365">
        <ele>16</ele>
        <time>2021-05-23T09:34:18.982Z</time>
      </trkpt>
      <trkpt lat="47.27859" lon="-2.26363">
        <ele>16</ele>
        <time>2021-05-23T09:34:19.983Z</time>
      </trkpt>
      <trkpt lat="47.27861" lon="-2.2636">
        <ele>15</ele>
        <time>2021-05-23T09:34:20.983Z</time>
      </trkpt>
      <trkpt lat="47.27863" lon="-2.26358">
        <ele>15</ele>
        <time>2021-05-23T09:34:21.983Z</time>
      </trkpt>
      <trkpt lat="47.27865" lon="-2.26355">
        <ele>15</ele>
        <time>2021-05-23T09:34:22.983Z</time>
      </trkpt>
      <trkpt lat="47.27868" lon="-2.26352">
        <ele>15</ele>
        <time>2021-05-23T09:34:23.983Z</time>
      </trkpt>
      <trkpt lat="47.2787" lon="-2.26348">
        <ele>15</ele>
        <time>2021-05-23T09:34:24.983Z</time>
      </trkpt>
      <trkpt lat="47.27872" lon="-2.26345">
        <ele>14</ele>
        <time>2021-05-23T09:34:25.982Z</time>
      </trkpt>
      <trkpt lat="47.27873" lon="-2.26342">
        <ele>14</ele>
        <time>2021-05-23T09:34:26.982Z</time>
      </trkpt>
      <trkpt lat="47.27873" lon="-2.26339">
        <ele>14</ele>
        <time>2021-05-23T09:34:27.983Z</time>
      </trkpt>
      <trkpt lat="47.27875" lon="-2.26337">
        <ele>14</ele>
        <time>2021-05-23T09:34:28.982Z</time>
      </trkpt>
      <trkpt lat="47.27876" lon="-2.26335">
        <ele>14</ele>
        <time>2021-05-23T09:34:29.982Z</time>
      </trkpt>
      <trkpt lat="47.27878" lon="-2.26332">
        <ele>14</ele>
        <time>2021-05-23T09:34:30.982Z</time>
      </trkpt>
      <trkpt lat="47.2788" lon="-2.26329">
        <ele>14</ele>
        <time>2021-05-23T09:34:31.982Z</time>
      </trkpt>
      <trkpt lat="47.27881" lon="-2.26327">
        <ele>13</ele>
        <time>2021-05-23T09:34:32.982Z</time>
      </trkpt>
      <trkpt lat="47.27883" lon="-2.26324">
        <ele>13</ele>
        <time>2021-05-23T09:34:33.983Z</time>
      </trkpt>
      <trkpt lat="47.27885" lon="-2.26322">
        <ele>13</ele>
        <time>2021-05-23T09:34:34.982Z</time>
      </trkpt>
      <trkpt lat="47.27886" lon="-2.26319">
        <ele>13</ele>
        <time>2021-05-23T09:34:35.982Z</time>
      </trkpt>
      <trkpt lat="47.27888" lon="-2.26316">
        <ele>13</ele>
        <time>2021-05-23T09:34:36.982Z</time>
      </trkpt>
      <trkpt lat="47.2789" lon="-2.26314">
        <ele>13</ele>
        <time>2021-05-23T09:34:37.983Z</time>
      </trkpt>
      <trkpt lat="47.27892" lon="-2.26311">
        <ele>13</ele>
        <time>2021-05-23T09:34:38.982Z</time>
      </trkpt>
      <trkpt lat="47.27895" lon="-2.26309">
        <ele>13</ele>
        <time>2021-05-23T09:34:39.982Z</time>
      </trkpt>
      <trkpt lat="47.27897" lon="-2.26307">
        <ele>13</ele>
        <time>2021-05-23T09:34:40.983Z</time>
      </trkpt>
      <trkpt lat="47.27899" lon="-2.26304">
        <ele>13</ele>
        <time>2021-05-23T09:34:41.982Z</time>
      </trkpt>
      <trkpt lat="47.27899" lon="-2.26302">
        <ele>13</ele>
        <time>2021-05-23T09:34:42.982Z</time>
      </trkpt>
      <trkpt lat="47.279" lon="-2.26299">
        <ele>13</ele>
        <time>2021-05-23T09:34:43.982Z</time>
      </trkpt>
      <trkpt lat="47.27902" lon="-2.26296">
        <ele>13</ele>
        <time>2021-05-23T09:34:44.982Z</time>
      </trkpt>
      <trkpt lat="47.27903" lon="-2.26293">
        <ele>13</ele>
        <time>2021-05-23T09:34:45.983Z</time>
      </trkpt>
      <trkpt lat="47.27905" lon="-2.2629">
        <ele>13</ele>
        <time>2021-05-23T09:34:46.982Z</time>
      </trkpt>
      <trkpt lat="47.27906" lon="-2.26287">
        <ele>13</ele>
        <time>2021-05-23T09:34:47.982Z</time>
      </trkpt>
      <trkpt lat="47.27908" lon="-2.26285">
        <ele>13</ele>
        <time>2021-05-23T09:34:48.982Z</time>
      </trkpt>
      <trkpt lat="47.2791" lon="-2.26282">
        <ele>13</ele>
        <time>2021-05-23T09:34:49.983Z</time>
      </trkpt>
      <trkpt lat="47.27911" lon="-2.26279">
        <ele>12</ele>
        <time>2021-05-23T09:34:50.982Z</time>
      </trkpt>
      <trkpt lat="47.27913" lon="-2.26277">
        <ele>12</ele>
        <time>2021-05-23T09:34:51.983Z</time>
      </trkpt>
      <trkpt lat="47.27914" lon="-2.26275">
        <ele>12</ele>
        <time>2021-05-23T09:34:52.982Z</time>
      </trkpt>
      <trkpt lat="47.27916" lon="-2.26272">
        <ele>12</ele>
        <time>2021-05-23T09:34:53.982Z</time>
      </trkpt>
      <trkpt lat="47.27917" lon="-2.2627">
        <ele>12</ele>
        <time>2021-05-23T09:34:54.983Z</time>
      </trkpt>
      <trkpt lat="47.27919" lon="-2.26268">
        <ele>12</ele>
        <time>2021-05-23T09:34:55.983Z</time>
      </trkpt>
      <trkpt lat="47.2792" lon="-2.26265">
        <ele>12</ele>
        <time>2021-05-23T09:34:56.983Z</time>
      </trkpt>
      <trkpt lat="47.27922" lon="-2.26262">
        <ele>12</ele>
        <time>2021-05-23T09:34:57.983Z</time>
      </trkpt>
      <trkpt lat="47.27922" lon="-2.26259">
        <ele>13</ele>
        <time>2021-05-23T09:34:58.983Z</time>
      </trkpt>
      <trkpt lat="47.27922" lon="-2.26255">
        <ele>13</ele>
        <time>2021-05-23T09:34:59.983Z</time>
      </trkpt>
      <trkpt lat="47.27923" lon="-2.26252">
        <ele>13</ele>
        <time>2021-05-23T09:35:00.982Z</time>
      </trkpt>
      <trkpt lat="47.27924" lon="-2.26249">
        <ele>13</ele>
        <time>2021-05-23T09:35:01.983Z</time>
      </trkpt>
      <trkpt lat="47.27924" lon="-2.26246">
        <ele>13</ele>
        <time>2021-05-23T09:35:02.983Z</time>
      </trkpt>
      <trkpt lat="47.27925" lon="-2.26242">
        <ele>13</ele>
        <time>2021-05-23T09:35:03.983Z</time>
      </trkpt>
      <trkpt lat="47.27926" lon="-2.2624">
        <ele>13</ele>
        <time>2021-05-23T09:35:04.983Z</time>
      </trkpt>
      <trkpt lat="47.27927" lon="-2.26237">
        <ele>13</ele>
        <time>2021-05-23T09:35:05.983Z</time>
      </trkpt>
      <trkpt lat="47.27928" lon="-2.26234">
        <ele>13</ele>
        <time>2021-05-23T09:35:06.983Z</time>
      </trkpt>
      <trkpt lat="47.27929" lon="-2.26231">
        <ele>13</ele>
        <time>2021-05-23T09:35:07.983Z</time>
      </trkpt>
      <trkpt lat="47.2793" lon="-2.26228">
        <ele>13</ele>
        <time>2021-05-23T09:35:08.982Z</time>
      </trkpt>
      <trkpt lat="47.27931" lon="-2.26225">
        <ele>14</ele>
        <time>2021-05-23T09:35:09.983Z</time>
      </trkpt>
      <trkpt lat="47.27933" lon="-2.26222">
        <ele>14</ele>
        <time>2021-05-23T09:35:10.983Z</time>
      </trkpt>
      <trkpt lat="47.27934" lon="-2.26218">
        <ele>14</ele>
        <time>2021-05-23T09:35:11.983Z</time>
      </trkpt>
      <trkpt lat="47.27935" lon="-2.26215">
        <ele>14</ele>
        <time>2021-05-23T09:35:12.983Z</time>
      </trkpt>
      <trkpt lat="47.27937" lon="-2.26211">
        <ele>14</ele>
        <time>2021-05-23T09:35:13.983Z</time>
      </trkpt>
      <trkpt lat="47.27937" lon="-2.26209">
        <ele>14</ele>
        <time>2021-05-23T09:35:14.983Z</time>
      </trkpt>
      <trkpt lat="47.27938" lon="-2.26206">
        <ele>14</ele>
        <time>2021-05-23T09:35:15.983Z</time>
      </trkpt>
      <trkpt lat="47.27939" lon="-2.26202">
        <ele>14</ele>
        <time>2021-05-23T09:35:16.982Z</time>
      </trkpt>
      <trkpt lat="47.27941" lon="-2.26199">
        <ele>14</ele>
        <time>2021-05-23T09:35:17.983Z</time>
      </trkpt>
      <trkpt lat="47.27942" lon="-2.26196">
        <ele>14</ele>
        <time>2021-05-23T09:35:18.982Z</time>
      </trkpt>
      <trkpt lat="47.27942" lon="-2.26194">
        <ele>15</ele>
        <time>2021-05-23T09:35:19.983Z</time>
      </trkpt>
      <trkpt lat="47.27943" lon="-2.26191">
        <ele>15</ele>
        <time>2021-05-23T09:35:20.983Z</time>
      </trkpt>
      <trkpt lat="47.27944" lon="-2.26188">
        <ele>15</ele>
        <time>2021-05-23T09:35:21.983Z</time>
      </trkpt>
      <trkpt lat="47.27945" lon="-2.26184">
        <ele>15</ele>
        <time>2021-05-23T09:35:22.982Z</time>
      </trkpt>
      <trkpt lat="47.27946" lon="-2.2618">
        <ele>15</ele>
        <time>2021-05-23T09:35:23.983Z</time>
      </trkpt>
      <trkpt lat="47.27945" lon="-2.26177">
        <ele>14</ele>
        <time>2021-05-23T09:35:24.983Z</time>
      </trkpt>
      <trkpt lat="47.27945" lon="-2.26173">
        <ele>14</ele>
        <time>2021-05-23T09:35:25.983Z</time>
      </trkpt>
      <trkpt lat="47.27945" lon="-2.26168">
        <ele>14</ele>
        <time>2021-05-23T09:35:26.983Z</time>
      </trkpt>
      <trkpt lat="47.27945" lon="-2.26164">
        <ele>14</ele>
        <time>2021-05-23T09:35:27.983Z</time>
      </trkpt>
      <trkpt lat="47.27946" lon="-2.2616">
        <ele>14</ele>
        <time>2021-05-23T09:35:28.983Z</time>
      </trkpt>
      <trkpt lat="47.27947" lon="-2.26157">
        <ele>14</ele>
        <time>2021-05-23T09:35:29.983Z</time>
      </trkpt>
      <trkpt lat="47.27948" lon="-2.26153">
        <ele>14</ele>
        <time>2021-05-23T09:35:30.983Z</time>
      </trkpt>
      <trkpt lat="47.27949" lon="-2.2615">
        <ele>14</ele>
        <time>2021-05-23T09:35:31.983Z</time>
      </trkpt>
      <trkpt lat="47.2795" lon="-2.26147">
        <ele>14</ele>
        <time>2021-05-23T09:35:32.983Z</time>
      </trkpt>
      <trkpt lat="47.27951" lon="-2.26143">
        <ele>14</ele>
        <time>2021-05-23T09:35:33.982Z</time>
      </trkpt>
      <trkpt lat="47.27951" lon="-2.2614">
        <ele>15</ele>
        <time>2021-05-23T09:35:34.983Z</time>
      </trkpt>
      <trkpt lat="47.27951" lon="-2.26137">
        <ele>14</ele>
        <time>2021-05-23T09:35:35.983Z</time>
      </trkpt>
      <trkpt lat="47.27951" lon="-2.26133">
        <ele>14</ele>
        <time>2021-05-23T09:35:36.982Z</time>
      </trkpt>
      <trkpt lat="47.27951" lon="-2.26131">
        <ele>14</ele>
        <time>2021-05-23T09:35:37.983Z</time>
      </trkpt>
      <trkpt lat="47.27952" lon="-2.26128">
        <ele>14</ele>
        <time>2021-05-23T09:35:38.983Z</time>
      </trkpt>
      <trkpt lat="47.27953" lon="-2.26124">
        <ele>14</ele>
        <time>2021-05-23T09:35:39.983Z</time>
      </trkpt>
      <trkpt lat="47.27953" lon="-2.26121">
        <ele>14</ele>
        <time>2021-05-23T09:35:40.983Z</time>
      </trkpt>
      <trkpt lat="47.27954" lon="-2.26118">
        <ele>14</ele>
        <time>2021-05-23T09:35:41.982Z</time>
      </trkpt>
      <trkpt lat="47.27954" lon="-2.26115">
        <ele>14</ele>
        <time>2021-05-23T09:35:42.983Z</time>
      </trkpt>
      <trkpt lat="47.27955" lon="-2.26111">
        <ele>14</ele>
        <time>2021-05-23T09:35:43.983Z</time>
      </trkpt>
      <trkpt lat="47.27955" lon="-2.26107">
        <ele>14</ele>
        <time>2021-05-23T09:35:44.983Z</time>
      </trkpt>
      <trkpt lat="47.27956" lon="-2.26103">
        <ele>14</ele>
        <time>2021-05-23T09:35:45.983Z</time>
      </trkpt>
      <trkpt lat="47.27957" lon="-2.26099">
        <ele>14</ele>
        <time>2021-05-23T09:35:46.982Z</time>
      </trkpt>
      <trkpt lat="47.27958" lon="-2.26096">
        <ele>14</ele>
        <time>2021-05-23T09:35:47.983Z</time>
      </trkpt>
      <trkpt lat="47.27959" lon="-2.26091">
        <ele>14</ele>
        <time>2021-05-23T09:35:48.983Z</time>
      </trkpt>
      <trkpt lat="47.2796" lon="-2.26087">
        <ele>14</ele>
        <time>2021-05-23T09:35:49.983Z</time>
      </trkpt>
      <trkpt lat="47.2796" lon="-2.26083">
        <ele>14</ele>
        <time>2021-05-23T09:35:50.983Z</time>
      </trkpt>
      <trkpt lat="47.2796" lon="-2.26078">
        <ele>14</ele>
        <time>2021-05-23T09:35:51.983Z</time>
      </trkpt>
      <trkpt lat="47.2796" lon="-2.26074">
        <ele>14</ele>
        <time>2021-05-23T09:35:52.983Z</time>
      </trkpt>
      <trkpt lat="47.27961" lon="-2.2607">
        <ele>14</ele>
        <time>2021-05-23T09:35:53.983Z</time>
      </trkpt>
      <trkpt lat="47.27962" lon="-2.26066">
        <ele>14</ele>
        <time>2021-05-23T09:35:54.983Z</time>
      </trkpt>
      <trkpt lat="47.27962" lon="-2.26062">
        <ele>15</ele>
        <time>2021-05-23T09:35:55.982Z</time>
      </trkpt>
      <trkpt lat="47.27963" lon="-2.26059">
        <ele>15</ele>
        <time>2021-05-23T09:35:56.983Z</time>
      </trkpt>
      <trkpt lat="47.27965" lon="-2.26055">
        <ele>15</ele>
        <time>2021-05-23T09:35:57.983Z</time>
      </trkpt>
      <trkpt lat="47.27966" lon="-2.26052">
        <ele>15</ele>
        <time>2021-05-23T09:35:58.983Z</time>
      </trkpt>
      <trkpt lat="47.27967" lon="-2.26049">
        <ele>15</ele>
        <time>2021-05-23T09:35:59.983Z</time>
      </trkpt>
      <trkpt lat="47.27968" lon="-2.26045">
        <ele>15</ele>
        <time>2021-05-23T09:36:00.982Z</time>
      </trkpt>
      <trkpt lat="47.27969" lon="-2.26041">
        <ele>15</ele>
        <time>2021-05-23T09:36:01.982Z</time>
      </trkpt>
      <trkpt lat="47.2797" lon="-2.26038">
        <ele>15</ele>
        <time>2021-05-23T09:36:02.982Z</time>
      </trkpt>
      <trkpt lat="47.27971" lon="-2.26035">
        <ele>15</ele>
        <time>2021-05-23T09:36:03.982Z</time>
      </trkpt>
      <trkpt lat="47.27972" lon="-2.26031">
        <ele>15</ele>
        <time>2021-05-23T09:36:04.982Z</time>
      </trkpt>
      <trkpt lat="47.27972" lon="-2.26028">
        <ele>15</ele>
        <time>2021-05-23T09:36:05.983Z</time>
      </trkpt>
      <trkpt lat="47.27973" lon="-2.26024">
        <ele>14</ele>
        <time>2021-05-23T09:36:06.982Z</time>
      </trkpt>
      <trkpt lat="47.27974" lon="-2.2602">
        <ele>14</ele>
        <time>2021-05-23T09:36:07.983Z</time>
      </trkpt>
      <trkpt lat="47.27974" lon="-2.26017">
        <ele>14</ele>
        <time>2021-05-23T09:36:08.983Z</time>
      </trkpt>
      <trkpt lat="47.27974" lon="-2.26014">
        <ele>14</ele>
        <time>2021-05-23T09:36:09.983Z</time>
      </trkpt>
      <trkpt lat="47.27975" lon="-2.2601">
        <ele>14</ele>
        <time>2021-05-23T09:36:10.982Z</time>
      </trkpt>
      <trkpt lat="47.27975" lon="-2.26007">
        <ele>14</ele>
        <time>2021-05-23T09:36:11.982Z</time>
      </trkpt>
      <trkpt lat="47.27976" lon="-2.26003">
        <ele>14</ele>
        <time>2021-05-23T09:36:12.983Z</time>
      </trkpt>
      <trkpt lat="47.27977" lon="-2.25999">
        <ele>14</ele>
        <time>2021-05-23T09:36:13.983Z</time>
      </trkpt>
      <trkpt lat="47.27977" lon="-2.25996">
        <ele>14</ele>
        <time>2021-05-23T09:36:14.983Z</time>
      </trkpt>
      <trkpt lat="47.27978" lon="-2.25991">
        <ele>14</ele>
        <time>2021-05-23T09:36:15.983Z</time>
      </trkpt>
      <trkpt lat="47.27978" lon="-2.25988">
        <ele>14</ele>
        <time>2021-05-23T09:36:16.983Z</time>
      </trkpt>
      <trkpt lat="47.27978" lon="-2.25984">
        <ele>14</ele>
        <time>2021-05-23T09:36:17.983Z</time>
      </trkpt>
      <trkpt lat="47.27979" lon="-2.2598">
        <ele>14</ele>
        <time>2021-05-23T09:36:18.983Z</time>
      </trkpt>
      <trkpt lat="47.2798" lon="-2.25977">
        <ele>14</ele>
        <time>2021-05-23T09:36:19.983Z</time>
      </trkpt>
      <trkpt lat="47.27981" lon="-2.25974">
        <ele>14</ele>
        <time>2021-05-23T09:36:20.983Z</time>
      </trkpt>
      <trkpt lat="47.27983" lon="-2.25971">
        <ele>14</ele>
        <time>2021-05-23T09:36:21.983Z</time>
      </trkpt>
      <trkpt lat="47.27984" lon="-2.25967">
        <ele>14</ele>
        <time>2021-05-23T09:36:22.983Z</time>
      </trkpt>
      <trkpt lat="47.27986" lon="-2.25964">
        <ele>14</ele>
        <time>2021-05-23T09:36:23.983Z</time>
      </trkpt>
      <trkpt lat="47.27988" lon="-2.25961">
        <ele>14</ele>
        <time>2021-05-23T09:36:24.983Z</time>
      </trkpt>
      <trkpt lat="47.2799" lon="-2.25958">
        <ele>14</ele>
        <time>2021-05-23T09:36:25.982Z</time>
      </trkpt>
      <trkpt lat="47.27992" lon="-2.25955">
        <ele>14</ele>
        <time>2021-05-23T09:36:26.983Z</time>
      </trkpt>
      <trkpt lat="47.27993" lon="-2.25952">
        <ele>14</ele>
        <time>2021-05-23T09:36:27.982Z</time>
      </trkpt>
      <trkpt lat="47.27994" lon="-2.25949">
        <ele>14</ele>
        <time>2021-05-23T09:36:28.983Z</time>
      </trkpt>
      <trkpt lat="47.27994" lon="-2.25947">
        <ele>15</ele>
        <time>2021-05-23T09:36:29.983Z</time>
      </trkpt>
      <trkpt lat="47.27995" lon="-2.25943">
        <ele>15</ele>
        <time>2021-05-23T09:36:30.983Z</time>
      </trkpt>
      <trkpt lat="47.27997" lon="-2.25941">
        <ele>15</ele>
        <time>2021-05-23T09:36:31.982Z</time>
      </trkpt>
      <trkpt lat="47.27998" lon="-2.25938">
        <ele>15</ele>
        <time>2021-05-23T09:36:32.982Z</time>
      </trkpt>
      <trkpt lat="47.28" lon="-2.25936">
        <ele>15</ele>
        <time>2021-05-23T09:36:33.983Z</time>
      </trkpt>
      <trkpt lat="47.28" lon="-2.25934">
        <ele>15</ele>
        <time>2021-05-23T09:36:34.983Z</time>
      </trkpt>
      <trkpt lat="47.28001" lon="-2.25931">
        <ele>15</ele>
        <time>2021-05-23T09:36:35.983Z</time>
      </trkpt>
      <trkpt lat="47.28003" lon="-2.25928">
        <ele>15</ele>
        <time>2021-05-23T09:36:36.983Z</time>
      </trkpt>
      <trkpt lat="47.28003" lon="-2.25925">
        <ele>15</ele>
        <time>2021-05-23T09:36:37.983Z</time>
      </trkpt>
      <trkpt lat="47.28004" lon="-2.25923">
        <ele>15</ele>
        <time>2021-05-23T09:36:38.983Z</time>
      </trkpt>
      <trkpt lat="47.28006" lon="-2.2592">
        <ele>15</ele>
        <time>2021-05-23T09:36:39.983Z</time>
      </trkpt>
      <trkpt lat="47.28008" lon="-2.25917">
        <ele>15</ele>
        <time>2021-05-23T09:36:40.982Z</time>
      </trkpt>
      <trkpt lat="47.28009" lon="-2.25915">
        <ele>15</ele>
        <time>2021-05-23T09:36:41.983Z</time>
      </trkpt>
      <trkpt lat="47.2801" lon="-2.25913">
        <ele>15</ele>
        <time>2021-05-23T09:36:42.983Z</time>
      </trkpt>
      <trkpt lat="47.28011" lon="-2.25912">
        <ele>15</ele>
        <time>2021-05-23T09:36:43.983Z</time>
      </trkpt>
      <trkpt lat="47.28013" lon="-2.2591">
        <ele>16</ele>
        <time>2021-05-23T09:36:44.983Z</time>
      </trkpt>
      <trkpt lat="47.28015" lon="-2.25908">
        <ele>16</ele>
        <time>2021-05-23T09:36:45.983Z</time>
      </trkpt>
      <trkpt lat="47.28017" lon="-2.25906">
        <ele>16</ele>
        <time>2021-05-23T09:36:46.982Z</time>
      </trkpt>
      <trkpt lat="47.28019" lon="-2.25903">
        <ele>16</ele>
        <time>2021-05-23T09:36:47.982Z</time>
      </trkpt>
      <trkpt lat="47.28021" lon="-2.25901">
        <ele>16</ele>
        <time>2021-05-23T09:36:48.983Z</time>
      </trkpt>
      <trkpt lat="47.28023" lon="-2.25898">
        <ele>16</ele>
        <time>2021-05-23T09:36:49.983Z</time>
      </trkpt>
      <trkpt lat="47.28025" lon="-2.25895">
        <ele>16</ele>
        <time>2021-05-23T09:36:50.982Z</time>
      </trkpt>
      <trkpt lat="47.28026" lon="-2.25892">
        <ele>16</ele>
        <time>2021-05-23T09:36:51.982Z</time>
      </trkpt>
      <trkpt lat="47.28028" lon="-2.2589">
        <ele>16</ele>
        <time>2021-05-23T09:36:52.983Z</time>
      </trkpt>
      <trkpt lat="47.28029" lon="-2.25887">
        <ele>16</ele>
        <time>2021-05-23T09:36:53.983Z</time>
      </trkpt>
      <trkpt lat="47.2803" lon="-2.25885">
        <ele>16</ele>
        <time>2021-05-23T09:36:54.983Z</time>
      </trkpt>
      <trkpt lat="47.28032" lon="-2.25883">
        <ele>16</ele>
        <time>2021-05-23T09:36:55.983Z</time>
      </trkpt>
      <trkpt lat="47.28033" lon="-2.2588">
        <ele>16</ele>
        <time>2021-05-23T09:36:56.983Z</time>
      </trkpt>
      <trkpt lat="47.28035" lon="-2.25878">
        <ele>16</ele>
        <time>2021-05-23T09:36:57.983Z</time>
      </trkpt>
      <trkpt lat="47.28036" lon="-2.25875">
        <ele>16</ele>
        <time>2021-05-23T09:36:58.983Z</time>
      </trkpt>
      <trkpt lat="47.28037" lon="-2.25873">
        <ele>16</ele>
        <time>2021-05-23T09:36:59.982Z</time>
      </trkpt>
      <trkpt lat="47.28039" lon="-2.25871">
        <ele>16</ele>
        <time>2021-05-23T09:37:00.983Z</time>
      </trkpt>
      <trkpt lat="47.28041" lon="-2.25869">
        <ele>16</ele>
        <time>2021-05-23T09:37:01.983Z</time>
      </trkpt>
      <trkpt lat="47.28043" lon="-2.25867">
        <ele>16</ele>
        <time>2021-05-23T09:37:02.983Z</time>
      </trkpt>
      <trkpt lat="47.28045" lon="-2.25864">
        <ele>16</ele>
        <time>2021-05-23T09:37:03.983Z</time>
      </trkpt>
      <trkpt lat="47.28047" lon="-2.25862">
        <ele>16</ele>
        <time>2021-05-23T09:37:04.983Z</time>
      </trkpt>
      <trkpt lat="47.28048" lon="-2.25859">
        <ele>16</ele>
        <time>2021-05-23T09:37:05.982Z</time>
      </trkpt>
      <trkpt lat="47.28049" lon="-2.25857">
        <ele>16</ele>
        <time>2021-05-23T09:37:06.983Z</time>
      </trkpt>
      <trkpt lat="47.2805" lon="-2.25855">
        <ele>16</ele>
        <time>2021-05-23T09:37:07.983Z</time>
      </trkpt>
      <trkpt lat="47.28052" lon="-2.25853">
        <ele>16</ele>
        <time>2021-05-23T09:37:08.983Z</time>
      </trkpt>
      <trkpt lat="47.28054" lon="-2.25851">
        <ele>16</ele>
        <time>2021-05-23T09:37:09.982Z</time>
      </trkpt>
      <trkpt lat="47.28055" lon="-2.25849">
        <ele>16</ele>
        <time>2021-05-23T09:37:10.982Z</time>
      </trkpt>
      <trkpt lat="47.28057" lon="-2.25847">
        <ele>16</ele>
        <time>2021-05-23T09:37:11.982Z</time>
      </trkpt>
      <trkpt lat="47.28059" lon="-2.25844">
        <ele>16</ele>
        <time>2021-05-23T09:37:12.982Z</time>
      </trkpt>
      <trkpt lat="47.2806" lon="-2.25841">
        <ele>16</ele>
        <time>2021-05-23T09:37:13.982Z</time>
      </trkpt>
      <trkpt lat="47.28061" lon="-2.25838">
        <ele>16</ele>
        <time>2021-05-23T09:37:14.983Z</time>
      </trkpt>
      <trkpt lat="47.28063" lon="-2.25836">
        <ele>16</ele>
        <time>2021-05-23T09:37:15.983Z</time>
      </trkpt>
      <trkpt lat="47.28064" lon="-2.25833">
        <ele>16</ele>
        <time>2021-05-23T09:37:16.983Z</time>
      </trkpt>
      <trkpt lat="47.28067" lon="-2.2583">
        <ele>16</ele>
        <time>2021-05-23T09:37:17.983Z</time>
      </trkpt>
      <trkpt lat="47.28069" lon="-2.25827">
        <ele>16</ele>
        <time>2021-05-23T09:37:18.983Z</time>
      </trkpt>
      <trkpt lat="47.28072" lon="-2.25824">
        <ele>16</ele>
        <time>2021-05-23T09:37:19.983Z</time>
      </trkpt>
      <trkpt lat="47.28074" lon="-2.25821">
        <ele>16</ele>
        <time>2021-05-23T09:37:20.983Z</time>
      </trkpt>
      <trkpt lat="47.28077" lon="-2.25819">
        <ele>16</ele>
        <time>2021-05-23T09:37:21.983Z</time>
      </trkpt>
      <trkpt lat="47.28079" lon="-2.25817">
        <ele>16</ele>
        <time>2021-05-23T09:37:22.983Z</time>
      </trkpt>
      <trkpt lat="47.28082" lon="-2.25815">
        <ele>16</ele>
        <time>2021-05-23T09:37:23.982Z</time>
      </trkpt>
      <trkpt lat="47.28083" lon="-2.25812">
        <ele>16</ele>
        <time>2021-05-23T09:37:24.982Z</time>
      </trkpt>
      <trkpt lat="47.28085" lon="-2.25809">
        <ele>16</ele>
        <time>2021-05-23T09:37:25.983Z</time>
      </trkpt>
      <trkpt lat="47.28087" lon="-2.25806">
        <ele>16</ele>
        <time>2021-05-23T09:37:26.983Z</time>
      </trkpt>
      <trkpt lat="47.28089" lon="-2.25804">
        <ele>16</ele>
        <time>2021-05-23T09:37:27.983Z</time>
      </trkpt>
      <trkpt lat="47.2809" lon="-2.25801">
        <ele>17</ele>
        <time>2021-05-23T09:37:28.983Z</time>
      </trkpt>
      <trkpt lat="47.28092" lon="-2.25798">
        <ele>17</ele>
        <time>2021-05-23T09:37:29.983Z</time>
      </trkpt>
      <trkpt lat="47.28094" lon="-2.25795">
        <ele>17</ele>
        <time>2021-05-23T09:37:30.983Z</time>
      </trkpt>
      <trkpt lat="47.28096" lon="-2.25791">
        <ele>17</ele>
        <time>2021-05-23T09:37:31.983Z</time>
      </trkpt>
      <trkpt lat="47.28098" lon="-2.25788">
        <ele>17</ele>
        <time>2021-05-23T09:37:32.982Z</time>
      </trkpt>
      <trkpt lat="47.281" lon="-2.25785">
        <ele>17</ele>
        <time>2021-05-23T09:37:33.983Z</time>
      </trkpt>
      <trkpt lat="47.28101" lon="-2.25782">
        <ele>17</ele>
        <time>2021-05-23T09:37:34.982Z</time>
      </trkpt>
      <trkpt lat="47.28101" lon="-2.25777">
        <ele>17</ele>
        <time>2021-05-23T09:37:35.983Z</time>
      </trkpt>
      <trkpt lat="47.28101" lon="-2.25773">
        <ele>16</ele>
        <time>2021-05-23T09:37:36.983Z</time>
      </trkpt>
      <trkpt lat="47.28101" lon="-2.25769">
        <ele>16</ele>
        <time>2021-05-23T09:37:37.982Z</time>
      </trkpt>
      <trkpt lat="47.28101" lon="-2.25764">
        <ele>16</ele>
        <time>2021-05-23T09:37:38.983Z</time>
      </trkpt>
      <trkpt lat="47.28101" lon="-2.25761">
        <ele>16</ele>
        <time>2021-05-23T09:37:39.983Z</time>
      </trkpt>
      <trkpt lat="47.28101" lon="-2.25758">
        <ele>16</ele>
        <time>2021-05-23T09:37:40.983Z</time>
      </trkpt>
      <trkpt lat="47.28102" lon="-2.25755">
        <ele>16</ele>
        <time>2021-05-23T09:37:41.983Z</time>
      </trkpt>
      <trkpt lat="47.28102" lon="-2.25753">
        <ele>16</ele>
        <time>2021-05-23T09:37:42.983Z</time>
      </trkpt>
      <trkpt lat="47.28102" lon="-2.2575">
        <ele>16</ele>
        <time>2021-05-23T09:37:43.982Z</time>
      </trkpt>
      <trkpt lat="47.28102" lon="-2.25747">
        <ele>16</ele>
        <time>2021-05-23T09:37:44.983Z</time>
      </trkpt>
      <trkpt lat="47.28102" lon="-2.25744">
        <ele>16</ele>
        <time>2021-05-23T09:37:45.982Z</time>
      </trkpt>
      <trkpt lat="47.28102" lon="-2.25741">
        <ele>16</ele>
        <time>2021-05-23T09:37:46.983Z</time>
      </trkpt>
      <trkpt lat="47.28102" lon="-2.25738">
        <ele>16</ele>
        <time>2021-05-23T09:37:47.982Z</time>
      </trkpt>
      <trkpt lat="47.28102" lon="-2.25735">
        <ele>16</ele>
        <time>2021-05-23T09:37:48.982Z</time>
      </trkpt>
      <trkpt lat="47.28102" lon="-2.25733">
        <ele>15</ele>
        <time>2021-05-23T09:37:49.983Z</time>
      </trkpt>
      <trkpt lat="47.28102" lon="-2.25731">
        <ele>15</ele>
        <time>2021-05-23T09:37:50.983Z</time>
      </trkpt>
      <trkpt lat="47.28103" lon="-2.25728">
        <ele>15</ele>
        <time>2021-05-23T09:37:51.983Z</time>
      </trkpt>
      <trkpt lat="47.28103" lon="-2.25726">
        <ele>14</ele>
        <time>2021-05-23T09:37:52.983Z</time>
      </trkpt>
      <trkpt lat="47.28104" lon="-2.25724">
        <ele>14</ele>
        <time>2021-05-23T09:37:53.983Z</time>
      </trkpt>
      <trkpt lat="47.28104" lon="-2.25721">
        <ele>14</ele>
        <time>2021-05-23T09:37:54.982Z</time>
      </trkpt>
      <trkpt lat="47.28104" lon="-2.25718">
        <ele>13</ele>
        <time>2021-05-23T09:37:55.983Z</time>
      </trkpt>
      <trkpt lat="47.28103" lon="-2.25714">
        <ele>13</ele>
        <time>2021-05-23T09:37:56.983Z</time>
      </trkpt>
      <trkpt lat="47.28103" lon="-2.2571">
        <ele>13</ele>
        <time>2021-05-23T09:37:57.983Z</time>
      </trkpt>
      <trkpt lat="47.28103" lon="-2.25707">
        <ele>13</ele>
        <time>2021-05-23T09:37:58.983Z</time>
      </trkpt>
      <trkpt lat="47.28103" lon="-2.25703">
        <ele>13</ele>
        <time>2021-05-23T09:37:59.983Z</time>
      </trkpt>
      <trkpt lat="47.28103" lon="-2.25699">
        <ele>13</ele>
        <time>2021-05-23T09:38:00.982Z</time>
      </trkpt>
      <trkpt lat="47.28103" lon="-2.25696">
        <ele>13</ele>
        <time>2021-05-23T09:38:01.983Z</time>
      </trkpt>
      <trkpt lat="47.28104" lon="-2.25692">
        <ele>13</ele>
        <time>2021-05-23T09:38:02.982Z</time>
      </trkpt>
      <trkpt lat="47.28105" lon="-2.25688">
        <ele>13</ele>
        <time>2021-05-23T09:38:03.983Z</time>
      </trkpt>
      <trkpt lat="47.28105" lon="-2.25684">
        <ele>14</ele>
        <time>2021-05-23T09:38:04.983Z</time>
      </trkpt>
      <trkpt lat="47.28105" lon="-2.2568">
        <ele>14</ele>
        <time>2021-05-23T09:38:05.982Z</time>
      </trkpt>
      <trkpt lat="47.28105" lon="-2.25677">
        <ele>14</ele>
        <time>2021-05-23T09:38:06.983Z</time>
      </trkpt>
      <trkpt lat="47.28106" lon="-2.25673">
        <ele>14</ele>
        <time>2021-05-23T09:38:07.983Z</time>
      </trkpt>
      <trkpt lat="47.28105" lon="-2.2567">
        <ele>14</ele>
        <time>2021-05-23T09:38:08.983Z</time>
      </trkpt>
      <trkpt lat="47.28105" lon="-2.25666">
        <ele>14</ele>
        <time>2021-05-23T09:38:09.983Z</time>
      </trkpt>
      <trkpt lat="47.28105" lon="-2.25664">
        <ele>14</ele>
        <time>2021-05-23T09:38:10.983Z</time>
      </trkpt>
      <trkpt lat="47.28105" lon="-2.2566">
        <ele>14</ele>
        <time>2021-05-23T09:38:11.982Z</time>
      </trkpt>
      <trkpt lat="47.28106" lon="-2.25656">
        <ele>14</ele>
        <time>2021-05-23T09:38:12.982Z</time>
      </trkpt>
      <trkpt lat="47.28105" lon="-2.25652">
        <ele>14</ele>
        <time>2021-05-23T09:38:13.983Z</time>
      </trkpt>
      <trkpt lat="47.28104" lon="-2.25649">
        <ele>14</ele>
        <time>2021-05-23T09:38:14.983Z</time>
      </trkpt>
      <trkpt lat="47.28105" lon="-2.25646">
        <ele>14</ele>
        <time>2021-05-23T09:38:15.982Z</time>
      </trkpt>
      <trkpt lat="47.28105" lon="-2.25643">
        <ele>15</ele>
        <time>2021-05-23T09:38:16.982Z</time>
      </trkpt>
      <trkpt lat="47.28105" lon="-2.2564">
        <ele>15</ele>
        <time>2021-05-23T09:38:17.983Z</time>
      </trkpt>
      <trkpt lat="47.28106" lon="-2.25637">
        <ele>15</ele>
        <time>2021-05-23T09:38:18.982Z</time>
      </trkpt>
      <trkpt lat="47.28106" lon="-2.25633">
        <ele>15</ele>
        <time>2021-05-23T09:38:19.983Z</time>
      </trkpt>
      <trkpt lat="47.28107" lon="-2.2563">
        <ele>15</ele>
        <time>2021-05-23T09:38:20.983Z</time>
      </trkpt>
      <trkpt lat="47.28107" lon="-2.25626">
        <ele>16</ele>
        <time>2021-05-23T09:38:21.982Z</time>
      </trkpt>
      <trkpt lat="47.28107" lon="-2.25623">
        <ele>16</ele>
        <time>2021-05-23T09:38:22.983Z</time>
      </trkpt>
      <trkpt lat="47.28106" lon="-2.25619">
        <ele>16</ele>
        <time>2021-05-23T09:38:23.983Z</time>
      </trkpt>
      <trkpt lat="47.28107" lon="-2.25616">
        <ele>16</ele>
        <time>2021-05-23T09:38:24.983Z</time>
      </trkpt>
      <trkpt lat="47.28107" lon="-2.25613">
        <ele>15</ele>
        <time>2021-05-23T09:38:25.982Z</time>
      </trkpt>
      <trkpt lat="47.28107" lon="-2.25611">
        <ele>15</ele>
        <time>2021-05-23T09:38:26.983Z</time>
      </trkpt>
      <trkpt lat="47.28106" lon="-2.25608">
        <ele>15</ele>
        <time>2021-05-23T09:38:27.983Z</time>
      </trkpt>
      <trkpt lat="47.28107" lon="-2.25606">
        <ele>15</ele>
        <time>2021-05-23T09:38:28.982Z</time>
      </trkpt>
      <trkpt lat="47.28107" lon="-2.25603">
        <ele>15</ele>
        <time>2021-05-23T09:38:29.983Z</time>
      </trkpt>
      <trkpt lat="47.28107" lon="-2.256">
        <ele>15</ele>
        <time>2021-05-23T09:38:30.983Z</time>
      </trkpt>
      <trkpt lat="47.28107" lon="-2.25597">
        <ele>15</ele>
        <time>2021-05-23T09:38:31.982Z</time>
      </trkpt>
      <trkpt lat="47.28107" lon="-2.25592">
        <ele>15</ele>
        <time>2021-05-23T09:38:32.982Z</time>
      </trkpt>
      <trkpt lat="47.28107" lon="-2.25587">
        <ele>15</ele>
        <time>2021-05-23T09:38:33.983Z</time>
      </trkpt>
      <trkpt lat="47.28107" lon="-2.25583">
        <ele>15</ele>
        <time>2021-05-23T09:38:34.983Z</time>
      </trkpt>
      <trkpt lat="47.28107" lon="-2.25577">
        <ele>15</ele>
        <time>2021-05-23T09:38:35.983Z</time>
      </trkpt>
      <trkpt lat="47.28107" lon="-2.25574">
        <ele>14</ele>
        <time>2021-05-23T09:38:36.983Z</time>
      </trkpt>
      <trkpt lat="47.28107" lon="-2.25571">
        <ele>14</ele>
        <time>2021-05-23T09:38:37.983Z</time>
      </trkpt>
      <trkpt lat="47.28107" lon="-2.25568">
        <ele>14</ele>
        <time>2021-05-23T09:38:38.983Z</time>
      </trkpt>
      <trkpt lat="47.28107" lon="-2.25563">
        <ele>14</ele>
        <time>2021-05-23T09:38:39.982Z</time>
      </trkpt>
      <trkpt lat="47.28106" lon="-2.25559">
        <ele>14</ele>
        <time>2021-05-23T09:38:40.983Z</time>
      </trkpt>
      <trkpt lat="47.28106" lon="-2.25555">
        <ele>13</ele>
        <time>2021-05-23T09:38:41.983Z</time>
      </trkpt>
      <trkpt lat="47.28106" lon="-2.25552">
        <ele>13</ele>
        <time>2021-05-23T09:38:42.983Z</time>
      </trkpt>
      <trkpt lat="47.28105" lon="-2.25549">
        <ele>13</ele>
        <time>2021-05-23T09:38:43.983Z</time>
      </trkpt>
      <trkpt lat="47.28105" lon="-2.25546">
        <ele>13</ele>
        <time>2021-05-23T09:38:44.983Z</time>
      </trkpt>
      <trkpt lat="47.28105" lon="-2.25543">
        <ele>13</ele>
        <time>2021-05-23T09:38:45.983Z</time>
      </trkpt>
      <trkpt lat="47.28104" lon="-2.25539">
        <ele>12</ele>
        <time>2021-05-23T09:38:46.982Z</time>
      </trkpt>
      <trkpt lat="47.28103" lon="-2.25535">
        <ele>12</ele>
        <time>2021-05-23T09:38:47.982Z</time>
      </trkpt>
      <trkpt lat="47.28103" lon="-2.25531">
        <ele>12</ele>
        <time>2021-05-23T09:38:48.982Z</time>
      </trkpt>
      <trkpt lat="47.28103" lon="-2.25526">
        <ele>12</ele>
        <time>2021-05-23T09:38:49.983Z</time>
      </trkpt>
      <trkpt lat="47.28102" lon="-2.25522">
        <ele>12</ele>
        <time>2021-05-23T09:38:50.983Z</time>
      </trkpt>
      <trkpt lat="47.28102" lon="-2.25518">
        <ele>12</ele>
        <time>2021-05-23T09:38:51.982Z</time>
      </trkpt>
      <trkpt lat="47.28102" lon="-2.25514">
        <ele>12</ele>
        <time>2021-05-23T09:38:52.983Z</time>
      </trkpt>
      <trkpt lat="47.28101" lon="-2.2551">
        <ele>12</ele>
        <time>2021-05-23T09:38:53.983Z</time>
      </trkpt>
      <trkpt lat="47.281" lon="-2.25506">
        <ele>12</ele>
        <time>2021-05-23T09:38:54.982Z</time>
      </trkpt>
      <trkpt lat="47.28099" lon="-2.25503">
        <ele>12</ele>
        <time>2021-05-23T09:38:55.982Z</time>
      </trkpt>
      <trkpt lat="47.28099" lon="-2.255">
        <ele>13</ele>
        <time>2021-05-23T09:38:56.982Z</time>
      </trkpt>
      <trkpt lat="47.28098" lon="-2.25496">
        <ele>13</ele>
        <time>2021-05-23T09:38:57.983Z</time>
      </trkpt>
      <trkpt lat="47.28096" lon="-2.25492">
        <ele>13</ele>
        <time>2021-05-23T09:38:58.983Z</time>
      </trkpt>
      <trkpt lat="47.28096" lon="-2.25488">
        <ele>13</ele>
        <time>2021-05-23T09:38:59.982Z</time>
      </trkpt>
      <trkpt lat="47.28095" lon="-2.25484">
        <ele>14</ele>
        <time>2021-05-23T09:39:00.983Z</time>
      </trkpt>
      <trkpt lat="47.28094" lon="-2.2548">
        <ele>14</ele>
        <time>2021-05-23T09:39:01.982Z</time>
      </trkpt>
      <trkpt lat="47.28093" lon="-2.25476">
        <ele>14</ele>
        <time>2021-05-23T09:39:02.983Z</time>
      </trkpt>
      <trkpt lat="47.28092" lon="-2.25472">
        <ele>14</ele>
        <time>2021-05-23T09:39:03.983Z</time>
      </trkpt>
      <trkpt lat="47.28092" lon="-2.25468">
        <ele>14</ele>
        <time>2021-05-23T09:39:04.983Z</time>
      </trkpt>
      <trkpt lat="47.28092" lon="-2.25465">
        <ele>15</ele>
        <time>2021-05-23T09:39:05.982Z</time>
      </trkpt>
      <trkpt lat="47.28091" lon="-2.25461">
        <ele>15</ele>
        <time>2021-05-23T09:39:06.983Z</time>
      </trkpt>
      <trkpt lat="47.28091" lon="-2.25457">
        <ele>15</ele>
        <time>2021-05-23T09:39:07.983Z</time>
      </trkpt>
      <trkpt lat="47.2809" lon="-2.25453">
        <ele>15</ele>
        <time>2021-05-23T09:39:08.983Z</time>
      </trkpt>
      <trkpt lat="47.28089" lon="-2.25449">
        <ele>15</ele>
        <time>2021-05-23T09:39:09.983Z</time>
      </trkpt>
      <trkpt lat="47.28089" lon="-2.25445">
        <ele>16</ele>
        <time>2021-05-23T09:39:10.983Z</time>
      </trkpt>
      <trkpt lat="47.28088" lon="-2.25442">
        <ele>16</ele>
        <time>2021-05-23T09:39:11.983Z</time>
      </trkpt>
      <trkpt lat="47.28088" lon="-2.25438">
        <ele>16</ele>
        <time>2021-05-23T09:39:12.983Z</time>
      </trkpt>
      <trkpt lat="47.28088" lon="-2.25435">
        <ele>16</ele>
        <time>2021-05-23T09:39:13.982Z</time>
      </trkpt>
      <trkpt lat="47.28087" lon="-2.25431">
        <ele>16</ele>
        <time>2021-05-23T09:39:14.983Z</time>
      </trkpt>
      <trkpt lat="47.28087" lon="-2.25427">
        <ele>16</ele>
        <time>2021-05-23T09:39:15.983Z</time>
      </trkpt>
      <trkpt lat="47.28086" lon="-2.25422">
        <ele>16</ele>
        <time>2021-05-23T09:39:16.983Z</time>
      </trkpt>
      <trkpt lat="47.28086" lon="-2.25418">
        <ele>16</ele>
        <time>2021-05-23T09:39:17.983Z</time>
      </trkpt>
      <trkpt lat="47.28085" lon="-2.25414">
        <ele>16</ele>
        <time>2021-05-23T09:39:18.983Z</time>
      </trkpt>
      <trkpt lat="47.28085" lon="-2.25411">
        <ele>16</ele>
        <time>2021-05-23T09:39:19.982Z</time>
      </trkpt>
      <trkpt lat="47.28085" lon="-2.25407">
        <ele>17</ele>
        <time>2021-05-23T09:39:20.982Z</time>
      </trkpt>
      <trkpt lat="47.28085" lon="-2.25403">
        <ele>17</ele>
        <time>2021-05-23T09:39:21.983Z</time>
      </trkpt>
      <trkpt lat="47.28085" lon="-2.25399">
        <ele>17</ele>
        <time>2021-05-23T09:39:22.983Z</time>
      </trkpt>
      <trkpt lat="47.28085" lon="-2.25395">
        <ele>17</ele>
        <time>2021-05-23T09:39:23.982Z</time>
      </trkpt>
      <trkpt lat="47.28085" lon="-2.25391">
        <ele>17</ele>
        <time>2021-05-23T09:39:24.982Z</time>
      </trkpt>
      <trkpt lat="47.28085" lon="-2.25388">
        <ele>17</ele>
        <time>2021-05-23T09:39:25.982Z</time>
      </trkpt>
      <trkpt lat="47.28084" lon="-2.25384">
        <ele>17</ele>
        <time>2021-05-23T09:39:26.982Z</time>
      </trkpt>
      <trkpt lat="47.28084" lon="-2.25381">
        <ele>17</ele>
        <time>2021-05-23T09:39:27.983Z</time>
      </trkpt>
      <trkpt lat="47.28083" lon="-2.25377">
        <ele>17</ele>
        <time>2021-05-23T09:39:28.983Z</time>
      </trkpt>
      <trkpt lat="47.28083" lon="-2.25372">
        <ele>17</ele>
        <time>2021-05-23T09:39:29.983Z</time>
      </trkpt>
      <trkpt lat="47.28083" lon="-2.25369">
        <ele>17</ele>
        <time>2021-05-23T09:39:30.982Z</time>
      </trkpt>
      <trkpt lat="47.28084" lon="-2.25365">
        <ele>17</ele>
        <time>2021-05-23T09:39:31.983Z</time>
      </trkpt>
      <trkpt lat="47.28084" lon="-2.2536">
        <ele>17</ele>
        <time>2021-05-23T09:39:32.983Z</time>
      </trkpt>
      <trkpt lat="47.28085" lon="-2.25357">
        <ele>17</ele>
        <time>2021-05-23T09:39:33.983Z</time>
      </trkpt>
      <trkpt lat="47.28085" lon="-2.25353">
        <ele>17</ele>
        <time>2021-05-23T09:39:34.983Z</time>
      </trkpt>
      <trkpt lat="47.28085" lon="-2.25349">
        <ele>17</ele>
        <time>2021-05-23T09:39:35.982Z</time>
      </trkpt>
      <trkpt lat="47.28084" lon="-2.25345">
        <ele>17</ele>
        <time>2021-05-23T09:39:36.982Z</time>
      </trkpt>
      <trkpt lat="47.28084" lon="-2.25341">
        <ele>17</ele>
        <time>2021-05-23T09:39:37.983Z</time>
      </trkpt>
      <trkpt lat="47.28083" lon="-2.25338">
        <ele>17</ele>
        <time>2021-05-23T09:39:38.983Z</time>
      </trkpt>
      <trkpt lat="47.28083" lon="-2.25334">
        <ele>17</ele>
        <time>2021-05-23T09:39:39.982Z</time>
      </trkpt>
      <trkpt lat="47.28083" lon="-2.25331">
        <ele>17</ele>
        <time>2021-05-23T09:39:40.983Z</time>
      </trkpt>
      <trkpt lat="47.28083" lon="-2.25327">
        <ele>17</ele>
        <time>2021-05-23T09:39:41.982Z</time>
      </trkpt>
      <trkpt lat="47.28083" lon="-2.25323">
        <ele>17</ele>
        <time>2021-05-23T09:39:42.983Z</time>
      </trkpt>
      <trkpt lat="47.28082" lon="-2.2532">
        <ele>17</ele>
        <time>2021-05-23T09:39:43.982Z</time>
      </trkpt>
      <trkpt lat="47.28082" lon="-2.25316">
        <ele>17</ele>
        <time>2021-05-23T09:39:44.983Z</time>
      </trkpt>
      <trkpt lat="47.28083" lon="-2.25312">
        <ele>17</ele>
        <time>2021-05-23T09:39:45.983Z</time>
      </trkpt>
      <trkpt lat="47.28084" lon="-2.25309">
        <ele>17</ele>
        <time>2021-05-23T09:39:46.982Z</time>
      </trkpt>
      <trkpt lat="47.28084" lon="-2.25307">
        <ele>17</ele>
        <time>2021-05-23T09:39:47.983Z</time>
      </trkpt>
      <trkpt lat="47.28084" lon="-2.25303">
        <ele>17</ele>
        <time>2021-05-23T09:39:48.983Z</time>
      </trkpt>
      <trkpt lat="47.28084" lon="-2.25299">
        <ele>18</ele>
        <time>2021-05-23T09:39:49.982Z</time>
      </trkpt>
      <trkpt lat="47.28084" lon="-2.25295">
        <ele>18</ele>
        <time>2021-05-23T09:39:50.982Z</time>
      </trkpt>
      <trkpt lat="47.28084" lon="-2.25291">
        <ele>18</ele>
        <time>2021-05-23T09:39:51.982Z</time>
      </trkpt>
      <trkpt lat="47.28084" lon="-2.25287">
        <ele>18</ele>
        <time>2021-05-23T09:39:52.982Z</time>
      </trkpt>
      <trkpt lat="47.28084" lon="-2.25284">
        <ele>18</ele>
        <time>2021-05-23T09:39:53.983Z</time>
      </trkpt>
      <trkpt lat="47.28084" lon="-2.2528">
        <ele>18</ele>
        <time>2021-05-23T09:39:54.982Z</time>
      </trkpt>
      <trkpt lat="47.28084" lon="-2.25277">
        <ele>18</ele>
        <time>2021-05-23T09:39:55.983Z</time>
      </trkpt>
      <trkpt lat="47.28084" lon="-2.25273">
        <ele>18</ele>
        <time>2021-05-23T09:39:56.982Z</time>
      </trkpt>
      <trkpt lat="47.28085" lon="-2.2527">
        <ele>18</ele>
        <time>2021-05-23T09:39:57.983Z</time>
      </trkpt>
      <trkpt lat="47.28085" lon="-2.25266">
        <ele>18</ele>
        <time>2021-05-23T09:39:58.983Z</time>
      </trkpt>
      <trkpt lat="47.28086" lon="-2.25263">
        <ele>18</ele>
        <time>2021-05-23T09:39:59.983Z</time>
      </trkpt>
      <trkpt lat="47.28087" lon="-2.2526">
        <ele>17</ele>
        <time>2021-05-23T09:40:00.982Z</time>
      </trkpt>
      <trkpt lat="47.28088" lon="-2.25257">
        <ele>17</ele>
        <time>2021-05-23T09:40:01.983Z</time>
      </trkpt>
      <trkpt lat="47.28089" lon="-2.25254">
        <ele>17</ele>
        <time>2021-05-23T09:40:02.982Z</time>
      </trkpt>
      <trkpt lat="47.28091" lon="-2.25251">
        <ele>17</ele>
        <time>2021-05-23T09:40:03.982Z</time>
      </trkpt>
      <trkpt lat="47.28092" lon="-2.25249">
        <ele>17</ele>
        <time>2021-05-23T09:40:04.982Z</time>
      </trkpt>
      <trkpt lat="47.28093" lon="-2.25246">
        <ele>17</ele>
        <time>2021-05-23T09:40:05.982Z</time>
      </trkpt>
      <trkpt lat="47.28094" lon="-2.25242">
        <ele>17</ele>
        <time>2021-05-23T09:40:06.982Z</time>
      </trkpt>
      <trkpt lat="47.28096" lon="-2.25238">
        <ele>17</ele>
        <time>2021-05-23T09:40:07.982Z</time>
      </trkpt>
      <trkpt lat="47.28097" lon="-2.25235">
        <ele>16</ele>
        <time>2021-05-23T09:40:08.982Z</time>
      </trkpt>
      <trkpt lat="47.28097" lon="-2.25232">
        <ele>16</ele>
        <time>2021-05-23T09:40:09.982Z</time>
      </trkpt>
      <trkpt lat="47.28098" lon="-2.25229">
        <ele>16</ele>
        <time>2021-05-23T09:40:10.982Z</time>
      </trkpt>
      <trkpt lat="47.28099" lon="-2.25226">
        <ele>16</ele>
        <time>2021-05-23T09:40:11.982Z</time>
      </trkpt>
      <trkpt lat="47.28099" lon="-2.25222">
        <ele>16</ele>
        <time>2021-05-23T09:40:12.982Z</time>
      </trkpt>
      <trkpt lat="47.281" lon="-2.25219">
        <ele>16</ele>
        <time>2021-05-23T09:40:13.982Z</time>
      </trkpt>
      <trkpt lat="47.281" lon="-2.25216">
        <ele>16</ele>
        <time>2021-05-23T09:40:14.982Z</time>
      </trkpt>
      <trkpt lat="47.28101" lon="-2.25212">
        <ele>16</ele>
        <time>2021-05-23T09:40:15.982Z</time>
      </trkpt>
      <trkpt lat="47.28102" lon="-2.25208">
        <ele>17</ele>
        <time>2021-05-23T09:40:16.982Z</time>
      </trkpt>
      <trkpt lat="47.28102" lon="-2.25204">
        <ele>17</ele>
        <time>2021-05-23T09:40:17.982Z</time>
      </trkpt>
      <trkpt lat="47.28102" lon="-2.25199">
        <ele>16</ele>
        <time>2021-05-23T09:40:18.983Z</time>
      </trkpt>
      <trkpt lat="47.28103" lon="-2.25196">
        <ele>16</ele>
        <time>2021-05-23T09:40:19.983Z</time>
      </trkpt>
      <trkpt lat="47.28103" lon="-2.25192">
        <ele>16</ele>
        <time>2021-05-23T09:40:20.983Z</time>
      </trkpt>
      <trkpt lat="47.28102" lon="-2.25188">
        <ele>16</ele>
        <time>2021-05-23T09:40:21.983Z</time>
      </trkpt>
      <trkpt lat="47.28102" lon="-2.25185">
        <ele>16</ele>
        <time>2021-05-23T09:40:22.983Z</time>
      </trkpt>
      <trkpt lat="47.28102" lon="-2.25182">
        <ele>16</ele>
        <time>2021-05-23T09:40:23.983Z</time>
      </trkpt>
      <trkpt lat="47.28102" lon="-2.25178">
        <ele>17</ele>
        <time>2021-05-23T09:40:24.982Z</time>
      </trkpt>
      <trkpt lat="47.28102" lon="-2.25176">
        <ele>17</ele>
        <time>2021-05-23T09:40:25.983Z</time>
      </trkpt>
      <trkpt lat="47.28101" lon="-2.25174">
        <ele>17</ele>
        <time>2021-05-23T09:40:26.982Z</time>
      </trkpt>
      <trkpt lat="47.28101" lon="-2.25171">
        <ele>17</ele>
        <time>2021-05-23T09:40:27.983Z</time>
      </trkpt>
      <trkpt lat="47.281" lon="-2.25168">
        <ele>17</ele>
        <time>2021-05-23T09:40:28.983Z</time>
      </trkpt>
      <trkpt lat="47.28099" lon="-2.25165">
        <ele>17</ele>
        <time>2021-05-23T09:40:29.983Z</time>
      </trkpt>
      <trkpt lat="47.28097" lon="-2.25162">
        <ele>17</ele>
        <time>2021-05-23T09:40:30.983Z</time>
      </trkpt>
      <trkpt lat="47.28096" lon="-2.2516">
        <ele>17</ele>
        <time>2021-05-23T09:40:31.983Z</time>
      </trkpt>
      <trkpt lat="47.28094" lon="-2.25157">
        <ele>17</ele>
        <time>2021-05-23T09:40:32.983Z</time>
      </trkpt>
      <trkpt lat="47.28091" lon="-2.25154">
        <ele>18</ele>
        <time>2021-05-23T09:40:33.983Z</time>
      </trkpt>
      <trkpt lat="47.28088" lon="-2.25152">
        <ele>18</ele>
        <time>2021-05-23T09:40:34.982Z</time>
      </trkpt>
      <trkpt lat="47.28086" lon="-2.2515">
        <ele>18</ele>
        <time>2021-05-23T09:40:35.982Z</time>
      </trkpt>
      <trkpt lat="47.28084" lon="-2.25148">
        <ele>18</ele>
        <time>2021-05-23T09:40:36.983Z</time>
      </trkpt>
      <trkpt lat="47.28081" lon="-2.25146">
        <ele>18</ele>
        <time>2021-05-23T09:40:37.982Z</time>
      </trkpt>
      <trkpt lat="47.28079" lon="-2.25143">
        <ele>18</ele>
        <time>2021-05-23T09:40:38.982Z</time>
      </trkpt>
      <trkpt lat="47.28077" lon="-2.25141">
        <ele>18</ele>
        <time>2021-05-23T09:40:39.982Z</time>
      </trkpt>
      <trkpt lat="47.28075" lon="-2.25139">
        <ele>17</ele>
        <time>2021-05-23T09:40:40.982Z</time>
      </trkpt>
      <trkpt lat="47.28073" lon="-2.25137">
        <ele>17</ele>
        <time>2021-05-23T09:40:41.982Z</time>
      </trkpt>
      <trkpt lat="47.28071" lon="-2.25135">
        <ele>17</ele>
        <time>2021-05-23T09:40:42.983Z</time>
      </trkpt>
      <trkpt lat="47.28069" lon="-2.25134">
        <ele>17</ele>
        <time>2021-05-23T09:40:43.982Z</time>
      </trkpt>
      <trkpt lat="47.28068" lon="-2.25132">
        <ele>16</ele>
        <time>2021-05-23T09:40:44.982Z</time>
      </trkpt>
      <trkpt lat="47.28066" lon="-2.2513">
        <ele>16</ele>
        <time>2021-05-23T09:40:45.982Z</time>
      </trkpt>
      <trkpt lat="47.28063" lon="-2.25129">
        <ele>16</ele>
        <time>2021-05-23T09:40:46.983Z</time>
      </trkpt>
      <trkpt lat="47.28061" lon="-2.25127">
        <ele>16</ele>
        <time>2021-05-23T09:40:47.983Z</time>
      </trkpt>
      <trkpt lat="47.28059" lon="-2.25125">
        <ele>16</ele>
        <time>2021-05-23T09:40:48.982Z</time>
      </trkpt>
      <trkpt lat="47.28058" lon="-2.25124">
        <ele>16</ele>
        <time>2021-05-23T09:40:49.982Z</time>
      </trkpt>
      <trkpt lat="47.28055" lon="-2.25122">
        <ele>16</ele>
        <time>2021-05-23T09:40:50.982Z</time>
      </trkpt>
      <trkpt lat="47.28053" lon="-2.25121">
        <ele>16</ele>
        <time>2021-05-23T09:40:51.982Z</time>
      </trkpt>
      <trkpt lat="47.28052" lon="-2.2512">
        <ele>16</ele>
        <time>2021-05-23T09:40:52.983Z</time>
      </trkpt>
      <trkpt lat="47.2805" lon="-2.25118">
        <ele>16</ele>
        <time>2021-05-23T09:40:53.983Z</time>
      </trkpt>
      <trkpt lat="47.28048" lon="-2.25117">
        <ele>16</ele>
        <time>2021-05-23T09:40:54.982Z</time>
      </trkpt>
      <trkpt lat="47.28045" lon="-2.25115">
        <ele>16</ele>
        <time>2021-05-23T09:40:55.982Z</time>
      </trkpt>
      <trkpt lat="47.28043" lon="-2.25113">
        <ele>16</ele>
        <time>2021-05-23T09:40:56.983Z</time>
      </trkpt>
      <trkpt lat="47.28041" lon="-2.25112">
        <ele>16</ele>
        <time>2021-05-23T09:40:57.982Z</time>
      </trkpt>
      <trkpt lat="47.28039" lon="-2.2511">
        <ele>16</ele>
        <time>2021-05-23T09:40:58.982Z</time>
      </trkpt>
      <trkpt lat="47.28037" lon="-2.25109">
        <ele>16</ele>
        <time>2021-05-23T09:40:59.982Z</time>
      </trkpt>
      <trkpt lat="47.28036" lon="-2.25107">
        <ele>16</ele>
        <time>2021-05-23T09:41:00.982Z</time>
      </trkpt>
      <trkpt lat="47.28034" lon="-2.25105">
        <ele>16</ele>
        <time>2021-05-23T09:41:01.983Z</time>
      </trkpt>
      <trkpt lat="47.28032" lon="-2.25103">
        <ele>16</ele>
        <time>2021-05-23T09:41:02.982Z</time>
      </trkpt>
      <trkpt lat="47.2803" lon="-2.25102">
        <ele>16</ele>
        <time>2021-05-23T09:41:03.982Z</time>
      </trkpt>
      <trkpt lat="47.28028" lon="-2.251">
        <ele>16</ele>
        <time>2021-05-23T09:41:04.982Z</time>
      </trkpt>
      <trkpt lat="47.28026" lon="-2.25099">
        <ele>16</ele>
        <time>2021-05-23T09:41:05.982Z</time>
      </trkpt>
      <trkpt lat="47.28024" lon="-2.25097">
        <ele>17</ele>
        <time>2021-05-23T09:41:06.983Z</time>
      </trkpt>
      <trkpt lat="47.28022" lon="-2.25095">
        <ele>17</ele>
        <time>2021-05-23T09:41:07.983Z</time>
      </trkpt>
      <trkpt lat="47.28019" lon="-2.25093">
        <ele>17</ele>
        <time>2021-05-23T09:41:08.982Z</time>
      </trkpt>
      <trkpt lat="47.28017" lon="-2.25092">
        <ele>17</ele>
        <time>2021-05-23T09:41:09.982Z</time>
      </trkpt>
      <trkpt lat="47.28016" lon="-2.2509">
        <ele>17</ele>
        <time>2021-05-23T09:41:10.982Z</time>
      </trkpt>
      <trkpt lat="47.28014" lon="-2.25089">
        <ele>17</ele>
        <time>2021-05-23T09:41:11.982Z</time>
      </trkpt>
      <trkpt lat="47.28012" lon="-2.25087">
        <ele>17</ele>
        <time>2021-05-23T09:41:12.983Z</time>
      </trkpt>
      <trkpt lat="47.2801" lon="-2.25085">
        <ele>17</ele>
        <time>2021-05-23T09:41:13.982Z</time>
      </trkpt>
      <trkpt lat="47.28008" lon="-2.25084">
        <ele>16</ele>
        <time>2021-05-23T09:41:14.983Z</time>
      </trkpt>
      <trkpt lat="47.28007" lon="-2.25082">
        <ele>16</ele>
        <time>2021-05-23T09:41:15.982Z</time>
      </trkpt>
      <trkpt lat="47.28005" lon="-2.25081">
        <ele>16</ele>
        <time>2021-05-23T09:41:16.982Z</time>
      </trkpt>
      <trkpt lat="47.28003" lon="-2.25079">
        <ele>16</ele>
        <time>2021-05-23T09:41:17.982Z</time>
      </trkpt>
      <trkpt lat="47.28001" lon="-2.25078">
        <ele>16</ele>
        <time>2021-05-23T09:41:18.982Z</time>
      </trkpt>
      <trkpt lat="47.27999" lon="-2.25076">
        <ele>16</ele>
        <time>2021-05-23T09:41:19.982Z</time>
      </trkpt>
      <trkpt lat="47.27997" lon="-2.25075">
        <ele>16</ele>
        <time>2021-05-23T09:41:20.982Z</time>
      </trkpt>
      <trkpt lat="47.27995" lon="-2.25073">
        <ele>15</ele>
        <time>2021-05-23T09:41:21.983Z</time>
      </trkpt>
      <trkpt lat="47.27993" lon="-2.25071">
        <ele>15</ele>
        <time>2021-05-23T09:41:22.983Z</time>
      </trkpt>
      <trkpt lat="47.27991" lon="-2.2507">
        <ele>15</ele>
        <time>2021-05-23T09:41:23.983Z</time>
      </trkpt>
      <trkpt lat="47.27988" lon="-2.2507">
        <ele>14</ele>
        <time>2021-05-23T09:41:24.982Z</time>
      </trkpt>
      <trkpt lat="47.27986" lon="-2.2507">
        <ele>14</ele>
        <time>2021-05-23T09:41:25.983Z</time>
      </trkpt>
      <trkpt lat="47.27983" lon="-2.25071">
        <ele>14</ele>
        <time>2021-05-23T09:41:26.982Z</time>
      </trkpt>
      <trkpt lat="47.27981" lon="-2.25072">
        <ele>14</ele>
        <time>2021-05-23T09:41:27.983Z</time>
      </trkpt>
      <trkpt lat="47.27979" lon="-2.25072">
        <ele>14</ele>
        <time>2021-05-23T09:41:28.983Z</time>
      </trkpt>
      <trkpt lat="47.27976" lon="-2.25073">
        <ele>14</ele>
        <time>2021-05-23T09:41:29.982Z</time>
      </trkpt>
      <trkpt lat="47.27975" lon="-2.25073">
        <ele>14</ele>
        <time>2021-05-23T09:41:30.983Z</time>
      </trkpt>
      <trkpt lat="47.27973" lon="-2.25072">
        <ele>13</ele>
        <time>2021-05-23T09:41:31.983Z</time>
      </trkpt>
      <trkpt lat="47.2797" lon="-2.25071">
        <ele>13</ele>
        <time>2021-05-23T09:41:32.983Z</time>
      </trkpt>
      <trkpt lat="47.27968" lon="-2.25071">
        <ele>13</ele>
        <time>2021-05-23T09:41:33.982Z</time>
      </trkpt>
      <trkpt lat="47.27966" lon="-2.25071">
        <ele>13</ele>
        <time>2021-05-23T09:41:34.983Z</time>
      </trkpt>
      <trkpt lat="47.27964" lon="-2.25071">
        <ele>14</ele>
        <time>2021-05-23T09:41:35.983Z</time>
      </trkpt>
      <trkpt lat="47.27962" lon="-2.25072">
        <ele>14</ele>
        <time>2021-05-23T09:41:36.983Z</time>
      </trkpt>
      <trkpt lat="47.27961" lon="-2.25072">
        <ele>14</ele>
        <time>2021-05-23T09:41:37.982Z</time>
      </trkpt>
      <trkpt lat="47.27959" lon="-2.25073">
        <ele>14</ele>
        <time>2021-05-23T09:41:38.983Z</time>
      </trkpt>
      <trkpt lat="47.27957" lon="-2.25074">
        <ele>15</ele>
        <time>2021-05-23T09:41:39.983Z</time>
      </trkpt>
      <trkpt lat="47.27955" lon="-2.25074">
        <ele>15</ele>
        <time>2021-05-23T09:41:40.983Z</time>
      </trkpt>
      <trkpt lat="47.27954" lon="-2.25074">
        <ele>15</ele>
        <time>2021-05-23T09:41:41.982Z</time>
      </trkpt>
      <trkpt lat="47.27952" lon="-2.25075">
        <ele>15</ele>
        <time>2021-05-23T09:41:42.983Z</time>
      </trkpt>
      <trkpt lat="47.2795" lon="-2.25075">
        <ele>15</ele>
        <time>2021-05-23T09:41:43.982Z</time>
      </trkpt>
      <trkpt lat="47.27947" lon="-2.25075">
        <ele>15</ele>
        <time>2021-05-23T09:41:44.983Z</time>
      </trkpt>
      <trkpt lat="47.27945" lon="-2.25076">
        <ele>15</ele>
        <time>2021-05-23T09:41:45.983Z</time>
      </trkpt>
      <trkpt lat="47.27942" lon="-2.25077">
        <ele>15</ele>
        <time>2021-05-23T09:41:46.982Z</time>
      </trkpt>
      <trkpt lat="47.27939" lon="-2.25078">
        <ele>15</ele>
        <time>2021-05-23T09:41:47.983Z</time>
      </trkpt>
      <trkpt lat="47.27936" lon="-2.25077">
        <ele>15</ele>
        <time>2021-05-23T09:41:48.982Z</time>
      </trkpt>
      <trkpt lat="47.27933" lon="-2.25078">
        <ele>15</ele>
        <time>2021-05-23T09:41:49.983Z</time>
      </trkpt>
      <trkpt lat="47.2793" lon="-2.25078">
        <ele>15</ele>
        <time>2021-05-23T09:41:50.983Z</time>
      </trkpt>
      <trkpt lat="47.27928" lon="-2.25079">
        <ele>16</ele>
        <time>2021-05-23T09:41:51.983Z</time>
      </trkpt>
      <trkpt lat="47.27926" lon="-2.2508">
        <ele>16</ele>
        <time>2021-05-23T09:41:52.983Z</time>
      </trkpt>
      <trkpt lat="47.27923" lon="-2.25081">
        <ele>16</ele>
        <time>2021-05-23T09:41:53.983Z</time>
      </trkpt>
      <trkpt lat="47.2792" lon="-2.25082">
        <ele>16</ele>
        <time>2021-05-23T09:41:54.983Z</time>
      </trkpt>
      <trkpt lat="47.27918" lon="-2.25082">
        <ele>16</ele>
        <time>2021-05-23T09:41:55.983Z</time>
      </trkpt>
      <trkpt lat="47.27916" lon="-2.25082">
        <ele>17</ele>
        <time>2021-05-23T09:41:56.983Z</time>
      </trkpt>
      <trkpt lat="47.27914" lon="-2.25082">
        <ele>17</ele>
        <time>2021-05-23T09:41:57.982Z</time>
      </trkpt>
      <trkpt lat="47.27911" lon="-2.25082">
        <ele>17</ele>
        <time>2021-05-23T09:41:58.983Z</time>
      </trkpt>
      <trkpt lat="47.27908" lon="-2.25082">
        <ele>17</ele>
        <time>2021-05-23T09:41:59.982Z</time>
      </trkpt>
      <trkpt lat="47.27906" lon="-2.25082">
        <ele>18</ele>
        <time>2021-05-23T09:42:00.982Z</time>
      </trkpt>
      <trkpt lat="47.27904" lon="-2.25081">
        <ele>18</ele>
        <time>2021-05-23T09:42:01.983Z</time>
      </trkpt>
      <trkpt lat="47.27902" lon="-2.2508">
        <ele>18</ele>
        <time>2021-05-23T09:42:02.983Z</time>
      </trkpt>
      <trkpt lat="47.279" lon="-2.25079">
        <ele>18</ele>
        <time>2021-05-23T09:42:03.982Z</time>
      </trkpt>
      <trkpt lat="47.27898" lon="-2.25078">
        <ele>18</ele>
        <time>2021-05-23T09:42:04.983Z</time>
      </trkpt>
      <trkpt lat="47.27896" lon="-2.25077">
        <ele>18</ele>
        <time>2021-05-23T09:42:05.983Z</time>
      </trkpt>
      <trkpt lat="47.27894" lon="-2.25075">
        <ele>18</ele>
        <time>2021-05-23T09:42:06.983Z</time>
      </trkpt>
      <trkpt lat="47.27892" lon="-2.25074">
        <ele>18</ele>
        <time>2021-05-23T09:42:07.983Z</time>
      </trkpt>
      <trkpt lat="47.2789" lon="-2.25071">
        <ele>18</ele>
        <time>2021-05-23T09:42:08.983Z</time>
      </trkpt>
      <trkpt lat="47.27888" lon="-2.2507">
        <ele>19</ele>
        <time>2021-05-23T09:42:09.983Z</time>
      </trkpt>
      <trkpt lat="47.27886" lon="-2.25067">
        <ele>19</ele>
        <time>2021-05-23T09:42:10.983Z</time>
      </trkpt>
      <trkpt lat="47.27884" lon="-2.25066">
        <ele>19</ele>
        <time>2021-05-23T09:42:11.982Z</time>
      </trkpt>
      <trkpt lat="47.27882" lon="-2.25065">
        <ele>19</ele>
        <time>2021-05-23T09:42:12.983Z</time>
      </trkpt>
      <trkpt lat="47.2788" lon="-2.25064">
        <ele>19</ele>
        <time>2021-05-23T09:42:13.983Z</time>
      </trkpt>
      <trkpt lat="47.27878" lon="-2.25063">
        <ele>19</ele>
        <time>2021-05-23T09:42:14.983Z</time>
      </trkpt>
      <trkpt lat="47.27876" lon="-2.25062">
        <ele>19</ele>
        <time>2021-05-23T09:42:15.983Z</time>
      </trkpt>
      <trkpt lat="47.27873" lon="-2.25061">
        <ele>19</ele>
        <time>2021-05-23T09:42:16.983Z</time>
      </trkpt>
      <trkpt lat="47.2787" lon="-2.2506">
        <ele>19</ele>
        <time>2021-05-23T09:42:17.982Z</time>
      </trkpt>
      <trkpt lat="47.27868" lon="-2.25058">
        <ele>20</ele>
        <time>2021-05-23T09:42:18.983Z</time>
      </trkpt>
      <trkpt lat="47.27866" lon="-2.25057">
        <ele>20</ele>
        <time>2021-05-23T09:42:19.983Z</time>
      </trkpt>
      <trkpt lat="47.27863" lon="-2.25056">
        <ele>20</ele>
        <time>2021-05-23T09:42:20.982Z</time>
      </trkpt>
      <trkpt lat="47.27861" lon="-2.25055">
        <ele>20</ele>
        <time>2021-05-23T09:42:21.983Z</time>
      </trkpt>
      <trkpt lat="47.27858" lon="-2.25054">
        <ele>21</ele>
        <time>2021-05-23T09:42:22.983Z</time>
      </trkpt>
      <trkpt lat="47.27856" lon="-2.25053">
        <ele>21</ele>
        <time>2021-05-23T09:42:23.982Z</time>
      </trkpt>
      <trkpt lat="47.27854" lon="-2.25052">
        <ele>21</ele>
        <time>2021-05-23T09:42:24.982Z</time>
      </trkpt>
      <trkpt lat="47.27852" lon="-2.2505">
        <ele>21</ele>
        <time>2021-05-23T09:42:25.982Z</time>
      </trkpt>
      <trkpt lat="47.2785" lon="-2.2505">
        <ele>21</ele>
        <time>2021-05-23T09:42:26.983Z</time>
      </trkpt>
      <trkpt lat="47.27848" lon="-2.2505">
        <ele>21</ele>
        <time>2021-05-23T09:42:27.983Z</time>
      </trkpt>
      <trkpt lat="47.27846" lon="-2.25048">
        <ele>21</ele>
        <time>2021-05-23T09:42:28.982Z</time>
      </trkpt>
      <trkpt lat="47.27843" lon="-2.25047">
        <ele>21</ele>
        <time>2021-05-23T09:42:29.982Z</time>
      </trkpt>
      <trkpt lat="47.27841" lon="-2.25045">
        <ele>21</ele>
        <time>2021-05-23T09:42:30.983Z</time>
      </trkpt>
      <trkpt lat="47.27838" lon="-2.25043">
        <ele>21</ele>
        <time>2021-05-23T09:42:31.983Z</time>
      </trkpt>
      <trkpt lat="47.27837" lon="-2.25042">
        <ele>21</ele>
        <time>2021-05-23T09:42:32.983Z</time>
      </trkpt>
      <trkpt lat="47.27835" lon="-2.2504">
        <ele>21</ele>
        <time>2021-05-23T09:42:33.982Z</time>
      </trkpt>
      <trkpt lat="47.27833" lon="-2.25039">
        <ele>21</ele>
        <time>2021-05-23T09:42:34.983Z</time>
      </trkpt>
      <trkpt lat="47.27831" lon="-2.25037">
        <ele>21</ele>
        <time>2021-05-23T09:42:35.983Z</time>
      </trkpt>
      <trkpt lat="47.27828" lon="-2.25035">
        <ele>21</ele>
        <time>2021-05-23T09:42:36.983Z</time>
      </trkpt>
      <trkpt lat="47.27826" lon="-2.25033">
        <ele>21</ele>
        <time>2021-05-23T09:42:37.982Z</time>
      </trkpt>
      <trkpt lat="47.27824" lon="-2.25032">
        <ele>21</ele>
        <time>2021-05-23T09:42:38.983Z</time>
      </trkpt>
      <trkpt lat="47.27822" lon="-2.2503">
        <ele>21</ele>
        <time>2021-05-23T09:42:39.982Z</time>
      </trkpt>
      <trkpt lat="47.27821" lon="-2.25028">
        <ele>22</ele>
        <time>2021-05-23T09:42:40.983Z</time>
      </trkpt>
      <trkpt lat="47.27819" lon="-2.25027">
        <ele>22</ele>
        <time>2021-05-23T09:42:41.983Z</time>
      </trkpt>
      <trkpt lat="47.27817" lon="-2.25026">
        <ele>22</ele>
        <time>2021-05-23T09:42:42.982Z</time>
      </trkpt>
      <trkpt lat="47.27815" lon="-2.25025">
        <ele>22</ele>
        <time>2021-05-23T09:42:43.983Z</time>
      </trkpt>
      <trkpt lat="47.27813" lon="-2.25024">
        <ele>22</ele>
        <time>2021-05-23T09:42:44.983Z</time>
      </trkpt>
      <trkpt lat="47.2781" lon="-2.25024">
        <ele>22</ele>
        <time>2021-05-23T09:42:45.983Z</time>
      </trkpt>
      <trkpt lat="47.27808" lon="-2.25023">
        <ele>22</ele>
        <time>2021-05-23T09:42:46.983Z</time>
      </trkpt>
      <trkpt lat="47.27805" lon="-2.25023">
        <ele>22</ele>
        <time>2021-05-23T09:42:47.983Z</time>
      </trkpt>
      <trkpt lat="47.27802" lon="-2.25024">
        <ele>22</ele>
        <time>2021-05-23T09:42:48.982Z</time>
      </trkpt>
      <trkpt lat="47.27799" lon="-2.25023">
        <ele>21</ele>
        <time>2021-05-23T09:42:49.983Z</time>
      </trkpt>
      <trkpt lat="47.27797" lon="-2.25024">
        <ele>21</ele>
        <time>2021-05-23T09:42:50.983Z</time>
      </trkpt>
      <trkpt lat="47.27794" lon="-2.25024">
        <ele>21</ele>
        <time>2021-05-23T09:42:51.983Z</time>
      </trkpt>
      <trkpt lat="47.27792" lon="-2.25024">
        <ele>21</ele>
        <time>2021-05-23T09:42:52.983Z</time>
      </trkpt>
      <trkpt lat="47.27789" lon="-2.25025">
        <ele>21</ele>
        <time>2021-05-23T09:42:53.983Z</time>
      </trkpt>
      <trkpt lat="47.27786" lon="-2.25026">
        <ele>22</ele>
        <time>2021-05-23T09:42:54.982Z</time>
      </trkpt>
      <trkpt lat="47.27783" lon="-2.25027">
        <ele>22</ele>
        <time>2021-05-23T09:42:55.983Z</time>
      </trkpt>
      <trkpt lat="47.2778" lon="-2.25028">
        <ele>22</ele>
        <time>2021-05-23T09:42:56.983Z</time>
      </trkpt>
      <trkpt lat="47.27778" lon="-2.25029">
        <ele>22</ele>
        <time>2021-05-23T09:42:57.982Z</time>
      </trkpt>
      <trkpt lat="47.27775" lon="-2.25031">
        <ele>22</ele>
        <time>2021-05-23T09:42:58.983Z</time>
      </trkpt>
      <trkpt lat="47.27774" lon="-2.25033">
        <ele>22</ele>
        <time>2021-05-23T09:42:59.982Z</time>
      </trkpt>
      <trkpt lat="47.27771" lon="-2.25035">
        <ele>22</ele>
        <time>2021-05-23T09:43:00.983Z</time>
      </trkpt>
      <trkpt lat="47.2777" lon="-2.25036">
        <ele>22</ele>
        <time>2021-05-23T09:43:01.983Z</time>
      </trkpt>
      <trkpt lat="47.27767" lon="-2.25036">
        <ele>21</ele>
        <time>2021-05-23T09:43:02.983Z</time>
      </trkpt>
      <trkpt lat="47.27764" lon="-2.25037">
        <ele>21</ele>
        <time>2021-05-23T09:43:03.983Z</time>
      </trkpt>
      <trkpt lat="47.27762" lon="-2.25038">
        <ele>21</ele>
        <time>2021-05-23T09:43:04.983Z</time>
      </trkpt>
      <trkpt lat="47.27761" lon="-2.25038">
        <ele>21</ele>
        <time>2021-05-23T09:43:05.983Z</time>
      </trkpt>
      <trkpt lat="47.27759" lon="-2.25039">
        <ele>21</ele>
        <time>2021-05-23T09:43:06.982Z</time>
      </trkpt>
      <trkpt lat="47.27757" lon="-2.2504">
        <ele>21</ele>
        <time>2021-05-23T09:43:07.983Z</time>
      </trkpt>
      <trkpt lat="47.27756" lon="-2.25041">
        <ele>21</ele>
        <time>2021-05-23T09:43:08.983Z</time>
      </trkpt>
      <trkpt lat="47.27754" lon="-2.25042">
        <ele>21</ele>
        <time>2021-05-23T09:43:09.982Z</time>
      </trkpt>
      <trkpt lat="47.27752" lon="-2.25043">
        <ele>21</ele>
        <time>2021-05-23T09:43:10.983Z</time>
      </trkpt>
      <trkpt lat="47.27751" lon="-2.25045">
        <ele>20</ele>
        <time>2021-05-23T09:43:11.983Z</time>
      </trkpt>
      <trkpt lat="47.2775" lon="-2.25046">
        <ele>20</ele>
        <time>2021-05-23T09:43:12.983Z</time>
      </trkpt>
      <trkpt lat="47.27748" lon="-2.25048">
        <ele>20</ele>
        <time>2021-05-23T09:43:13.982Z</time>
      </trkpt>
      <trkpt lat="47.27746" lon="-2.25049">
        <ele>20</ele>
        <time>2021-05-23T09:43:14.982Z</time>
      </trkpt>
      <trkpt lat="47.27744" lon="-2.25051">
        <ele>20</ele>
        <time>2021-05-23T09:43:15.983Z</time>
      </trkpt>
      <trkpt lat="47.27743" lon="-2.25052">
        <ele>20</ele>
        <time>2021-05-23T09:43:16.983Z</time>
      </trkpt>
      <trkpt lat="47.27741" lon="-2.25054">
        <ele>20</ele>
        <time>2021-05-23T09:43:17.982Z</time>
      </trkpt>
      <trkpt lat="47.2774" lon="-2.25055">
        <ele>21</ele>
        <time>2021-05-23T09:43:18.983Z</time>
      </trkpt>
      <trkpt lat="47.27739" lon="-2.25056">
        <ele>21</ele>
        <time>2021-05-23T09:43:19.983Z</time>
      </trkpt>
      <trkpt lat="47.27738" lon="-2.25058">
        <ele>21</ele>
        <time>2021-05-23T09:43:20.982Z</time>
      </trkpt>
      <trkpt lat="47.27737" lon="-2.2506">
        <ele>21</ele>
        <time>2021-05-23T09:43:21.983Z</time>
      </trkpt>
      <trkpt lat="47.27736" lon="-2.25061">
        <ele>21</ele>
        <time>2021-05-23T09:43:22.982Z</time>
      </trkpt>
      <trkpt lat="47.27734" lon="-2.25063">
        <ele>21</ele>
        <time>2021-05-23T09:43:23.983Z</time>
      </trkpt>
      <trkpt lat="47.27731" lon="-2.25065">
        <ele>21</ele>
        <time>2021-05-23T09:43:24.983Z</time>
      </trkpt>
      <trkpt lat="47.27729" lon="-2.25066">
        <ele>21</ele>
        <time>2021-05-23T09:43:25.983Z</time>
      </trkpt>
      <trkpt lat="47.27726" lon="-2.25067">
        <ele>21</ele>
        <time>2021-05-23T09:43:26.983Z</time>
      </trkpt>
      <trkpt lat="47.27725" lon="-2.25069">
        <ele>20</ele>
        <time>2021-05-23T09:43:27.982Z</time>
      </trkpt>
      <trkpt lat="47.27723" lon="-2.25071">
        <ele>20</ele>
        <time>2021-05-23T09:43:28.983Z</time>
      </trkpt>
      <trkpt lat="47.27721" lon="-2.25073">
        <ele>20</ele>
        <time>2021-05-23T09:43:29.983Z</time>
      </trkpt>
      <trkpt lat="47.27719" lon="-2.25075">
        <ele>20</ele>
        <time>2021-05-23T09:43:30.983Z</time>
      </trkpt>
      <trkpt lat="47.27718" lon="-2.25076">
        <ele>20</ele>
        <time>2021-05-23T09:43:31.983Z</time>
      </trkpt>
      <trkpt lat="47.27716" lon="-2.25077">
        <ele>20</ele>
        <time>2021-05-23T09:43:32.983Z</time>
      </trkpt>
      <trkpt lat="47.27715" lon="-2.25078">
        <ele>20</ele>
        <time>2021-05-23T09:43:33.982Z</time>
      </trkpt>
      <trkpt lat="47.27713" lon="-2.25078">
        <ele>20</ele>
        <time>2021-05-23T09:43:34.983Z</time>
      </trkpt>
      <trkpt lat="47.27712" lon="-2.25079">
        <ele>20</ele>
        <time>2021-05-23T09:43:35.983Z</time>
      </trkpt>
      <trkpt lat="47.27711" lon="-2.2508">
        <ele>20</ele>
        <time>2021-05-23T09:43:36.983Z</time>
      </trkpt>
      <trkpt lat="47.2771" lon="-2.2508">
        <ele>19</ele>
        <time>2021-05-23T09:43:37.982Z</time>
      </trkpt>
      <trkpt lat="47.27708" lon="-2.25082">
        <ele>19</ele>
        <time>2021-05-23T09:43:38.983Z</time>
      </trkpt>
      <trkpt lat="47.27707" lon="-2.25083">
        <ele>19</ele>
        <time>2021-05-23T09:43:39.983Z</time>
      </trkpt>
      <trkpt lat="47.27705" lon="-2.25084">
        <ele>19</ele>
        <time>2021-05-23T09:43:40.983Z</time>
      </trkpt>
      <trkpt lat="47.27703" lon="-2.25086">
        <ele>19</ele>
        <time>2021-05-23T09:43:41.982Z</time>
      </trkpt>
      <trkpt lat="47.27701" lon="-2.25088">
        <ele>18</ele>
        <time>2021-05-23T09:43:42.983Z</time>
      </trkpt>
      <trkpt lat="47.27698" lon="-2.2509">
        <ele>18</ele>
        <time>2021-05-23T09:43:43.983Z</time>
      </trkpt>
      <trkpt lat="47.27696" lon="-2.25092">
        <ele>17</ele>
        <time>2021-05-23T09:43:44.983Z</time>
      </trkpt>
      <trkpt lat="47.27694" lon="-2.25094">
        <ele>17</ele>
        <time>2021-05-23T09:43:45.983Z</time>
      </trkpt>
      <trkpt lat="47.27692" lon="-2.25095">
        <ele>17</ele>
        <time>2021-05-23T09:43:46.982Z</time>
      </trkpt>
      <trkpt lat="47.2769" lon="-2.25096">
        <ele>17</ele>
        <time>2021-05-23T09:43:47.982Z</time>
      </trkpt>
      <trkpt lat="47.27688" lon="-2.25097">
        <ele>16</ele>
        <time>2021-05-23T09:43:48.983Z</time>
      </trkpt>
      <trkpt lat="47.27685" lon="-2.25097">
        <ele>16</ele>
        <time>2021-05-23T09:43:49.983Z</time>
      </trkpt>
      <trkpt lat="47.27682" lon="-2.25098">
        <ele>16</ele>
        <time>2021-05-23T09:43:50.983Z</time>
      </trkpt>
      <trkpt lat="47.27679" lon="-2.251">
        <ele>16</ele>
        <time>2021-05-23T09:43:51.982Z</time>
      </trkpt>
      <trkpt lat="47.27677" lon="-2.251">
        <ele>16</ele>
        <time>2021-05-23T09:43:52.982Z</time>
      </trkpt>
      <trkpt lat="47.27673" lon="-2.25102">
        <ele>16</ele>
        <time>2021-05-23T09:43:53.983Z</time>
      </trkpt>
      <trkpt lat="47.27669" lon="-2.25103">
        <ele>16</ele>
        <time>2021-05-23T09:43:54.983Z</time>
      </trkpt>
      <trkpt lat="47.27665" lon="-2.25103">
        <ele>16</ele>
        <time>2021-05-23T09:43:55.983Z</time>
      </trkpt>
      <trkpt lat="47.27662" lon="-2.25103">
        <ele>17</ele>
        <time>2021-05-23T09:43:56.983Z</time>
      </trkpt>
      <trkpt lat="47.27659" lon="-2.25102">
        <ele>17</ele>
        <time>2021-05-23T09:43:57.983Z</time>
      </trkpt>
      <trkpt lat="47.27656" lon="-2.25102">
        <ele>17</ele>
        <time>2021-05-23T09:43:58.983Z</time>
      </trkpt>
      <trkpt lat="47.27654" lon="-2.25102">
        <ele>17</ele>
        <time>2021-05-23T09:43:59.983Z</time>
      </trkpt>
      <trkpt lat="47.27652" lon="-2.25101">
        <ele>17</ele>
        <time>2021-05-23T09:44:00.982Z</time>
      </trkpt>
      <trkpt lat="47.2765" lon="-2.251">
        <ele>17</ele>
        <time>2021-05-23T09:44:01.982Z</time>
      </trkpt>
      <trkpt lat="47.27647" lon="-2.251">
        <ele>17</ele>
        <time>2021-05-23T09:44:02.983Z</time>
      </trkpt>
      <trkpt lat="47.27645" lon="-2.251">
        <ele>18</ele>
        <time>2021-05-23T09:44:03.983Z</time>
      </trkpt>
      <trkpt lat="47.27642" lon="-2.251">
        <ele>18</ele>
        <time>2021-05-23T09:44:04.983Z</time>
      </trkpt>
      <trkpt lat="47.27639" lon="-2.25099">
        <ele>18</ele>
        <time>2021-05-23T09:44:05.983Z</time>
      </trkpt>
      <trkpt lat="47.27637" lon="-2.25098">
        <ele>18</ele>
        <time>2021-05-23T09:44:06.983Z</time>
      </trkpt>
      <trkpt lat="47.27634" lon="-2.25096">
        <ele>18</ele>
        <time>2021-05-23T09:44:07.983Z</time>
      </trkpt>
      <trkpt lat="47.27632" lon="-2.25095">
        <ele>18</ele>
        <time>2021-05-23T09:44:08.983Z</time>
      </trkpt>
      <trkpt lat="47.2763" lon="-2.25095">
        <ele>18</ele>
        <time>2021-05-23T09:44:09.983Z</time>
      </trkpt>
      <trkpt lat="47.27628" lon="-2.25094">
        <ele>18</ele>
        <time>2021-05-23T09:44:10.983Z</time>
      </trkpt>
      <trkpt lat="47.27626" lon="-2.25092">
        <ele>18</ele>
        <time>2021-05-23T09:44:11.983Z</time>
      </trkpt>
      <trkpt lat="47.27624" lon="-2.25091">
        <ele>18</ele>
        <time>2021-05-23T09:44:12.983Z</time>
      </trkpt>
      <trkpt lat="47.27622" lon="-2.25091">
        <ele>18</ele>
        <time>2021-05-23T09:44:13.983Z</time>
      </trkpt>
      <trkpt lat="47.2762" lon="-2.2509">
        <ele>18</ele>
        <time>2021-05-23T09:44:14.983Z</time>
      </trkpt>
      <trkpt lat="47.27618" lon="-2.25089">
        <ele>18</ele>
        <time>2021-05-23T09:44:15.983Z</time>
      </trkpt>
      <trkpt lat="47.27616" lon="-2.25088">
        <ele>18</ele>
        <time>2021-05-23T09:44:16.982Z</time>
      </trkpt>
      <trkpt lat="47.27614" lon="-2.25087">
        <ele>18</ele>
        <time>2021-05-23T09:44:17.982Z</time>
      </trkpt>
      <trkpt lat="47.27612" lon="-2.25086">
        <ele>18</ele>
        <time>2021-05-23T09:44:18.982Z</time>
      </trkpt>
      <trkpt lat="47.2761" lon="-2.25085">
        <ele>19</ele>
        <time>2021-05-23T09:44:19.982Z</time>
      </trkpt>
      <trkpt lat="47.27608" lon="-2.25085">
        <ele>19</ele>
        <time>2021-05-23T09:44:20.983Z</time>
      </trkpt>
      <trkpt lat="47.27607" lon="-2.25084">
        <ele>19</ele>
        <time>2021-05-23T09:44:21.983Z</time>
      </trkpt>
      <trkpt lat="47.27605" lon="-2.25083">
        <ele>19</ele>
        <time>2021-05-23T09:44:22.982Z</time>
      </trkpt>
      <trkpt lat="47.27604" lon="-2.25082">
        <ele>19</ele>
        <time>2021-05-23T09:44:23.983Z</time>
      </trkpt>
      <trkpt lat="47.27602" lon="-2.2508">
        <ele>19</ele>
        <time>2021-05-23T09:44:24.983Z</time>
      </trkpt>
      <trkpt lat="47.276" lon="-2.25079">
        <ele>19</ele>
        <time>2021-05-23T09:44:25.983Z</time>
      </trkpt>
      <trkpt lat="47.27598" lon="-2.25078">
        <ele>19</ele>
        <time>2021-05-23T09:44:26.982Z</time>
      </trkpt>
      <trkpt lat="47.27595" lon="-2.25077">
        <ele>19</ele>
        <time>2021-05-23T09:44:27.983Z</time>
      </trkpt>
      <trkpt lat="47.27593" lon="-2.25077">
        <ele>19</ele>
        <time>2021-05-23T09:44:28.982Z</time>
      </trkpt>
      <trkpt lat="47.27591" lon="-2.25077">
        <ele>19</ele>
        <time>2021-05-23T09:44:29.983Z</time>
      </trkpt>
      <trkpt lat="47.27589" lon="-2.25076">
        <ele>19</ele>
        <time>2021-05-23T09:44:30.983Z</time>
      </trkpt>
      <trkpt lat="47.27588" lon="-2.25076">
        <ele>19</ele>
        <time>2021-05-23T09:44:31.983Z</time>
      </trkpt>
      <trkpt lat="47.27586" lon="-2.25075">
        <ele>18</ele>
        <time>2021-05-23T09:44:32.982Z</time>
      </trkpt>
      <trkpt lat="47.27584" lon="-2.25074">
        <ele>18</ele>
        <time>2021-05-23T09:44:33.982Z</time>
      </trkpt>
      <trkpt lat="47.27581" lon="-2.25072">
        <ele>19</ele>
        <time>2021-05-23T09:44:34.983Z</time>
      </trkpt>
      <trkpt lat="47.27579" lon="-2.2507">
        <ele>19</ele>
        <time>2021-05-23T09:44:35.983Z</time>
      </trkpt>
      <trkpt lat="47.27577" lon="-2.25069">
        <ele>19</ele>
        <time>2021-05-23T09:44:36.983Z</time>
      </trkpt>
      <trkpt lat="47.27575" lon="-2.25068">
        <ele>19</ele>
        <time>2021-05-23T09:44:37.983Z</time>
      </trkpt>
      <trkpt lat="47.27573" lon="-2.25066">
        <ele>19</ele>
        <time>2021-05-23T09:44:38.982Z</time>
      </trkpt>
      <trkpt lat="47.27571" lon="-2.25064">
        <ele>20</ele>
        <time>2021-05-23T09:44:39.983Z</time>
      </trkpt>
      <trkpt lat="47.27568" lon="-2.25062">
        <ele>20</ele>
        <time>2021-05-23T09:44:40.983Z</time>
      </trkpt>
      <trkpt lat="47.27566" lon="-2.25059">
        <ele>20</ele>
        <time>2021-05-23T09:44:41.983Z</time>
      </trkpt>
      <trkpt lat="47.27563" lon="-2.25057">
        <ele>20</ele>
        <time>2021-05-23T09:44:42.982Z</time>
      </trkpt>
      <trkpt lat="47.27561" lon="-2.25055">
        <ele>21</ele>
        <time>2021-05-23T09:44:43.982Z</time>
      </trkpt>
      <trkpt lat="47.2756" lon="-2.25052">
        <ele>21</ele>
        <time>2021-05-23T09:44:44.982Z</time>
      </trkpt>
      <trkpt lat="47.27558" lon="-2.2505">
        <ele>21</ele>
        <time>2021-05-23T09:44:45.982Z</time>
      </trkpt>
      <trkpt lat="47.27556" lon="-2.25048">
        <ele>21</ele>
        <time>2021-05-23T09:44:46.982Z</time>
      </trkpt>
      <trkpt lat="47.27554" lon="-2.25045">
        <ele>21</ele>
        <time>2021-05-23T09:44:47.983Z</time>
      </trkpt>
      <trkpt lat="47.27552" lon="-2.25043">
        <ele>21</ele>
        <time>2021-05-23T09:44:48.982Z</time>
      </trkpt>
      <trkpt lat="47.27549" lon="-2.25041">
        <ele>21</ele>
        <time>2021-05-23T09:44:49.983Z</time>
      </trkpt>
      <trkpt lat="47.27547" lon="-2.25038">
        <ele>21</ele>
        <time>2021-05-23T09:44:50.983Z</time>
      </trkpt>
      <trkpt lat="47.27545" lon="-2.25036">
        <ele>21</ele>
        <time>2021-05-23T09:44:51.983Z</time>
      </trkpt>
      <trkpt lat="47.27542" lon="-2.25032">
        <ele>21</ele>
        <time>2021-05-23T09:44:52.983Z</time>
      </trkpt>
      <trkpt lat="47.2754" lon="-2.25029">
        <ele>20</ele>
        <time>2021-05-23T09:44:53.983Z</time>
      </trkpt>
      <trkpt lat="47.27538" lon="-2.25027">
        <ele>20</ele>
        <time>2021-05-23T09:44:54.983Z</time>
      </trkpt>
      <trkpt lat="47.27535" lon="-2.25025">
        <ele>20</ele>
        <time>2021-05-23T09:44:55.983Z</time>
      </trkpt>
      <trkpt lat="47.27533" lon="-2.25023">
        <ele>20</ele>
        <time>2021-05-23T09:44:56.983Z</time>
      </trkpt>
      <trkpt lat="47.27531" lon="-2.25021">
        <ele>20</ele>
        <time>2021-05-23T09:44:57.982Z</time>
      </trkpt>
      <trkpt lat="47.27529" lon="-2.2502">
        <ele>20</ele>
        <time>2021-05-23T09:44:58.982Z</time>
      </trkpt>
      <trkpt lat="47.27526" lon="-2.25018">
        <ele>20</ele>
        <time>2021-05-23T09:44:59.982Z</time>
      </trkpt>
      <trkpt lat="47.27524" lon="-2.25016">
        <ele>20</ele>
        <time>2021-05-23T09:45:00.983Z</time>
      </trkpt>
      <trkpt lat="47.27522" lon="-2.25013">
        <ele>20</ele>
        <time>2021-05-23T09:45:01.983Z</time>
      </trkpt>
      <trkpt lat="47.2752" lon="-2.25011">
        <ele>19</ele>
        <time>2021-05-23T09:45:02.983Z</time>
      </trkpt>
      <trkpt lat="47.27518" lon="-2.25008">
        <ele>19</ele>
        <time>2021-05-23T09:45:03.983Z</time>
      </trkpt>
      <trkpt lat="47.27515" lon="-2.25005">
        <ele>19</ele>
        <time>2021-05-23T09:45:04.983Z</time>
      </trkpt>
      <trkpt lat="47.27512" lon="-2.25003">
        <ele>19</ele>
        <time>2021-05-23T09:45:05.982Z</time>
      </trkpt>
      <trkpt lat="47.27509" lon="-2.25">
        <ele>19</ele>
        <time>2021-05-23T09:45:06.983Z</time>
      </trkpt>
      <trkpt lat="47.27506" lon="-2.24997">
        <ele>19</ele>
        <time>2021-05-23T09:45:07.983Z</time>
      </trkpt>
      <trkpt lat="47.27503" lon="-2.24994">
        <ele>19</ele>
        <time>2021-05-23T09:45:08.983Z</time>
      </trkpt>
      <trkpt lat="47.275" lon="-2.24992">
        <ele>18</ele>
        <time>2021-05-23T09:45:09.982Z</time>
      </trkpt>
      <trkpt lat="47.27497" lon="-2.2499">
        <ele>18</ele>
        <time>2021-05-23T09:45:10.982Z</time>
      </trkpt>
      <trkpt lat="47.27494" lon="-2.24988">
        <ele>18</ele>
        <time>2021-05-23T09:45:11.983Z</time>
      </trkpt>
      <trkpt lat="47.27492" lon="-2.24987">
        <ele>17</ele>
        <time>2021-05-23T09:45:12.982Z</time>
      </trkpt>
      <trkpt lat="47.2749" lon="-2.24985">
        <ele>17</ele>
        <time>2021-05-23T09:45:13.983Z</time>
      </trkpt>
      <trkpt lat="47.27487" lon="-2.24984">
        <ele>17</ele>
        <time>2021-05-23T09:45:14.982Z</time>
      </trkpt>
      <trkpt lat="47.27485" lon="-2.24983">
        <ele>16</ele>
        <time>2021-05-23T09:45:15.983Z</time>
      </trkpt>
      <trkpt lat="47.27483" lon="-2.24982">
        <ele>16</ele>
        <time>2021-05-23T09:45:16.982Z</time>
      </trkpt>
      <trkpt lat="47.27482" lon="-2.2498">
        <ele>16</ele>
        <time>2021-05-23T09:45:17.982Z</time>
      </trkpt>
      <trkpt lat="47.27481" lon="-2.24978">
        <ele>15</ele>
        <time>2021-05-23T09:45:18.982Z</time>
      </trkpt>
      <trkpt lat="47.2748" lon="-2.24976">
        <ele>15</ele>
        <time>2021-05-23T09:45:19.983Z</time>
      </trkpt>
      <trkpt lat="47.27478" lon="-2.24975">
        <ele>15</ele>
        <time>2021-05-23T09:45:20.983Z</time>
      </trkpt>
      <trkpt lat="47.27476" lon="-2.24974">
        <ele>14</ele>
        <time>2021-05-23T09:45:21.982Z</time>
      </trkpt>
      <trkpt lat="47.27474" lon="-2.24972">
        <ele>14</ele>
        <time>2021-05-23T09:45:22.983Z</time>
      </trkpt>
      <trkpt lat="47.27472" lon="-2.2497">
        <ele>14</ele>
        <time>2021-05-23T09:45:23.983Z</time>
      </trkpt>
      <trkpt lat="47.2747" lon="-2.24969">
        <ele>13</ele>
        <time>2021-05-23T09:45:24.983Z</time>
      </trkpt>
      <trkpt lat="47.27468" lon="-2.24968">
        <ele>13</ele>
        <time>2021-05-23T09:45:25.983Z</time>
      </trkpt>
      <trkpt lat="47.27467" lon="-2.24967">
        <ele>13</ele>
        <time>2021-05-23T09:45:26.982Z</time>
      </trkpt>
      <trkpt lat="47.27465" lon="-2.24967">
        <ele>12</ele>
        <time>2021-05-23T09:45:27.982Z</time>
      </trkpt>
      <trkpt lat="47.27463" lon="-2.24965">
        <ele>12</ele>
        <time>2021-05-23T09:45:28.982Z</time>
      </trkpt>
      <trkpt lat="47.27462" lon="-2.24964">
        <ele>12</ele>
        <time>2021-05-23T09:45:29.983Z</time>
      </trkpt>
      <trkpt lat="47.2746" lon="-2.24963">
        <ele>12</ele>
        <time>2021-05-23T09:45:30.982Z</time>
      </trkpt>
      <trkpt lat="47.27459" lon="-2.24962">
        <ele>12</ele>
        <time>2021-05-23T09:45:31.983Z</time>
      </trkpt>
      <trkpt lat="47.27457" lon="-2.24961">
        <ele>12</ele>
        <time>2021-05-23T09:45:32.983Z</time>
      </trkpt>
      <trkpt lat="47.27455" lon="-2.24961">
        <ele>12</ele>
        <time>2021-05-23T09:45:33.982Z</time>
      </trkpt>
      <trkpt lat="47.27453" lon="-2.2496">
        <ele>12</ele>
        <time>2021-05-23T09:45:34.983Z</time>
      </trkpt>
      <trkpt lat="47.27451" lon="-2.24961">
        <ele>12</ele>
        <time>2021-05-23T09:45:35.982Z</time>
      </trkpt>
      <trkpt lat="47.27449" lon="-2.24961">
        <ele>12</ele>
        <time>2021-05-23T09:45:36.983Z</time>
      </trkpt>
      <trkpt lat="47.27447" lon="-2.24962">
        <ele>12</ele>
        <time>2021-05-23T09:45:37.983Z</time>
      </trkpt>
      <trkpt lat="47.27444" lon="-2.24962">
        <ele>12</ele>
        <time>2021-05-23T09:45:38.983Z</time>
      </trkpt>
      <trkpt lat="47.27442" lon="-2.24963">
        <ele>12</ele>
        <time>2021-05-23T09:45:39.983Z</time>
      </trkpt>
      <trkpt lat="47.2744" lon="-2.24964">
        <ele>13</ele>
        <time>2021-05-23T09:45:40.983Z</time>
      </trkpt>
      <trkpt lat="47.27438" lon="-2.24964">
        <ele>13</ele>
        <time>2021-05-23T09:45:41.983Z</time>
      </trkpt>
      <trkpt lat="47.27435" lon="-2.24965">
        <ele>14</ele>
        <time>2021-05-23T09:45:42.982Z</time>
      </trkpt>
      <trkpt lat="47.27432" lon="-2.24966">
        <ele>14</ele>
        <time>2021-05-23T09:45:43.983Z</time>
      </trkpt>
      <trkpt lat="47.2743" lon="-2.24967">
        <ele>14</ele>
        <time>2021-05-23T09:45:44.983Z</time>
      </trkpt>
      <trkpt lat="47.27427" lon="-2.24968">
        <ele>14</ele>
        <time>2021-05-23T09:45:45.983Z</time>
      </trkpt>
      <trkpt lat="47.27425" lon="-2.24968">
        <ele>14</ele>
        <time>2021-05-23T09:45:46.983Z</time>
      </trkpt>
      <trkpt lat="47.27423" lon="-2.24968">
        <ele>14</ele>
        <time>2021-05-23T09:45:47.983Z</time>
      </trkpt>
      <trkpt lat="47.27422" lon="-2.24969">
        <ele>14</ele>
        <time>2021-05-23T09:45:48.982Z</time>
      </trkpt>
      <trkpt lat="47.27421" lon="-2.24969">
        <ele>14</ele>
        <time>2021-05-23T09:45:49.983Z</time>
      </trkpt>
      <trkpt lat="47.27419" lon="-2.24968">
        <ele>14</ele>
        <time>2021-05-23T09:45:50.982Z</time>
      </trkpt>
      <trkpt lat="47.27418" lon="-2.24968">
        <ele>14</ele>
        <time>2021-05-23T09:45:51.983Z</time>
      </trkpt>
      <trkpt lat="47.27418" lon="-2.24967">
        <ele>14</ele>
        <time>2021-05-23T09:45:52.983Z</time>
      </trkpt>
      <trkpt lat="47.27417" lon="-2.24967">
        <ele>14</ele>
        <time>2021-05-23T09:45:53.982Z</time>
      </trkpt>
      <trkpt lat="47.27415" lon="-2.24967">
        <ele>13</ele>
        <time>2021-05-23T09:45:54.982Z</time>
      </trkpt>
      <trkpt lat="47.27413" lon="-2.24967">
        <ele>13</ele>
        <time>2021-05-23T09:45:55.982Z</time>
      </trkpt>
      <trkpt lat="47.2741" lon="-2.24967">
        <ele>13</ele>
        <time>2021-05-23T09:45:56.983Z</time>
      </trkpt>
      <trkpt lat="47.27408" lon="-2.24968">
        <ele>12</ele>
        <time>2021-05-23T09:45:57.983Z</time>
      </trkpt>
      <trkpt lat="47.27405" lon="-2.24968">
        <ele>12</ele>
        <time>2021-05-23T09:45:58.983Z</time>
      </trkpt>
      <trkpt lat="47.27402" lon="-2.24969">
        <ele>13</ele>
        <time>2021-05-23T09:45:59.983Z</time>
      </trkpt>
      <trkpt lat="47.27399" lon="-2.24969">
        <ele>13</ele>
        <time>2021-05-23T09:46:00.983Z</time>
      </trkpt>
      <trkpt lat="47.27395" lon="-2.24969">
        <ele>13</ele>
        <time>2021-05-23T09:46:01.983Z</time>
      </trkpt>
      <trkpt lat="47.27392" lon="-2.2497">
        <ele>13</ele>
        <time>2021-05-23T09:46:02.983Z</time>
      </trkpt>
      <trkpt lat="47.27389" lon="-2.24971">
        <ele>14</ele>
        <time>2021-05-23T09:46:03.982Z</time>
      </trkpt>
      <trkpt lat="47.27387" lon="-2.24972">
        <ele>14</ele>
        <time>2021-05-23T09:46:04.983Z</time>
      </trkpt>
      <trkpt lat="47.27385" lon="-2.24974">
        <ele>15</ele>
        <time>2021-05-23T09:46:05.983Z</time>
      </trkpt>
      <trkpt lat="47.27383" lon="-2.24976">
        <ele>15</ele>
        <time>2021-05-23T09:46:06.982Z</time>
      </trkpt>
      <trkpt lat="47.27382" lon="-2.24978">
        <ele>15</ele>
        <time>2021-05-23T09:46:07.983Z</time>
      </trkpt>
      <trkpt lat="47.2738" lon="-2.24979">
        <ele>15</ele>
        <time>2021-05-23T09:46:08.983Z</time>
      </trkpt>
      <trkpt lat="47.27379" lon="-2.24981">
        <ele>15</ele>
        <time>2021-05-23T09:46:09.983Z</time>
      </trkpt>
      <trkpt lat="47.27378" lon="-2.24983">
        <ele>14</ele>
        <time>2021-05-23T09:46:10.983Z</time>
      </trkpt>
      <trkpt lat="47.27377" lon="-2.24986">
        <ele>14</ele>
        <time>2021-05-23T09:46:11.983Z</time>
      </trkpt>
      <trkpt lat="47.27375" lon="-2.24989">
        <ele>14</ele>
        <time>2021-05-23T09:46:12.982Z</time>
      </trkpt>
      <trkpt lat="47.27374" lon="-2.24991">
        <ele>14</ele>
        <time>2021-05-23T09:46:13.983Z</time>
      </trkpt>
      <trkpt lat="47.27372" lon="-2.24994">
        <ele>14</ele>
        <time>2021-05-23T09:46:14.983Z</time>
      </trkpt>
      <trkpt lat="47.27371" lon="-2.24997">
        <ele>13</ele>
        <time>2021-05-23T09:46:15.983Z</time>
      </trkpt>
      <trkpt lat="47.27369" lon="-2.24999">
        <ele>13</ele>
        <time>2021-05-23T09:46:16.982Z</time>
      </trkpt>
      <trkpt lat="47.27367" lon="-2.25001">
        <ele>13</ele>
        <time>2021-05-23T09:46:17.983Z</time>
      </trkpt>
      <trkpt lat="47.27365" lon="-2.25003">
        <ele>13</ele>
        <time>2021-05-23T09:46:18.983Z</time>
      </trkpt>
      <trkpt lat="47.27363" lon="-2.25005">
        <ele>13</ele>
        <time>2021-05-23T09:46:19.982Z</time>
      </trkpt>
      <trkpt lat="47.27361" lon="-2.25007">
        <ele>13</ele>
        <time>2021-05-23T09:46:20.983Z</time>
      </trkpt>
      <trkpt lat="47.27359" lon="-2.25009">
        <ele>13</ele>
        <time>2021-05-23T09:46:21.983Z</time>
      </trkpt>
      <trkpt lat="47.27358" lon="-2.25012">
        <ele>13</ele>
        <time>2021-05-23T09:46:22.982Z</time>
      </trkpt>
      <trkpt lat="47.27356" lon="-2.25015">
        <ele>14</ele>
        <time>2021-05-23T09:46:23.983Z</time>
      </trkpt>
      <trkpt lat="47.27355" lon="-2.25018">
        <ele>14</ele>
        <time>2021-05-23T09:46:24.982Z</time>
      </trkpt>
      <trkpt lat="47.27353" lon="-2.2502">
        <ele>14</ele>
        <time>2021-05-23T09:46:25.983Z</time>
      </trkpt>
      <trkpt lat="47.27351" lon="-2.25023">
        <ele>14</ele>
        <time>2021-05-23T09:46:26.983Z</time>
      </trkpt>
      <trkpt lat="47.27349" lon="-2.25026">
        <ele>15</ele>
        <time>2021-05-23T09:46:27.983Z</time>
      </trkpt>
      <trkpt lat="47.27348" lon="-2.25027">
        <ele>15</ele>
        <time>2021-05-23T09:46:28.983Z</time>
      </trkpt>
      <trkpt lat="47.27347" lon="-2.2503">
        <ele>15</ele>
        <time>2021-05-23T09:46:29.983Z</time>
      </trkpt>
      <trkpt lat="47.27345" lon="-2.25033">
        <ele>15</ele>
        <time>2021-05-23T09:46:30.982Z</time>
      </trkpt>
      <trkpt lat="47.27343" lon="-2.25035">
        <ele>15</ele>
        <time>2021-05-23T09:46:31.982Z</time>
      </trkpt>
      <trkpt lat="47.27342" lon="-2.25038">
        <ele>14</ele>
        <time>2021-05-23T09:46:32.983Z</time>
      </trkpt>
      <trkpt lat="47.27341" lon="-2.2504">
        <ele>14</ele>
        <time>2021-05-23T09:46:33.982Z</time>
      </trkpt>
      <trkpt lat="47.27341" lon="-2.25042">
        <ele>13</ele>
        <time>2021-05-23T09:46:34.983Z</time>
      </trkpt>
      <trkpt lat="47.2734" lon="-2.25047">
        <ele>13</ele>
        <time>2021-05-23T09:46:35.983Z</time>
      </trkpt>
      <trkpt lat="47.27341" lon="-2.2505">
        <ele>12</ele>
        <time>2021-05-23T09:46:36.983Z</time>
      </trkpt>
      <trkpt lat="47.27341" lon="-2.25054">
        <ele>12</ele>
        <time>2021-05-23T09:46:37.983Z</time>
      </trkpt>
      <trkpt lat="47.27342" lon="-2.25058">
        <ele>12</ele>
        <time>2021-05-23T09:46:38.983Z</time>
      </trkpt>
      <trkpt lat="47.27342" lon="-2.25061">
        <ele>12</ele>
        <time>2021-05-23T09:46:39.982Z</time>
      </trkpt>
      <trkpt lat="47.27342" lon="-2.25065">
        <ele>12</ele>
        <time>2021-05-23T09:46:40.983Z</time>
      </trkpt>
      <trkpt lat="47.27343" lon="-2.25068">
        <ele>12</ele>
        <time>2021-05-23T09:46:41.982Z</time>
      </trkpt>
      <trkpt lat="47.27344" lon="-2.25072">
        <ele>12</ele>
        <time>2021-05-23T09:46:42.983Z</time>
      </trkpt>
      <trkpt lat="47.27345" lon="-2.25075">
        <ele>12</ele>
        <time>2021-05-23T09:46:43.983Z</time>
      </trkpt>
      <trkpt lat="47.27346" lon="-2.25079">
        <ele>12</ele>
        <time>2021-05-23T09:46:44.983Z</time>
      </trkpt>
      <trkpt lat="47.27347" lon="-2.25082">
        <ele>12</ele>
        <time>2021-05-23T09:46:45.983Z</time>
      </trkpt>
      <trkpt lat="47.27348" lon="-2.25084">
        <ele>12</ele>
        <time>2021-05-23T09:46:46.983Z</time>
      </trkpt>
      <trkpt lat="47.27348" lon="-2.25087">
        <ele>12</ele>
        <time>2021-05-23T09:46:47.983Z</time>
      </trkpt>
      <trkpt lat="47.2735" lon="-2.25091">
        <ele>11</ele>
        <time>2021-05-23T09:46:48.982Z</time>
      </trkpt>
      <trkpt lat="47.27351" lon="-2.25094">
        <ele>11</ele>
        <time>2021-05-23T09:46:49.982Z</time>
      </trkpt>
      <trkpt lat="47.27353" lon="-2.25097">
        <ele>11</ele>
        <time>2021-05-23T09:46:50.982Z</time>
      </trkpt>
      <trkpt lat="47.27354" lon="-2.251">
        <ele>11</ele>
        <time>2021-05-23T09:46:51.982Z</time>
      </trkpt>
      <trkpt lat="47.27355" lon="-2.25102">
        <ele>10</ele>
        <time>2021-05-23T09:46:52.983Z</time>
      </trkpt>
      <trkpt lat="47.27356" lon="-2.25105">
        <ele>11</ele>
        <time>2021-05-23T09:46:53.983Z</time>
      </trkpt>
      <trkpt lat="47.27357" lon="-2.25107">
        <ele>11</ele>
        <time>2021-05-23T09:46:54.983Z</time>
      </trkpt>
      <trkpt lat="47.27358" lon="-2.25111">
        <ele>11</ele>
        <time>2021-05-23T09:46:55.982Z</time>
      </trkpt>
      <trkpt lat="47.27358" lon="-2.25114">
        <ele>10</ele>
        <time>2021-05-23T09:46:56.982Z</time>
      </trkpt>
      <trkpt lat="47.27359" lon="-2.25117">
        <ele>11</ele>
        <time>2021-05-23T09:46:57.983Z</time>
      </trkpt>
      <trkpt lat="47.27361" lon="-2.25121">
        <ele>11</ele>
        <time>2021-05-23T09:46:58.983Z</time>
      </trkpt>
      <trkpt lat="47.27363" lon="-2.25123">
        <ele>11</ele>
        <time>2021-05-23T09:46:59.982Z</time>
      </trkpt>
      <trkpt lat="47.27364" lon="-2.25126">
        <ele>11</ele>
        <time>2021-05-23T09:47:00.983Z</time>
      </trkpt>
      <trkpt lat="47.27366" lon="-2.25129">
        <ele>11</ele>
        <time>2021-05-23T09:47:01.983Z</time>
      </trkpt>
      <trkpt lat="47.27368" lon="-2.25131">
        <ele>11</ele>
        <time>2021-05-23T09:47:02.983Z</time>
      </trkpt>
      <trkpt lat="47.2737" lon="-2.25134">
        <ele>11</ele>
        <time>2021-05-23T09:47:03.983Z</time>
      </trkpt>
      <trkpt lat="47.27372" lon="-2.25137">
        <ele>12</ele>
        <time>2021-05-23T09:47:04.982Z</time>
      </trkpt>
      <trkpt lat="47.27372" lon="-2.25139">
        <ele>12</ele>
        <time>2021-05-23T09:47:05.983Z</time>
      </trkpt>
      <trkpt lat="47.27374" lon="-2.25142">
        <ele>12</ele>
        <time>2021-05-23T09:47:06.982Z</time>
      </trkpt>
      <trkpt lat="47.27376" lon="-2.25144">
        <ele>12</ele>
        <time>2021-05-23T09:47:07.983Z</time>
      </trkpt>
      <trkpt lat="47.27377" lon="-2.25148">
        <ele>12</ele>
        <time>2021-05-23T09:47:08.983Z</time>
      </trkpt>
      <trkpt lat="47.27378" lon="-2.25151">
        <ele>12</ele>
        <time>2021-05-23T09:47:09.982Z</time>
      </trkpt>
      <trkpt lat="47.27379" lon="-2.25154">
        <ele>12</ele>
        <time>2021-05-23T09:47:10.983Z</time>
      </trkpt>
      <trkpt lat="47.2738" lon="-2.25157">
        <ele>12</ele>
        <time>2021-05-23T09:47:11.983Z</time>
      </trkpt>
      <trkpt lat="47.27381" lon="-2.2516">
        <ele>12</ele>
        <time>2021-05-23T09:47:12.982Z</time>
      </trkpt>
      <trkpt lat="47.27383" lon="-2.25163">
        <ele>12</ele>
        <time>2021-05-23T09:47:13.983Z</time>
      </trkpt>
      <trkpt lat="47.27384" lon="-2.25166">
        <ele>13</ele>
        <time>2021-05-23T09:47:14.983Z</time>
      </trkpt>
      <trkpt lat="47.27385" lon="-2.25169">
        <ele>13</ele>
        <time>2021-05-23T09:47:15.983Z</time>
      </trkpt>
      <trkpt lat="47.27386" lon="-2.25174">
        <ele>14</ele>
        <time>2021-05-23T09:47:16.983Z</time>
      </trkpt>
      <trkpt lat="47.27387" lon="-2.25176">
        <ele>14</ele>
        <time>2021-05-23T09:47:17.982Z</time>
      </trkpt>
      <trkpt lat="47.27388" lon="-2.25179">
        <ele>15</ele>
        <time>2021-05-23T09:47:18.982Z</time>
      </trkpt>
      <trkpt lat="47.27389" lon="-2.25182">
        <ele>15</ele>
        <time>2021-05-23T09:47:19.982Z</time>
      </trkpt>
      <trkpt lat="47.2739" lon="-2.25186">
        <ele>16</ele>
        <time>2021-05-23T09:47:20.983Z</time>
      </trkpt>
      <trkpt lat="47.27392" lon="-2.25189">
        <ele>16</ele>
        <time>2021-05-23T09:47:21.983Z</time>
      </trkpt>
      <trkpt lat="47.27394" lon="-2.25192">
        <ele>16</ele>
        <time>2021-05-23T09:47:22.983Z</time>
      </trkpt>
      <trkpt lat="47.27395" lon="-2.25194">
        <ele>16</ele>
        <time>2021-05-23T09:47:23.983Z</time>
      </trkpt>
      <trkpt lat="47.27396" lon="-2.25196">
        <ele>16</ele>
        <time>2021-05-23T09:47:24.983Z</time>
      </trkpt>
      <trkpt lat="47.27397" lon="-2.25198">
        <ele>16</ele>
        <time>2021-05-23T09:47:25.983Z</time>
      </trkpt>
      <trkpt lat="47.27398" lon="-2.252">
        <ele>16</ele>
        <time>2021-05-23T09:47:26.982Z</time>
      </trkpt>
      <trkpt lat="47.27399" lon="-2.25203">
        <ele>16</ele>
        <time>2021-05-23T09:47:27.983Z</time>
      </trkpt>
      <trkpt lat="47.27401" lon="-2.25206">
        <ele>16</ele>
        <time>2021-05-23T09:47:28.983Z</time>
      </trkpt>
      <trkpt lat="47.27401" lon="-2.25208">
        <ele>16</ele>
        <time>2021-05-23T09:47:29.983Z</time>
      </trkpt>
      <trkpt lat="47.27403" lon="-2.2521">
        <ele>17</ele>
        <time>2021-05-23T09:47:30.983Z</time>
      </trkpt>
      <trkpt lat="47.27404" lon="-2.25213">
        <ele>17</ele>
        <time>2021-05-23T09:47:31.982Z</time>
      </trkpt>
      <trkpt lat="47.27405" lon="-2.25216">
        <ele>17</ele>
        <time>2021-05-23T09:47:32.983Z</time>
      </trkpt>
      <trkpt lat="47.27407" lon="-2.25219">
        <ele>18</ele>
        <time>2021-05-23T09:47:33.983Z</time>
      </trkpt>
      <trkpt lat="47.27408" lon="-2.25223">
        <ele>18</ele>
        <time>2021-05-23T09:47:34.983Z</time>
      </trkpt>
      <trkpt lat="47.2741" lon="-2.25226">
        <ele>18</ele>
        <time>2021-05-23T09:47:35.982Z</time>
      </trkpt>
      <trkpt lat="47.27411" lon="-2.2523">
        <ele>18</ele>
        <time>2021-05-23T09:47:36.983Z</time>
      </trkpt>
      <trkpt lat="47.27412" lon="-2.25233">
        <ele>18</ele>
        <time>2021-05-23T09:47:37.982Z</time>
      </trkpt>
      <trkpt lat="47.27412" lon="-2.25237">
        <ele>18</ele>
        <time>2021-05-23T09:47:38.983Z</time>
      </trkpt>
      <trkpt lat="47.27413" lon="-2.2524">
        <ele>18</ele>
        <time>2021-05-23T09:47:39.982Z</time>
      </trkpt>
      <trkpt lat="47.27414" lon="-2.25243">
        <ele>19</ele>
        <time>2021-05-23T09:47:40.983Z</time>
      </trkpt>
      <trkpt lat="47.27415" lon="-2.25246">
        <ele>19</ele>
        <time>2021-05-23T09:47:41.982Z</time>
      </trkpt>
      <trkpt lat="47.27416" lon="-2.25249">
        <ele>19</ele>
        <time>2021-05-23T09:47:42.982Z</time>
      </trkpt>
      <trkpt lat="47.27417" lon="-2.25251">
        <ele>19</ele>
        <time>2021-05-23T09:47:43.983Z</time>
      </trkpt>
      <trkpt lat="47.27418" lon="-2.25254">
        <ele>19</ele>
        <time>2021-05-23T09:47:44.983Z</time>
      </trkpt>
      <trkpt lat="47.27419" lon="-2.25256">
        <ele>19</ele>
        <time>2021-05-23T09:47:45.983Z</time>
      </trkpt>
      <trkpt lat="47.2742" lon="-2.25258">
        <ele>19</ele>
        <time>2021-05-23T09:47:46.983Z</time>
      </trkpt>
      <trkpt lat="47.27421" lon="-2.25261">
        <ele>18</ele>
        <time>2021-05-23T09:47:47.983Z</time>
      </trkpt>
      <trkpt lat="47.27422" lon="-2.25264">
        <ele>18</ele>
        <time>2021-05-23T09:47:48.983Z</time>
      </trkpt>
      <trkpt lat="47.27423" lon="-2.25266">
        <ele>18</ele>
        <time>2021-05-23T09:47:49.982Z</time>
      </trkpt>
      <trkpt lat="47.27424" lon="-2.25269">
        <ele>18</ele>
        <time>2021-05-23T09:47:50.983Z</time>
      </trkpt>
      <trkpt lat="47.27425" lon="-2.25271">
        <ele>18</ele>
        <time>2021-05-23T09:47:51.983Z</time>
      </trkpt>
      <trkpt lat="47.27426" lon="-2.25273">
        <ele>18</ele>
        <time>2021-05-23T09:47:52.983Z</time>
      </trkpt>
      <trkpt lat="47.27427" lon="-2.25275">
        <ele>18</ele>
        <time>2021-05-23T09:47:53.982Z</time>
      </trkpt>
      <trkpt lat="47.27428" lon="-2.25278">
        <ele>18</ele>
        <time>2021-05-23T09:47:54.983Z</time>
      </trkpt>
      <trkpt lat="47.27429" lon="-2.25281">
        <ele>18</ele>
        <time>2021-05-23T09:47:55.982Z</time>
      </trkpt>
      <trkpt lat="47.2743" lon="-2.25284">
        <ele>19</ele>
        <time>2021-05-23T09:47:56.982Z</time>
      </trkpt>
      <trkpt lat="47.27431" lon="-2.25287">
        <ele>19</ele>
        <time>2021-05-23T09:47:57.983Z</time>
      </trkpt>
      <trkpt lat="47.27432" lon="-2.25291">
        <ele>19</ele>
        <time>2021-05-23T09:47:58.983Z</time>
      </trkpt>
      <trkpt lat="47.27433" lon="-2.25294">
        <ele>19</ele>
        <time>2021-05-23T09:47:59.983Z</time>
      </trkpt>
      <trkpt lat="47.27434" lon="-2.25299">
        <ele>19</ele>
        <time>2021-05-23T09:48:00.982Z</time>
      </trkpt>
      <trkpt lat="47.27435" lon="-2.25302">
        <ele>18</ele>
        <time>2021-05-23T09:48:01.983Z</time>
      </trkpt>
      <trkpt lat="47.27436" lon="-2.25306">
        <ele>18</ele>
        <time>2021-05-23T09:48:02.983Z</time>
      </trkpt>
      <trkpt lat="47.27438" lon="-2.25309">
        <ele>18</ele>
        <time>2021-05-23T09:48:03.982Z</time>
      </trkpt>
      <trkpt lat="47.27439" lon="-2.25312">
        <ele>18</ele>
        <time>2021-05-23T09:48:04.982Z</time>
      </trkpt>
      <trkpt lat="47.27441" lon="-2.25315">
        <ele>18</ele>
        <time>2021-05-23T09:48:05.983Z</time>
      </trkpt>
      <trkpt lat="47.27442" lon="-2.25318">
        <ele>17</ele>
        <time>2021-05-23T09:48:06.983Z</time>
      </trkpt>
      <trkpt lat="47.27444" lon="-2.25321">
        <ele>17</ele>
        <time>2021-05-23T09:48:07.983Z</time>
      </trkpt>
      <trkpt lat="47.27446" lon="-2.25324">
        <ele>16</ele>
        <time>2021-05-23T09:48:08.982Z</time>
      </trkpt>
      <trkpt lat="47.27447" lon="-2.25327">
        <ele>16</ele>
        <time>2021-05-23T09:48:09.982Z</time>
      </trkpt>
      <trkpt lat="47.27448" lon="-2.2533">
        <ele>15</ele>
        <time>2021-05-23T09:48:10.983Z</time>
      </trkpt>
      <trkpt lat="47.27449" lon="-2.25334">
        <ele>15</ele>
        <time>2021-05-23T09:48:11.983Z</time>
      </trkpt>
      <trkpt lat="47.2745" lon="-2.25337">
        <ele>14</ele>
        <time>2021-05-23T09:48:12.982Z</time>
      </trkpt>
      <trkpt lat="47.27451" lon="-2.2534">
        <ele>13</ele>
        <time>2021-05-23T09:48:13.982Z</time>
      </trkpt>
      <trkpt lat="47.27452" lon="-2.25343">
        <ele>13</ele>
        <time>2021-05-23T09:48:14.982Z</time>
      </trkpt>
      <trkpt lat="47.27453" lon="-2.25346">
        <ele>12</ele>
        <time>2021-05-23T09:48:15.982Z</time>
      </trkpt>
      <trkpt lat="47.27453" lon="-2.2535">
        <ele>11</ele>
        <time>2021-05-23T09:48:16.982Z</time>
      </trkpt>
      <trkpt lat="47.27452" lon="-2.25353">
        <ele>11</ele>
        <time>2021-05-23T09:48:17.982Z</time>
      </trkpt>
      <trkpt lat="47.27451" lon="-2.25356">
        <ele>11</ele>
        <time>2021-05-23T09:48:18.982Z</time>
      </trkpt>
      <trkpt lat="47.27451" lon="-2.25359">
        <ele>11</ele>
        <time>2021-05-23T09:48:19.982Z</time>
      </trkpt>
      <trkpt lat="47.2745" lon="-2.25363">
        <ele>11</ele>
        <time>2021-05-23T09:48:20.982Z</time>
      </trkpt>
      <trkpt lat="47.27449" lon="-2.25366">
        <ele>11</ele>
        <time>2021-05-23T09:48:21.982Z</time>
      </trkpt>
      <trkpt lat="47.27449" lon="-2.2537">
        <ele>11</ele>
        <time>2021-05-23T09:48:22.982Z</time>
      </trkpt>
      <trkpt lat="47.27448" lon="-2.25373">
        <ele>11</ele>
        <time>2021-05-23T09:48:23.982Z</time>
      </trkpt>
      <trkpt lat="47.27448" lon="-2.25377">
        <ele>11</ele>
        <time>2021-05-23T09:48:24.982Z</time>
      </trkpt>
      <trkpt lat="47.27447" lon="-2.25381">
        <ele>11</ele>
        <time>2021-05-23T09:48:25.982Z</time>
      </trkpt>
      <trkpt lat="47.27446" lon="-2.25384">
        <ele>11</ele>
        <time>2021-05-23T09:48:26.982Z</time>
      </trkpt>
      <trkpt lat="47.27445" lon="-2.25386">
        <ele>12</ele>
        <time>2021-05-23T09:48:27.983Z</time>
      </trkpt>
      <trkpt lat="47.27444" lon="-2.25389">
        <ele>12</ele>
        <time>2021-05-23T09:48:28.983Z</time>
      </trkpt>
      <trkpt lat="47.27443" lon="-2.25391">
        <ele>12</ele>
        <time>2021-05-23T09:48:29.983Z</time>
      </trkpt>
      <trkpt lat="47.27443" lon="-2.25393">
        <ele>13</ele>
        <time>2021-05-23T09:48:30.983Z</time>
      </trkpt>
      <trkpt lat="47.27442" lon="-2.25395">
        <ele>13</ele>
        <time>2021-05-23T09:48:31.982Z</time>
      </trkpt>
      <trkpt lat="47.2744" lon="-2.25398">
        <ele>13</ele>
        <time>2021-05-23T09:48:32.982Z</time>
      </trkpt>
      <trkpt lat="47.27439" lon="-2.25401">
        <ele>14</ele>
        <time>2021-05-23T09:48:33.982Z</time>
      </trkpt>
      <trkpt lat="47.27438" lon="-2.25404">
        <ele>14</ele>
        <time>2021-05-23T09:48:34.983Z</time>
      </trkpt>
      <trkpt lat="47.27437" lon="-2.25408">
        <ele>15</ele>
        <time>2021-05-23T09:48:35.983Z</time>
      </trkpt>
      <trkpt lat="47.27435" lon="-2.25412">
        <ele>15</ele>
        <time>2021-05-23T09:48:36.983Z</time>
      </trkpt>
      <trkpt lat="47.27436" lon="-2.25416">
        <ele>16</ele>
        <time>2021-05-23T09:48:37.983Z</time>
      </trkpt>
      <trkpt lat="47.27437" lon="-2.2542">
        <ele>16</ele>
        <time>2021-05-23T09:48:38.982Z</time>
      </trkpt>
      <trkpt lat="47.27438" lon="-2.25423">
        <ele>16</ele>
        <time>2021-05-23T09:48:39.983Z</time>
      </trkpt>
      <trkpt lat="47.27439" lon="-2.25426">
        <ele>16</ele>
        <time>2021-05-23T09:48:40.983Z</time>
      </trkpt>
      <trkpt lat="47.27441" lon="-2.25429">
        <ele>16</ele>
        <time>2021-05-23T09:48:41.983Z</time>
      </trkpt>
      <trkpt lat="47.27443" lon="-2.25431">
        <ele>16</ele>
        <time>2021-05-23T09:48:42.983Z</time>
      </trkpt>
      <trkpt lat="47.27446" lon="-2.25433">
        <ele>16</ele>
        <time>2021-05-23T09:48:43.983Z</time>
      </trkpt>
      <trkpt lat="47.27448" lon="-2.25435">
        <ele>16</ele>
        <time>2021-05-23T09:48:44.983Z</time>
      </trkpt>
      <trkpt lat="47.27451" lon="-2.25436">
        <ele>16</ele>
        <time>2021-05-23T09:48:45.983Z</time>
      </trkpt>
      <trkpt lat="47.27453" lon="-2.25437">
        <ele>16</ele>
        <time>2021-05-23T09:48:46.983Z</time>
      </trkpt>
      <trkpt lat="47.27455" lon="-2.25438">
        <ele>16</ele>
        <time>2021-05-23T09:48:47.983Z</time>
      </trkpt>
      <trkpt lat="47.27458" lon="-2.25438">
        <ele>16</ele>
        <time>2021-05-23T09:48:48.982Z</time>
      </trkpt>
      <trkpt lat="47.27459" lon="-2.25439">
        <ele>16</ele>
        <time>2021-05-23T09:48:49.983Z</time>
      </trkpt>
      <trkpt lat="47.27461" lon="-2.2544">
        <ele>16</ele>
        <time>2021-05-23T09:48:50.983Z</time>
      </trkpt>
      <trkpt lat="47.27463" lon="-2.25441">
        <ele>16</ele>
        <time>2021-05-23T09:48:51.983Z</time>
      </trkpt>
      <trkpt lat="47.27465" lon="-2.25441">
        <ele>16</ele>
        <time>2021-05-23T09:48:52.983Z</time>
      </trkpt>
      <trkpt lat="47.27467" lon="-2.25441">
        <ele>16</ele>
        <time>2021-05-23T09:48:53.983Z</time>
      </trkpt>
      <trkpt lat="47.27468" lon="-2.25441">
        <ele>16</ele>
        <time>2021-05-23T09:48:54.982Z</time>
      </trkpt>
      <trkpt lat="47.2747" lon="-2.25441">
        <ele>16</ele>
        <time>2021-05-23T09:48:55.983Z</time>
      </trkpt>
      <trkpt lat="47.27472" lon="-2.25441">
        <ele>17</ele>
        <time>2021-05-23T09:48:56.983Z</time>
      </trkpt>
      <trkpt lat="47.27474" lon="-2.25441">
        <ele>17</ele>
        <time>2021-05-23T09:48:57.982Z</time>
      </trkpt>
      <trkpt lat="47.27476" lon="-2.25441">
        <ele>17</ele>
        <time>2021-05-23T09:48:58.982Z</time>
      </trkpt>
      <trkpt lat="47.27477" lon="-2.25442">
        <ele>17</ele>
        <time>2021-05-23T09:48:59.983Z</time>
      </trkpt>
      <trkpt lat="47.27479" lon="-2.25442">
        <ele>17</ele>
        <time>2021-05-23T09:49:00.983Z</time>
      </trkpt>
      <trkpt lat="47.27482" lon="-2.25442">
        <ele>17</ele>
        <time>2021-05-23T09:49:01.982Z</time>
      </trkpt>
      <trkpt lat="47.27484" lon="-2.25443">
        <ele>17</ele>
        <time>2021-05-23T09:49:02.982Z</time>
      </trkpt>
      <trkpt lat="47.27486" lon="-2.25443">
        <ele>17</ele>
        <time>2021-05-23T09:49:03.982Z</time>
      </trkpt>
      <trkpt lat="47.27488" lon="-2.25444">
        <ele>17</ele>
        <time>2021-05-23T09:49:04.983Z</time>
      </trkpt>
      <trkpt lat="47.2749" lon="-2.25445">
        <ele>17</ele>
        <time>2021-05-23T09:49:05.982Z</time>
      </trkpt>
      <trkpt lat="47.27492" lon="-2.25447">
        <ele>17</ele>
        <time>2021-05-23T09:49:06.983Z</time>
      </trkpt>
      <trkpt lat="47.27493" lon="-2.25448">
        <ele>17</ele>
        <time>2021-05-23T09:49:07.982Z</time>
      </trkpt>
      <trkpt lat="47.27495" lon="-2.2545">
        <ele>17</ele>
        <time>2021-05-23T09:49:08.982Z</time>
      </trkpt>
      <trkpt lat="47.27497" lon="-2.25451">
        <ele>17</ele>
        <time>2021-05-23T09:49:09.983Z</time>
      </trkpt>
      <trkpt lat="47.27498" lon="-2.25452">
        <ele>17</ele>
        <time>2021-05-23T09:49:10.982Z</time>
      </trkpt>
      <trkpt lat="47.275" lon="-2.25454">
        <ele>16</ele>
        <time>2021-05-23T09:49:11.983Z</time>
      </trkpt>
      <trkpt lat="47.27501" lon="-2.25455">
        <ele>16</ele>
        <time>2021-05-23T09:49:12.983Z</time>
      </trkpt>
      <trkpt lat="47.27503" lon="-2.25456">
        <ele>16</ele>
        <time>2021-05-23T09:49:13.982Z</time>
      </trkpt>
      <trkpt lat="47.27505" lon="-2.25458">
        <ele>16</ele>
        <time>2021-05-23T09:49:14.982Z</time>
      </trkpt>
      <trkpt lat="47.27507" lon="-2.25459">
        <ele>16</ele>
        <time>2021-05-23T09:49:15.983Z</time>
      </trkpt>
      <trkpt lat="47.27509" lon="-2.25461">
        <ele>16</ele>
        <time>2021-05-23T09:49:16.983Z</time>
      </trkpt>
      <trkpt lat="47.27512" lon="-2.25463">
        <ele>17</ele>
        <time>2021-05-23T09:49:17.982Z</time>
      </trkpt>
      <trkpt lat="47.27514" lon="-2.25465">
        <ele>17</ele>
        <time>2021-05-23T09:49:18.982Z</time>
      </trkpt>
      <trkpt lat="47.27516" lon="-2.25469">
        <ele>17</ele>
        <time>2021-05-23T09:49:19.983Z</time>
      </trkpt>
      <trkpt lat="47.27517" lon="-2.25472">
        <ele>17</ele>
        <time>2021-05-23T09:49:20.983Z</time>
      </trkpt>
      <trkpt lat="47.27519" lon="-2.25476">
        <ele>17</ele>
        <time>2021-05-23T09:49:21.983Z</time>
      </trkpt>
      <trkpt lat="47.2752" lon="-2.25479">
        <ele>17</ele>
        <time>2021-05-23T09:49:22.982Z</time>
      </trkpt>
      <trkpt lat="47.27522" lon="-2.25482">
        <ele>17</ele>
        <time>2021-05-23T09:49:23.983Z</time>
      </trkpt>
      <trkpt lat="47.27523" lon="-2.25484">
        <ele>17</ele>
        <time>2021-05-23T09:49:24.982Z</time>
      </trkpt>
      <trkpt lat="47.27525" lon="-2.25487">
        <ele>17</ele>
        <time>2021-05-23T09:49:25.983Z</time>
      </trkpt>
      <trkpt lat="47.27526" lon="-2.2549">
        <ele>17</ele>
        <time>2021-05-23T09:49:26.982Z</time>
      </trkpt>
      <trkpt lat="47.27528" lon="-2.25493">
        <ele>17</ele>
        <time>2021-05-23T09:49:27.983Z</time>
      </trkpt>
      <trkpt lat="47.2753" lon="-2.25495">
        <ele>17</ele>
        <time>2021-05-23T09:49:28.983Z</time>
      </trkpt>
      <trkpt lat="47.27532" lon="-2.25497">
        <ele>17</ele>
        <time>2021-05-23T09:49:29.983Z</time>
      </trkpt>
      <trkpt lat="47.27533" lon="-2.255">
        <ele>17</ele>
        <time>2021-05-23T09:49:30.983Z</time>
      </trkpt>
      <trkpt lat="47.27534" lon="-2.25503">
        <ele>17</ele>
        <time>2021-05-23T09:49:31.983Z</time>
      </trkpt>
      <trkpt lat="47.27535" lon="-2.25506">
        <ele>17</ele>
        <time>2021-05-23T09:49:32.983Z</time>
      </trkpt>
      <trkpt lat="47.27537" lon="-2.25508">
        <ele>17</ele>
        <time>2021-05-23T09:49:33.982Z</time>
      </trkpt>
      <trkpt lat="47.27538" lon="-2.25511">
        <ele>17</ele>
        <time>2021-05-23T09:49:34.982Z</time>
      </trkpt>
      <trkpt lat="47.27539" lon="-2.25514">
        <ele>17</ele>
        <time>2021-05-23T09:49:35.982Z</time>
      </trkpt>
      <trkpt lat="47.2754" lon="-2.25517">
        <ele>17</ele>
        <time>2021-05-23T09:49:36.983Z</time>
      </trkpt>
      <trkpt lat="47.27542" lon="-2.25521">
        <ele>17</ele>
        <time>2021-05-23T09:49:37.982Z</time>
      </trkpt>
      <trkpt lat="47.27543" lon="-2.25525">
        <ele>17</ele>
        <time>2021-05-23T09:49:38.983Z</time>
      </trkpt>
      <trkpt lat="47.27545" lon="-2.25529">
        <ele>17</ele>
        <time>2021-05-23T09:49:39.983Z</time>
      </trkpt>
      <trkpt lat="47.27545" lon="-2.25533">
        <ele>16</ele>
        <time>2021-05-23T09:49:40.983Z</time>
      </trkpt>
      <trkpt lat="47.27547" lon="-2.25537">
        <ele>16</ele>
        <time>2021-05-23T09:49:41.983Z</time>
      </trkpt>
      <trkpt lat="47.27548" lon="-2.2554">
        <ele>16</ele>
        <time>2021-05-23T09:49:42.983Z</time>
      </trkpt>
      <trkpt lat="47.27549" lon="-2.25543">
        <ele>15</ele>
        <time>2021-05-23T09:49:43.983Z</time>
      </trkpt>
      <trkpt lat="47.2755" lon="-2.25546">
        <ele>15</ele>
        <time>2021-05-23T09:49:44.983Z</time>
      </trkpt>
      <trkpt lat="47.27551" lon="-2.2555">
        <ele>15</ele>
        <time>2021-05-23T09:49:45.982Z</time>
      </trkpt>
      <trkpt lat="47.27552" lon="-2.25553">
        <ele>14</ele>
        <time>2021-05-23T09:49:46.982Z</time>
      </trkpt>
      <trkpt lat="47.27553" lon="-2.25556">
        <ele>14</ele>
        <time>2021-05-23T09:49:47.982Z</time>
      </trkpt>
      <trkpt lat="47.27554" lon="-2.25559">
        <ele>14</ele>
        <time>2021-05-23T09:49:48.983Z</time>
      </trkpt>
      <trkpt lat="47.27555" lon="-2.25563">
        <ele>14</ele>
        <time>2021-05-23T09:49:49.983Z</time>
      </trkpt>
      <trkpt lat="47.27556" lon="-2.25566">
        <ele>14</ele>
        <time>2021-05-23T09:49:50.983Z</time>
      </trkpt>
      <trkpt lat="47.27557" lon="-2.25568">
        <ele>14</ele>
        <time>2021-05-23T09:49:51.983Z</time>
      </trkpt>
      <trkpt lat="47.27558" lon="-2.25571">
        <ele>15</ele>
        <time>2021-05-23T09:49:52.983Z</time>
      </trkpt>
      <trkpt lat="47.27558" lon="-2.25572">
        <ele>15</ele>
        <time>2021-05-23T09:49:53.983Z</time>
      </trkpt>
      <trkpt lat="47.27559" lon="-2.25574">
        <ele>15</ele>
        <time>2021-05-23T09:49:54.983Z</time>
      </trkpt>
      <trkpt lat="47.27559" lon="-2.25576">
        <ele>15</ele>
        <time>2021-05-23T09:49:55.982Z</time>
      </trkpt>
      <trkpt lat="47.2756" lon="-2.25578">
        <ele>15</ele>
        <time>2021-05-23T09:49:56.982Z</time>
      </trkpt>
      <trkpt lat="47.27561" lon="-2.25581">
        <ele>16</ele>
        <time>2021-05-23T09:49:57.983Z</time>
      </trkpt>
      <trkpt lat="47.27562" lon="-2.25583">
        <ele>16</ele>
        <time>2021-05-23T09:49:58.982Z</time>
      </trkpt>
      <trkpt lat="47.27562" lon="-2.25584">
        <ele>16</ele>
        <time>2021-05-23T09:49:59.982Z</time>
      </trkpt>
      <trkpt lat="47.27563" lon="-2.25585">
        <ele>16</ele>
        <time>2021-05-23T09:50:00.983Z</time>
      </trkpt>
      <trkpt lat="47.27563" lon="-2.25587">
        <ele>16</ele>
        <time>2021-05-23T09:50:01.983Z</time>
      </trkpt>
      <trkpt lat="47.27564" lon="-2.25589">
        <ele>16</ele>
        <time>2021-05-23T09:50:02.982Z</time>
      </trkpt>
      <trkpt lat="47.27563" lon="-2.25592">
        <ele>16</ele>
        <time>2021-05-23T09:50:03.982Z</time>
      </trkpt>
      <trkpt lat="47.27564" lon="-2.25595">
        <ele>16</ele>
        <time>2021-05-23T09:50:04.983Z</time>
      </trkpt>
      <trkpt lat="47.27564" lon="-2.25597">
        <ele>16</ele>
        <time>2021-05-23T09:50:05.983Z</time>
      </trkpt>
      <trkpt lat="47.27564" lon="-2.25599">
        <ele>16</ele>
        <time>2021-05-23T09:50:06.983Z</time>
      </trkpt>
      <trkpt lat="47.27564" lon="-2.25602">
        <ele>16</ele>
        <time>2021-05-23T09:50:07.983Z</time>
      </trkpt>
      <trkpt lat="47.27564" lon="-2.25604">
        <ele>16</ele>
        <time>2021-05-23T09:50:08.983Z</time>
      </trkpt>
      <trkpt lat="47.27563" lon="-2.25607">
        <ele>15</ele>
        <time>2021-05-23T09:50:09.983Z</time>
      </trkpt>
      <trkpt lat="47.27563" lon="-2.2561">
        <ele>15</ele>
        <time>2021-05-23T09:50:10.982Z</time>
      </trkpt>
      <trkpt lat="47.27563" lon="-2.25612">
        <ele>15</ele>
        <time>2021-05-23T09:50:11.983Z</time>
      </trkpt>
      <trkpt lat="47.27564" lon="-2.25614">
        <ele>15</ele>
        <time>2021-05-23T09:50:12.982Z</time>
      </trkpt>
      <trkpt lat="47.27564" lon="-2.25617">
        <ele>15</ele>
        <time>2021-05-23T09:50:13.983Z</time>
      </trkpt>
      <trkpt lat="47.27564" lon="-2.25619">
        <ele>15</ele>
        <time>2021-05-23T09:50:14.983Z</time>
      </trkpt>
      <trkpt lat="47.27563" lon="-2.25621">
        <ele>15</ele>
        <time>2021-05-23T09:50:15.983Z</time>
      </trkpt>
      <trkpt lat="47.27563" lon="-2.25625">
        <ele>14</ele>
        <time>2021-05-23T09:50:16.983Z</time>
      </trkpt>
      <trkpt lat="47.27563" lon="-2.25629">
        <ele>14</ele>
        <time>2021-05-23T09:50:17.982Z</time>
      </trkpt>
      <trkpt lat="47.27562" lon="-2.25633">
        <ele>15</ele>
        <time>2021-05-23T09:50:18.983Z</time>
      </trkpt>
      <trkpt lat="47.27562" lon="-2.25636">
        <ele>15</ele>
        <time>2021-05-23T09:50:19.983Z</time>
      </trkpt>
      <trkpt lat="47.27562" lon="-2.25638">
        <ele>15</ele>
        <time>2021-05-23T09:50:20.983Z</time>
      </trkpt>
      <trkpt lat="47.27562" lon="-2.2564">
        <ele>15</ele>
        <time>2021-05-23T09:50:21.983Z</time>
      </trkpt>
      <trkpt lat="47.27562" lon="-2.25642">
        <ele>15</ele>
        <time>2021-05-23T09:50:22.983Z</time>
      </trkpt>
      <trkpt lat="47.27563" lon="-2.25645">
        <ele>15</ele>
        <time>2021-05-23T09:50:23.983Z</time>
      </trkpt>
      <trkpt lat="47.27564" lon="-2.25647">
        <ele>15</ele>
        <time>2021-05-23T09:50:24.983Z</time>
      </trkpt>
      <trkpt lat="47.27565" lon="-2.25649">
        <ele>15</ele>
        <time>2021-05-23T09:50:25.982Z</time>
      </trkpt>
      <trkpt lat="47.27567" lon="-2.2565">
        <ele>15</ele>
        <time>2021-05-23T09:50:26.982Z</time>
      </trkpt>
      <trkpt lat="47.27568" lon="-2.25652">
        <ele>16</ele>
        <time>2021-05-23T09:50:27.983Z</time>
      </trkpt>
      <trkpt lat="47.27568" lon="-2.25653">
        <ele>15</ele>
        <time>2021-05-23T09:50:28.983Z</time>
      </trkpt>
      <trkpt lat="47.27568" lon="-2.25655">
        <ele>15</ele>
        <time>2021-05-23T09:50:29.983Z</time>
      </trkpt>
      <trkpt lat="47.27567" lon="-2.25656">
        <ele>15</ele>
        <time>2021-05-23T09:50:30.983Z</time>
      </trkpt>
      <trkpt lat="47.27565" lon="-2.25657">
        <ele>15</ele>
        <time>2021-05-23T09:50:31.982Z</time>
      </trkpt>
      <trkpt lat="47.27564" lon="-2.25658">
        <ele>15</ele>
        <time>2021-05-23T09:50:32.982Z</time>
      </trkpt>
      <trkpt lat="47.27563" lon="-2.2566">
        <ele>15</ele>
        <time>2021-05-23T09:50:33.983Z</time>
      </trkpt>
      <trkpt lat="47.27562" lon="-2.25661">
        <ele>16</ele>
        <time>2021-05-23T09:50:34.983Z</time>
      </trkpt>
      <trkpt lat="47.27561" lon="-2.25662">
        <ele>16</ele>
        <time>2021-05-23T09:50:35.982Z</time>
      </trkpt>
      <trkpt lat="47.2756" lon="-2.25664">
        <ele>16</ele>
        <time>2021-05-23T09:50:36.982Z</time>
      </trkpt>
      <trkpt lat="47.27559" lon="-2.25664">
        <ele>16</ele>
        <time>2021-05-23T09:50:37.983Z</time>
      </trkpt>
      <trkpt lat="47.27558" lon="-2.25666">
        <ele>16</ele>
        <time>2021-05-23T09:50:38.983Z</time>
      </trkpt>
      <trkpt lat="47.27557" lon="-2.25668">
        <ele>17</ele>
        <time>2021-05-23T09:50:39.983Z</time>
      </trkpt>
      <trkpt lat="47.27556" lon="-2.2567">
        <ele>17</ele>
        <time>2021-05-23T09:50:40.982Z</time>
      </trkpt>
      <trkpt lat="47.27556" lon="-2.25671">
        <ele>17</ele>
        <time>2021-05-23T09:50:41.983Z</time>
      </trkpt>
      <trkpt lat="47.27555" lon="-2.25672">
        <ele>17</ele>
        <time>2021-05-23T09:50:42.983Z</time>
      </trkpt>
      <trkpt lat="47.27554" lon="-2.25675">
        <ele>17</ele>
        <time>2021-05-23T09:50:43.983Z</time>
      </trkpt>
      <trkpt lat="47.27553" lon="-2.25677">
        <ele>18</ele>
        <time>2021-05-23T09:50:44.983Z</time>
      </trkpt>
      <trkpt lat="47.27552" lon="-2.25679">
        <ele>18</ele>
        <time>2021-05-23T09:50:45.982Z</time>
      </trkpt>
      <trkpt lat="47.27551" lon="-2.2568">
        <ele>18</ele>
        <time>2021-05-23T09:50:46.983Z</time>
      </trkpt>
      <trkpt lat="47.2755" lon="-2.25682">
        <ele>18</ele>
        <time>2021-05-23T09:50:47.983Z</time>
      </trkpt>
      <trkpt lat="47.27549" lon="-2.25684">
        <ele>18</ele>
        <time>2021-05-23T09:50:48.982Z</time>
      </trkpt>
      <trkpt lat="47.27547" lon="-2.25686">
        <ele>18</ele>
        <time>2021-05-23T09:50:49.982Z</time>
      </trkpt>
      <trkpt lat="47.27545" lon="-2.25689">
        <ele>18</ele>
        <time>2021-05-23T09:50:50.983Z</time>
      </trkpt>
      <trkpt lat="47.27544" lon="-2.25692">
        <ele>18</ele>
        <time>2021-05-23T09:50:51.983Z</time>
      </trkpt>
      <trkpt lat="47.27543" lon="-2.25694">
        <ele>17</ele>
        <time>2021-05-23T09:50:52.983Z</time>
      </trkpt>
      <trkpt lat="47.27543" lon="-2.25695">
        <ele>17</ele>
        <time>2021-05-23T09:50:53.983Z</time>
      </trkpt>
      <trkpt lat="47.27542" lon="-2.25697">
        <ele>17</ele>
        <time>2021-05-23T09:50:54.983Z</time>
      </trkpt>
      <trkpt lat="47.27542" lon="-2.25698">
        <ele>17</ele>
        <time>2021-05-23T09:50:55.983Z</time>
      </trkpt>
      <trkpt lat="47.27541" lon="-2.25699">
        <ele>17</ele>
        <time>2021-05-23T09:50:56.983Z</time>
      </trkpt>
      <trkpt lat="47.27541" lon="-2.257">
        <ele>17</ele>
        <time>2021-05-23T09:50:57.982Z</time>
      </trkpt>
      <trkpt lat="47.2754" lon="-2.25701">
        <ele>17</ele>
        <time>2021-05-23T09:50:58.983Z</time>
      </trkpt>
      <trkpt lat="47.2754" lon="-2.25702">
        <ele>18</ele>
        <time>2021-05-23T09:50:59.982Z</time>
      </trkpt>
      <trkpt lat="47.27539" lon="-2.25703">
        <ele>17</ele>
        <time>2021-05-23T09:51:00.983Z</time>
      </trkpt>
      <trkpt lat="47.27537" lon="-2.25704">
        <ele>17</ele>
        <time>2021-05-23T09:51:01.983Z</time>
      </trkpt>
      <trkpt lat="47.27536" lon="-2.25706">
        <ele>17</ele>
        <time>2021-05-23T09:51:02.983Z</time>
      </trkpt>
      <trkpt lat="47.27535" lon="-2.25707">
        <ele>17</ele>
        <time>2021-05-23T09:51:03.983Z</time>
      </trkpt>
      <trkpt lat="47.27534" lon="-2.25708">
        <ele>17</ele>
        <time>2021-05-23T09:51:04.982Z</time>
      </trkpt>
      <trkpt lat="47.27534" lon="-2.25711">
        <ele>17</ele>
        <time>2021-05-23T09:51:05.983Z</time>
      </trkpt>
      <trkpt lat="47.27533" lon="-2.25713">
        <ele>17</ele>
        <time>2021-05-23T09:51:06.983Z</time>
      </trkpt>
      <trkpt lat="47.27532" lon="-2.25715">
        <ele>17</ele>
        <time>2021-05-23T09:51:07.983Z</time>
      </trkpt>
      <trkpt lat="47.27531" lon="-2.25717">
        <ele>17</ele>
        <time>2021-05-23T09:51:08.983Z</time>
      </trkpt>
      <trkpt lat="47.2753" lon="-2.25718">
        <ele>17</ele>
        <time>2021-05-23T09:51:09.983Z</time>
      </trkpt>
      <trkpt lat="47.27528" lon="-2.2572">
        <ele>17</ele>
        <time>2021-05-23T09:51:10.982Z</time>
      </trkpt>
      <trkpt lat="47.27527" lon="-2.25721">
        <ele>17</ele>
        <time>2021-05-23T09:51:11.982Z</time>
      </trkpt>
      <trkpt lat="47.27526" lon="-2.25723">
        <ele>17</ele>
        <time>2021-05-23T09:51:12.983Z</time>
      </trkpt>
      <trkpt lat="47.27525" lon="-2.25725">
        <ele>18</ele>
        <time>2021-05-23T09:51:13.982Z</time>
      </trkpt>
      <trkpt lat="47.27524" lon="-2.25726">
        <ele>18</ele>
        <time>2021-05-23T09:51:14.983Z</time>
      </trkpt>
      <trkpt lat="47.27523" lon="-2.25727">
        <ele>18</ele>
        <time>2021-05-23T09:51:15.982Z</time>
      </trkpt>
      <trkpt lat="47.27522" lon="-2.25729">
        <ele>18</ele>
        <time>2021-05-23T09:51:16.983Z</time>
      </trkpt>
      <trkpt lat="47.27521" lon="-2.25731">
        <ele>17</ele>
        <time>2021-05-23T09:51:17.983Z</time>
      </trkpt>
      <trkpt lat="47.2752" lon="-2.25732">
        <ele>17</ele>
        <time>2021-05-23T09:51:18.982Z</time>
      </trkpt>
      <trkpt lat="47.27519" lon="-2.25733">
        <ele>17</ele>
        <time>2021-05-23T09:51:19.983Z</time>
      </trkpt>
      <trkpt lat="47.27518" lon="-2.25735">
        <ele>16</ele>
        <time>2021-05-23T09:51:20.983Z</time>
      </trkpt>
      <trkpt lat="47.27517" lon="-2.25736">
        <ele>16</ele>
        <time>2021-05-23T09:51:21.982Z</time>
      </trkpt>
      <trkpt lat="47.27516" lon="-2.25737">
        <ele>16</ele>
        <time>2021-05-23T09:51:22.983Z</time>
      </trkpt>
      <trkpt lat="47.27515" lon="-2.25739">
        <ele>16</ele>
        <time>2021-05-23T09:51:23.983Z</time>
      </trkpt>
      <trkpt lat="47.27513" lon="-2.2574">
        <ele>16</ele>
        <time>2021-05-23T09:51:24.983Z</time>
      </trkpt>
      <trkpt lat="47.27512" lon="-2.25742">
        <ele>16</ele>
        <time>2021-05-23T09:51:25.982Z</time>
      </trkpt>
      <trkpt lat="47.27511" lon="-2.25743">
        <ele>16</ele>
        <time>2021-05-23T09:51:26.982Z</time>
      </trkpt>
      <trkpt lat="47.27511" lon="-2.25744">
        <ele>16</ele>
        <time>2021-05-23T09:51:27.982Z</time>
      </trkpt>
      <trkpt lat="47.2751" lon="-2.25745">
        <ele>16</ele>
        <time>2021-05-23T09:51:28.982Z</time>
      </trkpt>
      <trkpt lat="47.27509" lon="-2.25747">
        <ele>16</ele>
        <time>2021-05-23T09:51:29.983Z</time>
      </trkpt>
      <trkpt lat="47.27509" lon="-2.25748">
        <ele>16</ele>
        <time>2021-05-23T09:51:30.983Z</time>
      </trkpt>
      <trkpt lat="47.27508" lon="-2.2575">
        <ele>16</ele>
        <time>2021-05-23T09:51:31.983Z</time>
      </trkpt>
      <trkpt lat="47.27507" lon="-2.25752">
        <ele>16</ele>
        <time>2021-05-23T09:51:32.983Z</time>
      </trkpt>
      <trkpt lat="47.27506" lon="-2.25754">
        <ele>16</ele>
        <time>2021-05-23T09:51:33.983Z</time>
      </trkpt>
      <trkpt lat="47.27504" lon="-2.25756">
        <ele>17</ele>
        <time>2021-05-23T09:51:34.983Z</time>
      </trkpt>
      <trkpt lat="47.27503" lon="-2.25758">
        <ele>17</ele>
        <time>2021-05-23T09:51:35.982Z</time>
      </trkpt>
      <trkpt lat="47.27502" lon="-2.2576">
        <ele>17</ele>
        <time>2021-05-23T09:51:36.982Z</time>
      </trkpt>
      <trkpt lat="47.27501" lon="-2.25761">
        <ele>16</ele>
        <time>2021-05-23T09:51:37.983Z</time>
      </trkpt>
      <trkpt lat="47.27499" lon="-2.25763">
        <ele>16</ele>
        <time>2021-05-23T09:51:38.983Z</time>
      </trkpt>
      <trkpt lat="47.27498" lon="-2.25765">
        <ele>15</ele>
        <time>2021-05-23T09:51:39.983Z</time>
      </trkpt>
      <trkpt lat="47.27497" lon="-2.25767">
        <ele>15</ele>
        <time>2021-05-23T09:51:40.983Z</time>
      </trkpt>
      <trkpt lat="47.27496" lon="-2.25769">
        <ele>15</ele>
        <time>2021-05-23T09:51:41.983Z</time>
      </trkpt>
      <trkpt lat="47.27495" lon="-2.2577">
        <ele>14</ele>
        <time>2021-05-23T09:51:42.982Z</time>
      </trkpt>
      <trkpt lat="47.27495" lon="-2.25772">
        <ele>14</ele>
        <time>2021-05-23T09:51:43.983Z</time>
      </trkpt>
      <trkpt lat="47.27494" lon="-2.25773">
        <ele>13</ele>
        <time>2021-05-23T09:51:44.983Z</time>
      </trkpt>
      <trkpt lat="47.27493" lon="-2.25774">
        <ele>12</ele>
        <time>2021-05-23T09:51:45.983Z</time>
      </trkpt>
      <trkpt lat="47.27491" lon="-2.25776">
        <ele>11</ele>
        <time>2021-05-23T09:51:46.983Z</time>
      </trkpt>
      <trkpt lat="47.2749" lon="-2.25777">
        <ele>11</ele>
        <time>2021-05-23T09:51:47.983Z</time>
      </trkpt>
      <trkpt lat="47.27488" lon="-2.25779">
        <ele>11</ele>
        <time>2021-05-23T09:51:48.982Z</time>
      </trkpt>
      <trkpt lat="47.27487" lon="-2.2578">
        <ele>11</ele>
        <time>2021-05-23T09:51:49.983Z</time>
      </trkpt>
      <trkpt lat="47.27486" lon="-2.25782">
        <ele>10</ele>
        <time>2021-05-23T09:51:50.982Z</time>
      </trkpt>
      <trkpt lat="47.27485" lon="-2.25784">
        <ele>10</ele>
        <time>2021-05-23T09:51:51.982Z</time>
      </trkpt>
      <trkpt lat="47.27485" lon="-2.25785">
        <ele>10</ele>
        <time>2021-05-23T09:51:52.982Z</time>
      </trkpt>
      <trkpt lat="47.27483" lon="-2.25786">
        <ele>10</ele>
        <time>2021-05-23T09:51:53.983Z</time>
      </trkpt>
      <trkpt lat="47.27481" lon="-2.25787">
        <ele>10</ele>
        <time>2021-05-23T09:51:54.982Z</time>
      </trkpt>
      <trkpt lat="47.2748" lon="-2.25788">
        <ele>10</ele>
        <time>2021-05-23T09:51:55.983Z</time>
      </trkpt>
      <trkpt lat="47.27478" lon="-2.25788">
        <ele>10</ele>
        <time>2021-05-23T09:51:56.982Z</time>
      </trkpt>
      <trkpt lat="47.27476" lon="-2.25789">
        <ele>11</ele>
        <time>2021-05-23T09:51:57.982Z</time>
      </trkpt>
      <trkpt lat="47.27475" lon="-2.2579">
        <ele>11</ele>
        <time>2021-05-23T09:51:58.982Z</time>
      </trkpt>
      <trkpt lat="47.27473" lon="-2.25792">
        <ele>11</ele>
        <time>2021-05-23T09:51:59.982Z</time>
      </trkpt>
      <trkpt lat="47.27471" lon="-2.25794">
        <ele>12</ele>
        <time>2021-05-23T09:52:00.983Z</time>
      </trkpt>
      <trkpt lat="47.27469" lon="-2.25796">
        <ele>13</ele>
        <time>2021-05-23T09:52:01.982Z</time>
      </trkpt>
      <trkpt lat="47.27467" lon="-2.25798">
        <ele>13</ele>
        <time>2021-05-23T09:52:02.983Z</time>
      </trkpt>
      <trkpt lat="47.27466" lon="-2.25799">
        <ele>14</ele>
        <time>2021-05-23T09:52:03.983Z</time>
      </trkpt>
      <trkpt lat="47.27464" lon="-2.25801">
        <ele>15</ele>
        <time>2021-05-23T09:52:04.983Z</time>
      </trkpt>
      <trkpt lat="47.27461" lon="-2.25801">
        <ele>16</ele>
        <time>2021-05-23T09:52:05.982Z</time>
      </trkpt>
      <trkpt lat="47.2746" lon="-2.25802">
        <ele>16</ele>
        <time>2021-05-23T09:52:06.983Z</time>
      </trkpt>
      <trkpt lat="47.27459" lon="-2.25803">
        <ele>16</ele>
        <time>2021-05-23T09:52:07.983Z</time>
      </trkpt>
      <trkpt lat="47.27457" lon="-2.25804">
        <ele>16</ele>
        <time>2021-05-23T09:52:08.983Z</time>
      </trkpt>
      <trkpt lat="47.27456" lon="-2.25805">
        <ele>16</ele>
        <time>2021-05-23T09:52:09.983Z</time>
      </trkpt>
      <trkpt lat="47.27454" lon="-2.25807">
        <ele>17</ele>
        <time>2021-05-23T09:52:10.983Z</time>
      </trkpt>
      <trkpt lat="47.27453" lon="-2.25809">
        <ele>17</ele>
        <time>2021-05-23T09:52:11.982Z</time>
      </trkpt>
      <trkpt lat="47.27452" lon="-2.25811">
        <ele>17</ele>
        <time>2021-05-23T09:52:12.983Z</time>
      </trkpt>
      <trkpt lat="47.2745" lon="-2.25813">
        <ele>17</ele>
        <time>2021-05-23T09:52:13.983Z</time>
      </trkpt>
      <trkpt lat="47.27449" lon="-2.25814">
        <ele>17</ele>
        <time>2021-05-23T09:52:14.983Z</time>
      </trkpt>
      <trkpt lat="47.27448" lon="-2.25816">
        <ele>17</ele>
        <time>2021-05-23T09:52:15.983Z</time>
      </trkpt>
      <trkpt lat="47.27446" lon="-2.25818">
        <ele>17</ele>
        <time>2021-05-23T09:52:16.982Z</time>
      </trkpt>
      <trkpt lat="47.27446" lon="-2.2582">
        <ele>17</ele>
        <time>2021-05-23T09:52:17.983Z</time>
      </trkpt>
      <trkpt lat="47.27445" lon="-2.25822">
        <ele>17</ele>
        <time>2021-05-23T09:52:18.983Z</time>
      </trkpt>
      <trkpt lat="47.27444" lon="-2.25824">
        <ele>17</ele>
        <time>2021-05-23T09:52:19.983Z</time>
      </trkpt>
      <trkpt lat="47.27443" lon="-2.25826">
        <ele>17</ele>
        <time>2021-05-23T09:52:20.983Z</time>
      </trkpt>
      <trkpt lat="47.27443" lon="-2.25827">
        <ele>17</ele>
        <time>2021-05-23T09:52:21.983Z</time>
      </trkpt>
      <trkpt lat="47.27442" lon="-2.25829">
        <ele>17</ele>
        <time>2021-05-23T09:52:22.982Z</time>
      </trkpt>
      <trkpt lat="47.27441" lon="-2.25831">
        <ele>18</ele>
        <time>2021-05-23T09:52:23.982Z</time>
      </trkpt>
      <trkpt lat="47.27441" lon="-2.25833">
        <ele>18</ele>
        <time>2021-05-23T09:52:24.983Z</time>
      </trkpt>
      <trkpt lat="47.27439" lon="-2.25835">
        <ele>18</ele>
        <time>2021-05-23T09:52:25.983Z</time>
      </trkpt>
      <trkpt lat="47.27438" lon="-2.25837">
        <ele>18</ele>
        <time>2021-05-23T09:52:26.982Z</time>
      </trkpt>
      <trkpt lat="47.27437" lon="-2.25838">
        <ele>18</ele>
        <time>2021-05-23T09:52:27.983Z</time>
      </trkpt>
      <trkpt lat="47.27436" lon="-2.2584">
        <ele>19</ele>
        <time>2021-05-23T09:52:28.983Z</time>
      </trkpt>
      <trkpt lat="47.27434" lon="-2.25841">
        <ele>19</ele>
        <time>2021-05-23T09:52:29.983Z</time>
      </trkpt>
      <trkpt lat="47.27433" lon="-2.25843">
        <ele>20</ele>
        <time>2021-05-23T09:52:30.982Z</time>
      </trkpt>
      <trkpt lat="47.27432" lon="-2.25844">
        <ele>20</ele>
        <time>2021-05-23T09:52:31.982Z</time>
      </trkpt>
      <trkpt lat="47.27431" lon="-2.25846">
        <ele>20</ele>
        <time>2021-05-23T09:52:32.982Z</time>
      </trkpt>
      <trkpt lat="47.2743" lon="-2.25848">
        <ele>20</ele>
        <time>2021-05-23T09:52:33.982Z</time>
      </trkpt>
      <trkpt lat="47.27429" lon="-2.2585">
        <ele>21</ele>
        <time>2021-05-23T09:52:34.982Z</time>
      </trkpt>
      <trkpt lat="47.27428" lon="-2.25852">
        <ele>21</ele>
        <time>2021-05-23T09:52:35.983Z</time>
      </trkpt>
      <trkpt lat="47.27427" lon="-2.25854">
        <ele>21</ele>
        <time>2021-05-23T09:52:36.982Z</time>
      </trkpt>
      <trkpt lat="47.27426" lon="-2.25855">
        <ele>21</ele>
        <time>2021-05-23T09:52:37.983Z</time>
      </trkpt>
      <trkpt lat="47.27425" lon="-2.25857">
        <ele>20</ele>
        <time>2021-05-23T09:52:38.983Z</time>
      </trkpt>
      <trkpt lat="47.27424" lon="-2.25859">
        <ele>20</ele>
        <time>2021-05-23T09:52:39.983Z</time>
      </trkpt>
      <trkpt lat="47.27423" lon="-2.25861">
        <ele>20</ele>
        <time>2021-05-23T09:52:40.983Z</time>
      </trkpt>
      <trkpt lat="47.27422" lon="-2.25863">
        <ele>20</ele>
        <time>2021-05-23T09:52:41.982Z</time>
      </trkpt>
      <trkpt lat="47.27421" lon="-2.25865">
        <ele>20</ele>
        <time>2021-05-23T09:52:42.983Z</time>
      </trkpt>
      <trkpt lat="47.27421" lon="-2.25867">
        <ele>19</ele>
        <time>2021-05-23T09:52:43.983Z</time>
      </trkpt>
      <trkpt lat="47.2742" lon="-2.25869">
        <ele>19</ele>
        <time>2021-05-23T09:52:44.982Z</time>
      </trkpt>
      <trkpt lat="47.27419" lon="-2.25871">
        <ele>19</ele>
        <time>2021-05-23T09:52:45.982Z</time>
      </trkpt>
      <trkpt lat="47.27418" lon="-2.25873">
        <ele>18</ele>
        <time>2021-05-23T09:52:46.982Z</time>
      </trkpt>
      <trkpt lat="47.27417" lon="-2.25875">
        <ele>18</ele>
        <time>2021-05-23T09:52:47.983Z</time>
      </trkpt>
      <trkpt lat="47.27416" lon="-2.25877">
        <ele>17</ele>
        <time>2021-05-23T09:52:48.983Z</time>
      </trkpt>
      <trkpt lat="47.27415" lon="-2.25879">
        <ele>17</ele>
        <time>2021-05-23T09:52:49.983Z</time>
      </trkpt>
      <trkpt lat="47.27414" lon="-2.25881">
        <ele>17</ele>
        <time>2021-05-23T09:52:50.983Z</time>
      </trkpt>
      <trkpt lat="47.27413" lon="-2.25883">
        <ele>17</ele>
        <time>2021-05-23T09:52:51.982Z</time>
      </trkpt>
      <trkpt lat="47.27412" lon="-2.25885">
        <ele>17</ele>
        <time>2021-05-23T09:52:52.983Z</time>
      </trkpt>
      <trkpt lat="47.27411" lon="-2.25886">
        <ele>17</ele>
        <time>2021-05-23T09:52:53.983Z</time>
      </trkpt>
      <trkpt lat="47.2741" lon="-2.25888">
        <ele>18</ele>
        <time>2021-05-23T09:52:54.982Z</time>
      </trkpt>
      <trkpt lat="47.27409" lon="-2.25889">
        <ele>18</ele>
        <time>2021-05-23T09:52:55.983Z</time>
      </trkpt>
      <trkpt lat="47.27408" lon="-2.25891">
        <ele>18</ele>
        <time>2021-05-23T09:52:56.983Z</time>
      </trkpt>
      <trkpt lat="47.27407" lon="-2.25893">
        <ele>18</ele>
        <time>2021-05-23T09:52:57.982Z</time>
      </trkpt>
      <trkpt lat="47.27406" lon="-2.25894">
        <ele>19</ele>
        <time>2021-05-23T09:52:58.983Z</time>
      </trkpt>
      <trkpt lat="47.27405" lon="-2.25896">
        <ele>19</ele>
        <time>2021-05-23T09:52:59.983Z</time>
      </trkpt>
      <trkpt lat="47.27404" lon="-2.25898">
        <ele>19</ele>
        <time>2021-05-23T09:53:00.982Z</time>
      </trkpt>
      <trkpt lat="47.27403" lon="-2.259">
        <ele>19</ele>
        <time>2021-05-23T09:53:01.982Z</time>
      </trkpt>
      <trkpt lat="47.27402" lon="-2.25901">
        <ele>20</ele>
        <time>2021-05-23T09:53:02.982Z</time>
      </trkpt>
      <trkpt lat="47.27401" lon="-2.25903">
        <ele>20</ele>
        <time>2021-05-23T09:53:03.983Z</time>
      </trkpt>
      <trkpt lat="47.274" lon="-2.25905">
        <ele>20</ele>
        <time>2021-05-23T09:53:04.983Z</time>
      </trkpt>
      <trkpt lat="47.27398" lon="-2.25906">
        <ele>21</ele>
        <time>2021-05-23T09:53:05.983Z</time>
      </trkpt>
      <trkpt lat="47.27397" lon="-2.25908">
        <ele>21</ele>
        <time>2021-05-23T09:53:06.983Z</time>
      </trkpt>
      <trkpt lat="47.27396" lon="-2.25909">
        <ele>21</ele>
        <time>2021-05-23T09:53:07.983Z</time>
      </trkpt>
      <trkpt lat="47.27395" lon="-2.2591">
        <ele>21</ele>
        <time>2021-05-23T09:53:08.982Z</time>
      </trkpt>
      <trkpt lat="47.27393" lon="-2.25911">
        <ele>21</ele>
        <time>2021-05-23T09:53:09.982Z</time>
      </trkpt>
      <trkpt lat="47.27392" lon="-2.25913">
        <ele>21</ele>
        <time>2021-05-23T09:53:10.982Z</time>
      </trkpt>
      <trkpt lat="47.2739" lon="-2.25914">
        <ele>21</ele>
        <time>2021-05-23T09:53:11.983Z</time>
      </trkpt>
      <trkpt lat="47.27389" lon="-2.25915">
        <ele>21</ele>
        <time>2021-05-23T09:53:12.983Z</time>
      </trkpt>
      <trkpt lat="47.27388" lon="-2.25916">
        <ele>21</ele>
        <time>2021-05-23T09:53:13.983Z</time>
      </trkpt>
      <trkpt lat="47.27387" lon="-2.25917">
        <ele>21</ele>
        <time>2021-05-23T09:53:14.983Z</time>
      </trkpt>
      <trkpt lat="47.27386" lon="-2.25919">
        <ele>21</ele>
        <time>2021-05-23T09:53:15.983Z</time>
      </trkpt>
      <trkpt lat="47.27385" lon="-2.25921">
        <ele>20</ele>
        <time>2021-05-23T09:53:16.982Z</time>
      </trkpt>
      <trkpt lat="47.27384" lon="-2.25923">
        <ele>20</ele>
        <time>2021-05-23T09:53:17.983Z</time>
      </trkpt>
      <trkpt lat="47.27383" lon="-2.25925">
        <ele>20</ele>
        <time>2021-05-23T09:53:18.983Z</time>
      </trkpt>
      <trkpt lat="47.27382" lon="-2.25926">
        <ele>19</ele>
        <time>2021-05-23T09:53:19.983Z</time>
      </trkpt>
      <trkpt lat="47.27381" lon="-2.25927">
        <ele>19</ele>
        <time>2021-05-23T09:53:20.982Z</time>
      </trkpt>
      <trkpt lat="47.2738" lon="-2.25929">
        <ele>18</ele>
        <time>2021-05-23T09:53:21.983Z</time>
      </trkpt>
      <trkpt lat="47.27379" lon="-2.2593">
        <ele>18</ele>
        <time>2021-05-23T09:53:22.983Z</time>
      </trkpt>
      <trkpt lat="47.27377" lon="-2.25931">
        <ele>18</ele>
        <time>2021-05-23T09:53:23.983Z</time>
      </trkpt>
      <trkpt lat="47.27376" lon="-2.25933">
        <ele>18</ele>
        <time>2021-05-23T09:53:24.983Z</time>
      </trkpt>
      <trkpt lat="47.27374" lon="-2.25934">
        <ele>18</ele>
        <time>2021-05-23T09:53:25.982Z</time>
      </trkpt>
      <trkpt lat="47.27373" lon="-2.25936">
        <ele>18</ele>
        <time>2021-05-23T09:53:26.983Z</time>
      </trkpt>
      <trkpt lat="47.27372" lon="-2.25938">
        <ele>19</ele>
        <time>2021-05-23T09:53:27.983Z</time>
      </trkpt>
      <trkpt lat="47.27371" lon="-2.2594">
        <ele>20</ele>
        <time>2021-05-23T09:53:28.982Z</time>
      </trkpt>
      <trkpt lat="47.2737" lon="-2.25942">
        <ele>20</ele>
        <time>2021-05-23T09:53:29.983Z</time>
      </trkpt>
      <trkpt lat="47.27369" lon="-2.25943">
        <ele>21</ele>
        <time>2021-05-23T09:53:30.983Z</time>
      </trkpt>
      <trkpt lat="47.27368" lon="-2.25945">
        <ele>21</ele>
        <time>2021-05-23T09:53:31.982Z</time>
      </trkpt>
      <trkpt lat="47.27367" lon="-2.25947">
        <ele>22</ele>
        <time>2021-05-23T09:53:32.983Z</time>
      </trkpt>
      <trkpt lat="47.27366" lon="-2.25949">
        <ele>23</ele>
        <time>2021-05-23T09:53:33.983Z</time>
      </trkpt>
      <trkpt lat="47.27365" lon="-2.2595">
        <ele>23</ele>
        <time>2021-05-23T09:53:34.983Z</time>
      </trkpt>
      <trkpt lat="47.27363" lon="-2.25952">
        <ele>23</ele>
        <time>2021-05-23T09:53:35.982Z</time>
      </trkpt>
      <trkpt lat="47.27362" lon="-2.25953">
        <ele>23</ele>
        <time>2021-05-23T09:53:36.983Z</time>
      </trkpt>
      <trkpt lat="47.27361" lon="-2.25954">
        <ele>23</ele>
        <time>2021-05-23T09:53:37.983Z</time>
      </trkpt>
      <trkpt lat="47.2736" lon="-2.25955">
        <ele>22</ele>
        <time>2021-05-23T09:53:38.983Z</time>
      </trkpt>
      <trkpt lat="47.27359" lon="-2.25955">
        <ele>22</ele>
        <time>2021-05-23T09:53:39.982Z</time>
      </trkpt>
      <trkpt lat="47.27358" lon="-2.25957">
        <ele>22</ele>
        <time>2021-05-23T09:53:40.982Z</time>
      </trkpt>
      <trkpt lat="47.27357" lon="-2.25957">
        <ele>21</ele>
        <time>2021-05-23T09:53:41.982Z</time>
      </trkpt>
      <trkpt lat="47.27356" lon="-2.25958">
        <ele>21</ele>
        <time>2021-05-23T09:53:42.983Z</time>
      </trkpt>
      <trkpt lat="47.27355" lon="-2.25958">
        <ele>21</ele>
        <time>2021-05-23T09:53:43.983Z</time>
      </trkpt>
      <trkpt lat="47.27354" lon="-2.25958">
        <ele>21</ele>
        <time>2021-05-23T09:53:44.982Z</time>
      </trkpt>
      <trkpt lat="47.27353" lon="-2.25958">
        <ele>21</ele>
        <time>2021-05-23T09:53:45.983Z</time>
      </trkpt>
      <trkpt lat="47.27352" lon="-2.25958">
        <ele>21</ele>
        <time>2021-05-23T09:53:46.983Z</time>
      </trkpt>
      <trkpt lat="47.2735" lon="-2.25959">
        <ele>21</ele>
        <time>2021-05-23T09:53:47.982Z</time>
      </trkpt>
      <trkpt lat="47.27348" lon="-2.2596">
        <ele>21</ele>
        <time>2021-05-23T09:53:48.983Z</time>
      </trkpt>
      <trkpt lat="47.27346" lon="-2.25961">
        <ele>21</ele>
        <time>2021-05-23T09:53:49.983Z</time>
      </trkpt>
      <trkpt lat="47.27344" lon="-2.25962">
        <ele>21</ele>
        <time>2021-05-23T09:53:50.983Z</time>
      </trkpt>
      <trkpt lat="47.27343" lon="-2.25963">
        <ele>21</ele>
        <time>2021-05-23T09:53:51.983Z</time>
      </trkpt>
      <trkpt lat="47.27341" lon="-2.25964">
        <ele>21</ele>
        <time>2021-05-23T09:53:52.982Z</time>
      </trkpt>
      <trkpt lat="47.2734" lon="-2.25965">
        <ele>21</ele>
        <time>2021-05-23T09:53:53.982Z</time>
      </trkpt>
      <trkpt lat="47.27338" lon="-2.25965">
        <ele>21</ele>
        <time>2021-05-23T09:53:54.983Z</time>
      </trkpt>
      <trkpt lat="47.27337" lon="-2.25967">
        <ele>21</ele>
        <time>2021-05-23T09:53:55.983Z</time>
      </trkpt>
      <trkpt lat="47.27336" lon="-2.25968">
        <ele>21</ele>
        <time>2021-05-23T09:53:56.982Z</time>
      </trkpt>
      <trkpt lat="47.27335" lon="-2.25969">
        <ele>22</ele>
        <time>2021-05-23T09:53:57.982Z</time>
      </trkpt>
      <trkpt lat="47.27334" lon="-2.2597">
        <ele>22</ele>
        <time>2021-05-23T09:53:58.983Z</time>
      </trkpt>
      <trkpt lat="47.27333" lon="-2.2597">
        <ele>21</ele>
        <time>2021-05-23T09:53:59.983Z</time>
      </trkpt>
      <trkpt lat="47.27331" lon="-2.2597">
        <ele>21</ele>
        <time>2021-05-23T09:54:00.983Z</time>
      </trkpt>
      <trkpt lat="47.2733" lon="-2.25971">
        <ele>21</ele>
        <time>2021-05-23T09:54:01.983Z</time>
      </trkpt>
      <trkpt lat="47.27328" lon="-2.25971">
        <ele>21</ele>
        <time>2021-05-23T09:54:02.982Z</time>
      </trkpt>
      <trkpt lat="47.27327" lon="-2.25972">
        <ele>21</ele>
        <time>2021-05-23T09:54:03.982Z</time>
      </trkpt>
      <trkpt lat="47.27325" lon="-2.25973">
        <ele>21</ele>
        <time>2021-05-23T09:54:04.983Z</time>
      </trkpt>
      <trkpt lat="47.27324" lon="-2.25974">
        <ele>21</ele>
        <time>2021-05-23T09:54:05.983Z</time>
      </trkpt>
      <trkpt lat="47.27323" lon="-2.25975">
        <ele>21</ele>
        <time>2021-05-23T09:54:06.982Z</time>
      </trkpt>
      <trkpt lat="47.27322" lon="-2.25976">
        <ele>21</ele>
        <time>2021-05-23T09:54:07.982Z</time>
      </trkpt>
      <trkpt lat="47.27321" lon="-2.25977">
        <ele>20</ele>
        <time>2021-05-23T09:54:08.982Z</time>
      </trkpt>
      <trkpt lat="47.2732" lon="-2.25978">
        <ele>20</ele>
        <time>2021-05-23T09:54:09.982Z</time>
      </trkpt>
      <trkpt lat="47.27319" lon="-2.2598">
        <ele>20</ele>
        <time>2021-05-23T09:54:10.983Z</time>
      </trkpt>
      <trkpt lat="47.27317" lon="-2.25981">
        <ele>20</ele>
        <time>2021-05-23T09:54:11.983Z</time>
      </trkpt>
      <trkpt lat="47.27316" lon="-2.25981">
        <ele>20</ele>
        <time>2021-05-23T09:54:12.983Z</time>
      </trkpt>
      <trkpt lat="47.27315" lon="-2.25981">
        <ele>19</ele>
        <time>2021-05-23T09:54:13.983Z</time>
      </trkpt>
      <trkpt lat="47.27313" lon="-2.25982">
        <ele>19</ele>
        <time>2021-05-23T09:54:14.983Z</time>
      </trkpt>
      <trkpt lat="47.27312" lon="-2.25983">
        <ele>19</ele>
        <time>2021-05-23T09:54:15.983Z</time>
      </trkpt>
      <trkpt lat="47.27312" lon="-2.25984">
        <ele>18</ele>
        <time>2021-05-23T09:54:16.983Z</time>
      </trkpt>
      <trkpt lat="47.2731" lon="-2.25985">
        <ele>18</ele>
        <time>2021-05-23T09:54:17.983Z</time>
      </trkpt>
      <trkpt lat="47.27309" lon="-2.25986">
        <ele>18</ele>
        <time>2021-05-23T09:54:18.982Z</time>
      </trkpt>
      <trkpt lat="47.27307" lon="-2.25987">
        <ele>19</ele>
        <time>2021-05-23T09:54:19.982Z</time>
      </trkpt>
      <trkpt lat="47.27305" lon="-2.25988">
        <ele>19</ele>
        <time>2021-05-23T09:54:20.983Z</time>
      </trkpt>
      <trkpt lat="47.27303" lon="-2.2599">
        <ele>19</ele>
        <time>2021-05-23T09:54:21.982Z</time>
      </trkpt>
      <trkpt lat="47.27301" lon="-2.25991">
        <ele>19</ele>
        <time>2021-05-23T09:54:22.982Z</time>
      </trkpt>
      <trkpt lat="47.27301" lon="-2.25993">
        <ele>19</ele>
        <time>2021-05-23T09:54:23.983Z</time>
      </trkpt>
      <trkpt lat="47.273" lon="-2.25995">
        <ele>19</ele>
        <time>2021-05-23T09:54:24.983Z</time>
      </trkpt>
      <trkpt lat="47.27299" lon="-2.25997">
        <ele>19</ele>
        <time>2021-05-23T09:54:25.983Z</time>
      </trkpt>
      <trkpt lat="47.27299" lon="-2.25997">
        <ele>19</ele>
        <time>2021-05-23T09:54:26.983Z</time>
      </trkpt>
      <trkpt lat="47.27298" lon="-2.25998">
        <ele>19</ele>
        <time>2021-05-23T09:54:27.983Z</time>
      </trkpt>
      <trkpt lat="47.27296" lon="-2.25998">
        <ele>19</ele>
        <time>2021-05-23T09:54:28.983Z</time>
      </trkpt>
      <trkpt lat="47.27294" lon="-2.26">
        <ele>19</ele>
        <time>2021-05-23T09:54:29.982Z</time>
      </trkpt>
      <trkpt lat="47.27292" lon="-2.26">
        <ele>20</ele>
        <time>2021-05-23T09:54:30.983Z</time>
      </trkpt>
      <trkpt lat="47.27291" lon="-2.26">
        <ele>20</ele>
        <time>2021-05-23T09:54:31.983Z</time>
      </trkpt>
      <trkpt lat="47.2729" lon="-2.26001">
        <ele>20</ele>
        <time>2021-05-23T09:54:32.983Z</time>
      </trkpt>
      <trkpt lat="47.27289" lon="-2.26002">
        <ele>21</ele>
        <time>2021-05-23T09:54:33.982Z</time>
      </trkpt>
      <trkpt lat="47.27288" lon="-2.26004">
        <ele>21</ele>
        <time>2021-05-23T09:54:34.983Z</time>
      </trkpt>
      <trkpt lat="47.27288" lon="-2.26005">
        <ele>21</ele>
        <time>2021-05-23T09:54:35.982Z</time>
      </trkpt>
      <trkpt lat="47.27288" lon="-2.26007">
        <ele>21</ele>
        <time>2021-05-23T09:54:36.982Z</time>
      </trkpt>
      <trkpt lat="47.27289" lon="-2.26009">
        <ele>20</ele>
        <time>2021-05-23T09:54:37.982Z</time>
      </trkpt>
      <trkpt lat="47.27289" lon="-2.2601">
        <ele>20</ele>
        <time>2021-05-23T09:54:38.982Z</time>
      </trkpt>
      <trkpt lat="47.2729" lon="-2.26012">
        <ele>20</ele>
        <time>2021-05-23T09:54:39.983Z</time>
      </trkpt>
      <trkpt lat="47.27291" lon="-2.26014">
        <ele>20</ele>
        <time>2021-05-23T09:54:40.982Z</time>
      </trkpt>
      <trkpt lat="47.27292" lon="-2.26015">
        <ele>19</ele>
        <time>2021-05-23T09:54:41.982Z</time>
      </trkpt>
      <trkpt lat="47.27293" lon="-2.26017">
        <ele>19</ele>
        <time>2021-05-23T09:54:42.982Z</time>
      </trkpt>
      <trkpt lat="47.27294" lon="-2.26019">
        <ele>19</ele>
        <time>2021-05-23T09:54:43.982Z</time>
      </trkpt>
      <trkpt lat="47.27295" lon="-2.2602">
        <ele>19</ele>
        <time>2021-05-23T09:54:44.982Z</time>
      </trkpt>
      <trkpt lat="47.27296" lon="-2.26022">
        <ele>19</ele>
        <time>2021-05-23T09:54:45.982Z</time>
      </trkpt>
      <trkpt lat="47.27297" lon="-2.26024">
        <ele>19</ele>
        <time>2021-05-23T09:54:46.982Z</time>
      </trkpt>
      <trkpt lat="47.27299" lon="-2.26026">
        <ele>19</ele>
        <time>2021-05-23T09:54:47.982Z</time>
      </trkpt>
      <trkpt lat="47.273" lon="-2.26028">
        <ele>19</ele>
        <time>2021-05-23T09:54:48.982Z</time>
      </trkpt>
      <trkpt lat="47.273" lon="-2.2603">
        <ele>19</ele>
        <time>2021-05-23T09:54:49.982Z</time>
      </trkpt>
      <trkpt lat="47.27301" lon="-2.26031">
        <ele>19</ele>
        <time>2021-05-23T09:54:50.982Z</time>
      </trkpt>
      <trkpt lat="47.27303" lon="-2.26033">
        <ele>19</ele>
        <time>2021-05-23T09:54:51.982Z</time>
      </trkpt>
      <trkpt lat="47.27304" lon="-2.26035">
        <ele>20</ele>
        <time>2021-05-23T09:54:52.982Z</time>
      </trkpt>
      <trkpt lat="47.27305" lon="-2.26037">
        <ele>20</ele>
        <time>2021-05-23T09:54:53.982Z</time>
      </trkpt>
      <trkpt lat="47.27306" lon="-2.26038">
        <ele>20</ele>
        <time>2021-05-23T09:54:54.983Z</time>
      </trkpt>
      <trkpt lat="47.27306" lon="-2.2604">
        <ele>20</ele>
        <time>2021-05-23T09:54:55.983Z</time>
      </trkpt>
      <trkpt lat="47.27307" lon="-2.26042">
        <ele>21</ele>
        <time>2021-05-23T09:54:56.983Z</time>
      </trkpt>
      <trkpt lat="47.27308" lon="-2.26044">
        <ele>21</ele>
        <time>2021-05-23T09:54:57.983Z</time>
      </trkpt>
      <trkpt lat="47.27309" lon="-2.26046">
        <ele>21</ele>
        <time>2021-05-23T09:54:58.983Z</time>
      </trkpt>
      <trkpt lat="47.2731" lon="-2.26048">
        <ele>22</ele>
        <time>2021-05-23T09:54:59.983Z</time>
      </trkpt>
      <trkpt lat="47.27311" lon="-2.2605">
        <ele>22</ele>
        <time>2021-05-23T09:55:00.983Z</time>
      </trkpt>
      <trkpt lat="47.27312" lon="-2.26051">
        <ele>22</ele>
        <time>2021-05-23T09:55:01.983Z</time>
      </trkpt>
      <trkpt lat="47.27313" lon="-2.26053">
        <ele>22</ele>
        <time>2021-05-23T09:55:02.982Z</time>
      </trkpt>
      <trkpt lat="47.27314" lon="-2.26055">
        <ele>22</ele>
        <time>2021-05-23T09:55:03.983Z</time>
      </trkpt>
      <trkpt lat="47.27315" lon="-2.26057">
        <ele>21</ele>
        <time>2021-05-23T09:55:04.983Z</time>
      </trkpt>
      <trkpt lat="47.27316" lon="-2.26059">
        <ele>21</ele>
        <time>2021-05-23T09:55:05.983Z</time>
      </trkpt>
      <trkpt lat="47.27316" lon="-2.26061">
        <ele>21</ele>
        <time>2021-05-23T09:55:06.982Z</time>
      </trkpt>
      <trkpt lat="47.27317" lon="-2.26062">
        <ele>20</ele>
        <time>2021-05-23T09:55:07.982Z</time>
      </trkpt>
      <trkpt lat="47.27318" lon="-2.26064">
        <ele>20</ele>
        <time>2021-05-23T09:55:08.983Z</time>
      </trkpt>
      <trkpt lat="47.27319" lon="-2.26067">
        <ele>20</ele>
        <time>2021-05-23T09:55:09.982Z</time>
      </trkpt>
      <trkpt lat="47.2732" lon="-2.26069">
        <ele>19</ele>
        <time>2021-05-23T09:55:10.983Z</time>
      </trkpt>
      <trkpt lat="47.27321" lon="-2.2607">
        <ele>19</ele>
        <time>2021-05-23T09:55:11.983Z</time>
      </trkpt>
      <trkpt lat="47.27322" lon="-2.26072">
        <ele>19</ele>
        <time>2021-05-23T09:55:12.983Z</time>
      </trkpt>
      <trkpt lat="47.27324" lon="-2.26074">
        <ele>19</ele>
        <time>2021-05-23T09:55:13.983Z</time>
      </trkpt>
      <trkpt lat="47.27325" lon="-2.26076">
        <ele>18</ele>
        <time>2021-05-23T09:55:14.982Z</time>
      </trkpt>
      <trkpt lat="47.27326" lon="-2.26078">
        <ele>18</ele>
        <time>2021-05-23T09:55:15.983Z</time>
      </trkpt>
      <trkpt lat="47.27327" lon="-2.2608">
        <ele>18</ele>
        <time>2021-05-23T09:55:16.983Z</time>
      </trkpt>
      <trkpt lat="47.27328" lon="-2.26081">
        <ele>18</ele>
        <time>2021-05-23T09:55:17.983Z</time>
      </trkpt>
      <trkpt lat="47.27329" lon="-2.26083">
        <ele>18</ele>
        <time>2021-05-23T09:55:18.983Z</time>
      </trkpt>
      <trkpt lat="47.2733" lon="-2.26085">
        <ele>19</ele>
        <time>2021-05-23T09:55:19.983Z</time>
      </trkpt>
      <trkpt lat="47.27331" lon="-2.26087">
        <ele>19</ele>
        <time>2021-05-23T09:55:20.983Z</time>
      </trkpt>
      <trkpt lat="47.27332" lon="-2.26089">
        <ele>19</ele>
        <time>2021-05-23T09:55:21.982Z</time>
      </trkpt>
      <trkpt lat="47.27333" lon="-2.26091">
        <ele>19</ele>
        <time>2021-05-23T09:55:22.982Z</time>
      </trkpt>
      <trkpt lat="47.27333" lon="-2.26093">
        <ele>19</ele>
        <time>2021-05-23T09:55:23.983Z</time>
      </trkpt>
      <trkpt lat="47.27335" lon="-2.26095">
        <ele>18</ele>
        <time>2021-05-23T09:55:24.983Z</time>
      </trkpt>
      <trkpt lat="47.27335" lon="-2.26098">
        <ele>18</ele>
        <time>2021-05-23T09:55:25.983Z</time>
      </trkpt>
      <trkpt lat="47.27336" lon="-2.261">
        <ele>18</ele>
        <time>2021-05-23T09:55:26.983Z</time>
      </trkpt>
      <trkpt lat="47.27336" lon="-2.26102">
        <ele>18</ele>
        <time>2021-05-23T09:55:27.983Z</time>
      </trkpt>
      <trkpt lat="47.27337" lon="-2.26104">
        <ele>18</ele>
        <time>2021-05-23T09:55:28.982Z</time>
      </trkpt>
      <trkpt lat="47.27337" lon="-2.26106">
        <ele>18</ele>
        <time>2021-05-23T09:55:29.982Z</time>
      </trkpt>
      <trkpt lat="47.27338" lon="-2.26108">
        <ele>18</ele>
        <time>2021-05-23T09:55:30.983Z</time>
      </trkpt>
      <trkpt lat="47.27339" lon="-2.26109">
        <ele>18</ele>
        <time>2021-05-23T09:55:31.983Z</time>
      </trkpt>
      <trkpt lat="47.2734" lon="-2.26111">
        <ele>18</ele>
        <time>2021-05-23T09:55:32.982Z</time>
      </trkpt>
      <trkpt lat="47.2734" lon="-2.26112">
        <ele>18</ele>
        <time>2021-05-23T09:55:33.982Z</time>
      </trkpt>
      <trkpt lat="47.27341" lon="-2.26114">
        <ele>18</ele>
        <time>2021-05-23T09:55:34.982Z</time>
      </trkpt>
      <trkpt lat="47.27341" lon="-2.26116">
        <ele>17</ele>
        <time>2021-05-23T09:55:35.982Z</time>
      </trkpt>
      <trkpt lat="47.27341" lon="-2.26118">
        <ele>17</ele>
        <time>2021-05-23T09:55:36.982Z</time>
      </trkpt>
      <trkpt lat="47.27341" lon="-2.26121">
        <ele>18</ele>
        <time>2021-05-23T09:55:37.982Z</time>
      </trkpt>
      <trkpt lat="47.2734" lon="-2.26123">
        <ele>18</ele>
        <time>2021-05-23T09:55:38.983Z</time>
      </trkpt>
      <trkpt lat="47.2734" lon="-2.26124">
        <ele>18</ele>
        <time>2021-05-23T09:55:39.983Z</time>
      </trkpt>
      <trkpt lat="47.27339" lon="-2.26126">
        <ele>17</ele>
        <time>2021-05-23T09:55:40.982Z</time>
      </trkpt>
      <trkpt lat="47.27338" lon="-2.26127">
        <ele>17</ele>
        <time>2021-05-23T09:55:41.982Z</time>
      </trkpt>
      <trkpt lat="47.27337" lon="-2.26129">
        <ele>17</ele>
        <time>2021-05-23T09:55:42.983Z</time>
      </trkpt>
      <trkpt lat="47.27335" lon="-2.2613">
        <ele>17</ele>
        <time>2021-05-23T09:55:43.983Z</time>
      </trkpt>
      <trkpt lat="47.27334" lon="-2.2613">
        <ele>17</ele>
        <time>2021-05-23T09:55:44.982Z</time>
      </trkpt>
      <trkpt lat="47.27332" lon="-2.26131">
        <ele>17</ele>
        <time>2021-05-23T09:55:45.983Z</time>
      </trkpt>
      <trkpt lat="47.2733" lon="-2.26132">
        <ele>18</ele>
        <time>2021-05-23T09:55:46.983Z</time>
      </trkpt>
      <trkpt lat="47.27329" lon="-2.26133">
        <ele>19</ele>
        <time>2021-05-23T09:55:47.983Z</time>
      </trkpt>
      <trkpt lat="47.27327" lon="-2.26133">
        <ele>19</ele>
        <time>2021-05-23T09:55:48.983Z</time>
      </trkpt>
      <trkpt lat="47.27326" lon="-2.26133">
        <ele>20</ele>
        <time>2021-05-23T09:55:49.983Z</time>
      </trkpt>
      <trkpt lat="47.27324" lon="-2.26134">
        <ele>20</ele>
        <time>2021-05-23T09:55:50.982Z</time>
      </trkpt>
      <trkpt lat="47.27323" lon="-2.26134">
        <ele>20</ele>
        <time>2021-05-23T09:55:51.983Z</time>
      </trkpt>
      <trkpt lat="47.27321" lon="-2.26134">
        <ele>20</ele>
        <time>2021-05-23T09:55:52.982Z</time>
      </trkpt>
      <trkpt lat="47.2732" lon="-2.26135">
        <ele>20</ele>
        <time>2021-05-23T09:55:53.983Z</time>
      </trkpt>
      <trkpt lat="47.27319" lon="-2.26135">
        <ele>20</ele>
        <time>2021-05-23T09:55:54.982Z</time>
      </trkpt>
      <trkpt lat="47.27317" lon="-2.26135">
        <ele>20</ele>
        <time>2021-05-23T09:55:55.983Z</time>
      </trkpt>
      <trkpt lat="47.27316" lon="-2.26136">
        <ele>20</ele>
        <time>2021-05-23T09:55:56.983Z</time>
      </trkpt>
      <trkpt lat="47.27314" lon="-2.26137">
        <ele>20</ele>
        <time>2021-05-23T09:55:57.982Z</time>
      </trkpt>
      <trkpt lat="47.27313" lon="-2.26138">
        <ele>19</ele>
        <time>2021-05-23T09:55:58.983Z</time>
      </trkpt>
      <trkpt lat="47.27311" lon="-2.26139">
        <ele>19</ele>
        <time>2021-05-23T09:55:59.983Z</time>
      </trkpt>
      <trkpt lat="47.27309" lon="-2.26139">
        <ele>19</ele>
        <time>2021-05-23T09:56:00.982Z</time>
      </trkpt>
      <trkpt lat="47.27308" lon="-2.2614">
        <ele>20</ele>
        <time>2021-05-23T09:56:01.982Z</time>
      </trkpt>
      <trkpt lat="47.27306" lon="-2.26141">
        <ele>20</ele>
        <time>2021-05-23T09:56:02.982Z</time>
      </trkpt>
      <trkpt lat="47.27305" lon="-2.26141">
        <ele>20</ele>
        <time>2021-05-23T09:56:03.983Z</time>
      </trkpt>
      <trkpt lat="47.27303" lon="-2.26142">
        <ele>21</ele>
        <time>2021-05-23T09:56:04.982Z</time>
      </trkpt>
      <trkpt lat="47.27301" lon="-2.26142">
        <ele>21</ele>
        <time>2021-05-23T09:56:05.982Z</time>
      </trkpt>
      <trkpt lat="47.273" lon="-2.26142">
        <ele>21</ele>
        <time>2021-05-23T09:56:06.983Z</time>
      </trkpt>
      <trkpt lat="47.27298" lon="-2.26142">
        <ele>21</ele>
        <time>2021-05-23T09:56:07.983Z</time>
      </trkpt>
      <trkpt lat="47.27297" lon="-2.26143">
        <ele>21</ele>
        <time>2021-05-23T09:56:08.983Z</time>
      </trkpt>
      <trkpt lat="47.27295" lon="-2.26144">
        <ele>22</ele>
        <time>2021-05-23T09:56:09.982Z</time>
      </trkpt>
      <trkpt lat="47.27294" lon="-2.26144">
        <ele>22</ele>
        <time>2021-05-23T09:56:10.983Z</time>
      </trkpt>
      <trkpt lat="47.27292" lon="-2.26144">
        <ele>23</ele>
        <time>2021-05-23T09:56:11.983Z</time>
      </trkpt>
      <trkpt lat="47.2729" lon="-2.26144">
        <ele>23</ele>
        <time>2021-05-23T09:56:12.983Z</time>
      </trkpt>
      <trkpt lat="47.27288" lon="-2.26145">
        <ele>23</ele>
        <time>2021-05-23T09:56:13.983Z</time>
      </trkpt>
      <trkpt lat="47.27287" lon="-2.26146">
        <ele>24</ele>
        <time>2021-05-23T09:56:14.982Z</time>
      </trkpt>
      <trkpt lat="47.27286" lon="-2.26146">
        <ele>24</ele>
        <time>2021-05-23T09:56:15.983Z</time>
      </trkpt>
      <trkpt lat="47.27284" lon="-2.26147">
        <ele>24</ele>
        <time>2021-05-23T09:56:16.983Z</time>
      </trkpt>
      <trkpt lat="47.27283" lon="-2.26148">
        <ele>24</ele>
        <time>2021-05-23T09:56:17.982Z</time>
      </trkpt>
      <trkpt lat="47.27281" lon="-2.26148">
        <ele>24</ele>
        <time>2021-05-23T09:56:18.983Z</time>
      </trkpt>
      <trkpt lat="47.2728" lon="-2.26148">
        <ele>24</ele>
        <time>2021-05-23T09:56:19.983Z</time>
      </trkpt>
      <trkpt lat="47.27277" lon="-2.26149">
        <ele>24</ele>
        <time>2021-05-23T09:56:20.983Z</time>
      </trkpt>
      <trkpt lat="47.27276" lon="-2.26149">
        <ele>24</ele>
        <time>2021-05-23T09:56:21.983Z</time>
      </trkpt>
      <trkpt lat="47.27275" lon="-2.26149">
        <ele>24</ele>
        <time>2021-05-23T09:56:22.982Z</time>
      </trkpt>
      <trkpt lat="47.27274" lon="-2.26149">
        <ele>23</ele>
        <time>2021-05-23T09:56:23.983Z</time>
      </trkpt>
      <trkpt lat="47.27273" lon="-2.26151">
        <ele>23</ele>
        <time>2021-05-23T09:56:24.983Z</time>
      </trkpt>
      <trkpt lat="47.2727" lon="-2.26152">
        <ele>22</ele>
        <time>2021-05-23T09:56:25.982Z</time>
      </trkpt>
      <trkpt lat="47.27268" lon="-2.26153">
        <ele>22</ele>
        <time>2021-05-23T09:56:26.983Z</time>
      </trkpt>
      <trkpt lat="47.27267" lon="-2.26153">
        <ele>21</ele>
        <time>2021-05-23T09:56:27.982Z</time>
      </trkpt>
      <trkpt lat="47.27266" lon="-2.26153">
        <ele>21</ele>
        <time>2021-05-23T09:56:28.983Z</time>
      </trkpt>
      <trkpt lat="47.27265" lon="-2.26153">
        <ele>21</ele>
        <time>2021-05-23T09:56:29.983Z</time>
      </trkpt>
      <trkpt lat="47.27264" lon="-2.26154">
        <ele>20</ele>
        <time>2021-05-23T09:56:30.983Z</time>
      </trkpt>
      <trkpt lat="47.27263" lon="-2.26155">
        <ele>20</ele>
        <time>2021-05-23T09:56:31.983Z</time>
      </trkpt>
      <trkpt lat="47.27262" lon="-2.26155">
        <ele>20</ele>
        <time>2021-05-23T09:56:32.983Z</time>
      </trkpt>
      <trkpt lat="47.27261" lon="-2.26155">
        <ele>20</ele>
        <time>2021-05-23T09:56:33.982Z</time>
      </trkpt>
      <trkpt lat="47.2726" lon="-2.26156">
        <ele>20</ele>
        <time>2021-05-23T09:56:34.983Z</time>
      </trkpt>
      <trkpt lat="47.27258" lon="-2.26156">
        <ele>20</ele>
        <time>2021-05-23T09:56:35.982Z</time>
      </trkpt>
      <trkpt lat="47.27257" lon="-2.26156">
        <ele>20</ele>
        <time>2021-05-23T09:56:36.983Z</time>
      </trkpt>
      <trkpt lat="47.27256" lon="-2.26157">
        <ele>20</ele>
        <time>2021-05-23T09:56:37.983Z</time>
      </trkpt>
      <trkpt lat="47.27255" lon="-2.26158">
        <ele>20</ele>
        <time>2021-05-23T09:56:38.983Z</time>
      </trkpt>
      <trkpt lat="47.27254" lon="-2.26158">
        <ele>20</ele>
        <time>2021-05-23T09:56:39.983Z</time>
      </trkpt>
      <trkpt lat="47.27253" lon="-2.26159">
        <ele>20</ele>
        <time>2021-05-23T09:56:40.983Z</time>
      </trkpt>
      <trkpt lat="47.27251" lon="-2.26159">
        <ele>20</ele>
        <time>2021-05-23T09:56:41.982Z</time>
      </trkpt>
      <trkpt lat="47.2725" lon="-2.26159">
        <ele>20</ele>
        <time>2021-05-23T09:56:42.983Z</time>
      </trkpt>
      <trkpt lat="47.27249" lon="-2.26159">
        <ele>20</ele>
        <time>2021-05-23T09:56:43.983Z</time>
      </trkpt>
      <trkpt lat="47.27248" lon="-2.26159">
        <ele>20</ele>
        <time>2021-05-23T09:56:44.983Z</time>
      </trkpt>
      <trkpt lat="47.27247" lon="-2.26159">
        <ele>21</ele>
        <time>2021-05-23T09:56:45.983Z</time>
      </trkpt>
      <trkpt lat="47.27245" lon="-2.2616">
        <ele>21</ele>
        <time>2021-05-23T09:56:46.982Z</time>
      </trkpt>
      <trkpt lat="47.27243" lon="-2.2616">
        <ele>21</ele>
        <time>2021-05-23T09:56:47.982Z</time>
      </trkpt>
      <trkpt lat="47.27242" lon="-2.26161">
        <ele>22</ele>
        <time>2021-05-23T09:56:48.983Z</time>
      </trkpt>
      <trkpt lat="47.2724" lon="-2.26162">
        <ele>22</ele>
        <time>2021-05-23T09:56:49.983Z</time>
      </trkpt>
      <trkpt lat="47.27239" lon="-2.26162">
        <ele>22</ele>
        <time>2021-05-23T09:56:50.983Z</time>
      </trkpt>
      <trkpt lat="47.27238" lon="-2.26163">
        <ele>22</ele>
        <time>2021-05-23T09:56:51.983Z</time>
      </trkpt>
      <trkpt lat="47.27236" lon="-2.26163">
        <ele>23</ele>
        <time>2021-05-23T09:56:52.983Z</time>
      </trkpt>
      <trkpt lat="47.27235" lon="-2.26163">
        <ele>23</ele>
        <time>2021-05-23T09:56:53.983Z</time>
      </trkpt>
      <trkpt lat="47.27233" lon="-2.26164">
        <ele>23</ele>
        <time>2021-05-23T09:56:54.982Z</time>
      </trkpt>
      <trkpt lat="47.27232" lon="-2.26165">
        <ele>24</ele>
        <time>2021-05-23T09:56:55.983Z</time>
      </trkpt>
      <trkpt lat="47.2723" lon="-2.26166">
        <ele>24</ele>
        <time>2021-05-23T09:56:56.983Z</time>
      </trkpt>
      <trkpt lat="47.27228" lon="-2.26167">
        <ele>25</ele>
        <time>2021-05-23T09:56:57.982Z</time>
      </trkpt>
      <trkpt lat="47.27226" lon="-2.26169">
        <ele>25</ele>
        <time>2021-05-23T09:56:58.982Z</time>
      </trkpt>
      <trkpt lat="47.27224" lon="-2.2617">
        <ele>26</ele>
        <time>2021-05-23T09:56:59.983Z</time>
      </trkpt>
      <trkpt lat="47.27222" lon="-2.26171">
        <ele>27</ele>
        <time>2021-05-23T09:57:00.982Z</time>
      </trkpt>
      <trkpt lat="47.2722" lon="-2.26173">
        <ele>27</ele>
        <time>2021-05-23T09:57:01.983Z</time>
      </trkpt>
      <trkpt lat="47.27219" lon="-2.26173">
        <ele>27</ele>
        <time>2021-05-23T09:57:02.983Z</time>
      </trkpt>
      <trkpt lat="47.27217" lon="-2.26174">
        <ele>27</ele>
        <time>2021-05-23T09:57:03.982Z</time>
      </trkpt>
      <trkpt lat="47.27216" lon="-2.26176">
        <ele>28</ele>
        <time>2021-05-23T09:57:04.982Z</time>
      </trkpt>
      <trkpt lat="47.27214" lon="-2.26177">
        <ele>28</ele>
        <time>2021-05-23T09:57:05.982Z</time>
      </trkpt>
      <trkpt lat="47.27212" lon="-2.26179">
        <ele>28</ele>
        <time>2021-05-23T09:57:06.983Z</time>
      </trkpt>
      <trkpt lat="47.2721" lon="-2.2618">
        <ele>28</ele>
        <time>2021-05-23T09:57:07.983Z</time>
      </trkpt>
      <trkpt lat="47.27209" lon="-2.26181">
        <ele>29</ele>
        <time>2021-05-23T09:57:08.983Z</time>
      </trkpt>
      <trkpt lat="47.27207" lon="-2.26182">
        <ele>29</ele>
        <time>2021-05-23T09:57:09.982Z</time>
      </trkpt>
      <trkpt lat="47.27206" lon="-2.26183">
        <ele>29</ele>
        <time>2021-05-23T09:57:10.983Z</time>
      </trkpt>
      <trkpt lat="47.27204" lon="-2.26185">
        <ele>29</ele>
        <time>2021-05-23T09:57:11.983Z</time>
      </trkpt>
      <trkpt lat="47.27203" lon="-2.26187">
        <ele>29</ele>
        <time>2021-05-23T09:57:12.982Z</time>
      </trkpt>
      <trkpt lat="47.27202" lon="-2.26188">
        <ele>28</ele>
        <time>2021-05-23T09:57:13.983Z</time>
      </trkpt>
      <trkpt lat="47.27201" lon="-2.2619">
        <ele>28</ele>
        <time>2021-05-23T09:57:14.982Z</time>
      </trkpt>
      <trkpt lat="47.272" lon="-2.26191">
        <ele>28</ele>
        <time>2021-05-23T09:57:15.983Z</time>
      </trkpt>
      <trkpt lat="47.27198" lon="-2.26192">
        <ele>29</ele>
        <time>2021-05-23T09:57:16.983Z</time>
      </trkpt>
      <trkpt lat="47.27197" lon="-2.26193">
        <ele>29</ele>
        <time>2021-05-23T09:57:17.982Z</time>
      </trkpt>
      <trkpt lat="47.27196" lon="-2.26194">
        <ele>29</ele>
        <time>2021-05-23T09:57:18.982Z</time>
      </trkpt>
      <trkpt lat="47.27194" lon="-2.26196">
        <ele>29</ele>
        <time>2021-05-23T09:57:19.982Z</time>
      </trkpt>
      <trkpt lat="47.27193" lon="-2.26197">
        <ele>28</ele>
        <time>2021-05-23T09:57:20.983Z</time>
      </trkpt>
      <trkpt lat="47.27192" lon="-2.26199">
        <ele>26</ele>
        <time>2021-05-23T09:57:21.983Z</time>
      </trkpt>
      <trkpt lat="47.27191" lon="-2.262">
        <ele>25</ele>
        <time>2021-05-23T09:57:22.983Z</time>
      </trkpt>
      <trkpt lat="47.27189" lon="-2.26202">
        <ele>24</ele>
        <time>2021-05-23T09:57:23.983Z</time>
      </trkpt>
      <trkpt lat="47.27188" lon="-2.26203">
        <ele>23</ele>
        <time>2021-05-23T09:57:24.983Z</time>
      </trkpt>
      <trkpt lat="47.27187" lon="-2.26204">
        <ele>22</ele>
        <time>2021-05-23T09:57:25.983Z</time>
      </trkpt>
      <trkpt lat="47.27185" lon="-2.26205">
        <ele>22</ele>
        <time>2021-05-23T09:57:26.983Z</time>
      </trkpt>
      <trkpt lat="47.27184" lon="-2.26207">
        <ele>22</ele>
        <time>2021-05-23T09:57:27.983Z</time>
      </trkpt>
      <trkpt lat="47.27182" lon="-2.26208">
        <ele>23</ele>
        <time>2021-05-23T09:57:28.982Z</time>
      </trkpt>
      <trkpt lat="47.27181" lon="-2.2621">
        <ele>23</ele>
        <time>2021-05-23T09:57:29.983Z</time>
      </trkpt>
      <trkpt lat="47.27179" lon="-2.26211">
        <ele>23</ele>
        <time>2021-05-23T09:57:30.982Z</time>
      </trkpt>
      <trkpt lat="47.27178" lon="-2.26212">
        <ele>23</ele>
        <time>2021-05-23T09:57:31.983Z</time>
      </trkpt>
      <trkpt lat="47.27177" lon="-2.26214">
        <ele>23</ele>
        <time>2021-05-23T09:57:32.982Z</time>
      </trkpt>
      <trkpt lat="47.27176" lon="-2.26216">
        <ele>23</ele>
        <time>2021-05-23T09:57:33.983Z</time>
      </trkpt>
      <trkpt lat="47.27175" lon="-2.26218">
        <ele>23</ele>
        <time>2021-05-23T09:57:34.983Z</time>
      </trkpt>
      <trkpt lat="47.27174" lon="-2.26219">
        <ele>23</ele>
        <time>2021-05-23T09:57:35.983Z</time>
      </trkpt>
      <trkpt lat="47.27173" lon="-2.2622">
        <ele>23</ele>
        <time>2021-05-23T09:57:36.983Z</time>
      </trkpt>
      <trkpt lat="47.27172" lon="-2.26221">
        <ele>23</ele>
        <time>2021-05-23T09:57:37.982Z</time>
      </trkpt>
      <trkpt lat="47.27171" lon="-2.26223">
        <ele>22</ele>
        <time>2021-05-23T09:57:38.983Z</time>
      </trkpt>
      <trkpt lat="47.27171" lon="-2.26224">
        <ele>22</ele>
        <time>2021-05-23T09:57:39.983Z</time>
      </trkpt>
      <trkpt lat="47.2717" lon="-2.26225">
        <ele>21</ele>
        <time>2021-05-23T09:57:40.983Z</time>
      </trkpt>
      <trkpt lat="47.27169" lon="-2.26226">
        <ele>21</ele>
        <time>2021-05-23T09:57:41.983Z</time>
      </trkpt>
      <trkpt lat="47.27167" lon="-2.26228">
        <ele>21</ele>
        <time>2021-05-23T09:57:42.983Z</time>
      </trkpt>
      <trkpt lat="47.27166" lon="-2.26229">
        <ele>21</ele>
        <time>2021-05-23T09:57:43.983Z</time>
      </trkpt>
      <trkpt lat="47.27165" lon="-2.26231">
        <ele>21</ele>
        <time>2021-05-23T09:57:44.982Z</time>
      </trkpt>
      <trkpt lat="47.27164" lon="-2.26232">
        <ele>21</ele>
        <time>2021-05-23T09:57:45.982Z</time>
      </trkpt>
      <trkpt lat="47.27163" lon="-2.26234">
        <ele>21</ele>
        <time>2021-05-23T09:57:46.983Z</time>
      </trkpt>
      <trkpt lat="47.27162" lon="-2.26235">
        <ele>20</ele>
        <time>2021-05-23T09:57:47.983Z</time>
      </trkpt>
      <trkpt lat="47.27161" lon="-2.26236">
        <ele>20</ele>
        <time>2021-05-23T09:57:48.983Z</time>
      </trkpt>
      <trkpt lat="47.2716" lon="-2.26238">
        <ele>20</ele>
        <time>2021-05-23T09:57:49.983Z</time>
      </trkpt>
      <trkpt lat="47.27159" lon="-2.2624">
        <ele>20</ele>
        <time>2021-05-23T09:57:50.983Z</time>
      </trkpt>
      <trkpt lat="47.27158" lon="-2.26242">
        <ele>20</ele>
        <time>2021-05-23T09:57:51.982Z</time>
      </trkpt>
      <trkpt lat="47.27157" lon="-2.26243">
        <ele>20</ele>
        <time>2021-05-23T09:57:52.983Z</time>
      </trkpt>
      <trkpt lat="47.27156" lon="-2.26244">
        <ele>20</ele>
        <time>2021-05-23T09:57:53.983Z</time>
      </trkpt>
      <trkpt lat="47.27155" lon="-2.26245">
        <ele>20</ele>
        <time>2021-05-23T09:57:54.983Z</time>
      </trkpt>
      <trkpt lat="47.27153" lon="-2.26247">
        <ele>20</ele>
        <time>2021-05-23T09:57:55.983Z</time>
      </trkpt>
      <trkpt lat="47.27152" lon="-2.26249">
        <ele>20</ele>
        <time>2021-05-23T09:57:56.983Z</time>
      </trkpt>
      <trkpt lat="47.27151" lon="-2.26251">
        <ele>20</ele>
        <time>2021-05-23T09:57:57.982Z</time>
      </trkpt>
      <trkpt lat="47.27151" lon="-2.26252">
        <ele>20</ele>
        <time>2021-05-23T09:57:58.983Z</time>
      </trkpt>
      <trkpt lat="47.27149" lon="-2.26253">
        <ele>20</ele>
        <time>2021-05-23T09:57:59.983Z</time>
      </trkpt>
      <trkpt lat="47.27148" lon="-2.26255">
        <ele>21</ele>
        <time>2021-05-23T09:58:00.983Z</time>
      </trkpt>
      <trkpt lat="47.27147" lon="-2.26256">
        <ele>21</ele>
        <time>2021-05-23T09:58:01.983Z</time>
      </trkpt>
      <trkpt lat="47.27145" lon="-2.26257">
        <ele>22</ele>
        <time>2021-05-23T09:58:02.983Z</time>
      </trkpt>
      <trkpt lat="47.27143" lon="-2.26258">
        <ele>23</ele>
        <time>2021-05-23T09:58:03.983Z</time>
      </trkpt>
      <trkpt lat="47.27142" lon="-2.26259">
        <ele>24</ele>
        <time>2021-05-23T09:58:04.983Z</time>
      </trkpt>
      <trkpt lat="47.27141" lon="-2.2626">
        <ele>24</ele>
        <time>2021-05-23T09:58:05.982Z</time>
      </trkpt>
      <trkpt lat="47.2714" lon="-2.26261">
        <ele>25</ele>
        <time>2021-05-23T09:58:06.983Z</time>
      </trkpt>
      <trkpt lat="47.27139" lon="-2.26262">
        <ele>26</ele>
        <time>2021-05-23T09:58:07.982Z</time>
      </trkpt>
      <trkpt lat="47.27138" lon="-2.26263">
        <ele>27</ele>
        <time>2021-05-23T09:58:08.983Z</time>
      </trkpt>
      <trkpt lat="47.27137" lon="-2.26265">
        <ele>27</ele>
        <time>2021-05-23T09:58:09.983Z</time>
      </trkpt>
      <trkpt lat="47.27136" lon="-2.26266">
        <ele>27</ele>
        <time>2021-05-23T09:58:10.983Z</time>
      </trkpt>
      <trkpt lat="47.27135" lon="-2.26268">
        <ele>28</ele>
        <time>2021-05-23T09:58:11.983Z</time>
      </trkpt>
      <trkpt lat="47.27134" lon="-2.2627">
        <ele>28</ele>
        <time>2021-05-23T09:58:12.982Z</time>
      </trkpt>
      <trkpt lat="47.27133" lon="-2.26272">
        <ele>28</ele>
        <time>2021-05-23T09:58:13.983Z</time>
      </trkpt>
      <trkpt lat="47.27132" lon="-2.26273">
        <ele>28</ele>
        <time>2021-05-23T09:58:14.983Z</time>
      </trkpt>
      <trkpt lat="47.2713" lon="-2.26275">
        <ele>28</ele>
        <time>2021-05-23T09:58:15.983Z</time>
      </trkpt>
      <trkpt lat="47.27129" lon="-2.26276">
        <ele>28</ele>
        <time>2021-05-23T09:58:16.983Z</time>
      </trkpt>
      <trkpt lat="47.27128" lon="-2.26277">
        <ele>28</ele>
        <time>2021-05-23T09:58:17.983Z</time>
      </trkpt>
      <trkpt lat="47.27127" lon="-2.26278">
        <ele>29</ele>
        <time>2021-05-23T09:58:18.983Z</time>
      </trkpt>
      <trkpt lat="47.27126" lon="-2.2628">
        <ele>29</ele>
        <time>2021-05-23T09:58:19.983Z</time>
      </trkpt>
      <trkpt lat="47.27125" lon="-2.26281">
        <ele>29</ele>
        <time>2021-05-23T09:58:20.982Z</time>
      </trkpt>
      <trkpt lat="47.27123" lon="-2.26283">
        <ele>29</ele>
        <time>2021-05-23T09:58:21.983Z</time>
      </trkpt>
      <trkpt lat="47.27122" lon="-2.26284">
        <ele>28</ele>
        <time>2021-05-23T09:58:22.982Z</time>
      </trkpt>
      <trkpt lat="47.27121" lon="-2.26285">
        <ele>28</ele>
        <time>2021-05-23T09:58:23.982Z</time>
      </trkpt>
      <trkpt lat="47.27119" lon="-2.26286">
        <ele>28</ele>
        <time>2021-05-23T09:58:24.983Z</time>
      </trkpt>
      <trkpt lat="47.27118" lon="-2.26287">
        <ele>27</ele>
        <time>2021-05-23T09:58:25.983Z</time>
      </trkpt>
      <trkpt lat="47.27117" lon="-2.26289">
        <ele>27</ele>
        <time>2021-05-23T09:58:26.983Z</time>
      </trkpt>
      <trkpt lat="47.27117" lon="-2.2629">
        <ele>26</ele>
        <time>2021-05-23T09:58:27.982Z</time>
      </trkpt>
      <trkpt lat="47.27116" lon="-2.26291">
        <ele>26</ele>
        <time>2021-05-23T09:58:28.982Z</time>
      </trkpt>
      <trkpt lat="47.27115" lon="-2.26293">
        <ele>26</ele>
        <time>2021-05-23T09:58:29.982Z</time>
      </trkpt>
      <trkpt lat="47.27114" lon="-2.26294">
        <ele>25</ele>
        <time>2021-05-23T09:58:30.982Z</time>
      </trkpt>
      <trkpt lat="47.27113" lon="-2.26296">
        <ele>25</ele>
        <time>2021-05-23T09:58:31.982Z</time>
      </trkpt>
      <trkpt lat="47.27112" lon="-2.26297">
        <ele>24</ele>
        <time>2021-05-23T09:58:32.983Z</time>
      </trkpt>
      <trkpt lat="47.27111" lon="-2.26299">
        <ele>25</ele>
        <time>2021-05-23T09:58:33.983Z</time>
      </trkpt>
      <trkpt lat="47.27109" lon="-2.26301">
        <ele>25</ele>
        <time>2021-05-23T09:58:34.982Z</time>
      </trkpt>
      <trkpt lat="47.27108" lon="-2.26302">
        <ele>26</ele>
        <time>2021-05-23T09:58:35.983Z</time>
      </trkpt>
      <trkpt lat="47.27105" lon="-2.26303">
        <ele>26</ele>
        <time>2021-05-23T09:58:36.982Z</time>
      </trkpt>
      <trkpt lat="47.27104" lon="-2.26305">
        <ele>27</ele>
        <time>2021-05-23T09:58:37.983Z</time>
      </trkpt>
      <trkpt lat="47.27102" lon="-2.26307">
        <ele>28</ele>
        <time>2021-05-23T09:58:38.983Z</time>
      </trkpt>
      <trkpt lat="47.271" lon="-2.26308">
        <ele>28</ele>
        <time>2021-05-23T09:58:39.982Z</time>
      </trkpt>
      <trkpt lat="47.27099" lon="-2.26309">
        <ele>29</ele>
        <time>2021-05-23T09:58:40.983Z</time>
      </trkpt>
      <trkpt lat="47.27098" lon="-2.2631">
        <ele>30</ele>
        <time>2021-05-23T09:58:41.983Z</time>
      </trkpt>
      <trkpt lat="47.27096" lon="-2.26312">
        <ele>30</ele>
        <time>2021-05-23T09:58:42.983Z</time>
      </trkpt>
      <trkpt lat="47.27095" lon="-2.26313">
        <ele>31</ele>
        <time>2021-05-23T09:58:43.983Z</time>
      </trkpt>
      <trkpt lat="47.27094" lon="-2.26315">
        <ele>31</ele>
        <time>2021-05-23T09:58:44.982Z</time>
      </trkpt>
      <trkpt lat="47.27093" lon="-2.26316">
        <ele>31</ele>
        <time>2021-05-23T09:58:45.983Z</time>
      </trkpt>
      <trkpt lat="47.27092" lon="-2.26318">
        <ele>31</ele>
        <time>2021-05-23T09:58:46.983Z</time>
      </trkpt>
      <trkpt lat="47.27092" lon="-2.26319">
        <ele>31</ele>
        <time>2021-05-23T09:58:47.983Z</time>
      </trkpt>
      <trkpt lat="47.27091" lon="-2.26322">
        <ele>31</ele>
        <time>2021-05-23T09:58:48.983Z</time>
      </trkpt>
      <trkpt lat="47.2709" lon="-2.26324">
        <ele>30</ele>
        <time>2021-05-23T09:58:49.983Z</time>
      </trkpt>
      <trkpt lat="47.27089" lon="-2.26325">
        <ele>29</ele>
        <time>2021-05-23T09:58:50.982Z</time>
      </trkpt>
      <trkpt lat="47.27089" lon="-2.26327">
        <ele>29</ele>
        <time>2021-05-23T09:58:51.983Z</time>
      </trkpt>
      <trkpt lat="47.27088" lon="-2.26329">
        <ele>28</ele>
        <time>2021-05-23T09:58:52.983Z</time>
      </trkpt>
      <trkpt lat="47.27088" lon="-2.26331">
        <ele>27</ele>
        <time>2021-05-23T09:58:53.983Z</time>
      </trkpt>
      <trkpt lat="47.27087" lon="-2.26333">
        <ele>27</ele>
        <time>2021-05-23T09:58:54.982Z</time>
      </trkpt>
      <trkpt lat="47.27086" lon="-2.26334">
        <ele>26</ele>
        <time>2021-05-23T09:58:55.983Z</time>
      </trkpt>
      <trkpt lat="47.27085" lon="-2.26335">
        <ele>26</ele>
        <time>2021-05-23T09:58:56.983Z</time>
      </trkpt>
      <trkpt lat="47.27084" lon="-2.26337">
        <ele>26</ele>
        <time>2021-05-23T09:58:57.983Z</time>
      </trkpt>
      <trkpt lat="47.27083" lon="-2.26338">
        <ele>26</ele>
        <time>2021-05-23T09:58:58.983Z</time>
      </trkpt>
      <trkpt lat="47.27082" lon="-2.2634">
        <ele>27</ele>
        <time>2021-05-23T09:58:59.982Z</time>
      </trkpt>
      <trkpt lat="47.2708" lon="-2.26342">
        <ele>27</ele>
        <time>2021-05-23T09:59:00.983Z</time>
      </trkpt>
      <trkpt lat="47.27079" lon="-2.26343">
        <ele>27</ele>
        <time>2021-05-23T09:59:01.982Z</time>
      </trkpt>
      <trkpt lat="47.27078" lon="-2.26344">
        <ele>28</ele>
        <time>2021-05-23T09:59:02.983Z</time>
      </trkpt>
      <trkpt lat="47.27077" lon="-2.26346">
        <ele>28</ele>
        <time>2021-05-23T09:59:03.983Z</time>
      </trkpt>
      <trkpt lat="47.27077" lon="-2.26347">
        <ele>28</ele>
        <time>2021-05-23T09:59:04.983Z</time>
      </trkpt>
      <trkpt lat="47.27076" lon="-2.26349">
        <ele>28</ele>
        <time>2021-05-23T09:59:05.983Z</time>
      </trkpt>
      <trkpt lat="47.27075" lon="-2.2635">
        <ele>28</ele>
        <time>2021-05-23T09:59:06.983Z</time>
      </trkpt>
      <trkpt lat="47.27074" lon="-2.26352">
        <ele>28</ele>
        <time>2021-05-23T09:59:07.983Z</time>
      </trkpt>
      <trkpt lat="47.27074" lon="-2.26354">
        <ele>28</ele>
        <time>2021-05-23T09:59:08.983Z</time>
      </trkpt>
      <trkpt lat="47.27073" lon="-2.26355">
        <ele>27</ele>
        <time>2021-05-23T09:59:09.983Z</time>
      </trkpt>
      <trkpt lat="47.27073" lon="-2.26357">
        <ele>27</ele>
        <time>2021-05-23T09:59:10.983Z</time>
      </trkpt>
      <trkpt lat="47.27072" lon="-2.26359">
        <ele>26</ele>
        <time>2021-05-23T09:59:11.983Z</time>
      </trkpt>
      <trkpt lat="47.27071" lon="-2.26361">
        <ele>26</ele>
        <time>2021-05-23T09:59:12.982Z</time>
      </trkpt>
      <trkpt lat="47.2707" lon="-2.26362">
        <ele>26</ele>
        <time>2021-05-23T09:59:13.983Z</time>
      </trkpt>
      <trkpt lat="47.27069" lon="-2.26364">
        <ele>25</ele>
        <time>2021-05-23T09:59:14.983Z</time>
      </trkpt>
      <trkpt lat="47.27068" lon="-2.26365">
        <ele>25</ele>
        <time>2021-05-23T09:59:15.983Z</time>
      </trkpt>
      <trkpt lat="47.27068" lon="-2.26367">
        <ele>24</ele>
        <time>2021-05-23T09:59:16.983Z</time>
      </trkpt>
      <trkpt lat="47.27067" lon="-2.26368">
        <ele>24</ele>
        <time>2021-05-23T09:59:17.983Z</time>
      </trkpt>
      <trkpt lat="47.27066" lon="-2.26369">
        <ele>23</ele>
        <time>2021-05-23T09:59:18.983Z</time>
      </trkpt>
      <trkpt lat="47.27065" lon="-2.26371">
        <ele>23</ele>
        <time>2021-05-23T09:59:19.983Z</time>
      </trkpt>
      <trkpt lat="47.27064" lon="-2.26372">
        <ele>23</ele>
        <time>2021-05-23T09:59:20.983Z</time>
      </trkpt>
      <trkpt lat="47.27063" lon="-2.26374">
        <ele>22</ele>
        <time>2021-05-23T09:59:21.983Z</time>
      </trkpt>
      <trkpt lat="47.27061" lon="-2.26375">
        <ele>22</ele>
        <time>2021-05-23T09:59:22.982Z</time>
      </trkpt>
      <trkpt lat="47.2706" lon="-2.26376">
        <ele>22</ele>
        <time>2021-05-23T09:59:23.983Z</time>
      </trkpt>
      <trkpt lat="47.27058" lon="-2.26378">
        <ele>21</ele>
        <time>2021-05-23T09:59:24.983Z</time>
      </trkpt>
      <trkpt lat="47.27057" lon="-2.26379">
        <ele>21</ele>
        <time>2021-05-23T09:59:25.983Z</time>
      </trkpt>
      <trkpt lat="47.27056" lon="-2.26381">
        <ele>21</ele>
        <time>2021-05-23T09:59:26.983Z</time>
      </trkpt>
      <trkpt lat="47.27055" lon="-2.26382">
        <ele>21</ele>
        <time>2021-05-23T09:59:27.983Z</time>
      </trkpt>
      <trkpt lat="47.27054" lon="-2.26383">
        <ele>21</ele>
        <time>2021-05-23T09:59:28.983Z</time>
      </trkpt>
      <trkpt lat="47.27053" lon="-2.26384">
        <ele>20</ele>
        <time>2021-05-23T09:59:29.982Z</time>
      </trkpt>
      <trkpt lat="47.27051" lon="-2.26385">
        <ele>20</ele>
        <time>2021-05-23T09:59:30.982Z</time>
      </trkpt>
      <trkpt lat="47.2705" lon="-2.26386">
        <ele>20</ele>
        <time>2021-05-23T09:59:31.983Z</time>
      </trkpt>
      <trkpt lat="47.27049" lon="-2.26387">
        <ele>20</ele>
        <time>2021-05-23T09:59:32.983Z</time>
      </trkpt>
      <trkpt lat="47.27048" lon="-2.26388">
        <ele>20</ele>
        <time>2021-05-23T09:59:33.983Z</time>
      </trkpt>
      <trkpt lat="47.27047" lon="-2.26389">
        <ele>19</ele>
        <time>2021-05-23T09:59:34.983Z</time>
      </trkpt>
      <trkpt lat="47.27046" lon="-2.2639">
        <ele>19</ele>
        <time>2021-05-23T09:59:35.983Z</time>
      </trkpt>
      <trkpt lat="47.27045" lon="-2.26391">
        <ele>19</ele>
        <time>2021-05-23T09:59:36.983Z</time>
      </trkpt>
      <trkpt lat="47.27043" lon="-2.26393">
        <ele>20</ele>
        <time>2021-05-23T09:59:37.983Z</time>
      </trkpt>
      <trkpt lat="47.27042" lon="-2.26394">
        <ele>20</ele>
        <time>2021-05-23T09:59:38.983Z</time>
      </trkpt>
      <trkpt lat="47.27041" lon="-2.26396">
        <ele>21</ele>
        <time>2021-05-23T09:59:39.983Z</time>
      </trkpt>
      <trkpt lat="47.27039" lon="-2.26398">
        <ele>22</ele>
        <time>2021-05-23T09:59:40.983Z</time>
      </trkpt>
      <trkpt lat="47.27038" lon="-2.264">
        <ele>22</ele>
        <time>2021-05-23T09:59:41.983Z</time>
      </trkpt>
      <trkpt lat="47.27037" lon="-2.26403">
        <ele>22</ele>
        <time>2021-05-23T09:59:42.983Z</time>
      </trkpt>
      <trkpt lat="47.27036" lon="-2.26405">
        <ele>22</ele>
        <time>2021-05-23T09:59:43.982Z</time>
      </trkpt>
      <trkpt lat="47.27035" lon="-2.26406">
        <ele>23</ele>
        <time>2021-05-23T09:59:44.982Z</time>
      </trkpt>
      <trkpt lat="47.27034" lon="-2.26407">
        <ele>22</ele>
        <time>2021-05-23T09:59:45.982Z</time>
      </trkpt>
      <trkpt lat="47.27033" lon="-2.26408">
        <ele>22</ele>
        <time>2021-05-23T09:59:46.982Z</time>
      </trkpt>
      <trkpt lat="47.27033" lon="-2.26409">
        <ele>22</ele>
        <time>2021-05-23T09:59:47.982Z</time>
      </trkpt>
      <trkpt lat="47.27032" lon="-2.26411">
        <ele>22</ele>
        <time>2021-05-23T09:59:48.983Z</time>
      </trkpt>
      <trkpt lat="47.27032" lon="-2.26413">
        <ele>21</ele>
        <time>2021-05-23T09:59:49.983Z</time>
      </trkpt>
      <trkpt lat="47.27031" lon="-2.26415">
        <ele>21</ele>
        <time>2021-05-23T09:59:50.982Z</time>
      </trkpt>
      <trkpt lat="47.2703" lon="-2.26417">
        <ele>22</ele>
        <time>2021-05-23T09:59:51.982Z</time>
      </trkpt>
      <trkpt lat="47.27029" lon="-2.26419">
        <ele>22</ele>
        <time>2021-05-23T09:59:52.982Z</time>
      </trkpt>
      <trkpt lat="47.27028" lon="-2.2642">
        <ele>22</ele>
        <time>2021-05-23T09:59:53.982Z</time>
      </trkpt>
      <trkpt lat="47.27027" lon="-2.26422">
        <ele>23</ele>
        <time>2021-05-23T09:59:54.982Z</time>
      </trkpt>
      <trkpt lat="47.27026" lon="-2.26423">
        <ele>23</ele>
        <time>2021-05-23T09:59:55.982Z</time>
      </trkpt>
      <trkpt lat="47.27024" lon="-2.26424">
        <ele>24</ele>
        <time>2021-05-23T09:59:56.982Z</time>
      </trkpt>
      <trkpt lat="47.27023" lon="-2.26425">
        <ele>24</ele>
        <time>2021-05-23T09:59:57.982Z</time>
      </trkpt>
      <trkpt lat="47.27021" lon="-2.26426">
        <ele>25</ele>
        <time>2021-05-23T09:59:58.982Z</time>
      </trkpt>
      <trkpt lat="47.2702" lon="-2.26428">
        <ele>25</ele>
        <time>2021-05-23T09:59:59.982Z</time>
      </trkpt>
      <trkpt lat="47.2702" lon="-2.2643">
        <ele>25</ele>
        <time>2021-05-23T10:00:00.982Z</time>
      </trkpt>
      <trkpt lat="47.27019" lon="-2.26432">
        <ele>25</ele>
        <time>2021-05-23T10:00:01.982Z</time>
      </trkpt>
      <trkpt lat="47.27019" lon="-2.26434">
        <ele>25</ele>
        <time>2021-05-23T10:00:02.982Z</time>
      </trkpt>
      <trkpt lat="47.27018" lon="-2.26436">
        <ele>25</ele>
        <time>2021-05-23T10:00:03.982Z</time>
      </trkpt>
      <trkpt lat="47.27018" lon="-2.26438">
        <ele>25</ele>
        <time>2021-05-23T10:00:04.982Z</time>
      </trkpt>
      <trkpt lat="47.27018" lon="-2.26439">
        <ele>24</ele>
        <time>2021-05-23T10:00:05.982Z</time>
      </trkpt>
      <trkpt lat="47.27017" lon="-2.2644">
        <ele>24</ele>
        <time>2021-05-23T10:00:06.982Z</time>
      </trkpt>
      <trkpt lat="47.27017" lon="-2.26442">
        <ele>24</ele>
        <time>2021-05-23T10:00:07.982Z</time>
      </trkpt>
      <trkpt lat="47.27016" lon="-2.26443">
        <ele>23</ele>
        <time>2021-05-23T10:00:08.983Z</time>
      </trkpt>
      <trkpt lat="47.27015" lon="-2.26444">
        <ele>23</ele>
        <time>2021-05-23T10:00:09.982Z</time>
      </trkpt>
      <trkpt lat="47.27014" lon="-2.26444">
        <ele>23</ele>
        <time>2021-05-23T10:00:10.982Z</time>
      </trkpt>
      <trkpt lat="47.27013" lon="-2.26445">
        <ele>22</ele>
        <time>2021-05-23T10:00:11.982Z</time>
      </trkpt>
      <trkpt lat="47.27013" lon="-2.26447">
        <ele>22</ele>
        <time>2021-05-23T10:00:12.982Z</time>
      </trkpt>
      <trkpt lat="47.27011" lon="-2.26448">
        <ele>22</ele>
        <time>2021-05-23T10:00:13.982Z</time>
      </trkpt>
      <trkpt lat="47.27011" lon="-2.26448">
        <ele>22</ele>
        <time>2021-05-23T10:00:14.982Z</time>
      </trkpt>
      <trkpt lat="47.2701" lon="-2.2645">
        <ele>22</ele>
        <time>2021-05-23T10:00:15.982Z</time>
      </trkpt>
      <trkpt lat="47.27009" lon="-2.26452">
        <ele>22</ele>
        <time>2021-05-23T10:00:16.983Z</time>
      </trkpt>
      <trkpt lat="47.27008" lon="-2.26453">
        <ele>23</ele>
        <time>2021-05-23T10:00:17.983Z</time>
      </trkpt>
      <trkpt lat="47.27007" lon="-2.26454">
        <ele>23</ele>
        <time>2021-05-23T10:00:18.982Z</time>
      </trkpt>
      <trkpt lat="47.27006" lon="-2.26455">
        <ele>24</ele>
        <time>2021-05-23T10:00:19.983Z</time>
      </trkpt>
      <trkpt lat="47.27005" lon="-2.26455">
        <ele>24</ele>
        <time>2021-05-23T10:00:20.982Z</time>
      </trkpt>
      <trkpt lat="47.27004" lon="-2.26456">
        <ele>25</ele>
        <time>2021-05-23T10:00:21.983Z</time>
      </trkpt>
      <trkpt lat="47.27002" lon="-2.26458">
        <ele>25</ele>
        <time>2021-05-23T10:00:22.983Z</time>
      </trkpt>
      <trkpt lat="47.27001" lon="-2.26458">
        <ele>25</ele>
        <time>2021-05-23T10:00:23.983Z</time>
      </trkpt>
      <trkpt lat="47.26999" lon="-2.26459">
        <ele>25</ele>
        <time>2021-05-23T10:00:24.983Z</time>
      </trkpt>
      <trkpt lat="47.26997" lon="-2.2646">
        <ele>25</ele>
        <time>2021-05-23T10:00:25.983Z</time>
      </trkpt>
      <trkpt lat="47.26996" lon="-2.26462">
        <ele>26</ele>
        <time>2021-05-23T10:00:26.983Z</time>
      </trkpt>
      <trkpt lat="47.26995" lon="-2.26464">
        <ele>26</ele>
        <time>2021-05-23T10:00:27.983Z</time>
      </trkpt>
      <trkpt lat="47.26995" lon="-2.26465">
        <ele>26</ele>
        <time>2021-05-23T10:00:28.983Z</time>
      </trkpt>
      <trkpt lat="47.26995" lon="-2.26467">
        <ele>26</ele>
        <time>2021-05-23T10:00:29.983Z</time>
      </trkpt>
      <trkpt lat="47.26995" lon="-2.26468">
        <ele>27</ele>
        <time>2021-05-23T10:00:30.983Z</time>
      </trkpt>
      <trkpt lat="47.26994" lon="-2.26469">
        <ele>27</ele>
        <time>2021-05-23T10:00:31.983Z</time>
      </trkpt>
      <trkpt lat="47.26993" lon="-2.2647">
        <ele>27</ele>
        <time>2021-05-23T10:00:32.983Z</time>
      </trkpt>
      <trkpt lat="47.26992" lon="-2.26471">
        <ele>27</ele>
        <time>2021-05-23T10:00:33.983Z</time>
      </trkpt>
      <trkpt lat="47.26991" lon="-2.26472">
        <ele>28</ele>
        <time>2021-05-23T10:00:34.983Z</time>
      </trkpt>
      <trkpt lat="47.2699" lon="-2.26473">
        <ele>28</ele>
        <time>2021-05-23T10:00:35.983Z</time>
      </trkpt>
      <trkpt lat="47.26989" lon="-2.26474">
        <ele>28</ele>
        <time>2021-05-23T10:00:36.983Z</time>
      </trkpt>
      <trkpt lat="47.26988" lon="-2.26475">
        <ele>28</ele>
        <time>2021-05-23T10:00:37.982Z</time>
      </trkpt>
      <trkpt lat="47.26986" lon="-2.26476">
        <ele>28</ele>
        <time>2021-05-23T10:00:38.983Z</time>
      </trkpt>
      <trkpt lat="47.26984" lon="-2.26477">
        <ele>28</ele>
        <time>2021-05-23T10:00:39.983Z</time>
      </trkpt>
      <trkpt lat="47.26983" lon="-2.26478">
        <ele>28</ele>
        <time>2021-05-23T10:00:40.983Z</time>
      </trkpt>
      <trkpt lat="47.26982" lon="-2.26479">
        <ele>28</ele>
        <time>2021-05-23T10:00:41.982Z</time>
      </trkpt>
      <trkpt lat="47.2698" lon="-2.2648">
        <ele>28</ele>
        <time>2021-05-23T10:00:42.982Z</time>
      </trkpt>
      <trkpt lat="47.26979" lon="-2.26481">
        <ele>28</ele>
        <time>2021-05-23T10:00:43.983Z</time>
      </trkpt>
      <trkpt lat="47.26978" lon="-2.26483">
        <ele>28</ele>
        <time>2021-05-23T10:00:44.983Z</time>
      </trkpt>
      <trkpt lat="47.26977" lon="-2.26485">
        <ele>28</ele>
        <time>2021-05-23T10:00:45.982Z</time>
      </trkpt>
      <trkpt lat="47.26976" lon="-2.26486">
        <ele>28</ele>
        <time>2021-05-23T10:00:46.982Z</time>
      </trkpt>
      <trkpt lat="47.26975" lon="-2.26487">
        <ele>28</ele>
        <time>2021-05-23T10:00:47.983Z</time>
      </trkpt>
      <trkpt lat="47.26974" lon="-2.26488">
        <ele>27</ele>
        <time>2021-05-23T10:00:48.983Z</time>
      </trkpt>
      <trkpt lat="47.26973" lon="-2.26489">
        <ele>27</ele>
        <time>2021-05-23T10:00:49.983Z</time>
      </trkpt>
      <trkpt lat="47.26972" lon="-2.26491">
        <ele>26</ele>
        <time>2021-05-23T10:00:50.983Z</time>
      </trkpt>
      <trkpt lat="47.26971" lon="-2.26492">
        <ele>26</ele>
        <time>2021-05-23T10:00:51.983Z</time>
      </trkpt>
      <trkpt lat="47.2697" lon="-2.26493">
        <ele>25</ele>
        <time>2021-05-23T10:00:52.983Z</time>
      </trkpt>
      <trkpt lat="47.26968" lon="-2.26494">
        <ele>25</ele>
        <time>2021-05-23T10:00:53.982Z</time>
      </trkpt>
      <trkpt lat="47.26967" lon="-2.26495">
        <ele>24</ele>
        <time>2021-05-23T10:00:54.982Z</time>
      </trkpt>
      <trkpt lat="47.26966" lon="-2.26496">
        <ele>24</ele>
        <time>2021-05-23T10:00:55.982Z</time>
      </trkpt>
      <trkpt lat="47.26965" lon="-2.26497">
        <ele>24</ele>
        <time>2021-05-23T10:00:56.983Z</time>
      </trkpt>
      <trkpt lat="47.26964" lon="-2.26498">
        <ele>24</ele>
        <time>2021-05-23T10:00:57.983Z</time>
      </trkpt>
      <trkpt lat="47.26963" lon="-2.26499">
        <ele>24</ele>
        <time>2021-05-23T10:00:58.983Z</time>
      </trkpt>
      <trkpt lat="47.26962" lon="-2.265">
        <ele>23</ele>
        <time>2021-05-23T10:00:59.983Z</time>
      </trkpt>
      <trkpt lat="47.2696" lon="-2.26502">
        <ele>23</ele>
        <time>2021-05-23T10:01:00.982Z</time>
      </trkpt>
      <trkpt lat="47.26959" lon="-2.26503">
        <ele>24</ele>
        <time>2021-05-23T10:01:01.983Z</time>
      </trkpt>
      <trkpt lat="47.26957" lon="-2.26504">
        <ele>24</ele>
        <time>2021-05-23T10:01:02.983Z</time>
      </trkpt>
      <trkpt lat="47.26956" lon="-2.26505">
        <ele>24</ele>
        <time>2021-05-23T10:01:03.983Z</time>
      </trkpt>
      <trkpt lat="47.26955" lon="-2.26506">
        <ele>25</ele>
        <time>2021-05-23T10:01:04.983Z</time>
      </trkpt>
      <trkpt lat="47.26953" lon="-2.26506">
        <ele>25</ele>
        <time>2021-05-23T10:01:05.983Z</time>
      </trkpt>
      <trkpt lat="47.26952" lon="-2.26507">
        <ele>25</ele>
        <time>2021-05-23T10:01:06.983Z</time>
      </trkpt>
      <trkpt lat="47.26951" lon="-2.26507">
        <ele>25</ele>
        <time>2021-05-23T10:01:07.983Z</time>
      </trkpt>
      <trkpt lat="47.26949" lon="-2.26508">
        <ele>25</ele>
        <time>2021-05-23T10:01:08.982Z</time>
      </trkpt>
      <trkpt lat="47.26948" lon="-2.26509">
        <ele>25</ele>
        <time>2021-05-23T10:01:09.983Z</time>
      </trkpt>
      <trkpt lat="47.26946" lon="-2.2651">
        <ele>25</ele>
        <time>2021-05-23T10:01:10.983Z</time>
      </trkpt>
      <trkpt lat="47.26945" lon="-2.2651">
        <ele>24</ele>
        <time>2021-05-23T10:01:11.983Z</time>
      </trkpt>
      <trkpt lat="47.26943" lon="-2.26511">
        <ele>24</ele>
        <time>2021-05-23T10:01:12.982Z</time>
      </trkpt>
      <trkpt lat="47.26941" lon="-2.26511">
        <ele>24</ele>
        <time>2021-05-23T10:01:13.983Z</time>
      </trkpt>
      <trkpt lat="47.2694" lon="-2.26512">
        <ele>24</ele>
        <time>2021-05-23T10:01:14.983Z</time>
      </trkpt>
      <trkpt lat="47.26939" lon="-2.26513">
        <ele>25</ele>
        <time>2021-05-23T10:01:15.983Z</time>
      </trkpt>
      <trkpt lat="47.26938" lon="-2.26514">
        <ele>25</ele>
        <time>2021-05-23T10:01:16.983Z</time>
      </trkpt>
      <trkpt lat="47.26937" lon="-2.26515">
        <ele>24</ele>
        <time>2021-05-23T10:01:17.983Z</time>
      </trkpt>
      <trkpt lat="47.26936" lon="-2.26516">
        <ele>24</ele>
        <time>2021-05-23T10:01:18.982Z</time>
      </trkpt>
      <trkpt lat="47.26935" lon="-2.26517">
        <ele>24</ele>
        <time>2021-05-23T10:01:19.982Z</time>
      </trkpt>
      <trkpt lat="47.26934" lon="-2.26517">
        <ele>24</ele>
        <time>2021-05-23T10:01:20.983Z</time>
      </trkpt>
      <trkpt lat="47.26933" lon="-2.26517">
        <ele>24</ele>
        <time>2021-05-23T10:01:21.983Z</time>
      </trkpt>
      <trkpt lat="47.26931" lon="-2.26517">
        <ele>24</ele>
        <time>2021-05-23T10:01:22.983Z</time>
      </trkpt>
      <trkpt lat="47.26929" lon="-2.26518">
        <ele>23</ele>
        <time>2021-05-23T10:01:23.982Z</time>
      </trkpt>
      <trkpt lat="47.26927" lon="-2.26518">
        <ele>23</ele>
        <time>2021-05-23T10:01:24.982Z</time>
      </trkpt>
      <trkpt lat="47.26926" lon="-2.26519">
        <ele>23</ele>
        <time>2021-05-23T10:01:25.983Z</time>
      </trkpt>
      <trkpt lat="47.26924" lon="-2.2652">
        <ele>22</ele>
        <time>2021-05-23T10:01:26.982Z</time>
      </trkpt>
      <trkpt lat="47.26923" lon="-2.2652">
        <ele>22</ele>
        <time>2021-05-23T10:01:27.982Z</time>
      </trkpt>
      <trkpt lat="47.26922" lon="-2.2652">
        <ele>22</ele>
        <time>2021-05-23T10:01:28.983Z</time>
      </trkpt>
      <trkpt lat="47.2692" lon="-2.2652">
        <ele>21</ele>
        <time>2021-05-23T10:01:29.983Z</time>
      </trkpt>
      <trkpt lat="47.26919" lon="-2.26521">
        <ele>21</ele>
        <time>2021-05-23T10:01:30.983Z</time>
      </trkpt>
      <trkpt lat="47.26918" lon="-2.26522">
        <ele>21</ele>
        <time>2021-05-23T10:01:31.983Z</time>
      </trkpt>
      <trkpt lat="47.26916" lon="-2.26523">
        <ele>22</ele>
        <time>2021-05-23T10:01:32.982Z</time>
      </trkpt>
      <trkpt lat="47.26915" lon="-2.26523">
        <ele>22</ele>
        <time>2021-05-23T10:01:33.983Z</time>
      </trkpt>
      <trkpt lat="47.26914" lon="-2.26524">
        <ele>22</ele>
        <time>2021-05-23T10:01:34.983Z</time>
      </trkpt>
      <trkpt lat="47.26912" lon="-2.26525">
        <ele>23</ele>
        <time>2021-05-23T10:01:35.983Z</time>
      </trkpt>
      <trkpt lat="47.26911" lon="-2.26526">
        <ele>23</ele>
        <time>2021-05-23T10:01:36.983Z</time>
      </trkpt>
      <trkpt lat="47.2691" lon="-2.26527">
        <ele>24</ele>
        <time>2021-05-23T10:01:37.982Z</time>
      </trkpt>
      <trkpt lat="47.26909" lon="-2.26527">
        <ele>24</ele>
        <time>2021-05-23T10:01:38.983Z</time>
      </trkpt>
      <trkpt lat="47.26908" lon="-2.26528">
        <ele>24</ele>
        <time>2021-05-23T10:01:39.983Z</time>
      </trkpt>
      <trkpt lat="47.26906" lon="-2.26528">
        <ele>24</ele>
        <time>2021-05-23T10:01:40.982Z</time>
      </trkpt>
      <trkpt lat="47.26905" lon="-2.26529">
        <ele>24</ele>
        <time>2021-05-23T10:01:41.982Z</time>
      </trkpt>
      <trkpt lat="47.26903" lon="-2.26529">
        <ele>24</ele>
        <time>2021-05-23T10:01:42.982Z</time>
      </trkpt>
      <trkpt lat="47.26902" lon="-2.2653">
        <ele>24</ele>
        <time>2021-05-23T10:01:43.983Z</time>
      </trkpt>
      <trkpt lat="47.269" lon="-2.26531">
        <ele>24</ele>
        <time>2021-05-23T10:01:44.983Z</time>
      </trkpt>
      <trkpt lat="47.26899" lon="-2.26531">
        <ele>24</ele>
        <time>2021-05-23T10:01:45.983Z</time>
      </trkpt>
      <trkpt lat="47.26898" lon="-2.26532">
        <ele>24</ele>
        <time>2021-05-23T10:01:46.982Z</time>
      </trkpt>
      <trkpt lat="47.26896" lon="-2.26533">
        <ele>24</ele>
        <time>2021-05-23T10:01:47.982Z</time>
      </trkpt>
      <trkpt lat="47.26895" lon="-2.26534">
        <ele>24</ele>
        <time>2021-05-23T10:01:48.982Z</time>
      </trkpt>
      <trkpt lat="47.26894" lon="-2.26536">
        <ele>24</ele>
        <time>2021-05-23T10:01:49.982Z</time>
      </trkpt>
      <trkpt lat="47.26893" lon="-2.26537">
        <ele>24</ele>
        <time>2021-05-23T10:01:50.982Z</time>
      </trkpt>
      <trkpt lat="47.26892" lon="-2.26539">
        <ele>24</ele>
        <time>2021-05-23T10:01:51.983Z</time>
      </trkpt>
      <trkpt lat="47.26891" lon="-2.2654">
        <ele>24</ele>
        <time>2021-05-23T10:01:52.983Z</time>
      </trkpt>
      <trkpt lat="47.26889" lon="-2.26541">
        <ele>24</ele>
        <time>2021-05-23T10:01:53.983Z</time>
      </trkpt>
      <trkpt lat="47.26888" lon="-2.26542">
        <ele>25</ele>
        <time>2021-05-23T10:01:54.983Z</time>
      </trkpt>
      <trkpt lat="47.26887" lon="-2.26543">
        <ele>25</ele>
        <time>2021-05-23T10:01:55.983Z</time>
      </trkpt>
      <trkpt lat="47.26886" lon="-2.26544">
        <ele>25</ele>
        <time>2021-05-23T10:01:56.982Z</time>
      </trkpt>
      <trkpt lat="47.26885" lon="-2.26544">
        <ele>25</ele>
        <time>2021-05-23T10:01:57.982Z</time>
      </trkpt>
      <trkpt lat="47.26884" lon="-2.26545">
        <ele>25</ele>
        <time>2021-05-23T10:01:58.983Z</time>
      </trkpt>
      <trkpt lat="47.26883" lon="-2.26546">
        <ele>25</ele>
        <time>2021-05-23T10:01:59.983Z</time>
      </trkpt>
      <trkpt lat="47.26881" lon="-2.26546">
        <ele>25</ele>
        <time>2021-05-23T10:02:00.983Z</time>
      </trkpt>
      <trkpt lat="47.2688" lon="-2.26547">
        <ele>26</ele>
        <time>2021-05-23T10:02:01.983Z</time>
      </trkpt>
      <trkpt lat="47.26879" lon="-2.26547">
        <ele>26</ele>
        <time>2021-05-23T10:02:02.983Z</time>
      </trkpt>
      <trkpt lat="47.26878" lon="-2.26548">
        <ele>27</ele>
        <time>2021-05-23T10:02:03.983Z</time>
      </trkpt>
      <trkpt lat="47.26876" lon="-2.26549">
        <ele>27</ele>
        <time>2021-05-23T10:02:04.983Z</time>
      </trkpt>
      <trkpt lat="47.26875" lon="-2.26549">
        <ele>27</ele>
        <time>2021-05-23T10:02:05.983Z</time>
      </trkpt>
      <trkpt lat="47.26874" lon="-2.26549">
        <ele>28</ele>
        <time>2021-05-23T10:02:06.983Z</time>
      </trkpt>
      <trkpt lat="47.26873" lon="-2.2655">
        <ele>28</ele>
        <time>2021-05-23T10:02:07.982Z</time>
      </trkpt>
      <trkpt lat="47.26872" lon="-2.26551">
        <ele>28</ele>
        <time>2021-05-23T10:02:08.983Z</time>
      </trkpt>
      <trkpt lat="47.26871" lon="-2.26552">
        <ele>27</ele>
        <time>2021-05-23T10:02:09.983Z</time>
      </trkpt>
      <trkpt lat="47.2687" lon="-2.26552">
        <ele>26</ele>
        <time>2021-05-23T10:02:10.982Z</time>
      </trkpt>
      <trkpt lat="47.26869" lon="-2.26554">
        <ele>25</ele>
        <time>2021-05-23T10:02:11.982Z</time>
      </trkpt>
      <trkpt lat="47.26868" lon="-2.26555">
        <ele>24</ele>
        <time>2021-05-23T10:02:12.982Z</time>
      </trkpt>
      <trkpt lat="47.26868" lon="-2.26557">
        <ele>23</ele>
        <time>2021-05-23T10:02:13.983Z</time>
      </trkpt>
      <trkpt lat="47.26868" lon="-2.26559">
        <ele>22</ele>
        <time>2021-05-23T10:02:14.983Z</time>
      </trkpt>
      <trkpt lat="47.26868" lon="-2.26561">
        <ele>21</ele>
        <time>2021-05-23T10:02:15.983Z</time>
      </trkpt>
      <trkpt lat="47.26869" lon="-2.26563">
        <ele>20</ele>
        <time>2021-05-23T10:02:16.983Z</time>
      </trkpt>
      <trkpt lat="47.26869" lon="-2.26565">
        <ele>19</ele>
        <time>2021-05-23T10:02:17.983Z</time>
      </trkpt>
      <trkpt lat="47.2687" lon="-2.26567">
        <ele>19</ele>
        <time>2021-05-23T10:02:18.982Z</time>
      </trkpt>
      <trkpt lat="47.2687" lon="-2.26569">
        <ele>19</ele>
        <time>2021-05-23T10:02:19.983Z</time>
      </trkpt>
      <trkpt lat="47.26871" lon="-2.2657">
        <ele>19</ele>
        <time>2021-05-23T10:02:20.983Z</time>
      </trkpt>
      <trkpt lat="47.26872" lon="-2.26572">
        <ele>19</ele>
        <time>2021-05-23T10:02:21.982Z</time>
      </trkpt>
      <trkpt lat="47.26873" lon="-2.26574">
        <ele>19</ele>
        <time>2021-05-23T10:02:22.983Z</time>
      </trkpt>
      <trkpt lat="47.26874" lon="-2.26576">
        <ele>19</ele>
        <time>2021-05-23T10:02:23.983Z</time>
      </trkpt>
      <trkpt lat="47.26874" lon="-2.26578">
        <ele>19</ele>
        <time>2021-05-23T10:02:24.983Z</time>
      </trkpt>
      <trkpt lat="47.26875" lon="-2.2658">
        <ele>19</ele>
        <time>2021-05-23T10:02:25.982Z</time>
      </trkpt>
      <trkpt lat="47.26875" lon="-2.26582">
        <ele>20</ele>
        <time>2021-05-23T10:02:26.983Z</time>
      </trkpt>
      <trkpt lat="47.26876" lon="-2.26583">
        <ele>21</ele>
        <time>2021-05-23T10:02:27.983Z</time>
      </trkpt>
      <trkpt lat="47.26876" lon="-2.26584">
        <ele>21</ele>
        <time>2021-05-23T10:02:28.982Z</time>
      </trkpt>
      <trkpt lat="47.26877" lon="-2.26586">
        <ele>22</ele>
        <time>2021-05-23T10:02:29.983Z</time>
      </trkpt>
      <trkpt lat="47.26878" lon="-2.26588">
        <ele>22</ele>
        <time>2021-05-23T10:02:30.982Z</time>
      </trkpt>
      <trkpt lat="47.26878" lon="-2.26591">
        <ele>23</ele>
        <time>2021-05-23T10:02:31.983Z</time>
      </trkpt>
      <trkpt lat="47.26878" lon="-2.26592">
        <ele>24</ele>
        <time>2021-05-23T10:02:32.983Z</time>
      </trkpt>
      <trkpt lat="47.26878" lon="-2.26594">
        <ele>24</ele>
        <time>2021-05-23T10:02:33.983Z</time>
      </trkpt>
      <trkpt lat="47.26878" lon="-2.26596">
        <ele>25</ele>
        <time>2021-05-23T10:02:34.983Z</time>
      </trkpt>
      <trkpt lat="47.26878" lon="-2.26598">
        <ele>26</ele>
        <time>2021-05-23T10:02:35.983Z</time>
      </trkpt>
      <trkpt lat="47.26878" lon="-2.26599">
        <ele>27</ele>
        <time>2021-05-23T10:02:36.982Z</time>
      </trkpt>
      <trkpt lat="47.26878" lon="-2.26602">
        <ele>27</ele>
        <time>2021-05-23T10:02:37.982Z</time>
      </trkpt>
      <trkpt lat="47.26878" lon="-2.26604">
        <ele>28</ele>
        <time>2021-05-23T10:02:38.983Z</time>
      </trkpt>
      <trkpt lat="47.26879" lon="-2.26605">
        <ele>28</ele>
        <time>2021-05-23T10:02:39.983Z</time>
      </trkpt>
      <trkpt lat="47.26879" lon="-2.26606">
        <ele>28</ele>
        <time>2021-05-23T10:02:40.982Z</time>
      </trkpt>
      <trkpt lat="47.2688" lon="-2.26607">
        <ele>29</ele>
        <time>2021-05-23T10:02:41.983Z</time>
      </trkpt>
      <trkpt lat="47.26881" lon="-2.26608">
        <ele>29</ele>
        <time>2021-05-23T10:02:42.983Z</time>
      </trkpt>
      <trkpt lat="47.26881" lon="-2.26609">
        <ele>29</ele>
        <time>2021-05-23T10:02:43.983Z</time>
      </trkpt>
      <trkpt lat="47.26881" lon="-2.26611">
        <ele>29</ele>
        <time>2021-05-23T10:02:44.983Z</time>
      </trkpt>
      <trkpt lat="47.26881" lon="-2.26612">
        <ele>28</ele>
        <time>2021-05-23T10:02:45.983Z</time>
      </trkpt>
      <trkpt lat="47.26882" lon="-2.26613">
        <ele>28</ele>
        <time>2021-05-23T10:02:46.982Z</time>
      </trkpt>
      <trkpt lat="47.26882" lon="-2.26615">
        <ele>28</ele>
        <time>2021-05-23T10:02:47.983Z</time>
      </trkpt>
      <trkpt lat="47.26883" lon="-2.26617">
        <ele>27</ele>
        <time>2021-05-23T10:02:48.982Z</time>
      </trkpt>
      <trkpt lat="47.26883" lon="-2.26618">
        <ele>27</ele>
        <time>2021-05-23T10:02:49.983Z</time>
      </trkpt>
      <trkpt lat="47.26884" lon="-2.2662">
        <ele>26</ele>
        <time>2021-05-23T10:02:50.983Z</time>
      </trkpt>
      <trkpt lat="47.26884" lon="-2.26621">
        <ele>26</ele>
        <time>2021-05-23T10:02:51.982Z</time>
      </trkpt>
      <trkpt lat="47.26884" lon="-2.26623">
        <ele>25</ele>
        <time>2021-05-23T10:02:52.983Z</time>
      </trkpt>
      <trkpt lat="47.26885" lon="-2.26624">
        <ele>25</ele>
        <time>2021-05-23T10:02:53.982Z</time>
      </trkpt>
      <trkpt lat="47.26886" lon="-2.26625">
        <ele>25</ele>
        <time>2021-05-23T10:02:54.982Z</time>
      </trkpt>
      <trkpt lat="47.26887" lon="-2.26626">
        <ele>24</ele>
        <time>2021-05-23T10:02:55.982Z</time>
      </trkpt>
      <trkpt lat="47.26888" lon="-2.26627">
        <ele>24</ele>
        <time>2021-05-23T10:02:56.983Z</time>
      </trkpt>
      <trkpt lat="47.26888" lon="-2.26629">
        <ele>24</ele>
        <time>2021-05-23T10:02:57.982Z</time>
      </trkpt>
      <trkpt lat="47.26889" lon="-2.26631">
        <ele>24</ele>
        <time>2021-05-23T10:02:58.982Z</time>
      </trkpt>
      <trkpt lat="47.2689" lon="-2.26634">
        <ele>23</ele>
        <time>2021-05-23T10:02:59.983Z</time>
      </trkpt>
      <trkpt lat="47.2689" lon="-2.26637">
        <ele>23</ele>
        <time>2021-05-23T10:03:00.982Z</time>
      </trkpt>
      <trkpt lat="47.26891" lon="-2.2664">
        <ele>23</ele>
        <time>2021-05-23T10:03:01.983Z</time>
      </trkpt>
      <trkpt lat="47.26891" lon="-2.26643">
        <ele>23</ele>
        <time>2021-05-23T10:03:02.983Z</time>
      </trkpt>
      <trkpt lat="47.26892" lon="-2.26646">
        <ele>23</ele>
        <time>2021-05-23T10:03:03.982Z</time>
      </trkpt>
      <trkpt lat="47.26892" lon="-2.26649">
        <ele>23</ele>
        <time>2021-05-23T10:03:04.983Z</time>
      </trkpt>
      <trkpt lat="47.26893" lon="-2.26651">
        <ele>23</ele>
        <time>2021-05-23T10:03:05.983Z</time>
      </trkpt>
      <trkpt lat="47.26894" lon="-2.26654">
        <ele>23</ele>
        <time>2021-05-23T10:03:06.982Z</time>
      </trkpt>
      <trkpt lat="47.26895" lon="-2.26656">
        <ele>24</ele>
        <time>2021-05-23T10:03:07.983Z</time>
      </trkpt>
      <trkpt lat="47.26896" lon="-2.26658">
        <ele>24</ele>
        <time>2021-05-23T10:03:08.983Z</time>
      </trkpt>
      <trkpt lat="47.26897" lon="-2.26661">
        <ele>24</ele>
        <time>2021-05-23T10:03:09.983Z</time>
      </trkpt>
      <trkpt lat="47.26899" lon="-2.26663">
        <ele>24</ele>
        <time>2021-05-23T10:03:10.983Z</time>
      </trkpt>
      <trkpt lat="47.269" lon="-2.26666">
        <ele>24</ele>
        <time>2021-05-23T10:03:11.982Z</time>
      </trkpt>
      <trkpt lat="47.26902" lon="-2.26669">
        <ele>24</ele>
        <time>2021-05-23T10:03:12.983Z</time>
      </trkpt>
      <trkpt lat="47.26903" lon="-2.26671">
        <ele>25</ele>
        <time>2021-05-23T10:03:13.983Z</time>
      </trkpt>
      <trkpt lat="47.26904" lon="-2.26674">
        <ele>25</ele>
        <time>2021-05-23T10:03:14.983Z</time>
      </trkpt>
      <trkpt lat="47.26904" lon="-2.26676">
        <ele>24</ele>
        <time>2021-05-23T10:03:15.982Z</time>
      </trkpt>
      <trkpt lat="47.26906" lon="-2.26679">
        <ele>24</ele>
        <time>2021-05-23T10:03:16.983Z</time>
      </trkpt>
      <trkpt lat="47.26907" lon="-2.26682">
        <ele>25</ele>
        <time>2021-05-23T10:03:17.983Z</time>
      </trkpt>
      <trkpt lat="47.26908" lon="-2.26685">
        <ele>25</ele>
        <time>2021-05-23T10:03:18.983Z</time>
      </trkpt>
      <trkpt lat="47.26909" lon="-2.26688">
        <ele>26</ele>
        <time>2021-05-23T10:03:19.982Z</time>
      </trkpt>
      <trkpt lat="47.2691" lon="-2.26689">
        <ele>26</ele>
        <time>2021-05-23T10:03:20.983Z</time>
      </trkpt>
      <trkpt lat="47.26911" lon="-2.26692">
        <ele>26</ele>
        <time>2021-05-23T10:03:21.983Z</time>
      </trkpt>
      <trkpt lat="47.26912" lon="-2.26695">
        <ele>26</ele>
        <time>2021-05-23T10:03:22.983Z</time>
      </trkpt>
      <trkpt lat="47.26913" lon="-2.26697">
        <ele>26</ele>
        <time>2021-05-23T10:03:23.982Z</time>
      </trkpt>
      <trkpt lat="47.26914" lon="-2.267">
        <ele>26</ele>
        <time>2021-05-23T10:03:24.983Z</time>
      </trkpt>
      <trkpt lat="47.26915" lon="-2.26702">
        <ele>26</ele>
        <time>2021-05-23T10:03:25.982Z</time>
      </trkpt>
      <trkpt lat="47.26916" lon="-2.26705">
        <ele>26</ele>
        <time>2021-05-23T10:03:26.982Z</time>
      </trkpt>
      <trkpt lat="47.26917" lon="-2.26709">
        <ele>25</ele>
        <time>2021-05-23T10:03:27.983Z</time>
      </trkpt>
      <trkpt lat="47.26918" lon="-2.26712">
        <ele>25</ele>
        <time>2021-05-23T10:03:28.983Z</time>
      </trkpt>
      <trkpt lat="47.26919" lon="-2.26714">
        <ele>25</ele>
        <time>2021-05-23T10:03:29.983Z</time>
      </trkpt>
      <trkpt lat="47.2692" lon="-2.26717">
        <ele>25</ele>
        <time>2021-05-23T10:03:30.983Z</time>
      </trkpt>
      <trkpt lat="47.26921" lon="-2.2672">
        <ele>24</ele>
        <time>2021-05-23T10:03:31.983Z</time>
      </trkpt>
      <trkpt lat="47.26921" lon="-2.26723">
        <ele>24</ele>
        <time>2021-05-23T10:03:32.983Z</time>
      </trkpt>
      <trkpt lat="47.26922" lon="-2.26726">
        <ele>24</ele>
        <time>2021-05-23T10:03:33.982Z</time>
      </trkpt>
      <trkpt lat="47.26921" lon="-2.26732">
        <ele>23</ele>
        <time>2021-05-23T10:03:34.983Z</time>
      </trkpt>
      <trkpt lat="47.26921" lon="-2.26736">
        <ele>23</ele>
        <time>2021-05-23T10:03:35.982Z</time>
      </trkpt>
      <trkpt lat="47.26922" lon="-2.26739">
        <ele>23</ele>
        <time>2021-05-23T10:03:36.982Z</time>
      </trkpt>
      <trkpt lat="47.26922" lon="-2.26744">
        <ele>23</ele>
        <time>2021-05-23T10:03:37.983Z</time>
      </trkpt>
      <trkpt lat="47.26923" lon="-2.26747">
        <ele>23</ele>
        <time>2021-05-23T10:03:38.983Z</time>
      </trkpt>
      <trkpt lat="47.26924" lon="-2.2675">
        <ele>24</ele>
        <time>2021-05-23T10:03:39.983Z</time>
      </trkpt>
      <trkpt lat="47.26924" lon="-2.26755">
        <ele>24</ele>
        <time>2021-05-23T10:03:40.983Z</time>
      </trkpt>
      <trkpt lat="47.26925" lon="-2.26759">
        <ele>24</ele>
        <time>2021-05-23T10:03:41.983Z</time>
      </trkpt>
      <trkpt lat="47.26926" lon="-2.26762">
        <ele>24</ele>
        <time>2021-05-23T10:03:42.983Z</time>
      </trkpt>
      <trkpt lat="47.26927" lon="-2.26765">
        <ele>23</ele>
        <time>2021-05-23T10:03:43.983Z</time>
      </trkpt>
      <trkpt lat="47.26929" lon="-2.26769">
        <ele>23</ele>
        <time>2021-05-23T10:03:44.982Z</time>
      </trkpt>
      <trkpt lat="47.26929" lon="-2.26773">
        <ele>23</ele>
        <time>2021-05-23T10:03:45.983Z</time>
      </trkpt>
      <trkpt lat="47.2693" lon="-2.26776">
        <ele>23</ele>
        <time>2021-05-23T10:03:46.982Z</time>
      </trkpt>
      <trkpt lat="47.26931" lon="-2.26779">
        <ele>23</ele>
        <time>2021-05-23T10:03:47.982Z</time>
      </trkpt>
      <trkpt lat="47.26932" lon="-2.26782">
        <ele>23</ele>
        <time>2021-05-23T10:03:48.983Z</time>
      </trkpt>
      <trkpt lat="47.26933" lon="-2.26786">
        <ele>22</ele>
        <time>2021-05-23T10:03:49.983Z</time>
      </trkpt>
      <trkpt lat="47.26934" lon="-2.26789">
        <ele>22</ele>
        <time>2021-05-23T10:03:50.983Z</time>
      </trkpt>
      <trkpt lat="47.26935" lon="-2.26791">
        <ele>22</ele>
        <time>2021-05-23T10:03:51.983Z</time>
      </trkpt>
      <trkpt lat="47.26936" lon="-2.26795">
        <ele>22</ele>
        <time>2021-05-23T10:03:52.983Z</time>
      </trkpt>
      <trkpt lat="47.26936" lon="-2.26797">
        <ele>22</ele>
        <time>2021-05-23T10:03:53.983Z</time>
      </trkpt>
      <trkpt lat="47.26936" lon="-2.268">
        <ele>22</ele>
        <time>2021-05-23T10:03:54.983Z</time>
      </trkpt>
      <trkpt lat="47.26937" lon="-2.26803">
        <ele>22</ele>
        <time>2021-05-23T10:03:55.983Z</time>
      </trkpt>
      <trkpt lat="47.26938" lon="-2.26806">
        <ele>22</ele>
        <time>2021-05-23T10:03:56.983Z</time>
      </trkpt>
      <trkpt lat="47.26939" lon="-2.26809">
        <ele>22</ele>
        <time>2021-05-23T10:03:57.982Z</time>
      </trkpt>
      <trkpt lat="47.26941" lon="-2.26811">
        <ele>22</ele>
        <time>2021-05-23T10:03:58.983Z</time>
      </trkpt>
      <trkpt lat="47.26941" lon="-2.26815">
        <ele>22</ele>
        <time>2021-05-23T10:03:59.982Z</time>
      </trkpt>
      <trkpt lat="47.26942" lon="-2.26818">
        <ele>22</ele>
        <time>2021-05-23T10:04:00.982Z</time>
      </trkpt>
      <trkpt lat="47.26943" lon="-2.26822">
        <ele>22</ele>
        <time>2021-05-23T10:04:01.982Z</time>
      </trkpt>
      <trkpt lat="47.26945" lon="-2.26826">
        <ele>22</ele>
        <time>2021-05-23T10:04:02.982Z</time>
      </trkpt>
      <trkpt lat="47.26946" lon="-2.26829">
        <ele>22</ele>
        <time>2021-05-23T10:04:03.982Z</time>
      </trkpt>
      <trkpt lat="47.26947" lon="-2.26833">
        <ele>22</ele>
        <time>2021-05-23T10:04:04.982Z</time>
      </trkpt>
      <trkpt lat="47.26948" lon="-2.26837">
        <ele>22</ele>
        <time>2021-05-23T10:04:05.983Z</time>
      </trkpt>
      <trkpt lat="47.26949" lon="-2.26839">
        <ele>21</ele>
        <time>2021-05-23T10:04:06.983Z</time>
      </trkpt>
      <trkpt lat="47.2695" lon="-2.26842">
        <ele>21</ele>
        <time>2021-05-23T10:04:07.982Z</time>
      </trkpt>
      <trkpt lat="47.26951" lon="-2.26846">
        <ele>20</ele>
        <time>2021-05-23T10:04:08.982Z</time>
      </trkpt>
      <trkpt lat="47.26951" lon="-2.2685">
        <ele>20</ele>
        <time>2021-05-23T10:04:09.983Z</time>
      </trkpt>
      <trkpt lat="47.26951" lon="-2.26854">
        <ele>20</ele>
        <time>2021-05-23T10:04:10.983Z</time>
      </trkpt>
      <trkpt lat="47.26951" lon="-2.26857">
        <ele>20</ele>
        <time>2021-05-23T10:04:11.983Z</time>
      </trkpt>
      <trkpt lat="47.26952" lon="-2.2686">
        <ele>20</ele>
        <time>2021-05-23T10:04:12.983Z</time>
      </trkpt>
      <trkpt lat="47.26953" lon="-2.26864">
        <ele>20</ele>
        <time>2021-05-23T10:04:13.982Z</time>
      </trkpt>
      <trkpt lat="47.26953" lon="-2.26867">
        <ele>20</ele>
        <time>2021-05-23T10:04:14.983Z</time>
      </trkpt>
      <trkpt lat="47.26954" lon="-2.2687">
        <ele>20</ele>
        <time>2021-05-23T10:04:15.983Z</time>
      </trkpt>
      <trkpt lat="47.26955" lon="-2.26873">
        <ele>21</ele>
        <time>2021-05-23T10:04:16.982Z</time>
      </trkpt>
      <trkpt lat="47.26956" lon="-2.26876">
        <ele>22</ele>
        <time>2021-05-23T10:04:17.982Z</time>
      </trkpt>
      <trkpt lat="47.26957" lon="-2.26878">
        <ele>22</ele>
        <time>2021-05-23T10:04:18.983Z</time>
      </trkpt>
      <trkpt lat="47.26959" lon="-2.26881">
        <ele>22</ele>
        <time>2021-05-23T10:04:19.983Z</time>
      </trkpt>
      <trkpt lat="47.26959" lon="-2.26884">
        <ele>23</ele>
        <time>2021-05-23T10:04:20.983Z</time>
      </trkpt>
      <trkpt lat="47.2696" lon="-2.26886">
        <ele>23</ele>
        <time>2021-05-23T10:04:21.983Z</time>
      </trkpt>
      <trkpt lat="47.26961" lon="-2.26889">
        <ele>23</ele>
        <time>2021-05-23T10:04:22.983Z</time>
      </trkpt>
      <trkpt lat="47.26962" lon="-2.26892">
        <ele>23</ele>
        <time>2021-05-23T10:04:23.983Z</time>
      </trkpt>
      <trkpt lat="47.26963" lon="-2.26894">
        <ele>22</ele>
        <time>2021-05-23T10:04:24.983Z</time>
      </trkpt>
      <trkpt lat="47.26963" lon="-2.26897">
        <ele>22</ele>
        <time>2021-05-23T10:04:25.983Z</time>
      </trkpt>
      <trkpt lat="47.26964" lon="-2.26901">
        <ele>22</ele>
        <time>2021-05-23T10:04:26.982Z</time>
      </trkpt>
      <trkpt lat="47.26965" lon="-2.26904">
        <ele>23</ele>
        <time>2021-05-23T10:04:27.982Z</time>
      </trkpt>
      <trkpt lat="47.26965" lon="-2.26907">
        <ele>23</ele>
        <time>2021-05-23T10:04:28.983Z</time>
      </trkpt>
      <trkpt lat="47.26966" lon="-2.2691">
        <ele>23</ele>
        <time>2021-05-23T10:04:29.983Z</time>
      </trkpt>
      <trkpt lat="47.26966" lon="-2.26913">
        <ele>23</ele>
        <time>2021-05-23T10:04:30.982Z</time>
      </trkpt>
      <trkpt lat="47.26966" lon="-2.26915">
        <ele>23</ele>
        <time>2021-05-23T10:04:31.982Z</time>
      </trkpt>
      <trkpt lat="47.26965" lon="-2.26919">
        <ele>23</ele>
        <time>2021-05-23T10:04:32.983Z</time>
      </trkpt>
      <trkpt lat="47.26965" lon="-2.26922">
        <ele>23</ele>
        <time>2021-05-23T10:04:33.982Z</time>
      </trkpt>
      <trkpt lat="47.26964" lon="-2.26925">
        <ele>24</ele>
        <time>2021-05-23T10:04:34.982Z</time>
      </trkpt>
      <trkpt lat="47.26963" lon="-2.26928">
        <ele>24</ele>
        <time>2021-05-23T10:04:35.983Z</time>
      </trkpt>
      <trkpt lat="47.26963" lon="-2.26931">
        <ele>24</ele>
        <time>2021-05-23T10:04:36.983Z</time>
      </trkpt>
      <trkpt lat="47.26963" lon="-2.26934">
        <ele>24</ele>
        <time>2021-05-23T10:04:37.983Z</time>
      </trkpt>
      <trkpt lat="47.26963" lon="-2.26937">
        <ele>24</ele>
        <time>2021-05-23T10:04:38.983Z</time>
      </trkpt>
      <trkpt lat="47.26963" lon="-2.26941">
        <ele>24</ele>
        <time>2021-05-23T10:04:39.983Z</time>
      </trkpt>
      <trkpt lat="47.26963" lon="-2.26944">
        <ele>23</ele>
        <time>2021-05-23T10:04:40.983Z</time>
      </trkpt>
      <trkpt lat="47.26962" lon="-2.26947">
        <ele>23</ele>
        <time>2021-05-23T10:04:41.983Z</time>
      </trkpt>
      <trkpt lat="47.26961" lon="-2.26951">
        <ele>23</ele>
        <time>2021-05-23T10:04:42.982Z</time>
      </trkpt>
      <trkpt lat="47.26961" lon="-2.26954">
        <ele>23</ele>
        <time>2021-05-23T10:04:43.983Z</time>
      </trkpt>
      <trkpt lat="47.2696" lon="-2.26958">
        <ele>23</ele>
        <time>2021-05-23T10:04:44.983Z</time>
      </trkpt>
      <trkpt lat="47.26959" lon="-2.26962">
        <ele>23</ele>
        <time>2021-05-23T10:04:45.983Z</time>
      </trkpt>
      <trkpt lat="47.26959" lon="-2.26965">
        <ele>23</ele>
        <time>2021-05-23T10:04:46.983Z</time>
      </trkpt>
      <trkpt lat="47.26958" lon="-2.26969">
        <ele>24</ele>
        <time>2021-05-23T10:04:47.982Z</time>
      </trkpt>
      <trkpt lat="47.26958" lon="-2.26973">
        <ele>24</ele>
        <time>2021-05-23T10:04:48.983Z</time>
      </trkpt>
      <trkpt lat="47.26957" lon="-2.26976">
        <ele>24</ele>
        <time>2021-05-23T10:04:49.983Z</time>
      </trkpt>
      <trkpt lat="47.26956" lon="-2.2698">
        <ele>23</ele>
        <time>2021-05-23T10:04:50.982Z</time>
      </trkpt>
      <trkpt lat="47.26955" lon="-2.26984">
        <ele>24</ele>
        <time>2021-05-23T10:04:51.983Z</time>
      </trkpt>
      <trkpt lat="47.26954" lon="-2.26987">
        <ele>24</ele>
        <time>2021-05-23T10:04:52.982Z</time>
      </trkpt>
      <trkpt lat="47.26953" lon="-2.26989">
        <ele>24</ele>
        <time>2021-05-23T10:04:53.983Z</time>
      </trkpt>
      <trkpt lat="47.26952" lon="-2.26991">
        <ele>25</ele>
        <time>2021-05-23T10:04:54.983Z</time>
      </trkpt>
      <trkpt lat="47.26952" lon="-2.26995">
        <ele>25</ele>
        <time>2021-05-23T10:04:55.983Z</time>
      </trkpt>
      <trkpt lat="47.2695" lon="-2.26997">
        <ele>25</ele>
        <time>2021-05-23T10:04:56.983Z</time>
      </trkpt>
      <trkpt lat="47.26949" lon="-2.27">
        <ele>26</ele>
        <time>2021-05-23T10:04:57.983Z</time>
      </trkpt>
      <trkpt lat="47.26947" lon="-2.27003">
        <ele>26</ele>
        <time>2021-05-23T10:04:58.983Z</time>
      </trkpt>
      <trkpt lat="47.26946" lon="-2.27005">
        <ele>26</ele>
        <time>2021-05-23T10:04:59.982Z</time>
      </trkpt>
      <trkpt lat="47.26944" lon="-2.27007">
        <ele>26</ele>
        <time>2021-05-23T10:05:00.983Z</time>
      </trkpt>
      <trkpt lat="47.26943" lon="-2.27009">
        <ele>27</ele>
        <time>2021-05-23T10:05:01.983Z</time>
      </trkpt>
      <trkpt lat="47.26942" lon="-2.27011">
        <ele>28</ele>
        <time>2021-05-23T10:05:02.983Z</time>
      </trkpt>
      <trkpt lat="47.26941" lon="-2.27014">
        <ele>28</ele>
        <time>2021-05-23T10:05:03.983Z</time>
      </trkpt>
      <trkpt lat="47.2694" lon="-2.27016">
        <ele>29</ele>
        <time>2021-05-23T10:05:04.983Z</time>
      </trkpt>
      <trkpt lat="47.26939" lon="-2.27018">
        <ele>29</ele>
        <time>2021-05-23T10:05:05.982Z</time>
      </trkpt>
      <trkpt lat="47.26936" lon="-2.27021">
        <ele>30</ele>
        <time>2021-05-23T10:05:06.983Z</time>
      </trkpt>
      <trkpt lat="47.26935" lon="-2.27023">
        <ele>30</ele>
        <time>2021-05-23T10:05:07.982Z</time>
      </trkpt>
      <trkpt lat="47.26933" lon="-2.27026">
        <ele>30</ele>
        <time>2021-05-23T10:05:08.983Z</time>
      </trkpt>
      <trkpt lat="47.26931" lon="-2.27028">
        <ele>30</ele>
        <time>2021-05-23T10:05:09.983Z</time>
      </trkpt>
      <trkpt lat="47.2693" lon="-2.27031">
        <ele>30</ele>
        <time>2021-05-23T10:05:10.983Z</time>
      </trkpt>
      <trkpt lat="47.26929" lon="-2.27034">
        <ele>30</ele>
        <time>2021-05-23T10:05:11.983Z</time>
      </trkpt>
      <trkpt lat="47.26927" lon="-2.27036">
        <ele>30</ele>
        <time>2021-05-23T10:05:12.982Z</time>
      </trkpt>
      <trkpt lat="47.26926" lon="-2.27038">
        <ele>30</ele>
        <time>2021-05-23T10:05:13.983Z</time>
      </trkpt>
      <trkpt lat="47.26925" lon="-2.27039">
        <ele>29</ele>
        <time>2021-05-23T10:05:14.983Z</time>
      </trkpt>
      <trkpt lat="47.26925" lon="-2.2704">
        <ele>29</ele>
        <time>2021-05-23T10:05:15.983Z</time>
      </trkpt>
      <trkpt lat="47.26924" lon="-2.27042">
        <ele>29</ele>
        <time>2021-05-23T10:05:16.983Z</time>
      </trkpt>
      <trkpt lat="47.26922" lon="-2.27043">
        <ele>29</ele>
        <time>2021-05-23T10:05:17.983Z</time>
      </trkpt>
      <trkpt lat="47.26921" lon="-2.27045">
        <ele>29</ele>
        <time>2021-05-23T10:05:18.983Z</time>
      </trkpt>
      <trkpt lat="47.2692" lon="-2.27047">
        <ele>29</ele>
        <time>2021-05-23T10:05:19.983Z</time>
      </trkpt>
      <trkpt lat="47.26919" lon="-2.27048">
        <ele>29</ele>
        <time>2021-05-23T10:05:20.983Z</time>
      </trkpt>
      <trkpt lat="47.26918" lon="-2.2705">
        <ele>30</ele>
        <time>2021-05-23T10:05:21.983Z</time>
      </trkpt>
      <trkpt lat="47.26917" lon="-2.27051">
        <ele>30</ele>
        <time>2021-05-23T10:05:22.982Z</time>
      </trkpt>
      <trkpt lat="47.26916" lon="-2.27052">
        <ele>30</ele>
        <time>2021-05-23T10:05:23.983Z</time>
      </trkpt>
      <trkpt lat="47.26914" lon="-2.27053">
        <ele>31</ele>
        <time>2021-05-23T10:05:24.983Z</time>
      </trkpt>
      <trkpt lat="47.26913" lon="-2.27054">
        <ele>31</ele>
        <time>2021-05-23T10:05:25.983Z</time>
      </trkpt>
      <trkpt lat="47.26912" lon="-2.27055">
        <ele>31</ele>
        <time>2021-05-23T10:05:26.983Z</time>
      </trkpt>
      <trkpt lat="47.26911" lon="-2.27057">
        <ele>31</ele>
        <time>2021-05-23T10:05:27.983Z</time>
      </trkpt>
      <trkpt lat="47.2691" lon="-2.27058">
        <ele>31</ele>
        <time>2021-05-23T10:05:28.983Z</time>
      </trkpt>
      <trkpt lat="47.26909" lon="-2.2706">
        <ele>31</ele>
        <time>2021-05-23T10:05:29.983Z</time>
      </trkpt>
      <trkpt lat="47.26908" lon="-2.27062">
        <ele>32</ele>
        <time>2021-05-23T10:05:30.982Z</time>
      </trkpt>
      <trkpt lat="47.26907" lon="-2.27063">
        <ele>32</ele>
        <time>2021-05-23T10:05:31.982Z</time>
      </trkpt>
      <trkpt lat="47.26906" lon="-2.27065">
        <ele>32</ele>
        <time>2021-05-23T10:05:32.983Z</time>
      </trkpt>
      <trkpt lat="47.26905" lon="-2.27067">
        <ele>33</ele>
        <time>2021-05-23T10:05:33.983Z</time>
      </trkpt>
      <trkpt lat="47.26903" lon="-2.27068">
        <ele>33</ele>
        <time>2021-05-23T10:05:34.982Z</time>
      </trkpt>
      <trkpt lat="47.26902" lon="-2.27069">
        <ele>34</ele>
        <time>2021-05-23T10:05:35.983Z</time>
      </trkpt>
      <trkpt lat="47.269" lon="-2.27071">
        <ele>35</ele>
        <time>2021-05-23T10:05:36.983Z</time>
      </trkpt>
      <trkpt lat="47.26899" lon="-2.27072">
        <ele>35</ele>
        <time>2021-05-23T10:05:37.983Z</time>
      </trkpt>
      <trkpt lat="47.26898" lon="-2.27074">
        <ele>36</ele>
        <time>2021-05-23T10:05:38.983Z</time>
      </trkpt>
      <trkpt lat="47.26897" lon="-2.27076">
        <ele>36</ele>
        <time>2021-05-23T10:05:39.982Z</time>
      </trkpt>
      <trkpt lat="47.26895" lon="-2.27077">
        <ele>37</ele>
        <time>2021-05-23T10:05:40.983Z</time>
      </trkpt>
      <trkpt lat="47.26894" lon="-2.27079">
        <ele>37</ele>
        <time>2021-05-23T10:05:41.983Z</time>
      </trkpt>
      <trkpt lat="47.26893" lon="-2.2708">
        <ele>37</ele>
        <time>2021-05-23T10:05:42.983Z</time>
      </trkpt>
      <trkpt lat="47.26892" lon="-2.27082">
        <ele>37</ele>
        <time>2021-05-23T10:05:43.982Z</time>
      </trkpt>
      <trkpt lat="47.26891" lon="-2.27084">
        <ele>37</ele>
        <time>2021-05-23T10:05:44.983Z</time>
      </trkpt>
      <trkpt lat="47.2689" lon="-2.27086">
        <ele>37</ele>
        <time>2021-05-23T10:05:45.983Z</time>
      </trkpt>
      <trkpt lat="47.26889" lon="-2.27087">
        <ele>37</ele>
        <time>2021-05-23T10:05:46.983Z</time>
      </trkpt>
      <trkpt lat="47.26888" lon="-2.27089">
        <ele>36</ele>
        <time>2021-05-23T10:05:47.983Z</time>
      </trkpt>
      <trkpt lat="47.26887" lon="-2.2709">
        <ele>35</ele>
        <time>2021-05-23T10:05:48.982Z</time>
      </trkpt>
      <trkpt lat="47.26886" lon="-2.27092">
        <ele>35</ele>
        <time>2021-05-23T10:05:49.982Z</time>
      </trkpt>
      <trkpt lat="47.26885" lon="-2.27093">
        <ele>34</ele>
        <time>2021-05-23T10:05:50.982Z</time>
      </trkpt>
      <trkpt lat="47.26883" lon="-2.27095">
        <ele>34</ele>
        <time>2021-05-23T10:05:51.983Z</time>
      </trkpt>
      <trkpt lat="47.26881" lon="-2.27097">
        <ele>33</ele>
        <time>2021-05-23T10:05:52.982Z</time>
      </trkpt>
      <trkpt lat="47.26881" lon="-2.27099">
        <ele>33</ele>
        <time>2021-05-23T10:05:53.983Z</time>
      </trkpt>
      <trkpt lat="47.26879" lon="-2.271">
        <ele>32</ele>
        <time>2021-05-23T10:05:54.983Z</time>
      </trkpt>
      <trkpt lat="47.26877" lon="-2.271">
        <ele>32</ele>
        <time>2021-05-23T10:05:55.983Z</time>
      </trkpt>
      <trkpt lat="47.26874" lon="-2.27101">
        <ele>32</ele>
        <time>2021-05-23T10:05:56.983Z</time>
      </trkpt>
      <trkpt lat="47.26873" lon="-2.27102">
        <ele>31</ele>
        <time>2021-05-23T10:05:57.983Z</time>
      </trkpt>
      <trkpt lat="47.26871" lon="-2.27103">
        <ele>31</ele>
        <time>2021-05-23T10:05:58.983Z</time>
      </trkpt>
      <trkpt lat="47.26869" lon="-2.27105">
        <ele>31</ele>
        <time>2021-05-23T10:05:59.983Z</time>
      </trkpt>
      <trkpt lat="47.26867" lon="-2.27106">
        <ele>32</ele>
        <time>2021-05-23T10:06:00.983Z</time>
      </trkpt>
      <trkpt lat="47.26866" lon="-2.27108">
        <ele>32</ele>
        <time>2021-05-23T10:06:01.983Z</time>
      </trkpt>
      <trkpt lat="47.26865" lon="-2.27109">
        <ele>32</ele>
        <time>2021-05-23T10:06:02.983Z</time>
      </trkpt>
      <trkpt lat="47.26863" lon="-2.27111">
        <ele>32</ele>
        <time>2021-05-23T10:06:03.983Z</time>
      </trkpt>
      <trkpt lat="47.26862" lon="-2.27112">
        <ele>32</ele>
        <time>2021-05-23T10:06:04.983Z</time>
      </trkpt>
      <trkpt lat="47.26861" lon="-2.27113">
        <ele>32</ele>
        <time>2021-05-23T10:06:05.982Z</time>
      </trkpt>
      <trkpt lat="47.26859" lon="-2.27114">
        <ele>32</ele>
        <time>2021-05-23T10:06:06.983Z</time>
      </trkpt>
      <trkpt lat="47.26857" lon="-2.27115">
        <ele>33</ele>
        <time>2021-05-23T10:06:07.983Z</time>
      </trkpt>
      <trkpt lat="47.26856" lon="-2.27116">
        <ele>33</ele>
        <time>2021-05-23T10:06:08.982Z</time>
      </trkpt>
      <trkpt lat="47.26854" lon="-2.27117">
        <ele>34</ele>
        <time>2021-05-23T10:06:09.982Z</time>
      </trkpt>
      <trkpt lat="47.26852" lon="-2.27117">
        <ele>34</ele>
        <time>2021-05-23T10:06:10.982Z</time>
      </trkpt>
      <trkpt lat="47.2685" lon="-2.27118">
        <ele>35</ele>
        <time>2021-05-23T10:06:11.983Z</time>
      </trkpt>
      <trkpt lat="47.26847" lon="-2.27118">
        <ele>35</ele>
        <time>2021-05-23T10:06:12.983Z</time>
      </trkpt>
      <trkpt lat="47.26845" lon="-2.27118">
        <ele>36</ele>
        <time>2021-05-23T10:06:13.983Z</time>
      </trkpt>
      <trkpt lat="47.26844" lon="-2.2712">
        <ele>36</ele>
        <time>2021-05-23T10:06:14.983Z</time>
      </trkpt>
      <trkpt lat="47.26842" lon="-2.27121">
        <ele>36</ele>
        <time>2021-05-23T10:06:15.982Z</time>
      </trkpt>
      <trkpt lat="47.2684" lon="-2.27123">
        <ele>36</ele>
        <time>2021-05-23T10:06:16.983Z</time>
      </trkpt>
      <trkpt lat="47.26838" lon="-2.27124">
        <ele>36</ele>
        <time>2021-05-23T10:06:17.982Z</time>
      </trkpt>
      <trkpt lat="47.26836" lon="-2.27126">
        <ele>36</ele>
        <time>2021-05-23T10:06:18.983Z</time>
      </trkpt>
      <trkpt lat="47.26834" lon="-2.27127">
        <ele>35</ele>
        <time>2021-05-23T10:06:19.983Z</time>
      </trkpt>
      <trkpt lat="47.26832" lon="-2.27128">
        <ele>36</ele>
        <time>2021-05-23T10:06:20.983Z</time>
      </trkpt>
      <trkpt lat="47.2683" lon="-2.27128">
        <ele>36</ele>
        <time>2021-05-23T10:06:21.983Z</time>
      </trkpt>
      <trkpt lat="47.26827" lon="-2.27128">
        <ele>36</ele>
        <time>2021-05-23T10:06:22.983Z</time>
      </trkpt>
      <trkpt lat="47.26825" lon="-2.27128">
        <ele>36</ele>
        <time>2021-05-23T10:06:23.983Z</time>
      </trkpt>
      <trkpt lat="47.26822" lon="-2.27128">
        <ele>35</ele>
        <time>2021-05-23T10:06:24.982Z</time>
      </trkpt>
      <trkpt lat="47.2682" lon="-2.27129">
        <ele>35</ele>
        <time>2021-05-23T10:06:25.983Z</time>
      </trkpt>
      <trkpt lat="47.26817" lon="-2.2713">
        <ele>34</ele>
        <time>2021-05-23T10:06:26.982Z</time>
      </trkpt>
      <trkpt lat="47.26815" lon="-2.2713">
        <ele>34</ele>
        <time>2021-05-23T10:06:27.983Z</time>
      </trkpt>
      <trkpt lat="47.26813" lon="-2.27131">
        <ele>33</ele>
        <time>2021-05-23T10:06:28.983Z</time>
      </trkpt>
      <trkpt lat="47.26811" lon="-2.27132">
        <ele>33</ele>
        <time>2021-05-23T10:06:29.982Z</time>
      </trkpt>
      <trkpt lat="47.2681" lon="-2.27133">
        <ele>33</ele>
        <time>2021-05-23T10:06:30.982Z</time>
      </trkpt>
      <trkpt lat="47.26809" lon="-2.27134">
        <ele>33</ele>
        <time>2021-05-23T10:06:31.983Z</time>
      </trkpt>
      <trkpt lat="47.26807" lon="-2.27135">
        <ele>33</ele>
        <time>2021-05-23T10:06:32.983Z</time>
      </trkpt>
      <trkpt lat="47.26806" lon="-2.27136">
        <ele>33</ele>
        <time>2021-05-23T10:06:33.982Z</time>
      </trkpt>
      <trkpt lat="47.26803" lon="-2.27137">
        <ele>33</ele>
        <time>2021-05-23T10:06:34.983Z</time>
      </trkpt>
      <trkpt lat="47.26801" lon="-2.27138">
        <ele>34</ele>
        <time>2021-05-23T10:06:35.983Z</time>
      </trkpt>
      <trkpt lat="47.26799" lon="-2.27139">
        <ele>34</ele>
        <time>2021-05-23T10:06:36.983Z</time>
      </trkpt>
      <trkpt lat="47.26796" lon="-2.27139">
        <ele>34</ele>
        <time>2021-05-23T10:06:37.983Z</time>
      </trkpt>
      <trkpt lat="47.26793" lon="-2.2714">
        <ele>34</ele>
        <time>2021-05-23T10:06:38.983Z</time>
      </trkpt>
      <trkpt lat="47.2679" lon="-2.2714">
        <ele>35</ele>
        <time>2021-05-23T10:06:39.983Z</time>
      </trkpt>
      <trkpt lat="47.26788" lon="-2.2714">
        <ele>35</ele>
        <time>2021-05-23T10:06:40.983Z</time>
      </trkpt>
      <trkpt lat="47.26786" lon="-2.27141">
        <ele>36</ele>
        <time>2021-05-23T10:06:41.982Z</time>
      </trkpt>
      <trkpt lat="47.26783" lon="-2.27142">
        <ele>36</ele>
        <time>2021-05-23T10:06:42.983Z</time>
      </trkpt>
      <trkpt lat="47.2678" lon="-2.27143">
        <ele>36</ele>
        <time>2021-05-23T10:06:43.982Z</time>
      </trkpt>
      <trkpt lat="47.26778" lon="-2.27144">
        <ele>36</ele>
        <time>2021-05-23T10:06:44.982Z</time>
      </trkpt>
      <trkpt lat="47.26775" lon="-2.27145">
        <ele>36</ele>
        <time>2021-05-23T10:06:45.982Z</time>
      </trkpt>
      <trkpt lat="47.26773" lon="-2.27146">
        <ele>36</ele>
        <time>2021-05-23T10:06:46.983Z</time>
      </trkpt>
      <trkpt lat="47.26772" lon="-2.27147">
        <ele>36</ele>
        <time>2021-05-23T10:06:47.982Z</time>
      </trkpt>
      <trkpt lat="47.2677" lon="-2.27149">
        <ele>36</ele>
        <time>2021-05-23T10:06:48.983Z</time>
      </trkpt>
      <trkpt lat="47.26768" lon="-2.27152">
        <ele>36</ele>
        <time>2021-05-23T10:06:49.983Z</time>
      </trkpt>
      <trkpt lat="47.26767" lon="-2.27154">
        <ele>36</ele>
        <time>2021-05-23T10:06:50.983Z</time>
      </trkpt>
      <trkpt lat="47.26764" lon="-2.27155">
        <ele>36</ele>
        <time>2021-05-23T10:06:51.983Z</time>
      </trkpt>
      <trkpt lat="47.26762" lon="-2.27156">
        <ele>36</ele>
        <time>2021-05-23T10:06:52.982Z</time>
      </trkpt>
      <trkpt lat="47.26759" lon="-2.27157">
        <ele>36</ele>
        <time>2021-05-23T10:06:53.983Z</time>
      </trkpt>
      <trkpt lat="47.26756" lon="-2.27159">
        <ele>36</ele>
        <time>2021-05-23T10:06:54.983Z</time>
      </trkpt>
      <trkpt lat="47.26754" lon="-2.2716">
        <ele>37</ele>
        <time>2021-05-23T10:06:55.982Z</time>
      </trkpt>
      <trkpt lat="47.26751" lon="-2.27162">
        <ele>37</ele>
        <time>2021-05-23T10:06:56.982Z</time>
      </trkpt>
      <trkpt lat="47.26749" lon="-2.27164">
        <ele>38</ele>
        <time>2021-05-23T10:06:57.983Z</time>
      </trkpt>
      <trkpt lat="47.26747" lon="-2.27166">
        <ele>38</ele>
        <time>2021-05-23T10:06:58.982Z</time>
      </trkpt>
      <trkpt lat="47.26745" lon="-2.27167">
        <ele>39</ele>
        <time>2021-05-23T10:06:59.983Z</time>
      </trkpt>
      <trkpt lat="47.26743" lon="-2.27169">
        <ele>39</ele>
        <time>2021-05-23T10:07:00.982Z</time>
      </trkpt>
      <trkpt lat="47.26741" lon="-2.27171">
        <ele>40</ele>
        <time>2021-05-23T10:07:01.983Z</time>
      </trkpt>
      <trkpt lat="47.26739" lon="-2.27173">
        <ele>40</ele>
        <time>2021-05-23T10:07:02.983Z</time>
      </trkpt>
      <trkpt lat="47.26736" lon="-2.27175">
        <ele>40</ele>
        <time>2021-05-23T10:07:03.982Z</time>
      </trkpt>
      <trkpt lat="47.26734" lon="-2.27178">
        <ele>40</ele>
        <time>2021-05-23T10:07:04.983Z</time>
      </trkpt>
      <trkpt lat="47.26732" lon="-2.2718">
        <ele>40</ele>
        <time>2021-05-23T10:07:05.983Z</time>
      </trkpt>
      <trkpt lat="47.26731" lon="-2.27183">
        <ele>40</ele>
        <time>2021-05-23T10:07:06.983Z</time>
      </trkpt>
      <trkpt lat="47.26729" lon="-2.27185">
        <ele>40</ele>
        <time>2021-05-23T10:07:07.983Z</time>
      </trkpt>
      <trkpt lat="47.26727" lon="-2.27187">
        <ele>40</ele>
        <time>2021-05-23T10:07:08.983Z</time>
      </trkpt>
      <trkpt lat="47.26726" lon="-2.27189">
        <ele>40</ele>
        <time>2021-05-23T10:07:09.983Z</time>
      </trkpt>
      <trkpt lat="47.26724" lon="-2.27191">
        <ele>40</ele>
        <time>2021-05-23T10:07:10.982Z</time>
      </trkpt>
      <trkpt lat="47.26722" lon="-2.27192">
        <ele>40</ele>
        <time>2021-05-23T10:07:11.983Z</time>
      </trkpt>
      <trkpt lat="47.26721" lon="-2.27193">
        <ele>40</ele>
        <time>2021-05-23T10:07:12.983Z</time>
      </trkpt>
      <trkpt lat="47.2672" lon="-2.27195">
        <ele>40</ele>
        <time>2021-05-23T10:07:13.983Z</time>
      </trkpt>
      <trkpt lat="47.26719" lon="-2.27196">
        <ele>40</ele>
        <time>2021-05-23T10:07:14.983Z</time>
      </trkpt>
      <trkpt lat="47.26718" lon="-2.27199">
        <ele>40</ele>
        <time>2021-05-23T10:07:15.983Z</time>
      </trkpt>
      <trkpt lat="47.26717" lon="-2.27201">
        <ele>39</ele>
        <time>2021-05-23T10:07:16.983Z</time>
      </trkpt>
      <trkpt lat="47.26717" lon="-2.27204">
        <ele>39</ele>
        <time>2021-05-23T10:07:17.982Z</time>
      </trkpt>
      <trkpt lat="47.26717" lon="-2.27208">
        <ele>39</ele>
        <time>2021-05-23T10:07:18.983Z</time>
      </trkpt>
      <trkpt lat="47.26717" lon="-2.27211">
        <ele>39</ele>
        <time>2021-05-23T10:07:19.983Z</time>
      </trkpt>
      <trkpt lat="47.26717" lon="-2.27215">
        <ele>38</ele>
        <time>2021-05-23T10:07:20.983Z</time>
      </trkpt>
      <trkpt lat="47.26718" lon="-2.27218">
        <ele>38</ele>
        <time>2021-05-23T10:07:21.982Z</time>
      </trkpt>
      <trkpt lat="47.26718" lon="-2.27221">
        <ele>37</ele>
        <time>2021-05-23T10:07:22.983Z</time>
      </trkpt>
      <trkpt lat="47.26718" lon="-2.27224">
        <ele>37</ele>
        <time>2021-05-23T10:07:23.982Z</time>
      </trkpt>
      <trkpt lat="47.26718" lon="-2.27228">
        <ele>36</ele>
        <time>2021-05-23T10:07:24.982Z</time>
      </trkpt>
      <trkpt lat="47.26718" lon="-2.27231">
        <ele>36</ele>
        <time>2021-05-23T10:07:25.983Z</time>
      </trkpt>
      <trkpt lat="47.26718" lon="-2.27234">
        <ele>36</ele>
        <time>2021-05-23T10:07:26.983Z</time>
      </trkpt>
      <trkpt lat="47.26718" lon="-2.27238">
        <ele>36</ele>
        <time>2021-05-23T10:07:27.983Z</time>
      </trkpt>
      <trkpt lat="47.26718" lon="-2.27242">
        <ele>36</ele>
        <time>2021-05-23T10:07:28.982Z</time>
      </trkpt>
      <trkpt lat="47.26719" lon="-2.27245">
        <ele>35</ele>
        <time>2021-05-23T10:07:29.982Z</time>
      </trkpt>
      <trkpt lat="47.2672" lon="-2.2725">
        <ele>35</ele>
        <time>2021-05-23T10:07:30.983Z</time>
      </trkpt>
      <trkpt lat="47.26721" lon="-2.27253">
        <ele>34</ele>
        <time>2021-05-23T10:07:31.983Z</time>
      </trkpt>
      <trkpt lat="47.26721" lon="-2.27257">
        <ele>34</ele>
        <time>2021-05-23T10:07:32.983Z</time>
      </trkpt>
      <trkpt lat="47.26722" lon="-2.27261">
        <ele>34</ele>
        <time>2021-05-23T10:07:33.982Z</time>
      </trkpt>
      <trkpt lat="47.26722" lon="-2.27264">
        <ele>33</ele>
        <time>2021-05-23T10:07:34.982Z</time>
      </trkpt>
      <trkpt lat="47.26723" lon="-2.27267">
        <ele>33</ele>
        <time>2021-05-23T10:07:35.983Z</time>
      </trkpt>
      <trkpt lat="47.26723" lon="-2.27271">
        <ele>34</ele>
        <time>2021-05-23T10:07:36.982Z</time>
      </trkpt>
      <trkpt lat="47.26724" lon="-2.27276">
        <ele>34</ele>
        <time>2021-05-23T10:07:37.982Z</time>
      </trkpt>
      <trkpt lat="47.26724" lon="-2.27279">
        <ele>35</ele>
        <time>2021-05-23T10:07:38.983Z</time>
      </trkpt>
      <trkpt lat="47.26725" lon="-2.27283">
        <ele>35</ele>
        <time>2021-05-23T10:07:39.982Z</time>
      </trkpt>
      <trkpt lat="47.26725" lon="-2.27286">
        <ele>35</ele>
        <time>2021-05-23T10:07:40.982Z</time>
      </trkpt>
      <trkpt lat="47.26726" lon="-2.27289">
        <ele>35</ele>
        <time>2021-05-23T10:07:41.982Z</time>
      </trkpt>
      <trkpt lat="47.26726" lon="-2.27293">
        <ele>35</ele>
        <time>2021-05-23T10:07:42.983Z</time>
      </trkpt>
      <trkpt lat="47.26727" lon="-2.27297">
        <ele>35</ele>
        <time>2021-05-23T10:07:43.982Z</time>
      </trkpt>
      <trkpt lat="47.26727" lon="-2.27301">
        <ele>34</ele>
        <time>2021-05-23T10:07:44.982Z</time>
      </trkpt>
      <trkpt lat="47.26728" lon="-2.27303">
        <ele>34</ele>
        <time>2021-05-23T10:07:45.982Z</time>
      </trkpt>
      <trkpt lat="47.26728" lon="-2.27308">
        <ele>34</ele>
        <time>2021-05-23T10:07:46.982Z</time>
      </trkpt>
      <trkpt lat="47.26729" lon="-2.27311">
        <ele>34</ele>
        <time>2021-05-23T10:07:47.982Z</time>
      </trkpt>
      <trkpt lat="47.2673" lon="-2.27315">
        <ele>34</ele>
        <time>2021-05-23T10:07:48.983Z</time>
      </trkpt>
      <trkpt lat="47.2673" lon="-2.27318">
        <ele>34</ele>
        <time>2021-05-23T10:07:49.983Z</time>
      </trkpt>
      <trkpt lat="47.26731" lon="-2.27322">
        <ele>34</ele>
        <time>2021-05-23T10:07:50.982Z</time>
      </trkpt>
      <trkpt lat="47.26732" lon="-2.27326">
        <ele>33</ele>
        <time>2021-05-23T10:07:51.982Z</time>
      </trkpt>
      <trkpt lat="47.26732" lon="-2.2733">
        <ele>33</ele>
        <time>2021-05-23T10:07:52.983Z</time>
      </trkpt>
      <trkpt lat="47.26733" lon="-2.27332">
        <ele>33</ele>
        <time>2021-05-23T10:07:53.982Z</time>
      </trkpt>
      <trkpt lat="47.26733" lon="-2.27335">
        <ele>32</ele>
        <time>2021-05-23T10:07:54.983Z</time>
      </trkpt>
      <trkpt lat="47.26733" lon="-2.27338">
        <ele>32</ele>
        <time>2021-05-23T10:07:55.983Z</time>
      </trkpt>
      <trkpt lat="47.26733" lon="-2.27341">
        <ele>32</ele>
        <time>2021-05-23T10:07:56.982Z</time>
      </trkpt>
      <trkpt lat="47.26732" lon="-2.27345">
        <ele>32</ele>
        <time>2021-05-23T10:07:57.983Z</time>
      </trkpt>
      <trkpt lat="47.26729" lon="-2.27348">
        <ele>32</ele>
        <time>2021-05-23T10:07:58.983Z</time>
      </trkpt>
      <trkpt lat="47.26727" lon="-2.2735">
        <ele>32</ele>
        <time>2021-05-23T10:07:59.983Z</time>
      </trkpt>
      <trkpt lat="47.26724" lon="-2.27352">
        <ele>32</ele>
        <time>2021-05-23T10:08:00.983Z</time>
      </trkpt>
      <trkpt lat="47.26721" lon="-2.27353">
        <ele>33</ele>
        <time>2021-05-23T10:08:01.983Z</time>
      </trkpt>
      <trkpt lat="47.26719" lon="-2.27354">
        <ele>34</ele>
        <time>2021-05-23T10:08:02.983Z</time>
      </trkpt>
      <trkpt lat="47.26717" lon="-2.27355">
        <ele>34</ele>
        <time>2021-05-23T10:08:03.983Z</time>
      </trkpt>
      <trkpt lat="47.26714" lon="-2.27357">
        <ele>35</ele>
        <time>2021-05-23T10:08:04.983Z</time>
      </trkpt>
      <trkpt lat="47.26711" lon="-2.27359">
        <ele>35</ele>
        <time>2021-05-23T10:08:05.983Z</time>
      </trkpt>
      <trkpt lat="47.26709" lon="-2.27361">
        <ele>36</ele>
        <time>2021-05-23T10:08:06.983Z</time>
      </trkpt>
      <trkpt lat="47.26707" lon="-2.27363">
        <ele>36</ele>
        <time>2021-05-23T10:08:07.983Z</time>
      </trkpt>
      <trkpt lat="47.26704" lon="-2.27364">
        <ele>37</ele>
        <time>2021-05-23T10:08:08.982Z</time>
      </trkpt>
      <trkpt lat="47.26702" lon="-2.27364">
        <ele>37</ele>
        <time>2021-05-23T10:08:09.982Z</time>
      </trkpt>
      <trkpt lat="47.26699" lon="-2.27365">
        <ele>38</ele>
        <time>2021-05-23T10:08:10.982Z</time>
      </trkpt>
      <trkpt lat="47.26696" lon="-2.27366">
        <ele>38</ele>
        <time>2021-05-23T10:08:11.983Z</time>
      </trkpt>
      <trkpt lat="47.26693" lon="-2.27367">
        <ele>38</ele>
        <time>2021-05-23T10:08:12.982Z</time>
      </trkpt>
      <trkpt lat="47.26691" lon="-2.27368">
        <ele>38</ele>
        <time>2021-05-23T10:08:13.983Z</time>
      </trkpt>
      <trkpt lat="47.26689" lon="-2.2737">
        <ele>38</ele>
        <time>2021-05-23T10:08:14.982Z</time>
      </trkpt>
      <trkpt lat="47.26686" lon="-2.27371">
        <ele>38</ele>
        <time>2021-05-23T10:08:15.983Z</time>
      </trkpt>
      <trkpt lat="47.26684" lon="-2.27373">
        <ele>38</ele>
        <time>2021-05-23T10:08:16.982Z</time>
      </trkpt>
      <trkpt lat="47.26682" lon="-2.27375">
        <ele>37</ele>
        <time>2021-05-23T10:08:17.983Z</time>
      </trkpt>
      <trkpt lat="47.2668" lon="-2.27377">
        <ele>37</ele>
        <time>2021-05-23T10:08:18.982Z</time>
      </trkpt>
      <trkpt lat="47.26678" lon="-2.27379">
        <ele>36</ele>
        <time>2021-05-23T10:08:19.983Z</time>
      </trkpt>
      <trkpt lat="47.26677" lon="-2.2738">
        <ele>35</ele>
        <time>2021-05-23T10:08:20.983Z</time>
      </trkpt>
      <trkpt lat="47.26675" lon="-2.27381">
        <ele>35</ele>
        <time>2021-05-23T10:08:21.982Z</time>
      </trkpt>
      <trkpt lat="47.26673" lon="-2.27383">
        <ele>34</ele>
        <time>2021-05-23T10:08:22.983Z</time>
      </trkpt>
      <trkpt lat="47.2667" lon="-2.27385">
        <ele>34</ele>
        <time>2021-05-23T10:08:23.983Z</time>
      </trkpt>
      <trkpt lat="47.26668" lon="-2.27388">
        <ele>34</ele>
        <time>2021-05-23T10:08:24.983Z</time>
      </trkpt>
      <trkpt lat="47.26666" lon="-2.2739">
        <ele>33</ele>
        <time>2021-05-23T10:08:25.983Z</time>
      </trkpt>
      <trkpt lat="47.26665" lon="-2.27392">
        <ele>33</ele>
        <time>2021-05-23T10:08:26.983Z</time>
      </trkpt>
      <trkpt lat="47.26663" lon="-2.27395">
        <ele>33</ele>
        <time>2021-05-23T10:08:27.983Z</time>
      </trkpt>
      <trkpt lat="47.26661" lon="-2.27397">
        <ele>32</ele>
        <time>2021-05-23T10:08:28.983Z</time>
      </trkpt>
      <trkpt lat="47.26659" lon="-2.27399">
        <ele>32</ele>
        <time>2021-05-23T10:08:29.982Z</time>
      </trkpt>
      <trkpt lat="47.26657" lon="-2.27401">
        <ele>31</ele>
        <time>2021-05-23T10:08:30.982Z</time>
      </trkpt>
      <trkpt lat="47.26655" lon="-2.27403">
        <ele>31</ele>
        <time>2021-05-23T10:08:31.983Z</time>
      </trkpt>
      <trkpt lat="47.26653" lon="-2.27405">
        <ele>31</ele>
        <time>2021-05-23T10:08:32.983Z</time>
      </trkpt>
      <trkpt lat="47.26651" lon="-2.27408">
        <ele>31</ele>
        <time>2021-05-23T10:08:33.982Z</time>
      </trkpt>
      <trkpt lat="47.26649" lon="-2.2741">
        <ele>31</ele>
        <time>2021-05-23T10:08:34.983Z</time>
      </trkpt>
      <trkpt lat="47.26647" lon="-2.27412">
        <ele>31</ele>
        <time>2021-05-23T10:08:35.983Z</time>
      </trkpt>
      <trkpt lat="47.26645" lon="-2.27414">
        <ele>31</ele>
        <time>2021-05-23T10:08:36.982Z</time>
      </trkpt>
      <trkpt lat="47.26643" lon="-2.27416">
        <ele>31</ele>
        <time>2021-05-23T10:08:37.983Z</time>
      </trkpt>
      <trkpt lat="47.2664" lon="-2.27418">
        <ele>31</ele>
        <time>2021-05-23T10:08:38.983Z</time>
      </trkpt>
      <trkpt lat="47.26639" lon="-2.27419">
        <ele>31</ele>
        <time>2021-05-23T10:08:39.983Z</time>
      </trkpt>
      <trkpt lat="47.26637" lon="-2.27421">
        <ele>31</ele>
        <time>2021-05-23T10:08:40.983Z</time>
      </trkpt>
      <trkpt lat="47.26634" lon="-2.27424">
        <ele>32</ele>
        <time>2021-05-23T10:08:41.982Z</time>
      </trkpt>
      <trkpt lat="47.26632" lon="-2.27426">
        <ele>32</ele>
        <time>2021-05-23T10:08:42.983Z</time>
      </trkpt>
      <trkpt lat="47.2663" lon="-2.27427">
        <ele>33</ele>
        <time>2021-05-23T10:08:43.983Z</time>
      </trkpt>
      <trkpt lat="47.26628" lon="-2.27429">
        <ele>33</ele>
        <time>2021-05-23T10:08:44.983Z</time>
      </trkpt>
      <trkpt lat="47.26626" lon="-2.27431">
        <ele>34</ele>
        <time>2021-05-23T10:08:45.982Z</time>
      </trkpt>
      <trkpt lat="47.26624" lon="-2.27433">
        <ele>34</ele>
        <time>2021-05-23T10:08:46.982Z</time>
      </trkpt>
      <trkpt lat="47.26621" lon="-2.27435">
        <ele>34</ele>
        <time>2021-05-23T10:08:47.982Z</time>
      </trkpt>
      <trkpt lat="47.26619" lon="-2.27437">
        <ele>35</ele>
        <time>2021-05-23T10:08:48.982Z</time>
      </trkpt>
      <trkpt lat="47.26618" lon="-2.27439">
        <ele>35</ele>
        <time>2021-05-23T10:08:49.983Z</time>
      </trkpt>
      <trkpt lat="47.26615" lon="-2.27441">
        <ele>35</ele>
        <time>2021-05-23T10:08:50.982Z</time>
      </trkpt>
      <trkpt lat="47.26613" lon="-2.27443">
        <ele>36</ele>
        <time>2021-05-23T10:08:51.983Z</time>
      </trkpt>
      <trkpt lat="47.26611" lon="-2.27445">
        <ele>36</ele>
        <time>2021-05-23T10:08:52.983Z</time>
      </trkpt>
      <trkpt lat="47.2661" lon="-2.27447">
        <ele>37</ele>
        <time>2021-05-23T10:08:53.982Z</time>
      </trkpt>
      <trkpt lat="47.26608" lon="-2.27449">
        <ele>37</ele>
        <time>2021-05-23T10:08:54.982Z</time>
      </trkpt>
      <trkpt lat="47.26606" lon="-2.27452">
        <ele>38</ele>
        <time>2021-05-23T10:08:55.982Z</time>
      </trkpt>
      <trkpt lat="47.26604" lon="-2.27454">
        <ele>37</ele>
        <time>2021-05-23T10:08:56.982Z</time>
      </trkpt>
      <trkpt lat="47.26602" lon="-2.27457">
        <ele>37</ele>
        <time>2021-05-23T10:08:57.982Z</time>
      </trkpt>
      <trkpt lat="47.26601" lon="-2.27459">
        <ele>36</ele>
        <time>2021-05-23T10:08:58.983Z</time>
      </trkpt>
      <trkpt lat="47.26599" lon="-2.27461">
        <ele>35</ele>
        <time>2021-05-23T10:08:59.982Z</time>
      </trkpt>
      <trkpt lat="47.26596" lon="-2.27464">
        <ele>34</ele>
        <time>2021-05-23T10:09:00.982Z</time>
      </trkpt>
      <trkpt lat="47.26594" lon="-2.27467">
        <ele>34</ele>
        <time>2021-05-23T10:09:01.982Z</time>
      </trkpt>
      <trkpt lat="47.26591" lon="-2.27469">
        <ele>34</ele>
        <time>2021-05-23T10:09:02.982Z</time>
      </trkpt>
      <trkpt lat="47.2659" lon="-2.27472">
        <ele>34</ele>
        <time>2021-05-23T10:09:03.982Z</time>
      </trkpt>
      <trkpt lat="47.26587" lon="-2.27474">
        <ele>34</ele>
        <time>2021-05-23T10:09:04.982Z</time>
      </trkpt>
      <trkpt lat="47.26585" lon="-2.27477">
        <ele>34</ele>
        <time>2021-05-23T10:09:05.983Z</time>
      </trkpt>
      <trkpt lat="47.26584" lon="-2.27478">
        <ele>34</ele>
        <time>2021-05-23T10:09:06.983Z</time>
      </trkpt>
      <trkpt lat="47.26582" lon="-2.2748">
        <ele>35</ele>
        <time>2021-05-23T10:09:07.982Z</time>
      </trkpt>
      <trkpt lat="47.26579" lon="-2.27482">
        <ele>35</ele>
        <time>2021-05-23T10:09:08.983Z</time>
      </trkpt>
      <trkpt lat="47.26577" lon="-2.27485">
        <ele>35</ele>
        <time>2021-05-23T10:09:09.983Z</time>
      </trkpt>
      <trkpt lat="47.26575" lon="-2.27488">
        <ele>35</ele>
        <time>2021-05-23T10:09:10.983Z</time>
      </trkpt>
      <trkpt lat="47.26574" lon="-2.27492">
        <ele>35</ele>
        <time>2021-05-23T10:09:11.983Z</time>
      </trkpt>
      <trkpt lat="47.26573" lon="-2.27494">
        <ele>35</ele>
        <time>2021-05-23T10:09:12.983Z</time>
      </trkpt>
      <trkpt lat="47.26571" lon="-2.27498">
        <ele>35</ele>
        <time>2021-05-23T10:09:13.983Z</time>
      </trkpt>
      <trkpt lat="47.2657" lon="-2.27501">
        <ele>35</ele>
        <time>2021-05-23T10:09:14.982Z</time>
      </trkpt>
      <trkpt lat="47.2657" lon="-2.27505">
        <ele>34</ele>
        <time>2021-05-23T10:09:15.982Z</time>
      </trkpt>
      <trkpt lat="47.26569" lon="-2.27509">
        <ele>34</ele>
        <time>2021-05-23T10:09:16.983Z</time>
      </trkpt>
      <trkpt lat="47.26568" lon="-2.27512">
        <ele>34</ele>
        <time>2021-05-23T10:09:17.983Z</time>
      </trkpt>
      <trkpt lat="47.26567" lon="-2.27516">
        <ele>34</ele>
        <time>2021-05-23T10:09:18.983Z</time>
      </trkpt>
      <trkpt lat="47.26565" lon="-2.2752">
        <ele>33</ele>
        <time>2021-05-23T10:09:19.983Z</time>
      </trkpt>
      <trkpt lat="47.26564" lon="-2.27523">
        <ele>33</ele>
        <time>2021-05-23T10:09:20.982Z</time>
      </trkpt>
      <trkpt lat="47.26563" lon="-2.27526">
        <ele>33</ele>
        <time>2021-05-23T10:09:21.983Z</time>
      </trkpt>
      <trkpt lat="47.26561" lon="-2.2753">
        <ele>33</ele>
        <time>2021-05-23T10:09:22.983Z</time>
      </trkpt>
      <trkpt lat="47.2656" lon="-2.27533">
        <ele>33</ele>
        <time>2021-05-23T10:09:23.983Z</time>
      </trkpt>
      <trkpt lat="47.26558" lon="-2.27535">
        <ele>32</ele>
        <time>2021-05-23T10:09:24.983Z</time>
      </trkpt>
      <trkpt lat="47.26557" lon="-2.27538">
        <ele>31</ele>
        <time>2021-05-23T10:09:25.982Z</time>
      </trkpt>
      <trkpt lat="47.26555" lon="-2.27541">
        <ele>31</ele>
        <time>2021-05-23T10:09:26.983Z</time>
      </trkpt>
      <trkpt lat="47.26553" lon="-2.27544">
        <ele>31</ele>
        <time>2021-05-23T10:09:27.982Z</time>
      </trkpt>
      <trkpt lat="47.26551" lon="-2.27547">
        <ele>31</ele>
        <time>2021-05-23T10:09:28.983Z</time>
      </trkpt>
      <trkpt lat="47.26549" lon="-2.27549">
        <ele>31</ele>
        <time>2021-05-23T10:09:29.982Z</time>
      </trkpt>
      <trkpt lat="47.26547" lon="-2.27552">
        <ele>31</ele>
        <time>2021-05-23T10:09:30.983Z</time>
      </trkpt>
      <trkpt lat="47.26545" lon="-2.27555">
        <ele>32</ele>
        <time>2021-05-23T10:09:31.982Z</time>
      </trkpt>
      <trkpt lat="47.26543" lon="-2.27557">
        <ele>31</ele>
        <time>2021-05-23T10:09:32.983Z</time>
      </trkpt>
      <trkpt lat="47.2654" lon="-2.2756">
        <ele>31</ele>
        <time>2021-05-23T10:09:33.982Z</time>
      </trkpt>
      <trkpt lat="47.26538" lon="-2.27563">
        <ele>32</ele>
        <time>2021-05-23T10:09:34.982Z</time>
      </trkpt>
      <trkpt lat="47.26537" lon="-2.27565">
        <ele>32</ele>
        <time>2021-05-23T10:09:35.982Z</time>
      </trkpt>
      <trkpt lat="47.26534" lon="-2.27568">
        <ele>32</ele>
        <time>2021-05-23T10:09:36.983Z</time>
      </trkpt>
      <trkpt lat="47.26532" lon="-2.27571">
        <ele>33</ele>
        <time>2021-05-23T10:09:37.983Z</time>
      </trkpt>
      <trkpt lat="47.2653" lon="-2.27574">
        <ele>33</ele>
        <time>2021-05-23T10:09:38.983Z</time>
      </trkpt>
      <trkpt lat="47.26528" lon="-2.27577">
        <ele>34</ele>
        <time>2021-05-23T10:09:39.982Z</time>
      </trkpt>
      <trkpt lat="47.26527" lon="-2.2758">
        <ele>34</ele>
        <time>2021-05-23T10:09:40.983Z</time>
      </trkpt>
      <trkpt lat="47.26525" lon="-2.27584">
        <ele>34</ele>
        <time>2021-05-23T10:09:41.982Z</time>
      </trkpt>
      <trkpt lat="47.26524" lon="-2.27587">
        <ele>34</ele>
        <time>2021-05-23T10:09:42.983Z</time>
      </trkpt>
      <trkpt lat="47.26522" lon="-2.2759">
        <ele>34</ele>
        <time>2021-05-23T10:09:43.983Z</time>
      </trkpt>
      <trkpt lat="47.26521" lon="-2.27593">
        <ele>34</ele>
        <time>2021-05-23T10:09:44.983Z</time>
      </trkpt>
      <trkpt lat="47.2652" lon="-2.27596">
        <ele>34</ele>
        <time>2021-05-23T10:09:45.982Z</time>
      </trkpt>
      <trkpt lat="47.26519" lon="-2.276">
        <ele>34</ele>
        <time>2021-05-23T10:09:46.982Z</time>
      </trkpt>
      <trkpt lat="47.26518" lon="-2.27603">
        <ele>34</ele>
        <time>2021-05-23T10:09:47.982Z</time>
      </trkpt>
      <trkpt lat="47.26518" lon="-2.27607">
        <ele>34</ele>
        <time>2021-05-23T10:09:48.982Z</time>
      </trkpt>
      <trkpt lat="47.26517" lon="-2.2761">
        <ele>35</ele>
        <time>2021-05-23T10:09:49.982Z</time>
      </trkpt>
      <trkpt lat="47.26516" lon="-2.27614">
        <ele>35</ele>
        <time>2021-05-23T10:09:50.982Z</time>
      </trkpt>
      <trkpt lat="47.26516" lon="-2.27618">
        <ele>35</ele>
        <time>2021-05-23T10:09:51.983Z</time>
      </trkpt>
      <trkpt lat="47.26516" lon="-2.27621">
        <ele>34</ele>
        <time>2021-05-23T10:09:52.983Z</time>
      </trkpt>
      <trkpt lat="47.26516" lon="-2.27624">
        <ele>34</ele>
        <time>2021-05-23T10:09:53.983Z</time>
      </trkpt>
      <trkpt lat="47.26516" lon="-2.27627">
        <ele>33</ele>
        <time>2021-05-23T10:09:54.983Z</time>
      </trkpt>
      <trkpt lat="47.26515" lon="-2.27631">
        <ele>33</ele>
        <time>2021-05-23T10:09:55.982Z</time>
      </trkpt>
      <trkpt lat="47.26514" lon="-2.27635">
        <ele>33</ele>
        <time>2021-05-23T10:09:56.982Z</time>
      </trkpt>
      <trkpt lat="47.26513" lon="-2.27638">
        <ele>33</ele>
        <time>2021-05-23T10:09:57.983Z</time>
      </trkpt>
      <trkpt lat="47.26512" lon="-2.27642">
        <ele>33</ele>
        <time>2021-05-23T10:09:58.982Z</time>
      </trkpt>
      <trkpt lat="47.26511" lon="-2.27646">
        <ele>34</ele>
        <time>2021-05-23T10:09:59.983Z</time>
      </trkpt>
      <trkpt lat="47.2651" lon="-2.2765">
        <ele>34</ele>
        <time>2021-05-23T10:10:00.983Z</time>
      </trkpt>
      <trkpt lat="47.2651" lon="-2.27652">
        <ele>34</ele>
        <time>2021-05-23T10:10:01.982Z</time>
      </trkpt>
      <trkpt lat="47.26509" lon="-2.27655">
        <ele>35</ele>
        <time>2021-05-23T10:10:02.982Z</time>
      </trkpt>
      <trkpt lat="47.26509" lon="-2.27656">
        <ele>36</ele>
        <time>2021-05-23T10:10:03.983Z</time>
      </trkpt>
      <trkpt lat="47.2651" lon="-2.27658">
        <ele>36</ele>
        <time>2021-05-23T10:10:04.982Z</time>
      </trkpt>
      <trkpt lat="47.2651" lon="-2.2766">
        <ele>36</ele>
        <time>2021-05-23T10:10:05.982Z</time>
      </trkpt>
      <trkpt lat="47.2651" lon="-2.27662">
        <ele>37</ele>
        <time>2021-05-23T10:10:06.982Z</time>
      </trkpt>
      <trkpt lat="47.2651" lon="-2.27664">
        <ele>37</ele>
        <time>2021-05-23T10:10:07.982Z</time>
      </trkpt>
      <trkpt lat="47.26509" lon="-2.27665">
        <ele>37</ele>
        <time>2021-05-23T10:10:08.982Z</time>
      </trkpt>
      <trkpt lat="47.26509" lon="-2.27667">
        <ele>37</ele>
        <time>2021-05-23T10:10:09.982Z</time>
      </trkpt>
      <trkpt lat="47.26508" lon="-2.27668">
        <ele>37</ele>
        <time>2021-05-23T10:10:10.983Z</time>
      </trkpt>
      <trkpt lat="47.26508" lon="-2.2767">
        <ele>37</ele>
        <time>2021-05-23T10:10:11.983Z</time>
      </trkpt>
      <trkpt lat="47.26508" lon="-2.27672">
        <ele>37</ele>
        <time>2021-05-23T10:10:12.983Z</time>
      </trkpt>
      <trkpt lat="47.26508" lon="-2.27674">
        <ele>38</ele>
        <time>2021-05-23T10:10:13.983Z</time>
      </trkpt>
      <trkpt lat="47.26507" lon="-2.27677">
        <ele>38</ele>
        <time>2021-05-23T10:10:14.983Z</time>
      </trkpt>
      <trkpt lat="47.26507" lon="-2.27679">
        <ele>37</ele>
        <time>2021-05-23T10:10:15.982Z</time>
      </trkpt>
      <trkpt lat="47.26507" lon="-2.27681">
        <ele>37</ele>
        <time>2021-05-23T10:10:16.982Z</time>
      </trkpt>
      <trkpt lat="47.26507" lon="-2.27683">
        <ele>37</ele>
        <time>2021-05-23T10:10:17.982Z</time>
      </trkpt>
      <trkpt lat="47.26507" lon="-2.27686">
        <ele>36</ele>
        <time>2021-05-23T10:10:18.982Z</time>
      </trkpt>
      <trkpt lat="47.26507" lon="-2.27689">
        <ele>36</ele>
        <time>2021-05-23T10:10:19.983Z</time>
      </trkpt>
      <trkpt lat="47.26506" lon="-2.27692">
        <ele>36</ele>
        <time>2021-05-23T10:10:20.982Z</time>
      </trkpt>
      <trkpt lat="47.26505" lon="-2.27695">
        <ele>36</ele>
        <time>2021-05-23T10:10:21.982Z</time>
      </trkpt>
      <trkpt lat="47.26504" lon="-2.27697">
        <ele>35</ele>
        <time>2021-05-23T10:10:22.983Z</time>
      </trkpt>
      <trkpt lat="47.26503" lon="-2.27699">
        <ele>35</ele>
        <time>2021-05-23T10:10:23.982Z</time>
      </trkpt>
      <trkpt lat="47.26503" lon="-2.27701">
        <ele>34</ele>
        <time>2021-05-23T10:10:24.983Z</time>
      </trkpt>
      <trkpt lat="47.26502" lon="-2.27704">
        <ele>34</ele>
        <time>2021-05-23T10:10:25.982Z</time>
      </trkpt>
      <trkpt lat="47.26501" lon="-2.27706">
        <ele>34</ele>
        <time>2021-05-23T10:10:26.982Z</time>
      </trkpt>
      <trkpt lat="47.265" lon="-2.27709">
        <ele>35</ele>
        <time>2021-05-23T10:10:27.982Z</time>
      </trkpt>
      <trkpt lat="47.265" lon="-2.27711">
        <ele>35</ele>
        <time>2021-05-23T10:10:28.982Z</time>
      </trkpt>
      <trkpt lat="47.26499" lon="-2.27713">
        <ele>35</ele>
        <time>2021-05-23T10:10:29.983Z</time>
      </trkpt>
      <trkpt lat="47.26498" lon="-2.27715">
        <ele>35</ele>
        <time>2021-05-23T10:10:30.982Z</time>
      </trkpt>
      <trkpt lat="47.26498" lon="-2.27717">
        <ele>35</ele>
        <time>2021-05-23T10:10:31.982Z</time>
      </trkpt>
      <trkpt lat="47.26497" lon="-2.27719">
        <ele>35</ele>
        <time>2021-05-23T10:10:32.983Z</time>
      </trkpt>
      <trkpt lat="47.26497" lon="-2.27721">
        <ele>35</ele>
        <time>2021-05-23T10:10:33.983Z</time>
      </trkpt>
      <trkpt lat="47.26497" lon="-2.27723">
        <ele>35</ele>
        <time>2021-05-23T10:10:34.982Z</time>
      </trkpt>
      <trkpt lat="47.26496" lon="-2.27725">
        <ele>35</ele>
        <time>2021-05-23T10:10:35.982Z</time>
      </trkpt>
      <trkpt lat="47.26496" lon="-2.27727">
        <ele>35</ele>
        <time>2021-05-23T10:10:36.982Z</time>
      </trkpt>
      <trkpt lat="47.26495" lon="-2.2773">
        <ele>35</ele>
        <time>2021-05-23T10:10:37.982Z</time>
      </trkpt>
      <trkpt lat="47.26495" lon="-2.27732">
        <ele>35</ele>
        <time>2021-05-23T10:10:38.983Z</time>
      </trkpt>
      <trkpt lat="47.26494" lon="-2.27735">
        <ele>35</ele>
        <time>2021-05-23T10:10:39.982Z</time>
      </trkpt>
      <trkpt lat="47.26495" lon="-2.27737">
        <ele>35</ele>
        <time>2021-05-23T10:10:40.982Z</time>
      </trkpt>
      <trkpt lat="47.26495" lon="-2.2774">
        <ele>35</ele>
        <time>2021-05-23T10:10:41.982Z</time>
      </trkpt>
      <trkpt lat="47.26494" lon="-2.27742">
        <ele>34</ele>
        <time>2021-05-23T10:10:42.982Z</time>
      </trkpt>
      <trkpt lat="47.26494" lon="-2.27745">
        <ele>34</ele>
        <time>2021-05-23T10:10:43.983Z</time>
      </trkpt>
      <trkpt lat="47.26493" lon="-2.27747">
        <ele>34</ele>
        <time>2021-05-23T10:10:44.982Z</time>
      </trkpt>
      <trkpt lat="47.26493" lon="-2.27749">
        <ele>34</ele>
        <time>2021-05-23T10:10:45.982Z</time>
      </trkpt>
      <trkpt lat="47.26492" lon="-2.27751">
        <ele>34</ele>
        <time>2021-05-23T10:10:46.982Z</time>
      </trkpt>
      <trkpt lat="47.26492" lon="-2.27753">
        <ele>33</ele>
        <time>2021-05-23T10:10:47.982Z</time>
      </trkpt>
      <trkpt lat="47.26492" lon="-2.27755">
        <ele>33</ele>
        <time>2021-05-23T10:10:48.982Z</time>
      </trkpt>
      <trkpt lat="47.26491" lon="-2.27758">
        <ele>33</ele>
        <time>2021-05-23T10:10:49.982Z</time>
      </trkpt>
      <trkpt lat="47.26491" lon="-2.2776">
        <ele>34</ele>
        <time>2021-05-23T10:10:50.982Z</time>
      </trkpt>
      <trkpt lat="47.26491" lon="-2.27762">
        <ele>34</ele>
        <time>2021-05-23T10:10:51.982Z</time>
      </trkpt>
      <trkpt lat="47.26491" lon="-2.27765">
        <ele>34</ele>
        <time>2021-05-23T10:10:52.982Z</time>
      </trkpt>
      <trkpt lat="47.26491" lon="-2.27768">
        <ele>34</ele>
        <time>2021-05-23T10:10:53.982Z</time>
      </trkpt>
      <trkpt lat="47.26492" lon="-2.2777">
        <ele>34</ele>
        <time>2021-05-23T10:10:54.982Z</time>
      </trkpt>
      <trkpt lat="47.26492" lon="-2.27773">
        <ele>34</ele>
        <time>2021-05-23T10:10:55.982Z</time>
      </trkpt>
      <trkpt lat="47.26493" lon="-2.27775">
        <ele>34</ele>
        <time>2021-05-23T10:10:56.982Z</time>
      </trkpt>
      <trkpt lat="47.26493" lon="-2.27777">
        <ele>34</ele>
        <time>2021-05-23T10:10:57.982Z</time>
      </trkpt>
      <trkpt lat="47.26493" lon="-2.27779">
        <ele>34</ele>
        <time>2021-05-23T10:10:58.982Z</time>
      </trkpt>
      <trkpt lat="47.26493" lon="-2.27781">
        <ele>33</ele>
        <time>2021-05-23T10:10:59.983Z</time>
      </trkpt>
      <trkpt lat="47.26493" lon="-2.27784">
        <ele>33</ele>
        <time>2021-05-23T10:11:00.982Z</time>
      </trkpt>
      <trkpt lat="47.26492" lon="-2.27788">
        <ele>34</ele>
        <time>2021-05-23T10:11:01.983Z</time>
      </trkpt>
      <trkpt lat="47.26492" lon="-2.2779">
        <ele>34</ele>
        <time>2021-05-23T10:11:02.982Z</time>
      </trkpt>
      <trkpt lat="47.26492" lon="-2.27793">
        <ele>35</ele>
        <time>2021-05-23T10:11:03.982Z</time>
      </trkpt>
      <trkpt lat="47.26492" lon="-2.27796">
        <ele>35</ele>
        <time>2021-05-23T10:11:04.983Z</time>
      </trkpt>
      <trkpt lat="47.26492" lon="-2.27799">
        <ele>35</ele>
        <time>2021-05-23T10:11:05.982Z</time>
      </trkpt>
      <trkpt lat="47.26492" lon="-2.27801">
        <ele>35</ele>
        <time>2021-05-23T10:11:06.983Z</time>
      </trkpt>
      <trkpt lat="47.26492" lon="-2.27804">
        <ele>35</ele>
        <time>2021-05-23T10:11:07.983Z</time>
      </trkpt>
      <trkpt lat="47.26493" lon="-2.27806">
        <ele>35</ele>
        <time>2021-05-23T10:11:08.983Z</time>
      </trkpt>
      <trkpt lat="47.26493" lon="-2.27808">
        <ele>35</ele>
        <time>2021-05-23T10:11:09.983Z</time>
      </trkpt>
      <trkpt lat="47.26493" lon="-2.2781">
        <ele>35</ele>
        <time>2021-05-23T10:11:10.982Z</time>
      </trkpt>
      <trkpt lat="47.26494" lon="-2.27814">
        <ele>35</ele>
        <time>2021-05-23T10:11:11.982Z</time>
      </trkpt>
      <trkpt lat="47.26494" lon="-2.27817">
        <ele>35</ele>
        <time>2021-05-23T10:11:12.983Z</time>
      </trkpt>
      <trkpt lat="47.26494" lon="-2.27819">
        <ele>35</ele>
        <time>2021-05-23T10:11:13.982Z</time>
      </trkpt>
      <trkpt lat="47.26494" lon="-2.27823">
        <ele>35</ele>
        <time>2021-05-23T10:11:14.983Z</time>
      </trkpt>
      <trkpt lat="47.26494" lon="-2.27825">
        <ele>35</ele>
        <time>2021-05-23T10:11:15.983Z</time>
      </trkpt>
      <trkpt lat="47.26494" lon="-2.27828">
        <ele>35</ele>
        <time>2021-05-23T10:11:16.983Z</time>
      </trkpt>
      <trkpt lat="47.26493" lon="-2.2783">
        <ele>35</ele>
        <time>2021-05-23T10:11:17.983Z</time>
      </trkpt>
      <trkpt lat="47.26493" lon="-2.27833">
        <ele>35</ele>
        <time>2021-05-23T10:11:18.983Z</time>
      </trkpt>
      <trkpt lat="47.26494" lon="-2.27835">
        <ele>35</ele>
        <time>2021-05-23T10:11:19.982Z</time>
      </trkpt>
      <trkpt lat="47.26494" lon="-2.27837">
        <ele>35</ele>
        <time>2021-05-23T10:11:20.983Z</time>
      </trkpt>
      <trkpt lat="47.26494" lon="-2.27839">
        <ele>35</ele>
        <time>2021-05-23T10:11:21.983Z</time>
      </trkpt>
      <trkpt lat="47.26494" lon="-2.27842">
        <ele>35</ele>
        <time>2021-05-23T10:11:22.982Z</time>
      </trkpt>
      <trkpt lat="47.26494" lon="-2.27845">
        <ele>35</ele>
        <time>2021-05-23T10:11:23.983Z</time>
      </trkpt>
      <trkpt lat="47.26494" lon="-2.27848">
        <ele>34</ele>
        <time>2021-05-23T10:11:24.983Z</time>
      </trkpt>
      <trkpt lat="47.26494" lon="-2.27851">
        <ele>34</ele>
        <time>2021-05-23T10:11:25.982Z</time>
      </trkpt>
      <trkpt lat="47.26494" lon="-2.27854">
        <ele>34</ele>
        <time>2021-05-23T10:11:26.983Z</time>
      </trkpt>
      <trkpt lat="47.26494" lon="-2.27857">
        <ele>34</ele>
        <time>2021-05-23T10:11:27.983Z</time>
      </trkpt>
      <trkpt lat="47.26494" lon="-2.27859">
        <ele>34</ele>
        <time>2021-05-23T10:11:28.983Z</time>
      </trkpt>
      <trkpt lat="47.26494" lon="-2.27862">
        <ele>34</ele>
        <time>2021-05-23T10:11:29.983Z</time>
      </trkpt>
      <trkpt lat="47.26494" lon="-2.27864">
        <ele>35</ele>
        <time>2021-05-23T10:11:30.983Z</time>
      </trkpt>
      <trkpt lat="47.26495" lon="-2.27866">
        <ele>35</ele>
        <time>2021-05-23T10:11:31.983Z</time>
      </trkpt>
      <trkpt lat="47.26495" lon="-2.27869">
        <ele>35</ele>
        <time>2021-05-23T10:11:32.982Z</time>
      </trkpt>
      <trkpt lat="47.26495" lon="-2.2787">
        <ele>35</ele>
        <time>2021-05-23T10:11:33.982Z</time>
      </trkpt>
      <trkpt lat="47.26495" lon="-2.27872">
        <ele>35</ele>
        <time>2021-05-23T10:11:34.983Z</time>
      </trkpt>
      <trkpt lat="47.26494" lon="-2.27875">
        <ele>35</ele>
        <time>2021-05-23T10:11:35.983Z</time>
      </trkpt>
      <trkpt lat="47.26494" lon="-2.27877">
        <ele>35</ele>
        <time>2021-05-23T10:11:36.983Z</time>
      </trkpt>
      <trkpt lat="47.26493" lon="-2.27878">
        <ele>35</ele>
        <time>2021-05-23T10:11:37.983Z</time>
      </trkpt>
      <trkpt lat="47.26492" lon="-2.27879">
        <ele>34</ele>
        <time>2021-05-23T10:11:38.983Z</time>
      </trkpt>
      <trkpt lat="47.2649" lon="-2.27879">
        <ele>34</ele>
        <time>2021-05-23T10:11:39.982Z</time>
      </trkpt>
      <trkpt lat="47.26487" lon="-2.2788">
        <ele>34</ele>
        <time>2021-05-23T10:11:40.983Z</time>
      </trkpt>
      <trkpt lat="47.26484" lon="-2.27881">
        <ele>35</ele>
        <time>2021-05-23T10:11:41.983Z</time>
      </trkpt>
      <trkpt lat="47.26481" lon="-2.27881">
        <ele>35</ele>
        <time>2021-05-23T10:11:42.982Z</time>
      </trkpt>
      <trkpt lat="47.26479" lon="-2.27882">
        <ele>35</ele>
        <time>2021-05-23T10:11:43.983Z</time>
      </trkpt>
      <trkpt lat="47.26477" lon="-2.27882">
        <ele>35</ele>
        <time>2021-05-23T10:11:44.983Z</time>
      </trkpt>
      <trkpt lat="47.26474" lon="-2.27883">
        <ele>35</ele>
        <time>2021-05-23T10:11:45.983Z</time>
      </trkpt>
      <trkpt lat="47.26471" lon="-2.27884">
        <ele>35</ele>
        <time>2021-05-23T10:11:46.983Z</time>
      </trkpt>
      <trkpt lat="47.26469" lon="-2.27884">
        <ele>35</ele>
        <time>2021-05-23T10:11:47.982Z</time>
      </trkpt>
      <trkpt lat="47.26466" lon="-2.27884">
        <ele>35</ele>
        <time>2021-05-23T10:11:48.983Z</time>
      </trkpt>
      <trkpt lat="47.26465" lon="-2.27884">
        <ele>36</ele>
        <time>2021-05-23T10:11:49.983Z</time>
      </trkpt>
      <trkpt lat="47.26462" lon="-2.27885">
        <ele>36</ele>
        <time>2021-05-23T10:11:50.983Z</time>
      </trkpt>
      <trkpt lat="47.26458" lon="-2.27885">
        <ele>37</ele>
        <time>2021-05-23T10:11:51.982Z</time>
      </trkpt>
      <trkpt lat="47.26455" lon="-2.27887">
        <ele>37</ele>
        <time>2021-05-23T10:11:52.983Z</time>
      </trkpt>
      <trkpt lat="47.26453" lon="-2.27887">
        <ele>38</ele>
        <time>2021-05-23T10:11:53.983Z</time>
      </trkpt>
      <trkpt lat="47.2645" lon="-2.27888">
        <ele>39</ele>
        <time>2021-05-23T10:11:54.983Z</time>
      </trkpt>
      <trkpt lat="47.26448" lon="-2.27889">
        <ele>40</ele>
        <time>2021-05-23T10:11:55.983Z</time>
      </trkpt>
      <trkpt lat="47.26445" lon="-2.2789">
        <ele>40</ele>
        <time>2021-05-23T10:11:56.983Z</time>
      </trkpt>
      <trkpt lat="47.26443" lon="-2.27891">
        <ele>40</ele>
        <time>2021-05-23T10:11:57.983Z</time>
      </trkpt>
      <trkpt lat="47.26441" lon="-2.27892">
        <ele>41</ele>
        <time>2021-05-23T10:11:58.983Z</time>
      </trkpt>
      <trkpt lat="47.26438" lon="-2.27892">
        <ele>41</ele>
        <time>2021-05-23T10:11:59.983Z</time>
      </trkpt>
      <trkpt lat="47.26435" lon="-2.27893">
        <ele>42</ele>
        <time>2021-05-23T10:12:00.983Z</time>
      </trkpt>
      <trkpt lat="47.26433" lon="-2.27893">
        <ele>42</ele>
        <time>2021-05-23T10:12:01.983Z</time>
      </trkpt>
      <trkpt lat="47.2643" lon="-2.27894">
        <ele>43</ele>
        <time>2021-05-23T10:12:02.983Z</time>
      </trkpt>
      <trkpt lat="47.26427" lon="-2.27894">
        <ele>43</ele>
        <time>2021-05-23T10:12:03.983Z</time>
      </trkpt>
      <trkpt lat="47.26425" lon="-2.27895">
        <ele>43</ele>
        <time>2021-05-23T10:12:04.983Z</time>
      </trkpt>
      <trkpt lat="47.26422" lon="-2.27895">
        <ele>44</ele>
        <time>2021-05-23T10:12:05.983Z</time>
      </trkpt>
      <trkpt lat="47.2642" lon="-2.27895">
        <ele>44</ele>
        <time>2021-05-23T10:12:06.982Z</time>
      </trkpt>
      <trkpt lat="47.26417" lon="-2.27896">
        <ele>44</ele>
        <time>2021-05-23T10:12:07.983Z</time>
      </trkpt>
      <trkpt lat="47.26414" lon="-2.27897">
        <ele>45</ele>
        <time>2021-05-23T10:12:08.983Z</time>
      </trkpt>
      <trkpt lat="47.26412" lon="-2.27898">
        <ele>45</ele>
        <time>2021-05-23T10:12:09.983Z</time>
      </trkpt>
      <trkpt lat="47.2641" lon="-2.27898">
        <ele>45</ele>
        <time>2021-05-23T10:12:10.983Z</time>
      </trkpt>
      <trkpt lat="47.26407" lon="-2.27899">
        <ele>46</ele>
        <time>2021-05-23T10:12:11.983Z</time>
      </trkpt>
      <trkpt lat="47.26405" lon="-2.279">
        <ele>46</ele>
        <time>2021-05-23T10:12:12.983Z</time>
      </trkpt>
      <trkpt lat="47.26402" lon="-2.279">
        <ele>46</ele>
        <time>2021-05-23T10:12:13.983Z</time>
      </trkpt>
      <trkpt lat="47.26399" lon="-2.27901">
        <ele>47</ele>
        <time>2021-05-23T10:12:14.983Z</time>
      </trkpt>
      <trkpt lat="47.26397" lon="-2.27902">
        <ele>47</ele>
        <time>2021-05-23T10:12:15.983Z</time>
      </trkpt>
      <trkpt lat="47.26395" lon="-2.27902">
        <ele>46</ele>
        <time>2021-05-23T10:12:16.982Z</time>
      </trkpt>
      <trkpt lat="47.26392" lon="-2.27903">
        <ele>46</ele>
        <time>2021-05-23T10:12:17.983Z</time>
      </trkpt>
      <trkpt lat="47.2639" lon="-2.27905">
        <ele>46</ele>
        <time>2021-05-23T10:12:18.983Z</time>
      </trkpt>
      <trkpt lat="47.26387" lon="-2.27905">
        <ele>46</ele>
        <time>2021-05-23T10:12:19.983Z</time>
      </trkpt>
      <trkpt lat="47.26385" lon="-2.27907">
        <ele>46</ele>
        <time>2021-05-23T10:12:20.982Z</time>
      </trkpt>
      <trkpt lat="47.26382" lon="-2.27908">
        <ele>46</ele>
        <time>2021-05-23T10:12:21.983Z</time>
      </trkpt>
      <trkpt lat="47.2638" lon="-2.27909">
        <ele>46</ele>
        <time>2021-05-23T10:12:22.983Z</time>
      </trkpt>
      <trkpt lat="47.26378" lon="-2.27911">
        <ele>46</ele>
        <time>2021-05-23T10:12:23.983Z</time>
      </trkpt>
      <trkpt lat="47.26375" lon="-2.27912">
        <ele>46</ele>
        <time>2021-05-23T10:12:24.983Z</time>
      </trkpt>
      <trkpt lat="47.26373" lon="-2.27913">
        <ele>46</ele>
        <time>2021-05-23T10:12:25.983Z</time>
      </trkpt>
      <trkpt lat="47.2637" lon="-2.27914">
        <ele>46</ele>
        <time>2021-05-23T10:12:26.982Z</time>
      </trkpt>
      <trkpt lat="47.26367" lon="-2.27915">
        <ele>45</ele>
        <time>2021-05-23T10:12:27.983Z</time>
      </trkpt>
      <trkpt lat="47.26364" lon="-2.27916">
        <ele>45</ele>
        <time>2021-05-23T10:12:28.983Z</time>
      </trkpt>
      <trkpt lat="47.26362" lon="-2.27917">
        <ele>45</ele>
        <time>2021-05-23T10:12:29.983Z</time>
      </trkpt>
      <trkpt lat="47.26359" lon="-2.27919">
        <ele>45</ele>
        <time>2021-05-23T10:12:30.983Z</time>
      </trkpt>
      <trkpt lat="47.26357" lon="-2.27921">
        <ele>45</ele>
        <time>2021-05-23T10:12:31.983Z</time>
      </trkpt>
      <trkpt lat="47.26355" lon="-2.27923">
        <ele>46</ele>
        <time>2021-05-23T10:12:32.983Z</time>
      </trkpt>
      <trkpt lat="47.26352" lon="-2.27924">
        <ele>46</ele>
        <time>2021-05-23T10:12:33.982Z</time>
      </trkpt>
      <trkpt lat="47.2635" lon="-2.27925">
        <ele>46</ele>
        <time>2021-05-23T10:12:34.983Z</time>
      </trkpt>
      <trkpt lat="47.26348" lon="-2.27926">
        <ele>46</ele>
        <time>2021-05-23T10:12:35.982Z</time>
      </trkpt>
      <trkpt lat="47.26346" lon="-2.27928">
        <ele>46</ele>
        <time>2021-05-23T10:12:36.982Z</time>
      </trkpt>
      <trkpt lat="47.26344" lon="-2.27929">
        <ele>46</ele>
        <time>2021-05-23T10:12:37.982Z</time>
      </trkpt>
      <trkpt lat="47.26342" lon="-2.27931">
        <ele>46</ele>
        <time>2021-05-23T10:12:38.982Z</time>
      </trkpt>
      <trkpt lat="47.2634" lon="-2.27933">
        <ele>45</ele>
        <time>2021-05-23T10:12:39.983Z</time>
      </trkpt>
      <trkpt lat="47.26338" lon="-2.27934">
        <ele>45</ele>
        <time>2021-05-23T10:12:40.983Z</time>
      </trkpt>
      <trkpt lat="47.26335" lon="-2.27936">
        <ele>45</ele>
        <time>2021-05-23T10:12:41.982Z</time>
      </trkpt>
      <trkpt lat="47.26333" lon="-2.27937">
        <ele>45</ele>
        <time>2021-05-23T10:12:42.983Z</time>
      </trkpt>
      <trkpt lat="47.2633" lon="-2.27938">
        <ele>45</ele>
        <time>2021-05-23T10:12:43.983Z</time>
      </trkpt>
      <trkpt lat="47.26327" lon="-2.2794">
        <ele>45</ele>
        <time>2021-05-23T10:12:44.983Z</time>
      </trkpt>
      <trkpt lat="47.26325" lon="-2.27942">
        <ele>46</ele>
        <time>2021-05-23T10:12:45.983Z</time>
      </trkpt>
      <trkpt lat="47.26322" lon="-2.27944">
        <ele>46</ele>
        <time>2021-05-23T10:12:46.982Z</time>
      </trkpt>
      <trkpt lat="47.2632" lon="-2.27945">
        <ele>45</ele>
        <time>2021-05-23T10:12:47.983Z</time>
      </trkpt>
      <trkpt lat="47.26317" lon="-2.27947">
        <ele>45</ele>
        <time>2021-05-23T10:12:48.983Z</time>
      </trkpt>
      <trkpt lat="47.26315" lon="-2.27948">
        <ele>44</ele>
        <time>2021-05-23T10:12:49.983Z</time>
      </trkpt>
      <trkpt lat="47.26313" lon="-2.2795">
        <ele>44</ele>
        <time>2021-05-23T10:12:50.983Z</time>
      </trkpt>
      <trkpt lat="47.2631" lon="-2.27951">
        <ele>44</ele>
        <time>2021-05-23T10:12:51.983Z</time>
      </trkpt>
      <trkpt lat="47.26307" lon="-2.27953">
        <ele>44</ele>
        <time>2021-05-23T10:12:52.983Z</time>
      </trkpt>
      <trkpt lat="47.26306" lon="-2.27954">
        <ele>44</ele>
        <time>2021-05-23T10:12:53.983Z</time>
      </trkpt>
      <trkpt lat="47.26303" lon="-2.27955">
        <ele>44</ele>
        <time>2021-05-23T10:12:54.983Z</time>
      </trkpt>
      <trkpt lat="47.263" lon="-2.27957">
        <ele>43</ele>
        <time>2021-05-23T10:12:55.983Z</time>
      </trkpt>
      <trkpt lat="47.26298" lon="-2.27959">
        <ele>43</ele>
        <time>2021-05-23T10:12:56.983Z</time>
      </trkpt>
      <trkpt lat="47.26296" lon="-2.27961">
        <ele>42</ele>
        <time>2021-05-23T10:12:57.982Z</time>
      </trkpt>
      <trkpt lat="47.26294" lon="-2.27962">
        <ele>42</ele>
        <time>2021-05-23T10:12:58.982Z</time>
      </trkpt>
      <trkpt lat="47.26293" lon="-2.27965">
        <ele>42</ele>
        <time>2021-05-23T10:12:59.982Z</time>
      </trkpt>
      <trkpt lat="47.26291" lon="-2.27968">
        <ele>42</ele>
        <time>2021-05-23T10:13:00.983Z</time>
      </trkpt>
      <trkpt lat="47.26291" lon="-2.27971">
        <ele>43</ele>
        <time>2021-05-23T10:13:01.983Z</time>
      </trkpt>
      <trkpt lat="47.2629" lon="-2.27974">
        <ele>43</ele>
        <time>2021-05-23T10:13:02.983Z</time>
      </trkpt>
      <trkpt lat="47.26291" lon="-2.27978">
        <ele>43</ele>
        <time>2021-05-23T10:13:03.983Z</time>
      </trkpt>
      <trkpt lat="47.26291" lon="-2.27982">
        <ele>43</ele>
        <time>2021-05-23T10:13:04.983Z</time>
      </trkpt>
      <trkpt lat="47.26291" lon="-2.27985">
        <ele>43</ele>
        <time>2021-05-23T10:13:05.983Z</time>
      </trkpt>
      <trkpt lat="47.26292" lon="-2.27989">
        <ele>43</ele>
        <time>2021-05-23T10:13:06.982Z</time>
      </trkpt>
      <trkpt lat="47.26293" lon="-2.27993">
        <ele>42</ele>
        <time>2021-05-23T10:13:07.983Z</time>
      </trkpt>
      <trkpt lat="47.26294" lon="-2.27997">
        <ele>42</ele>
        <time>2021-05-23T10:13:08.983Z</time>
      </trkpt>
      <trkpt lat="47.26295" lon="-2.28">
        <ele>41</ele>
        <time>2021-05-23T10:13:09.982Z</time>
      </trkpt>
      <trkpt lat="47.26296" lon="-2.28003">
        <ele>41</ele>
        <time>2021-05-23T10:13:10.982Z</time>
      </trkpt>
      <trkpt lat="47.26298" lon="-2.28006">
        <ele>41</ele>
        <time>2021-05-23T10:13:11.982Z</time>
      </trkpt>
      <trkpt lat="47.26299" lon="-2.28009">
        <ele>41</ele>
        <time>2021-05-23T10:13:12.983Z</time>
      </trkpt>
      <trkpt lat="47.26301" lon="-2.28012">
        <ele>41</ele>
        <time>2021-05-23T10:13:13.983Z</time>
      </trkpt>
      <trkpt lat="47.26302" lon="-2.28014">
        <ele>40</ele>
        <time>2021-05-23T10:13:14.982Z</time>
      </trkpt>
      <trkpt lat="47.26304" lon="-2.28017">
        <ele>41</ele>
        <time>2021-05-23T10:13:15.983Z</time>
      </trkpt>
      <trkpt lat="47.26305" lon="-2.2802">
        <ele>41</ele>
        <time>2021-05-23T10:13:16.983Z</time>
      </trkpt>
      <trkpt lat="47.26306" lon="-2.28022">
        <ele>41</ele>
        <time>2021-05-23T10:13:17.983Z</time>
      </trkpt>
      <trkpt lat="47.26307" lon="-2.28024">
        <ele>41</ele>
        <time>2021-05-23T10:13:18.982Z</time>
      </trkpt>
      <trkpt lat="47.26308" lon="-2.28026">
        <ele>40</ele>
        <time>2021-05-23T10:13:19.983Z</time>
      </trkpt>
      <trkpt lat="47.26309" lon="-2.28028">
        <ele>40</ele>
        <time>2021-05-23T10:13:20.983Z</time>
      </trkpt>
      <trkpt lat="47.26309" lon="-2.28031">
        <ele>40</ele>
        <time>2021-05-23T10:13:21.983Z</time>
      </trkpt>
      <trkpt lat="47.2631" lon="-2.28033">
        <ele>40</ele>
        <time>2021-05-23T10:13:22.983Z</time>
      </trkpt>
      <trkpt lat="47.26311" lon="-2.28036">
        <ele>40</ele>
        <time>2021-05-23T10:13:23.983Z</time>
      </trkpt>
      <trkpt lat="47.26312" lon="-2.28038">
        <ele>40</ele>
        <time>2021-05-23T10:13:24.983Z</time>
      </trkpt>
      <trkpt lat="47.26312" lon="-2.2804">
        <ele>40</ele>
        <time>2021-05-23T10:13:25.983Z</time>
      </trkpt>
      <trkpt lat="47.26313" lon="-2.28043">
        <ele>39</ele>
        <time>2021-05-23T10:13:26.983Z</time>
      </trkpt>
      <trkpt lat="47.26314" lon="-2.28045">
        <ele>39</ele>
        <time>2021-05-23T10:13:27.983Z</time>
      </trkpt>
      <trkpt lat="47.26314" lon="-2.28048">
        <ele>39</ele>
        <time>2021-05-23T10:13:28.983Z</time>
      </trkpt>
      <trkpt lat="47.26315" lon="-2.2805">
        <ele>39</ele>
        <time>2021-05-23T10:13:29.983Z</time>
      </trkpt>
      <trkpt lat="47.26316" lon="-2.28052">
        <ele>39</ele>
        <time>2021-05-23T10:13:30.982Z</time>
      </trkpt>
      <trkpt lat="47.26317" lon="-2.28055">
        <ele>38</ele>
        <time>2021-05-23T10:13:31.983Z</time>
      </trkpt>
      <trkpt lat="47.26317" lon="-2.28057">
        <ele>38</ele>
        <time>2021-05-23T10:13:32.982Z</time>
      </trkpt>
      <trkpt lat="47.26318" lon="-2.28059">
        <ele>38</ele>
        <time>2021-05-23T10:13:33.983Z</time>
      </trkpt>
      <trkpt lat="47.26319" lon="-2.2806">
        <ele>37</ele>
        <time>2021-05-23T10:13:34.983Z</time>
      </trkpt>
      <trkpt lat="47.2632" lon="-2.28062">
        <ele>37</ele>
        <time>2021-05-23T10:13:35.983Z</time>
      </trkpt>
      <trkpt lat="47.26321" lon="-2.28064">
        <ele>36</ele>
        <time>2021-05-23T10:13:36.982Z</time>
      </trkpt>
      <trkpt lat="47.26321" lon="-2.28066">
        <ele>36</ele>
        <time>2021-05-23T10:13:37.983Z</time>
      </trkpt>
      <trkpt lat="47.26322" lon="-2.28069">
        <ele>36</ele>
        <time>2021-05-23T10:13:38.982Z</time>
      </trkpt>
      <trkpt lat="47.26322" lon="-2.28071">
        <ele>36</ele>
        <time>2021-05-23T10:13:39.982Z</time>
      </trkpt>
      <trkpt lat="47.26323" lon="-2.28074">
        <ele>36</ele>
        <time>2021-05-23T10:13:40.983Z</time>
      </trkpt>
      <trkpt lat="47.26323" lon="-2.28076">
        <ele>36</ele>
        <time>2021-05-23T10:13:41.983Z</time>
      </trkpt>
      <trkpt lat="47.26324" lon="-2.28078">
        <ele>37</ele>
        <time>2021-05-23T10:13:42.983Z</time>
      </trkpt>
      <trkpt lat="47.26324" lon="-2.2808">
        <ele>37</ele>
        <time>2021-05-23T10:13:43.982Z</time>
      </trkpt>
      <trkpt lat="47.26324" lon="-2.28082">
        <ele>37</ele>
        <time>2021-05-23T10:13:44.983Z</time>
      </trkpt>
      <trkpt lat="47.26325" lon="-2.28084">
        <ele>37</ele>
        <time>2021-05-23T10:13:45.983Z</time>
      </trkpt>
      <trkpt lat="47.26326" lon="-2.28086">
        <ele>37</ele>
        <time>2021-05-23T10:13:46.983Z</time>
      </trkpt>
      <trkpt lat="47.26326" lon="-2.28088">
        <ele>37</ele>
        <time>2021-05-23T10:13:47.983Z</time>
      </trkpt>
      <trkpt lat="47.26327" lon="-2.2809">
        <ele>37</ele>
        <time>2021-05-23T10:13:48.982Z</time>
      </trkpt>
      <trkpt lat="47.26327" lon="-2.28092">
        <ele>37</ele>
        <time>2021-05-23T10:13:49.983Z</time>
      </trkpt>
      <trkpt lat="47.26328" lon="-2.28094">
        <ele>37</ele>
        <time>2021-05-23T10:13:50.983Z</time>
      </trkpt>
      <trkpt lat="47.26328" lon="-2.28096">
        <ele>38</ele>
        <time>2021-05-23T10:13:51.983Z</time>
      </trkpt>
      <trkpt lat="47.26329" lon="-2.28099">
        <ele>38</ele>
        <time>2021-05-23T10:13:52.982Z</time>
      </trkpt>
      <trkpt lat="47.26329" lon="-2.28101">
        <ele>38</ele>
        <time>2021-05-23T10:13:53.983Z</time>
      </trkpt>
      <trkpt lat="47.2633" lon="-2.28103">
        <ele>38</ele>
        <time>2021-05-23T10:13:54.983Z</time>
      </trkpt>
      <trkpt lat="47.2633" lon="-2.28105">
        <ele>38</ele>
        <time>2021-05-23T10:13:55.983Z</time>
      </trkpt>
      <trkpt lat="47.2633" lon="-2.28108">
        <ele>38</ele>
        <time>2021-05-23T10:13:56.982Z</time>
      </trkpt>
      <trkpt lat="47.26331" lon="-2.28109">
        <ele>38</ele>
        <time>2021-05-23T10:13:57.983Z</time>
      </trkpt>
      <trkpt lat="47.26331" lon="-2.28112">
        <ele>38</ele>
        <time>2021-05-23T10:13:58.983Z</time>
      </trkpt>
      <trkpt lat="47.26332" lon="-2.28114">
        <ele>38</ele>
        <time>2021-05-23T10:13:59.983Z</time>
      </trkpt>
      <trkpt lat="47.26332" lon="-2.28116">
        <ele>38</ele>
        <time>2021-05-23T10:14:00.983Z</time>
      </trkpt>
      <trkpt lat="47.26332" lon="-2.28118">
        <ele>38</ele>
        <time>2021-05-23T10:14:01.982Z</time>
      </trkpt>
      <trkpt lat="47.26332" lon="-2.28121">
        <ele>38</ele>
        <time>2021-05-23T10:14:02.983Z</time>
      </trkpt>
      <trkpt lat="47.26333" lon="-2.28124">
        <ele>38</ele>
        <time>2021-05-23T10:14:03.983Z</time>
      </trkpt>
      <trkpt lat="47.26333" lon="-2.28126">
        <ele>38</ele>
        <time>2021-05-23T10:14:04.983Z</time>
      </trkpt>
      <trkpt lat="47.26334" lon="-2.28128">
        <ele>38</ele>
        <time>2021-05-23T10:14:05.982Z</time>
      </trkpt>
      <trkpt lat="47.26335" lon="-2.28131">
        <ele>38</ele>
        <time>2021-05-23T10:14:06.983Z</time>
      </trkpt>
      <trkpt lat="47.26335" lon="-2.28133">
        <ele>39</ele>
        <time>2021-05-23T10:14:07.982Z</time>
      </trkpt>
      <trkpt lat="47.26335" lon="-2.28135">
        <ele>39</ele>
        <time>2021-05-23T10:14:08.983Z</time>
      </trkpt>
      <trkpt lat="47.26335" lon="-2.28138">
        <ele>39</ele>
        <time>2021-05-23T10:14:09.982Z</time>
      </trkpt>
      <trkpt lat="47.26336" lon="-2.2814">
        <ele>39</ele>
        <time>2021-05-23T10:14:10.982Z</time>
      </trkpt>
      <trkpt lat="47.26336" lon="-2.28143">
        <ele>39</ele>
        <time>2021-05-23T10:14:11.982Z</time>
      </trkpt>
      <trkpt lat="47.26336" lon="-2.28144">
        <ele>40</ele>
        <time>2021-05-23T10:14:12.983Z</time>
      </trkpt>
      <trkpt lat="47.26337" lon="-2.28146">
        <ele>40</ele>
        <time>2021-05-23T10:14:13.982Z</time>
      </trkpt>
      <trkpt lat="47.26337" lon="-2.28149">
        <ele>40</ele>
        <time>2021-05-23T10:14:14.983Z</time>
      </trkpt>
      <trkpt lat="47.26337" lon="-2.28151">
        <ele>40</ele>
        <time>2021-05-23T10:14:15.982Z</time>
      </trkpt>
      <trkpt lat="47.26338" lon="-2.28153">
        <ele>41</ele>
        <time>2021-05-23T10:14:16.983Z</time>
      </trkpt>
      <trkpt lat="47.26338" lon="-2.28156">
        <ele>41</ele>
        <time>2021-05-23T10:14:17.983Z</time>
      </trkpt>
      <trkpt lat="47.26338" lon="-2.28157">
        <ele>42</ele>
        <time>2021-05-23T10:14:18.983Z</time>
      </trkpt>
      <trkpt lat="47.26338" lon="-2.2816">
        <ele>42</ele>
        <time>2021-05-23T10:14:19.983Z</time>
      </trkpt>
      <trkpt lat="47.26339" lon="-2.28162">
        <ele>42</ele>
        <time>2021-05-23T10:14:20.983Z</time>
      </trkpt>
      <trkpt lat="47.26339" lon="-2.28164">
        <ele>42</ele>
        <time>2021-05-23T10:14:21.982Z</time>
      </trkpt>
      <trkpt lat="47.26339" lon="-2.28167">
        <ele>42</ele>
        <time>2021-05-23T10:14:22.982Z</time>
      </trkpt>
      <trkpt lat="47.2634" lon="-2.2817">
        <ele>42</ele>
        <time>2021-05-23T10:14:23.983Z</time>
      </trkpt>
      <trkpt lat="47.2634" lon="-2.28172">
        <ele>42</ele>
        <time>2021-05-23T10:14:24.982Z</time>
      </trkpt>
      <trkpt lat="47.26341" lon="-2.28174">
        <ele>42</ele>
        <time>2021-05-23T10:14:25.983Z</time>
      </trkpt>
      <trkpt lat="47.26341" lon="-2.28176">
        <ele>42</ele>
        <time>2021-05-23T10:14:26.983Z</time>
      </trkpt>
      <trkpt lat="47.26342" lon="-2.28178">
        <ele>42</ele>
        <time>2021-05-23T10:14:27.983Z</time>
      </trkpt>
      <trkpt lat="47.26343" lon="-2.2818">
        <ele>42</ele>
        <time>2021-05-23T10:14:28.983Z</time>
      </trkpt>
      <trkpt lat="47.26343" lon="-2.28182">
        <ele>42</ele>
        <time>2021-05-23T10:14:29.982Z</time>
      </trkpt>
      <trkpt lat="47.26344" lon="-2.28183">
        <ele>42</ele>
        <time>2021-05-23T10:14:30.982Z</time>
      </trkpt>
      <trkpt lat="47.26344" lon="-2.28185">
        <ele>42</ele>
        <time>2021-05-23T10:14:31.983Z</time>
      </trkpt>
      <trkpt lat="47.26345" lon="-2.28187">
        <ele>43</ele>
        <time>2021-05-23T10:14:32.982Z</time>
      </trkpt>
      <trkpt lat="47.26345" lon="-2.28189">
        <ele>43</ele>
        <time>2021-05-23T10:14:33.983Z</time>
      </trkpt>
      <trkpt lat="47.26346" lon="-2.28191">
        <ele>43</ele>
        <time>2021-05-23T10:14:34.982Z</time>
      </trkpt>
      <trkpt lat="47.26346" lon="-2.28193">
        <ele>43</ele>
        <time>2021-05-23T10:14:35.983Z</time>
      </trkpt>
      <trkpt lat="47.26347" lon="-2.28195">
        <ele>43</ele>
        <time>2021-05-23T10:14:36.982Z</time>
      </trkpt>
      <trkpt lat="47.26348" lon="-2.28198">
        <ele>43</ele>
        <time>2021-05-23T10:14:37.983Z</time>
      </trkpt>
      <trkpt lat="47.26349" lon="-2.28201">
        <ele>43</ele>
        <time>2021-05-23T10:14:38.982Z</time>
      </trkpt>
      <trkpt lat="47.2635" lon="-2.28203">
        <ele>43</ele>
        <time>2021-05-23T10:14:39.983Z</time>
      </trkpt>
      <trkpt lat="47.2635" lon="-2.28206">
        <ele>43</ele>
        <time>2021-05-23T10:14:40.982Z</time>
      </trkpt>
      <trkpt lat="47.2635" lon="-2.28208">
        <ele>43</ele>
        <time>2021-05-23T10:14:41.983Z</time>
      </trkpt>
      <trkpt lat="47.2635" lon="-2.2821">
        <ele>43</ele>
        <time>2021-05-23T10:14:42.983Z</time>
      </trkpt>
      <trkpt lat="47.2635" lon="-2.28213">
        <ele>43</ele>
        <time>2021-05-23T10:14:43.983Z</time>
      </trkpt>
      <trkpt lat="47.2635" lon="-2.28215">
        <ele>43</ele>
        <time>2021-05-23T10:14:44.983Z</time>
      </trkpt>
      <trkpt lat="47.26351" lon="-2.28218">
        <ele>42</ele>
        <time>2021-05-23T10:14:45.983Z</time>
      </trkpt>
      <trkpt lat="47.26351" lon="-2.2822">
        <ele>42</ele>
        <time>2021-05-23T10:14:46.983Z</time>
      </trkpt>
      <trkpt lat="47.26351" lon="-2.28221">
        <ele>43</ele>
        <time>2021-05-23T10:14:47.983Z</time>
      </trkpt>
      <trkpt lat="47.26351" lon="-2.28224">
        <ele>43</ele>
        <time>2021-05-23T10:14:48.983Z</time>
      </trkpt>
      <trkpt lat="47.26352" lon="-2.28226">
        <ele>43</ele>
        <time>2021-05-23T10:14:49.983Z</time>
      </trkpt>
      <trkpt lat="47.26353" lon="-2.28228">
        <ele>43</ele>
        <time>2021-05-23T10:14:50.982Z</time>
      </trkpt>
      <trkpt lat="47.26353" lon="-2.2823">
        <ele>43</ele>
        <time>2021-05-23T10:14:51.983Z</time>
      </trkpt>
      <trkpt lat="47.26354" lon="-2.28232">
        <ele>43</ele>
        <time>2021-05-23T10:14:52.983Z</time>
      </trkpt>
      <trkpt lat="47.26354" lon="-2.28235">
        <ele>43</ele>
        <time>2021-05-23T10:14:53.982Z</time>
      </trkpt>
      <trkpt lat="47.26355" lon="-2.28237">
        <ele>42</ele>
        <time>2021-05-23T10:14:54.983Z</time>
      </trkpt>
      <trkpt lat="47.26355" lon="-2.28239">
        <ele>42</ele>
        <time>2021-05-23T10:14:55.983Z</time>
      </trkpt>
      <trkpt lat="47.26356" lon="-2.28241">
        <ele>41</ele>
        <time>2021-05-23T10:14:56.982Z</time>
      </trkpt>
      <trkpt lat="47.26357" lon="-2.28244">
        <ele>41</ele>
        <time>2021-05-23T10:14:57.983Z</time>
      </trkpt>
      <trkpt lat="47.26357" lon="-2.28247">
        <ele>40</ele>
        <time>2021-05-23T10:14:58.983Z</time>
      </trkpt>
      <trkpt lat="47.26358" lon="-2.28251">
        <ele>40</ele>
        <time>2021-05-23T10:14:59.982Z</time>
      </trkpt>
      <trkpt lat="47.26359" lon="-2.28254">
        <ele>40</ele>
        <time>2021-05-23T10:15:00.983Z</time>
      </trkpt>
      <trkpt lat="47.26359" lon="-2.28257">
        <ele>40</ele>
        <time>2021-05-23T10:15:01.983Z</time>
      </trkpt>
      <trkpt lat="47.2636" lon="-2.28261">
        <ele>40</ele>
        <time>2021-05-23T10:15:02.983Z</time>
      </trkpt>
      <trkpt lat="47.26361" lon="-2.28264">
        <ele>40</ele>
        <time>2021-05-23T10:15:03.983Z</time>
      </trkpt>
      <trkpt lat="47.26362" lon="-2.28268">
        <ele>40</ele>
        <time>2021-05-23T10:15:04.983Z</time>
      </trkpt>
      <trkpt lat="47.26363" lon="-2.2827">
        <ele>40</ele>
        <time>2021-05-23T10:15:05.982Z</time>
      </trkpt>
      <trkpt lat="47.26364" lon="-2.28273">
        <ele>40</ele>
        <time>2021-05-23T10:15:06.982Z</time>
      </trkpt>
      <trkpt lat="47.26365" lon="-2.28278">
        <ele>40</ele>
        <time>2021-05-23T10:15:07.983Z</time>
      </trkpt>
      <trkpt lat="47.26366" lon="-2.28281">
        <ele>41</ele>
        <time>2021-05-23T10:15:08.983Z</time>
      </trkpt>
      <trkpt lat="47.26367" lon="-2.28285">
        <ele>42</ele>
        <time>2021-05-23T10:15:09.983Z</time>
      </trkpt>
      <trkpt lat="47.26368" lon="-2.28288">
        <ele>42</ele>
        <time>2021-05-23T10:15:10.983Z</time>
      </trkpt>
      <trkpt lat="47.26369" lon="-2.28291">
        <ele>43</ele>
        <time>2021-05-23T10:15:11.983Z</time>
      </trkpt>
      <trkpt lat="47.2637" lon="-2.28295">
        <ele>43</ele>
        <time>2021-05-23T10:15:12.983Z</time>
      </trkpt>
      <trkpt lat="47.26371" lon="-2.28299">
        <ele>43</ele>
        <time>2021-05-23T10:15:13.982Z</time>
      </trkpt>
      <trkpt lat="47.26372" lon="-2.28302">
        <ele>43</ele>
        <time>2021-05-23T10:15:14.983Z</time>
      </trkpt>
      <trkpt lat="47.26373" lon="-2.28305">
        <ele>43</ele>
        <time>2021-05-23T10:15:15.983Z</time>
      </trkpt>
      <trkpt lat="47.26374" lon="-2.28309">
        <ele>43</ele>
        <time>2021-05-23T10:15:16.982Z</time>
      </trkpt>
      <trkpt lat="47.26376" lon="-2.28312">
        <ele>44</ele>
        <time>2021-05-23T10:15:17.983Z</time>
      </trkpt>
      <trkpt lat="47.26377" lon="-2.28315">
        <ele>44</ele>
        <time>2021-05-23T10:15:18.983Z</time>
      </trkpt>
      <trkpt lat="47.26378" lon="-2.28319">
        <ele>44</ele>
        <time>2021-05-23T10:15:19.983Z</time>
      </trkpt>
      <trkpt lat="47.2638" lon="-2.28322">
        <ele>44</ele>
        <time>2021-05-23T10:15:20.983Z</time>
      </trkpt>
      <trkpt lat="47.26381" lon="-2.28326">
        <ele>44</ele>
        <time>2021-05-23T10:15:21.983Z</time>
      </trkpt>
      <trkpt lat="47.26382" lon="-2.28329">
        <ele>44</ele>
        <time>2021-05-23T10:15:22.983Z</time>
      </trkpt>
      <trkpt lat="47.26383" lon="-2.28332">
        <ele>44</ele>
        <time>2021-05-23T10:15:23.982Z</time>
      </trkpt>
      <trkpt lat="47.26385" lon="-2.28336">
        <ele>44</ele>
        <time>2021-05-23T10:15:24.982Z</time>
      </trkpt>
      <trkpt lat="47.26386" lon="-2.28339">
        <ele>44</ele>
        <time>2021-05-23T10:15:25.983Z</time>
      </trkpt>
      <trkpt lat="47.26388" lon="-2.28343">
        <ele>45</ele>
        <time>2021-05-23T10:15:26.983Z</time>
      </trkpt>
      <trkpt lat="47.26389" lon="-2.28346">
        <ele>44</ele>
        <time>2021-05-23T10:15:27.983Z</time>
      </trkpt>
      <trkpt lat="47.2639" lon="-2.28349">
        <ele>44</ele>
        <time>2021-05-23T10:15:28.983Z</time>
      </trkpt>
      <trkpt lat="47.26392" lon="-2.28353">
        <ele>44</ele>
        <time>2021-05-23T10:15:29.983Z</time>
      </trkpt>
      <trkpt lat="47.26393" lon="-2.28356">
        <ele>44</ele>
        <time>2021-05-23T10:15:30.983Z</time>
      </trkpt>
      <trkpt lat="47.26394" lon="-2.28359">
        <ele>44</ele>
        <time>2021-05-23T10:15:31.983Z</time>
      </trkpt>
      <trkpt lat="47.26396" lon="-2.28362">
        <ele>43</ele>
        <time>2021-05-23T10:15:32.983Z</time>
      </trkpt>
      <trkpt lat="47.26397" lon="-2.28365">
        <ele>43</ele>
        <time>2021-05-23T10:15:33.982Z</time>
      </trkpt>
      <trkpt lat="47.26399" lon="-2.28368">
        <ele>43</ele>
        <time>2021-05-23T10:15:34.983Z</time>
      </trkpt>
      <trkpt lat="47.264" lon="-2.28371">
        <ele>43</ele>
        <time>2021-05-23T10:15:35.983Z</time>
      </trkpt>
      <trkpt lat="47.26402" lon="-2.28375">
        <ele>43</ele>
        <time>2021-05-23T10:15:36.983Z</time>
      </trkpt>
      <trkpt lat="47.26403" lon="-2.28378">
        <ele>43</ele>
        <time>2021-05-23T10:15:37.983Z</time>
      </trkpt>
      <trkpt lat="47.26405" lon="-2.28381">
        <ele>43</ele>
        <time>2021-05-23T10:15:38.983Z</time>
      </trkpt>
      <trkpt lat="47.26406" lon="-2.28385">
        <ele>43</ele>
        <time>2021-05-23T10:15:39.983Z</time>
      </trkpt>
      <trkpt lat="47.26407" lon="-2.28388">
        <ele>43</ele>
        <time>2021-05-23T10:15:40.982Z</time>
      </trkpt>
      <trkpt lat="47.26409" lon="-2.28391">
        <ele>44</ele>
        <time>2021-05-23T10:15:41.982Z</time>
      </trkpt>
      <trkpt lat="47.26411" lon="-2.28394">
        <ele>44</ele>
        <time>2021-05-23T10:15:42.983Z</time>
      </trkpt>
      <trkpt lat="47.26412" lon="-2.28397">
        <ele>44</ele>
        <time>2021-05-23T10:15:43.983Z</time>
      </trkpt>
      <trkpt lat="47.26414" lon="-2.284">
        <ele>44</ele>
        <time>2021-05-23T10:15:44.983Z</time>
      </trkpt>
      <trkpt lat="47.26415" lon="-2.28403">
        <ele>44</ele>
        <time>2021-05-23T10:15:45.983Z</time>
      </trkpt>
      <trkpt lat="47.26417" lon="-2.28406">
        <ele>44</ele>
        <time>2021-05-23T10:15:46.983Z</time>
      </trkpt>
      <trkpt lat="47.26418" lon="-2.28409">
        <ele>43</ele>
        <time>2021-05-23T10:15:47.983Z</time>
      </trkpt>
      <trkpt lat="47.2642" lon="-2.28412">
        <ele>43</ele>
        <time>2021-05-23T10:15:48.983Z</time>
      </trkpt>
      <trkpt lat="47.26421" lon="-2.28416">
        <ele>42</ele>
        <time>2021-05-23T10:15:49.982Z</time>
      </trkpt>
      <trkpt lat="47.26423" lon="-2.28419">
        <ele>42</ele>
        <time>2021-05-23T10:15:50.982Z</time>
      </trkpt>
      <trkpt lat="47.26424" lon="-2.28422">
        <ele>43</ele>
        <time>2021-05-23T10:15:51.982Z</time>
      </trkpt>
      <trkpt lat="47.26425" lon="-2.28426">
        <ele>43</ele>
        <time>2021-05-23T10:15:52.982Z</time>
      </trkpt>
      <trkpt lat="47.26427" lon="-2.28429">
        <ele>42</ele>
        <time>2021-05-23T10:15:53.982Z</time>
      </trkpt>
      <trkpt lat="47.26429" lon="-2.28432">
        <ele>42</ele>
        <time>2021-05-23T10:15:54.983Z</time>
      </trkpt>
      <trkpt lat="47.2643" lon="-2.28435">
        <ele>42</ele>
        <time>2021-05-23T10:15:55.983Z</time>
      </trkpt>
      <trkpt lat="47.26432" lon="-2.28438">
        <ele>41</ele>
        <time>2021-05-23T10:15:56.983Z</time>
      </trkpt>
      <trkpt lat="47.26433" lon="-2.28441">
        <ele>41</ele>
        <time>2021-05-23T10:15:57.982Z</time>
      </trkpt>
      <trkpt lat="47.26434" lon="-2.28444">
        <ele>41</ele>
        <time>2021-05-23T10:15:58.983Z</time>
      </trkpt>
      <trkpt lat="47.26436" lon="-2.28447">
        <ele>41</ele>
        <time>2021-05-23T10:15:59.983Z</time>
      </trkpt>
      <trkpt lat="47.26437" lon="-2.28451">
        <ele>42</ele>
        <time>2021-05-23T10:16:00.983Z</time>
      </trkpt>
      <trkpt lat="47.26439" lon="-2.28454">
        <ele>42</ele>
        <time>2021-05-23T10:16:01.983Z</time>
      </trkpt>
      <trkpt lat="47.2644" lon="-2.28457">
        <ele>43</ele>
        <time>2021-05-23T10:16:02.983Z</time>
      </trkpt>
      <trkpt lat="47.26442" lon="-2.2846">
        <ele>43</ele>
        <time>2021-05-23T10:16:03.983Z</time>
      </trkpt>
      <trkpt lat="47.26443" lon="-2.28463">
        <ele>42</ele>
        <time>2021-05-23T10:16:04.982Z</time>
      </trkpt>
      <trkpt lat="47.26445" lon="-2.28466">
        <ele>42</ele>
        <time>2021-05-23T10:16:05.983Z</time>
      </trkpt>
      <trkpt lat="47.26446" lon="-2.2847">
        <ele>42</ele>
        <time>2021-05-23T10:16:06.982Z</time>
      </trkpt>
      <trkpt lat="47.26448" lon="-2.28473">
        <ele>42</ele>
        <time>2021-05-23T10:16:07.982Z</time>
      </trkpt>
      <trkpt lat="47.26449" lon="-2.28476">
        <ele>42</ele>
        <time>2021-05-23T10:16:08.983Z</time>
      </trkpt>
      <trkpt lat="47.2645" lon="-2.2848">
        <ele>42</ele>
        <time>2021-05-23T10:16:09.982Z</time>
      </trkpt>
      <trkpt lat="47.26451" lon="-2.28483">
        <ele>42</ele>
        <time>2021-05-23T10:16:10.982Z</time>
      </trkpt>
      <trkpt lat="47.26453" lon="-2.28486">
        <ele>42</ele>
        <time>2021-05-23T10:16:11.982Z</time>
      </trkpt>
      <trkpt lat="47.26455" lon="-2.28489">
        <ele>43</ele>
        <time>2021-05-23T10:16:12.982Z</time>
      </trkpt>
      <trkpt lat="47.26456" lon="-2.28492">
        <ele>43</ele>
        <time>2021-05-23T10:16:13.982Z</time>
      </trkpt>
      <trkpt lat="47.26458" lon="-2.28495">
        <ele>43</ele>
        <time>2021-05-23T10:16:14.982Z</time>
      </trkpt>
      <trkpt lat="47.2646" lon="-2.28498">
        <ele>43</ele>
        <time>2021-05-23T10:16:15.983Z</time>
      </trkpt>
      <trkpt lat="47.26462" lon="-2.28502">
        <ele>42</ele>
        <time>2021-05-23T10:16:16.982Z</time>
      </trkpt>
      <trkpt lat="47.26463" lon="-2.28505">
        <ele>42</ele>
        <time>2021-05-23T10:16:17.982Z</time>
      </trkpt>
      <trkpt lat="47.26465" lon="-2.28508">
        <ele>42</ele>
        <time>2021-05-23T10:16:18.983Z</time>
      </trkpt>
      <trkpt lat="47.26466" lon="-2.28511">
        <ele>42</ele>
        <time>2021-05-23T10:16:19.982Z</time>
      </trkpt>
      <trkpt lat="47.26468" lon="-2.28515">
        <ele>42</ele>
        <time>2021-05-23T10:16:20.982Z</time>
      </trkpt>
      <trkpt lat="47.26469" lon="-2.28518">
        <ele>42</ele>
        <time>2021-05-23T10:16:21.982Z</time>
      </trkpt>
      <trkpt lat="47.26471" lon="-2.28521">
        <ele>41</ele>
        <time>2021-05-23T10:16:22.983Z</time>
      </trkpt>
      <trkpt lat="47.26473" lon="-2.28525">
        <ele>41</ele>
        <time>2021-05-23T10:16:23.983Z</time>
      </trkpt>
      <trkpt lat="47.26474" lon="-2.28528">
        <ele>41</ele>
        <time>2021-05-23T10:16:24.982Z</time>
      </trkpt>
      <trkpt lat="47.26476" lon="-2.28531">
        <ele>41</ele>
        <time>2021-05-23T10:16:25.982Z</time>
      </trkpt>
      <trkpt lat="47.26478" lon="-2.28534">
        <ele>41</ele>
        <time>2021-05-23T10:16:26.983Z</time>
      </trkpt>
      <trkpt lat="47.26479" lon="-2.28537">
        <ele>41</ele>
        <time>2021-05-23T10:16:27.983Z</time>
      </trkpt>
      <trkpt lat="47.26481" lon="-2.2854">
        <ele>41</ele>
        <time>2021-05-23T10:16:28.982Z</time>
      </trkpt>
      <trkpt lat="47.26483" lon="-2.28543">
        <ele>40</ele>
        <time>2021-05-23T10:16:29.982Z</time>
      </trkpt>
      <trkpt lat="47.26484" lon="-2.28546">
        <ele>40</ele>
        <time>2021-05-23T10:16:30.983Z</time>
      </trkpt>
      <trkpt lat="47.26486" lon="-2.2855">
        <ele>39</ele>
        <time>2021-05-23T10:16:31.983Z</time>
      </trkpt>
      <trkpt lat="47.26487" lon="-2.28553">
        <ele>39</ele>
        <time>2021-05-23T10:16:32.983Z</time>
      </trkpt>
      <trkpt lat="47.26489" lon="-2.28557">
        <ele>39</ele>
        <time>2021-05-23T10:16:33.982Z</time>
      </trkpt>
      <trkpt lat="47.2649" lon="-2.2856">
        <ele>38</ele>
        <time>2021-05-23T10:16:34.983Z</time>
      </trkpt>
      <trkpt lat="47.26492" lon="-2.28564">
        <ele>38</ele>
        <time>2021-05-23T10:16:35.982Z</time>
      </trkpt>
      <trkpt lat="47.26493" lon="-2.28568">
        <ele>37</ele>
        <time>2021-05-23T10:16:36.983Z</time>
      </trkpt>
      <trkpt lat="47.26494" lon="-2.28571">
        <ele>37</ele>
        <time>2021-05-23T10:16:37.982Z</time>
      </trkpt>
      <trkpt lat="47.26496" lon="-2.28574">
        <ele>37</ele>
        <time>2021-05-23T10:16:38.983Z</time>
      </trkpt>
      <trkpt lat="47.26497" lon="-2.28577">
        <ele>37</ele>
        <time>2021-05-23T10:16:39.982Z</time>
      </trkpt>
      <trkpt lat="47.26498" lon="-2.28581">
        <ele>38</ele>
        <time>2021-05-23T10:16:40.983Z</time>
      </trkpt>
      <trkpt lat="47.26499" lon="-2.28584">
        <ele>37</ele>
        <time>2021-05-23T10:16:41.982Z</time>
      </trkpt>
      <trkpt lat="47.265" lon="-2.28588">
        <ele>37</ele>
        <time>2021-05-23T10:16:42.982Z</time>
      </trkpt>
      <trkpt lat="47.26501" lon="-2.28591">
        <ele>37</ele>
        <time>2021-05-23T10:16:43.983Z</time>
      </trkpt>
      <trkpt lat="47.26501" lon="-2.28594">
        <ele>37</ele>
        <time>2021-05-23T10:16:44.983Z</time>
      </trkpt>
      <trkpt lat="47.26501" lon="-2.28598">
        <ele>38</ele>
        <time>2021-05-23T10:16:45.983Z</time>
      </trkpt>
      <trkpt lat="47.26501" lon="-2.28602">
        <ele>38</ele>
        <time>2021-05-23T10:16:46.983Z</time>
      </trkpt>
      <trkpt lat="47.26501" lon="-2.28605">
        <ele>37</ele>
        <time>2021-05-23T10:16:47.983Z</time>
      </trkpt>
      <trkpt lat="47.26501" lon="-2.28609">
        <ele>37</ele>
        <time>2021-05-23T10:16:48.983Z</time>
      </trkpt>
      <trkpt lat="47.26501" lon="-2.28613">
        <ele>37</ele>
        <time>2021-05-23T10:16:49.983Z</time>
      </trkpt>
      <trkpt lat="47.26502" lon="-2.28617">
        <ele>37</ele>
        <time>2021-05-23T10:16:50.983Z</time>
      </trkpt>
      <trkpt lat="47.26502" lon="-2.28621">
        <ele>37</ele>
        <time>2021-05-23T10:16:51.982Z</time>
      </trkpt>
      <trkpt lat="47.26504" lon="-2.28624">
        <ele>38</ele>
        <time>2021-05-23T10:16:52.983Z</time>
      </trkpt>
      <trkpt lat="47.26506" lon="-2.28627">
        <ele>37</ele>
        <time>2021-05-23T10:16:53.983Z</time>
      </trkpt>
      <trkpt lat="47.26508" lon="-2.28629">
        <ele>37</ele>
        <time>2021-05-23T10:16:54.983Z</time>
      </trkpt>
      <trkpt lat="47.2651" lon="-2.28632">
        <ele>37</ele>
        <time>2021-05-23T10:16:55.983Z</time>
      </trkpt>
      <trkpt lat="47.26512" lon="-2.28634">
        <ele>37</ele>
        <time>2021-05-23T10:16:56.983Z</time>
      </trkpt>
      <trkpt lat="47.26514" lon="-2.28636">
        <ele>37</ele>
        <time>2021-05-23T10:16:57.983Z</time>
      </trkpt>
      <trkpt lat="47.26516" lon="-2.28638">
        <ele>37</ele>
        <time>2021-05-23T10:16:58.983Z</time>
      </trkpt>
      <trkpt lat="47.26518" lon="-2.28641">
        <ele>37</ele>
        <time>2021-05-23T10:16:59.983Z</time>
      </trkpt>
      <trkpt lat="47.2652" lon="-2.28643">
        <ele>37</ele>
        <time>2021-05-23T10:17:00.983Z</time>
      </trkpt>
      <trkpt lat="47.26522" lon="-2.28646">
        <ele>37</ele>
        <time>2021-05-23T10:17:01.983Z</time>
      </trkpt>
      <trkpt lat="47.26524" lon="-2.28649">
        <ele>37</ele>
        <time>2021-05-23T10:17:02.983Z</time>
      </trkpt>
      <trkpt lat="47.26526" lon="-2.28652">
        <ele>37</ele>
        <time>2021-05-23T10:17:03.983Z</time>
      </trkpt>
      <trkpt lat="47.26528" lon="-2.28655">
        <ele>36</ele>
        <time>2021-05-23T10:17:04.982Z</time>
      </trkpt>
      <trkpt lat="47.2653" lon="-2.28658">
        <ele>36</ele>
        <time>2021-05-23T10:17:05.983Z</time>
      </trkpt>
      <trkpt lat="47.26531" lon="-2.28661">
        <ele>36</ele>
        <time>2021-05-23T10:17:06.982Z</time>
      </trkpt>
      <trkpt lat="47.26533" lon="-2.28664">
        <ele>36</ele>
        <time>2021-05-23T10:17:07.983Z</time>
      </trkpt>
      <trkpt lat="47.26535" lon="-2.28667">
        <ele>35</ele>
        <time>2021-05-23T10:17:08.983Z</time>
      </trkpt>
      <trkpt lat="47.26537" lon="-2.2867">
        <ele>35</ele>
        <time>2021-05-23T10:17:09.982Z</time>
      </trkpt>
      <trkpt lat="47.26539" lon="-2.28671">
        <ele>35</ele>
        <time>2021-05-23T10:17:10.983Z</time>
      </trkpt>
      <trkpt lat="47.26541" lon="-2.28673">
        <ele>35</ele>
        <time>2021-05-23T10:17:11.982Z</time>
      </trkpt>
      <trkpt lat="47.26543" lon="-2.28676">
        <ele>35</ele>
        <time>2021-05-23T10:17:12.983Z</time>
      </trkpt>
      <trkpt lat="47.26544" lon="-2.28679">
        <ele>36</ele>
        <time>2021-05-23T10:17:13.983Z</time>
      </trkpt>
      <trkpt lat="47.26546" lon="-2.28681">
        <ele>36</ele>
        <time>2021-05-23T10:17:14.983Z</time>
      </trkpt>
      <trkpt lat="47.26548" lon="-2.28683">
        <ele>37</ele>
        <time>2021-05-23T10:17:15.983Z</time>
      </trkpt>
      <trkpt lat="47.26551" lon="-2.28685">
        <ele>37</ele>
        <time>2021-05-23T10:17:16.982Z</time>
      </trkpt>
      <trkpt lat="47.26553" lon="-2.28687">
        <ele>38</ele>
        <time>2021-05-23T10:17:17.983Z</time>
      </trkpt>
      <trkpt lat="47.26556" lon="-2.28689">
        <ele>38</ele>
        <time>2021-05-23T10:17:18.982Z</time>
      </trkpt>
      <trkpt lat="47.26558" lon="-2.28691">
        <ele>39</ele>
        <time>2021-05-23T10:17:19.983Z</time>
      </trkpt>
      <trkpt lat="47.26559" lon="-2.28692">
        <ele>39</ele>
        <time>2021-05-23T10:17:20.983Z</time>
      </trkpt>
      <trkpt lat="47.26561" lon="-2.28694">
        <ele>39</ele>
        <time>2021-05-23T10:17:21.983Z</time>
      </trkpt>
      <trkpt lat="47.26563" lon="-2.28696">
        <ele>40</ele>
        <time>2021-05-23T10:17:22.983Z</time>
      </trkpt>
      <trkpt lat="47.26565" lon="-2.28697">
        <ele>40</ele>
        <time>2021-05-23T10:17:23.983Z</time>
      </trkpt>
      <trkpt lat="47.26567" lon="-2.287">
        <ele>40</ele>
        <time>2021-05-23T10:17:24.983Z</time>
      </trkpt>
      <trkpt lat="47.26568" lon="-2.28703">
        <ele>41</ele>
        <time>2021-05-23T10:17:25.982Z</time>
      </trkpt>
      <trkpt lat="47.2657" lon="-2.28705">
        <ele>41</ele>
        <time>2021-05-23T10:17:26.983Z</time>
      </trkpt>
      <trkpt lat="47.26572" lon="-2.28707">
        <ele>41</ele>
        <time>2021-05-23T10:17:27.982Z</time>
      </trkpt>
      <trkpt lat="47.26574" lon="-2.28709">
        <ele>41</ele>
        <time>2021-05-23T10:17:28.983Z</time>
      </trkpt>
      <trkpt lat="47.26576" lon="-2.28711">
        <ele>41</ele>
        <time>2021-05-23T10:17:29.983Z</time>
      </trkpt>
      <trkpt lat="47.26579" lon="-2.28713">
        <ele>40</ele>
        <time>2021-05-23T10:17:30.983Z</time>
      </trkpt>
      <trkpt lat="47.26581" lon="-2.28716">
        <ele>40</ele>
        <time>2021-05-23T10:17:31.982Z</time>
      </trkpt>
      <trkpt lat="47.26582" lon="-2.28719">
        <ele>39</ele>
        <time>2021-05-23T10:17:32.983Z</time>
      </trkpt>
      <trkpt lat="47.26584" lon="-2.28722">
        <ele>39</ele>
        <time>2021-05-23T10:17:33.982Z</time>
      </trkpt>
      <trkpt lat="47.26585" lon="-2.28725">
        <ele>39</ele>
        <time>2021-05-23T10:17:34.983Z</time>
      </trkpt>
      <trkpt lat="47.26587" lon="-2.28727">
        <ele>39</ele>
        <time>2021-05-23T10:17:35.983Z</time>
      </trkpt>
      <trkpt lat="47.26588" lon="-2.28728">
        <ele>39</ele>
        <time>2021-05-23T10:17:36.983Z</time>
      </trkpt>
      <trkpt lat="47.26589" lon="-2.2873">
        <ele>39</ele>
        <time>2021-05-23T10:17:37.983Z</time>
      </trkpt>
      <trkpt lat="47.2659" lon="-2.28732">
        <ele>40</ele>
        <time>2021-05-23T10:17:38.983Z</time>
      </trkpt>
      <trkpt lat="47.26592" lon="-2.28734">
        <ele>40</ele>
        <time>2021-05-23T10:17:39.982Z</time>
      </trkpt>
      <trkpt lat="47.26594" lon="-2.28736">
        <ele>39</ele>
        <time>2021-05-23T10:17:40.983Z</time>
      </trkpt>
      <trkpt lat="47.26597" lon="-2.28738">
        <ele>39</ele>
        <time>2021-05-23T10:17:41.982Z</time>
      </trkpt>
      <trkpt lat="47.26599" lon="-2.2874">
        <ele>39</ele>
        <time>2021-05-23T10:17:42.983Z</time>
      </trkpt>
      <trkpt lat="47.26601" lon="-2.28742">
        <ele>39</ele>
        <time>2021-05-23T10:17:43.983Z</time>
      </trkpt>
      <trkpt lat="47.26603" lon="-2.28743">
        <ele>39</ele>
        <time>2021-05-23T10:17:44.983Z</time>
      </trkpt>
      <trkpt lat="47.26606" lon="-2.28744">
        <ele>39</ele>
        <time>2021-05-23T10:17:45.982Z</time>
      </trkpt>
      <trkpt lat="47.26608" lon="-2.28745">
        <ele>39</ele>
        <time>2021-05-23T10:17:46.982Z</time>
      </trkpt>
      <trkpt lat="47.26611" lon="-2.28747">
        <ele>39</ele>
        <time>2021-05-23T10:17:47.982Z</time>
      </trkpt>
      <trkpt lat="47.26613" lon="-2.28748">
        <ele>39</ele>
        <time>2021-05-23T10:17:48.983Z</time>
      </trkpt>
      <trkpt lat="47.26616" lon="-2.28749">
        <ele>38</ele>
        <time>2021-05-23T10:17:49.983Z</time>
      </trkpt>
      <trkpt lat="47.26619" lon="-2.28751">
        <ele>38</ele>
        <time>2021-05-23T10:17:50.982Z</time>
      </trkpt>
      <trkpt lat="47.26621" lon="-2.28753">
        <ele>38</ele>
        <time>2021-05-23T10:17:51.982Z</time>
      </trkpt>
      <trkpt lat="47.26623" lon="-2.28755">
        <ele>38</ele>
        <time>2021-05-23T10:17:52.983Z</time>
      </trkpt>
      <trkpt lat="47.26625" lon="-2.28757">
        <ele>38</ele>
        <time>2021-05-23T10:17:53.983Z</time>
      </trkpt>
      <trkpt lat="47.26628" lon="-2.28761">
        <ele>38</ele>
        <time>2021-05-23T10:17:54.983Z</time>
      </trkpt>
      <trkpt lat="47.2663" lon="-2.28765">
        <ele>38</ele>
        <time>2021-05-23T10:17:55.983Z</time>
      </trkpt>
      <trkpt lat="47.26632" lon="-2.28768">
        <ele>38</ele>
        <time>2021-05-23T10:17:56.982Z</time>
      </trkpt>
      <trkpt lat="47.26635" lon="-2.2877">
        <ele>38</ele>
        <time>2021-05-23T10:17:57.983Z</time>
      </trkpt>
      <trkpt lat="47.26637" lon="-2.28773">
        <ele>38</ele>
        <time>2021-05-23T10:17:58.983Z</time>
      </trkpt>
      <trkpt lat="47.2664" lon="-2.28774">
        <ele>38</ele>
        <time>2021-05-23T10:17:59.983Z</time>
      </trkpt>
      <trkpt lat="47.26642" lon="-2.28776">
        <ele>38</ele>
        <time>2021-05-23T10:18:00.982Z</time>
      </trkpt>
      <trkpt lat="47.26644" lon="-2.28778">
        <ele>38</ele>
        <time>2021-05-23T10:18:01.982Z</time>
      </trkpt>
      <trkpt lat="47.26646" lon="-2.2878">
        <ele>38</ele>
        <time>2021-05-23T10:18:02.982Z</time>
      </trkpt>
      <trkpt lat="47.26648" lon="-2.28782">
        <ele>38</ele>
        <time>2021-05-23T10:18:03.983Z</time>
      </trkpt>
      <trkpt lat="47.2665" lon="-2.28785">
        <ele>38</ele>
        <time>2021-05-23T10:18:04.983Z</time>
      </trkpt>
      <trkpt lat="47.26651" lon="-2.28787">
        <ele>38</ele>
        <time>2021-05-23T10:18:05.982Z</time>
      </trkpt>
      <trkpt lat="47.26653" lon="-2.28789">
        <ele>38</ele>
        <time>2021-05-23T10:18:06.983Z</time>
      </trkpt>
      <trkpt lat="47.26655" lon="-2.28791">
        <ele>37</ele>
        <time>2021-05-23T10:18:07.983Z</time>
      </trkpt>
      <trkpt lat="47.26657" lon="-2.28793">
        <ele>38</ele>
        <time>2021-05-23T10:18:08.982Z</time>
      </trkpt>
      <trkpt lat="47.2666" lon="-2.28795">
        <ele>37</ele>
        <time>2021-05-23T10:18:09.982Z</time>
      </trkpt>
      <trkpt lat="47.26661" lon="-2.28798">
        <ele>37</ele>
        <time>2021-05-23T10:18:10.983Z</time>
      </trkpt>
      <trkpt lat="47.26664" lon="-2.288">
        <ele>37</ele>
        <time>2021-05-23T10:18:11.983Z</time>
      </trkpt>
      <trkpt lat="47.26667" lon="-2.28802">
        <ele>37</ele>
        <time>2021-05-23T10:18:12.983Z</time>
      </trkpt>
      <trkpt lat="47.26669" lon="-2.28803">
        <ele>37</ele>
        <time>2021-05-23T10:18:13.982Z</time>
      </trkpt>
      <trkpt lat="47.26672" lon="-2.28805">
        <ele>36</ele>
        <time>2021-05-23T10:18:14.983Z</time>
      </trkpt>
      <trkpt lat="47.26674" lon="-2.28806">
        <ele>36</ele>
        <time>2021-05-23T10:18:15.983Z</time>
      </trkpt>
      <trkpt lat="47.26676" lon="-2.28808">
        <ele>36</ele>
        <time>2021-05-23T10:18:16.982Z</time>
      </trkpt>
      <trkpt lat="47.26678" lon="-2.2881">
        <ele>35</ele>
        <time>2021-05-23T10:18:17.982Z</time>
      </trkpt>
      <trkpt lat="47.2668" lon="-2.28812">
        <ele>35</ele>
        <time>2021-05-23T10:18:18.983Z</time>
      </trkpt>
      <trkpt lat="47.26682" lon="-2.28813">
        <ele>35</ele>
        <time>2021-05-23T10:18:19.983Z</time>
      </trkpt>
      <trkpt lat="47.26685" lon="-2.28815">
        <ele>35</ele>
        <time>2021-05-23T10:18:20.983Z</time>
      </trkpt>
      <trkpt lat="47.26687" lon="-2.28817">
        <ele>34</ele>
        <time>2021-05-23T10:18:21.982Z</time>
      </trkpt>
      <trkpt lat="47.26689" lon="-2.28818">
        <ele>34</ele>
        <time>2021-05-23T10:18:22.983Z</time>
      </trkpt>
      <trkpt lat="47.26692" lon="-2.2882">
        <ele>34</ele>
        <time>2021-05-23T10:18:23.983Z</time>
      </trkpt>
      <trkpt lat="47.26694" lon="-2.28822">
        <ele>34</ele>
        <time>2021-05-23T10:18:24.982Z</time>
      </trkpt>
      <trkpt lat="47.26696" lon="-2.28825">
        <ele>34</ele>
        <time>2021-05-23T10:18:25.983Z</time>
      </trkpt>
      <trkpt lat="47.26698" lon="-2.28827">
        <ele>34</ele>
        <time>2021-05-23T10:18:26.983Z</time>
      </trkpt>
      <trkpt lat="47.267" lon="-2.2883">
        <ele>34</ele>
        <time>2021-05-23T10:18:27.983Z</time>
      </trkpt>
      <trkpt lat="47.26702" lon="-2.28833">
        <ele>34</ele>
        <time>2021-05-23T10:18:28.983Z</time>
      </trkpt>
      <trkpt lat="47.26704" lon="-2.28835">
        <ele>34</ele>
        <time>2021-05-23T10:18:29.983Z</time>
      </trkpt>
      <trkpt lat="47.26706" lon="-2.28837">
        <ele>34</ele>
        <time>2021-05-23T10:18:30.983Z</time>
      </trkpt>
      <trkpt lat="47.26708" lon="-2.28839">
        <ele>34</ele>
        <time>2021-05-23T10:18:31.983Z</time>
      </trkpt>
      <trkpt lat="47.2671" lon="-2.28841">
        <ele>34</ele>
        <time>2021-05-23T10:18:32.982Z</time>
      </trkpt>
      <trkpt lat="47.26713" lon="-2.28843">
        <ele>34</ele>
        <time>2021-05-23T10:18:33.983Z</time>
      </trkpt>
      <trkpt lat="47.26715" lon="-2.28846">
        <ele>33</ele>
        <time>2021-05-23T10:18:34.982Z</time>
      </trkpt>
      <trkpt lat="47.26717" lon="-2.28847">
        <ele>33</ele>
        <time>2021-05-23T10:18:35.982Z</time>
      </trkpt>
      <trkpt lat="47.26719" lon="-2.28849">
        <ele>33</ele>
        <time>2021-05-23T10:18:36.983Z</time>
      </trkpt>
      <trkpt lat="47.26722" lon="-2.2885">
        <ele>33</ele>
        <time>2021-05-23T10:18:37.982Z</time>
      </trkpt>
      <trkpt lat="47.26724" lon="-2.28852">
        <ele>32</ele>
        <time>2021-05-23T10:18:38.983Z</time>
      </trkpt>
      <trkpt lat="47.26726" lon="-2.28854">
        <ele>32</ele>
        <time>2021-05-23T10:18:39.983Z</time>
      </trkpt>
      <trkpt lat="47.26729" lon="-2.28856">
        <ele>32</ele>
        <time>2021-05-23T10:18:40.983Z</time>
      </trkpt>
      <trkpt lat="47.26731" lon="-2.28859">
        <ele>32</ele>
        <time>2021-05-23T10:18:41.983Z</time>
      </trkpt>
      <trkpt lat="47.26734" lon="-2.28862">
        <ele>31</ele>
        <time>2021-05-23T10:18:42.982Z</time>
      </trkpt>
      <trkpt lat="47.26737" lon="-2.28865">
        <ele>31</ele>
        <time>2021-05-23T10:18:43.983Z</time>
      </trkpt>
      <trkpt lat="47.26739" lon="-2.28868">
        <ele>30</ele>
        <time>2021-05-23T10:18:44.983Z</time>
      </trkpt>
      <trkpt lat="47.26741" lon="-2.2887">
        <ele>30</ele>
        <time>2021-05-23T10:18:45.983Z</time>
      </trkpt>
      <trkpt lat="47.26742" lon="-2.28872">
        <ele>29</ele>
        <time>2021-05-23T10:18:46.982Z</time>
      </trkpt>
      <trkpt lat="47.26744" lon="-2.28874">
        <ele>29</ele>
        <time>2021-05-23T10:18:47.983Z</time>
      </trkpt>
      <trkpt lat="47.26746" lon="-2.28877">
        <ele>29</ele>
        <time>2021-05-23T10:18:48.983Z</time>
      </trkpt>
      <trkpt lat="47.26748" lon="-2.28879">
        <ele>28</ele>
        <time>2021-05-23T10:18:49.983Z</time>
      </trkpt>
      <trkpt lat="47.26751" lon="-2.28882">
        <ele>28</ele>
        <time>2021-05-23T10:18:50.983Z</time>
      </trkpt>
      <trkpt lat="47.26753" lon="-2.28884">
        <ele>28</ele>
        <time>2021-05-23T10:18:51.983Z</time>
      </trkpt>
      <trkpt lat="47.26755" lon="-2.28887">
        <ele>28</ele>
        <time>2021-05-23T10:18:52.983Z</time>
      </trkpt>
      <trkpt lat="47.26757" lon="-2.2889">
        <ele>28</ele>
        <time>2021-05-23T10:18:53.982Z</time>
      </trkpt>
      <trkpt lat="47.26759" lon="-2.28891">
        <ele>28</ele>
        <time>2021-05-23T10:18:54.983Z</time>
      </trkpt>
      <trkpt lat="47.26762" lon="-2.28893">
        <ele>28</ele>
        <time>2021-05-23T10:18:55.982Z</time>
      </trkpt>
      <trkpt lat="47.26765" lon="-2.28895">
        <ele>28</ele>
        <time>2021-05-23T10:18:56.983Z</time>
      </trkpt>
      <trkpt lat="47.26767" lon="-2.28896">
        <ele>29</ele>
        <time>2021-05-23T10:18:57.982Z</time>
      </trkpt>
      <trkpt lat="47.2677" lon="-2.28898">
        <ele>29</ele>
        <time>2021-05-23T10:18:58.983Z</time>
      </trkpt>
      <trkpt lat="47.26772" lon="-2.28899">
        <ele>29</ele>
        <time>2021-05-23T10:18:59.983Z</time>
      </trkpt>
      <trkpt lat="47.26774" lon="-2.28901">
        <ele>29</ele>
        <time>2021-05-23T10:19:00.983Z</time>
      </trkpt>
      <trkpt lat="47.26776" lon="-2.28903">
        <ele>29</ele>
        <time>2021-05-23T10:19:01.983Z</time>
      </trkpt>
      <trkpt lat="47.26779" lon="-2.28904">
        <ele>30</ele>
        <time>2021-05-23T10:19:02.983Z</time>
      </trkpt>
      <trkpt lat="47.26781" lon="-2.28905">
        <ele>30</ele>
        <time>2021-05-23T10:19:03.983Z</time>
      </trkpt>
      <trkpt lat="47.26783" lon="-2.28906">
        <ele>30</ele>
        <time>2021-05-23T10:19:04.982Z</time>
      </trkpt>
      <trkpt lat="47.26786" lon="-2.28907">
        <ele>30</ele>
        <time>2021-05-23T10:19:05.983Z</time>
      </trkpt>
      <trkpt lat="47.26788" lon="-2.28908">
        <ele>30</ele>
        <time>2021-05-23T10:19:06.983Z</time>
      </trkpt>
      <trkpt lat="47.2679" lon="-2.28908">
        <ele>30</ele>
        <time>2021-05-23T10:19:07.982Z</time>
      </trkpt>
      <trkpt lat="47.26792" lon="-2.28909">
        <ele>30</ele>
        <time>2021-05-23T10:19:08.982Z</time>
      </trkpt>
      <trkpt lat="47.26795" lon="-2.28911">
        <ele>30</ele>
        <time>2021-05-23T10:19:09.983Z</time>
      </trkpt>
      <trkpt lat="47.26797" lon="-2.28913">
        <ele>30</ele>
        <time>2021-05-23T10:19:10.982Z</time>
      </trkpt>
      <trkpt lat="47.26799" lon="-2.28915">
        <ele>29</ele>
        <time>2021-05-23T10:19:11.982Z</time>
      </trkpt>
      <trkpt lat="47.26801" lon="-2.28917">
        <ele>29</ele>
        <time>2021-05-23T10:19:12.982Z</time>
      </trkpt>
      <trkpt lat="47.26805" lon="-2.28918">
        <ele>29</ele>
        <time>2021-05-23T10:19:13.982Z</time>
      </trkpt>
      <trkpt lat="47.26808" lon="-2.2892">
        <ele>29</ele>
        <time>2021-05-23T10:19:14.983Z</time>
      </trkpt>
      <trkpt lat="47.26811" lon="-2.28921">
        <ele>29</ele>
        <time>2021-05-23T10:19:15.983Z</time>
      </trkpt>
      <trkpt lat="47.26814" lon="-2.28922">
        <ele>29</ele>
        <time>2021-05-23T10:19:16.983Z</time>
      </trkpt>
      <trkpt lat="47.26816" lon="-2.28923">
        <ele>30</ele>
        <time>2021-05-23T10:19:17.982Z</time>
      </trkpt>
      <trkpt lat="47.26818" lon="-2.28924">
        <ele>30</ele>
        <time>2021-05-23T10:19:18.982Z</time>
      </trkpt>
      <trkpt lat="47.2682" lon="-2.28926">
        <ele>30</ele>
        <time>2021-05-23T10:19:19.982Z</time>
      </trkpt>
      <trkpt lat="47.26822" lon="-2.28928">
        <ele>31</ele>
        <time>2021-05-23T10:19:20.982Z</time>
      </trkpt>
      <trkpt lat="47.26824" lon="-2.28929">
        <ele>31</ele>
        <time>2021-05-23T10:19:21.983Z</time>
      </trkpt>
      <trkpt lat="47.26825" lon="-2.2893">
        <ele>31</ele>
        <time>2021-05-23T10:19:22.982Z</time>
      </trkpt>
      <trkpt lat="47.26827" lon="-2.28931">
        <ele>31</ele>
        <time>2021-05-23T10:19:23.983Z</time>
      </trkpt>
      <trkpt lat="47.26829" lon="-2.28932">
        <ele>32</ele>
        <time>2021-05-23T10:19:24.983Z</time>
      </trkpt>
      <trkpt lat="47.26831" lon="-2.28933">
        <ele>32</ele>
        <time>2021-05-23T10:19:25.982Z</time>
      </trkpt>
      <trkpt lat="47.26833" lon="-2.28935">
        <ele>32</ele>
        <time>2021-05-23T10:19:26.983Z</time>
      </trkpt>
      <trkpt lat="47.26835" lon="-2.28937">
        <ele>32</ele>
        <time>2021-05-23T10:19:27.983Z</time>
      </trkpt>
      <trkpt lat="47.26838" lon="-2.28938">
        <ele>32</ele>
        <time>2021-05-23T10:19:28.983Z</time>
      </trkpt>
      <trkpt lat="47.2684" lon="-2.2894">
        <ele>32</ele>
        <time>2021-05-23T10:19:29.982Z</time>
      </trkpt>
      <trkpt lat="47.26842" lon="-2.28942">
        <ele>32</ele>
        <time>2021-05-23T10:19:30.982Z</time>
      </trkpt>
      <trkpt lat="47.26844" lon="-2.28943">
        <ele>32</ele>
        <time>2021-05-23T10:19:31.982Z</time>
      </trkpt>
      <trkpt lat="47.26846" lon="-2.28944">
        <ele>32</ele>
        <time>2021-05-23T10:19:32.983Z</time>
      </trkpt>
      <trkpt lat="47.26848" lon="-2.28945">
        <ele>32</ele>
        <time>2021-05-23T10:19:33.982Z</time>
      </trkpt>
      <trkpt lat="47.2685" lon="-2.28946">
        <ele>32</ele>
        <time>2021-05-23T10:19:34.982Z</time>
      </trkpt>
      <trkpt lat="47.26852" lon="-2.28948">
        <ele>32</ele>
        <time>2021-05-23T10:19:35.983Z</time>
      </trkpt>
      <trkpt lat="47.26854" lon="-2.28951">
        <ele>32</ele>
        <time>2021-05-23T10:19:36.982Z</time>
      </trkpt>
      <trkpt lat="47.26856" lon="-2.28953">
        <ele>33</ele>
        <time>2021-05-23T10:19:37.982Z</time>
      </trkpt>
      <trkpt lat="47.26859" lon="-2.28954">
        <ele>33</ele>
        <time>2021-05-23T10:19:38.982Z</time>
      </trkpt>
      <trkpt lat="47.26863" lon="-2.28954">
        <ele>32</ele>
        <time>2021-05-23T10:19:39.983Z</time>
      </trkpt>
      <trkpt lat="47.26867" lon="-2.28956">
        <ele>32</ele>
        <time>2021-05-23T10:19:40.982Z</time>
      </trkpt>
      <trkpt lat="47.26869" lon="-2.28957">
        <ele>32</ele>
        <time>2021-05-23T10:19:41.982Z</time>
      </trkpt>
      <trkpt lat="47.26872" lon="-2.2896">
        <ele>32</ele>
        <time>2021-05-23T10:19:42.982Z</time>
      </trkpt>
      <trkpt lat="47.26874" lon="-2.28962">
        <ele>31</ele>
        <time>2021-05-23T10:19:43.982Z</time>
      </trkpt>
      <trkpt lat="47.26877" lon="-2.28963">
        <ele>31</ele>
        <time>2021-05-23T10:19:44.982Z</time>
      </trkpt>
      <trkpt lat="47.2688" lon="-2.28964">
        <ele>31</ele>
        <time>2021-05-23T10:19:45.982Z</time>
      </trkpt>
      <trkpt lat="47.26883" lon="-2.28965">
        <ele>30</ele>
        <time>2021-05-23T10:19:46.983Z</time>
      </trkpt>
      <trkpt lat="47.26885" lon="-2.28966">
        <ele>30</ele>
        <time>2021-05-23T10:19:47.982Z</time>
      </trkpt>
      <trkpt lat="47.26887" lon="-2.28967">
        <ele>30</ele>
        <time>2021-05-23T10:19:48.982Z</time>
      </trkpt>
      <trkpt lat="47.26889" lon="-2.28967">
        <ele>30</ele>
        <time>2021-05-23T10:19:49.982Z</time>
      </trkpt>
      <trkpt lat="47.26892" lon="-2.28968">
        <ele>30</ele>
        <time>2021-05-23T10:19:50.982Z</time>
      </trkpt>
      <trkpt lat="47.26894" lon="-2.28968">
        <ele>29</ele>
        <time>2021-05-23T10:19:51.982Z</time>
      </trkpt>
      <trkpt lat="47.26896" lon="-2.2897">
        <ele>29</ele>
        <time>2021-05-23T10:19:52.982Z</time>
      </trkpt>
      <trkpt lat="47.26899" lon="-2.28971">
        <ele>29</ele>
        <time>2021-05-23T10:19:53.982Z</time>
      </trkpt>
      <trkpt lat="47.26901" lon="-2.28972">
        <ele>29</ele>
        <time>2021-05-23T10:19:54.983Z</time>
      </trkpt>
      <trkpt lat="47.26904" lon="-2.28974">
        <ele>29</ele>
        <time>2021-05-23T10:19:55.983Z</time>
      </trkpt>
      <trkpt lat="47.26907" lon="-2.28975">
        <ele>29</ele>
        <time>2021-05-23T10:19:56.982Z</time>
      </trkpt>
      <trkpt lat="47.26909" lon="-2.28976">
        <ele>29</ele>
        <time>2021-05-23T10:19:57.983Z</time>
      </trkpt>
      <trkpt lat="47.26911" lon="-2.28978">
        <ele>29</ele>
        <time>2021-05-23T10:19:58.982Z</time>
      </trkpt>
      <trkpt lat="47.26914" lon="-2.2898">
        <ele>29</ele>
        <time>2021-05-23T10:19:59.983Z</time>
      </trkpt>
      <trkpt lat="47.26915" lon="-2.28983">
        <ele>29</ele>
        <time>2021-05-23T10:20:00.983Z</time>
      </trkpt>
      <trkpt lat="47.26916" lon="-2.28985">
        <ele>28</ele>
        <time>2021-05-23T10:20:01.982Z</time>
      </trkpt>
      <trkpt lat="47.26917" lon="-2.28987">
        <ele>28</ele>
        <time>2021-05-23T10:20:02.983Z</time>
      </trkpt>
      <trkpt lat="47.26919" lon="-2.2899">
        <ele>27</ele>
        <time>2021-05-23T10:20:03.982Z</time>
      </trkpt>
      <trkpt lat="47.26919" lon="-2.28992">
        <ele>27</ele>
        <time>2021-05-23T10:20:04.982Z</time>
      </trkpt>
      <trkpt lat="47.26918" lon="-2.28993">
        <ele>27</ele>
        <time>2021-05-23T10:20:05.982Z</time>
      </trkpt>
      <trkpt lat="47.26917" lon="-2.28993">
        <ele>27</ele>
        <time>2021-05-23T10:20:06.983Z</time>
      </trkpt>
      <trkpt lat="47.26916" lon="-2.28993">
        <ele>27</ele>
        <time>2021-05-23T10:20:07.983Z</time>
      </trkpt>
      <trkpt lat="47.26915" lon="-2.28994">
        <ele>27</ele>
        <time>2021-05-23T10:20:08.982Z</time>
      </trkpt>
      <trkpt lat="47.26914" lon="-2.28995">
        <ele>27</ele>
        <time>2021-05-23T10:20:09.983Z</time>
      </trkpt>
      <trkpt lat="47.26914" lon="-2.28995">
        <ele>27</ele>
        <time>2021-05-23T10:20:10.982Z</time>
      </trkpt>
      <trkpt lat="47.26913" lon="-2.28995">
        <ele>27</ele>
        <time>2021-05-23T10:20:11.982Z</time>
      </trkpt>
      <trkpt lat="47.26913" lon="-2.28995">
        <ele>27</ele>
        <time>2021-05-23T10:20:12.983Z</time>
      </trkpt>
      <trkpt lat="47.26912" lon="-2.28995">
        <ele>28</ele>
        <time>2021-05-23T10:20:13.982Z</time>
      </trkpt>
      <trkpt lat="47.26912" lon="-2.28996">
        <ele>28</ele>
        <time>2021-05-23T10:20:14.983Z</time>
      </trkpt>
      <trkpt lat="47.26911" lon="-2.28996">
        <ele>28</ele>
        <time>2021-05-23T10:20:15.983Z</time>
      </trkpt>
      <trkpt lat="47.2691" lon="-2.28997">
        <ele>28</ele>
        <time>2021-05-23T10:20:16.983Z</time>
      </trkpt>
      <trkpt lat="47.26909" lon="-2.28997">
        <ele>29</ele>
        <time>2021-05-23T10:20:17.983Z</time>
      </trkpt>
      <trkpt lat="47.26908" lon="-2.28998">
        <ele>29</ele>
        <time>2021-05-23T10:20:18.983Z</time>
      </trkpt>
      <trkpt lat="47.26906" lon="-2.28999">
        <ele>29</ele>
        <time>2021-05-23T10:20:19.982Z</time>
      </trkpt>
      <trkpt lat="47.26905" lon="-2.29">
        <ele>29</ele>
        <time>2021-05-23T10:20:20.983Z</time>
      </trkpt>
      <trkpt lat="47.26904" lon="-2.29">
        <ele>30</ele>
        <time>2021-05-23T10:20:21.983Z</time>
      </trkpt>
      <trkpt lat="47.26902" lon="-2.29001">
        <ele>30</ele>
        <time>2021-05-23T10:20:22.982Z</time>
      </trkpt>
      <trkpt lat="47.269" lon="-2.29002">
        <ele>30</ele>
        <time>2021-05-23T10:20:23.982Z</time>
      </trkpt>
      <trkpt lat="47.26899" lon="-2.29003">
        <ele>30</ele>
        <time>2021-05-23T10:20:24.982Z</time>
      </trkpt>
      <trkpt lat="47.26899" lon="-2.29003">
        <ele>30</ele>
        <time>2021-05-23T10:20:25.983Z</time>
      </trkpt>
      <trkpt lat="47.26897" lon="-2.29005">
        <ele>31</ele>
        <time>2021-05-23T10:20:26.983Z</time>
      </trkpt>
      <trkpt lat="47.26897" lon="-2.29006">
        <ele>32</ele>
        <time>2021-05-23T10:20:27.983Z</time>
      </trkpt>
      <trkpt lat="47.26895" lon="-2.29006">
        <ele>33</ele>
        <time>2021-05-23T10:20:28.983Z</time>
      </trkpt>
      <trkpt lat="47.26894" lon="-2.29006">
        <ele>33</ele>
        <time>2021-05-23T10:20:29.982Z</time>
      </trkpt>
      <trkpt lat="47.26892" lon="-2.29006">
        <ele>34</ele>
        <time>2021-05-23T10:20:30.983Z</time>
      </trkpt>
      <trkpt lat="47.26891" lon="-2.29007">
        <ele>34</ele>
        <time>2021-05-23T10:20:31.983Z</time>
      </trkpt>
      <trkpt lat="47.26889" lon="-2.29009">
        <ele>35</ele>
        <time>2021-05-23T10:20:32.982Z</time>
      </trkpt>
      <trkpt lat="47.26887" lon="-2.29011">
        <ele>35</ele>
        <time>2021-05-23T10:20:33.983Z</time>
      </trkpt>
      <trkpt lat="47.26886" lon="-2.29012">
        <ele>35</ele>
        <time>2021-05-23T10:20:34.983Z</time>
      </trkpt>
      <trkpt lat="47.26886" lon="-2.29013">
        <ele>34</ele>
        <time>2021-05-23T10:20:35.983Z</time>
      </trkpt>
      <trkpt lat="47.26884" lon="-2.29014">
        <ele>34</ele>
        <time>2021-05-23T10:20:36.983Z</time>
      </trkpt>
      <trkpt lat="47.26882" lon="-2.29016">
        <ele>34</ele>
        <time>2021-05-23T10:20:37.982Z</time>
      </trkpt>
      <trkpt lat="47.26881" lon="-2.29017">
        <ele>34</ele>
        <time>2021-05-23T10:20:38.983Z</time>
      </trkpt>
      <trkpt lat="47.26879" lon="-2.29019">
        <ele>35</ele>
        <time>2021-05-23T10:20:39.982Z</time>
      </trkpt>
      <trkpt lat="47.26878" lon="-2.2902">
        <ele>35</ele>
        <time>2021-05-23T10:20:40.983Z</time>
      </trkpt>
      <trkpt lat="47.26876" lon="-2.29021">
        <ele>35</ele>
        <time>2021-05-23T10:20:41.983Z</time>
      </trkpt>
      <trkpt lat="47.26875" lon="-2.29022">
        <ele>35</ele>
        <time>2021-05-23T10:20:42.983Z</time>
      </trkpt>
      <trkpt lat="47.26874" lon="-2.29023">
        <ele>34</ele>
        <time>2021-05-23T10:20:43.983Z</time>
      </trkpt>
      <trkpt lat="47.26872" lon="-2.29025">
        <ele>34</ele>
        <time>2021-05-23T10:20:44.983Z</time>
      </trkpt>
      <trkpt lat="47.2687" lon="-2.29027">
        <ele>34</ele>
        <time>2021-05-23T10:20:45.982Z</time>
      </trkpt>
      <trkpt lat="47.26869" lon="-2.29028">
        <ele>34</ele>
        <time>2021-05-23T10:20:46.983Z</time>
      </trkpt>
      <trkpt lat="47.26868" lon="-2.29029">
        <ele>34</ele>
        <time>2021-05-23T10:20:47.982Z</time>
      </trkpt>
      <trkpt lat="47.26867" lon="-2.2903">
        <ele>34</ele>
        <time>2021-05-23T10:20:48.982Z</time>
      </trkpt>
      <trkpt lat="47.26866" lon="-2.29031">
        <ele>34</ele>
        <time>2021-05-23T10:20:49.982Z</time>
      </trkpt>
      <trkpt lat="47.26864" lon="-2.29032">
        <ele>34</ele>
        <time>2021-05-23T10:20:50.983Z</time>
      </trkpt>
      <trkpt lat="47.26863" lon="-2.29033">
        <ele>34</ele>
        <time>2021-05-23T10:20:51.983Z</time>
      </trkpt>
      <trkpt lat="47.26862" lon="-2.29034">
        <ele>34</ele>
        <time>2021-05-23T10:20:52.983Z</time>
      </trkpt>
      <trkpt lat="47.2686" lon="-2.29035">
        <ele>35</ele>
        <time>2021-05-23T10:20:53.983Z</time>
      </trkpt>
      <trkpt lat="47.26859" lon="-2.29036">
        <ele>35</ele>
        <time>2021-05-23T10:20:54.983Z</time>
      </trkpt>
      <trkpt lat="47.26858" lon="-2.29037">
        <ele>35</ele>
        <time>2021-05-23T10:20:55.983Z</time>
      </trkpt>
      <trkpt lat="47.26857" lon="-2.29038">
        <ele>36</ele>
        <time>2021-05-23T10:20:56.982Z</time>
      </trkpt>
      <trkpt lat="47.26855" lon="-2.2904">
        <ele>36</ele>
        <time>2021-05-23T10:20:57.982Z</time>
      </trkpt>
      <trkpt lat="47.26854" lon="-2.29041">
        <ele>37</ele>
        <time>2021-05-23T10:20:58.983Z</time>
      </trkpt>
      <trkpt lat="47.26852" lon="-2.29042">
        <ele>37</ele>
        <time>2021-05-23T10:20:59.982Z</time>
      </trkpt>
      <trkpt lat="47.26851" lon="-2.29044">
        <ele>37</ele>
        <time>2021-05-23T10:21:00.982Z</time>
      </trkpt>
      <trkpt lat="47.2685" lon="-2.29045">
        <ele>38</ele>
        <time>2021-05-23T10:21:01.982Z</time>
      </trkpt>
      <trkpt lat="47.26849" lon="-2.29046">
        <ele>38</ele>
        <time>2021-05-23T10:21:02.982Z</time>
      </trkpt>
      <trkpt lat="47.26847" lon="-2.29048">
        <ele>38</ele>
        <time>2021-05-23T10:21:03.982Z</time>
      </trkpt>
      <trkpt lat="47.26846" lon="-2.29049">
        <ele>37</ele>
        <time>2021-05-23T10:21:04.983Z</time>
      </trkpt>
      <trkpt lat="47.26845" lon="-2.2905">
        <ele>37</ele>
        <time>2021-05-23T10:21:05.982Z</time>
      </trkpt>
      <trkpt lat="47.26843" lon="-2.29052">
        <ele>36</ele>
        <time>2021-05-23T10:21:06.982Z</time>
      </trkpt>
      <trkpt lat="47.26842" lon="-2.29053">
        <ele>36</ele>
        <time>2021-05-23T10:21:07.983Z</time>
      </trkpt>
      <trkpt lat="47.2684" lon="-2.29055">
        <ele>36</ele>
        <time>2021-05-23T10:21:08.983Z</time>
      </trkpt>
      <trkpt lat="47.26838" lon="-2.29057">
        <ele>36</ele>
        <time>2021-05-23T10:21:09.982Z</time>
      </trkpt>
      <trkpt lat="47.26837" lon="-2.29058">
        <ele>36</ele>
        <time>2021-05-23T10:21:10.983Z</time>
      </trkpt>
      <trkpt lat="47.26835" lon="-2.29059">
        <ele>36</ele>
        <time>2021-05-23T10:21:11.982Z</time>
      </trkpt>
      <trkpt lat="47.26834" lon="-2.2906">
        <ele>37</ele>
        <time>2021-05-23T10:21:12.983Z</time>
      </trkpt>
      <trkpt lat="47.26833" lon="-2.29062">
        <ele>38</ele>
        <time>2021-05-23T10:21:13.983Z</time>
      </trkpt>
      <trkpt lat="47.26831" lon="-2.29063">
        <ele>38</ele>
        <time>2021-05-23T10:21:14.983Z</time>
      </trkpt>
      <trkpt lat="47.2683" lon="-2.29064">
        <ele>39</ele>
        <time>2021-05-23T10:21:15.983Z</time>
      </trkpt>
      <trkpt lat="47.26829" lon="-2.29065">
        <ele>39</ele>
        <time>2021-05-23T10:21:16.982Z</time>
      </trkpt>
      <trkpt lat="47.26828" lon="-2.29066">
        <ele>39</ele>
        <time>2021-05-23T10:21:17.983Z</time>
      </trkpt>
      <trkpt lat="47.26827" lon="-2.29067">
        <ele>39</ele>
        <time>2021-05-23T10:21:18.982Z</time>
      </trkpt>
      <trkpt lat="47.26826" lon="-2.29068">
        <ele>39</ele>
        <time>2021-05-23T10:21:19.983Z</time>
      </trkpt>
      <trkpt lat="47.26824" lon="-2.29069">
        <ele>39</ele>
        <time>2021-05-23T10:21:20.983Z</time>
      </trkpt>
      <trkpt lat="47.26823" lon="-2.2907">
        <ele>39</ele>
        <time>2021-05-23T10:21:21.983Z</time>
      </trkpt>
      <trkpt lat="47.26821" lon="-2.29071">
        <ele>40</ele>
        <time>2021-05-23T10:21:22.983Z</time>
      </trkpt>
      <trkpt lat="47.2682" lon="-2.29072">
        <ele>40</ele>
        <time>2021-05-23T10:21:23.983Z</time>
      </trkpt>
      <trkpt lat="47.26818" lon="-2.29074">
        <ele>40</ele>
        <time>2021-05-23T10:21:24.982Z</time>
      </trkpt>
      <trkpt lat="47.26817" lon="-2.29075">
        <ele>40</ele>
        <time>2021-05-23T10:21:25.983Z</time>
      </trkpt>
      <trkpt lat="47.26816" lon="-2.29077">
        <ele>40</ele>
        <time>2021-05-23T10:21:26.983Z</time>
      </trkpt>
      <trkpt lat="47.26814" lon="-2.29078">
        <ele>41</ele>
        <time>2021-05-23T10:21:27.983Z</time>
      </trkpt>
      <trkpt lat="47.26813" lon="-2.2908">
        <ele>41</ele>
        <time>2021-05-23T10:21:28.983Z</time>
      </trkpt>
      <trkpt lat="47.26811" lon="-2.29081">
        <ele>41</ele>
        <time>2021-05-23T10:21:29.983Z</time>
      </trkpt>
      <trkpt lat="47.2681" lon="-2.29083">
        <ele>42</ele>
        <time>2021-05-23T10:21:30.982Z</time>
      </trkpt>
      <trkpt lat="47.26808" lon="-2.29084">
        <ele>42</ele>
        <time>2021-05-23T10:21:31.982Z</time>
      </trkpt>
      <trkpt lat="47.26807" lon="-2.29085">
        <ele>42</ele>
        <time>2021-05-23T10:21:32.983Z</time>
      </trkpt>
      <trkpt lat="47.26806" lon="-2.29086">
        <ele>41</ele>
        <time>2021-05-23T10:21:33.982Z</time>
      </trkpt>
      <trkpt lat="47.26805" lon="-2.29086">
        <ele>41</ele>
        <time>2021-05-23T10:21:34.983Z</time>
      </trkpt>
      <trkpt lat="47.26804" lon="-2.29088">
        <ele>42</ele>
        <time>2021-05-23T10:21:35.983Z</time>
      </trkpt>
      <trkpt lat="47.26802" lon="-2.2909">
        <ele>42</ele>
        <time>2021-05-23T10:21:36.982Z</time>
      </trkpt>
      <trkpt lat="47.26801" lon="-2.29091">
        <ele>42</ele>
        <time>2021-05-23T10:21:37.983Z</time>
      </trkpt>
      <trkpt lat="47.268" lon="-2.29093">
        <ele>43</ele>
        <time>2021-05-23T10:21:38.983Z</time>
      </trkpt>
      <trkpt lat="47.26798" lon="-2.29094">
        <ele>43</ele>
        <time>2021-05-23T10:21:39.982Z</time>
      </trkpt>
      <trkpt lat="47.26797" lon="-2.29096">
        <ele>43</ele>
        <time>2021-05-23T10:21:40.982Z</time>
      </trkpt>
      <trkpt lat="47.26795" lon="-2.29097">
        <ele>43</ele>
        <time>2021-05-23T10:21:41.983Z</time>
      </trkpt>
      <trkpt lat="47.26794" lon="-2.29099">
        <ele>43</ele>
        <time>2021-05-23T10:21:42.982Z</time>
      </trkpt>
      <trkpt lat="47.26793" lon="-2.29101">
        <ele>43</ele>
        <time>2021-05-23T10:21:43.983Z</time>
      </trkpt>
      <trkpt lat="47.26792" lon="-2.29102">
        <ele>42</ele>
        <time>2021-05-23T10:21:44.982Z</time>
      </trkpt>
      <trkpt lat="47.26791" lon="-2.29104">
        <ele>42</ele>
        <time>2021-05-23T10:21:45.982Z</time>
      </trkpt>
      <trkpt lat="47.26791" lon="-2.29105">
        <ele>42</ele>
        <time>2021-05-23T10:21:46.982Z</time>
      </trkpt>
      <trkpt lat="47.2679" lon="-2.29107">
        <ele>41</ele>
        <time>2021-05-23T10:21:47.982Z</time>
      </trkpt>
      <trkpt lat="47.26789" lon="-2.29108">
        <ele>41</ele>
        <time>2021-05-23T10:21:48.982Z</time>
      </trkpt>
      <trkpt lat="47.26788" lon="-2.29109">
        <ele>41</ele>
        <time>2021-05-23T10:21:49.982Z</time>
      </trkpt>
      <trkpt lat="47.26786" lon="-2.29111">
        <ele>41</ele>
        <time>2021-05-23T10:21:50.982Z</time>
      </trkpt>
      <trkpt lat="47.26785" lon="-2.29112">
        <ele>41</ele>
        <time>2021-05-23T10:21:51.982Z</time>
      </trkpt>
      <trkpt lat="47.26783" lon="-2.29114">
        <ele>41</ele>
        <time>2021-05-23T10:21:52.982Z</time>
      </trkpt>
      <trkpt lat="47.26782" lon="-2.29116">
        <ele>42</ele>
        <time>2021-05-23T10:21:53.982Z</time>
      </trkpt>
      <trkpt lat="47.26781" lon="-2.29117">
        <ele>41</ele>
        <time>2021-05-23T10:21:54.982Z</time>
      </trkpt>
      <trkpt lat="47.2678" lon="-2.29119">
        <ele>41</ele>
        <time>2021-05-23T10:21:55.983Z</time>
      </trkpt>
      <trkpt lat="47.26779" lon="-2.29119">
        <ele>40</ele>
        <time>2021-05-23T10:21:56.983Z</time>
      </trkpt>
      <trkpt lat="47.26778" lon="-2.29121">
        <ele>40</ele>
        <time>2021-05-23T10:21:57.983Z</time>
      </trkpt>
      <trkpt lat="47.26777" lon="-2.29121">
        <ele>40</ele>
        <time>2021-05-23T10:21:58.982Z</time>
      </trkpt>
      <trkpt lat="47.26776" lon="-2.29123">
        <ele>40</ele>
        <time>2021-05-23T10:21:59.983Z</time>
      </trkpt>
      <trkpt lat="47.26774" lon="-2.29124">
        <ele>40</ele>
        <time>2021-05-23T10:22:00.983Z</time>
      </trkpt>
      <trkpt lat="47.26774" lon="-2.29126">
        <ele>41</ele>
        <time>2021-05-23T10:22:01.982Z</time>
      </trkpt>
      <trkpt lat="47.26773" lon="-2.29127">
        <ele>40</ele>
        <time>2021-05-23T10:22:02.983Z</time>
      </trkpt>
      <trkpt lat="47.26771" lon="-2.29129">
        <ele>40</ele>
        <time>2021-05-23T10:22:03.983Z</time>
      </trkpt>
      <trkpt lat="47.2677" lon="-2.2913">
        <ele>40</ele>
        <time>2021-05-23T10:22:04.983Z</time>
      </trkpt>
      <trkpt lat="47.26768" lon="-2.29132">
        <ele>40</ele>
        <time>2021-05-23T10:22:05.982Z</time>
      </trkpt>
      <trkpt lat="47.26767" lon="-2.29133">
        <ele>40</ele>
        <time>2021-05-23T10:22:06.983Z</time>
      </trkpt>
      <trkpt lat="47.26766" lon="-2.29134">
        <ele>39</ele>
        <time>2021-05-23T10:22:07.983Z</time>
      </trkpt>
      <trkpt lat="47.26765" lon="-2.29135">
        <ele>39</ele>
        <time>2021-05-23T10:22:08.983Z</time>
      </trkpt>
      <trkpt lat="47.26764" lon="-2.29136">
        <ele>39</ele>
        <time>2021-05-23T10:22:09.982Z</time>
      </trkpt>
      <trkpt lat="47.26762" lon="-2.29137">
        <ele>39</ele>
        <time>2021-05-23T10:22:10.983Z</time>
      </trkpt>
      <trkpt lat="47.26761" lon="-2.29138">
        <ele>38</ele>
        <time>2021-05-23T10:22:11.982Z</time>
      </trkpt>
      <trkpt lat="47.2676" lon="-2.29139">
        <ele>38</ele>
        <time>2021-05-23T10:22:12.982Z</time>
      </trkpt>
      <trkpt lat="47.26758" lon="-2.29141">
        <ele>38</ele>
        <time>2021-05-23T10:22:13.983Z</time>
      </trkpt>
      <trkpt lat="47.26757" lon="-2.29142">
        <ele>38</ele>
        <time>2021-05-23T10:22:14.983Z</time>
      </trkpt>
      <trkpt lat="47.26755" lon="-2.29143">
        <ele>37</ele>
        <time>2021-05-23T10:22:15.982Z</time>
      </trkpt>
      <trkpt lat="47.26753" lon="-2.29144">
        <ele>37</ele>
        <time>2021-05-23T10:22:16.982Z</time>
      </trkpt>
      <trkpt lat="47.26752" lon="-2.29145">
        <ele>37</ele>
        <time>2021-05-23T10:22:17.982Z</time>
      </trkpt>
      <trkpt lat="47.26751" lon="-2.29147">
        <ele>37</ele>
        <time>2021-05-23T10:22:18.982Z</time>
      </trkpt>
      <trkpt lat="47.26749" lon="-2.29149">
        <ele>38</ele>
        <time>2021-05-23T10:22:19.983Z</time>
      </trkpt>
      <trkpt lat="47.26748" lon="-2.2915">
        <ele>38</ele>
        <time>2021-05-23T10:22:20.983Z</time>
      </trkpt>
      <trkpt lat="47.26746" lon="-2.29151">
        <ele>38</ele>
        <time>2021-05-23T10:22:21.983Z</time>
      </trkpt>
      <trkpt lat="47.26745" lon="-2.29152">
        <ele>37</ele>
        <time>2021-05-23T10:22:22.983Z</time>
      </trkpt>
      <trkpt lat="47.26744" lon="-2.29154">
        <ele>37</ele>
        <time>2021-05-23T10:22:23.983Z</time>
      </trkpt>
      <trkpt lat="47.26742" lon="-2.29155">
        <ele>37</ele>
        <time>2021-05-23T10:22:24.983Z</time>
      </trkpt>
      <trkpt lat="47.26741" lon="-2.29157">
        <ele>37</ele>
        <time>2021-05-23T10:22:25.983Z</time>
      </trkpt>
      <trkpt lat="47.2674" lon="-2.29158">
        <ele>37</ele>
        <time>2021-05-23T10:22:26.983Z</time>
      </trkpt>
      <trkpt lat="47.26739" lon="-2.29159">
        <ele>36</ele>
        <time>2021-05-23T10:22:27.983Z</time>
      </trkpt>
      <trkpt lat="47.26737" lon="-2.2916">
        <ele>36</ele>
        <time>2021-05-23T10:22:28.983Z</time>
      </trkpt>
      <trkpt lat="47.26736" lon="-2.29161">
        <ele>35</ele>
        <time>2021-05-23T10:22:29.983Z</time>
      </trkpt>
      <trkpt lat="47.26734" lon="-2.29162">
        <ele>35</ele>
        <time>2021-05-23T10:22:30.983Z</time>
      </trkpt>
      <trkpt lat="47.26732" lon="-2.29163">
        <ele>35</ele>
        <time>2021-05-23T10:22:31.983Z</time>
      </trkpt>
      <trkpt lat="47.26731" lon="-2.29165">
        <ele>35</ele>
        <time>2021-05-23T10:22:32.983Z</time>
      </trkpt>
      <trkpt lat="47.26729" lon="-2.29167">
        <ele>35</ele>
        <time>2021-05-23T10:22:33.983Z</time>
      </trkpt>
      <trkpt lat="47.26728" lon="-2.29169">
        <ele>36</ele>
        <time>2021-05-23T10:22:34.982Z</time>
      </trkpt>
      <trkpt lat="47.26726" lon="-2.29171">
        <ele>36</ele>
        <time>2021-05-23T10:22:35.982Z</time>
      </trkpt>
      <trkpt lat="47.26725" lon="-2.29173">
        <ele>36</ele>
        <time>2021-05-23T10:22:36.982Z</time>
      </trkpt>
      <trkpt lat="47.26724" lon="-2.29174">
        <ele>36</ele>
        <time>2021-05-23T10:22:37.983Z</time>
      </trkpt>
      <trkpt lat="47.26722" lon="-2.29175">
        <ele>37</ele>
        <time>2021-05-23T10:22:38.982Z</time>
      </trkpt>
      <trkpt lat="47.26721" lon="-2.29176">
        <ele>37</ele>
        <time>2021-05-23T10:22:39.983Z</time>
      </trkpt>
      <trkpt lat="47.2672" lon="-2.29177">
        <ele>37</ele>
        <time>2021-05-23T10:22:40.982Z</time>
      </trkpt>
      <trkpt lat="47.26719" lon="-2.29178">
        <ele>38</ele>
        <time>2021-05-23T10:22:41.983Z</time>
      </trkpt>
      <trkpt lat="47.26718" lon="-2.29179">
        <ele>39</ele>
        <time>2021-05-23T10:22:42.982Z</time>
      </trkpt>
      <trkpt lat="47.26716" lon="-2.2918">
        <ele>39</ele>
        <time>2021-05-23T10:22:43.983Z</time>
      </trkpt>
      <trkpt lat="47.26714" lon="-2.29181">
        <ele>40</ele>
        <time>2021-05-23T10:22:44.983Z</time>
      </trkpt>
      <trkpt lat="47.26713" lon="-2.29183">
        <ele>40</ele>
        <time>2021-05-23T10:22:45.983Z</time>
      </trkpt>
      <trkpt lat="47.26711" lon="-2.29185">
        <ele>41</ele>
        <time>2021-05-23T10:22:46.983Z</time>
      </trkpt>
      <trkpt lat="47.26709" lon="-2.29186">
        <ele>41</ele>
        <time>2021-05-23T10:22:47.983Z</time>
      </trkpt>
      <trkpt lat="47.26707" lon="-2.29188">
        <ele>41</ele>
        <time>2021-05-23T10:22:48.983Z</time>
      </trkpt>
      <trkpt lat="47.26706" lon="-2.29189">
        <ele>41</ele>
        <time>2021-05-23T10:22:49.983Z</time>
      </trkpt>
      <trkpt lat="47.26705" lon="-2.29191">
        <ele>41</ele>
        <time>2021-05-23T10:22:50.983Z</time>
      </trkpt>
      <trkpt lat="47.26703" lon="-2.29192">
        <ele>41</ele>
        <time>2021-05-23T10:22:51.983Z</time>
      </trkpt>
      <trkpt lat="47.26702" lon="-2.29194">
        <ele>41</ele>
        <time>2021-05-23T10:22:52.982Z</time>
      </trkpt>
      <trkpt lat="47.26701" lon="-2.29196">
        <ele>41</ele>
        <time>2021-05-23T10:22:53.983Z</time>
      </trkpt>
      <trkpt lat="47.26699" lon="-2.29197">
        <ele>41</ele>
        <time>2021-05-23T10:22:54.983Z</time>
      </trkpt>
      <trkpt lat="47.26698" lon="-2.29198">
        <ele>41</ele>
        <time>2021-05-23T10:22:55.983Z</time>
      </trkpt>
      <trkpt lat="47.26697" lon="-2.292">
        <ele>41</ele>
        <time>2021-05-23T10:22:56.983Z</time>
      </trkpt>
      <trkpt lat="47.26695" lon="-2.29202">
        <ele>41</ele>
        <time>2021-05-23T10:22:57.982Z</time>
      </trkpt>
      <trkpt lat="47.26694" lon="-2.29204">
        <ele>41</ele>
        <time>2021-05-23T10:22:58.982Z</time>
      </trkpt>
      <trkpt lat="47.26693" lon="-2.29205">
        <ele>41</ele>
        <time>2021-05-23T10:22:59.983Z</time>
      </trkpt>
      <trkpt lat="47.26691" lon="-2.29206">
        <ele>41</ele>
        <time>2021-05-23T10:23:00.983Z</time>
      </trkpt>
      <trkpt lat="47.2669" lon="-2.29208">
        <ele>41</ele>
        <time>2021-05-23T10:23:01.983Z</time>
      </trkpt>
      <trkpt lat="47.26689" lon="-2.2921">
        <ele>41</ele>
        <time>2021-05-23T10:23:02.982Z</time>
      </trkpt>
      <trkpt lat="47.26688" lon="-2.29212">
        <ele>40</ele>
        <time>2021-05-23T10:23:03.983Z</time>
      </trkpt>
      <trkpt lat="47.26686" lon="-2.29213">
        <ele>40</ele>
        <time>2021-05-23T10:23:04.982Z</time>
      </trkpt>
      <trkpt lat="47.26685" lon="-2.29214">
        <ele>40</ele>
        <time>2021-05-23T10:23:05.983Z</time>
      </trkpt>
      <trkpt lat="47.26684" lon="-2.29216">
        <ele>40</ele>
        <time>2021-05-23T10:23:06.982Z</time>
      </trkpt>
      <trkpt lat="47.26683" lon="-2.29217">
        <ele>40</ele>
        <time>2021-05-23T10:23:07.983Z</time>
      </trkpt>
      <trkpt lat="47.26682" lon="-2.29218">
        <ele>40</ele>
        <time>2021-05-23T10:23:08.983Z</time>
      </trkpt>
      <trkpt lat="47.26681" lon="-2.29219">
        <ele>40</ele>
        <time>2021-05-23T10:23:09.983Z</time>
      </trkpt>
      <trkpt lat="47.2668" lon="-2.2922">
        <ele>40</ele>
        <time>2021-05-23T10:23:10.983Z</time>
      </trkpt>
      <trkpt lat="47.26678" lon="-2.29222">
        <ele>39</ele>
        <time>2021-05-23T10:23:11.983Z</time>
      </trkpt>
      <trkpt lat="47.26677" lon="-2.29223">
        <ele>39</ele>
        <time>2021-05-23T10:23:12.982Z</time>
      </trkpt>
      <trkpt lat="47.26675" lon="-2.29225">
        <ele>39</ele>
        <time>2021-05-23T10:23:13.983Z</time>
      </trkpt>
      <trkpt lat="47.26674" lon="-2.29226">
        <ele>39</ele>
        <time>2021-05-23T10:23:14.983Z</time>
      </trkpt>
      <trkpt lat="47.26672" lon="-2.29228">
        <ele>39</ele>
        <time>2021-05-23T10:23:15.983Z</time>
      </trkpt>
      <trkpt lat="47.26671" lon="-2.29229">
        <ele>39</ele>
        <time>2021-05-23T10:23:16.983Z</time>
      </trkpt>
      <trkpt lat="47.2667" lon="-2.29231">
        <ele>40</ele>
        <time>2021-05-23T10:23:17.983Z</time>
      </trkpt>
      <trkpt lat="47.26669" lon="-2.29232">
        <ele>40</ele>
        <time>2021-05-23T10:23:18.983Z</time>
      </trkpt>
      <trkpt lat="47.26667" lon="-2.29233">
        <ele>40</ele>
        <time>2021-05-23T10:23:19.983Z</time>
      </trkpt>
      <trkpt lat="47.26666" lon="-2.29235">
        <ele>40</ele>
        <time>2021-05-23T10:23:20.982Z</time>
      </trkpt>
      <trkpt lat="47.26665" lon="-2.29236">
        <ele>40</ele>
        <time>2021-05-23T10:23:21.982Z</time>
      </trkpt>
      <trkpt lat="47.26663" lon="-2.29238">
        <ele>40</ele>
        <time>2021-05-23T10:23:22.983Z</time>
      </trkpt>
      <trkpt lat="47.26662" lon="-2.29239">
        <ele>41</ele>
        <time>2021-05-23T10:23:23.982Z</time>
      </trkpt>
      <trkpt lat="47.2666" lon="-2.2924">
        <ele>41</ele>
        <time>2021-05-23T10:23:24.983Z</time>
      </trkpt>
      <trkpt lat="47.26659" lon="-2.29241">
        <ele>42</ele>
        <time>2021-05-23T10:23:25.983Z</time>
      </trkpt>
      <trkpt lat="47.26657" lon="-2.29243">
        <ele>42</ele>
        <time>2021-05-23T10:23:26.982Z</time>
      </trkpt>
      <trkpt lat="47.26656" lon="-2.29244">
        <ele>43</ele>
        <time>2021-05-23T10:23:27.982Z</time>
      </trkpt>
      <trkpt lat="47.26655" lon="-2.29245">
        <ele>43</ele>
        <time>2021-05-23T10:23:28.983Z</time>
      </trkpt>
      <trkpt lat="47.26653" lon="-2.29246">
        <ele>43</ele>
        <time>2021-05-23T10:23:29.983Z</time>
      </trkpt>
      <trkpt lat="47.26652" lon="-2.29247">
        <ele>44</ele>
        <time>2021-05-23T10:23:30.983Z</time>
      </trkpt>
      <trkpt lat="47.2665" lon="-2.29249">
        <ele>44</ele>
        <time>2021-05-23T10:23:31.983Z</time>
      </trkpt>
      <trkpt lat="47.26649" lon="-2.2925">
        <ele>44</ele>
        <time>2021-05-23T10:23:32.983Z</time>
      </trkpt>
      <trkpt lat="47.26648" lon="-2.29251">
        <ele>44</ele>
        <time>2021-05-23T10:23:33.983Z</time>
      </trkpt>
      <trkpt lat="47.26646" lon="-2.29253">
        <ele>45</ele>
        <time>2021-05-23T10:23:34.983Z</time>
      </trkpt>
      <trkpt lat="47.26645" lon="-2.29254">
        <ele>45</ele>
        <time>2021-05-23T10:23:35.982Z</time>
      </trkpt>
      <trkpt lat="47.26644" lon="-2.29255">
        <ele>44</ele>
        <time>2021-05-23T10:23:36.983Z</time>
      </trkpt>
      <trkpt lat="47.26642" lon="-2.29256">
        <ele>44</ele>
        <time>2021-05-23T10:23:37.983Z</time>
      </trkpt>
      <trkpt lat="47.26641" lon="-2.29258">
        <ele>44</ele>
        <time>2021-05-23T10:23:38.983Z</time>
      </trkpt>
      <trkpt lat="47.2664" lon="-2.29259">
        <ele>43</ele>
        <time>2021-05-23T10:23:39.983Z</time>
      </trkpt>
      <trkpt lat="47.26638" lon="-2.2926">
        <ele>43</ele>
        <time>2021-05-23T10:23:40.983Z</time>
      </trkpt>
      <trkpt lat="47.26637" lon="-2.29262">
        <ele>43</ele>
        <time>2021-05-23T10:23:41.983Z</time>
      </trkpt>
      <trkpt lat="47.26635" lon="-2.29263">
        <ele>43</ele>
        <time>2021-05-23T10:23:42.983Z</time>
      </trkpt>
      <trkpt lat="47.26634" lon="-2.29264">
        <ele>43</ele>
        <time>2021-05-23T10:23:43.982Z</time>
      </trkpt>
      <trkpt lat="47.26632" lon="-2.29265">
        <ele>43</ele>
        <time>2021-05-23T10:23:44.983Z</time>
      </trkpt>
      <trkpt lat="47.26631" lon="-2.29266">
        <ele>43</ele>
        <time>2021-05-23T10:23:45.983Z</time>
      </trkpt>
      <trkpt lat="47.26629" lon="-2.29267">
        <ele>43</ele>
        <time>2021-05-23T10:23:46.982Z</time>
      </trkpt>
      <trkpt lat="47.26628" lon="-2.29268">
        <ele>44</ele>
        <time>2021-05-23T10:23:47.983Z</time>
      </trkpt>
      <trkpt lat="47.26627" lon="-2.29269">
        <ele>44</ele>
        <time>2021-05-23T10:23:48.983Z</time>
      </trkpt>
      <trkpt lat="47.26625" lon="-2.2927">
        <ele>44</ele>
        <time>2021-05-23T10:23:49.983Z</time>
      </trkpt>
      <trkpt lat="47.26624" lon="-2.29271">
        <ele>44</ele>
        <time>2021-05-23T10:23:50.983Z</time>
      </trkpt>
      <trkpt lat="47.26622" lon="-2.29272">
        <ele>44</ele>
        <time>2021-05-23T10:23:51.983Z</time>
      </trkpt>
      <trkpt lat="47.26621" lon="-2.29273">
        <ele>44</ele>
        <time>2021-05-23T10:23:52.983Z</time>
      </trkpt>
      <trkpt lat="47.2662" lon="-2.29274">
        <ele>44</ele>
        <time>2021-05-23T10:23:53.983Z</time>
      </trkpt>
      <trkpt lat="47.26618" lon="-2.29275">
        <ele>44</ele>
        <time>2021-05-23T10:23:54.983Z</time>
      </trkpt>
      <trkpt lat="47.26617" lon="-2.29276">
        <ele>44</ele>
        <time>2021-05-23T10:23:55.983Z</time>
      </trkpt>
      <trkpt lat="47.26615" lon="-2.29277">
        <ele>44</ele>
        <time>2021-05-23T10:23:56.983Z</time>
      </trkpt>
      <trkpt lat="47.26613" lon="-2.29278">
        <ele>44</ele>
        <time>2021-05-23T10:23:57.983Z</time>
      </trkpt>
      <trkpt lat="47.26612" lon="-2.29279">
        <ele>44</ele>
        <time>2021-05-23T10:23:58.983Z</time>
      </trkpt>
      <trkpt lat="47.2661" lon="-2.2928">
        <ele>44</ele>
        <time>2021-05-23T10:23:59.983Z</time>
      </trkpt>
      <trkpt lat="47.26609" lon="-2.29281">
        <ele>45</ele>
        <time>2021-05-23T10:24:00.982Z</time>
      </trkpt>
      <trkpt lat="47.26607" lon="-2.29281">
        <ele>45</ele>
        <time>2021-05-23T10:24:01.983Z</time>
      </trkpt>
      <trkpt lat="47.26605" lon="-2.29282">
        <ele>45</ele>
        <time>2021-05-23T10:24:02.983Z</time>
      </trkpt>
      <trkpt lat="47.26604" lon="-2.29283">
        <ele>46</ele>
        <time>2021-05-23T10:24:03.982Z</time>
      </trkpt>
      <trkpt lat="47.26603" lon="-2.29283">
        <ele>46</ele>
        <time>2021-05-23T10:24:04.983Z</time>
      </trkpt>
      <trkpt lat="47.26601" lon="-2.29284">
        <ele>46</ele>
        <time>2021-05-23T10:24:05.982Z</time>
      </trkpt>
      <trkpt lat="47.266" lon="-2.29285">
        <ele>46</ele>
        <time>2021-05-23T10:24:06.983Z</time>
      </trkpt>
      <trkpt lat="47.26598" lon="-2.29286">
        <ele>46</ele>
        <time>2021-05-23T10:24:07.983Z</time>
      </trkpt>
      <trkpt lat="47.26597" lon="-2.29287">
        <ele>46</ele>
        <time>2021-05-23T10:24:08.983Z</time>
      </trkpt>
      <trkpt lat="47.26595" lon="-2.29288">
        <ele>46</ele>
        <time>2021-05-23T10:24:09.983Z</time>
      </trkpt>
      <trkpt lat="47.26594" lon="-2.29289">
        <ele>45</ele>
        <time>2021-05-23T10:24:10.983Z</time>
      </trkpt>
      <trkpt lat="47.26592" lon="-2.29289">
        <ele>45</ele>
        <time>2021-05-23T10:24:11.982Z</time>
      </trkpt>
      <trkpt lat="47.2659" lon="-2.2929">
        <ele>44</ele>
        <time>2021-05-23T10:24:12.983Z</time>
      </trkpt>
      <trkpt lat="47.26589" lon="-2.29291">
        <ele>44</ele>
        <time>2021-05-23T10:24:13.983Z</time>
      </trkpt>
      <trkpt lat="47.26587" lon="-2.29292">
        <ele>44</ele>
        <time>2021-05-23T10:24:14.983Z</time>
      </trkpt>
      <trkpt lat="47.26586" lon="-2.29293">
        <ele>44</ele>
        <time>2021-05-23T10:24:15.983Z</time>
      </trkpt>
      <trkpt lat="47.26585" lon="-2.29294">
        <ele>44</ele>
        <time>2021-05-23T10:24:16.983Z</time>
      </trkpt>
      <trkpt lat="47.26583" lon="-2.29294">
        <ele>44</ele>
        <time>2021-05-23T10:24:17.983Z</time>
      </trkpt>
      <trkpt lat="47.26582" lon="-2.29295">
        <ele>45</ele>
        <time>2021-05-23T10:24:18.983Z</time>
      </trkpt>
      <trkpt lat="47.2658" lon="-2.29296">
        <ele>45</ele>
        <time>2021-05-23T10:24:19.983Z</time>
      </trkpt>
      <trkpt lat="47.26579" lon="-2.29297">
        <ele>45</ele>
        <time>2021-05-23T10:24:20.983Z</time>
      </trkpt>
      <trkpt lat="47.26577" lon="-2.29298">
        <ele>45</ele>
        <time>2021-05-23T10:24:21.983Z</time>
      </trkpt>
      <trkpt lat="47.26575" lon="-2.29299">
        <ele>45</ele>
        <time>2021-05-23T10:24:22.982Z</time>
      </trkpt>
      <trkpt lat="47.26574" lon="-2.293">
        <ele>45</ele>
        <time>2021-05-23T10:24:23.983Z</time>
      </trkpt>
      <trkpt lat="47.26572" lon="-2.29301">
        <ele>44</ele>
        <time>2021-05-23T10:24:24.983Z</time>
      </trkpt>
      <trkpt lat="47.26571" lon="-2.29302">
        <ele>44</ele>
        <time>2021-05-23T10:24:25.983Z</time>
      </trkpt>
      <trkpt lat="47.2657" lon="-2.29303">
        <ele>44</ele>
        <time>2021-05-23T10:24:26.983Z</time>
      </trkpt>
      <trkpt lat="47.26568" lon="-2.29304">
        <ele>44</ele>
        <time>2021-05-23T10:24:27.982Z</time>
      </trkpt>
      <trkpt lat="47.26567" lon="-2.29304">
        <ele>44</ele>
        <time>2021-05-23T10:24:28.983Z</time>
      </trkpt>
      <trkpt lat="47.26565" lon="-2.29305">
        <ele>44</ele>
        <time>2021-05-23T10:24:29.983Z</time>
      </trkpt>
      <trkpt lat="47.26564" lon="-2.29306">
        <ele>44</ele>
        <time>2021-05-23T10:24:30.983Z</time>
      </trkpt>
      <trkpt lat="47.26563" lon="-2.29307">
        <ele>45</ele>
        <time>2021-05-23T10:24:31.983Z</time>
      </trkpt>
      <trkpt lat="47.26561" lon="-2.29308">
        <ele>46</ele>
        <time>2021-05-23T10:24:32.982Z</time>
      </trkpt>
      <trkpt lat="47.26559" lon="-2.29309">
        <ele>46</ele>
        <time>2021-05-23T10:24:33.983Z</time>
      </trkpt>
      <trkpt lat="47.26558" lon="-2.29309">
        <ele>47</ele>
        <time>2021-05-23T10:24:34.983Z</time>
      </trkpt>
      <trkpt lat="47.26556" lon="-2.2931">
        <ele>47</ele>
        <time>2021-05-23T10:24:35.983Z</time>
      </trkpt>
      <trkpt lat="47.26554" lon="-2.29311">
        <ele>48</ele>
        <time>2021-05-23T10:24:36.983Z</time>
      </trkpt>
      <trkpt lat="47.26553" lon="-2.29312">
        <ele>48</ele>
        <time>2021-05-23T10:24:37.982Z</time>
      </trkpt>
      <trkpt lat="47.26551" lon="-2.29313">
        <ele>48</ele>
        <time>2021-05-23T10:24:38.983Z</time>
      </trkpt>
      <trkpt lat="47.2655" lon="-2.29314">
        <ele>47</ele>
        <time>2021-05-23T10:24:39.982Z</time>
      </trkpt>
      <trkpt lat="47.26548" lon="-2.29315">
        <ele>47</ele>
        <time>2021-05-23T10:24:40.983Z</time>
      </trkpt>
      <trkpt lat="47.26547" lon="-2.29316">
        <ele>46</ele>
        <time>2021-05-23T10:24:41.983Z</time>
      </trkpt>
      <trkpt lat="47.26545" lon="-2.29317">
        <ele>45</ele>
        <time>2021-05-23T10:24:42.983Z</time>
      </trkpt>
      <trkpt lat="47.26544" lon="-2.29317">
        <ele>45</ele>
        <time>2021-05-23T10:24:43.983Z</time>
      </trkpt>
      <trkpt lat="47.26542" lon="-2.29318">
        <ele>44</ele>
        <time>2021-05-23T10:24:44.983Z</time>
      </trkpt>
      <trkpt lat="47.26541" lon="-2.29319">
        <ele>44</ele>
        <time>2021-05-23T10:24:45.983Z</time>
      </trkpt>
      <trkpt lat="47.26539" lon="-2.2932">
        <ele>44</ele>
        <time>2021-05-23T10:24:46.983Z</time>
      </trkpt>
      <trkpt lat="47.26538" lon="-2.29321">
        <ele>43</ele>
        <time>2021-05-23T10:24:47.983Z</time>
      </trkpt>
      <trkpt lat="47.26536" lon="-2.29321">
        <ele>43</ele>
        <time>2021-05-23T10:24:48.983Z</time>
      </trkpt>
      <trkpt lat="47.26535" lon="-2.29322">
        <ele>43</ele>
        <time>2021-05-23T10:24:49.983Z</time>
      </trkpt>
      <trkpt lat="47.26533" lon="-2.29323">
        <ele>43</ele>
        <time>2021-05-23T10:24:50.983Z</time>
      </trkpt>
      <trkpt lat="47.26532" lon="-2.29324">
        <ele>43</ele>
        <time>2021-05-23T10:24:51.983Z</time>
      </trkpt>
      <trkpt lat="47.26531" lon="-2.29325">
        <ele>43</ele>
        <time>2021-05-23T10:24:52.983Z</time>
      </trkpt>
      <trkpt lat="47.2653" lon="-2.29326">
        <ele>43</ele>
        <time>2021-05-23T10:24:53.983Z</time>
      </trkpt>
      <trkpt lat="47.26528" lon="-2.29326">
        <ele>43</ele>
        <time>2021-05-23T10:24:54.983Z</time>
      </trkpt>
      <trkpt lat="47.26526" lon="-2.29327">
        <ele>42</ele>
        <time>2021-05-23T10:24:55.982Z</time>
      </trkpt>
      <trkpt lat="47.26525" lon="-2.29328">
        <ele>42</ele>
        <time>2021-05-23T10:24:56.983Z</time>
      </trkpt>
      <trkpt lat="47.26524" lon="-2.29329">
        <ele>42</ele>
        <time>2021-05-23T10:24:57.983Z</time>
      </trkpt>
      <trkpt lat="47.26523" lon="-2.2933">
        <ele>42</ele>
        <time>2021-05-23T10:24:58.983Z</time>
      </trkpt>
      <trkpt lat="47.26522" lon="-2.29331">
        <ele>43</ele>
        <time>2021-05-23T10:24:59.982Z</time>
      </trkpt>
      <trkpt lat="47.2652" lon="-2.29332">
        <ele>43</ele>
        <time>2021-05-23T10:25:00.982Z</time>
      </trkpt>
      <trkpt lat="47.26519" lon="-2.29333">
        <ele>43</ele>
        <time>2021-05-23T10:25:01.983Z</time>
      </trkpt>
      <trkpt lat="47.26517" lon="-2.29335">
        <ele>44</ele>
        <time>2021-05-23T10:25:02.983Z</time>
      </trkpt>
      <trkpt lat="47.26516" lon="-2.29335">
        <ele>44</ele>
        <time>2021-05-23T10:25:03.983Z</time>
      </trkpt>
      <trkpt lat="47.26514" lon="-2.29335">
        <ele>44</ele>
        <time>2021-05-23T10:25:04.983Z</time>
      </trkpt>
      <trkpt lat="47.26512" lon="-2.29336">
        <ele>44</ele>
        <time>2021-05-23T10:25:05.983Z</time>
      </trkpt>
      <trkpt lat="47.26511" lon="-2.29336">
        <ele>44</ele>
        <time>2021-05-23T10:25:06.983Z</time>
      </trkpt>
      <trkpt lat="47.2651" lon="-2.29337">
        <ele>45</ele>
        <time>2021-05-23T10:25:07.982Z</time>
      </trkpt>
      <trkpt lat="47.26508" lon="-2.29337">
        <ele>45</ele>
        <time>2021-05-23T10:25:08.982Z</time>
      </trkpt>
      <trkpt lat="47.26506" lon="-2.29338">
        <ele>46</ele>
        <time>2021-05-23T10:25:09.982Z</time>
      </trkpt>
      <trkpt lat="47.26504" lon="-2.29338">
        <ele>46</ele>
        <time>2021-05-23T10:25:10.983Z</time>
      </trkpt>
      <trkpt lat="47.26503" lon="-2.29339">
        <ele>46</ele>
        <time>2021-05-23T10:25:11.983Z</time>
      </trkpt>
      <trkpt lat="47.26501" lon="-2.29339">
        <ele>46</ele>
        <time>2021-05-23T10:25:12.982Z</time>
      </trkpt>
      <trkpt lat="47.265" lon="-2.29339">
        <ele>46</ele>
        <time>2021-05-23T10:25:13.983Z</time>
      </trkpt>
      <trkpt lat="47.26498" lon="-2.2934">
        <ele>46</ele>
        <time>2021-05-23T10:25:14.982Z</time>
      </trkpt>
      <trkpt lat="47.26497" lon="-2.2934">
        <ele>46</ele>
        <time>2021-05-23T10:25:15.983Z</time>
      </trkpt>
      <trkpt lat="47.26495" lon="-2.2934">
        <ele>46</ele>
        <time>2021-05-23T10:25:16.983Z</time>
      </trkpt>
      <trkpt lat="47.26493" lon="-2.2934">
        <ele>46</ele>
        <time>2021-05-23T10:25:17.982Z</time>
      </trkpt>
      <trkpt lat="47.26492" lon="-2.2934">
        <ele>46</ele>
        <time>2021-05-23T10:25:18.983Z</time>
      </trkpt>
      <trkpt lat="47.2649" lon="-2.29341">
        <ele>46</ele>
        <time>2021-05-23T10:25:19.983Z</time>
      </trkpt>
      <trkpt lat="47.26489" lon="-2.29341">
        <ele>46</ele>
        <time>2021-05-23T10:25:20.983Z</time>
      </trkpt>
      <trkpt lat="47.26487" lon="-2.29341">
        <ele>46</ele>
        <time>2021-05-23T10:25:21.983Z</time>
      </trkpt>
      <trkpt lat="47.26486" lon="-2.29341">
        <ele>46</ele>
        <time>2021-05-23T10:25:22.983Z</time>
      </trkpt>
      <trkpt lat="47.26484" lon="-2.29341">
        <ele>46</ele>
        <time>2021-05-23T10:25:23.983Z</time>
      </trkpt>
      <trkpt lat="47.26483" lon="-2.29341">
        <ele>45</ele>
        <time>2021-05-23T10:25:24.983Z</time>
      </trkpt>
      <trkpt lat="47.26481" lon="-2.29341">
        <ele>45</ele>
        <time>2021-05-23T10:25:25.982Z</time>
      </trkpt>
      <trkpt lat="47.26479" lon="-2.29341">
        <ele>44</ele>
        <time>2021-05-23T10:25:26.983Z</time>
      </trkpt>
      <trkpt lat="47.26478" lon="-2.29341">
        <ele>44</ele>
        <time>2021-05-23T10:25:27.983Z</time>
      </trkpt>
      <trkpt lat="47.26476" lon="-2.29341">
        <ele>44</ele>
        <time>2021-05-23T10:25:28.983Z</time>
      </trkpt>
      <trkpt lat="47.26474" lon="-2.2934">
        <ele>43</ele>
        <time>2021-05-23T10:25:29.982Z</time>
      </trkpt>
      <trkpt lat="47.26472" lon="-2.29339">
        <ele>43</ele>
        <time>2021-05-23T10:25:30.983Z</time>
      </trkpt>
      <trkpt lat="47.26469" lon="-2.29338">
        <ele>43</ele>
        <time>2021-05-23T10:25:31.983Z</time>
      </trkpt>
      <trkpt lat="47.26467" lon="-2.29338">
        <ele>43</ele>
        <time>2021-05-23T10:25:32.982Z</time>
      </trkpt>
      <trkpt lat="47.26464" lon="-2.29337">
        <ele>43</ele>
        <time>2021-05-23T10:25:33.983Z</time>
      </trkpt>
      <trkpt lat="47.26461" lon="-2.29335">
        <ele>42</ele>
        <time>2021-05-23T10:25:34.983Z</time>
      </trkpt>
      <trkpt lat="47.26459" lon="-2.29334">
        <ele>41</ele>
        <time>2021-05-23T10:25:35.982Z</time>
      </trkpt>
      <trkpt lat="47.26456" lon="-2.29332">
        <ele>41</ele>
        <time>2021-05-23T10:25:36.983Z</time>
      </trkpt>
      <trkpt lat="47.26453" lon="-2.29331">
        <ele>41</ele>
        <time>2021-05-23T10:25:37.982Z</time>
      </trkpt>
      <trkpt lat="47.26451" lon="-2.2933">
        <ele>41</ele>
        <time>2021-05-23T10:25:38.982Z</time>
      </trkpt>
      <trkpt lat="47.26448" lon="-2.29329">
        <ele>41</ele>
        <time>2021-05-23T10:25:39.983Z</time>
      </trkpt>
      <trkpt lat="47.26446" lon="-2.29327">
        <ele>41</ele>
        <time>2021-05-23T10:25:40.983Z</time>
      </trkpt>
      <trkpt lat="47.26443" lon="-2.29326">
        <ele>41</ele>
        <time>2021-05-23T10:25:41.982Z</time>
      </trkpt>
      <trkpt lat="47.26441" lon="-2.29325">
        <ele>41</ele>
        <time>2021-05-23T10:25:42.982Z</time>
      </trkpt>
      <trkpt lat="47.26439" lon="-2.29324">
        <ele>41</ele>
        <time>2021-05-23T10:25:43.983Z</time>
      </trkpt>
      <trkpt lat="47.26437" lon="-2.29323">
        <ele>41</ele>
        <time>2021-05-23T10:25:44.983Z</time>
      </trkpt>
      <trkpt lat="47.26435" lon="-2.2932">
        <ele>41</ele>
        <time>2021-05-23T10:25:45.982Z</time>
      </trkpt>
      <trkpt lat="47.26434" lon="-2.29317">
        <ele>41</ele>
        <time>2021-05-23T10:25:46.983Z</time>
      </trkpt>
      <trkpt lat="47.2643" lon="-2.29315">
        <ele>41</ele>
        <time>2021-05-23T10:25:47.982Z</time>
      </trkpt>
      <trkpt lat="47.26428" lon="-2.29314">
        <ele>41</ele>
        <time>2021-05-23T10:25:48.982Z</time>
      </trkpt>
      <trkpt lat="47.26425" lon="-2.29314">
        <ele>41</ele>
        <time>2021-05-23T10:25:49.983Z</time>
      </trkpt>
      <trkpt lat="47.26423" lon="-2.29313">
        <ele>41</ele>
        <time>2021-05-23T10:25:50.983Z</time>
      </trkpt>
      <trkpt lat="47.26421" lon="-2.29312">
        <ele>41</ele>
        <time>2021-05-23T10:25:51.983Z</time>
      </trkpt>
      <trkpt lat="47.26418" lon="-2.29311">
        <ele>42</ele>
        <time>2021-05-23T10:25:52.983Z</time>
      </trkpt>
      <trkpt lat="47.26415" lon="-2.29309">
        <ele>42</ele>
        <time>2021-05-23T10:25:53.982Z</time>
      </trkpt>
      <trkpt lat="47.26413" lon="-2.29308">
        <ele>42</ele>
        <time>2021-05-23T10:25:54.982Z</time>
      </trkpt>
      <trkpt lat="47.26411" lon="-2.29306">
        <ele>42</ele>
        <time>2021-05-23T10:25:55.982Z</time>
      </trkpt>
      <trkpt lat="47.26409" lon="-2.29304">
        <ele>42</ele>
        <time>2021-05-23T10:25:56.983Z</time>
      </trkpt>
      <trkpt lat="47.26406" lon="-2.29303">
        <ele>42</ele>
        <time>2021-05-23T10:25:57.982Z</time>
      </trkpt>
      <trkpt lat="47.26404" lon="-2.29302">
        <ele>42</ele>
        <time>2021-05-23T10:25:58.982Z</time>
      </trkpt>
      <trkpt lat="47.26402" lon="-2.29301">
        <ele>42</ele>
        <time>2021-05-23T10:25:59.983Z</time>
      </trkpt>
      <trkpt lat="47.264" lon="-2.293">
        <ele>42</ele>
        <time>2021-05-23T10:26:00.983Z</time>
      </trkpt>
      <trkpt lat="47.26398" lon="-2.29298">
        <ele>42</ele>
        <time>2021-05-23T10:26:01.983Z</time>
      </trkpt>
      <trkpt lat="47.26396" lon="-2.29298">
        <ele>41</ele>
        <time>2021-05-23T10:26:02.983Z</time>
      </trkpt>
      <trkpt lat="47.26394" lon="-2.29297">
        <ele>41</ele>
        <time>2021-05-23T10:26:03.983Z</time>
      </trkpt>
      <trkpt lat="47.26392" lon="-2.29295">
        <ele>40</ele>
        <time>2021-05-23T10:26:04.983Z</time>
      </trkpt>
      <trkpt lat="47.26389" lon="-2.29295">
        <ele>39</ele>
        <time>2021-05-23T10:26:05.983Z</time>
      </trkpt>
      <trkpt lat="47.26387" lon="-2.29294">
        <ele>39</ele>
        <time>2021-05-23T10:26:06.983Z</time>
      </trkpt>
      <trkpt lat="47.26385" lon="-2.29293">
        <ele>38</ele>
        <time>2021-05-23T10:26:07.983Z</time>
      </trkpt>
      <trkpt lat="47.26382" lon="-2.29291">
        <ele>37</ele>
        <time>2021-05-23T10:26:08.982Z</time>
      </trkpt>
      <trkpt lat="47.2638" lon="-2.29289">
        <ele>37</ele>
        <time>2021-05-23T10:26:09.983Z</time>
      </trkpt>
      <trkpt lat="47.26377" lon="-2.29287">
        <ele>36</ele>
        <time>2021-05-23T10:26:10.983Z</time>
      </trkpt>
      <trkpt lat="47.26375" lon="-2.29286">
        <ele>36</ele>
        <time>2021-05-23T10:26:11.983Z</time>
      </trkpt>
      <trkpt lat="47.26373" lon="-2.29284">
        <ele>36</ele>
        <time>2021-05-23T10:26:12.982Z</time>
      </trkpt>
      <trkpt lat="47.2637" lon="-2.29282">
        <ele>36</ele>
        <time>2021-05-23T10:26:13.982Z</time>
      </trkpt>
      <trkpt lat="47.26368" lon="-2.2928">
        <ele>36</ele>
        <time>2021-05-23T10:26:14.983Z</time>
      </trkpt>
      <trkpt lat="47.26366" lon="-2.29279">
        <ele>36</ele>
        <time>2021-05-23T10:26:15.983Z</time>
      </trkpt>
      <trkpt lat="47.26364" lon="-2.29278">
        <ele>37</ele>
        <time>2021-05-23T10:26:16.983Z</time>
      </trkpt>
      <trkpt lat="47.26362" lon="-2.29276">
        <ele>37</ele>
        <time>2021-05-23T10:26:17.982Z</time>
      </trkpt>
      <trkpt lat="47.2636" lon="-2.29275">
        <ele>38</ele>
        <time>2021-05-23T10:26:18.982Z</time>
      </trkpt>
      <trkpt lat="47.26357" lon="-2.29274">
        <ele>38</ele>
        <time>2021-05-23T10:26:19.983Z</time>
      </trkpt>
      <trkpt lat="47.26354" lon="-2.29273">
        <ele>38</ele>
        <time>2021-05-23T10:26:20.983Z</time>
      </trkpt>
      <trkpt lat="47.26352" lon="-2.29272">
        <ele>39</ele>
        <time>2021-05-23T10:26:21.982Z</time>
      </trkpt>
      <trkpt lat="47.2635" lon="-2.29272">
        <ele>39</ele>
        <time>2021-05-23T10:26:22.983Z</time>
      </trkpt>
      <trkpt lat="47.26347" lon="-2.29272">
        <ele>39</ele>
        <time>2021-05-23T10:26:23.982Z</time>
      </trkpt>
      <trkpt lat="47.26345" lon="-2.29272">
        <ele>39</ele>
        <time>2021-05-23T10:26:24.983Z</time>
      </trkpt>
      <trkpt lat="47.26342" lon="-2.29271">
        <ele>40</ele>
        <time>2021-05-23T10:26:25.983Z</time>
      </trkpt>
      <trkpt lat="47.2634" lon="-2.29271">
        <ele>40</ele>
        <time>2021-05-23T10:26:26.983Z</time>
      </trkpt>
      <trkpt lat="47.26338" lon="-2.2927">
        <ele>40</ele>
        <time>2021-05-23T10:26:27.982Z</time>
      </trkpt>
      <trkpt lat="47.26335" lon="-2.2927">
        <ele>39</ele>
        <time>2021-05-23T10:26:28.983Z</time>
      </trkpt>
      <trkpt lat="47.26333" lon="-2.2927">
        <ele>39</ele>
        <time>2021-05-23T10:26:29.983Z</time>
      </trkpt>
      <trkpt lat="47.2633" lon="-2.2927">
        <ele>38</ele>
        <time>2021-05-23T10:26:30.983Z</time>
      </trkpt>
      <trkpt lat="47.26328" lon="-2.2927">
        <ele>38</ele>
        <time>2021-05-23T10:26:31.983Z</time>
      </trkpt>
      <trkpt lat="47.26325" lon="-2.29269">
        <ele>38</ele>
        <time>2021-05-23T10:26:32.983Z</time>
      </trkpt>
      <trkpt lat="47.26323" lon="-2.29269">
        <ele>38</ele>
        <time>2021-05-23T10:26:33.983Z</time>
      </trkpt>
      <trkpt lat="47.2632" lon="-2.29269">
        <ele>38</ele>
        <time>2021-05-23T10:26:34.983Z</time>
      </trkpt>
      <trkpt lat="47.26317" lon="-2.2927">
        <ele>38</ele>
        <time>2021-05-23T10:26:35.983Z</time>
      </trkpt>
      <trkpt lat="47.26315" lon="-2.2927">
        <ele>39</ele>
        <time>2021-05-23T10:26:36.982Z</time>
      </trkpt>
      <trkpt lat="47.26312" lon="-2.2927">
        <ele>39</ele>
        <time>2021-05-23T10:26:37.982Z</time>
      </trkpt>
      <trkpt lat="47.2631" lon="-2.29271">
        <ele>39</ele>
        <time>2021-05-23T10:26:38.983Z</time>
      </trkpt>
      <trkpt lat="47.26307" lon="-2.29271">
        <ele>40</ele>
        <time>2021-05-23T10:26:39.983Z</time>
      </trkpt>
      <trkpt lat="47.26304" lon="-2.29272">
        <ele>40</ele>
        <time>2021-05-23T10:26:40.983Z</time>
      </trkpt>
      <trkpt lat="47.26302" lon="-2.29272">
        <ele>40</ele>
        <time>2021-05-23T10:26:41.982Z</time>
      </trkpt>
      <trkpt lat="47.26299" lon="-2.29272">
        <ele>40</ele>
        <time>2021-05-23T10:26:42.983Z</time>
      </trkpt>
      <trkpt lat="47.26297" lon="-2.29273">
        <ele>41</ele>
        <time>2021-05-23T10:26:43.983Z</time>
      </trkpt>
      <trkpt lat="47.26294" lon="-2.29273">
        <ele>42</ele>
        <time>2021-05-23T10:26:44.982Z</time>
      </trkpt>
      <trkpt lat="47.26291" lon="-2.29274">
        <ele>42</ele>
        <time>2021-05-23T10:26:45.982Z</time>
      </trkpt>
      <trkpt lat="47.26289" lon="-2.29274">
        <ele>43</ele>
        <time>2021-05-23T10:26:46.982Z</time>
      </trkpt>
      <trkpt lat="47.26286" lon="-2.29276">
        <ele>44</ele>
        <time>2021-05-23T10:26:47.983Z</time>
      </trkpt>
      <trkpt lat="47.26284" lon="-2.29277">
        <ele>45</ele>
        <time>2021-05-23T10:26:48.982Z</time>
      </trkpt>
      <trkpt lat="47.26281" lon="-2.29278">
        <ele>45</ele>
        <time>2021-05-23T10:26:49.982Z</time>
      </trkpt>
      <trkpt lat="47.26279" lon="-2.29279">
        <ele>45</ele>
        <time>2021-05-23T10:26:50.983Z</time>
      </trkpt>
      <trkpt lat="47.26277" lon="-2.29281">
        <ele>45</ele>
        <time>2021-05-23T10:26:51.982Z</time>
      </trkpt>
      <trkpt lat="47.26274" lon="-2.29282">
        <ele>45</ele>
        <time>2021-05-23T10:26:52.983Z</time>
      </trkpt>
      <trkpt lat="47.26272" lon="-2.29283">
        <ele>44</ele>
        <time>2021-05-23T10:26:53.982Z</time>
      </trkpt>
      <trkpt lat="47.26269" lon="-2.29285">
        <ele>44</ele>
        <time>2021-05-23T10:26:54.983Z</time>
      </trkpt>
      <trkpt lat="47.26267" lon="-2.29287">
        <ele>43</ele>
        <time>2021-05-23T10:26:55.983Z</time>
      </trkpt>
      <trkpt lat="47.26265" lon="-2.29289">
        <ele>43</ele>
        <time>2021-05-23T10:26:56.983Z</time>
      </trkpt>
      <trkpt lat="47.26262" lon="-2.29291">
        <ele>42</ele>
        <time>2021-05-23T10:26:57.982Z</time>
      </trkpt>
      <trkpt lat="47.2626" lon="-2.29292">
        <ele>42</ele>
        <time>2021-05-23T10:26:58.982Z</time>
      </trkpt>
      <trkpt lat="47.26258" lon="-2.29294">
        <ele>42</ele>
        <time>2021-05-23T10:26:59.983Z</time>
      </trkpt>
      <trkpt lat="47.26256" lon="-2.29296">
        <ele>42</ele>
        <time>2021-05-23T10:27:00.983Z</time>
      </trkpt>
      <trkpt lat="47.26254" lon="-2.29298">
        <ele>42</ele>
        <time>2021-05-23T10:27:01.982Z</time>
      </trkpt>
      <trkpt lat="47.26252" lon="-2.293">
        <ele>42</ele>
        <time>2021-05-23T10:27:02.983Z</time>
      </trkpt>
      <trkpt lat="47.26249" lon="-2.29301">
        <ele>41</ele>
        <time>2021-05-23T10:27:03.983Z</time>
      </trkpt>
      <trkpt lat="47.26247" lon="-2.29303">
        <ele>41</ele>
        <time>2021-05-23T10:27:04.982Z</time>
      </trkpt>
      <trkpt lat="47.26245" lon="-2.29304">
        <ele>42</ele>
        <time>2021-05-23T10:27:05.982Z</time>
      </trkpt>
      <trkpt lat="47.26243" lon="-2.29306">
        <ele>42</ele>
        <time>2021-05-23T10:27:06.982Z</time>
      </trkpt>
      <trkpt lat="47.26241" lon="-2.29308">
        <ele>42</ele>
        <time>2021-05-23T10:27:07.982Z</time>
      </trkpt>
      <trkpt lat="47.26239" lon="-2.2931">
        <ele>41</ele>
        <time>2021-05-23T10:27:08.982Z</time>
      </trkpt>
      <trkpt lat="47.26237" lon="-2.29312">
        <ele>41</ele>
        <time>2021-05-23T10:27:09.983Z</time>
      </trkpt>
      <trkpt lat="47.26235" lon="-2.29314">
        <ele>41</ele>
        <time>2021-05-23T10:27:10.983Z</time>
      </trkpt>
      <trkpt lat="47.26233" lon="-2.29316">
        <ele>41</ele>
        <time>2021-05-23T10:27:11.983Z</time>
      </trkpt>
      <trkpt lat="47.26231" lon="-2.29318">
        <ele>41</ele>
        <time>2021-05-23T10:27:12.983Z</time>
      </trkpt>
      <trkpt lat="47.26229" lon="-2.2932">
        <ele>41</ele>
        <time>2021-05-23T10:27:13.982Z</time>
      </trkpt>
      <trkpt lat="47.26227" lon="-2.29321">
        <ele>41</ele>
        <time>2021-05-23T10:27:14.983Z</time>
      </trkpt>
      <trkpt lat="47.26226" lon="-2.29324">
        <ele>41</ele>
        <time>2021-05-23T10:27:15.982Z</time>
      </trkpt>
      <trkpt lat="47.26224" lon="-2.29326">
        <ele>42</ele>
        <time>2021-05-23T10:27:16.983Z</time>
      </trkpt>
      <trkpt lat="47.26222" lon="-2.29327">
        <ele>42</ele>
        <time>2021-05-23T10:27:17.983Z</time>
      </trkpt>
      <trkpt lat="47.2622" lon="-2.29328">
        <ele>42</ele>
        <time>2021-05-23T10:27:18.982Z</time>
      </trkpt>
      <trkpt lat="47.26218" lon="-2.2933">
        <ele>42</ele>
        <time>2021-05-23T10:27:19.982Z</time>
      </trkpt>
      <trkpt lat="47.26216" lon="-2.29331">
        <ele>42</ele>
        <time>2021-05-23T10:27:20.983Z</time>
      </trkpt>
      <trkpt lat="47.26214" lon="-2.29333">
        <ele>42</ele>
        <time>2021-05-23T10:27:21.983Z</time>
      </trkpt>
      <trkpt lat="47.26212" lon="-2.29335">
        <ele>43</ele>
        <time>2021-05-23T10:27:22.982Z</time>
      </trkpt>
      <trkpt lat="47.2621" lon="-2.29337">
        <ele>43</ele>
        <time>2021-05-23T10:27:23.983Z</time>
      </trkpt>
      <trkpt lat="47.26208" lon="-2.29338">
        <ele>43</ele>
        <time>2021-05-23T10:27:24.983Z</time>
      </trkpt>
      <trkpt lat="47.26206" lon="-2.2934">
        <ele>43</ele>
        <time>2021-05-23T10:27:25.982Z</time>
      </trkpt>
      <trkpt lat="47.26205" lon="-2.29341">
        <ele>43</ele>
        <time>2021-05-23T10:27:26.982Z</time>
      </trkpt>
      <trkpt lat="47.26203" lon="-2.29342">
        <ele>44</ele>
        <time>2021-05-23T10:27:27.983Z</time>
      </trkpt>
      <trkpt lat="47.26202" lon="-2.29344">
        <ele>44</ele>
        <time>2021-05-23T10:27:28.983Z</time>
      </trkpt>
      <trkpt lat="47.262" lon="-2.29345">
        <ele>44</ele>
        <time>2021-05-23T10:27:29.983Z</time>
      </trkpt>
      <trkpt lat="47.26198" lon="-2.29347">
        <ele>44</ele>
        <time>2021-05-23T10:27:30.982Z</time>
      </trkpt>
      <trkpt lat="47.26196" lon="-2.29348">
        <ele>44</ele>
        <time>2021-05-23T10:27:31.983Z</time>
      </trkpt>
      <trkpt lat="47.26194" lon="-2.2935">
        <ele>44</ele>
        <time>2021-05-23T10:27:32.983Z</time>
      </trkpt>
      <trkpt lat="47.26192" lon="-2.29351">
        <ele>43</ele>
        <time>2021-05-23T10:27:33.982Z</time>
      </trkpt>
      <trkpt lat="47.2619" lon="-2.29353">
        <ele>43</ele>
        <time>2021-05-23T10:27:34.982Z</time>
      </trkpt>
      <trkpt lat="47.26187" lon="-2.29355">
        <ele>43</ele>
        <time>2021-05-23T10:27:35.982Z</time>
      </trkpt>
      <trkpt lat="47.26185" lon="-2.29356">
        <ele>43</ele>
        <time>2021-05-23T10:27:36.983Z</time>
      </trkpt>
      <trkpt lat="47.26182" lon="-2.29357">
        <ele>43</ele>
        <time>2021-05-23T10:27:37.983Z</time>
      </trkpt>
      <trkpt lat="47.2618" lon="-2.29358">
        <ele>43</ele>
        <time>2021-05-23T10:27:38.983Z</time>
      </trkpt>
      <trkpt lat="47.26178" lon="-2.29358">
        <ele>43</ele>
        <time>2021-05-23T10:27:39.983Z</time>
      </trkpt>
      <trkpt lat="47.26176" lon="-2.29359">
        <ele>43</ele>
        <time>2021-05-23T10:27:40.982Z</time>
      </trkpt>
      <trkpt lat="47.26174" lon="-2.29359">
        <ele>42</ele>
        <time>2021-05-23T10:27:41.983Z</time>
      </trkpt>
      <trkpt lat="47.26172" lon="-2.29359">
        <ele>42</ele>
        <time>2021-05-23T10:27:42.982Z</time>
      </trkpt>
      <trkpt lat="47.26169" lon="-2.29359">
        <ele>42</ele>
        <time>2021-05-23T10:27:43.982Z</time>
      </trkpt>
      <trkpt lat="47.26166" lon="-2.29359">
        <ele>41</ele>
        <time>2021-05-23T10:27:44.983Z</time>
      </trkpt>
      <trkpt lat="47.26163" lon="-2.29358">
        <ele>40</ele>
        <time>2021-05-23T10:27:45.982Z</time>
      </trkpt>
      <trkpt lat="47.26161" lon="-2.29358">
        <ele>40</ele>
        <time>2021-05-23T10:27:46.982Z</time>
      </trkpt>
      <trkpt lat="47.26159" lon="-2.29357">
        <ele>39</ele>
        <time>2021-05-23T10:27:47.982Z</time>
      </trkpt>
      <trkpt lat="47.26158" lon="-2.29357">
        <ele>39</ele>
        <time>2021-05-23T10:27:48.982Z</time>
      </trkpt>
      <trkpt lat="47.26156" lon="-2.29356">
        <ele>39</ele>
        <time>2021-05-23T10:27:49.983Z</time>
      </trkpt>
      <trkpt lat="47.26155" lon="-2.29355">
        <ele>38</ele>
        <time>2021-05-23T10:27:50.983Z</time>
      </trkpt>
      <trkpt lat="47.26153" lon="-2.29354">
        <ele>38</ele>
        <time>2021-05-23T10:27:51.983Z</time>
      </trkpt>
      <trkpt lat="47.2615" lon="-2.29354">
        <ele>39</ele>
        <time>2021-05-23T10:27:52.983Z</time>
      </trkpt>
      <trkpt lat="47.26147" lon="-2.29354">
        <ele>39</ele>
        <time>2021-05-23T10:27:53.983Z</time>
      </trkpt>
      <trkpt lat="47.26145" lon="-2.29355">
        <ele>39</ele>
        <time>2021-05-23T10:27:54.983Z</time>
      </trkpt>
      <trkpt lat="47.26142" lon="-2.29358">
        <ele>39</ele>
        <time>2021-05-23T10:27:55.983Z</time>
      </trkpt>
      <trkpt lat="47.2614" lon="-2.29361">
        <ele>39</ele>
        <time>2021-05-23T10:27:56.982Z</time>
      </trkpt>
      <trkpt lat="47.26139" lon="-2.29363">
        <ele>40</ele>
        <time>2021-05-23T10:27:57.983Z</time>
      </trkpt>
      <trkpt lat="47.26137" lon="-2.29367">
        <ele>40</ele>
        <time>2021-05-23T10:27:58.982Z</time>
      </trkpt>
      <trkpt lat="47.26136" lon="-2.2937">
        <ele>41</ele>
        <time>2021-05-23T10:27:59.983Z</time>
      </trkpt>
      <trkpt lat="47.26135" lon="-2.29373">
        <ele>41</ele>
        <time>2021-05-23T10:28:00.982Z</time>
      </trkpt>
      <trkpt lat="47.26134" lon="-2.29375">
        <ele>41</ele>
        <time>2021-05-23T10:28:01.982Z</time>
      </trkpt>
      <trkpt lat="47.26133" lon="-2.29379">
        <ele>41</ele>
        <time>2021-05-23T10:28:02.983Z</time>
      </trkpt>
      <trkpt lat="47.26132" lon="-2.29384">
        <ele>40</ele>
        <time>2021-05-23T10:28:03.982Z</time>
      </trkpt>
      <trkpt lat="47.26132" lon="-2.29387">
        <ele>40</ele>
        <time>2021-05-23T10:28:04.983Z</time>
      </trkpt>
      <trkpt lat="47.26131" lon="-2.2939">
        <ele>39</ele>
        <time>2021-05-23T10:28:05.983Z</time>
      </trkpt>
      <trkpt lat="47.2613" lon="-2.29394">
        <ele>39</ele>
        <time>2021-05-23T10:28:06.983Z</time>
      </trkpt>
      <trkpt lat="47.26129" lon="-2.29397">
        <ele>39</ele>
        <time>2021-05-23T10:28:07.983Z</time>
      </trkpt>
      <trkpt lat="47.26127" lon="-2.294">
        <ele>38</ele>
        <time>2021-05-23T10:28:08.982Z</time>
      </trkpt>
      <trkpt lat="47.26126" lon="-2.29403">
        <ele>38</ele>
        <time>2021-05-23T10:28:09.982Z</time>
      </trkpt>
      <trkpt lat="47.26126" lon="-2.29408">
        <ele>38</ele>
        <time>2021-05-23T10:28:10.983Z</time>
      </trkpt>
      <trkpt lat="47.26125" lon="-2.29411">
        <ele>38</ele>
        <time>2021-05-23T10:28:11.983Z</time>
      </trkpt>
      <trkpt lat="47.26124" lon="-2.29415">
        <ele>38</ele>
        <time>2021-05-23T10:28:12.982Z</time>
      </trkpt>
      <trkpt lat="47.26124" lon="-2.29419">
        <ele>38</ele>
        <time>2021-05-23T10:28:13.983Z</time>
      </trkpt>
      <trkpt lat="47.26123" lon="-2.29422">
        <ele>38</ele>
        <time>2021-05-23T10:28:14.983Z</time>
      </trkpt>
      <trkpt lat="47.26123" lon="-2.29426">
        <ele>38</ele>
        <time>2021-05-23T10:28:15.983Z</time>
      </trkpt>
      <trkpt lat="47.26122" lon="-2.29429">
        <ele>38</ele>
        <time>2021-05-23T10:28:16.983Z</time>
      </trkpt>
      <trkpt lat="47.26121" lon="-2.29432">
        <ele>38</ele>
        <time>2021-05-23T10:28:17.982Z</time>
      </trkpt>
      <trkpt lat="47.26121" lon="-2.29436">
        <ele>38</ele>
        <time>2021-05-23T10:28:18.983Z</time>
      </trkpt>
      <trkpt lat="47.26121" lon="-2.29439">
        <ele>38</ele>
        <time>2021-05-23T10:28:19.983Z</time>
      </trkpt>
      <trkpt lat="47.26121" lon="-2.29442">
        <ele>37</ele>
        <time>2021-05-23T10:28:20.983Z</time>
      </trkpt>
      <trkpt lat="47.26121" lon="-2.29446">
        <ele>37</ele>
        <time>2021-05-23T10:28:21.983Z</time>
      </trkpt>
      <trkpt lat="47.2612" lon="-2.2945">
        <ele>37</ele>
        <time>2021-05-23T10:28:22.982Z</time>
      </trkpt>
      <trkpt lat="47.26121" lon="-2.29453">
        <ele>37</ele>
        <time>2021-05-23T10:28:23.982Z</time>
      </trkpt>
      <trkpt lat="47.26121" lon="-2.29457">
        <ele>37</ele>
        <time>2021-05-23T10:28:24.983Z</time>
      </trkpt>
      <trkpt lat="47.26121" lon="-2.2946">
        <ele>36</ele>
        <time>2021-05-23T10:28:25.982Z</time>
      </trkpt>
      <trkpt lat="47.26122" lon="-2.29464">
        <ele>36</ele>
        <time>2021-05-23T10:28:26.983Z</time>
      </trkpt>
      <trkpt lat="47.26123" lon="-2.29467">
        <ele>36</ele>
        <time>2021-05-23T10:28:27.983Z</time>
      </trkpt>
      <trkpt lat="47.26124" lon="-2.29469">
        <ele>36</ele>
        <time>2021-05-23T10:28:28.982Z</time>
      </trkpt>
      <trkpt lat="47.26126" lon="-2.29472">
        <ele>35</ele>
        <time>2021-05-23T10:28:29.982Z</time>
      </trkpt>
      <trkpt lat="47.26127" lon="-2.29475">
        <ele>35</ele>
        <time>2021-05-23T10:28:30.983Z</time>
      </trkpt>
      <trkpt lat="47.26128" lon="-2.29478">
        <ele>34</ele>
        <time>2021-05-23T10:28:31.983Z</time>
      </trkpt>
      <trkpt lat="47.2613" lon="-2.29481">
        <ele>34</ele>
        <time>2021-05-23T10:28:32.983Z</time>
      </trkpt>
      <trkpt lat="47.26131" lon="-2.29484">
        <ele>34</ele>
        <time>2021-05-23T10:28:33.983Z</time>
      </trkpt>
      <trkpt lat="47.26133" lon="-2.29488">
        <ele>34</ele>
        <time>2021-05-23T10:28:34.983Z</time>
      </trkpt>
      <trkpt lat="47.26134" lon="-2.2949">
        <ele>34</ele>
        <time>2021-05-23T10:28:35.983Z</time>
      </trkpt>
      <trkpt lat="47.26135" lon="-2.29494">
        <ele>34</ele>
        <time>2021-05-23T10:28:36.983Z</time>
      </trkpt>
      <trkpt lat="47.26136" lon="-2.29497">
        <ele>34</ele>
        <time>2021-05-23T10:28:37.983Z</time>
      </trkpt>
      <trkpt lat="47.26137" lon="-2.29499">
        <ele>34</ele>
        <time>2021-05-23T10:28:38.983Z</time>
      </trkpt>
      <trkpt lat="47.26139" lon="-2.29503">
        <ele>33</ele>
        <time>2021-05-23T10:28:39.982Z</time>
      </trkpt>
      <trkpt lat="47.2614" lon="-2.29506">
        <ele>33</ele>
        <time>2021-05-23T10:28:40.983Z</time>
      </trkpt>
      <trkpt lat="47.26142" lon="-2.29508">
        <ele>33</ele>
        <time>2021-05-23T10:28:41.982Z</time>
      </trkpt>
      <trkpt lat="47.26143" lon="-2.29511">
        <ele>32</ele>
        <time>2021-05-23T10:28:42.983Z</time>
      </trkpt>
      <trkpt lat="47.26145" lon="-2.29514">
        <ele>32</ele>
        <time>2021-05-23T10:28:43.983Z</time>
      </trkpt>
      <trkpt lat="47.26147" lon="-2.29516">
        <ele>32</ele>
        <time>2021-05-23T10:28:44.982Z</time>
      </trkpt>
      <trkpt lat="47.26149" lon="-2.29518">
        <ele>31</ele>
        <time>2021-05-23T10:28:45.983Z</time>
      </trkpt>
      <trkpt lat="47.2615" lon="-2.2952">
        <ele>31</ele>
        <time>2021-05-23T10:28:46.983Z</time>
      </trkpt>
      <trkpt lat="47.26152" lon="-2.29521">
        <ele>31</ele>
        <time>2021-05-23T10:28:47.983Z</time>
      </trkpt>
      <trkpt lat="47.26155" lon="-2.29523">
        <ele>32</ele>
        <time>2021-05-23T10:28:48.982Z</time>
      </trkpt>
      <trkpt lat="47.26157" lon="-2.29524">
        <ele>32</ele>
        <time>2021-05-23T10:28:49.982Z</time>
      </trkpt>
      <trkpt lat="47.26159" lon="-2.29525">
        <ele>32</ele>
        <time>2021-05-23T10:28:50.983Z</time>
      </trkpt>
      <trkpt lat="47.26162" lon="-2.29526">
        <ele>32</ele>
        <time>2021-05-23T10:28:51.983Z</time>
      </trkpt>
      <trkpt lat="47.26164" lon="-2.29527">
        <ele>32</ele>
        <time>2021-05-23T10:28:52.983Z</time>
      </trkpt>
      <trkpt lat="47.26166" lon="-2.29528">
        <ele>32</ele>
        <time>2021-05-23T10:28:53.983Z</time>
      </trkpt>
      <trkpt lat="47.26168" lon="-2.29529">
        <ele>32</ele>
        <time>2021-05-23T10:28:54.983Z</time>
      </trkpt>
      <trkpt lat="47.2617" lon="-2.2953">
        <ele>33</ele>
        <time>2021-05-23T10:28:55.983Z</time>
      </trkpt>
      <trkpt lat="47.26172" lon="-2.29531">
        <ele>33</ele>
        <time>2021-05-23T10:28:56.982Z</time>
      </trkpt>
      <trkpt lat="47.26173" lon="-2.29532">
        <ele>33</ele>
        <time>2021-05-23T10:28:57.982Z</time>
      </trkpt>
      <trkpt lat="47.26175" lon="-2.29533">
        <ele>33</ele>
        <time>2021-05-23T10:28:58.983Z</time>
      </trkpt>
      <trkpt lat="47.26176" lon="-2.29533">
        <ele>32</ele>
        <time>2021-05-23T10:28:59.983Z</time>
      </trkpt>
      <trkpt lat="47.26177" lon="-2.29533">
        <ele>33</ele>
        <time>2021-05-23T10:29:00.983Z</time>
      </trkpt>
      <trkpt lat="47.26178" lon="-2.29534">
        <ele>33</ele>
        <time>2021-05-23T10:29:01.983Z</time>
      </trkpt>
      <trkpt lat="47.26179" lon="-2.29535">
        <ele>33</ele>
        <time>2021-05-23T10:29:02.983Z</time>
      </trkpt>
      <trkpt lat="47.2618" lon="-2.29536">
        <ele>33</ele>
        <time>2021-05-23T10:29:03.983Z</time>
      </trkpt>
      <trkpt lat="47.26181" lon="-2.29538">
        <ele>33</ele>
        <time>2021-05-23T10:29:04.983Z</time>
      </trkpt>
      <trkpt lat="47.26182" lon="-2.29539">
        <ele>33</ele>
        <time>2021-05-23T10:29:05.983Z</time>
      </trkpt>
      <trkpt lat="47.26183" lon="-2.2954">
        <ele>33</ele>
        <time>2021-05-23T10:29:06.983Z</time>
      </trkpt>
      <trkpt lat="47.26184" lon="-2.29542">
        <ele>33</ele>
        <time>2021-05-23T10:29:07.983Z</time>
      </trkpt>
      <trkpt lat="47.26184" lon="-2.29543">
        <ele>33</ele>
        <time>2021-05-23T10:29:08.983Z</time>
      </trkpt>
      <trkpt lat="47.26184" lon="-2.29545">
        <ele>33</ele>
        <time>2021-05-23T10:29:09.983Z</time>
      </trkpt>
      <trkpt lat="47.26185" lon="-2.29546">
        <ele>33</ele>
        <time>2021-05-23T10:29:10.982Z</time>
      </trkpt>
      <trkpt lat="47.26185" lon="-2.29547">
        <ele>34</ele>
        <time>2021-05-23T10:29:11.983Z</time>
      </trkpt>
      <trkpt lat="47.26186" lon="-2.29549">
        <ele>34</ele>
        <time>2021-05-23T10:29:12.983Z</time>
      </trkpt>
      <trkpt lat="47.26186" lon="-2.29551">
        <ele>35</ele>
        <time>2021-05-23T10:29:13.982Z</time>
      </trkpt>
      <trkpt lat="47.26187" lon="-2.29553">
        <ele>35</ele>
        <time>2021-05-23T10:29:14.983Z</time>
      </trkpt>
      <trkpt lat="47.26187" lon="-2.29555">
        <ele>35</ele>
        <time>2021-05-23T10:29:15.983Z</time>
      </trkpt>
      <trkpt lat="47.26188" lon="-2.29557">
        <ele>35</ele>
        <time>2021-05-23T10:29:16.983Z</time>
      </trkpt>
      <trkpt lat="47.26188" lon="-2.29559">
        <ele>34</ele>
        <time>2021-05-23T10:29:17.982Z</time>
      </trkpt>
      <trkpt lat="47.26189" lon="-2.2956">
        <ele>34</ele>
        <time>2021-05-23T10:29:18.982Z</time>
      </trkpt>
      <trkpt lat="47.26189" lon="-2.29562">
        <ele>34</ele>
        <time>2021-05-23T10:29:19.982Z</time>
      </trkpt>
      <trkpt lat="47.26189" lon="-2.29564">
        <ele>35</ele>
        <time>2021-05-23T10:29:20.983Z</time>
      </trkpt>
      <trkpt lat="47.26189" lon="-2.29566">
        <ele>35</ele>
        <time>2021-05-23T10:29:21.983Z</time>
      </trkpt>
      <trkpt lat="47.26188" lon="-2.29568">
        <ele>35</ele>
        <time>2021-05-23T10:29:22.983Z</time>
      </trkpt>
      <trkpt lat="47.26188" lon="-2.29569">
        <ele>35</ele>
        <time>2021-05-23T10:29:23.983Z</time>
      </trkpt>
      <trkpt lat="47.26186" lon="-2.2957">
        <ele>36</ele>
        <time>2021-05-23T10:29:24.983Z</time>
      </trkpt>
      <trkpt lat="47.26185" lon="-2.29571">
        <ele>36</ele>
        <time>2021-05-23T10:29:25.982Z</time>
      </trkpt>
      <trkpt lat="47.26182" lon="-2.29572">
        <ele>37</ele>
        <time>2021-05-23T10:29:26.982Z</time>
      </trkpt>
      <trkpt lat="47.2618" lon="-2.29572">
        <ele>38</ele>
        <time>2021-05-23T10:29:27.983Z</time>
      </trkpt>
      <trkpt lat="47.26178" lon="-2.29572">
        <ele>38</ele>
        <time>2021-05-23T10:29:28.983Z</time>
      </trkpt>
      <trkpt lat="47.26175" lon="-2.29572">
        <ele>39</ele>
        <time>2021-05-23T10:29:29.983Z</time>
      </trkpt>
      <trkpt lat="47.26174" lon="-2.29572">
        <ele>39</ele>
        <time>2021-05-23T10:29:30.983Z</time>
      </trkpt>
      <trkpt lat="47.26172" lon="-2.29572">
        <ele>40</ele>
        <time>2021-05-23T10:29:31.983Z</time>
      </trkpt>
      <trkpt lat="47.2617" lon="-2.29572">
        <ele>40</ele>
        <time>2021-05-23T10:29:32.983Z</time>
      </trkpt>
      <trkpt lat="47.26167" lon="-2.29573">
        <ele>39</ele>
        <time>2021-05-23T10:29:33.983Z</time>
      </trkpt>
      <trkpt lat="47.26165" lon="-2.29574">
        <ele>39</ele>
        <time>2021-05-23T10:29:34.982Z</time>
      </trkpt>
      <trkpt lat="47.26163" lon="-2.29575">
        <ele>39</ele>
        <time>2021-05-23T10:29:35.983Z</time>
      </trkpt>
      <trkpt lat="47.26161" lon="-2.29575">
        <ele>39</ele>
        <time>2021-05-23T10:29:36.982Z</time>
      </trkpt>
      <trkpt lat="47.26159" lon="-2.29576">
        <ele>39</ele>
        <time>2021-05-23T10:29:37.982Z</time>
      </trkpt>
      <trkpt lat="47.26156" lon="-2.29577">
        <ele>40</ele>
        <time>2021-05-23T10:29:38.982Z</time>
      </trkpt>
      <trkpt lat="47.26154" lon="-2.29578">
        <ele>40</ele>
        <time>2021-05-23T10:29:39.983Z</time>
      </trkpt>
      <trkpt lat="47.26153" lon="-2.29579">
        <ele>40</ele>
        <time>2021-05-23T10:29:40.983Z</time>
      </trkpt>
      <trkpt lat="47.2615" lon="-2.2958">
        <ele>40</ele>
        <time>2021-05-23T10:29:41.983Z</time>
      </trkpt>
      <trkpt lat="47.26148" lon="-2.29581">
        <ele>40</ele>
        <time>2021-05-23T10:29:42.982Z</time>
      </trkpt>
      <trkpt lat="47.26146" lon="-2.29582">
        <ele>41</ele>
        <time>2021-05-23T10:29:43.982Z</time>
      </trkpt>
      <trkpt lat="47.26144" lon="-2.29583">
        <ele>41</ele>
        <time>2021-05-23T10:29:44.982Z</time>
      </trkpt>
      <trkpt lat="47.26141" lon="-2.29584">
        <ele>41</ele>
        <time>2021-05-23T10:29:45.983Z</time>
      </trkpt>
      <trkpt lat="47.26138" lon="-2.29585">
        <ele>41</ele>
        <time>2021-05-23T10:29:46.983Z</time>
      </trkpt>
      <trkpt lat="47.26137" lon="-2.29586">
        <ele>41</ele>
        <time>2021-05-23T10:29:47.982Z</time>
      </trkpt>
      <trkpt lat="47.26135" lon="-2.29587">
        <ele>41</ele>
        <time>2021-05-23T10:29:48.982Z</time>
      </trkpt>
      <trkpt lat="47.26133" lon="-2.29588">
        <ele>41</ele>
        <time>2021-05-23T10:29:49.983Z</time>
      </trkpt>
      <trkpt lat="47.26131" lon="-2.29589">
        <ele>41</ele>
        <time>2021-05-23T10:29:50.983Z</time>
      </trkpt>
      <trkpt lat="47.26129" lon="-2.2959">
        <ele>41</ele>
        <time>2021-05-23T10:29:51.982Z</time>
      </trkpt>
      <trkpt lat="47.26127" lon="-2.29592">
        <ele>41</ele>
        <time>2021-05-23T10:29:52.982Z</time>
      </trkpt>
      <trkpt lat="47.26125" lon="-2.29593">
        <ele>41</ele>
        <time>2021-05-23T10:29:53.982Z</time>
      </trkpt>
      <trkpt lat="47.26123" lon="-2.29595">
        <ele>41</ele>
        <time>2021-05-23T10:29:54.982Z</time>
      </trkpt>
      <trkpt lat="47.26121" lon="-2.29596">
        <ele>42</ele>
        <time>2021-05-23T10:29:55.983Z</time>
      </trkpt>
      <trkpt lat="47.26118" lon="-2.29597">
        <ele>42</ele>
        <time>2021-05-23T10:29:56.983Z</time>
      </trkpt>
      <trkpt lat="47.26116" lon="-2.29597">
        <ele>42</ele>
        <time>2021-05-23T10:29:57.983Z</time>
      </trkpt>
      <trkpt lat="47.26114" lon="-2.29597">
        <ele>43</ele>
        <time>2021-05-23T10:29:58.983Z</time>
      </trkpt>
      <trkpt lat="47.26111" lon="-2.29597">
        <ele>43</ele>
        <time>2021-05-23T10:29:59.983Z</time>
      </trkpt>
      <trkpt lat="47.26108" lon="-2.29598">
        <ele>43</ele>
        <time>2021-05-23T10:30:00.983Z</time>
      </trkpt>
      <trkpt lat="47.26106" lon="-2.29599">
        <ele>44</ele>
        <time>2021-05-23T10:30:01.983Z</time>
      </trkpt>
      <trkpt lat="47.26103" lon="-2.296">
        <ele>44</ele>
        <time>2021-05-23T10:30:02.982Z</time>
      </trkpt>
      <trkpt lat="47.26101" lon="-2.29601">
        <ele>44</ele>
        <time>2021-05-23T10:30:03.983Z</time>
      </trkpt>
      <trkpt lat="47.26098" lon="-2.29602">
        <ele>44</ele>
        <time>2021-05-23T10:30:04.983Z</time>
      </trkpt>
      <trkpt lat="47.26096" lon="-2.29603">
        <ele>44</ele>
        <time>2021-05-23T10:30:05.983Z</time>
      </trkpt>
      <trkpt lat="47.26094" lon="-2.29605">
        <ele>44</ele>
        <time>2021-05-23T10:30:06.982Z</time>
      </trkpt>
      <trkpt lat="47.26092" lon="-2.29606">
        <ele>44</ele>
        <time>2021-05-23T10:30:07.982Z</time>
      </trkpt>
      <trkpt lat="47.26089" lon="-2.29608">
        <ele>44</ele>
        <time>2021-05-23T10:30:08.982Z</time>
      </trkpt>
      <trkpt lat="47.26086" lon="-2.29609">
        <ele>43</ele>
        <time>2021-05-23T10:30:09.982Z</time>
      </trkpt>
      <trkpt lat="47.26083" lon="-2.29609">
        <ele>43</ele>
        <time>2021-05-23T10:30:10.982Z</time>
      </trkpt>
      <trkpt lat="47.2608" lon="-2.29608">
        <ele>43</ele>
        <time>2021-05-23T10:30:11.982Z</time>
      </trkpt>
      <trkpt lat="47.26078" lon="-2.29609">
        <ele>43</ele>
        <time>2021-05-23T10:30:12.983Z</time>
      </trkpt>
      <trkpt lat="47.26075" lon="-2.2961">
        <ele>43</ele>
        <time>2021-05-23T10:30:13.983Z</time>
      </trkpt>
      <trkpt lat="47.26072" lon="-2.29611">
        <ele>43</ele>
        <time>2021-05-23T10:30:14.983Z</time>
      </trkpt>
      <trkpt lat="47.26069" lon="-2.29612">
        <ele>42</ele>
        <time>2021-05-23T10:30:15.983Z</time>
      </trkpt>
      <trkpt lat="47.26067" lon="-2.29613">
        <ele>42</ele>
        <time>2021-05-23T10:30:16.983Z</time>
      </trkpt>
      <trkpt lat="47.26065" lon="-2.29613">
        <ele>41</ele>
        <time>2021-05-23T10:30:17.983Z</time>
      </trkpt>
      <trkpt lat="47.26063" lon="-2.29613">
        <ele>41</ele>
        <time>2021-05-23T10:30:18.983Z</time>
      </trkpt>
      <trkpt lat="47.26061" lon="-2.29614">
        <ele>40</ele>
        <time>2021-05-23T10:30:19.982Z</time>
      </trkpt>
      <trkpt lat="47.26059" lon="-2.29613">
        <ele>39</ele>
        <time>2021-05-23T10:30:20.982Z</time>
      </trkpt>
      <trkpt lat="47.26057" lon="-2.29614">
        <ele>38</ele>
        <time>2021-05-23T10:30:21.983Z</time>
      </trkpt>
      <trkpt lat="47.26055" lon="-2.29614">
        <ele>37</ele>
        <time>2021-05-23T10:30:22.982Z</time>
      </trkpt>
      <trkpt lat="47.26052" lon="-2.29615">
        <ele>37</ele>
        <time>2021-05-23T10:30:23.982Z</time>
      </trkpt>
      <trkpt lat="47.2605" lon="-2.29615">
        <ele>37</ele>
        <time>2021-05-23T10:30:24.982Z</time>
      </trkpt>
      <trkpt lat="47.26047" lon="-2.29616">
        <ele>37</ele>
        <time>2021-05-23T10:30:25.982Z</time>
      </trkpt>
      <trkpt lat="47.26046" lon="-2.29616">
        <ele>37</ele>
        <time>2021-05-23T10:30:26.983Z</time>
      </trkpt>
      <trkpt lat="47.26043" lon="-2.29617">
        <ele>36</ele>
        <time>2021-05-23T10:30:27.982Z</time>
      </trkpt>
      <trkpt lat="47.26041" lon="-2.29617">
        <ele>35</ele>
        <time>2021-05-23T10:30:28.983Z</time>
      </trkpt>
      <trkpt lat="47.26038" lon="-2.29617">
        <ele>34</ele>
        <time>2021-05-23T10:30:29.983Z</time>
      </trkpt>
      <trkpt lat="47.26036" lon="-2.29617">
        <ele>33</ele>
        <time>2021-05-23T10:30:30.983Z</time>
      </trkpt>
      <trkpt lat="47.26034" lon="-2.29618">
        <ele>33</ele>
        <time>2021-05-23T10:30:31.983Z</time>
      </trkpt>
      <trkpt lat="47.26031" lon="-2.29618">
        <ele>32</ele>
        <time>2021-05-23T10:30:32.982Z</time>
      </trkpt>
      <trkpt lat="47.26029" lon="-2.29619">
        <ele>32</ele>
        <time>2021-05-23T10:30:33.982Z</time>
      </trkpt>
      <trkpt lat="47.26027" lon="-2.2962">
        <ele>31</ele>
        <time>2021-05-23T10:30:34.982Z</time>
      </trkpt>
      <trkpt lat="47.26025" lon="-2.2962">
        <ele>31</ele>
        <time>2021-05-23T10:30:35.983Z</time>
      </trkpt>
      <trkpt lat="47.26023" lon="-2.2962">
        <ele>31</ele>
        <time>2021-05-23T10:30:36.982Z</time>
      </trkpt>
      <trkpt lat="47.26021" lon="-2.29621">
        <ele>31</ele>
        <time>2021-05-23T10:30:37.983Z</time>
      </trkpt>
      <trkpt lat="47.26018" lon="-2.29621">
        <ele>31</ele>
        <time>2021-05-23T10:30:38.983Z</time>
      </trkpt>
      <trkpt lat="47.26016" lon="-2.29621">
        <ele>31</ele>
        <time>2021-05-23T10:30:39.983Z</time>
      </trkpt>
      <trkpt lat="47.26015" lon="-2.29621">
        <ele>31</ele>
        <time>2021-05-23T10:30:40.982Z</time>
      </trkpt>
      <trkpt lat="47.26012" lon="-2.29622">
        <ele>31</ele>
        <time>2021-05-23T10:30:41.983Z</time>
      </trkpt>
      <trkpt lat="47.2601" lon="-2.29623">
        <ele>31</ele>
        <time>2021-05-23T10:30:42.983Z</time>
      </trkpt>
      <trkpt lat="47.26007" lon="-2.29623">
        <ele>31</ele>
        <time>2021-05-23T10:30:43.983Z</time>
      </trkpt>
      <trkpt lat="47.26005" lon="-2.29623">
        <ele>31</ele>
        <time>2021-05-23T10:30:44.982Z</time>
      </trkpt>
      <trkpt lat="47.26003" lon="-2.29624">
        <ele>31</ele>
        <time>2021-05-23T10:30:45.983Z</time>
      </trkpt>
      <trkpt lat="47.26001" lon="-2.29623">
        <ele>32</ele>
        <time>2021-05-23T10:30:46.983Z</time>
      </trkpt>
      <trkpt lat="47.25998" lon="-2.29623">
        <ele>32</ele>
        <time>2021-05-23T10:30:47.983Z</time>
      </trkpt>
      <trkpt lat="47.25995" lon="-2.29623">
        <ele>32</ele>
        <time>2021-05-23T10:30:48.983Z</time>
      </trkpt>
      <trkpt lat="47.25993" lon="-2.29623">
        <ele>32</ele>
        <time>2021-05-23T10:30:49.982Z</time>
      </trkpt>
      <trkpt lat="47.25991" lon="-2.29624">
        <ele>33</ele>
        <time>2021-05-23T10:30:50.982Z</time>
      </trkpt>
      <trkpt lat="47.25988" lon="-2.29625">
        <ele>33</ele>
        <time>2021-05-23T10:30:51.983Z</time>
      </trkpt>
      <trkpt lat="47.25987" lon="-2.29627">
        <ele>34</ele>
        <time>2021-05-23T10:30:52.983Z</time>
      </trkpt>
      <trkpt lat="47.25983" lon="-2.29628">
        <ele>34</ele>
        <time>2021-05-23T10:30:53.983Z</time>
      </trkpt>
      <trkpt lat="47.2598" lon="-2.29628">
        <ele>34</ele>
        <time>2021-05-23T10:30:54.983Z</time>
      </trkpt>
      <trkpt lat="47.25978" lon="-2.29628">
        <ele>35</ele>
        <time>2021-05-23T10:30:55.983Z</time>
      </trkpt>
      <trkpt lat="47.25976" lon="-2.29629">
        <ele>35</ele>
        <time>2021-05-23T10:30:56.982Z</time>
      </trkpt>
      <trkpt lat="47.25973" lon="-2.29631">
        <ele>35</ele>
        <time>2021-05-23T10:30:57.982Z</time>
      </trkpt>
      <trkpt lat="47.25971" lon="-2.29633">
        <ele>35</ele>
        <time>2021-05-23T10:30:58.983Z</time>
      </trkpt>
      <trkpt lat="47.25969" lon="-2.29634">
        <ele>36</ele>
        <time>2021-05-23T10:30:59.983Z</time>
      </trkpt>
      <trkpt lat="47.25967" lon="-2.29635">
        <ele>36</ele>
        <time>2021-05-23T10:31:00.983Z</time>
      </trkpt>
      <trkpt lat="47.25965" lon="-2.29635">
        <ele>36</ele>
        <time>2021-05-23T10:31:01.983Z</time>
      </trkpt>
      <trkpt lat="47.25963" lon="-2.29635">
        <ele>35</ele>
        <time>2021-05-23T10:31:02.982Z</time>
      </trkpt>
      <trkpt lat="47.25961" lon="-2.29636">
        <ele>35</ele>
        <time>2021-05-23T10:31:03.983Z</time>
      </trkpt>
      <trkpt lat="47.25959" lon="-2.29636">
        <ele>35</ele>
        <time>2021-05-23T10:31:04.983Z</time>
      </trkpt>
      <trkpt lat="47.25957" lon="-2.29636">
        <ele>35</ele>
        <time>2021-05-23T10:31:05.983Z</time>
      </trkpt>
      <trkpt lat="47.25954" lon="-2.29635">
        <ele>35</ele>
        <time>2021-05-23T10:31:06.983Z</time>
      </trkpt>
      <trkpt lat="47.25952" lon="-2.29633">
        <ele>35</ele>
        <time>2021-05-23T10:31:07.983Z</time>
      </trkpt>
      <trkpt lat="47.25951" lon="-2.29632">
        <ele>35</ele>
        <time>2021-05-23T10:31:08.982Z</time>
      </trkpt>
      <trkpt lat="47.25949" lon="-2.2963">
        <ele>34</ele>
        <time>2021-05-23T10:31:09.982Z</time>
      </trkpt>
      <trkpt lat="47.25948" lon="-2.29627">
        <ele>34</ele>
        <time>2021-05-23T10:31:10.983Z</time>
      </trkpt>
      <trkpt lat="47.25948" lon="-2.29625">
        <ele>34</ele>
        <time>2021-05-23T10:31:11.982Z</time>
      </trkpt>
      <trkpt lat="47.25946" lon="-2.29623">
        <ele>34</ele>
        <time>2021-05-23T10:31:12.983Z</time>
      </trkpt>
      <trkpt lat="47.25945" lon="-2.29621">
        <ele>33</ele>
        <time>2021-05-23T10:31:13.983Z</time>
      </trkpt>
      <trkpt lat="47.25943" lon="-2.2962">
        <ele>33</ele>
        <time>2021-05-23T10:31:14.983Z</time>
      </trkpt>
      <trkpt lat="47.25941" lon="-2.2962">
        <ele>32</ele>
        <time>2021-05-23T10:31:15.983Z</time>
      </trkpt>
      <trkpt lat="47.25939" lon="-2.29621">
        <ele>32</ele>
        <time>2021-05-23T10:31:16.983Z</time>
      </trkpt>
      <trkpt lat="47.25937" lon="-2.29622">
        <ele>31</ele>
        <time>2021-05-23T10:31:17.983Z</time>
      </trkpt>
      <trkpt lat="47.25936" lon="-2.29623">
        <ele>30</ele>
        <time>2021-05-23T10:31:18.982Z</time>
      </trkpt>
      <trkpt lat="47.25936" lon="-2.29626">
        <ele>30</ele>
        <time>2021-05-23T10:31:19.983Z</time>
      </trkpt>
      <trkpt lat="47.25936" lon="-2.29629">
        <ele>29</ele>
        <time>2021-05-23T10:31:20.983Z</time>
      </trkpt>
      <trkpt lat="47.25936" lon="-2.29632">
        <ele>29</ele>
        <time>2021-05-23T10:31:21.982Z</time>
      </trkpt>
      <trkpt lat="47.25936" lon="-2.29634">
        <ele>28</ele>
        <time>2021-05-23T10:31:22.983Z</time>
      </trkpt>
      <trkpt lat="47.25936" lon="-2.29636">
        <ele>28</ele>
        <time>2021-05-23T10:31:23.983Z</time>
      </trkpt>
      <trkpt lat="47.25936" lon="-2.29638">
        <ele>28</ele>
        <time>2021-05-23T10:31:24.983Z</time>
      </trkpt>
      <trkpt lat="47.25936" lon="-2.29639">
        <ele>27</ele>
        <time>2021-05-23T10:31:25.983Z</time>
      </trkpt>
      <trkpt lat="47.25935" lon="-2.29641">
        <ele>27</ele>
        <time>2021-05-23T10:31:26.983Z</time>
      </trkpt>
      <trkpt lat="47.25935" lon="-2.29642">
        <ele>27</ele>
        <time>2021-05-23T10:31:27.983Z</time>
      </trkpt>
      <trkpt lat="47.25935" lon="-2.29644">
        <ele>27</ele>
        <time>2021-05-23T10:31:28.983Z</time>
      </trkpt>
      <trkpt lat="47.25935" lon="-2.29645">
        <ele>27</ele>
        <time>2021-05-23T10:31:29.982Z</time>
      </trkpt>
      <trkpt lat="47.25934" lon="-2.29647">
        <ele>27</ele>
        <time>2021-05-23T10:31:30.983Z</time>
      </trkpt>
      <trkpt lat="47.25935" lon="-2.29649">
        <ele>27</ele>
        <time>2021-05-23T10:31:31.983Z</time>
      </trkpt>
      <trkpt lat="47.25935" lon="-2.29651">
        <ele>26</ele>
        <time>2021-05-23T10:31:32.983Z</time>
      </trkpt>
      <trkpt lat="47.25934" lon="-2.29653">
        <ele>26</ele>
        <time>2021-05-23T10:31:33.983Z</time>
      </trkpt>
      <trkpt lat="47.25933" lon="-2.29655">
        <ele>26</ele>
        <time>2021-05-23T10:31:34.983Z</time>
      </trkpt>
      <trkpt lat="47.25933" lon="-2.29657">
        <ele>25</ele>
        <time>2021-05-23T10:31:35.983Z</time>
      </trkpt>
      <trkpt lat="47.25933" lon="-2.29659">
        <ele>25</ele>
        <time>2021-05-23T10:31:36.983Z</time>
      </trkpt>
      <trkpt lat="47.25933" lon="-2.2966">
        <ele>24</ele>
        <time>2021-05-23T10:31:37.983Z</time>
      </trkpt>
      <trkpt lat="47.25933" lon="-2.29662">
        <ele>24</ele>
        <time>2021-05-23T10:31:38.983Z</time>
      </trkpt>
      <trkpt lat="47.25933" lon="-2.29663">
        <ele>23</ele>
        <time>2021-05-23T10:31:39.983Z</time>
      </trkpt>
      <trkpt lat="47.25932" lon="-2.29665">
        <ele>23</ele>
        <time>2021-05-23T10:31:40.983Z</time>
      </trkpt>
      <trkpt lat="47.25932" lon="-2.29667">
        <ele>23</ele>
        <time>2021-05-23T10:31:41.983Z</time>
      </trkpt>
      <trkpt lat="47.25931" lon="-2.2967">
        <ele>23</ele>
        <time>2021-05-23T10:31:42.982Z</time>
      </trkpt>
      <trkpt lat="47.2593" lon="-2.29672">
        <ele>23</ele>
        <time>2021-05-23T10:31:43.982Z</time>
      </trkpt>
      <trkpt lat="47.25929" lon="-2.29675">
        <ele>23</ele>
        <time>2021-05-23T10:31:44.983Z</time>
      </trkpt>
      <trkpt lat="47.25929" lon="-2.29677">
        <ele>23</ele>
        <time>2021-05-23T10:31:45.983Z</time>
      </trkpt>
      <trkpt lat="47.25929" lon="-2.29678">
        <ele>23</ele>
        <time>2021-05-23T10:31:46.983Z</time>
      </trkpt>
      <trkpt lat="47.25928" lon="-2.2968">
        <ele>23</ele>
        <time>2021-05-23T10:31:47.983Z</time>
      </trkpt>
      <trkpt lat="47.25929" lon="-2.29682">
        <ele>23</ele>
        <time>2021-05-23T10:31:48.983Z</time>
      </trkpt>
      <trkpt lat="47.25929" lon="-2.29684">
        <ele>23</ele>
        <time>2021-05-23T10:31:49.983Z</time>
      </trkpt>
      <trkpt lat="47.25929" lon="-2.29686">
        <ele>23</ele>
        <time>2021-05-23T10:31:50.982Z</time>
      </trkpt>
      <trkpt lat="47.25929" lon="-2.29687">
        <ele>22</ele>
        <time>2021-05-23T10:31:51.982Z</time>
      </trkpt>
      <trkpt lat="47.25929" lon="-2.29689">
        <ele>22</ele>
        <time>2021-05-23T10:31:52.982Z</time>
      </trkpt>
      <trkpt lat="47.25929" lon="-2.2969">
        <ele>22</ele>
        <time>2021-05-23T10:31:53.983Z</time>
      </trkpt>
      <trkpt lat="47.25929" lon="-2.29692">
        <ele>22</ele>
        <time>2021-05-23T10:31:54.983Z</time>
      </trkpt>
      <trkpt lat="47.2593" lon="-2.29694">
        <ele>22</ele>
        <time>2021-05-23T10:31:55.983Z</time>
      </trkpt>
      <trkpt lat="47.2593" lon="-2.29695">
        <ele>21</ele>
        <time>2021-05-23T10:31:56.983Z</time>
      </trkpt>
      <trkpt lat="47.25929" lon="-2.29697">
        <ele>21</ele>
        <time>2021-05-23T10:31:57.983Z</time>
      </trkpt>
      <trkpt lat="47.25929" lon="-2.297">
        <ele>21</ele>
        <time>2021-05-23T10:31:58.982Z</time>
      </trkpt>
      <trkpt lat="47.25928" lon="-2.29703">
        <ele>21</ele>
        <time>2021-05-23T10:31:59.983Z</time>
      </trkpt>
      <trkpt lat="47.25928" lon="-2.29707">
        <ele>22</ele>
        <time>2021-05-23T10:32:00.983Z</time>
      </trkpt>
      <trkpt lat="47.25927" lon="-2.29709">
        <ele>22</ele>
        <time>2021-05-23T10:32:01.983Z</time>
      </trkpt>
      <trkpt lat="47.25926" lon="-2.29711">
        <ele>23</ele>
        <time>2021-05-23T10:32:02.983Z</time>
      </trkpt>
      <trkpt lat="47.25926" lon="-2.29713">
        <ele>23</ele>
        <time>2021-05-23T10:32:03.983Z</time>
      </trkpt>
      <trkpt lat="47.25926" lon="-2.29714">
        <ele>24</ele>
        <time>2021-05-23T10:32:04.982Z</time>
      </trkpt>
      <trkpt lat="47.25926" lon="-2.29715">
        <ele>24</ele>
        <time>2021-05-23T10:32:05.983Z</time>
      </trkpt>
      <trkpt lat="47.25927" lon="-2.29718">
        <ele>24</ele>
        <time>2021-05-23T10:32:06.983Z</time>
      </trkpt>
      <trkpt lat="47.25927" lon="-2.29721">
        <ele>24</ele>
        <time>2021-05-23T10:32:07.983Z</time>
      </trkpt>
      <trkpt lat="47.25927" lon="-2.29723">
        <ele>24</ele>
        <time>2021-05-23T10:32:08.982Z</time>
      </trkpt>
      <trkpt lat="47.25927" lon="-2.29726">
        <ele>24</ele>
        <time>2021-05-23T10:32:09.983Z</time>
      </trkpt>
      <trkpt lat="47.25928" lon="-2.29729">
        <ele>23</ele>
        <time>2021-05-23T10:32:10.983Z</time>
      </trkpt>
      <trkpt lat="47.25928" lon="-2.29732">
        <ele>23</ele>
        <time>2021-05-23T10:32:11.983Z</time>
      </trkpt>
      <trkpt lat="47.25928" lon="-2.29735">
        <ele>23</ele>
        <time>2021-05-23T10:32:12.982Z</time>
      </trkpt>
      <trkpt lat="47.25929" lon="-2.29738">
        <ele>23</ele>
        <time>2021-05-23T10:32:13.983Z</time>
      </trkpt>
      <trkpt lat="47.25931" lon="-2.29742">
        <ele>23</ele>
        <time>2021-05-23T10:32:14.983Z</time>
      </trkpt>
      <trkpt lat="47.25932" lon="-2.29744">
        <ele>22</ele>
        <time>2021-05-23T10:32:15.982Z</time>
      </trkpt>
      <trkpt lat="47.25933" lon="-2.29746">
        <ele>22</ele>
        <time>2021-05-23T10:32:16.983Z</time>
      </trkpt>
      <trkpt lat="47.25934" lon="-2.29748">
        <ele>22</ele>
        <time>2021-05-23T10:32:17.983Z</time>
      </trkpt>
      <trkpt lat="47.25935" lon="-2.29751">
        <ele>21</ele>
        <time>2021-05-23T10:32:18.982Z</time>
      </trkpt>
      <trkpt lat="47.25935" lon="-2.29753">
        <ele>21</ele>
        <time>2021-05-23T10:32:19.983Z</time>
      </trkpt>
      <trkpt lat="47.25936" lon="-2.29756">
        <ele>21</ele>
        <time>2021-05-23T10:32:20.983Z</time>
      </trkpt>
      <trkpt lat="47.25937" lon="-2.2976">
        <ele>21</ele>
        <time>2021-05-23T10:32:21.983Z</time>
      </trkpt>
      <trkpt lat="47.25938" lon="-2.29764">
        <ele>20</ele>
        <time>2021-05-23T10:32:22.983Z</time>
      </trkpt>
      <trkpt lat="47.2594" lon="-2.29767">
        <ele>20</ele>
        <time>2021-05-23T10:32:23.983Z</time>
      </trkpt>
      <trkpt lat="47.25941" lon="-2.29771">
        <ele>20</ele>
        <time>2021-05-23T10:32:24.982Z</time>
      </trkpt>
      <trkpt lat="47.25942" lon="-2.29774">
        <ele>20</ele>
        <time>2021-05-23T10:32:25.983Z</time>
      </trkpt>
      <trkpt lat="47.25943" lon="-2.29776">
        <ele>19</ele>
        <time>2021-05-23T10:32:26.983Z</time>
      </trkpt>
      <trkpt lat="47.25945" lon="-2.29778">
        <ele>19</ele>
        <time>2021-05-23T10:32:27.982Z</time>
      </trkpt>
      <trkpt lat="47.25946" lon="-2.2978">
        <ele>19</ele>
        <time>2021-05-23T10:32:28.982Z</time>
      </trkpt>
      <trkpt lat="47.25946" lon="-2.29782">
        <ele>19</ele>
        <time>2021-05-23T10:32:29.982Z</time>
      </trkpt>
      <trkpt lat="47.25947" lon="-2.29785">
        <ele>19</ele>
        <time>2021-05-23T10:32:30.982Z</time>
      </trkpt>
      <trkpt lat="47.25948" lon="-2.29787">
        <ele>19</ele>
        <time>2021-05-23T10:32:31.983Z</time>
      </trkpt>
      <trkpt lat="47.25948" lon="-2.2979">
        <ele>20</ele>
        <time>2021-05-23T10:32:32.983Z</time>
      </trkpt>
      <trkpt lat="47.25949" lon="-2.29793">
        <ele>20</ele>
        <time>2021-05-23T10:32:33.983Z</time>
      </trkpt>
      <trkpt lat="47.25949" lon="-2.29797">
        <ele>20</ele>
        <time>2021-05-23T10:32:34.983Z</time>
      </trkpt>
      <trkpt lat="47.25949" lon="-2.298">
        <ele>20</ele>
        <time>2021-05-23T10:32:35.982Z</time>
      </trkpt>
      <trkpt lat="47.2595" lon="-2.29802">
        <ele>21</ele>
        <time>2021-05-23T10:32:36.983Z</time>
      </trkpt>
      <trkpt lat="47.2595" lon="-2.29805">
        <ele>21</ele>
        <time>2021-05-23T10:32:37.983Z</time>
      </trkpt>
      <trkpt lat="47.2595" lon="-2.29807">
        <ele>21</ele>
        <time>2021-05-23T10:32:38.983Z</time>
      </trkpt>
      <trkpt lat="47.2595" lon="-2.2981">
        <ele>21</ele>
        <time>2021-05-23T10:32:39.983Z</time>
      </trkpt>
      <trkpt lat="47.25951" lon="-2.29813">
        <ele>22</ele>
        <time>2021-05-23T10:32:40.983Z</time>
      </trkpt>
      <trkpt lat="47.25952" lon="-2.29816">
        <ele>22</ele>
        <time>2021-05-23T10:32:41.983Z</time>
      </trkpt>
      <trkpt lat="47.25953" lon="-2.29819">
        <ele>22</ele>
        <time>2021-05-23T10:32:42.982Z</time>
      </trkpt>
      <trkpt lat="47.25954" lon="-2.29822">
        <ele>23</ele>
        <time>2021-05-23T10:32:43.983Z</time>
      </trkpt>
      <trkpt lat="47.25954" lon="-2.29824">
        <ele>23</ele>
        <time>2021-05-23T10:32:44.982Z</time>
      </trkpt>
      <trkpt lat="47.25955" lon="-2.29826">
        <ele>23</ele>
        <time>2021-05-23T10:32:45.982Z</time>
      </trkpt>
      <trkpt lat="47.25955" lon="-2.29829">
        <ele>23</ele>
        <time>2021-05-23T10:32:46.983Z</time>
      </trkpt>
      <trkpt lat="47.25956" lon="-2.29831">
        <ele>24</ele>
        <time>2021-05-23T10:32:47.983Z</time>
      </trkpt>
      <trkpt lat="47.25957" lon="-2.29834">
        <ele>24</ele>
        <time>2021-05-23T10:32:48.983Z</time>
      </trkpt>
      <trkpt lat="47.25957" lon="-2.29838">
        <ele>24</ele>
        <time>2021-05-23T10:32:49.983Z</time>
      </trkpt>
      <trkpt lat="47.25957" lon="-2.29842">
        <ele>24</ele>
        <time>2021-05-23T10:32:50.982Z</time>
      </trkpt>
      <trkpt lat="47.25957" lon="-2.29845">
        <ele>24</ele>
        <time>2021-05-23T10:32:51.983Z</time>
      </trkpt>
      <trkpt lat="47.25957" lon="-2.29848">
        <ele>23</ele>
        <time>2021-05-23T10:32:52.983Z</time>
      </trkpt>
      <trkpt lat="47.25957" lon="-2.29852">
        <ele>23</ele>
        <time>2021-05-23T10:32:53.983Z</time>
      </trkpt>
      <trkpt lat="47.25957" lon="-2.29856">
        <ele>23</ele>
        <time>2021-05-23T10:32:54.983Z</time>
      </trkpt>
      <trkpt lat="47.25957" lon="-2.29859">
        <ele>22</ele>
        <time>2021-05-23T10:32:55.983Z</time>
      </trkpt>
      <trkpt lat="47.25957" lon="-2.29862">
        <ele>22</ele>
        <time>2021-05-23T10:32:56.983Z</time>
      </trkpt>
      <trkpt lat="47.25959" lon="-2.29865">
        <ele>22</ele>
        <time>2021-05-23T10:32:57.983Z</time>
      </trkpt>
      <trkpt lat="47.2596" lon="-2.29868">
        <ele>22</ele>
        <time>2021-05-23T10:32:58.983Z</time>
      </trkpt>
      <trkpt lat="47.25962" lon="-2.2987">
        <ele>22</ele>
        <time>2021-05-23T10:32:59.983Z</time>
      </trkpt>
      <trkpt lat="47.25963" lon="-2.29873">
        <ele>21</ele>
        <time>2021-05-23T10:33:00.983Z</time>
      </trkpt>
      <trkpt lat="47.25964" lon="-2.29875">
        <ele>21</ele>
        <time>2021-05-23T10:33:01.983Z</time>
      </trkpt>
      <trkpt lat="47.25965" lon="-2.29878">
        <ele>21</ele>
        <time>2021-05-23T10:33:02.983Z</time>
      </trkpt>
      <trkpt lat="47.25967" lon="-2.2988">
        <ele>21</ele>
        <time>2021-05-23T10:33:03.982Z</time>
      </trkpt>
      <trkpt lat="47.25968" lon="-2.29883">
        <ele>21</ele>
        <time>2021-05-23T10:33:04.983Z</time>
      </trkpt>
      <trkpt lat="47.25969" lon="-2.29884">
        <ele>21</ele>
        <time>2021-05-23T10:33:05.983Z</time>
      </trkpt>
      <trkpt lat="47.2597" lon="-2.29886">
        <ele>21</ele>
        <time>2021-05-23T10:33:06.983Z</time>
      </trkpt>
      <trkpt lat="47.25971" lon="-2.29888">
        <ele>21</ele>
        <time>2021-05-23T10:33:07.983Z</time>
      </trkpt>
      <trkpt lat="47.25971" lon="-2.2989">
        <ele>21</ele>
        <time>2021-05-23T10:33:08.982Z</time>
      </trkpt>
      <trkpt lat="47.25973" lon="-2.29892">
        <ele>21</ele>
        <time>2021-05-23T10:33:09.983Z</time>
      </trkpt>
      <trkpt lat="47.25974" lon="-2.29896">
        <ele>21</ele>
        <time>2021-05-23T10:33:10.983Z</time>
      </trkpt>
      <trkpt lat="47.25976" lon="-2.29899">
        <ele>21</ele>
        <time>2021-05-23T10:33:11.982Z</time>
      </trkpt>
      <trkpt lat="47.25977" lon="-2.29903">
        <ele>21</ele>
        <time>2021-05-23T10:33:12.982Z</time>
      </trkpt>
      <trkpt lat="47.25978" lon="-2.29906">
        <ele>21</ele>
        <time>2021-05-23T10:33:13.983Z</time>
      </trkpt>
      <trkpt lat="47.25979" lon="-2.29908">
        <ele>21</ele>
        <time>2021-05-23T10:33:14.983Z</time>
      </trkpt>
      <trkpt lat="47.2598" lon="-2.2991">
        <ele>21</ele>
        <time>2021-05-23T10:33:15.983Z</time>
      </trkpt>
      <trkpt lat="47.25981" lon="-2.29913">
        <ele>21</ele>
        <time>2021-05-23T10:33:16.983Z</time>
      </trkpt>
      <trkpt lat="47.25983" lon="-2.29915">
        <ele>21</ele>
        <time>2021-05-23T10:33:17.983Z</time>
      </trkpt>
      <trkpt lat="47.25984" lon="-2.29917">
        <ele>22</ele>
        <time>2021-05-23T10:33:18.983Z</time>
      </trkpt>
      <trkpt lat="47.25985" lon="-2.29919">
        <ele>22</ele>
        <time>2021-05-23T10:33:19.983Z</time>
      </trkpt>
      <trkpt lat="47.25985" lon="-2.29921">
        <ele>21</ele>
        <time>2021-05-23T10:33:20.983Z</time>
      </trkpt>
      <trkpt lat="47.25985" lon="-2.29923">
        <ele>22</ele>
        <time>2021-05-23T10:33:21.983Z</time>
      </trkpt>
      <trkpt lat="47.25984" lon="-2.29925">
        <ele>22</ele>
        <time>2021-05-23T10:33:22.983Z</time>
      </trkpt>
      <trkpt lat="47.25983" lon="-2.29926">
        <ele>22</ele>
        <time>2021-05-23T10:33:23.982Z</time>
      </trkpt>
      <trkpt lat="47.25981" lon="-2.29927">
        <ele>22</ele>
        <time>2021-05-23T10:33:24.982Z</time>
      </trkpt>
      <trkpt lat="47.2598" lon="-2.29928">
        <ele>22</ele>
        <time>2021-05-23T10:33:25.982Z</time>
      </trkpt>
      <trkpt lat="47.25979" lon="-2.2993">
        <ele>23</ele>
        <time>2021-05-23T10:33:26.983Z</time>
      </trkpt>
      <trkpt lat="47.25978" lon="-2.29931">
        <ele>23</ele>
        <time>2021-05-23T10:33:27.982Z</time>
      </trkpt>
      <trkpt lat="47.25977" lon="-2.29932">
        <ele>23</ele>
        <time>2021-05-23T10:33:28.983Z</time>
      </trkpt>
      <trkpt lat="47.25976" lon="-2.29934">
        <ele>23</ele>
        <time>2021-05-23T10:33:29.983Z</time>
      </trkpt>
      <trkpt lat="47.25976" lon="-2.29936">
        <ele>23</ele>
        <time>2021-05-23T10:33:30.982Z</time>
      </trkpt>
      <trkpt lat="47.25976" lon="-2.29937">
        <ele>23</ele>
        <time>2021-05-23T10:33:31.983Z</time>
      </trkpt>
      <trkpt lat="47.25975" lon="-2.29938">
        <ele>23</ele>
        <time>2021-05-23T10:33:32.982Z</time>
      </trkpt>
      <trkpt lat="47.25975" lon="-2.2994">
        <ele>23</ele>
        <time>2021-05-23T10:33:33.983Z</time>
      </trkpt>
      <trkpt lat="47.25974" lon="-2.29942">
        <ele>23</ele>
        <time>2021-05-23T10:33:34.982Z</time>
      </trkpt>
      <trkpt lat="47.25974" lon="-2.29943">
        <ele>23</ele>
        <time>2021-05-23T10:33:35.982Z</time>
      </trkpt>
      <trkpt lat="47.25973" lon="-2.29945">
        <ele>23</ele>
        <time>2021-05-23T10:33:36.983Z</time>
      </trkpt>
      <trkpt lat="47.25973" lon="-2.29947">
        <ele>23</ele>
        <time>2021-05-23T10:33:37.983Z</time>
      </trkpt>
      <trkpt lat="47.25972" lon="-2.29949">
        <ele>23</ele>
        <time>2021-05-23T10:33:38.982Z</time>
      </trkpt>
      <trkpt lat="47.25972" lon="-2.29951">
        <ele>23</ele>
        <time>2021-05-23T10:33:39.983Z</time>
      </trkpt>
      <trkpt lat="47.25971" lon="-2.29953">
        <ele>23</ele>
        <time>2021-05-23T10:33:40.983Z</time>
      </trkpt>
      <trkpt lat="47.25971" lon="-2.29955">
        <ele>23</ele>
        <time>2021-05-23T10:33:41.983Z</time>
      </trkpt>
      <trkpt lat="47.2597" lon="-2.29957">
        <ele>23</ele>
        <time>2021-05-23T10:33:42.982Z</time>
      </trkpt>
      <trkpt lat="47.2597" lon="-2.2996">
        <ele>23</ele>
        <time>2021-05-23T10:33:43.983Z</time>
      </trkpt>
      <trkpt lat="47.25971" lon="-2.29962">
        <ele>23</ele>
        <time>2021-05-23T10:33:44.983Z</time>
      </trkpt>
      <trkpt lat="47.25971" lon="-2.29963">
        <ele>23</ele>
        <time>2021-05-23T10:33:45.983Z</time>
      </trkpt>
      <trkpt lat="47.25971" lon="-2.29965">
        <ele>23</ele>
        <time>2021-05-23T10:33:46.983Z</time>
      </trkpt>
      <trkpt lat="47.25971" lon="-2.29968">
        <ele>22</ele>
        <time>2021-05-23T10:33:47.982Z</time>
      </trkpt>
      <trkpt lat="47.2597" lon="-2.2997">
        <ele>22</ele>
        <time>2021-05-23T10:33:48.983Z</time>
      </trkpt>
      <trkpt lat="47.2597" lon="-2.29971">
        <ele>22</ele>
        <time>2021-05-23T10:33:49.983Z</time>
      </trkpt>
      <trkpt lat="47.2597" lon="-2.29973">
        <ele>22</ele>
        <time>2021-05-23T10:33:50.983Z</time>
      </trkpt>
      <trkpt lat="47.25969" lon="-2.29975">
        <ele>21</ele>
        <time>2021-05-23T10:33:51.982Z</time>
      </trkpt>
      <trkpt lat="47.25969" lon="-2.29977">
        <ele>21</ele>
        <time>2021-05-23T10:33:52.982Z</time>
      </trkpt>
      <trkpt lat="47.25968" lon="-2.29979">
        <ele>21</ele>
        <time>2021-05-23T10:33:53.983Z</time>
      </trkpt>
      <trkpt lat="47.25968" lon="-2.29981">
        <ele>21</ele>
        <time>2021-05-23T10:33:54.983Z</time>
      </trkpt>
      <trkpt lat="47.25967" lon="-2.29983">
        <ele>21</ele>
        <time>2021-05-23T10:33:55.983Z</time>
      </trkpt>
      <trkpt lat="47.25966" lon="-2.29984">
        <ele>20</ele>
        <time>2021-05-23T10:33:56.983Z</time>
      </trkpt>
      <trkpt lat="47.25966" lon="-2.29986">
        <ele>20</ele>
        <time>2021-05-23T10:33:57.983Z</time>
      </trkpt>
      <trkpt lat="47.25966" lon="-2.29987">
        <ele>20</ele>
        <time>2021-05-23T10:33:58.983Z</time>
      </trkpt>
      <trkpt lat="47.25966" lon="-2.29989">
        <ele>20</ele>
        <time>2021-05-23T10:33:59.983Z</time>
      </trkpt>
      <trkpt lat="47.25966" lon="-2.29991">
        <ele>19</ele>
        <time>2021-05-23T10:34:00.983Z</time>
      </trkpt>
      <trkpt lat="47.25966" lon="-2.29992">
        <ele>19</ele>
        <time>2021-05-23T10:34:01.982Z</time>
      </trkpt>
      <trkpt lat="47.25965" lon="-2.29994">
        <ele>20</ele>
        <time>2021-05-23T10:34:02.983Z</time>
      </trkpt>
      <trkpt lat="47.25965" lon="-2.29996">
        <ele>21</ele>
        <time>2021-05-23T10:34:03.983Z</time>
      </trkpt>
      <trkpt lat="47.25965" lon="-2.29998">
        <ele>21</ele>
        <time>2021-05-23T10:34:04.983Z</time>
      </trkpt>
      <trkpt lat="47.25965" lon="-2.29999">
        <ele>22</ele>
        <time>2021-05-23T10:34:05.983Z</time>
      </trkpt>
      <trkpt lat="47.25965" lon="-2.30001">
        <ele>22</ele>
        <time>2021-05-23T10:34:06.982Z</time>
      </trkpt>
      <trkpt lat="47.25965" lon="-2.30003">
        <ele>23</ele>
        <time>2021-05-23T10:34:07.982Z</time>
      </trkpt>
      <trkpt lat="47.25965" lon="-2.30005">
        <ele>23</ele>
        <time>2021-05-23T10:34:08.982Z</time>
      </trkpt>
      <trkpt lat="47.25965" lon="-2.30007">
        <ele>23</ele>
        <time>2021-05-23T10:34:09.983Z</time>
      </trkpt>
      <trkpt lat="47.25965" lon="-2.30008">
        <ele>23</ele>
        <time>2021-05-23T10:34:10.982Z</time>
      </trkpt>
      <trkpt lat="47.25965" lon="-2.3001">
        <ele>23</ele>
        <time>2021-05-23T10:34:11.982Z</time>
      </trkpt>
      <trkpt lat="47.25965" lon="-2.30012">
        <ele>23</ele>
        <time>2021-05-23T10:34:12.983Z</time>
      </trkpt>
      <trkpt lat="47.25966" lon="-2.30014">
        <ele>23</ele>
        <time>2021-05-23T10:34:13.983Z</time>
      </trkpt>
      <trkpt lat="47.25966" lon="-2.30017">
        <ele>23</ele>
        <time>2021-05-23T10:34:14.982Z</time>
      </trkpt>
      <trkpt lat="47.25966" lon="-2.3002">
        <ele>23</ele>
        <time>2021-05-23T10:34:15.983Z</time>
      </trkpt>
      <trkpt lat="47.25966" lon="-2.30023">
        <ele>23</ele>
        <time>2021-05-23T10:34:16.982Z</time>
      </trkpt>
      <trkpt lat="47.25966" lon="-2.30025">
        <ele>23</ele>
        <time>2021-05-23T10:34:17.983Z</time>
      </trkpt>
      <trkpt lat="47.25966" lon="-2.30027">
        <ele>23</ele>
        <time>2021-05-23T10:34:18.983Z</time>
      </trkpt>
      <trkpt lat="47.25966" lon="-2.3003">
        <ele>22</ele>
        <time>2021-05-23T10:34:19.983Z</time>
      </trkpt>
      <trkpt lat="47.25966" lon="-2.30033">
        <ele>22</ele>
        <time>2021-05-23T10:34:20.982Z</time>
      </trkpt>
      <trkpt lat="47.25966" lon="-2.30036">
        <ele>22</ele>
        <time>2021-05-23T10:34:21.983Z</time>
      </trkpt>
      <trkpt lat="47.25965" lon="-2.30039">
        <ele>22</ele>
        <time>2021-05-23T10:34:22.983Z</time>
      </trkpt>
      <trkpt lat="47.25965" lon="-2.30042">
        <ele>23</ele>
        <time>2021-05-23T10:34:23.983Z</time>
      </trkpt>
      <trkpt lat="47.25965" lon="-2.30044">
        <ele>23</ele>
        <time>2021-05-23T10:34:24.983Z</time>
      </trkpt>
      <trkpt lat="47.25965" lon="-2.30048">
        <ele>23</ele>
        <time>2021-05-23T10:34:25.983Z</time>
      </trkpt>
      <trkpt lat="47.25965" lon="-2.30051">
        <ele>23</ele>
        <time>2021-05-23T10:34:26.983Z</time>
      </trkpt>
      <trkpt lat="47.25965" lon="-2.30054">
        <ele>23</ele>
        <time>2021-05-23T10:34:27.983Z</time>
      </trkpt>
      <trkpt lat="47.25965" lon="-2.30057">
        <ele>23</ele>
        <time>2021-05-23T10:34:28.983Z</time>
      </trkpt>
      <trkpt lat="47.25965" lon="-2.30061">
        <ele>23</ele>
        <time>2021-05-23T10:34:29.982Z</time>
      </trkpt>
      <trkpt lat="47.25965" lon="-2.30065">
        <ele>23</ele>
        <time>2021-05-23T10:34:30.983Z</time>
      </trkpt>
      <trkpt lat="47.25965" lon="-2.30068">
        <ele>23</ele>
        <time>2021-05-23T10:34:31.982Z</time>
      </trkpt>
      <trkpt lat="47.25964" lon="-2.30071">
        <ele>22</ele>
        <time>2021-05-23T10:34:32.983Z</time>
      </trkpt>
      <trkpt lat="47.25964" lon="-2.30075">
        <ele>22</ele>
        <time>2021-05-23T10:34:33.983Z</time>
      </trkpt>
      <trkpt lat="47.25964" lon="-2.30079">
        <ele>22</ele>
        <time>2021-05-23T10:34:34.983Z</time>
      </trkpt>
      <trkpt lat="47.25963" lon="-2.30082">
        <ele>22</ele>
        <time>2021-05-23T10:34:35.982Z</time>
      </trkpt>
      <trkpt lat="47.25963" lon="-2.30085">
        <ele>21</ele>
        <time>2021-05-23T10:34:36.982Z</time>
      </trkpt>
      <trkpt lat="47.25963" lon="-2.30089">
        <ele>21</ele>
        <time>2021-05-23T10:34:37.983Z</time>
      </trkpt>
      <trkpt lat="47.25963" lon="-2.30092">
        <ele>20</ele>
        <time>2021-05-23T10:34:38.983Z</time>
      </trkpt>
      <trkpt lat="47.25963" lon="-2.30096">
        <ele>20</ele>
        <time>2021-05-23T10:34:39.982Z</time>
      </trkpt>
      <trkpt lat="47.25963" lon="-2.301">
        <ele>19</ele>
        <time>2021-05-23T10:34:40.982Z</time>
      </trkpt>
      <trkpt lat="47.25963" lon="-2.30102">
        <ele>19</ele>
        <time>2021-05-23T10:34:41.983Z</time>
      </trkpt>
      <trkpt lat="47.25963" lon="-2.30105">
        <ele>19</ele>
        <time>2021-05-23T10:34:42.982Z</time>
      </trkpt>
      <trkpt lat="47.25962" lon="-2.30109">
        <ele>19</ele>
        <time>2021-05-23T10:34:43.983Z</time>
      </trkpt>
      <trkpt lat="47.25962" lon="-2.30112">
        <ele>19</ele>
        <time>2021-05-23T10:34:44.983Z</time>
      </trkpt>
      <trkpt lat="47.25962" lon="-2.30116">
        <ele>19</ele>
        <time>2021-05-23T10:34:45.982Z</time>
      </trkpt>
      <trkpt lat="47.25962" lon="-2.30119">
        <ele>19</ele>
        <time>2021-05-23T10:34:46.983Z</time>
      </trkpt>
      <trkpt lat="47.25961" lon="-2.30123">
        <ele>19</ele>
        <time>2021-05-23T10:34:47.983Z</time>
      </trkpt>
      <trkpt lat="47.25961" lon="-2.30127">
        <ele>18</ele>
        <time>2021-05-23T10:34:48.982Z</time>
      </trkpt>
      <trkpt lat="47.25961" lon="-2.3013">
        <ele>18</ele>
        <time>2021-05-23T10:34:49.983Z</time>
      </trkpt>
      <trkpt lat="47.2596" lon="-2.30134">
        <ele>18</ele>
        <time>2021-05-23T10:34:50.983Z</time>
      </trkpt>
      <trkpt lat="47.2596" lon="-2.30137">
        <ele>18</ele>
        <time>2021-05-23T10:34:51.982Z</time>
      </trkpt>
      <trkpt lat="47.25959" lon="-2.3014">
        <ele>18</ele>
        <time>2021-05-23T10:34:52.983Z</time>
      </trkpt>
      <trkpt lat="47.25958" lon="-2.30143">
        <ele>18</ele>
        <time>2021-05-23T10:34:53.983Z</time>
      </trkpt>
      <trkpt lat="47.25957" lon="-2.30146">
        <ele>19</ele>
        <time>2021-05-23T10:34:54.983Z</time>
      </trkpt>
      <trkpt lat="47.25955" lon="-2.30149">
        <ele>19</ele>
        <time>2021-05-23T10:34:55.983Z</time>
      </trkpt>
      <trkpt lat="47.25953" lon="-2.30152">
        <ele>20</ele>
        <time>2021-05-23T10:34:56.982Z</time>
      </trkpt>
      <trkpt lat="47.25951" lon="-2.30155">
        <ele>20</ele>
        <time>2021-05-23T10:34:57.982Z</time>
      </trkpt>
      <trkpt lat="47.2595" lon="-2.30157">
        <ele>21</ele>
        <time>2021-05-23T10:34:58.983Z</time>
      </trkpt>
      <trkpt lat="47.25948" lon="-2.3016">
        <ele>22</ele>
        <time>2021-05-23T10:34:59.982Z</time>
      </trkpt>
      <trkpt lat="47.25946" lon="-2.30162">
        <ele>22</ele>
        <time>2021-05-23T10:35:00.983Z</time>
      </trkpt>
      <trkpt lat="47.25945" lon="-2.30164">
        <ele>22</ele>
        <time>2021-05-23T10:35:01.982Z</time>
      </trkpt>
      <trkpt lat="47.25943" lon="-2.30166">
        <ele>23</ele>
        <time>2021-05-23T10:35:02.983Z</time>
      </trkpt>
      <trkpt lat="47.25942" lon="-2.30167">
        <ele>23</ele>
        <time>2021-05-23T10:35:03.983Z</time>
      </trkpt>
      <trkpt lat="47.2594" lon="-2.30168">
        <ele>23</ele>
        <time>2021-05-23T10:35:04.983Z</time>
      </trkpt>
      <trkpt lat="47.2594" lon="-2.3017">
        <ele>24</ele>
        <time>2021-05-23T10:35:05.983Z</time>
      </trkpt>
      <trkpt lat="47.25939" lon="-2.30172">
        <ele>24</ele>
        <time>2021-05-23T10:35:06.983Z</time>
      </trkpt>
      <trkpt lat="47.25939" lon="-2.30173">
        <ele>24</ele>
        <time>2021-05-23T10:35:07.983Z</time>
      </trkpt>
      <trkpt lat="47.25939" lon="-2.30173">
        <ele>24</ele>
        <time>2021-05-23T10:35:08.982Z</time>
      </trkpt>
      <trkpt lat="47.25938" lon="-2.30175">
        <ele>24</ele>
        <time>2021-05-23T10:35:09.982Z</time>
      </trkpt>
      <trkpt lat="47.25938" lon="-2.30175">
        <ele>24</ele>
        <time>2021-05-23T10:35:10.983Z</time>
      </trkpt>
      <trkpt lat="47.25938" lon="-2.30176">
        <ele>24</ele>
        <time>2021-05-23T10:35:11.983Z</time>
      </trkpt>
      <trkpt lat="47.25938" lon="-2.30176">
        <ele>24</ele>
        <time>2021-05-23T10:35:12.982Z</time>
      </trkpt>
      <trkpt lat="47.25938" lon="-2.30177">
        <ele>24</ele>
        <time>2021-05-23T10:35:13.983Z</time>
      </trkpt>
      <trkpt lat="47.25938" lon="-2.30177">
        <ele>24</ele>
        <time>2021-05-23T10:35:14.983Z</time>
      </trkpt>
      <trkpt lat="47.25938" lon="-2.30177">
        <ele>23</ele>
        <time>2021-05-23T10:35:15.983Z</time>
      </trkpt>
      <trkpt lat="47.25937" lon="-2.30176">
        <ele>23</ele>
        <time>2021-05-23T10:35:16.983Z</time>
      </trkpt>
      <trkpt lat="47.25936" lon="-2.30176">
        <ele>24</ele>
        <time>2021-05-23T10:35:17.983Z</time>
      </trkpt>
      <trkpt lat="47.25935" lon="-2.30175">
        <ele>24</ele>
        <time>2021-05-23T10:35:18.982Z</time>
      </trkpt>
      <trkpt lat="47.25933" lon="-2.30174">
        <ele>24</ele>
        <time>2021-05-23T10:35:19.982Z</time>
      </trkpt>
      <trkpt lat="47.25932" lon="-2.30174">
        <ele>25</ele>
        <time>2021-05-23T10:35:20.983Z</time>
      </trkpt>
      <trkpt lat="47.25932" lon="-2.30174">
        <ele>25</ele>
        <time>2021-05-23T10:35:21.983Z</time>
      </trkpt>
      <trkpt lat="47.25931" lon="-2.30174">
        <ele>26</ele>
        <time>2021-05-23T10:35:22.983Z</time>
      </trkpt>
      <trkpt lat="47.25931" lon="-2.30174">
        <ele>26</ele>
        <time>2021-05-23T10:35:23.983Z</time>
      </trkpt>
      <trkpt lat="47.2593" lon="-2.30175">
        <ele>27</ele>
        <time>2021-05-23T10:35:24.982Z</time>
      </trkpt>
      <trkpt lat="47.2593" lon="-2.30175">
        <ele>27</ele>
        <time>2021-05-23T10:35:25.983Z</time>
      </trkpt>
      <trkpt lat="47.2593" lon="-2.30175">
        <ele>27</ele>
        <time>2021-05-23T10:35:26.983Z</time>
      </trkpt>
      <trkpt lat="47.25929" lon="-2.30175">
        <ele>27</ele>
        <time>2021-05-23T10:35:27.983Z</time>
      </trkpt>
      <trkpt lat="47.25928" lon="-2.30175">
        <ele>28</ele>
        <time>2021-05-23T10:35:28.982Z</time>
      </trkpt>
      <trkpt lat="47.25927" lon="-2.30176">
        <ele>28</ele>
        <time>2021-05-23T10:35:29.983Z</time>
      </trkpt>
      <trkpt lat="47.25926" lon="-2.30176">
        <ele>28</ele>
        <time>2021-05-23T10:35:30.983Z</time>
      </trkpt>
      <trkpt lat="47.25926" lon="-2.30176">
        <ele>29</ele>
        <time>2021-05-23T10:35:31.983Z</time>
      </trkpt>
      <trkpt lat="47.25925" lon="-2.30177">
        <ele>29</ele>
        <time>2021-05-23T10:35:32.983Z</time>
      </trkpt>
      <trkpt lat="47.25925" lon="-2.30177">
        <ele>30</ele>
        <time>2021-05-23T10:35:33.983Z</time>
      </trkpt>
      <trkpt lat="47.25925" lon="-2.30177">
        <ele>30</ele>
        <time>2021-05-23T10:35:34.982Z</time>
      </trkpt>
      <trkpt lat="47.25925" lon="-2.30177">
        <ele>31</ele>
        <time>2021-05-23T10:35:35.983Z</time>
      </trkpt>
      <trkpt lat="47.25925" lon="-2.30178">
        <ele>31</ele>
        <time>2021-05-23T10:35:36.983Z</time>
      </trkpt>
      <trkpt lat="47.25924" lon="-2.30178">
        <ele>30</ele>
        <time>2021-05-23T10:35:37.983Z</time>
      </trkpt>
      <trkpt lat="47.25924" lon="-2.30178">
        <ele>30</ele>
        <time>2021-05-23T10:35:38.983Z</time>
      </trkpt>
      <trkpt lat="47.25924" lon="-2.3018">
        <ele>29</ele>
        <time>2021-05-23T10:35:39.982Z</time>
      </trkpt>
      <trkpt lat="47.25923" lon="-2.3018">
        <ele>29</ele>
        <time>2021-05-23T10:35:40.983Z</time>
      </trkpt>
      <trkpt lat="47.25923" lon="-2.30179">
        <ele>29</ele>
        <time>2021-05-23T10:35:41.983Z</time>
      </trkpt>
      <trkpt lat="47.25923" lon="-2.30178">
        <ele>29</ele>
        <time>2021-05-23T10:35:42.983Z</time>
      </trkpt>
      <trkpt lat="47.25924" lon="-2.30176">
        <ele>28</ele>
        <time>2021-05-23T10:35:43.983Z</time>
      </trkpt>
      <trkpt lat="47.25924" lon="-2.30176">
        <ele>28</ele>
        <time>2021-05-23T10:35:44.983Z</time>
      </trkpt>
      <trkpt lat="47.25924" lon="-2.30176">
        <ele>28</ele>
        <time>2021-05-23T10:35:45.983Z</time>
      </trkpt>
      <trkpt lat="47.25924" lon="-2.30176">
        <ele>28</ele>
        <time>2021-05-23T10:35:46.982Z</time>
      </trkpt>
      <trkpt lat="47.25924" lon="-2.30176">
        <ele>29</ele>
        <time>2021-05-23T10:35:47.983Z</time>
      </trkpt>
      <trkpt lat="47.25924" lon="-2.30176">
        <ele>29</ele>
        <time>2021-05-23T10:35:48.983Z</time>
      </trkpt>
      <trkpt lat="47.25924" lon="-2.30176">
        <ele>29</ele>
        <time>2021-05-23T10:35:49.983Z</time>
      </trkpt>
      <trkpt lat="47.25924" lon="-2.30176">
        <ele>29</ele>
        <time>2021-05-23T10:35:50.982Z</time>
      </trkpt>
      <trkpt lat="47.25924" lon="-2.30176">
        <ele>30</ele>
        <time>2021-05-23T10:35:51.983Z</time>
      </trkpt>
      <trkpt lat="47.25924" lon="-2.30176">
        <ele>30</ele>
        <time>2021-05-23T10:35:52.983Z</time>
      </trkpt>
      <trkpt lat="47.25924" lon="-2.30176">
        <ele>30</ele>
        <time>2021-05-23T10:35:53.982Z</time>
      </trkpt>
      <trkpt lat="47.25924" lon="-2.30176">
        <ele>30</ele>
        <time>2021-05-23T10:35:54.983Z</time>
      </trkpt>
      <trkpt lat="47.25924" lon="-2.30176">
        <ele>30</ele>
        <time>2021-05-23T10:35:55.983Z</time>
      </trkpt>
      <trkpt lat="47.25923" lon="-2.30176">
        <ele>30</ele>
        <time>2021-05-23T10:35:56.983Z</time>
      </trkpt>
      <trkpt lat="47.25923" lon="-2.30176">
        <ele>30</ele>
        <time>2021-05-23T10:35:57.983Z</time>
      </trkpt>
      <trkpt lat="47.25923" lon="-2.30176">
        <ele>30</ele>
        <time>2021-05-23T10:35:58.983Z</time>
      </trkpt>
      <trkpt lat="47.25923" lon="-2.30176">
        <ele>31</ele>
        <time>2021-05-23T10:35:59.983Z</time>
      </trkpt>
      <trkpt lat="47.25923" lon="-2.30176">
        <ele>31</ele>
        <time>2021-05-23T10:36:00.982Z</time>
      </trkpt>
      <trkpt lat="47.25923" lon="-2.30176">
        <ele>31</ele>
        <time>2021-05-23T10:36:01.983Z</time>
      </trkpt>
      <trkpt lat="47.25923" lon="-2.30176">
        <ele>31</ele>
        <time>2021-05-23T10:36:02.983Z</time>
      </trkpt>
      <trkpt lat="47.25923" lon="-2.30176">
        <ele>31</ele>
        <time>2021-05-23T10:36:03.982Z</time>
      </trkpt>
      <trkpt lat="47.25923" lon="-2.30176">
        <ele>31</ele>
        <time>2021-05-23T10:36:04.982Z</time>
      </trkpt>
      <trkpt lat="47.25923" lon="-2.30176">
        <ele>31</ele>
        <time>2021-05-23T10:36:05.983Z</time>
      </trkpt>
      <trkpt lat="47.25923" lon="-2.30176">
        <ele>31</ele>
        <time>2021-05-23T10:36:06.983Z</time>
      </trkpt>
      <trkpt lat="47.25923" lon="-2.30176">
        <ele>31</ele>
        <time>2021-05-23T10:36:07.982Z</time>
      </trkpt>
      <trkpt lat="47.25923" lon="-2.30176">
        <ele>31</ele>
        <time>2021-05-23T10:36:08.982Z</time>
      </trkpt>
      <trkpt lat="47.25923" lon="-2.30176">
        <ele>31</ele>
        <time>2021-05-23T10:36:09.983Z</time>
      </trkpt>
      <trkpt lat="47.25923" lon="-2.30176">
        <ele>31</ele>
        <time>2021-05-23T10:36:10.983Z</time>
      </trkpt>
      <trkpt lat="47.25923" lon="-2.30176">
        <ele>31</ele>
        <time>2021-05-23T10:36:11.983Z</time>
      </trkpt>
      <trkpt lat="47.25923" lon="-2.30176">
        <ele>31</ele>
        <time>2021-05-23T10:36:12.983Z</time>
      </trkpt>
      <trkpt lat="47.25923" lon="-2.30176">
        <ele>31</ele>
        <time>2021-05-23T10:36:13.982Z</time>
      </trkpt>
      <trkpt lat="47.25923" lon="-2.30176">
        <ele>31</ele>
        <time>2021-05-23T10:36:14.982Z</time>
      </trkpt>
      <trkpt lat="47.25923" lon="-2.30176">
        <ele>31</ele>
        <time>2021-05-23T10:36:15.983Z</time>
      </trkpt>
      <trkpt lat="47.25923" lon="-2.30176">
        <ele>31</ele>
        <time>2021-05-23T10:36:16.983Z</time>
      </trkpt>
      <trkpt lat="47.25923" lon="-2.30176">
        <ele>31</ele>
        <time>2021-05-23T10:36:17.983Z</time>
      </trkpt>
      <trkpt lat="47.25923" lon="-2.30176">
        <ele>31</ele>
        <time>2021-05-23T10:36:18.983Z</time>
      </trkpt>
      <trkpt lat="47.25923" lon="-2.30176">
        <ele>31</ele>
        <time>2021-05-23T10:36:19.983Z</time>
      </trkpt>
      <trkpt lat="47.25923" lon="-2.30175">
        <ele>31</ele>
        <time>2021-05-23T10:36:20.983Z</time>
      </trkpt>
      <trkpt lat="47.25923" lon="-2.30175">
        <ele>31</ele>
        <time>2021-05-23T10:36:21.983Z</time>
      </trkpt>
      <trkpt lat="47.25923" lon="-2.30175">
        <ele>31</ele>
        <time>2021-05-23T10:36:22.983Z</time>
      </trkpt>
      <trkpt lat="47.25923" lon="-2.30175">
        <ele>31</ele>
        <time>2021-05-23T10:36:23.982Z</time>
      </trkpt>
      <trkpt lat="47.25923" lon="-2.30174">
        <ele>32</ele>
        <time>2021-05-23T10:36:24.982Z</time>
      </trkpt>
      <trkpt lat="47.25922" lon="-2.30173">
        <ele>32</ele>
        <time>2021-05-23T10:36:25.982Z</time>
      </trkpt>
      <trkpt lat="47.25922" lon="-2.30173">
        <ele>32</ele>
        <time>2021-05-23T10:36:26.983Z</time>
      </trkpt>
      <trkpt lat="47.25922" lon="-2.30173">
        <ele>32</ele>
        <time>2021-05-23T10:36:27.982Z</time>
      </trkpt>
      <trkpt lat="47.25922" lon="-2.30172">
        <ele>32</ele>
        <time>2021-05-23T10:36:28.983Z</time>
      </trkpt>
      <trkpt lat="47.25922" lon="-2.30172">
        <ele>32</ele>
        <time>2021-05-23T10:36:29.982Z</time>
      </trkpt>
      <trkpt lat="47.25922" lon="-2.30172">
        <ele>32</ele>
        <time>2021-05-23T10:36:30.982Z</time>
      </trkpt>
      <trkpt lat="47.25922" lon="-2.30172">
        <ele>32</ele>
        <time>2021-05-23T10:36:31.982Z</time>
      </trkpt>
      <trkpt lat="47.25922" lon="-2.30172">
        <ele>32</ele>
        <time>2021-05-23T10:36:32.982Z</time>
      </trkpt>
      <trkpt lat="47.25922" lon="-2.30172">
        <ele>32</ele>
        <time>2021-05-23T10:36:33.982Z</time>
      </trkpt>
      <trkpt lat="47.25922" lon="-2.30172">
        <ele>32</ele>
        <time>2021-05-23T10:36:34.982Z</time>
      </trkpt>
      <trkpt lat="47.25922" lon="-2.30172">
        <ele>32</ele>
        <time>2021-05-23T10:36:35.982Z</time>
      </trkpt>
      <trkpt lat="47.25922" lon="-2.30172">
        <ele>32</ele>
        <time>2021-05-23T10:36:36.983Z</time>
      </trkpt>
      <trkpt lat="47.25922" lon="-2.30172">
        <ele>32</ele>
        <time>2021-05-23T10:36:37.982Z</time>
      </trkpt>
      <trkpt lat="47.25922" lon="-2.30172">
        <ele>32</ele>
        <time>2021-05-23T10:36:38.982Z</time>
      </trkpt>
      <trkpt lat="47.25922" lon="-2.30172">
        <ele>32</ele>
        <time>2021-05-23T10:36:39.983Z</time>
      </trkpt>
      <trkpt lat="47.25922" lon="-2.30172">
        <ele>32</ele>
        <time>2021-05-23T10:36:40.983Z</time>
      </trkpt>
      <trkpt lat="47.25922" lon="-2.30172">
        <ele>32</ele>
        <time>2021-05-23T10:36:41.982Z</time>
      </trkpt>
      <trkpt lat="47.25922" lon="-2.30172">
        <ele>32</ele>
        <time>2021-05-23T10:36:42.983Z</time>
      </trkpt>
      <trkpt lat="47.25922" lon="-2.30172">
        <ele>32</ele>
        <time>2021-05-23T10:36:43.983Z</time>
      </trkpt>
      <trkpt lat="47.25922" lon="-2.30172">
        <ele>32</ele>
        <time>2021-05-23T10:36:44.983Z</time>
      </trkpt>
      <trkpt lat="47.25922" lon="-2.30172">
        <ele>32</ele>
        <time>2021-05-23T10:36:45.983Z</time>
      </trkpt>
      <trkpt lat="47.25922" lon="-2.30172">
        <ele>32</ele>
        <time>2021-05-23T10:36:46.983Z</time>
      </trkpt>
      <trkpt lat="47.25922" lon="-2.30172">
        <ele>32</ele>
        <time>2021-05-23T10:36:47.983Z</time>
      </trkpt>
      <trkpt lat="47.25923" lon="-2.30172">
        <ele>32</ele>
        <time>2021-05-23T10:36:48.982Z</time>
      </trkpt>
      <trkpt lat="47.25923" lon="-2.30172">
        <ele>32</ele>
        <time>2021-05-23T10:36:49.983Z</time>
      </trkpt>
      <trkpt lat="47.25923" lon="-2.30172">
        <ele>32</ele>
        <time>2021-05-23T10:36:50.982Z</time>
      </trkpt>
      <trkpt lat="47.25923" lon="-2.30172">
        <ele>32</ele>
        <time>2021-05-23T10:36:51.983Z</time>
      </trkpt>
      <trkpt lat="47.25923" lon="-2.30172">
        <ele>32</ele>
        <time>2021-05-23T10:36:52.982Z</time>
      </trkpt>
      <trkpt lat="47.25923" lon="-2.30172">
        <ele>32</ele>
        <time>2021-05-23T10:36:53.982Z</time>
      </trkpt>
      <trkpt lat="47.25923" lon="-2.30173">
        <ele>32</ele>
        <time>2021-05-23T10:36:54.982Z</time>
      </trkpt>
      <trkpt lat="47.25923" lon="-2.30173">
        <ele>32</ele>
        <time>2021-05-23T10:36:55.982Z</time>
      </trkpt>
      <trkpt lat="47.25923" lon="-2.30174">
        <ele>32</ele>
        <time>2021-05-23T10:36:56.982Z</time>
      </trkpt>
      <trkpt lat="47.25923" lon="-2.30174">
        <ele>32</ele>
        <time>2021-05-23T10:36:57.982Z</time>
      </trkpt>
      <trkpt lat="47.25923" lon="-2.30175">
        <ele>32</ele>
        <time>2021-05-23T10:36:58.982Z</time>
      </trkpt>
      <trkpt lat="47.25924" lon="-2.30176">
        <ele>32</ele>
        <time>2021-05-23T10:36:59.982Z</time>
      </trkpt>
      <trkpt lat="47.25924" lon="-2.30176">
        <ele>32</ele>
        <time>2021-05-23T10:37:00.982Z</time>
      </trkpt>
      <trkpt lat="47.25924" lon="-2.30177">
        <ele>32</ele>
        <time>2021-05-23T10:37:01.982Z</time>
      </trkpt>
      <trkpt lat="47.25924" lon="-2.30177">
        <ele>32</ele>
        <time>2021-05-23T10:37:02.983Z</time>
      </trkpt>
      <trkpt lat="47.25924" lon="-2.30177">
        <ele>32</ele>
        <time>2021-05-23T10:37:03.982Z</time>
      </trkpt>
      <trkpt lat="47.25924" lon="-2.30178">
        <ele>32</ele>
        <time>2021-05-23T10:37:04.982Z</time>
      </trkpt>
      <trkpt lat="47.25924" lon="-2.30178">
        <ele>32</ele>
        <time>2021-05-23T10:37:05.983Z</time>
      </trkpt>
      <trkpt lat="47.25924" lon="-2.30178">
        <ele>32</ele>
        <time>2021-05-23T10:37:06.982Z</time>
      </trkpt>
      <trkpt lat="47.25924" lon="-2.30178">
        <ele>32</ele>
        <time>2021-05-23T10:37:07.982Z</time>
      </trkpt>
      <trkpt lat="47.25924" lon="-2.30178">
        <ele>32</ele>
        <time>2021-05-23T10:37:08.983Z</time>
      </trkpt>
      <trkpt lat="47.25924" lon="-2.30178">
        <ele>32</ele>
        <time>2021-05-23T10:37:09.983Z</time>
      </trkpt>
      <trkpt lat="47.25924" lon="-2.30179">
        <ele>32</ele>
        <time>2021-05-23T10:37:10.983Z</time>
      </trkpt>
      <trkpt lat="47.25924" lon="-2.30179">
        <ele>32</ele>
        <time>2021-05-23T10:37:11.982Z</time>
      </trkpt>
      <trkpt lat="47.25924" lon="-2.30179">
        <ele>32</ele>
        <time>2021-05-23T10:37:12.982Z</time>
      </trkpt>
      <trkpt lat="47.25924" lon="-2.30179">
        <ele>32</ele>
        <time>2021-05-23T10:37:13.983Z</time>
      </trkpt>
      <trkpt lat="47.25924" lon="-2.30179">
        <ele>32</ele>
        <time>2021-05-23T10:37:14.983Z</time>
      </trkpt>
      <trkpt lat="47.25924" lon="-2.30179">
        <ele>32</ele>
        <time>2021-05-23T10:37:15.983Z</time>
      </trkpt>
      <trkpt lat="47.25924" lon="-2.30179">
        <ele>32</ele>
        <time>2021-05-23T10:37:16.982Z</time>
      </trkpt>
      <trkpt lat="47.25924" lon="-2.30179">
        <ele>32</ele>
        <time>2021-05-23T10:37:17.983Z</time>
      </trkpt>
      <trkpt lat="47.25925" lon="-2.30179">
        <ele>32</ele>
        <time>2021-05-23T10:37:18.982Z</time>
      </trkpt>
      <trkpt lat="47.25925" lon="-2.30179">
        <ele>32</ele>
        <time>2021-05-23T10:37:19.982Z</time>
      </trkpt>
      <trkpt lat="47.25925" lon="-2.30179">
        <ele>32</ele>
        <time>2021-05-23T10:37:20.983Z</time>
      </trkpt>
      <trkpt lat="47.25925" lon="-2.30179">
        <ele>32</ele>
        <time>2021-05-23T10:37:21.983Z</time>
      </trkpt>
      <trkpt lat="47.25925" lon="-2.30179">
        <ele>32</ele>
        <time>2021-05-23T10:37:22.983Z</time>
      </trkpt>
      <trkpt lat="47.25926" lon="-2.30179">
        <ele>32</ele>
        <time>2021-05-23T10:37:23.982Z</time>
      </trkpt>
      <trkpt lat="47.25926" lon="-2.30179">
        <ele>32</ele>
        <time>2021-05-23T10:37:24.983Z</time>
      </trkpt>
      <trkpt lat="47.25926" lon="-2.30179">
        <ele>32</ele>
        <time>2021-05-23T10:37:25.982Z</time>
      </trkpt>
      <trkpt lat="47.25926" lon="-2.30179">
        <ele>32</ele>
        <time>2021-05-23T10:37:26.982Z</time>
      </trkpt>
      <trkpt lat="47.25926" lon="-2.30179">
        <ele>32</ele>
        <time>2021-05-23T10:37:27.982Z</time>
      </trkpt>
      <trkpt lat="47.25926" lon="-2.30179">
        <ele>32</ele>
        <time>2021-05-23T10:37:28.983Z</time>
      </trkpt>
      <trkpt lat="47.25926" lon="-2.30178">
        <ele>32</ele>
        <time>2021-05-23T10:37:29.982Z</time>
      </trkpt>
      <trkpt lat="47.25926" lon="-2.30178">
        <ele>32</ele>
        <time>2021-05-23T10:37:30.982Z</time>
      </trkpt>
      <trkpt lat="47.25926" lon="-2.30178">
        <ele>32</ele>
        <time>2021-05-23T10:37:31.982Z</time>
      </trkpt>
      <trkpt lat="47.25926" lon="-2.30178">
        <ele>32</ele>
        <time>2021-05-23T10:37:32.982Z</time>
      </trkpt>
      <trkpt lat="47.25926" lon="-2.30177">
        <ele>32</ele>
        <time>2021-05-23T10:37:33.983Z</time>
      </trkpt>
      <trkpt lat="47.25926" lon="-2.30177">
        <ele>32</ele>
        <time>2021-05-23T10:37:34.983Z</time>
      </trkpt>
      <trkpt lat="47.25926" lon="-2.30177">
        <ele>32</ele>
        <time>2021-05-23T10:37:35.983Z</time>
      </trkpt>
      <trkpt lat="47.25926" lon="-2.30177">
        <ele>32</ele>
        <time>2021-05-23T10:37:36.982Z</time>
      </trkpt>
      <trkpt lat="47.25926" lon="-2.30177">
        <ele>32</ele>
        <time>2021-05-23T10:37:37.982Z</time>
      </trkpt>
      <trkpt lat="47.25926" lon="-2.30177">
        <ele>32</ele>
        <time>2021-05-23T10:37:38.983Z</time>
      </trkpt>
      <trkpt lat="47.25926" lon="-2.30176">
        <ele>32</ele>
        <time>2021-05-23T10:37:39.982Z</time>
      </trkpt>
      <trkpt lat="47.25926" lon="-2.30176">
        <ele>32</ele>
        <time>2021-05-23T10:37:40.982Z</time>
      </trkpt>
      <trkpt lat="47.25926" lon="-2.30176">
        <ele>32</ele>
        <time>2021-05-23T10:37:41.982Z</time>
      </trkpt>
      <trkpt lat="47.25926" lon="-2.30176">
        <ele>32</ele>
        <time>2021-05-23T10:37:42.982Z</time>
      </trkpt>
      <trkpt lat="47.25926" lon="-2.30176">
        <ele>32</ele>
        <time>2021-05-23T10:37:43.983Z</time>
      </trkpt>
      <trkpt lat="47.25926" lon="-2.30176">
        <ele>32</ele>
        <time>2021-05-23T10:37:44.983Z</time>
      </trkpt>
      <trkpt lat="47.25926" lon="-2.30176">
        <ele>32</ele>
        <time>2021-05-23T10:37:45.983Z</time>
      </trkpt>
      <trkpt lat="47.25926" lon="-2.30176">
        <ele>32</ele>
        <time>2021-05-23T10:37:46.982Z</time>
      </trkpt>
      <trkpt lat="47.25926" lon="-2.30176">
        <ele>32</ele>
        <time>2021-05-23T10:37:47.982Z</time>
      </trkpt>
      <trkpt lat="47.25926" lon="-2.30176">
        <ele>32</ele>
        <time>2021-05-23T10:37:48.983Z</time>
      </trkpt>
      <trkpt lat="47.25926" lon="-2.30176">
        <ele>32</ele>
        <time>2021-05-23T10:37:49.983Z</time>
      </trkpt>
      <trkpt lat="47.25926" lon="-2.30176">
        <ele>32</ele>
        <time>2021-05-23T10:37:50.983Z</time>
      </trkpt>
      <trkpt lat="47.25926" lon="-2.30176">
        <ele>32</ele>
        <time>2021-05-23T10:37:51.982Z</time>
      </trkpt>
      <trkpt lat="47.25926" lon="-2.30176">
        <ele>32</ele>
        <time>2021-05-23T10:37:52.982Z</time>
      </trkpt>
      <trkpt lat="47.25926" lon="-2.30176">
        <ele>32</ele>
        <time>2021-05-23T10:37:53.983Z</time>
      </trkpt>
      <trkpt lat="47.25926" lon="-2.30176">
        <ele>32</ele>
        <time>2021-05-23T10:37:54.983Z</time>
      </trkpt>
      <trkpt lat="47.25926" lon="-2.30176">
        <ele>32</ele>
        <time>2021-05-23T10:37:55.982Z</time>
      </trkpt>
      <trkpt lat="47.25926" lon="-2.30176">
        <ele>32</ele>
        <time>2021-05-23T10:37:56.982Z</time>
      </trkpt>
      <trkpt lat="47.25927" lon="-2.30176">
        <ele>32</ele>
        <time>2021-05-23T10:37:57.982Z</time>
      </trkpt>
      <trkpt lat="47.25927" lon="-2.30176">
        <ele>32</ele>
        <time>2021-05-23T10:37:58.982Z</time>
      </trkpt>
      <trkpt lat="47.25927" lon="-2.30176">
        <ele>32</ele>
        <time>2021-05-23T10:37:59.983Z</time>
      </trkpt>
      <trkpt lat="47.25927" lon="-2.30176">
        <ele>32</ele>
        <time>2021-05-23T10:38:00.982Z</time>
      </trkpt>
      <trkpt lat="47.25927" lon="-2.30176">
        <ele>32</ele>
        <time>2021-05-23T10:38:01.983Z</time>
      </trkpt>
      <trkpt lat="47.25927" lon="-2.30176">
        <ele>32</ele>
        <time>2021-05-23T10:38:02.982Z</time>
      </trkpt>
      <trkpt lat="47.25927" lon="-2.30176">
        <ele>32</ele>
        <time>2021-05-23T10:38:03.982Z</time>
      </trkpt>
      <trkpt lat="47.25927" lon="-2.30176">
        <ele>32</ele>
        <time>2021-05-23T10:38:04.983Z</time>
      </trkpt>
      <trkpt lat="47.25927" lon="-2.30176">
        <ele>33</ele>
        <time>2021-05-23T10:38:05.982Z</time>
      </trkpt>
      <trkpt lat="47.25927" lon="-2.30176">
        <ele>33</ele>
        <time>2021-05-23T10:38:06.982Z</time>
      </trkpt>
      <trkpt lat="47.25928" lon="-2.30176">
        <ele>33</ele>
        <time>2021-05-23T10:38:07.982Z</time>
      </trkpt>
      <trkpt lat="47.25928" lon="-2.30176">
        <ele>33</ele>
        <time>2021-05-23T10:38:08.982Z</time>
      </trkpt>
      <trkpt lat="47.25928" lon="-2.30176">
        <ele>33</ele>
        <time>2021-05-23T10:38:09.982Z</time>
      </trkpt>
      <trkpt lat="47.25928" lon="-2.30176">
        <ele>33</ele>
        <time>2021-05-23T10:38:10.982Z</time>
      </trkpt>
      <trkpt lat="47.25928" lon="-2.30176">
        <ele>33</ele>
        <time>2021-05-23T10:38:11.983Z</time>
      </trkpt>
      <trkpt lat="47.25928" lon="-2.30176">
        <ele>33</ele>
        <time>2021-05-23T10:38:12.982Z</time>
      </trkpt>
      <trkpt lat="47.25928" lon="-2.30176">
        <ele>34</ele>
        <time>2021-05-23T10:38:13.982Z</time>
      </trkpt>
      <trkpt lat="47.25929" lon="-2.30176">
        <ele>34</ele>
        <time>2021-05-23T10:38:14.982Z</time>
      </trkpt>
      <trkpt lat="47.25929" lon="-2.30176">
        <ele>34</ele>
        <time>2021-05-23T10:38:15.982Z</time>
      </trkpt>
      <trkpt lat="47.25929" lon="-2.30176">
        <ele>34</ele>
        <time>2021-05-23T10:38:16.982Z</time>
      </trkpt>
      <trkpt lat="47.25929" lon="-2.30176">
        <ele>34</ele>
        <time>2021-05-23T10:38:17.983Z</time>
      </trkpt>
      <trkpt lat="47.25929" lon="-2.30176">
        <ele>34</ele>
        <time>2021-05-23T10:38:18.982Z</time>
      </trkpt>
      <trkpt lat="47.25929" lon="-2.30176">
        <ele>34</ele>
        <time>2021-05-23T10:38:19.982Z</time>
      </trkpt>
      <trkpt lat="47.25929" lon="-2.30176">
        <ele>34</ele>
        <time>2021-05-23T10:38:20.982Z</time>
      </trkpt>
      <trkpt lat="47.25929" lon="-2.30176">
        <ele>34</ele>
        <time>2021-05-23T10:38:21.983Z</time>
      </trkpt>
      <trkpt lat="47.25929" lon="-2.30176">
        <ele>34</ele>
        <time>2021-05-23T10:38:22.982Z</time>
      </trkpt>
      <trkpt lat="47.25929" lon="-2.30176">
        <ele>34</ele>
        <time>2021-05-23T10:38:23.982Z</time>
      </trkpt>
      <trkpt lat="47.25929" lon="-2.30176">
        <ele>34</ele>
        <time>2021-05-23T10:38:24.983Z</time>
      </trkpt>
      <trkpt lat="47.25929" lon="-2.30176">
        <ele>34</ele>
        <time>2021-05-23T10:38:25.983Z</time>
      </trkpt>
      <trkpt lat="47.25929" lon="-2.30176">
        <ele>34</ele>
        <time>2021-05-23T10:38:26.982Z</time>
      </trkpt>
      <trkpt lat="47.25929" lon="-2.30176">
        <ele>34</ele>
        <time>2021-05-23T10:38:27.983Z</time>
      </trkpt>
      <trkpt lat="47.25929" lon="-2.30176">
        <ele>34</ele>
        <time>2021-05-23T10:38:28.983Z</time>
      </trkpt>
      <trkpt lat="47.25929" lon="-2.30176">
        <ele>34</ele>
        <time>2021-05-23T10:38:29.983Z</time>
      </trkpt>
      <trkpt lat="47.25929" lon="-2.30176">
        <ele>34</ele>
        <time>2021-05-23T10:38:30.983Z</time>
      </trkpt>
      <trkpt lat="47.25929" lon="-2.30176">
        <ele>34</ele>
        <time>2021-05-23T10:38:31.983Z</time>
      </trkpt>
      <trkpt lat="47.25929" lon="-2.30176">
        <ele>34</ele>
        <time>2021-05-23T10:38:32.983Z</time>
      </trkpt>
      <trkpt lat="47.25929" lon="-2.30175">
        <ele>34</ele>
        <time>2021-05-23T10:38:33.983Z</time>
      </trkpt>
      <trkpt lat="47.25928" lon="-2.30175">
        <ele>34</ele>
        <time>2021-05-23T10:38:34.983Z</time>
      </trkpt>
      <trkpt lat="47.25928" lon="-2.30175">
        <ele>34</ele>
        <time>2021-05-23T10:38:35.983Z</time>
      </trkpt>
      <trkpt lat="47.25928" lon="-2.30175">
        <ele>34</ele>
        <time>2021-05-23T10:38:36.982Z</time>
      </trkpt>
      <trkpt lat="47.25928" lon="-2.30175">
        <ele>34</ele>
        <time>2021-05-23T10:38:37.982Z</time>
      </trkpt>
      <trkpt lat="47.25928" lon="-2.30175">
        <ele>34</ele>
        <time>2021-05-23T10:38:38.982Z</time>
      </trkpt>
      <trkpt lat="47.25928" lon="-2.30175">
        <ele>34</ele>
        <time>2021-05-23T10:38:39.983Z</time>
      </trkpt>
      <trkpt lat="47.25927" lon="-2.30175">
        <ele>34</ele>
        <time>2021-05-23T10:38:40.983Z</time>
      </trkpt>
      <trkpt lat="47.25927" lon="-2.30175">
        <ele>34</ele>
        <time>2021-05-23T10:38:41.983Z</time>
      </trkpt>
      <trkpt lat="47.25927" lon="-2.30176">
        <ele>34</ele>
        <time>2021-05-23T10:38:42.983Z</time>
      </trkpt>
      <trkpt lat="47.25927" lon="-2.30176">
        <ele>34</ele>
        <time>2021-05-23T10:38:43.983Z</time>
      </trkpt>
      <trkpt lat="47.25926" lon="-2.30176">
        <ele>34</ele>
        <time>2021-05-23T10:38:44.983Z</time>
      </trkpt>
      <trkpt lat="47.25926" lon="-2.30176">
        <ele>34</ele>
        <time>2021-05-23T10:38:45.983Z</time>
      </trkpt>
      <trkpt lat="47.25926" lon="-2.30176">
        <ele>34</ele>
        <time>2021-05-23T10:38:46.982Z</time>
      </trkpt>
      <trkpt lat="47.25926" lon="-2.30176">
        <ele>34</ele>
        <time>2021-05-23T10:38:47.983Z</time>
      </trkpt>
      <trkpt lat="47.25926" lon="-2.30175">
        <ele>34</ele>
        <time>2021-05-23T10:38:48.983Z</time>
      </trkpt>
      <trkpt lat="47.25926" lon="-2.30175">
        <ele>34</ele>
        <time>2021-05-23T10:38:49.983Z</time>
      </trkpt>
      <trkpt lat="47.25926" lon="-2.30175">
        <ele>34</ele>
        <time>2021-05-23T10:38:50.983Z</time>
      </trkpt>
      <trkpt lat="47.25925" lon="-2.30175">
        <ele>34</ele>
        <time>2021-05-23T10:38:51.983Z</time>
      </trkpt>
      <trkpt lat="47.25925" lon="-2.30175">
        <ele>34</ele>
        <time>2021-05-23T10:38:52.983Z</time>
      </trkpt>
      <trkpt lat="47.25925" lon="-2.30175">
        <ele>34</ele>
        <time>2021-05-23T10:38:53.983Z</time>
      </trkpt>
      <trkpt lat="47.25925" lon="-2.30175">
        <ele>34</ele>
        <time>2021-05-23T10:38:54.983Z</time>
      </trkpt>
      <trkpt lat="47.25924" lon="-2.30176">
        <ele>34</ele>
        <time>2021-05-23T10:38:55.982Z</time>
      </trkpt>
      <trkpt lat="47.25924" lon="-2.30176">
        <ele>34</ele>
        <time>2021-05-23T10:38:56.983Z</time>
      </trkpt>
      <trkpt lat="47.25924" lon="-2.30176">
        <ele>34</ele>
        <time>2021-05-23T10:38:57.983Z</time>
      </trkpt>
      <trkpt lat="47.25924" lon="-2.30176">
        <ele>34</ele>
        <time>2021-05-23T10:38:58.983Z</time>
      </trkpt>
      <trkpt lat="47.25924" lon="-2.30176">
        <ele>34</ele>
        <time>2021-05-23T10:38:59.982Z</time>
      </trkpt>
      <trkpt lat="47.25924" lon="-2.30176">
        <ele>34</ele>
        <time>2021-05-23T10:39:00.983Z</time>
      </trkpt>
      <trkpt lat="47.25924" lon="-2.30176">
        <ele>34</ele>
        <time>2021-05-23T10:39:01.983Z</time>
      </trkpt>
      <trkpt lat="47.25924" lon="-2.30176">
        <ele>34</ele>
        <time>2021-05-23T10:39:02.983Z</time>
      </trkpt>
      <trkpt lat="47.25924" lon="-2.30176">
        <ele>34</ele>
        <time>2021-05-23T10:39:03.983Z</time>
      </trkpt>
      <trkpt lat="47.25924" lon="-2.30176">
        <ele>34</ele>
        <time>2021-05-23T10:39:04.982Z</time>
      </trkpt>
      <trkpt lat="47.25924" lon="-2.30176">
        <ele>34</ele>
        <time>2021-05-23T10:39:05.983Z</time>
      </trkpt>
      <trkpt lat="47.25924" lon="-2.30176">
        <ele>34</ele>
        <time>2021-05-23T10:39:06.983Z</time>
      </trkpt>
      <trkpt lat="47.25924" lon="-2.30176">
        <ele>34</ele>
        <time>2021-05-23T10:39:07.982Z</time>
      </trkpt>
      <trkpt lat="47.25924" lon="-2.30176">
        <ele>34</ele>
        <time>2021-05-23T10:39:08.983Z</time>
      </trkpt>
      <trkpt lat="47.25924" lon="-2.30176">
        <ele>34</ele>
        <time>2021-05-23T10:39:09.983Z</time>
      </trkpt>
      <trkpt lat="47.25924" lon="-2.30176">
        <ele>34</ele>
        <time>2021-05-23T10:39:10.983Z</time>
      </trkpt>
      <trkpt lat="47.25924" lon="-2.30176">
        <ele>34</ele>
        <time>2021-05-23T10:39:11.983Z</time>
      </trkpt>
      <trkpt lat="47.25924" lon="-2.30177">
        <ele>34</ele>
        <time>2021-05-23T10:39:12.982Z</time>
      </trkpt>
      <trkpt lat="47.25924" lon="-2.30177">
        <ele>34</ele>
        <time>2021-05-23T10:39:13.983Z</time>
      </trkpt>
      <trkpt lat="47.25924" lon="-2.30177">
        <ele>34</ele>
        <time>2021-05-23T10:39:14.983Z</time>
      </trkpt>
      <trkpt lat="47.25924" lon="-2.30178">
        <ele>34</ele>
        <time>2021-05-23T10:39:15.983Z</time>
      </trkpt>
      <trkpt lat="47.25924" lon="-2.30179">
        <ele>34</ele>
        <time>2021-05-23T10:39:16.983Z</time>
      </trkpt>
      <trkpt lat="47.25924" lon="-2.30179">
        <ele>34</ele>
        <time>2021-05-23T10:39:17.983Z</time>
      </trkpt>
      <trkpt lat="47.25924" lon="-2.30179">
        <ele>34</ele>
        <time>2021-05-23T10:39:18.983Z</time>
      </trkpt>
      <trkpt lat="47.25924" lon="-2.30179">
        <ele>34</ele>
        <time>2021-05-23T10:39:19.983Z</time>
      </trkpt>
      <trkpt lat="47.25925" lon="-2.30179">
        <ele>34</ele>
        <time>2021-05-23T10:39:20.983Z</time>
      </trkpt>
      <trkpt lat="47.25925" lon="-2.30179">
        <ele>34</ele>
        <time>2021-05-23T10:39:21.983Z</time>
      </trkpt>
      <trkpt lat="47.25925" lon="-2.30179">
        <ele>34</ele>
        <time>2021-05-23T10:39:22.983Z</time>
      </trkpt>
      <trkpt lat="47.25925" lon="-2.30179">
        <ele>34</ele>
        <time>2021-05-23T10:39:23.983Z</time>
      </trkpt>
      <trkpt lat="47.25925" lon="-2.30179">
        <ele>34</ele>
        <time>2021-05-23T10:39:24.983Z</time>
      </trkpt>
      <trkpt lat="47.25925" lon="-2.30179">
        <ele>34</ele>
        <time>2021-05-23T10:39:25.983Z</time>
      </trkpt>
      <trkpt lat="47.25925" lon="-2.30179">
        <ele>34</ele>
        <time>2021-05-23T10:39:26.983Z</time>
      </trkpt>
      <trkpt lat="47.25925" lon="-2.30179">
        <ele>34</ele>
        <time>2021-05-23T10:39:27.983Z</time>
      </trkpt>
      <trkpt lat="47.25925" lon="-2.30179">
        <ele>34</ele>
        <time>2021-05-23T10:39:28.983Z</time>
      </trkpt>
      <trkpt lat="47.25925" lon="-2.3018">
        <ele>34</ele>
        <time>2021-05-23T10:39:29.983Z</time>
      </trkpt>
      <trkpt lat="47.25926" lon="-2.3018">
        <ele>34</ele>
        <time>2021-05-23T10:39:30.983Z</time>
      </trkpt>
      <trkpt lat="47.25926" lon="-2.3018">
        <ele>34</ele>
        <time>2021-05-23T10:39:31.983Z</time>
      </trkpt>
      <trkpt lat="47.25926" lon="-2.3018">
        <ele>34</ele>
        <time>2021-05-23T10:39:32.982Z</time>
      </trkpt>
      <trkpt lat="47.25926" lon="-2.3018">
        <ele>34</ele>
        <time>2021-05-23T10:39:33.982Z</time>
      </trkpt>
      <trkpt lat="47.25926" lon="-2.3018">
        <ele>34</ele>
        <time>2021-05-23T10:39:34.982Z</time>
      </trkpt>
      <trkpt lat="47.25926" lon="-2.3018">
        <ele>34</ele>
        <time>2021-05-23T10:39:35.983Z</time>
      </trkpt>
      <trkpt lat="47.25926" lon="-2.3018">
        <ele>34</ele>
        <time>2021-05-23T10:39:36.983Z</time>
      </trkpt>
      <trkpt lat="47.25926" lon="-2.3018">
        <ele>34</ele>
        <time>2021-05-23T10:39:37.982Z</time>
      </trkpt>
      <trkpt lat="47.25926" lon="-2.3018">
        <ele>34</ele>
        <time>2021-05-23T10:39:38.982Z</time>
      </trkpt>
      <trkpt lat="47.25926" lon="-2.3018">
        <ele>34</ele>
        <time>2021-05-23T10:39:39.982Z</time>
      </trkpt>
      <trkpt lat="47.25926" lon="-2.3018">
        <ele>34</ele>
        <time>2021-05-23T10:39:40.983Z</time>
      </trkpt>
      <trkpt lat="47.25926" lon="-2.3018">
        <ele>34</ele>
        <time>2021-05-23T10:39:41.982Z</time>
      </trkpt>
      <trkpt lat="47.25926" lon="-2.3018">
        <ele>34</ele>
        <time>2021-05-23T10:39:42.983Z</time>
      </trkpt>
      <trkpt lat="47.25926" lon="-2.3018">
        <ele>34</ele>
        <time>2021-05-23T10:39:43.982Z</time>
      </trkpt>
      <trkpt lat="47.25926" lon="-2.3018">
        <ele>34</ele>
        <time>2021-05-23T10:39:44.982Z</time>
      </trkpt>
      <trkpt lat="47.25926" lon="-2.3018">
        <ele>34</ele>
        <time>2021-05-23T10:39:45.983Z</time>
      </trkpt>
      <trkpt lat="47.25926" lon="-2.30181">
        <ele>34</ele>
        <time>2021-05-23T10:39:46.983Z</time>
      </trkpt>
      <trkpt lat="47.25926" lon="-2.30181">
        <ele>34</ele>
        <time>2021-05-23T10:39:47.983Z</time>
      </trkpt>
      <trkpt lat="47.25926" lon="-2.30181">
        <ele>34</ele>
        <time>2021-05-23T10:39:48.982Z</time>
      </trkpt>
      <trkpt lat="47.25926" lon="-2.30181">
        <ele>34</ele>
        <time>2021-05-23T10:39:49.982Z</time>
      </trkpt>
      <trkpt lat="47.25926" lon="-2.30181">
        <ele>34</ele>
        <time>2021-05-23T10:39:50.982Z</time>
      </trkpt>
      <trkpt lat="47.25926" lon="-2.30182">
        <ele>34</ele>
        <time>2021-05-23T10:39:51.983Z</time>
      </trkpt>
      <trkpt lat="47.25925" lon="-2.30182">
        <ele>34</ele>
        <time>2021-05-23T10:39:52.982Z</time>
      </trkpt>
      <trkpt lat="47.25925" lon="-2.30182">
        <ele>34</ele>
        <time>2021-05-23T10:39:53.983Z</time>
      </trkpt>
      <trkpt lat="47.25925" lon="-2.30182">
        <ele>34</ele>
        <time>2021-05-23T10:39:54.983Z</time>
      </trkpt>
      <trkpt lat="47.25924" lon="-2.30182">
        <ele>34</ele>
        <time>2021-05-23T10:39:55.982Z</time>
      </trkpt>
      <trkpt lat="47.25924" lon="-2.30182">
        <ele>34</ele>
        <time>2021-05-23T10:39:56.983Z</time>
      </trkpt>
      <trkpt lat="47.25924" lon="-2.30182">
        <ele>34</ele>
        <time>2021-05-23T10:39:57.983Z</time>
      </trkpt>
      <trkpt lat="47.25924" lon="-2.30182">
        <ele>34</ele>
        <time>2021-05-23T10:39:58.983Z</time>
      </trkpt>
      <trkpt lat="47.25924" lon="-2.30182">
        <ele>34</ele>
        <time>2021-05-23T10:39:59.983Z</time>
      </trkpt>
      <trkpt lat="47.25924" lon="-2.30182">
        <ele>34</ele>
        <time>2021-05-23T10:40:00.982Z</time>
      </trkpt>
      <trkpt lat="47.25924" lon="-2.30182">
        <ele>34</ele>
        <time>2021-05-23T10:40:01.983Z</time>
      </trkpt>
      <trkpt lat="47.25924" lon="-2.30182">
        <ele>34</ele>
        <time>2021-05-23T10:40:02.983Z</time>
      </trkpt>
      <trkpt lat="47.25924" lon="-2.30182">
        <ele>34</ele>
        <time>2021-05-23T10:40:03.983Z</time>
      </trkpt>
      <trkpt lat="47.25924" lon="-2.30182">
        <ele>34</ele>
        <time>2021-05-23T10:40:04.983Z</time>
      </trkpt>
      <trkpt lat="47.25924" lon="-2.30182">
        <ele>34</ele>
        <time>2021-05-23T10:40:05.983Z</time>
      </trkpt>
      <trkpt lat="47.25924" lon="-2.30182">
        <ele>34</ele>
        <time>2021-05-23T10:40:06.983Z</time>
      </trkpt>
      <trkpt lat="47.25924" lon="-2.30182">
        <ele>34</ele>
        <time>2021-05-23T10:40:07.983Z</time>
      </trkpt>
      <trkpt lat="47.25924" lon="-2.30182">
        <ele>34</ele>
        <time>2021-05-23T10:40:08.983Z</time>
      </trkpt>
      <trkpt lat="47.25924" lon="-2.30182">
        <ele>34</ele>
        <time>2021-05-23T10:40:09.983Z</time>
      </trkpt>
      <trkpt lat="47.25924" lon="-2.30182">
        <ele>34</ele>
        <time>2021-05-23T10:40:10.983Z</time>
      </trkpt>
      <trkpt lat="47.25924" lon="-2.30182">
        <ele>34</ele>
        <time>2021-05-23T10:40:11.982Z</time>
      </trkpt>
      <trkpt lat="47.25924" lon="-2.30182">
        <ele>34</ele>
        <time>2021-05-23T10:40:12.983Z</time>
      </trkpt>
      <trkpt lat="47.25925" lon="-2.30182">
        <ele>34</ele>
        <time>2021-05-23T10:40:13.983Z</time>
      </trkpt>
      <trkpt lat="47.25925" lon="-2.30182">
        <ele>34</ele>
        <time>2021-05-23T10:40:14.983Z</time>
      </trkpt>
      <trkpt lat="47.25925" lon="-2.30182">
        <ele>34</ele>
        <time>2021-05-23T10:40:15.982Z</time>
      </trkpt>
      <trkpt lat="47.25925" lon="-2.30182">
        <ele>34</ele>
        <time>2021-05-23T10:40:16.983Z</time>
      </trkpt>
      <trkpt lat="47.25925" lon="-2.30182">
        <ele>34</ele>
        <time>2021-05-23T10:40:17.983Z</time>
      </trkpt>
      <trkpt lat="47.25925" lon="-2.30182">
        <ele>34</ele>
        <time>2021-05-23T10:40:18.982Z</time>
      </trkpt>
      <trkpt lat="47.25925" lon="-2.30181">
        <ele>34</ele>
        <time>2021-05-23T10:40:19.982Z</time>
      </trkpt>
      <trkpt lat="47.25925" lon="-2.30181">
        <ele>34</ele>
        <time>2021-05-23T10:40:20.982Z</time>
      </trkpt>
      <trkpt lat="47.25926" lon="-2.30181">
        <ele>34</ele>
        <time>2021-05-23T10:40:21.983Z</time>
      </trkpt>
      <trkpt lat="47.25926" lon="-2.30181">
        <ele>34</ele>
        <time>2021-05-23T10:40:22.983Z</time>
      </trkpt>
      <trkpt lat="47.25926" lon="-2.30181">
        <ele>34</ele>
        <time>2021-05-23T10:40:23.982Z</time>
      </trkpt>
      <trkpt lat="47.25926" lon="-2.30181">
        <ele>34</ele>
        <time>2021-05-23T10:40:24.983Z</time>
      </trkpt>
      <trkpt lat="47.25926" lon="-2.30182">
        <ele>34</ele>
        <time>2021-05-23T10:40:25.982Z</time>
      </trkpt>
      <trkpt lat="47.25927" lon="-2.30182">
        <ele>34</ele>
        <time>2021-05-23T10:40:26.983Z</time>
      </trkpt>
      <trkpt lat="47.25927" lon="-2.30182">
        <ele>34</ele>
        <time>2021-05-23T10:40:27.983Z</time>
      </trkpt>
      <trkpt lat="47.25926" lon="-2.30182">
        <ele>34</ele>
        <time>2021-05-23T10:40:28.983Z</time>
      </trkpt>
      <trkpt lat="47.25926" lon="-2.30181">
        <ele>34</ele>
        <time>2021-05-23T10:40:29.983Z</time>
      </trkpt>
      <trkpt lat="47.25926" lon="-2.3018">
        <ele>34</ele>
        <time>2021-05-23T10:40:30.983Z</time>
      </trkpt>
      <trkpt lat="47.25926" lon="-2.30179">
        <ele>34</ele>
        <time>2021-05-23T10:40:31.983Z</time>
      </trkpt>
      <trkpt lat="47.25925" lon="-2.30179">
        <ele>35</ele>
        <time>2021-05-23T10:40:32.982Z</time>
      </trkpt>
      <trkpt lat="47.25925" lon="-2.30178">
        <ele>35</ele>
        <time>2021-05-23T10:40:33.982Z</time>
      </trkpt>
      <trkpt lat="47.25925" lon="-2.30178">
        <ele>35</ele>
        <time>2021-05-23T10:40:34.983Z</time>
      </trkpt>
      <trkpt lat="47.25925" lon="-2.30177">
        <ele>36</ele>
        <time>2021-05-23T10:40:35.983Z</time>
      </trkpt>
      <trkpt lat="47.25925" lon="-2.30177">
        <ele>37</ele>
        <time>2021-05-23T10:40:36.982Z</time>
      </trkpt>
      <trkpt lat="47.25925" lon="-2.30177">
        <ele>38</ele>
        <time>2021-05-23T10:40:37.983Z</time>
      </trkpt>
      <trkpt lat="47.25925" lon="-2.30177">
        <ele>39</ele>
        <time>2021-05-23T10:40:38.983Z</time>
      </trkpt>
      <trkpt lat="47.25925" lon="-2.30177">
        <ele>40</ele>
        <time>2021-05-23T10:40:39.983Z</time>
      </trkpt>
      <trkpt lat="47.25925" lon="-2.30177">
        <ele>41</ele>
        <time>2021-05-23T10:40:40.983Z</time>
      </trkpt>
      <trkpt lat="47.25925" lon="-2.30177">
        <ele>42</ele>
        <time>2021-05-23T10:40:41.983Z</time>
      </trkpt>
      <trkpt lat="47.25925" lon="-2.30177">
        <ele>42</ele>
        <time>2021-05-23T10:40:42.983Z</time>
      </trkpt>
      <trkpt lat="47.25925" lon="-2.30177">
        <ele>43</ele>
        <time>2021-05-23T10:40:43.983Z</time>
      </trkpt>
      <trkpt lat="47.25925" lon="-2.30177">
        <ele>44</ele>
        <time>2021-05-23T10:40:44.983Z</time>
      </trkpt>
      <trkpt lat="47.25925" lon="-2.30177">
        <ele>44</ele>
        <time>2021-05-23T10:40:45.982Z</time>
      </trkpt>
      <trkpt lat="47.25926" lon="-2.30177">
        <ele>45</ele>
        <time>2021-05-23T10:40:46.982Z</time>
      </trkpt>
      <trkpt lat="47.25926" lon="-2.30177">
        <ele>45</ele>
        <time>2021-05-23T10:40:47.982Z</time>
      </trkpt>
      <trkpt lat="47.25926" lon="-2.30177">
        <ele>46</ele>
        <time>2021-05-23T10:40:48.983Z</time>
      </trkpt>
      <trkpt lat="47.25926" lon="-2.30177">
        <ele>46</ele>
        <time>2021-05-23T10:40:49.983Z</time>
      </trkpt>
      <trkpt lat="47.25926" lon="-2.30177">
        <ele>47</ele>
        <time>2021-05-23T10:40:50.983Z</time>
      </trkpt>
      <trkpt lat="47.25926" lon="-2.30177">
        <ele>47</ele>
        <time>2021-05-23T10:40:51.982Z</time>
      </trkpt>
      <trkpt lat="47.25926" lon="-2.30176">
        <ele>48</ele>
        <time>2021-05-23T10:40:52.983Z</time>
      </trkpt>
      <trkpt lat="47.25926" lon="-2.30175">
        <ele>48</ele>
        <time>2021-05-23T10:40:53.982Z</time>
      </trkpt>
      <trkpt lat="47.25926" lon="-2.30175">
        <ele>48</ele>
        <time>2021-05-23T10:40:54.982Z</time>
      </trkpt>
      <trkpt lat="47.25926" lon="-2.30174">
        <ele>49</ele>
        <time>2021-05-23T10:40:55.983Z</time>
      </trkpt>
      <trkpt lat="47.25926" lon="-2.30173">
        <ele>49</ele>
        <time>2021-05-23T10:40:56.982Z</time>
      </trkpt>
      <trkpt lat="47.25925" lon="-2.30173">
        <ele>49</ele>
        <time>2021-05-23T10:40:57.983Z</time>
      </trkpt>
      <trkpt lat="47.25925" lon="-2.30173">
        <ele>50</ele>
        <time>2021-05-23T10:40:58.983Z</time>
      </trkpt>
      <trkpt lat="47.25925" lon="-2.30173">
        <ele>50</ele>
        <time>2021-05-23T10:40:59.983Z</time>
      </trkpt>
      <trkpt lat="47.25925" lon="-2.30173">
        <ele>50</ele>
        <time>2021-05-23T10:41:00.983Z</time>
      </trkpt>
      <trkpt lat="47.25925" lon="-2.30173">
        <ele>50</ele>
        <time>2021-05-23T10:41:01.982Z</time>
      </trkpt>
      <trkpt lat="47.25925" lon="-2.30173">
        <ele>51</ele>
        <time>2021-05-23T10:41:02.983Z</time>
      </trkpt>
      <trkpt lat="47.25925" lon="-2.30172">
        <ele>51</ele>
        <time>2021-05-23T10:41:03.982Z</time>
      </trkpt>
      <trkpt lat="47.25924" lon="-2.30172">
        <ele>51</ele>
        <time>2021-05-23T10:41:04.983Z</time>
      </trkpt>
      <trkpt lat="47.25924" lon="-2.30172">
        <ele>51</ele>
        <time>2021-05-23T10:41:05.983Z</time>
      </trkpt>
      <trkpt lat="47.25923" lon="-2.30172">
        <ele>51</ele>
        <time>2021-05-23T10:41:06.983Z</time>
      </trkpt>
      <trkpt lat="47.25923" lon="-2.30172">
        <ele>51</ele>
        <time>2021-05-23T10:41:07.982Z</time>
      </trkpt>
      <trkpt lat="47.25922" lon="-2.30172">
        <ele>50</ele>
        <time>2021-05-23T10:41:08.983Z</time>
      </trkpt>
      <trkpt lat="47.25922" lon="-2.30172">
        <ele>50</ele>
        <time>2021-05-23T10:41:09.982Z</time>
      </trkpt>
      <trkpt lat="47.25922" lon="-2.30172">
        <ele>50</ele>
        <time>2021-05-23T10:41:10.983Z</time>
      </trkpt>
      <trkpt lat="47.25922" lon="-2.30171">
        <ele>51</ele>
        <time>2021-05-23T10:41:11.983Z</time>
      </trkpt>
      <trkpt lat="47.25922" lon="-2.30171">
        <ele>51</ele>
        <time>2021-05-23T10:41:12.983Z</time>
      </trkpt>
      <trkpt lat="47.25921" lon="-2.30171">
        <ele>51</ele>
        <time>2021-05-23T10:41:13.983Z</time>
      </trkpt>
      <trkpt lat="47.25921" lon="-2.30172">
        <ele>51</ele>
        <time>2021-05-23T10:41:14.983Z</time>
      </trkpt>
      <trkpt lat="47.25921" lon="-2.30172">
        <ele>51</ele>
        <time>2021-05-23T10:41:15.983Z</time>
      </trkpt>
      <trkpt lat="47.25921" lon="-2.30173">
        <ele>51</ele>
        <time>2021-05-23T10:41:16.982Z</time>
      </trkpt>
      <trkpt lat="47.2592" lon="-2.30173">
        <ele>51</ele>
        <time>2021-05-23T10:41:17.983Z</time>
      </trkpt>
      <trkpt lat="47.2592" lon="-2.30173">
        <ele>51</ele>
        <time>2021-05-23T10:41:18.983Z</time>
      </trkpt>
      <trkpt lat="47.2592" lon="-2.30176">
        <ele>50</ele>
        <time>2021-05-23T10:41:19.982Z</time>
      </trkpt>
      <trkpt lat="47.2592" lon="-2.30177">
        <ele>50</ele>
        <time>2021-05-23T10:41:20.983Z</time>
      </trkpt>
      <trkpt lat="47.2592" lon="-2.30177">
        <ele>49</ele>
        <time>2021-05-23T10:41:21.983Z</time>
      </trkpt>
      <trkpt lat="47.25921" lon="-2.30177">
        <ele>49</ele>
        <time>2021-05-23T10:41:22.983Z</time>
      </trkpt>
      <trkpt lat="47.2592" lon="-2.30176">
        <ele>49</ele>
        <time>2021-05-23T10:41:23.982Z</time>
      </trkpt>
      <trkpt lat="47.2592" lon="-2.30175">
        <ele>48</ele>
        <time>2021-05-23T10:41:24.983Z</time>
      </trkpt>
      <trkpt lat="47.2592" lon="-2.30175">
        <ele>48</ele>
        <time>2021-05-23T10:41:25.983Z</time>
      </trkpt>
      <trkpt lat="47.2592" lon="-2.30176">
        <ele>47</ele>
        <time>2021-05-23T10:41:26.982Z</time>
      </trkpt>
      <trkpt lat="47.2592" lon="-2.30176">
        <ele>47</ele>
        <time>2021-05-23T10:41:27.983Z</time>
      </trkpt>
      <trkpt lat="47.25921" lon="-2.30177">
        <ele>46</ele>
        <time>2021-05-23T10:41:28.983Z</time>
      </trkpt>
      <trkpt lat="47.25921" lon="-2.30177">
        <ele>46</ele>
        <time>2021-05-23T10:41:29.982Z</time>
      </trkpt>
      <trkpt lat="47.25921" lon="-2.30178">
        <ele>45</ele>
        <time>2021-05-23T10:41:30.983Z</time>
      </trkpt>
      <trkpt lat="47.25921" lon="-2.30178">
        <ele>45</ele>
        <time>2021-05-23T10:41:31.983Z</time>
      </trkpt>
      <trkpt lat="47.25921" lon="-2.30178">
        <ele>45</ele>
        <time>2021-05-23T10:41:32.982Z</time>
      </trkpt>
      <trkpt lat="47.25921" lon="-2.30178">
        <ele>45</ele>
        <time>2021-05-23T10:41:33.983Z</time>
      </trkpt>
      <trkpt lat="47.25921" lon="-2.30178">
        <ele>45</ele>
        <time>2021-05-23T10:41:34.983Z</time>
      </trkpt>
      <trkpt lat="47.25921" lon="-2.30177">
        <ele>45</ele>
        <time>2021-05-23T10:41:35.983Z</time>
      </trkpt>
      <trkpt lat="47.25921" lon="-2.30176">
        <ele>44</ele>
        <time>2021-05-23T10:41:36.983Z</time>
      </trkpt>
      <trkpt lat="47.25922" lon="-2.30177">
        <ele>43</ele>
        <time>2021-05-23T10:41:37.982Z</time>
      </trkpt>
      <trkpt lat="47.25922" lon="-2.30177">
        <ele>43</ele>
        <time>2021-05-23T10:41:38.983Z</time>
      </trkpt>
      <trkpt lat="47.25922" lon="-2.30177">
        <ele>42</ele>
        <time>2021-05-23T10:41:39.983Z</time>
      </trkpt>
      <trkpt lat="47.25922" lon="-2.30177">
        <ele>41</ele>
        <time>2021-05-23T10:41:40.983Z</time>
      </trkpt>
      <trkpt lat="47.25922" lon="-2.30178">
        <ele>41</ele>
        <time>2021-05-23T10:41:41.983Z</time>
      </trkpt>
      <trkpt lat="47.25921" lon="-2.30178">
        <ele>40</ele>
        <time>2021-05-23T10:41:42.983Z</time>
      </trkpt>
      <trkpt lat="47.25921" lon="-2.30178">
        <ele>40</ele>
        <time>2021-05-23T10:41:43.983Z</time>
      </trkpt>
      <trkpt lat="47.25921" lon="-2.30178">
        <ele>39</ele>
        <time>2021-05-23T10:41:44.983Z</time>
      </trkpt>
      <trkpt lat="47.25921" lon="-2.30178">
        <ele>39</ele>
        <time>2021-05-23T10:41:45.983Z</time>
      </trkpt>
      <trkpt lat="47.25921" lon="-2.30178">
        <ele>39</ele>
        <time>2021-05-23T10:41:46.983Z</time>
      </trkpt>
      <trkpt lat="47.25921" lon="-2.30178">
        <ele>39</ele>
        <time>2021-05-23T10:41:47.983Z</time>
      </trkpt>
      <trkpt lat="47.25921" lon="-2.30178">
        <ele>39</ele>
        <time>2021-05-23T10:41:48.983Z</time>
      </trkpt>
      <trkpt lat="47.25921" lon="-2.30178">
        <ele>39</ele>
        <time>2021-05-23T10:41:49.983Z</time>
      </trkpt>
      <trkpt lat="47.25921" lon="-2.30178">
        <ele>40</ele>
        <time>2021-05-23T10:41:50.983Z</time>
      </trkpt>
      <trkpt lat="47.25921" lon="-2.30178">
        <ele>40</ele>
        <time>2021-05-23T10:41:51.983Z</time>
      </trkpt>
      <trkpt lat="47.25921" lon="-2.30178">
        <ele>40</ele>
        <time>2021-05-23T10:41:52.983Z</time>
      </trkpt>
      <trkpt lat="47.25921" lon="-2.30178">
        <ele>40</ele>
        <time>2021-05-23T10:41:53.982Z</time>
      </trkpt>
      <trkpt lat="47.25921" lon="-2.30178">
        <ele>41</ele>
        <time>2021-05-23T10:41:54.983Z</time>
      </trkpt>
      <trkpt lat="47.25921" lon="-2.30178">
        <ele>41</ele>
        <time>2021-05-23T10:41:55.983Z</time>
      </trkpt>
      <trkpt lat="47.25921" lon="-2.30178">
        <ele>41</ele>
        <time>2021-05-23T10:41:56.983Z</time>
      </trkpt>
      <trkpt lat="47.25921" lon="-2.30178">
        <ele>41</ele>
        <time>2021-05-23T10:41:57.983Z</time>
      </trkpt>
      <trkpt lat="47.25921" lon="-2.30178">
        <ele>41</ele>
        <time>2021-05-23T10:41:58.983Z</time>
      </trkpt>
      <trkpt lat="47.25921" lon="-2.30178">
        <ele>41</ele>
        <time>2021-05-23T10:41:59.983Z</time>
      </trkpt>
      <trkpt lat="47.25921" lon="-2.30178">
        <ele>42</ele>
        <time>2021-05-23T10:42:00.983Z</time>
      </trkpt>
      <trkpt lat="47.25921" lon="-2.30178">
        <ele>42</ele>
        <time>2021-05-23T10:42:01.983Z</time>
      </trkpt>
      <trkpt lat="47.25921" lon="-2.30178">
        <ele>42</ele>
        <time>2021-05-23T10:42:02.983Z</time>
      </trkpt>
      <trkpt lat="47.25921" lon="-2.30178">
        <ele>42</ele>
        <time>2021-05-23T10:42:03.983Z</time>
      </trkpt>
      <trkpt lat="47.25921" lon="-2.30178">
        <ele>42</ele>
        <time>2021-05-23T10:42:04.983Z</time>
      </trkpt>
      <trkpt lat="47.25921" lon="-2.30178">
        <ele>42</ele>
        <time>2021-05-23T10:42:05.983Z</time>
      </trkpt>
      <trkpt lat="47.25921" lon="-2.30178">
        <ele>42</ele>
        <time>2021-05-23T10:42:06.983Z</time>
      </trkpt>
      <trkpt lat="47.25921" lon="-2.30178">
        <ele>42</ele>
        <time>2021-05-23T10:42:07.982Z</time>
      </trkpt>
      <trkpt lat="47.25921" lon="-2.30178">
        <ele>42</ele>
        <time>2021-05-23T10:42:08.983Z</time>
      </trkpt>
      <trkpt lat="47.25921" lon="-2.30178">
        <ele>43</ele>
        <time>2021-05-23T10:42:09.982Z</time>
      </trkpt>
      <trkpt lat="47.25921" lon="-2.30178">
        <ele>43</ele>
        <time>2021-05-23T10:42:10.983Z</time>
      </trkpt>
      <trkpt lat="47.25921" lon="-2.30178">
        <ele>43</ele>
        <time>2021-05-23T10:42:11.982Z</time>
      </trkpt>
      <trkpt lat="47.25921" lon="-2.30177">
        <ele>43</ele>
        <time>2021-05-23T10:42:12.982Z</time>
      </trkpt>
      <trkpt lat="47.25921" lon="-2.30177">
        <ele>43</ele>
        <time>2021-05-23T10:42:13.983Z</time>
      </trkpt>
      <trkpt lat="47.25921" lon="-2.30177">
        <ele>43</ele>
        <time>2021-05-23T10:42:14.983Z</time>
      </trkpt>
      <trkpt lat="47.25921" lon="-2.30177">
        <ele>43</ele>
        <time>2021-05-23T10:42:15.983Z</time>
      </trkpt>
      <trkpt lat="47.25921" lon="-2.30177">
        <ele>43</ele>
        <time>2021-05-23T10:42:16.983Z</time>
      </trkpt>
      <trkpt lat="47.25921" lon="-2.30177">
        <ele>43</ele>
        <time>2021-05-23T10:42:17.983Z</time>
      </trkpt>
      <trkpt lat="47.25921" lon="-2.30177">
        <ele>43</ele>
        <time>2021-05-23T10:42:18.982Z</time>
      </trkpt>
      <trkpt lat="47.25921" lon="-2.30177">
        <ele>43</ele>
        <time>2021-05-23T10:42:19.982Z</time>
      </trkpt>
      <trkpt lat="47.25921" lon="-2.30177">
        <ele>43</ele>
        <time>2021-05-23T10:42:20.983Z</time>
      </trkpt>
      <trkpt lat="47.25921" lon="-2.30176">
        <ele>43</ele>
        <time>2021-05-23T10:42:21.983Z</time>
      </trkpt>
      <trkpt lat="47.25921" lon="-2.30176">
        <ele>43</ele>
        <time>2021-05-23T10:42:22.982Z</time>
      </trkpt>
      <trkpt lat="47.25921" lon="-2.30176">
        <ele>43</ele>
        <time>2021-05-23T10:42:23.983Z</time>
      </trkpt>
      <trkpt lat="47.25921" lon="-2.30176">
        <ele>43</ele>
        <time>2021-05-23T10:42:24.983Z</time>
      </trkpt>
      <trkpt lat="47.25921" lon="-2.30176">
        <ele>43</ele>
        <time>2021-05-23T10:42:25.982Z</time>
      </trkpt>
      <trkpt lat="47.25921" lon="-2.30176">
        <ele>43</ele>
        <time>2021-05-23T10:42:26.982Z</time>
      </trkpt>
      <trkpt lat="47.25921" lon="-2.30176">
        <ele>43</ele>
        <time>2021-05-23T10:42:27.982Z</time>
      </trkpt>
      <trkpt lat="47.25921" lon="-2.30176">
        <ele>43</ele>
        <time>2021-05-23T10:42:28.983Z</time>
      </trkpt>
      <trkpt lat="47.25921" lon="-2.30175">
        <ele>43</ele>
        <time>2021-05-23T10:42:29.983Z</time>
      </trkpt>
      <trkpt lat="47.25921" lon="-2.30175">
        <ele>43</ele>
        <time>2021-05-23T10:42:30.983Z</time>
      </trkpt>
      <trkpt lat="47.25922" lon="-2.30174">
        <ele>43</ele>
        <time>2021-05-23T10:42:31.983Z</time>
      </trkpt>
      <trkpt lat="47.25923" lon="-2.30173">
        <ele>43</ele>
        <time>2021-05-23T10:42:32.982Z</time>
      </trkpt>
      <trkpt lat="47.25922" lon="-2.30172">
        <ele>44</ele>
        <time>2021-05-23T10:42:33.983Z</time>
      </trkpt>
      <trkpt lat="47.25922" lon="-2.30172">
        <ele>44</ele>
        <time>2021-05-23T10:42:34.983Z</time>
      </trkpt>
      <trkpt lat="47.25922" lon="-2.30172">
        <ele>44</ele>
        <time>2021-05-23T10:42:35.982Z</time>
      </trkpt>
      <trkpt lat="47.25922" lon="-2.30171">
        <ele>43</ele>
        <time>2021-05-23T10:42:36.983Z</time>
      </trkpt>
      <trkpt lat="47.25922" lon="-2.3017">
        <ele>43</ele>
        <time>2021-05-23T10:42:37.983Z</time>
      </trkpt>
      <trkpt lat="47.25921" lon="-2.3017">
        <ele>43</ele>
        <time>2021-05-23T10:42:38.983Z</time>
      </trkpt>
      <trkpt lat="47.25921" lon="-2.3017">
        <ele>42</ele>
        <time>2021-05-23T10:42:39.982Z</time>
      </trkpt>
      <trkpt lat="47.2592" lon="-2.30169">
        <ele>41</ele>
        <time>2021-05-23T10:42:40.982Z</time>
      </trkpt>
      <trkpt lat="47.2592" lon="-2.30169">
        <ele>41</ele>
        <time>2021-05-23T10:42:41.983Z</time>
      </trkpt>
      <trkpt lat="47.25919" lon="-2.30169">
        <ele>40</ele>
        <time>2021-05-23T10:42:42.983Z</time>
      </trkpt>
      <trkpt lat="47.25919" lon="-2.3017">
        <ele>40</ele>
        <time>2021-05-23T10:42:43.982Z</time>
      </trkpt>
      <trkpt lat="47.25918" lon="-2.3017">
        <ele>40</ele>
        <time>2021-05-23T10:42:44.983Z</time>
      </trkpt>
      <trkpt lat="47.25918" lon="-2.30169">
        <ele>40</ele>
        <time>2021-05-23T10:42:45.983Z</time>
      </trkpt>
      <trkpt lat="47.25918" lon="-2.30169">
        <ele>40</ele>
        <time>2021-05-23T10:42:46.983Z</time>
      </trkpt>
      <trkpt lat="47.25918" lon="-2.30169">
        <ele>40</ele>
        <time>2021-05-23T10:42:47.983Z</time>
      </trkpt>
      <trkpt lat="47.25918" lon="-2.30169">
        <ele>40</ele>
        <time>2021-05-23T10:42:48.983Z</time>
      </trkpt>
      <trkpt lat="47.25918" lon="-2.30169">
        <ele>40</ele>
        <time>2021-05-23T10:42:49.983Z</time>
      </trkpt>
      <trkpt lat="47.25918" lon="-2.30169">
        <ele>39</ele>
        <time>2021-05-23T10:42:50.983Z</time>
      </trkpt>
      <trkpt lat="47.25918" lon="-2.30169">
        <ele>39</ele>
        <time>2021-05-23T10:42:51.983Z</time>
      </trkpt>
      <trkpt lat="47.25918" lon="-2.3017">
        <ele>39</ele>
        <time>2021-05-23T10:42:52.983Z</time>
      </trkpt>
      <trkpt lat="47.25918" lon="-2.30171">
        <ele>39</ele>
        <time>2021-05-23T10:42:53.982Z</time>
      </trkpt>
      <trkpt lat="47.25918" lon="-2.30172">
        <ele>39</ele>
        <time>2021-05-23T10:42:54.983Z</time>
      </trkpt>
      <trkpt lat="47.25918" lon="-2.30172">
        <ele>39</ele>
        <time>2021-05-23T10:42:55.982Z</time>
      </trkpt>
      <trkpt lat="47.25918" lon="-2.30173">
        <ele>39</ele>
        <time>2021-05-23T10:42:56.983Z</time>
      </trkpt>
      <trkpt lat="47.25918" lon="-2.30173">
        <ele>39</ele>
        <time>2021-05-23T10:42:57.983Z</time>
      </trkpt>
      <trkpt lat="47.25918" lon="-2.30173">
        <ele>40</ele>
        <time>2021-05-23T10:42:58.982Z</time>
      </trkpt>
      <trkpt lat="47.25918" lon="-2.30173">
        <ele>40</ele>
        <time>2021-05-23T10:42:59.983Z</time>
      </trkpt>
      <trkpt lat="47.25917" lon="-2.30173">
        <ele>41</ele>
        <time>2021-05-23T10:43:00.983Z</time>
      </trkpt>
      <trkpt lat="47.25916" lon="-2.30171">
        <ele>41</ele>
        <time>2021-05-23T10:43:01.983Z</time>
      </trkpt>
      <trkpt lat="47.25916" lon="-2.3017">
        <ele>42</ele>
        <time>2021-05-23T10:43:02.983Z</time>
      </trkpt>
      <trkpt lat="47.25915" lon="-2.3017">
        <ele>42</ele>
        <time>2021-05-23T10:43:03.983Z</time>
      </trkpt>
      <trkpt lat="47.25915" lon="-2.30171">
        <ele>43</ele>
        <time>2021-05-23T10:43:04.983Z</time>
      </trkpt>
      <trkpt lat="47.25915" lon="-2.30171">
        <ele>43</ele>
        <time>2021-05-23T10:43:05.982Z</time>
      </trkpt>
      <trkpt lat="47.25914" lon="-2.30171">
        <ele>43</ele>
        <time>2021-05-23T10:43:06.983Z</time>
      </trkpt>
      <trkpt lat="47.25914" lon="-2.30171">
        <ele>44</ele>
        <time>2021-05-23T10:43:07.982Z</time>
      </trkpt>
      <trkpt lat="47.25914" lon="-2.30172">
        <ele>44</ele>
        <time>2021-05-23T10:43:08.983Z</time>
      </trkpt>
      <trkpt lat="47.25914" lon="-2.30173">
        <ele>45</ele>
        <time>2021-05-23T10:43:09.983Z</time>
      </trkpt>
      <trkpt lat="47.25914" lon="-2.30174">
        <ele>45</ele>
        <time>2021-05-23T10:43:10.983Z</time>
      </trkpt>
      <trkpt lat="47.25915" lon="-2.30174">
        <ele>45</ele>
        <time>2021-05-23T10:43:11.983Z</time>
      </trkpt>
      <trkpt lat="47.25915" lon="-2.30175">
        <ele>46</ele>
        <time>2021-05-23T10:43:12.983Z</time>
      </trkpt>
      <trkpt lat="47.25915" lon="-2.30174">
        <ele>46</ele>
        <time>2021-05-23T10:43:13.983Z</time>
      </trkpt>
      <trkpt lat="47.25915" lon="-2.30174">
        <ele>47</ele>
        <time>2021-05-23T10:43:14.983Z</time>
      </trkpt>
      <trkpt lat="47.25915" lon="-2.30175">
        <ele>47</ele>
        <time>2021-05-23T10:43:15.983Z</time>
      </trkpt>
      <trkpt lat="47.25915" lon="-2.30175">
        <ele>48</ele>
        <time>2021-05-23T10:43:16.983Z</time>
      </trkpt>
      <trkpt lat="47.25915" lon="-2.30176">
        <ele>48</ele>
        <time>2021-05-23T10:43:17.983Z</time>
      </trkpt>
      <trkpt lat="47.25915" lon="-2.30176">
        <ele>48</ele>
        <time>2021-05-23T10:43:18.982Z</time>
      </trkpt>
      <trkpt lat="47.25915" lon="-2.30177">
        <ele>49</ele>
        <time>2021-05-23T10:43:19.983Z</time>
      </trkpt>
      <trkpt lat="47.25915" lon="-2.30175">
        <ele>49</ele>
        <time>2021-05-23T10:43:20.982Z</time>
      </trkpt>
      <trkpt lat="47.25915" lon="-2.30174">
        <ele>50</ele>
        <time>2021-05-23T10:43:21.982Z</time>
      </trkpt>
      <trkpt lat="47.25916" lon="-2.30174">
        <ele>50</ele>
        <time>2021-05-23T10:43:22.982Z</time>
      </trkpt>
      <trkpt lat="47.25916" lon="-2.30174">
        <ele>51</ele>
        <time>2021-05-23T10:43:23.982Z</time>
      </trkpt>
      <trkpt lat="47.25916" lon="-2.30174">
        <ele>51</ele>
        <time>2021-05-23T10:43:24.982Z</time>
      </trkpt>
      <trkpt lat="47.25916" lon="-2.30174">
        <ele>51</ele>
        <time>2021-05-23T10:43:25.983Z</time>
      </trkpt>
      <trkpt lat="47.25916" lon="-2.30174">
        <ele>51</ele>
        <time>2021-05-23T10:43:26.982Z</time>
      </trkpt>
      <trkpt lat="47.25916" lon="-2.30174">
        <ele>52</ele>
        <time>2021-05-23T10:43:27.982Z</time>
      </trkpt>
      <trkpt lat="47.25916" lon="-2.30174">
        <ele>52</ele>
        <time>2021-05-23T10:43:28.983Z</time>
      </trkpt>
      <trkpt lat="47.25916" lon="-2.30174">
        <ele>52</ele>
        <time>2021-05-23T10:43:29.983Z</time>
      </trkpt>
      <trkpt lat="47.25916" lon="-2.30174">
        <ele>52</ele>
        <time>2021-05-23T10:43:30.983Z</time>
      </trkpt>
      <trkpt lat="47.25916" lon="-2.30174">
        <ele>52</ele>
        <time>2021-05-23T10:43:31.983Z</time>
      </trkpt>
      <trkpt lat="47.25916" lon="-2.30174">
        <ele>52</ele>
        <time>2021-05-23T10:43:32.982Z</time>
      </trkpt>
      <trkpt lat="47.25915" lon="-2.30174">
        <ele>52</ele>
        <time>2021-05-23T10:43:33.982Z</time>
      </trkpt>
      <trkpt lat="47.25915" lon="-2.30174">
        <ele>52</ele>
        <time>2021-05-23T10:43:34.982Z</time>
      </trkpt>
      <trkpt lat="47.25915" lon="-2.30174">
        <ele>52</ele>
        <time>2021-05-23T10:43:35.982Z</time>
      </trkpt>
      <trkpt lat="47.25915" lon="-2.30174">
        <ele>52</ele>
        <time>2021-05-23T10:43:36.982Z</time>
      </trkpt>
      <trkpt lat="47.25915" lon="-2.30175">
        <ele>52</ele>
        <time>2021-05-23T10:43:37.982Z</time>
      </trkpt>
      <trkpt lat="47.25915" lon="-2.30175">
        <ele>52</ele>
        <time>2021-05-23T10:43:38.983Z</time>
      </trkpt>
      <trkpt lat="47.25915" lon="-2.30175">
        <ele>52</ele>
        <time>2021-05-23T10:43:39.982Z</time>
      </trkpt>
      <trkpt lat="47.25915" lon="-2.30175">
        <ele>52</ele>
        <time>2021-05-23T10:43:40.982Z</time>
      </trkpt>
      <trkpt lat="47.25915" lon="-2.30176">
        <ele>52</ele>
        <time>2021-05-23T10:43:41.983Z</time>
      </trkpt>
      <trkpt lat="47.25915" lon="-2.30176">
        <ele>52</ele>
        <time>2021-05-23T10:43:42.983Z</time>
      </trkpt>
      <trkpt lat="47.25914" lon="-2.30176">
        <ele>52</ele>
        <time>2021-05-23T10:43:43.982Z</time>
      </trkpt>
      <trkpt lat="47.25914" lon="-2.30176">
        <ele>52</ele>
        <time>2021-05-23T10:43:44.983Z</time>
      </trkpt>
      <trkpt lat="47.25914" lon="-2.30176">
        <ele>52</ele>
        <time>2021-05-23T10:43:45.982Z</time>
      </trkpt>
      <trkpt lat="47.25914" lon="-2.30176">
        <ele>52</ele>
        <time>2021-05-23T10:43:46.982Z</time>
      </trkpt>
      <trkpt lat="47.25914" lon="-2.30177">
        <ele>52</ele>
        <time>2021-05-23T10:43:47.983Z</time>
      </trkpt>
      <trkpt lat="47.25914" lon="-2.30177">
        <ele>52</ele>
        <time>2021-05-23T10:43:48.983Z</time>
      </trkpt>
      <trkpt lat="47.25914" lon="-2.30177">
        <ele>52</ele>
        <time>2021-05-23T10:43:49.983Z</time>
      </trkpt>
      <trkpt lat="47.25914" lon="-2.30177">
        <ele>52</ele>
        <time>2021-05-23T10:43:50.983Z</time>
      </trkpt>
      <trkpt lat="47.25914" lon="-2.30177">
        <ele>52</ele>
        <time>2021-05-23T10:43:51.983Z</time>
      </trkpt>
      <trkpt lat="47.25914" lon="-2.30178">
        <ele>52</ele>
        <time>2021-05-23T10:43:52.982Z</time>
      </trkpt>
      <trkpt lat="47.25914" lon="-2.30178">
        <ele>52</ele>
        <time>2021-05-23T10:43:53.982Z</time>
      </trkpt>
      <trkpt lat="47.25914" lon="-2.30178">
        <ele>52</ele>
        <time>2021-05-23T10:43:54.982Z</time>
      </trkpt>
      <trkpt lat="47.25914" lon="-2.30178">
        <ele>52</ele>
        <time>2021-05-23T10:43:55.983Z</time>
      </trkpt>
      <trkpt lat="47.25914" lon="-2.30178">
        <ele>52</ele>
        <time>2021-05-23T10:43:56.983Z</time>
      </trkpt>
      <trkpt lat="47.25914" lon="-2.30178">
        <ele>52</ele>
        <time>2021-05-23T10:43:57.982Z</time>
      </trkpt>
      <trkpt lat="47.25914" lon="-2.30178">
        <ele>52</ele>
        <time>2021-05-23T10:43:58.982Z</time>
      </trkpt>
      <trkpt lat="47.25914" lon="-2.30178">
        <ele>52</ele>
        <time>2021-05-23T10:43:59.982Z</time>
      </trkpt>
      <trkpt lat="47.25914" lon="-2.30178">
        <ele>52</ele>
        <time>2021-05-23T10:44:00.982Z</time>
      </trkpt>
      <trkpt lat="47.25914" lon="-2.30178">
        <ele>52</ele>
        <time>2021-05-23T10:44:01.982Z</time>
      </trkpt>
      <trkpt lat="47.25914" lon="-2.30178">
        <ele>52</ele>
        <time>2021-05-23T10:44:02.982Z</time>
      </trkpt>
      <trkpt lat="47.25914" lon="-2.30178">
        <ele>52</ele>
        <time>2021-05-23T10:44:03.982Z</time>
      </trkpt>
      <trkpt lat="47.25914" lon="-2.30178">
        <ele>52</ele>
        <time>2021-05-23T10:44:04.982Z</time>
      </trkpt>
      <trkpt lat="47.25914" lon="-2.30178">
        <ele>52</ele>
        <time>2021-05-23T10:44:05.982Z</time>
      </trkpt>
      <trkpt lat="47.25914" lon="-2.30178">
        <ele>52</ele>
        <time>2021-05-23T10:44:06.983Z</time>
      </trkpt>
      <trkpt lat="47.25914" lon="-2.30178">
        <ele>52</ele>
        <time>2021-05-23T10:44:07.982Z</time>
      </trkpt>
      <trkpt lat="47.25914" lon="-2.30177">
        <ele>52</ele>
        <time>2021-05-23T10:44:08.983Z</time>
      </trkpt>
      <trkpt lat="47.25914" lon="-2.30177">
        <ele>52</ele>
        <time>2021-05-23T10:44:09.983Z</time>
      </trkpt>
      <trkpt lat="47.25914" lon="-2.30177">
        <ele>52</ele>
        <time>2021-05-23T10:44:10.983Z</time>
      </trkpt>
      <trkpt lat="47.25914" lon="-2.30176">
        <ele>52</ele>
        <time>2021-05-23T10:44:11.983Z</time>
      </trkpt>
      <trkpt lat="47.25914" lon="-2.30176">
        <ele>52</ele>
        <time>2021-05-23T10:44:12.983Z</time>
      </trkpt>
      <trkpt lat="47.25914" lon="-2.30175">
        <ele>52</ele>
        <time>2021-05-23T10:44:13.983Z</time>
      </trkpt>
      <trkpt lat="47.25914" lon="-2.30174">
        <ele>52</ele>
        <time>2021-05-23T10:44:14.983Z</time>
      </trkpt>
      <trkpt lat="47.25914" lon="-2.30173">
        <ele>52</ele>
        <time>2021-05-23T10:44:15.983Z</time>
      </trkpt>
      <trkpt lat="47.25914" lon="-2.30172">
        <ele>52</ele>
        <time>2021-05-23T10:44:16.982Z</time>
      </trkpt>
      <trkpt lat="47.25914" lon="-2.30172">
        <ele>52</ele>
        <time>2021-05-23T10:44:17.983Z</time>
      </trkpt>
      <trkpt lat="47.25914" lon="-2.30172">
        <ele>52</ele>
        <time>2021-05-23T10:44:18.983Z</time>
      </trkpt>
      <trkpt lat="47.25914" lon="-2.30172">
        <ele>52</ele>
        <time>2021-05-23T10:44:19.983Z</time>
      </trkpt>
      <trkpt lat="47.25914" lon="-2.30172">
        <ele>52</ele>
        <time>2021-05-23T10:44:20.983Z</time>
      </trkpt>
      <trkpt lat="47.25914" lon="-2.30171">
        <ele>52</ele>
        <time>2021-05-23T10:44:21.983Z</time>
      </trkpt>
      <trkpt lat="47.25914" lon="-2.30171">
        <ele>52</ele>
        <time>2021-05-23T10:44:22.983Z</time>
      </trkpt>
      <trkpt lat="47.25914" lon="-2.30171">
        <ele>52</ele>
        <time>2021-05-23T10:44:23.983Z</time>
      </trkpt>
      <trkpt lat="47.25914" lon="-2.30171">
        <ele>52</ele>
        <time>2021-05-23T10:44:24.982Z</time>
      </trkpt>
      <trkpt lat="47.25914" lon="-2.30171">
        <ele>52</ele>
        <time>2021-05-23T10:44:25.983Z</time>
      </trkpt>
      <trkpt lat="47.25914" lon="-2.30171">
        <ele>52</ele>
        <time>2021-05-23T10:44:26.983Z</time>
      </trkpt>
      <trkpt lat="47.25914" lon="-2.3017">
        <ele>52</ele>
        <time>2021-05-23T10:44:27.983Z</time>
      </trkpt>
      <trkpt lat="47.25914" lon="-2.3017">
        <ele>52</ele>
        <time>2021-05-23T10:44:28.983Z</time>
      </trkpt>
      <trkpt lat="47.25914" lon="-2.3017">
        <ele>52</ele>
        <time>2021-05-23T10:44:29.983Z</time>
      </trkpt>
      <trkpt lat="47.25914" lon="-2.3017">
        <ele>52</ele>
        <time>2021-05-23T10:44:30.983Z</time>
      </trkpt>
      <trkpt lat="47.25914" lon="-2.30169">
        <ele>52</ele>
        <time>2021-05-23T10:44:31.982Z</time>
      </trkpt>
      <trkpt lat="47.25914" lon="-2.30168">
        <ele>52</ele>
        <time>2021-05-23T10:44:32.983Z</time>
      </trkpt>
      <trkpt lat="47.25914" lon="-2.30168">
        <ele>52</ele>
        <time>2021-05-23T10:44:33.983Z</time>
      </trkpt>
      <trkpt lat="47.25914" lon="-2.30168">
        <ele>52</ele>
        <time>2021-05-23T10:44:34.983Z</time>
      </trkpt>
      <trkpt lat="47.25914" lon="-2.30168">
        <ele>52</ele>
        <time>2021-05-23T10:44:35.983Z</time>
      </trkpt>
      <trkpt lat="47.25914" lon="-2.30167">
        <ele>52</ele>
        <time>2021-05-23T10:44:36.983Z</time>
      </trkpt>
      <trkpt lat="47.25914" lon="-2.30167">
        <ele>52</ele>
        <time>2021-05-23T10:44:37.983Z</time>
      </trkpt>
      <trkpt lat="47.25914" lon="-2.30167">
        <ele>52</ele>
        <time>2021-05-23T10:44:38.983Z</time>
      </trkpt>
      <trkpt lat="47.25914" lon="-2.30167">
        <ele>52</ele>
        <time>2021-05-23T10:44:39.983Z</time>
      </trkpt>
      <trkpt lat="47.25914" lon="-2.30167">
        <ele>52</ele>
        <time>2021-05-23T10:44:40.983Z</time>
      </trkpt>
      <trkpt lat="47.25913" lon="-2.30166">
        <ele>52</ele>
        <time>2021-05-23T10:44:41.982Z</time>
      </trkpt>
      <trkpt lat="47.25912" lon="-2.30166">
        <ele>52</ele>
        <time>2021-05-23T10:44:42.983Z</time>
      </trkpt>
      <trkpt lat="47.25912" lon="-2.30166">
        <ele>52</ele>
        <time>2021-05-23T10:44:43.983Z</time>
      </trkpt>
      <trkpt lat="47.25911" lon="-2.30167">
        <ele>52</ele>
        <time>2021-05-23T10:44:44.983Z</time>
      </trkpt>
      <trkpt lat="47.25911" lon="-2.30167">
        <ele>52</ele>
        <time>2021-05-23T10:44:45.983Z</time>
      </trkpt>
      <trkpt lat="47.25911" lon="-2.30166">
        <ele>51</ele>
        <time>2021-05-23T10:44:46.983Z</time>
      </trkpt>
      <trkpt lat="47.2591" lon="-2.30165">
        <ele>51</ele>
        <time>2021-05-23T10:44:47.982Z</time>
      </trkpt>
      <trkpt lat="47.25909" lon="-2.30166">
        <ele>50</ele>
        <time>2021-05-23T10:44:48.983Z</time>
      </trkpt>
      <trkpt lat="47.25908" lon="-2.30167">
        <ele>50</ele>
        <time>2021-05-23T10:44:49.982Z</time>
      </trkpt>
      <trkpt lat="47.25908" lon="-2.30167">
        <ele>49</ele>
        <time>2021-05-23T10:44:50.983Z</time>
      </trkpt>
      <trkpt lat="47.25907" lon="-2.30168">
        <ele>49</ele>
        <time>2021-05-23T10:44:51.983Z</time>
      </trkpt>
      <trkpt lat="47.25906" lon="-2.30168">
        <ele>48</ele>
        <time>2021-05-23T10:44:52.982Z</time>
      </trkpt>
      <trkpt lat="47.25905" lon="-2.30169">
        <ele>48</ele>
        <time>2021-05-23T10:44:53.983Z</time>
      </trkpt>
      <trkpt lat="47.25904" lon="-2.30169">
        <ele>47</ele>
        <time>2021-05-23T10:44:54.983Z</time>
      </trkpt>
      <trkpt lat="47.25903" lon="-2.30169">
        <ele>47</ele>
        <time>2021-05-23T10:44:55.983Z</time>
      </trkpt>
      <trkpt lat="47.25902" lon="-2.30169">
        <ele>46</ele>
        <time>2021-05-23T10:44:56.983Z</time>
      </trkpt>
      <trkpt lat="47.25902" lon="-2.3017">
        <ele>45</ele>
        <time>2021-05-23T10:44:57.983Z</time>
      </trkpt>
      <trkpt lat="47.25902" lon="-2.3017">
        <ele>43</ele>
        <time>2021-05-23T10:44:58.983Z</time>
      </trkpt>
      <trkpt lat="47.25901" lon="-2.3017">
        <ele>42</ele>
        <time>2021-05-23T10:44:59.983Z</time>
      </trkpt>
      <trkpt lat="47.259" lon="-2.30171">
        <ele>41</ele>
        <time>2021-05-23T10:45:00.983Z</time>
      </trkpt>
      <trkpt lat="47.259" lon="-2.30171">
        <ele>39</ele>
        <time>2021-05-23T10:45:01.982Z</time>
      </trkpt>
      <trkpt lat="47.259" lon="-2.30171">
        <ele>37</ele>
        <time>2021-05-23T10:45:02.982Z</time>
      </trkpt>
      <trkpt lat="47.259" lon="-2.30171">
        <ele>36</ele>
        <time>2021-05-23T10:45:03.983Z</time>
      </trkpt>
      <trkpt lat="47.259" lon="-2.30171">
        <ele>34</ele>
        <time>2021-05-23T10:45:04.983Z</time>
      </trkpt>
      <trkpt lat="47.25899" lon="-2.30171">
        <ele>33</ele>
        <time>2021-05-23T10:45:05.983Z</time>
      </trkpt>
      <trkpt lat="47.25899" lon="-2.30171">
        <ele>32</ele>
        <time>2021-05-23T10:45:06.982Z</time>
      </trkpt>
      <trkpt lat="47.25898" lon="-2.30171">
        <ele>31</ele>
        <time>2021-05-23T10:45:07.983Z</time>
      </trkpt>
      <trkpt lat="47.25897" lon="-2.30171">
        <ele>30</ele>
        <time>2021-05-23T10:45:08.983Z</time>
      </trkpt>
      <trkpt lat="47.25896" lon="-2.30172">
        <ele>28</ele>
        <time>2021-05-23T10:45:09.982Z</time>
      </trkpt>
      <trkpt lat="47.25894" lon="-2.30173">
        <ele>27</ele>
        <time>2021-05-23T10:45:10.982Z</time>
      </trkpt>
      <trkpt lat="47.25893" lon="-2.30174">
        <ele>26</ele>
        <time>2021-05-23T10:45:11.983Z</time>
      </trkpt>
      <trkpt lat="47.25892" lon="-2.30175">
        <ele>24</ele>
        <time>2021-05-23T10:45:12.983Z</time>
      </trkpt>
      <trkpt lat="47.25892" lon="-2.30176">
        <ele>23</ele>
        <time>2021-05-23T10:45:13.983Z</time>
      </trkpt>
      <trkpt lat="47.25892" lon="-2.30178">
        <ele>23</ele>
        <time>2021-05-23T10:45:14.982Z</time>
      </trkpt>
      <trkpt lat="47.25891" lon="-2.3018">
        <ele>22</ele>
        <time>2021-05-23T10:45:15.983Z</time>
      </trkpt>
      <trkpt lat="47.2589" lon="-2.30181">
        <ele>22</ele>
        <time>2021-05-23T10:45:16.982Z</time>
      </trkpt>
      <trkpt lat="47.25889" lon="-2.30183">
        <ele>22</ele>
        <time>2021-05-23T10:45:17.983Z</time>
      </trkpt>
      <trkpt lat="47.25889" lon="-2.30186">
        <ele>22</ele>
        <time>2021-05-23T10:45:18.982Z</time>
      </trkpt>
      <trkpt lat="47.25888" lon="-2.30189">
        <ele>22</ele>
        <time>2021-05-23T10:45:19.983Z</time>
      </trkpt>
      <trkpt lat="47.25888" lon="-2.30192">
        <ele>22</ele>
        <time>2021-05-23T10:45:20.983Z</time>
      </trkpt>
      <trkpt lat="47.25887" lon="-2.30194">
        <ele>21</ele>
        <time>2021-05-23T10:45:21.982Z</time>
      </trkpt>
      <trkpt lat="47.25886" lon="-2.30195">
        <ele>21</ele>
        <time>2021-05-23T10:45:22.983Z</time>
      </trkpt>
      <trkpt lat="47.25886" lon="-2.30196">
        <ele>20</ele>
        <time>2021-05-23T10:45:23.983Z</time>
      </trkpt>
      <trkpt lat="47.25885" lon="-2.30198">
        <ele>20</ele>
        <time>2021-05-23T10:45:24.983Z</time>
      </trkpt>
      <trkpt lat="47.25885" lon="-2.302">
        <ele>20</ele>
        <time>2021-05-23T10:45:25.983Z</time>
      </trkpt>
      <trkpt lat="47.25884" lon="-2.30202">
        <ele>20</ele>
        <time>2021-05-23T10:45:26.982Z</time>
      </trkpt>
      <trkpt lat="47.25883" lon="-2.30203">
        <ele>20</ele>
        <time>2021-05-23T10:45:27.983Z</time>
      </trkpt>
      <trkpt lat="47.25882" lon="-2.30204">
        <ele>20</ele>
        <time>2021-05-23T10:45:28.982Z</time>
      </trkpt>
      <trkpt lat="47.25881" lon="-2.30204">
        <ele>20</ele>
        <time>2021-05-23T10:45:29.983Z</time>
      </trkpt>
      <trkpt lat="47.25881" lon="-2.30205">
        <ele>20</ele>
        <time>2021-05-23T10:45:30.982Z</time>
      </trkpt>
      <trkpt lat="47.2588" lon="-2.30206">
        <ele>20</ele>
        <time>2021-05-23T10:45:31.983Z</time>
      </trkpt>
      <trkpt lat="47.25879" lon="-2.30207">
        <ele>20</ele>
        <time>2021-05-23T10:45:32.983Z</time>
      </trkpt>
      <trkpt lat="47.25878" lon="-2.30208">
        <ele>20</ele>
        <time>2021-05-23T10:45:33.983Z</time>
      </trkpt>
      <trkpt lat="47.25877" lon="-2.30209">
        <ele>20</ele>
        <time>2021-05-23T10:45:34.983Z</time>
      </trkpt>
      <trkpt lat="47.25877" lon="-2.30211">
        <ele>19</ele>
        <time>2021-05-23T10:45:35.983Z</time>
      </trkpt>
      <trkpt lat="47.25876" lon="-2.30213">
        <ele>19</ele>
        <time>2021-05-23T10:45:36.983Z</time>
      </trkpt>
      <trkpt lat="47.25876" lon="-2.30214">
        <ele>18</ele>
        <time>2021-05-23T10:45:37.983Z</time>
      </trkpt>
      <trkpt lat="47.25875" lon="-2.30216">
        <ele>18</ele>
        <time>2021-05-23T10:45:38.983Z</time>
      </trkpt>
      <trkpt lat="47.25875" lon="-2.30218">
        <ele>18</ele>
        <time>2021-05-23T10:45:39.983Z</time>
      </trkpt>
      <trkpt lat="47.25874" lon="-2.3022">
        <ele>17</ele>
        <time>2021-05-23T10:45:40.983Z</time>
      </trkpt>
      <trkpt lat="47.25874" lon="-2.30221">
        <ele>17</ele>
        <time>2021-05-23T10:45:41.983Z</time>
      </trkpt>
      <trkpt lat="47.25874" lon="-2.30223">
        <ele>17</ele>
        <time>2021-05-23T10:45:42.983Z</time>
      </trkpt>
      <trkpt lat="47.25874" lon="-2.30225">
        <ele>17</ele>
        <time>2021-05-23T10:45:43.983Z</time>
      </trkpt>
      <trkpt lat="47.25874" lon="-2.30227">
        <ele>16</ele>
        <time>2021-05-23T10:45:44.983Z</time>
      </trkpt>
      <trkpt lat="47.25874" lon="-2.30228">
        <ele>16</ele>
        <time>2021-05-23T10:45:45.983Z</time>
      </trkpt>
      <trkpt lat="47.25873" lon="-2.3023">
        <ele>17</ele>
        <time>2021-05-23T10:45:46.982Z</time>
      </trkpt>
      <trkpt lat="47.25873" lon="-2.30232">
        <ele>17</ele>
        <time>2021-05-23T10:45:47.983Z</time>
      </trkpt>
      <trkpt lat="47.25872" lon="-2.30233">
        <ele>17</ele>
        <time>2021-05-23T10:45:48.983Z</time>
      </trkpt>
      <trkpt lat="47.25872" lon="-2.30234">
        <ele>18</ele>
        <time>2021-05-23T10:45:49.982Z</time>
      </trkpt>
      <trkpt lat="47.25871" lon="-2.30236">
        <ele>18</ele>
        <time>2021-05-23T10:45:50.983Z</time>
      </trkpt>
      <trkpt lat="47.25871" lon="-2.30238">
        <ele>18</ele>
        <time>2021-05-23T10:45:51.982Z</time>
      </trkpt>
      <trkpt lat="47.2587" lon="-2.3024">
        <ele>19</ele>
        <time>2021-05-23T10:45:52.982Z</time>
      </trkpt>
      <trkpt lat="47.2587" lon="-2.30241">
        <ele>19</ele>
        <time>2021-05-23T10:45:53.983Z</time>
      </trkpt>
      <trkpt lat="47.2587" lon="-2.30243">
        <ele>19</ele>
        <time>2021-05-23T10:45:54.983Z</time>
      </trkpt>
      <trkpt lat="47.25869" lon="-2.30245">
        <ele>20</ele>
        <time>2021-05-23T10:45:55.983Z</time>
      </trkpt>
      <trkpt lat="47.25869" lon="-2.30247">
        <ele>19</ele>
        <time>2021-05-23T10:45:56.983Z</time>
      </trkpt>
      <trkpt lat="47.25869" lon="-2.30248">
        <ele>19</ele>
        <time>2021-05-23T10:45:57.983Z</time>
      </trkpt>
      <trkpt lat="47.25869" lon="-2.3025">
        <ele>19</ele>
        <time>2021-05-23T10:45:58.982Z</time>
      </trkpt>
      <trkpt lat="47.25868" lon="-2.30252">
        <ele>19</ele>
        <time>2021-05-23T10:45:59.983Z</time>
      </trkpt>
      <trkpt lat="47.25868" lon="-2.30255">
        <ele>18</ele>
        <time>2021-05-23T10:46:00.982Z</time>
      </trkpt>
      <trkpt lat="47.25868" lon="-2.30256">
        <ele>18</ele>
        <time>2021-05-23T10:46:01.983Z</time>
      </trkpt>
      <trkpt lat="47.25868" lon="-2.30258">
        <ele>19</ele>
        <time>2021-05-23T10:46:02.983Z</time>
      </trkpt>
      <trkpt lat="47.25868" lon="-2.30259">
        <ele>19</ele>
        <time>2021-05-23T10:46:03.983Z</time>
      </trkpt>
      <trkpt lat="47.25868" lon="-2.3026">
        <ele>19</ele>
        <time>2021-05-23T10:46:04.983Z</time>
      </trkpt>
      <trkpt lat="47.25868" lon="-2.30261">
        <ele>19</ele>
        <time>2021-05-23T10:46:05.982Z</time>
      </trkpt>
      <trkpt lat="47.25867" lon="-2.30263">
        <ele>19</ele>
        <time>2021-05-23T10:46:06.982Z</time>
      </trkpt>
      <trkpt lat="47.25868" lon="-2.30264">
        <ele>19</ele>
        <time>2021-05-23T10:46:07.982Z</time>
      </trkpt>
      <trkpt lat="47.25867" lon="-2.30265">
        <ele>19</ele>
        <time>2021-05-23T10:46:08.983Z</time>
      </trkpt>
      <trkpt lat="47.25867" lon="-2.30266">
        <ele>19</ele>
        <time>2021-05-23T10:46:09.983Z</time>
      </trkpt>
      <trkpt lat="47.25866" lon="-2.30268">
        <ele>19</ele>
        <time>2021-05-23T10:46:10.982Z</time>
      </trkpt>
      <trkpt lat="47.25865" lon="-2.30268">
        <ele>19</ele>
        <time>2021-05-23T10:46:11.983Z</time>
      </trkpt>
      <trkpt lat="47.25864" lon="-2.30269">
        <ele>19</ele>
        <time>2021-05-23T10:46:12.982Z</time>
      </trkpt>
      <trkpt lat="47.25863" lon="-2.30269">
        <ele>19</ele>
        <time>2021-05-23T10:46:13.982Z</time>
      </trkpt>
      <trkpt lat="47.25862" lon="-2.30268">
        <ele>19</ele>
        <time>2021-05-23T10:46:14.982Z</time>
      </trkpt>
      <trkpt lat="47.2586" lon="-2.30268">
        <ele>19</ele>
        <time>2021-05-23T10:46:15.982Z</time>
      </trkpt>
      <trkpt lat="47.25859" lon="-2.30267">
        <ele>19</ele>
        <time>2021-05-23T10:46:16.982Z</time>
      </trkpt>
      <trkpt lat="47.25858" lon="-2.30266">
        <ele>19</ele>
        <time>2021-05-23T10:46:17.983Z</time>
      </trkpt>
      <trkpt lat="47.25857" lon="-2.30266">
        <ele>19</ele>
        <time>2021-05-23T10:46:18.982Z</time>
      </trkpt>
      <trkpt lat="47.25855" lon="-2.30265">
        <ele>19</ele>
        <time>2021-05-23T10:46:19.983Z</time>
      </trkpt>
      <trkpt lat="47.25853" lon="-2.30264">
        <ele>19</ele>
        <time>2021-05-23T10:46:20.983Z</time>
      </trkpt>
      <trkpt lat="47.25852" lon="-2.30263">
        <ele>19</ele>
        <time>2021-05-23T10:46:21.983Z</time>
      </trkpt>
      <trkpt lat="47.2585" lon="-2.30262">
        <ele>20</ele>
        <time>2021-05-23T10:46:22.982Z</time>
      </trkpt>
      <trkpt lat="47.25848" lon="-2.30261">
        <ele>20</ele>
        <time>2021-05-23T10:46:23.982Z</time>
      </trkpt>
      <trkpt lat="47.25846" lon="-2.30261">
        <ele>20</ele>
        <time>2021-05-23T10:46:24.982Z</time>
      </trkpt>
      <trkpt lat="47.25845" lon="-2.3026">
        <ele>20</ele>
        <time>2021-05-23T10:46:25.983Z</time>
      </trkpt>
      <trkpt lat="47.25843" lon="-2.3026">
        <ele>20</ele>
        <time>2021-05-23T10:46:26.982Z</time>
      </trkpt>
      <trkpt lat="47.25842" lon="-2.30259">
        <ele>20</ele>
        <time>2021-05-23T10:46:27.983Z</time>
      </trkpt>
      <trkpt lat="47.2584" lon="-2.30258">
        <ele>20</ele>
        <time>2021-05-23T10:46:28.983Z</time>
      </trkpt>
      <trkpt lat="47.25839" lon="-2.30257">
        <ele>20</ele>
        <time>2021-05-23T10:46:29.982Z</time>
      </trkpt>
      <trkpt lat="47.25837" lon="-2.30256">
        <ele>20</ele>
        <time>2021-05-23T10:46:30.982Z</time>
      </trkpt>
      <trkpt lat="47.25835" lon="-2.30256">
        <ele>20</ele>
        <time>2021-05-23T10:46:31.982Z</time>
      </trkpt>
      <trkpt lat="47.25833" lon="-2.30255">
        <ele>20</ele>
        <time>2021-05-23T10:46:32.983Z</time>
      </trkpt>
      <trkpt lat="47.25831" lon="-2.30255">
        <ele>20</ele>
        <time>2021-05-23T10:46:33.983Z</time>
      </trkpt>
      <trkpt lat="47.25829" lon="-2.30254">
        <ele>20</ele>
        <time>2021-05-23T10:46:34.983Z</time>
      </trkpt>
      <trkpt lat="47.25828" lon="-2.30254">
        <ele>20</ele>
        <time>2021-05-23T10:46:35.983Z</time>
      </trkpt>
      <trkpt lat="47.25827" lon="-2.30254">
        <ele>20</ele>
        <time>2021-05-23T10:46:36.983Z</time>
      </trkpt>
      <trkpt lat="47.25825" lon="-2.30253">
        <ele>20</ele>
        <time>2021-05-23T10:46:37.983Z</time>
      </trkpt>
      <trkpt lat="47.25823" lon="-2.30253">
        <ele>19</ele>
        <time>2021-05-23T10:46:38.983Z</time>
      </trkpt>
      <trkpt lat="47.25822" lon="-2.3025">
        <ele>19</ele>
        <time>2021-05-23T10:46:39.983Z</time>
      </trkpt>
      <trkpt lat="47.25821" lon="-2.30248">
        <ele>19</ele>
        <time>2021-05-23T10:46:40.982Z</time>
      </trkpt>
      <trkpt lat="47.2582" lon="-2.30245">
        <ele>19</ele>
        <time>2021-05-23T10:46:41.983Z</time>
      </trkpt>
      <trkpt lat="47.25788" lon="-2.30223">
        <ele>19</ele>
        <time>2021-05-23T10:46:58.982Z</time>
      </trkpt>
      <trkpt lat="47.25782" lon="-2.30229">
        <ele>19</ele>
        <time>2021-05-23T10:46:59.983Z</time>
      </trkpt>
      <trkpt lat="47.25782" lon="-2.3023">
        <ele>20</ele>
        <time>2021-05-23T10:47:00.983Z</time>
      </trkpt>
      <trkpt lat="47.25781" lon="-2.3023">
        <ele>20</ele>
        <time>2021-05-23T10:47:01.983Z</time>
      </trkpt>
      <trkpt lat="47.2578" lon="-2.30229">
        <ele>20</ele>
        <time>2021-05-23T10:47:02.983Z</time>
      </trkpt>
      <trkpt lat="47.25779" lon="-2.30228">
        <ele>20</ele>
        <time>2021-05-23T10:47:03.983Z</time>
      </trkpt>
      <trkpt lat="47.25778" lon="-2.30228">
        <ele>20</ele>
        <time>2021-05-23T10:47:04.983Z</time>
      </trkpt>
      <trkpt lat="47.25776" lon="-2.30228">
        <ele>20</ele>
        <time>2021-05-23T10:47:05.983Z</time>
      </trkpt>
      <trkpt lat="47.25775" lon="-2.30227">
        <ele>20</ele>
        <time>2021-05-23T10:47:06.983Z</time>
      </trkpt>
      <trkpt lat="47.25774" lon="-2.30226">
        <ele>20</ele>
        <time>2021-05-23T10:47:07.982Z</time>
      </trkpt>
      <trkpt lat="47.25773" lon="-2.30225">
        <ele>20</ele>
        <time>2021-05-23T10:47:08.983Z</time>
      </trkpt>
      <trkpt lat="47.25771" lon="-2.30225">
        <ele>20</ele>
        <time>2021-05-23T10:47:09.983Z</time>
      </trkpt>
      <trkpt lat="47.2577" lon="-2.30225">
        <ele>20</ele>
        <time>2021-05-23T10:47:10.982Z</time>
      </trkpt>
      <trkpt lat="47.25768" lon="-2.30224">
        <ele>20</ele>
        <time>2021-05-23T10:47:11.983Z</time>
      </trkpt>
      <trkpt lat="47.25767" lon="-2.30224">
        <ele>20</ele>
        <time>2021-05-23T10:47:12.983Z</time>
      </trkpt>
      <trkpt lat="47.25766" lon="-2.30223">
        <ele>20</ele>
        <time>2021-05-23T10:47:13.983Z</time>
      </trkpt>
      <trkpt lat="47.25765" lon="-2.30222">
        <ele>20</ele>
        <time>2021-05-23T10:47:14.982Z</time>
      </trkpt>
      <trkpt lat="47.25764" lon="-2.30222">
        <ele>21</ele>
        <time>2021-05-23T10:47:15.982Z</time>
      </trkpt>
      <trkpt lat="47.25764" lon="-2.30221">
        <ele>21</ele>
        <time>2021-05-23T10:47:16.982Z</time>
      </trkpt>
      <trkpt lat="47.25763" lon="-2.30221">
        <ele>21</ele>
        <time>2021-05-23T10:47:17.983Z</time>
      </trkpt>
      <trkpt lat="47.25762" lon="-2.30221">
        <ele>21</ele>
        <time>2021-05-23T10:47:18.983Z</time>
      </trkpt>
      <trkpt lat="47.25761" lon="-2.30221">
        <ele>21</ele>
        <time>2021-05-23T10:47:19.983Z</time>
      </trkpt>
      <trkpt lat="47.2576" lon="-2.30221">
        <ele>21</ele>
        <time>2021-05-23T10:47:20.982Z</time>
      </trkpt>
      <trkpt lat="47.2576" lon="-2.30219">
        <ele>21</ele>
        <time>2021-05-23T10:47:21.982Z</time>
      </trkpt>
      <trkpt lat="47.25759" lon="-2.30219">
        <ele>21</ele>
        <time>2021-05-23T10:47:22.983Z</time>
      </trkpt>
      <trkpt lat="47.25758" lon="-2.30219">
        <ele>22</ele>
        <time>2021-05-23T10:47:23.983Z</time>
      </trkpt>
      <trkpt lat="47.25757" lon="-2.30218">
        <ele>22</ele>
        <time>2021-05-23T10:47:24.983Z</time>
      </trkpt>
      <trkpt lat="47.25756" lon="-2.30218">
        <ele>22</ele>
        <time>2021-05-23T10:47:25.983Z</time>
      </trkpt>
      <trkpt lat="47.25754" lon="-2.30217">
        <ele>22</ele>
        <time>2021-05-23T10:47:26.982Z</time>
      </trkpt>
      <trkpt lat="47.25753" lon="-2.30217">
        <ele>22</ele>
        <time>2021-05-23T10:47:27.982Z</time>
      </trkpt>
      <trkpt lat="47.25752" lon="-2.30216">
        <ele>22</ele>
        <time>2021-05-23T10:47:28.982Z</time>
      </trkpt>
      <trkpt lat="47.25751" lon="-2.30216">
        <ele>22</ele>
        <time>2021-05-23T10:47:29.982Z</time>
      </trkpt>
      <trkpt lat="47.2575" lon="-2.30216">
        <ele>22</ele>
        <time>2021-05-23T10:47:30.982Z</time>
      </trkpt>
      <trkpt lat="47.25749" lon="-2.30215">
        <ele>21</ele>
        <time>2021-05-23T10:47:31.983Z</time>
      </trkpt>
      <trkpt lat="47.25748" lon="-2.30215">
        <ele>21</ele>
        <time>2021-05-23T10:47:32.983Z</time>
      </trkpt>
      <trkpt lat="47.25746" lon="-2.30214">
        <ele>21</ele>
        <time>2021-05-23T10:47:33.983Z</time>
      </trkpt>
      <trkpt lat="47.25745" lon="-2.30213">
        <ele>21</ele>
        <time>2021-05-23T10:47:34.983Z</time>
      </trkpt>
      <trkpt lat="47.25744" lon="-2.30212">
        <ele>21</ele>
        <time>2021-05-23T10:47:35.982Z</time>
      </trkpt>
      <trkpt lat="47.25743" lon="-2.30212">
        <ele>20</ele>
        <time>2021-05-23T10:47:36.982Z</time>
      </trkpt>
      <trkpt lat="47.25741" lon="-2.30212">
        <ele>20</ele>
        <time>2021-05-23T10:47:37.983Z</time>
      </trkpt>
      <trkpt lat="47.2574" lon="-2.30212">
        <ele>20</ele>
        <time>2021-05-23T10:47:38.983Z</time>
      </trkpt>
      <trkpt lat="47.25739" lon="-2.30211">
        <ele>20</ele>
        <time>2021-05-23T10:47:39.983Z</time>
      </trkpt>
      <trkpt lat="47.25738" lon="-2.3021">
        <ele>20</ele>
        <time>2021-05-23T10:47:40.982Z</time>
      </trkpt>
      <trkpt lat="47.25737" lon="-2.30209">
        <ele>21</ele>
        <time>2021-05-23T10:47:41.982Z</time>
      </trkpt>
      <trkpt lat="47.25735" lon="-2.30209">
        <ele>21</ele>
        <time>2021-05-23T10:47:42.982Z</time>
      </trkpt>
      <trkpt lat="47.25734" lon="-2.30209">
        <ele>21</ele>
        <time>2021-05-23T10:47:43.982Z</time>
      </trkpt>
      <trkpt lat="47.25732" lon="-2.30208">
        <ele>22</ele>
        <time>2021-05-23T10:47:44.982Z</time>
      </trkpt>
      <trkpt lat="47.25731" lon="-2.30208">
        <ele>22</ele>
        <time>2021-05-23T10:47:45.983Z</time>
      </trkpt>
      <trkpt lat="47.2573" lon="-2.30207">
        <ele>22</ele>
        <time>2021-05-23T10:47:46.983Z</time>
      </trkpt>
      <trkpt lat="47.25729" lon="-2.30207">
        <ele>22</ele>
        <time>2021-05-23T10:47:47.983Z</time>
      </trkpt>
      <trkpt lat="47.25727" lon="-2.30206">
        <ele>22</ele>
        <time>2021-05-23T10:47:48.982Z</time>
      </trkpt>
      <trkpt lat="47.25726" lon="-2.30206">
        <ele>22</ele>
        <time>2021-05-23T10:47:49.983Z</time>
      </trkpt>
      <trkpt lat="47.25725" lon="-2.30206">
        <ele>22</ele>
        <time>2021-05-23T10:47:50.983Z</time>
      </trkpt>
      <trkpt lat="47.25723" lon="-2.30206">
        <ele>22</ele>
        <time>2021-05-23T10:47:51.982Z</time>
      </trkpt>
      <trkpt lat="47.25721" lon="-2.30206">
        <ele>23</ele>
        <time>2021-05-23T10:47:52.983Z</time>
      </trkpt>
      <trkpt lat="47.2572" lon="-2.30205">
        <ele>23</ele>
        <time>2021-05-23T10:47:53.983Z</time>
      </trkpt>
      <trkpt lat="47.25719" lon="-2.30205">
        <ele>23</ele>
        <time>2021-05-23T10:47:54.983Z</time>
      </trkpt>
      <trkpt lat="47.25717" lon="-2.30206">
        <ele>23</ele>
        <time>2021-05-23T10:47:55.983Z</time>
      </trkpt>
      <trkpt lat="47.25716" lon="-2.30206">
        <ele>23</ele>
        <time>2021-05-23T10:47:56.983Z</time>
      </trkpt>
      <trkpt lat="47.25714" lon="-2.30206">
        <ele>24</ele>
        <time>2021-05-23T10:47:57.983Z</time>
      </trkpt>
      <trkpt lat="47.25713" lon="-2.30206">
        <ele>24</ele>
        <time>2021-05-23T10:47:58.982Z</time>
      </trkpt>
      <trkpt lat="47.25711" lon="-2.30206">
        <ele>24</ele>
        <time>2021-05-23T10:47:59.983Z</time>
      </trkpt>
      <trkpt lat="47.2571" lon="-2.30207">
        <ele>24</ele>
        <time>2021-05-23T10:48:00.983Z</time>
      </trkpt>
      <trkpt lat="47.25709" lon="-2.30208">
        <ele>25</ele>
        <time>2021-05-23T10:48:01.983Z</time>
      </trkpt>
      <trkpt lat="47.25707" lon="-2.30208">
        <ele>25</ele>
        <time>2021-05-23T10:48:02.982Z</time>
      </trkpt>
      <trkpt lat="47.25706" lon="-2.30209">
        <ele>25</ele>
        <time>2021-05-23T10:48:03.983Z</time>
      </trkpt>
      <trkpt lat="47.25705" lon="-2.30209">
        <ele>25</ele>
        <time>2021-05-23T10:48:04.982Z</time>
      </trkpt>
      <trkpt lat="47.25704" lon="-2.3021">
        <ele>25</ele>
        <time>2021-05-23T10:48:05.983Z</time>
      </trkpt>
      <trkpt lat="47.25702" lon="-2.30211">
        <ele>25</ele>
        <time>2021-05-23T10:48:06.983Z</time>
      </trkpt>
      <trkpt lat="47.25701" lon="-2.30212">
        <ele>25</ele>
        <time>2021-05-23T10:48:07.982Z</time>
      </trkpt>
      <trkpt lat="47.25699" lon="-2.30213">
        <ele>25</ele>
        <time>2021-05-23T10:48:08.983Z</time>
      </trkpt>
      <trkpt lat="47.25698" lon="-2.30214">
        <ele>24</ele>
        <time>2021-05-23T10:48:09.982Z</time>
      </trkpt>
      <trkpt lat="47.25697" lon="-2.30215">
        <ele>24</ele>
        <time>2021-05-23T10:48:10.982Z</time>
      </trkpt>
      <trkpt lat="47.25696" lon="-2.30216">
        <ele>24</ele>
        <time>2021-05-23T10:48:11.982Z</time>
      </trkpt>
      <trkpt lat="47.25695" lon="-2.30217">
        <ele>25</ele>
        <time>2021-05-23T10:48:12.983Z</time>
      </trkpt>
      <trkpt lat="47.25694" lon="-2.30218">
        <ele>25</ele>
        <time>2021-05-23T10:48:13.983Z</time>
      </trkpt>
      <trkpt lat="47.25693" lon="-2.3022">
        <ele>25</ele>
        <time>2021-05-23T10:48:14.982Z</time>
      </trkpt>
      <trkpt lat="47.25692" lon="-2.30221">
        <ele>26</ele>
        <time>2021-05-23T10:48:15.983Z</time>
      </trkpt>
      <trkpt lat="47.25691" lon="-2.30223">
        <ele>27</ele>
        <time>2021-05-23T10:48:16.982Z</time>
      </trkpt>
      <trkpt lat="47.2569" lon="-2.30223">
        <ele>28</ele>
        <time>2021-05-23T10:48:17.983Z</time>
      </trkpt>
      <trkpt lat="47.25689" lon="-2.30225">
        <ele>28</ele>
        <time>2021-05-23T10:48:18.982Z</time>
      </trkpt>
      <trkpt lat="47.25689" lon="-2.30226">
        <ele>29</ele>
        <time>2021-05-23T10:48:19.983Z</time>
      </trkpt>
      <trkpt lat="47.25688" lon="-2.30228">
        <ele>30</ele>
        <time>2021-05-23T10:48:20.983Z</time>
      </trkpt>
      <trkpt lat="47.25687" lon="-2.30229">
        <ele>31</ele>
        <time>2021-05-23T10:48:21.983Z</time>
      </trkpt>
      <trkpt lat="47.25686" lon="-2.30231">
        <ele>31</ele>
        <time>2021-05-23T10:48:22.983Z</time>
      </trkpt>
      <trkpt lat="47.25685" lon="-2.30232">
        <ele>31</ele>
        <time>2021-05-23T10:48:23.982Z</time>
      </trkpt>
      <trkpt lat="47.25684" lon="-2.30234">
        <ele>32</ele>
        <time>2021-05-23T10:48:24.982Z</time>
      </trkpt>
      <trkpt lat="47.25683" lon="-2.30235">
        <ele>32</ele>
        <time>2021-05-23T10:48:25.982Z</time>
      </trkpt>
      <trkpt lat="47.25682" lon="-2.30237">
        <ele>32</ele>
        <time>2021-05-23T10:48:26.983Z</time>
      </trkpt>
      <trkpt lat="47.25681" lon="-2.30239">
        <ele>32</ele>
        <time>2021-05-23T10:48:27.983Z</time>
      </trkpt>
      <trkpt lat="47.25681" lon="-2.3024">
        <ele>31</ele>
        <time>2021-05-23T10:48:28.982Z</time>
      </trkpt>
      <trkpt lat="47.2568" lon="-2.30242">
        <ele>31</ele>
        <time>2021-05-23T10:48:29.983Z</time>
      </trkpt>
      <trkpt lat="47.2568" lon="-2.30243">
        <ele>30</ele>
        <time>2021-05-23T10:48:30.983Z</time>
      </trkpt>
      <trkpt lat="47.25679" lon="-2.30245">
        <ele>30</ele>
        <time>2021-05-23T10:48:31.983Z</time>
      </trkpt>
      <trkpt lat="47.25679" lon="-2.30247">
        <ele>29</ele>
        <time>2021-05-23T10:48:32.983Z</time>
      </trkpt>
      <trkpt lat="47.25678" lon="-2.30249">
        <ele>29</ele>
        <time>2021-05-23T10:48:33.982Z</time>
      </trkpt>
      <trkpt lat="47.25677" lon="-2.30251">
        <ele>29</ele>
        <time>2021-05-23T10:48:34.983Z</time>
      </trkpt>
      <trkpt lat="47.25677" lon="-2.30252">
        <ele>29</ele>
        <time>2021-05-23T10:48:35.983Z</time>
      </trkpt>
      <trkpt lat="47.25676" lon="-2.30253">
        <ele>29</ele>
        <time>2021-05-23T10:48:36.983Z</time>
      </trkpt>
      <trkpt lat="47.25675" lon="-2.30255">
        <ele>29</ele>
        <time>2021-05-23T10:48:37.983Z</time>
      </trkpt>
      <trkpt lat="47.25674" lon="-2.30256">
        <ele>28</ele>
        <time>2021-05-23T10:48:38.983Z</time>
      </trkpt>
      <trkpt lat="47.25674" lon="-2.30258">
        <ele>28</ele>
        <time>2021-05-23T10:48:39.982Z</time>
      </trkpt>
      <trkpt lat="47.25673" lon="-2.3026">
        <ele>28</ele>
        <time>2021-05-23T10:48:40.983Z</time>
      </trkpt>
      <trkpt lat="47.25672" lon="-2.30261">
        <ele>28</ele>
        <time>2021-05-23T10:48:41.982Z</time>
      </trkpt>
      <trkpt lat="47.25671" lon="-2.30262">
        <ele>27</ele>
        <time>2021-05-23T10:48:42.982Z</time>
      </trkpt>
      <trkpt lat="47.25669" lon="-2.30264">
        <ele>27</ele>
        <time>2021-05-23T10:48:43.983Z</time>
      </trkpt>
      <trkpt lat="47.25668" lon="-2.30265">
        <ele>27</ele>
        <time>2021-05-23T10:48:44.982Z</time>
      </trkpt>
      <trkpt lat="47.25667" lon="-2.30267">
        <ele>26</ele>
        <time>2021-05-23T10:48:45.982Z</time>
      </trkpt>
      <trkpt lat="47.25667" lon="-2.30268">
        <ele>26</ele>
        <time>2021-05-23T10:48:46.982Z</time>
      </trkpt>
      <trkpt lat="47.25666" lon="-2.30269">
        <ele>26</ele>
        <time>2021-05-23T10:48:47.982Z</time>
      </trkpt>
      <trkpt lat="47.25664" lon="-2.30271">
        <ele>26</ele>
        <time>2021-05-23T10:48:48.982Z</time>
      </trkpt>
      <trkpt lat="47.25663" lon="-2.30273">
        <ele>26</ele>
        <time>2021-05-23T10:48:49.982Z</time>
      </trkpt>
      <trkpt lat="47.25662" lon="-2.30275">
        <ele>27</ele>
        <time>2021-05-23T10:48:50.983Z</time>
      </trkpt>
      <trkpt lat="47.25661" lon="-2.30277">
        <ele>27</ele>
        <time>2021-05-23T10:48:51.983Z</time>
      </trkpt>
      <trkpt lat="47.2566" lon="-2.30279">
        <ele>27</ele>
        <time>2021-05-23T10:48:52.983Z</time>
      </trkpt>
      <trkpt lat="47.25659" lon="-2.30281">
        <ele>27</ele>
        <time>2021-05-23T10:48:53.982Z</time>
      </trkpt>
      <trkpt lat="47.25657" lon="-2.30283">
        <ele>26</ele>
        <time>2021-05-23T10:48:54.982Z</time>
      </trkpt>
      <trkpt lat="47.25657" lon="-2.30286">
        <ele>26</ele>
        <time>2021-05-23T10:48:55.982Z</time>
      </trkpt>
      <trkpt lat="47.25656" lon="-2.30288">
        <ele>26</ele>
        <time>2021-05-23T10:48:56.983Z</time>
      </trkpt>
      <trkpt lat="47.25655" lon="-2.3029">
        <ele>25</ele>
        <time>2021-05-23T10:48:57.982Z</time>
      </trkpt>
      <trkpt lat="47.25654" lon="-2.30293">
        <ele>25</ele>
        <time>2021-05-23T10:48:58.983Z</time>
      </trkpt>
      <trkpt lat="47.25654" lon="-2.30296">
        <ele>25</ele>
        <time>2021-05-23T10:48:59.982Z</time>
      </trkpt>
      <trkpt lat="47.25654" lon="-2.30299">
        <ele>24</ele>
        <time>2021-05-23T10:49:00.982Z</time>
      </trkpt>
      <trkpt lat="47.25654" lon="-2.30302">
        <ele>24</ele>
        <time>2021-05-23T10:49:01.983Z</time>
      </trkpt>
      <trkpt lat="47.25654" lon="-2.30305">
        <ele>24</ele>
        <time>2021-05-23T10:49:02.983Z</time>
      </trkpt>
      <trkpt lat="47.25653" lon="-2.30308">
        <ele>23</ele>
        <time>2021-05-23T10:49:03.983Z</time>
      </trkpt>
      <trkpt lat="47.25652" lon="-2.3031">
        <ele>23</ele>
        <time>2021-05-23T10:49:04.982Z</time>
      </trkpt>
      <trkpt lat="47.25651" lon="-2.30312">
        <ele>23</ele>
        <time>2021-05-23T10:49:05.983Z</time>
      </trkpt>
      <trkpt lat="47.25649" lon="-2.30315">
        <ele>23</ele>
        <time>2021-05-23T10:49:06.982Z</time>
      </trkpt>
      <trkpt lat="47.25647" lon="-2.30318">
        <ele>23</ele>
        <time>2021-05-23T10:49:07.983Z</time>
      </trkpt>
      <trkpt lat="47.25646" lon="-2.30321">
        <ele>23</ele>
        <time>2021-05-23T10:49:08.983Z</time>
      </trkpt>
      <trkpt lat="47.25645" lon="-2.30325">
        <ele>23</ele>
        <time>2021-05-23T10:49:09.983Z</time>
      </trkpt>
      <trkpt lat="47.25644" lon="-2.30328">
        <ele>23</ele>
        <time>2021-05-23T10:49:10.983Z</time>
      </trkpt>
      <trkpt lat="47.25643" lon="-2.3033">
        <ele>23</ele>
        <time>2021-05-23T10:49:11.983Z</time>
      </trkpt>
      <trkpt lat="47.25641" lon="-2.30331">
        <ele>23</ele>
        <time>2021-05-23T10:49:12.983Z</time>
      </trkpt>
      <trkpt lat="47.2564" lon="-2.30333">
        <ele>22</ele>
        <time>2021-05-23T10:49:13.983Z</time>
      </trkpt>
      <trkpt lat="47.25638" lon="-2.30335">
        <ele>22</ele>
        <time>2021-05-23T10:49:14.983Z</time>
      </trkpt>
      <trkpt lat="47.25637" lon="-2.30338">
        <ele>22</ele>
        <time>2021-05-23T10:49:15.983Z</time>
      </trkpt>
      <trkpt lat="47.25635" lon="-2.3034">
        <ele>22</ele>
        <time>2021-05-23T10:49:16.983Z</time>
      </trkpt>
      <trkpt lat="47.25634" lon="-2.30342">
        <ele>23</ele>
        <time>2021-05-23T10:49:17.983Z</time>
      </trkpt>
      <trkpt lat="47.25632" lon="-2.30342">
        <ele>24</ele>
        <time>2021-05-23T10:49:18.983Z</time>
      </trkpt>
      <trkpt lat="47.25631" lon="-2.30342">
        <ele>24</ele>
        <time>2021-05-23T10:49:19.982Z</time>
      </trkpt>
      <trkpt lat="47.2563" lon="-2.3034">
        <ele>24</ele>
        <time>2021-05-23T10:49:20.983Z</time>
      </trkpt>
      <trkpt lat="47.25629" lon="-2.30338">
        <ele>25</ele>
        <time>2021-05-23T10:49:21.983Z</time>
      </trkpt>
      <trkpt lat="47.25629" lon="-2.30335">
        <ele>25</ele>
        <time>2021-05-23T10:49:22.983Z</time>
      </trkpt>
      <trkpt lat="47.25628" lon="-2.30332">
        <ele>24</ele>
        <time>2021-05-23T10:49:23.982Z</time>
      </trkpt>
      <trkpt lat="47.25628" lon="-2.30329">
        <ele>24</ele>
        <time>2021-05-23T10:49:24.982Z</time>
      </trkpt>
      <trkpt lat="47.25628" lon="-2.30326">
        <ele>24</ele>
        <time>2021-05-23T10:49:25.983Z</time>
      </trkpt>
      <trkpt lat="47.25627" lon="-2.30323">
        <ele>23</ele>
        <time>2021-05-23T10:49:26.983Z</time>
      </trkpt>
      <trkpt lat="47.25627" lon="-2.3032">
        <ele>23</ele>
        <time>2021-05-23T10:49:27.983Z</time>
      </trkpt>
      <trkpt lat="47.25627" lon="-2.30317">
        <ele>23</ele>
        <time>2021-05-23T10:49:28.983Z</time>
      </trkpt>
      <trkpt lat="47.25627" lon="-2.30314">
        <ele>22</ele>
        <time>2021-05-23T10:49:29.983Z</time>
      </trkpt>
      <trkpt lat="47.25627" lon="-2.30311">
        <ele>22</ele>
        <time>2021-05-23T10:49:30.982Z</time>
      </trkpt>
      <trkpt lat="47.25627" lon="-2.30308">
        <ele>22</ele>
        <time>2021-05-23T10:49:31.983Z</time>
      </trkpt>
      <trkpt lat="47.25627" lon="-2.30304">
        <ele>21</ele>
        <time>2021-05-23T10:49:32.983Z</time>
      </trkpt>
      <trkpt lat="47.25627" lon="-2.30301">
        <ele>21</ele>
        <time>2021-05-23T10:49:33.983Z</time>
      </trkpt>
      <trkpt lat="47.25627" lon="-2.30298">
        <ele>21</ele>
        <time>2021-05-23T10:49:34.983Z</time>
      </trkpt>
      <trkpt lat="47.25626" lon="-2.30295">
        <ele>20</ele>
        <time>2021-05-23T10:49:35.982Z</time>
      </trkpt>
      <trkpt lat="47.25626" lon="-2.30292">
        <ele>20</ele>
        <time>2021-05-23T10:49:36.982Z</time>
      </trkpt>
      <trkpt lat="47.25626" lon="-2.30288">
        <ele>20</ele>
        <time>2021-05-23T10:49:37.983Z</time>
      </trkpt>
      <trkpt lat="47.25626" lon="-2.30285">
        <ele>20</ele>
        <time>2021-05-23T10:49:38.983Z</time>
      </trkpt>
      <trkpt lat="47.25626" lon="-2.30282">
        <ele>20</ele>
        <time>2021-05-23T10:49:39.982Z</time>
      </trkpt>
      <trkpt lat="47.25625" lon="-2.30279">
        <ele>19</ele>
        <time>2021-05-23T10:49:40.983Z</time>
      </trkpt>
      <trkpt lat="47.25625" lon="-2.30276">
        <ele>19</ele>
        <time>2021-05-23T10:49:41.983Z</time>
      </trkpt>
      <trkpt lat="47.25625" lon="-2.30272">
        <ele>19</ele>
        <time>2021-05-23T10:49:42.982Z</time>
      </trkpt>
      <trkpt lat="47.25625" lon="-2.30269">
        <ele>18</ele>
        <time>2021-05-23T10:49:43.983Z</time>
      </trkpt>
      <trkpt lat="47.25625" lon="-2.30267">
        <ele>18</ele>
        <time>2021-05-23T10:49:44.982Z</time>
      </trkpt>
      <trkpt lat="47.25624" lon="-2.30264">
        <ele>18</ele>
        <time>2021-05-23T10:49:45.983Z</time>
      </trkpt>
      <trkpt lat="47.25623" lon="-2.30261">
        <ele>18</ele>
        <time>2021-05-23T10:49:46.983Z</time>
      </trkpt>
      <trkpt lat="47.25622" lon="-2.30258">
        <ele>18</ele>
        <time>2021-05-23T10:49:47.983Z</time>
      </trkpt>
      <trkpt lat="47.2562" lon="-2.30256">
        <ele>17</ele>
        <time>2021-05-23T10:49:48.983Z</time>
      </trkpt>
      <trkpt lat="47.25619" lon="-2.30253">
        <ele>17</ele>
        <time>2021-05-23T10:49:49.983Z</time>
      </trkpt>
      <trkpt lat="47.25618" lon="-2.3025">
        <ele>16</ele>
        <time>2021-05-23T10:49:50.983Z</time>
      </trkpt>
      <trkpt lat="47.25617" lon="-2.30247">
        <ele>16</ele>
        <time>2021-05-23T10:49:51.983Z</time>
      </trkpt>
      <trkpt lat="47.25616" lon="-2.30244">
        <ele>16</ele>
        <time>2021-05-23T10:49:52.983Z</time>
      </trkpt>
      <trkpt lat="47.25615" lon="-2.30242">
        <ele>16</ele>
        <time>2021-05-23T10:49:53.982Z</time>
      </trkpt>
      <trkpt lat="47.25614" lon="-2.30239">
        <ele>16</ele>
        <time>2021-05-23T10:49:54.983Z</time>
      </trkpt>
      <trkpt lat="47.25614" lon="-2.30236">
        <ele>17</ele>
        <time>2021-05-23T10:49:55.982Z</time>
      </trkpt>
      <trkpt lat="47.25614" lon="-2.30233">
        <ele>17</ele>
        <time>2021-05-23T10:49:56.983Z</time>
      </trkpt>
      <trkpt lat="47.25613" lon="-2.3023">
        <ele>17</ele>
        <time>2021-05-23T10:49:57.983Z</time>
      </trkpt>
      <trkpt lat="47.25612" lon="-2.30227">
        <ele>18</ele>
        <time>2021-05-23T10:49:58.982Z</time>
      </trkpt>
      <trkpt lat="47.2561" lon="-2.30224">
        <ele>18</ele>
        <time>2021-05-23T10:49:59.983Z</time>
      </trkpt>
      <trkpt lat="47.25609" lon="-2.30221">
        <ele>19</ele>
        <time>2021-05-23T10:50:00.983Z</time>
      </trkpt>
      <trkpt lat="47.25608" lon="-2.30217">
        <ele>19</ele>
        <time>2021-05-23T10:50:01.983Z</time>
      </trkpt>
      <trkpt lat="47.25606" lon="-2.30214">
        <ele>19</ele>
        <time>2021-05-23T10:50:02.982Z</time>
      </trkpt>
      <trkpt lat="47.25605" lon="-2.30211">
        <ele>20</ele>
        <time>2021-05-23T10:50:03.982Z</time>
      </trkpt>
      <trkpt lat="47.25603" lon="-2.30209">
        <ele>20</ele>
        <time>2021-05-23T10:50:04.982Z</time>
      </trkpt>
      <trkpt lat="47.25601" lon="-2.30207">
        <ele>19</ele>
        <time>2021-05-23T10:50:05.983Z</time>
      </trkpt>
      <trkpt lat="47.256" lon="-2.30205">
        <ele>19</ele>
        <time>2021-05-23T10:50:06.983Z</time>
      </trkpt>
      <trkpt lat="47.25598" lon="-2.30203">
        <ele>19</ele>
        <time>2021-05-23T10:50:07.983Z</time>
      </trkpt>
      <trkpt lat="47.25596" lon="-2.30201">
        <ele>19</ele>
        <time>2021-05-23T10:50:08.983Z</time>
      </trkpt>
      <trkpt lat="47.25595" lon="-2.302">
        <ele>19</ele>
        <time>2021-05-23T10:50:09.983Z</time>
      </trkpt>
      <trkpt lat="47.25593" lon="-2.30199">
        <ele>19</ele>
        <time>2021-05-23T10:50:10.983Z</time>
      </trkpt>
      <trkpt lat="47.25592" lon="-2.30198">
        <ele>19</ele>
        <time>2021-05-23T10:50:11.983Z</time>
      </trkpt>
      <trkpt lat="47.25591" lon="-2.30197">
        <ele>20</ele>
        <time>2021-05-23T10:50:12.983Z</time>
      </trkpt>
      <trkpt lat="47.25589" lon="-2.30197">
        <ele>20</ele>
        <time>2021-05-23T10:50:13.983Z</time>
      </trkpt>
      <trkpt lat="47.25588" lon="-2.30196">
        <ele>20</ele>
        <time>2021-05-23T10:50:14.983Z</time>
      </trkpt>
      <trkpt lat="47.25587" lon="-2.30195">
        <ele>21</ele>
        <time>2021-05-23T10:50:15.982Z</time>
      </trkpt>
      <trkpt lat="47.25587" lon="-2.30194">
        <ele>21</ele>
        <time>2021-05-23T10:50:16.983Z</time>
      </trkpt>
      <trkpt lat="47.25585" lon="-2.30193">
        <ele>21</ele>
        <time>2021-05-23T10:50:17.983Z</time>
      </trkpt>
      <trkpt lat="47.25585" lon="-2.30193">
        <ele>21</ele>
        <time>2021-05-23T10:50:18.983Z</time>
      </trkpt>
      <trkpt lat="47.25583" lon="-2.30192">
        <ele>21</ele>
        <time>2021-05-23T10:50:19.983Z</time>
      </trkpt>
      <trkpt lat="47.25583" lon="-2.30192">
        <ele>21</ele>
        <time>2021-05-23T10:50:20.983Z</time>
      </trkpt>
      <trkpt lat="47.25582" lon="-2.30192">
        <ele>21</ele>
        <time>2021-05-23T10:50:21.983Z</time>
      </trkpt>
      <trkpt lat="47.25581" lon="-2.30192">
        <ele>21</ele>
        <time>2021-05-23T10:50:22.982Z</time>
      </trkpt>
      <trkpt lat="47.2558" lon="-2.30189">
        <ele>21</ele>
        <time>2021-05-23T10:50:23.983Z</time>
      </trkpt>
      <trkpt lat="47.25579" lon="-2.30189">
        <ele>22</ele>
        <time>2021-05-23T10:50:24.983Z</time>
      </trkpt>
      <trkpt lat="47.25578" lon="-2.30189">
        <ele>22</ele>
        <time>2021-05-23T10:50:25.983Z</time>
      </trkpt>
      <trkpt lat="47.25577" lon="-2.30188">
        <ele>22</ele>
        <time>2021-05-23T10:50:26.983Z</time>
      </trkpt>
      <trkpt lat="47.25576" lon="-2.30187">
        <ele>23</ele>
        <time>2021-05-23T10:50:27.982Z</time>
      </trkpt>
      <trkpt lat="47.25575" lon="-2.30186">
        <ele>23</ele>
        <time>2021-05-23T10:50:28.983Z</time>
      </trkpt>
      <trkpt lat="47.25574" lon="-2.30184">
        <ele>24</ele>
        <time>2021-05-23T10:50:29.983Z</time>
      </trkpt>
      <trkpt lat="47.25573" lon="-2.30183">
        <ele>24</ele>
        <time>2021-05-23T10:50:30.983Z</time>
      </trkpt>
      <trkpt lat="47.25572" lon="-2.30181">
        <ele>24</ele>
        <time>2021-05-23T10:50:31.983Z</time>
      </trkpt>
      <trkpt lat="47.25572" lon="-2.30179">
        <ele>24</ele>
        <time>2021-05-23T10:50:32.983Z</time>
      </trkpt>
      <trkpt lat="47.25571" lon="-2.30177">
        <ele>24</ele>
        <time>2021-05-23T10:50:33.983Z</time>
      </trkpt>
      <trkpt lat="47.25571" lon="-2.30175">
        <ele>24</ele>
        <time>2021-05-23T10:50:34.983Z</time>
      </trkpt>
      <trkpt lat="47.2557" lon="-2.30173">
        <ele>24</ele>
        <time>2021-05-23T10:50:35.983Z</time>
      </trkpt>
      <trkpt lat="47.25569" lon="-2.30171">
        <ele>24</ele>
        <time>2021-05-23T10:50:36.982Z</time>
      </trkpt>
      <trkpt lat="47.25569" lon="-2.3017">
        <ele>24</ele>
        <time>2021-05-23T10:50:37.983Z</time>
      </trkpt>
      <trkpt lat="47.25569" lon="-2.30168">
        <ele>24</ele>
        <time>2021-05-23T10:50:38.983Z</time>
      </trkpt>
      <trkpt lat="47.25569" lon="-2.30166">
        <ele>24</ele>
        <time>2021-05-23T10:50:39.983Z</time>
      </trkpt>
      <trkpt lat="47.25569" lon="-2.30164">
        <ele>25</ele>
        <time>2021-05-23T10:50:40.983Z</time>
      </trkpt>
      <trkpt lat="47.25569" lon="-2.30162">
        <ele>25</ele>
        <time>2021-05-23T10:50:41.982Z</time>
      </trkpt>
      <trkpt lat="47.25569" lon="-2.30161">
        <ele>25</ele>
        <time>2021-05-23T10:50:42.983Z</time>
      </trkpt>
      <trkpt lat="47.25569" lon="-2.30158">
        <ele>26</ele>
        <time>2021-05-23T10:50:43.983Z</time>
      </trkpt>
      <trkpt lat="47.25569" lon="-2.30156">
        <ele>26</ele>
        <time>2021-05-23T10:50:44.983Z</time>
      </trkpt>
      <trkpt lat="47.2557" lon="-2.30154">
        <ele>26</ele>
        <time>2021-05-23T10:50:45.983Z</time>
      </trkpt>
      <trkpt lat="47.2557" lon="-2.30153">
        <ele>26</ele>
        <time>2021-05-23T10:50:46.983Z</time>
      </trkpt>
      <trkpt lat="47.2557" lon="-2.3015">
        <ele>26</ele>
        <time>2021-05-23T10:50:47.983Z</time>
      </trkpt>
      <trkpt lat="47.2557" lon="-2.30147">
        <ele>27</ele>
        <time>2021-05-23T10:50:48.983Z</time>
      </trkpt>
      <trkpt lat="47.25569" lon="-2.30146">
        <ele>27</ele>
        <time>2021-05-23T10:50:49.983Z</time>
      </trkpt>
      <trkpt lat="47.25569" lon="-2.30144">
        <ele>26</ele>
        <time>2021-05-23T10:50:50.983Z</time>
      </trkpt>
      <trkpt lat="47.25568" lon="-2.30143">
        <ele>26</ele>
        <time>2021-05-23T10:50:51.983Z</time>
      </trkpt>
      <trkpt lat="47.25567" lon="-2.30142">
        <ele>26</ele>
        <time>2021-05-23T10:50:52.983Z</time>
      </trkpt>
      <trkpt lat="47.25567" lon="-2.3014">
        <ele>26</ele>
        <time>2021-05-23T10:50:53.983Z</time>
      </trkpt>
      <trkpt lat="47.25567" lon="-2.30138">
        <ele>27</ele>
        <time>2021-05-23T10:50:54.983Z</time>
      </trkpt>
      <trkpt lat="47.25567" lon="-2.30137">
        <ele>27</ele>
        <time>2021-05-23T10:50:55.983Z</time>
      </trkpt>
      <trkpt lat="47.25567" lon="-2.30134">
        <ele>27</ele>
        <time>2021-05-23T10:50:56.983Z</time>
      </trkpt>
      <trkpt lat="47.25567" lon="-2.30132">
        <ele>27</ele>
        <time>2021-05-23T10:50:57.982Z</time>
      </trkpt>
      <trkpt lat="47.25567" lon="-2.3013">
        <ele>27</ele>
        <time>2021-05-23T10:50:58.983Z</time>
      </trkpt>
      <trkpt lat="47.25567" lon="-2.30128">
        <ele>27</ele>
        <time>2021-05-23T10:50:59.983Z</time>
      </trkpt>
      <trkpt lat="47.25568" lon="-2.30126">
        <ele>27</ele>
        <time>2021-05-23T10:51:00.983Z</time>
      </trkpt>
      <trkpt lat="47.25568" lon="-2.30124">
        <ele>26</ele>
        <time>2021-05-23T10:51:01.983Z</time>
      </trkpt>
      <trkpt lat="47.25569" lon="-2.30121">
        <ele>26</ele>
        <time>2021-05-23T10:51:02.983Z</time>
      </trkpt>
      <trkpt lat="47.25569" lon="-2.30119">
        <ele>26</ele>
        <time>2021-05-23T10:51:03.983Z</time>
      </trkpt>
      <trkpt lat="47.2557" lon="-2.30118">
        <ele>26</ele>
        <time>2021-05-23T10:51:04.983Z</time>
      </trkpt>
      <trkpt lat="47.2557" lon="-2.30116">
        <ele>26</ele>
        <time>2021-05-23T10:51:05.983Z</time>
      </trkpt>
      <trkpt lat="47.2557" lon="-2.30114">
        <ele>26</ele>
        <time>2021-05-23T10:51:06.983Z</time>
      </trkpt>
      <trkpt lat="47.2557" lon="-2.30112">
        <ele>26</ele>
        <time>2021-05-23T10:51:07.982Z</time>
      </trkpt>
      <trkpt lat="47.2557" lon="-2.3011">
        <ele>26</ele>
        <time>2021-05-23T10:51:08.983Z</time>
      </trkpt>
      <trkpt lat="47.2557" lon="-2.30108">
        <ele>26</ele>
        <time>2021-05-23T10:51:09.983Z</time>
      </trkpt>
      <trkpt lat="47.2557" lon="-2.30107">
        <ele>26</ele>
        <time>2021-05-23T10:51:10.982Z</time>
      </trkpt>
      <trkpt lat="47.25571" lon="-2.30104">
        <ele>26</ele>
        <time>2021-05-23T10:51:11.983Z</time>
      </trkpt>
      <trkpt lat="47.25571" lon="-2.30102">
        <ele>26</ele>
        <time>2021-05-23T10:51:12.982Z</time>
      </trkpt>
      <trkpt lat="47.25571" lon="-2.301">
        <ele>25</ele>
        <time>2021-05-23T10:51:13.982Z</time>
      </trkpt>
      <trkpt lat="47.25572" lon="-2.30098">
        <ele>25</ele>
        <time>2021-05-23T10:51:14.982Z</time>
      </trkpt>
      <trkpt lat="47.25572" lon="-2.30097">
        <ele>25</ele>
        <time>2021-05-23T10:51:15.983Z</time>
      </trkpt>
      <trkpt lat="47.25573" lon="-2.30095">
        <ele>25</ele>
        <time>2021-05-23T10:51:16.983Z</time>
      </trkpt>
      <trkpt lat="47.25574" lon="-2.30093">
        <ele>24</ele>
        <time>2021-05-23T10:51:17.982Z</time>
      </trkpt>
      <trkpt lat="47.25575" lon="-2.30092">
        <ele>24</ele>
        <time>2021-05-23T10:51:18.982Z</time>
      </trkpt>
      <trkpt lat="47.25576" lon="-2.3009">
        <ele>24</ele>
        <time>2021-05-23T10:51:19.982Z</time>
      </trkpt>
      <trkpt lat="47.25577" lon="-2.30089">
        <ele>24</ele>
        <time>2021-05-23T10:51:20.982Z</time>
      </trkpt>
      <trkpt lat="47.25578" lon="-2.30088">
        <ele>25</ele>
        <time>2021-05-23T10:51:21.982Z</time>
      </trkpt>
      <trkpt lat="47.25579" lon="-2.30086">
        <ele>25</ele>
        <time>2021-05-23T10:51:22.983Z</time>
      </trkpt>
      <trkpt lat="47.2558" lon="-2.30085">
        <ele>26</ele>
        <time>2021-05-23T10:51:23.982Z</time>
      </trkpt>
      <trkpt lat="47.25581" lon="-2.30083">
        <ele>26</ele>
        <time>2021-05-23T10:51:24.982Z</time>
      </trkpt>
      <trkpt lat="47.25582" lon="-2.30082">
        <ele>26</ele>
        <time>2021-05-23T10:51:25.983Z</time>
      </trkpt>
      <trkpt lat="47.25583" lon="-2.3008">
        <ele>26</ele>
        <time>2021-05-23T10:51:26.983Z</time>
      </trkpt>
      <trkpt lat="47.25584" lon="-2.30079">
        <ele>27</ele>
        <time>2021-05-23T10:51:27.983Z</time>
      </trkpt>
      <trkpt lat="47.25585" lon="-2.30077">
        <ele>27</ele>
        <time>2021-05-23T10:51:28.982Z</time>
      </trkpt>
      <trkpt lat="47.25586" lon="-2.30075">
        <ele>27</ele>
        <time>2021-05-23T10:51:29.983Z</time>
      </trkpt>
      <trkpt lat="47.25587" lon="-2.30074">
        <ele>27</ele>
        <time>2021-05-23T10:51:30.982Z</time>
      </trkpt>
      <trkpt lat="47.25588" lon="-2.30072">
        <ele>27</ele>
        <time>2021-05-23T10:51:31.983Z</time>
      </trkpt>
      <trkpt lat="47.2559" lon="-2.3007">
        <ele>27</ele>
        <time>2021-05-23T10:51:32.983Z</time>
      </trkpt>
      <trkpt lat="47.2559" lon="-2.30069">
        <ele>27</ele>
        <time>2021-05-23T10:51:33.983Z</time>
      </trkpt>
      <trkpt lat="47.25591" lon="-2.30067">
        <ele>27</ele>
        <time>2021-05-23T10:51:34.983Z</time>
      </trkpt>
      <trkpt lat="47.25592" lon="-2.30066">
        <ele>27</ele>
        <time>2021-05-23T10:51:35.983Z</time>
      </trkpt>
      <trkpt lat="47.25593" lon="-2.30065">
        <ele>27</ele>
        <time>2021-05-23T10:51:36.983Z</time>
      </trkpt>
      <trkpt lat="47.25594" lon="-2.30063">
        <ele>27</ele>
        <time>2021-05-23T10:51:37.983Z</time>
      </trkpt>
      <trkpt lat="47.25595" lon="-2.30062">
        <ele>28</ele>
        <time>2021-05-23T10:51:38.982Z</time>
      </trkpt>
      <trkpt lat="47.25596" lon="-2.30061">
        <ele>28</ele>
        <time>2021-05-23T10:51:39.983Z</time>
      </trkpt>
      <trkpt lat="47.25597" lon="-2.3006">
        <ele>29</ele>
        <time>2021-05-23T10:51:40.983Z</time>
      </trkpt>
      <trkpt lat="47.25598" lon="-2.30058">
        <ele>29</ele>
        <time>2021-05-23T10:51:41.983Z</time>
      </trkpt>
      <trkpt lat="47.25599" lon="-2.30056">
        <ele>30</ele>
        <time>2021-05-23T10:51:42.983Z</time>
      </trkpt>
      <trkpt lat="47.25601" lon="-2.30055">
        <ele>30</ele>
        <time>2021-05-23T10:51:43.983Z</time>
      </trkpt>
      <trkpt lat="47.25603" lon="-2.30053">
        <ele>31</ele>
        <time>2021-05-23T10:51:44.983Z</time>
      </trkpt>
      <trkpt lat="47.25604" lon="-2.30051">
        <ele>31</ele>
        <time>2021-05-23T10:51:45.983Z</time>
      </trkpt>
      <trkpt lat="47.25605" lon="-2.3005">
        <ele>32</ele>
        <time>2021-05-23T10:51:46.983Z</time>
      </trkpt>
      <trkpt lat="47.25606" lon="-2.30048">
        <ele>32</ele>
        <time>2021-05-23T10:51:47.982Z</time>
      </trkpt>
      <trkpt lat="47.25607" lon="-2.30047">
        <ele>32</ele>
        <time>2021-05-23T10:51:48.983Z</time>
      </trkpt>
      <trkpt lat="47.25608" lon="-2.30045">
        <ele>31</ele>
        <time>2021-05-23T10:51:49.982Z</time>
      </trkpt>
      <trkpt lat="47.25609" lon="-2.30043">
        <ele>31</ele>
        <time>2021-05-23T10:51:50.983Z</time>
      </trkpt>
      <trkpt lat="47.25609" lon="-2.30042">
        <ele>31</ele>
        <time>2021-05-23T10:51:51.983Z</time>
      </trkpt>
      <trkpt lat="47.2561" lon="-2.30039">
        <ele>30</ele>
        <time>2021-05-23T10:51:52.983Z</time>
      </trkpt>
      <trkpt lat="47.25611" lon="-2.30037">
        <ele>30</ele>
        <time>2021-05-23T10:51:53.982Z</time>
      </trkpt>
      <trkpt lat="47.25611" lon="-2.30035">
        <ele>30</ele>
        <time>2021-05-23T10:51:54.983Z</time>
      </trkpt>
      <trkpt lat="47.25611" lon="-2.30034">
        <ele>30</ele>
        <time>2021-05-23T10:51:55.983Z</time>
      </trkpt>
      <trkpt lat="47.25612" lon="-2.30031">
        <ele>29</ele>
        <time>2021-05-23T10:51:56.982Z</time>
      </trkpt>
      <trkpt lat="47.25612" lon="-2.30029">
        <ele>29</ele>
        <time>2021-05-23T10:51:57.983Z</time>
      </trkpt>
      <trkpt lat="47.25612" lon="-2.30027">
        <ele>29</ele>
        <time>2021-05-23T10:51:58.983Z</time>
      </trkpt>
      <trkpt lat="47.25612" lon="-2.30025">
        <ele>29</ele>
        <time>2021-05-23T10:51:59.982Z</time>
      </trkpt>
      <trkpt lat="47.25611" lon="-2.30023">
        <ele>29</ele>
        <time>2021-05-23T10:52:00.983Z</time>
      </trkpt>
      <trkpt lat="47.25611" lon="-2.30021">
        <ele>29</ele>
        <time>2021-05-23T10:52:01.983Z</time>
      </trkpt>
      <trkpt lat="47.2561" lon="-2.30019">
        <ele>28</ele>
        <time>2021-05-23T10:52:02.982Z</time>
      </trkpt>
      <trkpt lat="47.2561" lon="-2.30017">
        <ele>28</ele>
        <time>2021-05-23T10:52:03.983Z</time>
      </trkpt>
      <trkpt lat="47.25609" lon="-2.30015">
        <ele>28</ele>
        <time>2021-05-23T10:52:04.983Z</time>
      </trkpt>
      <trkpt lat="47.25608" lon="-2.30013">
        <ele>28</ele>
        <time>2021-05-23T10:52:05.982Z</time>
      </trkpt>
      <trkpt lat="47.25608" lon="-2.3001">
        <ele>28</ele>
        <time>2021-05-23T10:52:06.983Z</time>
      </trkpt>
      <trkpt lat="47.25607" lon="-2.30008">
        <ele>28</ele>
        <time>2021-05-23T10:52:07.983Z</time>
      </trkpt>
      <trkpt lat="47.25606" lon="-2.30006">
        <ele>28</ele>
        <time>2021-05-23T10:52:08.983Z</time>
      </trkpt>
      <trkpt lat="47.25606" lon="-2.30004">
        <ele>28</ele>
        <time>2021-05-23T10:52:09.983Z</time>
      </trkpt>
      <trkpt lat="47.25605" lon="-2.30002">
        <ele>28</ele>
        <time>2021-05-23T10:52:10.983Z</time>
      </trkpt>
      <trkpt lat="47.25603" lon="-2.3">
        <ele>28</ele>
        <time>2021-05-23T10:52:11.983Z</time>
      </trkpt>
      <trkpt lat="47.25602" lon="-2.29999">
        <ele>28</ele>
        <time>2021-05-23T10:52:12.983Z</time>
      </trkpt>
      <trkpt lat="47.25601" lon="-2.29998">
        <ele>27</ele>
        <time>2021-05-23T10:52:13.982Z</time>
      </trkpt>
      <trkpt lat="47.25601" lon="-2.29997">
        <ele>27</ele>
        <time>2021-05-23T10:52:14.982Z</time>
      </trkpt>
      <trkpt lat="47.256" lon="-2.29996">
        <ele>27</ele>
        <time>2021-05-23T10:52:15.983Z</time>
      </trkpt>
      <trkpt lat="47.25599" lon="-2.29995">
        <ele>27</ele>
        <time>2021-05-23T10:52:16.983Z</time>
      </trkpt>
      <trkpt lat="47.25599" lon="-2.29993">
        <ele>27</ele>
        <time>2021-05-23T10:52:17.983Z</time>
      </trkpt>
      <trkpt lat="47.25598" lon="-2.29992">
        <ele>27</ele>
        <time>2021-05-23T10:52:18.982Z</time>
      </trkpt>
      <trkpt lat="47.25596" lon="-2.2999">
        <ele>26</ele>
        <time>2021-05-23T10:52:19.983Z</time>
      </trkpt>
      <trkpt lat="47.25595" lon="-2.29989">
        <ele>26</ele>
        <time>2021-05-23T10:52:20.982Z</time>
      </trkpt>
      <trkpt lat="47.25595" lon="-2.29987">
        <ele>26</ele>
        <time>2021-05-23T10:52:21.982Z</time>
      </trkpt>
      <trkpt lat="47.25594" lon="-2.29985">
        <ele>26</ele>
        <time>2021-05-23T10:52:22.983Z</time>
      </trkpt>
      <trkpt lat="47.25593" lon="-2.29984">
        <ele>27</ele>
        <time>2021-05-23T10:52:23.983Z</time>
      </trkpt>
      <trkpt lat="47.25592" lon="-2.29982">
        <ele>27</ele>
        <time>2021-05-23T10:52:24.983Z</time>
      </trkpt>
      <trkpt lat="47.25591" lon="-2.2998">
        <ele>27</ele>
        <time>2021-05-23T10:52:25.983Z</time>
      </trkpt>
      <trkpt lat="47.2559" lon="-2.29979">
        <ele>27</ele>
        <time>2021-05-23T10:52:26.983Z</time>
      </trkpt>
      <trkpt lat="47.25589" lon="-2.29977">
        <ele>27</ele>
        <time>2021-05-23T10:52:27.983Z</time>
      </trkpt>
      <trkpt lat="47.25588" lon="-2.29976">
        <ele>27</ele>
        <time>2021-05-23T10:52:28.983Z</time>
      </trkpt>
      <trkpt lat="47.25587" lon="-2.29974">
        <ele>27</ele>
        <time>2021-05-23T10:52:29.983Z</time>
      </trkpt>
      <trkpt lat="47.25586" lon="-2.29972">
        <ele>27</ele>
        <time>2021-05-23T10:52:30.982Z</time>
      </trkpt>
      <trkpt lat="47.25585" lon="-2.2997">
        <ele>27</ele>
        <time>2021-05-23T10:52:31.982Z</time>
      </trkpt>
      <trkpt lat="47.25584" lon="-2.29968">
        <ele>28</ele>
        <time>2021-05-23T10:52:32.983Z</time>
      </trkpt>
      <trkpt lat="47.25583" lon="-2.29967">
        <ele>28</ele>
        <time>2021-05-23T10:52:33.982Z</time>
      </trkpt>
      <trkpt lat="47.25582" lon="-2.29966">
        <ele>27</ele>
        <time>2021-05-23T10:52:34.983Z</time>
      </trkpt>
      <trkpt lat="47.25581" lon="-2.29964">
        <ele>27</ele>
        <time>2021-05-23T10:52:35.983Z</time>
      </trkpt>
      <trkpt lat="47.2558" lon="-2.29963">
        <ele>27</ele>
        <time>2021-05-23T10:52:36.983Z</time>
      </trkpt>
      <trkpt lat="47.25579" lon="-2.29961">
        <ele>27</ele>
        <time>2021-05-23T10:52:37.983Z</time>
      </trkpt>
      <trkpt lat="47.25578" lon="-2.29959">
        <ele>26</ele>
        <time>2021-05-23T10:52:38.983Z</time>
      </trkpt>
      <trkpt lat="47.25577" lon="-2.29958">
        <ele>26</ele>
        <time>2021-05-23T10:52:39.983Z</time>
      </trkpt>
      <trkpt lat="47.25576" lon="-2.29956">
        <ele>26</ele>
        <time>2021-05-23T10:52:40.982Z</time>
      </trkpt>
      <trkpt lat="47.25575" lon="-2.29954">
        <ele>26</ele>
        <time>2021-05-23T10:52:41.983Z</time>
      </trkpt>
      <trkpt lat="47.25574" lon="-2.29952">
        <ele>27</ele>
        <time>2021-05-23T10:52:42.982Z</time>
      </trkpt>
      <trkpt lat="47.25573" lon="-2.2995">
        <ele>27</ele>
        <time>2021-05-23T10:52:43.982Z</time>
      </trkpt>
      <trkpt lat="47.25572" lon="-2.29949">
        <ele>28</ele>
        <time>2021-05-23T10:52:44.982Z</time>
      </trkpt>
      <trkpt lat="47.25571" lon="-2.29948">
        <ele>28</ele>
        <time>2021-05-23T10:52:45.982Z</time>
      </trkpt>
      <trkpt lat="47.2557" lon="-2.29946">
        <ele>29</ele>
        <time>2021-05-23T10:52:46.983Z</time>
      </trkpt>
      <trkpt lat="47.25569" lon="-2.29945">
        <ele>29</ele>
        <time>2021-05-23T10:52:47.983Z</time>
      </trkpt>
      <trkpt lat="47.25568" lon="-2.29944">
        <ele>29</ele>
        <time>2021-05-23T10:52:48.983Z</time>
      </trkpt>
      <trkpt lat="47.25567" lon="-2.29942">
        <ele>29</ele>
        <time>2021-05-23T10:52:49.983Z</time>
      </trkpt>
      <trkpt lat="47.25566" lon="-2.29941">
        <ele>29</ele>
        <time>2021-05-23T10:52:50.982Z</time>
      </trkpt>
      <trkpt lat="47.25565" lon="-2.29939">
        <ele>29</ele>
        <time>2021-05-23T10:52:51.982Z</time>
      </trkpt>
      <trkpt lat="47.25564" lon="-2.29938">
        <ele>29</ele>
        <time>2021-05-23T10:52:52.982Z</time>
      </trkpt>
      <trkpt lat="47.25563" lon="-2.29936">
        <ele>29</ele>
        <time>2021-05-23T10:52:53.982Z</time>
      </trkpt>
      <trkpt lat="47.25562" lon="-2.29934">
        <ele>29</ele>
        <time>2021-05-23T10:52:54.982Z</time>
      </trkpt>
      <trkpt lat="47.25561" lon="-2.29932">
        <ele>30</ele>
        <time>2021-05-23T10:52:55.983Z</time>
      </trkpt>
      <trkpt lat="47.2556" lon="-2.2993">
        <ele>30</ele>
        <time>2021-05-23T10:52:56.982Z</time>
      </trkpt>
      <trkpt lat="47.25559" lon="-2.29929">
        <ele>30</ele>
        <time>2021-05-23T10:52:57.983Z</time>
      </trkpt>
      <trkpt lat="47.25558" lon="-2.29927">
        <ele>30</ele>
        <time>2021-05-23T10:52:58.983Z</time>
      </trkpt>
      <trkpt lat="47.25558" lon="-2.29925">
        <ele>30</ele>
        <time>2021-05-23T10:52:59.983Z</time>
      </trkpt>
      <trkpt lat="47.25557" lon="-2.29923">
        <ele>30</ele>
        <time>2021-05-23T10:53:00.983Z</time>
      </trkpt>
      <trkpt lat="47.25556" lon="-2.29921">
        <ele>30</ele>
        <time>2021-05-23T10:53:01.982Z</time>
      </trkpt>
      <trkpt lat="47.25555" lon="-2.2992">
        <ele>29</ele>
        <time>2021-05-23T10:53:02.982Z</time>
      </trkpt>
      <trkpt lat="47.25554" lon="-2.29919">
        <ele>29</ele>
        <time>2021-05-23T10:53:03.983Z</time>
      </trkpt>
      <trkpt lat="47.25553" lon="-2.29917">
        <ele>29</ele>
        <time>2021-05-23T10:53:04.983Z</time>
      </trkpt>
      <trkpt lat="47.25552" lon="-2.29916">
        <ele>29</ele>
        <time>2021-05-23T10:53:05.983Z</time>
      </trkpt>
      <trkpt lat="47.25551" lon="-2.29914">
        <ele>29</ele>
        <time>2021-05-23T10:53:06.983Z</time>
      </trkpt>
      <trkpt lat="47.25551" lon="-2.29913">
        <ele>29</ele>
        <time>2021-05-23T10:53:07.982Z</time>
      </trkpt>
      <trkpt lat="47.2555" lon="-2.29912">
        <ele>29</ele>
        <time>2021-05-23T10:53:08.983Z</time>
      </trkpt>
      <trkpt lat="47.25549" lon="-2.29911">
        <ele>29</ele>
        <time>2021-05-23T10:53:09.982Z</time>
      </trkpt>
      <trkpt lat="47.25548" lon="-2.29909">
        <ele>28</ele>
        <time>2021-05-23T10:53:10.982Z</time>
      </trkpt>
      <trkpt lat="47.25547" lon="-2.29908">
        <ele>28</ele>
        <time>2021-05-23T10:53:11.982Z</time>
      </trkpt>
      <trkpt lat="47.25546" lon="-2.29906">
        <ele>28</ele>
        <time>2021-05-23T10:53:12.983Z</time>
      </trkpt>
      <trkpt lat="47.25545" lon="-2.29905">
        <ele>27</ele>
        <time>2021-05-23T10:53:13.983Z</time>
      </trkpt>
      <trkpt lat="47.25544" lon="-2.29904">
        <ele>27</ele>
        <time>2021-05-23T10:53:14.983Z</time>
      </trkpt>
      <trkpt lat="47.25542" lon="-2.29902">
        <ele>27</ele>
        <time>2021-05-23T10:53:15.983Z</time>
      </trkpt>
      <trkpt lat="47.25542" lon="-2.299">
        <ele>27</ele>
        <time>2021-05-23T10:53:16.982Z</time>
      </trkpt>
      <trkpt lat="47.25541" lon="-2.29899">
        <ele>27</ele>
        <time>2021-05-23T10:53:17.983Z</time>
      </trkpt>
      <trkpt lat="47.2554" lon="-2.29897">
        <ele>27</ele>
        <time>2021-05-23T10:53:18.982Z</time>
      </trkpt>
      <trkpt lat="47.25539" lon="-2.29896">
        <ele>26</ele>
        <time>2021-05-23T10:53:19.983Z</time>
      </trkpt>
      <trkpt lat="47.25537" lon="-2.29894">
        <ele>27</ele>
        <time>2021-05-23T10:53:20.982Z</time>
      </trkpt>
      <trkpt lat="47.25536" lon="-2.29892">
        <ele>27</ele>
        <time>2021-05-23T10:53:21.982Z</time>
      </trkpt>
      <trkpt lat="47.25535" lon="-2.2989">
        <ele>28</ele>
        <time>2021-05-23T10:53:22.983Z</time>
      </trkpt>
      <trkpt lat="47.25535" lon="-2.29889">
        <ele>28</ele>
        <time>2021-05-23T10:53:23.982Z</time>
      </trkpt>
      <trkpt lat="47.25534" lon="-2.29887">
        <ele>28</ele>
        <time>2021-05-23T10:53:24.983Z</time>
      </trkpt>
      <trkpt lat="47.25534" lon="-2.29885">
        <ele>28</ele>
        <time>2021-05-23T10:53:25.982Z</time>
      </trkpt>
      <trkpt lat="47.25534" lon="-2.29883">
        <ele>28</ele>
        <time>2021-05-23T10:53:26.983Z</time>
      </trkpt>
      <trkpt lat="47.25534" lon="-2.29881">
        <ele>28</ele>
        <time>2021-05-23T10:53:27.983Z</time>
      </trkpt>
      <trkpt lat="47.25535" lon="-2.29879">
        <ele>28</ele>
        <time>2021-05-23T10:53:28.982Z</time>
      </trkpt>
      <trkpt lat="47.25536" lon="-2.29877">
        <ele>28</ele>
        <time>2021-05-23T10:53:29.983Z</time>
      </trkpt>
      <trkpt lat="47.25536" lon="-2.29875">
        <ele>27</ele>
        <time>2021-05-23T10:53:30.983Z</time>
      </trkpt>
      <trkpt lat="47.25537" lon="-2.29874">
        <ele>27</ele>
        <time>2021-05-23T10:53:31.983Z</time>
      </trkpt>
      <trkpt lat="47.25539" lon="-2.29872">
        <ele>27</ele>
        <time>2021-05-23T10:53:32.982Z</time>
      </trkpt>
      <trkpt lat="47.2554" lon="-2.2987">
        <ele>26</ele>
        <time>2021-05-23T10:53:33.983Z</time>
      </trkpt>
      <trkpt lat="47.25541" lon="-2.29868">
        <ele>26</ele>
        <time>2021-05-23T10:53:34.983Z</time>
      </trkpt>
      <trkpt lat="47.25542" lon="-2.29867">
        <ele>26</ele>
        <time>2021-05-23T10:53:35.983Z</time>
      </trkpt>
      <trkpt lat="47.25543" lon="-2.29864">
        <ele>26</ele>
        <time>2021-05-23T10:53:36.983Z</time>
      </trkpt>
      <trkpt lat="47.25544" lon="-2.29862">
        <ele>27</ele>
        <time>2021-05-23T10:53:37.983Z</time>
      </trkpt>
      <trkpt lat="47.25545" lon="-2.2986">
        <ele>27</ele>
        <time>2021-05-23T10:53:38.983Z</time>
      </trkpt>
      <trkpt lat="47.25547" lon="-2.29858">
        <ele>28</ele>
        <time>2021-05-23T10:53:39.983Z</time>
      </trkpt>
      <trkpt lat="47.25548" lon="-2.29855">
        <ele>28</ele>
        <time>2021-05-23T10:53:40.983Z</time>
      </trkpt>
      <trkpt lat="47.2555" lon="-2.29852">
        <ele>28</ele>
        <time>2021-05-23T10:53:41.982Z</time>
      </trkpt>
      <trkpt lat="47.25552" lon="-2.29849">
        <ele>29</ele>
        <time>2021-05-23T10:53:42.983Z</time>
      </trkpt>
      <trkpt lat="47.25553" lon="-2.29847">
        <ele>29</ele>
        <time>2021-05-23T10:53:43.983Z</time>
      </trkpt>
      <trkpt lat="47.25554" lon="-2.29844">
        <ele>30</ele>
        <time>2021-05-23T10:53:44.983Z</time>
      </trkpt>
      <trkpt lat="47.25555" lon="-2.29843">
        <ele>30</ele>
        <time>2021-05-23T10:53:45.983Z</time>
      </trkpt>
      <trkpt lat="47.25557" lon="-2.29841">
        <ele>30</ele>
        <time>2021-05-23T10:53:46.983Z</time>
      </trkpt>
      <trkpt lat="47.25558" lon="-2.29838">
        <ele>30</ele>
        <time>2021-05-23T10:53:47.983Z</time>
      </trkpt>
      <trkpt lat="47.25559" lon="-2.29836">
        <ele>30</ele>
        <time>2021-05-23T10:53:48.983Z</time>
      </trkpt>
      <trkpt lat="47.2556" lon="-2.29835">
        <ele>30</ele>
        <time>2021-05-23T10:53:49.982Z</time>
      </trkpt>
      <trkpt lat="47.25562" lon="-2.29833">
        <ele>29</ele>
        <time>2021-05-23T10:53:50.983Z</time>
      </trkpt>
      <trkpt lat="47.25564" lon="-2.29831">
        <ele>29</ele>
        <time>2021-05-23T10:53:51.983Z</time>
      </trkpt>
      <trkpt lat="47.25566" lon="-2.29829">
        <ele>29</ele>
        <time>2021-05-23T10:53:52.982Z</time>
      </trkpt>
      <trkpt lat="47.25567" lon="-2.29826">
        <ele>29</ele>
        <time>2021-05-23T10:53:53.983Z</time>
      </trkpt>
      <trkpt lat="47.25568" lon="-2.29825">
        <ele>29</ele>
        <time>2021-05-23T10:53:54.983Z</time>
      </trkpt>
      <trkpt lat="47.2557" lon="-2.29822">
        <ele>29</ele>
        <time>2021-05-23T10:53:55.983Z</time>
      </trkpt>
      <trkpt lat="47.25571" lon="-2.2982">
        <ele>30</ele>
        <time>2021-05-23T10:53:56.983Z</time>
      </trkpt>
      <trkpt lat="47.25573" lon="-2.29817">
        <ele>30</ele>
        <time>2021-05-23T10:53:57.982Z</time>
      </trkpt>
      <trkpt lat="47.25574" lon="-2.29815">
        <ele>30</ele>
        <time>2021-05-23T10:53:58.983Z</time>
      </trkpt>
      <trkpt lat="47.25575" lon="-2.29812">
        <ele>29</ele>
        <time>2021-05-23T10:53:59.983Z</time>
      </trkpt>
      <trkpt lat="47.25576" lon="-2.29808">
        <ele>29</ele>
        <time>2021-05-23T10:54:00.983Z</time>
      </trkpt>
      <trkpt lat="47.25575" lon="-2.29805">
        <ele>29</ele>
        <time>2021-05-23T10:54:01.982Z</time>
      </trkpt>
      <trkpt lat="47.25575" lon="-2.29802">
        <ele>28</ele>
        <time>2021-05-23T10:54:02.983Z</time>
      </trkpt>
      <trkpt lat="47.25574" lon="-2.298">
        <ele>28</ele>
        <time>2021-05-23T10:54:03.983Z</time>
      </trkpt>
      <trkpt lat="47.25573" lon="-2.29797">
        <ele>27</ele>
        <time>2021-05-23T10:54:04.982Z</time>
      </trkpt>
      <trkpt lat="47.25572" lon="-2.29796">
        <ele>27</ele>
        <time>2021-05-23T10:54:05.983Z</time>
      </trkpt>
      <trkpt lat="47.2557" lon="-2.29794">
        <ele>27</ele>
        <time>2021-05-23T10:54:06.983Z</time>
      </trkpt>
      <trkpt lat="47.25569" lon="-2.29793">
        <ele>27</ele>
        <time>2021-05-23T10:54:07.983Z</time>
      </trkpt>
      <trkpt lat="47.25568" lon="-2.29792">
        <ele>27</ele>
        <time>2021-05-23T10:54:08.983Z</time>
      </trkpt>
      <trkpt lat="47.25567" lon="-2.29791">
        <ele>27</ele>
        <time>2021-05-23T10:54:09.983Z</time>
      </trkpt>
      <trkpt lat="47.25567" lon="-2.29789">
        <ele>27</ele>
        <time>2021-05-23T10:54:10.982Z</time>
      </trkpt>
      <trkpt lat="47.25566" lon="-2.29788">
        <ele>27</ele>
        <time>2021-05-23T10:54:11.983Z</time>
      </trkpt>
      <trkpt lat="47.25565" lon="-2.29787">
        <ele>27</ele>
        <time>2021-05-23T10:54:12.983Z</time>
      </trkpt>
      <trkpt lat="47.25564" lon="-2.29787">
        <ele>28</ele>
        <time>2021-05-23T10:54:13.982Z</time>
      </trkpt>
      <trkpt lat="47.25564" lon="-2.29787">
        <ele>28</ele>
        <time>2021-05-23T10:54:14.983Z</time>
      </trkpt>
      <trkpt lat="47.25564" lon="-2.29787">
        <ele>28</ele>
        <time>2021-05-23T10:54:15.983Z</time>
      </trkpt>
      <trkpt lat="47.25564" lon="-2.29787">
        <ele>28</ele>
        <time>2021-05-23T10:54:16.983Z</time>
      </trkpt>
      <trkpt lat="47.25564" lon="-2.29786">
        <ele>28</ele>
        <time>2021-05-23T10:54:17.982Z</time>
      </trkpt>
      <trkpt lat="47.25564" lon="-2.29785">
        <ele>28</ele>
        <time>2021-05-23T10:54:18.982Z</time>
      </trkpt>
      <trkpt lat="47.25563" lon="-2.29784">
        <ele>28</ele>
        <time>2021-05-23T10:54:19.982Z</time>
      </trkpt>
      <trkpt lat="47.25562" lon="-2.29783">
        <ele>28</ele>
        <time>2021-05-23T10:54:20.982Z</time>
      </trkpt>
      <trkpt lat="47.25562" lon="-2.2978">
        <ele>28</ele>
        <time>2021-05-23T10:54:21.983Z</time>
      </trkpt>
      <trkpt lat="47.25561" lon="-2.29778">
        <ele>28</ele>
        <time>2021-05-23T10:54:22.982Z</time>
      </trkpt>
      <trkpt lat="47.25559" lon="-2.29777">
        <ele>28</ele>
        <time>2021-05-23T10:54:23.983Z</time>
      </trkpt>
      <trkpt lat="47.25557" lon="-2.29776">
        <ele>29</ele>
        <time>2021-05-23T10:54:24.983Z</time>
      </trkpt>
      <trkpt lat="47.25556" lon="-2.29773">
        <ele>29</ele>
        <time>2021-05-23T10:54:25.983Z</time>
      </trkpt>
      <trkpt lat="47.25554" lon="-2.29772">
        <ele>30</ele>
        <time>2021-05-23T10:54:26.982Z</time>
      </trkpt>
      <trkpt lat="47.25553" lon="-2.29771">
        <ele>30</ele>
        <time>2021-05-23T10:54:27.982Z</time>
      </trkpt>
      <trkpt lat="47.25551" lon="-2.29771">
        <ele>30</ele>
        <time>2021-05-23T10:54:28.983Z</time>
      </trkpt>
      <trkpt lat="47.2555" lon="-2.2977">
        <ele>30</ele>
        <time>2021-05-23T10:54:29.983Z</time>
      </trkpt>
      <trkpt lat="47.25548" lon="-2.29768">
        <ele>31</ele>
        <time>2021-05-23T10:54:30.982Z</time>
      </trkpt>
      <trkpt lat="47.25548" lon="-2.29768">
        <ele>31</ele>
        <time>2021-05-23T10:54:31.983Z</time>
      </trkpt>
      <trkpt lat="47.25545" lon="-2.29764">
        <ele>31</ele>
        <time>2021-05-23T10:54:32.982Z</time>
      </trkpt>
      <trkpt lat="47.25544" lon="-2.29762">
        <ele>31</ele>
        <time>2021-05-23T10:54:33.983Z</time>
      </trkpt>
      <trkpt lat="47.25543" lon="-2.29759">
        <ele>31</ele>
        <time>2021-05-23T10:54:34.983Z</time>
      </trkpt>
      <trkpt lat="47.25542" lon="-2.29758">
        <ele>31</ele>
        <time>2021-05-23T10:54:35.982Z</time>
      </trkpt>
      <trkpt lat="47.2554" lon="-2.29757">
        <ele>31</ele>
        <time>2021-05-23T10:54:36.983Z</time>
      </trkpt>
      <trkpt lat="47.25539" lon="-2.29756">
        <ele>31</ele>
        <time>2021-05-23T10:54:37.983Z</time>
      </trkpt>
      <trkpt lat="47.25539" lon="-2.29755">
        <ele>31</ele>
        <time>2021-05-23T10:54:38.983Z</time>
      </trkpt>
      <trkpt lat="47.25538" lon="-2.29754">
        <ele>31</ele>
        <time>2021-05-23T10:54:39.983Z</time>
      </trkpt>
      <trkpt lat="47.25537" lon="-2.29752">
        <ele>31</ele>
        <time>2021-05-23T10:54:40.983Z</time>
      </trkpt>
      <trkpt lat="47.25536" lon="-2.2975">
        <ele>31</ele>
        <time>2021-05-23T10:54:41.983Z</time>
      </trkpt>
      <trkpt lat="47.25535" lon="-2.29749">
        <ele>31</ele>
        <time>2021-05-23T10:54:42.983Z</time>
      </trkpt>
      <trkpt lat="47.25534" lon="-2.29748">
        <ele>31</ele>
        <time>2021-05-23T10:54:43.982Z</time>
      </trkpt>
      <trkpt lat="47.25533" lon="-2.29747">
        <ele>32</ele>
        <time>2021-05-23T10:54:44.983Z</time>
      </trkpt>
      <trkpt lat="47.25532" lon="-2.29746">
        <ele>33</ele>
        <time>2021-05-23T10:54:45.982Z</time>
      </trkpt>
      <trkpt lat="47.2553" lon="-2.29744">
        <ele>33</ele>
        <time>2021-05-23T10:54:46.983Z</time>
      </trkpt>
      <trkpt lat="47.25529" lon="-2.29743">
        <ele>33</ele>
        <time>2021-05-23T10:54:47.983Z</time>
      </trkpt>
      <trkpt lat="47.25528" lon="-2.29743">
        <ele>33</ele>
        <time>2021-05-23T10:54:48.983Z</time>
      </trkpt>
      <trkpt lat="47.25527" lon="-2.29742">
        <ele>34</ele>
        <time>2021-05-23T10:54:49.983Z</time>
      </trkpt>
      <trkpt lat="47.25525" lon="-2.2974">
        <ele>34</ele>
        <time>2021-05-23T10:54:50.983Z</time>
      </trkpt>
      <trkpt lat="47.25524" lon="-2.29739">
        <ele>34</ele>
        <time>2021-05-23T10:54:51.983Z</time>
      </trkpt>
      <trkpt lat="47.25523" lon="-2.29738">
        <ele>35</ele>
        <time>2021-05-23T10:54:52.982Z</time>
      </trkpt>
      <trkpt lat="47.25522" lon="-2.29737">
        <ele>35</ele>
        <time>2021-05-23T10:54:53.983Z</time>
      </trkpt>
      <trkpt lat="47.25521" lon="-2.29737">
        <ele>35</ele>
        <time>2021-05-23T10:54:54.983Z</time>
      </trkpt>
      <trkpt lat="47.2552" lon="-2.29736">
        <ele>35</ele>
        <time>2021-05-23T10:54:55.983Z</time>
      </trkpt>
      <trkpt lat="47.25519" lon="-2.29736">
        <ele>35</ele>
        <time>2021-05-23T10:54:56.983Z</time>
      </trkpt>
      <trkpt lat="47.25518" lon="-2.29736">
        <ele>35</ele>
        <time>2021-05-23T10:54:57.983Z</time>
      </trkpt>
      <trkpt lat="47.25517" lon="-2.29736">
        <ele>35</ele>
        <time>2021-05-23T10:54:58.982Z</time>
      </trkpt>
      <trkpt lat="47.25516" lon="-2.29736">
        <ele>35</ele>
        <time>2021-05-23T10:54:59.983Z</time>
      </trkpt>
      <trkpt lat="47.25515" lon="-2.29736">
        <ele>35</ele>
        <time>2021-05-23T10:55:00.983Z</time>
      </trkpt>
      <trkpt lat="47.25514" lon="-2.29736">
        <ele>34</ele>
        <time>2021-05-23T10:55:01.983Z</time>
      </trkpt>
      <trkpt lat="47.25513" lon="-2.29736">
        <ele>35</ele>
        <time>2021-05-23T10:55:02.983Z</time>
      </trkpt>
      <trkpt lat="47.25512" lon="-2.29736">
        <ele>35</ele>
        <time>2021-05-23T10:55:03.983Z</time>
      </trkpt>
      <trkpt lat="47.25511" lon="-2.29736">
        <ele>35</ele>
        <time>2021-05-23T10:55:04.983Z</time>
      </trkpt>
      <trkpt lat="47.25509" lon="-2.29737">
        <ele>35</ele>
        <time>2021-05-23T10:55:05.983Z</time>
      </trkpt>
      <trkpt lat="47.25508" lon="-2.29737">
        <ele>35</ele>
        <time>2021-05-23T10:55:06.982Z</time>
      </trkpt>
      <trkpt lat="47.25507" lon="-2.29738">
        <ele>35</ele>
        <time>2021-05-23T10:55:07.982Z</time>
      </trkpt>
      <trkpt lat="47.25506" lon="-2.29738">
        <ele>35</ele>
        <time>2021-05-23T10:55:08.983Z</time>
      </trkpt>
      <trkpt lat="47.25505" lon="-2.29738">
        <ele>35</ele>
        <time>2021-05-23T10:55:09.983Z</time>
      </trkpt>
      <trkpt lat="47.25504" lon="-2.29739">
        <ele>35</ele>
        <time>2021-05-23T10:55:10.983Z</time>
      </trkpt>
      <trkpt lat="47.25502" lon="-2.29739">
        <ele>35</ele>
        <time>2021-05-23T10:55:11.982Z</time>
      </trkpt>
      <trkpt lat="47.255" lon="-2.2974">
        <ele>35</ele>
        <time>2021-05-23T10:55:12.983Z</time>
      </trkpt>
      <trkpt lat="47.25499" lon="-2.29741">
        <ele>35</ele>
        <time>2021-05-23T10:55:13.983Z</time>
      </trkpt>
      <trkpt lat="47.25497" lon="-2.29741">
        <ele>35</ele>
        <time>2021-05-23T10:55:14.983Z</time>
      </trkpt>
      <trkpt lat="47.25496" lon="-2.29741">
        <ele>35</ele>
        <time>2021-05-23T10:55:15.983Z</time>
      </trkpt>
      <trkpt lat="47.25494" lon="-2.29741">
        <ele>35</ele>
        <time>2021-05-23T10:55:16.983Z</time>
      </trkpt>
      <trkpt lat="47.25494" lon="-2.29741">
        <ele>35</ele>
        <time>2021-05-23T10:55:17.983Z</time>
      </trkpt>
      <trkpt lat="47.25492" lon="-2.2974">
        <ele>35</ele>
        <time>2021-05-23T10:55:18.983Z</time>
      </trkpt>
      <trkpt lat="47.25491" lon="-2.2974">
        <ele>35</ele>
        <time>2021-05-23T10:55:19.983Z</time>
      </trkpt>
      <trkpt lat="47.2549" lon="-2.29739">
        <ele>35</ele>
        <time>2021-05-23T10:55:20.982Z</time>
      </trkpt>
      <trkpt lat="47.25489" lon="-2.29739">
        <ele>36</ele>
        <time>2021-05-23T10:55:21.983Z</time>
      </trkpt>
      <trkpt lat="47.25488" lon="-2.29737">
        <ele>36</ele>
        <time>2021-05-23T10:55:22.983Z</time>
      </trkpt>
      <trkpt lat="47.25486" lon="-2.29735">
        <ele>36</ele>
        <time>2021-05-23T10:55:23.982Z</time>
      </trkpt>
      <trkpt lat="47.25485" lon="-2.29733">
        <ele>35</ele>
        <time>2021-05-23T10:55:24.982Z</time>
      </trkpt>
      <trkpt lat="47.25484" lon="-2.29731">
        <ele>35</ele>
        <time>2021-05-23T10:55:25.983Z</time>
      </trkpt>
      <trkpt lat="47.25483" lon="-2.29729">
        <ele>35</ele>
        <time>2021-05-23T10:55:26.982Z</time>
      </trkpt>
      <trkpt lat="47.25483" lon="-2.29727">
        <ele>35</ele>
        <time>2021-05-23T10:55:27.982Z</time>
      </trkpt>
      <trkpt lat="47.25483" lon="-2.29725">
        <ele>34</ele>
        <time>2021-05-23T10:55:28.982Z</time>
      </trkpt>
      <trkpt lat="47.25482" lon="-2.29723">
        <ele>33</ele>
        <time>2021-05-23T10:55:29.982Z</time>
      </trkpt>
      <trkpt lat="47.25482" lon="-2.29721">
        <ele>33</ele>
        <time>2021-05-23T10:55:30.983Z</time>
      </trkpt>
      <trkpt lat="47.25481" lon="-2.29719">
        <ele>32</ele>
        <time>2021-05-23T10:55:31.983Z</time>
      </trkpt>
      <trkpt lat="47.2548" lon="-2.29717">
        <ele>31</ele>
        <time>2021-05-23T10:55:32.983Z</time>
      </trkpt>
      <trkpt lat="47.2548" lon="-2.29715">
        <ele>31</ele>
        <time>2021-05-23T10:55:33.982Z</time>
      </trkpt>
      <trkpt lat="47.25479" lon="-2.29714">
        <ele>31</ele>
        <time>2021-05-23T10:55:34.983Z</time>
      </trkpt>
      <trkpt lat="47.25479" lon="-2.29712">
        <ele>30</ele>
        <time>2021-05-23T10:55:35.983Z</time>
      </trkpt>
      <trkpt lat="47.25478" lon="-2.2971">
        <ele>30</ele>
        <time>2021-05-23T10:55:36.983Z</time>
      </trkpt>
      <trkpt lat="47.25478" lon="-2.29708">
        <ele>30</ele>
        <time>2021-05-23T10:55:37.982Z</time>
      </trkpt>
      <trkpt lat="47.25477" lon="-2.29706">
        <ele>30</ele>
        <time>2021-05-23T10:55:38.983Z</time>
      </trkpt>
      <trkpt lat="47.25477" lon="-2.29704">
        <ele>30</ele>
        <time>2021-05-23T10:55:39.983Z</time>
      </trkpt>
      <trkpt lat="47.25477" lon="-2.29701">
        <ele>30</ele>
        <time>2021-05-23T10:55:40.983Z</time>
      </trkpt>
      <trkpt lat="47.25477" lon="-2.29698">
        <ele>30</ele>
        <time>2021-05-23T10:55:41.983Z</time>
      </trkpt>
      <trkpt lat="47.25477" lon="-2.29694">
        <ele>30</ele>
        <time>2021-05-23T10:55:42.983Z</time>
      </trkpt>
      <trkpt lat="47.25477" lon="-2.29691">
        <ele>30</ele>
        <time>2021-05-23T10:55:43.983Z</time>
      </trkpt>
      <trkpt lat="47.25476" lon="-2.29689">
        <ele>30</ele>
        <time>2021-05-23T10:55:44.983Z</time>
      </trkpt>
      <trkpt lat="47.25476" lon="-2.29687">
        <ele>30</ele>
        <time>2021-05-23T10:55:45.982Z</time>
      </trkpt>
      <trkpt lat="47.25475" lon="-2.29685">
        <ele>30</ele>
        <time>2021-05-23T10:55:46.982Z</time>
      </trkpt>
      <trkpt lat="47.25475" lon="-2.29684">
        <ele>30</ele>
        <time>2021-05-23T10:55:47.983Z</time>
      </trkpt>
      <trkpt lat="47.25475" lon="-2.29682">
        <ele>31</ele>
        <time>2021-05-23T10:55:48.983Z</time>
      </trkpt>
      <trkpt lat="47.25474" lon="-2.29679">
        <ele>31</ele>
        <time>2021-05-23T10:55:49.983Z</time>
      </trkpt>
      <trkpt lat="47.25474" lon="-2.29677">
        <ele>31</ele>
        <time>2021-05-23T10:55:50.983Z</time>
      </trkpt>
      <trkpt lat="47.25473" lon="-2.29675">
        <ele>31</ele>
        <time>2021-05-23T10:55:51.983Z</time>
      </trkpt>
      <trkpt lat="47.25472" lon="-2.29672">
        <ele>31</ele>
        <time>2021-05-23T10:55:52.983Z</time>
      </trkpt>
      <trkpt lat="47.25472" lon="-2.2967">
        <ele>32</ele>
        <time>2021-05-23T10:55:53.983Z</time>
      </trkpt>
      <trkpt lat="47.25471" lon="-2.29668">
        <ele>32</ele>
        <time>2021-05-23T10:55:54.983Z</time>
      </trkpt>
      <trkpt lat="47.2547" lon="-2.29665">
        <ele>32</ele>
        <time>2021-05-23T10:55:55.982Z</time>
      </trkpt>
      <trkpt lat="47.2547" lon="-2.29663">
        <ele>32</ele>
        <time>2021-05-23T10:55:56.982Z</time>
      </trkpt>
      <trkpt lat="47.25469" lon="-2.29662">
        <ele>32</ele>
        <time>2021-05-23T10:55:57.983Z</time>
      </trkpt>
      <trkpt lat="47.25469" lon="-2.2966">
        <ele>32</ele>
        <time>2021-05-23T10:55:58.983Z</time>
      </trkpt>
      <trkpt lat="47.25468" lon="-2.29658">
        <ele>32</ele>
        <time>2021-05-23T10:55:59.982Z</time>
      </trkpt>
      <trkpt lat="47.25467" lon="-2.29656">
        <ele>32</ele>
        <time>2021-05-23T10:56:00.983Z</time>
      </trkpt>
      <trkpt lat="47.25467" lon="-2.29654">
        <ele>32</ele>
        <time>2021-05-23T10:56:01.983Z</time>
      </trkpt>
      <trkpt lat="47.25466" lon="-2.29653">
        <ele>32</ele>
        <time>2021-05-23T10:56:02.983Z</time>
      </trkpt>
      <trkpt lat="47.25466" lon="-2.29651">
        <ele>32</ele>
        <time>2021-05-23T10:56:03.983Z</time>
      </trkpt>
      <trkpt lat="47.25465" lon="-2.29649">
        <ele>31</ele>
        <time>2021-05-23T10:56:04.982Z</time>
      </trkpt>
      <trkpt lat="47.25465" lon="-2.29647">
        <ele>31</ele>
        <time>2021-05-23T10:56:05.983Z</time>
      </trkpt>
      <trkpt lat="47.25465" lon="-2.29645">
        <ele>30</ele>
        <time>2021-05-23T10:56:06.982Z</time>
      </trkpt>
      <trkpt lat="47.25464" lon="-2.29643">
        <ele>30</ele>
        <time>2021-05-23T10:56:07.983Z</time>
      </trkpt>
      <trkpt lat="47.25463" lon="-2.29641">
        <ele>29</ele>
        <time>2021-05-23T10:56:08.982Z</time>
      </trkpt>
      <trkpt lat="47.25463" lon="-2.29639">
        <ele>28</ele>
        <time>2021-05-23T10:56:09.983Z</time>
      </trkpt>
      <trkpt lat="47.25462" lon="-2.29637">
        <ele>28</ele>
        <time>2021-05-23T10:56:10.983Z</time>
      </trkpt>
      <trkpt lat="47.25462" lon="-2.29635">
        <ele>28</ele>
        <time>2021-05-23T10:56:11.983Z</time>
      </trkpt>
      <trkpt lat="47.25461" lon="-2.29633">
        <ele>28</ele>
        <time>2021-05-23T10:56:12.983Z</time>
      </trkpt>
      <trkpt lat="47.25461" lon="-2.29631">
        <ele>28</ele>
        <time>2021-05-23T10:56:13.982Z</time>
      </trkpt>
      <trkpt lat="47.2546" lon="-2.2963">
        <ele>28</ele>
        <time>2021-05-23T10:56:14.982Z</time>
      </trkpt>
      <trkpt lat="47.25459" lon="-2.29627">
        <ele>28</ele>
        <time>2021-05-23T10:56:15.983Z</time>
      </trkpt>
      <trkpt lat="47.25459" lon="-2.29625">
        <ele>29</ele>
        <time>2021-05-23T10:56:16.982Z</time>
      </trkpt>
      <trkpt lat="47.25458" lon="-2.29623">
        <ele>29</ele>
        <time>2021-05-23T10:56:17.983Z</time>
      </trkpt>
      <trkpt lat="47.25457" lon="-2.29621">
        <ele>30</ele>
        <time>2021-05-23T10:56:18.983Z</time>
      </trkpt>
      <trkpt lat="47.25457" lon="-2.29619">
        <ele>30</ele>
        <time>2021-05-23T10:56:19.983Z</time>
      </trkpt>
      <trkpt lat="47.25456" lon="-2.29617">
        <ele>30</ele>
        <time>2021-05-23T10:56:20.982Z</time>
      </trkpt>
      <trkpt lat="47.25456" lon="-2.29615">
        <ele>30</ele>
        <time>2021-05-23T10:56:21.983Z</time>
      </trkpt>
      <trkpt lat="47.25455" lon="-2.29613">
        <ele>30</ele>
        <time>2021-05-23T10:56:22.983Z</time>
      </trkpt>
      <trkpt lat="47.25454" lon="-2.29611">
        <ele>30</ele>
        <time>2021-05-23T10:56:23.983Z</time>
      </trkpt>
      <trkpt lat="47.25453" lon="-2.29609">
        <ele>31</ele>
        <time>2021-05-23T10:56:24.983Z</time>
      </trkpt>
      <trkpt lat="47.25452" lon="-2.29607">
        <ele>31</ele>
        <time>2021-05-23T10:56:25.982Z</time>
      </trkpt>
      <trkpt lat="47.25451" lon="-2.29605">
        <ele>31</ele>
        <time>2021-05-23T10:56:26.982Z</time>
      </trkpt>
      <trkpt lat="47.25451" lon="-2.29603">
        <ele>31</ele>
        <time>2021-05-23T10:56:27.983Z</time>
      </trkpt>
      <trkpt lat="47.2545" lon="-2.29601">
        <ele>32</ele>
        <time>2021-05-23T10:56:28.982Z</time>
      </trkpt>
      <trkpt lat="47.25449" lon="-2.29599">
        <ele>32</ele>
        <time>2021-05-23T10:56:29.983Z</time>
      </trkpt>
      <trkpt lat="47.25449" lon="-2.29597">
        <ele>32</ele>
        <time>2021-05-23T10:56:30.983Z</time>
      </trkpt>
      <trkpt lat="47.25448" lon="-2.29596">
        <ele>32</ele>
        <time>2021-05-23T10:56:31.982Z</time>
      </trkpt>
      <trkpt lat="47.25447" lon="-2.29594">
        <ele>31</ele>
        <time>2021-05-23T10:56:32.982Z</time>
      </trkpt>
      <trkpt lat="47.25447" lon="-2.29592">
        <ele>30</ele>
        <time>2021-05-23T10:56:33.982Z</time>
      </trkpt>
      <trkpt lat="47.25446" lon="-2.2959">
        <ele>30</ele>
        <time>2021-05-23T10:56:34.982Z</time>
      </trkpt>
      <trkpt lat="47.25445" lon="-2.29588">
        <ele>30</ele>
        <time>2021-05-23T10:56:35.983Z</time>
      </trkpt>
      <trkpt lat="47.25445" lon="-2.29586">
        <ele>30</ele>
        <time>2021-05-23T10:56:36.982Z</time>
      </trkpt>
      <trkpt lat="47.25444" lon="-2.29583">
        <ele>30</ele>
        <time>2021-05-23T10:56:37.982Z</time>
      </trkpt>
      <trkpt lat="47.25443" lon="-2.29581">
        <ele>30</ele>
        <time>2021-05-23T10:56:38.982Z</time>
      </trkpt>
      <trkpt lat="47.25442" lon="-2.29579">
        <ele>31</ele>
        <time>2021-05-23T10:56:39.982Z</time>
      </trkpt>
      <trkpt lat="47.25442" lon="-2.29577">
        <ele>31</ele>
        <time>2021-05-23T10:56:40.982Z</time>
      </trkpt>
      <trkpt lat="47.25441" lon="-2.29575">
        <ele>32</ele>
        <time>2021-05-23T10:56:41.982Z</time>
      </trkpt>
      <trkpt lat="47.2544" lon="-2.29573">
        <ele>32</ele>
        <time>2021-05-23T10:56:42.982Z</time>
      </trkpt>
      <trkpt lat="47.25439" lon="-2.29571">
        <ele>33</ele>
        <time>2021-05-23T10:56:43.982Z</time>
      </trkpt>
      <trkpt lat="47.25439" lon="-2.29568">
        <ele>34</ele>
        <time>2021-05-23T10:56:44.983Z</time>
      </trkpt>
      <trkpt lat="47.25438" lon="-2.29566">
        <ele>34</ele>
        <time>2021-05-23T10:56:45.983Z</time>
      </trkpt>
      <trkpt lat="47.25438" lon="-2.29564">
        <ele>34</ele>
        <time>2021-05-23T10:56:46.983Z</time>
      </trkpt>
      <trkpt lat="47.25437" lon="-2.29562">
        <ele>34</ele>
        <time>2021-05-23T10:56:47.983Z</time>
      </trkpt>
      <trkpt lat="47.25436" lon="-2.2956">
        <ele>34</ele>
        <time>2021-05-23T10:56:48.982Z</time>
      </trkpt>
      <trkpt lat="47.25436" lon="-2.29557">
        <ele>34</ele>
        <time>2021-05-23T10:56:49.983Z</time>
      </trkpt>
      <trkpt lat="47.25435" lon="-2.29555">
        <ele>34</ele>
        <time>2021-05-23T10:56:50.983Z</time>
      </trkpt>
      <trkpt lat="47.25434" lon="-2.29553">
        <ele>34</ele>
        <time>2021-05-23T10:56:51.983Z</time>
      </trkpt>
      <trkpt lat="47.25433" lon="-2.2955">
        <ele>34</ele>
        <time>2021-05-23T10:56:52.983Z</time>
      </trkpt>
      <trkpt lat="47.25433" lon="-2.29549">
        <ele>34</ele>
        <time>2021-05-23T10:56:53.983Z</time>
      </trkpt>
      <trkpt lat="47.25432" lon="-2.29546">
        <ele>34</ele>
        <time>2021-05-23T10:56:54.982Z</time>
      </trkpt>
      <trkpt lat="47.25431" lon="-2.29544">
        <ele>34</ele>
        <time>2021-05-23T10:56:55.982Z</time>
      </trkpt>
      <trkpt lat="47.25431" lon="-2.29542">
        <ele>34</ele>
        <time>2021-05-23T10:56:56.983Z</time>
      </trkpt>
      <trkpt lat="47.2543" lon="-2.29541">
        <ele>34</ele>
        <time>2021-05-23T10:56:57.983Z</time>
      </trkpt>
      <trkpt lat="47.2543" lon="-2.29538">
        <ele>34</ele>
        <time>2021-05-23T10:56:58.982Z</time>
      </trkpt>
      <trkpt lat="47.25429" lon="-2.29536">
        <ele>34</ele>
        <time>2021-05-23T10:56:59.983Z</time>
      </trkpt>
      <trkpt lat="47.25429" lon="-2.29534">
        <ele>34</ele>
        <time>2021-05-23T10:57:00.983Z</time>
      </trkpt>
      <trkpt lat="47.25428" lon="-2.29532">
        <ele>33</ele>
        <time>2021-05-23T10:57:01.983Z</time>
      </trkpt>
      <trkpt lat="47.25428" lon="-2.2953">
        <ele>33</ele>
        <time>2021-05-23T10:57:02.983Z</time>
      </trkpt>
      <trkpt lat="47.25428" lon="-2.29527">
        <ele>33</ele>
        <time>2021-05-23T10:57:03.982Z</time>
      </trkpt>
      <trkpt lat="47.25428" lon="-2.29525">
        <ele>33</ele>
        <time>2021-05-23T10:57:04.983Z</time>
      </trkpt>
      <trkpt lat="47.25427" lon="-2.29523">
        <ele>32</ele>
        <time>2021-05-23T10:57:05.983Z</time>
      </trkpt>
      <trkpt lat="47.25427" lon="-2.29521">
        <ele>32</ele>
        <time>2021-05-23T10:57:06.982Z</time>
      </trkpt>
      <trkpt lat="47.25427" lon="-2.29518">
        <ele>32</ele>
        <time>2021-05-23T10:57:07.983Z</time>
      </trkpt>
      <trkpt lat="47.25427" lon="-2.29516">
        <ele>32</ele>
        <time>2021-05-23T10:57:08.983Z</time>
      </trkpt>
      <trkpt lat="47.25427" lon="-2.29514">
        <ele>32</ele>
        <time>2021-05-23T10:57:09.983Z</time>
      </trkpt>
      <trkpt lat="47.25427" lon="-2.29512">
        <ele>32</ele>
        <time>2021-05-23T10:57:10.983Z</time>
      </trkpt>
      <trkpt lat="47.25427" lon="-2.29511">
        <ele>32</ele>
        <time>2021-05-23T10:57:11.983Z</time>
      </trkpt>
      <trkpt lat="47.25427" lon="-2.29509">
        <ele>32</ele>
        <time>2021-05-23T10:57:12.983Z</time>
      </trkpt>
      <trkpt lat="47.25427" lon="-2.29506">
        <ele>32</ele>
        <time>2021-05-23T10:57:13.983Z</time>
      </trkpt>
      <trkpt lat="47.25427" lon="-2.29504">
        <ele>32</ele>
        <time>2021-05-23T10:57:14.982Z</time>
      </trkpt>
      <trkpt lat="47.25427" lon="-2.29502">
        <ele>32</ele>
        <time>2021-05-23T10:57:15.982Z</time>
      </trkpt>
      <trkpt lat="47.25427" lon="-2.295">
        <ele>33</ele>
        <time>2021-05-23T10:57:16.982Z</time>
      </trkpt>
      <trkpt lat="47.25427" lon="-2.29497">
        <ele>33</ele>
        <time>2021-05-23T10:57:17.982Z</time>
      </trkpt>
      <trkpt lat="47.25427" lon="-2.29495">
        <ele>33</ele>
        <time>2021-05-23T10:57:18.983Z</time>
      </trkpt>
      <trkpt lat="47.25427" lon="-2.29492">
        <ele>33</ele>
        <time>2021-05-23T10:57:19.982Z</time>
      </trkpt>
      <trkpt lat="47.25427" lon="-2.2949">
        <ele>33</ele>
        <time>2021-05-23T10:57:20.982Z</time>
      </trkpt>
      <trkpt lat="47.25427" lon="-2.29487">
        <ele>32</ele>
        <time>2021-05-23T10:57:21.983Z</time>
      </trkpt>
      <trkpt lat="47.25427" lon="-2.29485">
        <ele>32</ele>
        <time>2021-05-23T10:57:22.983Z</time>
      </trkpt>
      <trkpt lat="47.25427" lon="-2.29482">
        <ele>32</ele>
        <time>2021-05-23T10:57:23.982Z</time>
      </trkpt>
      <trkpt lat="47.25427" lon="-2.2948">
        <ele>32</ele>
        <time>2021-05-23T10:57:24.983Z</time>
      </trkpt>
      <trkpt lat="47.25427" lon="-2.29478">
        <ele>32</ele>
        <time>2021-05-23T10:57:25.983Z</time>
      </trkpt>
      <trkpt lat="47.25427" lon="-2.29476">
        <ele>32</ele>
        <time>2021-05-23T10:57:26.983Z</time>
      </trkpt>
      <trkpt lat="47.25427" lon="-2.29473">
        <ele>32</ele>
        <time>2021-05-23T10:57:27.983Z</time>
      </trkpt>
      <trkpt lat="47.25427" lon="-2.29471">
        <ele>32</ele>
        <time>2021-05-23T10:57:28.983Z</time>
      </trkpt>
      <trkpt lat="47.25427" lon="-2.29469">
        <ele>33</ele>
        <time>2021-05-23T10:57:29.982Z</time>
      </trkpt>
      <trkpt lat="47.25427" lon="-2.29466">
        <ele>33</ele>
        <time>2021-05-23T10:57:30.982Z</time>
      </trkpt>
      <trkpt lat="47.25427" lon="-2.29464">
        <ele>33</ele>
        <time>2021-05-23T10:57:31.983Z</time>
      </trkpt>
      <trkpt lat="47.25427" lon="-2.29461">
        <ele>32</ele>
        <time>2021-05-23T10:57:32.983Z</time>
      </trkpt>
      <trkpt lat="47.25427" lon="-2.29459">
        <ele>32</ele>
        <time>2021-05-23T10:57:33.983Z</time>
      </trkpt>
      <trkpt lat="47.25427" lon="-2.29457">
        <ele>32</ele>
        <time>2021-05-23T10:57:34.983Z</time>
      </trkpt>
      <trkpt lat="47.25427" lon="-2.29455">
        <ele>32</ele>
        <time>2021-05-23T10:57:35.982Z</time>
      </trkpt>
      <trkpt lat="47.25427" lon="-2.29452">
        <ele>31</ele>
        <time>2021-05-23T10:57:36.982Z</time>
      </trkpt>
      <trkpt lat="47.25427" lon="-2.2945">
        <ele>31</ele>
        <time>2021-05-23T10:57:37.983Z</time>
      </trkpt>
      <trkpt lat="47.25426" lon="-2.29448">
        <ele>30</ele>
        <time>2021-05-23T10:57:38.983Z</time>
      </trkpt>
      <trkpt lat="47.25426" lon="-2.29446">
        <ele>30</ele>
        <time>2021-05-23T10:57:39.982Z</time>
      </trkpt>
      <trkpt lat="47.25426" lon="-2.29444">
        <ele>30</ele>
        <time>2021-05-23T10:57:40.983Z</time>
      </trkpt>
      <trkpt lat="47.25426" lon="-2.29441">
        <ele>31</ele>
        <time>2021-05-23T10:57:41.983Z</time>
      </trkpt>
      <trkpt lat="47.25425" lon="-2.29439">
        <ele>31</ele>
        <time>2021-05-23T10:57:42.982Z</time>
      </trkpt>
      <trkpt lat="47.25425" lon="-2.29437">
        <ele>31</ele>
        <time>2021-05-23T10:57:43.982Z</time>
      </trkpt>
      <trkpt lat="47.25425" lon="-2.29435">
        <ele>31</ele>
        <time>2021-05-23T10:57:44.983Z</time>
      </trkpt>
      <trkpt lat="47.25425" lon="-2.29432">
        <ele>31</ele>
        <time>2021-05-23T10:57:45.982Z</time>
      </trkpt>
      <trkpt lat="47.25425" lon="-2.29429">
        <ele>31</ele>
        <time>2021-05-23T10:57:46.983Z</time>
      </trkpt>
      <trkpt lat="47.25425" lon="-2.29427">
        <ele>30</ele>
        <time>2021-05-23T10:57:47.983Z</time>
      </trkpt>
      <trkpt lat="47.25425" lon="-2.29425">
        <ele>30</ele>
        <time>2021-05-23T10:57:48.983Z</time>
      </trkpt>
      <trkpt lat="47.25425" lon="-2.29423">
        <ele>30</ele>
        <time>2021-05-23T10:57:49.983Z</time>
      </trkpt>
      <trkpt lat="47.25425" lon="-2.29422">
        <ele>30</ele>
        <time>2021-05-23T10:57:50.983Z</time>
      </trkpt>
      <trkpt lat="47.25425" lon="-2.29422">
        <ele>30</ele>
        <time>2021-05-23T10:57:51.982Z</time>
      </trkpt>
      <trkpt lat="47.25424" lon="-2.29422">
        <ele>30</ele>
        <time>2021-05-23T10:57:52.983Z</time>
      </trkpt>
      <trkpt lat="47.25424" lon="-2.29421">
        <ele>30</ele>
        <time>2021-05-23T10:57:53.982Z</time>
      </trkpt>
      <trkpt lat="47.25425" lon="-2.29421">
        <ele>30</ele>
        <time>2021-05-23T10:57:54.982Z</time>
      </trkpt>
      <trkpt lat="47.25425" lon="-2.29421">
        <ele>30</ele>
        <time>2021-05-23T10:57:55.983Z</time>
      </trkpt>
      <trkpt lat="47.25438" lon="-2.29418">
        <ele>31</ele>
        <time>2021-05-23T10:58:14.983Z</time>
      </trkpt>
      <trkpt lat="47.25434" lon="-2.29418">
        <ele>31</ele>
        <time>2021-05-23T10:58:15.983Z</time>
      </trkpt>
      <trkpt lat="47.25427" lon="-2.29417">
        <ele>32</ele>
        <time>2021-05-23T10:58:16.983Z</time>
      </trkpt>
      <trkpt lat="47.2543" lon="-2.29415">
        <ele>32</ele>
        <time>2021-05-23T10:58:17.982Z</time>
      </trkpt>
      <trkpt lat="47.2543" lon="-2.29415">
        <ele>32</ele>
        <time>2021-05-23T10:58:18.983Z</time>
      </trkpt>
      <trkpt lat="47.25429" lon="-2.29413">
        <ele>32</ele>
        <time>2021-05-23T10:58:19.983Z</time>
      </trkpt>
      <trkpt lat="47.25429" lon="-2.29412">
        <ele>32</ele>
        <time>2021-05-23T10:58:20.983Z</time>
      </trkpt>
      <trkpt lat="47.25428" lon="-2.29411">
        <ele>33</ele>
        <time>2021-05-23T10:58:21.982Z</time>
      </trkpt>
      <trkpt lat="47.25428" lon="-2.2941">
        <ele>33</ele>
        <time>2021-05-23T10:58:22.983Z</time>
      </trkpt>
      <trkpt lat="47.25428" lon="-2.29408">
        <ele>33</ele>
        <time>2021-05-23T10:58:23.983Z</time>
      </trkpt>
      <trkpt lat="47.25427" lon="-2.29407">
        <ele>33</ele>
        <time>2021-05-23T10:58:24.983Z</time>
      </trkpt>
      <trkpt lat="47.25427" lon="-2.29405">
        <ele>32</ele>
        <time>2021-05-23T10:58:25.983Z</time>
      </trkpt>
      <trkpt lat="47.25427" lon="-2.29404">
        <ele>32</ele>
        <time>2021-05-23T10:58:26.983Z</time>
      </trkpt>
      <trkpt lat="47.25427" lon="-2.29402">
        <ele>32</ele>
        <time>2021-05-23T10:58:27.983Z</time>
      </trkpt>
      <trkpt lat="47.25427" lon="-2.29401">
        <ele>32</ele>
        <time>2021-05-23T10:58:28.983Z</time>
      </trkpt>
      <trkpt lat="47.25428" lon="-2.29399">
        <ele>31</ele>
        <time>2021-05-23T10:58:29.982Z</time>
      </trkpt>
      <trkpt lat="47.25428" lon="-2.29397">
        <ele>31</ele>
        <time>2021-05-23T10:58:30.983Z</time>
      </trkpt>
      <trkpt lat="47.25427" lon="-2.29395">
        <ele>31</ele>
        <time>2021-05-23T10:58:31.982Z</time>
      </trkpt>
      <trkpt lat="47.25427" lon="-2.29393">
        <ele>31</ele>
        <time>2021-05-23T10:58:32.983Z</time>
      </trkpt>
      <trkpt lat="47.25427" lon="-2.29392">
        <ele>32</ele>
        <time>2021-05-23T10:58:33.983Z</time>
      </trkpt>
      <trkpt lat="47.25426" lon="-2.2939">
        <ele>32</ele>
        <time>2021-05-23T10:58:34.982Z</time>
      </trkpt>
      <trkpt lat="47.25426" lon="-2.29389">
        <ele>32</ele>
        <time>2021-05-23T10:58:35.983Z</time>
      </trkpt>
      <trkpt lat="47.25426" lon="-2.29387">
        <ele>32</ele>
        <time>2021-05-23T10:58:36.982Z</time>
      </trkpt>
      <trkpt lat="47.25425" lon="-2.29385">
        <ele>33</ele>
        <time>2021-05-23T10:58:37.982Z</time>
      </trkpt>
      <trkpt lat="47.25426" lon="-2.29383">
        <ele>33</ele>
        <time>2021-05-23T10:58:38.983Z</time>
      </trkpt>
      <trkpt lat="47.25426" lon="-2.2938">
        <ele>33</ele>
        <time>2021-05-23T10:58:39.983Z</time>
      </trkpt>
      <trkpt lat="47.25426" lon="-2.29377">
        <ele>34</ele>
        <time>2021-05-23T10:58:40.983Z</time>
      </trkpt>
      <trkpt lat="47.25426" lon="-2.29374">
        <ele>33</ele>
        <time>2021-05-23T10:58:41.982Z</time>
      </trkpt>
      <trkpt lat="47.25426" lon="-2.2937">
        <ele>33</ele>
        <time>2021-05-23T10:58:42.982Z</time>
      </trkpt>
      <trkpt lat="47.25426" lon="-2.29368">
        <ele>33</ele>
        <time>2021-05-23T10:58:43.982Z</time>
      </trkpt>
      <trkpt lat="47.25426" lon="-2.29365">
        <ele>33</ele>
        <time>2021-05-23T10:58:44.982Z</time>
      </trkpt>
      <trkpt lat="47.25425" lon="-2.29361">
        <ele>33</ele>
        <time>2021-05-23T10:58:45.983Z</time>
      </trkpt>
      <trkpt lat="47.25425" lon="-2.29357">
        <ele>33</ele>
        <time>2021-05-23T10:58:46.982Z</time>
      </trkpt>
      <trkpt lat="47.25425" lon="-2.29355">
        <ele>32</ele>
        <time>2021-05-23T10:58:47.983Z</time>
      </trkpt>
      <trkpt lat="47.25425" lon="-2.29351">
        <ele>32</ele>
        <time>2021-05-23T10:58:48.983Z</time>
      </trkpt>
      <trkpt lat="47.25425" lon="-2.29347">
        <ele>32</ele>
        <time>2021-05-23T10:58:49.982Z</time>
      </trkpt>
      <trkpt lat="47.25425" lon="-2.29344">
        <ele>32</ele>
        <time>2021-05-23T10:58:50.983Z</time>
      </trkpt>
      <trkpt lat="47.25425" lon="-2.2934">
        <ele>32</ele>
        <time>2021-05-23T10:58:51.983Z</time>
      </trkpt>
      <trkpt lat="47.25424" lon="-2.29338">
        <ele>32</ele>
        <time>2021-05-23T10:58:52.983Z</time>
      </trkpt>
      <trkpt lat="47.25425" lon="-2.29334">
        <ele>32</ele>
        <time>2021-05-23T10:58:53.983Z</time>
      </trkpt>
      <trkpt lat="47.25425" lon="-2.29331">
        <ele>33</ele>
        <time>2021-05-23T10:58:54.982Z</time>
      </trkpt>
      <trkpt lat="47.25425" lon="-2.29328">
        <ele>33</ele>
        <time>2021-05-23T10:58:55.983Z</time>
      </trkpt>
      <trkpt lat="47.25425" lon="-2.29324">
        <ele>32</ele>
        <time>2021-05-23T10:58:56.982Z</time>
      </trkpt>
      <trkpt lat="47.25425" lon="-2.29322">
        <ele>32</ele>
        <time>2021-05-23T10:58:57.983Z</time>
      </trkpt>
      <trkpt lat="47.25425" lon="-2.29317">
        <ele>32</ele>
        <time>2021-05-23T10:58:58.983Z</time>
      </trkpt>
      <trkpt lat="47.25425" lon="-2.29314">
        <ele>32</ele>
        <time>2021-05-23T10:58:59.982Z</time>
      </trkpt>
      <trkpt lat="47.25424" lon="-2.29311">
        <ele>33</ele>
        <time>2021-05-23T10:59:00.982Z</time>
      </trkpt>
      <trkpt lat="47.25425" lon="-2.29308">
        <ele>33</ele>
        <time>2021-05-23T10:59:01.983Z</time>
      </trkpt>
      <trkpt lat="47.25425" lon="-2.29304">
        <ele>33</ele>
        <time>2021-05-23T10:59:02.983Z</time>
      </trkpt>
      <trkpt lat="47.25424" lon="-2.293">
        <ele>33</ele>
        <time>2021-05-23T10:59:03.983Z</time>
      </trkpt>
      <trkpt lat="47.25424" lon="-2.29297">
        <ele>33</ele>
        <time>2021-05-23T10:59:04.983Z</time>
      </trkpt>
      <trkpt lat="47.25424" lon="-2.29294">
        <ele>34</ele>
        <time>2021-05-23T10:59:05.982Z</time>
      </trkpt>
      <trkpt lat="47.25424" lon="-2.29291">
        <ele>34</ele>
        <time>2021-05-23T10:59:06.983Z</time>
      </trkpt>
      <trkpt lat="47.25424" lon="-2.29287">
        <ele>35</ele>
        <time>2021-05-23T10:59:07.983Z</time>
      </trkpt>
      <trkpt lat="47.25424" lon="-2.29284">
        <ele>35</ele>
        <time>2021-05-23T10:59:08.982Z</time>
      </trkpt>
      <trkpt lat="47.25424" lon="-2.29281">
        <ele>35</ele>
        <time>2021-05-23T10:59:09.982Z</time>
      </trkpt>
      <trkpt lat="47.25424" lon="-2.29277">
        <ele>35</ele>
        <time>2021-05-23T10:59:10.983Z</time>
      </trkpt>
      <trkpt lat="47.25424" lon="-2.29275">
        <ele>35</ele>
        <time>2021-05-23T10:59:11.983Z</time>
      </trkpt>
      <trkpt lat="47.25424" lon="-2.29271">
        <ele>35</ele>
        <time>2021-05-23T10:59:12.983Z</time>
      </trkpt>
      <trkpt lat="47.25423" lon="-2.29268">
        <ele>35</ele>
        <time>2021-05-23T10:59:13.983Z</time>
      </trkpt>
      <trkpt lat="47.25423" lon="-2.29264">
        <ele>34</ele>
        <time>2021-05-23T10:59:14.982Z</time>
      </trkpt>
      <trkpt lat="47.25423" lon="-2.29261">
        <ele>34</ele>
        <time>2021-05-23T10:59:15.983Z</time>
      </trkpt>
      <trkpt lat="47.25423" lon="-2.29258">
        <ele>34</ele>
        <time>2021-05-23T10:59:16.983Z</time>
      </trkpt>
      <trkpt lat="47.25423" lon="-2.29254">
        <ele>35</ele>
        <time>2021-05-23T10:59:17.983Z</time>
      </trkpt>
      <trkpt lat="47.25423" lon="-2.29251">
        <ele>35</ele>
        <time>2021-05-23T10:59:18.982Z</time>
      </trkpt>
      <trkpt lat="47.25423" lon="-2.29248">
        <ele>35</ele>
        <time>2021-05-23T10:59:19.983Z</time>
      </trkpt>
      <trkpt lat="47.25423" lon="-2.29245">
        <ele>35</ele>
        <time>2021-05-23T10:59:20.982Z</time>
      </trkpt>
      <trkpt lat="47.25424" lon="-2.29241">
        <ele>36</ele>
        <time>2021-05-23T10:59:21.982Z</time>
      </trkpt>
      <trkpt lat="47.25424" lon="-2.29238">
        <ele>36</ele>
        <time>2021-05-23T10:59:22.983Z</time>
      </trkpt>
      <trkpt lat="47.25424" lon="-2.29235">
        <ele>36</ele>
        <time>2021-05-23T10:59:23.982Z</time>
      </trkpt>
      <trkpt lat="47.25424" lon="-2.29232">
        <ele>35</ele>
        <time>2021-05-23T10:59:24.983Z</time>
      </trkpt>
      <trkpt lat="47.25423" lon="-2.29229">
        <ele>35</ele>
        <time>2021-05-23T10:59:25.983Z</time>
      </trkpt>
      <trkpt lat="47.25424" lon="-2.29226">
        <ele>36</ele>
        <time>2021-05-23T10:59:26.983Z</time>
      </trkpt>
      <trkpt lat="47.25424" lon="-2.29221">
        <ele>36</ele>
        <time>2021-05-23T10:59:27.982Z</time>
      </trkpt>
      <trkpt lat="47.25424" lon="-2.29218">
        <ele>36</ele>
        <time>2021-05-23T10:59:28.983Z</time>
      </trkpt>
      <trkpt lat="47.25424" lon="-2.29215">
        <ele>36</ele>
        <time>2021-05-23T10:59:29.983Z</time>
      </trkpt>
      <trkpt lat="47.25424" lon="-2.29211">
        <ele>36</ele>
        <time>2021-05-23T10:59:30.983Z</time>
      </trkpt>
      <trkpt lat="47.25424" lon="-2.29208">
        <ele>36</ele>
        <time>2021-05-23T10:59:31.983Z</time>
      </trkpt>
      <trkpt lat="47.25423" lon="-2.29204">
        <ele>36</ele>
        <time>2021-05-23T10:59:32.983Z</time>
      </trkpt>
      <trkpt lat="47.25423" lon="-2.29202">
        <ele>37</ele>
        <time>2021-05-23T10:59:33.983Z</time>
      </trkpt>
      <trkpt lat="47.25424" lon="-2.29198">
        <ele>37</ele>
        <time>2021-05-23T10:59:34.983Z</time>
      </trkpt>
      <trkpt lat="47.25425" lon="-2.29195">
        <ele>37</ele>
        <time>2021-05-23T10:59:35.983Z</time>
      </trkpt>
      <trkpt lat="47.25426" lon="-2.29191">
        <ele>37</ele>
        <time>2021-05-23T10:59:36.982Z</time>
      </trkpt>
      <trkpt lat="47.25427" lon="-2.29188">
        <ele>38</ele>
        <time>2021-05-23T10:59:37.982Z</time>
      </trkpt>
      <trkpt lat="47.25427" lon="-2.29186">
        <ele>38</ele>
        <time>2021-05-23T10:59:38.983Z</time>
      </trkpt>
      <trkpt lat="47.25426" lon="-2.29183">
        <ele>38</ele>
        <time>2021-05-23T10:59:39.982Z</time>
      </trkpt>
      <trkpt lat="47.25425" lon="-2.29181">
        <ele>38</ele>
        <time>2021-05-23T10:59:40.983Z</time>
      </trkpt>
      <trkpt lat="47.25423" lon="-2.29181">
        <ele>38</ele>
        <time>2021-05-23T10:59:41.982Z</time>
      </trkpt>
      <trkpt lat="47.25422" lon="-2.29182">
        <ele>38</ele>
        <time>2021-05-23T10:59:42.983Z</time>
      </trkpt>
      <trkpt lat="47.2542" lon="-2.29183">
        <ele>37</ele>
        <time>2021-05-23T10:59:43.983Z</time>
      </trkpt>
      <trkpt lat="47.25417" lon="-2.29184">
        <ele>38</ele>
        <time>2021-05-23T10:59:44.983Z</time>
      </trkpt>
      <trkpt lat="47.25415" lon="-2.29186">
        <ele>38</ele>
        <time>2021-05-23T10:59:45.983Z</time>
      </trkpt>
      <trkpt lat="47.25412" lon="-2.29187">
        <ele>38</ele>
        <time>2021-05-23T10:59:46.982Z</time>
      </trkpt>
      <trkpt lat="47.25411" lon="-2.29189">
        <ele>38</ele>
        <time>2021-05-23T10:59:47.982Z</time>
      </trkpt>
      <trkpt lat="47.25408" lon="-2.2919">
        <ele>38</ele>
        <time>2021-05-23T10:59:48.982Z</time>
      </trkpt>
      <trkpt lat="47.25406" lon="-2.29192">
        <ele>38</ele>
        <time>2021-05-23T10:59:49.982Z</time>
      </trkpt>
      <trkpt lat="47.25404" lon="-2.29194">
        <ele>37</ele>
        <time>2021-05-23T10:59:50.983Z</time>
      </trkpt>
      <trkpt lat="47.25402" lon="-2.29196">
        <ele>37</ele>
        <time>2021-05-23T10:59:51.982Z</time>
      </trkpt>
      <trkpt lat="47.25401" lon="-2.29197">
        <ele>38</ele>
        <time>2021-05-23T10:59:52.983Z</time>
      </trkpt>
      <trkpt lat="47.25398" lon="-2.29199">
        <ele>38</ele>
        <time>2021-05-23T10:59:53.983Z</time>
      </trkpt>
      <trkpt lat="47.25396" lon="-2.29201">
        <ele>38</ele>
        <time>2021-05-23T10:59:54.983Z</time>
      </trkpt>
      <trkpt lat="47.25394" lon="-2.29203">
        <ele>38</ele>
        <time>2021-05-23T10:59:55.983Z</time>
      </trkpt>
      <trkpt lat="47.25393" lon="-2.29205">
        <ele>39</ele>
        <time>2021-05-23T10:59:56.983Z</time>
      </trkpt>
      <trkpt lat="47.25391" lon="-2.29207">
        <ele>39</ele>
        <time>2021-05-23T10:59:57.983Z</time>
      </trkpt>
      <trkpt lat="47.25389" lon="-2.29209">
        <ele>39</ele>
        <time>2021-05-23T10:59:58.983Z</time>
      </trkpt>
      <trkpt lat="47.25387" lon="-2.29212">
        <ele>39</ele>
        <time>2021-05-23T10:59:59.983Z</time>
      </trkpt>
      <trkpt lat="47.25385" lon="-2.29214">
        <ele>39</ele>
        <time>2021-05-23T11:00:00.983Z</time>
      </trkpt>
      <trkpt lat="47.25383" lon="-2.29217">
        <ele>39</ele>
        <time>2021-05-23T11:00:01.983Z</time>
      </trkpt>
      <trkpt lat="47.25382" lon="-2.2922">
        <ele>38</ele>
        <time>2021-05-23T11:00:02.982Z</time>
      </trkpt>
      <trkpt lat="47.2538" lon="-2.29223">
        <ele>38</ele>
        <time>2021-05-23T11:00:03.983Z</time>
      </trkpt>
      <trkpt lat="47.25378" lon="-2.29225">
        <ele>37</ele>
        <time>2021-05-23T11:00:04.983Z</time>
      </trkpt>
      <trkpt lat="47.25377" lon="-2.29227">
        <ele>37</ele>
        <time>2021-05-23T11:00:05.983Z</time>
      </trkpt>
      <trkpt lat="47.25376" lon="-2.29229">
        <ele>36</ele>
        <time>2021-05-23T11:00:06.983Z</time>
      </trkpt>
      <trkpt lat="47.25375" lon="-2.29232">
        <ele>36</ele>
        <time>2021-05-23T11:00:07.982Z</time>
      </trkpt>
      <trkpt lat="47.25373" lon="-2.29235">
        <ele>35</ele>
        <time>2021-05-23T11:00:08.982Z</time>
      </trkpt>
      <trkpt lat="47.25373" lon="-2.29237">
        <ele>35</ele>
        <time>2021-05-23T11:00:09.983Z</time>
      </trkpt>
      <trkpt lat="47.25371" lon="-2.29241">
        <ele>34</ele>
        <time>2021-05-23T11:00:10.982Z</time>
      </trkpt>
      <trkpt lat="47.2537" lon="-2.29244">
        <ele>34</ele>
        <time>2021-05-23T11:00:11.983Z</time>
      </trkpt>
      <trkpt lat="47.25369" lon="-2.29247">
        <ele>34</ele>
        <time>2021-05-23T11:00:12.982Z</time>
      </trkpt>
      <trkpt lat="47.25368" lon="-2.2925">
        <ele>34</ele>
        <time>2021-05-23T11:00:13.983Z</time>
      </trkpt>
      <trkpt lat="47.25367" lon="-2.29254">
        <ele>34</ele>
        <time>2021-05-23T11:00:14.983Z</time>
      </trkpt>
      <trkpt lat="47.25366" lon="-2.29256">
        <ele>34</ele>
        <time>2021-05-23T11:00:15.982Z</time>
      </trkpt>
      <trkpt lat="47.25365" lon="-2.2926">
        <ele>34</ele>
        <time>2021-05-23T11:00:16.983Z</time>
      </trkpt>
      <trkpt lat="47.25364" lon="-2.29263">
        <ele>34</ele>
        <time>2021-05-23T11:00:17.982Z</time>
      </trkpt>
      <trkpt lat="47.25364" lon="-2.29267">
        <ele>34</ele>
        <time>2021-05-23T11:00:18.983Z</time>
      </trkpt>
      <trkpt lat="47.25364" lon="-2.2927">
        <ele>35</ele>
        <time>2021-05-23T11:00:19.983Z</time>
      </trkpt>
      <trkpt lat="47.25363" lon="-2.29273">
        <ele>35</ele>
        <time>2021-05-23T11:00:20.983Z</time>
      </trkpt>
      <trkpt lat="47.25362" lon="-2.29277">
        <ele>35</ele>
        <time>2021-05-23T11:00:21.982Z</time>
      </trkpt>
      <trkpt lat="47.25362" lon="-2.2928">
        <ele>35</ele>
        <time>2021-05-23T11:00:22.983Z</time>
      </trkpt>
      <trkpt lat="47.25361" lon="-2.29283">
        <ele>35</ele>
        <time>2021-05-23T11:00:23.983Z</time>
      </trkpt>
      <trkpt lat="47.2536" lon="-2.29286">
        <ele>35</ele>
        <time>2021-05-23T11:00:24.982Z</time>
      </trkpt>
      <trkpt lat="47.2536" lon="-2.2929">
        <ele>35</ele>
        <time>2021-05-23T11:00:25.982Z</time>
      </trkpt>
      <trkpt lat="47.25359" lon="-2.29293">
        <ele>35</ele>
        <time>2021-05-23T11:00:26.983Z</time>
      </trkpt>
      <trkpt lat="47.25358" lon="-2.29296">
        <ele>35</ele>
        <time>2021-05-23T11:00:27.983Z</time>
      </trkpt>
      <trkpt lat="47.25357" lon="-2.29299">
        <ele>35</ele>
        <time>2021-05-23T11:00:28.983Z</time>
      </trkpt>
      <trkpt lat="47.25356" lon="-2.29301">
        <ele>35</ele>
        <time>2021-05-23T11:00:29.982Z</time>
      </trkpt>
      <trkpt lat="47.25357" lon="-2.29304">
        <ele>36</ele>
        <time>2021-05-23T11:00:30.983Z</time>
      </trkpt>
      <trkpt lat="47.25356" lon="-2.29307">
        <ele>36</ele>
        <time>2021-05-23T11:00:31.983Z</time>
      </trkpt>
      <trkpt lat="47.25355" lon="-2.2931">
        <ele>37</ele>
        <time>2021-05-23T11:00:32.983Z</time>
      </trkpt>
      <trkpt lat="47.25354" lon="-2.29312">
        <ele>37</ele>
        <time>2021-05-23T11:00:33.983Z</time>
      </trkpt>
      <trkpt lat="47.25353" lon="-2.29315">
        <ele>37</ele>
        <time>2021-05-23T11:00:34.983Z</time>
      </trkpt>
      <trkpt lat="47.25352" lon="-2.29319">
        <ele>37</ele>
        <time>2021-05-23T11:00:35.982Z</time>
      </trkpt>
      <trkpt lat="47.25352" lon="-2.29322">
        <ele>38</ele>
        <time>2021-05-23T11:00:36.983Z</time>
      </trkpt>
      <trkpt lat="47.25351" lon="-2.29325">
        <ele>38</ele>
        <time>2021-05-23T11:00:37.983Z</time>
      </trkpt>
      <trkpt lat="47.25351" lon="-2.29328">
        <ele>38</ele>
        <time>2021-05-23T11:00:38.982Z</time>
      </trkpt>
      <trkpt lat="47.25351" lon="-2.29332">
        <ele>38</ele>
        <time>2021-05-23T11:00:39.982Z</time>
      </trkpt>
      <trkpt lat="47.25351" lon="-2.29336">
        <ele>38</ele>
        <time>2021-05-23T11:00:40.983Z</time>
      </trkpt>
      <trkpt lat="47.25351" lon="-2.29339">
        <ele>38</ele>
        <time>2021-05-23T11:00:41.983Z</time>
      </trkpt>
      <trkpt lat="47.2535" lon="-2.29342">
        <ele>39</ele>
        <time>2021-05-23T11:00:42.983Z</time>
      </trkpt>
      <trkpt lat="47.25349" lon="-2.29345">
        <ele>39</ele>
        <time>2021-05-23T11:00:43.983Z</time>
      </trkpt>
      <trkpt lat="47.25349" lon="-2.29348">
        <ele>39</ele>
        <time>2021-05-23T11:00:44.983Z</time>
      </trkpt>
      <trkpt lat="47.25348" lon="-2.29351">
        <ele>39</ele>
        <time>2021-05-23T11:00:45.983Z</time>
      </trkpt>
      <trkpt lat="47.25348" lon="-2.29355">
        <ele>39</ele>
        <time>2021-05-23T11:00:46.983Z</time>
      </trkpt>
      <trkpt lat="47.25347" lon="-2.29357">
        <ele>40</ele>
        <time>2021-05-23T11:00:47.983Z</time>
      </trkpt>
      <trkpt lat="47.25346" lon="-2.29361">
        <ele>40</ele>
        <time>2021-05-23T11:00:48.983Z</time>
      </trkpt>
      <trkpt lat="47.25346" lon="-2.29365">
        <ele>40</ele>
        <time>2021-05-23T11:00:49.983Z</time>
      </trkpt>
      <trkpt lat="47.25345" lon="-2.29367">
        <ele>40</ele>
        <time>2021-05-23T11:00:50.983Z</time>
      </trkpt>
      <trkpt lat="47.25344" lon="-2.2937">
        <ele>39</ele>
        <time>2021-05-23T11:00:51.983Z</time>
      </trkpt>
      <trkpt lat="47.25343" lon="-2.29374">
        <ele>39</ele>
        <time>2021-05-23T11:00:52.983Z</time>
      </trkpt>
      <trkpt lat="47.25343" lon="-2.29378">
        <ele>39</ele>
        <time>2021-05-23T11:00:53.983Z</time>
      </trkpt>
      <trkpt lat="47.25342" lon="-2.29381">
        <ele>39</ele>
        <time>2021-05-23T11:00:54.983Z</time>
      </trkpt>
      <trkpt lat="47.25342" lon="-2.29384">
        <ele>39</ele>
        <time>2021-05-23T11:00:55.982Z</time>
      </trkpt>
      <trkpt lat="47.25342" lon="-2.29387">
        <ele>39</ele>
        <time>2021-05-23T11:00:56.983Z</time>
      </trkpt>
      <trkpt lat="47.25342" lon="-2.29391">
        <ele>39</ele>
        <time>2021-05-23T11:00:57.983Z</time>
      </trkpt>
      <trkpt lat="47.25342" lon="-2.29394">
        <ele>39</ele>
        <time>2021-05-23T11:00:58.983Z</time>
      </trkpt>
      <trkpt lat="47.25341" lon="-2.29398">
        <ele>39</ele>
        <time>2021-05-23T11:00:59.983Z</time>
      </trkpt>
      <trkpt lat="47.25341" lon="-2.29402">
        <ele>39</ele>
        <time>2021-05-23T11:01:00.983Z</time>
      </trkpt>
      <trkpt lat="47.25341" lon="-2.29404">
        <ele>40</ele>
        <time>2021-05-23T11:01:01.982Z</time>
      </trkpt>
      <trkpt lat="47.25341" lon="-2.29408">
        <ele>40</ele>
        <time>2021-05-23T11:01:02.982Z</time>
      </trkpt>
      <trkpt lat="47.25341" lon="-2.29412">
        <ele>40</ele>
        <time>2021-05-23T11:01:03.982Z</time>
      </trkpt>
      <trkpt lat="47.25341" lon="-2.29415">
        <ele>40</ele>
        <time>2021-05-23T11:01:04.983Z</time>
      </trkpt>
      <trkpt lat="47.25341" lon="-2.29418">
        <ele>40</ele>
        <time>2021-05-23T11:01:05.983Z</time>
      </trkpt>
      <trkpt lat="47.25341" lon="-2.29421">
        <ele>40</ele>
        <time>2021-05-23T11:01:06.983Z</time>
      </trkpt>
      <trkpt lat="47.25342" lon="-2.29425">
        <ele>40</ele>
        <time>2021-05-23T11:01:07.983Z</time>
      </trkpt>
      <trkpt lat="47.25342" lon="-2.29428">
        <ele>40</ele>
        <time>2021-05-23T11:01:08.983Z</time>
      </trkpt>
      <trkpt lat="47.25342" lon="-2.2943">
        <ele>40</ele>
        <time>2021-05-23T11:01:09.983Z</time>
      </trkpt>
      <trkpt lat="47.25343" lon="-2.29433">
        <ele>40</ele>
        <time>2021-05-23T11:01:10.983Z</time>
      </trkpt>
      <trkpt lat="47.25343" lon="-2.29437">
        <ele>40</ele>
        <time>2021-05-23T11:01:11.983Z</time>
      </trkpt>
      <trkpt lat="47.25343" lon="-2.2944">
        <ele>39</ele>
        <time>2021-05-23T11:01:12.983Z</time>
      </trkpt>
      <trkpt lat="47.25342" lon="-2.29444">
        <ele>39</ele>
        <time>2021-05-23T11:01:13.983Z</time>
      </trkpt>
      <trkpt lat="47.25342" lon="-2.29447">
        <ele>39</ele>
        <time>2021-05-23T11:01:14.983Z</time>
      </trkpt>
      <trkpt lat="47.25342" lon="-2.2945">
        <ele>38</ele>
        <time>2021-05-23T11:01:15.983Z</time>
      </trkpt>
      <trkpt lat="47.25342" lon="-2.29455">
        <ele>38</ele>
        <time>2021-05-23T11:01:16.983Z</time>
      </trkpt>
      <trkpt lat="47.25342" lon="-2.29458">
        <ele>38</ele>
        <time>2021-05-23T11:01:17.983Z</time>
      </trkpt>
      <trkpt lat="47.25342" lon="-2.29461">
        <ele>37</ele>
        <time>2021-05-23T11:01:18.982Z</time>
      </trkpt>
      <trkpt lat="47.25341" lon="-2.29464">
        <ele>37</ele>
        <time>2021-05-23T11:01:19.983Z</time>
      </trkpt>
      <trkpt lat="47.25341" lon="-2.29468">
        <ele>37</ele>
        <time>2021-05-23T11:01:20.983Z</time>
      </trkpt>
      <trkpt lat="47.25341" lon="-2.29471">
        <ele>36</ele>
        <time>2021-05-23T11:01:21.983Z</time>
      </trkpt>
      <trkpt lat="47.25341" lon="-2.29475">
        <ele>36</ele>
        <time>2021-05-23T11:01:22.983Z</time>
      </trkpt>
      <trkpt lat="47.2534" lon="-2.29478">
        <ele>36</ele>
        <time>2021-05-23T11:01:23.983Z</time>
      </trkpt>
      <trkpt lat="47.2534" lon="-2.29482">
        <ele>36</ele>
        <time>2021-05-23T11:01:24.983Z</time>
      </trkpt>
      <trkpt lat="47.25339" lon="-2.29485">
        <ele>36</ele>
        <time>2021-05-23T11:01:25.983Z</time>
      </trkpt>
      <trkpt lat="47.25339" lon="-2.29488">
        <ele>36</ele>
        <time>2021-05-23T11:01:26.983Z</time>
      </trkpt>
      <trkpt lat="47.25338" lon="-2.29492">
        <ele>36</ele>
        <time>2021-05-23T11:01:27.982Z</time>
      </trkpt>
      <trkpt lat="47.25337" lon="-2.29494">
        <ele>37</ele>
        <time>2021-05-23T11:01:28.983Z</time>
      </trkpt>
      <trkpt lat="47.25336" lon="-2.29497">
        <ele>37</ele>
        <time>2021-05-23T11:01:29.983Z</time>
      </trkpt>
      <trkpt lat="47.25335" lon="-2.295">
        <ele>37</ele>
        <time>2021-05-23T11:01:30.983Z</time>
      </trkpt>
      <trkpt lat="47.25334" lon="-2.29503">
        <ele>37</ele>
        <time>2021-05-23T11:01:31.983Z</time>
      </trkpt>
      <trkpt lat="47.25333" lon="-2.29505">
        <ele>38</ele>
        <time>2021-05-23T11:01:32.983Z</time>
      </trkpt>
      <trkpt lat="47.25331" lon="-2.29508">
        <ele>38</ele>
        <time>2021-05-23T11:01:33.982Z</time>
      </trkpt>
      <trkpt lat="47.2533" lon="-2.2951">
        <ele>39</ele>
        <time>2021-05-23T11:01:34.983Z</time>
      </trkpt>
      <trkpt lat="47.25328" lon="-2.29513">
        <ele>39</ele>
        <time>2021-05-23T11:01:35.983Z</time>
      </trkpt>
      <trkpt lat="47.25326" lon="-2.29516">
        <ele>40</ele>
        <time>2021-05-23T11:01:36.982Z</time>
      </trkpt>
      <trkpt lat="47.25324" lon="-2.29518">
        <ele>40</ele>
        <time>2021-05-23T11:01:37.983Z</time>
      </trkpt>
      <trkpt lat="47.25322" lon="-2.2952">
        <ele>40</ele>
        <time>2021-05-23T11:01:38.983Z</time>
      </trkpt>
      <trkpt lat="47.2532" lon="-2.29522">
        <ele>41</ele>
        <time>2021-05-23T11:01:39.983Z</time>
      </trkpt>
      <trkpt lat="47.25318" lon="-2.29524">
        <ele>42</ele>
        <time>2021-05-23T11:01:40.983Z</time>
      </trkpt>
      <trkpt lat="47.25316" lon="-2.29526">
        <ele>42</ele>
        <time>2021-05-23T11:01:41.983Z</time>
      </trkpt>
      <trkpt lat="47.25314" lon="-2.29527">
        <ele>42</ele>
        <time>2021-05-23T11:01:42.982Z</time>
      </trkpt>
      <trkpt lat="47.25312" lon="-2.29529">
        <ele>42</ele>
        <time>2021-05-23T11:01:43.983Z</time>
      </trkpt>
      <trkpt lat="47.25309" lon="-2.2953">
        <ele>42</ele>
        <time>2021-05-23T11:01:44.983Z</time>
      </trkpt>
      <trkpt lat="47.25307" lon="-2.29531">
        <ele>42</ele>
        <time>2021-05-23T11:01:45.982Z</time>
      </trkpt>
      <trkpt lat="47.25305" lon="-2.29532">
        <ele>41</ele>
        <time>2021-05-23T11:01:46.983Z</time>
      </trkpt>
      <trkpt lat="47.25303" lon="-2.29533">
        <ele>41</ele>
        <time>2021-05-23T11:01:47.982Z</time>
      </trkpt>
      <trkpt lat="47.253" lon="-2.29534">
        <ele>39</ele>
        <time>2021-05-23T11:01:48.983Z</time>
      </trkpt>
      <trkpt lat="47.25298" lon="-2.29535">
        <ele>38</ele>
        <time>2021-05-23T11:01:49.982Z</time>
      </trkpt>
      <trkpt lat="47.25296" lon="-2.29535">
        <ele>37</ele>
        <time>2021-05-23T11:01:50.982Z</time>
      </trkpt>
      <trkpt lat="47.25294" lon="-2.29536">
        <ele>36</ele>
        <time>2021-05-23T11:01:51.982Z</time>
      </trkpt>
      <trkpt lat="47.25291" lon="-2.29537">
        <ele>36</ele>
        <time>2021-05-23T11:01:52.982Z</time>
      </trkpt>
      <trkpt lat="47.25289" lon="-2.29538">
        <ele>35</ele>
        <time>2021-05-23T11:01:53.983Z</time>
      </trkpt>
      <trkpt lat="47.25286" lon="-2.29538">
        <ele>35</ele>
        <time>2021-05-23T11:01:54.982Z</time>
      </trkpt>
      <trkpt lat="47.25284" lon="-2.29538">
        <ele>35</ele>
        <time>2021-05-23T11:01:55.983Z</time>
      </trkpt>
      <trkpt lat="47.25282" lon="-2.29539">
        <ele>34</ele>
        <time>2021-05-23T11:01:56.982Z</time>
      </trkpt>
      <trkpt lat="47.2528" lon="-2.2954">
        <ele>34</ele>
        <time>2021-05-23T11:01:57.983Z</time>
      </trkpt>
      <trkpt lat="47.25277" lon="-2.2954">
        <ele>34</ele>
        <time>2021-05-23T11:01:58.982Z</time>
      </trkpt>
      <trkpt lat="47.25275" lon="-2.29541">
        <ele>34</ele>
        <time>2021-05-23T11:01:59.983Z</time>
      </trkpt>
      <trkpt lat="47.25273" lon="-2.29542">
        <ele>33</ele>
        <time>2021-05-23T11:02:00.983Z</time>
      </trkpt>
      <trkpt lat="47.2527" lon="-2.29543">
        <ele>32</ele>
        <time>2021-05-23T11:02:01.982Z</time>
      </trkpt>
      <trkpt lat="47.25268" lon="-2.29544">
        <ele>32</ele>
        <time>2021-05-23T11:02:02.983Z</time>
      </trkpt>
      <trkpt lat="47.25265" lon="-2.29545">
        <ele>32</ele>
        <time>2021-05-23T11:02:03.983Z</time>
      </trkpt>
      <trkpt lat="47.25263" lon="-2.29546">
        <ele>32</ele>
        <time>2021-05-23T11:02:04.983Z</time>
      </trkpt>
      <trkpt lat="47.25262" lon="-2.29548">
        <ele>32</ele>
        <time>2021-05-23T11:02:05.982Z</time>
      </trkpt>
      <trkpt lat="47.25259" lon="-2.29549">
        <ele>32</ele>
        <time>2021-05-23T11:02:06.982Z</time>
      </trkpt>
      <trkpt lat="47.25257" lon="-2.29551">
        <ele>32</ele>
        <time>2021-05-23T11:02:07.983Z</time>
      </trkpt>
      <trkpt lat="47.25255" lon="-2.29552">
        <ele>32</ele>
        <time>2021-05-23T11:02:08.982Z</time>
      </trkpt>
      <trkpt lat="47.25253" lon="-2.29554">
        <ele>33</ele>
        <time>2021-05-23T11:02:09.983Z</time>
      </trkpt>
      <trkpt lat="47.25251" lon="-2.29555">
        <ele>33</ele>
        <time>2021-05-23T11:02:10.983Z</time>
      </trkpt>
      <trkpt lat="47.25248" lon="-2.29557">
        <ele>33</ele>
        <time>2021-05-23T11:02:11.982Z</time>
      </trkpt>
      <trkpt lat="47.25246" lon="-2.29559">
        <ele>33</ele>
        <time>2021-05-23T11:02:12.982Z</time>
      </trkpt>
      <trkpt lat="47.25244" lon="-2.29561">
        <ele>33</ele>
        <time>2021-05-23T11:02:13.983Z</time>
      </trkpt>
      <trkpt lat="47.25242" lon="-2.29563">
        <ele>33</ele>
        <time>2021-05-23T11:02:14.982Z</time>
      </trkpt>
      <trkpt lat="47.2524" lon="-2.29565">
        <ele>33</ele>
        <time>2021-05-23T11:02:15.983Z</time>
      </trkpt>
      <trkpt lat="47.25239" lon="-2.29566">
        <ele>33</ele>
        <time>2021-05-23T11:02:16.982Z</time>
      </trkpt>
      <trkpt lat="47.25237" lon="-2.29567">
        <ele>33</ele>
        <time>2021-05-23T11:02:17.983Z</time>
      </trkpt>
      <trkpt lat="47.25235" lon="-2.29569">
        <ele>33</ele>
        <time>2021-05-23T11:02:18.982Z</time>
      </trkpt>
      <trkpt lat="47.25233" lon="-2.29571">
        <ele>33</ele>
        <time>2021-05-23T11:02:19.983Z</time>
      </trkpt>
      <trkpt lat="47.2523" lon="-2.29573">
        <ele>33</ele>
        <time>2021-05-23T11:02:20.983Z</time>
      </trkpt>
      <trkpt lat="47.25228" lon="-2.29574">
        <ele>33</ele>
        <time>2021-05-23T11:02:21.983Z</time>
      </trkpt>
      <trkpt lat="47.25226" lon="-2.29575">
        <ele>33</ele>
        <time>2021-05-23T11:02:22.982Z</time>
      </trkpt>
      <trkpt lat="47.25224" lon="-2.29576">
        <ele>34</ele>
        <time>2021-05-23T11:02:23.983Z</time>
      </trkpt>
      <trkpt lat="47.25222" lon="-2.29577">
        <ele>34</ele>
        <time>2021-05-23T11:02:24.982Z</time>
      </trkpt>
      <trkpt lat="47.25219" lon="-2.29577">
        <ele>35</ele>
        <time>2021-05-23T11:02:25.982Z</time>
      </trkpt>
      <trkpt lat="47.25217" lon="-2.29578">
        <ele>35</ele>
        <time>2021-05-23T11:02:26.983Z</time>
      </trkpt>
      <trkpt lat="47.25215" lon="-2.29579">
        <ele>35</ele>
        <time>2021-05-23T11:02:27.982Z</time>
      </trkpt>
      <trkpt lat="47.25213" lon="-2.29581">
        <ele>34</ele>
        <time>2021-05-23T11:02:28.983Z</time>
      </trkpt>
      <trkpt lat="47.2521" lon="-2.29583">
        <ele>34</ele>
        <time>2021-05-23T11:02:29.983Z</time>
      </trkpt>
      <trkpt lat="47.25208" lon="-2.29585">
        <ele>34</ele>
        <time>2021-05-23T11:02:30.983Z</time>
      </trkpt>
      <trkpt lat="47.25206" lon="-2.29588">
        <ele>33</ele>
        <time>2021-05-23T11:02:31.983Z</time>
      </trkpt>
      <trkpt lat="47.25205" lon="-2.2959">
        <ele>33</ele>
        <time>2021-05-23T11:02:32.983Z</time>
      </trkpt>
      <trkpt lat="47.25203" lon="-2.29594">
        <ele>32</ele>
        <time>2021-05-23T11:02:33.983Z</time>
      </trkpt>
      <trkpt lat="47.25202" lon="-2.29598">
        <ele>32</ele>
        <time>2021-05-23T11:02:34.983Z</time>
      </trkpt>
      <trkpt lat="47.25201" lon="-2.29601">
        <ele>32</ele>
        <time>2021-05-23T11:02:35.983Z</time>
      </trkpt>
      <trkpt lat="47.25201" lon="-2.29604">
        <ele>31</ele>
        <time>2021-05-23T11:02:36.983Z</time>
      </trkpt>
      <trkpt lat="47.252" lon="-2.29607">
        <ele>31</ele>
        <time>2021-05-23T11:02:37.983Z</time>
      </trkpt>
      <trkpt lat="47.25199" lon="-2.2961">
        <ele>31</ele>
        <time>2021-05-23T11:02:38.983Z</time>
      </trkpt>
      <trkpt lat="47.25198" lon="-2.29613">
        <ele>30</ele>
        <time>2021-05-23T11:02:39.982Z</time>
      </trkpt>
      <trkpt lat="47.25197" lon="-2.29617">
        <ele>30</ele>
        <time>2021-05-23T11:02:40.983Z</time>
      </trkpt>
      <trkpt lat="47.25196" lon="-2.29619">
        <ele>30</ele>
        <time>2021-05-23T11:02:41.982Z</time>
      </trkpt>
      <trkpt lat="47.25195" lon="-2.29622">
        <ele>30</ele>
        <time>2021-05-23T11:02:42.983Z</time>
      </trkpt>
      <trkpt lat="47.25193" lon="-2.29624">
        <ele>30</ele>
        <time>2021-05-23T11:02:43.982Z</time>
      </trkpt>
      <trkpt lat="47.25191" lon="-2.29627">
        <ele>30</ele>
        <time>2021-05-23T11:02:44.983Z</time>
      </trkpt>
      <trkpt lat="47.25189" lon="-2.2963">
        <ele>31</ele>
        <time>2021-05-23T11:02:45.983Z</time>
      </trkpt>
      <trkpt lat="47.25188" lon="-2.29632">
        <ele>31</ele>
        <time>2021-05-23T11:02:46.983Z</time>
      </trkpt>
      <trkpt lat="47.25186" lon="-2.29634">
        <ele>32</ele>
        <time>2021-05-23T11:02:47.983Z</time>
      </trkpt>
      <trkpt lat="47.25185" lon="-2.29638">
        <ele>32</ele>
        <time>2021-05-23T11:02:48.982Z</time>
      </trkpt>
      <trkpt lat="47.25185" lon="-2.29641">
        <ele>32</ele>
        <time>2021-05-23T11:02:49.983Z</time>
      </trkpt>
      <trkpt lat="47.25184" lon="-2.29644">
        <ele>33</ele>
        <time>2021-05-23T11:02:50.982Z</time>
      </trkpt>
      <trkpt lat="47.25184" lon="-2.29647">
        <ele>32</ele>
        <time>2021-05-23T11:02:51.983Z</time>
      </trkpt>
      <trkpt lat="47.25184" lon="-2.29652">
        <ele>33</ele>
        <time>2021-05-23T11:02:52.983Z</time>
      </trkpt>
      <trkpt lat="47.25184" lon="-2.29655">
        <ele>33</ele>
        <time>2021-05-23T11:02:53.982Z</time>
      </trkpt>
      <trkpt lat="47.25184" lon="-2.29659">
        <ele>33</ele>
        <time>2021-05-23T11:02:54.983Z</time>
      </trkpt>
      <trkpt lat="47.25185" lon="-2.29662">
        <ele>33</ele>
        <time>2021-05-23T11:02:55.983Z</time>
      </trkpt>
      <trkpt lat="47.25185" lon="-2.29665">
        <ele>33</ele>
        <time>2021-05-23T11:02:56.983Z</time>
      </trkpt>
      <trkpt lat="47.25186" lon="-2.29669">
        <ele>33</ele>
        <time>2021-05-23T11:02:57.983Z</time>
      </trkpt>
      <trkpt lat="47.25186" lon="-2.29673">
        <ele>33</ele>
        <time>2021-05-23T11:02:58.983Z</time>
      </trkpt>
      <trkpt lat="47.25186" lon="-2.29676">
        <ele>33</ele>
        <time>2021-05-23T11:02:59.982Z</time>
      </trkpt>
      <trkpt lat="47.25187" lon="-2.2968">
        <ele>33</ele>
        <time>2021-05-23T11:03:00.983Z</time>
      </trkpt>
      <trkpt lat="47.25187" lon="-2.29684">
        <ele>33</ele>
        <time>2021-05-23T11:03:01.983Z</time>
      </trkpt>
      <trkpt lat="47.25187" lon="-2.29688">
        <ele>33</ele>
        <time>2021-05-23T11:03:02.983Z</time>
      </trkpt>
      <trkpt lat="47.25188" lon="-2.29691">
        <ele>33</ele>
        <time>2021-05-23T11:03:03.983Z</time>
      </trkpt>
      <trkpt lat="47.25188" lon="-2.29695">
        <ele>33</ele>
        <time>2021-05-23T11:03:04.983Z</time>
      </trkpt>
      <trkpt lat="47.25188" lon="-2.29697">
        <ele>34</ele>
        <time>2021-05-23T11:03:05.983Z</time>
      </trkpt>
      <trkpt lat="47.25189" lon="-2.29702">
        <ele>34</ele>
        <time>2021-05-23T11:03:06.982Z</time>
      </trkpt>
      <trkpt lat="47.25189" lon="-2.29705">
        <ele>34</ele>
        <time>2021-05-23T11:03:07.983Z</time>
      </trkpt>
      <trkpt lat="47.25189" lon="-2.29708">
        <ele>33</ele>
        <time>2021-05-23T11:03:08.983Z</time>
      </trkpt>
      <trkpt lat="47.2519" lon="-2.29711">
        <ele>33</ele>
        <time>2021-05-23T11:03:09.983Z</time>
      </trkpt>
      <trkpt lat="47.2519" lon="-2.29715">
        <ele>33</ele>
        <time>2021-05-23T11:03:10.982Z</time>
      </trkpt>
      <trkpt lat="47.2519" lon="-2.29718">
        <ele>33</ele>
        <time>2021-05-23T11:03:11.983Z</time>
      </trkpt>
      <trkpt lat="47.2519" lon="-2.29722">
        <ele>33</ele>
        <time>2021-05-23T11:03:12.983Z</time>
      </trkpt>
      <trkpt lat="47.25191" lon="-2.29725">
        <ele>32</ele>
        <time>2021-05-23T11:03:13.982Z</time>
      </trkpt>
      <trkpt lat="47.25191" lon="-2.29729">
        <ele>32</ele>
        <time>2021-05-23T11:03:14.982Z</time>
      </trkpt>
      <trkpt lat="47.25191" lon="-2.29732">
        <ele>32</ele>
        <time>2021-05-23T11:03:15.982Z</time>
      </trkpt>
      <trkpt lat="47.2519" lon="-2.29737">
        <ele>32</ele>
        <time>2021-05-23T11:03:16.983Z</time>
      </trkpt>
      <trkpt lat="47.2519" lon="-2.29739">
        <ele>32</ele>
        <time>2021-05-23T11:03:17.982Z</time>
      </trkpt>
      <trkpt lat="47.2519" lon="-2.29742">
        <ele>32</ele>
        <time>2021-05-23T11:03:18.982Z</time>
      </trkpt>
      <trkpt lat="47.2519" lon="-2.29745">
        <ele>32</ele>
        <time>2021-05-23T11:03:19.982Z</time>
      </trkpt>
      <trkpt lat="47.2519" lon="-2.29747">
        <ele>32</ele>
        <time>2021-05-23T11:03:20.983Z</time>
      </trkpt>
      <trkpt lat="47.25189" lon="-2.29749">
        <ele>33</ele>
        <time>2021-05-23T11:03:21.982Z</time>
      </trkpt>
      <trkpt lat="47.25189" lon="-2.2975">
        <ele>33</ele>
        <time>2021-05-23T11:03:22.983Z</time>
      </trkpt>
      <trkpt lat="47.25188" lon="-2.29751">
        <ele>33</ele>
        <time>2021-05-23T11:03:23.983Z</time>
      </trkpt>
      <trkpt lat="47.25188" lon="-2.29752">
        <ele>34</ele>
        <time>2021-05-23T11:03:24.982Z</time>
      </trkpt>
      <trkpt lat="47.25188" lon="-2.29753">
        <ele>34</ele>
        <time>2021-05-23T11:03:25.983Z</time>
      </trkpt>
      <trkpt lat="47.25188" lon="-2.29754">
        <ele>34</ele>
        <time>2021-05-23T11:03:26.983Z</time>
      </trkpt>
      <trkpt lat="47.25187" lon="-2.29754">
        <ele>34</ele>
        <time>2021-05-23T11:03:27.983Z</time>
      </trkpt>
      <trkpt lat="47.25187" lon="-2.29754">
        <ele>34</ele>
        <time>2021-05-23T11:03:28.983Z</time>
      </trkpt>
      <trkpt lat="47.25188" lon="-2.29754">
        <ele>33</ele>
        <time>2021-05-23T11:03:29.983Z</time>
      </trkpt>
      <trkpt lat="47.25188" lon="-2.29755">
        <ele>33</ele>
        <time>2021-05-23T11:03:30.982Z</time>
      </trkpt>
      <trkpt lat="47.25188" lon="-2.29755">
        <ele>32</ele>
        <time>2021-05-23T11:03:31.983Z</time>
      </trkpt>
      <trkpt lat="47.25188" lon="-2.29755">
        <ele>32</ele>
        <time>2021-05-23T11:03:32.983Z</time>
      </trkpt>
      <trkpt lat="47.25188" lon="-2.29755">
        <ele>32</ele>
        <time>2021-05-23T11:03:33.982Z</time>
      </trkpt>
      <trkpt lat="47.25187" lon="-2.29754">
        <ele>32</ele>
        <time>2021-05-23T11:03:34.982Z</time>
      </trkpt>
      <trkpt lat="47.25187" lon="-2.29753">
        <ele>31</ele>
        <time>2021-05-23T11:03:35.982Z</time>
      </trkpt>
      <trkpt lat="47.25186" lon="-2.29753">
        <ele>32</ele>
        <time>2021-05-23T11:03:36.983Z</time>
      </trkpt>
      <trkpt lat="47.25185" lon="-2.29752">
        <ele>32</ele>
        <time>2021-05-23T11:03:37.982Z</time>
      </trkpt>
      <trkpt lat="47.25184" lon="-2.29752">
        <ele>32</ele>
        <time>2021-05-23T11:03:38.983Z</time>
      </trkpt>
      <trkpt lat="47.25184" lon="-2.29752">
        <ele>32</ele>
        <time>2021-05-23T11:03:39.982Z</time>
      </trkpt>
      <trkpt lat="47.25183" lon="-2.29751">
        <ele>32</ele>
        <time>2021-05-23T11:03:40.982Z</time>
      </trkpt>
      <trkpt lat="47.25182" lon="-2.29751">
        <ele>32</ele>
        <time>2021-05-23T11:03:41.983Z</time>
      </trkpt>
      <trkpt lat="47.25181" lon="-2.29751">
        <ele>31</ele>
        <time>2021-05-23T11:03:42.983Z</time>
      </trkpt>
      <trkpt lat="47.2518" lon="-2.2975">
        <ele>31</ele>
        <time>2021-05-23T11:03:43.983Z</time>
      </trkpt>
      <trkpt lat="47.25178" lon="-2.2975">
        <ele>30</ele>
        <time>2021-05-23T11:03:44.983Z</time>
      </trkpt>
      <trkpt lat="47.25177" lon="-2.29749">
        <ele>30</ele>
        <time>2021-05-23T11:03:45.982Z</time>
      </trkpt>
      <trkpt lat="47.25175" lon="-2.29748">
        <ele>31</ele>
        <time>2021-05-23T11:03:46.983Z</time>
      </trkpt>
      <trkpt lat="47.25173" lon="-2.29747">
        <ele>31</ele>
        <time>2021-05-23T11:03:47.982Z</time>
      </trkpt>
      <trkpt lat="47.25172" lon="-2.29746">
        <ele>31</ele>
        <time>2021-05-23T11:03:48.982Z</time>
      </trkpt>
      <trkpt lat="47.2517" lon="-2.29745">
        <ele>31</ele>
        <time>2021-05-23T11:03:49.982Z</time>
      </trkpt>
      <trkpt lat="47.25168" lon="-2.29744">
        <ele>31</ele>
        <time>2021-05-23T11:03:50.983Z</time>
      </trkpt>
      <trkpt lat="47.25166" lon="-2.29743">
        <ele>31</ele>
        <time>2021-05-23T11:03:51.982Z</time>
      </trkpt>
      <trkpt lat="47.25164" lon="-2.29743">
        <ele>31</ele>
        <time>2021-05-23T11:03:52.983Z</time>
      </trkpt>
      <trkpt lat="47.25162" lon="-2.29742">
        <ele>31</ele>
        <time>2021-05-23T11:03:53.982Z</time>
      </trkpt>
      <trkpt lat="47.25161" lon="-2.29741">
        <ele>32</ele>
        <time>2021-05-23T11:03:54.982Z</time>
      </trkpt>
      <trkpt lat="47.25159" lon="-2.29741">
        <ele>32</ele>
        <time>2021-05-23T11:03:55.982Z</time>
      </trkpt>
      <trkpt lat="47.25156" lon="-2.2974">
        <ele>32</ele>
        <time>2021-05-23T11:03:56.982Z</time>
      </trkpt>
      <trkpt lat="47.25154" lon="-2.29739">
        <ele>32</ele>
        <time>2021-05-23T11:03:57.982Z</time>
      </trkpt>
      <trkpt lat="47.25152" lon="-2.29738">
        <ele>31</ele>
        <time>2021-05-23T11:03:58.982Z</time>
      </trkpt>
      <trkpt lat="47.2515" lon="-2.29737">
        <ele>32</ele>
        <time>2021-05-23T11:03:59.982Z</time>
      </trkpt>
      <trkpt lat="47.25148" lon="-2.29736">
        <ele>32</ele>
        <time>2021-05-23T11:04:00.982Z</time>
      </trkpt>
      <trkpt lat="47.25147" lon="-2.29736">
        <ele>32</ele>
        <time>2021-05-23T11:04:01.982Z</time>
      </trkpt>
      <trkpt lat="47.25144" lon="-2.29736">
        <ele>32</ele>
        <time>2021-05-23T11:04:02.982Z</time>
      </trkpt>
      <trkpt lat="47.25143" lon="-2.29735">
        <ele>32</ele>
        <time>2021-05-23T11:04:03.982Z</time>
      </trkpt>
      <trkpt lat="47.25141" lon="-2.29735">
        <ele>32</ele>
        <time>2021-05-23T11:04:04.982Z</time>
      </trkpt>
      <trkpt lat="47.25139" lon="-2.29735">
        <ele>32</ele>
        <time>2021-05-23T11:04:05.983Z</time>
      </trkpt>
      <trkpt lat="47.25137" lon="-2.29735">
        <ele>32</ele>
        <time>2021-05-23T11:04:06.982Z</time>
      </trkpt>
      <trkpt lat="47.25135" lon="-2.29734">
        <ele>32</ele>
        <time>2021-05-23T11:04:07.982Z</time>
      </trkpt>
      <trkpt lat="47.25133" lon="-2.29733">
        <ele>31</ele>
        <time>2021-05-23T11:04:08.983Z</time>
      </trkpt>
      <trkpt lat="47.2513" lon="-2.29731">
        <ele>31</ele>
        <time>2021-05-23T11:04:09.983Z</time>
      </trkpt>
      <trkpt lat="47.25129" lon="-2.2973">
        <ele>32</ele>
        <time>2021-05-23T11:04:10.983Z</time>
      </trkpt>
      <trkpt lat="47.25126" lon="-2.29729">
        <ele>32</ele>
        <time>2021-05-23T11:04:11.982Z</time>
      </trkpt>
      <trkpt lat="47.25124" lon="-2.29728">
        <ele>32</ele>
        <time>2021-05-23T11:04:12.982Z</time>
      </trkpt>
      <trkpt lat="47.25122" lon="-2.29727">
        <ele>32</ele>
        <time>2021-05-23T11:04:13.982Z</time>
      </trkpt>
      <trkpt lat="47.2512" lon="-2.29726">
        <ele>32</ele>
        <time>2021-05-23T11:04:14.983Z</time>
      </trkpt>
      <trkpt lat="47.25118" lon="-2.29724">
        <ele>32</ele>
        <time>2021-05-23T11:04:15.982Z</time>
      </trkpt>
      <trkpt lat="47.25114" lon="-2.29723">
        <ele>32</ele>
        <time>2021-05-23T11:04:16.982Z</time>
      </trkpt>
      <trkpt lat="47.25112" lon="-2.29722">
        <ele>32</ele>
        <time>2021-05-23T11:04:17.983Z</time>
      </trkpt>
      <trkpt lat="47.2511" lon="-2.29722">
        <ele>32</ele>
        <time>2021-05-23T11:04:18.983Z</time>
      </trkpt>
      <trkpt lat="47.25108" lon="-2.2972">
        <ele>32</ele>
        <time>2021-05-23T11:04:19.983Z</time>
      </trkpt>
      <trkpt lat="47.25105" lon="-2.29719">
        <ele>33</ele>
        <time>2021-05-23T11:04:20.983Z</time>
      </trkpt>
      <trkpt lat="47.25103" lon="-2.29718">
        <ele>33</ele>
        <time>2021-05-23T11:04:21.983Z</time>
      </trkpt>
      <trkpt lat="47.25101" lon="-2.29717">
        <ele>33</ele>
        <time>2021-05-23T11:04:22.983Z</time>
      </trkpt>
      <trkpt lat="47.25099" lon="-2.29717">
        <ele>33</ele>
        <time>2021-05-23T11:04:23.983Z</time>
      </trkpt>
      <trkpt lat="47.25097" lon="-2.29716">
        <ele>33</ele>
        <time>2021-05-23T11:04:24.983Z</time>
      </trkpt>
      <trkpt lat="47.25095" lon="-2.29716">
        <ele>33</ele>
        <time>2021-05-23T11:04:25.982Z</time>
      </trkpt>
      <trkpt lat="47.25093" lon="-2.29715">
        <ele>33</ele>
        <time>2021-05-23T11:04:26.983Z</time>
      </trkpt>
      <trkpt lat="47.25092" lon="-2.29715">
        <ele>32</ele>
        <time>2021-05-23T11:04:27.982Z</time>
      </trkpt>
      <trkpt lat="47.2509" lon="-2.29714">
        <ele>32</ele>
        <time>2021-05-23T11:04:28.983Z</time>
      </trkpt>
      <trkpt lat="47.25089" lon="-2.29714">
        <ele>31</ele>
        <time>2021-05-23T11:04:29.983Z</time>
      </trkpt>
      <trkpt lat="47.25087" lon="-2.29714">
        <ele>31</ele>
        <time>2021-05-23T11:04:30.983Z</time>
      </trkpt>
      <trkpt lat="47.25086" lon="-2.29713">
        <ele>30</ele>
        <time>2021-05-23T11:04:31.983Z</time>
      </trkpt>
      <trkpt lat="47.25084" lon="-2.29713">
        <ele>30</ele>
        <time>2021-05-23T11:04:32.982Z</time>
      </trkpt>
      <trkpt lat="47.25082" lon="-2.29714">
        <ele>30</ele>
        <time>2021-05-23T11:04:33.983Z</time>
      </trkpt>
      <trkpt lat="47.25081" lon="-2.29714">
        <ele>30</ele>
        <time>2021-05-23T11:04:34.983Z</time>
      </trkpt>
      <trkpt lat="47.2508" lon="-2.29714">
        <ele>30</ele>
        <time>2021-05-23T11:04:35.983Z</time>
      </trkpt>
      <trkpt lat="47.25078" lon="-2.29713">
        <ele>29</ele>
        <time>2021-05-23T11:04:36.983Z</time>
      </trkpt>
      <trkpt lat="47.25076" lon="-2.29713">
        <ele>29</ele>
        <time>2021-05-23T11:04:37.983Z</time>
      </trkpt>
      <trkpt lat="47.25075" lon="-2.29713">
        <ele>29</ele>
        <time>2021-05-23T11:04:38.983Z</time>
      </trkpt>
      <trkpt lat="47.25073" lon="-2.29713">
        <ele>29</ele>
        <time>2021-05-23T11:04:39.983Z</time>
      </trkpt>
      <trkpt lat="47.25071" lon="-2.29712">
        <ele>29</ele>
        <time>2021-05-23T11:04:40.983Z</time>
      </trkpt>
      <trkpt lat="47.2507" lon="-2.29712">
        <ele>30</ele>
        <time>2021-05-23T11:04:41.982Z</time>
      </trkpt>
      <trkpt lat="47.25068" lon="-2.29712">
        <ele>30</ele>
        <time>2021-05-23T11:04:42.983Z</time>
      </trkpt>
      <trkpt lat="47.25067" lon="-2.29712">
        <ele>30</ele>
        <time>2021-05-23T11:04:43.982Z</time>
      </trkpt>
      <trkpt lat="47.25065" lon="-2.29712">
        <ele>30</ele>
        <time>2021-05-23T11:04:44.983Z</time>
      </trkpt>
      <trkpt lat="47.25064" lon="-2.29712">
        <ele>30</ele>
        <time>2021-05-23T11:04:45.982Z</time>
      </trkpt>
      <trkpt lat="47.25062" lon="-2.29713">
        <ele>30</ele>
        <time>2021-05-23T11:04:46.983Z</time>
      </trkpt>
      <trkpt lat="47.25061" lon="-2.29713">
        <ele>30</ele>
        <time>2021-05-23T11:04:47.982Z</time>
      </trkpt>
      <trkpt lat="47.2506" lon="-2.29714">
        <ele>30</ele>
        <time>2021-05-23T11:04:48.983Z</time>
      </trkpt>
      <trkpt lat="47.25058" lon="-2.29714">
        <ele>30</ele>
        <time>2021-05-23T11:04:49.982Z</time>
      </trkpt>
      <trkpt lat="47.25057" lon="-2.29715">
        <ele>30</ele>
        <time>2021-05-23T11:04:50.983Z</time>
      </trkpt>
      <trkpt lat="47.25055" lon="-2.29715">
        <ele>30</ele>
        <time>2021-05-23T11:04:51.982Z</time>
      </trkpt>
      <trkpt lat="47.25053" lon="-2.29716">
        <ele>30</ele>
        <time>2021-05-23T11:04:52.983Z</time>
      </trkpt>
      <trkpt lat="47.25052" lon="-2.29716">
        <ele>29</ele>
        <time>2021-05-23T11:04:53.983Z</time>
      </trkpt>
      <trkpt lat="47.2505" lon="-2.29716">
        <ele>29</ele>
        <time>2021-05-23T11:04:54.983Z</time>
      </trkpt>
      <trkpt lat="47.25048" lon="-2.29716">
        <ele>29</ele>
        <time>2021-05-23T11:04:55.982Z</time>
      </trkpt>
      <trkpt lat="47.25047" lon="-2.29717">
        <ele>28</ele>
        <time>2021-05-23T11:04:56.983Z</time>
      </trkpt>
      <trkpt lat="47.25045" lon="-2.29717">
        <ele>28</ele>
        <time>2021-05-23T11:04:57.983Z</time>
      </trkpt>
      <trkpt lat="47.25044" lon="-2.29717">
        <ele>28</ele>
        <time>2021-05-23T11:04:58.983Z</time>
      </trkpt>
      <trkpt lat="47.25042" lon="-2.29717">
        <ele>28</ele>
        <time>2021-05-23T11:04:59.983Z</time>
      </trkpt>
      <trkpt lat="47.25041" lon="-2.29718">
        <ele>28</ele>
        <time>2021-05-23T11:05:00.983Z</time>
      </trkpt>
      <trkpt lat="47.25039" lon="-2.29718">
        <ele>28</ele>
        <time>2021-05-23T11:05:01.983Z</time>
      </trkpt>
      <trkpt lat="47.25038" lon="-2.29718">
        <ele>28</ele>
        <time>2021-05-23T11:05:02.983Z</time>
      </trkpt>
      <trkpt lat="47.25036" lon="-2.29719">
        <ele>28</ele>
        <time>2021-05-23T11:05:03.982Z</time>
      </trkpt>
      <trkpt lat="47.25035" lon="-2.29719">
        <ele>28</ele>
        <time>2021-05-23T11:05:04.982Z</time>
      </trkpt>
      <trkpt lat="47.25033" lon="-2.29719">
        <ele>28</ele>
        <time>2021-05-23T11:05:05.982Z</time>
      </trkpt>
      <trkpt lat="47.25032" lon="-2.29719">
        <ele>29</ele>
        <time>2021-05-23T11:05:06.982Z</time>
      </trkpt>
      <trkpt lat="47.2503" lon="-2.29719">
        <ele>29</ele>
        <time>2021-05-23T11:05:07.982Z</time>
      </trkpt>
      <trkpt lat="47.25029" lon="-2.2972">
        <ele>29</ele>
        <time>2021-05-23T11:05:08.983Z</time>
      </trkpt>
      <trkpt lat="47.25027" lon="-2.2972">
        <ele>30</ele>
        <time>2021-05-23T11:05:09.982Z</time>
      </trkpt>
      <trkpt lat="47.25025" lon="-2.2972">
        <ele>30</ele>
        <time>2021-05-23T11:05:10.982Z</time>
      </trkpt>
      <trkpt lat="47.25024" lon="-2.2972">
        <ele>30</ele>
        <time>2021-05-23T11:05:11.982Z</time>
      </trkpt>
      <trkpt lat="47.25022" lon="-2.29721">
        <ele>30</ele>
        <time>2021-05-23T11:05:12.983Z</time>
      </trkpt>
      <trkpt lat="47.25021" lon="-2.29721">
        <ele>30</ele>
        <time>2021-05-23T11:05:13.982Z</time>
      </trkpt>
      <trkpt lat="47.25019" lon="-2.29721">
        <ele>30</ele>
        <time>2021-05-23T11:05:14.983Z</time>
      </trkpt>
      <trkpt lat="47.25018" lon="-2.29721">
        <ele>31</ele>
        <time>2021-05-23T11:05:15.983Z</time>
      </trkpt>
      <trkpt lat="47.25016" lon="-2.29721">
        <ele>30</ele>
        <time>2021-05-23T11:05:16.982Z</time>
      </trkpt>
      <trkpt lat="47.25014" lon="-2.29722">
        <ele>30</ele>
        <time>2021-05-23T11:05:17.982Z</time>
      </trkpt>
      <trkpt lat="47.25012" lon="-2.29723">
        <ele>30</ele>
        <time>2021-05-23T11:05:18.982Z</time>
      </trkpt>
      <trkpt lat="47.2501" lon="-2.29723">
        <ele>30</ele>
        <time>2021-05-23T11:05:19.983Z</time>
      </trkpt>
      <trkpt lat="47.25009" lon="-2.29724">
        <ele>30</ele>
        <time>2021-05-23T11:05:20.983Z</time>
      </trkpt>
      <trkpt lat="47.25008" lon="-2.29725">
        <ele>31</ele>
        <time>2021-05-23T11:05:21.983Z</time>
      </trkpt>
      <trkpt lat="47.25006" lon="-2.29725">
        <ele>31</ele>
        <time>2021-05-23T11:05:22.983Z</time>
      </trkpt>
      <trkpt lat="47.25005" lon="-2.29725">
        <ele>31</ele>
        <time>2021-05-23T11:05:23.982Z</time>
      </trkpt>
      <trkpt lat="47.25003" lon="-2.29725">
        <ele>31</ele>
        <time>2021-05-23T11:05:24.982Z</time>
      </trkpt>
      <trkpt lat="47.25001" lon="-2.29725">
        <ele>31</ele>
        <time>2021-05-23T11:05:25.983Z</time>
      </trkpt>
      <trkpt lat="47.24999" lon="-2.29725">
        <ele>32</ele>
        <time>2021-05-23T11:05:26.982Z</time>
      </trkpt>
      <trkpt lat="47.24998" lon="-2.29725">
        <ele>32</ele>
        <time>2021-05-23T11:05:27.982Z</time>
      </trkpt>
      <trkpt lat="47.24996" lon="-2.29726">
        <ele>32</ele>
        <time>2021-05-23T11:05:28.982Z</time>
      </trkpt>
      <trkpt lat="47.24995" lon="-2.29726">
        <ele>33</ele>
        <time>2021-05-23T11:05:29.982Z</time>
      </trkpt>
      <trkpt lat="47.24993" lon="-2.29726">
        <ele>33</ele>
        <time>2021-05-23T11:05:30.982Z</time>
      </trkpt>
      <trkpt lat="47.24991" lon="-2.29727">
        <ele>33</ele>
        <time>2021-05-23T11:05:31.982Z</time>
      </trkpt>
      <trkpt lat="47.2499" lon="-2.29727">
        <ele>33</ele>
        <time>2021-05-23T11:05:32.982Z</time>
      </trkpt>
      <trkpt lat="47.24989" lon="-2.29727">
        <ele>34</ele>
        <time>2021-05-23T11:05:33.982Z</time>
      </trkpt>
      <trkpt lat="47.24987" lon="-2.29728">
        <ele>34</ele>
        <time>2021-05-23T11:05:34.983Z</time>
      </trkpt>
      <trkpt lat="47.24985" lon="-2.29728">
        <ele>34</ele>
        <time>2021-05-23T11:05:35.982Z</time>
      </trkpt>
      <trkpt lat="47.24984" lon="-2.29728">
        <ele>34</ele>
        <time>2021-05-23T11:05:36.983Z</time>
      </trkpt>
      <trkpt lat="47.24982" lon="-2.29729">
        <ele>34</ele>
        <time>2021-05-23T11:05:37.982Z</time>
      </trkpt>
      <trkpt lat="47.24981" lon="-2.29729">
        <ele>34</ele>
        <time>2021-05-23T11:05:38.982Z</time>
      </trkpt>
      <trkpt lat="47.2498" lon="-2.2973">
        <ele>34</ele>
        <time>2021-05-23T11:05:39.983Z</time>
      </trkpt>
      <trkpt lat="47.24978" lon="-2.29731">
        <ele>35</ele>
        <time>2021-05-23T11:05:40.983Z</time>
      </trkpt>
      <trkpt lat="47.24977" lon="-2.29731">
        <ele>35</ele>
        <time>2021-05-23T11:05:41.982Z</time>
      </trkpt>
      <trkpt lat="47.24975" lon="-2.29732">
        <ele>35</ele>
        <time>2021-05-23T11:05:42.982Z</time>
      </trkpt>
      <trkpt lat="47.24974" lon="-2.29733">
        <ele>35</ele>
        <time>2021-05-23T11:05:43.982Z</time>
      </trkpt>
      <trkpt lat="47.24972" lon="-2.29733">
        <ele>35</ele>
        <time>2021-05-23T11:05:44.982Z</time>
      </trkpt>
      <trkpt lat="47.24971" lon="-2.29734">
        <ele>35</ele>
        <time>2021-05-23T11:05:45.983Z</time>
      </trkpt>
      <trkpt lat="47.24969" lon="-2.29735">
        <ele>35</ele>
        <time>2021-05-23T11:05:46.983Z</time>
      </trkpt>
      <trkpt lat="47.24968" lon="-2.29736">
        <ele>34</ele>
        <time>2021-05-23T11:05:47.982Z</time>
      </trkpt>
      <trkpt lat="47.24966" lon="-2.29736">
        <ele>34</ele>
        <time>2021-05-23T11:05:48.982Z</time>
      </trkpt>
      <trkpt lat="47.24965" lon="-2.29737">
        <ele>34</ele>
        <time>2021-05-23T11:05:49.983Z</time>
      </trkpt>
      <trkpt lat="47.24963" lon="-2.29737">
        <ele>34</ele>
        <time>2021-05-23T11:05:50.983Z</time>
      </trkpt>
      <trkpt lat="47.24962" lon="-2.29737">
        <ele>35</ele>
        <time>2021-05-23T11:05:51.982Z</time>
      </trkpt>
      <trkpt lat="47.2496" lon="-2.29738">
        <ele>35</ele>
        <time>2021-05-23T11:05:52.982Z</time>
      </trkpt>
      <trkpt lat="47.24958" lon="-2.29738">
        <ele>35</ele>
        <time>2021-05-23T11:05:53.982Z</time>
      </trkpt>
      <trkpt lat="47.24957" lon="-2.29738">
        <ele>36</ele>
        <time>2021-05-23T11:05:54.983Z</time>
      </trkpt>
      <trkpt lat="47.24955" lon="-2.29739">
        <ele>36</ele>
        <time>2021-05-23T11:05:55.982Z</time>
      </trkpt>
      <trkpt lat="47.24953" lon="-2.2974">
        <ele>36</ele>
        <time>2021-05-23T11:05:56.982Z</time>
      </trkpt>
      <trkpt lat="47.24952" lon="-2.2974">
        <ele>36</ele>
        <time>2021-05-23T11:05:57.983Z</time>
      </trkpt>
      <trkpt lat="47.2495" lon="-2.29741">
        <ele>35</ele>
        <time>2021-05-23T11:05:58.983Z</time>
      </trkpt>
      <trkpt lat="47.24949" lon="-2.29741">
        <ele>35</ele>
        <time>2021-05-23T11:05:59.982Z</time>
      </trkpt>
      <trkpt lat="47.24947" lon="-2.29742">
        <ele>35</ele>
        <time>2021-05-23T11:06:00.983Z</time>
      </trkpt>
      <trkpt lat="47.24946" lon="-2.29742">
        <ele>35</ele>
        <time>2021-05-23T11:06:01.982Z</time>
      </trkpt>
      <trkpt lat="47.24944" lon="-2.29742">
        <ele>35</ele>
        <time>2021-05-23T11:06:02.983Z</time>
      </trkpt>
      <trkpt lat="47.24943" lon="-2.29743">
        <ele>35</ele>
        <time>2021-05-23T11:06:03.983Z</time>
      </trkpt>
      <trkpt lat="47.24941" lon="-2.29743">
        <ele>35</ele>
        <time>2021-05-23T11:06:04.983Z</time>
      </trkpt>
      <trkpt lat="47.2494" lon="-2.29744">
        <ele>35</ele>
        <time>2021-05-23T11:06:05.983Z</time>
      </trkpt>
      <trkpt lat="47.24938" lon="-2.29745">
        <ele>35</ele>
        <time>2021-05-23T11:06:06.983Z</time>
      </trkpt>
      <trkpt lat="47.24937" lon="-2.29746">
        <ele>35</ele>
        <time>2021-05-23T11:06:07.982Z</time>
      </trkpt>
      <trkpt lat="47.24936" lon="-2.29747">
        <ele>35</ele>
        <time>2021-05-23T11:06:08.982Z</time>
      </trkpt>
      <trkpt lat="47.24934" lon="-2.29747">
        <ele>35</ele>
        <time>2021-05-23T11:06:09.983Z</time>
      </trkpt>
      <trkpt lat="47.24932" lon="-2.29747">
        <ele>35</ele>
        <time>2021-05-23T11:06:10.982Z</time>
      </trkpt>
      <trkpt lat="47.2493" lon="-2.29748">
        <ele>34</ele>
        <time>2021-05-23T11:06:11.983Z</time>
      </trkpt>
      <trkpt lat="47.24928" lon="-2.29749">
        <ele>34</ele>
        <time>2021-05-23T11:06:12.982Z</time>
      </trkpt>
      <trkpt lat="47.24927" lon="-2.29749">
        <ele>34</ele>
        <time>2021-05-23T11:06:13.983Z</time>
      </trkpt>
      <trkpt lat="47.24925" lon="-2.2975">
        <ele>34</ele>
        <time>2021-05-23T11:06:14.982Z</time>
      </trkpt>
      <trkpt lat="47.24924" lon="-2.29751">
        <ele>34</ele>
        <time>2021-05-23T11:06:15.983Z</time>
      </trkpt>
      <trkpt lat="47.24922" lon="-2.29751">
        <ele>35</ele>
        <time>2021-05-23T11:06:16.982Z</time>
      </trkpt>
      <trkpt lat="47.24921" lon="-2.29752">
        <ele>35</ele>
        <time>2021-05-23T11:06:17.983Z</time>
      </trkpt>
      <trkpt lat="47.2492" lon="-2.29752">
        <ele>35</ele>
        <time>2021-05-23T11:06:18.983Z</time>
      </trkpt>
      <trkpt lat="47.24918" lon="-2.29753">
        <ele>35</ele>
        <time>2021-05-23T11:06:19.982Z</time>
      </trkpt>
      <trkpt lat="47.24917" lon="-2.29753">
        <ele>35</ele>
        <time>2021-05-23T11:06:20.983Z</time>
      </trkpt>
      <trkpt lat="47.24915" lon="-2.29753">
        <ele>35</ele>
        <time>2021-05-23T11:06:21.982Z</time>
      </trkpt>
      <trkpt lat="47.24913" lon="-2.29754">
        <ele>35</ele>
        <time>2021-05-23T11:06:22.983Z</time>
      </trkpt>
      <trkpt lat="47.24912" lon="-2.29754">
        <ele>35</ele>
        <time>2021-05-23T11:06:23.983Z</time>
      </trkpt>
      <trkpt lat="47.2491" lon="-2.29755">
        <ele>35</ele>
        <time>2021-05-23T11:06:24.983Z</time>
      </trkpt>
      <trkpt lat="47.24909" lon="-2.29756">
        <ele>35</ele>
        <time>2021-05-23T11:06:25.982Z</time>
      </trkpt>
      <trkpt lat="47.24907" lon="-2.29757">
        <ele>34</ele>
        <time>2021-05-23T11:06:26.982Z</time>
      </trkpt>
      <trkpt lat="47.24906" lon="-2.29757">
        <ele>34</ele>
        <time>2021-05-23T11:06:27.983Z</time>
      </trkpt>
      <trkpt lat="47.24904" lon="-2.29758">
        <ele>34</ele>
        <time>2021-05-23T11:06:28.983Z</time>
      </trkpt>
      <trkpt lat="47.24902" lon="-2.29759">
        <ele>33</ele>
        <time>2021-05-23T11:06:29.982Z</time>
      </trkpt>
      <trkpt lat="47.24901" lon="-2.29759">
        <ele>33</ele>
        <time>2021-05-23T11:06:30.982Z</time>
      </trkpt>
      <trkpt lat="47.24899" lon="-2.2976">
        <ele>33</ele>
        <time>2021-05-23T11:06:31.982Z</time>
      </trkpt>
      <trkpt lat="47.24898" lon="-2.29761">
        <ele>33</ele>
        <time>2021-05-23T11:06:32.982Z</time>
      </trkpt>
      <trkpt lat="47.24896" lon="-2.29762">
        <ele>33</ele>
        <time>2021-05-23T11:06:33.983Z</time>
      </trkpt>
      <trkpt lat="47.24895" lon="-2.29763">
        <ele>33</ele>
        <time>2021-05-23T11:06:34.982Z</time>
      </trkpt>
      <trkpt lat="47.24893" lon="-2.29764">
        <ele>33</ele>
        <time>2021-05-23T11:06:35.982Z</time>
      </trkpt>
      <trkpt lat="47.24892" lon="-2.29765">
        <ele>33</ele>
        <time>2021-05-23T11:06:36.982Z</time>
      </trkpt>
      <trkpt lat="47.2489" lon="-2.29766">
        <ele>33</ele>
        <time>2021-05-23T11:06:37.982Z</time>
      </trkpt>
      <trkpt lat="47.24889" lon="-2.29767">
        <ele>33</ele>
        <time>2021-05-23T11:06:38.983Z</time>
      </trkpt>
      <trkpt lat="47.24887" lon="-2.29767">
        <ele>33</ele>
        <time>2021-05-23T11:06:39.982Z</time>
      </trkpt>
      <trkpt lat="47.24885" lon="-2.29768">
        <ele>33</ele>
        <time>2021-05-23T11:06:40.982Z</time>
      </trkpt>
      <trkpt lat="47.24883" lon="-2.29769">
        <ele>32</ele>
        <time>2021-05-23T11:06:41.982Z</time>
      </trkpt>
      <trkpt lat="47.24882" lon="-2.29771">
        <ele>32</ele>
        <time>2021-05-23T11:06:42.982Z</time>
      </trkpt>
      <trkpt lat="47.2488" lon="-2.29773">
        <ele>32</ele>
        <time>2021-05-23T11:06:43.982Z</time>
      </trkpt>
      <trkpt lat="47.24879" lon="-2.29774">
        <ele>32</ele>
        <time>2021-05-23T11:06:44.983Z</time>
      </trkpt>
      <trkpt lat="47.24877" lon="-2.29776">
        <ele>32</ele>
        <time>2021-05-23T11:06:45.983Z</time>
      </trkpt>
      <trkpt lat="47.24875" lon="-2.29778">
        <ele>32</ele>
        <time>2021-05-23T11:06:46.983Z</time>
      </trkpt>
      <trkpt lat="47.24874" lon="-2.2978">
        <ele>32</ele>
        <time>2021-05-23T11:06:47.983Z</time>
      </trkpt>
      <trkpt lat="47.24873" lon="-2.29783">
        <ele>32</ele>
        <time>2021-05-23T11:06:48.983Z</time>
      </trkpt>
      <trkpt lat="47.24871" lon="-2.29786">
        <ele>32</ele>
        <time>2021-05-23T11:06:49.982Z</time>
      </trkpt>
      <trkpt lat="47.2487" lon="-2.29788">
        <ele>32</ele>
        <time>2021-05-23T11:06:50.982Z</time>
      </trkpt>
      <trkpt lat="47.24869" lon="-2.29792">
        <ele>32</ele>
        <time>2021-05-23T11:06:51.983Z</time>
      </trkpt>
      <trkpt lat="47.24868" lon="-2.29795">
        <ele>33</ele>
        <time>2021-05-23T11:06:52.983Z</time>
      </trkpt>
      <trkpt lat="47.24867" lon="-2.29799">
        <ele>33</ele>
        <time>2021-05-23T11:06:53.983Z</time>
      </trkpt>
      <trkpt lat="47.24866" lon="-2.29802">
        <ele>34</ele>
        <time>2021-05-23T11:06:54.982Z</time>
      </trkpt>
      <trkpt lat="47.24866" lon="-2.29805">
        <ele>34</ele>
        <time>2021-05-23T11:06:55.982Z</time>
      </trkpt>
      <trkpt lat="47.24865" lon="-2.29809">
        <ele>34</ele>
        <time>2021-05-23T11:06:56.982Z</time>
      </trkpt>
      <trkpt lat="47.24865" lon="-2.29812">
        <ele>34</ele>
        <time>2021-05-23T11:06:57.982Z</time>
      </trkpt>
      <trkpt lat="47.24864" lon="-2.29815">
        <ele>34</ele>
        <time>2021-05-23T11:06:58.983Z</time>
      </trkpt>
      <trkpt lat="47.24862" lon="-2.29818">
        <ele>34</ele>
        <time>2021-05-23T11:06:59.983Z</time>
      </trkpt>
      <trkpt lat="47.24861" lon="-2.29822">
        <ele>34</ele>
        <time>2021-05-23T11:07:00.982Z</time>
      </trkpt>
      <trkpt lat="47.2486" lon="-2.29825">
        <ele>33</ele>
        <time>2021-05-23T11:07:01.983Z</time>
      </trkpt>
      <trkpt lat="47.24858" lon="-2.29828">
        <ele>33</ele>
        <time>2021-05-23T11:07:02.983Z</time>
      </trkpt>
      <trkpt lat="47.24857" lon="-2.2983">
        <ele>33</ele>
        <time>2021-05-23T11:07:03.983Z</time>
      </trkpt>
      <trkpt lat="47.24855" lon="-2.29832">
        <ele>33</ele>
        <time>2021-05-23T11:07:04.983Z</time>
      </trkpt>
      <trkpt lat="47.24853" lon="-2.29835">
        <ele>33</ele>
        <time>2021-05-23T11:07:05.982Z</time>
      </trkpt>
      <trkpt lat="47.24851" lon="-2.29836">
        <ele>33</ele>
        <time>2021-05-23T11:07:06.982Z</time>
      </trkpt>
      <trkpt lat="47.24849" lon="-2.29838">
        <ele>33</ele>
        <time>2021-05-23T11:07:07.982Z</time>
      </trkpt>
      <trkpt lat="47.24847" lon="-2.29839">
        <ele>33</ele>
        <time>2021-05-23T11:07:08.982Z</time>
      </trkpt>
      <trkpt lat="47.24844" lon="-2.2984">
        <ele>33</ele>
        <time>2021-05-23T11:07:09.982Z</time>
      </trkpt>
      <trkpt lat="47.24842" lon="-2.29841">
        <ele>33</ele>
        <time>2021-05-23T11:07:10.982Z</time>
      </trkpt>
      <trkpt lat="47.2484" lon="-2.29842">
        <ele>33</ele>
        <time>2021-05-23T11:07:11.983Z</time>
      </trkpt>
      <trkpt lat="47.24838" lon="-2.29841">
        <ele>33</ele>
        <time>2021-05-23T11:07:12.983Z</time>
      </trkpt>
      <trkpt lat="47.24835" lon="-2.29841">
        <ele>33</ele>
        <time>2021-05-23T11:07:13.983Z</time>
      </trkpt>
      <trkpt lat="47.24833" lon="-2.29841">
        <ele>33</ele>
        <time>2021-05-23T11:07:14.983Z</time>
      </trkpt>
      <trkpt lat="47.24831" lon="-2.29842">
        <ele>33</ele>
        <time>2021-05-23T11:07:15.983Z</time>
      </trkpt>
      <trkpt lat="47.24828" lon="-2.29842">
        <ele>33</ele>
        <time>2021-05-23T11:07:16.983Z</time>
      </trkpt>
      <trkpt lat="47.24825" lon="-2.29842">
        <ele>33</ele>
        <time>2021-05-23T11:07:17.983Z</time>
      </trkpt>
      <trkpt lat="47.24823" lon="-2.29843">
        <ele>33</ele>
        <time>2021-05-23T11:07:18.983Z</time>
      </trkpt>
      <trkpt lat="47.24822" lon="-2.29844">
        <ele>33</ele>
        <time>2021-05-23T11:07:19.983Z</time>
      </trkpt>
      <trkpt lat="47.2482" lon="-2.29845">
        <ele>32</ele>
        <time>2021-05-23T11:07:20.983Z</time>
      </trkpt>
      <trkpt lat="47.24818" lon="-2.29845">
        <ele>32</ele>
        <time>2021-05-23T11:07:21.983Z</time>
      </trkpt>
      <trkpt lat="47.24816" lon="-2.29845">
        <ele>32</ele>
        <time>2021-05-23T11:07:22.983Z</time>
      </trkpt>
      <trkpt lat="47.24814" lon="-2.29846">
        <ele>31</ele>
        <time>2021-05-23T11:07:23.983Z</time>
      </trkpt>
      <trkpt lat="47.24812" lon="-2.29847">
        <ele>31</ele>
        <time>2021-05-23T11:07:24.983Z</time>
      </trkpt>
      <trkpt lat="47.2481" lon="-2.29848">
        <ele>31</ele>
        <time>2021-05-23T11:07:25.983Z</time>
      </trkpt>
      <trkpt lat="47.24808" lon="-2.29849">
        <ele>30</ele>
        <time>2021-05-23T11:07:26.983Z</time>
      </trkpt>
      <trkpt lat="47.24805" lon="-2.2985">
        <ele>30</ele>
        <time>2021-05-23T11:07:27.983Z</time>
      </trkpt>
      <trkpt lat="47.24803" lon="-2.29851">
        <ele>30</ele>
        <time>2021-05-23T11:07:28.983Z</time>
      </trkpt>
      <trkpt lat="47.248" lon="-2.29852">
        <ele>30</ele>
        <time>2021-05-23T11:07:29.983Z</time>
      </trkpt>
      <trkpt lat="47.24798" lon="-2.29854">
        <ele>30</ele>
        <time>2021-05-23T11:07:30.983Z</time>
      </trkpt>
      <trkpt lat="47.24796" lon="-2.29855">
        <ele>29</ele>
        <time>2021-05-23T11:07:31.983Z</time>
      </trkpt>
      <trkpt lat="47.24793" lon="-2.29857">
        <ele>29</ele>
        <time>2021-05-23T11:07:32.983Z</time>
      </trkpt>
      <trkpt lat="47.2479" lon="-2.29858">
        <ele>29</ele>
        <time>2021-05-23T11:07:33.983Z</time>
      </trkpt>
      <trkpt lat="47.24788" lon="-2.29859">
        <ele>29</ele>
        <time>2021-05-23T11:07:34.983Z</time>
      </trkpt>
      <trkpt lat="47.24786" lon="-2.29861">
        <ele>28</ele>
        <time>2021-05-23T11:07:35.983Z</time>
      </trkpt>
      <trkpt lat="47.24784" lon="-2.29863">
        <ele>28</ele>
        <time>2021-05-23T11:07:36.983Z</time>
      </trkpt>
      <trkpt lat="47.24782" lon="-2.29864">
        <ele>28</ele>
        <time>2021-05-23T11:07:37.983Z</time>
      </trkpt>
      <trkpt lat="47.2478" lon="-2.29865">
        <ele>27</ele>
        <time>2021-05-23T11:07:38.983Z</time>
      </trkpt>
      <trkpt lat="47.24777" lon="-2.29867">
        <ele>27</ele>
        <time>2021-05-23T11:07:39.983Z</time>
      </trkpt>
      <trkpt lat="47.24775" lon="-2.29869">
        <ele>27</ele>
        <time>2021-05-23T11:07:40.983Z</time>
      </trkpt>
      <trkpt lat="47.24773" lon="-2.2987">
        <ele>27</ele>
        <time>2021-05-23T11:07:41.983Z</time>
      </trkpt>
      <trkpt lat="47.24771" lon="-2.29872">
        <ele>27</ele>
        <time>2021-05-23T11:07:42.983Z</time>
      </trkpt>
      <trkpt lat="47.24769" lon="-2.29873">
        <ele>27</ele>
        <time>2021-05-23T11:07:43.983Z</time>
      </trkpt>
      <trkpt lat="47.24767" lon="-2.29874">
        <ele>27</ele>
        <time>2021-05-23T11:07:44.982Z</time>
      </trkpt>
      <trkpt lat="47.24765" lon="-2.29875">
        <ele>28</ele>
        <time>2021-05-23T11:07:45.982Z</time>
      </trkpt>
      <trkpt lat="47.24762" lon="-2.29877">
        <ele>28</ele>
        <time>2021-05-23T11:07:46.982Z</time>
      </trkpt>
      <trkpt lat="47.2476" lon="-2.29879">
        <ele>29</ele>
        <time>2021-05-23T11:07:47.982Z</time>
      </trkpt>
      <trkpt lat="47.24758" lon="-2.2988">
        <ele>29</ele>
        <time>2021-05-23T11:07:48.982Z</time>
      </trkpt>
      <trkpt lat="47.24756" lon="-2.29882">
        <ele>29</ele>
        <time>2021-05-23T11:07:49.983Z</time>
      </trkpt>
      <trkpt lat="47.24754" lon="-2.29884">
        <ele>29</ele>
        <time>2021-05-23T11:07:50.982Z</time>
      </trkpt>
      <trkpt lat="47.24752" lon="-2.29886">
        <ele>30</ele>
        <time>2021-05-23T11:07:51.983Z</time>
      </trkpt>
      <trkpt lat="47.2475" lon="-2.29888">
        <ele>30</ele>
        <time>2021-05-23T11:07:52.982Z</time>
      </trkpt>
      <trkpt lat="47.24747" lon="-2.2989">
        <ele>31</ele>
        <time>2021-05-23T11:07:53.982Z</time>
      </trkpt>
      <trkpt lat="47.24745" lon="-2.29891">
        <ele>31</ele>
        <time>2021-05-23T11:07:54.982Z</time>
      </trkpt>
      <trkpt lat="47.24743" lon="-2.29893">
        <ele>31</ele>
        <time>2021-05-23T11:07:55.982Z</time>
      </trkpt>
      <trkpt lat="47.24741" lon="-2.29894">
        <ele>31</ele>
        <time>2021-05-23T11:07:56.983Z</time>
      </trkpt>
      <trkpt lat="47.24739" lon="-2.29895">
        <ele>31</ele>
        <time>2021-05-23T11:07:57.983Z</time>
      </trkpt>
      <trkpt lat="47.24736" lon="-2.29896">
        <ele>31</ele>
        <time>2021-05-23T11:07:58.982Z</time>
      </trkpt>
      <trkpt lat="47.24734" lon="-2.29897">
        <ele>31</ele>
        <time>2021-05-23T11:07:59.983Z</time>
      </trkpt>
      <trkpt lat="47.24731" lon="-2.29898">
        <ele>31</ele>
        <time>2021-05-23T11:08:00.982Z</time>
      </trkpt>
      <trkpt lat="47.24729" lon="-2.29899">
        <ele>31</ele>
        <time>2021-05-23T11:08:01.983Z</time>
      </trkpt>
      <trkpt lat="47.24726" lon="-2.299">
        <ele>31</ele>
        <time>2021-05-23T11:08:02.983Z</time>
      </trkpt>
      <trkpt lat="47.24724" lon="-2.29901">
        <ele>31</ele>
        <time>2021-05-23T11:08:03.983Z</time>
      </trkpt>
      <trkpt lat="47.24722" lon="-2.29902">
        <ele>31</ele>
        <time>2021-05-23T11:08:04.983Z</time>
      </trkpt>
      <trkpt lat="47.24719" lon="-2.29903">
        <ele>31</ele>
        <time>2021-05-23T11:08:05.983Z</time>
      </trkpt>
      <trkpt lat="47.24717" lon="-2.29903">
        <ele>30</ele>
        <time>2021-05-23T11:08:06.983Z</time>
      </trkpt>
      <trkpt lat="47.24715" lon="-2.29904">
        <ele>30</ele>
        <time>2021-05-23T11:08:07.983Z</time>
      </trkpt>
      <trkpt lat="47.24713" lon="-2.29904">
        <ele>30</ele>
        <time>2021-05-23T11:08:08.983Z</time>
      </trkpt>
      <trkpt lat="47.24711" lon="-2.29905">
        <ele>30</ele>
        <time>2021-05-23T11:08:09.982Z</time>
      </trkpt>
      <trkpt lat="47.24708" lon="-2.29906">
        <ele>30</ele>
        <time>2021-05-23T11:08:10.983Z</time>
      </trkpt>
      <trkpt lat="47.24706" lon="-2.29907">
        <ele>30</ele>
        <time>2021-05-23T11:08:11.982Z</time>
      </trkpt>
      <trkpt lat="47.24704" lon="-2.29907">
        <ele>29</ele>
        <time>2021-05-23T11:08:12.983Z</time>
      </trkpt>
      <trkpt lat="47.24701" lon="-2.29908">
        <ele>29</ele>
        <time>2021-05-23T11:08:13.983Z</time>
      </trkpt>
      <trkpt lat="47.24698" lon="-2.29908">
        <ele>29</ele>
        <time>2021-05-23T11:08:14.983Z</time>
      </trkpt>
      <trkpt lat="47.24696" lon="-2.29909">
        <ele>29</ele>
        <time>2021-05-23T11:08:15.983Z</time>
      </trkpt>
      <trkpt lat="47.24694" lon="-2.29909">
        <ele>29</ele>
        <time>2021-05-23T11:08:16.982Z</time>
      </trkpt>
      <trkpt lat="47.24692" lon="-2.2991">
        <ele>29</ele>
        <time>2021-05-23T11:08:17.983Z</time>
      </trkpt>
      <trkpt lat="47.2469" lon="-2.29911">
        <ele>29</ele>
        <time>2021-05-23T11:08:18.982Z</time>
      </trkpt>
      <trkpt lat="47.24687" lon="-2.29912">
        <ele>29</ele>
        <time>2021-05-23T11:08:19.983Z</time>
      </trkpt>
      <trkpt lat="47.24685" lon="-2.29913">
        <ele>29</ele>
        <time>2021-05-23T11:08:20.982Z</time>
      </trkpt>
      <trkpt lat="47.24683" lon="-2.29914">
        <ele>30</ele>
        <time>2021-05-23T11:08:21.983Z</time>
      </trkpt>
      <trkpt lat="47.24681" lon="-2.29914">
        <ele>30</ele>
        <time>2021-05-23T11:08:22.983Z</time>
      </trkpt>
      <trkpt lat="47.24679" lon="-2.29915">
        <ele>31</ele>
        <time>2021-05-23T11:08:23.982Z</time>
      </trkpt>
      <trkpt lat="47.24676" lon="-2.29916">
        <ele>31</ele>
        <time>2021-05-23T11:08:24.983Z</time>
      </trkpt>
      <trkpt lat="47.24674" lon="-2.29916">
        <ele>31</ele>
        <time>2021-05-23T11:08:25.983Z</time>
      </trkpt>
      <trkpt lat="47.24672" lon="-2.29917">
        <ele>32</ele>
        <time>2021-05-23T11:08:26.983Z</time>
      </trkpt>
      <trkpt lat="47.24669" lon="-2.29917">
        <ele>32</ele>
        <time>2021-05-23T11:08:27.982Z</time>
      </trkpt>
      <trkpt lat="47.24667" lon="-2.29917">
        <ele>33</ele>
        <time>2021-05-23T11:08:28.983Z</time>
      </trkpt>
      <trkpt lat="47.24665" lon="-2.29918">
        <ele>33</ele>
        <time>2021-05-23T11:08:29.983Z</time>
      </trkpt>
      <trkpt lat="47.24662" lon="-2.29919">
        <ele>33</ele>
        <time>2021-05-23T11:08:30.983Z</time>
      </trkpt>
      <trkpt lat="47.2466" lon="-2.2992">
        <ele>33</ele>
        <time>2021-05-23T11:08:31.983Z</time>
      </trkpt>
      <trkpt lat="47.24658" lon="-2.2992">
        <ele>33</ele>
        <time>2021-05-23T11:08:32.982Z</time>
      </trkpt>
      <trkpt lat="47.24656" lon="-2.29921">
        <ele>33</ele>
        <time>2021-05-23T11:08:33.982Z</time>
      </trkpt>
      <trkpt lat="47.24654" lon="-2.29922">
        <ele>33</ele>
        <time>2021-05-23T11:08:34.982Z</time>
      </trkpt>
      <trkpt lat="47.24652" lon="-2.29923">
        <ele>33</ele>
        <time>2021-05-23T11:08:35.983Z</time>
      </trkpt>
      <trkpt lat="47.24649" lon="-2.29924">
        <ele>33</ele>
        <time>2021-05-23T11:08:36.982Z</time>
      </trkpt>
      <trkpt lat="47.24647" lon="-2.29925">
        <ele>33</ele>
        <time>2021-05-23T11:08:37.983Z</time>
      </trkpt>
      <trkpt lat="47.24645" lon="-2.29926">
        <ele>33</ele>
        <time>2021-05-23T11:08:38.983Z</time>
      </trkpt>
      <trkpt lat="47.24643" lon="-2.29926">
        <ele>33</ele>
        <time>2021-05-23T11:08:39.983Z</time>
      </trkpt>
      <trkpt lat="47.24641" lon="-2.29927">
        <ele>33</ele>
        <time>2021-05-23T11:08:40.983Z</time>
      </trkpt>
      <trkpt lat="47.24638" lon="-2.29928">
        <ele>33</ele>
        <time>2021-05-23T11:08:41.983Z</time>
      </trkpt>
      <trkpt lat="47.24636" lon="-2.29929">
        <ele>33</ele>
        <time>2021-05-23T11:08:42.983Z</time>
      </trkpt>
      <trkpt lat="47.24634" lon="-2.2993">
        <ele>32</ele>
        <time>2021-05-23T11:08:43.983Z</time>
      </trkpt>
      <trkpt lat="47.24632" lon="-2.29931">
        <ele>32</ele>
        <time>2021-05-23T11:08:44.983Z</time>
      </trkpt>
      <trkpt lat="47.24629" lon="-2.29932">
        <ele>32</ele>
        <time>2021-05-23T11:08:45.983Z</time>
      </trkpt>
      <trkpt lat="47.24627" lon="-2.29933">
        <ele>31</ele>
        <time>2021-05-23T11:08:46.983Z</time>
      </trkpt>
      <trkpt lat="47.24625" lon="-2.29934">
        <ele>31</ele>
        <time>2021-05-23T11:08:47.982Z</time>
      </trkpt>
      <trkpt lat="47.24623" lon="-2.29934">
        <ele>31</ele>
        <time>2021-05-23T11:08:48.983Z</time>
      </trkpt>
      <trkpt lat="47.24621" lon="-2.29935">
        <ele>30</ele>
        <time>2021-05-23T11:08:49.983Z</time>
      </trkpt>
      <trkpt lat="47.24619" lon="-2.29935">
        <ele>30</ele>
        <time>2021-05-23T11:08:50.983Z</time>
      </trkpt>
      <trkpt lat="47.24617" lon="-2.29936">
        <ele>30</ele>
        <time>2021-05-23T11:08:51.982Z</time>
      </trkpt>
      <trkpt lat="47.24614" lon="-2.29936">
        <ele>29</ele>
        <time>2021-05-23T11:08:52.983Z</time>
      </trkpt>
      <trkpt lat="47.24612" lon="-2.29937">
        <ele>29</ele>
        <time>2021-05-23T11:08:53.983Z</time>
      </trkpt>
      <trkpt lat="47.2461" lon="-2.29937">
        <ele>29</ele>
        <time>2021-05-23T11:08:54.982Z</time>
      </trkpt>
      <trkpt lat="47.24608" lon="-2.29937">
        <ele>29</ele>
        <time>2021-05-23T11:08:55.983Z</time>
      </trkpt>
      <trkpt lat="47.24605" lon="-2.29938">
        <ele>28</ele>
        <time>2021-05-23T11:08:56.983Z</time>
      </trkpt>
      <trkpt lat="47.24603" lon="-2.29939">
        <ele>28</ele>
        <time>2021-05-23T11:08:57.983Z</time>
      </trkpt>
      <trkpt lat="47.24601" lon="-2.2994">
        <ele>27</ele>
        <time>2021-05-23T11:08:58.983Z</time>
      </trkpt>
      <trkpt lat="47.24599" lon="-2.2994">
        <ele>27</ele>
        <time>2021-05-23T11:08:59.983Z</time>
      </trkpt>
      <trkpt lat="47.24598" lon="-2.29941">
        <ele>26</ele>
        <time>2021-05-23T11:09:00.983Z</time>
      </trkpt>
      <trkpt lat="47.24597" lon="-2.29941">
        <ele>26</ele>
        <time>2021-05-23T11:09:01.983Z</time>
      </trkpt>
      <trkpt lat="47.24596" lon="-2.29941">
        <ele>26</ele>
        <time>2021-05-23T11:09:02.983Z</time>
      </trkpt>
      <trkpt lat="47.24596" lon="-2.2994">
        <ele>25</ele>
        <time>2021-05-23T11:09:03.982Z</time>
      </trkpt>
      <trkpt lat="47.24594" lon="-2.2994">
        <ele>25</ele>
        <time>2021-05-23T11:09:04.983Z</time>
      </trkpt>
      <trkpt lat="47.24593" lon="-2.2994">
        <ele>24</ele>
        <time>2021-05-23T11:09:05.982Z</time>
      </trkpt>
      <trkpt lat="47.24592" lon="-2.2994">
        <ele>24</ele>
        <time>2021-05-23T11:09:06.983Z</time>
      </trkpt>
      <trkpt lat="47.24591" lon="-2.2994">
        <ele>23</ele>
        <time>2021-05-23T11:09:07.982Z</time>
      </trkpt>
      <trkpt lat="47.2459" lon="-2.2994">
        <ele>23</ele>
        <time>2021-05-23T11:09:08.983Z</time>
      </trkpt>
      <trkpt lat="47.24589" lon="-2.29939">
        <ele>23</ele>
        <time>2021-05-23T11:09:09.983Z</time>
      </trkpt>
      <trkpt lat="47.24588" lon="-2.29939">
        <ele>23</ele>
        <time>2021-05-23T11:09:10.982Z</time>
      </trkpt>
      <trkpt lat="47.24587" lon="-2.29938">
        <ele>22</ele>
        <time>2021-05-23T11:09:11.982Z</time>
      </trkpt>
      <trkpt lat="47.24586" lon="-2.29937">
        <ele>22</ele>
        <time>2021-05-23T11:09:12.982Z</time>
      </trkpt>
      <trkpt lat="47.24586" lon="-2.29936">
        <ele>22</ele>
        <time>2021-05-23T11:09:13.983Z</time>
      </trkpt>
      <trkpt lat="47.24585" lon="-2.29935">
        <ele>22</ele>
        <time>2021-05-23T11:09:14.983Z</time>
      </trkpt>
      <trkpt lat="47.24584" lon="-2.29934">
        <ele>22</ele>
        <time>2021-05-23T11:09:15.983Z</time>
      </trkpt>
      <trkpt lat="47.24584" lon="-2.29933">
        <ele>22</ele>
        <time>2021-05-23T11:09:16.983Z</time>
      </trkpt>
      <trkpt lat="47.24583" lon="-2.29931">
        <ele>22</ele>
        <time>2021-05-23T11:09:17.983Z</time>
      </trkpt>
      <trkpt lat="47.24582" lon="-2.2993">
        <ele>23</ele>
        <time>2021-05-23T11:09:18.982Z</time>
      </trkpt>
      <trkpt lat="47.24581" lon="-2.29929">
        <ele>24</ele>
        <time>2021-05-23T11:09:19.983Z</time>
      </trkpt>
      <trkpt lat="47.2458" lon="-2.29927">
        <ele>24</ele>
        <time>2021-05-23T11:09:20.983Z</time>
      </trkpt>
      <trkpt lat="47.24579" lon="-2.29926">
        <ele>25</ele>
        <time>2021-05-23T11:09:21.982Z</time>
      </trkpt>
      <trkpt lat="47.24578" lon="-2.29924">
        <ele>26</ele>
        <time>2021-05-23T11:09:22.983Z</time>
      </trkpt>
      <trkpt lat="47.24577" lon="-2.29923">
        <ele>26</ele>
        <time>2021-05-23T11:09:23.983Z</time>
      </trkpt>
      <trkpt lat="47.24577" lon="-2.29922">
        <ele>26</ele>
        <time>2021-05-23T11:09:24.983Z</time>
      </trkpt>
      <trkpt lat="47.24576" lon="-2.29921">
        <ele>27</ele>
        <time>2021-05-23T11:09:25.983Z</time>
      </trkpt>
      <trkpt lat="47.24575" lon="-2.29919">
        <ele>27</ele>
        <time>2021-05-23T11:09:26.983Z</time>
      </trkpt>
      <trkpt lat="47.24575" lon="-2.29917">
        <ele>27</ele>
        <time>2021-05-23T11:09:27.982Z</time>
      </trkpt>
      <trkpt lat="47.24574" lon="-2.29916">
        <ele>28</ele>
        <time>2021-05-23T11:09:28.983Z</time>
      </trkpt>
      <trkpt lat="47.24573" lon="-2.29914">
        <ele>28</ele>
        <time>2021-05-23T11:09:29.982Z</time>
      </trkpt>
      <trkpt lat="47.24572" lon="-2.29913">
        <ele>28</ele>
        <time>2021-05-23T11:09:30.982Z</time>
      </trkpt>
      <trkpt lat="47.24572" lon="-2.29912">
        <ele>28</ele>
        <time>2021-05-23T11:09:31.983Z</time>
      </trkpt>
      <trkpt lat="47.24571" lon="-2.29911">
        <ele>28</ele>
        <time>2021-05-23T11:09:32.982Z</time>
      </trkpt>
      <trkpt lat="47.2457" lon="-2.29909">
        <ele>28</ele>
        <time>2021-05-23T11:09:33.983Z</time>
      </trkpt>
      <trkpt lat="47.24569" lon="-2.29907">
        <ele>27</ele>
        <time>2021-05-23T11:09:34.983Z</time>
      </trkpt>
      <trkpt lat="47.24568" lon="-2.29906">
        <ele>27</ele>
        <time>2021-05-23T11:09:35.983Z</time>
      </trkpt>
      <trkpt lat="47.24567" lon="-2.29904">
        <ele>27</ele>
        <time>2021-05-23T11:09:36.983Z</time>
      </trkpt>
      <trkpt lat="47.24567" lon="-2.29902">
        <ele>27</ele>
        <time>2021-05-23T11:09:37.982Z</time>
      </trkpt>
      <trkpt lat="47.24566" lon="-2.299">
        <ele>28</ele>
        <time>2021-05-23T11:09:38.983Z</time>
      </trkpt>
      <trkpt lat="47.24566" lon="-2.29897">
        <ele>28</ele>
        <time>2021-05-23T11:09:39.983Z</time>
      </trkpt>
      <trkpt lat="47.24565" lon="-2.29895">
        <ele>28</ele>
        <time>2021-05-23T11:09:40.983Z</time>
      </trkpt>
      <trkpt lat="47.24564" lon="-2.29892">
        <ele>28</ele>
        <time>2021-05-23T11:09:41.983Z</time>
      </trkpt>
      <trkpt lat="47.24563" lon="-2.2989">
        <ele>28</ele>
        <time>2021-05-23T11:09:42.983Z</time>
      </trkpt>
      <trkpt lat="47.24562" lon="-2.29887">
        <ele>28</ele>
        <time>2021-05-23T11:09:43.982Z</time>
      </trkpt>
      <trkpt lat="47.24561" lon="-2.29884">
        <ele>28</ele>
        <time>2021-05-23T11:09:44.983Z</time>
      </trkpt>
      <trkpt lat="47.2456" lon="-2.29882">
        <ele>28</ele>
        <time>2021-05-23T11:09:45.983Z</time>
      </trkpt>
      <trkpt lat="47.24559" lon="-2.29879">
        <ele>28</ele>
        <time>2021-05-23T11:09:46.983Z</time>
      </trkpt>
      <trkpt lat="47.24557" lon="-2.29877">
        <ele>28</ele>
        <time>2021-05-23T11:09:47.983Z</time>
      </trkpt>
      <trkpt lat="47.24556" lon="-2.29875">
        <ele>29</ele>
        <time>2021-05-23T11:09:48.983Z</time>
      </trkpt>
      <trkpt lat="47.24554" lon="-2.29874">
        <ele>29</ele>
        <time>2021-05-23T11:09:49.983Z</time>
      </trkpt>
      <trkpt lat="47.24552" lon="-2.29872">
        <ele>29</ele>
        <time>2021-05-23T11:09:50.983Z</time>
      </trkpt>
      <trkpt lat="47.2455" lon="-2.29871">
        <ele>30</ele>
        <time>2021-05-23T11:09:51.983Z</time>
      </trkpt>
      <trkpt lat="47.24548" lon="-2.29871">
        <ele>30</ele>
        <time>2021-05-23T11:09:52.982Z</time>
      </trkpt>
      <trkpt lat="47.24546" lon="-2.2987">
        <ele>30</ele>
        <time>2021-05-23T11:09:53.983Z</time>
      </trkpt>
      <trkpt lat="47.24544" lon="-2.29869">
        <ele>30</ele>
        <time>2021-05-23T11:09:54.983Z</time>
      </trkpt>
      <trkpt lat="47.24542" lon="-2.29868">
        <ele>30</ele>
        <time>2021-05-23T11:09:55.983Z</time>
      </trkpt>
      <trkpt lat="47.2454" lon="-2.29868">
        <ele>30</ele>
        <time>2021-05-23T11:09:56.983Z</time>
      </trkpt>
      <trkpt lat="47.24537" lon="-2.29867">
        <ele>31</ele>
        <time>2021-05-23T11:09:57.983Z</time>
      </trkpt>
      <trkpt lat="47.24535" lon="-2.29867">
        <ele>31</ele>
        <time>2021-05-23T11:09:58.983Z</time>
      </trkpt>
      <trkpt lat="47.24533" lon="-2.29866">
        <ele>31</ele>
        <time>2021-05-23T11:09:59.983Z</time>
      </trkpt>
      <trkpt lat="47.24531" lon="-2.29865">
        <ele>31</ele>
        <time>2021-05-23T11:10:00.982Z</time>
      </trkpt>
      <trkpt lat="47.24529" lon="-2.29865">
        <ele>31</ele>
        <time>2021-05-23T11:10:01.983Z</time>
      </trkpt>
      <trkpt lat="47.24527" lon="-2.29864">
        <ele>31</ele>
        <time>2021-05-23T11:10:02.982Z</time>
      </trkpt>
      <trkpt lat="47.24525" lon="-2.29863">
        <ele>31</ele>
        <time>2021-05-23T11:10:03.982Z</time>
      </trkpt>
      <trkpt lat="47.24522" lon="-2.29862">
        <ele>31</ele>
        <time>2021-05-23T11:10:04.983Z</time>
      </trkpt>
      <trkpt lat="47.2452" lon="-2.29861">
        <ele>31</ele>
        <time>2021-05-23T11:10:05.983Z</time>
      </trkpt>
      <trkpt lat="47.24518" lon="-2.2986">
        <ele>31</ele>
        <time>2021-05-23T11:10:06.982Z</time>
      </trkpt>
      <trkpt lat="47.24516" lon="-2.29859">
        <ele>31</ele>
        <time>2021-05-23T11:10:07.983Z</time>
      </trkpt>
      <trkpt lat="47.24514" lon="-2.29858">
        <ele>31</ele>
        <time>2021-05-23T11:10:08.983Z</time>
      </trkpt>
      <trkpt lat="47.24511" lon="-2.29857">
        <ele>31</ele>
        <time>2021-05-23T11:10:09.983Z</time>
      </trkpt>
      <trkpt lat="47.24509" lon="-2.29855">
        <ele>31</ele>
        <time>2021-05-23T11:10:10.983Z</time>
      </trkpt>
      <trkpt lat="47.24507" lon="-2.29854">
        <ele>31</ele>
        <time>2021-05-23T11:10:11.982Z</time>
      </trkpt>
      <trkpt lat="47.24505" lon="-2.29853">
        <ele>31</ele>
        <time>2021-05-23T11:10:12.982Z</time>
      </trkpt>
      <trkpt lat="47.24503" lon="-2.29852">
        <ele>31</ele>
        <time>2021-05-23T11:10:13.983Z</time>
      </trkpt>
      <trkpt lat="47.24501" lon="-2.2985">
        <ele>31</ele>
        <time>2021-05-23T11:10:14.982Z</time>
      </trkpt>
      <trkpt lat="47.24499" lon="-2.29849">
        <ele>31</ele>
        <time>2021-05-23T11:10:15.982Z</time>
      </trkpt>
      <trkpt lat="47.24497" lon="-2.29848">
        <ele>31</ele>
        <time>2021-05-23T11:10:16.983Z</time>
      </trkpt>
      <trkpt lat="47.24494" lon="-2.29847">
        <ele>31</ele>
        <time>2021-05-23T11:10:17.983Z</time>
      </trkpt>
      <trkpt lat="47.24492" lon="-2.29846">
        <ele>31</ele>
        <time>2021-05-23T11:10:18.983Z</time>
      </trkpt>
      <trkpt lat="47.24491" lon="-2.29844">
        <ele>30</ele>
        <time>2021-05-23T11:10:19.983Z</time>
      </trkpt>
      <trkpt lat="47.24489" lon="-2.29842">
        <ele>30</ele>
        <time>2021-05-23T11:10:20.983Z</time>
      </trkpt>
      <trkpt lat="47.24487" lon="-2.2984">
        <ele>29</ele>
        <time>2021-05-23T11:10:21.983Z</time>
      </trkpt>
      <trkpt lat="47.24485" lon="-2.29838">
        <ele>29</ele>
        <time>2021-05-23T11:10:22.982Z</time>
      </trkpt>
      <trkpt lat="47.24484" lon="-2.29835">
        <ele>28</ele>
        <time>2021-05-23T11:10:23.983Z</time>
      </trkpt>
      <trkpt lat="47.24482" lon="-2.29833">
        <ele>28</ele>
        <time>2021-05-23T11:10:24.983Z</time>
      </trkpt>
      <trkpt lat="47.24481" lon="-2.2983">
        <ele>28</ele>
        <time>2021-05-23T11:10:25.983Z</time>
      </trkpt>
      <trkpt lat="47.24481" lon="-2.29827">
        <ele>28</ele>
        <time>2021-05-23T11:10:26.983Z</time>
      </trkpt>
      <trkpt lat="47.2448" lon="-2.29825">
        <ele>28</ele>
        <time>2021-05-23T11:10:27.983Z</time>
      </trkpt>
      <trkpt lat="47.24479" lon="-2.29822">
        <ele>28</ele>
        <time>2021-05-23T11:10:28.983Z</time>
      </trkpt>
      <trkpt lat="47.24478" lon="-2.2982">
        <ele>28</ele>
        <time>2021-05-23T11:10:29.982Z</time>
      </trkpt>
      <trkpt lat="47.24477" lon="-2.29818">
        <ele>28</ele>
        <time>2021-05-23T11:10:30.982Z</time>
      </trkpt>
      <trkpt lat="47.24475" lon="-2.29816">
        <ele>28</ele>
        <time>2021-05-23T11:10:31.983Z</time>
      </trkpt>
      <trkpt lat="47.24474" lon="-2.29813">
        <ele>28</ele>
        <time>2021-05-23T11:10:32.982Z</time>
      </trkpt>
      <trkpt lat="47.24472" lon="-2.2981">
        <ele>28</ele>
        <time>2021-05-23T11:10:33.983Z</time>
      </trkpt>
      <trkpt lat="47.2447" lon="-2.29807">
        <ele>28</ele>
        <time>2021-05-23T11:10:34.983Z</time>
      </trkpt>
      <trkpt lat="47.24469" lon="-2.29804">
        <ele>29</ele>
        <time>2021-05-23T11:10:35.983Z</time>
      </trkpt>
      <trkpt lat="47.24468" lon="-2.29801">
        <ele>29</ele>
        <time>2021-05-23T11:10:36.983Z</time>
      </trkpt>
      <trkpt lat="47.24467" lon="-2.29798">
        <ele>29</ele>
        <time>2021-05-23T11:10:37.982Z</time>
      </trkpt>
      <trkpt lat="47.24465" lon="-2.29795">
        <ele>29</ele>
        <time>2021-05-23T11:10:38.983Z</time>
      </trkpt>
      <trkpt lat="47.24464" lon="-2.29792">
        <ele>29</ele>
        <time>2021-05-23T11:10:39.982Z</time>
      </trkpt>
      <trkpt lat="47.24463" lon="-2.29789">
        <ele>29</ele>
        <time>2021-05-23T11:10:40.983Z</time>
      </trkpt>
      <trkpt lat="47.24462" lon="-2.29785">
        <ele>29</ele>
        <time>2021-05-23T11:10:41.983Z</time>
      </trkpt>
      <trkpt lat="47.24461" lon="-2.29783">
        <ele>29</ele>
        <time>2021-05-23T11:10:42.983Z</time>
      </trkpt>
      <trkpt lat="47.24461" lon="-2.29779">
        <ele>28</ele>
        <time>2021-05-23T11:10:43.983Z</time>
      </trkpt>
      <trkpt lat="47.2446" lon="-2.29777">
        <ele>28</ele>
        <time>2021-05-23T11:10:44.983Z</time>
      </trkpt>
      <trkpt lat="47.24459" lon="-2.29773">
        <ele>28</ele>
        <time>2021-05-23T11:10:45.983Z</time>
      </trkpt>
      <trkpt lat="47.24459" lon="-2.29769">
        <ele>28</ele>
        <time>2021-05-23T11:10:46.983Z</time>
      </trkpt>
      <trkpt lat="47.24459" lon="-2.29765">
        <ele>28</ele>
        <time>2021-05-23T11:10:47.983Z</time>
      </trkpt>
      <trkpt lat="47.24458" lon="-2.29762">
        <ele>28</ele>
        <time>2021-05-23T11:10:48.982Z</time>
      </trkpt>
      <trkpt lat="47.24458" lon="-2.29759">
        <ele>28</ele>
        <time>2021-05-23T11:10:49.983Z</time>
      </trkpt>
      <trkpt lat="47.24457" lon="-2.29756">
        <ele>27</ele>
        <time>2021-05-23T11:10:50.983Z</time>
      </trkpt>
      <trkpt lat="47.24456" lon="-2.29753">
        <ele>27</ele>
        <time>2021-05-23T11:10:51.983Z</time>
      </trkpt>
      <trkpt lat="47.24455" lon="-2.2975">
        <ele>27</ele>
        <time>2021-05-23T11:10:52.983Z</time>
      </trkpt>
      <trkpt lat="47.24453" lon="-2.29747">
        <ele>27</ele>
        <time>2021-05-23T11:10:53.983Z</time>
      </trkpt>
      <trkpt lat="47.24452" lon="-2.29744">
        <ele>27</ele>
        <time>2021-05-23T11:10:54.983Z</time>
      </trkpt>
      <trkpt lat="47.2445" lon="-2.29741">
        <ele>27</ele>
        <time>2021-05-23T11:10:55.983Z</time>
      </trkpt>
      <trkpt lat="47.24449" lon="-2.29738">
        <ele>27</ele>
        <time>2021-05-23T11:10:56.983Z</time>
      </trkpt>
      <trkpt lat="47.24447" lon="-2.29736">
        <ele>27</ele>
        <time>2021-05-23T11:10:57.983Z</time>
      </trkpt>
      <trkpt lat="47.24446" lon="-2.29734">
        <ele>27</ele>
        <time>2021-05-23T11:10:58.983Z</time>
      </trkpt>
      <trkpt lat="47.24445" lon="-2.29731">
        <ele>27</ele>
        <time>2021-05-23T11:10:59.983Z</time>
      </trkpt>
      <trkpt lat="47.24445" lon="-2.29728">
        <ele>28</ele>
        <time>2021-05-23T11:11:00.982Z</time>
      </trkpt>
      <trkpt lat="47.24445" lon="-2.29725">
        <ele>28</ele>
        <time>2021-05-23T11:11:01.983Z</time>
      </trkpt>
      <trkpt lat="47.24444" lon="-2.29721">
        <ele>28</ele>
        <time>2021-05-23T11:11:02.983Z</time>
      </trkpt>
      <trkpt lat="47.24443" lon="-2.29717">
        <ele>28</ele>
        <time>2021-05-23T11:11:03.983Z</time>
      </trkpt>
      <trkpt lat="47.24443" lon="-2.29713">
        <ele>28</ele>
        <time>2021-05-23T11:11:04.982Z</time>
      </trkpt>
      <trkpt lat="47.24442" lon="-2.2971">
        <ele>28</ele>
        <time>2021-05-23T11:11:05.983Z</time>
      </trkpt>
      <trkpt lat="47.2444" lon="-2.29707">
        <ele>29</ele>
        <time>2021-05-23T11:11:06.982Z</time>
      </trkpt>
      <trkpt lat="47.24439" lon="-2.29705">
        <ele>29</ele>
        <time>2021-05-23T11:11:07.983Z</time>
      </trkpt>
      <trkpt lat="47.24438" lon="-2.29702">
        <ele>29</ele>
        <time>2021-05-23T11:11:08.982Z</time>
      </trkpt>
      <trkpt lat="47.24436" lon="-2.297">
        <ele>29</ele>
        <time>2021-05-23T11:11:09.983Z</time>
      </trkpt>
      <trkpt lat="47.24434" lon="-2.29699">
        <ele>29</ele>
        <time>2021-05-23T11:11:10.983Z</time>
      </trkpt>
      <trkpt lat="47.24431" lon="-2.29698">
        <ele>30</ele>
        <time>2021-05-23T11:11:11.983Z</time>
      </trkpt>
      <trkpt lat="47.24428" lon="-2.29698">
        <ele>30</ele>
        <time>2021-05-23T11:11:12.983Z</time>
      </trkpt>
      <trkpt lat="47.24426" lon="-2.29698">
        <ele>30</ele>
        <time>2021-05-23T11:11:13.983Z</time>
      </trkpt>
      <trkpt lat="47.24423" lon="-2.29698">
        <ele>30</ele>
        <time>2021-05-23T11:11:14.982Z</time>
      </trkpt>
      <trkpt lat="47.2442" lon="-2.29698">
        <ele>30</ele>
        <time>2021-05-23T11:11:15.983Z</time>
      </trkpt>
      <trkpt lat="47.24417" lon="-2.29698">
        <ele>30</ele>
        <time>2021-05-23T11:11:16.983Z</time>
      </trkpt>
      <trkpt lat="47.24416" lon="-2.29697">
        <ele>30</ele>
        <time>2021-05-23T11:11:17.983Z</time>
      </trkpt>
      <trkpt lat="47.24413" lon="-2.29698">
        <ele>30</ele>
        <time>2021-05-23T11:11:18.982Z</time>
      </trkpt>
      <trkpt lat="47.24411" lon="-2.29698">
        <ele>29</ele>
        <time>2021-05-23T11:11:19.982Z</time>
      </trkpt>
      <trkpt lat="47.24408" lon="-2.29699">
        <ele>29</ele>
        <time>2021-05-23T11:11:20.982Z</time>
      </trkpt>
      <trkpt lat="47.24406" lon="-2.297">
        <ele>29</ele>
        <time>2021-05-23T11:11:21.983Z</time>
      </trkpt>
      <trkpt lat="47.24403" lon="-2.29702">
        <ele>28</ele>
        <time>2021-05-23T11:11:22.983Z</time>
      </trkpt>
      <trkpt lat="47.24401" lon="-2.29704">
        <ele>28</ele>
        <time>2021-05-23T11:11:23.983Z</time>
      </trkpt>
      <trkpt lat="47.24399" lon="-2.29705">
        <ele>28</ele>
        <time>2021-05-23T11:11:24.983Z</time>
      </trkpt>
      <trkpt lat="47.24397" lon="-2.29708">
        <ele>28</ele>
        <time>2021-05-23T11:11:25.983Z</time>
      </trkpt>
      <trkpt lat="47.24395" lon="-2.2971">
        <ele>27</ele>
        <time>2021-05-23T11:11:26.983Z</time>
      </trkpt>
      <trkpt lat="47.24393" lon="-2.29713">
        <ele>27</ele>
        <time>2021-05-23T11:11:27.983Z</time>
      </trkpt>
      <trkpt lat="47.24392" lon="-2.29716">
        <ele>27</ele>
        <time>2021-05-23T11:11:28.983Z</time>
      </trkpt>
      <trkpt lat="47.2439" lon="-2.29719">
        <ele>28</ele>
        <time>2021-05-23T11:11:29.983Z</time>
      </trkpt>
      <trkpt lat="47.24389" lon="-2.29723">
        <ele>28</ele>
        <time>2021-05-23T11:11:30.982Z</time>
      </trkpt>
      <trkpt lat="47.24387" lon="-2.29726">
        <ele>28</ele>
        <time>2021-05-23T11:11:31.983Z</time>
      </trkpt>
      <trkpt lat="47.24386" lon="-2.29729">
        <ele>28</ele>
        <time>2021-05-23T11:11:32.983Z</time>
      </trkpt>
      <trkpt lat="47.24385" lon="-2.29732">
        <ele>28</ele>
        <time>2021-05-23T11:11:33.983Z</time>
      </trkpt>
      <trkpt lat="47.24384" lon="-2.29736">
        <ele>28</ele>
        <time>2021-05-23T11:11:34.983Z</time>
      </trkpt>
      <trkpt lat="47.24382" lon="-2.29739">
        <ele>28</ele>
        <time>2021-05-23T11:11:35.983Z</time>
      </trkpt>
      <trkpt lat="47.24381" lon="-2.29742">
        <ele>28</ele>
        <time>2021-05-23T11:11:36.982Z</time>
      </trkpt>
      <trkpt lat="47.2438" lon="-2.29745">
        <ele>28</ele>
        <time>2021-05-23T11:11:37.983Z</time>
      </trkpt>
      <trkpt lat="47.24379" lon="-2.29749">
        <ele>28</ele>
        <time>2021-05-23T11:11:38.983Z</time>
      </trkpt>
      <trkpt lat="47.24378" lon="-2.29752">
        <ele>27</ele>
        <time>2021-05-23T11:11:39.982Z</time>
      </trkpt>
      <trkpt lat="47.24377" lon="-2.29755">
        <ele>27</ele>
        <time>2021-05-23T11:11:40.983Z</time>
      </trkpt>
      <trkpt lat="47.24375" lon="-2.29758">
        <ele>27</ele>
        <time>2021-05-23T11:11:41.983Z</time>
      </trkpt>
      <trkpt lat="47.24374" lon="-2.29761">
        <ele>26</ele>
        <time>2021-05-23T11:11:42.983Z</time>
      </trkpt>
      <trkpt lat="47.24373" lon="-2.29764">
        <ele>26</ele>
        <time>2021-05-23T11:11:43.983Z</time>
      </trkpt>
      <trkpt lat="47.24372" lon="-2.29767">
        <ele>26</ele>
        <time>2021-05-23T11:11:44.983Z</time>
      </trkpt>
      <trkpt lat="47.24371" lon="-2.2977">
        <ele>26</ele>
        <time>2021-05-23T11:11:45.983Z</time>
      </trkpt>
      <trkpt lat="47.2437" lon="-2.29773">
        <ele>26</ele>
        <time>2021-05-23T11:11:46.983Z</time>
      </trkpt>
      <trkpt lat="47.24368" lon="-2.29777">
        <ele>26</ele>
        <time>2021-05-23T11:11:47.982Z</time>
      </trkpt>
      <trkpt lat="47.24367" lon="-2.2978">
        <ele>26</ele>
        <time>2021-05-23T11:11:48.982Z</time>
      </trkpt>
      <trkpt lat="47.24366" lon="-2.29783">
        <ele>25</ele>
        <time>2021-05-23T11:11:49.983Z</time>
      </trkpt>
      <trkpt lat="47.24364" lon="-2.29786">
        <ele>25</ele>
        <time>2021-05-23T11:11:50.983Z</time>
      </trkpt>
      <trkpt lat="47.24363" lon="-2.29788">
        <ele>25</ele>
        <time>2021-05-23T11:11:51.983Z</time>
      </trkpt>
      <trkpt lat="47.24362" lon="-2.29791">
        <ele>25</ele>
        <time>2021-05-23T11:11:52.983Z</time>
      </trkpt>
      <trkpt lat="47.2436" lon="-2.29793">
        <ele>25</ele>
        <time>2021-05-23T11:11:53.982Z</time>
      </trkpt>
      <trkpt lat="47.24359" lon="-2.29795">
        <ele>25</ele>
        <time>2021-05-23T11:11:54.983Z</time>
      </trkpt>
      <trkpt lat="47.24357" lon="-2.29798">
        <ele>25</ele>
        <time>2021-05-23T11:11:55.982Z</time>
      </trkpt>
      <trkpt lat="47.24355" lon="-2.298">
        <ele>26</ele>
        <time>2021-05-23T11:11:56.983Z</time>
      </trkpt>
      <trkpt lat="47.24354" lon="-2.29802">
        <ele>26</ele>
        <time>2021-05-23T11:11:57.982Z</time>
      </trkpt>
      <trkpt lat="47.24352" lon="-2.29803">
        <ele>26</ele>
        <time>2021-05-23T11:11:58.982Z</time>
      </trkpt>
      <trkpt lat="47.2435" lon="-2.29804">
        <ele>26</ele>
        <time>2021-05-23T11:11:59.983Z</time>
      </trkpt>
      <trkpt lat="47.24348" lon="-2.29805">
        <ele>26</ele>
        <time>2021-05-23T11:12:00.982Z</time>
      </trkpt>
      <trkpt lat="47.24346" lon="-2.29806">
        <ele>26</ele>
        <time>2021-05-23T11:12:01.982Z</time>
      </trkpt>
      <trkpt lat="47.24344" lon="-2.29807">
        <ele>27</ele>
        <time>2021-05-23T11:12:02.983Z</time>
      </trkpt>
      <trkpt lat="47.24342" lon="-2.29808">
        <ele>27</ele>
        <time>2021-05-23T11:12:03.983Z</time>
      </trkpt>
      <trkpt lat="47.24339" lon="-2.29809">
        <ele>28</ele>
        <time>2021-05-23T11:12:04.983Z</time>
      </trkpt>
      <trkpt lat="47.24337" lon="-2.2981">
        <ele>28</ele>
        <time>2021-05-23T11:12:05.983Z</time>
      </trkpt>
      <trkpt lat="47.24335" lon="-2.29811">
        <ele>28</ele>
        <time>2021-05-23T11:12:06.983Z</time>
      </trkpt>
      <trkpt lat="47.24332" lon="-2.29812">
        <ele>28</ele>
        <time>2021-05-23T11:12:07.983Z</time>
      </trkpt>
      <trkpt lat="47.2433" lon="-2.29814">
        <ele>27</ele>
        <time>2021-05-23T11:12:08.983Z</time>
      </trkpt>
      <trkpt lat="47.24328" lon="-2.29815">
        <ele>27</ele>
        <time>2021-05-23T11:12:09.982Z</time>
      </trkpt>
      <trkpt lat="47.24326" lon="-2.29817">
        <ele>26</ele>
        <time>2021-05-23T11:12:10.983Z</time>
      </trkpt>
      <trkpt lat="47.24323" lon="-2.29819">
        <ele>26</ele>
        <time>2021-05-23T11:12:11.983Z</time>
      </trkpt>
      <trkpt lat="47.24322" lon="-2.29822">
        <ele>26</ele>
        <time>2021-05-23T11:12:12.983Z</time>
      </trkpt>
      <trkpt lat="47.2432" lon="-2.29825">
        <ele>26</ele>
        <time>2021-05-23T11:12:13.982Z</time>
      </trkpt>
      <trkpt lat="47.24319" lon="-2.29829">
        <ele>26</ele>
        <time>2021-05-23T11:12:14.982Z</time>
      </trkpt>
      <trkpt lat="47.24319" lon="-2.29832">
        <ele>26</ele>
        <time>2021-05-23T11:12:15.983Z</time>
      </trkpt>
      <trkpt lat="47.24319" lon="-2.29836">
        <ele>27</ele>
        <time>2021-05-23T11:12:16.982Z</time>
      </trkpt>
      <trkpt lat="47.24319" lon="-2.29839">
        <ele>27</ele>
        <time>2021-05-23T11:12:17.983Z</time>
      </trkpt>
      <trkpt lat="47.24319" lon="-2.29843">
        <ele>27</ele>
        <time>2021-05-23T11:12:18.982Z</time>
      </trkpt>
      <trkpt lat="47.24319" lon="-2.29847">
        <ele>27</ele>
        <time>2021-05-23T11:12:19.983Z</time>
      </trkpt>
      <trkpt lat="47.2432" lon="-2.2985">
        <ele>26</ele>
        <time>2021-05-23T11:12:20.982Z</time>
      </trkpt>
      <trkpt lat="47.2432" lon="-2.29854">
        <ele>27</ele>
        <time>2021-05-23T11:12:21.983Z</time>
      </trkpt>
      <trkpt lat="47.2432" lon="-2.29858">
        <ele>27</ele>
        <time>2021-05-23T11:12:22.983Z</time>
      </trkpt>
      <trkpt lat="47.24321" lon="-2.29862">
        <ele>27</ele>
        <time>2021-05-23T11:12:23.983Z</time>
      </trkpt>
      <trkpt lat="47.24321" lon="-2.29865">
        <ele>27</ele>
        <time>2021-05-23T11:12:24.983Z</time>
      </trkpt>
      <trkpt lat="47.24321" lon="-2.29868">
        <ele>27</ele>
        <time>2021-05-23T11:12:25.983Z</time>
      </trkpt>
      <trkpt lat="47.24321" lon="-2.29872">
        <ele>27</ele>
        <time>2021-05-23T11:12:26.982Z</time>
      </trkpt>
      <trkpt lat="47.2432" lon="-2.29875">
        <ele>27</ele>
        <time>2021-05-23T11:12:27.983Z</time>
      </trkpt>
      <trkpt lat="47.24319" lon="-2.29878">
        <ele>27</ele>
        <time>2021-05-23T11:12:28.983Z</time>
      </trkpt>
      <trkpt lat="47.24318" lon="-2.2988">
        <ele>27</ele>
        <time>2021-05-23T11:12:29.982Z</time>
      </trkpt>
      <trkpt lat="47.24316" lon="-2.29883">
        <ele>27</ele>
        <time>2021-05-23T11:12:30.983Z</time>
      </trkpt>
      <trkpt lat="47.24314" lon="-2.29885">
        <ele>28</ele>
        <time>2021-05-23T11:12:31.983Z</time>
      </trkpt>
      <trkpt lat="47.24312" lon="-2.29888">
        <ele>28</ele>
        <time>2021-05-23T11:12:32.983Z</time>
      </trkpt>
      <trkpt lat="47.2431" lon="-2.29889">
        <ele>28</ele>
        <time>2021-05-23T11:12:33.983Z</time>
      </trkpt>
      <trkpt lat="47.24308" lon="-2.29892">
        <ele>28</ele>
        <time>2021-05-23T11:12:34.983Z</time>
      </trkpt>
      <trkpt lat="47.24306" lon="-2.29893">
        <ele>28</ele>
        <time>2021-05-23T11:12:35.982Z</time>
      </trkpt>
      <trkpt lat="47.24304" lon="-2.29894">
        <ele>28</ele>
        <time>2021-05-23T11:12:36.982Z</time>
      </trkpt>
      <trkpt lat="47.24302" lon="-2.29896">
        <ele>29</ele>
        <time>2021-05-23T11:12:37.982Z</time>
      </trkpt>
      <trkpt lat="47.243" lon="-2.29897">
        <ele>29</ele>
        <time>2021-05-23T11:12:38.983Z</time>
      </trkpt>
      <trkpt lat="47.24298" lon="-2.29897">
        <ele>29</ele>
        <time>2021-05-23T11:12:39.983Z</time>
      </trkpt>
      <trkpt lat="47.24296" lon="-2.29898">
        <ele>29</ele>
        <time>2021-05-23T11:12:40.983Z</time>
      </trkpt>
      <trkpt lat="47.24294" lon="-2.29899">
        <ele>29</ele>
        <time>2021-05-23T11:12:41.983Z</time>
      </trkpt>
      <trkpt lat="47.24292" lon="-2.299">
        <ele>30</ele>
        <time>2021-05-23T11:12:42.982Z</time>
      </trkpt>
      <trkpt lat="47.24289" lon="-2.29901">
        <ele>30</ele>
        <time>2021-05-23T11:12:43.983Z</time>
      </trkpt>
      <trkpt lat="47.24287" lon="-2.29903">
        <ele>29</ele>
        <time>2021-05-23T11:12:44.982Z</time>
      </trkpt>
      <trkpt lat="47.24285" lon="-2.29905">
        <ele>29</ele>
        <time>2021-05-23T11:12:45.983Z</time>
      </trkpt>
      <trkpt lat="47.24283" lon="-2.29906">
        <ele>29</ele>
        <time>2021-05-23T11:12:46.983Z</time>
      </trkpt>
      <trkpt lat="47.24281" lon="-2.29909">
        <ele>29</ele>
        <time>2021-05-23T11:12:47.983Z</time>
      </trkpt>
      <trkpt lat="47.24279" lon="-2.29911">
        <ele>28</ele>
        <time>2021-05-23T11:12:48.982Z</time>
      </trkpt>
      <trkpt lat="47.24276" lon="-2.29913">
        <ele>28</ele>
        <time>2021-05-23T11:12:49.983Z</time>
      </trkpt>
      <trkpt lat="47.24274" lon="-2.29914">
        <ele>28</ele>
        <time>2021-05-23T11:12:50.982Z</time>
      </trkpt>
      <trkpt lat="47.24272" lon="-2.29915">
        <ele>27</ele>
        <time>2021-05-23T11:12:51.982Z</time>
      </trkpt>
      <trkpt lat="47.24269" lon="-2.29917">
        <ele>27</ele>
        <time>2021-05-23T11:12:52.983Z</time>
      </trkpt>
      <trkpt lat="47.24266" lon="-2.29919">
        <ele>27</ele>
        <time>2021-05-23T11:12:53.983Z</time>
      </trkpt>
      <trkpt lat="47.24265" lon="-2.2992">
        <ele>27</ele>
        <time>2021-05-23T11:12:54.983Z</time>
      </trkpt>
      <trkpt lat="47.24263" lon="-2.29922">
        <ele>26</ele>
        <time>2021-05-23T11:12:55.983Z</time>
      </trkpt>
      <trkpt lat="47.24261" lon="-2.29925">
        <ele>26</ele>
        <time>2021-05-23T11:12:56.983Z</time>
      </trkpt>
      <trkpt lat="47.2426" lon="-2.29927">
        <ele>26</ele>
        <time>2021-05-23T11:12:57.982Z</time>
      </trkpt>
      <trkpt lat="47.24258" lon="-2.29931">
        <ele>26</ele>
        <time>2021-05-23T11:12:58.982Z</time>
      </trkpt>
      <trkpt lat="47.24256" lon="-2.29934">
        <ele>26</ele>
        <time>2021-05-23T11:12:59.983Z</time>
      </trkpt>
      <trkpt lat="47.24254" lon="-2.29937">
        <ele>27</ele>
        <time>2021-05-23T11:13:00.982Z</time>
      </trkpt>
      <trkpt lat="47.24252" lon="-2.29939">
        <ele>27</ele>
        <time>2021-05-23T11:13:01.983Z</time>
      </trkpt>
      <trkpt lat="47.24251" lon="-2.29941">
        <ele>27</ele>
        <time>2021-05-23T11:13:02.982Z</time>
      </trkpt>
      <trkpt lat="47.24249" lon="-2.29942">
        <ele>27</ele>
        <time>2021-05-23T11:13:03.983Z</time>
      </trkpt>
      <trkpt lat="47.24248" lon="-2.29943">
        <ele>27</ele>
        <time>2021-05-23T11:13:04.982Z</time>
      </trkpt>
      <trkpt lat="47.24248" lon="-2.29945">
        <ele>27</ele>
        <time>2021-05-23T11:13:05.982Z</time>
      </trkpt>
      <trkpt lat="47.24247" lon="-2.29946">
        <ele>27</ele>
        <time>2021-05-23T11:13:06.982Z</time>
      </trkpt>
      <trkpt lat="47.24246" lon="-2.29946">
        <ele>27</ele>
        <time>2021-05-23T11:13:07.983Z</time>
      </trkpt>
      <trkpt lat="47.24245" lon="-2.29946">
        <ele>27</ele>
        <time>2021-05-23T11:13:08.983Z</time>
      </trkpt>
      <trkpt lat="47.24244" lon="-2.29947">
        <ele>27</ele>
        <time>2021-05-23T11:13:09.982Z</time>
      </trkpt>
      <trkpt lat="47.24242" lon="-2.29947">
        <ele>27</ele>
        <time>2021-05-23T11:13:10.983Z</time>
      </trkpt>
      <trkpt lat="47.24241" lon="-2.29948">
        <ele>27</ele>
        <time>2021-05-23T11:13:11.982Z</time>
      </trkpt>
      <trkpt lat="47.2424" lon="-2.29949">
        <ele>27</ele>
        <time>2021-05-23T11:13:12.982Z</time>
      </trkpt>
      <trkpt lat="47.24239" lon="-2.29949">
        <ele>27</ele>
        <time>2021-05-23T11:13:13.983Z</time>
      </trkpt>
      <trkpt lat="47.24237" lon="-2.29949">
        <ele>28</ele>
        <time>2021-05-23T11:13:14.982Z</time>
      </trkpt>
      <trkpt lat="47.24236" lon="-2.2995">
        <ele>28</ele>
        <time>2021-05-23T11:13:15.982Z</time>
      </trkpt>
      <trkpt lat="47.24235" lon="-2.29949">
        <ele>28</ele>
        <time>2021-05-23T11:13:16.983Z</time>
      </trkpt>
      <trkpt lat="47.24235" lon="-2.29949">
        <ele>28</ele>
        <time>2021-05-23T11:13:17.983Z</time>
      </trkpt>
      <trkpt lat="47.24234" lon="-2.29949">
        <ele>28</ele>
        <time>2021-05-23T11:13:18.982Z</time>
      </trkpt>
      <trkpt lat="47.24233" lon="-2.2995">
        <ele>28</ele>
        <time>2021-05-23T11:13:19.982Z</time>
      </trkpt>
      <trkpt lat="47.24231" lon="-2.29951">
        <ele>28</ele>
        <time>2021-05-23T11:13:20.982Z</time>
      </trkpt>
      <trkpt lat="47.2423" lon="-2.29953">
        <ele>28</ele>
        <time>2021-05-23T11:13:21.982Z</time>
      </trkpt>
      <trkpt lat="47.24229" lon="-2.29953">
        <ele>28</ele>
        <time>2021-05-23T11:13:22.983Z</time>
      </trkpt>
      <trkpt lat="47.24228" lon="-2.29953">
        <ele>28</ele>
        <time>2021-05-23T11:13:23.983Z</time>
      </trkpt>
      <trkpt lat="47.24227" lon="-2.29953">
        <ele>29</ele>
        <time>2021-05-23T11:13:24.982Z</time>
      </trkpt>
      <trkpt lat="47.24226" lon="-2.29954">
        <ele>29</ele>
        <time>2021-05-23T11:13:25.983Z</time>
      </trkpt>
      <trkpt lat="47.24225" lon="-2.29954">
        <ele>29</ele>
        <time>2021-05-23T11:13:26.983Z</time>
      </trkpt>
      <trkpt lat="47.24224" lon="-2.29955">
        <ele>29</ele>
        <time>2021-05-23T11:13:27.983Z</time>
      </trkpt>
      <trkpt lat="47.24222" lon="-2.29956">
        <ele>29</ele>
        <time>2021-05-23T11:13:28.982Z</time>
      </trkpt>
      <trkpt lat="47.24221" lon="-2.29957">
        <ele>29</ele>
        <time>2021-05-23T11:13:29.983Z</time>
      </trkpt>
      <trkpt lat="47.24219" lon="-2.29957">
        <ele>30</ele>
        <time>2021-05-23T11:13:30.983Z</time>
      </trkpt>
      <trkpt lat="47.24217" lon="-2.29958">
        <ele>30</ele>
        <time>2021-05-23T11:13:31.982Z</time>
      </trkpt>
      <trkpt lat="47.24216" lon="-2.29959">
        <ele>30</ele>
        <time>2021-05-23T11:13:32.983Z</time>
      </trkpt>
      <trkpt lat="47.24214" lon="-2.2996">
        <ele>30</ele>
        <time>2021-05-23T11:13:33.982Z</time>
      </trkpt>
      <trkpt lat="47.24212" lon="-2.29961">
        <ele>29</ele>
        <time>2021-05-23T11:13:34.983Z</time>
      </trkpt>
      <trkpt lat="47.2421" lon="-2.29961">
        <ele>30</ele>
        <time>2021-05-23T11:13:35.983Z</time>
      </trkpt>
      <trkpt lat="47.24209" lon="-2.29962">
        <ele>30</ele>
        <time>2021-05-23T11:13:36.982Z</time>
      </trkpt>
      <trkpt lat="47.24209" lon="-2.29963">
        <ele>30</ele>
        <time>2021-05-23T11:13:37.983Z</time>
      </trkpt>
      <trkpt lat="47.24207" lon="-2.29963">
        <ele>31</ele>
        <time>2021-05-23T11:13:38.983Z</time>
      </trkpt>
      <trkpt lat="47.24206" lon="-2.29964">
        <ele>31</ele>
        <time>2021-05-23T11:13:39.983Z</time>
      </trkpt>
      <trkpt lat="47.24205" lon="-2.29965">
        <ele>31</ele>
        <time>2021-05-23T11:13:40.982Z</time>
      </trkpt>
      <trkpt lat="47.24203" lon="-2.29965">
        <ele>31</ele>
        <time>2021-05-23T11:13:41.983Z</time>
      </trkpt>
      <trkpt lat="47.24202" lon="-2.29966">
        <ele>31</ele>
        <time>2021-05-23T11:13:42.983Z</time>
      </trkpt>
      <trkpt lat="47.24201" lon="-2.29967">
        <ele>31</ele>
        <time>2021-05-23T11:13:43.982Z</time>
      </trkpt>
      <trkpt lat="47.242" lon="-2.29967">
        <ele>31</ele>
        <time>2021-05-23T11:13:44.983Z</time>
      </trkpt>
      <trkpt lat="47.24199" lon="-2.29968">
        <ele>32</ele>
        <time>2021-05-23T11:13:45.983Z</time>
      </trkpt>
      <trkpt lat="47.24197" lon="-2.29968">
        <ele>32</ele>
        <time>2021-05-23T11:13:46.983Z</time>
      </trkpt>
      <trkpt lat="47.24196" lon="-2.29969">
        <ele>32</ele>
        <time>2021-05-23T11:13:47.983Z</time>
      </trkpt>
      <trkpt lat="47.24195" lon="-2.29969">
        <ele>32</ele>
        <time>2021-05-23T11:13:48.983Z</time>
      </trkpt>
      <trkpt lat="47.24194" lon="-2.2997">
        <ele>32</ele>
        <time>2021-05-23T11:13:49.983Z</time>
      </trkpt>
      <trkpt lat="47.24193" lon="-2.29971">
        <ele>32</ele>
        <time>2021-05-23T11:13:50.983Z</time>
      </trkpt>
      <trkpt lat="47.24192" lon="-2.29971">
        <ele>32</ele>
        <time>2021-05-23T11:13:51.983Z</time>
      </trkpt>
      <trkpt lat="47.24191" lon="-2.29971">
        <ele>32</ele>
        <time>2021-05-23T11:13:52.983Z</time>
      </trkpt>
      <trkpt lat="47.2419" lon="-2.29971">
        <ele>31</ele>
        <time>2021-05-23T11:13:53.983Z</time>
      </trkpt>
      <trkpt lat="47.24189" lon="-2.29972">
        <ele>31</ele>
        <time>2021-05-23T11:13:54.983Z</time>
      </trkpt>
      <trkpt lat="47.24188" lon="-2.29972">
        <ele>31</ele>
        <time>2021-05-23T11:13:55.982Z</time>
      </trkpt>
      <trkpt lat="47.24186" lon="-2.29972">
        <ele>31</ele>
        <time>2021-05-23T11:13:56.983Z</time>
      </trkpt>
      <trkpt lat="47.24185" lon="-2.29972">
        <ele>31</ele>
        <time>2021-05-23T11:13:57.983Z</time>
      </trkpt>
      <trkpt lat="47.24182" lon="-2.29972">
        <ele>31</ele>
        <time>2021-05-23T11:13:58.983Z</time>
      </trkpt>
      <trkpt lat="47.2418" lon="-2.29971">
        <ele>32</ele>
        <time>2021-05-23T11:13:59.983Z</time>
      </trkpt>
      <trkpt lat="47.24178" lon="-2.29972">
        <ele>32</ele>
        <time>2021-05-23T11:14:00.983Z</time>
      </trkpt>
      <trkpt lat="47.24175" lon="-2.29973">
        <ele>32</ele>
        <time>2021-05-23T11:14:01.982Z</time>
      </trkpt>
      <trkpt lat="47.24173" lon="-2.29973">
        <ele>33</ele>
        <time>2021-05-23T11:14:02.982Z</time>
      </trkpt>
      <trkpt lat="47.24172" lon="-2.29974">
        <ele>33</ele>
        <time>2021-05-23T11:14:03.983Z</time>
      </trkpt>
      <trkpt lat="47.2417" lon="-2.29975">
        <ele>33</ele>
        <time>2021-05-23T11:14:04.982Z</time>
      </trkpt>
      <trkpt lat="47.24168" lon="-2.29976">
        <ele>33</ele>
        <time>2021-05-23T11:14:05.983Z</time>
      </trkpt>
      <trkpt lat="47.24166" lon="-2.29976">
        <ele>33</ele>
        <time>2021-05-23T11:14:06.982Z</time>
      </trkpt>
      <trkpt lat="47.24165" lon="-2.29975">
        <ele>33</ele>
        <time>2021-05-23T11:14:07.983Z</time>
      </trkpt>
      <trkpt lat="47.24163" lon="-2.29975">
        <ele>33</ele>
        <time>2021-05-23T11:14:08.982Z</time>
      </trkpt>
      <trkpt lat="47.24162" lon="-2.29975">
        <ele>33</ele>
        <time>2021-05-23T11:14:09.982Z</time>
      </trkpt>
      <trkpt lat="47.24161" lon="-2.29974">
        <ele>33</ele>
        <time>2021-05-23T11:14:10.983Z</time>
      </trkpt>
      <trkpt lat="47.2416" lon="-2.29973">
        <ele>34</ele>
        <time>2021-05-23T11:14:11.982Z</time>
      </trkpt>
      <trkpt lat="47.2416" lon="-2.29971">
        <ele>34</ele>
        <time>2021-05-23T11:14:12.983Z</time>
      </trkpt>
      <trkpt lat="47.24159" lon="-2.29969">
        <ele>34</ele>
        <time>2021-05-23T11:14:13.982Z</time>
      </trkpt>
      <trkpt lat="47.24159" lon="-2.29967">
        <ele>34</ele>
        <time>2021-05-23T11:14:14.983Z</time>
      </trkpt>
      <trkpt lat="47.24159" lon="-2.29966">
        <ele>34</ele>
        <time>2021-05-23T11:14:15.982Z</time>
      </trkpt>
      <trkpt lat="47.24159" lon="-2.29965">
        <ele>34</ele>
        <time>2021-05-23T11:14:16.983Z</time>
      </trkpt>
      <trkpt lat="47.24159" lon="-2.29962">
        <ele>34</ele>
        <time>2021-05-23T11:14:17.983Z</time>
      </trkpt>
      <trkpt lat="47.24159" lon="-2.2996">
        <ele>34</ele>
        <time>2021-05-23T11:14:18.983Z</time>
      </trkpt>
      <trkpt lat="47.24161" lon="-2.29958">
        <ele>34</ele>
        <time>2021-05-23T11:14:19.982Z</time>
      </trkpt>
      <trkpt lat="47.24162" lon="-2.29956">
        <ele>34</ele>
        <time>2021-05-23T11:14:20.983Z</time>
      </trkpt>
      <trkpt lat="47.24162" lon="-2.29954">
        <ele>34</ele>
        <time>2021-05-23T11:14:21.982Z</time>
      </trkpt>
      <trkpt lat="47.24163" lon="-2.29952">
        <ele>34</ele>
        <time>2021-05-23T11:14:22.983Z</time>
      </trkpt>
      <trkpt lat="47.24163" lon="-2.2995">
        <ele>34</ele>
        <time>2021-05-23T11:14:23.983Z</time>
      </trkpt>
      <trkpt lat="47.24164" lon="-2.29949">
        <ele>34</ele>
        <time>2021-05-23T11:14:24.983Z</time>
      </trkpt>
      <trkpt lat="47.24164" lon="-2.29948">
        <ele>34</ele>
        <time>2021-05-23T11:14:25.983Z</time>
      </trkpt>
      <trkpt lat="47.24165" lon="-2.29945">
        <ele>34</ele>
        <time>2021-05-23T11:14:26.983Z</time>
      </trkpt>
      <trkpt lat="47.24166" lon="-2.29941">
        <ele>34</ele>
        <time>2021-05-23T11:14:27.983Z</time>
      </trkpt>
      <trkpt lat="47.24166" lon="-2.29937">
        <ele>35</ele>
        <time>2021-05-23T11:14:28.983Z</time>
      </trkpt>
      <trkpt lat="47.24167" lon="-2.29934">
        <ele>35</ele>
        <time>2021-05-23T11:14:29.982Z</time>
      </trkpt>
      <trkpt lat="47.24167" lon="-2.29931">
        <ele>35</ele>
        <time>2021-05-23T11:14:30.983Z</time>
      </trkpt>
      <trkpt lat="47.24166" lon="-2.29927">
        <ele>35</ele>
        <time>2021-05-23T11:14:31.983Z</time>
      </trkpt>
      <trkpt lat="47.24166" lon="-2.29924">
        <ele>35</ele>
        <time>2021-05-23T11:14:32.983Z</time>
      </trkpt>
      <trkpt lat="47.24165" lon="-2.29922">
        <ele>36</ele>
        <time>2021-05-23T11:14:33.983Z</time>
      </trkpt>
      <trkpt lat="47.24164" lon="-2.29919">
        <ele>36</ele>
        <time>2021-05-23T11:14:34.983Z</time>
      </trkpt>
      <trkpt lat="47.24163" lon="-2.29916">
        <ele>36</ele>
        <time>2021-05-23T11:14:35.982Z</time>
      </trkpt>
      <trkpt lat="47.24162" lon="-2.29913">
        <ele>36</ele>
        <time>2021-05-23T11:14:36.982Z</time>
      </trkpt>
      <trkpt lat="47.24161" lon="-2.29909">
        <ele>36</ele>
        <time>2021-05-23T11:14:37.983Z</time>
      </trkpt>
      <trkpt lat="47.24161" lon="-2.29906">
        <ele>37</ele>
        <time>2021-05-23T11:14:38.983Z</time>
      </trkpt>
      <trkpt lat="47.24161" lon="-2.29903">
        <ele>37</ele>
        <time>2021-05-23T11:14:39.983Z</time>
      </trkpt>
      <trkpt lat="47.24161" lon="-2.29899">
        <ele>37</ele>
        <time>2021-05-23T11:14:40.982Z</time>
      </trkpt>
      <trkpt lat="47.24161" lon="-2.29896">
        <ele>38</ele>
        <time>2021-05-23T11:14:41.983Z</time>
      </trkpt>
      <trkpt lat="47.24161" lon="-2.29893">
        <ele>38</ele>
        <time>2021-05-23T11:14:42.983Z</time>
      </trkpt>
      <trkpt lat="47.24161" lon="-2.29889">
        <ele>38</ele>
        <time>2021-05-23T11:14:43.982Z</time>
      </trkpt>
      <trkpt lat="47.24161" lon="-2.29886">
        <ele>38</ele>
        <time>2021-05-23T11:14:44.983Z</time>
      </trkpt>
      <trkpt lat="47.24161" lon="-2.29882">
        <ele>38</ele>
        <time>2021-05-23T11:14:45.983Z</time>
      </trkpt>
      <trkpt lat="47.24162" lon="-2.29879">
        <ele>38</ele>
        <time>2021-05-23T11:14:46.983Z</time>
      </trkpt>
      <trkpt lat="47.24161" lon="-2.29875">
        <ele>37</ele>
        <time>2021-05-23T11:14:47.982Z</time>
      </trkpt>
      <trkpt lat="47.24161" lon="-2.29872">
        <ele>37</ele>
        <time>2021-05-23T11:14:48.983Z</time>
      </trkpt>
      <trkpt lat="47.24161" lon="-2.29868">
        <ele>37</ele>
        <time>2021-05-23T11:14:49.983Z</time>
      </trkpt>
      <trkpt lat="47.24161" lon="-2.29865">
        <ele>37</ele>
        <time>2021-05-23T11:14:50.982Z</time>
      </trkpt>
      <trkpt lat="47.24161" lon="-2.29864">
        <ele>37</ele>
        <time>2021-05-23T11:14:51.982Z</time>
      </trkpt>
      <trkpt lat="47.24162" lon="-2.2986">
        <ele>38</ele>
        <time>2021-05-23T11:14:52.982Z</time>
      </trkpt>
      <trkpt lat="47.24162" lon="-2.29858">
        <ele>38</ele>
        <time>2021-05-23T11:14:53.983Z</time>
      </trkpt>
      <trkpt lat="47.24161" lon="-2.29855">
        <ele>38</ele>
        <time>2021-05-23T11:14:54.983Z</time>
      </trkpt>
      <trkpt lat="47.24161" lon="-2.29852">
        <ele>38</ele>
        <time>2021-05-23T11:14:55.983Z</time>
      </trkpt>
      <trkpt lat="47.24159" lon="-2.2985">
        <ele>38</ele>
        <time>2021-05-23T11:14:56.983Z</time>
      </trkpt>
      <trkpt lat="47.24157" lon="-2.29847">
        <ele>38</ele>
        <time>2021-05-23T11:14:57.982Z</time>
      </trkpt>
      <trkpt lat="47.24156" lon="-2.29846">
        <ele>39</ele>
        <time>2021-05-23T11:14:58.983Z</time>
      </trkpt>
      <trkpt lat="47.24154" lon="-2.29846">
        <ele>39</ele>
        <time>2021-05-23T11:14:59.983Z</time>
      </trkpt>
      <trkpt lat="47.24152" lon="-2.29845">
        <ele>39</ele>
        <time>2021-05-23T11:15:00.983Z</time>
      </trkpt>
      <trkpt lat="47.2415" lon="-2.29846">
        <ele>38</ele>
        <time>2021-05-23T11:15:01.983Z</time>
      </trkpt>
      <trkpt lat="47.24148" lon="-2.29846">
        <ele>38</ele>
        <time>2021-05-23T11:15:02.983Z</time>
      </trkpt>
      <trkpt lat="47.24146" lon="-2.29846">
        <ele>38</ele>
        <time>2021-05-23T11:15:03.983Z</time>
      </trkpt>
      <trkpt lat="47.24144" lon="-2.29847">
        <ele>38</ele>
        <time>2021-05-23T11:15:04.982Z</time>
      </trkpt>
      <trkpt lat="47.24141" lon="-2.29847">
        <ele>38</ele>
        <time>2021-05-23T11:15:05.983Z</time>
      </trkpt>
      <trkpt lat="47.24138" lon="-2.29847">
        <ele>37</ele>
        <time>2021-05-23T11:15:06.983Z</time>
      </trkpt>
      <trkpt lat="47.24136" lon="-2.29848">
        <ele>37</ele>
        <time>2021-05-23T11:15:07.983Z</time>
      </trkpt>
      <trkpt lat="47.24134" lon="-2.29848">
        <ele>37</ele>
        <time>2021-05-23T11:15:08.983Z</time>
      </trkpt>
      <trkpt lat="47.24132" lon="-2.29848">
        <ele>36</ele>
        <time>2021-05-23T11:15:09.982Z</time>
      </trkpt>
      <trkpt lat="47.2413" lon="-2.29848">
        <ele>36</ele>
        <time>2021-05-23T11:15:10.982Z</time>
      </trkpt>
      <trkpt lat="47.24128" lon="-2.29848">
        <ele>36</ele>
        <time>2021-05-23T11:15:11.982Z</time>
      </trkpt>
      <trkpt lat="47.24126" lon="-2.29848">
        <ele>36</ele>
        <time>2021-05-23T11:15:12.983Z</time>
      </trkpt>
      <trkpt lat="47.24123" lon="-2.29848">
        <ele>35</ele>
        <time>2021-05-23T11:15:13.982Z</time>
      </trkpt>
      <trkpt lat="47.2412" lon="-2.29849">
        <ele>35</ele>
        <time>2021-05-23T11:15:14.983Z</time>
      </trkpt>
      <trkpt lat="47.24117" lon="-2.29851">
        <ele>35</ele>
        <time>2021-05-23T11:15:15.982Z</time>
      </trkpt>
      <trkpt lat="47.24114" lon="-2.29851">
        <ele>35</ele>
        <time>2021-05-23T11:15:16.982Z</time>
      </trkpt>
      <trkpt lat="47.24111" lon="-2.29852">
        <ele>35</ele>
        <time>2021-05-23T11:15:17.983Z</time>
      </trkpt>
      <trkpt lat="47.24108" lon="-2.29852">
        <ele>35</ele>
        <time>2021-05-23T11:15:18.982Z</time>
      </trkpt>
      <trkpt lat="47.24105" lon="-2.29852">
        <ele>35</ele>
        <time>2021-05-23T11:15:19.983Z</time>
      </trkpt>
      <trkpt lat="47.24103" lon="-2.29852">
        <ele>35</ele>
        <time>2021-05-23T11:15:20.983Z</time>
      </trkpt>
      <trkpt lat="47.24101" lon="-2.29852">
        <ele>35</ele>
        <time>2021-05-23T11:15:21.983Z</time>
      </trkpt>
      <trkpt lat="47.24099" lon="-2.29852">
        <ele>35</ele>
        <time>2021-05-23T11:15:22.982Z</time>
      </trkpt>
      <trkpt lat="47.24097" lon="-2.29852">
        <ele>35</ele>
        <time>2021-05-23T11:15:23.983Z</time>
      </trkpt>
      <trkpt lat="47.24094" lon="-2.29851">
        <ele>34</ele>
        <time>2021-05-23T11:15:24.983Z</time>
      </trkpt>
      <trkpt lat="47.24093" lon="-2.2985">
        <ele>34</ele>
        <time>2021-05-23T11:15:25.982Z</time>
      </trkpt>
      <trkpt lat="47.24091" lon="-2.2985">
        <ele>34</ele>
        <time>2021-05-23T11:15:26.983Z</time>
      </trkpt>
      <trkpt lat="47.24089" lon="-2.2985">
        <ele>33</ele>
        <time>2021-05-23T11:15:27.982Z</time>
      </trkpt>
      <trkpt lat="47.24087" lon="-2.29851">
        <ele>33</ele>
        <time>2021-05-23T11:15:28.983Z</time>
      </trkpt>
      <trkpt lat="47.24086" lon="-2.29851">
        <ele>33</ele>
        <time>2021-05-23T11:15:29.983Z</time>
      </trkpt>
      <trkpt lat="47.24084" lon="-2.29851">
        <ele>33</ele>
        <time>2021-05-23T11:15:30.982Z</time>
      </trkpt>
      <trkpt lat="47.24083" lon="-2.2985">
        <ele>33</ele>
        <time>2021-05-23T11:15:31.983Z</time>
      </trkpt>
      <trkpt lat="47.24082" lon="-2.2985">
        <ele>33</ele>
        <time>2021-05-23T11:15:32.983Z</time>
      </trkpt>
      <trkpt lat="47.24082" lon="-2.29851">
        <ele>33</ele>
        <time>2021-05-23T11:15:33.983Z</time>
      </trkpt>
      <trkpt lat="47.24083" lon="-2.29853">
        <ele>32</ele>
        <time>2021-05-23T11:15:34.982Z</time>
      </trkpt>
      <trkpt lat="47.24083" lon="-2.29854">
        <ele>33</ele>
        <time>2021-05-23T11:15:35.982Z</time>
      </trkpt>
      <trkpt lat="47.24082" lon="-2.29857">
        <ele>33</ele>
        <time>2021-05-23T11:15:36.983Z</time>
      </trkpt>
      <trkpt lat="47.24081" lon="-2.29859">
        <ele>33</ele>
        <time>2021-05-23T11:15:37.983Z</time>
      </trkpt>
      <trkpt lat="47.24081" lon="-2.29861">
        <ele>33</ele>
        <time>2021-05-23T11:15:38.983Z</time>
      </trkpt>
      <trkpt lat="47.2408" lon="-2.29864">
        <ele>33</ele>
        <time>2021-05-23T11:15:39.983Z</time>
      </trkpt>
      <trkpt lat="47.2408" lon="-2.29867">
        <ele>34</ele>
        <time>2021-05-23T11:15:40.983Z</time>
      </trkpt>
      <trkpt lat="47.24079" lon="-2.2987">
        <ele>34</ele>
        <time>2021-05-23T11:15:41.983Z</time>
      </trkpt>
      <trkpt lat="47.24079" lon="-2.29873">
        <ele>34</ele>
        <time>2021-05-23T11:15:42.982Z</time>
      </trkpt>
      <trkpt lat="47.24079" lon="-2.29874">
        <ele>34</ele>
        <time>2021-05-23T11:15:43.983Z</time>
      </trkpt>
      <trkpt lat="47.2408" lon="-2.29877">
        <ele>34</ele>
        <time>2021-05-23T11:15:44.983Z</time>
      </trkpt>
      <trkpt lat="47.2408" lon="-2.29879">
        <ele>34</ele>
        <time>2021-05-23T11:15:45.983Z</time>
      </trkpt>
      <trkpt lat="47.24079" lon="-2.29882">
        <ele>34</ele>
        <time>2021-05-23T11:15:46.982Z</time>
      </trkpt>
      <trkpt lat="47.24078" lon="-2.29885">
        <ele>34</ele>
        <time>2021-05-23T11:15:47.983Z</time>
      </trkpt>
      <trkpt lat="47.24077" lon="-2.29887">
        <ele>34</ele>
        <time>2021-05-23T11:15:48.982Z</time>
      </trkpt>
      <trkpt lat="47.24076" lon="-2.29891">
        <ele>33</ele>
        <time>2021-05-23T11:15:49.983Z</time>
      </trkpt>
      <trkpt lat="47.24075" lon="-2.29894">
        <ele>33</ele>
        <time>2021-05-23T11:15:50.982Z</time>
      </trkpt>
      <trkpt lat="47.24075" lon="-2.29897">
        <ele>33</ele>
        <time>2021-05-23T11:15:51.983Z</time>
      </trkpt>
      <trkpt lat="47.24074" lon="-2.299">
        <ele>33</ele>
        <time>2021-05-23T11:15:52.983Z</time>
      </trkpt>
      <trkpt lat="47.24073" lon="-2.29903">
        <ele>33</ele>
        <time>2021-05-23T11:15:53.983Z</time>
      </trkpt>
      <trkpt lat="47.24072" lon="-2.29907">
        <ele>34</ele>
        <time>2021-05-23T11:15:54.983Z</time>
      </trkpt>
      <trkpt lat="47.24072" lon="-2.29909">
        <ele>34</ele>
        <time>2021-05-23T11:15:55.983Z</time>
      </trkpt>
      <trkpt lat="47.24071" lon="-2.29913">
        <ele>34</ele>
        <time>2021-05-23T11:15:56.983Z</time>
      </trkpt>
      <trkpt lat="47.2407" lon="-2.29916">
        <ele>34</ele>
        <time>2021-05-23T11:15:57.983Z</time>
      </trkpt>
      <trkpt lat="47.24069" lon="-2.29919">
        <ele>34</ele>
        <time>2021-05-23T11:15:58.983Z</time>
      </trkpt>
      <trkpt lat="47.24068" lon="-2.29923">
        <ele>34</ele>
        <time>2021-05-23T11:15:59.982Z</time>
      </trkpt>
      <trkpt lat="47.24068" lon="-2.29926">
        <ele>33</ele>
        <time>2021-05-23T11:16:00.983Z</time>
      </trkpt>
      <trkpt lat="47.24066" lon="-2.2993">
        <ele>33</ele>
        <time>2021-05-23T11:16:01.982Z</time>
      </trkpt>
      <trkpt lat="47.24065" lon="-2.29933">
        <ele>33</ele>
        <time>2021-05-23T11:16:02.983Z</time>
      </trkpt>
      <trkpt lat="47.24063" lon="-2.29937">
        <ele>33</ele>
        <time>2021-05-23T11:16:03.982Z</time>
      </trkpt>
      <trkpt lat="47.24062" lon="-2.29941">
        <ele>33</ele>
        <time>2021-05-23T11:16:04.983Z</time>
      </trkpt>
      <trkpt lat="47.2406" lon="-2.29944">
        <ele>33</ele>
        <time>2021-05-23T11:16:05.983Z</time>
      </trkpt>
      <trkpt lat="47.2406" lon="-2.29947">
        <ele>33</ele>
        <time>2021-05-23T11:16:06.983Z</time>
      </trkpt>
      <trkpt lat="47.24059" lon="-2.29951">
        <ele>33</ele>
        <time>2021-05-23T11:16:07.983Z</time>
      </trkpt>
      <trkpt lat="47.24058" lon="-2.29954">
        <ele>33</ele>
        <time>2021-05-23T11:16:08.983Z</time>
      </trkpt>
      <trkpt lat="47.24058" lon="-2.29957">
        <ele>33</ele>
        <time>2021-05-23T11:16:09.983Z</time>
      </trkpt>
      <trkpt lat="47.24058" lon="-2.2996">
        <ele>33</ele>
        <time>2021-05-23T11:16:10.982Z</time>
      </trkpt>
      <trkpt lat="47.24057" lon="-2.29964">
        <ele>33</ele>
        <time>2021-05-23T11:16:11.983Z</time>
      </trkpt>
      <trkpt lat="47.24057" lon="-2.29967">
        <ele>33</ele>
        <time>2021-05-23T11:16:12.983Z</time>
      </trkpt>
      <trkpt lat="47.24057" lon="-2.2997">
        <ele>34</ele>
        <time>2021-05-23T11:16:13.983Z</time>
      </trkpt>
      <trkpt lat="47.24057" lon="-2.29972">
        <ele>34</ele>
        <time>2021-05-23T11:16:14.983Z</time>
      </trkpt>
      <trkpt lat="47.24059" lon="-2.29974">
        <ele>35</ele>
        <time>2021-05-23T11:16:15.983Z</time>
      </trkpt>
      <trkpt lat="47.24059" lon="-2.29976">
        <ele>35</ele>
        <time>2021-05-23T11:16:16.983Z</time>
      </trkpt>
      <trkpt lat="47.24059" lon="-2.29979">
        <ele>35</ele>
        <time>2021-05-23T11:16:17.982Z</time>
      </trkpt>
      <trkpt lat="47.24059" lon="-2.29981">
        <ele>36</ele>
        <time>2021-05-23T11:16:18.983Z</time>
      </trkpt>
      <trkpt lat="47.24059" lon="-2.29984">
        <ele>36</ele>
        <time>2021-05-23T11:16:19.982Z</time>
      </trkpt>
      <trkpt lat="47.24059" lon="-2.29985">
        <ele>37</ele>
        <time>2021-05-23T11:16:20.983Z</time>
      </trkpt>
      <trkpt lat="47.24059" lon="-2.29986">
        <ele>37</ele>
        <time>2021-05-23T11:16:21.983Z</time>
      </trkpt>
      <trkpt lat="47.24059" lon="-2.29988">
        <ele>37</ele>
        <time>2021-05-23T11:16:22.983Z</time>
      </trkpt>
      <trkpt lat="47.24059" lon="-2.29991">
        <ele>37</ele>
        <time>2021-05-23T11:16:23.983Z</time>
      </trkpt>
      <trkpt lat="47.2406" lon="-2.29993">
        <ele>37</ele>
        <time>2021-05-23T11:16:24.982Z</time>
      </trkpt>
      <trkpt lat="47.2406" lon="-2.29995">
        <ele>37</ele>
        <time>2021-05-23T11:16:25.983Z</time>
      </trkpt>
      <trkpt lat="47.24061" lon="-2.29997">
        <ele>38</ele>
        <time>2021-05-23T11:16:26.983Z</time>
      </trkpt>
      <trkpt lat="47.24061" lon="-2.29998">
        <ele>38</ele>
        <time>2021-05-23T11:16:27.982Z</time>
      </trkpt>
      <trkpt lat="47.24061" lon="-2.3">
        <ele>39</ele>
        <time>2021-05-23T11:16:28.982Z</time>
      </trkpt>
      <trkpt lat="47.2406" lon="-2.30002">
        <ele>39</ele>
        <time>2021-05-23T11:16:29.983Z</time>
      </trkpt>
      <trkpt lat="47.2406" lon="-2.30003">
        <ele>40</ele>
        <time>2021-05-23T11:16:30.983Z</time>
      </trkpt>
      <trkpt lat="47.2406" lon="-2.30004">
        <ele>40</ele>
        <time>2021-05-23T11:16:31.983Z</time>
      </trkpt>
      <trkpt lat="47.24059" lon="-2.30006">
        <ele>40</ele>
        <time>2021-05-23T11:16:32.983Z</time>
      </trkpt>
      <trkpt lat="47.24059" lon="-2.30007">
        <ele>40</ele>
        <time>2021-05-23T11:16:33.982Z</time>
      </trkpt>
      <trkpt lat="47.24059" lon="-2.30009">
        <ele>40</ele>
        <time>2021-05-23T11:16:34.983Z</time>
      </trkpt>
      <trkpt lat="47.24059" lon="-2.30011">
        <ele>40</ele>
        <time>2021-05-23T11:16:35.983Z</time>
      </trkpt>
      <trkpt lat="47.24059" lon="-2.30013">
        <ele>40</ele>
        <time>2021-05-23T11:16:36.983Z</time>
      </trkpt>
      <trkpt lat="47.24059" lon="-2.30014">
        <ele>40</ele>
        <time>2021-05-23T11:16:37.983Z</time>
      </trkpt>
      <trkpt lat="47.24059" lon="-2.30016">
        <ele>40</ele>
        <time>2021-05-23T11:16:38.982Z</time>
      </trkpt>
      <trkpt lat="47.24059" lon="-2.3002">
        <ele>40</ele>
        <time>2021-05-23T11:16:39.982Z</time>
      </trkpt>
      <trkpt lat="47.24059" lon="-2.30023">
        <ele>41</ele>
        <time>2021-05-23T11:16:40.983Z</time>
      </trkpt>
      <trkpt lat="47.24058" lon="-2.30026">
        <ele>41</ele>
        <time>2021-05-23T11:16:41.983Z</time>
      </trkpt>
      <trkpt lat="47.24058" lon="-2.30029">
        <ele>41</ele>
        <time>2021-05-23T11:16:42.982Z</time>
      </trkpt>
      <trkpt lat="47.24058" lon="-2.30032">
        <ele>41</ele>
        <time>2021-05-23T11:16:43.983Z</time>
      </trkpt>
      <trkpt lat="47.24058" lon="-2.30033">
        <ele>41</ele>
        <time>2021-05-23T11:16:44.983Z</time>
      </trkpt>
      <trkpt lat="47.24057" lon="-2.30037">
        <ele>41</ele>
        <time>2021-05-23T11:16:45.982Z</time>
      </trkpt>
      <trkpt lat="47.24057" lon="-2.3004">
        <ele>40</ele>
        <time>2021-05-23T11:16:46.982Z</time>
      </trkpt>
      <trkpt lat="47.24057" lon="-2.30042">
        <ele>40</ele>
        <time>2021-05-23T11:16:47.983Z</time>
      </trkpt>
      <trkpt lat="47.24057" lon="-2.30044">
        <ele>40</ele>
        <time>2021-05-23T11:16:48.983Z</time>
      </trkpt>
      <trkpt lat="47.24057" lon="-2.30046">
        <ele>39</ele>
        <time>2021-05-23T11:16:49.983Z</time>
      </trkpt>
      <trkpt lat="47.24057" lon="-2.30048">
        <ele>39</ele>
        <time>2021-05-23T11:16:50.982Z</time>
      </trkpt>
      <trkpt lat="47.24056" lon="-2.30049">
        <ele>38</ele>
        <time>2021-05-23T11:16:51.983Z</time>
      </trkpt>
      <trkpt lat="47.24056" lon="-2.30051">
        <ele>38</ele>
        <time>2021-05-23T11:16:52.982Z</time>
      </trkpt>
      <trkpt lat="47.24056" lon="-2.30053">
        <ele>38</ele>
        <time>2021-05-23T11:16:53.983Z</time>
      </trkpt>
      <trkpt lat="47.24055" lon="-2.30055">
        <ele>37</ele>
        <time>2021-05-23T11:16:54.983Z</time>
      </trkpt>
      <trkpt lat="47.24055" lon="-2.30057">
        <ele>37</ele>
        <time>2021-05-23T11:16:55.982Z</time>
      </trkpt>
      <trkpt lat="47.24054" lon="-2.30059">
        <ele>37</ele>
        <time>2021-05-23T11:16:56.983Z</time>
      </trkpt>
      <trkpt lat="47.24054" lon="-2.3006">
        <ele>37</ele>
        <time>2021-05-23T11:16:57.982Z</time>
      </trkpt>
      <trkpt lat="47.24054" lon="-2.30062">
        <ele>37</ele>
        <time>2021-05-23T11:16:58.983Z</time>
      </trkpt>
      <trkpt lat="47.24053" lon="-2.30063">
        <ele>37</ele>
        <time>2021-05-23T11:16:59.982Z</time>
      </trkpt>
      <trkpt lat="47.24053" lon="-2.30064">
        <ele>37</ele>
        <time>2021-05-23T11:17:00.983Z</time>
      </trkpt>
      <trkpt lat="47.24054" lon="-2.30065">
        <ele>37</ele>
        <time>2021-05-23T11:17:01.982Z</time>
      </trkpt>
      <trkpt lat="47.24054" lon="-2.30066">
        <ele>38</ele>
        <time>2021-05-23T11:17:02.983Z</time>
      </trkpt>
      <trkpt lat="47.24053" lon="-2.30068">
        <ele>38</ele>
        <time>2021-05-23T11:17:03.982Z</time>
      </trkpt>
      <trkpt lat="47.24053" lon="-2.30069">
        <ele>38</ele>
        <time>2021-05-23T11:17:04.982Z</time>
      </trkpt>
      <trkpt lat="47.24053" lon="-2.30071">
        <ele>39</ele>
        <time>2021-05-23T11:17:05.982Z</time>
      </trkpt>
      <trkpt lat="47.24053" lon="-2.30072">
        <ele>39</ele>
        <time>2021-05-23T11:17:06.983Z</time>
      </trkpt>
      <trkpt lat="47.24052" lon="-2.30074">
        <ele>39</ele>
        <time>2021-05-23T11:17:07.982Z</time>
      </trkpt>
      <trkpt lat="47.24052" lon="-2.30076">
        <ele>39</ele>
        <time>2021-05-23T11:17:08.983Z</time>
      </trkpt>
      <trkpt lat="47.24051" lon="-2.30078">
        <ele>39</ele>
        <time>2021-05-23T11:17:09.983Z</time>
      </trkpt>
      <trkpt lat="47.24051" lon="-2.3008">
        <ele>39</ele>
        <time>2021-05-23T11:17:10.983Z</time>
      </trkpt>
      <trkpt lat="47.2405" lon="-2.30083">
        <ele>39</ele>
        <time>2021-05-23T11:17:11.983Z</time>
      </trkpt>
      <trkpt lat="47.2405" lon="-2.30085">
        <ele>39</ele>
        <time>2021-05-23T11:17:12.982Z</time>
      </trkpt>
      <trkpt lat="47.24051" lon="-2.30086">
        <ele>39</ele>
        <time>2021-05-23T11:17:13.983Z</time>
      </trkpt>
      <trkpt lat="47.24051" lon="-2.30089">
        <ele>38</ele>
        <time>2021-05-23T11:17:14.983Z</time>
      </trkpt>
      <trkpt lat="47.24051" lon="-2.30092">
        <ele>38</ele>
        <time>2021-05-23T11:17:15.983Z</time>
      </trkpt>
      <trkpt lat="47.24051" lon="-2.30095">
        <ele>37</ele>
        <time>2021-05-23T11:17:16.983Z</time>
      </trkpt>
      <trkpt lat="47.2405" lon="-2.30098">
        <ele>37</ele>
        <time>2021-05-23T11:17:17.983Z</time>
      </trkpt>
      <trkpt lat="47.2405" lon="-2.301">
        <ele>36</ele>
        <time>2021-05-23T11:17:18.983Z</time>
      </trkpt>
      <trkpt lat="47.2405" lon="-2.30103">
        <ele>36</ele>
        <time>2021-05-23T11:17:19.982Z</time>
      </trkpt>
      <trkpt lat="47.2405" lon="-2.30105">
        <ele>35</ele>
        <time>2021-05-23T11:17:20.982Z</time>
      </trkpt>
      <trkpt lat="47.24049" lon="-2.30106">
        <ele>35</ele>
        <time>2021-05-23T11:17:21.983Z</time>
      </trkpt>
      <trkpt lat="47.24049" lon="-2.30108">
        <ele>35</ele>
        <time>2021-05-23T11:17:22.982Z</time>
      </trkpt>
      <trkpt lat="47.24048" lon="-2.30111">
        <ele>35</ele>
        <time>2021-05-23T11:17:23.983Z</time>
      </trkpt>
      <trkpt lat="47.24048" lon="-2.30113">
        <ele>35</ele>
        <time>2021-05-23T11:17:24.982Z</time>
      </trkpt>
      <trkpt lat="47.24047" lon="-2.30115">
        <ele>35</ele>
        <time>2021-05-23T11:17:25.983Z</time>
      </trkpt>
      <trkpt lat="47.24047" lon="-2.30117">
        <ele>35</ele>
        <time>2021-05-23T11:17:26.982Z</time>
      </trkpt>
      <trkpt lat="47.24047" lon="-2.30118">
        <ele>35</ele>
        <time>2021-05-23T11:17:27.982Z</time>
      </trkpt>
      <trkpt lat="47.24046" lon="-2.3012">
        <ele>35</ele>
        <time>2021-05-23T11:17:28.982Z</time>
      </trkpt>
      <trkpt lat="47.24045" lon="-2.30121">
        <ele>34</ele>
        <time>2021-05-23T11:17:29.982Z</time>
      </trkpt>
      <trkpt lat="47.24045" lon="-2.30124">
        <ele>34</ele>
        <time>2021-05-23T11:17:30.982Z</time>
      </trkpt>
      <trkpt lat="47.24045" lon="-2.30126">
        <ele>35</ele>
        <time>2021-05-23T11:17:31.982Z</time>
      </trkpt>
      <trkpt lat="47.24044" lon="-2.30128">
        <ele>35</ele>
        <time>2021-05-23T11:17:32.982Z</time>
      </trkpt>
      <trkpt lat="47.24044" lon="-2.3013">
        <ele>35</ele>
        <time>2021-05-23T11:17:33.983Z</time>
      </trkpt>
      <trkpt lat="47.24043" lon="-2.30133">
        <ele>36</ele>
        <time>2021-05-23T11:17:34.982Z</time>
      </trkpt>
      <trkpt lat="47.24042" lon="-2.30135">
        <ele>36</ele>
        <time>2021-05-23T11:17:35.982Z</time>
      </trkpt>
      <trkpt lat="47.24042" lon="-2.30137">
        <ele>36</ele>
        <time>2021-05-23T11:17:36.982Z</time>
      </trkpt>
      <trkpt lat="47.24041" lon="-2.3014">
        <ele>36</ele>
        <time>2021-05-23T11:17:37.982Z</time>
      </trkpt>
      <trkpt lat="47.2404" lon="-2.30143">
        <ele>36</ele>
        <time>2021-05-23T11:17:38.983Z</time>
      </trkpt>
      <trkpt lat="47.2404" lon="-2.30145">
        <ele>36</ele>
        <time>2021-05-23T11:17:39.982Z</time>
      </trkpt>
      <trkpt lat="47.2404" lon="-2.30148">
        <ele>35</ele>
        <time>2021-05-23T11:17:40.982Z</time>
      </trkpt>
      <trkpt lat="47.24039" lon="-2.3015">
        <ele>35</ele>
        <time>2021-05-23T11:17:41.983Z</time>
      </trkpt>
      <trkpt lat="47.24039" lon="-2.30152">
        <ele>36</ele>
        <time>2021-05-23T11:17:42.983Z</time>
      </trkpt>
      <trkpt lat="47.24038" lon="-2.30156">
        <ele>36</ele>
        <time>2021-05-23T11:17:43.982Z</time>
      </trkpt>
      <trkpt lat="47.24038" lon="-2.30158">
        <ele>36</ele>
        <time>2021-05-23T11:17:44.983Z</time>
      </trkpt>
      <trkpt lat="47.24038" lon="-2.30161">
        <ele>36</ele>
        <time>2021-05-23T11:17:45.982Z</time>
      </trkpt>
      <trkpt lat="47.24039" lon="-2.30164">
        <ele>36</ele>
        <time>2021-05-23T11:17:46.983Z</time>
      </trkpt>
      <trkpt lat="47.24039" lon="-2.30167">
        <ele>36</ele>
        <time>2021-05-23T11:17:47.982Z</time>
      </trkpt>
      <trkpt lat="47.24039" lon="-2.30169">
        <ele>36</ele>
        <time>2021-05-23T11:17:48.983Z</time>
      </trkpt>
      <trkpt lat="47.24039" lon="-2.30171">
        <ele>35</ele>
        <time>2021-05-23T11:17:49.982Z</time>
      </trkpt>
      <trkpt lat="47.24039" lon="-2.30173">
        <ele>35</ele>
        <time>2021-05-23T11:17:50.982Z</time>
      </trkpt>
      <trkpt lat="47.24039" lon="-2.30174">
        <ele>35</ele>
        <time>2021-05-23T11:17:51.982Z</time>
      </trkpt>
      <trkpt lat="47.24038" lon="-2.30175">
        <ele>35</ele>
        <time>2021-05-23T11:17:52.983Z</time>
      </trkpt>
      <trkpt lat="47.24038" lon="-2.30177">
        <ele>34</ele>
        <time>2021-05-23T11:17:53.983Z</time>
      </trkpt>
      <trkpt lat="47.24038" lon="-2.30178">
        <ele>34</ele>
        <time>2021-05-23T11:17:54.983Z</time>
      </trkpt>
      <trkpt lat="47.24037" lon="-2.30181">
        <ele>34</ele>
        <time>2021-05-23T11:17:55.983Z</time>
      </trkpt>
      <trkpt lat="47.24036" lon="-2.30184">
        <ele>34</ele>
        <time>2021-05-23T11:17:56.983Z</time>
      </trkpt>
      <trkpt lat="47.24035" lon="-2.30186">
        <ele>34</ele>
        <time>2021-05-23T11:17:57.982Z</time>
      </trkpt>
      <trkpt lat="47.24035" lon="-2.30187">
        <ele>35</ele>
        <time>2021-05-23T11:17:58.983Z</time>
      </trkpt>
      <trkpt lat="47.24035" lon="-2.30188">
        <ele>35</ele>
        <time>2021-05-23T11:17:59.983Z</time>
      </trkpt>
      <trkpt lat="47.24035" lon="-2.3019">
        <ele>35</ele>
        <time>2021-05-23T11:18:00.983Z</time>
      </trkpt>
      <trkpt lat="47.24035" lon="-2.30191">
        <ele>35</ele>
        <time>2021-05-23T11:18:01.983Z</time>
      </trkpt>
      <trkpt lat="47.24034" lon="-2.30193">
        <ele>35</ele>
        <time>2021-05-23T11:18:02.983Z</time>
      </trkpt>
      <trkpt lat="47.24034" lon="-2.30194">
        <ele>35</ele>
        <time>2021-05-23T11:18:03.983Z</time>
      </trkpt>
      <trkpt lat="47.24033" lon="-2.30196">
        <ele>35</ele>
        <time>2021-05-23T11:18:04.983Z</time>
      </trkpt>
      <trkpt lat="47.24033" lon="-2.30198">
        <ele>35</ele>
        <time>2021-05-23T11:18:05.982Z</time>
      </trkpt>
      <trkpt lat="47.24033" lon="-2.30199">
        <ele>34</ele>
        <time>2021-05-23T11:18:06.983Z</time>
      </trkpt>
      <trkpt lat="47.24032" lon="-2.30201">
        <ele>34</ele>
        <time>2021-05-23T11:18:07.983Z</time>
      </trkpt>
      <trkpt lat="47.24031" lon="-2.30203">
        <ele>33</ele>
        <time>2021-05-23T11:18:08.983Z</time>
      </trkpt>
      <trkpt lat="47.24031" lon="-2.30206">
        <ele>32</ele>
        <time>2021-05-23T11:18:09.983Z</time>
      </trkpt>
      <trkpt lat="47.2403" lon="-2.30208">
        <ele>31</ele>
        <time>2021-05-23T11:18:10.982Z</time>
      </trkpt>
      <trkpt lat="47.24029" lon="-2.3021">
        <ele>31</ele>
        <time>2021-05-23T11:18:11.983Z</time>
      </trkpt>
      <trkpt lat="47.24029" lon="-2.30213">
        <ele>30</ele>
        <time>2021-05-23T11:18:12.983Z</time>
      </trkpt>
      <trkpt lat="47.24028" lon="-2.30216">
        <ele>30</ele>
        <time>2021-05-23T11:18:13.983Z</time>
      </trkpt>
      <trkpt lat="47.24027" lon="-2.3022">
        <ele>29</ele>
        <time>2021-05-23T11:18:14.982Z</time>
      </trkpt>
      <trkpt lat="47.24027" lon="-2.30223">
        <ele>29</ele>
        <time>2021-05-23T11:18:15.983Z</time>
      </trkpt>
      <trkpt lat="47.24026" lon="-2.30227">
        <ele>28</ele>
        <time>2021-05-23T11:18:16.982Z</time>
      </trkpt>
      <trkpt lat="47.24026" lon="-2.3023">
        <ele>28</ele>
        <time>2021-05-23T11:18:17.983Z</time>
      </trkpt>
      <trkpt lat="47.24026" lon="-2.30234">
        <ele>27</ele>
        <time>2021-05-23T11:18:18.982Z</time>
      </trkpt>
      <trkpt lat="47.24025" lon="-2.30239">
        <ele>27</ele>
        <time>2021-05-23T11:18:19.982Z</time>
      </trkpt>
      <trkpt lat="47.24025" lon="-2.30242">
        <ele>27</ele>
        <time>2021-05-23T11:18:20.983Z</time>
      </trkpt>
      <trkpt lat="47.24024" lon="-2.30245">
        <ele>26</ele>
        <time>2021-05-23T11:18:21.983Z</time>
      </trkpt>
      <trkpt lat="47.24024" lon="-2.30249">
        <ele>26</ele>
        <time>2021-05-23T11:18:22.983Z</time>
      </trkpt>
      <trkpt lat="47.24024" lon="-2.30252">
        <ele>26</ele>
        <time>2021-05-23T11:18:23.983Z</time>
      </trkpt>
      <trkpt lat="47.24024" lon="-2.30256">
        <ele>26</ele>
        <time>2021-05-23T11:18:24.983Z</time>
      </trkpt>
      <trkpt lat="47.24023" lon="-2.30259">
        <ele>25</ele>
        <time>2021-05-23T11:18:25.983Z</time>
      </trkpt>
      <trkpt lat="47.24023" lon="-2.30263">
        <ele>25</ele>
        <time>2021-05-23T11:18:26.983Z</time>
      </trkpt>
      <trkpt lat="47.24023" lon="-2.30266">
        <ele>25</ele>
        <time>2021-05-23T11:18:27.982Z</time>
      </trkpt>
      <trkpt lat="47.24022" lon="-2.30269">
        <ele>25</ele>
        <time>2021-05-23T11:18:28.983Z</time>
      </trkpt>
      <trkpt lat="47.24022" lon="-2.30272">
        <ele>25</ele>
        <time>2021-05-23T11:18:29.983Z</time>
      </trkpt>
      <trkpt lat="47.24021" lon="-2.30276">
        <ele>24</ele>
        <time>2021-05-23T11:18:30.983Z</time>
      </trkpt>
      <trkpt lat="47.24021" lon="-2.30279">
        <ele>24</ele>
        <time>2021-05-23T11:18:31.983Z</time>
      </trkpt>
      <trkpt lat="47.24021" lon="-2.30283">
        <ele>24</ele>
        <time>2021-05-23T11:18:32.983Z</time>
      </trkpt>
      <trkpt lat="47.24021" lon="-2.30286">
        <ele>23</ele>
        <time>2021-05-23T11:18:33.983Z</time>
      </trkpt>
      <trkpt lat="47.2402" lon="-2.30289">
        <ele>23</ele>
        <time>2021-05-23T11:18:34.982Z</time>
      </trkpt>
      <trkpt lat="47.2402" lon="-2.30292">
        <ele>23</ele>
        <time>2021-05-23T11:18:35.982Z</time>
      </trkpt>
      <trkpt lat="47.24019" lon="-2.30295">
        <ele>23</ele>
        <time>2021-05-23T11:18:36.983Z</time>
      </trkpt>
      <trkpt lat="47.24018" lon="-2.30298">
        <ele>23</ele>
        <time>2021-05-23T11:18:37.983Z</time>
      </trkpt>
      <trkpt lat="47.24016" lon="-2.30301">
        <ele>23</ele>
        <time>2021-05-23T11:18:38.982Z</time>
      </trkpt>
      <trkpt lat="47.24015" lon="-2.30304">
        <ele>23</ele>
        <time>2021-05-23T11:18:39.983Z</time>
      </trkpt>
      <trkpt lat="47.24013" lon="-2.30306">
        <ele>22</ele>
        <time>2021-05-23T11:18:40.982Z</time>
      </trkpt>
      <trkpt lat="47.24011" lon="-2.30309">
        <ele>21</ele>
        <time>2021-05-23T11:18:41.983Z</time>
      </trkpt>
      <trkpt lat="47.24009" lon="-2.30311">
        <ele>21</ele>
        <time>2021-05-23T11:18:42.983Z</time>
      </trkpt>
      <trkpt lat="47.24007" lon="-2.30314">
        <ele>20</ele>
        <time>2021-05-23T11:18:43.983Z</time>
      </trkpt>
      <trkpt lat="47.24006" lon="-2.30317">
        <ele>19</ele>
        <time>2021-05-23T11:18:44.983Z</time>
      </trkpt>
      <trkpt lat="47.24004" lon="-2.30319">
        <ele>19</ele>
        <time>2021-05-23T11:18:45.983Z</time>
      </trkpt>
      <trkpt lat="47.24001" lon="-2.30322">
        <ele>19</ele>
        <time>2021-05-23T11:18:46.983Z</time>
      </trkpt>
      <trkpt lat="47.23999" lon="-2.30325">
        <ele>18</ele>
        <time>2021-05-23T11:18:47.982Z</time>
      </trkpt>
      <trkpt lat="47.23997" lon="-2.30328">
        <ele>18</ele>
        <time>2021-05-23T11:18:48.983Z</time>
      </trkpt>
      <trkpt lat="47.23994" lon="-2.30329">
        <ele>17</ele>
        <time>2021-05-23T11:18:49.982Z</time>
      </trkpt>
      <trkpt lat="47.23992" lon="-2.30332">
        <ele>17</ele>
        <time>2021-05-23T11:18:50.983Z</time>
      </trkpt>
      <trkpt lat="47.2399" lon="-2.30335">
        <ele>17</ele>
        <time>2021-05-23T11:18:51.983Z</time>
      </trkpt>
      <trkpt lat="47.23989" lon="-2.30338">
        <ele>16</ele>
        <time>2021-05-23T11:18:52.982Z</time>
      </trkpt>
      <trkpt lat="47.23988" lon="-2.3034">
        <ele>17</ele>
        <time>2021-05-23T11:18:53.983Z</time>
      </trkpt>
      <trkpt lat="47.23986" lon="-2.30342">
        <ele>17</ele>
        <time>2021-05-23T11:18:54.983Z</time>
      </trkpt>
      <trkpt lat="47.23985" lon="-2.30345">
        <ele>18</ele>
        <time>2021-05-23T11:18:55.983Z</time>
      </trkpt>
      <trkpt lat="47.23983" lon="-2.30347">
        <ele>18</ele>
        <time>2021-05-23T11:18:56.982Z</time>
      </trkpt>
      <trkpt lat="47.2398" lon="-2.30349">
        <ele>19</ele>
        <time>2021-05-23T11:18:57.982Z</time>
      </trkpt>
      <trkpt lat="47.23979" lon="-2.30351">
        <ele>19</ele>
        <time>2021-05-23T11:18:58.983Z</time>
      </trkpt>
      <trkpt lat="47.23977" lon="-2.30353">
        <ele>20</ele>
        <time>2021-05-23T11:18:59.982Z</time>
      </trkpt>
      <trkpt lat="47.23975" lon="-2.30356">
        <ele>20</ele>
        <time>2021-05-23T11:19:00.983Z</time>
      </trkpt>
      <trkpt lat="47.23973" lon="-2.30358">
        <ele>21</ele>
        <time>2021-05-23T11:19:01.982Z</time>
      </trkpt>
      <trkpt lat="47.23972" lon="-2.3036">
        <ele>21</ele>
        <time>2021-05-23T11:19:02.982Z</time>
      </trkpt>
      <trkpt lat="47.23971" lon="-2.30361">
        <ele>21</ele>
        <time>2021-05-23T11:19:03.982Z</time>
      </trkpt>
      <trkpt lat="47.23969" lon="-2.30363">
        <ele>20</ele>
        <time>2021-05-23T11:19:04.983Z</time>
      </trkpt>
      <trkpt lat="47.23967" lon="-2.30365">
        <ele>20</ele>
        <time>2021-05-23T11:19:05.983Z</time>
      </trkpt>
      <trkpt lat="47.23965" lon="-2.30367">
        <ele>20</ele>
        <time>2021-05-23T11:19:06.983Z</time>
      </trkpt>
      <trkpt lat="47.23962" lon="-2.30369">
        <ele>19</ele>
        <time>2021-05-23T11:19:07.983Z</time>
      </trkpt>
      <trkpt lat="47.23961" lon="-2.30371">
        <ele>20</ele>
        <time>2021-05-23T11:19:08.983Z</time>
      </trkpt>
      <trkpt lat="47.2396" lon="-2.30373">
        <ele>20</ele>
        <time>2021-05-23T11:19:09.982Z</time>
      </trkpt>
      <trkpt lat="47.23958" lon="-2.30376">
        <ele>20</ele>
        <time>2021-05-23T11:19:10.982Z</time>
      </trkpt>
      <trkpt lat="47.23957" lon="-2.30379">
        <ele>20</ele>
        <time>2021-05-23T11:19:11.983Z</time>
      </trkpt>
      <trkpt lat="47.23955" lon="-2.30381">
        <ele>19</ele>
        <time>2021-05-23T11:19:12.983Z</time>
      </trkpt>
      <trkpt lat="47.23953" lon="-2.30384">
        <ele>19</ele>
        <time>2021-05-23T11:19:13.983Z</time>
      </trkpt>
      <trkpt lat="47.23951" lon="-2.30387">
        <ele>19</ele>
        <time>2021-05-23T11:19:14.983Z</time>
      </trkpt>
      <trkpt lat="47.23949" lon="-2.30389">
        <ele>19</ele>
        <time>2021-05-23T11:19:15.982Z</time>
      </trkpt>
      <trkpt lat="47.23948" lon="-2.30392">
        <ele>19</ele>
        <time>2021-05-23T11:19:16.983Z</time>
      </trkpt>
      <trkpt lat="47.23946" lon="-2.30394">
        <ele>19</ele>
        <time>2021-05-23T11:19:17.983Z</time>
      </trkpt>
      <trkpt lat="47.23945" lon="-2.30397">
        <ele>19</ele>
        <time>2021-05-23T11:19:18.982Z</time>
      </trkpt>
      <trkpt lat="47.23943" lon="-2.30399">
        <ele>19</ele>
        <time>2021-05-23T11:19:19.983Z</time>
      </trkpt>
      <trkpt lat="47.23941" lon="-2.30401">
        <ele>20</ele>
        <time>2021-05-23T11:19:20.983Z</time>
      </trkpt>
      <trkpt lat="47.23939" lon="-2.30403">
        <ele>20</ele>
        <time>2021-05-23T11:19:21.983Z</time>
      </trkpt>
      <trkpt lat="47.23938" lon="-2.30406">
        <ele>20</ele>
        <time>2021-05-23T11:19:22.983Z</time>
      </trkpt>
      <trkpt lat="47.23936" lon="-2.30408">
        <ele>20</ele>
        <time>2021-05-23T11:19:23.983Z</time>
      </trkpt>
      <trkpt lat="47.23935" lon="-2.30411">
        <ele>20</ele>
        <time>2021-05-23T11:19:24.982Z</time>
      </trkpt>
      <trkpt lat="47.23933" lon="-2.30413">
        <ele>20</ele>
        <time>2021-05-23T11:19:25.982Z</time>
      </trkpt>
      <trkpt lat="47.23931" lon="-2.30415">
        <ele>20</ele>
        <time>2021-05-23T11:19:26.982Z</time>
      </trkpt>
      <trkpt lat="47.23929" lon="-2.30417">
        <ele>21</ele>
        <time>2021-05-23T11:19:27.983Z</time>
      </trkpt>
      <trkpt lat="47.23928" lon="-2.3042">
        <ele>21</ele>
        <time>2021-05-23T11:19:28.982Z</time>
      </trkpt>
      <trkpt lat="47.23926" lon="-2.30423">
        <ele>21</ele>
        <time>2021-05-23T11:19:29.982Z</time>
      </trkpt>
      <trkpt lat="47.23925" lon="-2.30425">
        <ele>22</ele>
        <time>2021-05-23T11:19:30.983Z</time>
      </trkpt>
      <trkpt lat="47.23924" lon="-2.30427">
        <ele>22</ele>
        <time>2021-05-23T11:19:31.982Z</time>
      </trkpt>
      <trkpt lat="47.23922" lon="-2.3043">
        <ele>22</ele>
        <time>2021-05-23T11:19:32.982Z</time>
      </trkpt>
      <trkpt lat="47.23921" lon="-2.30433">
        <ele>22</ele>
        <time>2021-05-23T11:19:33.983Z</time>
      </trkpt>
      <trkpt lat="47.2392" lon="-2.30436">
        <ele>22</ele>
        <time>2021-05-23T11:19:34.983Z</time>
      </trkpt>
      <trkpt lat="47.2392" lon="-2.3044">
        <ele>22</ele>
        <time>2021-05-23T11:19:35.983Z</time>
      </trkpt>
      <trkpt lat="47.2392" lon="-2.30445">
        <ele>23</ele>
        <time>2021-05-23T11:19:36.983Z</time>
      </trkpt>
      <trkpt lat="47.2392" lon="-2.30448">
        <ele>23</ele>
        <time>2021-05-23T11:19:37.983Z</time>
      </trkpt>
      <trkpt lat="47.2392" lon="-2.30452">
        <ele>23</ele>
        <time>2021-05-23T11:19:38.983Z</time>
      </trkpt>
      <trkpt lat="47.23921" lon="-2.30455">
        <ele>23</ele>
        <time>2021-05-23T11:19:39.982Z</time>
      </trkpt>
      <trkpt lat="47.23921" lon="-2.30458">
        <ele>24</ele>
        <time>2021-05-23T11:19:40.982Z</time>
      </trkpt>
      <trkpt lat="47.23922" lon="-2.30461">
        <ele>24</ele>
        <time>2021-05-23T11:19:41.982Z</time>
      </trkpt>
      <trkpt lat="47.23923" lon="-2.30464">
        <ele>24</ele>
        <time>2021-05-23T11:19:42.983Z</time>
      </trkpt>
      <trkpt lat="47.23924" lon="-2.30468">
        <ele>25</ele>
        <time>2021-05-23T11:19:43.983Z</time>
      </trkpt>
      <trkpt lat="47.23924" lon="-2.30471">
        <ele>25</ele>
        <time>2021-05-23T11:19:44.982Z</time>
      </trkpt>
      <trkpt lat="47.23925" lon="-2.30474">
        <ele>26</ele>
        <time>2021-05-23T11:19:45.983Z</time>
      </trkpt>
      <trkpt lat="47.23926" lon="-2.30478">
        <ele>26</ele>
        <time>2021-05-23T11:19:46.983Z</time>
      </trkpt>
      <trkpt lat="47.23927" lon="-2.30481">
        <ele>27</ele>
        <time>2021-05-23T11:19:47.983Z</time>
      </trkpt>
      <trkpt lat="47.23928" lon="-2.30484">
        <ele>27</ele>
        <time>2021-05-23T11:19:48.983Z</time>
      </trkpt>
      <trkpt lat="47.2393" lon="-2.30487">
        <ele>28</ele>
        <time>2021-05-23T11:19:49.983Z</time>
      </trkpt>
      <trkpt lat="47.23931" lon="-2.3049">
        <ele>28</ele>
        <time>2021-05-23T11:19:50.983Z</time>
      </trkpt>
      <trkpt lat="47.23932" lon="-2.30493">
        <ele>28</ele>
        <time>2021-05-23T11:19:51.983Z</time>
      </trkpt>
      <trkpt lat="47.23934" lon="-2.30496">
        <ele>28</ele>
        <time>2021-05-23T11:19:52.983Z</time>
      </trkpt>
      <trkpt lat="47.23935" lon="-2.30499">
        <ele>28</ele>
        <time>2021-05-23T11:19:53.983Z</time>
      </trkpt>
      <trkpt lat="47.23936" lon="-2.30502">
        <ele>28</ele>
        <time>2021-05-23T11:19:54.983Z</time>
      </trkpt>
      <trkpt lat="47.23938" lon="-2.30505">
        <ele>28</ele>
        <time>2021-05-23T11:19:55.982Z</time>
      </trkpt>
      <trkpt lat="47.23939" lon="-2.30509">
        <ele>28</ele>
        <time>2021-05-23T11:19:56.982Z</time>
      </trkpt>
      <trkpt lat="47.23941" lon="-2.30512">
        <ele>27</ele>
        <time>2021-05-23T11:19:57.983Z</time>
      </trkpt>
      <trkpt lat="47.23942" lon="-2.30516">
        <ele>27</ele>
        <time>2021-05-23T11:19:58.983Z</time>
      </trkpt>
      <trkpt lat="47.23943" lon="-2.3052">
        <ele>27</ele>
        <time>2021-05-23T11:19:59.983Z</time>
      </trkpt>
      <trkpt lat="47.23943" lon="-2.30522">
        <ele>26</ele>
        <time>2021-05-23T11:20:00.982Z</time>
      </trkpt>
      <trkpt lat="47.23944" lon="-2.30526">
        <ele>26</ele>
        <time>2021-05-23T11:20:01.982Z</time>
      </trkpt>
      <trkpt lat="47.23945" lon="-2.30529">
        <ele>25</ele>
        <time>2021-05-23T11:20:02.983Z</time>
      </trkpt>
      <trkpt lat="47.23945" lon="-2.30532">
        <ele>25</ele>
        <time>2021-05-23T11:20:03.982Z</time>
      </trkpt>
      <trkpt lat="47.23945" lon="-2.30534">
        <ele>24</ele>
        <time>2021-05-23T11:20:04.983Z</time>
      </trkpt>
      <trkpt lat="47.23945" lon="-2.30537">
        <ele>23</ele>
        <time>2021-05-23T11:20:05.982Z</time>
      </trkpt>
      <trkpt lat="47.23944" lon="-2.3054">
        <ele>23</ele>
        <time>2021-05-23T11:20:06.982Z</time>
      </trkpt>
      <trkpt lat="47.23943" lon="-2.30542">
        <ele>22</ele>
        <time>2021-05-23T11:20:07.982Z</time>
      </trkpt>
      <trkpt lat="47.23941" lon="-2.30545">
        <ele>22</ele>
        <time>2021-05-23T11:20:08.983Z</time>
      </trkpt>
      <trkpt lat="47.2394" lon="-2.30548">
        <ele>22</ele>
        <time>2021-05-23T11:20:09.983Z</time>
      </trkpt>
      <trkpt lat="47.23939" lon="-2.30551">
        <ele>21</ele>
        <time>2021-05-23T11:20:10.983Z</time>
      </trkpt>
      <trkpt lat="47.23938" lon="-2.30553">
        <ele>21</ele>
        <time>2021-05-23T11:20:11.982Z</time>
      </trkpt>
      <trkpt lat="47.23936" lon="-2.30555">
        <ele>21</ele>
        <time>2021-05-23T11:20:12.983Z</time>
      </trkpt>
      <trkpt lat="47.23935" lon="-2.30558">
        <ele>20</ele>
        <time>2021-05-23T11:20:13.983Z</time>
      </trkpt>
      <trkpt lat="47.23933" lon="-2.30561">
        <ele>20</ele>
        <time>2021-05-23T11:20:14.982Z</time>
      </trkpt>
      <trkpt lat="47.23932" lon="-2.30564">
        <ele>20</ele>
        <time>2021-05-23T11:20:15.983Z</time>
      </trkpt>
      <trkpt lat="47.2393" lon="-2.30567">
        <ele>20</ele>
        <time>2021-05-23T11:20:16.983Z</time>
      </trkpt>
      <trkpt lat="47.23929" lon="-2.30569">
        <ele>20</ele>
        <time>2021-05-23T11:20:17.983Z</time>
      </trkpt>
      <trkpt lat="47.23928" lon="-2.30573">
        <ele>20</ele>
        <time>2021-05-23T11:20:18.983Z</time>
      </trkpt>
      <trkpt lat="47.23927" lon="-2.30576">
        <ele>20</ele>
        <time>2021-05-23T11:20:19.983Z</time>
      </trkpt>
      <trkpt lat="47.23926" lon="-2.30579">
        <ele>20</ele>
        <time>2021-05-23T11:20:20.982Z</time>
      </trkpt>
      <trkpt lat="47.23926" lon="-2.30582">
        <ele>20</ele>
        <time>2021-05-23T11:20:21.983Z</time>
      </trkpt>
      <trkpt lat="47.23925" lon="-2.30584">
        <ele>20</ele>
        <time>2021-05-23T11:20:22.983Z</time>
      </trkpt>
      <trkpt lat="47.23925" lon="-2.30586">
        <ele>20</ele>
        <time>2021-05-23T11:20:23.983Z</time>
      </trkpt>
      <trkpt lat="47.23925" lon="-2.30589">
        <ele>20</ele>
        <time>2021-05-23T11:20:24.983Z</time>
      </trkpt>
      <trkpt lat="47.23925" lon="-2.30591">
        <ele>20</ele>
        <time>2021-05-23T11:20:25.983Z</time>
      </trkpt>
      <trkpt lat="47.23925" lon="-2.30593">
        <ele>20</ele>
        <time>2021-05-23T11:20:26.983Z</time>
      </trkpt>
      <trkpt lat="47.23923" lon="-2.30594">
        <ele>20</ele>
        <time>2021-05-23T11:20:27.982Z</time>
      </trkpt>
      <trkpt lat="47.23922" lon="-2.30594">
        <ele>19</ele>
        <time>2021-05-23T11:20:28.983Z</time>
      </trkpt>
      <trkpt lat="47.2392" lon="-2.30594">
        <ele>19</ele>
        <time>2021-05-23T11:20:29.982Z</time>
      </trkpt>
      <trkpt lat="47.23918" lon="-2.30595">
        <ele>18</ele>
        <time>2021-05-23T11:20:30.983Z</time>
      </trkpt>
      <trkpt lat="47.23916" lon="-2.30596">
        <ele>18</ele>
        <time>2021-05-23T11:20:31.983Z</time>
      </trkpt>
      <trkpt lat="47.23914" lon="-2.30598">
        <ele>18</ele>
        <time>2021-05-23T11:20:32.983Z</time>
      </trkpt>
      <trkpt lat="47.23913" lon="-2.306">
        <ele>17</ele>
        <time>2021-05-23T11:20:33.982Z</time>
      </trkpt>
      <trkpt lat="47.23912" lon="-2.30602">
        <ele>17</ele>
        <time>2021-05-23T11:20:34.983Z</time>
      </trkpt>
      <trkpt lat="47.2391" lon="-2.30604">
        <ele>17</ele>
        <time>2021-05-23T11:20:35.983Z</time>
      </trkpt>
      <trkpt lat="47.2391" lon="-2.30608">
        <ele>16</ele>
        <time>2021-05-23T11:20:36.983Z</time>
      </trkpt>
      <trkpt lat="47.2391" lon="-2.30612">
        <ele>16</ele>
        <time>2021-05-23T11:20:37.983Z</time>
      </trkpt>
      <trkpt lat="47.2391" lon="-2.30615">
        <ele>16</ele>
        <time>2021-05-23T11:20:38.983Z</time>
      </trkpt>
      <trkpt lat="47.23909" lon="-2.30619">
        <ele>16</ele>
        <time>2021-05-23T11:20:39.983Z</time>
      </trkpt>
      <trkpt lat="47.23908" lon="-2.30622">
        <ele>16</ele>
        <time>2021-05-23T11:20:40.983Z</time>
      </trkpt>
      <trkpt lat="47.23907" lon="-2.30625">
        <ele>16</ele>
        <time>2021-05-23T11:20:41.983Z</time>
      </trkpt>
      <trkpt lat="47.23907" lon="-2.30629">
        <ele>16</ele>
        <time>2021-05-23T11:20:42.982Z</time>
      </trkpt>
      <trkpt lat="47.23907" lon="-2.30632">
        <ele>16</ele>
        <time>2021-05-23T11:20:43.983Z</time>
      </trkpt>
      <trkpt lat="47.23906" lon="-2.30636">
        <ele>16</ele>
        <time>2021-05-23T11:20:44.983Z</time>
      </trkpt>
      <trkpt lat="47.23906" lon="-2.30638">
        <ele>16</ele>
        <time>2021-05-23T11:20:45.983Z</time>
      </trkpt>
      <trkpt lat="47.23906" lon="-2.30641">
        <ele>16</ele>
        <time>2021-05-23T11:20:46.983Z</time>
      </trkpt>
      <trkpt lat="47.23905" lon="-2.30644">
        <ele>16</ele>
        <time>2021-05-23T11:20:47.983Z</time>
      </trkpt>
      <trkpt lat="47.23904" lon="-2.30648">
        <ele>15</ele>
        <time>2021-05-23T11:20:48.983Z</time>
      </trkpt>
      <trkpt lat="47.23903" lon="-2.30651">
        <ele>15</ele>
        <time>2021-05-23T11:20:49.982Z</time>
      </trkpt>
      <trkpt lat="47.23902" lon="-2.30654">
        <ele>14</ele>
        <time>2021-05-23T11:20:50.983Z</time>
      </trkpt>
      <trkpt lat="47.23902" lon="-2.30657">
        <ele>14</ele>
        <time>2021-05-23T11:20:51.983Z</time>
      </trkpt>
      <trkpt lat="47.23901" lon="-2.3066">
        <ele>14</ele>
        <time>2021-05-23T11:20:52.983Z</time>
      </trkpt>
      <trkpt lat="47.239" lon="-2.30663">
        <ele>14</ele>
        <time>2021-05-23T11:20:53.983Z</time>
      </trkpt>
      <trkpt lat="47.239" lon="-2.30667">
        <ele>13</ele>
        <time>2021-05-23T11:20:54.983Z</time>
      </trkpt>
      <trkpt lat="47.23899" lon="-2.30671">
        <ele>13</ele>
        <time>2021-05-23T11:20:55.982Z</time>
      </trkpt>
      <trkpt lat="47.23898" lon="-2.30674">
        <ele>12</ele>
        <time>2021-05-23T11:20:56.983Z</time>
      </trkpt>
      <trkpt lat="47.23898" lon="-2.30677">
        <ele>12</ele>
        <time>2021-05-23T11:20:57.983Z</time>
      </trkpt>
      <trkpt lat="47.23897" lon="-2.3068">
        <ele>12</ele>
        <time>2021-05-23T11:20:58.983Z</time>
      </trkpt>
      <trkpt lat="47.23897" lon="-2.30683">
        <ele>12</ele>
        <time>2021-05-23T11:20:59.983Z</time>
      </trkpt>
      <trkpt lat="47.23896" lon="-2.30686">
        <ele>12</ele>
        <time>2021-05-23T11:21:00.983Z</time>
      </trkpt>
      <trkpt lat="47.23895" lon="-2.30689">
        <ele>12</ele>
        <time>2021-05-23T11:21:01.983Z</time>
      </trkpt>
      <trkpt lat="47.23895" lon="-2.30692">
        <ele>12</ele>
        <time>2021-05-23T11:21:02.983Z</time>
      </trkpt>
      <trkpt lat="47.23894" lon="-2.30695">
        <ele>13</ele>
        <time>2021-05-23T11:21:03.983Z</time>
      </trkpt>
      <trkpt lat="47.23893" lon="-2.30698">
        <ele>13</ele>
        <time>2021-05-23T11:21:04.983Z</time>
      </trkpt>
      <trkpt lat="47.23892" lon="-2.30701">
        <ele>13</ele>
        <time>2021-05-23T11:21:05.983Z</time>
      </trkpt>
      <trkpt lat="47.23891" lon="-2.30705">
        <ele>13</ele>
        <time>2021-05-23T11:21:06.983Z</time>
      </trkpt>
      <trkpt lat="47.2389" lon="-2.30707">
        <ele>14</ele>
        <time>2021-05-23T11:21:07.983Z</time>
      </trkpt>
      <trkpt lat="47.23889" lon="-2.30708">
        <ele>14</ele>
        <time>2021-05-23T11:21:08.983Z</time>
      </trkpt>
      <trkpt lat="47.23888" lon="-2.3071">
        <ele>14</ele>
        <time>2021-05-23T11:21:09.982Z</time>
      </trkpt>
      <trkpt lat="47.23888" lon="-2.30711">
        <ele>14</ele>
        <time>2021-05-23T11:21:10.982Z</time>
      </trkpt>
      <trkpt lat="47.23887" lon="-2.30711">
        <ele>14</ele>
        <time>2021-05-23T11:21:11.982Z</time>
      </trkpt>
      <trkpt lat="47.23886" lon="-2.30712">
        <ele>14</ele>
        <time>2021-05-23T11:21:12.983Z</time>
      </trkpt>
      <trkpt lat="47.23885" lon="-2.30712">
        <ele>14</ele>
        <time>2021-05-23T11:21:13.982Z</time>
      </trkpt>
      <trkpt lat="47.23885" lon="-2.30713">
        <ele>14</ele>
        <time>2021-05-23T11:21:14.983Z</time>
      </trkpt>
      <trkpt lat="47.23884" lon="-2.30713">
        <ele>13</ele>
        <time>2021-05-23T11:21:15.983Z</time>
      </trkpt>
      <trkpt lat="47.23884" lon="-2.30713">
        <ele>12</ele>
        <time>2021-05-23T11:21:16.983Z</time>
      </trkpt>
      <trkpt lat="47.23884" lon="-2.30714">
        <ele>12</ele>
        <time>2021-05-23T11:21:17.983Z</time>
      </trkpt>
      <trkpt lat="47.23884" lon="-2.30714">
        <ele>12</ele>
        <time>2021-05-23T11:21:18.982Z</time>
      </trkpt>
      <trkpt lat="47.23884" lon="-2.30715">
        <ele>11</ele>
        <time>2021-05-23T11:21:19.983Z</time>
      </trkpt>
      <trkpt lat="47.23884" lon="-2.30715">
        <ele>10</ele>
        <time>2021-05-23T11:21:20.983Z</time>
      </trkpt>
      <trkpt lat="47.23884" lon="-2.30715">
        <ele>9</ele>
        <time>2021-05-23T11:21:21.983Z</time>
      </trkpt>
      <trkpt lat="47.23884" lon="-2.30715">
        <ele>8</ele>
        <time>2021-05-23T11:21:22.983Z</time>
      </trkpt>
      <trkpt lat="47.23884" lon="-2.30715">
        <ele>7</ele>
        <time>2021-05-23T11:21:23.983Z</time>
      </trkpt>
      <trkpt lat="47.23884" lon="-2.30715">
        <ele>6</ele>
        <time>2021-05-23T11:21:24.982Z</time>
      </trkpt>
      <trkpt lat="47.23884" lon="-2.30715">
        <ele>6</ele>
        <time>2021-05-23T11:21:25.983Z</time>
      </trkpt>
      <trkpt lat="47.23884" lon="-2.30713">
        <ele>6</ele>
        <time>2021-05-23T11:21:30.982Z</time>
      </trkpt>
      <trkpt lat="47.23883" lon="-2.30713">
        <ele>6</ele>
        <time>2021-05-23T11:21:31.983Z</time>
      </trkpt>
      <trkpt lat="47.23883" lon="-2.30713">
        <ele>6</ele>
        <time>2021-05-23T11:21:32.983Z</time>
      </trkpt>
      <trkpt lat="47.23883" lon="-2.30712">
        <ele>6</ele>
        <time>2021-05-23T11:21:33.982Z</time>
      </trkpt>
      <trkpt lat="47.23883" lon="-2.30712">
        <ele>7</ele>
        <time>2021-05-23T11:21:34.982Z</time>
      </trkpt>
      <trkpt lat="47.23882" lon="-2.30711">
        <ele>7</ele>
        <time>2021-05-23T11:21:35.983Z</time>
      </trkpt>
      <trkpt lat="47.23882" lon="-2.30711">
        <ele>7</ele>
        <time>2021-05-23T11:21:36.983Z</time>
      </trkpt>
      <trkpt lat="47.23883" lon="-2.3071">
        <ele>7</ele>
        <time>2021-05-23T11:21:37.983Z</time>
      </trkpt>
      <trkpt lat="47.23883" lon="-2.3071">
        <ele>6</ele>
        <time>2021-05-23T11:21:38.982Z</time>
      </trkpt>
      <trkpt lat="47.23883" lon="-2.3071">
        <ele>6</ele>
        <time>2021-05-23T11:21:39.982Z</time>
      </trkpt>
      <trkpt lat="47.23884" lon="-2.3071">
        <ele>6</ele>
        <time>2021-05-23T11:21:40.983Z</time>
      </trkpt>
      <trkpt lat="47.23884" lon="-2.3071">
        <ele>6</ele>
        <time>2021-05-23T11:21:41.983Z</time>
      </trkpt>
      <trkpt lat="47.23884" lon="-2.3071">
        <ele>6</ele>
        <time>2021-05-23T11:21:42.983Z</time>
      </trkpt>
      <trkpt lat="47.23884" lon="-2.3071">
        <ele>6</ele>
        <time>2021-05-23T11:21:43.982Z</time>
      </trkpt>
      <trkpt lat="47.23884" lon="-2.3071">
        <ele>6</ele>
        <time>2021-05-23T11:21:44.983Z</time>
      </trkpt>
      <trkpt lat="47.23884" lon="-2.3071">
        <ele>6</ele>
        <time>2021-05-23T11:21:45.983Z</time>
      </trkpt>
      <trkpt lat="47.23884" lon="-2.3071">
        <ele>6</ele>
        <time>2021-05-23T11:21:46.982Z</time>
      </trkpt>
      <trkpt lat="47.23884" lon="-2.3071">
        <ele>5</ele>
        <time>2021-05-23T11:21:47.983Z</time>
      </trkpt>
      <trkpt lat="47.23884" lon="-2.3071">
        <ele>5</ele>
        <time>2021-05-23T11:21:48.982Z</time>
      </trkpt>
      <trkpt lat="47.23884" lon="-2.30709">
        <ele>5</ele>
        <time>2021-05-23T11:21:49.983Z</time>
      </trkpt>
      <trkpt lat="47.23884" lon="-2.30709">
        <ele>4</ele>
        <time>2021-05-23T11:21:50.983Z</time>
      </trkpt>
      <trkpt lat="47.23884" lon="-2.30709">
        <ele>4</ele>
        <time>2021-05-23T11:21:51.982Z</time>
      </trkpt>
      <trkpt lat="47.23884" lon="-2.3071">
        <ele>4</ele>
        <time>2021-05-23T11:21:52.983Z</time>
      </trkpt>
      <trkpt lat="47.23884" lon="-2.3071">
        <ele>4</ele>
        <time>2021-05-23T11:21:53.982Z</time>
      </trkpt>
      <trkpt lat="47.23884" lon="-2.3071">
        <ele>5</ele>
        <time>2021-05-23T11:21:54.983Z</time>
      </trkpt>
      <trkpt lat="47.23884" lon="-2.3071">
        <ele>5</ele>
        <time>2021-05-23T11:21:55.983Z</time>
      </trkpt>
      <trkpt lat="47.23883" lon="-2.3071">
        <ele>5</ele>
        <time>2021-05-23T11:21:56.982Z</time>
      </trkpt>
      <trkpt lat="47.23883" lon="-2.30709">
        <ele>5</ele>
        <time>2021-05-23T11:21:57.982Z</time>
      </trkpt>
      <trkpt lat="47.23882" lon="-2.30709">
        <ele>5</ele>
        <time>2021-05-23T11:21:58.982Z</time>
      </trkpt>
      <trkpt lat="47.23882" lon="-2.30709">
        <ele>4</ele>
        <time>2021-05-23T11:21:59.983Z</time>
      </trkpt>
      <trkpt lat="47.23881" lon="-2.30708">
        <ele>4</ele>
        <time>2021-05-23T11:22:00.982Z</time>
      </trkpt>
      <trkpt lat="47.23879" lon="-2.30707">
        <ele>4</ele>
        <time>2021-05-23T11:22:01.982Z</time>
      </trkpt>
      <trkpt lat="47.23877" lon="-2.30707">
        <ele>5</ele>
        <time>2021-05-23T11:22:02.982Z</time>
      </trkpt>
      <trkpt lat="47.23876" lon="-2.30707">
        <ele>5</ele>
        <time>2021-05-23T11:22:03.982Z</time>
      </trkpt>
      <trkpt lat="47.23874" lon="-2.30707">
        <ele>5</ele>
        <time>2021-05-23T11:22:04.982Z</time>
      </trkpt>
      <trkpt lat="47.23872" lon="-2.30706">
        <ele>6</ele>
        <time>2021-05-23T11:22:05.983Z</time>
      </trkpt>
      <trkpt lat="47.2387" lon="-2.30706">
        <ele>6</ele>
        <time>2021-05-23T11:22:06.983Z</time>
      </trkpt>
      <trkpt lat="47.23869" lon="-2.30706">
        <ele>6</ele>
        <time>2021-05-23T11:22:07.983Z</time>
      </trkpt>
      <trkpt lat="47.23867" lon="-2.30706">
        <ele>6</ele>
        <time>2021-05-23T11:22:08.983Z</time>
      </trkpt>
      <trkpt lat="47.23866" lon="-2.30707">
        <ele>6</ele>
        <time>2021-05-23T11:22:09.983Z</time>
      </trkpt>
      <trkpt lat="47.23865" lon="-2.30708">
        <ele>6</ele>
        <time>2021-05-23T11:22:10.982Z</time>
      </trkpt>
      <trkpt lat="47.23865" lon="-2.30709">
        <ele>6</ele>
        <time>2021-05-23T11:22:11.983Z</time>
      </trkpt>
      <trkpt lat="47.23863" lon="-2.30708">
        <ele>6</ele>
        <time>2021-05-23T11:22:12.982Z</time>
      </trkpt>
      <trkpt lat="47.23863" lon="-2.30707">
        <ele>5</ele>
        <time>2021-05-23T11:22:13.983Z</time>
      </trkpt>
      <trkpt lat="47.23862" lon="-2.30707">
        <ele>5</ele>
        <time>2021-05-23T11:22:14.983Z</time>
      </trkpt>
      <trkpt lat="47.23861" lon="-2.30706">
        <ele>5</ele>
        <time>2021-05-23T11:22:15.983Z</time>
      </trkpt>
      <trkpt lat="47.2386" lon="-2.30705">
        <ele>6</ele>
        <time>2021-05-23T11:22:16.982Z</time>
      </trkpt>
      <trkpt lat="47.23859" lon="-2.30704">
        <ele>6</ele>
        <time>2021-05-23T11:22:17.982Z</time>
      </trkpt>
      <trkpt lat="47.23859" lon="-2.30703">
        <ele>6</ele>
        <time>2021-05-23T11:22:18.983Z</time>
      </trkpt>
      <trkpt lat="47.23858" lon="-2.30702">
        <ele>6</ele>
        <time>2021-05-23T11:22:19.982Z</time>
      </trkpt>
      <trkpt lat="47.23857" lon="-2.307">
        <ele>6</ele>
        <time>2021-05-23T11:22:20.983Z</time>
      </trkpt>
      <trkpt lat="47.23856" lon="-2.30699">
        <ele>6</ele>
        <time>2021-05-23T11:22:21.983Z</time>
      </trkpt>
      <trkpt lat="47.23855" lon="-2.30698">
        <ele>5</ele>
        <time>2021-05-23T11:22:22.982Z</time>
      </trkpt>
      <trkpt lat="47.23855" lon="-2.30697">
        <ele>5</ele>
        <time>2021-05-23T11:22:23.983Z</time>
      </trkpt>
      <trkpt lat="47.23854" lon="-2.30695">
        <ele>5</ele>
        <time>2021-05-23T11:22:24.983Z</time>
      </trkpt>
      <trkpt lat="47.23853" lon="-2.30695">
        <ele>5</ele>
        <time>2021-05-23T11:22:25.983Z</time>
      </trkpt>
      <trkpt lat="47.23852" lon="-2.30694">
        <ele>5</ele>
        <time>2021-05-23T11:22:26.983Z</time>
      </trkpt>
      <trkpt lat="47.23851" lon="-2.30694">
        <ele>5</ele>
        <time>2021-05-23T11:22:27.982Z</time>
      </trkpt>
      <trkpt lat="47.23851" lon="-2.30693">
        <ele>5</ele>
        <time>2021-05-23T11:22:28.982Z</time>
      </trkpt>
      <trkpt lat="47.2385" lon="-2.30692">
        <ele>6</ele>
        <time>2021-05-23T11:22:29.983Z</time>
      </trkpt>
      <trkpt lat="47.23849" lon="-2.30691">
        <ele>6</ele>
        <time>2021-05-23T11:22:30.983Z</time>
      </trkpt>
      <trkpt lat="47.23849" lon="-2.30691">
        <ele>7</ele>
        <time>2021-05-23T11:22:31.983Z</time>
      </trkpt>
      <trkpt lat="47.23848" lon="-2.30691">
        <ele>8</ele>
        <time>2021-05-23T11:22:32.982Z</time>
      </trkpt>
      <trkpt lat="47.23848" lon="-2.30691">
        <ele>8</ele>
        <time>2021-05-23T11:22:33.983Z</time>
      </trkpt>
      <trkpt lat="47.23848" lon="-2.30691">
        <ele>9</ele>
        <time>2021-05-23T11:22:34.982Z</time>
      </trkpt>
      <trkpt lat="47.23848" lon="-2.30691">
        <ele>9</ele>
        <time>2021-05-23T11:22:35.982Z</time>
      </trkpt>
      <trkpt lat="47.23848" lon="-2.30691">
        <ele>9</ele>
        <time>2021-05-23T11:22:36.983Z</time>
      </trkpt>
      <trkpt lat="47.23848" lon="-2.30691">
        <ele>10</ele>
        <time>2021-05-23T11:22:37.983Z</time>
      </trkpt>
      <trkpt lat="47.23848" lon="-2.30691">
        <ele>10</ele>
        <time>2021-05-23T11:22:38.983Z</time>
      </trkpt>
      <trkpt lat="47.23848" lon="-2.30692">
        <ele>10</ele>
        <time>2021-05-23T11:22:39.982Z</time>
      </trkpt>
      <trkpt lat="47.23848" lon="-2.30692">
        <ele>9</ele>
        <time>2021-05-23T11:22:40.983Z</time>
      </trkpt>
      <trkpt lat="47.23848" lon="-2.30692">
        <ele>9</ele>
        <time>2021-05-23T11:22:41.983Z</time>
      </trkpt>
      <trkpt lat="47.23848" lon="-2.30691">
        <ele>9</ele>
        <time>2021-05-23T11:22:42.983Z</time>
      </trkpt>
      <trkpt lat="47.23847" lon="-2.3069">
        <ele>9</ele>
        <time>2021-05-23T11:22:43.982Z</time>
      </trkpt>
      <trkpt lat="47.23847" lon="-2.3069">
        <ele>9</ele>
        <time>2021-05-23T11:22:44.983Z</time>
      </trkpt>
      <trkpt lat="47.23846" lon="-2.30689">
        <ele>9</ele>
        <time>2021-05-23T11:22:45.983Z</time>
      </trkpt>
      <trkpt lat="47.23846" lon="-2.30688">
        <ele>9</ele>
        <time>2021-05-23T11:22:46.983Z</time>
      </trkpt>
      <trkpt lat="47.23845" lon="-2.30687">
        <ele>10</ele>
        <time>2021-05-23T11:22:47.983Z</time>
      </trkpt>
      <trkpt lat="47.23845" lon="-2.30686">
        <ele>10</ele>
        <time>2021-05-23T11:22:48.983Z</time>
      </trkpt>
      <trkpt lat="47.23844" lon="-2.30685">
        <ele>11</ele>
        <time>2021-05-23T11:22:49.983Z</time>
      </trkpt>
      <trkpt lat="47.23844" lon="-2.30684">
        <ele>11</ele>
        <time>2021-05-23T11:22:50.982Z</time>
      </trkpt>
      <trkpt lat="47.23843" lon="-2.30683">
        <ele>11</ele>
        <time>2021-05-23T11:22:51.983Z</time>
      </trkpt>
      <trkpt lat="47.23843" lon="-2.30682">
        <ele>11</ele>
        <time>2021-05-23T11:22:52.983Z</time>
      </trkpt>
      <trkpt lat="47.23843" lon="-2.30682">
        <ele>11</ele>
        <time>2021-05-23T11:22:53.983Z</time>
      </trkpt>
      <trkpt lat="47.23842" lon="-2.30681">
        <ele>11</ele>
        <time>2021-05-23T11:22:54.983Z</time>
      </trkpt>
      <trkpt lat="47.23841" lon="-2.30681">
        <ele>11</ele>
        <time>2021-05-23T11:22:55.982Z</time>
      </trkpt>
      <trkpt lat="47.2384" lon="-2.30681">
        <ele>11</ele>
        <time>2021-05-23T11:22:56.982Z</time>
      </trkpt>
      <trkpt lat="47.23839" lon="-2.30681">
        <ele>11</ele>
        <time>2021-05-23T11:22:57.983Z</time>
      </trkpt>
      <trkpt lat="47.23839" lon="-2.3068">
        <ele>11</ele>
        <time>2021-05-23T11:22:58.982Z</time>
      </trkpt>
      <trkpt lat="47.23839" lon="-2.30679">
        <ele>11</ele>
        <time>2021-05-23T11:22:59.983Z</time>
      </trkpt>
      <trkpt lat="47.23839" lon="-2.30678">
        <ele>11</ele>
        <time>2021-05-23T11:23:00.983Z</time>
      </trkpt>
      <trkpt lat="47.23839" lon="-2.30676">
        <ele>10</ele>
        <time>2021-05-23T11:23:01.982Z</time>
      </trkpt>
      <trkpt lat="47.23838" lon="-2.30675">
        <ele>9</ele>
        <time>2021-05-23T11:23:02.983Z</time>
      </trkpt>
      <trkpt lat="47.23837" lon="-2.30674">
        <ele>9</ele>
        <time>2021-05-23T11:23:03.983Z</time>
      </trkpt>
      <trkpt lat="47.23837" lon="-2.30672">
        <ele>8</ele>
        <time>2021-05-23T11:23:04.982Z</time>
      </trkpt>
      <trkpt lat="47.23836" lon="-2.30671">
        <ele>8</ele>
        <time>2021-05-23T11:23:05.983Z</time>
      </trkpt>
      <trkpt lat="47.23835" lon="-2.3067">
        <ele>8</ele>
        <time>2021-05-23T11:23:06.983Z</time>
      </trkpt>
      <trkpt lat="47.23835" lon="-2.30668">
        <ele>8</ele>
        <time>2021-05-23T11:23:07.983Z</time>
      </trkpt>
      <trkpt lat="47.23834" lon="-2.30665">
        <ele>8</ele>
        <time>2021-05-23T11:23:08.983Z</time>
      </trkpt>
      <trkpt lat="47.23833" lon="-2.30663">
        <ele>8</ele>
        <time>2021-05-23T11:23:09.983Z</time>
      </trkpt>
      <trkpt lat="47.23832" lon="-2.3066">
        <ele>8</ele>
        <time>2021-05-23T11:23:10.983Z</time>
      </trkpt>
      <trkpt lat="47.23832" lon="-2.30658">
        <ele>9</ele>
        <time>2021-05-23T11:23:11.983Z</time>
      </trkpt>
      <trkpt lat="47.23832" lon="-2.30656">
        <ele>9</ele>
        <time>2021-05-23T11:23:12.983Z</time>
      </trkpt>
      <trkpt lat="47.23831" lon="-2.30654">
        <ele>10</ele>
        <time>2021-05-23T11:23:13.982Z</time>
      </trkpt>
      <trkpt lat="47.23831" lon="-2.30652">
        <ele>10</ele>
        <time>2021-05-23T11:23:14.982Z</time>
      </trkpt>
      <trkpt lat="47.23831" lon="-2.3065">
        <ele>11</ele>
        <time>2021-05-23T11:23:15.983Z</time>
      </trkpt>
      <trkpt lat="47.23831" lon="-2.30648">
        <ele>11</ele>
        <time>2021-05-23T11:23:16.982Z</time>
      </trkpt>
      <trkpt lat="47.23831" lon="-2.30646">
        <ele>12</ele>
        <time>2021-05-23T11:23:17.983Z</time>
      </trkpt>
      <trkpt lat="47.2383" lon="-2.30644">
        <ele>12</ele>
        <time>2021-05-23T11:23:18.983Z</time>
      </trkpt>
      <trkpt lat="47.2383" lon="-2.30643">
        <ele>13</ele>
        <time>2021-05-23T11:23:19.983Z</time>
      </trkpt>
      <trkpt lat="47.2383" lon="-2.30641">
        <ele>13</ele>
        <time>2021-05-23T11:23:20.983Z</time>
      </trkpt>
      <trkpt lat="47.23829" lon="-2.30639">
        <ele>13</ele>
        <time>2021-05-23T11:23:21.983Z</time>
      </trkpt>
      <trkpt lat="47.23829" lon="-2.30637">
        <ele>14</ele>
        <time>2021-05-23T11:23:22.983Z</time>
      </trkpt>
      <trkpt lat="47.23829" lon="-2.30635">
        <ele>14</ele>
        <time>2021-05-23T11:23:23.983Z</time>
      </trkpt>
      <trkpt lat="47.23829" lon="-2.30633">
        <ele>14</ele>
        <time>2021-05-23T11:23:24.983Z</time>
      </trkpt>
      <trkpt lat="47.23828" lon="-2.30631">
        <ele>14</ele>
        <time>2021-05-23T11:23:25.983Z</time>
      </trkpt>
      <trkpt lat="47.23828" lon="-2.30629">
        <ele>14</ele>
        <time>2021-05-23T11:23:26.982Z</time>
      </trkpt>
      <trkpt lat="47.23828" lon="-2.30627">
        <ele>13</ele>
        <time>2021-05-23T11:23:27.983Z</time>
      </trkpt>
      <trkpt lat="47.23828" lon="-2.30625">
        <ele>13</ele>
        <time>2021-05-23T11:23:28.982Z</time>
      </trkpt>
      <trkpt lat="47.23827" lon="-2.30622">
        <ele>13</ele>
        <time>2021-05-23T11:23:29.982Z</time>
      </trkpt>
      <trkpt lat="47.23827" lon="-2.3062">
        <ele>13</ele>
        <time>2021-05-23T11:23:30.982Z</time>
      </trkpt>
      <trkpt lat="47.23827" lon="-2.30618">
        <ele>13</ele>
        <time>2021-05-23T11:23:31.983Z</time>
      </trkpt>
      <trkpt lat="47.23827" lon="-2.30616">
        <ele>13</ele>
        <time>2021-05-23T11:23:32.983Z</time>
      </trkpt>
      <trkpt lat="47.23827" lon="-2.30614">
        <ele>13</ele>
        <time>2021-05-23T11:23:33.983Z</time>
      </trkpt>
      <trkpt lat="47.23827" lon="-2.30613">
        <ele>13</ele>
        <time>2021-05-23T11:23:34.983Z</time>
      </trkpt>
      <trkpt lat="47.23827" lon="-2.30611">
        <ele>14</ele>
        <time>2021-05-23T11:23:35.982Z</time>
      </trkpt>
      <trkpt lat="47.23827" lon="-2.30609">
        <ele>14</ele>
        <time>2021-05-23T11:23:36.983Z</time>
      </trkpt>
      <trkpt lat="47.23827" lon="-2.30607">
        <ele>14</ele>
        <time>2021-05-23T11:23:37.983Z</time>
      </trkpt>
      <trkpt lat="47.23827" lon="-2.30605">
        <ele>14</ele>
        <time>2021-05-23T11:23:38.983Z</time>
      </trkpt>
      <trkpt lat="47.23827" lon="-2.30603">
        <ele>14</ele>
        <time>2021-05-23T11:23:39.983Z</time>
      </trkpt>
      <trkpt lat="47.23827" lon="-2.30601">
        <ele>14</ele>
        <time>2021-05-23T11:23:40.983Z</time>
      </trkpt>
      <trkpt lat="47.23827" lon="-2.30599">
        <ele>14</ele>
        <time>2021-05-23T11:23:41.983Z</time>
      </trkpt>
      <trkpt lat="47.23826" lon="-2.30596">
        <ele>14</ele>
        <time>2021-05-23T11:23:42.982Z</time>
      </trkpt>
      <trkpt lat="47.23826" lon="-2.30594">
        <ele>14</ele>
        <time>2021-05-23T11:23:43.983Z</time>
      </trkpt>
      <trkpt lat="47.23826" lon="-2.30592">
        <ele>15</ele>
        <time>2021-05-23T11:23:44.983Z</time>
      </trkpt>
      <trkpt lat="47.23825" lon="-2.3059">
        <ele>15</ele>
        <time>2021-05-23T11:23:45.982Z</time>
      </trkpt>
      <trkpt lat="47.23825" lon="-2.30587">
        <ele>16</ele>
        <time>2021-05-23T11:23:46.983Z</time>
      </trkpt>
      <trkpt lat="47.23824" lon="-2.30585">
        <ele>16</ele>
        <time>2021-05-23T11:23:47.983Z</time>
      </trkpt>
      <trkpt lat="47.23824" lon="-2.30583">
        <ele>16</ele>
        <time>2021-05-23T11:23:48.983Z</time>
      </trkpt>
      <trkpt lat="47.23823" lon="-2.30581">
        <ele>16</ele>
        <time>2021-05-23T11:23:49.982Z</time>
      </trkpt>
      <trkpt lat="47.23822" lon="-2.30579">
        <ele>17</ele>
        <time>2021-05-23T11:23:50.982Z</time>
      </trkpt>
      <trkpt lat="47.23822" lon="-2.30578">
        <ele>17</ele>
        <time>2021-05-23T11:23:51.982Z</time>
      </trkpt>
      <trkpt lat="47.23821" lon="-2.30577">
        <ele>17</ele>
        <time>2021-05-23T11:23:52.983Z</time>
      </trkpt>
      <trkpt lat="47.23821" lon="-2.30577">
        <ele>17</ele>
        <time>2021-05-23T11:23:53.983Z</time>
      </trkpt>
      <trkpt lat="47.23821" lon="-2.30576">
        <ele>18</ele>
        <time>2021-05-23T11:23:54.983Z</time>
      </trkpt>
      <trkpt lat="47.23821" lon="-2.30574">
        <ele>17</ele>
        <time>2021-05-23T11:23:55.983Z</time>
      </trkpt>
      <trkpt lat="47.2382" lon="-2.30572">
        <ele>17</ele>
        <time>2021-05-23T11:23:56.983Z</time>
      </trkpt>
      <trkpt lat="47.2382" lon="-2.30569">
        <ele>16</ele>
        <time>2021-05-23T11:23:57.983Z</time>
      </trkpt>
      <trkpt lat="47.23819" lon="-2.30567">
        <ele>16</ele>
        <time>2021-05-23T11:23:58.982Z</time>
      </trkpt>
      <trkpt lat="47.23818" lon="-2.30564">
        <ele>16</ele>
        <time>2021-05-23T11:23:59.983Z</time>
      </trkpt>
      <trkpt lat="47.23818" lon="-2.30561">
        <ele>16</ele>
        <time>2021-05-23T11:24:00.983Z</time>
      </trkpt>
      <trkpt lat="47.23817" lon="-2.30559">
        <ele>16</ele>
        <time>2021-05-23T11:24:01.983Z</time>
      </trkpt>
      <trkpt lat="47.23817" lon="-2.30556">
        <ele>16</ele>
        <time>2021-05-23T11:24:02.982Z</time>
      </trkpt>
      <trkpt lat="47.23817" lon="-2.30553">
        <ele>16</ele>
        <time>2021-05-23T11:24:03.983Z</time>
      </trkpt>
      <trkpt lat="47.23816" lon="-2.30551">
        <ele>17</ele>
        <time>2021-05-23T11:24:04.982Z</time>
      </trkpt>
      <trkpt lat="47.23816" lon="-2.30549">
        <ele>17</ele>
        <time>2021-05-23T11:24:05.983Z</time>
      </trkpt>
      <trkpt lat="47.23816" lon="-2.30546">
        <ele>18</ele>
        <time>2021-05-23T11:24:06.982Z</time>
      </trkpt>
      <trkpt lat="47.23815" lon="-2.30543">
        <ele>18</ele>
        <time>2021-05-23T11:24:07.983Z</time>
      </trkpt>
      <trkpt lat="47.23815" lon="-2.3054">
        <ele>18</ele>
        <time>2021-05-23T11:24:08.982Z</time>
      </trkpt>
      <trkpt lat="47.23815" lon="-2.30536">
        <ele>18</ele>
        <time>2021-05-23T11:24:09.983Z</time>
      </trkpt>
      <trkpt lat="47.23815" lon="-2.30532">
        <ele>18</ele>
        <time>2021-05-23T11:24:10.983Z</time>
      </trkpt>
      <trkpt lat="47.23816" lon="-2.30528">
        <ele>17</ele>
        <time>2021-05-23T11:24:11.982Z</time>
      </trkpt>
      <trkpt lat="47.23815" lon="-2.30525">
        <ele>17</ele>
        <time>2021-05-23T11:24:12.982Z</time>
      </trkpt>
      <trkpt lat="47.23814" lon="-2.30522">
        <ele>17</ele>
        <time>2021-05-23T11:24:13.982Z</time>
      </trkpt>
      <trkpt lat="47.23812" lon="-2.3052">
        <ele>16</ele>
        <time>2021-05-23T11:24:14.983Z</time>
      </trkpt>
      <trkpt lat="47.23811" lon="-2.30517">
        <ele>16</ele>
        <time>2021-05-23T11:24:15.983Z</time>
      </trkpt>
      <trkpt lat="47.2381" lon="-2.30515">
        <ele>16</ele>
        <time>2021-05-23T11:24:16.982Z</time>
      </trkpt>
      <trkpt lat="47.23809" lon="-2.30511">
        <ele>16</ele>
        <time>2021-05-23T11:24:17.983Z</time>
      </trkpt>
      <trkpt lat="47.23808" lon="-2.30507">
        <ele>16</ele>
        <time>2021-05-23T11:24:18.983Z</time>
      </trkpt>
      <trkpt lat="47.23807" lon="-2.30504">
        <ele>17</ele>
        <time>2021-05-23T11:24:19.983Z</time>
      </trkpt>
      <trkpt lat="47.23806" lon="-2.305">
        <ele>17</ele>
        <time>2021-05-23T11:24:20.983Z</time>
      </trkpt>
      <trkpt lat="47.23805" lon="-2.30497">
        <ele>17</ele>
        <time>2021-05-23T11:24:21.983Z</time>
      </trkpt>
      <trkpt lat="47.23804" lon="-2.30493">
        <ele>17</ele>
        <time>2021-05-23T11:24:22.982Z</time>
      </trkpt>
      <trkpt lat="47.23803" lon="-2.3049">
        <ele>17</ele>
        <time>2021-05-23T11:24:23.983Z</time>
      </trkpt>
      <trkpt lat="47.23802" lon="-2.30487">
        <ele>17</ele>
        <time>2021-05-23T11:24:24.983Z</time>
      </trkpt>
      <trkpt lat="47.23801" lon="-2.30484">
        <ele>16</ele>
        <time>2021-05-23T11:24:25.983Z</time>
      </trkpt>
      <trkpt lat="47.23799" lon="-2.30481">
        <ele>16</ele>
        <time>2021-05-23T11:24:26.983Z</time>
      </trkpt>
      <trkpt lat="47.23798" lon="-2.30477">
        <ele>16</ele>
        <time>2021-05-23T11:24:27.983Z</time>
      </trkpt>
      <trkpt lat="47.23798" lon="-2.30474">
        <ele>16</ele>
        <time>2021-05-23T11:24:28.982Z</time>
      </trkpt>
      <trkpt lat="47.23797" lon="-2.3047">
        <ele>16</ele>
        <time>2021-05-23T11:24:29.982Z</time>
      </trkpt>
      <trkpt lat="47.23797" lon="-2.30467">
        <ele>16</ele>
        <time>2021-05-23T11:24:30.983Z</time>
      </trkpt>
      <trkpt lat="47.23797" lon="-2.30463">
        <ele>16</ele>
        <time>2021-05-23T11:24:31.982Z</time>
      </trkpt>
      <trkpt lat="47.23796" lon="-2.3046">
        <ele>16</ele>
        <time>2021-05-23T11:24:32.983Z</time>
      </trkpt>
      <trkpt lat="47.23796" lon="-2.30457">
        <ele>16</ele>
        <time>2021-05-23T11:24:33.983Z</time>
      </trkpt>
      <trkpt lat="47.23794" lon="-2.30455">
        <ele>16</ele>
        <time>2021-05-23T11:24:34.983Z</time>
      </trkpt>
      <trkpt lat="47.23793" lon="-2.30454">
        <ele>16</ele>
        <time>2021-05-23T11:24:35.983Z</time>
      </trkpt>
      <trkpt lat="47.23791" lon="-2.30453">
        <ele>16</ele>
        <time>2021-05-23T11:24:36.983Z</time>
      </trkpt>
      <trkpt lat="47.2379" lon="-2.30452">
        <ele>15</ele>
        <time>2021-05-23T11:24:37.983Z</time>
      </trkpt>
      <trkpt lat="47.23788" lon="-2.30451">
        <ele>15</ele>
        <time>2021-05-23T11:24:38.982Z</time>
      </trkpt>
      <trkpt lat="47.23786" lon="-2.30451">
        <ele>15</ele>
        <time>2021-05-23T11:24:39.983Z</time>
      </trkpt>
      <trkpt lat="47.23784" lon="-2.30449">
        <ele>15</ele>
        <time>2021-05-23T11:24:40.982Z</time>
      </trkpt>
      <trkpt lat="47.23783" lon="-2.30447">
        <ele>16</ele>
        <time>2021-05-23T11:24:41.983Z</time>
      </trkpt>
      <trkpt lat="47.23781" lon="-2.30444">
        <ele>16</ele>
        <time>2021-05-23T11:24:42.982Z</time>
      </trkpt>
      <trkpt lat="47.2378" lon="-2.30442">
        <ele>17</ele>
        <time>2021-05-23T11:24:43.983Z</time>
      </trkpt>
      <trkpt lat="47.23779" lon="-2.30439">
        <ele>18</ele>
        <time>2021-05-23T11:24:44.983Z</time>
      </trkpt>
      <trkpt lat="47.23778" lon="-2.30436">
        <ele>18</ele>
        <time>2021-05-23T11:24:45.983Z</time>
      </trkpt>
      <trkpt lat="47.23776" lon="-2.30434">
        <ele>19</ele>
        <time>2021-05-23T11:24:46.983Z</time>
      </trkpt>
      <trkpt lat="47.23775" lon="-2.30431">
        <ele>19</ele>
        <time>2021-05-23T11:24:47.982Z</time>
      </trkpt>
      <trkpt lat="47.23774" lon="-2.30428">
        <ele>20</ele>
        <time>2021-05-23T11:24:48.983Z</time>
      </trkpt>
      <trkpt lat="47.23774" lon="-2.30426">
        <ele>20</ele>
        <time>2021-05-23T11:24:49.983Z</time>
      </trkpt>
      <trkpt lat="47.23773" lon="-2.30423">
        <ele>20</ele>
        <time>2021-05-23T11:24:50.983Z</time>
      </trkpt>
      <trkpt lat="47.23773" lon="-2.30419">
        <ele>21</ele>
        <time>2021-05-23T11:24:51.983Z</time>
      </trkpt>
      <trkpt lat="47.23773" lon="-2.30415">
        <ele>21</ele>
        <time>2021-05-23T11:24:52.982Z</time>
      </trkpt>
      <trkpt lat="47.23773" lon="-2.30411">
        <ele>21</ele>
        <time>2021-05-23T11:24:53.982Z</time>
      </trkpt>
      <trkpt lat="47.23772" lon="-2.30407">
        <ele>21</ele>
        <time>2021-05-23T11:24:54.983Z</time>
      </trkpt>
      <trkpt lat="47.23772" lon="-2.30403">
        <ele>21</ele>
        <time>2021-05-23T11:24:55.983Z</time>
      </trkpt>
      <trkpt lat="47.23771" lon="-2.304">
        <ele>20</ele>
        <time>2021-05-23T11:24:56.983Z</time>
      </trkpt>
      <trkpt lat="47.2377" lon="-2.30397">
        <ele>19</ele>
        <time>2021-05-23T11:24:57.983Z</time>
      </trkpt>
      <trkpt lat="47.2377" lon="-2.30395">
        <ele>18</ele>
        <time>2021-05-23T11:24:58.983Z</time>
      </trkpt>
      <trkpt lat="47.23769" lon="-2.30394">
        <ele>17</ele>
        <time>2021-05-23T11:24:59.982Z</time>
      </trkpt>
      <trkpt lat="47.23768" lon="-2.30393">
        <ele>16</ele>
        <time>2021-05-23T11:25:00.983Z</time>
      </trkpt>
      <trkpt lat="47.23767" lon="-2.30392">
        <ele>16</ele>
        <time>2021-05-23T11:25:01.983Z</time>
      </trkpt>
      <trkpt lat="47.23767" lon="-2.30391">
        <ele>15</ele>
        <time>2021-05-23T11:25:02.983Z</time>
      </trkpt>
      <trkpt lat="47.23766" lon="-2.3039">
        <ele>15</ele>
        <time>2021-05-23T11:25:03.983Z</time>
      </trkpt>
      <trkpt lat="47.23766" lon="-2.3039">
        <ele>14</ele>
        <time>2021-05-23T11:25:04.983Z</time>
      </trkpt>
      <trkpt lat="47.23767" lon="-2.30389">
        <ele>13</ele>
        <time>2021-05-23T11:25:05.983Z</time>
      </trkpt>
      <trkpt lat="47.23767" lon="-2.30389">
        <ele>13</ele>
        <time>2021-05-23T11:25:06.983Z</time>
      </trkpt>
      <trkpt lat="47.23766" lon="-2.30387">
        <ele>12</ele>
        <time>2021-05-23T11:25:07.982Z</time>
      </trkpt>
      <trkpt lat="47.23766" lon="-2.30386">
        <ele>12</ele>
        <time>2021-05-23T11:25:08.983Z</time>
      </trkpt>
      <trkpt lat="47.23765" lon="-2.30385">
        <ele>12</ele>
        <time>2021-05-23T11:25:09.983Z</time>
      </trkpt>
      <trkpt lat="47.23765" lon="-2.30384">
        <ele>13</ele>
        <time>2021-05-23T11:25:10.983Z</time>
      </trkpt>
      <trkpt lat="47.23765" lon="-2.30383">
        <ele>13</ele>
        <time>2021-05-23T11:25:11.982Z</time>
      </trkpt>
      <trkpt lat="47.23765" lon="-2.30382">
        <ele>13</ele>
        <time>2021-05-23T11:25:12.983Z</time>
      </trkpt>
      <trkpt lat="47.23765" lon="-2.30381">
        <ele>13</ele>
        <time>2021-05-23T11:25:13.983Z</time>
      </trkpt>
      <trkpt lat="47.23765" lon="-2.3038">
        <ele>13</ele>
        <time>2021-05-23T11:25:14.983Z</time>
      </trkpt>
      <trkpt lat="47.23765" lon="-2.30378">
        <ele>12</ele>
        <time>2021-05-23T11:25:15.982Z</time>
      </trkpt>
      <trkpt lat="47.23765" lon="-2.30377">
        <ele>12</ele>
        <time>2021-05-23T11:25:16.983Z</time>
      </trkpt>
      <trkpt lat="47.23765" lon="-2.30376">
        <ele>12</ele>
        <time>2021-05-23T11:25:17.983Z</time>
      </trkpt>
      <trkpt lat="47.23765" lon="-2.30376">
        <ele>12</ele>
        <time>2021-05-23T11:25:18.983Z</time>
      </trkpt>
      <trkpt lat="47.23764" lon="-2.30375">
        <ele>12</ele>
        <time>2021-05-23T11:25:19.983Z</time>
      </trkpt>
      <trkpt lat="47.23763" lon="-2.30374">
        <ele>11</ele>
        <time>2021-05-23T11:25:20.983Z</time>
      </trkpt>
      <trkpt lat="47.23762" lon="-2.30373">
        <ele>11</ele>
        <time>2021-05-23T11:25:21.983Z</time>
      </trkpt>
      <trkpt lat="47.23761" lon="-2.30372">
        <ele>10</ele>
        <time>2021-05-23T11:25:22.982Z</time>
      </trkpt>
      <trkpt lat="47.23759" lon="-2.30371">
        <ele>10</ele>
        <time>2021-05-23T11:25:23.982Z</time>
      </trkpt>
      <trkpt lat="47.23757" lon="-2.30369">
        <ele>10</ele>
        <time>2021-05-23T11:25:24.983Z</time>
      </trkpt>
      <trkpt lat="47.23756" lon="-2.30368">
        <ele>10</ele>
        <time>2021-05-23T11:25:25.983Z</time>
      </trkpt>
      <trkpt lat="47.23754" lon="-2.30366">
        <ele>10</ele>
        <time>2021-05-23T11:25:26.982Z</time>
      </trkpt>
      <trkpt lat="47.23753" lon="-2.30364">
        <ele>10</ele>
        <time>2021-05-23T11:25:27.982Z</time>
      </trkpt>
      <trkpt lat="47.23752" lon="-2.30363">
        <ele>9</ele>
        <time>2021-05-23T11:25:28.982Z</time>
      </trkpt>
      <trkpt lat="47.23751" lon="-2.30362">
        <ele>9</ele>
        <time>2021-05-23T11:25:29.982Z</time>
      </trkpt>
      <trkpt lat="47.2375" lon="-2.3036">
        <ele>8</ele>
        <time>2021-05-23T11:25:30.983Z</time>
      </trkpt>
      <trkpt lat="47.2375" lon="-2.30358">
        <ele>7</ele>
        <time>2021-05-23T11:25:31.983Z</time>
      </trkpt>
      <trkpt lat="47.23749" lon="-2.30356">
        <ele>6</ele>
        <time>2021-05-23T11:25:32.983Z</time>
      </trkpt>
      <trkpt lat="47.23749" lon="-2.30354">
        <ele>5</ele>
        <time>2021-05-23T11:25:33.983Z</time>
      </trkpt>
      <trkpt lat="47.23748" lon="-2.30352">
        <ele>5</ele>
        <time>2021-05-23T11:25:34.983Z</time>
      </trkpt>
      <trkpt lat="47.23748" lon="-2.30351">
        <ele>4</ele>
        <time>2021-05-23T11:25:35.983Z</time>
      </trkpt>
      <trkpt lat="47.23748" lon="-2.30349">
        <ele>4</ele>
        <time>2021-05-23T11:25:36.982Z</time>
      </trkpt>
      <trkpt lat="47.23748" lon="-2.30348">
        <ele>5</ele>
        <time>2021-05-23T11:25:37.983Z</time>
      </trkpt>
      <trkpt lat="47.23748" lon="-2.30346">
        <ele>5</ele>
        <time>2021-05-23T11:25:38.983Z</time>
      </trkpt>
      <trkpt lat="47.23747" lon="-2.30344">
        <ele>5</ele>
        <time>2021-05-23T11:25:39.983Z</time>
      </trkpt>
      <trkpt lat="47.23747" lon="-2.30342">
        <ele>5</ele>
        <time>2021-05-23T11:25:40.983Z</time>
      </trkpt>
      <trkpt lat="47.23747" lon="-2.3034">
        <ele>5</ele>
        <time>2021-05-23T11:25:41.982Z</time>
      </trkpt>
      <trkpt lat="47.23747" lon="-2.30339">
        <ele>5</ele>
        <time>2021-05-23T11:25:42.982Z</time>
      </trkpt>
      <trkpt lat="47.23747" lon="-2.30336">
        <ele>5</ele>
        <time>2021-05-23T11:25:43.982Z</time>
      </trkpt>
      <trkpt lat="47.23746" lon="-2.30334">
        <ele>5</ele>
        <time>2021-05-23T11:25:44.982Z</time>
      </trkpt>
      <trkpt lat="47.23746" lon="-2.30333">
        <ele>4</ele>
        <time>2021-05-23T11:25:45.983Z</time>
      </trkpt>
      <trkpt lat="47.23746" lon="-2.30332">
        <ele>4</ele>
        <time>2021-05-23T11:25:46.983Z</time>
      </trkpt>
      <trkpt lat="47.23746" lon="-2.3033">
        <ele>4</ele>
        <time>2021-05-23T11:25:47.982Z</time>
      </trkpt>
      <trkpt lat="47.23746" lon="-2.30328">
        <ele>4</ele>
        <time>2021-05-23T11:25:48.982Z</time>
      </trkpt>
      <trkpt lat="47.23745" lon="-2.30326">
        <ele>5</ele>
        <time>2021-05-23T11:25:49.983Z</time>
      </trkpt>
      <trkpt lat="47.23745" lon="-2.30324">
        <ele>5</ele>
        <time>2021-05-23T11:25:50.982Z</time>
      </trkpt>
      <trkpt lat="47.23746" lon="-2.30323">
        <ele>5</ele>
        <time>2021-05-23T11:25:51.983Z</time>
      </trkpt>
      <trkpt lat="47.23746" lon="-2.30322">
        <ele>5</ele>
        <time>2021-05-23T11:25:52.982Z</time>
      </trkpt>
      <trkpt lat="47.23746" lon="-2.3032">
        <ele>5</ele>
        <time>2021-05-23T11:25:53.983Z</time>
      </trkpt>
      <trkpt lat="47.23746" lon="-2.30319">
        <ele>5</ele>
        <time>2021-05-23T11:25:54.982Z</time>
      </trkpt>
      <trkpt lat="47.23746" lon="-2.30317">
        <ele>5</ele>
        <time>2021-05-23T11:25:55.983Z</time>
      </trkpt>
      <trkpt lat="47.23746" lon="-2.30315">
        <ele>5</ele>
        <time>2021-05-23T11:25:56.983Z</time>
      </trkpt>
      <trkpt lat="47.23746" lon="-2.30313">
        <ele>5</ele>
        <time>2021-05-23T11:25:57.983Z</time>
      </trkpt>
      <trkpt lat="47.23746" lon="-2.30311">
        <ele>5</ele>
        <time>2021-05-23T11:25:58.983Z</time>
      </trkpt>
      <trkpt lat="47.23746" lon="-2.3031">
        <ele>5</ele>
        <time>2021-05-23T11:25:59.983Z</time>
      </trkpt>
      <trkpt lat="47.23746" lon="-2.30308">
        <ele>5</ele>
        <time>2021-05-23T11:26:00.983Z</time>
      </trkpt>
      <trkpt lat="47.23745" lon="-2.30307">
        <ele>5</ele>
        <time>2021-05-23T11:26:01.982Z</time>
      </trkpt>
      <trkpt lat="47.23744" lon="-2.30307">
        <ele>6</ele>
        <time>2021-05-23T11:26:02.983Z</time>
      </trkpt>
      <trkpt lat="47.23744" lon="-2.30306">
        <ele>5</ele>
        <time>2021-05-23T11:26:03.983Z</time>
      </trkpt>
      <trkpt lat="47.23744" lon="-2.30306">
        <ele>5</ele>
        <time>2021-05-23T11:26:04.983Z</time>
      </trkpt>
      <trkpt lat="47.23743" lon="-2.30305">
        <ele>5</ele>
        <time>2021-05-23T11:26:05.982Z</time>
      </trkpt>
      <trkpt lat="47.23743" lon="-2.30304">
        <ele>5</ele>
        <time>2021-05-23T11:26:06.983Z</time>
      </trkpt>
      <trkpt lat="47.23743" lon="-2.30304">
        <ele>5</ele>
        <time>2021-05-23T11:26:07.983Z</time>
      </trkpt>
      <trkpt lat="47.23743" lon="-2.30303">
        <ele>4</ele>
        <time>2021-05-23T11:26:08.982Z</time>
      </trkpt>
      <trkpt lat="47.23743" lon="-2.30302">
        <ele>4</ele>
        <time>2021-05-23T11:26:09.983Z</time>
      </trkpt>
      <trkpt lat="47.23743" lon="-2.30301">
        <ele>4</ele>
        <time>2021-05-23T11:26:10.983Z</time>
      </trkpt>
      <trkpt lat="47.23743" lon="-2.303">
        <ele>5</ele>
        <time>2021-05-23T11:26:11.982Z</time>
      </trkpt>
      <trkpt lat="47.23743" lon="-2.30299">
        <ele>6</ele>
        <time>2021-05-23T11:26:12.983Z</time>
      </trkpt>
      <trkpt lat="47.23744" lon="-2.30298">
        <ele>6</ele>
        <time>2021-05-23T11:26:13.983Z</time>
      </trkpt>
      <trkpt lat="47.23744" lon="-2.30297">
        <ele>7</ele>
        <time>2021-05-23T11:26:14.983Z</time>
      </trkpt>
      <trkpt lat="47.23743" lon="-2.30297">
        <ele>7</ele>
        <time>2021-05-23T11:26:15.982Z</time>
      </trkpt>
      <trkpt lat="47.23742" lon="-2.30296">
        <ele>7</ele>
        <time>2021-05-23T11:26:16.982Z</time>
      </trkpt>
      <trkpt lat="47.23741" lon="-2.30294">
        <ele>7</ele>
        <time>2021-05-23T11:26:17.983Z</time>
      </trkpt>
      <trkpt lat="47.23741" lon="-2.30293">
        <ele>7</ele>
        <time>2021-05-23T11:26:18.983Z</time>
      </trkpt>
      <trkpt lat="47.2374" lon="-2.30291">
        <ele>7</ele>
        <time>2021-05-23T11:26:19.982Z</time>
      </trkpt>
      <trkpt lat="47.23739" lon="-2.30289">
        <ele>7</ele>
        <time>2021-05-23T11:26:20.983Z</time>
      </trkpt>
      <trkpt lat="47.23738" lon="-2.30287">
        <ele>7</ele>
        <time>2021-05-23T11:26:21.983Z</time>
      </trkpt>
      <trkpt lat="47.23737" lon="-2.30285">
        <ele>8</ele>
        <time>2021-05-23T11:26:22.983Z</time>
      </trkpt>
      <trkpt lat="47.23736" lon="-2.30283">
        <ele>8</ele>
        <time>2021-05-23T11:26:23.982Z</time>
      </trkpt>
      <trkpt lat="47.23736" lon="-2.30281">
        <ele>9</ele>
        <time>2021-05-23T11:26:24.983Z</time>
      </trkpt>
      <trkpt lat="47.23735" lon="-2.30279">
        <ele>9</ele>
        <time>2021-05-23T11:26:25.983Z</time>
      </trkpt>
      <trkpt lat="47.23734" lon="-2.30277">
        <ele>10</ele>
        <time>2021-05-23T11:26:26.982Z</time>
      </trkpt>
      <trkpt lat="47.23733" lon="-2.30274">
        <ele>11</ele>
        <time>2021-05-23T11:26:27.983Z</time>
      </trkpt>
      <trkpt lat="47.23732" lon="-2.30272">
        <ele>11</ele>
        <time>2021-05-23T11:26:28.983Z</time>
      </trkpt>
      <trkpt lat="47.23732" lon="-2.3027">
        <ele>11</ele>
        <time>2021-05-23T11:26:29.983Z</time>
      </trkpt>
      <trkpt lat="47.23731" lon="-2.30268">
        <ele>12</ele>
        <time>2021-05-23T11:26:30.983Z</time>
      </trkpt>
      <trkpt lat="47.2373" lon="-2.30266">
        <ele>12</ele>
        <time>2021-05-23T11:26:31.982Z</time>
      </trkpt>
      <trkpt lat="47.23729" lon="-2.30264">
        <ele>12</ele>
        <time>2021-05-23T11:26:32.983Z</time>
      </trkpt>
      <trkpt lat="47.23728" lon="-2.30262">
        <ele>12</ele>
        <time>2021-05-23T11:26:33.983Z</time>
      </trkpt>
      <trkpt lat="47.23728" lon="-2.30261">
        <ele>12</ele>
        <time>2021-05-23T11:26:34.983Z</time>
      </trkpt>
      <trkpt lat="47.23728" lon="-2.30258">
        <ele>12</ele>
        <time>2021-05-23T11:26:35.982Z</time>
      </trkpt>
      <trkpt lat="47.23728" lon="-2.30256">
        <ele>11</ele>
        <time>2021-05-23T11:26:36.982Z</time>
      </trkpt>
      <trkpt lat="47.23728" lon="-2.30255">
        <ele>11</ele>
        <time>2021-05-23T11:26:37.982Z</time>
      </trkpt>
      <trkpt lat="47.23727" lon="-2.30252">
        <ele>11</ele>
        <time>2021-05-23T11:26:38.983Z</time>
      </trkpt>
      <trkpt lat="47.23726" lon="-2.3025">
        <ele>11</ele>
        <time>2021-05-23T11:26:39.983Z</time>
      </trkpt>
      <trkpt lat="47.23725" lon="-2.30249">
        <ele>11</ele>
        <time>2021-05-23T11:26:40.983Z</time>
      </trkpt>
      <trkpt lat="47.23725" lon="-2.30247">
        <ele>11</ele>
        <time>2021-05-23T11:26:41.983Z</time>
      </trkpt>
      <trkpt lat="47.23724" lon="-2.30245">
        <ele>11</ele>
        <time>2021-05-23T11:26:42.983Z</time>
      </trkpt>
      <trkpt lat="47.23724" lon="-2.30242">
        <ele>11</ele>
        <time>2021-05-23T11:26:43.983Z</time>
      </trkpt>
      <trkpt lat="47.23723" lon="-2.3024">
        <ele>12</ele>
        <time>2021-05-23T11:26:44.982Z</time>
      </trkpt>
      <trkpt lat="47.23722" lon="-2.30238">
        <ele>12</ele>
        <time>2021-05-23T11:26:45.982Z</time>
      </trkpt>
      <trkpt lat="47.23722" lon="-2.30236">
        <ele>13</ele>
        <time>2021-05-23T11:26:46.983Z</time>
      </trkpt>
      <trkpt lat="47.23721" lon="-2.30233">
        <ele>13</ele>
        <time>2021-05-23T11:26:47.982Z</time>
      </trkpt>
      <trkpt lat="47.2372" lon="-2.30231">
        <ele>13</ele>
        <time>2021-05-23T11:26:48.982Z</time>
      </trkpt>
      <trkpt lat="47.23719" lon="-2.30229">
        <ele>13</ele>
        <time>2021-05-23T11:26:49.982Z</time>
      </trkpt>
      <trkpt lat="47.23719" lon="-2.30227">
        <ele>13</ele>
        <time>2021-05-23T11:26:50.983Z</time>
      </trkpt>
      <trkpt lat="47.23718" lon="-2.30225">
        <ele>14</ele>
        <time>2021-05-23T11:26:51.982Z</time>
      </trkpt>
      <trkpt lat="47.23717" lon="-2.30224">
        <ele>14</ele>
        <time>2021-05-23T11:26:52.982Z</time>
      </trkpt>
      <trkpt lat="47.23717" lon="-2.30222">
        <ele>14</ele>
        <time>2021-05-23T11:26:53.982Z</time>
      </trkpt>
      <trkpt lat="47.23716" lon="-2.3022">
        <ele>14</ele>
        <time>2021-05-23T11:26:54.983Z</time>
      </trkpt>
      <trkpt lat="47.23715" lon="-2.30219">
        <ele>14</ele>
        <time>2021-05-23T11:26:55.982Z</time>
      </trkpt>
      <trkpt lat="47.23714" lon="-2.30217">
        <ele>14</ele>
        <time>2021-05-23T11:26:56.982Z</time>
      </trkpt>
      <trkpt lat="47.23713" lon="-2.30215">
        <ele>14</ele>
        <time>2021-05-23T11:26:57.983Z</time>
      </trkpt>
      <trkpt lat="47.23712" lon="-2.30214">
        <ele>14</ele>
        <time>2021-05-23T11:26:58.982Z</time>
      </trkpt>
      <trkpt lat="47.23711" lon="-2.30212">
        <ele>14</ele>
        <time>2021-05-23T11:26:59.983Z</time>
      </trkpt>
      <trkpt lat="47.23709" lon="-2.3021">
        <ele>14</ele>
        <time>2021-05-23T11:27:00.982Z</time>
      </trkpt>
      <trkpt lat="47.23708" lon="-2.30209">
        <ele>14</ele>
        <time>2021-05-23T11:27:01.983Z</time>
      </trkpt>
      <trkpt lat="47.23707" lon="-2.30207">
        <ele>14</ele>
        <time>2021-05-23T11:27:02.982Z</time>
      </trkpt>
      <trkpt lat="47.23706" lon="-2.30206">
        <ele>14</ele>
        <time>2021-05-23T11:27:03.983Z</time>
      </trkpt>
      <trkpt lat="47.23705" lon="-2.30205">
        <ele>14</ele>
        <time>2021-05-23T11:27:04.983Z</time>
      </trkpt>
      <trkpt lat="47.23704" lon="-2.30203">
        <ele>14</ele>
        <time>2021-05-23T11:27:05.982Z</time>
      </trkpt>
      <trkpt lat="47.23703" lon="-2.30201">
        <ele>14</ele>
        <time>2021-05-23T11:27:06.983Z</time>
      </trkpt>
      <trkpt lat="47.23701" lon="-2.30199">
        <ele>14</ele>
        <time>2021-05-23T11:27:07.982Z</time>
      </trkpt>
      <trkpt lat="47.23701" lon="-2.30198">
        <ele>14</ele>
        <time>2021-05-23T11:27:08.983Z</time>
      </trkpt>
      <trkpt lat="47.237" lon="-2.30195">
        <ele>14</ele>
        <time>2021-05-23T11:27:09.983Z</time>
      </trkpt>
      <trkpt lat="47.23699" lon="-2.30194">
        <ele>14</ele>
        <time>2021-05-23T11:27:10.983Z</time>
      </trkpt>
      <trkpt lat="47.23698" lon="-2.30192">
        <ele>14</ele>
        <time>2021-05-23T11:27:11.983Z</time>
      </trkpt>
      <trkpt lat="47.23698" lon="-2.3019">
        <ele>14</ele>
        <time>2021-05-23T11:27:12.982Z</time>
      </trkpt>
      <trkpt lat="47.23697" lon="-2.30188">
        <ele>13</ele>
        <time>2021-05-23T11:27:13.982Z</time>
      </trkpt>
      <trkpt lat="47.23696" lon="-2.30187">
        <ele>13</ele>
        <time>2021-05-23T11:27:14.983Z</time>
      </trkpt>
      <trkpt lat="47.23696" lon="-2.30185">
        <ele>13</ele>
        <time>2021-05-23T11:27:15.982Z</time>
      </trkpt>
      <trkpt lat="47.23695" lon="-2.30183">
        <ele>13</ele>
        <time>2021-05-23T11:27:16.983Z</time>
      </trkpt>
      <trkpt lat="47.23694" lon="-2.30181">
        <ele>14</ele>
        <time>2021-05-23T11:27:17.982Z</time>
      </trkpt>
      <trkpt lat="47.23694" lon="-2.30179">
        <ele>14</ele>
        <time>2021-05-23T11:27:18.983Z</time>
      </trkpt>
      <trkpt lat="47.23693" lon="-2.30177">
        <ele>15</ele>
        <time>2021-05-23T11:27:19.983Z</time>
      </trkpt>
      <trkpt lat="47.23692" lon="-2.30175">
        <ele>15</ele>
        <time>2021-05-23T11:27:20.982Z</time>
      </trkpt>
      <trkpt lat="47.23691" lon="-2.30173">
        <ele>15</ele>
        <time>2021-05-23T11:27:21.983Z</time>
      </trkpt>
      <trkpt lat="47.23691" lon="-2.30171">
        <ele>15</ele>
        <time>2021-05-23T11:27:22.982Z</time>
      </trkpt>
      <trkpt lat="47.2369" lon="-2.30169">
        <ele>15</ele>
        <time>2021-05-23T11:27:23.983Z</time>
      </trkpt>
      <trkpt lat="47.2369" lon="-2.30167">
        <ele>15</ele>
        <time>2021-05-23T11:27:24.983Z</time>
      </trkpt>
      <trkpt lat="47.23689" lon="-2.30166">
        <ele>15</ele>
        <time>2021-05-23T11:27:25.982Z</time>
      </trkpt>
      <trkpt lat="47.23688" lon="-2.30164">
        <ele>15</ele>
        <time>2021-05-23T11:27:26.983Z</time>
      </trkpt>
      <trkpt lat="47.23688" lon="-2.30161">
        <ele>15</ele>
        <time>2021-05-23T11:27:27.983Z</time>
      </trkpt>
      <trkpt lat="47.23687" lon="-2.30159">
        <ele>15</ele>
        <time>2021-05-23T11:27:28.983Z</time>
      </trkpt>
      <trkpt lat="47.23685" lon="-2.30157">
        <ele>15</ele>
        <time>2021-05-23T11:27:29.982Z</time>
      </trkpt>
      <trkpt lat="47.23684" lon="-2.30154">
        <ele>16</ele>
        <time>2021-05-23T11:27:30.983Z</time>
      </trkpt>
      <trkpt lat="47.23683" lon="-2.30152">
        <ele>16</ele>
        <time>2021-05-23T11:27:31.983Z</time>
      </trkpt>
      <trkpt lat="47.23681" lon="-2.3015">
        <ele>17</ele>
        <time>2021-05-23T11:27:32.983Z</time>
      </trkpt>
      <trkpt lat="47.2368" lon="-2.30147">
        <ele>17</ele>
        <time>2021-05-23T11:27:33.982Z</time>
      </trkpt>
      <trkpt lat="47.23678" lon="-2.30145">
        <ele>17</ele>
        <time>2021-05-23T11:27:34.982Z</time>
      </trkpt>
      <trkpt lat="47.23676" lon="-2.30143">
        <ele>17</ele>
        <time>2021-05-23T11:27:35.982Z</time>
      </trkpt>
      <trkpt lat="47.23673" lon="-2.30141">
        <ele>17</ele>
        <time>2021-05-23T11:27:36.982Z</time>
      </trkpt>
      <trkpt lat="47.23671" lon="-2.30138">
        <ele>17</ele>
        <time>2021-05-23T11:27:37.982Z</time>
      </trkpt>
      <trkpt lat="47.23669" lon="-2.30136">
        <ele>17</ele>
        <time>2021-05-23T11:27:38.983Z</time>
      </trkpt>
      <trkpt lat="47.23668" lon="-2.30134">
        <ele>17</ele>
        <time>2021-05-23T11:27:39.982Z</time>
      </trkpt>
      <trkpt lat="47.23666" lon="-2.30132">
        <ele>16</ele>
        <time>2021-05-23T11:27:40.983Z</time>
      </trkpt>
      <trkpt lat="47.23664" lon="-2.3013">
        <ele>17</ele>
        <time>2021-05-23T11:27:41.983Z</time>
      </trkpt>
      <trkpt lat="47.23662" lon="-2.30128">
        <ele>17</ele>
        <time>2021-05-23T11:27:42.982Z</time>
      </trkpt>
      <trkpt lat="47.23659" lon="-2.30127">
        <ele>17</ele>
        <time>2021-05-23T11:27:43.982Z</time>
      </trkpt>
      <trkpt lat="47.23657" lon="-2.30126">
        <ele>17</ele>
        <time>2021-05-23T11:27:44.982Z</time>
      </trkpt>
      <trkpt lat="47.23655" lon="-2.30125">
        <ele>16</ele>
        <time>2021-05-23T11:27:45.983Z</time>
      </trkpt>
      <trkpt lat="47.23652" lon="-2.30124">
        <ele>16</ele>
        <time>2021-05-23T11:27:46.983Z</time>
      </trkpt>
      <trkpt lat="47.2365" lon="-2.30123">
        <ele>16</ele>
        <time>2021-05-23T11:27:47.983Z</time>
      </trkpt>
      <trkpt lat="47.23648" lon="-2.30123">
        <ele>16</ele>
        <time>2021-05-23T11:27:48.982Z</time>
      </trkpt>
      <trkpt lat="47.23645" lon="-2.30122">
        <ele>15</ele>
        <time>2021-05-23T11:27:49.983Z</time>
      </trkpt>
      <trkpt lat="47.23643" lon="-2.30122">
        <ele>15</ele>
        <time>2021-05-23T11:27:50.982Z</time>
      </trkpt>
      <trkpt lat="47.23641" lon="-2.30122">
        <ele>15</ele>
        <time>2021-05-23T11:27:51.983Z</time>
      </trkpt>
      <trkpt lat="47.23639" lon="-2.30121">
        <ele>15</ele>
        <time>2021-05-23T11:27:52.983Z</time>
      </trkpt>
      <trkpt lat="47.23637" lon="-2.3012">
        <ele>15</ele>
        <time>2021-05-23T11:27:53.983Z</time>
      </trkpt>
      <trkpt lat="47.23635" lon="-2.30118">
        <ele>16</ele>
        <time>2021-05-23T11:27:54.983Z</time>
      </trkpt>
      <trkpt lat="47.23633" lon="-2.30117">
        <ele>16</ele>
        <time>2021-05-23T11:27:55.983Z</time>
      </trkpt>
      <trkpt lat="47.23631" lon="-2.30116">
        <ele>16</ele>
        <time>2021-05-23T11:27:56.983Z</time>
      </trkpt>
      <trkpt lat="47.23629" lon="-2.30115">
        <ele>16</ele>
        <time>2021-05-23T11:27:57.983Z</time>
      </trkpt>
      <trkpt lat="47.23627" lon="-2.30114">
        <ele>16</ele>
        <time>2021-05-23T11:27:58.982Z</time>
      </trkpt>
      <trkpt lat="47.23625" lon="-2.30112">
        <ele>16</ele>
        <time>2021-05-23T11:27:59.982Z</time>
      </trkpt>
      <trkpt lat="47.23624" lon="-2.30111">
        <ele>16</ele>
        <time>2021-05-23T11:28:00.982Z</time>
      </trkpt>
      <trkpt lat="47.23622" lon="-2.3011">
        <ele>16</ele>
        <time>2021-05-23T11:28:01.982Z</time>
      </trkpt>
      <trkpt lat="47.2362" lon="-2.30109">
        <ele>16</ele>
        <time>2021-05-23T11:28:02.982Z</time>
      </trkpt>
      <trkpt lat="47.23618" lon="-2.30108">
        <ele>16</ele>
        <time>2021-05-23T11:28:03.982Z</time>
      </trkpt>
      <trkpt lat="47.23616" lon="-2.30108">
        <ele>16</ele>
        <time>2021-05-23T11:28:04.982Z</time>
      </trkpt>
      <trkpt lat="47.23615" lon="-2.30106">
        <ele>16</ele>
        <time>2021-05-23T11:28:05.982Z</time>
      </trkpt>
      <trkpt lat="47.23613" lon="-2.30106">
        <ele>16</ele>
        <time>2021-05-23T11:28:06.982Z</time>
      </trkpt>
      <trkpt lat="47.23611" lon="-2.30105">
        <ele>16</ele>
        <time>2021-05-23T11:28:07.982Z</time>
      </trkpt>
      <trkpt lat="47.23609" lon="-2.30104">
        <ele>16</ele>
        <time>2021-05-23T11:28:08.982Z</time>
      </trkpt>
      <trkpt lat="47.23607" lon="-2.30104">
        <ele>16</ele>
        <time>2021-05-23T11:28:09.983Z</time>
      </trkpt>
      <trkpt lat="47.23605" lon="-2.30104">
        <ele>16</ele>
        <time>2021-05-23T11:28:10.983Z</time>
      </trkpt>
      <trkpt lat="47.23603" lon="-2.30104">
        <ele>16</ele>
        <time>2021-05-23T11:28:11.983Z</time>
      </trkpt>
      <trkpt lat="47.23601" lon="-2.30104">
        <ele>16</ele>
        <time>2021-05-23T11:28:12.982Z</time>
      </trkpt>
      <trkpt lat="47.23599" lon="-2.30105">
        <ele>16</ele>
        <time>2021-05-23T11:28:13.983Z</time>
      </trkpt>
      <trkpt lat="47.23597" lon="-2.30106">
        <ele>16</ele>
        <time>2021-05-23T11:28:14.982Z</time>
      </trkpt>
      <trkpt lat="47.23595" lon="-2.30106">
        <ele>16</ele>
        <time>2021-05-23T11:28:15.983Z</time>
      </trkpt>
      <trkpt lat="47.23592" lon="-2.30107">
        <ele>16</ele>
        <time>2021-05-23T11:28:16.983Z</time>
      </trkpt>
      <trkpt lat="47.2359" lon="-2.30107">
        <ele>16</ele>
        <time>2021-05-23T11:28:17.982Z</time>
      </trkpt>
      <trkpt lat="47.23589" lon="-2.30108">
        <ele>16</ele>
        <time>2021-05-23T11:28:18.983Z</time>
      </trkpt>
      <trkpt lat="47.23587" lon="-2.30108">
        <ele>16</ele>
        <time>2021-05-23T11:28:19.983Z</time>
      </trkpt>
      <trkpt lat="47.23586" lon="-2.30108">
        <ele>16</ele>
        <time>2021-05-23T11:28:20.983Z</time>
      </trkpt>
      <trkpt lat="47.23584" lon="-2.30109">
        <ele>17</ele>
        <time>2021-05-23T11:28:21.983Z</time>
      </trkpt>
      <trkpt lat="47.23582" lon="-2.30109">
        <ele>17</ele>
        <time>2021-05-23T11:28:22.983Z</time>
      </trkpt>
      <trkpt lat="47.23581" lon="-2.3011">
        <ele>17</ele>
        <time>2021-05-23T11:28:23.982Z</time>
      </trkpt>
      <trkpt lat="47.23579" lon="-2.30109">
        <ele>17</ele>
        <time>2021-05-23T11:28:24.982Z</time>
      </trkpt>
      <trkpt lat="47.23577" lon="-2.30109">
        <ele>18</ele>
        <time>2021-05-23T11:28:25.983Z</time>
      </trkpt>
      <trkpt lat="47.23576" lon="-2.30111">
        <ele>19</ele>
        <time>2021-05-23T11:28:26.983Z</time>
      </trkpt>
      <trkpt lat="47.23574" lon="-2.30111">
        <ele>19</ele>
        <time>2021-05-23T11:28:27.983Z</time>
      </trkpt>
      <trkpt lat="47.23573" lon="-2.30111">
        <ele>19</ele>
        <time>2021-05-23T11:28:28.983Z</time>
      </trkpt>
      <trkpt lat="47.23571" lon="-2.30111">
        <ele>20</ele>
        <time>2021-05-23T11:28:29.983Z</time>
      </trkpt>
      <trkpt lat="47.2357" lon="-2.3011">
        <ele>20</ele>
        <time>2021-05-23T11:28:30.983Z</time>
      </trkpt>
      <trkpt lat="47.23568" lon="-2.30111">
        <ele>20</ele>
        <time>2021-05-23T11:28:31.982Z</time>
      </trkpt>
      <trkpt lat="47.23566" lon="-2.3011">
        <ele>20</ele>
        <time>2021-05-23T11:28:32.983Z</time>
      </trkpt>
      <trkpt lat="47.23565" lon="-2.3011">
        <ele>20</ele>
        <time>2021-05-23T11:28:33.982Z</time>
      </trkpt>
      <trkpt lat="47.23564" lon="-2.30109">
        <ele>21</ele>
        <time>2021-05-23T11:28:34.983Z</time>
      </trkpt>
      <trkpt lat="47.23563" lon="-2.30108">
        <ele>21</ele>
        <time>2021-05-23T11:28:35.982Z</time>
      </trkpt>
      <trkpt lat="47.23562" lon="-2.30106">
        <ele>21</ele>
        <time>2021-05-23T11:28:36.983Z</time>
      </trkpt>
      <trkpt lat="47.23562" lon="-2.30104">
        <ele>21</ele>
        <time>2021-05-23T11:28:37.982Z</time>
      </trkpt>
      <trkpt lat="47.23562" lon="-2.30102">
        <ele>21</ele>
        <time>2021-05-23T11:28:38.983Z</time>
      </trkpt>
      <trkpt lat="47.23562" lon="-2.301">
        <ele>21</ele>
        <time>2021-05-23T11:28:39.982Z</time>
      </trkpt>
      <trkpt lat="47.23561" lon="-2.30097">
        <ele>21</ele>
        <time>2021-05-23T11:28:40.982Z</time>
      </trkpt>
      <trkpt lat="47.2356" lon="-2.30095">
        <ele>21</ele>
        <time>2021-05-23T11:28:41.983Z</time>
      </trkpt>
      <trkpt lat="47.2356" lon="-2.30092">
        <ele>22</ele>
        <time>2021-05-23T11:28:42.983Z</time>
      </trkpt>
      <trkpt lat="47.2356" lon="-2.30089">
        <ele>22</ele>
        <time>2021-05-23T11:28:43.982Z</time>
      </trkpt>
      <trkpt lat="47.2356" lon="-2.30087">
        <ele>22</ele>
        <time>2021-05-23T11:28:44.983Z</time>
      </trkpt>
      <trkpt lat="47.2356" lon="-2.30086">
        <ele>22</ele>
        <time>2021-05-23T11:28:45.983Z</time>
      </trkpt>
      <trkpt lat="47.2356" lon="-2.30083">
        <ele>23</ele>
        <time>2021-05-23T11:28:46.983Z</time>
      </trkpt>
      <trkpt lat="47.2356" lon="-2.30081">
        <ele>23</ele>
        <time>2021-05-23T11:28:47.982Z</time>
      </trkpt>
      <trkpt lat="47.2356" lon="-2.30079">
        <ele>23</ele>
        <time>2021-05-23T11:28:48.982Z</time>
      </trkpt>
      <trkpt lat="47.2356" lon="-2.30077">
        <ele>23</ele>
        <time>2021-05-23T11:28:49.982Z</time>
      </trkpt>
      <trkpt lat="47.23559" lon="-2.30075">
        <ele>24</ele>
        <time>2021-05-23T11:28:50.983Z</time>
      </trkpt>
      <trkpt lat="47.23559" lon="-2.30072">
        <ele>24</ele>
        <time>2021-05-23T11:28:51.983Z</time>
      </trkpt>
      <trkpt lat="47.23559" lon="-2.3007">
        <ele>24</ele>
        <time>2021-05-23T11:28:52.982Z</time>
      </trkpt>
      <trkpt lat="47.23558" lon="-2.30067">
        <ele>24</ele>
        <time>2021-05-23T11:28:53.982Z</time>
      </trkpt>
      <trkpt lat="47.23558" lon="-2.30063">
        <ele>24</ele>
        <time>2021-05-23T11:28:54.983Z</time>
      </trkpt>
      <trkpt lat="47.23557" lon="-2.3006">
        <ele>24</ele>
        <time>2021-05-23T11:28:55.983Z</time>
      </trkpt>
      <trkpt lat="47.23556" lon="-2.30057">
        <ele>24</ele>
        <time>2021-05-23T11:28:56.982Z</time>
      </trkpt>
      <trkpt lat="47.23555" lon="-2.30054">
        <ele>24</ele>
        <time>2021-05-23T11:28:57.983Z</time>
      </trkpt>
      <trkpt lat="47.23555" lon="-2.3005">
        <ele>24</ele>
        <time>2021-05-23T11:28:58.982Z</time>
      </trkpt>
      <trkpt lat="47.23554" lon="-2.30047">
        <ele>24</ele>
        <time>2021-05-23T11:28:59.983Z</time>
      </trkpt>
      <trkpt lat="47.23553" lon="-2.30044">
        <ele>24</ele>
        <time>2021-05-23T11:29:00.983Z</time>
      </trkpt>
      <trkpt lat="47.23552" lon="-2.30041">
        <ele>24</ele>
        <time>2021-05-23T11:29:01.983Z</time>
      </trkpt>
      <trkpt lat="47.23551" lon="-2.30038">
        <ele>24</ele>
        <time>2021-05-23T11:29:02.983Z</time>
      </trkpt>
      <trkpt lat="47.2355" lon="-2.30035">
        <ele>24</ele>
        <time>2021-05-23T11:29:03.983Z</time>
      </trkpt>
      <trkpt lat="47.23549" lon="-2.30033">
        <ele>24</ele>
        <time>2021-05-23T11:29:04.983Z</time>
      </trkpt>
      <trkpt lat="47.23548" lon="-2.30031">
        <ele>24</ele>
        <time>2021-05-23T11:29:05.983Z</time>
      </trkpt>
      <trkpt lat="47.23547" lon="-2.3003">
        <ele>25</ele>
        <time>2021-05-23T11:29:06.982Z</time>
      </trkpt>
      <trkpt lat="47.23545" lon="-2.30028">
        <ele>25</ele>
        <time>2021-05-23T11:29:07.982Z</time>
      </trkpt>
      <trkpt lat="47.23544" lon="-2.30026">
        <ele>25</ele>
        <time>2021-05-23T11:29:08.983Z</time>
      </trkpt>
      <trkpt lat="47.23543" lon="-2.30025">
        <ele>24</ele>
        <time>2021-05-23T11:29:09.983Z</time>
      </trkpt>
      <trkpt lat="47.23542" lon="-2.30024">
        <ele>24</ele>
        <time>2021-05-23T11:29:10.982Z</time>
      </trkpt>
      <trkpt lat="47.2354" lon="-2.30024">
        <ele>24</ele>
        <time>2021-05-23T11:29:11.982Z</time>
      </trkpt>
      <trkpt lat="47.23539" lon="-2.30022">
        <ele>23</ele>
        <time>2021-05-23T11:29:12.983Z</time>
      </trkpt>
      <trkpt lat="47.23538" lon="-2.30022">
        <ele>23</ele>
        <time>2021-05-23T11:29:13.982Z</time>
      </trkpt>
      <trkpt lat="47.23537" lon="-2.30021">
        <ele>22</ele>
        <time>2021-05-23T11:29:14.983Z</time>
      </trkpt>
      <trkpt lat="47.23536" lon="-2.3002">
        <ele>22</ele>
        <time>2021-05-23T11:29:15.983Z</time>
      </trkpt>
      <trkpt lat="47.23535" lon="-2.30019">
        <ele>21</ele>
        <time>2021-05-23T11:29:16.983Z</time>
      </trkpt>
      <trkpt lat="47.23534" lon="-2.30018">
        <ele>20</ele>
        <time>2021-05-23T11:29:17.983Z</time>
      </trkpt>
      <trkpt lat="47.23533" lon="-2.30017">
        <ele>19</ele>
        <time>2021-05-23T11:29:18.983Z</time>
      </trkpt>
      <trkpt lat="47.23532" lon="-2.30015">
        <ele>19</ele>
        <time>2021-05-23T11:29:19.982Z</time>
      </trkpt>
      <trkpt lat="47.23531" lon="-2.30014">
        <ele>18</ele>
        <time>2021-05-23T11:29:20.982Z</time>
      </trkpt>
      <trkpt lat="47.2353" lon="-2.30013">
        <ele>18</ele>
        <time>2021-05-23T11:29:21.982Z</time>
      </trkpt>
      <trkpt lat="47.2353" lon="-2.30012">
        <ele>18</ele>
        <time>2021-05-23T11:29:22.982Z</time>
      </trkpt>
      <trkpt lat="47.23528" lon="-2.30011">
        <ele>18</ele>
        <time>2021-05-23T11:29:23.983Z</time>
      </trkpt>
      <trkpt lat="47.23527" lon="-2.3001">
        <ele>18</ele>
        <time>2021-05-23T11:29:24.982Z</time>
      </trkpt>
      <trkpt lat="47.23526" lon="-2.30009">
        <ele>18</ele>
        <time>2021-05-23T11:29:25.982Z</time>
      </trkpt>
      <trkpt lat="47.23524" lon="-2.30008">
        <ele>18</ele>
        <time>2021-05-23T11:29:26.982Z</time>
      </trkpt>
      <trkpt lat="47.23523" lon="-2.30006">
        <ele>18</ele>
        <time>2021-05-23T11:29:27.982Z</time>
      </trkpt>
      <trkpt lat="47.23522" lon="-2.30005">
        <ele>18</ele>
        <time>2021-05-23T11:29:28.983Z</time>
      </trkpt>
      <trkpt lat="47.23521" lon="-2.30004">
        <ele>18</ele>
        <time>2021-05-23T11:29:29.982Z</time>
      </trkpt>
      <trkpt lat="47.2352" lon="-2.30003">
        <ele>18</ele>
        <time>2021-05-23T11:29:30.983Z</time>
      </trkpt>
      <trkpt lat="47.23519" lon="-2.30002">
        <ele>19</ele>
        <time>2021-05-23T11:29:31.983Z</time>
      </trkpt>
      <trkpt lat="47.23517" lon="-2.30002">
        <ele>19</ele>
        <time>2021-05-23T11:29:32.982Z</time>
      </trkpt>
      <trkpt lat="47.23515" lon="-2.30002">
        <ele>20</ele>
        <time>2021-05-23T11:29:33.982Z</time>
      </trkpt>
      <trkpt lat="47.23513" lon="-2.30001">
        <ele>21</ele>
        <time>2021-05-23T11:29:34.983Z</time>
      </trkpt>
      <trkpt lat="47.23512" lon="-2.30001">
        <ele>21</ele>
        <time>2021-05-23T11:29:35.982Z</time>
      </trkpt>
      <trkpt lat="47.23511" lon="-2.29999">
        <ele>21</ele>
        <time>2021-05-23T11:29:36.983Z</time>
      </trkpt>
      <trkpt lat="47.23509" lon="-2.29998">
        <ele>21</ele>
        <time>2021-05-23T11:29:37.983Z</time>
      </trkpt>
      <trkpt lat="47.23508" lon="-2.29997">
        <ele>21</ele>
        <time>2021-05-23T11:29:38.983Z</time>
      </trkpt>
      <trkpt lat="47.23507" lon="-2.29996">
        <ele>21</ele>
        <time>2021-05-23T11:29:39.982Z</time>
      </trkpt>
      <trkpt lat="47.23506" lon="-2.29995">
        <ele>21</ele>
        <time>2021-05-23T11:29:40.982Z</time>
      </trkpt>
      <trkpt lat="47.23504" lon="-2.29994">
        <ele>21</ele>
        <time>2021-05-23T11:29:41.983Z</time>
      </trkpt>
      <trkpt lat="47.23501" lon="-2.29994">
        <ele>20</ele>
        <time>2021-05-23T11:29:42.983Z</time>
      </trkpt>
      <trkpt lat="47.23498" lon="-2.29994">
        <ele>20</ele>
        <time>2021-05-23T11:29:43.983Z</time>
      </trkpt>
      <trkpt lat="47.23496" lon="-2.29995">
        <ele>20</ele>
        <time>2021-05-23T11:29:44.983Z</time>
      </trkpt>
      <trkpt lat="47.23493" lon="-2.29995">
        <ele>19</ele>
        <time>2021-05-23T11:29:45.983Z</time>
      </trkpt>
      <trkpt lat="47.23491" lon="-2.29995">
        <ele>19</ele>
        <time>2021-05-23T11:29:46.983Z</time>
      </trkpt>
      <trkpt lat="47.2349" lon="-2.29994">
        <ele>19</ele>
        <time>2021-05-23T11:29:47.983Z</time>
      </trkpt>
      <trkpt lat="47.23489" lon="-2.29994">
        <ele>19</ele>
        <time>2021-05-23T11:29:48.983Z</time>
      </trkpt>
      <trkpt lat="47.23489" lon="-2.29991">
        <ele>18</ele>
        <time>2021-05-23T11:29:49.983Z</time>
      </trkpt>
      <trkpt lat="47.23487" lon="-2.29989">
        <ele>18</ele>
        <time>2021-05-23T11:29:50.982Z</time>
      </trkpt>
      <trkpt lat="47.23485" lon="-2.29987">
        <ele>18</ele>
        <time>2021-05-23T11:29:51.983Z</time>
      </trkpt>
      <trkpt lat="47.23483" lon="-2.29984">
        <ele>18</ele>
        <time>2021-05-23T11:29:52.982Z</time>
      </trkpt>
      <trkpt lat="47.23482" lon="-2.29982">
        <ele>18</ele>
        <time>2021-05-23T11:29:53.983Z</time>
      </trkpt>
      <trkpt lat="47.2348" lon="-2.29978">
        <ele>18</ele>
        <time>2021-05-23T11:29:54.982Z</time>
      </trkpt>
      <trkpt lat="47.23479" lon="-2.29975">
        <ele>17</ele>
        <time>2021-05-23T11:29:55.982Z</time>
      </trkpt>
      <trkpt lat="47.23477" lon="-2.29972">
        <ele>17</ele>
        <time>2021-05-23T11:29:56.983Z</time>
      </trkpt>
      <trkpt lat="47.23476" lon="-2.2997">
        <ele>17</ele>
        <time>2021-05-23T11:29:57.983Z</time>
      </trkpt>
      <trkpt lat="47.23475" lon="-2.29967">
        <ele>18</ele>
        <time>2021-05-23T11:29:58.982Z</time>
      </trkpt>
      <trkpt lat="47.23473" lon="-2.29964">
        <ele>18</ele>
        <time>2021-05-23T11:29:59.983Z</time>
      </trkpt>
      <trkpt lat="47.23472" lon="-2.29962">
        <ele>19</ele>
        <time>2021-05-23T11:30:00.983Z</time>
      </trkpt>
      <trkpt lat="47.23471" lon="-2.2996">
        <ele>19</ele>
        <time>2021-05-23T11:30:01.982Z</time>
      </trkpt>
      <trkpt lat="47.23469" lon="-2.29958">
        <ele>20</ele>
        <time>2021-05-23T11:30:02.982Z</time>
      </trkpt>
      <trkpt lat="47.23467" lon="-2.29957">
        <ele>20</ele>
        <time>2021-05-23T11:30:03.983Z</time>
      </trkpt>
      <trkpt lat="47.23464" lon="-2.29955">
        <ele>21</ele>
        <time>2021-05-23T11:30:04.983Z</time>
      </trkpt>
      <trkpt lat="47.23462" lon="-2.29952">
        <ele>21</ele>
        <time>2021-05-23T11:30:05.983Z</time>
      </trkpt>
      <trkpt lat="47.2346" lon="-2.29949">
        <ele>22</ele>
        <time>2021-05-23T11:30:06.983Z</time>
      </trkpt>
      <trkpt lat="47.23458" lon="-2.29947">
        <ele>22</ele>
        <time>2021-05-23T11:30:07.982Z</time>
      </trkpt>
      <trkpt lat="47.23456" lon="-2.29945">
        <ele>23</ele>
        <time>2021-05-23T11:30:08.983Z</time>
      </trkpt>
      <trkpt lat="47.23453" lon="-2.29943">
        <ele>23</ele>
        <time>2021-05-23T11:30:09.983Z</time>
      </trkpt>
      <trkpt lat="47.23451" lon="-2.29941">
        <ele>23</ele>
        <time>2021-05-23T11:30:10.983Z</time>
      </trkpt>
      <trkpt lat="47.23448" lon="-2.29939">
        <ele>23</ele>
        <time>2021-05-23T11:30:11.982Z</time>
      </trkpt>
      <trkpt lat="47.23446" lon="-2.29938">
        <ele>23</ele>
        <time>2021-05-23T11:30:12.982Z</time>
      </trkpt>
      <trkpt lat="47.23443" lon="-2.29937">
        <ele>23</ele>
        <time>2021-05-23T11:30:13.983Z</time>
      </trkpt>
      <trkpt lat="47.23442" lon="-2.29935">
        <ele>23</ele>
        <time>2021-05-23T11:30:14.983Z</time>
      </trkpt>
      <trkpt lat="47.2344" lon="-2.29933">
        <ele>22</ele>
        <time>2021-05-23T11:30:15.983Z</time>
      </trkpt>
      <trkpt lat="47.23438" lon="-2.29931">
        <ele>22</ele>
        <time>2021-05-23T11:30:16.983Z</time>
      </trkpt>
      <trkpt lat="47.23436" lon="-2.29928">
        <ele>23</ele>
        <time>2021-05-23T11:30:17.982Z</time>
      </trkpt>
      <trkpt lat="47.23434" lon="-2.29926">
        <ele>23</ele>
        <time>2021-05-23T11:30:18.983Z</time>
      </trkpt>
      <trkpt lat="47.23432" lon="-2.29923">
        <ele>23</ele>
        <time>2021-05-23T11:30:19.982Z</time>
      </trkpt>
      <trkpt lat="47.2343" lon="-2.29921">
        <ele>23</ele>
        <time>2021-05-23T11:30:20.982Z</time>
      </trkpt>
      <trkpt lat="47.23429" lon="-2.29919">
        <ele>23</ele>
        <time>2021-05-23T11:30:21.983Z</time>
      </trkpt>
      <trkpt lat="47.23427" lon="-2.29918">
        <ele>23</ele>
        <time>2021-05-23T11:30:22.982Z</time>
      </trkpt>
      <trkpt lat="47.23426" lon="-2.29918">
        <ele>22</ele>
        <time>2021-05-23T11:30:23.983Z</time>
      </trkpt>
      <trkpt lat="47.23425" lon="-2.29918">
        <ele>22</ele>
        <time>2021-05-23T11:30:24.983Z</time>
      </trkpt>
      <trkpt lat="47.23424" lon="-2.29917">
        <ele>22</ele>
        <time>2021-05-23T11:30:25.983Z</time>
      </trkpt>
      <trkpt lat="47.23423" lon="-2.29917">
        <ele>21</ele>
        <time>2021-05-23T11:30:26.983Z</time>
      </trkpt>
      <trkpt lat="47.23422" lon="-2.29916">
        <ele>21</ele>
        <time>2021-05-23T11:30:27.983Z</time>
      </trkpt>
      <trkpt lat="47.23421" lon="-2.29916">
        <ele>21</ele>
        <time>2021-05-23T11:30:28.982Z</time>
      </trkpt>
      <trkpt lat="47.2342" lon="-2.29915">
        <ele>21</ele>
        <time>2021-05-23T11:30:29.982Z</time>
      </trkpt>
      <trkpt lat="47.23419" lon="-2.29915">
        <ele>20</ele>
        <time>2021-05-23T11:30:30.982Z</time>
      </trkpt>
      <trkpt lat="47.23419" lon="-2.29915">
        <ele>20</ele>
        <time>2021-05-23T11:30:31.983Z</time>
      </trkpt>
      <trkpt lat="47.23418" lon="-2.29915">
        <ele>20</ele>
        <time>2021-05-23T11:30:32.983Z</time>
      </trkpt>
      <trkpt lat="47.23416" lon="-2.29913">
        <ele>20</ele>
        <time>2021-05-23T11:30:33.983Z</time>
      </trkpt>
      <trkpt lat="47.23415" lon="-2.29912">
        <ele>19</ele>
        <time>2021-05-23T11:30:34.983Z</time>
      </trkpt>
      <trkpt lat="47.23413" lon="-2.29912">
        <ele>19</ele>
        <time>2021-05-23T11:30:35.983Z</time>
      </trkpt>
      <trkpt lat="47.23411" lon="-2.29912">
        <ele>20</ele>
        <time>2021-05-23T11:30:36.982Z</time>
      </trkpt>
      <trkpt lat="47.23408" lon="-2.29911">
        <ele>20</ele>
        <time>2021-05-23T11:30:37.982Z</time>
      </trkpt>
      <trkpt lat="47.23407" lon="-2.29911">
        <ele>19</ele>
        <time>2021-05-23T11:30:38.983Z</time>
      </trkpt>
      <trkpt lat="47.23405" lon="-2.29909">
        <ele>19</ele>
        <time>2021-05-23T11:30:39.982Z</time>
      </trkpt>
      <trkpt lat="47.23404" lon="-2.29909">
        <ele>19</ele>
        <time>2021-05-23T11:30:40.983Z</time>
      </trkpt>
      <trkpt lat="47.23403" lon="-2.29908">
        <ele>19</ele>
        <time>2021-05-23T11:30:41.983Z</time>
      </trkpt>
      <trkpt lat="47.23403" lon="-2.29907">
        <ele>18</ele>
        <time>2021-05-23T11:30:42.982Z</time>
      </trkpt>
      <trkpt lat="47.23402" lon="-2.29907">
        <ele>18</ele>
        <time>2021-05-23T11:30:43.982Z</time>
      </trkpt>
      <trkpt lat="47.23401" lon="-2.29906">
        <ele>19</ele>
        <time>2021-05-23T11:30:44.983Z</time>
      </trkpt>
      <trkpt lat="47.234" lon="-2.29906">
        <ele>19</ele>
        <time>2021-05-23T11:30:45.983Z</time>
      </trkpt>
      <trkpt lat="47.23399" lon="-2.29904">
        <ele>19</ele>
        <time>2021-05-23T11:30:46.982Z</time>
      </trkpt>
      <trkpt lat="47.23397" lon="-2.29902">
        <ele>19</ele>
        <time>2021-05-23T11:30:47.983Z</time>
      </trkpt>
      <trkpt lat="47.23396" lon="-2.29901">
        <ele>19</ele>
        <time>2021-05-23T11:30:48.982Z</time>
      </trkpt>
      <trkpt lat="47.23394" lon="-2.29899">
        <ele>19</ele>
        <time>2021-05-23T11:30:49.982Z</time>
      </trkpt>
      <trkpt lat="47.23393" lon="-2.29898">
        <ele>19</ele>
        <time>2021-05-23T11:30:50.982Z</time>
      </trkpt>
      <trkpt lat="47.23392" lon="-2.29896">
        <ele>19</ele>
        <time>2021-05-23T11:30:51.982Z</time>
      </trkpt>
      <trkpt lat="47.2339" lon="-2.29895">
        <ele>18</ele>
        <time>2021-05-23T11:30:52.983Z</time>
      </trkpt>
      <trkpt lat="47.23389" lon="-2.29893">
        <ele>18</ele>
        <time>2021-05-23T11:30:53.983Z</time>
      </trkpt>
      <trkpt lat="47.23389" lon="-2.29891">
        <ele>18</ele>
        <time>2021-05-23T11:30:54.982Z</time>
      </trkpt>
      <trkpt lat="47.23388" lon="-2.2989">
        <ele>18</ele>
        <time>2021-05-23T11:30:55.982Z</time>
      </trkpt>
      <trkpt lat="47.23387" lon="-2.29889">
        <ele>19</ele>
        <time>2021-05-23T11:30:56.982Z</time>
      </trkpt>
      <trkpt lat="47.23385" lon="-2.29887">
        <ele>19</ele>
        <time>2021-05-23T11:30:57.982Z</time>
      </trkpt>
      <trkpt lat="47.23384" lon="-2.29886">
        <ele>19</ele>
        <time>2021-05-23T11:30:58.983Z</time>
      </trkpt>
      <trkpt lat="47.23382" lon="-2.29883">
        <ele>19</ele>
        <time>2021-05-23T11:30:59.983Z</time>
      </trkpt>
      <trkpt lat="47.23381" lon="-2.29881">
        <ele>20</ele>
        <time>2021-05-23T11:31:00.982Z</time>
      </trkpt>
      <trkpt lat="47.23379" lon="-2.29879">
        <ele>20</ele>
        <time>2021-05-23T11:31:01.983Z</time>
      </trkpt>
      <trkpt lat="47.23378" lon="-2.29877">
        <ele>20</ele>
        <time>2021-05-23T11:31:02.983Z</time>
      </trkpt>
      <trkpt lat="47.23376" lon="-2.29875">
        <ele>20</ele>
        <time>2021-05-23T11:31:03.983Z</time>
      </trkpt>
      <trkpt lat="47.23375" lon="-2.29874">
        <ele>19</ele>
        <time>2021-05-23T11:31:04.982Z</time>
      </trkpt>
      <trkpt lat="47.23373" lon="-2.29872">
        <ele>19</ele>
        <time>2021-05-23T11:31:05.982Z</time>
      </trkpt>
      <trkpt lat="47.23372" lon="-2.2987">
        <ele>19</ele>
        <time>2021-05-23T11:31:06.983Z</time>
      </trkpt>
      <trkpt lat="47.2337" lon="-2.29869">
        <ele>18</ele>
        <time>2021-05-23T11:31:07.983Z</time>
      </trkpt>
      <trkpt lat="47.23368" lon="-2.29867">
        <ele>18</ele>
        <time>2021-05-23T11:31:08.983Z</time>
      </trkpt>
      <trkpt lat="47.23366" lon="-2.29866">
        <ele>18</ele>
        <time>2021-05-23T11:31:09.982Z</time>
      </trkpt>
      <trkpt lat="47.23364" lon="-2.29864">
        <ele>17</ele>
        <time>2021-05-23T11:31:10.982Z</time>
      </trkpt>
      <trkpt lat="47.23363" lon="-2.29863">
        <ele>16</ele>
        <time>2021-05-23T11:31:11.983Z</time>
      </trkpt>
      <trkpt lat="47.23361" lon="-2.29861">
        <ele>16</ele>
        <time>2021-05-23T11:31:12.982Z</time>
      </trkpt>
      <trkpt lat="47.2336" lon="-2.2986">
        <ele>15</ele>
        <time>2021-05-23T11:31:13.982Z</time>
      </trkpt>
      <trkpt lat="47.23358" lon="-2.29859">
        <ele>15</ele>
        <time>2021-05-23T11:31:14.982Z</time>
      </trkpt>
      <trkpt lat="47.23356" lon="-2.29858">
        <ele>14</ele>
        <time>2021-05-23T11:31:15.983Z</time>
      </trkpt>
      <trkpt lat="47.23354" lon="-2.29856">
        <ele>14</ele>
        <time>2021-05-23T11:31:16.983Z</time>
      </trkpt>
      <trkpt lat="47.23353" lon="-2.29855">
        <ele>13</ele>
        <time>2021-05-23T11:31:17.983Z</time>
      </trkpt>
      <trkpt lat="47.23352" lon="-2.29853">
        <ele>13</ele>
        <time>2021-05-23T11:31:18.982Z</time>
      </trkpt>
      <trkpt lat="47.23351" lon="-2.2985">
        <ele>12</ele>
        <time>2021-05-23T11:31:19.983Z</time>
      </trkpt>
      <trkpt lat="47.23351" lon="-2.29847">
        <ele>12</ele>
        <time>2021-05-23T11:31:20.982Z</time>
      </trkpt>
      <trkpt lat="47.23351" lon="-2.29844">
        <ele>11</ele>
        <time>2021-05-23T11:31:21.983Z</time>
      </trkpt>
      <trkpt lat="47.23352" lon="-2.29843">
        <ele>11</ele>
        <time>2021-05-23T11:31:22.982Z</time>
      </trkpt>
      <trkpt lat="47.23354" lon="-2.29842">
        <ele>11</ele>
        <time>2021-05-23T11:31:23.983Z</time>
      </trkpt>
      <trkpt lat="47.23356" lon="-2.29842">
        <ele>10</ele>
        <time>2021-05-23T11:31:24.983Z</time>
      </trkpt>
      <trkpt lat="47.23357" lon="-2.29842">
        <ele>10</ele>
        <time>2021-05-23T11:31:25.982Z</time>
      </trkpt>
      <trkpt lat="47.23357" lon="-2.29844">
        <ele>9</ele>
        <time>2021-05-23T11:31:26.982Z</time>
      </trkpt>
      <trkpt lat="47.23358" lon="-2.29844">
        <ele>9</ele>
        <time>2021-05-23T11:31:27.983Z</time>
      </trkpt>
      <trkpt lat="47.23359" lon="-2.29844">
        <ele>9</ele>
        <time>2021-05-23T11:31:28.983Z</time>
      </trkpt>
      <trkpt lat="47.23361" lon="-2.29844">
        <ele>8</ele>
        <time>2021-05-23T11:31:29.982Z</time>
      </trkpt>
      <trkpt lat="47.23363" lon="-2.29846">
        <ele>9</ele>
        <time>2021-05-23T11:31:30.983Z</time>
      </trkpt>
      <trkpt lat="47.23364" lon="-2.29847">
        <ele>9</ele>
        <time>2021-05-23T11:31:31.983Z</time>
      </trkpt>
      <trkpt lat="47.23366" lon="-2.29848">
        <ele>9</ele>
        <time>2021-05-23T11:31:32.982Z</time>
      </trkpt>
      <trkpt lat="47.23367" lon="-2.29849">
        <ele>9</ele>
        <time>2021-05-23T11:31:33.983Z</time>
      </trkpt>
      <trkpt lat="47.23368" lon="-2.2985">
        <ele>9</ele>
        <time>2021-05-23T11:31:34.983Z</time>
      </trkpt>
      <trkpt lat="47.23369" lon="-2.2985">
        <ele>9</ele>
        <time>2021-05-23T11:31:35.982Z</time>
      </trkpt>
      <trkpt lat="47.2337" lon="-2.29851">
        <ele>10</ele>
        <time>2021-05-23T11:31:36.982Z</time>
      </trkpt>
      <trkpt lat="47.23371" lon="-2.29851">
        <ele>10</ele>
        <time>2021-05-23T11:31:37.982Z</time>
      </trkpt>
      <trkpt lat="47.23372" lon="-2.29851">
        <ele>10</ele>
        <time>2021-05-23T11:31:38.982Z</time>
      </trkpt>
      <trkpt lat="47.23372" lon="-2.29851">
        <ele>11</ele>
        <time>2021-05-23T11:31:39.983Z</time>
      </trkpt>
      <trkpt lat="47.23373" lon="-2.29853">
        <ele>11</ele>
        <time>2021-05-23T11:31:40.982Z</time>
      </trkpt>
      <trkpt lat="47.23374" lon="-2.29853">
        <ele>12</ele>
        <time>2021-05-23T11:31:41.983Z</time>
      </trkpt>
      <trkpt lat="47.23375" lon="-2.29854">
        <ele>12</ele>
        <time>2021-05-23T11:31:42.982Z</time>
      </trkpt>
      <trkpt lat="47.23376" lon="-2.29855">
        <ele>13</ele>
        <time>2021-05-23T11:31:43.983Z</time>
      </trkpt>
      <trkpt lat="47.23377" lon="-2.29855">
        <ele>13</ele>
        <time>2021-05-23T11:31:44.983Z</time>
      </trkpt>
      <trkpt lat="47.23378" lon="-2.29856">
        <ele>13</ele>
        <time>2021-05-23T11:31:45.983Z</time>
      </trkpt>
      <trkpt lat="47.23379" lon="-2.29856">
        <ele>14</ele>
        <time>2021-05-23T11:31:46.983Z</time>
      </trkpt>
      <trkpt lat="47.23379" lon="-2.29856">
        <ele>15</ele>
        <time>2021-05-23T11:31:47.983Z</time>
      </trkpt>
      <trkpt lat="47.23381" lon="-2.29856">
        <ele>15</ele>
        <time>2021-05-23T11:31:48.982Z</time>
      </trkpt>
      <trkpt lat="47.23382" lon="-2.29855">
        <ele>15</ele>
        <time>2021-05-23T11:31:49.983Z</time>
      </trkpt>
      <trkpt lat="47.23383" lon="-2.29855">
        <ele>16</ele>
        <time>2021-05-23T11:31:50.983Z</time>
      </trkpt>
      <trkpt lat="47.23384" lon="-2.29855">
        <ele>16</ele>
        <time>2021-05-23T11:31:51.982Z</time>
      </trkpt>
      <trkpt lat="47.23386" lon="-2.29855">
        <ele>17</ele>
        <time>2021-05-23T11:31:52.983Z</time>
      </trkpt>
      <trkpt lat="47.23386" lon="-2.29854">
        <ele>17</ele>
        <time>2021-05-23T11:31:53.982Z</time>
      </trkpt>
      <trkpt lat="47.23387" lon="-2.29854">
        <ele>17</ele>
        <time>2021-05-23T11:31:54.983Z</time>
      </trkpt>
      <trkpt lat="47.23388" lon="-2.29854">
        <ele>17</ele>
        <time>2021-05-23T11:31:55.983Z</time>
      </trkpt>
      <trkpt lat="47.23389" lon="-2.29854">
        <ele>17</ele>
        <time>2021-05-23T11:31:56.983Z</time>
      </trkpt>
      <trkpt lat="47.23389" lon="-2.29853">
        <ele>17</ele>
        <time>2021-05-23T11:31:57.982Z</time>
      </trkpt>
      <trkpt lat="47.2339" lon="-2.29853">
        <ele>17</ele>
        <time>2021-05-23T11:31:58.982Z</time>
      </trkpt>
      <trkpt lat="47.23391" lon="-2.29853">
        <ele>17</ele>
        <time>2021-05-23T11:31:59.983Z</time>
      </trkpt>
      <trkpt lat="47.23391" lon="-2.29852">
        <ele>17</ele>
        <time>2021-05-23T11:32:00.982Z</time>
      </trkpt>
      <trkpt lat="47.23392" lon="-2.29852">
        <ele>17</ele>
        <time>2021-05-23T11:32:01.982Z</time>
      </trkpt>
      <trkpt lat="47.23392" lon="-2.29851">
        <ele>17</ele>
        <time>2021-05-23T11:32:02.982Z</time>
      </trkpt>
      <trkpt lat="47.23393" lon="-2.29851">
        <ele>16</ele>
        <time>2021-05-23T11:32:03.983Z</time>
      </trkpt>
      <trkpt lat="47.23393" lon="-2.2985">
        <ele>16</ele>
        <time>2021-05-23T11:32:04.982Z</time>
      </trkpt>
      <trkpt lat="47.23393" lon="-2.2985">
        <ele>16</ele>
        <time>2021-05-23T11:32:05.983Z</time>
      </trkpt>
      <trkpt lat="47.23393" lon="-2.2985">
        <ele>16</ele>
        <time>2021-05-23T11:32:06.982Z</time>
      </trkpt>
      <trkpt lat="47.23393" lon="-2.29849">
        <ele>16</ele>
        <time>2021-05-23T11:32:07.982Z</time>
      </trkpt>
      <trkpt lat="47.23394" lon="-2.29848">
        <ele>17</ele>
        <time>2021-05-23T11:32:08.982Z</time>
      </trkpt>
      <trkpt lat="47.23394" lon="-2.29848">
        <ele>17</ele>
        <time>2021-05-23T11:32:09.982Z</time>
      </trkpt>
      <trkpt lat="47.23395" lon="-2.29847">
        <ele>17</ele>
        <time>2021-05-23T11:32:10.983Z</time>
      </trkpt>
      <trkpt lat="47.23395" lon="-2.29847">
        <ele>17</ele>
        <time>2021-05-23T11:32:11.982Z</time>
      </trkpt>
      <trkpt lat="47.23396" lon="-2.29846">
        <ele>17</ele>
        <time>2021-05-23T11:32:12.982Z</time>
      </trkpt>
      <trkpt lat="47.23396" lon="-2.29845">
        <ele>17</ele>
        <time>2021-05-23T11:32:13.982Z</time>
      </trkpt>
      <trkpt lat="47.23396" lon="-2.29844">
        <ele>17</ele>
        <time>2021-05-23T11:32:14.983Z</time>
      </trkpt>
      <trkpt lat="47.23396" lon="-2.29843">
        <ele>18</ele>
        <time>2021-05-23T11:32:15.982Z</time>
      </trkpt>
      <trkpt lat="47.23396" lon="-2.29841">
        <ele>18</ele>
        <time>2021-05-23T11:32:16.982Z</time>
      </trkpt>
      <trkpt lat="47.23396" lon="-2.29841">
        <ele>19</ele>
        <time>2021-05-23T11:32:17.982Z</time>
      </trkpt>
      <trkpt lat="47.23396" lon="-2.2984">
        <ele>19</ele>
        <time>2021-05-23T11:32:18.982Z</time>
      </trkpt>
      <trkpt lat="47.23396" lon="-2.29839">
        <ele>19</ele>
        <time>2021-05-23T11:32:19.982Z</time>
      </trkpt>
      <trkpt lat="47.23396" lon="-2.29838">
        <ele>20</ele>
        <time>2021-05-23T11:32:20.982Z</time>
      </trkpt>
      <trkpt lat="47.23396" lon="-2.29838">
        <ele>20</ele>
        <time>2021-05-23T11:32:21.983Z</time>
      </trkpt>
      <trkpt lat="47.23396" lon="-2.29836">
        <ele>21</ele>
        <time>2021-05-23T11:32:22.983Z</time>
      </trkpt>
      <trkpt lat="47.23396" lon="-2.29836">
        <ele>21</ele>
        <time>2021-05-23T11:32:23.982Z</time>
      </trkpt>
      <trkpt lat="47.23396" lon="-2.29836">
        <ele>21</ele>
        <time>2021-05-23T11:32:24.983Z</time>
      </trkpt>
      <trkpt lat="47.23396" lon="-2.29836">
        <ele>21</ele>
        <time>2021-05-23T11:32:25.983Z</time>
      </trkpt>
      <trkpt lat="47.23397" lon="-2.29837">
        <ele>21</ele>
        <time>2021-05-23T11:32:26.982Z</time>
      </trkpt>
      <trkpt lat="47.23398" lon="-2.29837">
        <ele>21</ele>
        <time>2021-05-23T11:32:27.982Z</time>
      </trkpt>
      <trkpt lat="47.23399" lon="-2.29838">
        <ele>21</ele>
        <time>2021-05-23T11:32:28.982Z</time>
      </trkpt>
      <trkpt lat="47.23401" lon="-2.29838">
        <ele>20</ele>
        <time>2021-05-23T11:32:29.982Z</time>
      </trkpt>
      <trkpt lat="47.23403" lon="-2.29838">
        <ele>20</ele>
        <time>2021-05-23T11:32:30.982Z</time>
      </trkpt>
      <trkpt lat="47.23404" lon="-2.29838">
        <ele>20</ele>
        <time>2021-05-23T11:32:31.982Z</time>
      </trkpt>
      <trkpt lat="47.23405" lon="-2.29839">
        <ele>20</ele>
        <time>2021-05-23T11:32:32.982Z</time>
      </trkpt>
      <trkpt lat="47.23405" lon="-2.29838">
        <ele>19</ele>
        <time>2021-05-23T11:32:33.982Z</time>
      </trkpt>
      <trkpt lat="47.23405" lon="-2.29838">
        <ele>19</ele>
        <time>2021-05-23T11:32:34.982Z</time>
      </trkpt>
      <trkpt lat="47.23406" lon="-2.29837">
        <ele>18</ele>
        <time>2021-05-23T11:32:35.982Z</time>
      </trkpt>
      <trkpt lat="47.23406" lon="-2.29836">
        <ele>17</ele>
        <time>2021-05-23T11:32:36.982Z</time>
      </trkpt>
      <trkpt lat="47.23406" lon="-2.29835">
        <ele>17</ele>
        <time>2021-05-23T11:32:37.982Z</time>
      </trkpt>
      <trkpt lat="47.23406" lon="-2.29835">
        <ele>16</ele>
        <time>2021-05-23T11:32:38.982Z</time>
      </trkpt>
      <trkpt lat="47.23406" lon="-2.29834">
        <ele>16</ele>
        <time>2021-05-23T11:32:39.982Z</time>
      </trkpt>
      <trkpt lat="47.23407" lon="-2.29834">
        <ele>15</ele>
        <time>2021-05-23T11:32:40.982Z</time>
      </trkpt>
      <trkpt lat="47.23408" lon="-2.29835">
        <ele>14</ele>
        <time>2021-05-23T11:32:41.983Z</time>
      </trkpt>
      <trkpt lat="47.23409" lon="-2.29835">
        <ele>14</ele>
        <time>2021-05-23T11:32:42.983Z</time>
      </trkpt>
      <trkpt lat="47.23409" lon="-2.29835">
        <ele>13</ele>
        <time>2021-05-23T11:32:43.982Z</time>
      </trkpt>
      <trkpt lat="47.23409" lon="-2.29835">
        <ele>13</ele>
        <time>2021-05-23T11:32:44.982Z</time>
      </trkpt>
      <trkpt lat="47.23408" lon="-2.29835">
        <ele>13</ele>
        <time>2021-05-23T11:32:45.982Z</time>
      </trkpt>
      <trkpt lat="47.23406" lon="-2.29836">
        <ele>12</ele>
        <time>2021-05-23T11:32:46.983Z</time>
      </trkpt>
      <trkpt lat="47.23406" lon="-2.29836">
        <ele>12</ele>
        <time>2021-05-23T11:32:47.982Z</time>
      </trkpt>
      <trkpt lat="47.23405" lon="-2.29838">
        <ele>11</ele>
        <time>2021-05-23T11:32:48.982Z</time>
      </trkpt>
      <trkpt lat="47.23404" lon="-2.2984">
        <ele>11</ele>
        <time>2021-05-23T11:32:49.982Z</time>
      </trkpt>
      <trkpt lat="47.23404" lon="-2.29841">
        <ele>10</ele>
        <time>2021-05-23T11:32:50.982Z</time>
      </trkpt>
      <trkpt lat="47.23405" lon="-2.29841">
        <ele>10</ele>
        <time>2021-05-23T11:32:51.982Z</time>
      </trkpt>
      <trkpt lat="47.23406" lon="-2.29841">
        <ele>10</ele>
        <time>2021-05-23T11:32:52.983Z</time>
      </trkpt>
      <trkpt lat="47.23407" lon="-2.29842">
        <ele>9</ele>
        <time>2021-05-23T11:32:53.982Z</time>
      </trkpt>
      <trkpt lat="47.23407" lon="-2.29842">
        <ele>9</ele>
        <time>2021-05-23T11:32:54.982Z</time>
      </trkpt>
      <trkpt lat="47.23408" lon="-2.29843">
        <ele>8</ele>
        <time>2021-05-23T11:32:55.983Z</time>
      </trkpt>
      <trkpt lat="47.23408" lon="-2.29843">
        <ele>8</ele>
        <time>2021-05-23T11:32:56.983Z</time>
      </trkpt>
      <trkpt lat="47.23409" lon="-2.29844">
        <ele>8</ele>
        <time>2021-05-23T11:32:57.982Z</time>
      </trkpt>
      <trkpt lat="47.23409" lon="-2.29845">
        <ele>8</ele>
        <time>2021-05-23T11:32:58.983Z</time>
      </trkpt>
      <trkpt lat="47.2341" lon="-2.29846">
        <ele>8</ele>
        <time>2021-05-23T11:32:59.982Z</time>
      </trkpt>
      <trkpt lat="47.23411" lon="-2.29847">
        <ele>7</ele>
        <time>2021-05-23T11:33:00.983Z</time>
      </trkpt>
      <trkpt lat="47.23412" lon="-2.29848">
        <ele>7</ele>
        <time>2021-05-23T11:33:01.982Z</time>
      </trkpt>
      <trkpt lat="47.23413" lon="-2.29848">
        <ele>7</ele>
        <time>2021-05-23T11:33:02.983Z</time>
      </trkpt>
      <trkpt lat="47.23415" lon="-2.29849">
        <ele>7</ele>
        <time>2021-05-23T11:33:03.983Z</time>
      </trkpt>
      <trkpt lat="47.23416" lon="-2.2985">
        <ele>6</ele>
        <time>2021-05-23T11:33:04.982Z</time>
      </trkpt>
      <trkpt lat="47.23418" lon="-2.29851">
        <ele>6</ele>
        <time>2021-05-23T11:33:05.982Z</time>
      </trkpt>
      <trkpt lat="47.23419" lon="-2.29852">
        <ele>6</ele>
        <time>2021-05-23T11:33:06.983Z</time>
      </trkpt>
      <trkpt lat="47.2342" lon="-2.29852">
        <ele>6</ele>
        <time>2021-05-23T11:33:07.983Z</time>
      </trkpt>
      <trkpt lat="47.23421" lon="-2.29854">
        <ele>7</ele>
        <time>2021-05-23T11:33:08.983Z</time>
      </trkpt>
      <trkpt lat="47.23421" lon="-2.29855">
        <ele>7</ele>
        <time>2021-05-23T11:33:09.982Z</time>
      </trkpt>
      <trkpt lat="47.23422" lon="-2.29854">
        <ele>7</ele>
        <time>2021-05-23T11:33:10.982Z</time>
      </trkpt>
      <trkpt lat="47.23424" lon="-2.29855">
        <ele>7</ele>
        <time>2021-05-23T11:33:11.982Z</time>
      </trkpt>
      <trkpt lat="47.23426" lon="-2.29856">
        <ele>8</ele>
        <time>2021-05-23T11:33:12.983Z</time>
      </trkpt>
      <trkpt lat="47.23427" lon="-2.29858">
        <ele>8</ele>
        <time>2021-05-23T11:33:13.982Z</time>
      </trkpt>
      <trkpt lat="47.23428" lon="-2.29859">
        <ele>8</ele>
        <time>2021-05-23T11:33:14.983Z</time>
      </trkpt>
      <trkpt lat="47.2343" lon="-2.2986">
        <ele>9</ele>
        <time>2021-05-23T11:33:15.983Z</time>
      </trkpt>
      <trkpt lat="47.23431" lon="-2.2986">
        <ele>9</ele>
        <time>2021-05-23T11:33:16.982Z</time>
      </trkpt>
      <trkpt lat="47.23431" lon="-2.2986">
        <ele>9</ele>
        <time>2021-05-23T11:33:17.983Z</time>
      </trkpt>
      <trkpt lat="47.23432" lon="-2.2986">
        <ele>10</ele>
        <time>2021-05-23T11:33:18.982Z</time>
      </trkpt>
      <trkpt lat="47.23433" lon="-2.2986">
        <ele>10</ele>
        <time>2021-05-23T11:33:19.982Z</time>
      </trkpt>
      <trkpt lat="47.23434" lon="-2.2986">
        <ele>11</ele>
        <time>2021-05-23T11:33:20.982Z</time>
      </trkpt>
      <trkpt lat="47.23435" lon="-2.2986">
        <ele>11</ele>
        <time>2021-05-23T11:33:21.983Z</time>
      </trkpt>
      <trkpt lat="47.23435" lon="-2.2986">
        <ele>11</ele>
        <time>2021-05-23T11:33:22.983Z</time>
      </trkpt>
      <trkpt lat="47.23436" lon="-2.2986">
        <ele>12</ele>
        <time>2021-05-23T11:33:23.983Z</time>
      </trkpt>
      <trkpt lat="47.23437" lon="-2.2986">
        <ele>12</ele>
        <time>2021-05-23T11:33:24.983Z</time>
      </trkpt>
      <trkpt lat="47.23438" lon="-2.29861">
        <ele>12</ele>
        <time>2021-05-23T11:33:25.982Z</time>
      </trkpt>
      <trkpt lat="47.23438" lon="-2.29861">
        <ele>13</ele>
        <time>2021-05-23T11:33:26.983Z</time>
      </trkpt>
      <trkpt lat="47.23438" lon="-2.29861">
        <ele>14</ele>
        <time>2021-05-23T11:33:27.983Z</time>
      </trkpt>
      <trkpt lat="47.23439" lon="-2.29862">
        <ele>15</ele>
        <time>2021-05-23T11:33:28.982Z</time>
      </trkpt>
      <trkpt lat="47.2344" lon="-2.29862">
        <ele>16</ele>
        <time>2021-05-23T11:33:29.983Z</time>
      </trkpt>
      <trkpt lat="47.23441" lon="-2.29863">
        <ele>16</ele>
        <time>2021-05-23T11:33:30.983Z</time>
      </trkpt>
      <trkpt lat="47.23441" lon="-2.29863">
        <ele>17</ele>
        <time>2021-05-23T11:33:31.982Z</time>
      </trkpt>
      <trkpt lat="47.23442" lon="-2.29864">
        <ele>17</ele>
        <time>2021-05-23T11:33:32.983Z</time>
      </trkpt>
      <trkpt lat="47.23443" lon="-2.29864">
        <ele>17</ele>
        <time>2021-05-23T11:33:33.982Z</time>
      </trkpt>
      <trkpt lat="47.23444" lon="-2.29864">
        <ele>17</ele>
        <time>2021-05-23T11:33:34.983Z</time>
      </trkpt>
      <trkpt lat="47.23445" lon="-2.29865">
        <ele>17</ele>
        <time>2021-05-23T11:33:35.982Z</time>
      </trkpt>
      <trkpt lat="47.23447" lon="-2.29864">
        <ele>18</ele>
        <time>2021-05-23T11:33:36.983Z</time>
      </trkpt>
      <trkpt lat="47.23449" lon="-2.29864">
        <ele>18</ele>
        <time>2021-05-23T11:33:37.982Z</time>
      </trkpt>
      <trkpt lat="47.2345" lon="-2.29864">
        <ele>18</ele>
        <time>2021-05-23T11:33:38.982Z</time>
      </trkpt>
      <trkpt lat="47.23452" lon="-2.29863">
        <ele>18</ele>
        <time>2021-05-23T11:33:39.982Z</time>
      </trkpt>
      <trkpt lat="47.23454" lon="-2.29862">
        <ele>18</ele>
        <time>2021-05-23T11:33:40.982Z</time>
      </trkpt>
      <trkpt lat="47.23456" lon="-2.2986">
        <ele>17</ele>
        <time>2021-05-23T11:33:41.982Z</time>
      </trkpt>
      <trkpt lat="47.23457" lon="-2.29859">
        <ele>17</ele>
        <time>2021-05-23T11:33:42.982Z</time>
      </trkpt>
      <trkpt lat="47.23459" lon="-2.29858">
        <ele>17</ele>
        <time>2021-05-23T11:33:43.982Z</time>
      </trkpt>
      <trkpt lat="47.2346" lon="-2.29857">
        <ele>17</ele>
        <time>2021-05-23T11:33:44.982Z</time>
      </trkpt>
      <trkpt lat="47.23461" lon="-2.29855">
        <ele>18</ele>
        <time>2021-05-23T11:33:45.983Z</time>
      </trkpt>
      <trkpt lat="47.23463" lon="-2.29853">
        <ele>18</ele>
        <time>2021-05-23T11:33:46.983Z</time>
      </trkpt>
      <trkpt lat="47.23464" lon="-2.29851">
        <ele>18</ele>
        <time>2021-05-23T11:33:47.983Z</time>
      </trkpt>
      <trkpt lat="47.23466" lon="-2.29849">
        <ele>18</ele>
        <time>2021-05-23T11:33:48.983Z</time>
      </trkpt>
      <trkpt lat="47.23466" lon="-2.29847">
        <ele>18</ele>
        <time>2021-05-23T11:33:49.982Z</time>
      </trkpt>
      <trkpt lat="47.23467" lon="-2.29845">
        <ele>18</ele>
        <time>2021-05-23T11:33:50.983Z</time>
      </trkpt>
      <trkpt lat="47.23467" lon="-2.29842">
        <ele>18</ele>
        <time>2021-05-23T11:33:51.982Z</time>
      </trkpt>
      <trkpt lat="47.23467" lon="-2.29838">
        <ele>18</ele>
        <time>2021-05-23T11:33:52.982Z</time>
      </trkpt>
      <trkpt lat="47.23467" lon="-2.29836">
        <ele>19</ele>
        <time>2021-05-23T11:33:53.982Z</time>
      </trkpt>
      <trkpt lat="47.23467" lon="-2.29832">
        <ele>19</ele>
        <time>2021-05-23T11:33:54.982Z</time>
      </trkpt>
      <trkpt lat="47.23467" lon="-2.2983">
        <ele>19</ele>
        <time>2021-05-23T11:33:55.982Z</time>
      </trkpt>
      <trkpt lat="47.23467" lon="-2.29827">
        <ele>19</ele>
        <time>2021-05-23T11:33:56.983Z</time>
      </trkpt>
      <trkpt lat="47.23466" lon="-2.29824">
        <ele>19</ele>
        <time>2021-05-23T11:33:57.982Z</time>
      </trkpt>
      <trkpt lat="47.23465" lon="-2.2982">
        <ele>20</ele>
        <time>2021-05-23T11:33:58.982Z</time>
      </trkpt>
      <trkpt lat="47.23465" lon="-2.29817">
        <ele>20</ele>
        <time>2021-05-23T11:33:59.982Z</time>
      </trkpt>
      <trkpt lat="47.23465" lon="-2.29813">
        <ele>20</ele>
        <time>2021-05-23T11:34:00.983Z</time>
      </trkpt>
      <trkpt lat="47.23466" lon="-2.2981">
        <ele>21</ele>
        <time>2021-05-23T11:34:01.982Z</time>
      </trkpt>
      <trkpt lat="47.23467" lon="-2.29807">
        <ele>21</ele>
        <time>2021-05-23T11:34:02.982Z</time>
      </trkpt>
      <trkpt lat="47.23469" lon="-2.29804">
        <ele>21</ele>
        <time>2021-05-23T11:34:03.982Z</time>
      </trkpt>
      <trkpt lat="47.2347" lon="-2.29801">
        <ele>21</ele>
        <time>2021-05-23T11:34:04.982Z</time>
      </trkpt>
      <trkpt lat="47.23471" lon="-2.29799">
        <ele>21</ele>
        <time>2021-05-23T11:34:05.982Z</time>
      </trkpt>
      <trkpt lat="47.23473" lon="-2.29797">
        <ele>21</ele>
        <time>2021-05-23T11:34:06.982Z</time>
      </trkpt>
      <trkpt lat="47.23474" lon="-2.29795">
        <ele>21</ele>
        <time>2021-05-23T11:34:07.983Z</time>
      </trkpt>
      <trkpt lat="47.23476" lon="-2.29792">
        <ele>20</ele>
        <time>2021-05-23T11:34:08.983Z</time>
      </trkpt>
      <trkpt lat="47.23477" lon="-2.2979">
        <ele>20</ele>
        <time>2021-05-23T11:34:09.982Z</time>
      </trkpt>
      <trkpt lat="47.23478" lon="-2.29788">
        <ele>19</ele>
        <time>2021-05-23T11:34:10.982Z</time>
      </trkpt>
      <trkpt lat="47.23479" lon="-2.29785">
        <ele>19</ele>
        <time>2021-05-23T11:34:11.982Z</time>
      </trkpt>
      <trkpt lat="47.23481" lon="-2.29783">
        <ele>19</ele>
        <time>2021-05-23T11:34:12.983Z</time>
      </trkpt>
      <trkpt lat="47.23482" lon="-2.29781">
        <ele>19</ele>
        <time>2021-05-23T11:34:13.982Z</time>
      </trkpt>
      <trkpt lat="47.23483" lon="-2.2978">
        <ele>18</ele>
        <time>2021-05-23T11:34:14.983Z</time>
      </trkpt>
      <trkpt lat="47.23484" lon="-2.29778">
        <ele>18</ele>
        <time>2021-05-23T11:34:15.982Z</time>
      </trkpt>
      <trkpt lat="47.23485" lon="-2.29776">
        <ele>18</ele>
        <time>2021-05-23T11:34:16.982Z</time>
      </trkpt>
      <trkpt lat="47.23486" lon="-2.29774">
        <ele>18</ele>
        <time>2021-05-23T11:34:17.982Z</time>
      </trkpt>
      <trkpt lat="47.23486" lon="-2.29771">
        <ele>18</ele>
        <time>2021-05-23T11:34:18.982Z</time>
      </trkpt>
      <trkpt lat="47.23487" lon="-2.29768">
        <ele>18</ele>
        <time>2021-05-23T11:34:19.982Z</time>
      </trkpt>
      <trkpt lat="47.23487" lon="-2.29766">
        <ele>18</ele>
        <time>2021-05-23T11:34:20.982Z</time>
      </trkpt>
      <trkpt lat="47.23487" lon="-2.29763">
        <ele>17</ele>
        <time>2021-05-23T11:34:21.982Z</time>
      </trkpt>
      <trkpt lat="47.23487" lon="-2.29761">
        <ele>17</ele>
        <time>2021-05-23T11:34:22.983Z</time>
      </trkpt>
      <trkpt lat="47.23487" lon="-2.29759">
        <ele>17</ele>
        <time>2021-05-23T11:34:23.982Z</time>
      </trkpt>
      <trkpt lat="47.23489" lon="-2.29756">
        <ele>17</ele>
        <time>2021-05-23T11:34:24.982Z</time>
      </trkpt>
      <trkpt lat="47.2349" lon="-2.29754">
        <ele>17</ele>
        <time>2021-05-23T11:34:25.983Z</time>
      </trkpt>
      <trkpt lat="47.23492" lon="-2.29751">
        <ele>16</ele>
        <time>2021-05-23T11:34:26.983Z</time>
      </trkpt>
      <trkpt lat="47.23493" lon="-2.29749">
        <ele>16</ele>
        <time>2021-05-23T11:34:27.982Z</time>
      </trkpt>
      <trkpt lat="47.23495" lon="-2.29747">
        <ele>16</ele>
        <time>2021-05-23T11:34:28.982Z</time>
      </trkpt>
      <trkpt lat="47.23497" lon="-2.29745">
        <ele>16</ele>
        <time>2021-05-23T11:34:29.982Z</time>
      </trkpt>
      <trkpt lat="47.235" lon="-2.29741">
        <ele>16</ele>
        <time>2021-05-23T11:34:30.982Z</time>
      </trkpt>
      <trkpt lat="47.23501" lon="-2.29737">
        <ele>16</ele>
        <time>2021-05-23T11:34:31.983Z</time>
      </trkpt>
      <trkpt lat="47.23503" lon="-2.29735">
        <ele>15</ele>
        <time>2021-05-23T11:34:32.982Z</time>
      </trkpt>
      <trkpt lat="47.23504" lon="-2.29732">
        <ele>16</ele>
        <time>2021-05-23T11:34:33.982Z</time>
      </trkpt>
      <trkpt lat="47.23506" lon="-2.2973">
        <ele>16</ele>
        <time>2021-05-23T11:34:34.982Z</time>
      </trkpt>
      <trkpt lat="47.23507" lon="-2.29727">
        <ele>16</ele>
        <time>2021-05-23T11:34:35.983Z</time>
      </trkpt>
      <trkpt lat="47.23508" lon="-2.29724">
        <ele>17</ele>
        <time>2021-05-23T11:34:36.982Z</time>
      </trkpt>
      <trkpt lat="47.2351" lon="-2.29721">
        <ele>17</ele>
        <time>2021-05-23T11:34:37.983Z</time>
      </trkpt>
      <trkpt lat="47.23511" lon="-2.29718">
        <ele>17</ele>
        <time>2021-05-23T11:34:38.982Z</time>
      </trkpt>
      <trkpt lat="47.23512" lon="-2.29714">
        <ele>17</ele>
        <time>2021-05-23T11:34:39.982Z</time>
      </trkpt>
      <trkpt lat="47.23512" lon="-2.2971">
        <ele>18</ele>
        <time>2021-05-23T11:34:40.983Z</time>
      </trkpt>
      <trkpt lat="47.23512" lon="-2.29705">
        <ele>18</ele>
        <time>2021-05-23T11:34:41.983Z</time>
      </trkpt>
      <trkpt lat="47.23512" lon="-2.29701">
        <ele>18</ele>
        <time>2021-05-23T11:34:42.982Z</time>
      </trkpt>
      <trkpt lat="47.23513" lon="-2.29697">
        <ele>18</ele>
        <time>2021-05-23T11:34:43.982Z</time>
      </trkpt>
      <trkpt lat="47.23514" lon="-2.29694">
        <ele>19</ele>
        <time>2021-05-23T11:34:44.982Z</time>
      </trkpt>
      <trkpt lat="47.23514" lon="-2.2969">
        <ele>19</ele>
        <time>2021-05-23T11:34:45.983Z</time>
      </trkpt>
      <trkpt lat="47.23513" lon="-2.29687">
        <ele>20</ele>
        <time>2021-05-23T11:34:46.982Z</time>
      </trkpt>
      <trkpt lat="47.23513" lon="-2.29683">
        <ele>20</ele>
        <time>2021-05-23T11:34:47.982Z</time>
      </trkpt>
      <trkpt lat="47.23512" lon="-2.29679">
        <ele>20</ele>
        <time>2021-05-23T11:34:48.982Z</time>
      </trkpt>
      <trkpt lat="47.23512" lon="-2.29675">
        <ele>19</ele>
        <time>2021-05-23T11:34:49.983Z</time>
      </trkpt>
      <trkpt lat="47.23512" lon="-2.29672">
        <ele>19</ele>
        <time>2021-05-23T11:34:50.982Z</time>
      </trkpt>
      <trkpt lat="47.23512" lon="-2.29669">
        <ele>19</ele>
        <time>2021-05-23T11:34:51.982Z</time>
      </trkpt>
      <trkpt lat="47.23512" lon="-2.29666">
        <ele>18</ele>
        <time>2021-05-23T11:34:52.983Z</time>
      </trkpt>
      <trkpt lat="47.23511" lon="-2.29664">
        <ele>18</ele>
        <time>2021-05-23T11:34:53.982Z</time>
      </trkpt>
      <trkpt lat="47.2351" lon="-2.29662">
        <ele>18</ele>
        <time>2021-05-23T11:34:54.982Z</time>
      </trkpt>
      <trkpt lat="47.2351" lon="-2.29659">
        <ele>18</ele>
        <time>2021-05-23T11:34:55.982Z</time>
      </trkpt>
      <trkpt lat="47.23509" lon="-2.29655">
        <ele>18</ele>
        <time>2021-05-23T11:34:56.982Z</time>
      </trkpt>
      <trkpt lat="47.23509" lon="-2.29653">
        <ele>18</ele>
        <time>2021-05-23T11:34:57.982Z</time>
      </trkpt>
      <trkpt lat="47.23508" lon="-2.2965">
        <ele>18</ele>
        <time>2021-05-23T11:34:58.982Z</time>
      </trkpt>
      <trkpt lat="47.23507" lon="-2.29647">
        <ele>18</ele>
        <time>2021-05-23T11:34:59.982Z</time>
      </trkpt>
      <trkpt lat="47.23506" lon="-2.29644">
        <ele>18</ele>
        <time>2021-05-23T11:35:00.983Z</time>
      </trkpt>
      <trkpt lat="47.23505" lon="-2.29641">
        <ele>18</ele>
        <time>2021-05-23T11:35:01.983Z</time>
      </trkpt>
      <trkpt lat="47.23504" lon="-2.29638">
        <ele>18</ele>
        <time>2021-05-23T11:35:02.983Z</time>
      </trkpt>
      <trkpt lat="47.23503" lon="-2.29634">
        <ele>18</ele>
        <time>2021-05-23T11:35:03.982Z</time>
      </trkpt>
      <trkpt lat="47.23503" lon="-2.29631">
        <ele>19</ele>
        <time>2021-05-23T11:35:04.982Z</time>
      </trkpt>
      <trkpt lat="47.23503" lon="-2.29628">
        <ele>19</ele>
        <time>2021-05-23T11:35:05.983Z</time>
      </trkpt>
      <trkpt lat="47.23503" lon="-2.29624">
        <ele>18</ele>
        <time>2021-05-23T11:35:06.982Z</time>
      </trkpt>
      <trkpt lat="47.23503" lon="-2.2962">
        <ele>18</ele>
        <time>2021-05-23T11:35:07.983Z</time>
      </trkpt>
      <trkpt lat="47.23503" lon="-2.29616">
        <ele>18</ele>
        <time>2021-05-23T11:35:08.982Z</time>
      </trkpt>
      <trkpt lat="47.23504" lon="-2.29612">
        <ele>17</ele>
        <time>2021-05-23T11:35:09.982Z</time>
      </trkpt>
      <trkpt lat="47.23505" lon="-2.29609">
        <ele>17</ele>
        <time>2021-05-23T11:35:10.983Z</time>
      </trkpt>
      <trkpt lat="47.23506" lon="-2.29605">
        <ele>17</ele>
        <time>2021-05-23T11:35:11.982Z</time>
      </trkpt>
      <trkpt lat="47.23507" lon="-2.29603">
        <ele>16</ele>
        <time>2021-05-23T11:35:12.982Z</time>
      </trkpt>
      <trkpt lat="47.23508" lon="-2.296">
        <ele>16</ele>
        <time>2021-05-23T11:35:13.982Z</time>
      </trkpt>
      <trkpt lat="47.23509" lon="-2.29598">
        <ele>16</ele>
        <time>2021-05-23T11:35:14.982Z</time>
      </trkpt>
      <trkpt lat="47.23511" lon="-2.29595">
        <ele>16</ele>
        <time>2021-05-23T11:35:15.982Z</time>
      </trkpt>
      <trkpt lat="47.23513" lon="-2.29592">
        <ele>16</ele>
        <time>2021-05-23T11:35:16.982Z</time>
      </trkpt>
      <trkpt lat="47.23515" lon="-2.29591">
        <ele>16</ele>
        <time>2021-05-23T11:35:17.982Z</time>
      </trkpt>
      <trkpt lat="47.23517" lon="-2.2959">
        <ele>16</ele>
        <time>2021-05-23T11:35:18.982Z</time>
      </trkpt>
      <trkpt lat="47.2352" lon="-2.29591">
        <ele>16</ele>
        <time>2021-05-23T11:35:19.982Z</time>
      </trkpt>
      <trkpt lat="47.23521" lon="-2.2959">
        <ele>16</ele>
        <time>2021-05-23T11:35:20.982Z</time>
      </trkpt>
      <trkpt lat="47.23523" lon="-2.2959">
        <ele>16</ele>
        <time>2021-05-23T11:35:21.982Z</time>
      </trkpt>
      <trkpt lat="47.23525" lon="-2.29591">
        <ele>16</ele>
        <time>2021-05-23T11:35:22.983Z</time>
      </trkpt>
      <trkpt lat="47.23526" lon="-2.2959">
        <ele>17</ele>
        <time>2021-05-23T11:35:23.982Z</time>
      </trkpt>
      <trkpt lat="47.23528" lon="-2.2959">
        <ele>17</ele>
        <time>2021-05-23T11:35:24.982Z</time>
      </trkpt>
      <trkpt lat="47.2353" lon="-2.29589">
        <ele>17</ele>
        <time>2021-05-23T11:35:25.982Z</time>
      </trkpt>
      <trkpt lat="47.23533" lon="-2.2959">
        <ele>17</ele>
        <time>2021-05-23T11:35:26.983Z</time>
      </trkpt>
      <trkpt lat="47.23535" lon="-2.2959">
        <ele>17</ele>
        <time>2021-05-23T11:35:27.982Z</time>
      </trkpt>
      <trkpt lat="47.23537" lon="-2.29589">
        <ele>17</ele>
        <time>2021-05-23T11:35:28.982Z</time>
      </trkpt>
      <trkpt lat="47.23539" lon="-2.2959">
        <ele>17</ele>
        <time>2021-05-23T11:35:29.982Z</time>
      </trkpt>
      <trkpt lat="47.2354" lon="-2.2959">
        <ele>17</ele>
        <time>2021-05-23T11:35:30.982Z</time>
      </trkpt>
      <trkpt lat="47.23542" lon="-2.29591">
        <ele>18</ele>
        <time>2021-05-23T11:35:31.983Z</time>
      </trkpt>
      <trkpt lat="47.23544" lon="-2.2959">
        <ele>18</ele>
        <time>2021-05-23T11:35:32.983Z</time>
      </trkpt>
      <trkpt lat="47.23546" lon="-2.29589">
        <ele>18</ele>
        <time>2021-05-23T11:35:33.982Z</time>
      </trkpt>
      <trkpt lat="47.23549" lon="-2.29588">
        <ele>17</ele>
        <time>2021-05-23T11:35:34.982Z</time>
      </trkpt>
      <trkpt lat="47.23551" lon="-2.29588">
        <ele>17</ele>
        <time>2021-05-23T11:35:35.982Z</time>
      </trkpt>
      <trkpt lat="47.23553" lon="-2.29586">
        <ele>17</ele>
        <time>2021-05-23T11:35:36.983Z</time>
      </trkpt>
      <trkpt lat="47.23554" lon="-2.29585">
        <ele>16</ele>
        <time>2021-05-23T11:35:37.982Z</time>
      </trkpt>
      <trkpt lat="47.23555" lon="-2.29583">
        <ele>16</ele>
        <time>2021-05-23T11:35:38.982Z</time>
      </trkpt>
      <trkpt lat="47.23556" lon="-2.29582">
        <ele>16</ele>
        <time>2021-05-23T11:35:39.982Z</time>
      </trkpt>
      <trkpt lat="47.23558" lon="-2.29581">
        <ele>16</ele>
        <time>2021-05-23T11:35:40.983Z</time>
      </trkpt>
      <trkpt lat="47.23559" lon="-2.29579">
        <ele>16</ele>
        <time>2021-05-23T11:35:41.982Z</time>
      </trkpt>
      <trkpt lat="47.23561" lon="-2.29578">
        <ele>15</ele>
        <time>2021-05-23T11:35:42.982Z</time>
      </trkpt>
      <trkpt lat="47.23563" lon="-2.29576">
        <ele>15</ele>
        <time>2021-05-23T11:35:43.982Z</time>
      </trkpt>
      <trkpt lat="47.23564" lon="-2.29574">
        <ele>14</ele>
        <time>2021-05-23T11:35:44.982Z</time>
      </trkpt>
      <trkpt lat="47.23565" lon="-2.29572">
        <ele>14</ele>
        <time>2021-05-23T11:35:45.982Z</time>
      </trkpt>
      <trkpt lat="47.23567" lon="-2.29571">
        <ele>14</ele>
        <time>2021-05-23T11:35:46.982Z</time>
      </trkpt>
      <trkpt lat="47.2357" lon="-2.29569">
        <ele>13</ele>
        <time>2021-05-23T11:35:47.982Z</time>
      </trkpt>
      <trkpt lat="47.23572" lon="-2.29567">
        <ele>13</ele>
        <time>2021-05-23T11:35:48.982Z</time>
      </trkpt>
      <trkpt lat="47.23573" lon="-2.29565">
        <ele>14</ele>
        <time>2021-05-23T11:35:49.982Z</time>
      </trkpt>
      <trkpt lat="47.23574" lon="-2.29564">
        <ele>14</ele>
        <time>2021-05-23T11:35:50.982Z</time>
      </trkpt>
      <trkpt lat="47.23575" lon="-2.29562">
        <ele>14</ele>
        <time>2021-05-23T11:35:51.982Z</time>
      </trkpt>
      <trkpt lat="47.23575" lon="-2.29561">
        <ele>14</ele>
        <time>2021-05-23T11:35:52.982Z</time>
      </trkpt>
      <trkpt lat="47.23575" lon="-2.2956">
        <ele>13</ele>
        <time>2021-05-23T11:35:53.982Z</time>
      </trkpt>
      <trkpt lat="47.23576" lon="-2.29559">
        <ele>13</ele>
        <time>2021-05-23T11:35:54.982Z</time>
      </trkpt>
      <trkpt lat="47.23576" lon="-2.29558">
        <ele>13</ele>
        <time>2021-05-23T11:35:55.982Z</time>
      </trkpt>
      <trkpt lat="47.23577" lon="-2.29557">
        <ele>13</ele>
        <time>2021-05-23T11:35:56.982Z</time>
      </trkpt>
      <trkpt lat="47.23578" lon="-2.29557">
        <ele>13</ele>
        <time>2021-05-23T11:35:57.982Z</time>
      </trkpt>
      <trkpt lat="47.23579" lon="-2.29557">
        <ele>13</ele>
        <time>2021-05-23T11:35:58.983Z</time>
      </trkpt>
      <trkpt lat="47.23579" lon="-2.29556">
        <ele>13</ele>
        <time>2021-05-23T11:35:59.982Z</time>
      </trkpt>
      <trkpt lat="47.2358" lon="-2.29556">
        <ele>13</ele>
        <time>2021-05-23T11:36:00.982Z</time>
      </trkpt>
      <trkpt lat="47.23581" lon="-2.29556">
        <ele>13</ele>
        <time>2021-05-23T11:36:01.982Z</time>
      </trkpt>
      <trkpt lat="47.23582" lon="-2.29556">
        <ele>13</ele>
        <time>2021-05-23T11:36:02.982Z</time>
      </trkpt>
      <trkpt lat="47.23583" lon="-2.29555">
        <ele>13</ele>
        <time>2021-05-23T11:36:03.982Z</time>
      </trkpt>
      <trkpt lat="47.23584" lon="-2.29554">
        <ele>13</ele>
        <time>2021-05-23T11:36:04.982Z</time>
      </trkpt>
      <trkpt lat="47.23585" lon="-2.29554">
        <ele>13</ele>
        <time>2021-05-23T11:36:05.982Z</time>
      </trkpt>
      <trkpt lat="47.23585" lon="-2.29554">
        <ele>13</ele>
        <time>2021-05-23T11:36:06.983Z</time>
      </trkpt>
      <trkpt lat="47.23586" lon="-2.29553">
        <ele>13</ele>
        <time>2021-05-23T11:36:07.983Z</time>
      </trkpt>
      <trkpt lat="47.23587" lon="-2.29552">
        <ele>13</ele>
        <time>2021-05-23T11:36:08.982Z</time>
      </trkpt>
      <trkpt lat="47.23588" lon="-2.29551">
        <ele>13</ele>
        <time>2021-05-23T11:36:09.983Z</time>
      </trkpt>
      <trkpt lat="47.23589" lon="-2.29549">
        <ele>14</ele>
        <time>2021-05-23T11:36:10.982Z</time>
      </trkpt>
      <trkpt lat="47.23589" lon="-2.29548">
        <ele>14</ele>
        <time>2021-05-23T11:36:11.982Z</time>
      </trkpt>
      <trkpt lat="47.23589" lon="-2.29546">
        <ele>15</ele>
        <time>2021-05-23T11:36:12.982Z</time>
      </trkpt>
      <trkpt lat="47.23589" lon="-2.29544">
        <ele>16</ele>
        <time>2021-05-23T11:36:13.983Z</time>
      </trkpt>
      <trkpt lat="47.2359" lon="-2.29541">
        <ele>16</ele>
        <time>2021-05-23T11:36:14.982Z</time>
      </trkpt>
      <trkpt lat="47.2359" lon="-2.29539">
        <ele>17</ele>
        <time>2021-05-23T11:36:15.983Z</time>
      </trkpt>
      <trkpt lat="47.2359" lon="-2.29537">
        <ele>17</ele>
        <time>2021-05-23T11:36:16.983Z</time>
      </trkpt>
      <trkpt lat="47.23591" lon="-2.29535">
        <ele>17</ele>
        <time>2021-05-23T11:36:17.983Z</time>
      </trkpt>
      <trkpt lat="47.23591" lon="-2.29533">
        <ele>18</ele>
        <time>2021-05-23T11:36:18.982Z</time>
      </trkpt>
      <trkpt lat="47.23591" lon="-2.29531">
        <ele>18</ele>
        <time>2021-05-23T11:36:19.983Z</time>
      </trkpt>
      <trkpt lat="47.23591" lon="-2.29529">
        <ele>19</ele>
        <time>2021-05-23T11:36:20.982Z</time>
      </trkpt>
      <trkpt lat="47.23591" lon="-2.29527">
        <ele>19</ele>
        <time>2021-05-23T11:36:21.983Z</time>
      </trkpt>
      <trkpt lat="47.23591" lon="-2.29526">
        <ele>20</ele>
        <time>2021-05-23T11:36:22.982Z</time>
      </trkpt>
      <trkpt lat="47.23591" lon="-2.29524">
        <ele>21</ele>
        <time>2021-05-23T11:36:23.983Z</time>
      </trkpt>
      <trkpt lat="47.23591" lon="-2.29523">
        <ele>21</ele>
        <time>2021-05-23T11:36:24.983Z</time>
      </trkpt>
      <trkpt lat="47.23591" lon="-2.29521">
        <ele>21</ele>
        <time>2021-05-23T11:36:25.982Z</time>
      </trkpt>
      <trkpt lat="47.23592" lon="-2.29519">
        <ele>21</ele>
        <time>2021-05-23T11:36:26.982Z</time>
      </trkpt>
      <trkpt lat="47.23592" lon="-2.29517">
        <ele>21</ele>
        <time>2021-05-23T11:36:27.983Z</time>
      </trkpt>
      <trkpt lat="47.23592" lon="-2.29515">
        <ele>21</ele>
        <time>2021-05-23T11:36:28.983Z</time>
      </trkpt>
      <trkpt lat="47.23592" lon="-2.29514">
        <ele>21</ele>
        <time>2021-05-23T11:36:29.982Z</time>
      </trkpt>
      <trkpt lat="47.23592" lon="-2.29512">
        <ele>21</ele>
        <time>2021-05-23T11:36:30.983Z</time>
      </trkpt>
      <trkpt lat="47.23592" lon="-2.2951">
        <ele>20</ele>
        <time>2021-05-23T11:36:31.983Z</time>
      </trkpt>
      <trkpt lat="47.23591" lon="-2.29509">
        <ele>20</ele>
        <time>2021-05-23T11:36:32.982Z</time>
      </trkpt>
      <trkpt lat="47.23591" lon="-2.29507">
        <ele>19</ele>
        <time>2021-05-23T11:36:33.983Z</time>
      </trkpt>
      <trkpt lat="47.2359" lon="-2.29505">
        <ele>19</ele>
        <time>2021-05-23T11:36:34.983Z</time>
      </trkpt>
      <trkpt lat="47.23589" lon="-2.29503">
        <ele>19</ele>
        <time>2021-05-23T11:36:35.983Z</time>
      </trkpt>
      <trkpt lat="47.23588" lon="-2.29501">
        <ele>18</ele>
        <time>2021-05-23T11:36:36.982Z</time>
      </trkpt>
      <trkpt lat="47.23588" lon="-2.29499">
        <ele>18</ele>
        <time>2021-05-23T11:36:37.983Z</time>
      </trkpt>
      <trkpt lat="47.23588" lon="-2.29497">
        <ele>17</ele>
        <time>2021-05-23T11:36:38.982Z</time>
      </trkpt>
      <trkpt lat="47.23587" lon="-2.29495">
        <ele>17</ele>
        <time>2021-05-23T11:36:39.983Z</time>
      </trkpt>
      <trkpt lat="47.23587" lon="-2.29492">
        <ele>17</ele>
        <time>2021-05-23T11:36:40.983Z</time>
      </trkpt>
      <trkpt lat="47.23587" lon="-2.2949">
        <ele>16</ele>
        <time>2021-05-23T11:36:41.983Z</time>
      </trkpt>
      <trkpt lat="47.23588" lon="-2.29488">
        <ele>16</ele>
        <time>2021-05-23T11:36:42.983Z</time>
      </trkpt>
      <trkpt lat="47.23588" lon="-2.29487">
        <ele>16</ele>
        <time>2021-05-23T11:36:43.983Z</time>
      </trkpt>
      <trkpt lat="47.23588" lon="-2.29485">
        <ele>16</ele>
        <time>2021-05-23T11:36:44.983Z</time>
      </trkpt>
      <trkpt lat="47.23588" lon="-2.29483">
        <ele>17</ele>
        <time>2021-05-23T11:36:45.983Z</time>
      </trkpt>
      <trkpt lat="47.23588" lon="-2.29481">
        <ele>18</ele>
        <time>2021-05-23T11:36:46.982Z</time>
      </trkpt>
      <trkpt lat="47.23588" lon="-2.29479">
        <ele>18</ele>
        <time>2021-05-23T11:36:47.983Z</time>
      </trkpt>
      <trkpt lat="47.23588" lon="-2.29477">
        <ele>19</ele>
        <time>2021-05-23T11:36:48.982Z</time>
      </trkpt>
      <trkpt lat="47.23587" lon="-2.29474">
        <ele>19</ele>
        <time>2021-05-23T11:36:49.982Z</time>
      </trkpt>
      <trkpt lat="47.23587" lon="-2.29472">
        <ele>19</ele>
        <time>2021-05-23T11:36:50.982Z</time>
      </trkpt>
      <trkpt lat="47.23587" lon="-2.29471">
        <ele>19</ele>
        <time>2021-05-23T11:36:51.983Z</time>
      </trkpt>
      <trkpt lat="47.23587" lon="-2.29468">
        <ele>20</ele>
        <time>2021-05-23T11:36:52.983Z</time>
      </trkpt>
      <trkpt lat="47.23587" lon="-2.29466">
        <ele>20</ele>
        <time>2021-05-23T11:36:53.983Z</time>
      </trkpt>
      <trkpt lat="47.23588" lon="-2.29465">
        <ele>21</ele>
        <time>2021-05-23T11:36:54.982Z</time>
      </trkpt>
      <trkpt lat="47.23588" lon="-2.29463">
        <ele>21</ele>
        <time>2021-05-23T11:36:55.983Z</time>
      </trkpt>
      <trkpt lat="47.23588" lon="-2.29461">
        <ele>22</ele>
        <time>2021-05-23T11:36:56.983Z</time>
      </trkpt>
      <trkpt lat="47.23589" lon="-2.2946">
        <ele>23</ele>
        <time>2021-05-23T11:36:57.982Z</time>
      </trkpt>
      <trkpt lat="47.23589" lon="-2.29458">
        <ele>23</ele>
        <time>2021-05-23T11:36:58.982Z</time>
      </trkpt>
      <trkpt lat="47.23589" lon="-2.29457">
        <ele>23</ele>
        <time>2021-05-23T11:36:59.983Z</time>
      </trkpt>
      <trkpt lat="47.23589" lon="-2.29455">
        <ele>23</ele>
        <time>2021-05-23T11:37:00.983Z</time>
      </trkpt>
      <trkpt lat="47.23588" lon="-2.29454">
        <ele>23</ele>
        <time>2021-05-23T11:37:01.983Z</time>
      </trkpt>
      <trkpt lat="47.23588" lon="-2.29452">
        <ele>23</ele>
        <time>2021-05-23T11:37:02.983Z</time>
      </trkpt>
      <trkpt lat="47.23588" lon="-2.29451">
        <ele>23</ele>
        <time>2021-05-23T11:37:03.983Z</time>
      </trkpt>
      <trkpt lat="47.23588" lon="-2.2945">
        <ele>23</ele>
        <time>2021-05-23T11:37:04.982Z</time>
      </trkpt>
      <trkpt lat="47.23589" lon="-2.29448">
        <ele>23</ele>
        <time>2021-05-23T11:37:05.983Z</time>
      </trkpt>
      <trkpt lat="47.2359" lon="-2.29447">
        <ele>23</ele>
        <time>2021-05-23T11:37:06.983Z</time>
      </trkpt>
      <trkpt lat="47.2359" lon="-2.29444">
        <ele>23</ele>
        <time>2021-05-23T11:37:07.983Z</time>
      </trkpt>
      <trkpt lat="47.2359" lon="-2.29443">
        <ele>23</ele>
        <time>2021-05-23T11:37:08.982Z</time>
      </trkpt>
      <trkpt lat="47.23591" lon="-2.2944">
        <ele>24</ele>
        <time>2021-05-23T11:37:09.982Z</time>
      </trkpt>
      <trkpt lat="47.23592" lon="-2.29438">
        <ele>24</ele>
        <time>2021-05-23T11:37:10.982Z</time>
      </trkpt>
      <trkpt lat="47.23592" lon="-2.29436">
        <ele>24</ele>
        <time>2021-05-23T11:37:11.982Z</time>
      </trkpt>
      <trkpt lat="47.23592" lon="-2.29435">
        <ele>25</ele>
        <time>2021-05-23T11:37:12.982Z</time>
      </trkpt>
      <trkpt lat="47.23592" lon="-2.29433">
        <ele>25</ele>
        <time>2021-05-23T11:37:13.982Z</time>
      </trkpt>
      <trkpt lat="47.23593" lon="-2.29431">
        <ele>25</ele>
        <time>2021-05-23T11:37:14.982Z</time>
      </trkpt>
      <trkpt lat="47.23592" lon="-2.29429">
        <ele>25</ele>
        <time>2021-05-23T11:37:15.983Z</time>
      </trkpt>
      <trkpt lat="47.23592" lon="-2.29428">
        <ele>25</ele>
        <time>2021-05-23T11:37:16.982Z</time>
      </trkpt>
      <trkpt lat="47.23592" lon="-2.29426">
        <ele>25</ele>
        <time>2021-05-23T11:37:17.982Z</time>
      </trkpt>
      <trkpt lat="47.23592" lon="-2.29424">
        <ele>25</ele>
        <time>2021-05-23T11:37:18.983Z</time>
      </trkpt>
      <trkpt lat="47.23592" lon="-2.29422">
        <ele>25</ele>
        <time>2021-05-23T11:37:19.983Z</time>
      </trkpt>
      <trkpt lat="47.23592" lon="-2.2942">
        <ele>25</ele>
        <time>2021-05-23T11:37:20.983Z</time>
      </trkpt>
      <trkpt lat="47.23592" lon="-2.29418">
        <ele>25</ele>
        <time>2021-05-23T11:37:21.983Z</time>
      </trkpt>
      <trkpt lat="47.23593" lon="-2.29417">
        <ele>25</ele>
        <time>2021-05-23T11:37:22.982Z</time>
      </trkpt>
      <trkpt lat="47.23594" lon="-2.29414">
        <ele>25</ele>
        <time>2021-05-23T11:37:23.982Z</time>
      </trkpt>
      <trkpt lat="47.23594" lon="-2.29412">
        <ele>26</ele>
        <time>2021-05-23T11:37:24.982Z</time>
      </trkpt>
      <trkpt lat="47.23594" lon="-2.29409">
        <ele>26</ele>
        <time>2021-05-23T11:37:25.983Z</time>
      </trkpt>
      <trkpt lat="47.23595" lon="-2.29407">
        <ele>27</ele>
        <time>2021-05-23T11:37:26.983Z</time>
      </trkpt>
      <trkpt lat="47.23594" lon="-2.29406">
        <ele>27</ele>
        <time>2021-05-23T11:37:27.983Z</time>
      </trkpt>
      <trkpt lat="47.23595" lon="-2.29405">
        <ele>28</ele>
        <time>2021-05-23T11:37:28.983Z</time>
      </trkpt>
      <trkpt lat="47.23595" lon="-2.29404">
        <ele>28</ele>
        <time>2021-05-23T11:37:29.983Z</time>
      </trkpt>
      <trkpt lat="47.23594" lon="-2.29403">
        <ele>29</ele>
        <time>2021-05-23T11:37:30.982Z</time>
      </trkpt>
      <trkpt lat="47.23594" lon="-2.29401">
        <ele>29</ele>
        <time>2021-05-23T11:37:31.983Z</time>
      </trkpt>
      <trkpt lat="47.23594" lon="-2.29399">
        <ele>29</ele>
        <time>2021-05-23T11:37:32.983Z</time>
      </trkpt>
      <trkpt lat="47.23593" lon="-2.29397">
        <ele>29</ele>
        <time>2021-05-23T11:37:33.983Z</time>
      </trkpt>
      <trkpt lat="47.23593" lon="-2.29396">
        <ele>29</ele>
        <time>2021-05-23T11:37:34.982Z</time>
      </trkpt>
      <trkpt lat="47.23592" lon="-2.29394">
        <ele>29</ele>
        <time>2021-05-23T11:37:35.983Z</time>
      </trkpt>
      <trkpt lat="47.23592" lon="-2.29393">
        <ele>28</ele>
        <time>2021-05-23T11:37:36.983Z</time>
      </trkpt>
      <trkpt lat="47.23592" lon="-2.29392">
        <ele>28</ele>
        <time>2021-05-23T11:37:37.983Z</time>
      </trkpt>
      <trkpt lat="47.23592" lon="-2.29391">
        <ele>28</ele>
        <time>2021-05-23T11:37:38.983Z</time>
      </trkpt>
      <trkpt lat="47.23592" lon="-2.29389">
        <ele>27</ele>
        <time>2021-05-23T11:37:39.982Z</time>
      </trkpt>
      <trkpt lat="47.23592" lon="-2.29388">
        <ele>27</ele>
        <time>2021-05-23T11:37:40.983Z</time>
      </trkpt>
      <trkpt lat="47.23592" lon="-2.29387">
        <ele>27</ele>
        <time>2021-05-23T11:37:41.982Z</time>
      </trkpt>
      <trkpt lat="47.23592" lon="-2.29386">
        <ele>27</ele>
        <time>2021-05-23T11:37:42.983Z</time>
      </trkpt>
      <trkpt lat="47.23592" lon="-2.29385">
        <ele>27</ele>
        <time>2021-05-23T11:37:43.982Z</time>
      </trkpt>
      <trkpt lat="47.23592" lon="-2.29383">
        <ele>27</ele>
        <time>2021-05-23T11:37:44.982Z</time>
      </trkpt>
      <trkpt lat="47.23593" lon="-2.29381">
        <ele>27</ele>
        <time>2021-05-23T11:37:45.982Z</time>
      </trkpt>
      <trkpt lat="47.23593" lon="-2.29378">
        <ele>27</ele>
        <time>2021-05-23T11:37:46.982Z</time>
      </trkpt>
      <trkpt lat="47.23592" lon="-2.29377">
        <ele>28</ele>
        <time>2021-05-23T11:37:47.983Z</time>
      </trkpt>
      <trkpt lat="47.23592" lon="-2.29375">
        <ele>28</ele>
        <time>2021-05-23T11:37:48.983Z</time>
      </trkpt>
      <trkpt lat="47.23592" lon="-2.29373">
        <ele>28</ele>
        <time>2021-05-23T11:37:49.982Z</time>
      </trkpt>
      <trkpt lat="47.23592" lon="-2.29372">
        <ele>28</ele>
        <time>2021-05-23T11:37:50.983Z</time>
      </trkpt>
      <trkpt lat="47.23593" lon="-2.29372">
        <ele>28</ele>
        <time>2021-05-23T11:37:51.983Z</time>
      </trkpt>
      <trkpt lat="47.23594" lon="-2.29372">
        <ele>28</ele>
        <time>2021-05-23T11:37:52.983Z</time>
      </trkpt>
      <trkpt lat="47.23594" lon="-2.29373">
        <ele>28</ele>
        <time>2021-05-23T11:37:53.982Z</time>
      </trkpt>
      <trkpt lat="47.23594" lon="-2.29373">
        <ele>27</ele>
        <time>2021-05-23T11:37:54.983Z</time>
      </trkpt>
      <trkpt lat="47.23593" lon="-2.29373">
        <ele>27</ele>
        <time>2021-05-23T11:37:55.983Z</time>
      </trkpt>
      <trkpt lat="47.23593" lon="-2.29374">
        <ele>27</ele>
        <time>2021-05-23T11:37:56.982Z</time>
      </trkpt>
      <trkpt lat="47.23592" lon="-2.29373">
        <ele>26</ele>
        <time>2021-05-23T11:37:57.983Z</time>
      </trkpt>
      <trkpt lat="47.23593" lon="-2.29374">
        <ele>26</ele>
        <time>2021-05-23T11:37:58.982Z</time>
      </trkpt>
      <trkpt lat="47.23593" lon="-2.29375">
        <ele>25</ele>
        <time>2021-05-23T11:37:59.983Z</time>
      </trkpt>
      <trkpt lat="47.23593" lon="-2.29375">
        <ele>24</ele>
        <time>2021-05-23T11:38:00.983Z</time>
      </trkpt>
      <trkpt lat="47.23593" lon="-2.29375">
        <ele>24</ele>
        <time>2021-05-23T11:38:01.983Z</time>
      </trkpt>
      <trkpt lat="47.23593" lon="-2.29375">
        <ele>23</ele>
        <time>2021-05-23T11:38:02.983Z</time>
      </trkpt>
      <trkpt lat="47.23593" lon="-2.29375">
        <ele>23</ele>
        <time>2021-05-23T11:38:03.983Z</time>
      </trkpt>
      <trkpt lat="47.23593" lon="-2.29375">
        <ele>23</ele>
        <time>2021-05-23T11:38:04.982Z</time>
      </trkpt>
      <trkpt lat="47.23593" lon="-2.29375">
        <ele>23</ele>
        <time>2021-05-23T11:38:05.983Z</time>
      </trkpt>
      <trkpt lat="47.23593" lon="-2.29375">
        <ele>23</ele>
        <time>2021-05-23T11:38:06.982Z</time>
      </trkpt>
      <trkpt lat="47.23593" lon="-2.29375">
        <ele>24</ele>
        <time>2021-05-23T11:38:07.982Z</time>
      </trkpt>
      <trkpt lat="47.23593" lon="-2.29375">
        <ele>24</ele>
        <time>2021-05-23T11:38:08.982Z</time>
      </trkpt>
      <trkpt lat="47.23593" lon="-2.29375">
        <ele>25</ele>
        <time>2021-05-23T11:38:09.983Z</time>
      </trkpt>
      <trkpt lat="47.23593" lon="-2.29375">
        <ele>25</ele>
        <time>2021-05-23T11:38:10.983Z</time>
      </trkpt>
      <trkpt lat="47.23593" lon="-2.29375">
        <ele>25</ele>
        <time>2021-05-23T11:38:11.982Z</time>
      </trkpt>
      <trkpt lat="47.23593" lon="-2.29375">
        <ele>26</ele>
        <time>2021-05-23T11:38:12.983Z</time>
      </trkpt>
      <trkpt lat="47.23593" lon="-2.29375">
        <ele>26</ele>
        <time>2021-05-23T11:38:13.982Z</time>
      </trkpt>
      <trkpt lat="47.23593" lon="-2.29375">
        <ele>26</ele>
        <time>2021-05-23T11:38:14.982Z</time>
      </trkpt>
      <trkpt lat="47.23593" lon="-2.29375">
        <ele>27</ele>
        <time>2021-05-23T11:38:15.983Z</time>
      </trkpt>
      <trkpt lat="47.23593" lon="-2.29374">
        <ele>27</ele>
        <time>2021-05-23T11:38:16.983Z</time>
      </trkpt>
      <trkpt lat="47.23592" lon="-2.29372">
        <ele>27</ele>
        <time>2021-05-23T11:38:17.982Z</time>
      </trkpt>
      <trkpt lat="47.23591" lon="-2.2937">
        <ele>27</ele>
        <time>2021-05-23T11:38:18.982Z</time>
      </trkpt>
      <trkpt lat="47.23591" lon="-2.29367">
        <ele>27</ele>
        <time>2021-05-23T11:38:19.983Z</time>
      </trkpt>
      <trkpt lat="47.23591" lon="-2.29364">
        <ele>27</ele>
        <time>2021-05-23T11:38:20.983Z</time>
      </trkpt>
      <trkpt lat="47.23591" lon="-2.29362">
        <ele>27</ele>
        <time>2021-05-23T11:38:21.983Z</time>
      </trkpt>
      <trkpt lat="47.23591" lon="-2.29359">
        <ele>27</ele>
        <time>2021-05-23T11:38:22.983Z</time>
      </trkpt>
      <trkpt lat="47.2359" lon="-2.29357">
        <ele>27</ele>
        <time>2021-05-23T11:38:23.983Z</time>
      </trkpt>
      <trkpt lat="47.2359" lon="-2.29354">
        <ele>27</ele>
        <time>2021-05-23T11:38:24.982Z</time>
      </trkpt>
      <trkpt lat="47.2359" lon="-2.29351">
        <ele>27</ele>
        <time>2021-05-23T11:38:25.983Z</time>
      </trkpt>
      <trkpt lat="47.23589" lon="-2.29349">
        <ele>26</ele>
        <time>2021-05-23T11:38:26.982Z</time>
      </trkpt>
      <trkpt lat="47.23589" lon="-2.29347">
        <ele>26</ele>
        <time>2021-05-23T11:38:27.982Z</time>
      </trkpt>
      <trkpt lat="47.23589" lon="-2.29346">
        <ele>26</ele>
        <time>2021-05-23T11:38:28.983Z</time>
      </trkpt>
      <trkpt lat="47.23589" lon="-2.29344">
        <ele>25</ele>
        <time>2021-05-23T11:38:29.983Z</time>
      </trkpt>
      <trkpt lat="47.23589" lon="-2.29342">
        <ele>25</ele>
        <time>2021-05-23T11:38:30.982Z</time>
      </trkpt>
      <trkpt lat="47.23589" lon="-2.2934">
        <ele>25</ele>
        <time>2021-05-23T11:38:31.983Z</time>
      </trkpt>
      <trkpt lat="47.23589" lon="-2.29339">
        <ele>25</ele>
        <time>2021-05-23T11:38:32.983Z</time>
      </trkpt>
      <trkpt lat="47.23589" lon="-2.29337">
        <ele>25</ele>
        <time>2021-05-23T11:38:33.982Z</time>
      </trkpt>
      <trkpt lat="47.2359" lon="-2.29336">
        <ele>25</ele>
        <time>2021-05-23T11:38:34.983Z</time>
      </trkpt>
      <trkpt lat="47.2359" lon="-2.29335">
        <ele>25</ele>
        <time>2021-05-23T11:38:35.983Z</time>
      </trkpt>
      <trkpt lat="47.2359" lon="-2.29334">
        <ele>25</ele>
        <time>2021-05-23T11:38:36.983Z</time>
      </trkpt>
      <trkpt lat="47.23591" lon="-2.29333">
        <ele>24</ele>
        <time>2021-05-23T11:38:37.983Z</time>
      </trkpt>
      <trkpt lat="47.2359" lon="-2.29331">
        <ele>24</ele>
        <time>2021-05-23T11:38:38.982Z</time>
      </trkpt>
      <trkpt lat="47.2359" lon="-2.2933">
        <ele>24</ele>
        <time>2021-05-23T11:38:39.982Z</time>
      </trkpt>
      <trkpt lat="47.2359" lon="-2.29329">
        <ele>24</ele>
        <time>2021-05-23T11:38:40.983Z</time>
      </trkpt>
      <trkpt lat="47.23589" lon="-2.29328">
        <ele>24</ele>
        <time>2021-05-23T11:38:41.983Z</time>
      </trkpt>
      <trkpt lat="47.2359" lon="-2.29327">
        <ele>24</ele>
        <time>2021-05-23T11:38:42.982Z</time>
      </trkpt>
      <trkpt lat="47.23589" lon="-2.29325">
        <ele>24</ele>
        <time>2021-05-23T11:38:43.983Z</time>
      </trkpt>
      <trkpt lat="47.23588" lon="-2.29324">
        <ele>23</ele>
        <time>2021-05-23T11:38:44.982Z</time>
      </trkpt>
      <trkpt lat="47.23588" lon="-2.29321">
        <ele>23</ele>
        <time>2021-05-23T11:38:45.983Z</time>
      </trkpt>
      <trkpt lat="47.23588" lon="-2.29319">
        <ele>22</ele>
        <time>2021-05-23T11:38:46.983Z</time>
      </trkpt>
      <trkpt lat="47.23589" lon="-2.29317">
        <ele>22</ele>
        <time>2021-05-23T11:38:47.983Z</time>
      </trkpt>
      <trkpt lat="47.23589" lon="-2.29316">
        <ele>22</ele>
        <time>2021-05-23T11:38:48.982Z</time>
      </trkpt>
      <trkpt lat="47.2359" lon="-2.29314">
        <ele>22</ele>
        <time>2021-05-23T11:38:49.983Z</time>
      </trkpt>
      <trkpt lat="47.2359" lon="-2.29313">
        <ele>22</ele>
        <time>2021-05-23T11:38:50.983Z</time>
      </trkpt>
      <trkpt lat="47.2359" lon="-2.29311">
        <ele>23</ele>
        <time>2021-05-23T11:38:51.982Z</time>
      </trkpt>
      <trkpt lat="47.2359" lon="-2.2931">
        <ele>23</ele>
        <time>2021-05-23T11:38:52.983Z</time>
      </trkpt>
      <trkpt lat="47.2359" lon="-2.29308">
        <ele>23</ele>
        <time>2021-05-23T11:38:53.982Z</time>
      </trkpt>
      <trkpt lat="47.2359" lon="-2.29306">
        <ele>23</ele>
        <time>2021-05-23T11:38:54.982Z</time>
      </trkpt>
      <trkpt lat="47.23589" lon="-2.29304">
        <ele>23</ele>
        <time>2021-05-23T11:38:55.982Z</time>
      </trkpt>
      <trkpt lat="47.23589" lon="-2.29303">
        <ele>23</ele>
        <time>2021-05-23T11:38:56.983Z</time>
      </trkpt>
      <trkpt lat="47.23589" lon="-2.29302">
        <ele>24</ele>
        <time>2021-05-23T11:38:57.983Z</time>
      </trkpt>
      <trkpt lat="47.23589" lon="-2.293">
        <ele>24</ele>
        <time>2021-05-23T11:38:58.982Z</time>
      </trkpt>
      <trkpt lat="47.23589" lon="-2.29298">
        <ele>24</ele>
        <time>2021-05-23T11:38:59.983Z</time>
      </trkpt>
      <trkpt lat="47.23589" lon="-2.29297">
        <ele>25</ele>
        <time>2021-05-23T11:39:00.983Z</time>
      </trkpt>
      <trkpt lat="47.23589" lon="-2.29295">
        <ele>25</ele>
        <time>2021-05-23T11:39:01.982Z</time>
      </trkpt>
      <trkpt lat="47.23589" lon="-2.29294">
        <ele>25</ele>
        <time>2021-05-23T11:39:02.983Z</time>
      </trkpt>
      <trkpt lat="47.2359" lon="-2.29292">
        <ele>25</ele>
        <time>2021-05-23T11:39:03.983Z</time>
      </trkpt>
      <trkpt lat="47.2359" lon="-2.2929">
        <ele>26</ele>
        <time>2021-05-23T11:39:04.983Z</time>
      </trkpt>
      <trkpt lat="47.2359" lon="-2.29289">
        <ele>26</ele>
        <time>2021-05-23T11:39:05.983Z</time>
      </trkpt>
      <trkpt lat="47.2359" lon="-2.29287">
        <ele>26</ele>
        <time>2021-05-23T11:39:06.983Z</time>
      </trkpt>
      <trkpt lat="47.23591" lon="-2.29285">
        <ele>26</ele>
        <time>2021-05-23T11:39:07.983Z</time>
      </trkpt>
      <trkpt lat="47.23591" lon="-2.29283">
        <ele>27</ele>
        <time>2021-05-23T11:39:08.983Z</time>
      </trkpt>
      <trkpt lat="47.23591" lon="-2.29281">
        <ele>27</ele>
        <time>2021-05-23T11:39:09.982Z</time>
      </trkpt>
      <trkpt lat="47.23591" lon="-2.29279">
        <ele>27</ele>
        <time>2021-05-23T11:39:10.983Z</time>
      </trkpt>
      <trkpt lat="47.23591" lon="-2.29277">
        <ele>28</ele>
        <time>2021-05-23T11:39:11.982Z</time>
      </trkpt>
      <trkpt lat="47.23591" lon="-2.29275">
        <ele>28</ele>
        <time>2021-05-23T11:39:12.983Z</time>
      </trkpt>
      <trkpt lat="47.2359" lon="-2.29273">
        <ele>28</ele>
        <time>2021-05-23T11:39:13.983Z</time>
      </trkpt>
      <trkpt lat="47.2359" lon="-2.2927">
        <ele>29</ele>
        <time>2021-05-23T11:39:14.982Z</time>
      </trkpt>
      <trkpt lat="47.2359" lon="-2.29269">
        <ele>29</ele>
        <time>2021-05-23T11:39:15.983Z</time>
      </trkpt>
      <trkpt lat="47.23591" lon="-2.29267">
        <ele>29</ele>
        <time>2021-05-23T11:39:16.983Z</time>
      </trkpt>
      <trkpt lat="47.2359" lon="-2.29266">
        <ele>29</ele>
        <time>2021-05-23T11:39:17.982Z</time>
      </trkpt>
      <trkpt lat="47.23591" lon="-2.29265">
        <ele>30</ele>
        <time>2021-05-23T11:39:18.983Z</time>
      </trkpt>
      <trkpt lat="47.23591" lon="-2.29264">
        <ele>29</ele>
        <time>2021-05-23T11:39:19.983Z</time>
      </trkpt>
      <trkpt lat="47.23591" lon="-2.29263">
        <ele>29</ele>
        <time>2021-05-23T11:39:20.982Z</time>
      </trkpt>
      <trkpt lat="47.23591" lon="-2.29261">
        <ele>29</ele>
        <time>2021-05-23T11:39:21.983Z</time>
      </trkpt>
      <trkpt lat="47.23592" lon="-2.29261">
        <ele>29</ele>
        <time>2021-05-23T11:39:22.983Z</time>
      </trkpt>
      <trkpt lat="47.23591" lon="-2.2926">
        <ele>29</ele>
        <time>2021-05-23T11:39:23.983Z</time>
      </trkpt>
      <trkpt lat="47.23591" lon="-2.2926">
        <ele>29</ele>
        <time>2021-05-23T11:39:24.982Z</time>
      </trkpt>
      <trkpt lat="47.23591" lon="-2.29259">
        <ele>29</ele>
        <time>2021-05-23T11:39:25.983Z</time>
      </trkpt>
      <trkpt lat="47.23591" lon="-2.29257">
        <ele>29</ele>
        <time>2021-05-23T11:39:26.983Z</time>
      </trkpt>
      <trkpt lat="47.23591" lon="-2.29255">
        <ele>28</ele>
        <time>2021-05-23T11:39:27.983Z</time>
      </trkpt>
      <trkpt lat="47.23591" lon="-2.29253">
        <ele>28</ele>
        <time>2021-05-23T11:39:28.983Z</time>
      </trkpt>
      <trkpt lat="47.23591" lon="-2.29252">
        <ele>28</ele>
        <time>2021-05-23T11:39:29.982Z</time>
      </trkpt>
      <trkpt lat="47.23591" lon="-2.2925">
        <ele>28</ele>
        <time>2021-05-23T11:39:30.983Z</time>
      </trkpt>
      <trkpt lat="47.23591" lon="-2.29248">
        <ele>28</ele>
        <time>2021-05-23T11:39:31.983Z</time>
      </trkpt>
      <trkpt lat="47.23591" lon="-2.29247">
        <ele>28</ele>
        <time>2021-05-23T11:39:32.982Z</time>
      </trkpt>
      <trkpt lat="47.23591" lon="-2.29246">
        <ele>28</ele>
        <time>2021-05-23T11:39:33.983Z</time>
      </trkpt>
      <trkpt lat="47.23592" lon="-2.29245">
        <ele>28</ele>
        <time>2021-05-23T11:39:34.983Z</time>
      </trkpt>
      <trkpt lat="47.23592" lon="-2.29244">
        <ele>28</ele>
        <time>2021-05-23T11:39:35.982Z</time>
      </trkpt>
      <trkpt lat="47.23592" lon="-2.29242">
        <ele>28</ele>
        <time>2021-05-23T11:39:36.983Z</time>
      </trkpt>
      <trkpt lat="47.23592" lon="-2.29241">
        <ele>27</ele>
        <time>2021-05-23T11:39:37.982Z</time>
      </trkpt>
      <trkpt lat="47.23593" lon="-2.29241">
        <ele>28</ele>
        <time>2021-05-23T11:39:38.983Z</time>
      </trkpt>
      <trkpt lat="47.23593" lon="-2.2924">
        <ele>28</ele>
        <time>2021-05-23T11:39:39.983Z</time>
      </trkpt>
      <trkpt lat="47.23594" lon="-2.29239">
        <ele>28</ele>
        <time>2021-05-23T11:39:40.983Z</time>
      </trkpt>
      <trkpt lat="47.23594" lon="-2.29238">
        <ele>28</ele>
        <time>2021-05-23T11:39:41.983Z</time>
      </trkpt>
      <trkpt lat="47.23595" lon="-2.29236">
        <ele>29</ele>
        <time>2021-05-23T11:39:42.983Z</time>
      </trkpt>
      <trkpt lat="47.23596" lon="-2.29235">
        <ele>29</ele>
        <time>2021-05-23T11:39:43.983Z</time>
      </trkpt>
      <trkpt lat="47.23597" lon="-2.29233">
        <ele>30</ele>
        <time>2021-05-23T11:39:44.983Z</time>
      </trkpt>
      <trkpt lat="47.23597" lon="-2.29232">
        <ele>30</ele>
        <time>2021-05-23T11:39:45.983Z</time>
      </trkpt>
      <trkpt lat="47.23598" lon="-2.29231">
        <ele>30</ele>
        <time>2021-05-23T11:39:46.983Z</time>
      </trkpt>
      <trkpt lat="47.23598" lon="-2.29229">
        <ele>30</ele>
        <time>2021-05-23T11:39:47.983Z</time>
      </trkpt>
      <trkpt lat="47.23599" lon="-2.29228">
        <ele>30</ele>
        <time>2021-05-23T11:39:48.982Z</time>
      </trkpt>
      <trkpt lat="47.23599" lon="-2.29227">
        <ele>30</ele>
        <time>2021-05-23T11:39:49.982Z</time>
      </trkpt>
      <trkpt lat="47.23599" lon="-2.29226">
        <ele>30</ele>
        <time>2021-05-23T11:39:50.983Z</time>
      </trkpt>
      <trkpt lat="47.23599" lon="-2.29224">
        <ele>30</ele>
        <time>2021-05-23T11:39:51.982Z</time>
      </trkpt>
      <trkpt lat="47.23599" lon="-2.29223">
        <ele>29</ele>
        <time>2021-05-23T11:39:52.983Z</time>
      </trkpt>
      <trkpt lat="47.236" lon="-2.29222">
        <ele>29</ele>
        <time>2021-05-23T11:39:53.982Z</time>
      </trkpt>
      <trkpt lat="47.236" lon="-2.29221">
        <ele>29</ele>
        <time>2021-05-23T11:39:54.983Z</time>
      </trkpt>
      <trkpt lat="47.23601" lon="-2.2922">
        <ele>29</ele>
        <time>2021-05-23T11:39:55.983Z</time>
      </trkpt>
      <trkpt lat="47.23602" lon="-2.29219">
        <ele>28</ele>
        <time>2021-05-23T11:39:56.983Z</time>
      </trkpt>
      <trkpt lat="47.23603" lon="-2.29217">
        <ele>28</ele>
        <time>2021-05-23T11:39:57.982Z</time>
      </trkpt>
      <trkpt lat="47.23604" lon="-2.29215">
        <ele>27</ele>
        <time>2021-05-23T11:39:58.983Z</time>
      </trkpt>
      <trkpt lat="47.23605" lon="-2.29214">
        <ele>27</ele>
        <time>2021-05-23T11:39:59.982Z</time>
      </trkpt>
      <trkpt lat="47.23606" lon="-2.29213">
        <ele>27</ele>
        <time>2021-05-23T11:40:00.983Z</time>
      </trkpt>
      <trkpt lat="47.23606" lon="-2.29212">
        <ele>26</ele>
        <time>2021-05-23T11:40:01.982Z</time>
      </trkpt>
      <trkpt lat="47.23607" lon="-2.29212">
        <ele>26</ele>
        <time>2021-05-23T11:40:02.983Z</time>
      </trkpt>
      <trkpt lat="47.23608" lon="-2.29211">
        <ele>26</ele>
        <time>2021-05-23T11:40:03.983Z</time>
      </trkpt>
      <trkpt lat="47.23609" lon="-2.29211">
        <ele>27</ele>
        <time>2021-05-23T11:40:04.983Z</time>
      </trkpt>
      <trkpt lat="47.23609" lon="-2.29211">
        <ele>27</ele>
        <time>2021-05-23T11:40:05.983Z</time>
      </trkpt>
      <trkpt lat="47.2361" lon="-2.29211">
        <ele>27</ele>
        <time>2021-05-23T11:40:06.982Z</time>
      </trkpt>
      <trkpt lat="47.23611" lon="-2.29211">
        <ele>28</ele>
        <time>2021-05-23T11:40:07.983Z</time>
      </trkpt>
      <trkpt lat="47.23613" lon="-2.29211">
        <ele>28</ele>
        <time>2021-05-23T11:40:08.983Z</time>
      </trkpt>
      <trkpt lat="47.23614" lon="-2.2921">
        <ele>29</ele>
        <time>2021-05-23T11:40:09.982Z</time>
      </trkpt>
      <trkpt lat="47.23615" lon="-2.29209">
        <ele>29</ele>
        <time>2021-05-23T11:40:10.983Z</time>
      </trkpt>
      <trkpt lat="47.23617" lon="-2.29209">
        <ele>29</ele>
        <time>2021-05-23T11:40:11.983Z</time>
      </trkpt>
      <trkpt lat="47.23618" lon="-2.29208">
        <ele>29</ele>
        <time>2021-05-23T11:40:12.983Z</time>
      </trkpt>
      <trkpt lat="47.23619" lon="-2.29206">
        <ele>29</ele>
        <time>2021-05-23T11:40:13.983Z</time>
      </trkpt>
      <trkpt lat="47.23621" lon="-2.29205">
        <ele>29</ele>
        <time>2021-05-23T11:40:14.983Z</time>
      </trkpt>
      <trkpt lat="47.23622" lon="-2.29204">
        <ele>29</ele>
        <time>2021-05-23T11:40:15.983Z</time>
      </trkpt>
      <trkpt lat="47.23624" lon="-2.29204">
        <ele>30</ele>
        <time>2021-05-23T11:40:16.982Z</time>
      </trkpt>
      <trkpt lat="47.23625" lon="-2.29203">
        <ele>30</ele>
        <time>2021-05-23T11:40:17.983Z</time>
      </trkpt>
      <trkpt lat="47.23626" lon="-2.29203">
        <ele>31</ele>
        <time>2021-05-23T11:40:18.982Z</time>
      </trkpt>
      <trkpt lat="47.23626" lon="-2.29204">
        <ele>31</ele>
        <time>2021-05-23T11:40:19.983Z</time>
      </trkpt>
      <trkpt lat="47.23626" lon="-2.29204">
        <ele>31</ele>
        <time>2021-05-23T11:40:20.983Z</time>
      </trkpt>
      <trkpt lat="47.23627" lon="-2.29204">
        <ele>31</ele>
        <time>2021-05-23T11:40:21.982Z</time>
      </trkpt>
      <trkpt lat="47.23627" lon="-2.29204">
        <ele>32</ele>
        <time>2021-05-23T11:40:22.983Z</time>
      </trkpt>
      <trkpt lat="47.23627" lon="-2.29204">
        <ele>32</ele>
        <time>2021-05-23T11:40:23.982Z</time>
      </trkpt>
      <trkpt lat="47.23627" lon="-2.29205">
        <ele>32</ele>
        <time>2021-05-23T11:40:24.983Z</time>
      </trkpt>
      <trkpt lat="47.23627" lon="-2.29205">
        <ele>32</ele>
        <time>2021-05-23T11:40:25.982Z</time>
      </trkpt>
      <trkpt lat="47.23627" lon="-2.29207">
        <ele>32</ele>
        <time>2021-05-23T11:40:26.982Z</time>
      </trkpt>
      <trkpt lat="47.23627" lon="-2.29207">
        <ele>33</ele>
        <time>2021-05-23T11:40:27.983Z</time>
      </trkpt>
      <trkpt lat="47.23628" lon="-2.29208">
        <ele>33</ele>
        <time>2021-05-23T11:40:28.983Z</time>
      </trkpt>
      <trkpt lat="47.23629" lon="-2.29208">
        <ele>33</ele>
        <time>2021-05-23T11:40:29.983Z</time>
      </trkpt>
      <trkpt lat="47.2363" lon="-2.29208">
        <ele>34</ele>
        <time>2021-05-23T11:40:30.983Z</time>
      </trkpt>
      <trkpt lat="47.23631" lon="-2.29208">
        <ele>34</ele>
        <time>2021-05-23T11:40:31.982Z</time>
      </trkpt>
      <trkpt lat="47.23631" lon="-2.29208">
        <ele>33</ele>
        <time>2021-05-23T11:40:32.983Z</time>
      </trkpt>
      <trkpt lat="47.23631" lon="-2.29208">
        <ele>33</ele>
        <time>2021-05-23T11:40:33.983Z</time>
      </trkpt>
      <trkpt lat="47.23632" lon="-2.29208">
        <ele>33</ele>
        <time>2021-05-23T11:40:34.983Z</time>
      </trkpt>
      <trkpt lat="47.23633" lon="-2.29208">
        <ele>33</ele>
        <time>2021-05-23T11:40:35.982Z</time>
      </trkpt>
      <trkpt lat="47.23634" lon="-2.29208">
        <ele>33</ele>
        <time>2021-05-23T11:40:36.983Z</time>
      </trkpt>
      <trkpt lat="47.23635" lon="-2.29208">
        <ele>33</ele>
        <time>2021-05-23T11:40:37.983Z</time>
      </trkpt>
      <trkpt lat="47.23636" lon="-2.29208">
        <ele>32</ele>
        <time>2021-05-23T11:40:38.983Z</time>
      </trkpt>
      <trkpt lat="47.23637" lon="-2.29207">
        <ele>31</ele>
        <time>2021-05-23T11:40:39.983Z</time>
      </trkpt>
      <trkpt lat="47.23638" lon="-2.29207">
        <ele>31</ele>
        <time>2021-05-23T11:40:40.982Z</time>
      </trkpt>
      <trkpt lat="47.23639" lon="-2.29207">
        <ele>31</ele>
        <time>2021-05-23T11:40:41.983Z</time>
      </trkpt>
      <trkpt lat="47.2364" lon="-2.29206">
        <ele>30</ele>
        <time>2021-05-23T11:40:42.983Z</time>
      </trkpt>
      <trkpt lat="47.23641" lon="-2.29206">
        <ele>30</ele>
        <time>2021-05-23T11:40:43.982Z</time>
      </trkpt>
      <trkpt lat="47.23642" lon="-2.29206">
        <ele>30</ele>
        <time>2021-05-23T11:40:44.983Z</time>
      </trkpt>
      <trkpt lat="47.23642" lon="-2.29206">
        <ele>30</ele>
        <time>2021-05-23T11:40:45.983Z</time>
      </trkpt>
      <trkpt lat="47.23643" lon="-2.29207">
        <ele>31</ele>
        <time>2021-05-23T11:40:46.983Z</time>
      </trkpt>
      <trkpt lat="47.23644" lon="-2.29207">
        <ele>31</ele>
        <time>2021-05-23T11:40:47.983Z</time>
      </trkpt>
      <trkpt lat="47.23645" lon="-2.29206">
        <ele>31</ele>
        <time>2021-05-23T11:40:48.982Z</time>
      </trkpt>
      <trkpt lat="47.23645" lon="-2.29206">
        <ele>31</ele>
        <time>2021-05-23T11:40:49.983Z</time>
      </trkpt>
      <trkpt lat="47.23646" lon="-2.29205">
        <ele>31</ele>
        <time>2021-05-23T11:40:50.982Z</time>
      </trkpt>
      <trkpt lat="47.23647" lon="-2.29205">
        <ele>31</ele>
        <time>2021-05-23T11:40:51.983Z</time>
      </trkpt>
      <trkpt lat="47.23648" lon="-2.29205">
        <ele>31</ele>
        <time>2021-05-23T11:40:52.983Z</time>
      </trkpt>
      <trkpt lat="47.23649" lon="-2.29205">
        <ele>30</ele>
        <time>2021-05-23T11:40:53.983Z</time>
      </trkpt>
      <trkpt lat="47.23651" lon="-2.29205">
        <ele>30</ele>
        <time>2021-05-23T11:40:54.982Z</time>
      </trkpt>
      <trkpt lat="47.23652" lon="-2.29206">
        <ele>30</ele>
        <time>2021-05-23T11:40:55.983Z</time>
      </trkpt>
      <trkpt lat="47.23653" lon="-2.29206">
        <ele>30</ele>
        <time>2021-05-23T11:40:56.983Z</time>
      </trkpt>
      <trkpt lat="47.23656" lon="-2.29205">
        <ele>29</ele>
        <time>2021-05-23T11:40:57.982Z</time>
      </trkpt>
      <trkpt lat="47.23657" lon="-2.29205">
        <ele>29</ele>
        <time>2021-05-23T11:40:58.983Z</time>
      </trkpt>
      <trkpt lat="47.23658" lon="-2.29204">
        <ele>29</ele>
        <time>2021-05-23T11:40:59.983Z</time>
      </trkpt>
      <trkpt lat="47.23659" lon="-2.29204">
        <ele>29</ele>
        <time>2021-05-23T11:41:00.983Z</time>
      </trkpt>
      <trkpt lat="47.2366" lon="-2.29204">
        <ele>29</ele>
        <time>2021-05-23T11:41:01.982Z</time>
      </trkpt>
      <trkpt lat="47.23661" lon="-2.29204">
        <ele>28</ele>
        <time>2021-05-23T11:41:02.983Z</time>
      </trkpt>
      <trkpt lat="47.23661" lon="-2.29204">
        <ele>29</ele>
        <time>2021-05-23T11:41:03.982Z</time>
      </trkpt>
      <trkpt lat="47.23662" lon="-2.29203">
        <ele>29</ele>
        <time>2021-05-23T11:41:04.982Z</time>
      </trkpt>
      <trkpt lat="47.23664" lon="-2.29203">
        <ele>29</ele>
        <time>2021-05-23T11:41:05.983Z</time>
      </trkpt>
      <trkpt lat="47.23666" lon="-2.29203">
        <ele>29</ele>
        <time>2021-05-23T11:41:06.983Z</time>
      </trkpt>
      <trkpt lat="47.23667" lon="-2.29202">
        <ele>30</ele>
        <time>2021-05-23T11:41:07.983Z</time>
      </trkpt>
      <trkpt lat="47.23668" lon="-2.29202">
        <ele>30</ele>
        <time>2021-05-23T11:41:08.983Z</time>
      </trkpt>
      <trkpt lat="47.23669" lon="-2.29201">
        <ele>30</ele>
        <time>2021-05-23T11:41:09.983Z</time>
      </trkpt>
      <trkpt lat="47.2367" lon="-2.29201">
        <ele>30</ele>
        <time>2021-05-23T11:41:10.983Z</time>
      </trkpt>
      <trkpt lat="47.23671" lon="-2.29201">
        <ele>30</ele>
        <time>2021-05-23T11:41:11.983Z</time>
      </trkpt>
      <trkpt lat="47.23672" lon="-2.292">
        <ele>30</ele>
        <time>2021-05-23T11:41:12.983Z</time>
      </trkpt>
      <trkpt lat="47.23674" lon="-2.292">
        <ele>30</ele>
        <time>2021-05-23T11:41:13.983Z</time>
      </trkpt>
      <trkpt lat="47.23675" lon="-2.29201">
        <ele>30</ele>
        <time>2021-05-23T11:41:14.983Z</time>
      </trkpt>
      <trkpt lat="47.23676" lon="-2.29201">
        <ele>30</ele>
        <time>2021-05-23T11:41:15.982Z</time>
      </trkpt>
      <trkpt lat="47.23676" lon="-2.292">
        <ele>30</ele>
        <time>2021-05-23T11:41:16.983Z</time>
      </trkpt>
      <trkpt lat="47.23677" lon="-2.292">
        <ele>30</ele>
        <time>2021-05-23T11:41:17.983Z</time>
      </trkpt>
      <trkpt lat="47.23678" lon="-2.29199">
        <ele>30</ele>
        <time>2021-05-23T11:41:18.983Z</time>
      </trkpt>
      <trkpt lat="47.23679" lon="-2.29198">
        <ele>30</ele>
        <time>2021-05-23T11:41:19.983Z</time>
      </trkpt>
      <trkpt lat="47.2368" lon="-2.29197">
        <ele>29</ele>
        <time>2021-05-23T11:41:20.982Z</time>
      </trkpt>
      <trkpt lat="47.23682" lon="-2.29197">
        <ele>29</ele>
        <time>2021-05-23T11:41:21.982Z</time>
      </trkpt>
      <trkpt lat="47.23683" lon="-2.29197">
        <ele>29</ele>
        <time>2021-05-23T11:41:22.982Z</time>
      </trkpt>
      <trkpt lat="47.23685" lon="-2.29196">
        <ele>29</ele>
        <time>2021-05-23T11:41:23.983Z</time>
      </trkpt>
      <trkpt lat="47.23686" lon="-2.29194">
        <ele>29</ele>
        <time>2021-05-23T11:41:24.983Z</time>
      </trkpt>
      <trkpt lat="47.23687" lon="-2.29192">
        <ele>29</ele>
        <time>2021-05-23T11:41:25.982Z</time>
      </trkpt>
      <trkpt lat="47.23688" lon="-2.29191">
        <ele>28</ele>
        <time>2021-05-23T11:41:26.983Z</time>
      </trkpt>
      <trkpt lat="47.23689" lon="-2.2919">
        <ele>28</ele>
        <time>2021-05-23T11:41:27.982Z</time>
      </trkpt>
      <trkpt lat="47.23691" lon="-2.29189">
        <ele>28</ele>
        <time>2021-05-23T11:41:28.983Z</time>
      </trkpt>
      <trkpt lat="47.23693" lon="-2.29188">
        <ele>28</ele>
        <time>2021-05-23T11:41:29.983Z</time>
      </trkpt>
      <trkpt lat="47.23695" lon="-2.29186">
        <ele>27</ele>
        <time>2021-05-23T11:41:30.982Z</time>
      </trkpt>
      <trkpt lat="47.23696" lon="-2.29185">
        <ele>27</ele>
        <time>2021-05-23T11:41:31.983Z</time>
      </trkpt>
      <trkpt lat="47.23698" lon="-2.29184">
        <ele>27</ele>
        <time>2021-05-23T11:41:32.983Z</time>
      </trkpt>
      <trkpt lat="47.237" lon="-2.29184">
        <ele>26</ele>
        <time>2021-05-23T11:41:33.983Z</time>
      </trkpt>
      <trkpt lat="47.23702" lon="-2.29183">
        <ele>26</ele>
        <time>2021-05-23T11:41:34.982Z</time>
      </trkpt>
      <trkpt lat="47.23703" lon="-2.29183">
        <ele>26</ele>
        <time>2021-05-23T11:41:35.983Z</time>
      </trkpt>
      <trkpt lat="47.23704" lon="-2.29184">
        <ele>26</ele>
        <time>2021-05-23T11:41:36.982Z</time>
      </trkpt>
      <trkpt lat="47.23705" lon="-2.29184">
        <ele>27</ele>
        <time>2021-05-23T11:41:37.983Z</time>
      </trkpt>
      <trkpt lat="47.23706" lon="-2.29184">
        <ele>27</ele>
        <time>2021-05-23T11:41:38.983Z</time>
      </trkpt>
      <trkpt lat="47.23707" lon="-2.29183">
        <ele>27</ele>
        <time>2021-05-23T11:41:39.983Z</time>
      </trkpt>
      <trkpt lat="47.23708" lon="-2.29183">
        <ele>27</ele>
        <time>2021-05-23T11:41:40.983Z</time>
      </trkpt>
      <trkpt lat="47.23709" lon="-2.29182">
        <ele>27</ele>
        <time>2021-05-23T11:41:41.983Z</time>
      </trkpt>
      <trkpt lat="47.23709" lon="-2.29181">
        <ele>27</ele>
        <time>2021-05-23T11:41:42.982Z</time>
      </trkpt>
      <trkpt lat="47.2371" lon="-2.29181">
        <ele>26</ele>
        <time>2021-05-23T11:41:43.983Z</time>
      </trkpt>
      <trkpt lat="47.2371" lon="-2.29181">
        <ele>26</ele>
        <time>2021-05-23T11:41:44.982Z</time>
      </trkpt>
      <trkpt lat="47.2371" lon="-2.2918">
        <ele>26</ele>
        <time>2021-05-23T11:41:45.983Z</time>
      </trkpt>
      <trkpt lat="47.23711" lon="-2.29179">
        <ele>26</ele>
        <time>2021-05-23T11:41:46.983Z</time>
      </trkpt>
      <trkpt lat="47.23711" lon="-2.29178">
        <ele>25</ele>
        <time>2021-05-23T11:41:47.983Z</time>
      </trkpt>
      <trkpt lat="47.2371" lon="-2.29178">
        <ele>25</ele>
        <time>2021-05-23T11:41:48.983Z</time>
      </trkpt>
      <trkpt lat="47.2371" lon="-2.29177">
        <ele>25</ele>
        <time>2021-05-23T11:41:49.982Z</time>
      </trkpt>
      <trkpt lat="47.2371" lon="-2.29178">
        <ele>25</ele>
        <time>2021-05-23T11:41:50.983Z</time>
      </trkpt>
      <trkpt lat="47.2371" lon="-2.29179">
        <ele>25</ele>
        <time>2021-05-23T11:41:51.983Z</time>
      </trkpt>
      <trkpt lat="47.23711" lon="-2.29179">
        <ele>25</ele>
        <time>2021-05-23T11:41:52.982Z</time>
      </trkpt>
      <trkpt lat="47.23712" lon="-2.29178">
        <ele>25</ele>
        <time>2021-05-23T11:41:53.983Z</time>
      </trkpt>
      <trkpt lat="47.23713" lon="-2.29177">
        <ele>26</ele>
        <time>2021-05-23T11:41:54.983Z</time>
      </trkpt>
      <trkpt lat="47.23714" lon="-2.29177">
        <ele>27</ele>
        <time>2021-05-23T11:41:55.983Z</time>
      </trkpt>
      <trkpt lat="47.23715" lon="-2.29177">
        <ele>28</ele>
        <time>2021-05-23T11:41:56.982Z</time>
      </trkpt>
      <trkpt lat="47.23715" lon="-2.29177">
        <ele>28</ele>
        <time>2021-05-23T11:41:57.983Z</time>
      </trkpt>
      <trkpt lat="47.23717" lon="-2.29177">
        <ele>29</ele>
        <time>2021-05-23T11:41:58.983Z</time>
      </trkpt>
      <trkpt lat="47.23718" lon="-2.29177">
        <ele>30</ele>
        <time>2021-05-23T11:41:59.983Z</time>
      </trkpt>
      <trkpt lat="47.23719" lon="-2.29178">
        <ele>30</ele>
        <time>2021-05-23T11:42:00.982Z</time>
      </trkpt>
      <trkpt lat="47.2372" lon="-2.29178">
        <ele>31</ele>
        <time>2021-05-23T11:42:01.982Z</time>
      </trkpt>
      <trkpt lat="47.23721" lon="-2.29178">
        <ele>32</ele>
        <time>2021-05-23T11:42:02.982Z</time>
      </trkpt>
      <trkpt lat="47.23722" lon="-2.29177">
        <ele>32</ele>
        <time>2021-05-23T11:42:03.982Z</time>
      </trkpt>
      <trkpt lat="47.23723" lon="-2.29176">
        <ele>33</ele>
        <time>2021-05-23T11:42:04.982Z</time>
      </trkpt>
      <trkpt lat="47.23724" lon="-2.29176">
        <ele>34</ele>
        <time>2021-05-23T11:42:05.982Z</time>
      </trkpt>
      <trkpt lat="47.23726" lon="-2.29175">
        <ele>34</ele>
        <time>2021-05-23T11:42:06.983Z</time>
      </trkpt>
      <trkpt lat="47.23727" lon="-2.29174">
        <ele>34</ele>
        <time>2021-05-23T11:42:07.982Z</time>
      </trkpt>
      <trkpt lat="47.23729" lon="-2.29174">
        <ele>34</ele>
        <time>2021-05-23T11:42:08.982Z</time>
      </trkpt>
      <trkpt lat="47.23731" lon="-2.29174">
        <ele>34</ele>
        <time>2021-05-23T11:42:09.982Z</time>
      </trkpt>
      <trkpt lat="47.23732" lon="-2.29174">
        <ele>33</ele>
        <time>2021-05-23T11:42:10.983Z</time>
      </trkpt>
      <trkpt lat="47.23734" lon="-2.29173">
        <ele>32</ele>
        <time>2021-05-23T11:42:11.982Z</time>
      </trkpt>
      <trkpt lat="47.23735" lon="-2.29172">
        <ele>32</ele>
        <time>2021-05-23T11:42:12.982Z</time>
      </trkpt>
      <trkpt lat="47.23736" lon="-2.29172">
        <ele>32</ele>
        <time>2021-05-23T11:42:13.983Z</time>
      </trkpt>
      <trkpt lat="47.23737" lon="-2.29171">
        <ele>31</ele>
        <time>2021-05-23T11:42:14.983Z</time>
      </trkpt>
      <trkpt lat="47.23738" lon="-2.2917">
        <ele>31</ele>
        <time>2021-05-23T11:42:15.983Z</time>
      </trkpt>
      <trkpt lat="47.23739" lon="-2.2917">
        <ele>31</ele>
        <time>2021-05-23T11:42:16.983Z</time>
      </trkpt>
      <trkpt lat="47.23741" lon="-2.2917">
        <ele>30</ele>
        <time>2021-05-23T11:42:17.982Z</time>
      </trkpt>
      <trkpt lat="47.23742" lon="-2.29169">
        <ele>30</ele>
        <time>2021-05-23T11:42:18.983Z</time>
      </trkpt>
      <trkpt lat="47.23743" lon="-2.29168">
        <ele>29</ele>
        <time>2021-05-23T11:42:19.983Z</time>
      </trkpt>
      <trkpt lat="47.23744" lon="-2.29167">
        <ele>29</ele>
        <time>2021-05-23T11:42:20.983Z</time>
      </trkpt>
      <trkpt lat="47.23746" lon="-2.29166">
        <ele>29</ele>
        <time>2021-05-23T11:42:21.982Z</time>
      </trkpt>
      <trkpt lat="47.23747" lon="-2.29165">
        <ele>28</ele>
        <time>2021-05-23T11:42:22.983Z</time>
      </trkpt>
      <trkpt lat="47.23749" lon="-2.29165">
        <ele>28</ele>
        <time>2021-05-23T11:42:23.983Z</time>
      </trkpt>
      <trkpt lat="47.23751" lon="-2.29164">
        <ele>28</ele>
        <time>2021-05-23T11:42:24.982Z</time>
      </trkpt>
      <trkpt lat="47.23753" lon="-2.29163">
        <ele>28</ele>
        <time>2021-05-23T11:42:25.983Z</time>
      </trkpt>
      <trkpt lat="47.23753" lon="-2.29162">
        <ele>28</ele>
        <time>2021-05-23T11:42:26.982Z</time>
      </trkpt>
      <trkpt lat="47.23754" lon="-2.29162">
        <ele>27</ele>
        <time>2021-05-23T11:42:27.983Z</time>
      </trkpt>
      <trkpt lat="47.23755" lon="-2.29161">
        <ele>27</ele>
        <time>2021-05-23T11:42:28.983Z</time>
      </trkpt>
      <trkpt lat="47.23756" lon="-2.2916">
        <ele>26</ele>
        <time>2021-05-23T11:42:29.983Z</time>
      </trkpt>
      <trkpt lat="47.23757" lon="-2.2916">
        <ele>26</ele>
        <time>2021-05-23T11:42:30.982Z</time>
      </trkpt>
      <trkpt lat="47.23757" lon="-2.29159">
        <ele>26</ele>
        <time>2021-05-23T11:42:31.982Z</time>
      </trkpt>
      <trkpt lat="47.23758" lon="-2.29159">
        <ele>26</ele>
        <time>2021-05-23T11:42:32.983Z</time>
      </trkpt>
      <trkpt lat="47.23758" lon="-2.2916">
        <ele>26</ele>
        <time>2021-05-23T11:42:33.983Z</time>
      </trkpt>
      <trkpt lat="47.23758" lon="-2.29159">
        <ele>26</ele>
        <time>2021-05-23T11:42:34.983Z</time>
      </trkpt>
      <trkpt lat="47.23758" lon="-2.29159">
        <ele>26</ele>
        <time>2021-05-23T11:42:35.983Z</time>
      </trkpt>
      <trkpt lat="47.23758" lon="-2.29159">
        <ele>26</ele>
        <time>2021-05-23T11:42:36.983Z</time>
      </trkpt>
      <trkpt lat="47.23758" lon="-2.29159">
        <ele>26</ele>
        <time>2021-05-23T11:42:37.982Z</time>
      </trkpt>
      <trkpt lat="47.23759" lon="-2.29159">
        <ele>26</ele>
        <time>2021-05-23T11:42:38.982Z</time>
      </trkpt>
      <trkpt lat="47.23759" lon="-2.29159">
        <ele>27</ele>
        <time>2021-05-23T11:42:39.983Z</time>
      </trkpt>
      <trkpt lat="47.2376" lon="-2.29158">
        <ele>27</ele>
        <time>2021-05-23T11:42:40.983Z</time>
      </trkpt>
      <trkpt lat="47.23761" lon="-2.29157">
        <ele>27</ele>
        <time>2021-05-23T11:42:41.982Z</time>
      </trkpt>
      <trkpt lat="47.23762" lon="-2.29157">
        <ele>27</ele>
        <time>2021-05-23T11:42:42.983Z</time>
      </trkpt>
      <trkpt lat="47.23762" lon="-2.29156">
        <ele>27</ele>
        <time>2021-05-23T11:42:43.983Z</time>
      </trkpt>
      <trkpt lat="47.23763" lon="-2.29156">
        <ele>27</ele>
        <time>2021-05-23T11:42:44.983Z</time>
      </trkpt>
      <trkpt lat="47.23764" lon="-2.29156">
        <ele>27</ele>
        <time>2021-05-23T11:42:45.982Z</time>
      </trkpt>
      <trkpt lat="47.23765" lon="-2.29155">
        <ele>27</ele>
        <time>2021-05-23T11:42:46.983Z</time>
      </trkpt>
      <trkpt lat="47.23766" lon="-2.29156">
        <ele>28</ele>
        <time>2021-05-23T11:42:47.983Z</time>
      </trkpt>
      <trkpt lat="47.23768" lon="-2.29156">
        <ele>28</ele>
        <time>2021-05-23T11:42:48.982Z</time>
      </trkpt>
      <trkpt lat="47.23769" lon="-2.29156">
        <ele>28</ele>
        <time>2021-05-23T11:42:49.983Z</time>
      </trkpt>
      <trkpt lat="47.2377" lon="-2.29155">
        <ele>28</ele>
        <time>2021-05-23T11:42:50.983Z</time>
      </trkpt>
      <trkpt lat="47.2377" lon="-2.29155">
        <ele>29</ele>
        <time>2021-05-23T11:42:51.983Z</time>
      </trkpt>
      <trkpt lat="47.23771" lon="-2.29154">
        <ele>29</ele>
        <time>2021-05-23T11:42:52.983Z</time>
      </trkpt>
      <trkpt lat="47.23773" lon="-2.29152">
        <ele>29</ele>
        <time>2021-05-23T11:42:53.983Z</time>
      </trkpt>
      <trkpt lat="47.23774" lon="-2.29151">
        <ele>29</ele>
        <time>2021-05-23T11:42:54.983Z</time>
      </trkpt>
      <trkpt lat="47.23775" lon="-2.2915">
        <ele>29</ele>
        <time>2021-05-23T11:42:55.982Z</time>
      </trkpt>
      <trkpt lat="47.23776" lon="-2.29149">
        <ele>30</ele>
        <time>2021-05-23T11:42:56.982Z</time>
      </trkpt>
      <trkpt lat="47.23777" lon="-2.29148">
        <ele>30</ele>
        <time>2021-05-23T11:42:57.983Z</time>
      </trkpt>
      <trkpt lat="47.23778" lon="-2.29146">
        <ele>30</ele>
        <time>2021-05-23T11:42:58.982Z</time>
      </trkpt>
      <trkpt lat="47.23779" lon="-2.29145">
        <ele>30</ele>
        <time>2021-05-23T11:42:59.983Z</time>
      </trkpt>
      <trkpt lat="47.2378" lon="-2.29144">
        <ele>30</ele>
        <time>2021-05-23T11:43:00.983Z</time>
      </trkpt>
      <trkpt lat="47.23781" lon="-2.29143">
        <ele>30</ele>
        <time>2021-05-23T11:43:01.982Z</time>
      </trkpt>
      <trkpt lat="47.23782" lon="-2.29142">
        <ele>30</ele>
        <time>2021-05-23T11:43:02.983Z</time>
      </trkpt>
      <trkpt lat="47.23783" lon="-2.29141">
        <ele>31</ele>
        <time>2021-05-23T11:43:03.983Z</time>
      </trkpt>
      <trkpt lat="47.23784" lon="-2.2914">
        <ele>31</ele>
        <time>2021-05-23T11:43:04.982Z</time>
      </trkpt>
      <trkpt lat="47.23786" lon="-2.29138">
        <ele>31</ele>
        <time>2021-05-23T11:43:05.983Z</time>
      </trkpt>
      <trkpt lat="47.23788" lon="-2.29136">
        <ele>32</ele>
        <time>2021-05-23T11:43:06.983Z</time>
      </trkpt>
      <trkpt lat="47.23789" lon="-2.29134">
        <ele>32</ele>
        <time>2021-05-23T11:43:07.983Z</time>
      </trkpt>
      <trkpt lat="47.23789" lon="-2.29133">
        <ele>33</ele>
        <time>2021-05-23T11:43:08.982Z</time>
      </trkpt>
      <trkpt lat="47.2379" lon="-2.29131">
        <ele>33</ele>
        <time>2021-05-23T11:43:09.982Z</time>
      </trkpt>
      <trkpt lat="47.23791" lon="-2.2913">
        <ele>34</ele>
        <time>2021-05-23T11:43:10.983Z</time>
      </trkpt>
      <trkpt lat="47.23792" lon="-2.29128">
        <ele>34</ele>
        <time>2021-05-23T11:43:11.983Z</time>
      </trkpt>
      <trkpt lat="47.23793" lon="-2.29126">
        <ele>34</ele>
        <time>2021-05-23T11:43:12.983Z</time>
      </trkpt>
      <trkpt lat="47.23793" lon="-2.29124">
        <ele>35</ele>
        <time>2021-05-23T11:43:13.983Z</time>
      </trkpt>
      <trkpt lat="47.23793" lon="-2.29123">
        <ele>35</ele>
        <time>2021-05-23T11:43:14.983Z</time>
      </trkpt>
      <trkpt lat="47.23793" lon="-2.29121">
        <ele>35</ele>
        <time>2021-05-23T11:43:15.982Z</time>
      </trkpt>
      <trkpt lat="47.23793" lon="-2.29119">
        <ele>35</ele>
        <time>2021-05-23T11:43:16.983Z</time>
      </trkpt>
      <trkpt lat="47.23794" lon="-2.29118">
        <ele>35</ele>
        <time>2021-05-23T11:43:17.983Z</time>
      </trkpt>
      <trkpt lat="47.23795" lon="-2.29115">
        <ele>35</ele>
        <time>2021-05-23T11:43:18.983Z</time>
      </trkpt>
      <trkpt lat="47.23796" lon="-2.29113">
        <ele>35</ele>
        <time>2021-05-23T11:43:19.982Z</time>
      </trkpt>
      <trkpt lat="47.23796" lon="-2.29111">
        <ele>35</ele>
        <time>2021-05-23T11:43:20.983Z</time>
      </trkpt>
      <trkpt lat="47.23797" lon="-2.29108">
        <ele>36</ele>
        <time>2021-05-23T11:43:21.982Z</time>
      </trkpt>
      <trkpt lat="47.23797" lon="-2.29106">
        <ele>36</ele>
        <time>2021-05-23T11:43:22.983Z</time>
      </trkpt>
      <trkpt lat="47.23797" lon="-2.29104">
        <ele>37</ele>
        <time>2021-05-23T11:43:23.982Z</time>
      </trkpt>
      <trkpt lat="47.23797" lon="-2.29102">
        <ele>37</ele>
        <time>2021-05-23T11:43:24.982Z</time>
      </trkpt>
      <trkpt lat="47.23797" lon="-2.291">
        <ele>37</ele>
        <time>2021-05-23T11:43:25.983Z</time>
      </trkpt>
      <trkpt lat="47.23798" lon="-2.29098">
        <ele>37</ele>
        <time>2021-05-23T11:43:26.982Z</time>
      </trkpt>
      <trkpt lat="47.23798" lon="-2.29096">
        <ele>37</ele>
        <time>2021-05-23T11:43:27.982Z</time>
      </trkpt>
      <trkpt lat="47.23798" lon="-2.29095">
        <ele>37</ele>
        <time>2021-05-23T11:43:28.983Z</time>
      </trkpt>
      <trkpt lat="47.23798" lon="-2.29093">
        <ele>36</ele>
        <time>2021-05-23T11:43:29.983Z</time>
      </trkpt>
      <trkpt lat="47.23799" lon="-2.29092">
        <ele>36</ele>
        <time>2021-05-23T11:43:30.982Z</time>
      </trkpt>
      <trkpt lat="47.238" lon="-2.2909">
        <ele>36</ele>
        <time>2021-05-23T11:43:31.982Z</time>
      </trkpt>
      <trkpt lat="47.238" lon="-2.29088">
        <ele>36</ele>
        <time>2021-05-23T11:43:32.983Z</time>
      </trkpt>
      <trkpt lat="47.23801" lon="-2.29086">
        <ele>36</ele>
        <time>2021-05-23T11:43:33.982Z</time>
      </trkpt>
      <trkpt lat="47.23801" lon="-2.29084">
        <ele>35</ele>
        <time>2021-05-23T11:43:34.983Z</time>
      </trkpt>
      <trkpt lat="47.23801" lon="-2.29082">
        <ele>35</ele>
        <time>2021-05-23T11:43:35.983Z</time>
      </trkpt>
      <trkpt lat="47.23801" lon="-2.2908">
        <ele>35</ele>
        <time>2021-05-23T11:43:36.983Z</time>
      </trkpt>
      <trkpt lat="47.23801" lon="-2.29077">
        <ele>34</ele>
        <time>2021-05-23T11:43:37.983Z</time>
      </trkpt>
      <trkpt lat="47.23801" lon="-2.29075">
        <ele>34</ele>
        <time>2021-05-23T11:43:38.983Z</time>
      </trkpt>
      <trkpt lat="47.23801" lon="-2.29073">
        <ele>34</ele>
        <time>2021-05-23T11:43:39.982Z</time>
      </trkpt>
      <trkpt lat="47.23801" lon="-2.2907">
        <ele>34</ele>
        <time>2021-05-23T11:43:40.982Z</time>
      </trkpt>
      <trkpt lat="47.23801" lon="-2.29068">
        <ele>33</ele>
        <time>2021-05-23T11:43:41.982Z</time>
      </trkpt>
      <trkpt lat="47.23802" lon="-2.29065">
        <ele>32</ele>
        <time>2021-05-23T11:43:42.982Z</time>
      </trkpt>
      <trkpt lat="47.23803" lon="-2.29063">
        <ele>32</ele>
        <time>2021-05-23T11:43:43.983Z</time>
      </trkpt>
      <trkpt lat="47.23803" lon="-2.29061">
        <ele>31</ele>
        <time>2021-05-23T11:43:44.983Z</time>
      </trkpt>
      <trkpt lat="47.23804" lon="-2.2906">
        <ele>30</ele>
        <time>2021-05-23T11:43:45.983Z</time>
      </trkpt>
      <trkpt lat="47.23805" lon="-2.29058">
        <ele>30</ele>
        <time>2021-05-23T11:43:46.983Z</time>
      </trkpt>
      <trkpt lat="47.23805" lon="-2.29056">
        <ele>30</ele>
        <time>2021-05-23T11:43:47.983Z</time>
      </trkpt>
      <trkpt lat="47.23805" lon="-2.29054">
        <ele>29</ele>
        <time>2021-05-23T11:43:48.982Z</time>
      </trkpt>
      <trkpt lat="47.23804" lon="-2.29052">
        <ele>29</ele>
        <time>2021-05-23T11:43:49.982Z</time>
      </trkpt>
      <trkpt lat="47.23803" lon="-2.2905">
        <ele>29</ele>
        <time>2021-05-23T11:43:50.983Z</time>
      </trkpt>
      <trkpt lat="47.23803" lon="-2.29048">
        <ele>28</ele>
        <time>2021-05-23T11:43:51.982Z</time>
      </trkpt>
      <trkpt lat="47.23802" lon="-2.29046">
        <ele>28</ele>
        <time>2021-05-23T11:43:52.983Z</time>
      </trkpt>
      <trkpt lat="47.23802" lon="-2.29044">
        <ele>29</ele>
        <time>2021-05-23T11:43:53.983Z</time>
      </trkpt>
      <trkpt lat="47.23802" lon="-2.29042">
        <ele>29</ele>
        <time>2021-05-23T11:43:54.983Z</time>
      </trkpt>
      <trkpt lat="47.23802" lon="-2.29039">
        <ele>29</ele>
        <time>2021-05-23T11:43:55.983Z</time>
      </trkpt>
      <trkpt lat="47.23803" lon="-2.29037">
        <ele>29</ele>
        <time>2021-05-23T11:43:56.983Z</time>
      </trkpt>
      <trkpt lat="47.23804" lon="-2.29034">
        <ele>29</ele>
        <time>2021-05-23T11:43:57.983Z</time>
      </trkpt>
      <trkpt lat="47.23804" lon="-2.29031">
        <ele>30</ele>
        <time>2021-05-23T11:43:58.982Z</time>
      </trkpt>
      <trkpt lat="47.23804" lon="-2.29029">
        <ele>30</ele>
        <time>2021-05-23T11:43:59.983Z</time>
      </trkpt>
      <trkpt lat="47.23804" lon="-2.29026">
        <ele>30</ele>
        <time>2021-05-23T11:44:00.983Z</time>
      </trkpt>
      <trkpt lat="47.23804" lon="-2.29024">
        <ele>30</ele>
        <time>2021-05-23T11:44:01.983Z</time>
      </trkpt>
      <trkpt lat="47.23804" lon="-2.29021">
        <ele>31</ele>
        <time>2021-05-23T11:44:02.983Z</time>
      </trkpt>
      <trkpt lat="47.23804" lon="-2.29018">
        <ele>31</ele>
        <time>2021-05-23T11:44:03.983Z</time>
      </trkpt>
      <trkpt lat="47.23804" lon="-2.29016">
        <ele>31</ele>
        <time>2021-05-23T11:44:04.983Z</time>
      </trkpt>
      <trkpt lat="47.23804" lon="-2.29014">
        <ele>31</ele>
        <time>2021-05-23T11:44:05.982Z</time>
      </trkpt>
      <trkpt lat="47.23804" lon="-2.29011">
        <ele>31</ele>
        <time>2021-05-23T11:44:06.983Z</time>
      </trkpt>
      <trkpt lat="47.23804" lon="-2.29009">
        <ele>31</ele>
        <time>2021-05-23T11:44:07.983Z</time>
      </trkpt>
      <trkpt lat="47.23804" lon="-2.29006">
        <ele>31</ele>
        <time>2021-05-23T11:44:08.983Z</time>
      </trkpt>
      <trkpt lat="47.23805" lon="-2.29004">
        <ele>31</ele>
        <time>2021-05-23T11:44:09.983Z</time>
      </trkpt>
      <trkpt lat="47.23805" lon="-2.29001">
        <ele>31</ele>
        <time>2021-05-23T11:44:10.983Z</time>
      </trkpt>
      <trkpt lat="47.23805" lon="-2.28999">
        <ele>30</ele>
        <time>2021-05-23T11:44:11.982Z</time>
      </trkpt>
      <trkpt lat="47.23805" lon="-2.28996">
        <ele>30</ele>
        <time>2021-05-23T11:44:12.982Z</time>
      </trkpt>
      <trkpt lat="47.23805" lon="-2.28994">
        <ele>29</ele>
        <time>2021-05-23T11:44:13.983Z</time>
      </trkpt>
      <trkpt lat="47.23805" lon="-2.28992">
        <ele>29</ele>
        <time>2021-05-23T11:44:14.983Z</time>
      </trkpt>
      <trkpt lat="47.23805" lon="-2.2899">
        <ele>28</ele>
        <time>2021-05-23T11:44:15.982Z</time>
      </trkpt>
      <trkpt lat="47.23805" lon="-2.28987">
        <ele>28</ele>
        <time>2021-05-23T11:44:16.982Z</time>
      </trkpt>
      <trkpt lat="47.23805" lon="-2.28985">
        <ele>28</ele>
        <time>2021-05-23T11:44:17.983Z</time>
      </trkpt>
      <trkpt lat="47.23805" lon="-2.28982">
        <ele>27</ele>
        <time>2021-05-23T11:44:18.982Z</time>
      </trkpt>
      <trkpt lat="47.23806" lon="-2.2898">
        <ele>27</ele>
        <time>2021-05-23T11:44:19.983Z</time>
      </trkpt>
      <trkpt lat="47.23806" lon="-2.28977">
        <ele>27</ele>
        <time>2021-05-23T11:44:20.982Z</time>
      </trkpt>
      <trkpt lat="47.23806" lon="-2.28975">
        <ele>27</ele>
        <time>2021-05-23T11:44:21.983Z</time>
      </trkpt>
      <trkpt lat="47.23807" lon="-2.28972">
        <ele>27</ele>
        <time>2021-05-23T11:44:22.983Z</time>
      </trkpt>
      <trkpt lat="47.23808" lon="-2.28969">
        <ele>27</ele>
        <time>2021-05-23T11:44:23.982Z</time>
      </trkpt>
      <trkpt lat="47.23808" lon="-2.28966">
        <ele>27</ele>
        <time>2021-05-23T11:44:24.982Z</time>
      </trkpt>
      <trkpt lat="47.23809" lon="-2.28964">
        <ele>27</ele>
        <time>2021-05-23T11:44:25.983Z</time>
      </trkpt>
      <trkpt lat="47.23809" lon="-2.28962">
        <ele>27</ele>
        <time>2021-05-23T11:44:26.983Z</time>
      </trkpt>
      <trkpt lat="47.2381" lon="-2.2896">
        <ele>27</ele>
        <time>2021-05-23T11:44:27.983Z</time>
      </trkpt>
      <trkpt lat="47.2381" lon="-2.28957">
        <ele>27</ele>
        <time>2021-05-23T11:44:28.983Z</time>
      </trkpt>
      <trkpt lat="47.23811" lon="-2.28955">
        <ele>27</ele>
        <time>2021-05-23T11:44:29.983Z</time>
      </trkpt>
      <trkpt lat="47.23812" lon="-2.28952">
        <ele>28</ele>
        <time>2021-05-23T11:44:30.982Z</time>
      </trkpt>
      <trkpt lat="47.23813" lon="-2.28949">
        <ele>28</ele>
        <time>2021-05-23T11:44:31.983Z</time>
      </trkpt>
      <trkpt lat="47.23813" lon="-2.28947">
        <ele>28</ele>
        <time>2021-05-23T11:44:32.982Z</time>
      </trkpt>
      <trkpt lat="47.23814" lon="-2.28945">
        <ele>28</ele>
        <time>2021-05-23T11:44:33.982Z</time>
      </trkpt>
      <trkpt lat="47.23814" lon="-2.28942">
        <ele>27</ele>
        <time>2021-05-23T11:44:34.983Z</time>
      </trkpt>
      <trkpt lat="47.23815" lon="-2.2894">
        <ele>27</ele>
        <time>2021-05-23T11:44:35.982Z</time>
      </trkpt>
      <trkpt lat="47.23815" lon="-2.28937">
        <ele>27</ele>
        <time>2021-05-23T11:44:36.983Z</time>
      </trkpt>
      <trkpt lat="47.23816" lon="-2.28934">
        <ele>26</ele>
        <time>2021-05-23T11:44:37.983Z</time>
      </trkpt>
      <trkpt lat="47.23816" lon="-2.28932">
        <ele>26</ele>
        <time>2021-05-23T11:44:38.983Z</time>
      </trkpt>
      <trkpt lat="47.23817" lon="-2.2893">
        <ele>26</ele>
        <time>2021-05-23T11:44:39.983Z</time>
      </trkpt>
      <trkpt lat="47.23817" lon="-2.28927">
        <ele>26</ele>
        <time>2021-05-23T11:44:40.982Z</time>
      </trkpt>
      <trkpt lat="47.23818" lon="-2.28925">
        <ele>25</ele>
        <time>2021-05-23T11:44:41.982Z</time>
      </trkpt>
      <trkpt lat="47.23819" lon="-2.28923">
        <ele>25</ele>
        <time>2021-05-23T11:44:42.983Z</time>
      </trkpt>
      <trkpt lat="47.23819" lon="-2.2892">
        <ele>25</ele>
        <time>2021-05-23T11:44:43.983Z</time>
      </trkpt>
      <trkpt lat="47.2382" lon="-2.28917">
        <ele>25</ele>
        <time>2021-05-23T11:44:44.983Z</time>
      </trkpt>
      <trkpt lat="47.23818" lon="-2.28915">
        <ele>25</ele>
        <time>2021-05-23T11:44:45.983Z</time>
      </trkpt>
      <trkpt lat="47.23816" lon="-2.28913">
        <ele>24</ele>
        <time>2021-05-23T11:44:46.983Z</time>
      </trkpt>
      <trkpt lat="47.23815" lon="-2.28911">
        <ele>24</ele>
        <time>2021-05-23T11:44:47.983Z</time>
      </trkpt>
      <trkpt lat="47.23813" lon="-2.28911">
        <ele>24</ele>
        <time>2021-05-23T11:44:48.983Z</time>
      </trkpt>
      <trkpt lat="47.23811" lon="-2.2891">
        <ele>24</ele>
        <time>2021-05-23T11:44:49.983Z</time>
      </trkpt>
      <trkpt lat="47.23808" lon="-2.2891">
        <ele>24</ele>
        <time>2021-05-23T11:44:50.983Z</time>
      </trkpt>
      <trkpt lat="47.23806" lon="-2.2891">
        <ele>23</ele>
        <time>2021-05-23T11:44:51.982Z</time>
      </trkpt>
      <trkpt lat="47.23804" lon="-2.28909">
        <ele>23</ele>
        <time>2021-05-23T11:44:52.982Z</time>
      </trkpt>
      <trkpt lat="47.23802" lon="-2.28909">
        <ele>23</ele>
        <time>2021-05-23T11:44:53.982Z</time>
      </trkpt>
      <trkpt lat="47.238" lon="-2.28909">
        <ele>23</ele>
        <time>2021-05-23T11:44:54.983Z</time>
      </trkpt>
      <trkpt lat="47.23799" lon="-2.28909">
        <ele>22</ele>
        <time>2021-05-23T11:44:55.982Z</time>
      </trkpt>
      <trkpt lat="47.23797" lon="-2.28908">
        <ele>22</ele>
        <time>2021-05-23T11:44:56.983Z</time>
      </trkpt>
      <trkpt lat="47.23795" lon="-2.28909">
        <ele>21</ele>
        <time>2021-05-23T11:44:57.983Z</time>
      </trkpt>
      <trkpt lat="47.23793" lon="-2.28909">
        <ele>21</ele>
        <time>2021-05-23T11:44:58.982Z</time>
      </trkpt>
      <trkpt lat="47.23791" lon="-2.28909">
        <ele>20</ele>
        <time>2021-05-23T11:44:59.983Z</time>
      </trkpt>
      <trkpt lat="47.23789" lon="-2.28909">
        <ele>20</ele>
        <time>2021-05-23T11:45:00.983Z</time>
      </trkpt>
      <trkpt lat="47.23787" lon="-2.28909">
        <ele>19</ele>
        <time>2021-05-23T11:45:01.983Z</time>
      </trkpt>
      <trkpt lat="47.23785" lon="-2.28908">
        <ele>19</ele>
        <time>2021-05-23T11:45:02.982Z</time>
      </trkpt>
      <trkpt lat="47.23782" lon="-2.28907">
        <ele>19</ele>
        <time>2021-05-23T11:45:03.983Z</time>
      </trkpt>
      <trkpt lat="47.23781" lon="-2.28907">
        <ele>19</ele>
        <time>2021-05-23T11:45:04.982Z</time>
      </trkpt>
      <trkpt lat="47.23779" lon="-2.28906">
        <ele>19</ele>
        <time>2021-05-23T11:45:05.982Z</time>
      </trkpt>
      <trkpt lat="47.23778" lon="-2.28905">
        <ele>19</ele>
        <time>2021-05-23T11:45:06.982Z</time>
      </trkpt>
      <trkpt lat="47.23777" lon="-2.28904">
        <ele>19</ele>
        <time>2021-05-23T11:45:07.982Z</time>
      </trkpt>
      <trkpt lat="47.23777" lon="-2.28902">
        <ele>19</ele>
        <time>2021-05-23T11:45:08.983Z</time>
      </trkpt>
      <trkpt lat="47.23777" lon="-2.289">
        <ele>19</ele>
        <time>2021-05-23T11:45:09.983Z</time>
      </trkpt>
      <trkpt lat="47.23777" lon="-2.28898">
        <ele>19</ele>
        <time>2021-05-23T11:45:10.983Z</time>
      </trkpt>
      <trkpt lat="47.23777" lon="-2.28895">
        <ele>19</ele>
        <time>2021-05-23T11:45:11.983Z</time>
      </trkpt>
      <trkpt lat="47.23777" lon="-2.28892">
        <ele>19</ele>
        <time>2021-05-23T11:45:12.983Z</time>
      </trkpt>
      <trkpt lat="47.23777" lon="-2.2889">
        <ele>19</ele>
        <time>2021-05-23T11:45:13.982Z</time>
      </trkpt>
      <trkpt lat="47.23777" lon="-2.28887">
        <ele>19</ele>
        <time>2021-05-23T11:45:14.983Z</time>
      </trkpt>
      <trkpt lat="47.23777" lon="-2.28885">
        <ele>19</ele>
        <time>2021-05-23T11:45:15.983Z</time>
      </trkpt>
      <trkpt lat="47.23778" lon="-2.28883">
        <ele>18</ele>
        <time>2021-05-23T11:45:16.983Z</time>
      </trkpt>
      <trkpt lat="47.23777" lon="-2.2888">
        <ele>18</ele>
        <time>2021-05-23T11:45:17.983Z</time>
      </trkpt>
      <trkpt lat="47.23777" lon="-2.28878">
        <ele>18</ele>
        <time>2021-05-23T11:45:18.983Z</time>
      </trkpt>
      <trkpt lat="47.23777" lon="-2.28875">
        <ele>19</ele>
        <time>2021-05-23T11:45:19.983Z</time>
      </trkpt>
      <trkpt lat="47.23777" lon="-2.28872">
        <ele>19</ele>
        <time>2021-05-23T11:45:20.983Z</time>
      </trkpt>
      <trkpt lat="47.23776" lon="-2.2887">
        <ele>19</ele>
        <time>2021-05-23T11:45:21.983Z</time>
      </trkpt>
      <trkpt lat="47.23776" lon="-2.28867">
        <ele>20</ele>
        <time>2021-05-23T11:45:22.982Z</time>
      </trkpt>
      <trkpt lat="47.23776" lon="-2.28865">
        <ele>20</ele>
        <time>2021-05-23T11:45:23.983Z</time>
      </trkpt>
      <trkpt lat="47.23775" lon="-2.28862">
        <ele>20</ele>
        <time>2021-05-23T11:45:24.983Z</time>
      </trkpt>
      <trkpt lat="47.23775" lon="-2.2886">
        <ele>20</ele>
        <time>2021-05-23T11:45:25.983Z</time>
      </trkpt>
      <trkpt lat="47.23775" lon="-2.28857">
        <ele>21</ele>
        <time>2021-05-23T11:45:26.983Z</time>
      </trkpt>
      <trkpt lat="47.23775" lon="-2.28854">
        <ele>21</ele>
        <time>2021-05-23T11:45:27.982Z</time>
      </trkpt>
      <trkpt lat="47.23775" lon="-2.28851">
        <ele>21</ele>
        <time>2021-05-23T11:45:28.983Z</time>
      </trkpt>
      <trkpt lat="47.23774" lon="-2.28849">
        <ele>21</ele>
        <time>2021-05-23T11:45:29.983Z</time>
      </trkpt>
      <trkpt lat="47.23774" lon="-2.28846">
        <ele>21</ele>
        <time>2021-05-23T11:45:30.983Z</time>
      </trkpt>
      <trkpt lat="47.23774" lon="-2.28843">
        <ele>22</ele>
        <time>2021-05-23T11:45:31.983Z</time>
      </trkpt>
      <trkpt lat="47.23774" lon="-2.2884">
        <ele>22</ele>
        <time>2021-05-23T11:45:32.982Z</time>
      </trkpt>
      <trkpt lat="47.23773" lon="-2.28838">
        <ele>22</ele>
        <time>2021-05-23T11:45:33.983Z</time>
      </trkpt>
      <trkpt lat="47.23773" lon="-2.28835">
        <ele>22</ele>
        <time>2021-05-23T11:45:34.982Z</time>
      </trkpt>
      <trkpt lat="47.23773" lon="-2.28832">
        <ele>23</ele>
        <time>2021-05-23T11:45:35.983Z</time>
      </trkpt>
      <trkpt lat="47.23773" lon="-2.28829">
        <ele>23</ele>
        <time>2021-05-23T11:45:36.983Z</time>
      </trkpt>
      <trkpt lat="47.23772" lon="-2.28826">
        <ele>23</ele>
        <time>2021-05-23T11:45:37.982Z</time>
      </trkpt>
      <trkpt lat="47.23772" lon="-2.28823">
        <ele>24</ele>
        <time>2021-05-23T11:45:38.982Z</time>
      </trkpt>
      <trkpt lat="47.23772" lon="-2.28821">
        <ele>24</ele>
        <time>2021-05-23T11:45:39.982Z</time>
      </trkpt>
      <trkpt lat="47.23772" lon="-2.28818">
        <ele>24</ele>
        <time>2021-05-23T11:45:40.983Z</time>
      </trkpt>
      <trkpt lat="47.23772" lon="-2.28815">
        <ele>24</ele>
        <time>2021-05-23T11:45:41.983Z</time>
      </trkpt>
      <trkpt lat="47.23772" lon="-2.28812">
        <ele>25</ele>
        <time>2021-05-23T11:45:42.983Z</time>
      </trkpt>
      <trkpt lat="47.23772" lon="-2.28809">
        <ele>25</ele>
        <time>2021-05-23T11:45:43.983Z</time>
      </trkpt>
      <trkpt lat="47.23772" lon="-2.28806">
        <ele>24</ele>
        <time>2021-05-23T11:45:44.983Z</time>
      </trkpt>
      <trkpt lat="47.23772" lon="-2.28803">
        <ele>24</ele>
        <time>2021-05-23T11:45:45.982Z</time>
      </trkpt>
      <trkpt lat="47.23771" lon="-2.288">
        <ele>24</ele>
        <time>2021-05-23T11:45:46.983Z</time>
      </trkpt>
      <trkpt lat="47.23771" lon="-2.28798">
        <ele>24</ele>
        <time>2021-05-23T11:45:47.982Z</time>
      </trkpt>
      <trkpt lat="47.23771" lon="-2.28795">
        <ele>23</ele>
        <time>2021-05-23T11:45:48.983Z</time>
      </trkpt>
      <trkpt lat="47.2377" lon="-2.28792">
        <ele>23</ele>
        <time>2021-05-23T11:45:49.982Z</time>
      </trkpt>
      <trkpt lat="47.23769" lon="-2.28789">
        <ele>22</ele>
        <time>2021-05-23T11:45:50.983Z</time>
      </trkpt>
      <trkpt lat="47.23769" lon="-2.28787">
        <ele>22</ele>
        <time>2021-05-23T11:45:51.982Z</time>
      </trkpt>
      <trkpt lat="47.2377" lon="-2.28784">
        <ele>21</ele>
        <time>2021-05-23T11:45:52.982Z</time>
      </trkpt>
      <trkpt lat="47.2377" lon="-2.28781">
        <ele>21</ele>
        <time>2021-05-23T11:45:53.983Z</time>
      </trkpt>
      <trkpt lat="47.2377" lon="-2.28778">
        <ele>21</ele>
        <time>2021-05-23T11:45:54.982Z</time>
      </trkpt>
      <trkpt lat="47.2377" lon="-2.28775">
        <ele>21</ele>
        <time>2021-05-23T11:45:55.983Z</time>
      </trkpt>
      <trkpt lat="47.2377" lon="-2.28773">
        <ele>20</ele>
        <time>2021-05-23T11:45:56.983Z</time>
      </trkpt>
      <trkpt lat="47.2377" lon="-2.2877">
        <ele>20</ele>
        <time>2021-05-23T11:45:57.982Z</time>
      </trkpt>
      <trkpt lat="47.2377" lon="-2.28766">
        <ele>21</ele>
        <time>2021-05-23T11:45:58.983Z</time>
      </trkpt>
      <trkpt lat="47.2377" lon="-2.28764">
        <ele>21</ele>
        <time>2021-05-23T11:45:59.982Z</time>
      </trkpt>
      <trkpt lat="47.2377" lon="-2.28761">
        <ele>21</ele>
        <time>2021-05-23T11:46:00.983Z</time>
      </trkpt>
      <trkpt lat="47.2377" lon="-2.28758">
        <ele>21</ele>
        <time>2021-05-23T11:46:01.982Z</time>
      </trkpt>
      <trkpt lat="47.2377" lon="-2.28755">
        <ele>22</ele>
        <time>2021-05-23T11:46:02.982Z</time>
      </trkpt>
      <trkpt lat="47.23769" lon="-2.28753">
        <ele>22</ele>
        <time>2021-05-23T11:46:03.982Z</time>
      </trkpt>
      <trkpt lat="47.23768" lon="-2.2875">
        <ele>22</ele>
        <time>2021-05-23T11:46:04.982Z</time>
      </trkpt>
      <trkpt lat="47.23767" lon="-2.28748">
        <ele>22</ele>
        <time>2021-05-23T11:46:05.983Z</time>
      </trkpt>
      <trkpt lat="47.23766" lon="-2.28745">
        <ele>22</ele>
        <time>2021-05-23T11:46:06.983Z</time>
      </trkpt>
      <trkpt lat="47.23765" lon="-2.28742">
        <ele>22</ele>
        <time>2021-05-23T11:46:07.982Z</time>
      </trkpt>
      <trkpt lat="47.23764" lon="-2.2874">
        <ele>22</ele>
        <time>2021-05-23T11:46:08.983Z</time>
      </trkpt>
      <trkpt lat="47.23763" lon="-2.28738">
        <ele>23</ele>
        <time>2021-05-23T11:46:09.982Z</time>
      </trkpt>
      <trkpt lat="47.23763" lon="-2.28736">
        <ele>23</ele>
        <time>2021-05-23T11:46:10.983Z</time>
      </trkpt>
      <trkpt lat="47.23762" lon="-2.28735">
        <ele>23</ele>
        <time>2021-05-23T11:46:11.982Z</time>
      </trkpt>
      <trkpt lat="47.23762" lon="-2.28733">
        <ele>24</ele>
        <time>2021-05-23T11:46:12.982Z</time>
      </trkpt>
      <trkpt lat="47.23762" lon="-2.28731">
        <ele>24</ele>
        <time>2021-05-23T11:46:13.982Z</time>
      </trkpt>
      <trkpt lat="47.23762" lon="-2.2873">
        <ele>24</ele>
        <time>2021-05-23T11:46:14.982Z</time>
      </trkpt>
      <trkpt lat="47.23762" lon="-2.28728">
        <ele>24</ele>
        <time>2021-05-23T11:46:15.983Z</time>
      </trkpt>
      <trkpt lat="47.23762" lon="-2.28727">
        <ele>24</ele>
        <time>2021-05-23T11:46:16.982Z</time>
      </trkpt>
      <trkpt lat="47.23762" lon="-2.28726">
        <ele>24</ele>
        <time>2021-05-23T11:46:17.983Z</time>
      </trkpt>
      <trkpt lat="47.23762" lon="-2.28724">
        <ele>24</ele>
        <time>2021-05-23T11:46:18.983Z</time>
      </trkpt>
      <trkpt lat="47.23762" lon="-2.28723">
        <ele>24</ele>
        <time>2021-05-23T11:46:19.983Z</time>
      </trkpt>
      <trkpt lat="47.23762" lon="-2.28722">
        <ele>24</ele>
        <time>2021-05-23T11:46:20.982Z</time>
      </trkpt>
      <trkpt lat="47.23762" lon="-2.28722">
        <ele>25</ele>
        <time>2021-05-23T11:46:21.983Z</time>
      </trkpt>
      <trkpt lat="47.23762" lon="-2.28721">
        <ele>25</ele>
        <time>2021-05-23T11:46:22.982Z</time>
      </trkpt>
      <trkpt lat="47.23763" lon="-2.28719">
        <ele>26</ele>
        <time>2021-05-23T11:46:23.982Z</time>
      </trkpt>
      <trkpt lat="47.23763" lon="-2.28718">
        <ele>26</ele>
        <time>2021-05-23T11:46:24.983Z</time>
      </trkpt>
      <trkpt lat="47.23764" lon="-2.28716">
        <ele>26</ele>
        <time>2021-05-23T11:46:25.983Z</time>
      </trkpt>
      <trkpt lat="47.23763" lon="-2.28715">
        <ele>26</ele>
        <time>2021-05-23T11:46:26.983Z</time>
      </trkpt>
      <trkpt lat="47.23763" lon="-2.28714">
        <ele>26</ele>
        <time>2021-05-23T11:46:27.983Z</time>
      </trkpt>
      <trkpt lat="47.23763" lon="-2.28712">
        <ele>26</ele>
        <time>2021-05-23T11:46:28.983Z</time>
      </trkpt>
      <trkpt lat="47.23764" lon="-2.28711">
        <ele>26</ele>
        <time>2021-05-23T11:46:29.982Z</time>
      </trkpt>
      <trkpt lat="47.23764" lon="-2.28709">
        <ele>26</ele>
        <time>2021-05-23T11:46:30.982Z</time>
      </trkpt>
      <trkpt lat="47.23765" lon="-2.28707">
        <ele>26</ele>
        <time>2021-05-23T11:46:31.983Z</time>
      </trkpt>
      <trkpt lat="47.23765" lon="-2.28705">
        <ele>26</ele>
        <time>2021-05-23T11:46:32.983Z</time>
      </trkpt>
      <trkpt lat="47.23764" lon="-2.28703">
        <ele>26</ele>
        <time>2021-05-23T11:46:33.982Z</time>
      </trkpt>
      <trkpt lat="47.23765" lon="-2.287">
        <ele>26</ele>
        <time>2021-05-23T11:46:34.982Z</time>
      </trkpt>
      <trkpt lat="47.23766" lon="-2.28697">
        <ele>26</ele>
        <time>2021-05-23T11:46:35.982Z</time>
      </trkpt>
      <trkpt lat="47.23766" lon="-2.28696">
        <ele>26</ele>
        <time>2021-05-23T11:46:36.982Z</time>
      </trkpt>
      <trkpt lat="47.23766" lon="-2.28695">
        <ele>26</ele>
        <time>2021-05-23T11:46:37.983Z</time>
      </trkpt>
      <trkpt lat="47.23767" lon="-2.28694">
        <ele>26</ele>
        <time>2021-05-23T11:46:38.983Z</time>
      </trkpt>
      <trkpt lat="47.23767" lon="-2.28693">
        <ele>26</ele>
        <time>2021-05-23T11:46:39.983Z</time>
      </trkpt>
      <trkpt lat="47.23767" lon="-2.2869">
        <ele>27</ele>
        <time>2021-05-23T11:46:40.983Z</time>
      </trkpt>
      <trkpt lat="47.23768" lon="-2.28689">
        <ele>27</ele>
        <time>2021-05-23T11:46:41.983Z</time>
      </trkpt>
      <trkpt lat="47.23768" lon="-2.28687">
        <ele>27</ele>
        <time>2021-05-23T11:46:42.983Z</time>
      </trkpt>
      <trkpt lat="47.23769" lon="-2.28686">
        <ele>27</ele>
        <time>2021-05-23T11:46:43.983Z</time>
      </trkpt>
      <trkpt lat="47.23769" lon="-2.28684">
        <ele>27</ele>
        <time>2021-05-23T11:46:44.983Z</time>
      </trkpt>
      <trkpt lat="47.2377" lon="-2.28681">
        <ele>27</ele>
        <time>2021-05-23T11:46:45.982Z</time>
      </trkpt>
      <trkpt lat="47.23771" lon="-2.28679">
        <ele>27</ele>
        <time>2021-05-23T11:46:46.983Z</time>
      </trkpt>
      <trkpt lat="47.23772" lon="-2.28676">
        <ele>27</ele>
        <time>2021-05-23T11:46:47.982Z</time>
      </trkpt>
      <trkpt lat="47.23773" lon="-2.28674">
        <ele>27</ele>
        <time>2021-05-23T11:46:48.982Z</time>
      </trkpt>
      <trkpt lat="47.23773" lon="-2.28671">
        <ele>27</ele>
        <time>2021-05-23T11:46:49.982Z</time>
      </trkpt>
      <trkpt lat="47.23774" lon="-2.28668">
        <ele>27</ele>
        <time>2021-05-23T11:46:50.982Z</time>
      </trkpt>
      <trkpt lat="47.23775" lon="-2.28665">
        <ele>26</ele>
        <time>2021-05-23T11:46:51.982Z</time>
      </trkpt>
      <trkpt lat="47.23776" lon="-2.28663">
        <ele>26</ele>
        <time>2021-05-23T11:46:52.982Z</time>
      </trkpt>
      <trkpt lat="47.23776" lon="-2.2866">
        <ele>26</ele>
        <time>2021-05-23T11:46:53.982Z</time>
      </trkpt>
      <trkpt lat="47.23777" lon="-2.28658">
        <ele>26</ele>
        <time>2021-05-23T11:46:54.983Z</time>
      </trkpt>
      <trkpt lat="47.23778" lon="-2.28655">
        <ele>26</ele>
        <time>2021-05-23T11:46:55.982Z</time>
      </trkpt>
      <trkpt lat="47.23778" lon="-2.28653">
        <ele>26</ele>
        <time>2021-05-23T11:46:56.982Z</time>
      </trkpt>
      <trkpt lat="47.23779" lon="-2.28651">
        <ele>25</ele>
        <time>2021-05-23T11:46:57.982Z</time>
      </trkpt>
      <trkpt lat="47.2378" lon="-2.28648">
        <ele>25</ele>
        <time>2021-05-23T11:46:58.982Z</time>
      </trkpt>
      <trkpt lat="47.23781" lon="-2.28646">
        <ele>24</ele>
        <time>2021-05-23T11:46:59.982Z</time>
      </trkpt>
      <trkpt lat="47.23782" lon="-2.28644">
        <ele>24</ele>
        <time>2021-05-23T11:47:00.982Z</time>
      </trkpt>
      <trkpt lat="47.23782" lon="-2.28642">
        <ele>24</ele>
        <time>2021-05-23T11:47:01.983Z</time>
      </trkpt>
      <trkpt lat="47.23783" lon="-2.2864">
        <ele>23</ele>
        <time>2021-05-23T11:47:02.983Z</time>
      </trkpt>
      <trkpt lat="47.23785" lon="-2.28639">
        <ele>23</ele>
        <time>2021-05-23T11:47:03.982Z</time>
      </trkpt>
      <trkpt lat="47.23786" lon="-2.28637">
        <ele>23</ele>
        <time>2021-05-23T11:47:04.982Z</time>
      </trkpt>
      <trkpt lat="47.23787" lon="-2.28636">
        <ele>22</ele>
        <time>2021-05-23T11:47:05.982Z</time>
      </trkpt>
      <trkpt lat="47.23788" lon="-2.28634">
        <ele>21</ele>
        <time>2021-05-23T11:47:06.982Z</time>
      </trkpt>
      <trkpt lat="47.23789" lon="-2.28632">
        <ele>21</ele>
        <time>2021-05-23T11:47:07.983Z</time>
      </trkpt>
      <trkpt lat="47.2379" lon="-2.28629">
        <ele>20</ele>
        <time>2021-05-23T11:47:08.982Z</time>
      </trkpt>
      <trkpt lat="47.23791" lon="-2.28627">
        <ele>20</ele>
        <time>2021-05-23T11:47:09.982Z</time>
      </trkpt>
      <trkpt lat="47.23791" lon="-2.28624">
        <ele>20</ele>
        <time>2021-05-23T11:47:10.982Z</time>
      </trkpt>
      <trkpt lat="47.23791" lon="-2.28622">
        <ele>20</ele>
        <time>2021-05-23T11:47:11.983Z</time>
      </trkpt>
      <trkpt lat="47.23792" lon="-2.28618">
        <ele>20</ele>
        <time>2021-05-23T11:47:12.983Z</time>
      </trkpt>
      <trkpt lat="47.23791" lon="-2.28615">
        <ele>20</ele>
        <time>2021-05-23T11:47:13.982Z</time>
      </trkpt>
      <trkpt lat="47.23791" lon="-2.28612">
        <ele>20</ele>
        <time>2021-05-23T11:47:14.982Z</time>
      </trkpt>
      <trkpt lat="47.2379" lon="-2.28609">
        <ele>20</ele>
        <time>2021-05-23T11:47:15.982Z</time>
      </trkpt>
      <trkpt lat="47.23789" lon="-2.28607">
        <ele>20</ele>
        <time>2021-05-23T11:47:16.983Z</time>
      </trkpt>
      <trkpt lat="47.23788" lon="-2.28604">
        <ele>20</ele>
        <time>2021-05-23T11:47:17.983Z</time>
      </trkpt>
      <trkpt lat="47.23787" lon="-2.28601">
        <ele>20</ele>
        <time>2021-05-23T11:47:18.982Z</time>
      </trkpt>
      <trkpt lat="47.23787" lon="-2.28598">
        <ele>20</ele>
        <time>2021-05-23T11:47:19.983Z</time>
      </trkpt>
      <trkpt lat="47.23786" lon="-2.28595">
        <ele>20</ele>
        <time>2021-05-23T11:47:20.983Z</time>
      </trkpt>
      <trkpt lat="47.23786" lon="-2.28592">
        <ele>20</ele>
        <time>2021-05-23T11:47:21.982Z</time>
      </trkpt>
      <trkpt lat="47.23785" lon="-2.28589">
        <ele>20</ele>
        <time>2021-05-23T11:47:22.983Z</time>
      </trkpt>
      <trkpt lat="47.23784" lon="-2.28587">
        <ele>20</ele>
        <time>2021-05-23T11:47:23.982Z</time>
      </trkpt>
      <trkpt lat="47.23784" lon="-2.28585">
        <ele>20</ele>
        <time>2021-05-23T11:47:24.983Z</time>
      </trkpt>
      <trkpt lat="47.23784" lon="-2.28582">
        <ele>21</ele>
        <time>2021-05-23T11:47:25.982Z</time>
      </trkpt>
      <trkpt lat="47.23784" lon="-2.28579">
        <ele>21</ele>
        <time>2021-05-23T11:47:26.983Z</time>
      </trkpt>
      <trkpt lat="47.23784" lon="-2.28576">
        <ele>22</ele>
        <time>2021-05-23T11:47:27.982Z</time>
      </trkpt>
      <trkpt lat="47.23784" lon="-2.28574">
        <ele>22</ele>
        <time>2021-05-23T11:47:28.982Z</time>
      </trkpt>
      <trkpt lat="47.23784" lon="-2.28572">
        <ele>23</ele>
        <time>2021-05-23T11:47:29.982Z</time>
      </trkpt>
      <trkpt lat="47.23785" lon="-2.28569">
        <ele>23</ele>
        <time>2021-05-23T11:47:30.983Z</time>
      </trkpt>
      <trkpt lat="47.23785" lon="-2.28566">
        <ele>23</ele>
        <time>2021-05-23T11:47:31.983Z</time>
      </trkpt>
      <trkpt lat="47.23786" lon="-2.28563">
        <ele>23</ele>
        <time>2021-05-23T11:47:32.983Z</time>
      </trkpt>
      <trkpt lat="47.23786" lon="-2.28559">
        <ele>23</ele>
        <time>2021-05-23T11:47:33.982Z</time>
      </trkpt>
      <trkpt lat="47.23786" lon="-2.28556">
        <ele>23</ele>
        <time>2021-05-23T11:47:34.983Z</time>
      </trkpt>
      <trkpt lat="47.23786" lon="-2.28554">
        <ele>23</ele>
        <time>2021-05-23T11:47:35.982Z</time>
      </trkpt>
      <trkpt lat="47.23787" lon="-2.28551">
        <ele>22</ele>
        <time>2021-05-23T11:47:36.983Z</time>
      </trkpt>
      <trkpt lat="47.23787" lon="-2.28548">
        <ele>22</ele>
        <time>2021-05-23T11:47:37.982Z</time>
      </trkpt>
      <trkpt lat="47.23787" lon="-2.28545">
        <ele>22</ele>
        <time>2021-05-23T11:47:38.983Z</time>
      </trkpt>
      <trkpt lat="47.23787" lon="-2.28542">
        <ele>22</ele>
        <time>2021-05-23T11:47:39.982Z</time>
      </trkpt>
      <trkpt lat="47.23787" lon="-2.28537">
        <ele>22</ele>
        <time>2021-05-23T11:47:40.983Z</time>
      </trkpt>
      <trkpt lat="47.23787" lon="-2.28535">
        <ele>23</ele>
        <time>2021-05-23T11:47:41.983Z</time>
      </trkpt>
      <trkpt lat="47.23787" lon="-2.28532">
        <ele>23</ele>
        <time>2021-05-23T11:47:42.982Z</time>
      </trkpt>
      <trkpt lat="47.23787" lon="-2.28529">
        <ele>23</ele>
        <time>2021-05-23T11:47:43.983Z</time>
      </trkpt>
      <trkpt lat="47.23786" lon="-2.28526">
        <ele>23</ele>
        <time>2021-05-23T11:47:44.983Z</time>
      </trkpt>
      <trkpt lat="47.23785" lon="-2.28523">
        <ele>23</ele>
        <time>2021-05-23T11:47:45.983Z</time>
      </trkpt>
      <trkpt lat="47.23785" lon="-2.28521">
        <ele>22</ele>
        <time>2021-05-23T11:47:46.983Z</time>
      </trkpt>
      <trkpt lat="47.23784" lon="-2.2852">
        <ele>22</ele>
        <time>2021-05-23T11:47:47.983Z</time>
      </trkpt>
      <trkpt lat="47.23783" lon="-2.28518">
        <ele>22</ele>
        <time>2021-05-23T11:47:48.983Z</time>
      </trkpt>
      <trkpt lat="47.23782" lon="-2.28517">
        <ele>22</ele>
        <time>2021-05-23T11:47:49.983Z</time>
      </trkpt>
      <trkpt lat="47.2378" lon="-2.28515">
        <ele>22</ele>
        <time>2021-05-23T11:47:50.983Z</time>
      </trkpt>
      <trkpt lat="47.23779" lon="-2.28513">
        <ele>22</ele>
        <time>2021-05-23T11:47:51.983Z</time>
      </trkpt>
      <trkpt lat="47.23778" lon="-2.28511">
        <ele>22</ele>
        <time>2021-05-23T11:47:52.983Z</time>
      </trkpt>
      <trkpt lat="47.23776" lon="-2.28508">
        <ele>22</ele>
        <time>2021-05-23T11:47:53.983Z</time>
      </trkpt>
      <trkpt lat="47.23775" lon="-2.28505">
        <ele>21</ele>
        <time>2021-05-23T11:47:54.983Z</time>
      </trkpt>
      <trkpt lat="47.23774" lon="-2.28502">
        <ele>21</ele>
        <time>2021-05-23T11:47:55.982Z</time>
      </trkpt>
      <trkpt lat="47.23773" lon="-2.285">
        <ele>21</ele>
        <time>2021-05-23T11:47:56.983Z</time>
      </trkpt>
      <trkpt lat="47.23772" lon="-2.28498">
        <ele>21</ele>
        <time>2021-05-23T11:47:57.983Z</time>
      </trkpt>
      <trkpt lat="47.23771" lon="-2.28496">
        <ele>21</ele>
        <time>2021-05-23T11:47:58.983Z</time>
      </trkpt>
      <trkpt lat="47.23769" lon="-2.28494">
        <ele>21</ele>
        <time>2021-05-23T11:47:59.983Z</time>
      </trkpt>
      <trkpt lat="47.23768" lon="-2.28492">
        <ele>21</ele>
        <time>2021-05-23T11:48:00.982Z</time>
      </trkpt>
      <trkpt lat="47.23767" lon="-2.2849">
        <ele>21</ele>
        <time>2021-05-23T11:48:01.982Z</time>
      </trkpt>
      <trkpt lat="47.23765" lon="-2.28487">
        <ele>21</ele>
        <time>2021-05-23T11:48:02.983Z</time>
      </trkpt>
      <trkpt lat="47.23763" lon="-2.28484">
        <ele>21</ele>
        <time>2021-05-23T11:48:03.983Z</time>
      </trkpt>
      <trkpt lat="47.23762" lon="-2.28482">
        <ele>21</ele>
        <time>2021-05-23T11:48:04.983Z</time>
      </trkpt>
      <trkpt lat="47.23761" lon="-2.28479">
        <ele>20</ele>
        <time>2021-05-23T11:48:05.983Z</time>
      </trkpt>
      <trkpt lat="47.23759" lon="-2.28477">
        <ele>21</ele>
        <time>2021-05-23T11:48:06.982Z</time>
      </trkpt>
      <trkpt lat="47.23759" lon="-2.28473">
        <ele>21</ele>
        <time>2021-05-23T11:48:07.982Z</time>
      </trkpt>
      <trkpt lat="47.23759" lon="-2.2847">
        <ele>21</ele>
        <time>2021-05-23T11:48:08.982Z</time>
      </trkpt>
      <trkpt lat="47.23759" lon="-2.28467">
        <ele>21</ele>
        <time>2021-05-23T11:48:09.982Z</time>
      </trkpt>
      <trkpt lat="47.23759" lon="-2.28464">
        <ele>20</ele>
        <time>2021-05-23T11:48:10.982Z</time>
      </trkpt>
      <trkpt lat="47.2376" lon="-2.28461">
        <ele>20</ele>
        <time>2021-05-23T11:48:11.982Z</time>
      </trkpt>
      <trkpt lat="47.2376" lon="-2.28458">
        <ele>20</ele>
        <time>2021-05-23T11:48:12.982Z</time>
      </trkpt>
      <trkpt lat="47.2376" lon="-2.28456">
        <ele>20</ele>
        <time>2021-05-23T11:48:13.983Z</time>
      </trkpt>
      <trkpt lat="47.2376" lon="-2.28454">
        <ele>20</ele>
        <time>2021-05-23T11:48:14.983Z</time>
      </trkpt>
      <trkpt lat="47.2376" lon="-2.28453">
        <ele>20</ele>
        <time>2021-05-23T11:48:15.982Z</time>
      </trkpt>
      <trkpt lat="47.23761" lon="-2.28451">
        <ele>20</ele>
        <time>2021-05-23T11:48:16.983Z</time>
      </trkpt>
      <trkpt lat="47.23761" lon="-2.2845">
        <ele>21</ele>
        <time>2021-05-23T11:48:17.983Z</time>
      </trkpt>
      <trkpt lat="47.23762" lon="-2.28449">
        <ele>21</ele>
        <time>2021-05-23T11:48:18.982Z</time>
      </trkpt>
      <trkpt lat="47.23763" lon="-2.28448">
        <ele>21</ele>
        <time>2021-05-23T11:48:19.982Z</time>
      </trkpt>
      <trkpt lat="47.23763" lon="-2.28448">
        <ele>21</ele>
        <time>2021-05-23T11:48:20.983Z</time>
      </trkpt>
      <trkpt lat="47.23764" lon="-2.28447">
        <ele>22</ele>
        <time>2021-05-23T11:48:21.982Z</time>
      </trkpt>
      <trkpt lat="47.23765" lon="-2.28446">
        <ele>22</ele>
        <time>2021-05-23T11:48:22.982Z</time>
      </trkpt>
      <trkpt lat="47.23766" lon="-2.28444">
        <ele>22</ele>
        <time>2021-05-23T11:48:23.983Z</time>
      </trkpt>
      <trkpt lat="47.23767" lon="-2.28443">
        <ele>23</ele>
        <time>2021-05-23T11:48:24.983Z</time>
      </trkpt>
      <trkpt lat="47.23768" lon="-2.28442">
        <ele>23</ele>
        <time>2021-05-23T11:48:25.983Z</time>
      </trkpt>
      <trkpt lat="47.23768" lon="-2.28439">
        <ele>23</ele>
        <time>2021-05-23T11:48:26.983Z</time>
      </trkpt>
      <trkpt lat="47.23769" lon="-2.28436">
        <ele>23</ele>
        <time>2021-05-23T11:48:27.983Z</time>
      </trkpt>
      <trkpt lat="47.23769" lon="-2.28434">
        <ele>23</ele>
        <time>2021-05-23T11:48:28.983Z</time>
      </trkpt>
      <trkpt lat="47.23769" lon="-2.28432">
        <ele>23</ele>
        <time>2021-05-23T11:48:29.983Z</time>
      </trkpt>
      <trkpt lat="47.23769" lon="-2.2843">
        <ele>23</ele>
        <time>2021-05-23T11:48:30.983Z</time>
      </trkpt>
      <trkpt lat="47.2377" lon="-2.28428">
        <ele>23</ele>
        <time>2021-05-23T11:48:31.983Z</time>
      </trkpt>
      <trkpt lat="47.2377" lon="-2.28427">
        <ele>23</ele>
        <time>2021-05-23T11:48:32.983Z</time>
      </trkpt>
      <trkpt lat="47.23771" lon="-2.28425">
        <ele>23</ele>
        <time>2021-05-23T11:48:33.983Z</time>
      </trkpt>
      <trkpt lat="47.23772" lon="-2.28421">
        <ele>23</ele>
        <time>2021-05-23T11:48:34.982Z</time>
      </trkpt>
      <trkpt lat="47.23773" lon="-2.28418">
        <ele>23</ele>
        <time>2021-05-23T11:48:35.982Z</time>
      </trkpt>
      <trkpt lat="47.23774" lon="-2.28416">
        <ele>23</ele>
        <time>2021-05-23T11:48:36.982Z</time>
      </trkpt>
      <trkpt lat="47.23773" lon="-2.28413">
        <ele>22</ele>
        <time>2021-05-23T11:48:37.983Z</time>
      </trkpt>
      <trkpt lat="47.23773" lon="-2.2841">
        <ele>22</ele>
        <time>2021-05-23T11:48:38.983Z</time>
      </trkpt>
      <trkpt lat="47.23773" lon="-2.28407">
        <ele>22</ele>
        <time>2021-05-23T11:48:39.983Z</time>
      </trkpt>
      <trkpt lat="47.23773" lon="-2.28404">
        <ele>22</ele>
        <time>2021-05-23T11:48:40.983Z</time>
      </trkpt>
      <trkpt lat="47.23773" lon="-2.28401">
        <ele>22</ele>
        <time>2021-05-23T11:48:41.982Z</time>
      </trkpt>
      <trkpt lat="47.23773" lon="-2.28399">
        <ele>22</ele>
        <time>2021-05-23T11:48:42.983Z</time>
      </trkpt>
      <trkpt lat="47.23772" lon="-2.28395">
        <ele>22</ele>
        <time>2021-05-23T11:48:43.983Z</time>
      </trkpt>
      <trkpt lat="47.23772" lon="-2.28392">
        <ele>22</ele>
        <time>2021-05-23T11:48:44.983Z</time>
      </trkpt>
      <trkpt lat="47.23772" lon="-2.28389">
        <ele>22</ele>
        <time>2021-05-23T11:48:45.983Z</time>
      </trkpt>
      <trkpt lat="47.23773" lon="-2.28386">
        <ele>22</ele>
        <time>2021-05-23T11:48:46.983Z</time>
      </trkpt>
      <trkpt lat="47.23773" lon="-2.28383">
        <ele>22</ele>
        <time>2021-05-23T11:48:47.983Z</time>
      </trkpt>
      <trkpt lat="47.23774" lon="-2.2838">
        <ele>21</ele>
        <time>2021-05-23T11:48:48.983Z</time>
      </trkpt>
      <trkpt lat="47.23775" lon="-2.28378">
        <ele>21</ele>
        <time>2021-05-23T11:48:49.983Z</time>
      </trkpt>
      <trkpt lat="47.23777" lon="-2.28376">
        <ele>21</ele>
        <time>2021-05-23T11:48:50.982Z</time>
      </trkpt>
      <trkpt lat="47.23778" lon="-2.28375">
        <ele>20</ele>
        <time>2021-05-23T11:48:51.982Z</time>
      </trkpt>
      <trkpt lat="47.23779" lon="-2.28373">
        <ele>19</ele>
        <time>2021-05-23T11:48:52.983Z</time>
      </trkpt>
      <trkpt lat="47.23781" lon="-2.28371">
        <ele>19</ele>
        <time>2021-05-23T11:48:53.983Z</time>
      </trkpt>
      <trkpt lat="47.23782" lon="-2.28369">
        <ele>19</ele>
        <time>2021-05-23T11:48:54.983Z</time>
      </trkpt>
      <trkpt lat="47.23784" lon="-2.28366">
        <ele>18</ele>
        <time>2021-05-23T11:48:55.983Z</time>
      </trkpt>
      <trkpt lat="47.23785" lon="-2.28364">
        <ele>18</ele>
        <time>2021-05-23T11:48:56.982Z</time>
      </trkpt>
      <trkpt lat="47.23787" lon="-2.28362">
        <ele>18</ele>
        <time>2021-05-23T11:48:57.983Z</time>
      </trkpt>
      <trkpt lat="47.23788" lon="-2.28359">
        <ele>18</ele>
        <time>2021-05-23T11:48:58.983Z</time>
      </trkpt>
      <trkpt lat="47.23789" lon="-2.28355">
        <ele>18</ele>
        <time>2021-05-23T11:48:59.983Z</time>
      </trkpt>
      <trkpt lat="47.2379" lon="-2.28351">
        <ele>18</ele>
        <time>2021-05-23T11:49:00.983Z</time>
      </trkpt>
      <trkpt lat="47.23792" lon="-2.28348">
        <ele>18</ele>
        <time>2021-05-23T11:49:01.982Z</time>
      </trkpt>
      <trkpt lat="47.23793" lon="-2.28346">
        <ele>18</ele>
        <time>2021-05-23T11:49:02.983Z</time>
      </trkpt>
      <trkpt lat="47.23794" lon="-2.28343">
        <ele>18</ele>
        <time>2021-05-23T11:49:03.982Z</time>
      </trkpt>
      <trkpt lat="47.23796" lon="-2.28341">
        <ele>18</ele>
        <time>2021-05-23T11:49:04.982Z</time>
      </trkpt>
      <trkpt lat="47.23797" lon="-2.28339">
        <ele>18</ele>
        <time>2021-05-23T11:49:05.983Z</time>
      </trkpt>
      <trkpt lat="47.23798" lon="-2.28336">
        <ele>18</ele>
        <time>2021-05-23T11:49:06.982Z</time>
      </trkpt>
      <trkpt lat="47.238" lon="-2.28333">
        <ele>17</ele>
        <time>2021-05-23T11:49:07.982Z</time>
      </trkpt>
      <trkpt lat="47.23801" lon="-2.28331">
        <ele>17</ele>
        <time>2021-05-23T11:49:08.983Z</time>
      </trkpt>
      <trkpt lat="47.23803" lon="-2.28328">
        <ele>17</ele>
        <time>2021-05-23T11:49:09.982Z</time>
      </trkpt>
      <trkpt lat="47.23804" lon="-2.28326">
        <ele>17</ele>
        <time>2021-05-23T11:49:10.983Z</time>
      </trkpt>
      <trkpt lat="47.23805" lon="-2.28323">
        <ele>16</ele>
        <time>2021-05-23T11:49:11.982Z</time>
      </trkpt>
      <trkpt lat="47.23806" lon="-2.2832">
        <ele>16</ele>
        <time>2021-05-23T11:49:12.982Z</time>
      </trkpt>
      <trkpt lat="47.23807" lon="-2.28317">
        <ele>15</ele>
        <time>2021-05-23T11:49:13.982Z</time>
      </trkpt>
      <trkpt lat="47.23808" lon="-2.28314">
        <ele>15</ele>
        <time>2021-05-23T11:49:14.983Z</time>
      </trkpt>
      <trkpt lat="47.23808" lon="-2.28311">
        <ele>15</ele>
        <time>2021-05-23T11:49:15.983Z</time>
      </trkpt>
      <trkpt lat="47.23809" lon="-2.28308">
        <ele>15</ele>
        <time>2021-05-23T11:49:16.983Z</time>
      </trkpt>
      <trkpt lat="47.2381" lon="-2.28305">
        <ele>15</ele>
        <time>2021-05-23T11:49:17.983Z</time>
      </trkpt>
      <trkpt lat="47.2381" lon="-2.28302">
        <ele>14</ele>
        <time>2021-05-23T11:49:18.983Z</time>
      </trkpt>
      <trkpt lat="47.23811" lon="-2.28299">
        <ele>14</ele>
        <time>2021-05-23T11:49:19.982Z</time>
      </trkpt>
      <trkpt lat="47.23812" lon="-2.28297">
        <ele>13</ele>
        <time>2021-05-23T11:49:20.983Z</time>
      </trkpt>
      <trkpt lat="47.23813" lon="-2.28294">
        <ele>12</ele>
        <time>2021-05-23T11:49:21.983Z</time>
      </trkpt>
      <trkpt lat="47.23814" lon="-2.28291">
        <ele>12</ele>
        <time>2021-05-23T11:49:22.982Z</time>
      </trkpt>
      <trkpt lat="47.23815" lon="-2.28289">
        <ele>11</ele>
        <time>2021-05-23T11:49:23.983Z</time>
      </trkpt>
      <trkpt lat="47.23817" lon="-2.28288">
        <ele>11</ele>
        <time>2021-05-23T11:49:24.982Z</time>
      </trkpt>
      <trkpt lat="47.23818" lon="-2.28286">
        <ele>10</ele>
        <time>2021-05-23T11:49:25.982Z</time>
      </trkpt>
      <trkpt lat="47.2382" lon="-2.28284">
        <ele>10</ele>
        <time>2021-05-23T11:49:26.983Z</time>
      </trkpt>
      <trkpt lat="47.23822" lon="-2.28281">
        <ele>11</ele>
        <time>2021-05-23T11:49:27.982Z</time>
      </trkpt>
      <trkpt lat="47.23823" lon="-2.28278">
        <ele>11</ele>
        <time>2021-05-23T11:49:28.983Z</time>
      </trkpt>
      <trkpt lat="47.23824" lon="-2.28275">
        <ele>11</ele>
        <time>2021-05-23T11:49:29.983Z</time>
      </trkpt>
      <trkpt lat="47.23825" lon="-2.28271">
        <ele>12</ele>
        <time>2021-05-23T11:49:30.982Z</time>
      </trkpt>
      <trkpt lat="47.23826" lon="-2.28268">
        <ele>13</ele>
        <time>2021-05-23T11:49:31.982Z</time>
      </trkpt>
      <trkpt lat="47.23827" lon="-2.28265">
        <ele>13</ele>
        <time>2021-05-23T11:49:32.982Z</time>
      </trkpt>
      <trkpt lat="47.23827" lon="-2.28263">
        <ele>14</ele>
        <time>2021-05-23T11:49:33.983Z</time>
      </trkpt>
      <trkpt lat="47.23828" lon="-2.2826">
        <ele>14</ele>
        <time>2021-05-23T11:49:34.982Z</time>
      </trkpt>
      <trkpt lat="47.23828" lon="-2.28257">
        <ele>14</ele>
        <time>2021-05-23T11:49:35.983Z</time>
      </trkpt>
      <trkpt lat="47.23829" lon="-2.28254">
        <ele>14</ele>
        <time>2021-05-23T11:49:36.983Z</time>
      </trkpt>
      <trkpt lat="47.23829" lon="-2.28251">
        <ele>14</ele>
        <time>2021-05-23T11:49:37.983Z</time>
      </trkpt>
      <trkpt lat="47.23828" lon="-2.28247">
        <ele>14</ele>
        <time>2021-05-23T11:49:38.983Z</time>
      </trkpt>
      <trkpt lat="47.23827" lon="-2.28244">
        <ele>14</ele>
        <time>2021-05-23T11:49:39.983Z</time>
      </trkpt>
      <trkpt lat="47.23827" lon="-2.28242">
        <ele>14</ele>
        <time>2021-05-23T11:49:40.983Z</time>
      </trkpt>
      <trkpt lat="47.23826" lon="-2.28238">
        <ele>15</ele>
        <time>2021-05-23T11:49:41.982Z</time>
      </trkpt>
      <trkpt lat="47.23826" lon="-2.28235">
        <ele>15</ele>
        <time>2021-05-23T11:49:42.983Z</time>
      </trkpt>
      <trkpt lat="47.23826" lon="-2.28232">
        <ele>14</ele>
        <time>2021-05-23T11:49:43.983Z</time>
      </trkpt>
      <trkpt lat="47.23826" lon="-2.28229">
        <ele>14</ele>
        <time>2021-05-23T11:49:44.982Z</time>
      </trkpt>
      <trkpt lat="47.23825" lon="-2.28225">
        <ele>14</ele>
        <time>2021-05-23T11:49:45.983Z</time>
      </trkpt>
      <trkpt lat="47.23825" lon="-2.28222">
        <ele>14</ele>
        <time>2021-05-23T11:49:46.983Z</time>
      </trkpt>
      <trkpt lat="47.23824" lon="-2.28219">
        <ele>15</ele>
        <time>2021-05-23T11:49:47.983Z</time>
      </trkpt>
      <trkpt lat="47.23823" lon="-2.28216">
        <ele>15</ele>
        <time>2021-05-23T11:49:48.983Z</time>
      </trkpt>
      <trkpt lat="47.23823" lon="-2.28212">
        <ele>15</ele>
        <time>2021-05-23T11:49:49.983Z</time>
      </trkpt>
      <trkpt lat="47.23823" lon="-2.28209">
        <ele>16</ele>
        <time>2021-05-23T11:49:50.983Z</time>
      </trkpt>
      <trkpt lat="47.23823" lon="-2.28205">
        <ele>16</ele>
        <time>2021-05-23T11:49:51.983Z</time>
      </trkpt>
      <trkpt lat="47.23823" lon="-2.28203">
        <ele>16</ele>
        <time>2021-05-23T11:49:52.983Z</time>
      </trkpt>
      <trkpt lat="47.23823" lon="-2.28199">
        <ele>16</ele>
        <time>2021-05-23T11:49:53.982Z</time>
      </trkpt>
      <trkpt lat="47.23823" lon="-2.28196">
        <ele>16</ele>
        <time>2021-05-23T11:49:54.982Z</time>
      </trkpt>
      <trkpt lat="47.23823" lon="-2.28193">
        <ele>16</ele>
        <time>2021-05-23T11:49:55.982Z</time>
      </trkpt>
      <trkpt lat="47.23824" lon="-2.2819">
        <ele>16</ele>
        <time>2021-05-23T11:49:56.982Z</time>
      </trkpt>
      <trkpt lat="47.23824" lon="-2.28187">
        <ele>16</ele>
        <time>2021-05-23T11:49:57.983Z</time>
      </trkpt>
      <trkpt lat="47.23824" lon="-2.28183">
        <ele>16</ele>
        <time>2021-05-23T11:49:58.983Z</time>
      </trkpt>
      <trkpt lat="47.23824" lon="-2.2818">
        <ele>17</ele>
        <time>2021-05-23T11:49:59.983Z</time>
      </trkpt>
      <trkpt lat="47.23824" lon="-2.28176">
        <ele>17</ele>
        <time>2021-05-23T11:50:00.983Z</time>
      </trkpt>
      <trkpt lat="47.23824" lon="-2.28173">
        <ele>16</ele>
        <time>2021-05-23T11:50:01.983Z</time>
      </trkpt>
      <trkpt lat="47.23824" lon="-2.2817">
        <ele>16</ele>
        <time>2021-05-23T11:50:02.983Z</time>
      </trkpt>
      <trkpt lat="47.23824" lon="-2.28167">
        <ele>16</ele>
        <time>2021-05-23T11:50:03.983Z</time>
      </trkpt>
      <trkpt lat="47.23825" lon="-2.28163">
        <ele>16</ele>
        <time>2021-05-23T11:50:04.983Z</time>
      </trkpt>
      <trkpt lat="47.23824" lon="-2.2816">
        <ele>16</ele>
        <time>2021-05-23T11:50:05.983Z</time>
      </trkpt>
      <trkpt lat="47.23824" lon="-2.28157">
        <ele>15</ele>
        <time>2021-05-23T11:50:06.983Z</time>
      </trkpt>
      <trkpt lat="47.23823" lon="-2.28154">
        <ele>15</ele>
        <time>2021-05-23T11:50:07.983Z</time>
      </trkpt>
      <trkpt lat="47.23823" lon="-2.28151">
        <ele>14</ele>
        <time>2021-05-23T11:50:08.983Z</time>
      </trkpt>
      <trkpt lat="47.23824" lon="-2.28147">
        <ele>14</ele>
        <time>2021-05-23T11:50:09.983Z</time>
      </trkpt>
      <trkpt lat="47.23824" lon="-2.28144">
        <ele>14</ele>
        <time>2021-05-23T11:50:10.982Z</time>
      </trkpt>
      <trkpt lat="47.23824" lon="-2.28141">
        <ele>14</ele>
        <time>2021-05-23T11:50:11.983Z</time>
      </trkpt>
      <trkpt lat="47.23825" lon="-2.28138">
        <ele>14</ele>
        <time>2021-05-23T11:50:12.983Z</time>
      </trkpt>
      <trkpt lat="47.23825" lon="-2.28137">
        <ele>14</ele>
        <time>2021-05-23T11:50:13.982Z</time>
      </trkpt>
      <trkpt lat="47.23825" lon="-2.28135">
        <ele>14</ele>
        <time>2021-05-23T11:50:14.982Z</time>
      </trkpt>
      <trkpt lat="47.23825" lon="-2.28135">
        <ele>14</ele>
        <time>2021-05-23T11:50:15.983Z</time>
      </trkpt>
      <trkpt lat="47.23825" lon="-2.28135">
        <ele>14</ele>
        <time>2021-05-23T11:50:16.983Z</time>
      </trkpt>
      <trkpt lat="47.23824" lon="-2.28135">
        <ele>14</ele>
        <time>2021-05-23T11:50:17.983Z</time>
      </trkpt>
      <trkpt lat="47.23825" lon="-2.28135">
        <ele>14</ele>
        <time>2021-05-23T11:50:18.983Z</time>
      </trkpt>
      <trkpt lat="47.23825" lon="-2.28135">
        <ele>13</ele>
        <time>2021-05-23T11:50:19.982Z</time>
      </trkpt>
      <trkpt lat="47.23824" lon="-2.28134">
        <ele>13</ele>
        <time>2021-05-23T11:50:20.982Z</time>
      </trkpt>
      <trkpt lat="47.23824" lon="-2.28134">
        <ele>13</ele>
        <time>2021-05-23T11:50:21.982Z</time>
      </trkpt>
      <trkpt lat="47.23824" lon="-2.28133">
        <ele>13</ele>
        <time>2021-05-23T11:50:22.983Z</time>
      </trkpt>
      <trkpt lat="47.23824" lon="-2.28131">
        <ele>12</ele>
        <time>2021-05-23T11:50:23.983Z</time>
      </trkpt>
      <trkpt lat="47.23824" lon="-2.2813">
        <ele>12</ele>
        <time>2021-05-23T11:50:24.982Z</time>
      </trkpt>
      <trkpt lat="47.23824" lon="-2.28129">
        <ele>12</ele>
        <time>2021-05-23T11:50:25.983Z</time>
      </trkpt>
      <trkpt lat="47.23824" lon="-2.28128">
        <ele>12</ele>
        <time>2021-05-23T11:50:26.983Z</time>
      </trkpt>
      <trkpt lat="47.23824" lon="-2.28127">
        <ele>11</ele>
        <time>2021-05-23T11:50:27.982Z</time>
      </trkpt>
      <trkpt lat="47.23824" lon="-2.28126">
        <ele>11</ele>
        <time>2021-05-23T11:50:28.983Z</time>
      </trkpt>
      <trkpt lat="47.23824" lon="-2.28125">
        <ele>10</ele>
        <time>2021-05-23T11:50:29.983Z</time>
      </trkpt>
      <trkpt lat="47.23824" lon="-2.28123">
        <ele>10</ele>
        <time>2021-05-23T11:50:30.983Z</time>
      </trkpt>
      <trkpt lat="47.23823" lon="-2.28121">
        <ele>10</ele>
        <time>2021-05-23T11:50:31.982Z</time>
      </trkpt>
      <trkpt lat="47.23823" lon="-2.2812">
        <ele>9</ele>
        <time>2021-05-23T11:50:32.982Z</time>
      </trkpt>
      <trkpt lat="47.23823" lon="-2.28119">
        <ele>9</ele>
        <time>2021-05-23T11:50:33.982Z</time>
      </trkpt>
      <trkpt lat="47.23824" lon="-2.28118">
        <ele>9</ele>
        <time>2021-05-23T11:50:34.982Z</time>
      </trkpt>
      <trkpt lat="47.23824" lon="-2.28117">
        <ele>9</ele>
        <time>2021-05-23T11:50:35.983Z</time>
      </trkpt>
      <trkpt lat="47.23825" lon="-2.28116">
        <ele>9</ele>
        <time>2021-05-23T11:50:36.983Z</time>
      </trkpt>
      <trkpt lat="47.23826" lon="-2.28114">
        <ele>10</ele>
        <time>2021-05-23T11:50:37.982Z</time>
      </trkpt>
      <trkpt lat="47.23827" lon="-2.28113">
        <ele>10</ele>
        <time>2021-05-23T11:50:38.983Z</time>
      </trkpt>
      <trkpt lat="47.23828" lon="-2.2811">
        <ele>10</ele>
        <time>2021-05-23T11:50:39.982Z</time>
      </trkpt>
      <trkpt lat="47.2383" lon="-2.28109">
        <ele>11</ele>
        <time>2021-05-23T11:50:40.983Z</time>
      </trkpt>
      <trkpt lat="47.23831" lon="-2.28107">
        <ele>11</ele>
        <time>2021-05-23T11:50:41.983Z</time>
      </trkpt>
      <trkpt lat="47.23832" lon="-2.28106">
        <ele>11</ele>
        <time>2021-05-23T11:50:42.982Z</time>
      </trkpt>
      <trkpt lat="47.23832" lon="-2.28104">
        <ele>11</ele>
        <time>2021-05-23T11:50:43.983Z</time>
      </trkpt>
      <trkpt lat="47.23833" lon="-2.28103">
        <ele>11</ele>
        <time>2021-05-23T11:50:44.983Z</time>
      </trkpt>
      <trkpt lat="47.23833" lon="-2.28102">
        <ele>11</ele>
        <time>2021-05-23T11:50:45.983Z</time>
      </trkpt>
      <trkpt lat="47.23833" lon="-2.281">
        <ele>11</ele>
        <time>2021-05-23T11:50:46.983Z</time>
      </trkpt>
      <trkpt lat="47.23832" lon="-2.28099">
        <ele>11</ele>
        <time>2021-05-23T11:50:47.983Z</time>
      </trkpt>
      <trkpt lat="47.23832" lon="-2.28097">
        <ele>11</ele>
        <time>2021-05-23T11:50:48.983Z</time>
      </trkpt>
      <trkpt lat="47.23833" lon="-2.28095">
        <ele>12</ele>
        <time>2021-05-23T11:50:49.983Z</time>
      </trkpt>
      <trkpt lat="47.23832" lon="-2.28094">
        <ele>12</ele>
        <time>2021-05-23T11:50:50.983Z</time>
      </trkpt>
      <trkpt lat="47.23832" lon="-2.28093">
        <ele>13</ele>
        <time>2021-05-23T11:50:51.982Z</time>
      </trkpt>
      <trkpt lat="47.23831" lon="-2.28091">
        <ele>13</ele>
        <time>2021-05-23T11:50:52.983Z</time>
      </trkpt>
      <trkpt lat="47.23831" lon="-2.28089">
        <ele>13</ele>
        <time>2021-05-23T11:50:53.982Z</time>
      </trkpt>
      <trkpt lat="47.2383" lon="-2.28087">
        <ele>13</ele>
        <time>2021-05-23T11:50:54.982Z</time>
      </trkpt>
      <trkpt lat="47.2383" lon="-2.28085">
        <ele>13</ele>
        <time>2021-05-23T11:50:55.983Z</time>
      </trkpt>
      <trkpt lat="47.2383" lon="-2.28084">
        <ele>13</ele>
        <time>2021-05-23T11:50:56.983Z</time>
      </trkpt>
      <trkpt lat="47.2383" lon="-2.28082">
        <ele>14</ele>
        <time>2021-05-23T11:50:57.983Z</time>
      </trkpt>
      <trkpt lat="47.23829" lon="-2.28081">
        <ele>14</ele>
        <time>2021-05-23T11:50:58.983Z</time>
      </trkpt>
      <trkpt lat="47.23828" lon="-2.28079">
        <ele>14</ele>
        <time>2021-05-23T11:50:59.983Z</time>
      </trkpt>
      <trkpt lat="47.23828" lon="-2.28078">
        <ele>14</ele>
        <time>2021-05-23T11:51:00.982Z</time>
      </trkpt>
      <trkpt lat="47.23827" lon="-2.28077">
        <ele>14</ele>
        <time>2021-05-23T11:51:01.982Z</time>
      </trkpt>
      <trkpt lat="47.23827" lon="-2.28076">
        <ele>14</ele>
        <time>2021-05-23T11:51:02.983Z</time>
      </trkpt>
      <trkpt lat="47.23826" lon="-2.28074">
        <ele>14</ele>
        <time>2021-05-23T11:51:03.982Z</time>
      </trkpt>
      <trkpt lat="47.23826" lon="-2.28073">
        <ele>14</ele>
        <time>2021-05-23T11:51:04.983Z</time>
      </trkpt>
      <trkpt lat="47.23825" lon="-2.28071">
        <ele>13</ele>
        <time>2021-05-23T11:51:05.983Z</time>
      </trkpt>
      <trkpt lat="47.23825" lon="-2.2807">
        <ele>13</ele>
        <time>2021-05-23T11:51:06.983Z</time>
      </trkpt>
      <trkpt lat="47.23824" lon="-2.28068">
        <ele>12</ele>
        <time>2021-05-23T11:51:07.983Z</time>
      </trkpt>
      <trkpt lat="47.23824" lon="-2.28066">
        <ele>12</ele>
        <time>2021-05-23T11:51:08.982Z</time>
      </trkpt>
      <trkpt lat="47.23824" lon="-2.28064">
        <ele>11</ele>
        <time>2021-05-23T11:51:09.983Z</time>
      </trkpt>
      <trkpt lat="47.23824" lon="-2.28063">
        <ele>11</ele>
        <time>2021-05-23T11:51:10.983Z</time>
      </trkpt>
      <trkpt lat="47.23823" lon="-2.28061">
        <ele>11</ele>
        <time>2021-05-23T11:51:11.982Z</time>
      </trkpt>
      <trkpt lat="47.23823" lon="-2.2806">
        <ele>11</ele>
        <time>2021-05-23T11:51:12.983Z</time>
      </trkpt>
      <trkpt lat="47.23822" lon="-2.28058">
        <ele>10</ele>
        <time>2021-05-23T11:51:13.983Z</time>
      </trkpt>
      <trkpt lat="47.23823" lon="-2.28057">
        <ele>10</ele>
        <time>2021-05-23T11:51:14.983Z</time>
      </trkpt>
      <trkpt lat="47.23823" lon="-2.28056">
        <ele>10</ele>
        <time>2021-05-23T11:51:15.982Z</time>
      </trkpt>
      <trkpt lat="47.23822" lon="-2.28055">
        <ele>11</ele>
        <time>2021-05-23T11:51:16.983Z</time>
      </trkpt>
      <trkpt lat="47.23822" lon="-2.28054">
        <ele>11</ele>
        <time>2021-05-23T11:51:17.983Z</time>
      </trkpt>
      <trkpt lat="47.23822" lon="-2.28053">
        <ele>11</ele>
        <time>2021-05-23T11:51:18.983Z</time>
      </trkpt>
      <trkpt lat="47.23821" lon="-2.28053">
        <ele>11</ele>
        <time>2021-05-23T11:51:19.983Z</time>
      </trkpt>
      <trkpt lat="47.2382" lon="-2.28053">
        <ele>10</ele>
        <time>2021-05-23T11:51:20.983Z</time>
      </trkpt>
      <trkpt lat="47.23819" lon="-2.28052">
        <ele>10</ele>
        <time>2021-05-23T11:51:21.983Z</time>
      </trkpt>
      <trkpt lat="47.23818" lon="-2.28051">
        <ele>10</ele>
        <time>2021-05-23T11:51:22.983Z</time>
      </trkpt>
      <trkpt lat="47.23816" lon="-2.28051">
        <ele>10</ele>
        <time>2021-05-23T11:51:23.982Z</time>
      </trkpt>
      <trkpt lat="47.23816" lon="-2.28051">
        <ele>11</ele>
        <time>2021-05-23T11:51:24.983Z</time>
      </trkpt>
      <trkpt lat="47.23815" lon="-2.2805">
        <ele>11</ele>
        <time>2021-05-23T11:51:25.983Z</time>
      </trkpt>
      <trkpt lat="47.23814" lon="-2.2805">
        <ele>10</ele>
        <time>2021-05-23T11:51:26.982Z</time>
      </trkpt>
      <trkpt lat="47.23813" lon="-2.28051">
        <ele>10</ele>
        <time>2021-05-23T11:51:27.983Z</time>
      </trkpt>
      <trkpt lat="47.23813" lon="-2.28051">
        <ele>10</ele>
        <time>2021-05-23T11:51:28.983Z</time>
      </trkpt>
      <trkpt lat="47.23812" lon="-2.2805">
        <ele>10</ele>
        <time>2021-05-23T11:51:29.983Z</time>
      </trkpt>
      <trkpt lat="47.23812" lon="-2.2805">
        <ele>10</ele>
        <time>2021-05-23T11:51:30.983Z</time>
      </trkpt>
      <trkpt lat="47.23812" lon="-2.28049">
        <ele>9</ele>
        <time>2021-05-23T11:51:31.982Z</time>
      </trkpt>
      <trkpt lat="47.23811" lon="-2.28049">
        <ele>9</ele>
        <time>2021-05-23T11:51:32.982Z</time>
      </trkpt>
      <trkpt lat="47.23811" lon="-2.28049">
        <ele>8</ele>
        <time>2021-05-23T11:51:33.983Z</time>
      </trkpt>
      <trkpt lat="47.23811" lon="-2.28048">
        <ele>8</ele>
        <time>2021-05-23T11:51:34.983Z</time>
      </trkpt>
      <trkpt lat="47.2381" lon="-2.28048">
        <ele>8</ele>
        <time>2021-05-23T11:51:35.983Z</time>
      </trkpt>
      <trkpt lat="47.2381" lon="-2.28047">
        <ele>8</ele>
        <time>2021-05-23T11:51:36.983Z</time>
      </trkpt>
      <trkpt lat="47.23809" lon="-2.28047">
        <ele>8</ele>
        <time>2021-05-23T11:51:37.983Z</time>
      </trkpt>
      <trkpt lat="47.23809" lon="-2.28045">
        <ele>8</ele>
        <time>2021-05-23T11:51:38.982Z</time>
      </trkpt>
      <trkpt lat="47.23809" lon="-2.28044">
        <ele>9</ele>
        <time>2021-05-23T11:51:39.982Z</time>
      </trkpt>
      <trkpt lat="47.23809" lon="-2.28043">
        <ele>9</ele>
        <time>2021-05-23T11:51:40.982Z</time>
      </trkpt>
      <trkpt lat="47.23809" lon="-2.28043">
        <ele>9</ele>
        <time>2021-05-23T11:51:41.983Z</time>
      </trkpt>
      <trkpt lat="47.23809" lon="-2.28042">
        <ele>9</ele>
        <time>2021-05-23T11:51:42.982Z</time>
      </trkpt>
      <trkpt lat="47.23809" lon="-2.28042">
        <ele>9</ele>
        <time>2021-05-23T11:51:43.982Z</time>
      </trkpt>
      <trkpt lat="47.23809" lon="-2.28042">
        <ele>9</ele>
        <time>2021-05-23T11:51:44.982Z</time>
      </trkpt>
      <trkpt lat="47.23809" lon="-2.28041">
        <ele>9</ele>
        <time>2021-05-23T11:51:45.982Z</time>
      </trkpt>
      <trkpt lat="47.23809" lon="-2.2804">
        <ele>9</ele>
        <time>2021-05-23T11:51:46.983Z</time>
      </trkpt>
      <trkpt lat="47.23809" lon="-2.2804">
        <ele>9</ele>
        <time>2021-05-23T11:51:47.983Z</time>
      </trkpt>
      <trkpt lat="47.23809" lon="-2.28039">
        <ele>9</ele>
        <time>2021-05-23T11:51:48.983Z</time>
      </trkpt>
      <trkpt lat="47.23809" lon="-2.28038">
        <ele>9</ele>
        <time>2021-05-23T11:51:49.982Z</time>
      </trkpt>
      <trkpt lat="47.23808" lon="-2.28038">
        <ele>9</ele>
        <time>2021-05-23T11:51:50.982Z</time>
      </trkpt>
      <trkpt lat="47.23808" lon="-2.28037">
        <ele>8</ele>
        <time>2021-05-23T11:51:51.982Z</time>
      </trkpt>
      <trkpt lat="47.23808" lon="-2.28035">
        <ele>8</ele>
        <time>2021-05-23T11:51:52.982Z</time>
      </trkpt>
      <trkpt lat="47.23808" lon="-2.28033">
        <ele>8</ele>
        <time>2021-05-23T11:51:53.983Z</time>
      </trkpt>
      <trkpt lat="47.23808" lon="-2.28031">
        <ele>8</ele>
        <time>2021-05-23T11:51:54.982Z</time>
      </trkpt>
      <trkpt lat="47.23808" lon="-2.2803">
        <ele>8</ele>
        <time>2021-05-23T11:51:55.983Z</time>
      </trkpt>
      <trkpt lat="47.23807" lon="-2.28026">
        <ele>9</ele>
        <time>2021-05-23T11:51:56.982Z</time>
      </trkpt>
      <trkpt lat="47.23807" lon="-2.28023">
        <ele>9</ele>
        <time>2021-05-23T11:51:57.983Z</time>
      </trkpt>
      <trkpt lat="47.23807" lon="-2.2802">
        <ele>9</ele>
        <time>2021-05-23T11:51:58.983Z</time>
      </trkpt>
      <trkpt lat="47.23807" lon="-2.28017">
        <ele>10</ele>
        <time>2021-05-23T11:51:59.982Z</time>
      </trkpt>
      <trkpt lat="47.23808" lon="-2.28015">
        <ele>10</ele>
        <time>2021-05-23T11:52:00.982Z</time>
      </trkpt>
      <trkpt lat="47.23808" lon="-2.28012">
        <ele>10</ele>
        <time>2021-05-23T11:52:01.983Z</time>
      </trkpt>
      <trkpt lat="47.23809" lon="-2.2801">
        <ele>11</ele>
        <time>2021-05-23T11:52:02.983Z</time>
      </trkpt>
      <trkpt lat="47.23809" lon="-2.28008">
        <ele>11</ele>
        <time>2021-05-23T11:52:03.983Z</time>
      </trkpt>
      <trkpt lat="47.23809" lon="-2.28006">
        <ele>11</ele>
        <time>2021-05-23T11:52:04.983Z</time>
      </trkpt>
      <trkpt lat="47.23809" lon="-2.28005">
        <ele>11</ele>
        <time>2021-05-23T11:52:05.983Z</time>
      </trkpt>
      <trkpt lat="47.23809" lon="-2.28003">
        <ele>11</ele>
        <time>2021-05-23T11:52:06.982Z</time>
      </trkpt>
      <trkpt lat="47.2381" lon="-2.28001">
        <ele>10</ele>
        <time>2021-05-23T11:52:07.983Z</time>
      </trkpt>
      <trkpt lat="47.23809" lon="-2.28">
        <ele>9</ele>
        <time>2021-05-23T11:52:08.983Z</time>
      </trkpt>
      <trkpt lat="47.23808" lon="-2.27998">
        <ele>8</ele>
        <time>2021-05-23T11:52:09.982Z</time>
      </trkpt>
      <trkpt lat="47.23807" lon="-2.27996">
        <ele>7</ele>
        <time>2021-05-23T11:52:10.983Z</time>
      </trkpt>
      <trkpt lat="47.23807" lon="-2.27995">
        <ele>7</ele>
        <time>2021-05-23T11:52:11.982Z</time>
      </trkpt>
      <trkpt lat="47.23807" lon="-2.27993">
        <ele>6</ele>
        <time>2021-05-23T11:52:12.982Z</time>
      </trkpt>
      <trkpt lat="47.23807" lon="-2.27991">
        <ele>6</ele>
        <time>2021-05-23T11:52:13.983Z</time>
      </trkpt>
      <trkpt lat="47.23807" lon="-2.27989">
        <ele>5</ele>
        <time>2021-05-23T11:52:14.982Z</time>
      </trkpt>
      <trkpt lat="47.23806" lon="-2.27987">
        <ele>5</ele>
        <time>2021-05-23T11:52:15.982Z</time>
      </trkpt>
      <trkpt lat="47.23807" lon="-2.27984">
        <ele>4</ele>
        <time>2021-05-23T11:52:16.982Z</time>
      </trkpt>
      <trkpt lat="47.23807" lon="-2.27982">
        <ele>4</ele>
        <time>2021-05-23T11:52:17.982Z</time>
      </trkpt>
      <trkpt lat="47.23806" lon="-2.27979">
        <ele>4</ele>
        <time>2021-05-23T11:52:18.982Z</time>
      </trkpt>
      <trkpt lat="47.23806" lon="-2.27976">
        <ele>5</ele>
        <time>2021-05-23T11:52:19.982Z</time>
      </trkpt>
      <trkpt lat="47.23807" lon="-2.27973">
        <ele>5</ele>
        <time>2021-05-23T11:52:20.982Z</time>
      </trkpt>
      <trkpt lat="47.23806" lon="-2.2797">
        <ele>6</ele>
        <time>2021-05-23T11:52:21.982Z</time>
      </trkpt>
      <trkpt lat="47.23807" lon="-2.27967">
        <ele>6</ele>
        <time>2021-05-23T11:52:22.982Z</time>
      </trkpt>
      <trkpt lat="47.23806" lon="-2.27964">
        <ele>7</ele>
        <time>2021-05-23T11:52:23.982Z</time>
      </trkpt>
      <trkpt lat="47.23806" lon="-2.27962">
        <ele>7</ele>
        <time>2021-05-23T11:52:24.982Z</time>
      </trkpt>
      <trkpt lat="47.23807" lon="-2.27959">
        <ele>8</ele>
        <time>2021-05-23T11:52:25.982Z</time>
      </trkpt>
      <trkpt lat="47.23807" lon="-2.27957">
        <ele>8</ele>
        <time>2021-05-23T11:52:26.983Z</time>
      </trkpt>
      <trkpt lat="47.23808" lon="-2.27954">
        <ele>8</ele>
        <time>2021-05-23T11:52:27.982Z</time>
      </trkpt>
      <trkpt lat="47.23808" lon="-2.27951">
        <ele>8</ele>
        <time>2021-05-23T11:52:28.983Z</time>
      </trkpt>
      <trkpt lat="47.23809" lon="-2.27948">
        <ele>8</ele>
        <time>2021-05-23T11:52:29.983Z</time>
      </trkpt>
      <trkpt lat="47.23809" lon="-2.27945">
        <ele>8</ele>
        <time>2021-05-23T11:52:30.983Z</time>
      </trkpt>
      <trkpt lat="47.2381" lon="-2.27943">
        <ele>9</ele>
        <time>2021-05-23T11:52:31.982Z</time>
      </trkpt>
      <trkpt lat="47.23809" lon="-2.2794">
        <ele>9</ele>
        <time>2021-05-23T11:52:32.983Z</time>
      </trkpt>
      <trkpt lat="47.23809" lon="-2.27937">
        <ele>9</ele>
        <time>2021-05-23T11:52:33.983Z</time>
      </trkpt>
      <trkpt lat="47.23809" lon="-2.27934">
        <ele>9</ele>
        <time>2021-05-23T11:52:34.982Z</time>
      </trkpt>
      <trkpt lat="47.23808" lon="-2.27931">
        <ele>9</ele>
        <time>2021-05-23T11:52:35.983Z</time>
      </trkpt>
      <trkpt lat="47.23808" lon="-2.27927">
        <ele>9</ele>
        <time>2021-05-23T11:52:36.983Z</time>
      </trkpt>
      <trkpt lat="47.23808" lon="-2.27925">
        <ele>9</ele>
        <time>2021-05-23T11:52:37.982Z</time>
      </trkpt>
      <trkpt lat="47.23807" lon="-2.27921">
        <ele>9</ele>
        <time>2021-05-23T11:52:38.982Z</time>
      </trkpt>
      <trkpt lat="47.23808" lon="-2.27918">
        <ele>9</ele>
        <time>2021-05-23T11:52:39.983Z</time>
      </trkpt>
      <trkpt lat="47.23808" lon="-2.27914">
        <ele>9</ele>
        <time>2021-05-23T11:52:40.982Z</time>
      </trkpt>
      <trkpt lat="47.23808" lon="-2.2791">
        <ele>9</ele>
        <time>2021-05-23T11:52:41.982Z</time>
      </trkpt>
      <trkpt lat="47.23807" lon="-2.27907">
        <ele>9</ele>
        <time>2021-05-23T11:52:42.983Z</time>
      </trkpt>
      <trkpt lat="47.23807" lon="-2.27904">
        <ele>9</ele>
        <time>2021-05-23T11:52:43.983Z</time>
      </trkpt>
      <trkpt lat="47.23806" lon="-2.27901">
        <ele>9</ele>
        <time>2021-05-23T11:52:44.982Z</time>
      </trkpt>
      <trkpt lat="47.23806" lon="-2.27898">
        <ele>9</ele>
        <time>2021-05-23T11:52:45.983Z</time>
      </trkpt>
      <trkpt lat="47.23805" lon="-2.27896">
        <ele>10</ele>
        <time>2021-05-23T11:52:46.983Z</time>
      </trkpt>
      <trkpt lat="47.23805" lon="-2.27893">
        <ele>10</ele>
        <time>2021-05-23T11:52:47.983Z</time>
      </trkpt>
      <trkpt lat="47.23805" lon="-2.2789">
        <ele>10</ele>
        <time>2021-05-23T11:52:48.982Z</time>
      </trkpt>
      <trkpt lat="47.23804" lon="-2.27886">
        <ele>10</ele>
        <time>2021-05-23T11:52:49.983Z</time>
      </trkpt>
      <trkpt lat="47.23804" lon="-2.27884">
        <ele>10</ele>
        <time>2021-05-23T11:52:50.982Z</time>
      </trkpt>
      <trkpt lat="47.23804" lon="-2.27881">
        <ele>10</ele>
        <time>2021-05-23T11:52:51.983Z</time>
      </trkpt>
      <trkpt lat="47.23803" lon="-2.27878">
        <ele>10</ele>
        <time>2021-05-23T11:52:52.983Z</time>
      </trkpt>
      <trkpt lat="47.23803" lon="-2.27875">
        <ele>9</ele>
        <time>2021-05-23T11:52:53.983Z</time>
      </trkpt>
      <trkpt lat="47.23803" lon="-2.27872">
        <ele>9</ele>
        <time>2021-05-23T11:52:54.983Z</time>
      </trkpt>
      <trkpt lat="47.23803" lon="-2.27868">
        <ele>9</ele>
        <time>2021-05-23T11:52:55.983Z</time>
      </trkpt>
      <trkpt lat="47.23803" lon="-2.27865">
        <ele>9</ele>
        <time>2021-05-23T11:52:56.983Z</time>
      </trkpt>
      <trkpt lat="47.23803" lon="-2.27862">
        <ele>9</ele>
        <time>2021-05-23T11:52:57.982Z</time>
      </trkpt>
      <trkpt lat="47.23803" lon="-2.27859">
        <ele>9</ele>
        <time>2021-05-23T11:52:58.983Z</time>
      </trkpt>
      <trkpt lat="47.23802" lon="-2.27856">
        <ele>9</ele>
        <time>2021-05-23T11:52:59.983Z</time>
      </trkpt>
      <trkpt lat="47.23801" lon="-2.27853">
        <ele>8</ele>
        <time>2021-05-23T11:53:00.983Z</time>
      </trkpt>
      <trkpt lat="47.23801" lon="-2.27851">
        <ele>8</ele>
        <time>2021-05-23T11:53:01.983Z</time>
      </trkpt>
      <trkpt lat="47.238" lon="-2.27847">
        <ele>8</ele>
        <time>2021-05-23T11:53:02.983Z</time>
      </trkpt>
      <trkpt lat="47.238" lon="-2.27844">
        <ele>8</ele>
        <time>2021-05-23T11:53:03.982Z</time>
      </trkpt>
      <trkpt lat="47.238" lon="-2.27841">
        <ele>7</ele>
        <time>2021-05-23T11:53:04.983Z</time>
      </trkpt>
      <trkpt lat="47.238" lon="-2.27839">
        <ele>7</ele>
        <time>2021-05-23T11:53:05.982Z</time>
      </trkpt>
      <trkpt lat="47.23801" lon="-2.27836">
        <ele>7</ele>
        <time>2021-05-23T11:53:06.983Z</time>
      </trkpt>
      <trkpt lat="47.23802" lon="-2.27834">
        <ele>7</ele>
        <time>2021-05-23T11:53:07.983Z</time>
      </trkpt>
      <trkpt lat="47.23803" lon="-2.27831">
        <ele>7</ele>
        <time>2021-05-23T11:53:08.983Z</time>
      </trkpt>
      <trkpt lat="47.23804" lon="-2.27828">
        <ele>8</ele>
        <time>2021-05-23T11:53:09.982Z</time>
      </trkpt>
      <trkpt lat="47.23806" lon="-2.27826">
        <ele>8</ele>
        <time>2021-05-23T11:53:10.982Z</time>
      </trkpt>
      <trkpt lat="47.23807" lon="-2.27823">
        <ele>8</ele>
        <time>2021-05-23T11:53:11.983Z</time>
      </trkpt>
      <trkpt lat="47.23808" lon="-2.27821">
        <ele>8</ele>
        <time>2021-05-23T11:53:12.982Z</time>
      </trkpt>
      <trkpt lat="47.23808" lon="-2.27819">
        <ele>9</ele>
        <time>2021-05-23T11:53:13.982Z</time>
      </trkpt>
      <trkpt lat="47.23809" lon="-2.27817">
        <ele>9</ele>
        <time>2021-05-23T11:53:14.982Z</time>
      </trkpt>
      <trkpt lat="47.2381" lon="-2.27815">
        <ele>9</ele>
        <time>2021-05-23T11:53:15.982Z</time>
      </trkpt>
      <trkpt lat="47.2381" lon="-2.27815">
        <ele>9</ele>
        <time>2021-05-23T11:53:16.982Z</time>
      </trkpt>
      <trkpt lat="47.23811" lon="-2.27814">
        <ele>10</ele>
        <time>2021-05-23T11:53:17.982Z</time>
      </trkpt>
      <trkpt lat="47.23811" lon="-2.27813">
        <ele>10</ele>
        <time>2021-05-23T11:53:18.983Z</time>
      </trkpt>
      <trkpt lat="47.23812" lon="-2.27813">
        <ele>10</ele>
        <time>2021-05-23T11:53:19.983Z</time>
      </trkpt>
      <trkpt lat="47.23812" lon="-2.27813">
        <ele>10</ele>
        <time>2021-05-23T11:53:20.983Z</time>
      </trkpt>
      <trkpt lat="47.23812" lon="-2.27813">
        <ele>10</ele>
        <time>2021-05-23T11:53:21.983Z</time>
      </trkpt>
      <trkpt lat="47.23812" lon="-2.27813">
        <ele>10</ele>
        <time>2021-05-23T11:53:22.983Z</time>
      </trkpt>
      <trkpt lat="47.23812" lon="-2.27813">
        <ele>10</ele>
        <time>2021-05-23T11:53:23.982Z</time>
      </trkpt>
      <trkpt lat="47.23813" lon="-2.27812">
        <ele>10</ele>
        <time>2021-05-23T11:53:24.983Z</time>
      </trkpt>
      <trkpt lat="47.23813" lon="-2.27812">
        <ele>10</ele>
        <time>2021-05-23T11:53:25.982Z</time>
      </trkpt>
      <trkpt lat="47.23813" lon="-2.27811">
        <ele>11</ele>
        <time>2021-05-23T11:53:26.983Z</time>
      </trkpt>
      <trkpt lat="47.23813" lon="-2.27811">
        <ele>10</ele>
        <time>2021-05-23T11:53:27.983Z</time>
      </trkpt>
      <trkpt lat="47.23813" lon="-2.2781">
        <ele>10</ele>
        <time>2021-05-23T11:53:28.983Z</time>
      </trkpt>
      <trkpt lat="47.23812" lon="-2.27809">
        <ele>9</ele>
        <time>2021-05-23T11:53:29.983Z</time>
      </trkpt>
      <trkpt lat="47.23812" lon="-2.27808">
        <ele>9</ele>
        <time>2021-05-23T11:53:30.982Z</time>
      </trkpt>
      <trkpt lat="47.23812" lon="-2.27807">
        <ele>8</ele>
        <time>2021-05-23T11:53:31.983Z</time>
      </trkpt>
      <trkpt lat="47.23811" lon="-2.27807">
        <ele>8</ele>
        <time>2021-05-23T11:53:32.982Z</time>
      </trkpt>
      <trkpt lat="47.23811" lon="-2.27806">
        <ele>7</ele>
        <time>2021-05-23T11:53:33.983Z</time>
      </trkpt>
      <trkpt lat="47.23811" lon="-2.27805">
        <ele>7</ele>
        <time>2021-05-23T11:53:34.983Z</time>
      </trkpt>
      <trkpt lat="47.2381" lon="-2.27804">
        <ele>6</ele>
        <time>2021-05-23T11:53:35.983Z</time>
      </trkpt>
      <trkpt lat="47.2381" lon="-2.27803">
        <ele>6</ele>
        <time>2021-05-23T11:53:36.983Z</time>
      </trkpt>
      <trkpt lat="47.23809" lon="-2.27803">
        <ele>5</ele>
        <time>2021-05-23T11:53:37.983Z</time>
      </trkpt>
      <trkpt lat="47.23809" lon="-2.27804">
        <ele>5</ele>
        <time>2021-05-23T11:53:38.983Z</time>
      </trkpt>
      <trkpt lat="47.23808" lon="-2.27804">
        <ele>4</ele>
        <time>2021-05-23T11:53:39.982Z</time>
      </trkpt>
      <trkpt lat="47.23808" lon="-2.27804">
        <ele>4</ele>
        <time>2021-05-23T11:53:40.983Z</time>
      </trkpt>
      <trkpt lat="47.23807" lon="-2.27803">
        <ele>4</ele>
        <time>2021-05-23T11:53:41.982Z</time>
      </trkpt>
      <trkpt lat="47.23806" lon="-2.27801">
        <ele>3</ele>
        <time>2021-05-23T11:53:42.983Z</time>
      </trkpt>
      <trkpt lat="47.23806" lon="-2.278">
        <ele>3</ele>
        <time>2021-05-23T11:53:43.983Z</time>
      </trkpt>
      <trkpt lat="47.23805" lon="-2.27798">
        <ele>3</ele>
        <time>2021-05-23T11:53:44.982Z</time>
      </trkpt>
      <trkpt lat="47.23804" lon="-2.27798">
        <ele>3</ele>
        <time>2021-05-23T11:53:45.983Z</time>
      </trkpt>
      <trkpt lat="47.23803" lon="-2.27798">
        <ele>3</ele>
        <time>2021-05-23T11:53:46.983Z</time>
      </trkpt>
      <trkpt lat="47.23802" lon="-2.27797">
        <ele>3</ele>
        <time>2021-05-23T11:53:47.982Z</time>
      </trkpt>
      <trkpt lat="47.23801" lon="-2.27795">
        <ele>3</ele>
        <time>2021-05-23T11:53:48.982Z</time>
      </trkpt>
      <trkpt lat="47.23801" lon="-2.27794">
        <ele>3</ele>
        <time>2021-05-23T11:53:49.982Z</time>
      </trkpt>
      <trkpt lat="47.23801" lon="-2.27794">
        <ele>3</ele>
        <time>2021-05-23T11:53:50.983Z</time>
      </trkpt>
      <trkpt lat="47.238" lon="-2.27794">
        <ele>3</ele>
        <time>2021-05-23T11:53:51.982Z</time>
      </trkpt>
      <trkpt lat="47.23799" lon="-2.27794">
        <ele>3</ele>
        <time>2021-05-23T11:53:52.983Z</time>
      </trkpt>
      <trkpt lat="47.23798" lon="-2.27795">
        <ele>3</ele>
        <time>2021-05-23T11:53:53.983Z</time>
      </trkpt>
      <trkpt lat="47.23798" lon="-2.27795">
        <ele>2</ele>
        <time>2021-05-23T11:53:54.983Z</time>
      </trkpt>
      <trkpt lat="47.23797" lon="-2.27795">
        <ele>2</ele>
        <time>2021-05-23T11:53:55.983Z</time>
      </trkpt>
      <trkpt lat="47.23796" lon="-2.27795">
        <ele>2</ele>
        <time>2021-05-23T11:53:56.983Z</time>
      </trkpt>
      <trkpt lat="47.23795" lon="-2.27797">
        <ele>2</ele>
        <time>2021-05-23T11:53:57.982Z</time>
      </trkpt>
      <trkpt lat="47.23795" lon="-2.27798">
        <ele>1</ele>
        <time>2021-05-23T11:53:58.983Z</time>
      </trkpt>
      <trkpt lat="47.23795" lon="-2.27798">
        <ele>1</ele>
        <time>2021-05-23T11:53:59.982Z</time>
      </trkpt>
      <trkpt lat="47.23795" lon="-2.27798">
        <ele>2</ele>
        <time>2021-05-23T11:54:00.983Z</time>
      </trkpt>
      <trkpt lat="47.23795" lon="-2.27798">
        <ele>2</ele>
        <time>2021-05-23T11:54:01.982Z</time>
      </trkpt>
      <trkpt lat="47.23795" lon="-2.27798">
        <ele>2</ele>
        <time>2021-05-23T11:54:02.983Z</time>
      </trkpt>
      <trkpt lat="47.23794" lon="-2.27798">
        <ele>2</ele>
        <time>2021-05-23T11:54:03.983Z</time>
      </trkpt>
      <trkpt lat="47.23794" lon="-2.27798">
        <ele>2</ele>
        <time>2021-05-23T11:54:04.982Z</time>
      </trkpt>
      <trkpt lat="47.23794" lon="-2.27799">
        <ele>2</ele>
        <time>2021-05-23T11:54:05.982Z</time>
      </trkpt>
      <trkpt lat="47.23793" lon="-2.27799">
        <ele>2</ele>
        <time>2021-05-23T11:54:06.983Z</time>
      </trkpt>
      <trkpt lat="47.23793" lon="-2.27799">
        <ele>2</ele>
        <time>2021-05-23T11:54:07.983Z</time>
      </trkpt>
      <trkpt lat="47.23792" lon="-2.27799">
        <ele>2</ele>
        <time>2021-05-23T11:54:08.983Z</time>
      </trkpt>
      <trkpt lat="47.23792" lon="-2.27799">
        <ele>2</ele>
        <time>2021-05-23T11:54:09.983Z</time>
      </trkpt>
      <trkpt lat="47.23792" lon="-2.27798">
        <ele>1</ele>
        <time>2021-05-23T11:54:10.983Z</time>
      </trkpt>
      <trkpt lat="47.23792" lon="-2.27797">
        <ele>1</ele>
        <time>2021-05-23T11:54:11.983Z</time>
      </trkpt>
      <trkpt lat="47.23792" lon="-2.27796">
        <ele>1</ele>
        <time>2021-05-23T11:54:12.982Z</time>
      </trkpt>
      <trkpt lat="47.23792" lon="-2.27795">
        <ele>1</ele>
        <time>2021-05-23T11:54:13.983Z</time>
      </trkpt>
      <trkpt lat="47.23792" lon="-2.27794">
        <ele>1</ele>
        <time>2021-05-23T11:54:14.983Z</time>
      </trkpt>
      <trkpt lat="47.23792" lon="-2.27792">
        <ele>1</ele>
        <time>2021-05-23T11:54:15.982Z</time>
      </trkpt>
      <trkpt lat="47.23792" lon="-2.27791">
        <ele>1</ele>
        <time>2021-05-23T11:54:16.983Z</time>
      </trkpt>
      <trkpt lat="47.23793" lon="-2.2779">
        <ele>1</ele>
        <time>2021-05-23T11:54:17.983Z</time>
      </trkpt>
      <trkpt lat="47.23793" lon="-2.2779">
        <ele>1</ele>
        <time>2021-05-23T11:54:18.982Z</time>
      </trkpt>
      <trkpt lat="47.23793" lon="-2.27789">
        <ele>1</ele>
        <time>2021-05-23T11:54:19.982Z</time>
      </trkpt>
      <trkpt lat="47.23792" lon="-2.27789">
        <ele>1</ele>
        <time>2021-05-23T11:54:20.983Z</time>
      </trkpt>
      <trkpt lat="47.23791" lon="-2.27789">
        <ele>1</ele>
        <time>2021-05-23T11:54:21.983Z</time>
      </trkpt>
      <trkpt lat="47.2379" lon="-2.27788">
        <ele>2</ele>
        <time>2021-05-23T11:54:22.982Z</time>
      </trkpt>
      <trkpt lat="47.23789" lon="-2.27788">
        <ele>2</ele>
        <time>2021-05-23T11:54:23.982Z</time>
      </trkpt>
      <trkpt lat="47.23788" lon="-2.27787">
        <ele>3</ele>
        <time>2021-05-23T11:54:24.982Z</time>
      </trkpt>
      <trkpt lat="47.23788" lon="-2.27787">
        <ele>4</ele>
        <time>2021-05-23T11:54:25.982Z</time>
      </trkpt>
      <trkpt lat="47.23787" lon="-2.27786">
        <ele>5</ele>
        <time>2021-05-23T11:54:26.982Z</time>
      </trkpt>
      <trkpt lat="47.23786" lon="-2.27784">
        <ele>6</ele>
        <time>2021-05-23T11:54:27.982Z</time>
      </trkpt>
      <trkpt lat="47.23785" lon="-2.27784">
        <ele>7</ele>
        <time>2021-05-23T11:54:28.983Z</time>
      </trkpt>
      <trkpt lat="47.23784" lon="-2.27783">
        <ele>8</ele>
        <time>2021-05-23T11:54:29.982Z</time>
      </trkpt>
      <trkpt lat="47.23784" lon="-2.27781">
        <ele>8</ele>
        <time>2021-05-23T11:54:30.983Z</time>
      </trkpt>
      <trkpt lat="47.23783" lon="-2.2778">
        <ele>9</ele>
        <time>2021-05-23T11:54:31.983Z</time>
      </trkpt>
      <trkpt lat="47.23783" lon="-2.27777">
        <ele>10</ele>
        <time>2021-05-23T11:54:32.983Z</time>
      </trkpt>
      <trkpt lat="47.23783" lon="-2.27775">
        <ele>11</ele>
        <time>2021-05-23T11:54:33.982Z</time>
      </trkpt>
      <trkpt lat="47.23783" lon="-2.27773">
        <ele>11</ele>
        <time>2021-05-23T11:54:34.983Z</time>
      </trkpt>
      <trkpt lat="47.23782" lon="-2.27772">
        <ele>12</ele>
        <time>2021-05-23T11:54:35.983Z</time>
      </trkpt>
      <trkpt lat="47.23782" lon="-2.2777">
        <ele>12</ele>
        <time>2021-05-23T11:54:36.982Z</time>
      </trkpt>
      <trkpt lat="47.23782" lon="-2.27769">
        <ele>11</ele>
        <time>2021-05-23T11:54:37.983Z</time>
      </trkpt>
      <trkpt lat="47.23782" lon="-2.27768">
        <ele>11</ele>
        <time>2021-05-23T11:54:38.983Z</time>
      </trkpt>
      <trkpt lat="47.23782" lon="-2.27767">
        <ele>10</ele>
        <time>2021-05-23T11:54:39.982Z</time>
      </trkpt>
      <trkpt lat="47.23782" lon="-2.27766">
        <ele>10</ele>
        <time>2021-05-23T11:54:40.982Z</time>
      </trkpt>
      <trkpt lat="47.23782" lon="-2.27765">
        <ele>10</ele>
        <time>2021-05-23T11:54:41.983Z</time>
      </trkpt>
      <trkpt lat="47.23783" lon="-2.27763">
        <ele>10</ele>
        <time>2021-05-23T11:54:42.982Z</time>
      </trkpt>
      <trkpt lat="47.23783" lon="-2.27762">
        <ele>10</ele>
        <time>2021-05-23T11:54:43.983Z</time>
      </trkpt>
      <trkpt lat="47.23784" lon="-2.2776">
        <ele>11</ele>
        <time>2021-05-23T11:54:44.982Z</time>
      </trkpt>
      <trkpt lat="47.23784" lon="-2.27758">
        <ele>11</ele>
        <time>2021-05-23T11:54:45.983Z</time>
      </trkpt>
      <trkpt lat="47.23784" lon="-2.27756">
        <ele>11</ele>
        <time>2021-05-23T11:54:46.983Z</time>
      </trkpt>
      <trkpt lat="47.23783" lon="-2.27755">
        <ele>12</ele>
        <time>2021-05-23T11:54:47.983Z</time>
      </trkpt>
      <trkpt lat="47.23784" lon="-2.27753">
        <ele>12</ele>
        <time>2021-05-23T11:54:48.983Z</time>
      </trkpt>
      <trkpt lat="47.23784" lon="-2.27751">
        <ele>13</ele>
        <time>2021-05-23T11:54:49.983Z</time>
      </trkpt>
      <trkpt lat="47.23784" lon="-2.27749">
        <ele>13</ele>
        <time>2021-05-23T11:54:50.982Z</time>
      </trkpt>
      <trkpt lat="47.23783" lon="-2.27747">
        <ele>14</ele>
        <time>2021-05-23T11:54:51.983Z</time>
      </trkpt>
      <trkpt lat="47.23783" lon="-2.27746">
        <ele>14</ele>
        <time>2021-05-23T11:54:52.983Z</time>
      </trkpt>
      <trkpt lat="47.23783" lon="-2.27744">
        <ele>14</ele>
        <time>2021-05-23T11:54:53.983Z</time>
      </trkpt>
      <trkpt lat="47.23782" lon="-2.27742">
        <ele>14</ele>
        <time>2021-05-23T11:54:54.983Z</time>
      </trkpt>
      <trkpt lat="47.23781" lon="-2.2774">
        <ele>15</ele>
        <time>2021-05-23T11:54:55.983Z</time>
      </trkpt>
      <trkpt lat="47.23781" lon="-2.27738">
        <ele>15</ele>
        <time>2021-05-23T11:54:56.982Z</time>
      </trkpt>
      <trkpt lat="47.2378" lon="-2.27736">
        <ele>15</ele>
        <time>2021-05-23T11:54:57.983Z</time>
      </trkpt>
      <trkpt lat="47.2378" lon="-2.27734">
        <ele>15</ele>
        <time>2021-05-23T11:54:58.982Z</time>
      </trkpt>
      <trkpt lat="47.2378" lon="-2.27731">
        <ele>15</ele>
        <time>2021-05-23T11:54:59.983Z</time>
      </trkpt>
      <trkpt lat="47.2378" lon="-2.27728">
        <ele>15</ele>
        <time>2021-05-23T11:55:00.983Z</time>
      </trkpt>
      <trkpt lat="47.23779" lon="-2.27726">
        <ele>16</ele>
        <time>2021-05-23T11:55:01.983Z</time>
      </trkpt>
      <trkpt lat="47.23779" lon="-2.27724">
        <ele>15</ele>
        <time>2021-05-23T11:55:02.982Z</time>
      </trkpt>
      <trkpt lat="47.23779" lon="-2.27721">
        <ele>15</ele>
        <time>2021-05-23T11:55:03.982Z</time>
      </trkpt>
      <trkpt lat="47.23779" lon="-2.27719">
        <ele>14</ele>
        <time>2021-05-23T11:55:04.982Z</time>
      </trkpt>
      <trkpt lat="47.2378" lon="-2.27716">
        <ele>14</ele>
        <time>2021-05-23T11:55:05.983Z</time>
      </trkpt>
      <trkpt lat="47.2378" lon="-2.27714">
        <ele>13</ele>
        <time>2021-05-23T11:55:06.983Z</time>
      </trkpt>
      <trkpt lat="47.23781" lon="-2.27712">
        <ele>13</ele>
        <time>2021-05-23T11:55:07.982Z</time>
      </trkpt>
      <trkpt lat="47.23781" lon="-2.2771">
        <ele>13</ele>
        <time>2021-05-23T11:55:08.982Z</time>
      </trkpt>
      <trkpt lat="47.23782" lon="-2.27708">
        <ele>13</ele>
        <time>2021-05-23T11:55:09.982Z</time>
      </trkpt>
      <trkpt lat="47.23782" lon="-2.27706">
        <ele>13</ele>
        <time>2021-05-23T11:55:10.983Z</time>
      </trkpt>
      <trkpt lat="47.23783" lon="-2.27704">
        <ele>13</ele>
        <time>2021-05-23T11:55:11.983Z</time>
      </trkpt>
      <trkpt lat="47.23783" lon="-2.27702">
        <ele>13</ele>
        <time>2021-05-23T11:55:12.982Z</time>
      </trkpt>
      <trkpt lat="47.23784" lon="-2.27701">
        <ele>13</ele>
        <time>2021-05-23T11:55:13.983Z</time>
      </trkpt>
      <trkpt lat="47.23784" lon="-2.27699">
        <ele>14</ele>
        <time>2021-05-23T11:55:14.983Z</time>
      </trkpt>
      <trkpt lat="47.23785" lon="-2.27697">
        <ele>14</ele>
        <time>2021-05-23T11:55:15.982Z</time>
      </trkpt>
      <trkpt lat="47.23786" lon="-2.27695">
        <ele>14</ele>
        <time>2021-05-23T11:55:16.983Z</time>
      </trkpt>
      <trkpt lat="47.23786" lon="-2.27692">
        <ele>14</ele>
        <time>2021-05-23T11:55:17.982Z</time>
      </trkpt>
      <trkpt lat="47.23786" lon="-2.2769">
        <ele>14</ele>
        <time>2021-05-23T11:55:18.983Z</time>
      </trkpt>
      <trkpt lat="47.23787" lon="-2.27688">
        <ele>14</ele>
        <time>2021-05-23T11:55:19.983Z</time>
      </trkpt>
      <trkpt lat="47.23788" lon="-2.27686">
        <ele>14</ele>
        <time>2021-05-23T11:55:20.982Z</time>
      </trkpt>
      <trkpt lat="47.23789" lon="-2.27683">
        <ele>14</ele>
        <time>2021-05-23T11:55:21.982Z</time>
      </trkpt>
      <trkpt lat="47.23791" lon="-2.2768">
        <ele>14</ele>
        <time>2021-05-23T11:55:22.982Z</time>
      </trkpt>
      <trkpt lat="47.23791" lon="-2.27677">
        <ele>15</ele>
        <time>2021-05-23T11:55:23.983Z</time>
      </trkpt>
      <trkpt lat="47.23793" lon="-2.27675">
        <ele>15</ele>
        <time>2021-05-23T11:55:24.982Z</time>
      </trkpt>
      <trkpt lat="47.23794" lon="-2.27672">
        <ele>16</ele>
        <time>2021-05-23T11:55:25.982Z</time>
      </trkpt>
      <trkpt lat="47.23796" lon="-2.2767">
        <ele>16</ele>
        <time>2021-05-23T11:55:26.983Z</time>
      </trkpt>
      <trkpt lat="47.23797" lon="-2.27668">
        <ele>16</ele>
        <time>2021-05-23T11:55:27.983Z</time>
      </trkpt>
      <trkpt lat="47.23799" lon="-2.27666">
        <ele>16</ele>
        <time>2021-05-23T11:55:28.983Z</time>
      </trkpt>
      <trkpt lat="47.238" lon="-2.27665">
        <ele>16</ele>
        <time>2021-05-23T11:55:29.983Z</time>
      </trkpt>
      <trkpt lat="47.23802" lon="-2.27663">
        <ele>16</ele>
        <time>2021-05-23T11:55:30.982Z</time>
      </trkpt>
      <trkpt lat="47.23803" lon="-2.27662">
        <ele>16</ele>
        <time>2021-05-23T11:55:31.983Z</time>
      </trkpt>
      <trkpt lat="47.23805" lon="-2.27661">
        <ele>16</ele>
        <time>2021-05-23T11:55:32.983Z</time>
      </trkpt>
      <trkpt lat="47.23806" lon="-2.2766">
        <ele>16</ele>
        <time>2021-05-23T11:55:33.983Z</time>
      </trkpt>
      <trkpt lat="47.23808" lon="-2.27659">
        <ele>15</ele>
        <time>2021-05-23T11:55:34.983Z</time>
      </trkpt>
      <trkpt lat="47.23809" lon="-2.27659">
        <ele>15</ele>
        <time>2021-05-23T11:55:35.982Z</time>
      </trkpt>
      <trkpt lat="47.2381" lon="-2.27659">
        <ele>15</ele>
        <time>2021-05-23T11:55:36.983Z</time>
      </trkpt>
      <trkpt lat="47.23812" lon="-2.27658">
        <ele>16</ele>
        <time>2021-05-23T11:55:37.982Z</time>
      </trkpt>
      <trkpt lat="47.23814" lon="-2.27657">
        <ele>16</ele>
        <time>2021-05-23T11:55:38.982Z</time>
      </trkpt>
      <trkpt lat="47.23816" lon="-2.27656">
        <ele>16</ele>
        <time>2021-05-23T11:55:39.983Z</time>
      </trkpt>
      <trkpt lat="47.23818" lon="-2.27656">
        <ele>16</ele>
        <time>2021-05-23T11:55:40.982Z</time>
      </trkpt>
      <trkpt lat="47.2382" lon="-2.27656">
        <ele>16</ele>
        <time>2021-05-23T11:55:41.982Z</time>
      </trkpt>
      <trkpt lat="47.23821" lon="-2.27655">
        <ele>16</ele>
        <time>2021-05-23T11:55:42.983Z</time>
      </trkpt>
      <trkpt lat="47.23823" lon="-2.27655">
        <ele>17</ele>
        <time>2021-05-23T11:55:43.983Z</time>
      </trkpt>
      <trkpt lat="47.23825" lon="-2.27654">
        <ele>17</ele>
        <time>2021-05-23T11:55:44.982Z</time>
      </trkpt>
      <trkpt lat="47.23827" lon="-2.27654">
        <ele>17</ele>
        <time>2021-05-23T11:55:45.983Z</time>
      </trkpt>
      <trkpt lat="47.23829" lon="-2.27654">
        <ele>18</ele>
        <time>2021-05-23T11:55:46.983Z</time>
      </trkpt>
      <trkpt lat="47.23831" lon="-2.27652">
        <ele>18</ele>
        <time>2021-05-23T11:55:47.982Z</time>
      </trkpt>
      <trkpt lat="47.23833" lon="-2.27652">
        <ele>18</ele>
        <time>2021-05-23T11:55:48.982Z</time>
      </trkpt>
      <trkpt lat="47.23835" lon="-2.27651">
        <ele>18</ele>
        <time>2021-05-23T11:55:49.983Z</time>
      </trkpt>
      <trkpt lat="47.23837" lon="-2.27651">
        <ele>18</ele>
        <time>2021-05-23T11:55:50.983Z</time>
      </trkpt>
      <trkpt lat="47.23839" lon="-2.2765">
        <ele>19</ele>
        <time>2021-05-23T11:55:51.983Z</time>
      </trkpt>
      <trkpt lat="47.23841" lon="-2.2765">
        <ele>19</ele>
        <time>2021-05-23T11:55:52.982Z</time>
      </trkpt>
      <trkpt lat="47.23843" lon="-2.27649">
        <ele>20</ele>
        <time>2021-05-23T11:55:53.982Z</time>
      </trkpt>
      <trkpt lat="47.23845" lon="-2.27648">
        <ele>20</ele>
        <time>2021-05-23T11:55:54.982Z</time>
      </trkpt>
      <trkpt lat="47.23847" lon="-2.27647">
        <ele>20</ele>
        <time>2021-05-23T11:55:55.982Z</time>
      </trkpt>
      <trkpt lat="47.23849" lon="-2.27647">
        <ele>20</ele>
        <time>2021-05-23T11:55:56.983Z</time>
      </trkpt>
      <trkpt lat="47.23851" lon="-2.27646">
        <ele>20</ele>
        <time>2021-05-23T11:55:57.982Z</time>
      </trkpt>
      <trkpt lat="47.23853" lon="-2.27644">
        <ele>20</ele>
        <time>2021-05-23T11:55:58.982Z</time>
      </trkpt>
      <trkpt lat="47.23855" lon="-2.27643">
        <ele>19</ele>
        <time>2021-05-23T11:55:59.983Z</time>
      </trkpt>
      <trkpt lat="47.23857" lon="-2.27642">
        <ele>18</ele>
        <time>2021-05-23T11:56:00.982Z</time>
      </trkpt>
      <trkpt lat="47.23859" lon="-2.27641">
        <ele>18</ele>
        <time>2021-05-23T11:56:01.983Z</time>
      </trkpt>
      <trkpt lat="47.23861" lon="-2.2764">
        <ele>17</ele>
        <time>2021-05-23T11:56:02.983Z</time>
      </trkpt>
      <trkpt lat="47.23863" lon="-2.2764">
        <ele>17</ele>
        <time>2021-05-23T11:56:03.983Z</time>
      </trkpt>
      <trkpt lat="47.23865" lon="-2.2764">
        <ele>17</ele>
        <time>2021-05-23T11:56:04.983Z</time>
      </trkpt>
      <trkpt lat="47.23866" lon="-2.2764">
        <ele>17</ele>
        <time>2021-05-23T11:56:05.983Z</time>
      </trkpt>
      <trkpt lat="47.23868" lon="-2.2764">
        <ele>17</ele>
        <time>2021-05-23T11:56:06.983Z</time>
      </trkpt>
      <trkpt lat="47.2387" lon="-2.2764">
        <ele>17</ele>
        <time>2021-05-23T11:56:07.983Z</time>
      </trkpt>
      <trkpt lat="47.23872" lon="-2.27639">
        <ele>17</ele>
        <time>2021-05-23T11:56:08.982Z</time>
      </trkpt>
      <trkpt lat="47.23873" lon="-2.27638">
        <ele>17</ele>
        <time>2021-05-23T11:56:09.982Z</time>
      </trkpt>
      <trkpt lat="47.23874" lon="-2.27636">
        <ele>17</ele>
        <time>2021-05-23T11:56:10.983Z</time>
      </trkpt>
      <trkpt lat="47.23874" lon="-2.27633">
        <ele>17</ele>
        <time>2021-05-23T11:56:11.982Z</time>
      </trkpt>
      <trkpt lat="47.23874" lon="-2.2763">
        <ele>17</ele>
        <time>2021-05-23T11:56:12.983Z</time>
      </trkpt>
      <trkpt lat="47.23873" lon="-2.27627">
        <ele>17</ele>
        <time>2021-05-23T11:56:13.982Z</time>
      </trkpt>
      <trkpt lat="47.23873" lon="-2.27624">
        <ele>17</ele>
        <time>2021-05-23T11:56:14.982Z</time>
      </trkpt>
      <trkpt lat="47.23873" lon="-2.27621">
        <ele>17</ele>
        <time>2021-05-23T11:56:15.983Z</time>
      </trkpt>
      <trkpt lat="47.23873" lon="-2.27618">
        <ele>17</ele>
        <time>2021-05-23T11:56:16.982Z</time>
      </trkpt>
      <trkpt lat="47.23873" lon="-2.27615">
        <ele>17</ele>
        <time>2021-05-23T11:56:17.983Z</time>
      </trkpt>
      <trkpt lat="47.23872" lon="-2.27612">
        <ele>17</ele>
        <time>2021-05-23T11:56:18.983Z</time>
      </trkpt>
      <trkpt lat="47.23871" lon="-2.27611">
        <ele>18</ele>
        <time>2021-05-23T11:56:19.982Z</time>
      </trkpt>
      <trkpt lat="47.2387" lon="-2.2761">
        <ele>18</ele>
        <time>2021-05-23T11:56:20.982Z</time>
      </trkpt>
      <trkpt lat="47.23868" lon="-2.2761">
        <ele>17</ele>
        <time>2021-05-23T11:56:21.983Z</time>
      </trkpt>
      <trkpt lat="47.23866" lon="-2.27611">
        <ele>17</ele>
        <time>2021-05-23T11:56:22.982Z</time>
      </trkpt>
      <trkpt lat="47.23864" lon="-2.27611">
        <ele>17</ele>
        <time>2021-05-23T11:56:23.982Z</time>
      </trkpt>
      <trkpt lat="47.23863" lon="-2.27612">
        <ele>17</ele>
        <time>2021-05-23T11:56:24.982Z</time>
      </trkpt>
      <trkpt lat="47.23861" lon="-2.27612">
        <ele>17</ele>
        <time>2021-05-23T11:56:25.983Z</time>
      </trkpt>
      <trkpt lat="47.23859" lon="-2.27612">
        <ele>17</ele>
        <time>2021-05-23T11:56:26.982Z</time>
      </trkpt>
      <trkpt lat="47.23858" lon="-2.27611">
        <ele>17</ele>
        <time>2021-05-23T11:56:27.982Z</time>
      </trkpt>
      <trkpt lat="47.23858" lon="-2.2761">
        <ele>17</ele>
        <time>2021-05-23T11:56:28.983Z</time>
      </trkpt>
      <trkpt lat="47.23858" lon="-2.27609">
        <ele>17</ele>
        <time>2021-05-23T11:56:29.983Z</time>
      </trkpt>
      <trkpt lat="47.23858" lon="-2.27609">
        <ele>18</ele>
        <time>2021-05-23T11:56:30.983Z</time>
      </trkpt>
      <trkpt lat="47.23858" lon="-2.27608">
        <ele>18</ele>
        <time>2021-05-23T11:56:31.982Z</time>
      </trkpt>
      <trkpt lat="47.23858" lon="-2.27608">
        <ele>18</ele>
        <time>2021-05-23T11:56:32.983Z</time>
      </trkpt>
      <trkpt lat="47.23859" lon="-2.27608">
        <ele>17</ele>
        <time>2021-05-23T11:56:33.982Z</time>
      </trkpt>
      <trkpt lat="47.23859" lon="-2.27608">
        <ele>17</ele>
        <time>2021-05-23T11:56:34.982Z</time>
      </trkpt>
      <trkpt lat="47.23859" lon="-2.27607">
        <ele>16</ele>
        <time>2021-05-23T11:56:35.982Z</time>
      </trkpt>
      <trkpt lat="47.2386" lon="-2.27608">
        <ele>16</ele>
        <time>2021-05-23T11:56:36.982Z</time>
      </trkpt>
      <trkpt lat="47.23861" lon="-2.27608">
        <ele>15</ele>
        <time>2021-05-23T11:56:37.982Z</time>
      </trkpt>
      <trkpt lat="47.23862" lon="-2.27607">
        <ele>15</ele>
        <time>2021-05-23T11:56:38.982Z</time>
      </trkpt>
      <trkpt lat="47.23863" lon="-2.27606">
        <ele>15</ele>
        <time>2021-05-23T11:56:39.982Z</time>
      </trkpt>
      <trkpt lat="47.23864" lon="-2.27605">
        <ele>15</ele>
        <time>2021-05-23T11:56:40.982Z</time>
      </trkpt>
      <trkpt lat="47.23865" lon="-2.27604">
        <ele>14</ele>
        <time>2021-05-23T11:56:41.982Z</time>
      </trkpt>
      <trkpt lat="47.23866" lon="-2.27602">
        <ele>14</ele>
        <time>2021-05-23T11:56:42.982Z</time>
      </trkpt>
      <trkpt lat="47.23866" lon="-2.27599">
        <ele>14</ele>
        <time>2021-05-23T11:56:43.982Z</time>
      </trkpt>
      <trkpt lat="47.23866" lon="-2.27598">
        <ele>14</ele>
        <time>2021-05-23T11:56:44.982Z</time>
      </trkpt>
      <trkpt lat="47.23867" lon="-2.27598">
        <ele>14</ele>
        <time>2021-05-23T11:56:45.982Z</time>
      </trkpt>
      <trkpt lat="47.23868" lon="-2.27597">
        <ele>14</ele>
        <time>2021-05-23T11:56:46.982Z</time>
      </trkpt>
      <trkpt lat="47.23869" lon="-2.27597">
        <ele>14</ele>
        <time>2021-05-23T11:56:47.983Z</time>
      </trkpt>
      <trkpt lat="47.23869" lon="-2.27596">
        <ele>14</ele>
        <time>2021-05-23T11:56:48.983Z</time>
      </trkpt>
      <trkpt lat="47.2387" lon="-2.27595">
        <ele>14</ele>
        <time>2021-05-23T11:56:49.983Z</time>
      </trkpt>
      <trkpt lat="47.2387" lon="-2.27595">
        <ele>14</ele>
        <time>2021-05-23T11:56:50.983Z</time>
      </trkpt>
      <trkpt lat="47.2387" lon="-2.27594">
        <ele>14</ele>
        <time>2021-05-23T11:56:51.982Z</time>
      </trkpt>
      <trkpt lat="47.23871" lon="-2.27593">
        <ele>13</ele>
        <time>2021-05-23T11:56:52.982Z</time>
      </trkpt>
      <trkpt lat="47.23871" lon="-2.27592">
        <ele>13</ele>
        <time>2021-05-23T11:56:53.983Z</time>
      </trkpt>
      <trkpt lat="47.23872" lon="-2.27591">
        <ele>13</ele>
        <time>2021-05-23T11:56:54.983Z</time>
      </trkpt>
      <trkpt lat="47.23872" lon="-2.27591">
        <ele>13</ele>
        <time>2021-05-23T11:56:55.982Z</time>
      </trkpt>
      <trkpt lat="47.23873" lon="-2.2759">
        <ele>12</ele>
        <time>2021-05-23T11:56:56.983Z</time>
      </trkpt>
      <trkpt lat="47.23874" lon="-2.2759">
        <ele>12</ele>
        <time>2021-05-23T11:56:57.982Z</time>
      </trkpt>
      <trkpt lat="47.23876" lon="-2.2759">
        <ele>11</ele>
        <time>2021-05-23T11:56:58.983Z</time>
      </trkpt>
      <trkpt lat="47.23877" lon="-2.2759">
        <ele>11</ele>
        <time>2021-05-23T11:56:59.983Z</time>
      </trkpt>
      <trkpt lat="47.23877" lon="-2.2759">
        <ele>10</ele>
        <time>2021-05-23T11:57:00.983Z</time>
      </trkpt>
      <trkpt lat="47.23878" lon="-2.2759">
        <ele>10</ele>
        <time>2021-05-23T11:57:01.983Z</time>
      </trkpt>
      <trkpt lat="47.23878" lon="-2.27589">
        <ele>10</ele>
        <time>2021-05-23T11:57:02.983Z</time>
      </trkpt>
      <trkpt lat="47.23879" lon="-2.27588">
        <ele>9</ele>
        <time>2021-05-23T11:57:03.983Z</time>
      </trkpt>
      <trkpt lat="47.23879" lon="-2.27586">
        <ele>9</ele>
        <time>2021-05-23T11:57:04.983Z</time>
      </trkpt>
      <trkpt lat="47.23879" lon="-2.27585">
        <ele>8</ele>
        <time>2021-05-23T11:57:05.982Z</time>
      </trkpt>
      <trkpt lat="47.2388" lon="-2.27583">
        <ele>8</ele>
        <time>2021-05-23T11:57:06.983Z</time>
      </trkpt>
      <trkpt lat="47.23881" lon="-2.27581">
        <ele>7</ele>
        <time>2021-05-23T11:57:07.982Z</time>
      </trkpt>
      <trkpt lat="47.23882" lon="-2.2758">
        <ele>7</ele>
        <time>2021-05-23T11:57:08.983Z</time>
      </trkpt>
      <trkpt lat="47.23883" lon="-2.27579">
        <ele>6</ele>
        <time>2021-05-23T11:57:09.983Z</time>
      </trkpt>
      <trkpt lat="47.23884" lon="-2.27578">
        <ele>5</ele>
        <time>2021-05-23T11:57:10.983Z</time>
      </trkpt>
      <trkpt lat="47.23885" lon="-2.27577">
        <ele>4</ele>
        <time>2021-05-23T11:57:11.983Z</time>
      </trkpt>
      <trkpt lat="47.23886" lon="-2.27576">
        <ele>4</ele>
        <time>2021-05-23T11:57:12.982Z</time>
      </trkpt>
      <trkpt lat="47.23888" lon="-2.27575">
        <ele>3</ele>
        <time>2021-05-23T11:57:13.982Z</time>
      </trkpt>
      <trkpt lat="47.23889" lon="-2.27574">
        <ele>3</ele>
        <time>2021-05-23T11:57:14.983Z</time>
      </trkpt>
      <trkpt lat="47.23891" lon="-2.27573">
        <ele>3</ele>
        <time>2021-05-23T11:57:15.982Z</time>
      </trkpt>
      <trkpt lat="47.23893" lon="-2.27572">
        <ele>3</ele>
        <time>2021-05-23T11:57:16.982Z</time>
      </trkpt>
      <trkpt lat="47.23894" lon="-2.27571">
        <ele>3</ele>
        <time>2021-05-23T11:57:17.982Z</time>
      </trkpt>
      <trkpt lat="47.23896" lon="-2.27569">
        <ele>3</ele>
        <time>2021-05-23T11:57:18.982Z</time>
      </trkpt>
      <trkpt lat="47.23897" lon="-2.27567">
        <ele>3</ele>
        <time>2021-05-23T11:57:19.983Z</time>
      </trkpt>
      <trkpt lat="47.23899" lon="-2.27565">
        <ele>3</ele>
        <time>2021-05-23T11:57:20.983Z</time>
      </trkpt>
      <trkpt lat="47.23901" lon="-2.27562">
        <ele>3</ele>
        <time>2021-05-23T11:57:21.983Z</time>
      </trkpt>
      <trkpt lat="47.23903" lon="-2.2756">
        <ele>3</ele>
        <time>2021-05-23T11:57:22.983Z</time>
      </trkpt>
      <trkpt lat="47.23904" lon="-2.27558">
        <ele>3</ele>
        <time>2021-05-23T11:57:23.983Z</time>
      </trkpt>
      <trkpt lat="47.23906" lon="-2.27556">
        <ele>3</ele>
        <time>2021-05-23T11:57:24.982Z</time>
      </trkpt>
      <trkpt lat="47.23908" lon="-2.27555">
        <ele>3</ele>
        <time>2021-05-23T11:57:25.983Z</time>
      </trkpt>
      <trkpt lat="47.2391" lon="-2.27553">
        <ele>3</ele>
        <time>2021-05-23T11:57:26.982Z</time>
      </trkpt>
      <trkpt lat="47.23912" lon="-2.27552">
        <ele>2</ele>
        <time>2021-05-23T11:57:27.982Z</time>
      </trkpt>
      <trkpt lat="47.23914" lon="-2.2755">
        <ele>2</ele>
        <time>2021-05-23T11:57:28.983Z</time>
      </trkpt>
      <trkpt lat="47.23916" lon="-2.27548">
        <ele>2</ele>
        <time>2021-05-23T11:57:29.983Z</time>
      </trkpt>
      <trkpt lat="47.23917" lon="-2.27547">
        <ele>1</ele>
        <time>2021-05-23T11:57:30.982Z</time>
      </trkpt>
      <trkpt lat="47.23919" lon="-2.27546">
        <ele>1</ele>
        <time>2021-05-23T11:57:31.982Z</time>
      </trkpt>
      <trkpt lat="47.23921" lon="-2.27545">
        <ele>1</ele>
        <time>2021-05-23T11:57:32.982Z</time>
      </trkpt>
      <trkpt lat="47.23923" lon="-2.27543">
        <ele>1</ele>
        <time>2021-05-23T11:57:33.982Z</time>
      </trkpt>
      <trkpt lat="47.23925" lon="-2.27542">
        <ele>1</ele>
        <time>2021-05-23T11:57:34.982Z</time>
      </trkpt>
      <trkpt lat="47.23927" lon="-2.27541">
        <ele>1</ele>
        <time>2021-05-23T11:57:35.983Z</time>
      </trkpt>
      <trkpt lat="47.23929" lon="-2.27539">
        <ele>1</ele>
        <time>2021-05-23T11:57:36.982Z</time>
      </trkpt>
      <trkpt lat="47.23931" lon="-2.27538">
        <ele>1</ele>
        <time>2021-05-23T11:57:37.982Z</time>
      </trkpt>
      <trkpt lat="47.23933" lon="-2.27536">
        <ele>1</ele>
        <time>2021-05-23T11:57:38.982Z</time>
      </trkpt>
      <trkpt lat="47.23935" lon="-2.27534">
        <ele>1</ele>
        <time>2021-05-23T11:57:39.983Z</time>
      </trkpt>
      <trkpt lat="47.23937" lon="-2.27531">
        <ele>1</ele>
        <time>2021-05-23T11:57:40.983Z</time>
      </trkpt>
      <trkpt lat="47.23939" lon="-2.27528">
        <ele>2</ele>
        <time>2021-05-23T11:57:41.982Z</time>
      </trkpt>
      <trkpt lat="47.2394" lon="-2.27525">
        <ele>2</ele>
        <time>2021-05-23T11:57:42.982Z</time>
      </trkpt>
      <trkpt lat="47.23942" lon="-2.27522">
        <ele>3</ele>
        <time>2021-05-23T11:57:43.983Z</time>
      </trkpt>
      <trkpt lat="47.23943" lon="-2.27519">
        <ele>3</ele>
        <time>2021-05-23T11:57:44.983Z</time>
      </trkpt>
      <trkpt lat="47.23944" lon="-2.27516">
        <ele>3</ele>
        <time>2021-05-23T11:57:45.983Z</time>
      </trkpt>
      <trkpt lat="47.23945" lon="-2.27513">
        <ele>4</ele>
        <time>2021-05-23T11:57:46.983Z</time>
      </trkpt>
      <trkpt lat="47.23947" lon="-2.2751">
        <ele>4</ele>
        <time>2021-05-23T11:57:47.983Z</time>
      </trkpt>
      <trkpt lat="47.23948" lon="-2.27506">
        <ele>5</ele>
        <time>2021-05-23T11:57:48.982Z</time>
      </trkpt>
      <trkpt lat="47.23949" lon="-2.27504">
        <ele>6</ele>
        <time>2021-05-23T11:57:49.982Z</time>
      </trkpt>
      <trkpt lat="47.2395" lon="-2.27501">
        <ele>6</ele>
        <time>2021-05-23T11:57:50.982Z</time>
      </trkpt>
      <trkpt lat="47.23951" lon="-2.27499">
        <ele>6</ele>
        <time>2021-05-23T11:57:51.982Z</time>
      </trkpt>
      <trkpt lat="47.23952" lon="-2.27497">
        <ele>6</ele>
        <time>2021-05-23T11:57:52.982Z</time>
      </trkpt>
      <trkpt lat="47.23953" lon="-2.27495">
        <ele>6</ele>
        <time>2021-05-23T11:57:53.982Z</time>
      </trkpt>
      <trkpt lat="47.23954" lon="-2.27494">
        <ele>6</ele>
        <time>2021-05-23T11:57:54.982Z</time>
      </trkpt>
      <trkpt lat="47.23955" lon="-2.27492">
        <ele>6</ele>
        <time>2021-05-23T11:57:55.982Z</time>
      </trkpt>
      <trkpt lat="47.23956" lon="-2.27491">
        <ele>6</ele>
        <time>2021-05-23T11:57:56.983Z</time>
      </trkpt>
      <trkpt lat="47.23956" lon="-2.27489">
        <ele>6</ele>
        <time>2021-05-23T11:57:57.982Z</time>
      </trkpt>
      <trkpt lat="47.23957" lon="-2.27486">
        <ele>7</ele>
        <time>2021-05-23T11:57:58.982Z</time>
      </trkpt>
      <trkpt lat="47.23958" lon="-2.27485">
        <ele>7</ele>
        <time>2021-05-23T11:57:59.982Z</time>
      </trkpt>
      <trkpt lat="47.23958" lon="-2.27483">
        <ele>7</ele>
        <time>2021-05-23T11:58:00.983Z</time>
      </trkpt>
      <trkpt lat="47.23959" lon="-2.27482">
        <ele>7</ele>
        <time>2021-05-23T11:58:01.983Z</time>
      </trkpt>
      <trkpt lat="47.2396" lon="-2.27481">
        <ele>6</ele>
        <time>2021-05-23T11:58:02.983Z</time>
      </trkpt>
      <trkpt lat="47.2396" lon="-2.2748">
        <ele>6</ele>
        <time>2021-05-23T11:58:03.983Z</time>
      </trkpt>
      <trkpt lat="47.23961" lon="-2.27479">
        <ele>5</ele>
        <time>2021-05-23T11:58:04.982Z</time>
      </trkpt>
      <trkpt lat="47.23961" lon="-2.27478">
        <ele>5</ele>
        <time>2021-05-23T11:58:05.983Z</time>
      </trkpt>
      <trkpt lat="47.23961" lon="-2.27477">
        <ele>5</ele>
        <time>2021-05-23T11:58:06.983Z</time>
      </trkpt>
      <trkpt lat="47.23962" lon="-2.27476">
        <ele>5</ele>
        <time>2021-05-23T11:58:07.982Z</time>
      </trkpt>
      <trkpt lat="47.23963" lon="-2.27475">
        <ele>5</ele>
        <time>2021-05-23T11:58:08.982Z</time>
      </trkpt>
      <trkpt lat="47.23963" lon="-2.27474">
        <ele>5</ele>
        <time>2021-05-23T11:58:09.983Z</time>
      </trkpt>
      <trkpt lat="47.23964" lon="-2.27473">
        <ele>5</ele>
        <time>2021-05-23T11:58:10.982Z</time>
      </trkpt>
      <trkpt lat="47.23964" lon="-2.27472">
        <ele>5</ele>
        <time>2021-05-23T11:58:11.983Z</time>
      </trkpt>
      <trkpt lat="47.23965" lon="-2.27471">
        <ele>5</ele>
        <time>2021-05-23T11:58:12.982Z</time>
      </trkpt>
      <trkpt lat="47.23966" lon="-2.2747">
        <ele>4</ele>
        <time>2021-05-23T11:58:13.983Z</time>
      </trkpt>
      <trkpt lat="47.23966" lon="-2.27469">
        <ele>4</ele>
        <time>2021-05-23T11:58:14.983Z</time>
      </trkpt>
      <trkpt lat="47.23967" lon="-2.27467">
        <ele>3</ele>
        <time>2021-05-23T11:58:15.982Z</time>
      </trkpt>
      <trkpt lat="47.23968" lon="-2.27466">
        <ele>2</ele>
        <time>2021-05-23T11:58:16.983Z</time>
      </trkpt>
      <trkpt lat="47.23968" lon="-2.27465">
        <ele>2</ele>
        <time>2021-05-23T11:58:17.983Z</time>
      </trkpt>
      <trkpt lat="47.23969" lon="-2.27464">
        <ele>1</ele>
        <time>2021-05-23T11:58:18.982Z</time>
      </trkpt>
      <trkpt lat="47.23969" lon="-2.27462">
        <ele>1</ele>
        <time>2021-05-23T11:58:19.982Z</time>
      </trkpt>
      <trkpt lat="47.2397" lon="-2.27461">
        <ele>1</ele>
        <time>2021-05-23T11:58:20.982Z</time>
      </trkpt>
      <trkpt lat="47.2397" lon="-2.27459">
        <ele>1</ele>
        <time>2021-05-23T11:58:21.983Z</time>
      </trkpt>
      <trkpt lat="47.23971" lon="-2.27458">
        <ele>1</ele>
        <time>2021-05-23T11:58:22.982Z</time>
      </trkpt>
      <trkpt lat="47.23972" lon="-2.27456">
        <ele>1</ele>
        <time>2021-05-23T11:58:23.982Z</time>
      </trkpt>
      <trkpt lat="47.23973" lon="-2.27454">
        <ele>1</ele>
        <time>2021-05-23T11:58:24.983Z</time>
      </trkpt>
      <trkpt lat="47.23973" lon="-2.27452">
        <ele>1</ele>
        <time>2021-05-23T11:58:25.982Z</time>
      </trkpt>
      <trkpt lat="47.23974" lon="-2.2745">
        <ele>2</ele>
        <time>2021-05-23T11:58:26.983Z</time>
      </trkpt>
      <trkpt lat="47.23974" lon="-2.27448">
        <ele>2</ele>
        <time>2021-05-23T11:58:27.983Z</time>
      </trkpt>
      <trkpt lat="47.23974" lon="-2.27446">
        <ele>3</ele>
        <time>2021-05-23T11:58:28.982Z</time>
      </trkpt>
      <trkpt lat="47.23975" lon="-2.27444">
        <ele>3</ele>
        <time>2021-05-23T11:58:29.982Z</time>
      </trkpt>
      <trkpt lat="47.23975" lon="-2.27442">
        <ele>4</ele>
        <time>2021-05-23T11:58:30.982Z</time>
      </trkpt>
      <trkpt lat="47.23976" lon="-2.27441">
        <ele>4</ele>
        <time>2021-05-23T11:58:31.982Z</time>
      </trkpt>
      <trkpt lat="47.23976" lon="-2.27439">
        <ele>4</ele>
        <time>2021-05-23T11:58:32.983Z</time>
      </trkpt>
      <trkpt lat="47.23977" lon="-2.27438">
        <ele>5</ele>
        <time>2021-05-23T11:58:33.982Z</time>
      </trkpt>
      <trkpt lat="47.23977" lon="-2.27436">
        <ele>5</ele>
        <time>2021-05-23T11:58:34.982Z</time>
      </trkpt>
      <trkpt lat="47.23978" lon="-2.27434">
        <ele>6</ele>
        <time>2021-05-23T11:58:35.983Z</time>
      </trkpt>
      <trkpt lat="47.23978" lon="-2.27432">
        <ele>6</ele>
        <time>2021-05-23T11:58:36.982Z</time>
      </trkpt>
      <trkpt lat="47.23979" lon="-2.27431">
        <ele>7</ele>
        <time>2021-05-23T11:58:37.983Z</time>
      </trkpt>
      <trkpt lat="47.2398" lon="-2.27429">
        <ele>7</ele>
        <time>2021-05-23T11:58:38.983Z</time>
      </trkpt>
      <trkpt lat="47.2398" lon="-2.27427">
        <ele>7</ele>
        <time>2021-05-23T11:58:39.982Z</time>
      </trkpt>
      <trkpt lat="47.23981" lon="-2.27426">
        <ele>7</ele>
        <time>2021-05-23T11:58:40.983Z</time>
      </trkpt>
      <trkpt lat="47.23982" lon="-2.27424">
        <ele>8</ele>
        <time>2021-05-23T11:58:41.983Z</time>
      </trkpt>
      <trkpt lat="47.23983" lon="-2.27422">
        <ele>8</ele>
        <time>2021-05-23T11:58:42.982Z</time>
      </trkpt>
      <trkpt lat="47.23983" lon="-2.27421">
        <ele>8</ele>
        <time>2021-05-23T11:58:43.982Z</time>
      </trkpt>
      <trkpt lat="47.23984" lon="-2.27419">
        <ele>8</ele>
        <time>2021-05-23T11:58:44.982Z</time>
      </trkpt>
      <trkpt lat="47.23984" lon="-2.27418">
        <ele>8</ele>
        <time>2021-05-23T11:58:45.982Z</time>
      </trkpt>
      <trkpt lat="47.23984" lon="-2.27416">
        <ele>8</ele>
        <time>2021-05-23T11:58:46.982Z</time>
      </trkpt>
      <trkpt lat="47.23985" lon="-2.27414">
        <ele>8</ele>
        <time>2021-05-23T11:58:47.982Z</time>
      </trkpt>
      <trkpt lat="47.23986" lon="-2.27413">
        <ele>9</ele>
        <time>2021-05-23T11:58:48.982Z</time>
      </trkpt>
      <trkpt lat="47.23986" lon="-2.27411">
        <ele>9</ele>
        <time>2021-05-23T11:58:49.983Z</time>
      </trkpt>
      <trkpt lat="47.23987" lon="-2.27409">
        <ele>9</ele>
        <time>2021-05-23T11:58:50.982Z</time>
      </trkpt>
      <trkpt lat="47.23987" lon="-2.27407">
        <ele>10</ele>
        <time>2021-05-23T11:58:51.983Z</time>
      </trkpt>
      <trkpt lat="47.23988" lon="-2.27405">
        <ele>10</ele>
        <time>2021-05-23T11:58:52.982Z</time>
      </trkpt>
      <trkpt lat="47.23988" lon="-2.27403">
        <ele>10</ele>
        <time>2021-05-23T11:58:53.982Z</time>
      </trkpt>
      <trkpt lat="47.23989" lon="-2.27402">
        <ele>10</ele>
        <time>2021-05-23T11:58:54.982Z</time>
      </trkpt>
      <trkpt lat="47.23989" lon="-2.274">
        <ele>10</ele>
        <time>2021-05-23T11:58:55.982Z</time>
      </trkpt>
      <trkpt lat="47.2399" lon="-2.27398">
        <ele>10</ele>
        <time>2021-05-23T11:58:56.982Z</time>
      </trkpt>
      <trkpt lat="47.2399" lon="-2.27397">
        <ele>10</ele>
        <time>2021-05-23T11:58:57.983Z</time>
      </trkpt>
      <trkpt lat="47.2399" lon="-2.27395">
        <ele>9</ele>
        <time>2021-05-23T11:58:58.982Z</time>
      </trkpt>
      <trkpt lat="47.23991" lon="-2.27393">
        <ele>9</ele>
        <time>2021-05-23T11:58:59.982Z</time>
      </trkpt>
      <trkpt lat="47.23991" lon="-2.27391">
        <ele>9</ele>
        <time>2021-05-23T11:59:00.982Z</time>
      </trkpt>
      <trkpt lat="47.23992" lon="-2.2739">
        <ele>9</ele>
        <time>2021-05-23T11:59:01.982Z</time>
      </trkpt>
      <trkpt lat="47.23993" lon="-2.27388">
        <ele>9</ele>
        <time>2021-05-23T11:59:02.982Z</time>
      </trkpt>
      <trkpt lat="47.23992" lon="-2.27386">
        <ele>8</ele>
        <time>2021-05-23T11:59:03.983Z</time>
      </trkpt>
      <trkpt lat="47.23993" lon="-2.27385">
        <ele>8</ele>
        <time>2021-05-23T11:59:04.982Z</time>
      </trkpt>
      <trkpt lat="47.23994" lon="-2.27383">
        <ele>8</ele>
        <time>2021-05-23T11:59:05.982Z</time>
      </trkpt>
      <trkpt lat="47.23994" lon="-2.27382">
        <ele>7</ele>
        <time>2021-05-23T11:59:06.983Z</time>
      </trkpt>
      <trkpt lat="47.23995" lon="-2.27381">
        <ele>7</ele>
        <time>2021-05-23T11:59:07.983Z</time>
      </trkpt>
      <trkpt lat="47.23996" lon="-2.27379">
        <ele>7</ele>
        <time>2021-05-23T11:59:08.982Z</time>
      </trkpt>
      <trkpt lat="47.23996" lon="-2.27377">
        <ele>7</ele>
        <time>2021-05-23T11:59:09.982Z</time>
      </trkpt>
      <trkpt lat="47.23997" lon="-2.27375">
        <ele>7</ele>
        <time>2021-05-23T11:59:10.982Z</time>
      </trkpt>
      <trkpt lat="47.23997" lon="-2.27373">
        <ele>7</ele>
        <time>2021-05-23T11:59:11.982Z</time>
      </trkpt>
      <trkpt lat="47.23998" lon="-2.27372">
        <ele>7</ele>
        <time>2021-05-23T11:59:12.982Z</time>
      </trkpt>
      <trkpt lat="47.23998" lon="-2.2737">
        <ele>7</ele>
        <time>2021-05-23T11:59:13.983Z</time>
      </trkpt>
      <trkpt lat="47.23999" lon="-2.27368">
        <ele>7</ele>
        <time>2021-05-23T11:59:14.982Z</time>
      </trkpt>
      <trkpt lat="47.23999" lon="-2.27366">
        <ele>8</ele>
        <time>2021-05-23T11:59:15.982Z</time>
      </trkpt>
      <trkpt lat="47.24" lon="-2.27364">
        <ele>8</ele>
        <time>2021-05-23T11:59:16.982Z</time>
      </trkpt>
      <trkpt lat="47.24" lon="-2.27362">
        <ele>8</ele>
        <time>2021-05-23T11:59:17.982Z</time>
      </trkpt>
      <trkpt lat="47.24001" lon="-2.27361">
        <ele>8</ele>
        <time>2021-05-23T11:59:18.983Z</time>
      </trkpt>
      <trkpt lat="47.24001" lon="-2.27359">
        <ele>9</ele>
        <time>2021-05-23T11:59:19.982Z</time>
      </trkpt>
      <trkpt lat="47.24002" lon="-2.27358">
        <ele>9</ele>
        <time>2021-05-23T11:59:20.982Z</time>
      </trkpt>
      <trkpt lat="47.24003" lon="-2.27356">
        <ele>10</ele>
        <time>2021-05-23T11:59:21.982Z</time>
      </trkpt>
      <trkpt lat="47.24004" lon="-2.27354">
        <ele>10</ele>
        <time>2021-05-23T11:59:22.983Z</time>
      </trkpt>
      <trkpt lat="47.24004" lon="-2.27353">
        <ele>10</ele>
        <time>2021-05-23T11:59:23.982Z</time>
      </trkpt>
      <trkpt lat="47.24005" lon="-2.27351">
        <ele>10</ele>
        <time>2021-05-23T11:59:24.982Z</time>
      </trkpt>
      <trkpt lat="47.24006" lon="-2.2735">
        <ele>9</ele>
        <time>2021-05-23T11:59:25.982Z</time>
      </trkpt>
      <trkpt lat="47.24006" lon="-2.27348">
        <ele>9</ele>
        <time>2021-05-23T11:59:26.983Z</time>
      </trkpt>
      <trkpt lat="47.24007" lon="-2.27347">
        <ele>8</ele>
        <time>2021-05-23T11:59:27.982Z</time>
      </trkpt>
      <trkpt lat="47.24008" lon="-2.27345">
        <ele>8</ele>
        <time>2021-05-23T11:59:28.983Z</time>
      </trkpt>
      <trkpt lat="47.24009" lon="-2.27344">
        <ele>8</ele>
        <time>2021-05-23T11:59:29.982Z</time>
      </trkpt>
      <trkpt lat="47.2401" lon="-2.27342">
        <ele>8</ele>
        <time>2021-05-23T11:59:30.982Z</time>
      </trkpt>
      <trkpt lat="47.2401" lon="-2.2734">
        <ele>8</ele>
        <time>2021-05-23T11:59:31.983Z</time>
      </trkpt>
      <trkpt lat="47.24011" lon="-2.27338">
        <ele>8</ele>
        <time>2021-05-23T11:59:32.982Z</time>
      </trkpt>
      <trkpt lat="47.24011" lon="-2.27336">
        <ele>9</ele>
        <time>2021-05-23T11:59:33.983Z</time>
      </trkpt>
      <trkpt lat="47.24012" lon="-2.27334">
        <ele>9</ele>
        <time>2021-05-23T11:59:34.982Z</time>
      </trkpt>
      <trkpt lat="47.24012" lon="-2.27332">
        <ele>9</ele>
        <time>2021-05-23T11:59:35.982Z</time>
      </trkpt>
      <trkpt lat="47.24013" lon="-2.2733">
        <ele>10</ele>
        <time>2021-05-23T11:59:36.982Z</time>
      </trkpt>
      <trkpt lat="47.24013" lon="-2.27328">
        <ele>10</ele>
        <time>2021-05-23T11:59:37.983Z</time>
      </trkpt>
      <trkpt lat="47.24013" lon="-2.27326">
        <ele>11</ele>
        <time>2021-05-23T11:59:38.982Z</time>
      </trkpt>
      <trkpt lat="47.24014" lon="-2.27324">
        <ele>11</ele>
        <time>2021-05-23T11:59:39.982Z</time>
      </trkpt>
      <trkpt lat="47.24014" lon="-2.27323">
        <ele>12</ele>
        <time>2021-05-23T11:59:40.982Z</time>
      </trkpt>
      <trkpt lat="47.24015" lon="-2.27321">
        <ele>12</ele>
        <time>2021-05-23T11:59:41.983Z</time>
      </trkpt>
      <trkpt lat="47.24015" lon="-2.27319">
        <ele>12</ele>
        <time>2021-05-23T11:59:42.982Z</time>
      </trkpt>
      <trkpt lat="47.24014" lon="-2.27317">
        <ele>11</ele>
        <time>2021-05-23T11:59:43.982Z</time>
      </trkpt>
      <trkpt lat="47.24014" lon="-2.27316">
        <ele>11</ele>
        <time>2021-05-23T11:59:44.982Z</time>
      </trkpt>
      <trkpt lat="47.24014" lon="-2.27314">
        <ele>11</ele>
        <time>2021-05-23T11:59:45.982Z</time>
      </trkpt>
      <trkpt lat="47.24014" lon="-2.27311">
        <ele>11</ele>
        <time>2021-05-23T11:59:46.983Z</time>
      </trkpt>
      <trkpt lat="47.24015" lon="-2.27309">
        <ele>11</ele>
        <time>2021-05-23T11:59:47.982Z</time>
      </trkpt>
      <trkpt lat="47.24015" lon="-2.27308">
        <ele>11</ele>
        <time>2021-05-23T11:59:48.982Z</time>
      </trkpt>
      <trkpt lat="47.24015" lon="-2.27306">
        <ele>11</ele>
        <time>2021-05-23T11:59:49.982Z</time>
      </trkpt>
      <trkpt lat="47.24015" lon="-2.27304">
        <ele>11</ele>
        <time>2021-05-23T11:59:50.982Z</time>
      </trkpt>
      <trkpt lat="47.24015" lon="-2.27302">
        <ele>11</ele>
        <time>2021-05-23T11:59:51.982Z</time>
      </trkpt>
      <trkpt lat="47.24015" lon="-2.273">
        <ele>12</ele>
        <time>2021-05-23T11:59:52.983Z</time>
      </trkpt>
      <trkpt lat="47.24015" lon="-2.27297">
        <ele>12</ele>
        <time>2021-05-23T11:59:53.983Z</time>
      </trkpt>
      <trkpt lat="47.24016" lon="-2.27295">
        <ele>12</ele>
        <time>2021-05-23T11:59:54.982Z</time>
      </trkpt>
      <trkpt lat="47.24015" lon="-2.27293">
        <ele>13</ele>
        <time>2021-05-23T11:59:55.982Z</time>
      </trkpt>
      <trkpt lat="47.24015" lon="-2.2729">
        <ele>13</ele>
        <time>2021-05-23T11:59:56.982Z</time>
      </trkpt>
      <trkpt lat="47.24015" lon="-2.27288">
        <ele>13</ele>
        <time>2021-05-23T11:59:57.983Z</time>
      </trkpt>
      <trkpt lat="47.24015" lon="-2.27286">
        <ele>13</ele>
        <time>2021-05-23T11:59:58.982Z</time>
      </trkpt>
      <trkpt lat="47.24015" lon="-2.27284">
        <ele>13</ele>
        <time>2021-05-23T11:59:59.983Z</time>
      </trkpt>
      <trkpt lat="47.24015" lon="-2.27282">
        <ele>13</ele>
        <time>2021-05-23T12:00:00.982Z</time>
      </trkpt>
      <trkpt lat="47.24016" lon="-2.27281">
        <ele>12</ele>
        <time>2021-05-23T12:00:01.982Z</time>
      </trkpt>
      <trkpt lat="47.24016" lon="-2.27279">
        <ele>12</ele>
        <time>2021-05-23T12:00:02.982Z</time>
      </trkpt>
      <trkpt lat="47.24015" lon="-2.27277">
        <ele>11</ele>
        <time>2021-05-23T12:00:03.982Z</time>
      </trkpt>
      <trkpt lat="47.24015" lon="-2.27275">
        <ele>11</ele>
        <time>2021-05-23T12:00:04.982Z</time>
      </trkpt>
      <trkpt lat="47.24015" lon="-2.27273">
        <ele>11</ele>
        <time>2021-05-23T12:00:05.982Z</time>
      </trkpt>
      <trkpt lat="47.24014" lon="-2.27271">
        <ele>11</ele>
        <time>2021-05-23T12:00:06.982Z</time>
      </trkpt>
      <trkpt lat="47.24014" lon="-2.27268">
        <ele>11</ele>
        <time>2021-05-23T12:00:07.983Z</time>
      </trkpt>
      <trkpt lat="47.24014" lon="-2.27266">
        <ele>11</ele>
        <time>2021-05-23T12:00:08.982Z</time>
      </trkpt>
      <trkpt lat="47.24014" lon="-2.27265">
        <ele>11</ele>
        <time>2021-05-23T12:00:09.983Z</time>
      </trkpt>
      <trkpt lat="47.24014" lon="-2.27262">
        <ele>11</ele>
        <time>2021-05-23T12:00:10.982Z</time>
      </trkpt>
      <trkpt lat="47.24013" lon="-2.2726">
        <ele>11</ele>
        <time>2021-05-23T12:00:11.983Z</time>
      </trkpt>
      <trkpt lat="47.24013" lon="-2.27259">
        <ele>11</ele>
        <time>2021-05-23T12:00:12.982Z</time>
      </trkpt>
      <trkpt lat="47.24013" lon="-2.27258">
        <ele>10</ele>
        <time>2021-05-23T12:00:13.982Z</time>
      </trkpt>
      <trkpt lat="47.24013" lon="-2.27256">
        <ele>10</ele>
        <time>2021-05-23T12:00:14.982Z</time>
      </trkpt>
      <trkpt lat="47.24013" lon="-2.27254">
        <ele>10</ele>
        <time>2021-05-23T12:00:15.982Z</time>
      </trkpt>
      <trkpt lat="47.24013" lon="-2.27252">
        <ele>9</ele>
        <time>2021-05-23T12:00:16.982Z</time>
      </trkpt>
      <trkpt lat="47.24013" lon="-2.27251">
        <ele>9</ele>
        <time>2021-05-23T12:00:17.982Z</time>
      </trkpt>
      <trkpt lat="47.24013" lon="-2.27249">
        <ele>8</ele>
        <time>2021-05-23T12:00:18.982Z</time>
      </trkpt>
      <trkpt lat="47.24013" lon="-2.27247">
        <ele>8</ele>
        <time>2021-05-23T12:00:19.982Z</time>
      </trkpt>
      <trkpt lat="47.24012" lon="-2.27246">
        <ele>9</ele>
        <time>2021-05-23T12:00:20.982Z</time>
      </trkpt>
      <trkpt lat="47.24012" lon="-2.27244">
        <ele>9</ele>
        <time>2021-05-23T12:00:21.982Z</time>
      </trkpt>
      <trkpt lat="47.24011" lon="-2.27242">
        <ele>9</ele>
        <time>2021-05-23T12:00:22.982Z</time>
      </trkpt>
      <trkpt lat="47.24011" lon="-2.27241">
        <ele>9</ele>
        <time>2021-05-23T12:00:23.982Z</time>
      </trkpt>
      <trkpt lat="47.24011" lon="-2.27239">
        <ele>9</ele>
        <time>2021-05-23T12:00:24.982Z</time>
      </trkpt>
      <trkpt lat="47.24011" lon="-2.27237">
        <ele>9</ele>
        <time>2021-05-23T12:00:25.982Z</time>
      </trkpt>
      <trkpt lat="47.24011" lon="-2.27235">
        <ele>9</ele>
        <time>2021-05-23T12:00:26.983Z</time>
      </trkpt>
      <trkpt lat="47.24011" lon="-2.27233">
        <ele>9</ele>
        <time>2021-05-23T12:00:27.982Z</time>
      </trkpt>
      <trkpt lat="47.24011" lon="-2.27231">
        <ele>9</ele>
        <time>2021-05-23T12:00:28.983Z</time>
      </trkpt>
      <trkpt lat="47.2401" lon="-2.2723">
        <ele>8</ele>
        <time>2021-05-23T12:00:29.982Z</time>
      </trkpt>
      <trkpt lat="47.24009" lon="-2.27228">
        <ele>8</ele>
        <time>2021-05-23T12:00:30.982Z</time>
      </trkpt>
      <trkpt lat="47.24007" lon="-2.27226">
        <ele>8</ele>
        <time>2021-05-23T12:00:31.982Z</time>
      </trkpt>
      <trkpt lat="47.24006" lon="-2.27224">
        <ele>7</ele>
        <time>2021-05-23T12:00:32.982Z</time>
      </trkpt>
      <trkpt lat="47.24006" lon="-2.27222">
        <ele>7</ele>
        <time>2021-05-23T12:00:33.982Z</time>
      </trkpt>
      <trkpt lat="47.24005" lon="-2.27219">
        <ele>7</ele>
        <time>2021-05-23T12:00:34.982Z</time>
      </trkpt>
      <trkpt lat="47.24005" lon="-2.27218">
        <ele>6</ele>
        <time>2021-05-23T12:00:35.982Z</time>
      </trkpt>
      <trkpt lat="47.24005" lon="-2.27216">
        <ele>6</ele>
        <time>2021-05-23T12:00:36.982Z</time>
      </trkpt>
      <trkpt lat="47.24004" lon="-2.27214">
        <ele>6</ele>
        <time>2021-05-23T12:00:37.983Z</time>
      </trkpt>
      <trkpt lat="47.24004" lon="-2.27212">
        <ele>6</ele>
        <time>2021-05-23T12:00:38.982Z</time>
      </trkpt>
      <trkpt lat="47.24003" lon="-2.2721">
        <ele>6</ele>
        <time>2021-05-23T12:00:39.982Z</time>
      </trkpt>
      <trkpt lat="47.24003" lon="-2.27208">
        <ele>6</ele>
        <time>2021-05-23T12:00:40.982Z</time>
      </trkpt>
      <trkpt lat="47.24003" lon="-2.27206">
        <ele>6</ele>
        <time>2021-05-23T12:00:41.983Z</time>
      </trkpt>
      <trkpt lat="47.24003" lon="-2.27204">
        <ele>6</ele>
        <time>2021-05-23T12:00:42.982Z</time>
      </trkpt>
      <trkpt lat="47.24002" lon="-2.27201">
        <ele>6</ele>
        <time>2021-05-23T12:00:43.982Z</time>
      </trkpt>
      <trkpt lat="47.24002" lon="-2.27199">
        <ele>6</ele>
        <time>2021-05-23T12:00:44.982Z</time>
      </trkpt>
      <trkpt lat="47.24001" lon="-2.27197">
        <ele>6</ele>
        <time>2021-05-23T12:00:45.983Z</time>
      </trkpt>
      <trkpt lat="47.24001" lon="-2.27196">
        <ele>7</ele>
        <time>2021-05-23T12:00:46.982Z</time>
      </trkpt>
      <trkpt lat="47.24" lon="-2.27195">
        <ele>7</ele>
        <time>2021-05-23T12:00:47.982Z</time>
      </trkpt>
      <trkpt lat="47.24" lon="-2.27193">
        <ele>7</ele>
        <time>2021-05-23T12:00:48.983Z</time>
      </trkpt>
      <trkpt lat="47.23999" lon="-2.27192">
        <ele>7</ele>
        <time>2021-05-23T12:00:49.983Z</time>
      </trkpt>
      <trkpt lat="47.23999" lon="-2.2719">
        <ele>7</ele>
        <time>2021-05-23T12:00:50.982Z</time>
      </trkpt>
      <trkpt lat="47.23998" lon="-2.27189">
        <ele>7</ele>
        <time>2021-05-23T12:00:51.982Z</time>
      </trkpt>
      <trkpt lat="47.23998" lon="-2.27188">
        <ele>7</ele>
        <time>2021-05-23T12:00:52.983Z</time>
      </trkpt>
      <trkpt lat="47.23998" lon="-2.27186">
        <ele>7</ele>
        <time>2021-05-23T12:00:53.982Z</time>
      </trkpt>
      <trkpt lat="47.23997" lon="-2.27184">
        <ele>7</ele>
        <time>2021-05-23T12:00:54.982Z</time>
      </trkpt>
      <trkpt lat="47.23997" lon="-2.27182">
        <ele>7</ele>
        <time>2021-05-23T12:00:55.982Z</time>
      </trkpt>
      <trkpt lat="47.23997" lon="-2.2718">
        <ele>8</ele>
        <time>2021-05-23T12:00:56.982Z</time>
      </trkpt>
      <trkpt lat="47.23996" lon="-2.27177">
        <ele>8</ele>
        <time>2021-05-23T12:00:57.982Z</time>
      </trkpt>
      <trkpt lat="47.23995" lon="-2.27175">
        <ele>8</ele>
        <time>2021-05-23T12:00:58.983Z</time>
      </trkpt>
      <trkpt lat="47.23995" lon="-2.27173">
        <ele>8</ele>
        <time>2021-05-23T12:00:59.982Z</time>
      </trkpt>
      <trkpt lat="47.23994" lon="-2.27172">
        <ele>8</ele>
        <time>2021-05-23T12:01:00.982Z</time>
      </trkpt>
      <trkpt lat="47.23994" lon="-2.2717">
        <ele>8</ele>
        <time>2021-05-23T12:01:01.982Z</time>
      </trkpt>
      <trkpt lat="47.23993" lon="-2.27168">
        <ele>8</ele>
        <time>2021-05-23T12:01:02.982Z</time>
      </trkpt>
      <trkpt lat="47.23993" lon="-2.27166">
        <ele>8</ele>
        <time>2021-05-23T12:01:03.983Z</time>
      </trkpt>
      <trkpt lat="47.23992" lon="-2.27164">
        <ele>8</ele>
        <time>2021-05-23T12:01:04.982Z</time>
      </trkpt>
      <trkpt lat="47.23992" lon="-2.27162">
        <ele>8</ele>
        <time>2021-05-23T12:01:05.982Z</time>
      </trkpt>
      <trkpt lat="47.23991" lon="-2.2716">
        <ele>9</ele>
        <time>2021-05-23T12:01:06.983Z</time>
      </trkpt>
      <trkpt lat="47.23991" lon="-2.27158">
        <ele>9</ele>
        <time>2021-05-23T12:01:07.983Z</time>
      </trkpt>
      <trkpt lat="47.23991" lon="-2.27156">
        <ele>10</ele>
        <time>2021-05-23T12:01:08.982Z</time>
      </trkpt>
      <trkpt lat="47.2399" lon="-2.27154">
        <ele>10</ele>
        <time>2021-05-23T12:01:09.982Z</time>
      </trkpt>
      <trkpt lat="47.2399" lon="-2.27152">
        <ele>10</ele>
        <time>2021-05-23T12:01:10.982Z</time>
      </trkpt>
      <trkpt lat="47.2399" lon="-2.2715">
        <ele>10</ele>
        <time>2021-05-23T12:01:11.982Z</time>
      </trkpt>
      <trkpt lat="47.23989" lon="-2.27149">
        <ele>10</ele>
        <time>2021-05-23T12:01:12.983Z</time>
      </trkpt>
      <trkpt lat="47.23989" lon="-2.27147">
        <ele>10</ele>
        <time>2021-05-23T12:01:13.982Z</time>
      </trkpt>
      <trkpt lat="47.23988" lon="-2.27145">
        <ele>9</ele>
        <time>2021-05-23T12:01:14.983Z</time>
      </trkpt>
      <trkpt lat="47.23988" lon="-2.27143">
        <ele>9</ele>
        <time>2021-05-23T12:01:15.982Z</time>
      </trkpt>
      <trkpt lat="47.23988" lon="-2.27141">
        <ele>9</ele>
        <time>2021-05-23T12:01:16.982Z</time>
      </trkpt>
      <trkpt lat="47.23988" lon="-2.27139">
        <ele>9</ele>
        <time>2021-05-23T12:01:17.983Z</time>
      </trkpt>
      <trkpt lat="47.23987" lon="-2.27137">
        <ele>9</ele>
        <time>2021-05-23T12:01:18.983Z</time>
      </trkpt>
      <trkpt lat="47.23987" lon="-2.27135">
        <ele>9</ele>
        <time>2021-05-23T12:01:19.982Z</time>
      </trkpt>
      <trkpt lat="47.23988" lon="-2.27133">
        <ele>9</ele>
        <time>2021-05-23T12:01:20.982Z</time>
      </trkpt>
      <trkpt lat="47.23988" lon="-2.27131">
        <ele>9</ele>
        <time>2021-05-23T12:01:21.983Z</time>
      </trkpt>
      <trkpt lat="47.23989" lon="-2.27129">
        <ele>9</ele>
        <time>2021-05-23T12:01:22.982Z</time>
      </trkpt>
      <trkpt lat="47.23989" lon="-2.27127">
        <ele>9</ele>
        <time>2021-05-23T12:01:23.983Z</time>
      </trkpt>
      <trkpt lat="47.2399" lon="-2.27126">
        <ele>9</ele>
        <time>2021-05-23T12:01:24.982Z</time>
      </trkpt>
      <trkpt lat="47.2399" lon="-2.27124">
        <ele>9</ele>
        <time>2021-05-23T12:01:25.982Z</time>
      </trkpt>
      <trkpt lat="47.23991" lon="-2.27122">
        <ele>10</ele>
        <time>2021-05-23T12:01:26.983Z</time>
      </trkpt>
      <trkpt lat="47.23991" lon="-2.2712">
        <ele>10</ele>
        <time>2021-05-23T12:01:27.983Z</time>
      </trkpt>
      <trkpt lat="47.23991" lon="-2.27118">
        <ele>10</ele>
        <time>2021-05-23T12:01:28.982Z</time>
      </trkpt>
      <trkpt lat="47.23992" lon="-2.27116">
        <ele>10</ele>
        <time>2021-05-23T12:01:29.982Z</time>
      </trkpt>
      <trkpt lat="47.23992" lon="-2.27115">
        <ele>10</ele>
        <time>2021-05-23T12:01:30.982Z</time>
      </trkpt>
      <trkpt lat="47.23992" lon="-2.27113">
        <ele>10</ele>
        <time>2021-05-23T12:01:31.982Z</time>
      </trkpt>
      <trkpt lat="47.23992" lon="-2.27111">
        <ele>10</ele>
        <time>2021-05-23T12:01:32.983Z</time>
      </trkpt>
      <trkpt lat="47.23992" lon="-2.27108">
        <ele>9</ele>
        <time>2021-05-23T12:01:33.982Z</time>
      </trkpt>
      <trkpt lat="47.23992" lon="-2.27106">
        <ele>9</ele>
        <time>2021-05-23T12:01:34.982Z</time>
      </trkpt>
      <trkpt lat="47.23993" lon="-2.27105">
        <ele>9</ele>
        <time>2021-05-23T12:01:35.982Z</time>
      </trkpt>
      <trkpt lat="47.23994" lon="-2.27103">
        <ele>9</ele>
        <time>2021-05-23T12:01:36.982Z</time>
      </trkpt>
      <trkpt lat="47.23994" lon="-2.27101">
        <ele>9</ele>
        <time>2021-05-23T12:01:37.983Z</time>
      </trkpt>
      <trkpt lat="47.23994" lon="-2.27099">
        <ele>9</ele>
        <time>2021-05-23T12:01:38.982Z</time>
      </trkpt>
      <trkpt lat="47.23993" lon="-2.27097">
        <ele>9</ele>
        <time>2021-05-23T12:01:39.982Z</time>
      </trkpt>
      <trkpt lat="47.23993" lon="-2.27094">
        <ele>8</ele>
        <time>2021-05-23T12:01:40.982Z</time>
      </trkpt>
      <trkpt lat="47.23993" lon="-2.27093">
        <ele>7</ele>
        <time>2021-05-23T12:01:41.983Z</time>
      </trkpt>
      <trkpt lat="47.23993" lon="-2.2709">
        <ele>7</ele>
        <time>2021-05-23T12:01:42.982Z</time>
      </trkpt>
      <trkpt lat="47.23993" lon="-2.27088">
        <ele>7</ele>
        <time>2021-05-23T12:01:43.982Z</time>
      </trkpt>
      <trkpt lat="47.23993" lon="-2.27087">
        <ele>7</ele>
        <time>2021-05-23T12:01:44.982Z</time>
      </trkpt>
      <trkpt lat="47.23994" lon="-2.27085">
        <ele>6</ele>
        <time>2021-05-23T12:01:45.983Z</time>
      </trkpt>
      <trkpt lat="47.23994" lon="-2.27083">
        <ele>6</ele>
        <time>2021-05-23T12:01:46.982Z</time>
      </trkpt>
      <trkpt lat="47.23994" lon="-2.27081">
        <ele>6</ele>
        <time>2021-05-23T12:01:47.983Z</time>
      </trkpt>
      <trkpt lat="47.23995" lon="-2.27079">
        <ele>6</ele>
        <time>2021-05-23T12:01:48.982Z</time>
      </trkpt>
      <trkpt lat="47.23995" lon="-2.27077">
        <ele>6</ele>
        <time>2021-05-23T12:01:49.982Z</time>
      </trkpt>
      <trkpt lat="47.23995" lon="-2.27075">
        <ele>6</ele>
        <time>2021-05-23T12:01:50.982Z</time>
      </trkpt>
      <trkpt lat="47.23996" lon="-2.27073">
        <ele>7</ele>
        <time>2021-05-23T12:01:51.982Z</time>
      </trkpt>
      <trkpt lat="47.23997" lon="-2.27071">
        <ele>8</ele>
        <time>2021-05-23T12:01:52.983Z</time>
      </trkpt>
      <trkpt lat="47.23998" lon="-2.2707">
        <ele>8</ele>
        <time>2021-05-23T12:01:53.982Z</time>
      </trkpt>
      <trkpt lat="47.23998" lon="-2.27068">
        <ele>9</ele>
        <time>2021-05-23T12:01:54.983Z</time>
      </trkpt>
      <trkpt lat="47.23998" lon="-2.27065">
        <ele>10</ele>
        <time>2021-05-23T12:01:55.982Z</time>
      </trkpt>
      <trkpt lat="47.23998" lon="-2.27063">
        <ele>10</ele>
        <time>2021-05-23T12:01:56.983Z</time>
      </trkpt>
      <trkpt lat="47.23998" lon="-2.27061">
        <ele>11</ele>
        <time>2021-05-23T12:01:57.982Z</time>
      </trkpt>
      <trkpt lat="47.23999" lon="-2.27059">
        <ele>11</ele>
        <time>2021-05-23T12:01:58.983Z</time>
      </trkpt>
      <trkpt lat="47.23999" lon="-2.27057">
        <ele>11</ele>
        <time>2021-05-23T12:01:59.982Z</time>
      </trkpt>
      <trkpt lat="47.24" lon="-2.27055">
        <ele>12</ele>
        <time>2021-05-23T12:02:00.982Z</time>
      </trkpt>
      <trkpt lat="47.24" lon="-2.27053">
        <ele>12</ele>
        <time>2021-05-23T12:02:01.983Z</time>
      </trkpt>
      <trkpt lat="47.24" lon="-2.27052">
        <ele>12</ele>
        <time>2021-05-23T12:02:02.983Z</time>
      </trkpt>
      <trkpt lat="47.24001" lon="-2.2705">
        <ele>12</ele>
        <time>2021-05-23T12:02:03.982Z</time>
      </trkpt>
      <trkpt lat="47.24001" lon="-2.27049">
        <ele>13</ele>
        <time>2021-05-23T12:02:04.982Z</time>
      </trkpt>
      <trkpt lat="47.24001" lon="-2.27047">
        <ele>13</ele>
        <time>2021-05-23T12:02:05.982Z</time>
      </trkpt>
      <trkpt lat="47.24001" lon="-2.27046">
        <ele>12</ele>
        <time>2021-05-23T12:02:06.982Z</time>
      </trkpt>
      <trkpt lat="47.24002" lon="-2.27044">
        <ele>12</ele>
        <time>2021-05-23T12:02:07.982Z</time>
      </trkpt>
      <trkpt lat="47.24002" lon="-2.27042">
        <ele>12</ele>
        <time>2021-05-23T12:02:08.983Z</time>
      </trkpt>
      <trkpt lat="47.24003" lon="-2.27041">
        <ele>12</ele>
        <time>2021-05-23T12:02:09.982Z</time>
      </trkpt>
      <trkpt lat="47.24003" lon="-2.27039">
        <ele>11</ele>
        <time>2021-05-23T12:02:10.982Z</time>
      </trkpt>
      <trkpt lat="47.24003" lon="-2.27038">
        <ele>11</ele>
        <time>2021-05-23T12:02:11.983Z</time>
      </trkpt>
      <trkpt lat="47.24003" lon="-2.27036">
        <ele>11</ele>
        <time>2021-05-23T12:02:12.983Z</time>
      </trkpt>
      <trkpt lat="47.24003" lon="-2.27034">
        <ele>11</ele>
        <time>2021-05-23T12:02:13.983Z</time>
      </trkpt>
      <trkpt lat="47.24003" lon="-2.27033">
        <ele>11</ele>
        <time>2021-05-23T12:02:14.982Z</time>
      </trkpt>
      <trkpt lat="47.24003" lon="-2.27031">
        <ele>11</ele>
        <time>2021-05-23T12:02:15.982Z</time>
      </trkpt>
      <trkpt lat="47.24004" lon="-2.2703">
        <ele>11</ele>
        <time>2021-05-23T12:02:16.983Z</time>
      </trkpt>
      <trkpt lat="47.24004" lon="-2.27029">
        <ele>11</ele>
        <time>2021-05-23T12:02:17.983Z</time>
      </trkpt>
      <trkpt lat="47.24004" lon="-2.27028">
        <ele>11</ele>
        <time>2021-05-23T12:02:18.982Z</time>
      </trkpt>
      <trkpt lat="47.24004" lon="-2.27027">
        <ele>11</ele>
        <time>2021-05-23T12:02:19.982Z</time>
      </trkpt>
      <trkpt lat="47.24005" lon="-2.27026">
        <ele>11</ele>
        <time>2021-05-23T12:02:20.982Z</time>
      </trkpt>
      <trkpt lat="47.24006" lon="-2.27025">
        <ele>11</ele>
        <time>2021-05-23T12:02:21.982Z</time>
      </trkpt>
      <trkpt lat="47.24006" lon="-2.27024">
        <ele>11</ele>
        <time>2021-05-23T12:02:22.983Z</time>
      </trkpt>
      <trkpt lat="47.24007" lon="-2.27023">
        <ele>11</ele>
        <time>2021-05-23T12:02:23.982Z</time>
      </trkpt>
      <trkpt lat="47.24007" lon="-2.27023">
        <ele>11</ele>
        <time>2021-05-23T12:02:24.983Z</time>
      </trkpt>
      <trkpt lat="47.24008" lon="-2.27022">
        <ele>11</ele>
        <time>2021-05-23T12:02:25.982Z</time>
      </trkpt>
      <trkpt lat="47.24008" lon="-2.27022">
        <ele>11</ele>
        <time>2021-05-23T12:02:26.983Z</time>
      </trkpt>
      <trkpt lat="47.24009" lon="-2.27021">
        <ele>12</ele>
        <time>2021-05-23T12:02:27.983Z</time>
      </trkpt>
      <trkpt lat="47.24009" lon="-2.2702">
        <ele>12</ele>
        <time>2021-05-23T12:02:28.982Z</time>
      </trkpt>
      <trkpt lat="47.24009" lon="-2.2702">
        <ele>13</ele>
        <time>2021-05-23T12:02:29.982Z</time>
      </trkpt>
      <trkpt lat="47.24009" lon="-2.27019">
        <ele>13</ele>
        <time>2021-05-23T12:02:30.982Z</time>
      </trkpt>
      <trkpt lat="47.24009" lon="-2.27019">
        <ele>13</ele>
        <time>2021-05-23T12:02:31.982Z</time>
      </trkpt>
      <trkpt lat="47.24009" lon="-2.27019">
        <ele>12</ele>
        <time>2021-05-23T12:02:32.983Z</time>
      </trkpt>
      <trkpt lat="47.24009" lon="-2.27018">
        <ele>11</ele>
        <time>2021-05-23T12:02:33.983Z</time>
      </trkpt>
      <trkpt lat="47.2401" lon="-2.27018">
        <ele>10</ele>
        <time>2021-05-23T12:02:34.982Z</time>
      </trkpt>
      <trkpt lat="47.2401" lon="-2.27018">
        <ele>10</ele>
        <time>2021-05-23T12:02:35.982Z</time>
      </trkpt>
      <trkpt lat="47.2401" lon="-2.27018">
        <ele>9</ele>
        <time>2021-05-23T12:02:36.983Z</time>
      </trkpt>
      <trkpt lat="47.24011" lon="-2.27019">
        <ele>9</ele>
        <time>2021-05-23T12:02:37.982Z</time>
      </trkpt>
      <trkpt lat="47.24011" lon="-2.27018">
        <ele>8</ele>
        <time>2021-05-23T12:02:38.983Z</time>
      </trkpt>
      <trkpt lat="47.24012" lon="-2.27018">
        <ele>8</ele>
        <time>2021-05-23T12:02:39.983Z</time>
      </trkpt>
      <trkpt lat="47.24013" lon="-2.27017">
        <ele>8</ele>
        <time>2021-05-23T12:02:40.982Z</time>
      </trkpt>
      <trkpt lat="47.24014" lon="-2.27017">
        <ele>7</ele>
        <time>2021-05-23T12:02:41.983Z</time>
      </trkpt>
      <trkpt lat="47.24014" lon="-2.27016">
        <ele>7</ele>
        <time>2021-05-23T12:02:42.983Z</time>
      </trkpt>
      <trkpt lat="47.24015" lon="-2.27015">
        <ele>7</ele>
        <time>2021-05-23T12:02:43.982Z</time>
      </trkpt>
      <trkpt lat="47.24015" lon="-2.27015">
        <ele>7</ele>
        <time>2021-05-23T12:02:44.982Z</time>
      </trkpt>
      <trkpt lat="47.24016" lon="-2.27014">
        <ele>7</ele>
        <time>2021-05-23T12:02:45.983Z</time>
      </trkpt>
      <trkpt lat="47.24016" lon="-2.27013">
        <ele>7</ele>
        <time>2021-05-23T12:02:46.983Z</time>
      </trkpt>
      <trkpt lat="47.24017" lon="-2.27013">
        <ele>7</ele>
        <time>2021-05-23T12:02:47.983Z</time>
      </trkpt>
      <trkpt lat="47.24017" lon="-2.27012">
        <ele>8</ele>
        <time>2021-05-23T12:02:48.983Z</time>
      </trkpt>
      <trkpt lat="47.24018" lon="-2.27011">
        <ele>8</ele>
        <time>2021-05-23T12:02:49.982Z</time>
      </trkpt>
      <trkpt lat="47.24018" lon="-2.27009">
        <ele>8</ele>
        <time>2021-05-23T12:02:50.982Z</time>
      </trkpt>
      <trkpt lat="47.24018" lon="-2.27006">
        <ele>9</ele>
        <time>2021-05-23T12:02:51.983Z</time>
      </trkpt>
      <trkpt lat="47.24017" lon="-2.27004">
        <ele>9</ele>
        <time>2021-05-23T12:02:52.982Z</time>
      </trkpt>
      <trkpt lat="47.24017" lon="-2.27002">
        <ele>10</ele>
        <time>2021-05-23T12:02:53.983Z</time>
      </trkpt>
      <trkpt lat="47.24017" lon="-2.27">
        <ele>10</ele>
        <time>2021-05-23T12:02:54.982Z</time>
      </trkpt>
      <trkpt lat="47.24017" lon="-2.26998">
        <ele>11</ele>
        <time>2021-05-23T12:02:55.982Z</time>
      </trkpt>
      <trkpt lat="47.24016" lon="-2.26996">
        <ele>11</ele>
        <time>2021-05-23T12:02:56.982Z</time>
      </trkpt>
      <trkpt lat="47.24016" lon="-2.26994">
        <ele>12</ele>
        <time>2021-05-23T12:02:57.982Z</time>
      </trkpt>
      <trkpt lat="47.24016" lon="-2.26992">
        <ele>12</ele>
        <time>2021-05-23T12:02:58.983Z</time>
      </trkpt>
      <trkpt lat="47.24015" lon="-2.2699">
        <ele>13</ele>
        <time>2021-05-23T12:02:59.982Z</time>
      </trkpt>
      <trkpt lat="47.24015" lon="-2.26988">
        <ele>13</ele>
        <time>2021-05-23T12:03:00.982Z</time>
      </trkpt>
      <trkpt lat="47.24014" lon="-2.26987">
        <ele>13</ele>
        <time>2021-05-23T12:03:01.982Z</time>
      </trkpt>
      <trkpt lat="47.24014" lon="-2.26986">
        <ele>13</ele>
        <time>2021-05-23T12:03:02.983Z</time>
      </trkpt>
      <trkpt lat="47.24013" lon="-2.26984">
        <ele>13</ele>
        <time>2021-05-23T12:03:03.982Z</time>
      </trkpt>
      <trkpt lat="47.24012" lon="-2.26983">
        <ele>13</ele>
        <time>2021-05-23T12:03:04.983Z</time>
      </trkpt>
      <trkpt lat="47.24011" lon="-2.26982">
        <ele>13</ele>
        <time>2021-05-23T12:03:05.982Z</time>
      </trkpt>
      <trkpt lat="47.2401" lon="-2.26982">
        <ele>12</ele>
        <time>2021-05-23T12:03:06.983Z</time>
      </trkpt>
      <trkpt lat="47.24009" lon="-2.2698">
        <ele>12</ele>
        <time>2021-05-23T12:03:07.983Z</time>
      </trkpt>
      <trkpt lat="47.24009" lon="-2.26979">
        <ele>12</ele>
        <time>2021-05-23T12:03:08.983Z</time>
      </trkpt>
      <trkpt lat="47.24009" lon="-2.2698">
        <ele>13</ele>
        <time>2021-05-23T12:03:09.982Z</time>
      </trkpt>
      <trkpt lat="47.24009" lon="-2.2698">
        <ele>13</ele>
        <time>2021-05-23T12:03:10.982Z</time>
      </trkpt>
      <trkpt lat="47.24009" lon="-2.26981">
        <ele>13</ele>
        <time>2021-05-23T12:03:11.983Z</time>
      </trkpt>
      <trkpt lat="47.2401" lon="-2.26982">
        <ele>12</ele>
        <time>2021-05-23T12:03:12.983Z</time>
      </trkpt>
      <trkpt lat="47.24011" lon="-2.26984">
        <ele>12</ele>
        <time>2021-05-23T12:03:13.982Z</time>
      </trkpt>
      <trkpt lat="47.24011" lon="-2.26984">
        <ele>12</ele>
        <time>2021-05-23T12:03:14.982Z</time>
      </trkpt>
      <trkpt lat="47.24011" lon="-2.26985">
        <ele>12</ele>
        <time>2021-05-23T12:03:15.982Z</time>
      </trkpt>
      <trkpt lat="47.24012" lon="-2.26987">
        <ele>13</ele>
        <time>2021-05-23T12:03:16.983Z</time>
      </trkpt>
      <trkpt lat="47.24013" lon="-2.26988">
        <ele>13</ele>
        <time>2021-05-23T12:03:17.983Z</time>
      </trkpt>
      <trkpt lat="47.24013" lon="-2.26989">
        <ele>14</ele>
        <time>2021-05-23T12:03:18.983Z</time>
      </trkpt>
      <trkpt lat="47.24013" lon="-2.26991">
        <ele>14</ele>
        <time>2021-05-23T12:03:19.982Z</time>
      </trkpt>
      <trkpt lat="47.24014" lon="-2.26992">
        <ele>14</ele>
        <time>2021-05-23T12:03:20.982Z</time>
      </trkpt>
      <trkpt lat="47.24014" lon="-2.26994">
        <ele>14</ele>
        <time>2021-05-23T12:03:21.983Z</time>
      </trkpt>
      <trkpt lat="47.24015" lon="-2.26995">
        <ele>14</ele>
        <time>2021-05-23T12:03:22.982Z</time>
      </trkpt>
      <trkpt lat="47.24015" lon="-2.26997">
        <ele>14</ele>
        <time>2021-05-23T12:03:23.982Z</time>
      </trkpt>
      <trkpt lat="47.24016" lon="-2.26998">
        <ele>13</ele>
        <time>2021-05-23T12:03:24.982Z</time>
      </trkpt>
      <trkpt lat="47.24016" lon="-2.26999">
        <ele>13</ele>
        <time>2021-05-23T12:03:25.982Z</time>
      </trkpt>
      <trkpt lat="47.24017" lon="-2.27001">
        <ele>12</ele>
        <time>2021-05-23T12:03:26.982Z</time>
      </trkpt>
      <trkpt lat="47.24018" lon="-2.27002">
        <ele>12</ele>
        <time>2021-05-23T12:03:27.983Z</time>
      </trkpt>
      <trkpt lat="47.24018" lon="-2.27003">
        <ele>11</ele>
        <time>2021-05-23T12:03:28.982Z</time>
      </trkpt>
      <trkpt lat="47.24019" lon="-2.27004">
        <ele>11</ele>
        <time>2021-05-23T12:03:29.982Z</time>
      </trkpt>
      <trkpt lat="47.2402" lon="-2.27005">
        <ele>12</ele>
        <time>2021-05-23T12:03:30.982Z</time>
      </trkpt>
      <trkpt lat="47.24021" lon="-2.27005">
        <ele>12</ele>
        <time>2021-05-23T12:03:31.982Z</time>
      </trkpt>
      <trkpt lat="47.24022" lon="-2.27006">
        <ele>12</ele>
        <time>2021-05-23T12:03:32.983Z</time>
      </trkpt>
      <trkpt lat="47.24023" lon="-2.27007">
        <ele>12</ele>
        <time>2021-05-23T12:03:33.983Z</time>
      </trkpt>
      <trkpt lat="47.24024" lon="-2.27007">
        <ele>12</ele>
        <time>2021-05-23T12:03:34.982Z</time>
      </trkpt>
      <trkpt lat="47.24025" lon="-2.27007">
        <ele>13</ele>
        <time>2021-05-23T12:03:35.982Z</time>
      </trkpt>
      <trkpt lat="47.24026" lon="-2.27007">
        <ele>13</ele>
        <time>2021-05-23T12:03:36.983Z</time>
      </trkpt>
      <trkpt lat="47.24028" lon="-2.27006">
        <ele>14</ele>
        <time>2021-05-23T12:03:37.982Z</time>
      </trkpt>
      <trkpt lat="47.24029" lon="-2.27006">
        <ele>14</ele>
        <time>2021-05-23T12:03:38.983Z</time>
      </trkpt>
      <trkpt lat="47.2403" lon="-2.27006">
        <ele>14</ele>
        <time>2021-05-23T12:03:39.982Z</time>
      </trkpt>
      <trkpt lat="47.24031" lon="-2.27005">
        <ele>14</ele>
        <time>2021-05-23T12:03:40.982Z</time>
      </trkpt>
      <trkpt lat="47.24032" lon="-2.27005">
        <ele>14</ele>
        <time>2021-05-23T12:03:41.982Z</time>
      </trkpt>
      <trkpt lat="47.24033" lon="-2.27005">
        <ele>14</ele>
        <time>2021-05-23T12:03:42.982Z</time>
      </trkpt>
      <trkpt lat="47.24034" lon="-2.27004">
        <ele>14</ele>
        <time>2021-05-23T12:03:43.982Z</time>
      </trkpt>
      <trkpt lat="47.24034" lon="-2.27004">
        <ele>14</ele>
        <time>2021-05-23T12:03:44.982Z</time>
      </trkpt>
      <trkpt lat="47.24034" lon="-2.27004">
        <ele>13</ele>
        <time>2021-05-23T12:03:45.982Z</time>
      </trkpt>
      <trkpt lat="47.24035" lon="-2.27003">
        <ele>13</ele>
        <time>2021-05-23T12:03:46.982Z</time>
      </trkpt>
      <trkpt lat="47.24035" lon="-2.27003">
        <ele>13</ele>
        <time>2021-05-23T12:03:47.983Z</time>
      </trkpt>
      <trkpt lat="47.24035" lon="-2.27002">
        <ele>13</ele>
        <time>2021-05-23T12:03:48.982Z</time>
      </trkpt>
      <trkpt lat="47.24035" lon="-2.27002">
        <ele>13</ele>
        <time>2021-05-23T12:03:49.982Z</time>
      </trkpt>
      <trkpt lat="47.24035" lon="-2.27001">
        <ele>13</ele>
        <time>2021-05-23T12:03:50.982Z</time>
      </trkpt>
      <trkpt lat="47.24035" lon="-2.27">
        <ele>13</ele>
        <time>2021-05-23T12:03:51.982Z</time>
      </trkpt>
      <trkpt lat="47.24036" lon="-2.27">
        <ele>13</ele>
        <time>2021-05-23T12:03:52.982Z</time>
      </trkpt>
      <trkpt lat="47.24037" lon="-2.26999">
        <ele>12</ele>
        <time>2021-05-23T12:03:53.982Z</time>
      </trkpt>
      <trkpt lat="47.24038" lon="-2.26999">
        <ele>12</ele>
        <time>2021-05-23T12:03:54.982Z</time>
      </trkpt>
      <trkpt lat="47.24039" lon="-2.26999">
        <ele>12</ele>
        <time>2021-05-23T12:03:55.982Z</time>
      </trkpt>
      <trkpt lat="47.24039" lon="-2.26998">
        <ele>13</ele>
        <time>2021-05-23T12:03:56.983Z</time>
      </trkpt>
      <trkpt lat="47.2404" lon="-2.26998">
        <ele>13</ele>
        <time>2021-05-23T12:03:57.983Z</time>
      </trkpt>
      <trkpt lat="47.24041" lon="-2.26998">
        <ele>13</ele>
        <time>2021-05-23T12:03:58.982Z</time>
      </trkpt>
      <trkpt lat="47.24042" lon="-2.26997">
        <ele>13</ele>
        <time>2021-05-23T12:03:59.982Z</time>
      </trkpt>
      <trkpt lat="47.24043" lon="-2.26998">
        <ele>13</ele>
        <time>2021-05-23T12:04:00.982Z</time>
      </trkpt>
      <trkpt lat="47.24044" lon="-2.26998">
        <ele>13</ele>
        <time>2021-05-23T12:04:01.982Z</time>
      </trkpt>
      <trkpt lat="47.24046" lon="-2.26998">
        <ele>13</ele>
        <time>2021-05-23T12:04:02.982Z</time>
      </trkpt>
      <trkpt lat="47.24047" lon="-2.26998">
        <ele>13</ele>
        <time>2021-05-23T12:04:03.982Z</time>
      </trkpt>
      <trkpt lat="47.24048" lon="-2.26999">
        <ele>13</ele>
        <time>2021-05-23T12:04:04.982Z</time>
      </trkpt>
      <trkpt lat="47.24049" lon="-2.26999">
        <ele>13</ele>
        <time>2021-05-23T12:04:05.982Z</time>
      </trkpt>
      <trkpt lat="47.24049" lon="-2.27">
        <ele>13</ele>
        <time>2021-05-23T12:04:06.982Z</time>
      </trkpt>
      <trkpt lat="47.2405" lon="-2.27001">
        <ele>13</ele>
        <time>2021-05-23T12:04:07.982Z</time>
      </trkpt>
      <trkpt lat="47.24051" lon="-2.27003">
        <ele>13</ele>
        <time>2021-05-23T12:04:08.982Z</time>
      </trkpt>
      <trkpt lat="47.24052" lon="-2.27003">
        <ele>13</ele>
        <time>2021-05-23T12:04:09.983Z</time>
      </trkpt>
      <trkpt lat="47.24053" lon="-2.27004">
        <ele>13</ele>
        <time>2021-05-23T12:04:10.983Z</time>
      </trkpt>
      <trkpt lat="47.24054" lon="-2.27004">
        <ele>13</ele>
        <time>2021-05-23T12:04:11.983Z</time>
      </trkpt>
      <trkpt lat="47.24055" lon="-2.27004">
        <ele>13</ele>
        <time>2021-05-23T12:04:12.982Z</time>
      </trkpt>
      <trkpt lat="47.24056" lon="-2.27003">
        <ele>13</ele>
        <time>2021-05-23T12:04:13.983Z</time>
      </trkpt>
      <trkpt lat="47.24058" lon="-2.27003">
        <ele>13</ele>
        <time>2021-05-23T12:04:14.982Z</time>
      </trkpt>
      <trkpt lat="47.24059" lon="-2.27003">
        <ele>13</ele>
        <time>2021-05-23T12:04:15.983Z</time>
      </trkpt>
      <trkpt lat="47.2406" lon="-2.27002">
        <ele>12</ele>
        <time>2021-05-23T12:04:16.983Z</time>
      </trkpt>
      <trkpt lat="47.24061" lon="-2.27002">
        <ele>12</ele>
        <time>2021-05-23T12:04:17.983Z</time>
      </trkpt>
      <trkpt lat="47.24062" lon="-2.27001">
        <ele>12</ele>
        <time>2021-05-23T12:04:18.982Z</time>
      </trkpt>
      <trkpt lat="47.24063" lon="-2.27001">
        <ele>12</ele>
        <time>2021-05-23T12:04:19.982Z</time>
      </trkpt>
      <trkpt lat="47.24065" lon="-2.27">
        <ele>11</ele>
        <time>2021-05-23T12:04:20.982Z</time>
      </trkpt>
      <trkpt lat="47.24066" lon="-2.26999">
        <ele>11</ele>
        <time>2021-05-23T12:04:21.983Z</time>
      </trkpt>
      <trkpt lat="47.24067" lon="-2.26999">
        <ele>11</ele>
        <time>2021-05-23T12:04:22.982Z</time>
      </trkpt>
      <trkpt lat="47.24068" lon="-2.26999">
        <ele>10</ele>
        <time>2021-05-23T12:04:23.982Z</time>
      </trkpt>
      <trkpt lat="47.24069" lon="-2.26998">
        <ele>10</ele>
        <time>2021-05-23T12:04:24.983Z</time>
      </trkpt>
      <trkpt lat="47.24071" lon="-2.26998">
        <ele>10</ele>
        <time>2021-05-23T12:04:25.983Z</time>
      </trkpt>
      <trkpt lat="47.24072" lon="-2.26997">
        <ele>11</ele>
        <time>2021-05-23T12:04:26.982Z</time>
      </trkpt>
      <trkpt lat="47.24073" lon="-2.26997">
        <ele>11</ele>
        <time>2021-05-23T12:04:27.982Z</time>
      </trkpt>
      <trkpt lat="47.24074" lon="-2.26997">
        <ele>11</ele>
        <time>2021-05-23T12:04:28.982Z</time>
      </trkpt>
      <trkpt lat="47.24075" lon="-2.26997">
        <ele>11</ele>
        <time>2021-05-23T12:04:29.983Z</time>
      </trkpt>
      <trkpt lat="47.24077" lon="-2.26996">
        <ele>11</ele>
        <time>2021-05-23T12:04:30.983Z</time>
      </trkpt>
      <trkpt lat="47.24078" lon="-2.26996">
        <ele>10</ele>
        <time>2021-05-23T12:04:31.982Z</time>
      </trkpt>
      <trkpt lat="47.24079" lon="-2.26996">
        <ele>10</ele>
        <time>2021-05-23T12:04:32.983Z</time>
      </trkpt>
      <trkpt lat="47.2408" lon="-2.26996">
        <ele>10</ele>
        <time>2021-05-23T12:04:33.982Z</time>
      </trkpt>
      <trkpt lat="47.24081" lon="-2.26996">
        <ele>10</ele>
        <time>2021-05-23T12:04:34.983Z</time>
      </trkpt>
      <trkpt lat="47.24082" lon="-2.26996">
        <ele>10</ele>
        <time>2021-05-23T12:04:35.982Z</time>
      </trkpt>
      <trkpt lat="47.24083" lon="-2.26996">
        <ele>11</ele>
        <time>2021-05-23T12:04:36.982Z</time>
      </trkpt>
      <trkpt lat="47.24084" lon="-2.26996">
        <ele>11</ele>
        <time>2021-05-23T12:04:37.982Z</time>
      </trkpt>
      <trkpt lat="47.24084" lon="-2.26997">
        <ele>12</ele>
        <time>2021-05-23T12:04:38.982Z</time>
      </trkpt>
      <trkpt lat="47.24085" lon="-2.26998">
        <ele>13</ele>
        <time>2021-05-23T12:04:39.982Z</time>
      </trkpt>
      <trkpt lat="47.24086" lon="-2.26999">
        <ele>14</ele>
        <time>2021-05-23T12:04:40.983Z</time>
      </trkpt>
      <trkpt lat="47.24086" lon="-2.27001">
        <ele>14</ele>
        <time>2021-05-23T12:04:41.983Z</time>
      </trkpt>
      <trkpt lat="47.24087" lon="-2.27002">
        <ele>14</ele>
        <time>2021-05-23T12:04:42.983Z</time>
      </trkpt>
      <trkpt lat="47.24087" lon="-2.27003">
        <ele>14</ele>
        <time>2021-05-23T12:04:43.983Z</time>
      </trkpt>
      <trkpt lat="47.24087" lon="-2.27004">
        <ele>14</ele>
        <time>2021-05-23T12:04:44.983Z</time>
      </trkpt>
      <trkpt lat="47.24088" lon="-2.27006">
        <ele>14</ele>
        <time>2021-05-23T12:04:45.983Z</time>
      </trkpt>
      <trkpt lat="47.24087" lon="-2.27007">
        <ele>14</ele>
        <time>2021-05-23T12:04:46.983Z</time>
      </trkpt>
      <trkpt lat="47.24087" lon="-2.27009">
        <ele>14</ele>
        <time>2021-05-23T12:04:47.983Z</time>
      </trkpt>
      <trkpt lat="47.24087" lon="-2.2701">
        <ele>14</ele>
        <time>2021-05-23T12:04:48.983Z</time>
      </trkpt>
      <trkpt lat="47.24087" lon="-2.27012">
        <ele>14</ele>
        <time>2021-05-23T12:04:49.982Z</time>
      </trkpt>
      <trkpt lat="47.24087" lon="-2.27014">
        <ele>14</ele>
        <time>2021-05-23T12:04:50.983Z</time>
      </trkpt>
      <trkpt lat="47.24087" lon="-2.27015">
        <ele>14</ele>
        <time>2021-05-23T12:04:51.982Z</time>
      </trkpt>
      <trkpt lat="47.24087" lon="-2.27017">
        <ele>14</ele>
        <time>2021-05-23T12:04:52.983Z</time>
      </trkpt>
      <trkpt lat="47.24087" lon="-2.27018">
        <ele>14</ele>
        <time>2021-05-23T12:04:53.983Z</time>
      </trkpt>
      <trkpt lat="47.24087" lon="-2.2702">
        <ele>14</ele>
        <time>2021-05-23T12:04:54.982Z</time>
      </trkpt>
      <trkpt lat="47.24088" lon="-2.27021">
        <ele>14</ele>
        <time>2021-05-23T12:04:55.982Z</time>
      </trkpt>
      <trkpt lat="47.24089" lon="-2.27022">
        <ele>14</ele>
        <time>2021-05-23T12:04:56.983Z</time>
      </trkpt>
      <trkpt lat="47.24089" lon="-2.27023">
        <ele>15</ele>
        <time>2021-05-23T12:04:57.983Z</time>
      </trkpt>
      <trkpt lat="47.2409" lon="-2.27024">
        <ele>16</ele>
        <time>2021-05-23T12:04:58.983Z</time>
      </trkpt>
      <trkpt lat="47.24091" lon="-2.27025">
        <ele>16</ele>
        <time>2021-05-23T12:04:59.982Z</time>
      </trkpt>
      <trkpt lat="47.24092" lon="-2.27025">
        <ele>17</ele>
        <time>2021-05-23T12:05:00.982Z</time>
      </trkpt>
      <trkpt lat="47.24094" lon="-2.27024">
        <ele>18</ele>
        <time>2021-05-23T12:05:01.983Z</time>
      </trkpt>
      <trkpt lat="47.24095" lon="-2.27024">
        <ele>18</ele>
        <time>2021-05-23T12:05:02.983Z</time>
      </trkpt>
      <trkpt lat="47.24097" lon="-2.27022">
        <ele>18</ele>
        <time>2021-05-23T12:05:03.982Z</time>
      </trkpt>
      <trkpt lat="47.24097" lon="-2.2702">
        <ele>18</ele>
        <time>2021-05-23T12:05:04.982Z</time>
      </trkpt>
      <trkpt lat="47.24098" lon="-2.27018">
        <ele>19</ele>
        <time>2021-05-23T12:05:05.983Z</time>
      </trkpt>
      <trkpt lat="47.24099" lon="-2.27016">
        <ele>19</ele>
        <time>2021-05-23T12:05:06.982Z</time>
      </trkpt>
      <trkpt lat="47.24099" lon="-2.27015">
        <ele>19</ele>
        <time>2021-05-23T12:05:07.983Z</time>
      </trkpt>
      <trkpt lat="47.241" lon="-2.27013">
        <ele>19</ele>
        <time>2021-05-23T12:05:08.983Z</time>
      </trkpt>
      <trkpt lat="47.24101" lon="-2.27011">
        <ele>19</ele>
        <time>2021-05-23T12:05:09.983Z</time>
      </trkpt>
      <trkpt lat="47.24101" lon="-2.2701">
        <ele>18</ele>
        <time>2021-05-23T12:05:10.983Z</time>
      </trkpt>
      <trkpt lat="47.24101" lon="-2.27008">
        <ele>18</ele>
        <time>2021-05-23T12:05:11.983Z</time>
      </trkpt>
      <trkpt lat="47.24101" lon="-2.27006">
        <ele>18</ele>
        <time>2021-05-23T12:05:12.982Z</time>
      </trkpt>
      <trkpt lat="47.24102" lon="-2.27005">
        <ele>18</ele>
        <time>2021-05-23T12:05:13.982Z</time>
      </trkpt>
      <trkpt lat="47.24103" lon="-2.27003">
        <ele>18</ele>
        <time>2021-05-23T12:05:14.983Z</time>
      </trkpt>
      <trkpt lat="47.24103" lon="-2.27002">
        <ele>18</ele>
        <time>2021-05-23T12:05:15.982Z</time>
      </trkpt>
      <trkpt lat="47.24103" lon="-2.27">
        <ele>18</ele>
        <time>2021-05-23T12:05:16.983Z</time>
      </trkpt>
      <trkpt lat="47.24103" lon="-2.26999">
        <ele>19</ele>
        <time>2021-05-23T12:05:17.982Z</time>
      </trkpt>
      <trkpt lat="47.24103" lon="-2.26997">
        <ele>19</ele>
        <time>2021-05-23T12:05:18.982Z</time>
      </trkpt>
      <trkpt lat="47.24103" lon="-2.26996">
        <ele>19</ele>
        <time>2021-05-23T12:05:19.982Z</time>
      </trkpt>
      <trkpt lat="47.24103" lon="-2.26994">
        <ele>19</ele>
        <time>2021-05-23T12:05:20.983Z</time>
      </trkpt>
      <trkpt lat="47.24103" lon="-2.26993">
        <ele>18</ele>
        <time>2021-05-23T12:05:21.982Z</time>
      </trkpt>
      <trkpt lat="47.24103" lon="-2.26991">
        <ele>19</ele>
        <time>2021-05-23T12:05:22.983Z</time>
      </trkpt>
      <trkpt lat="47.24103" lon="-2.26989">
        <ele>19</ele>
        <time>2021-05-23T12:05:23.983Z</time>
      </trkpt>
      <trkpt lat="47.24103" lon="-2.26987">
        <ele>19</ele>
        <time>2021-05-23T12:05:24.982Z</time>
      </trkpt>
      <trkpt lat="47.24103" lon="-2.26985">
        <ele>19</ele>
        <time>2021-05-23T12:05:25.983Z</time>
      </trkpt>
      <trkpt lat="47.24103" lon="-2.26983">
        <ele>19</ele>
        <time>2021-05-23T12:05:26.983Z</time>
      </trkpt>
      <trkpt lat="47.24103" lon="-2.26981">
        <ele>19</ele>
        <time>2021-05-23T12:05:27.983Z</time>
      </trkpt>
      <trkpt lat="47.24103" lon="-2.26979">
        <ele>19</ele>
        <time>2021-05-23T12:05:28.983Z</time>
      </trkpt>
      <trkpt lat="47.24103" lon="-2.26977">
        <ele>19</ele>
        <time>2021-05-23T12:05:29.982Z</time>
      </trkpt>
      <trkpt lat="47.24102" lon="-2.26975">
        <ele>19</ele>
        <time>2021-05-23T12:05:30.983Z</time>
      </trkpt>
      <trkpt lat="47.24101" lon="-2.26973">
        <ele>18</ele>
        <time>2021-05-23T12:05:31.983Z</time>
      </trkpt>
      <trkpt lat="47.241" lon="-2.26971">
        <ele>18</ele>
        <time>2021-05-23T12:05:32.982Z</time>
      </trkpt>
      <trkpt lat="47.241" lon="-2.26969">
        <ele>17</ele>
        <time>2021-05-23T12:05:33.983Z</time>
      </trkpt>
      <trkpt lat="47.241" lon="-2.26967">
        <ele>17</ele>
        <time>2021-05-23T12:05:34.983Z</time>
      </trkpt>
      <trkpt lat="47.241" lon="-2.26966">
        <ele>17</ele>
        <time>2021-05-23T12:05:35.982Z</time>
      </trkpt>
      <trkpt lat="47.24099" lon="-2.26964">
        <ele>17</ele>
        <time>2021-05-23T12:05:36.982Z</time>
      </trkpt>
      <trkpt lat="47.24099" lon="-2.26962">
        <ele>17</ele>
        <time>2021-05-23T12:05:37.982Z</time>
      </trkpt>
      <trkpt lat="47.241" lon="-2.2696">
        <ele>17</ele>
        <time>2021-05-23T12:05:38.983Z</time>
      </trkpt>
      <trkpt lat="47.241" lon="-2.26958">
        <ele>18</ele>
        <time>2021-05-23T12:05:39.982Z</time>
      </trkpt>
      <trkpt lat="47.241" lon="-2.26956">
        <ele>18</ele>
        <time>2021-05-23T12:05:40.982Z</time>
      </trkpt>
      <trkpt lat="47.24099" lon="-2.26955">
        <ele>18</ele>
        <time>2021-05-23T12:05:41.983Z</time>
      </trkpt>
      <trkpt lat="47.24099" lon="-2.26953">
        <ele>18</ele>
        <time>2021-05-23T12:05:42.983Z</time>
      </trkpt>
      <trkpt lat="47.24099" lon="-2.26951">
        <ele>18</ele>
        <time>2021-05-23T12:05:43.983Z</time>
      </trkpt>
      <trkpt lat="47.24099" lon="-2.26949">
        <ele>18</ele>
        <time>2021-05-23T12:05:44.983Z</time>
      </trkpt>
      <trkpt lat="47.24099" lon="-2.26947">
        <ele>18</ele>
        <time>2021-05-23T12:05:45.983Z</time>
      </trkpt>
      <trkpt lat="47.24099" lon="-2.26945">
        <ele>18</ele>
        <time>2021-05-23T12:05:46.982Z</time>
      </trkpt>
      <trkpt lat="47.241" lon="-2.26943">
        <ele>18</ele>
        <time>2021-05-23T12:05:47.982Z</time>
      </trkpt>
      <trkpt lat="47.24099" lon="-2.26941">
        <ele>19</ele>
        <time>2021-05-23T12:05:48.983Z</time>
      </trkpt>
      <trkpt lat="47.241" lon="-2.26939">
        <ele>19</ele>
        <time>2021-05-23T12:05:49.982Z</time>
      </trkpt>
      <trkpt lat="47.241" lon="-2.26937">
        <ele>19</ele>
        <time>2021-05-23T12:05:50.983Z</time>
      </trkpt>
      <trkpt lat="47.241" lon="-2.26936">
        <ele>19</ele>
        <time>2021-05-23T12:05:51.982Z</time>
      </trkpt>
      <trkpt lat="47.241" lon="-2.26934">
        <ele>19</ele>
        <time>2021-05-23T12:05:52.982Z</time>
      </trkpt>
      <trkpt lat="47.241" lon="-2.26932">
        <ele>19</ele>
        <time>2021-05-23T12:05:53.982Z</time>
      </trkpt>
      <trkpt lat="47.241" lon="-2.2693">
        <ele>19</ele>
        <time>2021-05-23T12:05:54.982Z</time>
      </trkpt>
      <trkpt lat="47.24101" lon="-2.26928">
        <ele>20</ele>
        <time>2021-05-23T12:05:55.983Z</time>
      </trkpt>
      <trkpt lat="47.24101" lon="-2.26926">
        <ele>20</ele>
        <time>2021-05-23T12:05:56.982Z</time>
      </trkpt>
      <trkpt lat="47.24101" lon="-2.26924">
        <ele>20</ele>
        <time>2021-05-23T12:05:57.982Z</time>
      </trkpt>
      <trkpt lat="47.24101" lon="-2.26923">
        <ele>20</ele>
        <time>2021-05-23T12:05:58.983Z</time>
      </trkpt>
      <trkpt lat="47.24101" lon="-2.26921">
        <ele>21</ele>
        <time>2021-05-23T12:05:59.982Z</time>
      </trkpt>
      <trkpt lat="47.24102" lon="-2.2692">
        <ele>21</ele>
        <time>2021-05-23T12:06:00.983Z</time>
      </trkpt>
      <trkpt lat="47.24102" lon="-2.26919">
        <ele>21</ele>
        <time>2021-05-23T12:06:01.983Z</time>
      </trkpt>
      <trkpt lat="47.24102" lon="-2.26918">
        <ele>21</ele>
        <time>2021-05-23T12:06:02.982Z</time>
      </trkpt>
      <trkpt lat="47.24101" lon="-2.26916">
        <ele>21</ele>
        <time>2021-05-23T12:06:03.983Z</time>
      </trkpt>
      <trkpt lat="47.241" lon="-2.26914">
        <ele>21</ele>
        <time>2021-05-23T12:06:04.982Z</time>
      </trkpt>
      <trkpt lat="47.241" lon="-2.26912">
        <ele>21</ele>
        <time>2021-05-23T12:06:05.983Z</time>
      </trkpt>
      <trkpt lat="47.24101" lon="-2.26911">
        <ele>21</ele>
        <time>2021-05-23T12:06:06.983Z</time>
      </trkpt>
      <trkpt lat="47.24101" lon="-2.26909">
        <ele>21</ele>
        <time>2021-05-23T12:06:07.982Z</time>
      </trkpt>
      <trkpt lat="47.24101" lon="-2.26908">
        <ele>21</ele>
        <time>2021-05-23T12:06:08.983Z</time>
      </trkpt>
      <trkpt lat="47.24101" lon="-2.26906">
        <ele>21</ele>
        <time>2021-05-23T12:06:09.983Z</time>
      </trkpt>
      <trkpt lat="47.24101" lon="-2.26905">
        <ele>21</ele>
        <time>2021-05-23T12:06:10.983Z</time>
      </trkpt>
      <trkpt lat="47.24101" lon="-2.26903">
        <ele>21</ele>
        <time>2021-05-23T12:06:11.982Z</time>
      </trkpt>
      <trkpt lat="47.24102" lon="-2.26901">
        <ele>21</ele>
        <time>2021-05-23T12:06:12.982Z</time>
      </trkpt>
      <trkpt lat="47.24102" lon="-2.26899">
        <ele>21</ele>
        <time>2021-05-23T12:06:13.983Z</time>
      </trkpt>
      <trkpt lat="47.24102" lon="-2.26897">
        <ele>21</ele>
        <time>2021-05-23T12:06:14.982Z</time>
      </trkpt>
      <trkpt lat="47.24102" lon="-2.26895">
        <ele>21</ele>
        <time>2021-05-23T12:06:15.983Z</time>
      </trkpt>
      <trkpt lat="47.24101" lon="-2.26893">
        <ele>21</ele>
        <time>2021-05-23T12:06:16.982Z</time>
      </trkpt>
      <trkpt lat="47.24101" lon="-2.26891">
        <ele>21</ele>
        <time>2021-05-23T12:06:17.983Z</time>
      </trkpt>
      <trkpt lat="47.24101" lon="-2.2689">
        <ele>22</ele>
        <time>2021-05-23T12:06:18.982Z</time>
      </trkpt>
      <trkpt lat="47.24101" lon="-2.26888">
        <ele>23</ele>
        <time>2021-05-23T12:06:19.982Z</time>
      </trkpt>
      <trkpt lat="47.24101" lon="-2.26885">
        <ele>23</ele>
        <time>2021-05-23T12:06:20.983Z</time>
      </trkpt>
      <trkpt lat="47.24101" lon="-2.26884">
        <ele>24</ele>
        <time>2021-05-23T12:06:21.982Z</time>
      </trkpt>
      <trkpt lat="47.24102" lon="-2.26881">
        <ele>24</ele>
        <time>2021-05-23T12:06:22.983Z</time>
      </trkpt>
      <trkpt lat="47.24102" lon="-2.2688">
        <ele>25</ele>
        <time>2021-05-23T12:06:23.983Z</time>
      </trkpt>
      <trkpt lat="47.24102" lon="-2.26878">
        <ele>25</ele>
        <time>2021-05-23T12:06:24.983Z</time>
      </trkpt>
      <trkpt lat="47.24103" lon="-2.26876">
        <ele>25</ele>
        <time>2021-05-23T12:06:25.983Z</time>
      </trkpt>
      <trkpt lat="47.24103" lon="-2.26874">
        <ele>25</ele>
        <time>2021-05-23T12:06:26.983Z</time>
      </trkpt>
      <trkpt lat="47.24103" lon="-2.26872">
        <ele>26</ele>
        <time>2021-05-23T12:06:27.983Z</time>
      </trkpt>
      <trkpt lat="47.24103" lon="-2.26871">
        <ele>26</ele>
        <time>2021-05-23T12:06:28.983Z</time>
      </trkpt>
      <trkpt lat="47.24103" lon="-2.26869">
        <ele>26</ele>
        <time>2021-05-23T12:06:29.982Z</time>
      </trkpt>
      <trkpt lat="47.24103" lon="-2.26867">
        <ele>26</ele>
        <time>2021-05-23T12:06:30.982Z</time>
      </trkpt>
      <trkpt lat="47.24104" lon="-2.26865">
        <ele>26</ele>
        <time>2021-05-23T12:06:31.983Z</time>
      </trkpt>
      <trkpt lat="47.24105" lon="-2.26863">
        <ele>26</ele>
        <time>2021-05-23T12:06:32.983Z</time>
      </trkpt>
      <trkpt lat="47.24105" lon="-2.26861">
        <ele>26</ele>
        <time>2021-05-23T12:06:33.982Z</time>
      </trkpt>
      <trkpt lat="47.24105" lon="-2.26859">
        <ele>26</ele>
        <time>2021-05-23T12:06:34.982Z</time>
      </trkpt>
      <trkpt lat="47.24105" lon="-2.26857">
        <ele>26</ele>
        <time>2021-05-23T12:06:35.982Z</time>
      </trkpt>
      <trkpt lat="47.24105" lon="-2.26855">
        <ele>25</ele>
        <time>2021-05-23T12:06:36.982Z</time>
      </trkpt>
      <trkpt lat="47.24105" lon="-2.26853">
        <ele>26</ele>
        <time>2021-05-23T12:06:37.983Z</time>
      </trkpt>
      <trkpt lat="47.24105" lon="-2.26851">
        <ele>26</ele>
        <time>2021-05-23T12:06:38.982Z</time>
      </trkpt>
      <trkpt lat="47.24105" lon="-2.26849">
        <ele>25</ele>
        <time>2021-05-23T12:06:39.982Z</time>
      </trkpt>
      <trkpt lat="47.24105" lon="-2.26846">
        <ele>26</ele>
        <time>2021-05-23T12:06:40.983Z</time>
      </trkpt>
      <trkpt lat="47.24105" lon="-2.26844">
        <ele>26</ele>
        <time>2021-05-23T12:06:41.982Z</time>
      </trkpt>
      <trkpt lat="47.24105" lon="-2.26842">
        <ele>26</ele>
        <time>2021-05-23T12:06:42.982Z</time>
      </trkpt>
      <trkpt lat="47.24105" lon="-2.2684">
        <ele>26</ele>
        <time>2021-05-23T12:06:43.982Z</time>
      </trkpt>
      <trkpt lat="47.24105" lon="-2.26838">
        <ele>26</ele>
        <time>2021-05-23T12:06:44.983Z</time>
      </trkpt>
      <trkpt lat="47.24106" lon="-2.26836">
        <ele>26</ele>
        <time>2021-05-23T12:06:45.982Z</time>
      </trkpt>
      <trkpt lat="47.24106" lon="-2.26835">
        <ele>26</ele>
        <time>2021-05-23T12:06:46.982Z</time>
      </trkpt>
      <trkpt lat="47.24107" lon="-2.26833">
        <ele>26</ele>
        <time>2021-05-23T12:06:47.983Z</time>
      </trkpt>
      <trkpt lat="47.24108" lon="-2.26831">
        <ele>26</ele>
        <time>2021-05-23T12:06:48.982Z</time>
      </trkpt>
      <trkpt lat="47.24108" lon="-2.26829">
        <ele>26</ele>
        <time>2021-05-23T12:06:49.982Z</time>
      </trkpt>
      <trkpt lat="47.24108" lon="-2.26827">
        <ele>26</ele>
        <time>2021-05-23T12:06:50.982Z</time>
      </trkpt>
      <trkpt lat="47.24108" lon="-2.26825">
        <ele>27</ele>
        <time>2021-05-23T12:06:51.983Z</time>
      </trkpt>
      <trkpt lat="47.24108" lon="-2.26823">
        <ele>27</ele>
        <time>2021-05-23T12:06:52.982Z</time>
      </trkpt>
      <trkpt lat="47.24108" lon="-2.26822">
        <ele>27</ele>
        <time>2021-05-23T12:06:53.982Z</time>
      </trkpt>
      <trkpt lat="47.24108" lon="-2.2682">
        <ele>27</ele>
        <time>2021-05-23T12:06:54.982Z</time>
      </trkpt>
      <trkpt lat="47.24108" lon="-2.26817">
        <ele>27</ele>
        <time>2021-05-23T12:06:55.983Z</time>
      </trkpt>
      <trkpt lat="47.24108" lon="-2.26815">
        <ele>26</ele>
        <time>2021-05-23T12:06:56.983Z</time>
      </trkpt>
      <trkpt lat="47.24108" lon="-2.26813">
        <ele>26</ele>
        <time>2021-05-23T12:06:57.982Z</time>
      </trkpt>
      <trkpt lat="47.24108" lon="-2.26812">
        <ele>26</ele>
        <time>2021-05-23T12:06:58.982Z</time>
      </trkpt>
      <trkpt lat="47.24108" lon="-2.2681">
        <ele>26</ele>
        <time>2021-05-23T12:06:59.982Z</time>
      </trkpt>
      <trkpt lat="47.24108" lon="-2.26808">
        <ele>26</ele>
        <time>2021-05-23T12:07:00.983Z</time>
      </trkpt>
      <trkpt lat="47.24108" lon="-2.26807">
        <ele>27</ele>
        <time>2021-05-23T12:07:01.983Z</time>
      </trkpt>
      <trkpt lat="47.24109" lon="-2.26805">
        <ele>27</ele>
        <time>2021-05-23T12:07:02.982Z</time>
      </trkpt>
      <trkpt lat="47.24109" lon="-2.26803">
        <ele>28</ele>
        <time>2021-05-23T12:07:03.982Z</time>
      </trkpt>
      <trkpt lat="47.24109" lon="-2.26802">
        <ele>28</ele>
        <time>2021-05-23T12:07:04.983Z</time>
      </trkpt>
      <trkpt lat="47.24109" lon="-2.268">
        <ele>28</ele>
        <time>2021-05-23T12:07:05.982Z</time>
      </trkpt>
      <trkpt lat="47.24109" lon="-2.26799">
        <ele>28</ele>
        <time>2021-05-23T12:07:06.982Z</time>
      </trkpt>
      <trkpt lat="47.24109" lon="-2.26797">
        <ele>28</ele>
        <time>2021-05-23T12:07:07.982Z</time>
      </trkpt>
      <trkpt lat="47.2411" lon="-2.26795">
        <ele>28</ele>
        <time>2021-05-23T12:07:08.983Z</time>
      </trkpt>
      <trkpt lat="47.2411" lon="-2.26792">
        <ele>28</ele>
        <time>2021-05-23T12:07:09.982Z</time>
      </trkpt>
      <trkpt lat="47.24111" lon="-2.26791">
        <ele>28</ele>
        <time>2021-05-23T12:07:10.982Z</time>
      </trkpt>
      <trkpt lat="47.24112" lon="-2.26789">
        <ele>28</ele>
        <time>2021-05-23T12:07:11.982Z</time>
      </trkpt>
      <trkpt lat="47.24112" lon="-2.26787">
        <ele>29</ele>
        <time>2021-05-23T12:07:12.982Z</time>
      </trkpt>
      <trkpt lat="47.24112" lon="-2.26785">
        <ele>29</ele>
        <time>2021-05-23T12:07:13.982Z</time>
      </trkpt>
      <trkpt lat="47.24112" lon="-2.26783">
        <ele>29</ele>
        <time>2021-05-23T12:07:14.982Z</time>
      </trkpt>
      <trkpt lat="47.24112" lon="-2.2678">
        <ele>29</ele>
        <time>2021-05-23T12:07:15.982Z</time>
      </trkpt>
      <trkpt lat="47.24112" lon="-2.26779">
        <ele>29</ele>
        <time>2021-05-23T12:07:16.982Z</time>
      </trkpt>
      <trkpt lat="47.24113" lon="-2.26778">
        <ele>29</ele>
        <time>2021-05-23T12:07:17.982Z</time>
      </trkpt>
      <trkpt lat="47.24113" lon="-2.26776">
        <ele>29</ele>
        <time>2021-05-23T12:07:18.982Z</time>
      </trkpt>
      <trkpt lat="47.24113" lon="-2.26774">
        <ele>29</ele>
        <time>2021-05-23T12:07:19.982Z</time>
      </trkpt>
      <trkpt lat="47.24114" lon="-2.26772">
        <ele>29</ele>
        <time>2021-05-23T12:07:20.982Z</time>
      </trkpt>
      <trkpt lat="47.24114" lon="-2.26771">
        <ele>29</ele>
        <time>2021-05-23T12:07:21.982Z</time>
      </trkpt>
      <trkpt lat="47.24114" lon="-2.26769">
        <ele>29</ele>
        <time>2021-05-23T12:07:22.983Z</time>
      </trkpt>
      <trkpt lat="47.24115" lon="-2.26767">
        <ele>30</ele>
        <time>2021-05-23T12:07:23.983Z</time>
      </trkpt>
      <trkpt lat="47.24115" lon="-2.26766">
        <ele>30</ele>
        <time>2021-05-23T12:07:24.982Z</time>
      </trkpt>
      <trkpt lat="47.24115" lon="-2.26764">
        <ele>31</ele>
        <time>2021-05-23T12:07:25.983Z</time>
      </trkpt>
      <trkpt lat="47.24115" lon="-2.26762">
        <ele>31</ele>
        <time>2021-05-23T12:07:26.983Z</time>
      </trkpt>
      <trkpt lat="47.24116" lon="-2.2676">
        <ele>31</ele>
        <time>2021-05-23T12:07:27.982Z</time>
      </trkpt>
      <trkpt lat="47.24116" lon="-2.26758">
        <ele>31</ele>
        <time>2021-05-23T12:07:28.983Z</time>
      </trkpt>
      <trkpt lat="47.24117" lon="-2.26757">
        <ele>32</ele>
        <time>2021-05-23T12:07:29.983Z</time>
      </trkpt>
      <trkpt lat="47.24117" lon="-2.26755">
        <ele>32</ele>
        <time>2021-05-23T12:07:30.982Z</time>
      </trkpt>
      <trkpt lat="47.24118" lon="-2.26753">
        <ele>32</ele>
        <time>2021-05-23T12:07:31.982Z</time>
      </trkpt>
      <trkpt lat="47.24118" lon="-2.26751">
        <ele>32</ele>
        <time>2021-05-23T12:07:32.983Z</time>
      </trkpt>
      <trkpt lat="47.24119" lon="-2.26749">
        <ele>32</ele>
        <time>2021-05-23T12:07:33.983Z</time>
      </trkpt>
      <trkpt lat="47.24119" lon="-2.26747">
        <ele>32</ele>
        <time>2021-05-23T12:07:34.982Z</time>
      </trkpt>
      <trkpt lat="47.24118" lon="-2.26745">
        <ele>32</ele>
        <time>2021-05-23T12:07:35.982Z</time>
      </trkpt>
      <trkpt lat="47.24118" lon="-2.26743">
        <ele>32</ele>
        <time>2021-05-23T12:07:36.983Z</time>
      </trkpt>
      <trkpt lat="47.24118" lon="-2.26741">
        <ele>33</ele>
        <time>2021-05-23T12:07:37.983Z</time>
      </trkpt>
      <trkpt lat="47.24118" lon="-2.26739">
        <ele>33</ele>
        <time>2021-05-23T12:07:38.982Z</time>
      </trkpt>
      <trkpt lat="47.24118" lon="-2.26737">
        <ele>33</ele>
        <time>2021-05-23T12:07:39.983Z</time>
      </trkpt>
      <trkpt lat="47.24118" lon="-2.26734">
        <ele>33</ele>
        <time>2021-05-23T12:07:40.982Z</time>
      </trkpt>
      <trkpt lat="47.24118" lon="-2.26732">
        <ele>32</ele>
        <time>2021-05-23T12:07:41.983Z</time>
      </trkpt>
      <trkpt lat="47.24119" lon="-2.2673">
        <ele>32</ele>
        <time>2021-05-23T12:07:42.983Z</time>
      </trkpt>
      <trkpt lat="47.24119" lon="-2.26728">
        <ele>31</ele>
        <time>2021-05-23T12:07:43.983Z</time>
      </trkpt>
      <trkpt lat="47.2412" lon="-2.26726">
        <ele>31</ele>
        <time>2021-05-23T12:07:44.983Z</time>
      </trkpt>
      <trkpt lat="47.2412" lon="-2.26723">
        <ele>30</ele>
        <time>2021-05-23T12:07:45.983Z</time>
      </trkpt>
      <trkpt lat="47.2412" lon="-2.2672">
        <ele>30</ele>
        <time>2021-05-23T12:07:46.982Z</time>
      </trkpt>
      <trkpt lat="47.2412" lon="-2.26717">
        <ele>30</ele>
        <time>2021-05-23T12:07:47.982Z</time>
      </trkpt>
      <trkpt lat="47.24121" lon="-2.26714">
        <ele>30</ele>
        <time>2021-05-23T12:07:48.982Z</time>
      </trkpt>
      <trkpt lat="47.24122" lon="-2.26712">
        <ele>30</ele>
        <time>2021-05-23T12:07:49.983Z</time>
      </trkpt>
      <trkpt lat="47.24122" lon="-2.26709">
        <ele>30</ele>
        <time>2021-05-23T12:07:50.982Z</time>
      </trkpt>
      <trkpt lat="47.24123" lon="-2.26706">
        <ele>30</ele>
        <time>2021-05-23T12:07:51.982Z</time>
      </trkpt>
      <trkpt lat="47.24123" lon="-2.26704">
        <ele>30</ele>
        <time>2021-05-23T12:07:52.983Z</time>
      </trkpt>
      <trkpt lat="47.24123" lon="-2.26701">
        <ele>30</ele>
        <time>2021-05-23T12:07:53.982Z</time>
      </trkpt>
      <trkpt lat="47.24123" lon="-2.26698">
        <ele>30</ele>
        <time>2021-05-23T12:07:54.982Z</time>
      </trkpt>
      <trkpt lat="47.24124" lon="-2.26695">
        <ele>30</ele>
        <time>2021-05-23T12:07:55.982Z</time>
      </trkpt>
      <trkpt lat="47.24125" lon="-2.26692">
        <ele>30</ele>
        <time>2021-05-23T12:07:56.983Z</time>
      </trkpt>
      <trkpt lat="47.24126" lon="-2.2669">
        <ele>30</ele>
        <time>2021-05-23T12:07:57.983Z</time>
      </trkpt>
      <trkpt lat="47.24126" lon="-2.26687">
        <ele>29</ele>
        <time>2021-05-23T12:07:58.983Z</time>
      </trkpt>
      <trkpt lat="47.24127" lon="-2.26684">
        <ele>29</ele>
        <time>2021-05-23T12:07:59.983Z</time>
      </trkpt>
      <trkpt lat="47.24128" lon="-2.26681">
        <ele>29</ele>
        <time>2021-05-23T12:08:00.983Z</time>
      </trkpt>
      <trkpt lat="47.24129" lon="-2.26679">
        <ele>29</ele>
        <time>2021-05-23T12:08:01.982Z</time>
      </trkpt>
      <trkpt lat="47.2413" lon="-2.26676">
        <ele>30</ele>
        <time>2021-05-23T12:08:02.982Z</time>
      </trkpt>
      <trkpt lat="47.24131" lon="-2.26673">
        <ele>30</ele>
        <time>2021-05-23T12:08:03.983Z</time>
      </trkpt>
      <trkpt lat="47.24131" lon="-2.2667">
        <ele>30</ele>
        <time>2021-05-23T12:08:04.983Z</time>
      </trkpt>
      <trkpt lat="47.24132" lon="-2.26667">
        <ele>30</ele>
        <time>2021-05-23T12:08:05.982Z</time>
      </trkpt>
      <trkpt lat="47.24132" lon="-2.26664">
        <ele>30</ele>
        <time>2021-05-23T12:08:06.983Z</time>
      </trkpt>
      <trkpt lat="47.24133" lon="-2.26662">
        <ele>30</ele>
        <time>2021-05-23T12:08:07.982Z</time>
      </trkpt>
      <trkpt lat="47.24134" lon="-2.26659">
        <ele>29</ele>
        <time>2021-05-23T12:08:08.982Z</time>
      </trkpt>
      <trkpt lat="47.24135" lon="-2.26657">
        <ele>29</ele>
        <time>2021-05-23T12:08:09.982Z</time>
      </trkpt>
      <trkpt lat="47.24137" lon="-2.26654">
        <ele>29</ele>
        <time>2021-05-23T12:08:10.982Z</time>
      </trkpt>
      <trkpt lat="47.24139" lon="-2.26652">
        <ele>29</ele>
        <time>2021-05-23T12:08:11.982Z</time>
      </trkpt>
      <trkpt lat="47.2414" lon="-2.2665">
        <ele>29</ele>
        <time>2021-05-23T12:08:12.983Z</time>
      </trkpt>
      <trkpt lat="47.24141" lon="-2.26648">
        <ele>29</ele>
        <time>2021-05-23T12:08:13.982Z</time>
      </trkpt>
      <trkpt lat="47.24141" lon="-2.26645">
        <ele>29</ele>
        <time>2021-05-23T12:08:14.983Z</time>
      </trkpt>
      <trkpt lat="47.24142" lon="-2.26643">
        <ele>29</ele>
        <time>2021-05-23T12:08:15.983Z</time>
      </trkpt>
      <trkpt lat="47.24143" lon="-2.26641">
        <ele>29</ele>
        <time>2021-05-23T12:08:16.983Z</time>
      </trkpt>
      <trkpt lat="47.24145" lon="-2.26638">
        <ele>29</ele>
        <time>2021-05-23T12:08:17.983Z</time>
      </trkpt>
      <trkpt lat="47.24146" lon="-2.26636">
        <ele>29</ele>
        <time>2021-05-23T12:08:18.982Z</time>
      </trkpt>
      <trkpt lat="47.24147" lon="-2.26634">
        <ele>30</ele>
        <time>2021-05-23T12:08:19.982Z</time>
      </trkpt>
      <trkpt lat="47.24148" lon="-2.26632">
        <ele>30</ele>
        <time>2021-05-23T12:08:20.983Z</time>
      </trkpt>
      <trkpt lat="47.24149" lon="-2.2663">
        <ele>30</ele>
        <time>2021-05-23T12:08:21.983Z</time>
      </trkpt>
      <trkpt lat="47.2415" lon="-2.26628">
        <ele>30</ele>
        <time>2021-05-23T12:08:22.982Z</time>
      </trkpt>
      <trkpt lat="47.24151" lon="-2.26627">
        <ele>29</ele>
        <time>2021-05-23T12:08:23.983Z</time>
      </trkpt>
      <trkpt lat="47.24153" lon="-2.26626">
        <ele>29</ele>
        <time>2021-05-23T12:08:24.982Z</time>
      </trkpt>
      <trkpt lat="47.24154" lon="-2.26624">
        <ele>29</ele>
        <time>2021-05-23T12:08:25.982Z</time>
      </trkpt>
      <trkpt lat="47.24156" lon="-2.26623">
        <ele>29</ele>
        <time>2021-05-23T12:08:26.982Z</time>
      </trkpt>
      <trkpt lat="47.24157" lon="-2.26622">
        <ele>28</ele>
        <time>2021-05-23T12:08:27.982Z</time>
      </trkpt>
      <trkpt lat="47.24159" lon="-2.26621">
        <ele>28</ele>
        <time>2021-05-23T12:08:28.983Z</time>
      </trkpt>
      <trkpt lat="47.2416" lon="-2.26619">
        <ele>28</ele>
        <time>2021-05-23T12:08:29.982Z</time>
      </trkpt>
      <trkpt lat="47.24161" lon="-2.26618">
        <ele>28</ele>
        <time>2021-05-23T12:08:30.983Z</time>
      </trkpt>
      <trkpt lat="47.24162" lon="-2.26618">
        <ele>28</ele>
        <time>2021-05-23T12:08:31.982Z</time>
      </trkpt>
      <trkpt lat="47.24164" lon="-2.26617">
        <ele>28</ele>
        <time>2021-05-23T12:08:32.983Z</time>
      </trkpt>
      <trkpt lat="47.24165" lon="-2.26616">
        <ele>28</ele>
        <time>2021-05-23T12:08:33.983Z</time>
      </trkpt>
      <trkpt lat="47.24166" lon="-2.26616">
        <ele>28</ele>
        <time>2021-05-23T12:08:34.983Z</time>
      </trkpt>
      <trkpt lat="47.24168" lon="-2.26615">
        <ele>28</ele>
        <time>2021-05-23T12:08:35.982Z</time>
      </trkpt>
      <trkpt lat="47.24169" lon="-2.26615">
        <ele>29</ele>
        <time>2021-05-23T12:08:36.983Z</time>
      </trkpt>
      <trkpt lat="47.24169" lon="-2.26616">
        <ele>29</ele>
        <time>2021-05-23T12:08:37.982Z</time>
      </trkpt>
      <trkpt lat="47.2417" lon="-2.26615">
        <ele>28</ele>
        <time>2021-05-23T12:08:38.983Z</time>
      </trkpt>
      <trkpt lat="47.24171" lon="-2.26615">
        <ele>28</ele>
        <time>2021-05-23T12:08:39.982Z</time>
      </trkpt>
      <trkpt lat="47.24173" lon="-2.26614">
        <ele>28</ele>
        <time>2021-05-23T12:08:40.983Z</time>
      </trkpt>
      <trkpt lat="47.24174" lon="-2.26613">
        <ele>28</ele>
        <time>2021-05-23T12:08:41.982Z</time>
      </trkpt>
      <trkpt lat="47.24175" lon="-2.26613">
        <ele>27</ele>
        <time>2021-05-23T12:08:42.982Z</time>
      </trkpt>
      <trkpt lat="47.24176" lon="-2.26613">
        <ele>27</ele>
        <time>2021-05-23T12:08:43.982Z</time>
      </trkpt>
      <trkpt lat="47.24177" lon="-2.26613">
        <ele>28</ele>
        <time>2021-05-23T12:08:44.982Z</time>
      </trkpt>
      <trkpt lat="47.24178" lon="-2.26614">
        <ele>28</ele>
        <time>2021-05-23T12:08:45.982Z</time>
      </trkpt>
      <trkpt lat="47.24179" lon="-2.26614">
        <ele>28</ele>
        <time>2021-05-23T12:08:46.982Z</time>
      </trkpt>
      <trkpt lat="47.24179" lon="-2.26615">
        <ele>29</ele>
        <time>2021-05-23T12:08:47.983Z</time>
      </trkpt>
      <trkpt lat="47.24181" lon="-2.26615">
        <ele>29</ele>
        <time>2021-05-23T12:08:48.982Z</time>
      </trkpt>
      <trkpt lat="47.24182" lon="-2.26616">
        <ele>29</ele>
        <time>2021-05-23T12:08:49.982Z</time>
      </trkpt>
      <trkpt lat="47.24182" lon="-2.26615">
        <ele>30</ele>
        <time>2021-05-23T12:08:50.982Z</time>
      </trkpt>
      <trkpt lat="47.24183" lon="-2.26614">
        <ele>30</ele>
        <time>2021-05-23T12:08:51.983Z</time>
      </trkpt>
      <trkpt lat="47.24184" lon="-2.26613">
        <ele>30</ele>
        <time>2021-05-23T12:08:52.983Z</time>
      </trkpt>
      <trkpt lat="47.24184" lon="-2.26612">
        <ele>31</ele>
        <time>2021-05-23T12:08:53.982Z</time>
      </trkpt>
      <trkpt lat="47.24184" lon="-2.26611">
        <ele>31</ele>
        <time>2021-05-23T12:08:54.983Z</time>
      </trkpt>
      <trkpt lat="47.24184" lon="-2.26611">
        <ele>31</ele>
        <time>2021-05-23T12:08:55.983Z</time>
      </trkpt>
      <trkpt lat="47.24184" lon="-2.26611">
        <ele>31</ele>
        <time>2021-05-23T12:08:56.983Z</time>
      </trkpt>
      <trkpt lat="47.24185" lon="-2.26612">
        <ele>32</ele>
        <time>2021-05-23T12:08:57.983Z</time>
      </trkpt>
      <trkpt lat="47.24185" lon="-2.26612">
        <ele>32</ele>
        <time>2021-05-23T12:08:58.983Z</time>
      </trkpt>
      <trkpt lat="47.24185" lon="-2.26612">
        <ele>33</ele>
        <time>2021-05-23T12:08:59.983Z</time>
      </trkpt>
      <trkpt lat="47.24185" lon="-2.26612">
        <ele>33</ele>
        <time>2021-05-23T12:09:00.983Z</time>
      </trkpt>
      <trkpt lat="47.24185" lon="-2.26612">
        <ele>34</ele>
        <time>2021-05-23T12:09:01.983Z</time>
      </trkpt>
      <trkpt lat="47.24185" lon="-2.26612">
        <ele>35</ele>
        <time>2021-05-23T12:09:02.983Z</time>
      </trkpt>
      <trkpt lat="47.24184" lon="-2.26612">
        <ele>36</ele>
        <time>2021-05-23T12:09:03.983Z</time>
      </trkpt>
      <trkpt lat="47.24183" lon="-2.26612">
        <ele>37</ele>
        <time>2021-05-23T12:09:04.982Z</time>
      </trkpt>
      <trkpt lat="47.24183" lon="-2.26612">
        <ele>38</ele>
        <time>2021-05-23T12:09:05.982Z</time>
      </trkpt>
      <trkpt lat="47.24182" lon="-2.26612">
        <ele>38</ele>
        <time>2021-05-23T12:09:06.982Z</time>
      </trkpt>
      <trkpt lat="47.24182" lon="-2.26613">
        <ele>38</ele>
        <time>2021-05-23T12:09:07.982Z</time>
      </trkpt>
      <trkpt lat="47.24182" lon="-2.26614">
        <ele>38</ele>
        <time>2021-05-23T12:09:08.983Z</time>
      </trkpt>
      <trkpt lat="47.24181" lon="-2.26614">
        <ele>38</ele>
        <time>2021-05-23T12:09:09.982Z</time>
      </trkpt>
      <trkpt lat="47.24182" lon="-2.26615">
        <ele>38</ele>
        <time>2021-05-23T12:09:10.983Z</time>
      </trkpt>
      <trkpt lat="47.24183" lon="-2.26615">
        <ele>38</ele>
        <time>2021-05-23T12:09:11.983Z</time>
      </trkpt>
      <trkpt lat="47.24182" lon="-2.26616">
        <ele>37</ele>
        <time>2021-05-23T12:09:12.982Z</time>
      </trkpt>
      <trkpt lat="47.24182" lon="-2.26616">
        <ele>37</ele>
        <time>2021-05-23T12:09:13.983Z</time>
      </trkpt>
      <trkpt lat="47.24183" lon="-2.26616">
        <ele>37</ele>
        <time>2021-05-23T12:09:14.983Z</time>
      </trkpt>
      <trkpt lat="47.24184" lon="-2.26616">
        <ele>37</ele>
        <time>2021-05-23T12:09:15.982Z</time>
      </trkpt>
      <trkpt lat="47.24184" lon="-2.26617">
        <ele>37</ele>
        <time>2021-05-23T12:09:16.983Z</time>
      </trkpt>
      <trkpt lat="47.24184" lon="-2.26618">
        <ele>37</ele>
        <time>2021-05-23T12:09:17.982Z</time>
      </trkpt>
      <trkpt lat="47.24185" lon="-2.26619">
        <ele>37</ele>
        <time>2021-05-23T12:09:18.982Z</time>
      </trkpt>
      <trkpt lat="47.24186" lon="-2.2662">
        <ele>38</ele>
        <time>2021-05-23T12:09:19.982Z</time>
      </trkpt>
      <trkpt lat="47.24187" lon="-2.26621">
        <ele>38</ele>
        <time>2021-05-23T12:09:20.983Z</time>
      </trkpt>
      <trkpt lat="47.24188" lon="-2.26621">
        <ele>38</ele>
        <time>2021-05-23T12:09:21.983Z</time>
      </trkpt>
      <trkpt lat="47.24189" lon="-2.26621">
        <ele>37</ele>
        <time>2021-05-23T12:09:22.982Z</time>
      </trkpt>
      <trkpt lat="47.2419" lon="-2.26621">
        <ele>37</ele>
        <time>2021-05-23T12:09:23.982Z</time>
      </trkpt>
      <trkpt lat="47.24191" lon="-2.26621">
        <ele>37</ele>
        <time>2021-05-23T12:09:24.983Z</time>
      </trkpt>
      <trkpt lat="47.24192" lon="-2.26621">
        <ele>37</ele>
        <time>2021-05-23T12:09:25.983Z</time>
      </trkpt>
      <trkpt lat="47.24193" lon="-2.26622">
        <ele>37</ele>
        <time>2021-05-23T12:09:26.983Z</time>
      </trkpt>
      <trkpt lat="47.24195" lon="-2.26623">
        <ele>37</ele>
        <time>2021-05-23T12:09:27.983Z</time>
      </trkpt>
      <trkpt lat="47.24196" lon="-2.26623">
        <ele>36</ele>
        <time>2021-05-23T12:09:28.983Z</time>
      </trkpt>
      <trkpt lat="47.24198" lon="-2.26623">
        <ele>36</ele>
        <time>2021-05-23T12:09:29.982Z</time>
      </trkpt>
      <trkpt lat="47.24199" lon="-2.26624">
        <ele>36</ele>
        <time>2021-05-23T12:09:30.982Z</time>
      </trkpt>
      <trkpt lat="47.24201" lon="-2.26625">
        <ele>36</ele>
        <time>2021-05-23T12:09:31.983Z</time>
      </trkpt>
      <trkpt lat="47.24202" lon="-2.26626">
        <ele>36</ele>
        <time>2021-05-23T12:09:32.982Z</time>
      </trkpt>
      <trkpt lat="47.24204" lon="-2.26626">
        <ele>36</ele>
        <time>2021-05-23T12:09:33.982Z</time>
      </trkpt>
      <trkpt lat="47.24206" lon="-2.26627">
        <ele>36</ele>
        <time>2021-05-23T12:09:34.983Z</time>
      </trkpt>
      <trkpt lat="47.24207" lon="-2.26628">
        <ele>36</ele>
        <time>2021-05-23T12:09:35.982Z</time>
      </trkpt>
      <trkpt lat="47.24209" lon="-2.26629">
        <ele>36</ele>
        <time>2021-05-23T12:09:36.983Z</time>
      </trkpt>
      <trkpt lat="47.2421" lon="-2.2663">
        <ele>36</ele>
        <time>2021-05-23T12:09:37.982Z</time>
      </trkpt>
      <trkpt lat="47.24212" lon="-2.26631">
        <ele>36</ele>
        <time>2021-05-23T12:09:38.983Z</time>
      </trkpt>
      <trkpt lat="47.24214" lon="-2.26632">
        <ele>36</ele>
        <time>2021-05-23T12:09:39.982Z</time>
      </trkpt>
      <trkpt lat="47.24216" lon="-2.26632">
        <ele>37</ele>
        <time>2021-05-23T12:09:40.983Z</time>
      </trkpt>
      <trkpt lat="47.24218" lon="-2.26632">
        <ele>37</ele>
        <time>2021-05-23T12:09:41.982Z</time>
      </trkpt>
      <trkpt lat="47.24219" lon="-2.2663">
        <ele>36</ele>
        <time>2021-05-23T12:09:42.983Z</time>
      </trkpt>
      <trkpt lat="47.2422" lon="-2.26628">
        <ele>36</ele>
        <time>2021-05-23T12:09:43.983Z</time>
      </trkpt>
      <trkpt lat="47.24221" lon="-2.26625">
        <ele>35</ele>
        <time>2021-05-23T12:09:44.982Z</time>
      </trkpt>
      <trkpt lat="47.24222" lon="-2.26622">
        <ele>35</ele>
        <time>2021-05-23T12:09:45.982Z</time>
      </trkpt>
      <trkpt lat="47.24222" lon="-2.26619">
        <ele>34</ele>
        <time>2021-05-23T12:09:46.983Z</time>
      </trkpt>
      <trkpt lat="47.24223" lon="-2.26616">
        <ele>34</ele>
        <time>2021-05-23T12:09:47.983Z</time>
      </trkpt>
      <trkpt lat="47.24223" lon="-2.26612">
        <ele>34</ele>
        <time>2021-05-23T12:09:48.982Z</time>
      </trkpt>
      <trkpt lat="47.24224" lon="-2.26609">
        <ele>34</ele>
        <time>2021-05-23T12:09:49.982Z</time>
      </trkpt>
      <trkpt lat="47.24223" lon="-2.26605">
        <ele>33</ele>
        <time>2021-05-23T12:09:50.983Z</time>
      </trkpt>
      <trkpt lat="47.24224" lon="-2.26602">
        <ele>33</ele>
        <time>2021-05-23T12:09:51.983Z</time>
      </trkpt>
      <trkpt lat="47.24224" lon="-2.26599">
        <ele>33</ele>
        <time>2021-05-23T12:09:52.983Z</time>
      </trkpt>
      <trkpt lat="47.24224" lon="-2.26596">
        <ele>32</ele>
        <time>2021-05-23T12:09:53.983Z</time>
      </trkpt>
      <trkpt lat="47.24225" lon="-2.26593">
        <ele>33</ele>
        <time>2021-05-23T12:09:54.982Z</time>
      </trkpt>
      <trkpt lat="47.24225" lon="-2.26589">
        <ele>33</ele>
        <time>2021-05-23T12:09:55.982Z</time>
      </trkpt>
      <trkpt lat="47.24225" lon="-2.26586">
        <ele>33</ele>
        <time>2021-05-23T12:09:56.982Z</time>
      </trkpt>
      <trkpt lat="47.24225" lon="-2.26584">
        <ele>32</ele>
        <time>2021-05-23T12:09:57.982Z</time>
      </trkpt>
      <trkpt lat="47.24225" lon="-2.26581">
        <ele>32</ele>
        <time>2021-05-23T12:09:58.983Z</time>
      </trkpt>
      <trkpt lat="47.24226" lon="-2.26578">
        <ele>32</ele>
        <time>2021-05-23T12:09:59.983Z</time>
      </trkpt>
      <trkpt lat="47.24226" lon="-2.26576">
        <ele>32</ele>
        <time>2021-05-23T12:10:00.983Z</time>
      </trkpt>
      <trkpt lat="47.24226" lon="-2.26572">
        <ele>32</ele>
        <time>2021-05-23T12:10:01.982Z</time>
      </trkpt>
      <trkpt lat="47.24227" lon="-2.26569">
        <ele>32</ele>
        <time>2021-05-23T12:10:02.982Z</time>
      </trkpt>
      <trkpt lat="47.24227" lon="-2.26565">
        <ele>32</ele>
        <time>2021-05-23T12:10:03.982Z</time>
      </trkpt>
      <trkpt lat="47.24227" lon="-2.26562">
        <ele>32</ele>
        <time>2021-05-23T12:10:04.983Z</time>
      </trkpt>
      <trkpt lat="47.24227" lon="-2.26559">
        <ele>32</ele>
        <time>2021-05-23T12:10:05.983Z</time>
      </trkpt>
      <trkpt lat="47.24227" lon="-2.26555">
        <ele>32</ele>
        <time>2021-05-23T12:10:06.982Z</time>
      </trkpt>
      <trkpt lat="47.24226" lon="-2.26552">
        <ele>32</ele>
        <time>2021-05-23T12:10:07.983Z</time>
      </trkpt>
      <trkpt lat="47.24226" lon="-2.26549">
        <ele>33</ele>
        <time>2021-05-23T12:10:08.982Z</time>
      </trkpt>
      <trkpt lat="47.24227" lon="-2.26546">
        <ele>33</ele>
        <time>2021-05-23T12:10:09.983Z</time>
      </trkpt>
      <trkpt lat="47.24226" lon="-2.26543">
        <ele>33</ele>
        <time>2021-05-23T12:10:10.983Z</time>
      </trkpt>
      <trkpt lat="47.24226" lon="-2.2654">
        <ele>33</ele>
        <time>2021-05-23T12:10:11.983Z</time>
      </trkpt>
      <trkpt lat="47.24226" lon="-2.26538">
        <ele>33</ele>
        <time>2021-05-23T12:10:12.982Z</time>
      </trkpt>
      <trkpt lat="47.24225" lon="-2.26535">
        <ele>33</ele>
        <time>2021-05-23T12:10:13.982Z</time>
      </trkpt>
      <trkpt lat="47.24225" lon="-2.26534">
        <ele>32</ele>
        <time>2021-05-23T12:10:14.982Z</time>
      </trkpt>
      <trkpt lat="47.24224" lon="-2.26532">
        <ele>32</ele>
        <time>2021-05-23T12:10:15.983Z</time>
      </trkpt>
      <trkpt lat="47.24224" lon="-2.26531">
        <ele>32</ele>
        <time>2021-05-23T12:10:16.983Z</time>
      </trkpt>
      <trkpt lat="47.24223" lon="-2.26531">
        <ele>31</ele>
        <time>2021-05-23T12:10:17.982Z</time>
      </trkpt>
      <trkpt lat="47.24223" lon="-2.2653">
        <ele>31</ele>
        <time>2021-05-23T12:10:18.982Z</time>
      </trkpt>
      <trkpt lat="47.24223" lon="-2.26531">
        <ele>31</ele>
        <time>2021-05-23T12:10:19.982Z</time>
      </trkpt>
      <trkpt lat="47.24224" lon="-2.26531">
        <ele>30</ele>
        <time>2021-05-23T12:10:20.983Z</time>
      </trkpt>
      <trkpt lat="47.24224" lon="-2.26531">
        <ele>30</ele>
        <time>2021-05-23T12:10:21.983Z</time>
      </trkpt>
      <trkpt lat="47.24225" lon="-2.26532">
        <ele>29</ele>
        <time>2021-05-23T12:10:22.982Z</time>
      </trkpt>
      <trkpt lat="47.24225" lon="-2.26532">
        <ele>29</ele>
        <time>2021-05-23T12:10:23.982Z</time>
      </trkpt>
      <trkpt lat="47.24226" lon="-2.26533">
        <ele>28</ele>
        <time>2021-05-23T12:10:24.982Z</time>
      </trkpt>
      <trkpt lat="47.24226" lon="-2.26532">
        <ele>27</ele>
        <time>2021-05-23T12:10:25.982Z</time>
      </trkpt>
      <trkpt lat="47.24226" lon="-2.26532">
        <ele>26</ele>
        <time>2021-05-23T12:10:26.983Z</time>
      </trkpt>
      <trkpt lat="47.24227" lon="-2.26532">
        <ele>26</ele>
        <time>2021-05-23T12:10:27.983Z</time>
      </trkpt>
      <trkpt lat="47.24226" lon="-2.26531">
        <ele>26</ele>
        <time>2021-05-23T12:10:28.983Z</time>
      </trkpt>
      <trkpt lat="47.24227" lon="-2.26531">
        <ele>25</ele>
        <time>2021-05-23T12:10:29.983Z</time>
      </trkpt>
      <trkpt lat="47.24227" lon="-2.26531">
        <ele>25</ele>
        <time>2021-05-23T12:10:30.983Z</time>
      </trkpt>
      <trkpt lat="47.24227" lon="-2.26531">
        <ele>25</ele>
        <time>2021-05-23T12:10:31.983Z</time>
      </trkpt>
      <trkpt lat="47.24227" lon="-2.26531">
        <ele>25</ele>
        <time>2021-05-23T12:10:32.982Z</time>
      </trkpt>
      <trkpt lat="47.24227" lon="-2.26531">
        <ele>25</ele>
        <time>2021-05-23T12:10:33.982Z</time>
      </trkpt>
      <trkpt lat="47.24227" lon="-2.26531">
        <ele>25</ele>
        <time>2021-05-23T12:10:34.983Z</time>
      </trkpt>
      <trkpt lat="47.24227" lon="-2.26531">
        <ele>24</ele>
        <time>2021-05-23T12:10:35.983Z</time>
      </trkpt>
      <trkpt lat="47.24227" lon="-2.26531">
        <ele>24</ele>
        <time>2021-05-23T12:10:36.982Z</time>
      </trkpt>
      <trkpt lat="47.24227" lon="-2.26531">
        <ele>24</ele>
        <time>2021-05-23T12:10:37.982Z</time>
      </trkpt>
      <trkpt lat="47.24227" lon="-2.26531">
        <ele>24</ele>
        <time>2021-05-23T12:10:38.982Z</time>
      </trkpt>
      <trkpt lat="47.24227" lon="-2.26531">
        <ele>24</ele>
        <time>2021-05-23T12:10:39.983Z</time>
      </trkpt>
      <trkpt lat="47.24227" lon="-2.26531">
        <ele>24</ele>
        <time>2021-05-23T12:10:40.982Z</time>
      </trkpt>
      <trkpt lat="47.24227" lon="-2.26531">
        <ele>24</ele>
        <time>2021-05-23T12:10:41.983Z</time>
      </trkpt>
      <trkpt lat="47.24227" lon="-2.26531">
        <ele>24</ele>
        <time>2021-05-23T12:10:42.983Z</time>
      </trkpt>
      <trkpt lat="47.24227" lon="-2.2653">
        <ele>24</ele>
        <time>2021-05-23T12:10:43.983Z</time>
      </trkpt>
      <trkpt lat="47.24227" lon="-2.26528">
        <ele>24</ele>
        <time>2021-05-23T12:10:44.983Z</time>
      </trkpt>
      <trkpt lat="47.24228" lon="-2.26526">
        <ele>24</ele>
        <time>2021-05-23T12:10:45.982Z</time>
      </trkpt>
      <trkpt lat="47.24228" lon="-2.26523">
        <ele>23</ele>
        <time>2021-05-23T12:10:46.982Z</time>
      </trkpt>
      <trkpt lat="47.24228" lon="-2.26521">
        <ele>23</ele>
        <time>2021-05-23T12:10:47.982Z</time>
      </trkpt>
      <trkpt lat="47.24227" lon="-2.26518">
        <ele>24</ele>
        <time>2021-05-23T12:10:48.983Z</time>
      </trkpt>
      <trkpt lat="47.24227" lon="-2.26515">
        <ele>24</ele>
        <time>2021-05-23T12:10:49.982Z</time>
      </trkpt>
      <trkpt lat="47.24227" lon="-2.26512">
        <ele>24</ele>
        <time>2021-05-23T12:10:50.982Z</time>
      </trkpt>
      <trkpt lat="47.24227" lon="-2.26509">
        <ele>25</ele>
        <time>2021-05-23T12:10:51.983Z</time>
      </trkpt>
      <trkpt lat="47.24227" lon="-2.26506">
        <ele>25</ele>
        <time>2021-05-23T12:10:52.982Z</time>
      </trkpt>
      <trkpt lat="47.24227" lon="-2.26504">
        <ele>25</ele>
        <time>2021-05-23T12:10:53.982Z</time>
      </trkpt>
      <trkpt lat="47.24227" lon="-2.26503">
        <ele>25</ele>
        <time>2021-05-23T12:10:54.983Z</time>
      </trkpt>
      <trkpt lat="47.24227" lon="-2.26501">
        <ele>26</ele>
        <time>2021-05-23T12:10:55.983Z</time>
      </trkpt>
      <trkpt lat="47.24228" lon="-2.26498">
        <ele>26</ele>
        <time>2021-05-23T12:10:56.983Z</time>
      </trkpt>
      <trkpt lat="47.24228" lon="-2.26496">
        <ele>26</ele>
        <time>2021-05-23T12:10:57.983Z</time>
      </trkpt>
      <trkpt lat="47.24228" lon="-2.26493">
        <ele>25</ele>
        <time>2021-05-23T12:10:58.982Z</time>
      </trkpt>
      <trkpt lat="47.24229" lon="-2.2649">
        <ele>25</ele>
        <time>2021-05-23T12:10:59.982Z</time>
      </trkpt>
      <trkpt lat="47.24229" lon="-2.26487">
        <ele>25</ele>
        <time>2021-05-23T12:11:00.983Z</time>
      </trkpt>
      <trkpt lat="47.24229" lon="-2.26484">
        <ele>25</ele>
        <time>2021-05-23T12:11:01.983Z</time>
      </trkpt>
      <trkpt lat="47.24229" lon="-2.26481">
        <ele>25</ele>
        <time>2021-05-23T12:11:02.983Z</time>
      </trkpt>
      <trkpt lat="47.2423" lon="-2.26479">
        <ele>25</ele>
        <time>2021-05-23T12:11:03.983Z</time>
      </trkpt>
      <trkpt lat="47.24231" lon="-2.26477">
        <ele>25</ele>
        <time>2021-05-23T12:11:04.982Z</time>
      </trkpt>
      <trkpt lat="47.24231" lon="-2.26475">
        <ele>25</ele>
        <time>2021-05-23T12:11:05.983Z</time>
      </trkpt>
      <trkpt lat="47.24232" lon="-2.26473">
        <ele>25</ele>
        <time>2021-05-23T12:11:06.983Z</time>
      </trkpt>
      <trkpt lat="47.24231" lon="-2.26471">
        <ele>25</ele>
        <time>2021-05-23T12:11:07.983Z</time>
      </trkpt>
      <trkpt lat="47.2423" lon="-2.26469">
        <ele>25</ele>
        <time>2021-05-23T12:11:08.983Z</time>
      </trkpt>
      <trkpt lat="47.2423" lon="-2.26466">
        <ele>24</ele>
        <time>2021-05-23T12:11:09.983Z</time>
      </trkpt>
      <trkpt lat="47.24229" lon="-2.26464">
        <ele>24</ele>
        <time>2021-05-23T12:11:10.983Z</time>
      </trkpt>
      <trkpt lat="47.24228" lon="-2.26461">
        <ele>24</ele>
        <time>2021-05-23T12:11:11.982Z</time>
      </trkpt>
      <trkpt lat="47.24227" lon="-2.2646">
        <ele>24</ele>
        <time>2021-05-23T12:11:12.983Z</time>
      </trkpt>
      <trkpt lat="47.24226" lon="-2.26458">
        <ele>24</ele>
        <time>2021-05-23T12:11:13.982Z</time>
      </trkpt>
      <trkpt lat="47.24225" lon="-2.26456">
        <ele>24</ele>
        <time>2021-05-23T12:11:14.982Z</time>
      </trkpt>
      <trkpt lat="47.24224" lon="-2.26453">
        <ele>23</ele>
        <time>2021-05-23T12:11:15.982Z</time>
      </trkpt>
      <trkpt lat="47.24224" lon="-2.26449">
        <ele>23</ele>
        <time>2021-05-23T12:11:16.983Z</time>
      </trkpt>
      <trkpt lat="47.24223" lon="-2.26447">
        <ele>23</ele>
        <time>2021-05-23T12:11:17.982Z</time>
      </trkpt>
      <trkpt lat="47.24222" lon="-2.26445">
        <ele>23</ele>
        <time>2021-05-23T12:11:18.982Z</time>
      </trkpt>
      <trkpt lat="47.24222" lon="-2.26443">
        <ele>23</ele>
        <time>2021-05-23T12:11:19.983Z</time>
      </trkpt>
      <trkpt lat="47.24221" lon="-2.26441">
        <ele>23</ele>
        <time>2021-05-23T12:11:20.982Z</time>
      </trkpt>
      <trkpt lat="47.2422" lon="-2.26438">
        <ele>23</ele>
        <time>2021-05-23T12:11:21.982Z</time>
      </trkpt>
      <trkpt lat="47.24219" lon="-2.26435">
        <ele>23</ele>
        <time>2021-05-23T12:11:22.983Z</time>
      </trkpt>
      <trkpt lat="47.24217" lon="-2.26433">
        <ele>22</ele>
        <time>2021-05-23T12:11:23.983Z</time>
      </trkpt>
      <trkpt lat="47.24216" lon="-2.2643">
        <ele>22</ele>
        <time>2021-05-23T12:11:24.982Z</time>
      </trkpt>
      <trkpt lat="47.24214" lon="-2.26428">
        <ele>22</ele>
        <time>2021-05-23T12:11:25.983Z</time>
      </trkpt>
      <trkpt lat="47.24213" lon="-2.26427">
        <ele>22</ele>
        <time>2021-05-23T12:11:26.983Z</time>
      </trkpt>
      <trkpt lat="47.24211" lon="-2.26425">
        <ele>22</ele>
        <time>2021-05-23T12:11:27.982Z</time>
      </trkpt>
      <trkpt lat="47.2421" lon="-2.26424">
        <ele>22</ele>
        <time>2021-05-23T12:11:28.983Z</time>
      </trkpt>
      <trkpt lat="47.24209" lon="-2.26422">
        <ele>22</ele>
        <time>2021-05-23T12:11:29.982Z</time>
      </trkpt>
      <trkpt lat="47.24208" lon="-2.26419">
        <ele>21</ele>
        <time>2021-05-23T12:11:30.983Z</time>
      </trkpt>
      <trkpt lat="47.24207" lon="-2.26416">
        <ele>21</ele>
        <time>2021-05-23T12:11:31.983Z</time>
      </trkpt>
      <trkpt lat="47.24206" lon="-2.26414">
        <ele>21</ele>
        <time>2021-05-23T12:11:32.983Z</time>
      </trkpt>
      <trkpt lat="47.24204" lon="-2.26411">
        <ele>21</ele>
        <time>2021-05-23T12:11:33.982Z</time>
      </trkpt>
      <trkpt lat="47.24202" lon="-2.2641">
        <ele>20</ele>
        <time>2021-05-23T12:11:34.982Z</time>
      </trkpt>
      <trkpt lat="47.242" lon="-2.2641">
        <ele>20</ele>
        <time>2021-05-23T12:11:35.982Z</time>
      </trkpt>
      <trkpt lat="47.24198" lon="-2.26409">
        <ele>19</ele>
        <time>2021-05-23T12:11:36.983Z</time>
      </trkpt>
      <trkpt lat="47.24197" lon="-2.26409">
        <ele>18</ele>
        <time>2021-05-23T12:11:37.982Z</time>
      </trkpt>
      <trkpt lat="47.24196" lon="-2.26409">
        <ele>17</ele>
        <time>2021-05-23T12:11:38.982Z</time>
      </trkpt>
      <trkpt lat="47.24196" lon="-2.26408">
        <ele>16</ele>
        <time>2021-05-23T12:11:39.982Z</time>
      </trkpt>
      <trkpt lat="47.24196" lon="-2.26408">
        <ele>15</ele>
        <time>2021-05-23T12:11:40.983Z</time>
      </trkpt>
      <trkpt lat="47.24195" lon="-2.26408">
        <ele>14</ele>
        <time>2021-05-23T12:11:41.983Z</time>
      </trkpt>
      <trkpt lat="47.24195" lon="-2.26407">
        <ele>14</ele>
        <time>2021-05-23T12:11:42.983Z</time>
      </trkpt>
      <trkpt lat="47.24195" lon="-2.26406">
        <ele>13</ele>
        <time>2021-05-23T12:11:43.983Z</time>
      </trkpt>
      <trkpt lat="47.24194" lon="-2.26405">
        <ele>12</ele>
        <time>2021-05-23T12:11:44.983Z</time>
      </trkpt>
      <trkpt lat="47.24194" lon="-2.26404">
        <ele>12</ele>
        <time>2021-05-23T12:11:45.982Z</time>
      </trkpt>
      <trkpt lat="47.24195" lon="-2.26403">
        <ele>11</ele>
        <time>2021-05-23T12:11:46.983Z</time>
      </trkpt>
      <trkpt lat="47.24194" lon="-2.26403">
        <ele>12</ele>
        <time>2021-05-23T12:11:47.983Z</time>
      </trkpt>
      <trkpt lat="47.24194" lon="-2.26402">
        <ele>12</ele>
        <time>2021-05-23T12:11:48.983Z</time>
      </trkpt>
      <trkpt lat="47.24194" lon="-2.26401">
        <ele>12</ele>
        <time>2021-05-23T12:11:49.983Z</time>
      </trkpt>
      <trkpt lat="47.24194" lon="-2.26401">
        <ele>12</ele>
        <time>2021-05-23T12:11:50.983Z</time>
      </trkpt>
      <trkpt lat="47.24193" lon="-2.264">
        <ele>13</ele>
        <time>2021-05-23T12:11:51.983Z</time>
      </trkpt>
      <trkpt lat="47.24193" lon="-2.264">
        <ele>13</ele>
        <time>2021-05-23T12:11:52.983Z</time>
      </trkpt>
      <trkpt lat="47.24192" lon="-2.264">
        <ele>13</ele>
        <time>2021-05-23T12:11:53.982Z</time>
      </trkpt>
      <trkpt lat="47.24191" lon="-2.26399">
        <ele>13</ele>
        <time>2021-05-23T12:11:54.983Z</time>
      </trkpt>
      <trkpt lat="47.24192" lon="-2.26399">
        <ele>13</ele>
        <time>2021-05-23T12:11:55.982Z</time>
      </trkpt>
      <trkpt lat="47.24192" lon="-2.26398">
        <ele>13</ele>
        <time>2021-05-23T12:11:56.982Z</time>
      </trkpt>
      <trkpt lat="47.24191" lon="-2.26398">
        <ele>13</ele>
        <time>2021-05-23T12:11:57.982Z</time>
      </trkpt>
      <trkpt lat="47.2419" lon="-2.26396">
        <ele>13</ele>
        <time>2021-05-23T12:11:58.983Z</time>
      </trkpt>
      <trkpt lat="47.24189" lon="-2.26395">
        <ele>13</ele>
        <time>2021-05-23T12:11:59.983Z</time>
      </trkpt>
      <trkpt lat="47.24188" lon="-2.26394">
        <ele>14</ele>
        <time>2021-05-23T12:12:00.983Z</time>
      </trkpt>
      <trkpt lat="47.24187" lon="-2.26391">
        <ele>14</ele>
        <time>2021-05-23T12:12:01.982Z</time>
      </trkpt>
      <trkpt lat="47.24186" lon="-2.26389">
        <ele>14</ele>
        <time>2021-05-23T12:12:02.982Z</time>
      </trkpt>
      <trkpt lat="47.24185" lon="-2.26387">
        <ele>14</ele>
        <time>2021-05-23T12:12:03.983Z</time>
      </trkpt>
      <trkpt lat="47.24184" lon="-2.26384">
        <ele>13</ele>
        <time>2021-05-23T12:12:04.982Z</time>
      </trkpt>
      <trkpt lat="47.24183" lon="-2.26382">
        <ele>13</ele>
        <time>2021-05-23T12:12:05.983Z</time>
      </trkpt>
      <trkpt lat="47.24182" lon="-2.26379">
        <ele>13</ele>
        <time>2021-05-23T12:12:06.982Z</time>
      </trkpt>
      <trkpt lat="47.24182" lon="-2.26376">
        <ele>13</ele>
        <time>2021-05-23T12:12:07.983Z</time>
      </trkpt>
      <trkpt lat="47.24182" lon="-2.26374">
        <ele>13</ele>
        <time>2021-05-23T12:12:08.982Z</time>
      </trkpt>
      <trkpt lat="47.24182" lon="-2.26372">
        <ele>13</ele>
        <time>2021-05-23T12:12:09.983Z</time>
      </trkpt>
      <trkpt lat="47.24182" lon="-2.26369">
        <ele>12</ele>
        <time>2021-05-23T12:12:10.983Z</time>
      </trkpt>
      <trkpt lat="47.24182" lon="-2.26366">
        <ele>12</ele>
        <time>2021-05-23T12:12:11.982Z</time>
      </trkpt>
      <trkpt lat="47.24182" lon="-2.26364">
        <ele>11</ele>
        <time>2021-05-23T12:12:12.983Z</time>
      </trkpt>
      <trkpt lat="47.24182" lon="-2.2636">
        <ele>11</ele>
        <time>2021-05-23T12:12:13.982Z</time>
      </trkpt>
      <trkpt lat="47.24182" lon="-2.26357">
        <ele>10</ele>
        <time>2021-05-23T12:12:14.983Z</time>
      </trkpt>
      <trkpt lat="47.24182" lon="-2.26354">
        <ele>10</ele>
        <time>2021-05-23T12:12:15.983Z</time>
      </trkpt>
      <trkpt lat="47.24181" lon="-2.2635">
        <ele>11</ele>
        <time>2021-05-23T12:12:16.982Z</time>
      </trkpt>
      <trkpt lat="47.24181" lon="-2.26347">
        <ele>11</ele>
        <time>2021-05-23T12:12:17.983Z</time>
      </trkpt>
      <trkpt lat="47.24182" lon="-2.26345">
        <ele>11</ele>
        <time>2021-05-23T12:12:18.982Z</time>
      </trkpt>
      <trkpt lat="47.24183" lon="-2.26344">
        <ele>11</ele>
        <time>2021-05-23T12:12:19.982Z</time>
      </trkpt>
      <trkpt lat="47.24185" lon="-2.26344">
        <ele>11</ele>
        <time>2021-05-23T12:12:20.983Z</time>
      </trkpt>
      <trkpt lat="47.24186" lon="-2.26345">
        <ele>10</ele>
        <time>2021-05-23T12:12:21.983Z</time>
      </trkpt>
      <trkpt lat="47.24188" lon="-2.26345">
        <ele>10</ele>
        <time>2021-05-23T12:12:22.982Z</time>
      </trkpt>
      <trkpt lat="47.24188" lon="-2.26345">
        <ele>10</ele>
        <time>2021-05-23T12:12:23.982Z</time>
      </trkpt>
      <trkpt lat="47.24189" lon="-2.26345">
        <ele>10</ele>
        <time>2021-05-23T12:12:24.983Z</time>
      </trkpt>
      <trkpt lat="47.24191" lon="-2.26345">
        <ele>10</ele>
        <time>2021-05-23T12:12:25.983Z</time>
      </trkpt>
      <trkpt lat="47.24192" lon="-2.26346">
        <ele>9</ele>
        <time>2021-05-23T12:12:26.983Z</time>
      </trkpt>
      <trkpt lat="47.24194" lon="-2.26345">
        <ele>9</ele>
        <time>2021-05-23T12:12:27.982Z</time>
      </trkpt>
      <trkpt lat="47.24195" lon="-2.26344">
        <ele>9</ele>
        <time>2021-05-23T12:12:28.982Z</time>
      </trkpt>
      <trkpt lat="47.24196" lon="-2.26343">
        <ele>9</ele>
        <time>2021-05-23T12:12:29.983Z</time>
      </trkpt>
      <trkpt lat="47.24197" lon="-2.26342">
        <ele>9</ele>
        <time>2021-05-23T12:12:30.983Z</time>
      </trkpt>
      <trkpt lat="47.24198" lon="-2.26342">
        <ele>9</ele>
        <time>2021-05-23T12:12:31.982Z</time>
      </trkpt>
      <trkpt lat="47.242" lon="-2.26342">
        <ele>9</ele>
        <time>2021-05-23T12:12:32.982Z</time>
      </trkpt>
      <trkpt lat="47.24201" lon="-2.26342">
        <ele>9</ele>
        <time>2021-05-23T12:12:33.982Z</time>
      </trkpt>
      <trkpt lat="47.24201" lon="-2.26341">
        <ele>9</ele>
        <time>2021-05-23T12:12:34.983Z</time>
      </trkpt>
      <trkpt lat="47.24202" lon="-2.26341">
        <ele>10</ele>
        <time>2021-05-23T12:12:35.982Z</time>
      </trkpt>
      <trkpt lat="47.24202" lon="-2.26341">
        <ele>10</ele>
        <time>2021-05-23T12:12:36.982Z</time>
      </trkpt>
      <trkpt lat="47.24203" lon="-2.26341">
        <ele>10</ele>
        <time>2021-05-23T12:12:37.982Z</time>
      </trkpt>
      <trkpt lat="47.24204" lon="-2.26341">
        <ele>10</ele>
        <time>2021-05-23T12:12:38.983Z</time>
      </trkpt>
      <trkpt lat="47.24205" lon="-2.26341">
        <ele>11</ele>
        <time>2021-05-23T12:12:39.982Z</time>
      </trkpt>
      <trkpt lat="47.24206" lon="-2.26341">
        <ele>12</ele>
        <time>2021-05-23T12:12:40.982Z</time>
      </trkpt>
      <trkpt lat="47.24207" lon="-2.26341">
        <ele>12</ele>
        <time>2021-05-23T12:12:41.983Z</time>
      </trkpt>
      <trkpt lat="47.24208" lon="-2.26341">
        <ele>12</ele>
        <time>2021-05-23T12:12:42.982Z</time>
      </trkpt>
      <trkpt lat="47.24209" lon="-2.26341">
        <ele>12</ele>
        <time>2021-05-23T12:12:43.983Z</time>
      </trkpt>
      <trkpt lat="47.24209" lon="-2.26341">
        <ele>12</ele>
        <time>2021-05-23T12:12:44.982Z</time>
      </trkpt>
      <trkpt lat="47.2421" lon="-2.26341">
        <ele>13</ele>
        <time>2021-05-23T12:12:45.982Z</time>
      </trkpt>
      <trkpt lat="47.24211" lon="-2.2634">
        <ele>13</ele>
        <time>2021-05-23T12:12:46.982Z</time>
      </trkpt>
      <trkpt lat="47.24212" lon="-2.26339">
        <ele>13</ele>
        <time>2021-05-23T12:12:47.982Z</time>
      </trkpt>
      <trkpt lat="47.24213" lon="-2.26338">
        <ele>13</ele>
        <time>2021-05-23T12:12:48.982Z</time>
      </trkpt>
      <trkpt lat="47.24213" lon="-2.26337">
        <ele>13</ele>
        <time>2021-05-23T12:12:49.982Z</time>
      </trkpt>
      <trkpt lat="47.24214" lon="-2.26335">
        <ele>13</ele>
        <time>2021-05-23T12:12:50.983Z</time>
      </trkpt>
      <trkpt lat="47.24216" lon="-2.26333">
        <ele>13</ele>
        <time>2021-05-23T12:12:51.983Z</time>
      </trkpt>
      <trkpt lat="47.24217" lon="-2.26332">
        <ele>14</ele>
        <time>2021-05-23T12:12:52.982Z</time>
      </trkpt>
      <trkpt lat="47.24219" lon="-2.26331">
        <ele>14</ele>
        <time>2021-05-23T12:12:53.983Z</time>
      </trkpt>
      <trkpt lat="47.2422" lon="-2.2633">
        <ele>14</ele>
        <time>2021-05-23T12:12:54.983Z</time>
      </trkpt>
      <trkpt lat="47.24222" lon="-2.26328">
        <ele>14</ele>
        <time>2021-05-23T12:12:55.983Z</time>
      </trkpt>
      <trkpt lat="47.24223" lon="-2.26326">
        <ele>14</ele>
        <time>2021-05-23T12:12:56.983Z</time>
      </trkpt>
      <trkpt lat="47.24224" lon="-2.26323">
        <ele>14</ele>
        <time>2021-05-23T12:12:57.982Z</time>
      </trkpt>
      <trkpt lat="47.24224" lon="-2.26321">
        <ele>15</ele>
        <time>2021-05-23T12:12:58.982Z</time>
      </trkpt>
      <trkpt lat="47.24224" lon="-2.26319">
        <ele>15</ele>
        <time>2021-05-23T12:12:59.982Z</time>
      </trkpt>
      <trkpt lat="47.24223" lon="-2.26315">
        <ele>16</ele>
        <time>2021-05-23T12:13:00.983Z</time>
      </trkpt>
      <trkpt lat="47.24222" lon="-2.26313">
        <ele>16</ele>
        <time>2021-05-23T12:13:01.983Z</time>
      </trkpt>
      <trkpt lat="47.24221" lon="-2.26311">
        <ele>16</ele>
        <time>2021-05-23T12:13:02.983Z</time>
      </trkpt>
      <trkpt lat="47.2422" lon="-2.26309">
        <ele>16</ele>
        <time>2021-05-23T12:13:03.982Z</time>
      </trkpt>
      <trkpt lat="47.24219" lon="-2.26307">
        <ele>16</ele>
        <time>2021-05-23T12:13:04.982Z</time>
      </trkpt>
      <trkpt lat="47.24218" lon="-2.26305">
        <ele>16</ele>
        <time>2021-05-23T12:13:05.983Z</time>
      </trkpt>
      <trkpt lat="47.24217" lon="-2.26303">
        <ele>16</ele>
        <time>2021-05-23T12:13:06.982Z</time>
      </trkpt>
      <trkpt lat="47.24218" lon="-2.26301">
        <ele>16</ele>
        <time>2021-05-23T12:13:07.983Z</time>
      </trkpt>
      <trkpt lat="47.24219" lon="-2.26299">
        <ele>16</ele>
        <time>2021-05-23T12:13:08.982Z</time>
      </trkpt>
      <trkpt lat="47.24221" lon="-2.26297">
        <ele>16</ele>
        <time>2021-05-23T12:13:09.982Z</time>
      </trkpt>
      <trkpt lat="47.24222" lon="-2.26295">
        <ele>16</ele>
        <time>2021-05-23T12:13:10.983Z</time>
      </trkpt>
      <trkpt lat="47.24224" lon="-2.26294">
        <ele>16</ele>
        <time>2021-05-23T12:13:11.983Z</time>
      </trkpt>
      <trkpt lat="47.24227" lon="-2.26293">
        <ele>16</ele>
        <time>2021-05-23T12:13:12.983Z</time>
      </trkpt>
      <trkpt lat="47.24229" lon="-2.26293">
        <ele>16</ele>
        <time>2021-05-23T12:13:13.983Z</time>
      </trkpt>
      <trkpt lat="47.24231" lon="-2.26293">
        <ele>16</ele>
        <time>2021-05-23T12:13:14.983Z</time>
      </trkpt>
      <trkpt lat="47.24233" lon="-2.26294">
        <ele>17</ele>
        <time>2021-05-23T12:13:15.983Z</time>
      </trkpt>
      <trkpt lat="47.24234" lon="-2.26294">
        <ele>17</ele>
        <time>2021-05-23T12:13:16.983Z</time>
      </trkpt>
      <trkpt lat="47.24235" lon="-2.26295">
        <ele>17</ele>
        <time>2021-05-23T12:13:17.982Z</time>
      </trkpt>
      <trkpt lat="47.24236" lon="-2.26295">
        <ele>18</ele>
        <time>2021-05-23T12:13:18.982Z</time>
      </trkpt>
      <trkpt lat="47.24238" lon="-2.26295">
        <ele>18</ele>
        <time>2021-05-23T12:13:19.983Z</time>
      </trkpt>
      <trkpt lat="47.24238" lon="-2.26295">
        <ele>18</ele>
        <time>2021-05-23T12:13:20.982Z</time>
      </trkpt>
      <trkpt lat="47.24239" lon="-2.26296">
        <ele>17</ele>
        <time>2021-05-23T12:13:21.983Z</time>
      </trkpt>
      <trkpt lat="47.2424" lon="-2.26296">
        <ele>17</ele>
        <time>2021-05-23T12:13:22.983Z</time>
      </trkpt>
      <trkpt lat="47.24241" lon="-2.26297">
        <ele>17</ele>
        <time>2021-05-23T12:13:23.983Z</time>
      </trkpt>
      <trkpt lat="47.24242" lon="-2.26298">
        <ele>17</ele>
        <time>2021-05-23T12:13:24.982Z</time>
      </trkpt>
      <trkpt lat="47.24243" lon="-2.26298">
        <ele>17</ele>
        <time>2021-05-23T12:13:25.982Z</time>
      </trkpt>
      <trkpt lat="47.24243" lon="-2.26299">
        <ele>17</ele>
        <time>2021-05-23T12:13:26.982Z</time>
      </trkpt>
      <trkpt lat="47.24244" lon="-2.26299">
        <ele>17</ele>
        <time>2021-05-23T12:13:27.983Z</time>
      </trkpt>
      <trkpt lat="47.24245" lon="-2.26299">
        <ele>18</ele>
        <time>2021-05-23T12:13:28.982Z</time>
      </trkpt>
      <trkpt lat="47.24245" lon="-2.26299">
        <ele>18</ele>
        <time>2021-05-23T12:13:29.983Z</time>
      </trkpt>
      <trkpt lat="47.24246" lon="-2.263">
        <ele>18</ele>
        <time>2021-05-23T12:13:30.983Z</time>
      </trkpt>
      <trkpt lat="47.24247" lon="-2.263">
        <ele>18</ele>
        <time>2021-05-23T12:13:31.982Z</time>
      </trkpt>
      <trkpt lat="47.24247" lon="-2.263">
        <ele>18</ele>
        <time>2021-05-23T12:13:32.983Z</time>
      </trkpt>
      <trkpt lat="47.24248" lon="-2.263">
        <ele>18</ele>
        <time>2021-05-23T12:13:33.983Z</time>
      </trkpt>
      <trkpt lat="47.24249" lon="-2.263">
        <ele>18</ele>
        <time>2021-05-23T12:13:34.983Z</time>
      </trkpt>
      <trkpt lat="47.2425" lon="-2.263">
        <ele>17</ele>
        <time>2021-05-23T12:13:35.983Z</time>
      </trkpt>
      <trkpt lat="47.24251" lon="-2.26299">
        <ele>17</ele>
        <time>2021-05-23T12:13:36.983Z</time>
      </trkpt>
      <trkpt lat="47.24252" lon="-2.26299">
        <ele>17</ele>
        <time>2021-05-23T12:13:37.982Z</time>
      </trkpt>
      <trkpt lat="47.24253" lon="-2.26299">
        <ele>17</ele>
        <time>2021-05-23T12:13:38.983Z</time>
      </trkpt>
      <trkpt lat="47.24255" lon="-2.26298">
        <ele>16</ele>
        <time>2021-05-23T12:13:39.982Z</time>
      </trkpt>
      <trkpt lat="47.24257" lon="-2.26297">
        <ele>17</ele>
        <time>2021-05-23T12:13:40.983Z</time>
      </trkpt>
      <trkpt lat="47.24258" lon="-2.26296">
        <ele>17</ele>
        <time>2021-05-23T12:13:41.982Z</time>
      </trkpt>
      <trkpt lat="47.2426" lon="-2.26294">
        <ele>17</ele>
        <time>2021-05-23T12:13:42.982Z</time>
      </trkpt>
      <trkpt lat="47.24261" lon="-2.26292">
        <ele>17</ele>
        <time>2021-05-23T12:13:43.982Z</time>
      </trkpt>
      <trkpt lat="47.24263" lon="-2.2629">
        <ele>17</ele>
        <time>2021-05-23T12:13:44.983Z</time>
      </trkpt>
      <trkpt lat="47.24264" lon="-2.26289">
        <ele>17</ele>
        <time>2021-05-23T12:13:45.982Z</time>
      </trkpt>
      <trkpt lat="47.24265" lon="-2.26287">
        <ele>17</ele>
        <time>2021-05-23T12:13:46.982Z</time>
      </trkpt>
      <trkpt lat="47.24266" lon="-2.26287">
        <ele>17</ele>
        <time>2021-05-23T12:13:47.982Z</time>
      </trkpt>
      <trkpt lat="47.24268" lon="-2.26286">
        <ele>16</ele>
        <time>2021-05-23T12:13:48.983Z</time>
      </trkpt>
      <trkpt lat="47.24269" lon="-2.26285">
        <ele>16</ele>
        <time>2021-05-23T12:13:49.982Z</time>
      </trkpt>
      <trkpt lat="47.24271" lon="-2.26283">
        <ele>16</ele>
        <time>2021-05-23T12:13:50.982Z</time>
      </trkpt>
      <trkpt lat="47.24273" lon="-2.26281">
        <ele>16</ele>
        <time>2021-05-23T12:13:51.982Z</time>
      </trkpt>
      <trkpt lat="47.24274" lon="-2.26279">
        <ele>15</ele>
        <time>2021-05-23T12:13:52.983Z</time>
      </trkpt>
      <trkpt lat="47.24275" lon="-2.26276">
        <ele>15</ele>
        <time>2021-05-23T12:13:53.982Z</time>
      </trkpt>
      <trkpt lat="47.24275" lon="-2.26273">
        <ele>15</ele>
        <time>2021-05-23T12:13:54.982Z</time>
      </trkpt>
      <trkpt lat="47.24276" lon="-2.2627">
        <ele>15</ele>
        <time>2021-05-23T12:13:55.983Z</time>
      </trkpt>
      <trkpt lat="47.24276" lon="-2.26267">
        <ele>14</ele>
        <time>2021-05-23T12:13:56.983Z</time>
      </trkpt>
      <trkpt lat="47.24277" lon="-2.26264">
        <ele>14</ele>
        <time>2021-05-23T12:13:57.983Z</time>
      </trkpt>
      <trkpt lat="47.24278" lon="-2.26261">
        <ele>13</ele>
        <time>2021-05-23T12:13:58.983Z</time>
      </trkpt>
      <trkpt lat="47.24279" lon="-2.26257">
        <ele>13</ele>
        <time>2021-05-23T12:13:59.982Z</time>
      </trkpt>
      <trkpt lat="47.24279" lon="-2.26254">
        <ele>13</ele>
        <time>2021-05-23T12:14:00.983Z</time>
      </trkpt>
      <trkpt lat="47.24279" lon="-2.2625">
        <ele>13</ele>
        <time>2021-05-23T12:14:01.983Z</time>
      </trkpt>
      <trkpt lat="47.24279" lon="-2.26247">
        <ele>13</ele>
        <time>2021-05-23T12:14:02.982Z</time>
      </trkpt>
      <trkpt lat="47.24279" lon="-2.26244">
        <ele>13</ele>
        <time>2021-05-23T12:14:03.982Z</time>
      </trkpt>
      <trkpt lat="47.24279" lon="-2.26242">
        <ele>13</ele>
        <time>2021-05-23T12:14:04.983Z</time>
      </trkpt>
      <trkpt lat="47.24279" lon="-2.26239">
        <ele>13</ele>
        <time>2021-05-23T12:14:05.982Z</time>
      </trkpt>
      <trkpt lat="47.24279" lon="-2.26236">
        <ele>13</ele>
        <time>2021-05-23T12:14:06.982Z</time>
      </trkpt>
      <trkpt lat="47.2428" lon="-2.26233">
        <ele>13</ele>
        <time>2021-05-23T12:14:07.982Z</time>
      </trkpt>
      <trkpt lat="47.24281" lon="-2.26232">
        <ele>13</ele>
        <time>2021-05-23T12:14:08.982Z</time>
      </trkpt>
      <trkpt lat="47.24283" lon="-2.2623">
        <ele>13</ele>
        <time>2021-05-23T12:14:09.982Z</time>
      </trkpt>
      <trkpt lat="47.24285" lon="-2.26229">
        <ele>13</ele>
        <time>2021-05-23T12:14:10.982Z</time>
      </trkpt>
      <trkpt lat="47.24287" lon="-2.26229">
        <ele>13</ele>
        <time>2021-05-23T12:14:11.982Z</time>
      </trkpt>
      <trkpt lat="47.2429" lon="-2.26228">
        <ele>13</ele>
        <time>2021-05-23T12:14:12.983Z</time>
      </trkpt>
      <trkpt lat="47.24292" lon="-2.26228">
        <ele>13</ele>
        <time>2021-05-23T12:14:13.982Z</time>
      </trkpt>
      <trkpt lat="47.24294" lon="-2.26228">
        <ele>13</ele>
        <time>2021-05-23T12:14:14.982Z</time>
      </trkpt>
      <trkpt lat="47.24296" lon="-2.26227">
        <ele>13</ele>
        <time>2021-05-23T12:14:15.982Z</time>
      </trkpt>
      <trkpt lat="47.24298" lon="-2.26227">
        <ele>12</ele>
        <time>2021-05-23T12:14:16.982Z</time>
      </trkpt>
      <trkpt lat="47.243" lon="-2.26227">
        <ele>12</ele>
        <time>2021-05-23T12:14:17.982Z</time>
      </trkpt>
      <trkpt lat="47.24302" lon="-2.26227">
        <ele>12</ele>
        <time>2021-05-23T12:14:18.982Z</time>
      </trkpt>
      <trkpt lat="47.24304" lon="-2.26227">
        <ele>12</ele>
        <time>2021-05-23T12:14:19.983Z</time>
      </trkpt>
      <trkpt lat="47.24306" lon="-2.26227">
        <ele>12</ele>
        <time>2021-05-23T12:14:20.983Z</time>
      </trkpt>
      <trkpt lat="47.24308" lon="-2.26227">
        <ele>11</ele>
        <time>2021-05-23T12:14:21.982Z</time>
      </trkpt>
      <trkpt lat="47.2431" lon="-2.26227">
        <ele>11</ele>
        <time>2021-05-23T12:14:22.983Z</time>
      </trkpt>
      <trkpt lat="47.24312" lon="-2.26227">
        <ele>11</ele>
        <time>2021-05-23T12:14:23.982Z</time>
      </trkpt>
      <trkpt lat="47.24314" lon="-2.26228">
        <ele>11</ele>
        <time>2021-05-23T12:14:24.983Z</time>
      </trkpt>
      <trkpt lat="47.24315" lon="-2.26228">
        <ele>11</ele>
        <time>2021-05-23T12:14:25.982Z</time>
      </trkpt>
      <trkpt lat="47.24318" lon="-2.2623">
        <ele>11</ele>
        <time>2021-05-23T12:14:26.982Z</time>
      </trkpt>
      <trkpt lat="47.2432" lon="-2.26231">
        <ele>11</ele>
        <time>2021-05-23T12:14:27.983Z</time>
      </trkpt>
      <trkpt lat="47.24321" lon="-2.26233">
        <ele>11</ele>
        <time>2021-05-23T12:14:28.983Z</time>
      </trkpt>
      <trkpt lat="47.24322" lon="-2.26235">
        <ele>11</ele>
        <time>2021-05-23T12:14:29.983Z</time>
      </trkpt>
      <trkpt lat="47.24323" lon="-2.26237">
        <ele>11</ele>
        <time>2021-05-23T12:14:30.983Z</time>
      </trkpt>
      <trkpt lat="47.24325" lon="-2.26239">
        <ele>11</ele>
        <time>2021-05-23T12:14:31.982Z</time>
      </trkpt>
      <trkpt lat="47.24326" lon="-2.26241">
        <ele>11</ele>
        <time>2021-05-23T12:14:32.983Z</time>
      </trkpt>
      <trkpt lat="47.24327" lon="-2.26243">
        <ele>11</ele>
        <time>2021-05-23T12:14:33.983Z</time>
      </trkpt>
      <trkpt lat="47.24328" lon="-2.26245">
        <ele>10</ele>
        <time>2021-05-23T12:14:34.982Z</time>
      </trkpt>
      <trkpt lat="47.24328" lon="-2.26248">
        <ele>10</ele>
        <time>2021-05-23T12:14:35.982Z</time>
      </trkpt>
      <trkpt lat="47.24329" lon="-2.26251">
        <ele>10</ele>
        <time>2021-05-23T12:14:36.982Z</time>
      </trkpt>
      <trkpt lat="47.24329" lon="-2.26254">
        <ele>10</ele>
        <time>2021-05-23T12:14:37.983Z</time>
      </trkpt>
      <trkpt lat="47.24329" lon="-2.26256">
        <ele>10</ele>
        <time>2021-05-23T12:14:38.982Z</time>
      </trkpt>
      <trkpt lat="47.2433" lon="-2.26259">
        <ele>10</ele>
        <time>2021-05-23T12:14:39.982Z</time>
      </trkpt>
      <trkpt lat="47.24332" lon="-2.26262">
        <ele>10</ele>
        <time>2021-05-23T12:14:40.982Z</time>
      </trkpt>
      <trkpt lat="47.24334" lon="-2.26264">
        <ele>10</ele>
        <time>2021-05-23T12:14:41.983Z</time>
      </trkpt>
      <trkpt lat="47.24336" lon="-2.26267">
        <ele>10</ele>
        <time>2021-05-23T12:14:42.982Z</time>
      </trkpt>
      <trkpt lat="47.24337" lon="-2.26269">
        <ele>10</ele>
        <time>2021-05-23T12:14:43.982Z</time>
      </trkpt>
      <trkpt lat="47.24339" lon="-2.26271">
        <ele>10</ele>
        <time>2021-05-23T12:14:44.983Z</time>
      </trkpt>
      <trkpt lat="47.24341" lon="-2.26273">
        <ele>10</ele>
        <time>2021-05-23T12:14:45.982Z</time>
      </trkpt>
      <trkpt lat="47.24343" lon="-2.26274">
        <ele>10</ele>
        <time>2021-05-23T12:14:46.983Z</time>
      </trkpt>
      <trkpt lat="47.24344" lon="-2.26275">
        <ele>10</ele>
        <time>2021-05-23T12:14:47.982Z</time>
      </trkpt>
      <trkpt lat="47.24346" lon="-2.26275">
        <ele>10</ele>
        <time>2021-05-23T12:14:48.982Z</time>
      </trkpt>
      <trkpt lat="47.24348" lon="-2.26274">
        <ele>10</ele>
        <time>2021-05-23T12:14:49.983Z</time>
      </trkpt>
      <trkpt lat="47.2435" lon="-2.26273">
        <ele>10</ele>
        <time>2021-05-23T12:14:50.982Z</time>
      </trkpt>
      <trkpt lat="47.24352" lon="-2.26272">
        <ele>10</ele>
        <time>2021-05-23T12:14:51.982Z</time>
      </trkpt>
      <trkpt lat="47.24354" lon="-2.26271">
        <ele>10</ele>
        <time>2021-05-23T12:14:52.983Z</time>
      </trkpt>
      <trkpt lat="47.24356" lon="-2.2627">
        <ele>10</ele>
        <time>2021-05-23T12:14:53.982Z</time>
      </trkpt>
      <trkpt lat="47.24358" lon="-2.2627">
        <ele>10</ele>
        <time>2021-05-23T12:14:54.982Z</time>
      </trkpt>
      <trkpt lat="47.24359" lon="-2.2627">
        <ele>10</ele>
        <time>2021-05-23T12:14:55.983Z</time>
      </trkpt>
      <trkpt lat="47.24361" lon="-2.2627">
        <ele>10</ele>
        <time>2021-05-23T12:14:56.982Z</time>
      </trkpt>
      <trkpt lat="47.24363" lon="-2.2627">
        <ele>10</ele>
        <time>2021-05-23T12:14:57.983Z</time>
      </trkpt>
      <trkpt lat="47.24365" lon="-2.2627">
        <ele>10</ele>
        <time>2021-05-23T12:14:58.982Z</time>
      </trkpt>
      <trkpt lat="47.24367" lon="-2.26271">
        <ele>10</ele>
        <time>2021-05-23T12:14:59.983Z</time>
      </trkpt>
      <trkpt lat="47.24368" lon="-2.26271">
        <ele>10</ele>
        <time>2021-05-23T12:15:00.982Z</time>
      </trkpt>
      <trkpt lat="47.24369" lon="-2.2627">
        <ele>10</ele>
        <time>2021-05-23T12:15:01.982Z</time>
      </trkpt>
      <trkpt lat="47.2437" lon="-2.2627">
        <ele>10</ele>
        <time>2021-05-23T12:15:02.982Z</time>
      </trkpt>
      <trkpt lat="47.24371" lon="-2.2627">
        <ele>10</ele>
        <time>2021-05-23T12:15:03.983Z</time>
      </trkpt>
      <trkpt lat="47.24372" lon="-2.26271">
        <ele>10</ele>
        <time>2021-05-23T12:15:04.983Z</time>
      </trkpt>
      <trkpt lat="47.24374" lon="-2.26271">
        <ele>9</ele>
        <time>2021-05-23T12:15:05.982Z</time>
      </trkpt>
      <trkpt lat="47.24374" lon="-2.2627">
        <ele>9</ele>
        <time>2021-05-23T12:15:06.982Z</time>
      </trkpt>
      <trkpt lat="47.24375" lon="-2.2627">
        <ele>9</ele>
        <time>2021-05-23T12:15:07.982Z</time>
      </trkpt>
      <trkpt lat="47.24375" lon="-2.26269">
        <ele>8</ele>
        <time>2021-05-23T12:15:08.982Z</time>
      </trkpt>
      <trkpt lat="47.24376" lon="-2.26269">
        <ele>8</ele>
        <time>2021-05-23T12:15:09.983Z</time>
      </trkpt>
      <trkpt lat="47.24378" lon="-2.26269">
        <ele>8</ele>
        <time>2021-05-23T12:15:10.983Z</time>
      </trkpt>
      <trkpt lat="47.24378" lon="-2.26269">
        <ele>8</ele>
        <time>2021-05-23T12:15:11.983Z</time>
      </trkpt>
      <trkpt lat="47.24378" lon="-2.2627">
        <ele>8</ele>
        <time>2021-05-23T12:15:12.982Z</time>
      </trkpt>
      <trkpt lat="47.24377" lon="-2.26271">
        <ele>9</ele>
        <time>2021-05-23T12:15:13.983Z</time>
      </trkpt>
      <trkpt lat="47.24378" lon="-2.26271">
        <ele>9</ele>
        <time>2021-05-23T12:15:14.983Z</time>
      </trkpt>
      <trkpt lat="47.24379" lon="-2.2627">
        <ele>9</ele>
        <time>2021-05-23T12:15:15.983Z</time>
      </trkpt>
      <trkpt lat="47.24381" lon="-2.2627">
        <ele>8</ele>
        <time>2021-05-23T12:15:16.982Z</time>
      </trkpt>
      <trkpt lat="47.24383" lon="-2.2627">
        <ele>8</ele>
        <time>2021-05-23T12:15:17.983Z</time>
      </trkpt>
      <trkpt lat="47.24384" lon="-2.26269">
        <ele>8</ele>
        <time>2021-05-23T12:15:18.982Z</time>
      </trkpt>
      <trkpt lat="47.24384" lon="-2.26268">
        <ele>7</ele>
        <time>2021-05-23T12:15:19.982Z</time>
      </trkpt>
      <trkpt lat="47.24385" lon="-2.26267">
        <ele>7</ele>
        <time>2021-05-23T12:15:20.982Z</time>
      </trkpt>
      <trkpt lat="47.24387" lon="-2.26266">
        <ele>7</ele>
        <time>2021-05-23T12:15:21.982Z</time>
      </trkpt>
      <trkpt lat="47.24388" lon="-2.26266">
        <ele>8</ele>
        <time>2021-05-23T12:15:22.982Z</time>
      </trkpt>
      <trkpt lat="47.24389" lon="-2.26264">
        <ele>8</ele>
        <time>2021-05-23T12:15:23.982Z</time>
      </trkpt>
      <trkpt lat="47.24389" lon="-2.26263">
        <ele>8</ele>
        <time>2021-05-23T12:15:24.982Z</time>
      </trkpt>
      <trkpt lat="47.2439" lon="-2.26263">
        <ele>8</ele>
        <time>2021-05-23T12:15:25.983Z</time>
      </trkpt>
      <trkpt lat="47.24391" lon="-2.26262">
        <ele>8</ele>
        <time>2021-05-23T12:15:26.982Z</time>
      </trkpt>
      <trkpt lat="47.24392" lon="-2.26261">
        <ele>8</ele>
        <time>2021-05-23T12:15:27.983Z</time>
      </trkpt>
      <trkpt lat="47.24393" lon="-2.26261">
        <ele>8</ele>
        <time>2021-05-23T12:15:28.982Z</time>
      </trkpt>
      <trkpt lat="47.24394" lon="-2.2626">
        <ele>9</ele>
        <time>2021-05-23T12:15:29.983Z</time>
      </trkpt>
      <trkpt lat="47.24396" lon="-2.2626">
        <ele>9</ele>
        <time>2021-05-23T12:15:30.983Z</time>
      </trkpt>
      <trkpt lat="47.24397" lon="-2.2626">
        <ele>9</ele>
        <time>2021-05-23T12:15:31.983Z</time>
      </trkpt>
      <trkpt lat="47.24398" lon="-2.2626">
        <ele>9</ele>
        <time>2021-05-23T12:15:32.983Z</time>
      </trkpt>
      <trkpt lat="47.24399" lon="-2.2626">
        <ele>9</ele>
        <time>2021-05-23T12:15:33.983Z</time>
      </trkpt>
      <trkpt lat="47.24399" lon="-2.2626">
        <ele>9</ele>
        <time>2021-05-23T12:15:34.982Z</time>
      </trkpt>
      <trkpt lat="47.24399" lon="-2.2626">
        <ele>9</ele>
        <time>2021-05-23T12:15:35.983Z</time>
      </trkpt>
      <trkpt lat="47.244" lon="-2.26261">
        <ele>9</ele>
        <time>2021-05-23T12:15:36.983Z</time>
      </trkpt>
      <trkpt lat="47.244" lon="-2.26261">
        <ele>10</ele>
        <time>2021-05-23T12:15:37.982Z</time>
      </trkpt>
      <trkpt lat="47.24401" lon="-2.26262">
        <ele>10</ele>
        <time>2021-05-23T12:15:38.983Z</time>
      </trkpt>
      <trkpt lat="47.24402" lon="-2.26263">
        <ele>10</ele>
        <time>2021-05-23T12:15:39.983Z</time>
      </trkpt>
      <trkpt lat="47.24402" lon="-2.26264">
        <ele>10</ele>
        <time>2021-05-23T12:15:40.983Z</time>
      </trkpt>
      <trkpt lat="47.24402" lon="-2.26266">
        <ele>11</ele>
        <time>2021-05-23T12:15:41.983Z</time>
      </trkpt>
      <trkpt lat="47.24402" lon="-2.26266">
        <ele>11</ele>
        <time>2021-05-23T12:15:42.983Z</time>
      </trkpt>
      <trkpt lat="47.24402" lon="-2.26267">
        <ele>12</ele>
        <time>2021-05-23T12:15:43.983Z</time>
      </trkpt>
      <trkpt lat="47.24403" lon="-2.26267">
        <ele>12</ele>
        <time>2021-05-23T12:15:44.983Z</time>
      </trkpt>
      <trkpt lat="47.24404" lon="-2.26268">
        <ele>12</ele>
        <time>2021-05-23T12:15:45.982Z</time>
      </trkpt>
      <trkpt lat="47.24404" lon="-2.26269">
        <ele>12</ele>
        <time>2021-05-23T12:15:46.982Z</time>
      </trkpt>
      <trkpt lat="47.24405" lon="-2.26269">
        <ele>13</ele>
        <time>2021-05-23T12:15:47.983Z</time>
      </trkpt>
      <trkpt lat="47.24406" lon="-2.2627">
        <ele>13</ele>
        <time>2021-05-23T12:15:48.983Z</time>
      </trkpt>
      <trkpt lat="47.24407" lon="-2.2627">
        <ele>13</ele>
        <time>2021-05-23T12:15:49.982Z</time>
      </trkpt>
      <trkpt lat="47.24407" lon="-2.2627">
        <ele>13</ele>
        <time>2021-05-23T12:15:50.982Z</time>
      </trkpt>
      <trkpt lat="47.24408" lon="-2.2627">
        <ele>12</ele>
        <time>2021-05-23T12:15:51.982Z</time>
      </trkpt>
      <trkpt lat="47.24408" lon="-2.26269">
        <ele>12</ele>
        <time>2021-05-23T12:15:52.983Z</time>
      </trkpt>
      <trkpt lat="47.24408" lon="-2.26269">
        <ele>12</ele>
        <time>2021-05-23T12:15:53.982Z</time>
      </trkpt>
      <trkpt lat="47.24408" lon="-2.26268">
        <ele>12</ele>
        <time>2021-05-23T12:15:54.983Z</time>
      </trkpt>
      <trkpt lat="47.24408" lon="-2.26268">
        <ele>12</ele>
        <time>2021-05-23T12:15:55.983Z</time>
      </trkpt>
      <trkpt lat="47.24408" lon="-2.26268">
        <ele>13</ele>
        <time>2021-05-23T12:15:56.982Z</time>
      </trkpt>
      <trkpt lat="47.24409" lon="-2.26268">
        <ele>13</ele>
        <time>2021-05-23T12:15:57.982Z</time>
      </trkpt>
      <trkpt lat="47.24409" lon="-2.26267">
        <ele>13</ele>
        <time>2021-05-23T12:15:58.982Z</time>
      </trkpt>
      <trkpt lat="47.2441" lon="-2.26268">
        <ele>14</ele>
        <time>2021-05-23T12:15:59.982Z</time>
      </trkpt>
      <trkpt lat="47.24411" lon="-2.26268">
        <ele>14</ele>
        <time>2021-05-23T12:16:00.982Z</time>
      </trkpt>
      <trkpt lat="47.24412" lon="-2.26268">
        <ele>15</ele>
        <time>2021-05-23T12:16:01.983Z</time>
      </trkpt>
      <trkpt lat="47.24413" lon="-2.26268">
        <ele>15</ele>
        <time>2021-05-23T12:16:02.983Z</time>
      </trkpt>
      <trkpt lat="47.24413" lon="-2.26268">
        <ele>16</ele>
        <time>2021-05-23T12:16:03.983Z</time>
      </trkpt>
      <trkpt lat="47.24414" lon="-2.26267">
        <ele>17</ele>
        <time>2021-05-23T12:16:04.982Z</time>
      </trkpt>
      <trkpt lat="47.24415" lon="-2.26268">
        <ele>18</ele>
        <time>2021-05-23T12:16:05.983Z</time>
      </trkpt>
      <trkpt lat="47.24417" lon="-2.26267">
        <ele>19</ele>
        <time>2021-05-23T12:16:06.983Z</time>
      </trkpt>
      <trkpt lat="47.24418" lon="-2.26266">
        <ele>19</ele>
        <time>2021-05-23T12:16:07.982Z</time>
      </trkpt>
      <trkpt lat="47.24418" lon="-2.26265">
        <ele>20</ele>
        <time>2021-05-23T12:16:08.983Z</time>
      </trkpt>
      <trkpt lat="47.24419" lon="-2.26264">
        <ele>20</ele>
        <time>2021-05-23T12:16:09.983Z</time>
      </trkpt>
      <trkpt lat="47.2442" lon="-2.26264">
        <ele>21</ele>
        <time>2021-05-23T12:16:10.982Z</time>
      </trkpt>
      <trkpt lat="47.24421" lon="-2.26263">
        <ele>21</ele>
        <time>2021-05-23T12:16:11.983Z</time>
      </trkpt>
      <trkpt lat="47.24422" lon="-2.26262">
        <ele>21</ele>
        <time>2021-05-23T12:16:12.983Z</time>
      </trkpt>
      <trkpt lat="47.24422" lon="-2.26262">
        <ele>22</ele>
        <time>2021-05-23T12:16:13.983Z</time>
      </trkpt>
      <trkpt lat="47.24423" lon="-2.26262">
        <ele>23</ele>
        <time>2021-05-23T12:16:14.982Z</time>
      </trkpt>
      <trkpt lat="47.24424" lon="-2.26261">
        <ele>23</ele>
        <time>2021-05-23T12:16:15.983Z</time>
      </trkpt>
      <trkpt lat="47.24425" lon="-2.2626">
        <ele>24</ele>
        <time>2021-05-23T12:16:16.983Z</time>
      </trkpt>
      <trkpt lat="47.24426" lon="-2.26259">
        <ele>25</ele>
        <time>2021-05-23T12:16:17.983Z</time>
      </trkpt>
      <trkpt lat="47.24428" lon="-2.26258">
        <ele>25</ele>
        <time>2021-05-23T12:16:18.983Z</time>
      </trkpt>
      <trkpt lat="47.24429" lon="-2.26257">
        <ele>26</ele>
        <time>2021-05-23T12:16:19.983Z</time>
      </trkpt>
      <trkpt lat="47.2443" lon="-2.26257">
        <ele>26</ele>
        <time>2021-05-23T12:16:20.983Z</time>
      </trkpt>
      <trkpt lat="47.24431" lon="-2.26255">
        <ele>26</ele>
        <time>2021-05-23T12:16:21.982Z</time>
      </trkpt>
      <trkpt lat="47.24431" lon="-2.26253">
        <ele>26</ele>
        <time>2021-05-23T12:16:22.983Z</time>
      </trkpt>
      <trkpt lat="47.24432" lon="-2.26252">
        <ele>26</ele>
        <time>2021-05-23T12:16:23.982Z</time>
      </trkpt>
      <trkpt lat="47.24432" lon="-2.2625">
        <ele>26</ele>
        <time>2021-05-23T12:16:24.983Z</time>
      </trkpt>
      <trkpt lat="47.24433" lon="-2.2625">
        <ele>26</ele>
        <time>2021-05-23T12:16:25.983Z</time>
      </trkpt>
      <trkpt lat="47.24433" lon="-2.26249">
        <ele>26</ele>
        <time>2021-05-23T12:16:26.982Z</time>
      </trkpt>
      <trkpt lat="47.24432" lon="-2.26248">
        <ele>26</ele>
        <time>2021-05-23T12:16:27.982Z</time>
      </trkpt>
      <trkpt lat="47.24432" lon="-2.26247">
        <ele>26</ele>
        <time>2021-05-23T12:16:28.982Z</time>
      </trkpt>
      <trkpt lat="47.24431" lon="-2.26246">
        <ele>26</ele>
        <time>2021-05-23T12:16:29.982Z</time>
      </trkpt>
      <trkpt lat="47.24432" lon="-2.26245">
        <ele>25</ele>
        <time>2021-05-23T12:16:30.983Z</time>
      </trkpt>
      <trkpt lat="47.24432" lon="-2.26243">
        <ele>25</ele>
        <time>2021-05-23T12:16:31.983Z</time>
      </trkpt>
      <trkpt lat="47.24432" lon="-2.26242">
        <ele>25</ele>
        <time>2021-05-23T12:16:32.983Z</time>
      </trkpt>
      <trkpt lat="47.24432" lon="-2.26241">
        <ele>25</ele>
        <time>2021-05-23T12:16:33.983Z</time>
      </trkpt>
      <trkpt lat="47.24433" lon="-2.26241">
        <ele>24</ele>
        <time>2021-05-23T12:16:34.983Z</time>
      </trkpt>
      <trkpt lat="47.24433" lon="-2.26241">
        <ele>24</ele>
        <time>2021-05-23T12:16:35.983Z</time>
      </trkpt>
      <trkpt lat="47.24432" lon="-2.26241">
        <ele>23</ele>
        <time>2021-05-23T12:16:36.983Z</time>
      </trkpt>
      <trkpt lat="47.24431" lon="-2.26241">
        <ele>23</ele>
        <time>2021-05-23T12:16:37.983Z</time>
      </trkpt>
      <trkpt lat="47.2443" lon="-2.26241">
        <ele>23</ele>
        <time>2021-05-23T12:16:38.983Z</time>
      </trkpt>
      <trkpt lat="47.2443" lon="-2.2624">
        <ele>22</ele>
        <time>2021-05-23T12:16:39.983Z</time>
      </trkpt>
      <trkpt lat="47.24429" lon="-2.26239">
        <ele>22</ele>
        <time>2021-05-23T12:16:40.982Z</time>
      </trkpt>
      <trkpt lat="47.24429" lon="-2.26239">
        <ele>22</ele>
        <time>2021-05-23T12:16:41.982Z</time>
      </trkpt>
      <trkpt lat="47.24429" lon="-2.26238">
        <ele>21</ele>
        <time>2021-05-23T12:16:42.983Z</time>
      </trkpt>
      <trkpt lat="47.24429" lon="-2.26237">
        <ele>21</ele>
        <time>2021-05-23T12:16:43.982Z</time>
      </trkpt>
      <trkpt lat="47.24428" lon="-2.26237">
        <ele>21</ele>
        <time>2021-05-23T12:16:44.982Z</time>
      </trkpt>
      <trkpt lat="47.24427" lon="-2.26236">
        <ele>21</ele>
        <time>2021-05-23T12:16:45.983Z</time>
      </trkpt>
      <trkpt lat="47.24426" lon="-2.26235">
        <ele>21</ele>
        <time>2021-05-23T12:16:46.983Z</time>
      </trkpt>
      <trkpt lat="47.24426" lon="-2.26234">
        <ele>21</ele>
        <time>2021-05-23T12:16:47.982Z</time>
      </trkpt>
      <trkpt lat="47.24425" lon="-2.26233">
        <ele>20</ele>
        <time>2021-05-23T12:16:48.983Z</time>
      </trkpt>
      <trkpt lat="47.24426" lon="-2.26232">
        <ele>20</ele>
        <time>2021-05-23T12:16:49.982Z</time>
      </trkpt>
      <trkpt lat="47.24426" lon="-2.26231">
        <ele>20</ele>
        <time>2021-05-23T12:16:50.982Z</time>
      </trkpt>
      <trkpt lat="47.24426" lon="-2.2623">
        <ele>19</ele>
        <time>2021-05-23T12:16:51.983Z</time>
      </trkpt>
      <trkpt lat="47.24427" lon="-2.26229">
        <ele>18</ele>
        <time>2021-05-23T12:16:52.982Z</time>
      </trkpt>
      <trkpt lat="47.24427" lon="-2.26227">
        <ele>18</ele>
        <time>2021-05-23T12:16:53.982Z</time>
      </trkpt>
      <trkpt lat="47.24428" lon="-2.26225">
        <ele>17</ele>
        <time>2021-05-23T12:16:54.983Z</time>
      </trkpt>
      <trkpt lat="47.24428" lon="-2.26223">
        <ele>16</ele>
        <time>2021-05-23T12:16:55.982Z</time>
      </trkpt>
      <trkpt lat="47.24428" lon="-2.26221">
        <ele>16</ele>
        <time>2021-05-23T12:16:56.982Z</time>
      </trkpt>
      <trkpt lat="47.24428" lon="-2.26218">
        <ele>15</ele>
        <time>2021-05-23T12:16:57.982Z</time>
      </trkpt>
      <trkpt lat="47.24428" lon="-2.26215">
        <ele>15</ele>
        <time>2021-05-23T12:16:58.983Z</time>
      </trkpt>
      <trkpt lat="47.24428" lon="-2.26214">
        <ele>14</ele>
        <time>2021-05-23T12:16:59.982Z</time>
      </trkpt>
      <trkpt lat="47.24428" lon="-2.26211">
        <ele>14</ele>
        <time>2021-05-23T12:17:00.982Z</time>
      </trkpt>
      <trkpt lat="47.24428" lon="-2.26208">
        <ele>13</ele>
        <time>2021-05-23T12:17:01.982Z</time>
      </trkpt>
      <trkpt lat="47.24429" lon="-2.26205">
        <ele>13</ele>
        <time>2021-05-23T12:17:02.982Z</time>
      </trkpt>
      <trkpt lat="47.2443" lon="-2.26202">
        <ele>13</ele>
        <time>2021-05-23T12:17:03.983Z</time>
      </trkpt>
      <trkpt lat="47.24431" lon="-2.262">
        <ele>12</ele>
        <time>2021-05-23T12:17:04.982Z</time>
      </trkpt>
      <trkpt lat="47.24433" lon="-2.26198">
        <ele>12</ele>
        <time>2021-05-23T12:17:05.983Z</time>
      </trkpt>
      <trkpt lat="47.24434" lon="-2.26196">
        <ele>12</ele>
        <time>2021-05-23T12:17:06.982Z</time>
      </trkpt>
      <trkpt lat="47.24436" lon="-2.26196">
        <ele>11</ele>
        <time>2021-05-23T12:17:07.982Z</time>
      </trkpt>
      <trkpt lat="47.24438" lon="-2.26195">
        <ele>11</ele>
        <time>2021-05-23T12:17:08.982Z</time>
      </trkpt>
      <trkpt lat="47.2444" lon="-2.26194">
        <ele>11</ele>
        <time>2021-05-23T12:17:09.982Z</time>
      </trkpt>
      <trkpt lat="47.24442" lon="-2.26193">
        <ele>11</ele>
        <time>2021-05-23T12:17:10.983Z</time>
      </trkpt>
      <trkpt lat="47.24444" lon="-2.26192">
        <ele>11</ele>
        <time>2021-05-23T12:17:11.982Z</time>
      </trkpt>
      <trkpt lat="47.24446" lon="-2.26192">
        <ele>11</ele>
        <time>2021-05-23T12:17:12.983Z</time>
      </trkpt>
      <trkpt lat="47.24449" lon="-2.26191">
        <ele>10</ele>
        <time>2021-05-23T12:17:13.983Z</time>
      </trkpt>
      <trkpt lat="47.24451" lon="-2.2619">
        <ele>10</ele>
        <time>2021-05-23T12:17:14.982Z</time>
      </trkpt>
      <trkpt lat="47.24452" lon="-2.26188">
        <ele>10</ele>
        <time>2021-05-23T12:17:15.983Z</time>
      </trkpt>
      <trkpt lat="47.24453" lon="-2.26188">
        <ele>10</ele>
        <time>2021-05-23T12:17:16.983Z</time>
      </trkpt>
      <trkpt lat="47.24454" lon="-2.26187">
        <ele>10</ele>
        <time>2021-05-23T12:17:17.982Z</time>
      </trkpt>
      <trkpt lat="47.24455" lon="-2.26186">
        <ele>10</ele>
        <time>2021-05-23T12:17:18.983Z</time>
      </trkpt>
      <trkpt lat="47.24456" lon="-2.26185">
        <ele>10</ele>
        <time>2021-05-23T12:17:19.983Z</time>
      </trkpt>
      <trkpt lat="47.24456" lon="-2.26184">
        <ele>10</ele>
        <time>2021-05-23T12:17:20.982Z</time>
      </trkpt>
      <trkpt lat="47.24457" lon="-2.26183">
        <ele>10</ele>
        <time>2021-05-23T12:17:21.983Z</time>
      </trkpt>
      <trkpt lat="47.24458" lon="-2.26183">
        <ele>10</ele>
        <time>2021-05-23T12:17:22.982Z</time>
      </trkpt>
      <trkpt lat="47.2446" lon="-2.26182">
        <ele>11</ele>
        <time>2021-05-23T12:17:23.983Z</time>
      </trkpt>
      <trkpt lat="47.24462" lon="-2.26181">
        <ele>11</ele>
        <time>2021-05-23T12:17:24.983Z</time>
      </trkpt>
      <trkpt lat="47.24463" lon="-2.2618">
        <ele>11</ele>
        <time>2021-05-23T12:17:25.983Z</time>
      </trkpt>
      <trkpt lat="47.24465" lon="-2.26179">
        <ele>12</ele>
        <time>2021-05-23T12:17:26.983Z</time>
      </trkpt>
      <trkpt lat="47.24466" lon="-2.26178">
        <ele>12</ele>
        <time>2021-05-23T12:17:27.983Z</time>
      </trkpt>
      <trkpt lat="47.24466" lon="-2.26177">
        <ele>13</ele>
        <time>2021-05-23T12:17:28.983Z</time>
      </trkpt>
      <trkpt lat="47.24468" lon="-2.26177">
        <ele>13</ele>
        <time>2021-05-23T12:17:29.982Z</time>
      </trkpt>
      <trkpt lat="47.24469" lon="-2.26177">
        <ele>13</ele>
        <time>2021-05-23T12:17:30.982Z</time>
      </trkpt>
      <trkpt lat="47.24469" lon="-2.26176">
        <ele>14</ele>
        <time>2021-05-23T12:17:31.983Z</time>
      </trkpt>
      <trkpt lat="47.2447" lon="-2.26176">
        <ele>14</ele>
        <time>2021-05-23T12:17:32.983Z</time>
      </trkpt>
      <trkpt lat="47.24471" lon="-2.26176">
        <ele>14</ele>
        <time>2021-05-23T12:17:33.983Z</time>
      </trkpt>
      <trkpt lat="47.24471" lon="-2.26176">
        <ele>14</ele>
        <time>2021-05-23T12:17:34.983Z</time>
      </trkpt>
      <trkpt lat="47.24473" lon="-2.26176">
        <ele>14</ele>
        <time>2021-05-23T12:17:35.983Z</time>
      </trkpt>
      <trkpt lat="47.24474" lon="-2.26176">
        <ele>14</ele>
        <time>2021-05-23T12:17:36.982Z</time>
      </trkpt>
      <trkpt lat="47.24476" lon="-2.26177">
        <ele>15</ele>
        <time>2021-05-23T12:17:37.983Z</time>
      </trkpt>
      <trkpt lat="47.24478" lon="-2.26178">
        <ele>15</ele>
        <time>2021-05-23T12:17:38.982Z</time>
      </trkpt>
      <trkpt lat="47.24479" lon="-2.26178">
        <ele>15</ele>
        <time>2021-05-23T12:17:39.983Z</time>
      </trkpt>
      <trkpt lat="47.2448" lon="-2.26178">
        <ele>15</ele>
        <time>2021-05-23T12:17:40.982Z</time>
      </trkpt>
      <trkpt lat="47.24481" lon="-2.26179">
        <ele>15</ele>
        <time>2021-05-23T12:17:41.982Z</time>
      </trkpt>
      <trkpt lat="47.24482" lon="-2.2618">
        <ele>15</ele>
        <time>2021-05-23T12:17:42.982Z</time>
      </trkpt>
      <trkpt lat="47.24483" lon="-2.2618">
        <ele>15</ele>
        <time>2021-05-23T12:17:43.983Z</time>
      </trkpt>
      <trkpt lat="47.24484" lon="-2.26181">
        <ele>15</ele>
        <time>2021-05-23T12:17:44.982Z</time>
      </trkpt>
      <trkpt lat="47.24486" lon="-2.26181">
        <ele>15</ele>
        <time>2021-05-23T12:17:45.983Z</time>
      </trkpt>
      <trkpt lat="47.24486" lon="-2.2618">
        <ele>15</ele>
        <time>2021-05-23T12:17:46.983Z</time>
      </trkpt>
      <trkpt lat="47.24488" lon="-2.26179">
        <ele>16</ele>
        <time>2021-05-23T12:17:47.983Z</time>
      </trkpt>
      <trkpt lat="47.24489" lon="-2.26178">
        <ele>16</ele>
        <time>2021-05-23T12:17:48.982Z</time>
      </trkpt>
      <trkpt lat="47.2449" lon="-2.26177">
        <ele>16</ele>
        <time>2021-05-23T12:17:49.982Z</time>
      </trkpt>
      <trkpt lat="47.24492" lon="-2.26176">
        <ele>15</ele>
        <time>2021-05-23T12:17:50.983Z</time>
      </trkpt>
      <trkpt lat="47.24493" lon="-2.26176">
        <ele>15</ele>
        <time>2021-05-23T12:17:51.982Z</time>
      </trkpt>
      <trkpt lat="47.24495" lon="-2.26177">
        <ele>15</ele>
        <time>2021-05-23T12:17:52.983Z</time>
      </trkpt>
      <trkpt lat="47.24496" lon="-2.26177">
        <ele>15</ele>
        <time>2021-05-23T12:17:53.983Z</time>
      </trkpt>
      <trkpt lat="47.24498" lon="-2.26176">
        <ele>15</ele>
        <time>2021-05-23T12:17:54.983Z</time>
      </trkpt>
      <trkpt lat="47.24499" lon="-2.26175">
        <ele>15</ele>
        <time>2021-05-23T12:17:55.982Z</time>
      </trkpt>
      <trkpt lat="47.24501" lon="-2.26173">
        <ele>15</ele>
        <time>2021-05-23T12:17:56.982Z</time>
      </trkpt>
      <trkpt lat="47.24502" lon="-2.26171">
        <ele>15</ele>
        <time>2021-05-23T12:17:57.982Z</time>
      </trkpt>
      <trkpt lat="47.24504" lon="-2.26169">
        <ele>15</ele>
        <time>2021-05-23T12:17:58.982Z</time>
      </trkpt>
      <trkpt lat="47.24506" lon="-2.26168">
        <ele>15</ele>
        <time>2021-05-23T12:17:59.982Z</time>
      </trkpt>
      <trkpt lat="47.24508" lon="-2.26167">
        <ele>15</ele>
        <time>2021-05-23T12:18:00.982Z</time>
      </trkpt>
      <trkpt lat="47.24509" lon="-2.26165">
        <ele>14</ele>
        <time>2021-05-23T12:18:01.982Z</time>
      </trkpt>
      <trkpt lat="47.2451" lon="-2.26163">
        <ele>14</ele>
        <time>2021-05-23T12:18:02.982Z</time>
      </trkpt>
      <trkpt lat="47.24512" lon="-2.26161">
        <ele>14</ele>
        <time>2021-05-23T12:18:03.982Z</time>
      </trkpt>
      <trkpt lat="47.24514" lon="-2.26159">
        <ele>14</ele>
        <time>2021-05-23T12:18:04.982Z</time>
      </trkpt>
      <trkpt lat="47.24515" lon="-2.26157">
        <ele>14</ele>
        <time>2021-05-23T12:18:05.982Z</time>
      </trkpt>
      <trkpt lat="47.24516" lon="-2.26155">
        <ele>15</ele>
        <time>2021-05-23T12:18:06.982Z</time>
      </trkpt>
      <trkpt lat="47.24518" lon="-2.26153">
        <ele>15</ele>
        <time>2021-05-23T12:18:07.982Z</time>
      </trkpt>
      <trkpt lat="47.24519" lon="-2.26152">
        <ele>15</ele>
        <time>2021-05-23T12:18:08.983Z</time>
      </trkpt>
      <trkpt lat="47.24521" lon="-2.26149">
        <ele>15</ele>
        <time>2021-05-23T12:18:09.982Z</time>
      </trkpt>
      <trkpt lat="47.24522" lon="-2.26147">
        <ele>15</ele>
        <time>2021-05-23T12:18:10.982Z</time>
      </trkpt>
      <trkpt lat="47.24523" lon="-2.26145">
        <ele>15</ele>
        <time>2021-05-23T12:18:11.982Z</time>
      </trkpt>
      <trkpt lat="47.24523" lon="-2.26143">
        <ele>16</ele>
        <time>2021-05-23T12:18:12.983Z</time>
      </trkpt>
      <trkpt lat="47.24523" lon="-2.26141">
        <ele>16</ele>
        <time>2021-05-23T12:18:13.982Z</time>
      </trkpt>
      <trkpt lat="47.24523" lon="-2.26139">
        <ele>16</ele>
        <time>2021-05-23T12:18:14.982Z</time>
      </trkpt>
      <trkpt lat="47.24523" lon="-2.26139">
        <ele>16</ele>
        <time>2021-05-23T12:18:15.982Z</time>
      </trkpt>
      <trkpt lat="47.24523" lon="-2.26139">
        <ele>16</ele>
        <time>2021-05-23T12:18:16.983Z</time>
      </trkpt>
      <trkpt lat="47.24522" lon="-2.26138">
        <ele>15</ele>
        <time>2021-05-23T12:18:17.983Z</time>
      </trkpt>
      <trkpt lat="47.24521" lon="-2.26137">
        <ele>15</ele>
        <time>2021-05-23T12:18:18.983Z</time>
      </trkpt>
      <trkpt lat="47.2452" lon="-2.26137">
        <ele>14</ele>
        <time>2021-05-23T12:18:19.982Z</time>
      </trkpt>
      <trkpt lat="47.24519" lon="-2.26137">
        <ele>14</ele>
        <time>2021-05-23T12:18:20.982Z</time>
      </trkpt>
      <trkpt lat="47.24518" lon="-2.26137">
        <ele>14</ele>
        <time>2021-05-23T12:18:21.982Z</time>
      </trkpt>
      <trkpt lat="47.24518" lon="-2.26137">
        <ele>13</ele>
        <time>2021-05-23T12:18:22.983Z</time>
      </trkpt>
      <trkpt lat="47.24517" lon="-2.26138">
        <ele>13</ele>
        <time>2021-05-23T12:18:23.983Z</time>
      </trkpt>
      <trkpt lat="47.24517" lon="-2.26138">
        <ele>13</ele>
        <time>2021-05-23T12:18:24.983Z</time>
      </trkpt>
      <trkpt lat="47.24516" lon="-2.26139">
        <ele>13</ele>
        <time>2021-05-23T12:18:25.982Z</time>
      </trkpt>
      <trkpt lat="47.24516" lon="-2.2614">
        <ele>13</ele>
        <time>2021-05-23T12:18:26.982Z</time>
      </trkpt>
      <trkpt lat="47.24515" lon="-2.2614">
        <ele>13</ele>
        <time>2021-05-23T12:18:27.982Z</time>
      </trkpt>
      <trkpt lat="47.24515" lon="-2.26141">
        <ele>13</ele>
        <time>2021-05-23T12:18:28.983Z</time>
      </trkpt>
      <trkpt lat="47.24514" lon="-2.26143">
        <ele>13</ele>
        <time>2021-05-23T12:18:29.982Z</time>
      </trkpt>
      <trkpt lat="47.24514" lon="-2.26144">
        <ele>13</ele>
        <time>2021-05-23T12:18:30.982Z</time>
      </trkpt>
      <trkpt lat="47.24515" lon="-2.26145">
        <ele>12</ele>
        <time>2021-05-23T12:18:31.982Z</time>
      </trkpt>
      <trkpt lat="47.24515" lon="-2.26146">
        <ele>12</ele>
        <time>2021-05-23T12:18:32.983Z</time>
      </trkpt>
      <trkpt lat="47.24515" lon="-2.26145">
        <ele>11</ele>
        <time>2021-05-23T12:18:33.983Z</time>
      </trkpt>
      <trkpt lat="47.24514" lon="-2.26145">
        <ele>10</ele>
        <time>2021-05-23T12:18:34.982Z</time>
      </trkpt>
      <trkpt lat="47.24513" lon="-2.26144">
        <ele>10</ele>
        <time>2021-05-23T12:18:35.983Z</time>
      </trkpt>
      <trkpt lat="47.24513" lon="-2.26144">
        <ele>9</ele>
        <time>2021-05-23T12:18:36.983Z</time>
      </trkpt>
      <trkpt lat="47.24512" lon="-2.26145">
        <ele>9</ele>
        <time>2021-05-23T12:18:37.983Z</time>
      </trkpt>
      <trkpt lat="47.24511" lon="-2.26145">
        <ele>9</ele>
        <time>2021-05-23T12:18:38.983Z</time>
      </trkpt>
      <trkpt lat="47.24511" lon="-2.26146">
        <ele>8</ele>
        <time>2021-05-23T12:18:39.982Z</time>
      </trkpt>
      <trkpt lat="47.2451" lon="-2.26146">
        <ele>8</ele>
        <time>2021-05-23T12:18:40.983Z</time>
      </trkpt>
      <trkpt lat="47.2451" lon="-2.26146">
        <ele>8</ele>
        <time>2021-05-23T12:18:41.983Z</time>
      </trkpt>
      <trkpt lat="47.24509" lon="-2.26145">
        <ele>8</ele>
        <time>2021-05-23T12:18:42.983Z</time>
      </trkpt>
      <trkpt lat="47.2451" lon="-2.26145">
        <ele>8</ele>
        <time>2021-05-23T12:18:43.983Z</time>
      </trkpt>
      <trkpt lat="47.24509" lon="-2.26144">
        <ele>8</ele>
        <time>2021-05-23T12:18:44.983Z</time>
      </trkpt>
      <trkpt lat="47.24509" lon="-2.26144">
        <ele>8</ele>
        <time>2021-05-23T12:18:45.983Z</time>
      </trkpt>
      <trkpt lat="47.2451" lon="-2.26143">
        <ele>7</ele>
        <time>2021-05-23T12:18:46.982Z</time>
      </trkpt>
      <trkpt lat="47.2451" lon="-2.26141">
        <ele>7</ele>
        <time>2021-05-23T12:18:47.982Z</time>
      </trkpt>
      <trkpt lat="47.24511" lon="-2.2614">
        <ele>6</ele>
        <time>2021-05-23T12:18:48.983Z</time>
      </trkpt>
      <trkpt lat="47.24511" lon="-2.26138">
        <ele>6</ele>
        <time>2021-05-23T12:18:49.982Z</time>
      </trkpt>
      <trkpt lat="47.24512" lon="-2.26135">
        <ele>5</ele>
        <time>2021-05-23T12:18:50.983Z</time>
      </trkpt>
      <trkpt lat="47.24512" lon="-2.26133">
        <ele>5</ele>
        <time>2021-05-23T12:18:51.983Z</time>
      </trkpt>
      <trkpt lat="47.24512" lon="-2.26131">
        <ele>5</ele>
        <time>2021-05-23T12:18:52.982Z</time>
      </trkpt>
      <trkpt lat="47.24513" lon="-2.26129">
        <ele>4</ele>
        <time>2021-05-23T12:18:53.982Z</time>
      </trkpt>
      <trkpt lat="47.24514" lon="-2.26129">
        <ele>4</ele>
        <time>2021-05-23T12:18:54.982Z</time>
      </trkpt>
      <trkpt lat="47.24515" lon="-2.26128">
        <ele>4</ele>
        <time>2021-05-23T12:18:55.982Z</time>
      </trkpt>
      <trkpt lat="47.24517" lon="-2.26128">
        <ele>4</ele>
        <time>2021-05-23T12:18:56.982Z</time>
      </trkpt>
      <trkpt lat="47.24518" lon="-2.26127">
        <ele>4</ele>
        <time>2021-05-23T12:18:57.982Z</time>
      </trkpt>
      <trkpt lat="47.2452" lon="-2.26127">
        <ele>4</ele>
        <time>2021-05-23T12:18:58.983Z</time>
      </trkpt>
      <trkpt lat="47.24522" lon="-2.26127">
        <ele>3</ele>
        <time>2021-05-23T12:18:59.983Z</time>
      </trkpt>
      <trkpt lat="47.24524" lon="-2.26127">
        <ele>3</ele>
        <time>2021-05-23T12:19:00.982Z</time>
      </trkpt>
      <trkpt lat="47.24525" lon="-2.26127">
        <ele>3</ele>
        <time>2021-05-23T12:19:01.982Z</time>
      </trkpt>
      <trkpt lat="47.24528" lon="-2.26128">
        <ele>2</ele>
        <time>2021-05-23T12:19:02.982Z</time>
      </trkpt>
      <trkpt lat="47.24529" lon="-2.26128">
        <ele>2</ele>
        <time>2021-05-23T12:19:03.982Z</time>
      </trkpt>
      <trkpt lat="47.24531" lon="-2.26128">
        <ele>1</ele>
        <time>2021-05-23T12:19:04.982Z</time>
      </trkpt>
      <trkpt lat="47.24533" lon="-2.26128">
        <ele>1</ele>
        <time>2021-05-23T12:19:05.982Z</time>
      </trkpt>
      <trkpt lat="47.24535" lon="-2.26129">
        <ele>1</ele>
        <time>2021-05-23T12:19:06.983Z</time>
      </trkpt>
      <trkpt lat="47.24537" lon="-2.2613">
        <ele>1</ele>
        <time>2021-05-23T12:19:07.982Z</time>
      </trkpt>
      <trkpt lat="47.24538" lon="-2.2613">
        <ele>1</ele>
        <time>2021-05-23T12:19:08.982Z</time>
      </trkpt>
      <trkpt lat="47.2454" lon="-2.2613">
        <ele>1</ele>
        <time>2021-05-23T12:19:09.982Z</time>
      </trkpt>
      <trkpt lat="47.24542" lon="-2.26129">
        <ele>11.1</ele>
        <time>2021-05-23T12:19:10.983Z</time>
      </trkpt>
      <trkpt lat="47.24544" lon="-2.26129">
        <ele>1</ele>
        <time>2021-05-23T12:19:11.982Z</time>
      </trkpt>
      <trkpt lat="47.24546" lon="-2.26129">
        <ele>1</ele>
        <time>2021-05-23T12:19:12.982Z</time>
      </trkpt>
      <trkpt lat="47.24549" lon="-2.26128">
        <ele>1</ele>
        <time>2021-05-23T12:19:13.982Z</time>
      </trkpt>
      <trkpt lat="47.24551" lon="-2.26127">
        <ele>1</ele>
        <time>2021-05-23T12:19:14.982Z</time>
      </trkpt>
      <trkpt lat="47.24553" lon="-2.26126">
        <ele>1</ele>
        <time>2021-05-23T12:19:15.982Z</time>
      </trkpt>
      <trkpt lat="47.24555" lon="-2.26124">
        <ele>1</ele>
        <time>2021-05-23T12:19:16.982Z</time>
      </trkpt>
      <trkpt lat="47.24557" lon="-2.26122">
        <ele>1</ele>
        <time>2021-05-23T12:19:17.982Z</time>
      </trkpt>
      <trkpt lat="47.24558" lon="-2.26121">
        <ele>2</ele>
        <time>2021-05-23T12:19:18.982Z</time>
      </trkpt>
      <trkpt lat="47.24559" lon="-2.2612">
        <ele>2</ele>
        <time>2021-05-23T12:19:19.982Z</time>
      </trkpt>
      <trkpt lat="47.24561" lon="-2.26119">
        <ele>3</ele>
        <time>2021-05-23T12:19:20.983Z</time>
      </trkpt>
      <trkpt lat="47.24563" lon="-2.26119">
        <ele>3</ele>
        <time>2021-05-23T12:19:21.983Z</time>
      </trkpt>
      <trkpt lat="47.24565" lon="-2.26119">
        <ele>3</ele>
        <time>2021-05-23T12:19:22.982Z</time>
      </trkpt>
      <trkpt lat="47.24567" lon="-2.26119">
        <ele>3</ele>
        <time>2021-05-23T12:19:23.982Z</time>
      </trkpt>
      <trkpt lat="47.2457" lon="-2.26119">
        <ele>3</ele>
        <time>2021-05-23T12:19:24.983Z</time>
      </trkpt>
      <trkpt lat="47.24572" lon="-2.26119">
        <ele>4</ele>
        <time>2021-05-23T12:19:25.982Z</time>
      </trkpt>
      <trkpt lat="47.24574" lon="-2.26119">
        <ele>4</ele>
        <time>2021-05-23T12:19:26.983Z</time>
      </trkpt>
      <trkpt lat="47.24576" lon="-2.26119">
        <ele>4</ele>
        <time>2021-05-23T12:19:27.982Z</time>
      </trkpt>
      <trkpt lat="47.24578" lon="-2.26118">
        <ele>4</ele>
        <time>2021-05-23T12:19:28.982Z</time>
      </trkpt>
      <trkpt lat="47.24579" lon="-2.26117">
        <ele>4</ele>
        <time>2021-05-23T12:19:29.983Z</time>
      </trkpt>
      <trkpt lat="47.24581" lon="-2.26116">
        <ele>3</ele>
        <time>2021-05-23T12:19:30.983Z</time>
      </trkpt>
      <trkpt lat="47.24583" lon="-2.26115">
        <ele>3</ele>
        <time>2021-05-23T12:19:31.982Z</time>
      </trkpt>
      <trkpt lat="47.24584" lon="-2.26114">
        <ele>3</ele>
        <time>2021-05-23T12:19:32.982Z</time>
      </trkpt>
      <trkpt lat="47.24586" lon="-2.26114">
        <ele>3</ele>
        <time>2021-05-23T12:19:33.982Z</time>
      </trkpt>
      <trkpt lat="47.24587" lon="-2.26113">
        <ele>3</ele>
        <time>2021-05-23T12:19:34.983Z</time>
      </trkpt>
      <trkpt lat="47.24589" lon="-2.26114">
        <ele>3</ele>
        <time>2021-05-23T12:19:35.983Z</time>
      </trkpt>
      <trkpt lat="47.24591" lon="-2.26114">
        <ele>3</ele>
        <time>2021-05-23T12:19:36.982Z</time>
      </trkpt>
      <trkpt lat="47.24592" lon="-2.26114">
        <ele>3</ele>
        <time>2021-05-23T12:19:37.982Z</time>
      </trkpt>
      <trkpt lat="47.24594" lon="-2.26114">
        <ele>3</ele>
        <time>2021-05-23T12:19:38.983Z</time>
      </trkpt>
      <trkpt lat="47.24597" lon="-2.26113">
        <ele>3</ele>
        <time>2021-05-23T12:19:39.983Z</time>
      </trkpt>
      <trkpt lat="47.24599" lon="-2.26112">
        <ele>3</ele>
        <time>2021-05-23T12:19:40.982Z</time>
      </trkpt>
      <trkpt lat="47.24601" lon="-2.2611">
        <ele>3</ele>
        <time>2021-05-23T12:19:41.982Z</time>
      </trkpt>
      <trkpt lat="47.24603" lon="-2.26109">
        <ele>3</ele>
        <time>2021-05-23T12:19:42.983Z</time>
      </trkpt>
      <trkpt lat="47.24605" lon="-2.26107">
        <ele>3</ele>
        <time>2021-05-23T12:19:43.983Z</time>
      </trkpt>
      <trkpt lat="47.24607" lon="-2.26105">
        <ele>3</ele>
        <time>2021-05-23T12:19:44.982Z</time>
      </trkpt>
      <trkpt lat="47.24608" lon="-2.26104">
        <ele>2</ele>
        <time>2021-05-23T12:19:45.982Z</time>
      </trkpt>
      <trkpt lat="47.24609" lon="-2.26103">
        <ele>2</ele>
        <time>2021-05-23T12:19:46.983Z</time>
      </trkpt>
      <trkpt lat="47.24611" lon="-2.26101">
        <ele>2</ele>
        <time>2021-05-23T12:19:47.983Z</time>
      </trkpt>
      <trkpt lat="47.24613" lon="-2.261">
        <ele>2</ele>
        <time>2021-05-23T12:19:48.983Z</time>
      </trkpt>
      <trkpt lat="47.24614" lon="-2.26099">
        <ele>2</ele>
        <time>2021-05-23T12:19:49.982Z</time>
      </trkpt>
      <trkpt lat="47.24615" lon="-2.26098">
        <ele>2</ele>
        <time>2021-05-23T12:19:50.983Z</time>
      </trkpt>
      <trkpt lat="47.24616" lon="-2.26096">
        <ele>3</ele>
        <time>2021-05-23T12:19:51.983Z</time>
      </trkpt>
      <trkpt lat="47.24618" lon="-2.26094">
        <ele>3</ele>
        <time>2021-05-23T12:19:52.982Z</time>
      </trkpt>
      <trkpt lat="47.2462" lon="-2.26092">
        <ele>3</ele>
        <time>2021-05-23T12:19:53.982Z</time>
      </trkpt>
      <trkpt lat="47.24622" lon="-2.2609">
        <ele>3</ele>
        <time>2021-05-23T12:19:54.982Z</time>
      </trkpt>
      <trkpt lat="47.24624" lon="-2.26089">
        <ele>3</ele>
        <time>2021-05-23T12:19:55.982Z</time>
      </trkpt>
      <trkpt lat="47.24625" lon="-2.26088">
        <ele>3</ele>
        <time>2021-05-23T12:19:56.983Z</time>
      </trkpt>
      <trkpt lat="47.24627" lon="-2.26086">
        <ele>3</ele>
        <time>2021-05-23T12:19:57.982Z</time>
      </trkpt>
      <trkpt lat="47.24628" lon="-2.26086">
        <ele>3</ele>
        <time>2021-05-23T12:19:58.982Z</time>
      </trkpt>
      <trkpt lat="47.2463" lon="-2.26085">
        <ele>3</ele>
        <time>2021-05-23T12:19:59.982Z</time>
      </trkpt>
      <trkpt lat="47.24631" lon="-2.26084">
        <ele>3</ele>
        <time>2021-05-23T12:20:00.983Z</time>
      </trkpt>
      <trkpt lat="47.24632" lon="-2.26083">
        <ele>3</ele>
        <time>2021-05-23T12:20:01.982Z</time>
      </trkpt>
      <trkpt lat="47.24633" lon="-2.26083">
        <ele>3</ele>
        <time>2021-05-23T12:20:02.982Z</time>
      </trkpt>
      <trkpt lat="47.24634" lon="-2.26082">
        <ele>3</ele>
        <time>2021-05-23T12:20:03.983Z</time>
      </trkpt>
      <trkpt lat="47.24635" lon="-2.26081">
        <ele>3</ele>
        <time>2021-05-23T12:20:04.982Z</time>
      </trkpt>
      <trkpt lat="47.24636" lon="-2.26079">
        <ele>3</ele>
        <time>2021-05-23T12:20:05.982Z</time>
      </trkpt>
      <trkpt lat="47.24638" lon="-2.26078">
        <ele>3</ele>
        <time>2021-05-23T12:20:06.982Z</time>
      </trkpt>
      <trkpt lat="47.24639" lon="-2.26077">
        <ele>3</ele>
        <time>2021-05-23T12:20:07.982Z</time>
      </trkpt>
      <trkpt lat="47.24641" lon="-2.26076">
        <ele>3</ele>
        <time>2021-05-23T12:20:08.982Z</time>
      </trkpt>
      <trkpt lat="47.24642" lon="-2.26074">
        <ele>3</ele>
        <time>2021-05-23T12:20:09.983Z</time>
      </trkpt>
      <trkpt lat="47.24643" lon="-2.26072">
        <ele>3</ele>
        <time>2021-05-23T12:20:10.983Z</time>
      </trkpt>
      <trkpt lat="47.24645" lon="-2.2607">
        <ele>3</ele>
        <time>2021-05-23T12:20:11.983Z</time>
      </trkpt>
      <trkpt lat="47.24646" lon="-2.26069">
        <ele>2</ele>
        <time>2021-05-23T12:20:12.982Z</time>
      </trkpt>
      <trkpt lat="47.24647" lon="-2.26067">
        <ele>2</ele>
        <time>2021-05-23T12:20:13.982Z</time>
      </trkpt>
      <trkpt lat="47.24648" lon="-2.26065">
        <ele>2</ele>
        <time>2021-05-23T12:20:14.983Z</time>
      </trkpt>
      <trkpt lat="47.2465" lon="-2.26064">
        <ele>2</ele>
        <time>2021-05-23T12:20:15.982Z</time>
      </trkpt>
      <trkpt lat="47.24651" lon="-2.26063">
        <ele>2</ele>
        <time>2021-05-23T12:20:16.982Z</time>
      </trkpt>
      <trkpt lat="47.24653" lon="-2.26061">
        <ele>2</ele>
        <time>2021-05-23T12:20:17.983Z</time>
      </trkpt>
      <trkpt lat="47.24655" lon="-2.2606">
        <ele>2</ele>
        <time>2021-05-23T12:20:18.983Z</time>
      </trkpt>
      <trkpt lat="47.24656" lon="-2.2606">
        <ele>2</ele>
        <time>2021-05-23T12:20:19.983Z</time>
      </trkpt>
      <trkpt lat="47.24658" lon="-2.26059">
        <ele>1</ele>
        <time>2021-05-23T12:20:20.982Z</time>
      </trkpt>
      <trkpt lat="47.2466" lon="-2.2606">
        <ele>1</ele>
        <time>2021-05-23T12:20:21.982Z</time>
      </trkpt>
      <trkpt lat="47.24661" lon="-2.26061">
        <ele>1</ele>
        <time>2021-05-23T12:20:22.982Z</time>
      </trkpt>
      <trkpt lat="47.24662" lon="-2.26063">
        <ele>1</ele>
        <time>2021-05-23T12:20:23.983Z</time>
      </trkpt>
      <trkpt lat="47.24663" lon="-2.26065">
        <ele>13.65</ele>
        <time>2021-05-23T12:20:24.983Z</time>
      </trkpt>
      <trkpt lat="47.24664" lon="-2.26066">
        <ele>13.76</ele>
        <time>2021-05-23T12:20:25.982Z</time>
      </trkpt>
      <trkpt lat="47.24665" lon="-2.26068">
        <ele>13.87</ele>
        <time>2021-05-23T12:20:26.983Z</time>
      </trkpt>
      <trkpt lat="47.24666" lon="-2.2607">
        <ele>13.96</ele>
        <time>2021-05-23T12:20:27.982Z</time>
      </trkpt>
      <trkpt lat="47.24667" lon="-2.26072">
        <ele>13.2</ele>
        <time>2021-05-23T12:20:28.982Z</time>
      </trkpt>
      <trkpt lat="47.24668" lon="-2.26074">
        <ele>13.4</ele>
        <time>2021-05-23T12:20:29.983Z</time>
      </trkpt>
      <trkpt lat="47.24669" lon="-2.26076">
        <ele>13.5</ele>
        <time>2021-05-23T12:20:30.982Z</time>
      </trkpt>
      <trkpt lat="47.24669" lon="-2.26076">
        <ele>13.6</ele>
        <time>2021-05-23T12:20:31.983Z</time>
      </trkpt>
      <trkpt lat="47.2467" lon="-2.26077">
        <ele>13.6</ele>
        <time>2021-05-23T12:20:32.982Z</time>
      </trkpt>
      <trkpt lat="47.24671" lon="-2.26078">
        <ele>13.7</ele>
        <time>2021-05-23T12:20:33.983Z</time>
      </trkpt>
      <trkpt lat="47.24672" lon="-2.26079">
        <ele>13.8</ele>
        <time>2021-05-23T12:20:34.983Z</time>
      </trkpt>
      <trkpt lat="47.24672" lon="-2.2608">
        <ele>13.9</ele>
        <time>2021-05-23T12:20:35.983Z</time>
      </trkpt>
      <trkpt lat="47.24674" lon="-2.26081">
        <ele>14</ele>
        <time>2021-05-23T12:20:36.982Z</time>
      </trkpt>
      <trkpt lat="47.24675" lon="-2.26081">
        <ele>14.1</ele>
        <time>2021-05-23T12:20:37.983Z</time>
      </trkpt>
      <trkpt lat="47.24676" lon="-2.26082">
        <ele>14.3</ele>
        <time>2021-05-23T12:20:38.982Z</time>
      </trkpt>
      <trkpt lat="47.24677" lon="-2.26084">
        <ele>14.4</ele>
        <time>2021-05-23T12:20:39.983Z</time>
      </trkpt>
      <trkpt lat="47.24677" lon="-2.26086">
        <ele>14.6</ele>
        <time>2021-05-23T12:20:40.983Z</time>
      </trkpt>
      <trkpt lat="47.24678" lon="-2.26088">
        <ele>14.9</ele>
        <time>2021-05-23T12:20:41.983Z</time>
      </trkpt>
      <trkpt lat="47.24678" lon="-2.26089">
        <ele>15</ele>
        <time>2021-05-23T12:20:42.983Z</time>
      </trkpt>
      <trkpt lat="47.24678" lon="-2.2609">
        <ele>1</ele>
        <time>2021-05-23T12:20:43.983Z</time>
      </trkpt>
      <trkpt lat="47.24678" lon="-2.26091">
        <ele>1</ele>
        <time>2021-05-23T12:20:44.982Z</time>
      </trkpt>
      <trkpt lat="47.24679" lon="-2.26091">
        <ele>1</ele>
        <time>2021-05-23T12:20:45.982Z</time>
      </trkpt>
      <trkpt lat="47.24679" lon="-2.26091">
        <ele>1</ele>
        <time>2021-05-23T12:20:46.983Z</time>
      </trkpt>
      <trkpt lat="47.2468" lon="-2.26091">
        <ele>1</ele>
        <time>2021-05-23T12:20:47.982Z</time>
      </trkpt>
      <trkpt lat="47.2468" lon="-2.26092">
        <ele>1</ele>
        <time>2021-05-23T12:20:48.983Z</time>
      </trkpt>
      <trkpt lat="47.2468" lon="-2.26092">
        <ele>15.4</ele>
        <time>2021-05-23T12:20:49.983Z</time>
      </trkpt>
      <trkpt lat="47.2468" lon="-2.26092">
        <ele>15.4</ele>
        <time>2021-05-23T12:20:50.983Z</time>
      </trkpt>
      <trkpt lat="47.2468" lon="-2.26093">
        <ele>15.4</ele>
        <time>2021-05-23T12:20:51.983Z</time>
      </trkpt>
      <trkpt lat="47.2468" lon="-2.26094">
        <ele>15.6</ele>
        <time>2021-05-23T12:20:52.982Z</time>
      </trkpt>
      <trkpt lat="47.2468" lon="-2.26095">
        <ele>15.7</ele>
        <time>2021-05-23T12:20:53.983Z</time>
      </trkpt>
      <trkpt lat="47.2468" lon="-2.26097">
        <ele>15.9</ele>
        <time>2021-05-23T12:20:54.982Z</time>
      </trkpt>
      <trkpt lat="47.2468" lon="-2.26099">
        <ele>1</ele>
        <time>2021-05-23T12:20:55.982Z</time>
      </trkpt>
      <trkpt lat="47.24681" lon="-2.261">
        <ele>1</ele>
        <time>2021-05-23T12:20:56.982Z</time>
      </trkpt>
      <trkpt lat="47.24682" lon="-2.26101">
        <ele>2</ele>
        <time>2021-05-23T12:20:57.983Z</time>
      </trkpt>
      <trkpt lat="47.24682" lon="-2.26103">
        <ele>2</ele>
        <time>2021-05-23T12:20:58.982Z</time>
      </trkpt>
      <trkpt lat="47.24682" lon="-2.26105">
        <ele>2</ele>
        <time>2021-05-23T12:20:59.983Z</time>
      </trkpt>
      <trkpt lat="47.24683" lon="-2.26106">
        <ele>3</ele>
        <time>2021-05-23T12:21:00.983Z</time>
      </trkpt>
      <trkpt lat="47.24683" lon="-2.26108">
        <ele>3</ele>
        <time>2021-05-23T12:21:01.982Z</time>
      </trkpt>
      <trkpt lat="47.24682" lon="-2.2611">
        <ele>4</ele>
        <time>2021-05-23T12:21:02.982Z</time>
      </trkpt>
      <trkpt lat="47.24682" lon="-2.26111">
        <ele>4</ele>
        <time>2021-05-23T12:21:03.983Z</time>
      </trkpt>
      <trkpt lat="47.24682" lon="-2.26112">
        <ele>4</ele>
        <time>2021-05-23T12:21:04.982Z</time>
      </trkpt>
      <trkpt lat="47.24682" lon="-2.26114">
        <ele>5</ele>
        <time>2021-05-23T12:21:05.982Z</time>
      </trkpt>
      <trkpt lat="47.24682" lon="-2.26116">
        <ele>5</ele>
        <time>2021-05-23T12:21:06.982Z</time>
      </trkpt>
      <trkpt lat="47.24681" lon="-2.26117">
        <ele>5</ele>
        <time>2021-05-23T12:21:07.982Z</time>
      </trkpt>
      <trkpt lat="47.24681" lon="-2.26119">
        <ele>5</ele>
        <time>2021-05-23T12:21:08.982Z</time>
      </trkpt>
      <trkpt lat="47.24681" lon="-2.2612">
        <ele>6</ele>
        <time>2021-05-23T12:21:09.982Z</time>
      </trkpt>
      <trkpt lat="47.2468" lon="-2.26122">
        <ele>6</ele>
        <time>2021-05-23T12:21:10.982Z</time>
      </trkpt>
      <trkpt lat="47.2468" lon="-2.26124">
        <ele>6</ele>
        <time>2021-05-23T12:21:11.982Z</time>
      </trkpt>
      <trkpt lat="47.2468" lon="-2.26126">
        <ele>6</ele>
        <time>2021-05-23T12:21:12.982Z</time>
      </trkpt>
      <trkpt lat="47.24679" lon="-2.26129">
        <ele>7</ele>
        <time>2021-05-23T12:21:13.983Z</time>
      </trkpt>
      <trkpt lat="47.24679" lon="-2.26131">
        <ele>7</ele>
        <time>2021-05-23T12:21:14.983Z</time>
      </trkpt>
      <trkpt lat="47.24678" lon="-2.26133">
        <ele>7</ele>
        <time>2021-05-23T12:21:15.982Z</time>
      </trkpt>
      <trkpt lat="47.24679" lon="-2.26135">
        <ele>8</ele>
        <time>2021-05-23T12:21:16.982Z</time>
      </trkpt>
      <trkpt lat="47.24679" lon="-2.26137">
        <ele>8</ele>
        <time>2021-05-23T12:21:17.982Z</time>
      </trkpt>
      <trkpt lat="47.24679" lon="-2.26138">
        <ele>9</ele>
        <time>2021-05-23T12:21:18.983Z</time>
      </trkpt>
      <trkpt lat="47.24679" lon="-2.26139">
        <ele>9</ele>
        <time>2021-05-23T12:21:19.983Z</time>
      </trkpt>
      <trkpt lat="47.24679" lon="-2.2614">
        <ele>9</ele>
        <time>2021-05-23T12:21:20.982Z</time>
      </trkpt>
      <trkpt lat="47.24679" lon="-2.26142">
        <ele>10</ele>
        <time>2021-05-23T12:21:21.982Z</time>
      </trkpt>
      <trkpt lat="47.24679" lon="-2.26143">
        <ele>11</ele>
        <time>2021-05-23T12:21:22.982Z</time>
      </trkpt>
      <trkpt lat="47.24678" lon="-2.26146">
        <ele>11</ele>
        <time>2021-05-23T12:21:23.983Z</time>
      </trkpt>
      <trkpt lat="47.24678" lon="-2.26148">
        <ele>11</ele>
        <time>2021-05-23T12:21:24.983Z</time>
      </trkpt>
      <trkpt lat="47.24679" lon="-2.26149">
        <ele>12</ele>
        <time>2021-05-23T12:21:25.982Z</time>
      </trkpt>
      <trkpt lat="47.24678" lon="-2.2615">
        <ele>12</ele>
        <time>2021-05-23T12:21:26.982Z</time>
      </trkpt>
      <trkpt lat="47.24677" lon="-2.26152">
        <ele>13</ele>
        <time>2021-05-23T12:21:27.982Z</time>
      </trkpt>
      <trkpt lat="47.24676" lon="-2.26153">
        <ele>13</ele>
        <time>2021-05-23T12:21:28.982Z</time>
      </trkpt>
      <trkpt lat="47.24676" lon="-2.26155">
        <ele>14</ele>
        <time>2021-05-23T12:21:29.982Z</time>
      </trkpt>
      <trkpt lat="47.24676" lon="-2.26157">
        <ele>15</ele>
        <time>2021-05-23T12:21:30.982Z</time>
      </trkpt>
      <trkpt lat="47.24676" lon="-2.26158">
        <ele>15</ele>
        <time>2021-05-23T12:21:31.982Z</time>
      </trkpt>
      <trkpt lat="47.24676" lon="-2.2616">
        <ele>16</ele>
        <time>2021-05-23T12:21:32.983Z</time>
      </trkpt>
      <trkpt lat="47.24676" lon="-2.26162">
        <ele>16</ele>
        <time>2021-05-23T12:21:33.982Z</time>
      </trkpt>
      <trkpt lat="47.24674" lon="-2.26163">
        <ele>17</ele>
        <time>2021-05-23T12:21:34.983Z</time>
      </trkpt>
      <trkpt lat="47.24674" lon="-2.26165">
        <ele>18</ele>
        <time>2021-05-23T12:21:35.983Z</time>
      </trkpt>
      <trkpt lat="47.24675" lon="-2.26167">
        <ele>18</ele>
        <time>2021-05-23T12:21:36.982Z</time>
      </trkpt>
      <trkpt lat="47.24675" lon="-2.26169">
        <ele>18</ele>
        <time>2021-05-23T12:21:37.982Z</time>
      </trkpt>
      <trkpt lat="47.24675" lon="-2.2617">
        <ele>19</ele>
        <time>2021-05-23T12:21:38.983Z</time>
      </trkpt>
      <trkpt lat="47.24675" lon="-2.26172">
        <ele>19</ele>
        <time>2021-05-23T12:21:39.983Z</time>
      </trkpt>
      <trkpt lat="47.24676" lon="-2.26174">
        <ele>19</ele>
        <time>2021-05-23T12:21:40.982Z</time>
      </trkpt>
      <trkpt lat="47.24676" lon="-2.26175">
        <ele>19</ele>
        <time>2021-05-23T12:21:41.982Z</time>
      </trkpt>
      <trkpt lat="47.24677" lon="-2.26177">
        <ele>19</ele>
        <time>2021-05-23T12:21:42.982Z</time>
      </trkpt>
      <trkpt lat="47.24677" lon="-2.26178">
        <ele>20</ele>
        <time>2021-05-23T12:21:43.983Z</time>
      </trkpt>
      <trkpt lat="47.24676" lon="-2.26179">
        <ele>20</ele>
        <time>2021-05-23T12:21:44.982Z</time>
      </trkpt>
      <trkpt lat="47.24676" lon="-2.2618">
        <ele>20</ele>
        <time>2021-05-23T12:21:45.983Z</time>
      </trkpt>
      <trkpt lat="47.24677" lon="-2.26182">
        <ele>21</ele>
        <time>2021-05-23T12:21:46.982Z</time>
      </trkpt>
      <trkpt lat="47.24677" lon="-2.26184">
        <ele>21</ele>
        <time>2021-05-23T12:21:47.983Z</time>
      </trkpt>
      <trkpt lat="47.24678" lon="-2.26186">
        <ele>21</ele>
        <time>2021-05-23T12:21:48.982Z</time>
      </trkpt>
      <trkpt lat="47.24678" lon="-2.26188">
        <ele>22</ele>
        <time>2021-05-23T12:21:49.982Z</time>
      </trkpt>
      <trkpt lat="47.24678" lon="-2.2619">
        <ele>22</ele>
        <time>2021-05-23T12:21:50.983Z</time>
      </trkpt>
      <trkpt lat="47.24678" lon="-2.26192">
        <ele>22</ele>
        <time>2021-05-23T12:21:51.983Z</time>
      </trkpt>
      <trkpt lat="47.24679" lon="-2.26194">
        <ele>22</ele>
        <time>2021-05-23T12:21:52.982Z</time>
      </trkpt>
      <trkpt lat="47.24679" lon="-2.26196">
        <ele>23</ele>
        <time>2021-05-23T12:21:53.982Z</time>
      </trkpt>
      <trkpt lat="47.2468" lon="-2.26198">
        <ele>23</ele>
        <time>2021-05-23T12:21:54.983Z</time>
      </trkpt>
      <trkpt lat="47.24681" lon="-2.26199">
        <ele>23</ele>
        <time>2021-05-23T12:21:55.982Z</time>
      </trkpt>
      <trkpt lat="47.24682" lon="-2.26201">
        <ele>24</ele>
        <time>2021-05-23T12:21:56.983Z</time>
      </trkpt>
      <trkpt lat="47.24683" lon="-2.26203">
        <ele>24</ele>
        <time>2021-05-23T12:21:57.983Z</time>
      </trkpt>
      <trkpt lat="47.24683" lon="-2.26204">
        <ele>24</ele>
        <time>2021-05-23T12:21:58.982Z</time>
      </trkpt>
      <trkpt lat="47.24683" lon="-2.26206">
        <ele>24</ele>
        <time>2021-05-23T12:21:59.982Z</time>
      </trkpt>
      <trkpt lat="47.24683" lon="-2.26207">
        <ele>24</ele>
        <time>2021-05-23T12:22:00.982Z</time>
      </trkpt>
      <trkpt lat="47.24683" lon="-2.26208">
        <ele>24</ele>
        <time>2021-05-23T12:22:01.982Z</time>
      </trkpt>
      <trkpt lat="47.24683" lon="-2.26209">
        <ele>24</ele>
        <time>2021-05-23T12:22:02.983Z</time>
      </trkpt>
      <trkpt lat="47.24683" lon="-2.26211">
        <ele>24</ele>
        <time>2021-05-23T12:22:03.982Z</time>
      </trkpt>
      <trkpt lat="47.24683" lon="-2.26212">
        <ele>23</ele>
        <time>2021-05-23T12:22:04.983Z</time>
      </trkpt>
      <trkpt lat="47.24683" lon="-2.26213">
        <ele>23</ele>
        <time>2021-05-23T12:22:05.982Z</time>
      </trkpt>
      <trkpt lat="47.24683" lon="-2.26214">
        <ele>23</ele>
        <time>2021-05-23T12:22:06.982Z</time>
      </trkpt>
      <trkpt lat="47.24683" lon="-2.26215">
        <ele>23</ele>
        <time>2021-05-23T12:22:07.982Z</time>
      </trkpt>
      <trkpt lat="47.24683" lon="-2.26217">
        <ele>23</ele>
        <time>2021-05-23T12:22:08.982Z</time>
      </trkpt>
      <trkpt lat="47.24683" lon="-2.26218">
        <ele>22</ele>
        <time>2021-05-23T12:22:09.982Z</time>
      </trkpt>
      <trkpt lat="47.24683" lon="-2.26219">
        <ele>22</ele>
        <time>2021-05-23T12:22:10.982Z</time>
      </trkpt>
      <trkpt lat="47.24683" lon="-2.26222">
        <ele>21</ele>
        <time>2021-05-23T12:22:11.982Z</time>
      </trkpt>
      <trkpt lat="47.24683" lon="-2.26224">
        <ele>21</ele>
        <time>2021-05-23T12:22:12.982Z</time>
      </trkpt>
      <trkpt lat="47.24683" lon="-2.26226">
        <ele>21</ele>
        <time>2021-05-23T12:22:13.982Z</time>
      </trkpt>
      <trkpt lat="47.24684" lon="-2.26228">
        <ele>22</ele>
        <time>2021-05-23T12:22:14.982Z</time>
      </trkpt>
      <trkpt lat="47.24685" lon="-2.26229">
        <ele>22</ele>
        <time>2021-05-23T12:22:15.983Z</time>
      </trkpt>
      <trkpt lat="47.24687" lon="-2.26231">
        <ele>23</ele>
        <time>2021-05-23T12:22:16.983Z</time>
      </trkpt>
      <trkpt lat="47.24688" lon="-2.26233">
        <ele>24</ele>
        <time>2021-05-23T12:22:17.982Z</time>
      </trkpt>
      <trkpt lat="47.24689" lon="-2.26235">
        <ele>24</ele>
        <time>2021-05-23T12:22:18.983Z</time>
      </trkpt>
      <trkpt lat="47.24689" lon="-2.26237">
        <ele>25</ele>
        <time>2021-05-23T12:22:19.982Z</time>
      </trkpt>
      <trkpt lat="47.2469" lon="-2.2624">
        <ele>26</ele>
        <time>2021-05-23T12:22:20.983Z</time>
      </trkpt>
      <trkpt lat="47.24691" lon="-2.26242">
        <ele>26</ele>
        <time>2021-05-23T12:22:21.983Z</time>
      </trkpt>
      <trkpt lat="47.24691" lon="-2.26245">
        <ele>27</ele>
        <time>2021-05-23T12:22:22.982Z</time>
      </trkpt>
      <trkpt lat="47.24692" lon="-2.26248">
        <ele>27</ele>
        <time>2021-05-23T12:22:23.982Z</time>
      </trkpt>
      <trkpt lat="47.24693" lon="-2.2625">
        <ele>28</ele>
        <time>2021-05-23T12:22:24.983Z</time>
      </trkpt>
      <trkpt lat="47.24692" lon="-2.26252">
        <ele>28</ele>
        <time>2021-05-23T12:22:25.983Z</time>
      </trkpt>
      <trkpt lat="47.24692" lon="-2.26255">
        <ele>28</ele>
        <time>2021-05-23T12:22:26.982Z</time>
      </trkpt>
      <trkpt lat="47.24692" lon="-2.26258">
        <ele>28</ele>
        <time>2021-05-23T12:22:27.982Z</time>
      </trkpt>
      <trkpt lat="47.24693" lon="-2.2626">
        <ele>29</ele>
        <time>2021-05-23T12:22:28.983Z</time>
      </trkpt>
      <trkpt lat="47.24694" lon="-2.26262">
        <ele>29</ele>
        <time>2021-05-23T12:22:29.982Z</time>
      </trkpt>
      <trkpt lat="47.24694" lon="-2.26264">
        <ele>29</ele>
        <time>2021-05-23T12:22:30.982Z</time>
      </trkpt>
      <trkpt lat="47.24695" lon="-2.26266">
        <ele>30</ele>
        <time>2021-05-23T12:22:31.982Z</time>
      </trkpt>
      <trkpt lat="47.24695" lon="-2.26268">
        <ele>30</ele>
        <time>2021-05-23T12:22:32.982Z</time>
      </trkpt>
      <trkpt lat="47.24696" lon="-2.2627">
        <ele>30</ele>
        <time>2021-05-23T12:22:33.983Z</time>
      </trkpt>
      <trkpt lat="47.24698" lon="-2.26272">
        <ele>30</ele>
        <time>2021-05-23T12:22:34.982Z</time>
      </trkpt>
      <trkpt lat="47.24699" lon="-2.26273">
        <ele>30</ele>
        <time>2021-05-23T12:22:35.982Z</time>
      </trkpt>
      <trkpt lat="47.247" lon="-2.26276">
        <ele>30</ele>
        <time>2021-05-23T12:22:36.982Z</time>
      </trkpt>
      <trkpt lat="47.247" lon="-2.26279">
        <ele>30</ele>
        <time>2021-05-23T12:22:37.982Z</time>
      </trkpt>
      <trkpt lat="47.247" lon="-2.26282">
        <ele>30</ele>
        <time>2021-05-23T12:22:38.983Z</time>
      </trkpt>
      <trkpt lat="47.24701" lon="-2.26285">
        <ele>30</ele>
        <time>2021-05-23T12:22:39.983Z</time>
      </trkpt>
      <trkpt lat="47.24701" lon="-2.26287">
        <ele>30</ele>
        <time>2021-05-23T12:22:40.982Z</time>
      </trkpt>
      <trkpt lat="47.24702" lon="-2.26289">
        <ele>30</ele>
        <time>2021-05-23T12:22:41.983Z</time>
      </trkpt>
      <trkpt lat="47.24704" lon="-2.26291">
        <ele>30</ele>
        <time>2021-05-23T12:22:42.983Z</time>
      </trkpt>
      <trkpt lat="47.24704" lon="-2.26293">
        <ele>30</ele>
        <time>2021-05-23T12:22:43.982Z</time>
      </trkpt>
      <trkpt lat="47.24705" lon="-2.26295">
        <ele>30</ele>
        <time>2021-05-23T12:22:44.982Z</time>
      </trkpt>
      <trkpt lat="47.24706" lon="-2.26297">
        <ele>30</ele>
        <time>2021-05-23T12:22:45.983Z</time>
      </trkpt>
      <trkpt lat="47.24707" lon="-2.26299">
        <ele>30</ele>
        <time>2021-05-23T12:22:46.982Z</time>
      </trkpt>
      <trkpt lat="47.24708" lon="-2.263">
        <ele>30</ele>
        <time>2021-05-23T12:22:47.983Z</time>
      </trkpt>
      <trkpt lat="47.24709" lon="-2.26301">
        <ele>30</ele>
        <time>2021-05-23T12:22:48.983Z</time>
      </trkpt>
      <trkpt lat="47.24709" lon="-2.26303">
        <ele>30</ele>
        <time>2021-05-23T12:22:49.983Z</time>
      </trkpt>
      <trkpt lat="47.24709" lon="-2.26304">
        <ele>30</ele>
        <time>2021-05-23T12:22:50.983Z</time>
      </trkpt>
      <trkpt lat="47.2471" lon="-2.26306">
        <ele>30</ele>
        <time>2021-05-23T12:22:51.983Z</time>
      </trkpt>
      <trkpt lat="47.24711" lon="-2.26307">
        <ele>30</ele>
        <time>2021-05-23T12:22:52.982Z</time>
      </trkpt>
      <trkpt lat="47.24712" lon="-2.26308">
        <ele>30</ele>
        <time>2021-05-23T12:22:53.983Z</time>
      </trkpt>
      <trkpt lat="47.24713" lon="-2.26308">
        <ele>30</ele>
        <time>2021-05-23T12:22:54.983Z</time>
      </trkpt>
      <trkpt lat="47.24715" lon="-2.26309">
        <ele>31</ele>
        <time>2021-05-23T12:22:55.982Z</time>
      </trkpt>
      <trkpt lat="47.24717" lon="-2.26309">
        <ele>31</ele>
        <time>2021-05-23T12:22:56.982Z</time>
      </trkpt>
      <trkpt lat="47.24718" lon="-2.26311">
        <ele>31</ele>
        <time>2021-05-23T12:22:57.982Z</time>
      </trkpt>
      <trkpt lat="47.24719" lon="-2.26312">
        <ele>31</ele>
        <time>2021-05-23T12:22:58.983Z</time>
      </trkpt>
      <trkpt lat="47.2472" lon="-2.26312">
        <ele>31</ele>
        <time>2021-05-23T12:22:59.982Z</time>
      </trkpt>
      <trkpt lat="47.24721" lon="-2.26312">
        <ele>31</ele>
        <time>2021-05-23T12:23:00.982Z</time>
      </trkpt>
      <trkpt lat="47.24722" lon="-2.26312">
        <ele>32</ele>
        <time>2021-05-23T12:23:01.982Z</time>
      </trkpt>
      <trkpt lat="47.24723" lon="-2.26312">
        <ele>32</ele>
        <time>2021-05-23T12:23:02.983Z</time>
      </trkpt>
      <trkpt lat="47.24724" lon="-2.26312">
        <ele>32</ele>
        <time>2021-05-23T12:23:03.983Z</time>
      </trkpt>
      <trkpt lat="47.24726" lon="-2.26313">
        <ele>32</ele>
        <time>2021-05-23T12:23:04.983Z</time>
      </trkpt>
      <trkpt lat="47.24727" lon="-2.26313">
        <ele>33</ele>
        <time>2021-05-23T12:23:05.983Z</time>
      </trkpt>
      <trkpt lat="47.24728" lon="-2.26314">
        <ele>33</ele>
        <time>2021-05-23T12:23:06.983Z</time>
      </trkpt>
      <trkpt lat="47.2473" lon="-2.26316">
        <ele>34</ele>
        <time>2021-05-23T12:23:07.983Z</time>
      </trkpt>
      <trkpt lat="47.24731" lon="-2.26316">
        <ele>34</ele>
        <time>2021-05-23T12:23:08.983Z</time>
      </trkpt>
      <trkpt lat="47.24732" lon="-2.26317">
        <ele>34</ele>
        <time>2021-05-23T12:23:09.983Z</time>
      </trkpt>
      <trkpt lat="47.24733" lon="-2.26316">
        <ele>34</ele>
        <time>2021-05-23T12:23:10.982Z</time>
      </trkpt>
      <trkpt lat="47.24734" lon="-2.26317">
        <ele>34</ele>
        <time>2021-05-23T12:23:11.982Z</time>
      </trkpt>
      <trkpt lat="47.24736" lon="-2.26318">
        <ele>34</ele>
        <time>2021-05-23T12:23:12.982Z</time>
      </trkpt>
      <trkpt lat="47.24737" lon="-2.26319">
        <ele>34</ele>
        <time>2021-05-23T12:23:13.982Z</time>
      </trkpt>
      <trkpt lat="47.24739" lon="-2.2632">
        <ele>34</ele>
        <time>2021-05-23T12:23:14.982Z</time>
      </trkpt>
      <trkpt lat="47.2474" lon="-2.2632">
        <ele>34</ele>
        <time>2021-05-23T12:23:15.982Z</time>
      </trkpt>
      <trkpt lat="47.24741" lon="-2.26321">
        <ele>34</ele>
        <time>2021-05-23T12:23:16.982Z</time>
      </trkpt>
      <trkpt lat="47.24742" lon="-2.26321">
        <ele>34</ele>
        <time>2021-05-23T12:23:17.982Z</time>
      </trkpt>
      <trkpt lat="47.24744" lon="-2.26322">
        <ele>34</ele>
        <time>2021-05-23T12:23:18.982Z</time>
      </trkpt>
      <trkpt lat="47.24745" lon="-2.26323">
        <ele>34</ele>
        <time>2021-05-23T12:23:19.982Z</time>
      </trkpt>
      <trkpt lat="47.24747" lon="-2.26324">
        <ele>34</ele>
        <time>2021-05-23T12:23:20.983Z</time>
      </trkpt>
      <trkpt lat="47.24749" lon="-2.26325">
        <ele>35</ele>
        <time>2021-05-23T12:23:21.982Z</time>
      </trkpt>
      <trkpt lat="47.2475" lon="-2.26325">
        <ele>35</ele>
        <time>2021-05-23T12:23:22.982Z</time>
      </trkpt>
      <trkpt lat="47.24752" lon="-2.26326">
        <ele>35</ele>
        <time>2021-05-23T12:23:23.982Z</time>
      </trkpt>
      <trkpt lat="47.24754" lon="-2.26327">
        <ele>35</ele>
        <time>2021-05-23T12:23:24.982Z</time>
      </trkpt>
      <trkpt lat="47.24755" lon="-2.26328">
        <ele>36</ele>
        <time>2021-05-23T12:23:25.982Z</time>
      </trkpt>
      <trkpt lat="47.24757" lon="-2.26329">
        <ele>36</ele>
        <time>2021-05-23T12:23:26.982Z</time>
      </trkpt>
      <trkpt lat="47.24758" lon="-2.26329">
        <ele>36</ele>
        <time>2021-05-23T12:23:27.983Z</time>
      </trkpt>
      <trkpt lat="47.2476" lon="-2.2633">
        <ele>36</ele>
        <time>2021-05-23T12:23:28.982Z</time>
      </trkpt>
      <trkpt lat="47.24761" lon="-2.26331">
        <ele>36</ele>
        <time>2021-05-23T12:23:29.983Z</time>
      </trkpt>
      <trkpt lat="47.24762" lon="-2.26332">
        <ele>36</ele>
        <time>2021-05-23T12:23:30.982Z</time>
      </trkpt>
      <trkpt lat="47.24764" lon="-2.26334">
        <ele>37</ele>
        <time>2021-05-23T12:23:31.982Z</time>
      </trkpt>
      <trkpt lat="47.24765" lon="-2.26335">
        <ele>37</ele>
        <time>2021-05-23T12:23:32.982Z</time>
      </trkpt>
      <trkpt lat="47.24767" lon="-2.26336">
        <ele>37</ele>
        <time>2021-05-23T12:23:33.982Z</time>
      </trkpt>
      <trkpt lat="47.24768" lon="-2.26338">
        <ele>38</ele>
        <time>2021-05-23T12:23:34.982Z</time>
      </trkpt>
      <trkpt lat="47.24769" lon="-2.26339">
        <ele>38</ele>
        <time>2021-05-23T12:23:35.983Z</time>
      </trkpt>
      <trkpt lat="47.2477" lon="-2.2634">
        <ele>38</ele>
        <time>2021-05-23T12:23:36.983Z</time>
      </trkpt>
      <trkpt lat="47.24771" lon="-2.26342">
        <ele>39</ele>
        <time>2021-05-23T12:23:37.982Z</time>
      </trkpt>
      <trkpt lat="47.24772" lon="-2.26343">
        <ele>39</ele>
        <time>2021-05-23T12:23:38.982Z</time>
      </trkpt>
      <trkpt lat="47.24773" lon="-2.26344">
        <ele>39</ele>
        <time>2021-05-23T12:23:39.983Z</time>
      </trkpt>
      <trkpt lat="47.24775" lon="-2.26345">
        <ele>39</ele>
        <time>2021-05-23T12:23:40.983Z</time>
      </trkpt>
      <trkpt lat="47.24777" lon="-2.26347">
        <ele>39</ele>
        <time>2021-05-23T12:23:41.982Z</time>
      </trkpt>
      <trkpt lat="47.24778" lon="-2.26349">
        <ele>39</ele>
        <time>2021-05-23T12:23:42.983Z</time>
      </trkpt>
      <trkpt lat="47.24779" lon="-2.26351">
        <ele>39</ele>
        <time>2021-05-23T12:23:43.982Z</time>
      </trkpt>
      <trkpt lat="47.2478" lon="-2.26352">
        <ele>39</ele>
        <time>2021-05-23T12:23:44.982Z</time>
      </trkpt>
      <trkpt lat="47.24781" lon="-2.26354">
        <ele>40</ele>
        <time>2021-05-23T12:23:45.982Z</time>
      </trkpt>
      <trkpt lat="47.24781" lon="-2.26356">
        <ele>40</ele>
        <time>2021-05-23T12:23:46.982Z</time>
      </trkpt>
      <trkpt lat="47.24781" lon="-2.26357">
        <ele>39</ele>
        <time>2021-05-23T12:23:47.982Z</time>
      </trkpt>
      <trkpt lat="47.24781" lon="-2.26358">
        <ele>39</ele>
        <time>2021-05-23T12:23:48.982Z</time>
      </trkpt>
      <trkpt lat="47.24782" lon="-2.2636">
        <ele>39</ele>
        <time>2021-05-23T12:23:49.983Z</time>
      </trkpt>
      <trkpt lat="47.24783" lon="-2.26362">
        <ele>38</ele>
        <time>2021-05-23T12:23:50.982Z</time>
      </trkpt>
      <trkpt lat="47.24783" lon="-2.26364">
        <ele>38</ele>
        <time>2021-05-23T12:23:51.982Z</time>
      </trkpt>
      <trkpt lat="47.24784" lon="-2.26366">
        <ele>38</ele>
        <time>2021-05-23T12:23:52.982Z</time>
      </trkpt>
      <trkpt lat="47.24784" lon="-2.26368">
        <ele>37</ele>
        <time>2021-05-23T12:23:53.982Z</time>
      </trkpt>
      <trkpt lat="47.24785" lon="-2.26371">
        <ele>37</ele>
        <time>2021-05-23T12:23:54.983Z</time>
      </trkpt>
      <trkpt lat="47.24785" lon="-2.26373">
        <ele>36</ele>
        <time>2021-05-23T12:23:55.982Z</time>
      </trkpt>
      <trkpt lat="47.24786" lon="-2.26375">
        <ele>36</ele>
        <time>2021-05-23T12:23:56.983Z</time>
      </trkpt>
      <trkpt lat="47.24786" lon="-2.26376">
        <ele>35</ele>
        <time>2021-05-23T12:23:57.982Z</time>
      </trkpt>
      <trkpt lat="47.24787" lon="-2.26378">
        <ele>34</ele>
        <time>2021-05-23T12:23:58.982Z</time>
      </trkpt>
      <trkpt lat="47.24787" lon="-2.26381">
        <ele>34</ele>
        <time>2021-05-23T12:23:59.983Z</time>
      </trkpt>
      <trkpt lat="47.24787" lon="-2.26383">
        <ele>34</ele>
        <time>2021-05-23T12:24:00.982Z</time>
      </trkpt>
      <trkpt lat="47.24787" lon="-2.26385">
        <ele>34</ele>
        <time>2021-05-23T12:24:01.982Z</time>
      </trkpt>
      <trkpt lat="47.24787" lon="-2.26387">
        <ele>34</ele>
        <time>2021-05-23T12:24:02.982Z</time>
      </trkpt>
      <trkpt lat="47.24788" lon="-2.26388">
        <ele>34</ele>
        <time>2021-05-23T12:24:03.983Z</time>
      </trkpt>
      <trkpt lat="47.24789" lon="-2.2639">
        <ele>33</ele>
        <time>2021-05-23T12:24:04.983Z</time>
      </trkpt>
      <trkpt lat="47.24789" lon="-2.26392">
        <ele>33</ele>
        <time>2021-05-23T12:24:05.982Z</time>
      </trkpt>
      <trkpt lat="47.2479" lon="-2.26394">
        <ele>33</ele>
        <time>2021-05-23T12:24:06.982Z</time>
      </trkpt>
      <trkpt lat="47.2479" lon="-2.26396">
        <ele>33</ele>
        <time>2021-05-23T12:24:07.983Z</time>
      </trkpt>
      <trkpt lat="47.2479" lon="-2.26398">
        <ele>33</ele>
        <time>2021-05-23T12:24:08.983Z</time>
      </trkpt>
      <trkpt lat="47.2479" lon="-2.264">
        <ele>33</ele>
        <time>2021-05-23T12:24:09.982Z</time>
      </trkpt>
      <trkpt lat="47.2479" lon="-2.26403">
        <ele>33</ele>
        <time>2021-05-23T12:24:10.983Z</time>
      </trkpt>
      <trkpt lat="47.24791" lon="-2.26405">
        <ele>33</ele>
        <time>2021-05-23T12:24:11.982Z</time>
      </trkpt>
      <trkpt lat="47.24791" lon="-2.26407">
        <ele>33</ele>
        <time>2021-05-23T12:24:12.983Z</time>
      </trkpt>
      <trkpt lat="47.24791" lon="-2.26409">
        <ele>33</ele>
        <time>2021-05-23T12:24:13.982Z</time>
      </trkpt>
      <trkpt lat="47.24791" lon="-2.26411">
        <ele>33</ele>
        <time>2021-05-23T12:24:14.982Z</time>
      </trkpt>
      <trkpt lat="47.24791" lon="-2.26413">
        <ele>33</ele>
        <time>2021-05-23T12:24:15.983Z</time>
      </trkpt>
      <trkpt lat="47.24791" lon="-2.26415">
        <ele>33</ele>
        <time>2021-05-23T12:24:16.983Z</time>
      </trkpt>
      <trkpt lat="47.24791" lon="-2.26418">
        <ele>34</ele>
        <time>2021-05-23T12:24:17.982Z</time>
      </trkpt>
      <trkpt lat="47.24791" lon="-2.2642">
        <ele>34</ele>
        <time>2021-05-23T12:24:18.983Z</time>
      </trkpt>
      <trkpt lat="47.24791" lon="-2.26422">
        <ele>34</ele>
        <time>2021-05-23T12:24:19.982Z</time>
      </trkpt>
      <trkpt lat="47.24791" lon="-2.26425">
        <ele>34</ele>
        <time>2021-05-23T12:24:20.982Z</time>
      </trkpt>
      <trkpt lat="47.24791" lon="-2.26427">
        <ele>34</ele>
        <time>2021-05-23T12:24:21.983Z</time>
      </trkpt>
      <trkpt lat="47.24791" lon="-2.26428">
        <ele>35</ele>
        <time>2021-05-23T12:24:22.983Z</time>
      </trkpt>
      <trkpt lat="47.24791" lon="-2.2643">
        <ele>35</ele>
        <time>2021-05-23T12:24:23.982Z</time>
      </trkpt>
      <trkpt lat="47.24791" lon="-2.26432">
        <ele>35</ele>
        <time>2021-05-23T12:24:24.982Z</time>
      </trkpt>
      <trkpt lat="47.24792" lon="-2.26433">
        <ele>35</ele>
        <time>2021-05-23T12:24:25.982Z</time>
      </trkpt>
      <trkpt lat="47.24792" lon="-2.26435">
        <ele>35</ele>
        <time>2021-05-23T12:24:26.983Z</time>
      </trkpt>
      <trkpt lat="47.24792" lon="-2.26437">
        <ele>34</ele>
        <time>2021-05-23T12:24:27.982Z</time>
      </trkpt>
      <trkpt lat="47.24791" lon="-2.26439">
        <ele>34</ele>
        <time>2021-05-23T12:24:28.982Z</time>
      </trkpt>
      <trkpt lat="47.24792" lon="-2.26441">
        <ele>34</ele>
        <time>2021-05-23T12:24:29.982Z</time>
      </trkpt>
      <trkpt lat="47.24792" lon="-2.26444">
        <ele>34</ele>
        <time>2021-05-23T12:24:30.982Z</time>
      </trkpt>
      <trkpt lat="47.24792" lon="-2.26445">
        <ele>35</ele>
        <time>2021-05-23T12:24:31.982Z</time>
      </trkpt>
      <trkpt lat="47.24794" lon="-2.26447">
        <ele>35</ele>
        <time>2021-05-23T12:24:32.982Z</time>
      </trkpt>
      <trkpt lat="47.24795" lon="-2.26447">
        <ele>35</ele>
        <time>2021-05-23T12:24:33.983Z</time>
      </trkpt>
      <trkpt lat="47.24796" lon="-2.26448">
        <ele>35</ele>
        <time>2021-05-23T12:24:34.983Z</time>
      </trkpt>
      <trkpt lat="47.24798" lon="-2.26448">
        <ele>35</ele>
        <time>2021-05-23T12:24:35.982Z</time>
      </trkpt>
      <trkpt lat="47.248" lon="-2.26449">
        <ele>34</ele>
        <time>2021-05-23T12:24:36.983Z</time>
      </trkpt>
      <trkpt lat="47.24802" lon="-2.2645">
        <ele>34</ele>
        <time>2021-05-23T12:24:37.983Z</time>
      </trkpt>
      <trkpt lat="47.24803" lon="-2.26451">
        <ele>35</ele>
        <time>2021-05-23T12:24:38.983Z</time>
      </trkpt>
      <trkpt lat="47.24804" lon="-2.26451">
        <ele>35</ele>
        <time>2021-05-23T12:24:39.983Z</time>
      </trkpt>
      <trkpt lat="47.24806" lon="-2.26452">
        <ele>35</ele>
        <time>2021-05-23T12:24:40.983Z</time>
      </trkpt>
      <trkpt lat="47.24807" lon="-2.26452">
        <ele>36</ele>
        <time>2021-05-23T12:24:41.983Z</time>
      </trkpt>
      <trkpt lat="47.24808" lon="-2.26452">
        <ele>36</ele>
        <time>2021-05-23T12:24:42.982Z</time>
      </trkpt>
      <trkpt lat="47.2481" lon="-2.26453">
        <ele>36</ele>
        <time>2021-05-23T12:24:43.982Z</time>
      </trkpt>
      <trkpt lat="47.24811" lon="-2.26452">
        <ele>36</ele>
        <time>2021-05-23T12:24:44.982Z</time>
      </trkpt>
      <trkpt lat="47.24812" lon="-2.26452">
        <ele>37</ele>
        <time>2021-05-23T12:24:45.983Z</time>
      </trkpt>
      <trkpt lat="47.24813" lon="-2.26453">
        <ele>37</ele>
        <time>2021-05-23T12:24:46.982Z</time>
      </trkpt>
      <trkpt lat="47.24815" lon="-2.26453">
        <ele>37</ele>
        <time>2021-05-23T12:24:47.983Z</time>
      </trkpt>
      <trkpt lat="47.24816" lon="-2.26453">
        <ele>38</ele>
        <time>2021-05-23T12:24:48.982Z</time>
      </trkpt>
      <trkpt lat="47.24817" lon="-2.26454">
        <ele>38</ele>
        <time>2021-05-23T12:24:49.983Z</time>
      </trkpt>
      <trkpt lat="47.24819" lon="-2.26453">
        <ele>39</ele>
        <time>2021-05-23T12:24:50.982Z</time>
      </trkpt>
      <trkpt lat="47.2482" lon="-2.26453">
        <ele>39</ele>
        <time>2021-05-23T12:24:51.983Z</time>
      </trkpt>
      <trkpt lat="47.24822" lon="-2.26453">
        <ele>39</ele>
        <time>2021-05-23T12:24:52.982Z</time>
      </trkpt>
      <trkpt lat="47.24825" lon="-2.26453">
        <ele>39</ele>
        <time>2021-05-23T12:24:53.982Z</time>
      </trkpt>
      <trkpt lat="47.24826" lon="-2.26453">
        <ele>39</ele>
        <time>2021-05-23T12:24:54.982Z</time>
      </trkpt>
      <trkpt lat="47.24827" lon="-2.26453">
        <ele>38</ele>
        <time>2021-05-23T12:24:55.983Z</time>
      </trkpt>
      <trkpt lat="47.24828" lon="-2.26453">
        <ele>38</ele>
        <time>2021-05-23T12:24:56.982Z</time>
      </trkpt>
      <trkpt lat="47.24829" lon="-2.26453">
        <ele>38</ele>
        <time>2021-05-23T12:24:57.983Z</time>
      </trkpt>
      <trkpt lat="47.24829" lon="-2.26453">
        <ele>38</ele>
        <time>2021-05-23T12:24:58.982Z</time>
      </trkpt>
      <trkpt lat="47.24831" lon="-2.26453">
        <ele>38</ele>
        <time>2021-05-23T12:24:59.983Z</time>
      </trkpt>
      <trkpt lat="47.24832" lon="-2.26452">
        <ele>38</ele>
        <time>2021-05-23T12:25:00.982Z</time>
      </trkpt>
      <trkpt lat="47.24833" lon="-2.26452">
        <ele>38</ele>
        <time>2021-05-23T12:25:01.982Z</time>
      </trkpt>
      <trkpt lat="47.24835" lon="-2.26452">
        <ele>39</ele>
        <time>2021-05-23T12:25:02.983Z</time>
      </trkpt>
      <trkpt lat="47.24836" lon="-2.26452">
        <ele>39</ele>
        <time>2021-05-23T12:25:03.982Z</time>
      </trkpt>
      <trkpt lat="47.24837" lon="-2.26451">
        <ele>39</ele>
        <time>2021-05-23T12:25:04.982Z</time>
      </trkpt>
      <trkpt lat="47.24839" lon="-2.2645">
        <ele>39</ele>
        <time>2021-05-23T12:25:05.983Z</time>
      </trkpt>
      <trkpt lat="47.2484" lon="-2.2645">
        <ele>38</ele>
        <time>2021-05-23T12:25:06.982Z</time>
      </trkpt>
      <trkpt lat="47.24842" lon="-2.2645">
        <ele>38</ele>
        <time>2021-05-23T12:25:07.983Z</time>
      </trkpt>
      <trkpt lat="47.24843" lon="-2.2645">
        <ele>38</ele>
        <time>2021-05-23T12:25:08.982Z</time>
      </trkpt>
      <trkpt lat="47.24845" lon="-2.2645">
        <ele>37</ele>
        <time>2021-05-23T12:25:09.982Z</time>
      </trkpt>
      <trkpt lat="47.24846" lon="-2.2645">
        <ele>37</ele>
        <time>2021-05-23T12:25:10.982Z</time>
      </trkpt>
      <trkpt lat="47.24847" lon="-2.2645">
        <ele>37</ele>
        <time>2021-05-23T12:25:11.983Z</time>
      </trkpt>
      <trkpt lat="47.24849" lon="-2.2645">
        <ele>37</ele>
        <time>2021-05-23T12:25:12.982Z</time>
      </trkpt>
      <trkpt lat="47.24849" lon="-2.2645">
        <ele>37</ele>
        <time>2021-05-23T12:25:13.982Z</time>
      </trkpt>
      <trkpt lat="47.24851" lon="-2.2645">
        <ele>37</ele>
        <time>2021-05-23T12:25:14.983Z</time>
      </trkpt>
      <trkpt lat="47.24853" lon="-2.26449">
        <ele>37</ele>
        <time>2021-05-23T12:25:15.982Z</time>
      </trkpt>
      <trkpt lat="47.24854" lon="-2.26449">
        <ele>38</ele>
        <time>2021-05-23T12:25:16.982Z</time>
      </trkpt>
      <trkpt lat="47.24855" lon="-2.26448">
        <ele>38</ele>
        <time>2021-05-23T12:25:17.982Z</time>
      </trkpt>
      <trkpt lat="47.24857" lon="-2.26447">
        <ele>39</ele>
        <time>2021-05-23T12:25:18.982Z</time>
      </trkpt>
      <trkpt lat="47.24858" lon="-2.26447">
        <ele>39</ele>
        <time>2021-05-23T12:25:19.982Z</time>
      </trkpt>
      <trkpt lat="47.24859" lon="-2.26447">
        <ele>39</ele>
        <time>2021-05-23T12:25:20.982Z</time>
      </trkpt>
      <trkpt lat="47.24861" lon="-2.26447">
        <ele>39</ele>
        <time>2021-05-23T12:25:21.983Z</time>
      </trkpt>
      <trkpt lat="47.24862" lon="-2.26446">
        <ele>39</ele>
        <time>2021-05-23T12:25:22.982Z</time>
      </trkpt>
      <trkpt lat="47.24864" lon="-2.26446">
        <ele>39</ele>
        <time>2021-05-23T12:25:23.982Z</time>
      </trkpt>
      <trkpt lat="47.24865" lon="-2.26445">
        <ele>39</ele>
        <time>2021-05-23T12:25:24.982Z</time>
      </trkpt>
      <trkpt lat="47.24867" lon="-2.26445">
        <ele>39</ele>
        <time>2021-05-23T12:25:25.983Z</time>
      </trkpt>
      <trkpt lat="47.24868" lon="-2.26445">
        <ele>39</ele>
        <time>2021-05-23T12:25:26.982Z</time>
      </trkpt>
      <trkpt lat="47.24869" lon="-2.26445">
        <ele>39</ele>
        <time>2021-05-23T12:25:27.983Z</time>
      </trkpt>
      <trkpt lat="47.2487" lon="-2.26444">
        <ele>39</ele>
        <time>2021-05-23T12:25:28.982Z</time>
      </trkpt>
      <trkpt lat="47.24872" lon="-2.26444">
        <ele>40</ele>
        <time>2021-05-23T12:25:29.983Z</time>
      </trkpt>
      <trkpt lat="47.24874" lon="-2.26444">
        <ele>40</ele>
        <time>2021-05-23T12:25:30.982Z</time>
      </trkpt>
      <trkpt lat="47.24875" lon="-2.26443">
        <ele>40</ele>
        <time>2021-05-23T12:25:31.982Z</time>
      </trkpt>
      <trkpt lat="47.24877" lon="-2.26443">
        <ele>41</ele>
        <time>2021-05-23T12:25:32.983Z</time>
      </trkpt>
      <trkpt lat="47.24879" lon="-2.26443">
        <ele>41</ele>
        <time>2021-05-23T12:25:33.983Z</time>
      </trkpt>
      <trkpt lat="47.24879" lon="-2.26442">
        <ele>41</ele>
        <time>2021-05-23T12:25:34.982Z</time>
      </trkpt>
      <trkpt lat="47.24881" lon="-2.26441">
        <ele>41</ele>
        <time>2021-05-23T12:25:35.983Z</time>
      </trkpt>
      <trkpt lat="47.24882" lon="-2.26442">
        <ele>41</ele>
        <time>2021-05-23T12:25:36.983Z</time>
      </trkpt>
      <trkpt lat="47.24883" lon="-2.26442">
        <ele>42</ele>
        <time>2021-05-23T12:25:37.983Z</time>
      </trkpt>
      <trkpt lat="47.24884" lon="-2.26442">
        <ele>42</ele>
        <time>2021-05-23T12:25:38.983Z</time>
      </trkpt>
      <trkpt lat="47.24885" lon="-2.26442">
        <ele>43</ele>
        <time>2021-05-23T12:25:39.982Z</time>
      </trkpt>
      <trkpt lat="47.24887" lon="-2.26442">
        <ele>43</ele>
        <time>2021-05-23T12:25:40.982Z</time>
      </trkpt>
      <trkpt lat="47.24888" lon="-2.26441">
        <ele>43</ele>
        <time>2021-05-23T12:25:41.983Z</time>
      </trkpt>
      <trkpt lat="47.24889" lon="-2.26441">
        <ele>44</ele>
        <time>2021-05-23T12:25:42.982Z</time>
      </trkpt>
      <trkpt lat="47.24891" lon="-2.2644">
        <ele>44</ele>
        <time>2021-05-23T12:25:43.982Z</time>
      </trkpt>
      <trkpt lat="47.24892" lon="-2.2644">
        <ele>44</ele>
        <time>2021-05-23T12:25:44.982Z</time>
      </trkpt>
      <trkpt lat="47.24893" lon="-2.26441">
        <ele>44</ele>
        <time>2021-05-23T12:25:45.983Z</time>
      </trkpt>
      <trkpt lat="47.24894" lon="-2.26441">
        <ele>44</ele>
        <time>2021-05-23T12:25:46.982Z</time>
      </trkpt>
      <trkpt lat="47.24897" lon="-2.26441">
        <ele>44</ele>
        <time>2021-05-23T12:25:47.982Z</time>
      </trkpt>
      <trkpt lat="47.24899" lon="-2.2644">
        <ele>44</ele>
        <time>2021-05-23T12:25:48.982Z</time>
      </trkpt>
      <trkpt lat="47.249" lon="-2.2644">
        <ele>45</ele>
        <time>2021-05-23T12:25:49.982Z</time>
      </trkpt>
      <trkpt lat="47.24902" lon="-2.2644">
        <ele>45</ele>
        <time>2021-05-23T12:25:50.982Z</time>
      </trkpt>
      <trkpt lat="47.24904" lon="-2.26439">
        <ele>45</ele>
        <time>2021-05-23T12:25:51.982Z</time>
      </trkpt>
      <trkpt lat="47.24905" lon="-2.26439">
        <ele>45</ele>
        <time>2021-05-23T12:25:52.982Z</time>
      </trkpt>
      <trkpt lat="47.24907" lon="-2.26438">
        <ele>46</ele>
        <time>2021-05-23T12:25:53.982Z</time>
      </trkpt>
      <trkpt lat="47.24909" lon="-2.26437">
        <ele>46</ele>
        <time>2021-05-23T12:25:54.982Z</time>
      </trkpt>
      <trkpt lat="47.24911" lon="-2.26437">
        <ele>47</ele>
        <time>2021-05-23T12:25:55.982Z</time>
      </trkpt>
      <trkpt lat="47.24913" lon="-2.26437">
        <ele>47</ele>
        <time>2021-05-23T12:25:56.982Z</time>
      </trkpt>
      <trkpt lat="47.24915" lon="-2.26436">
        <ele>48</ele>
        <time>2021-05-23T12:25:57.982Z</time>
      </trkpt>
      <trkpt lat="47.24917" lon="-2.26434">
        <ele>48</ele>
        <time>2021-05-23T12:25:58.982Z</time>
      </trkpt>
      <trkpt lat="47.24919" lon="-2.26433">
        <ele>48</ele>
        <time>2021-05-23T12:25:59.983Z</time>
      </trkpt>
      <trkpt lat="47.24921" lon="-2.26431">
        <ele>47</ele>
        <time>2021-05-23T12:26:00.982Z</time>
      </trkpt>
      <trkpt lat="47.24923" lon="-2.26429">
        <ele>47</ele>
        <time>2021-05-23T12:26:01.982Z</time>
      </trkpt>
      <trkpt lat="47.24924" lon="-2.26427">
        <ele>46</ele>
        <time>2021-05-23T12:26:02.982Z</time>
      </trkpt>
      <trkpt lat="47.24924" lon="-2.26426">
        <ele>45</ele>
        <time>2021-05-23T12:26:03.982Z</time>
      </trkpt>
      <trkpt lat="47.24926" lon="-2.26425">
        <ele>44</ele>
        <time>2021-05-23T12:26:04.982Z</time>
      </trkpt>
      <trkpt lat="47.24927" lon="-2.26424">
        <ele>43</ele>
        <time>2021-05-23T12:26:05.982Z</time>
      </trkpt>
      <trkpt lat="47.24928" lon="-2.26424">
        <ele>43</ele>
        <time>2021-05-23T12:26:06.982Z</time>
      </trkpt>
      <trkpt lat="47.24929" lon="-2.26423">
        <ele>42</ele>
        <time>2021-05-23T12:26:07.982Z</time>
      </trkpt>
      <trkpt lat="47.2493" lon="-2.26422">
        <ele>42</ele>
        <time>2021-05-23T12:26:08.982Z</time>
      </trkpt>
      <trkpt lat="47.24932" lon="-2.26421">
        <ele>41</ele>
        <time>2021-05-23T12:26:09.982Z</time>
      </trkpt>
      <trkpt lat="47.24933" lon="-2.26421">
        <ele>41</ele>
        <time>2021-05-23T12:26:10.982Z</time>
      </trkpt>
      <trkpt lat="47.24934" lon="-2.2642">
        <ele>41</ele>
        <time>2021-05-23T12:26:11.982Z</time>
      </trkpt>
      <trkpt lat="47.24936" lon="-2.26419">
        <ele>41</ele>
        <time>2021-05-23T12:26:12.982Z</time>
      </trkpt>
      <trkpt lat="47.24938" lon="-2.26418">
        <ele>41</ele>
        <time>2021-05-23T12:26:13.982Z</time>
      </trkpt>
      <trkpt lat="47.2494" lon="-2.26416">
        <ele>41</ele>
        <time>2021-05-23T12:26:14.982Z</time>
      </trkpt>
      <trkpt lat="47.24941" lon="-2.26415">
        <ele>41</ele>
        <time>2021-05-23T12:26:15.982Z</time>
      </trkpt>
      <trkpt lat="47.24943" lon="-2.26414">
        <ele>41</ele>
        <time>2021-05-23T12:26:16.982Z</time>
      </trkpt>
      <trkpt lat="47.24945" lon="-2.26413">
        <ele>41</ele>
        <time>2021-05-23T12:26:17.982Z</time>
      </trkpt>
      <trkpt lat="47.24947" lon="-2.26411">
        <ele>41</ele>
        <time>2021-05-23T12:26:18.982Z</time>
      </trkpt>
      <trkpt lat="47.24949" lon="-2.2641">
        <ele>41</ele>
        <time>2021-05-23T12:26:19.982Z</time>
      </trkpt>
      <trkpt lat="47.2495" lon="-2.26409">
        <ele>41</ele>
        <time>2021-05-23T12:26:20.982Z</time>
      </trkpt>
      <trkpt lat="47.24952" lon="-2.26408">
        <ele>41</ele>
        <time>2021-05-23T12:26:21.982Z</time>
      </trkpt>
      <trkpt lat="47.24954" lon="-2.26407">
        <ele>41</ele>
        <time>2021-05-23T12:26:22.982Z</time>
      </trkpt>
      <trkpt lat="47.24956" lon="-2.26405">
        <ele>42</ele>
        <time>2021-05-23T12:26:23.982Z</time>
      </trkpt>
      <trkpt lat="47.24957" lon="-2.26404">
        <ele>42</ele>
        <time>2021-05-23T12:26:24.982Z</time>
      </trkpt>
      <trkpt lat="47.24959" lon="-2.26403">
        <ele>42</ele>
        <time>2021-05-23T12:26:25.982Z</time>
      </trkpt>
      <trkpt lat="47.24961" lon="-2.26402">
        <ele>43</ele>
        <time>2021-05-23T12:26:26.982Z</time>
      </trkpt>
      <trkpt lat="47.24963" lon="-2.26401">
        <ele>43</ele>
        <time>2021-05-23T12:26:27.983Z</time>
      </trkpt>
      <trkpt lat="47.24965" lon="-2.26399">
        <ele>43</ele>
        <time>2021-05-23T12:26:28.983Z</time>
      </trkpt>
      <trkpt lat="47.24967" lon="-2.26398">
        <ele>43</ele>
        <time>2021-05-23T12:26:29.982Z</time>
      </trkpt>
      <trkpt lat="47.24969" lon="-2.26397">
        <ele>43</ele>
        <time>2021-05-23T12:26:30.982Z</time>
      </trkpt>
      <trkpt lat="47.24971" lon="-2.26395">
        <ele>43</ele>
        <time>2021-05-23T12:26:31.982Z</time>
      </trkpt>
      <trkpt lat="47.24973" lon="-2.26395">
        <ele>43</ele>
        <time>2021-05-23T12:26:32.983Z</time>
      </trkpt>
      <trkpt lat="47.24975" lon="-2.26393">
        <ele>43</ele>
        <time>2021-05-23T12:26:33.982Z</time>
      </trkpt>
      <trkpt lat="47.24976" lon="-2.26393">
        <ele>43</ele>
        <time>2021-05-23T12:26:34.983Z</time>
      </trkpt>
      <trkpt lat="47.24978" lon="-2.26392">
        <ele>43</ele>
        <time>2021-05-23T12:26:35.982Z</time>
      </trkpt>
      <trkpt lat="47.2498" lon="-2.2639">
        <ele>43</ele>
        <time>2021-05-23T12:26:36.982Z</time>
      </trkpt>
      <trkpt lat="47.24982" lon="-2.26389">
        <ele>43</ele>
        <time>2021-05-23T12:26:37.982Z</time>
      </trkpt>
      <trkpt lat="47.24984" lon="-2.26388">
        <ele>43</ele>
        <time>2021-05-23T12:26:38.982Z</time>
      </trkpt>
      <trkpt lat="47.24986" lon="-2.26386">
        <ele>43</ele>
        <time>2021-05-23T12:26:39.982Z</time>
      </trkpt>
      <trkpt lat="47.24988" lon="-2.26385">
        <ele>43</ele>
        <time>2021-05-23T12:26:40.982Z</time>
      </trkpt>
      <trkpt lat="47.2499" lon="-2.26384">
        <ele>43</ele>
        <time>2021-05-23T12:26:41.982Z</time>
      </trkpt>
      <trkpt lat="47.24992" lon="-2.26381">
        <ele>44</ele>
        <time>2021-05-23T12:26:42.982Z</time>
      </trkpt>
      <trkpt lat="47.24994" lon="-2.26379">
        <ele>44</ele>
        <time>2021-05-23T12:26:43.982Z</time>
      </trkpt>
      <trkpt lat="47.24995" lon="-2.26378">
        <ele>44</ele>
        <time>2021-05-23T12:26:44.982Z</time>
      </trkpt>
      <trkpt lat="47.24996" lon="-2.26376">
        <ele>43</ele>
        <time>2021-05-23T12:26:45.982Z</time>
      </trkpt>
      <trkpt lat="47.24998" lon="-2.26375">
        <ele>43</ele>
        <time>2021-05-23T12:26:46.982Z</time>
      </trkpt>
      <trkpt lat="47.25" lon="-2.26374">
        <ele>43</ele>
        <time>2021-05-23T12:26:47.982Z</time>
      </trkpt>
      <trkpt lat="47.25002" lon="-2.26374">
        <ele>43</ele>
        <time>2021-05-23T12:26:48.982Z</time>
      </trkpt>
      <trkpt lat="47.25004" lon="-2.26373">
        <ele>43</ele>
        <time>2021-05-23T12:26:49.982Z</time>
      </trkpt>
      <trkpt lat="47.25007" lon="-2.26371">
        <ele>42</ele>
        <time>2021-05-23T12:26:50.982Z</time>
      </trkpt>
      <trkpt lat="47.25009" lon="-2.2637">
        <ele>42</ele>
        <time>2021-05-23T12:26:51.982Z</time>
      </trkpt>
      <trkpt lat="47.25011" lon="-2.26368">
        <ele>42</ele>
        <time>2021-05-23T12:26:52.982Z</time>
      </trkpt>
      <trkpt lat="47.25012" lon="-2.26366">
        <ele>41</ele>
        <time>2021-05-23T12:26:53.982Z</time>
      </trkpt>
      <trkpt lat="47.25014" lon="-2.26364">
        <ele>41</ele>
        <time>2021-05-23T12:26:54.982Z</time>
      </trkpt>
      <trkpt lat="47.25015" lon="-2.26361">
        <ele>40</ele>
        <time>2021-05-23T12:26:55.982Z</time>
      </trkpt>
      <trkpt lat="47.25015" lon="-2.26358">
        <ele>40</ele>
        <time>2021-05-23T12:26:56.982Z</time>
      </trkpt>
      <trkpt lat="47.25016" lon="-2.26355">
        <ele>39</ele>
        <time>2021-05-23T12:26:57.982Z</time>
      </trkpt>
      <trkpt lat="47.25016" lon="-2.26352">
        <ele>37</ele>
        <time>2021-05-23T12:26:58.982Z</time>
      </trkpt>
      <trkpt lat="47.25017" lon="-2.26349">
        <ele>36</ele>
        <time>2021-05-23T12:26:59.982Z</time>
      </trkpt>
      <trkpt lat="47.25018" lon="-2.26345">
        <ele>36</ele>
        <time>2021-05-23T12:27:00.982Z</time>
      </trkpt>
      <trkpt lat="47.25019" lon="-2.26342">
        <ele>35</ele>
        <time>2021-05-23T12:27:01.982Z</time>
      </trkpt>
      <trkpt lat="47.25019" lon="-2.2634">
        <ele>34</ele>
        <time>2021-05-23T12:27:02.982Z</time>
      </trkpt>
      <trkpt lat="47.25019" lon="-2.26338">
        <ele>34</ele>
        <time>2021-05-23T12:27:03.982Z</time>
      </trkpt>
      <trkpt lat="47.25019" lon="-2.26335">
        <ele>33</ele>
        <time>2021-05-23T12:27:04.982Z</time>
      </trkpt>
      <trkpt lat="47.2502" lon="-2.26333">
        <ele>33</ele>
        <time>2021-05-23T12:27:05.982Z</time>
      </trkpt>
      <trkpt lat="47.2502" lon="-2.2633">
        <ele>32</ele>
        <time>2021-05-23T12:27:06.982Z</time>
      </trkpt>
      <trkpt lat="47.2502" lon="-2.26328">
        <ele>31</ele>
        <time>2021-05-23T12:27:07.982Z</time>
      </trkpt>
      <trkpt lat="47.25019" lon="-2.26326">
        <ele>31</ele>
        <time>2021-05-23T12:27:08.982Z</time>
      </trkpt>
      <trkpt lat="47.25019" lon="-2.26323">
        <ele>30</ele>
        <time>2021-05-23T12:27:09.982Z</time>
      </trkpt>
      <trkpt lat="47.25018" lon="-2.26321">
        <ele>30</ele>
        <time>2021-05-23T12:27:10.982Z</time>
      </trkpt>
      <trkpt lat="47.25018" lon="-2.26319">
        <ele>30</ele>
        <time>2021-05-23T12:27:11.983Z</time>
      </trkpt>
      <trkpt lat="47.25018" lon="-2.26317">
        <ele>30</ele>
        <time>2021-05-23T12:27:12.982Z</time>
      </trkpt>
      <trkpt lat="47.25018" lon="-2.26315">
        <ele>30</ele>
        <time>2021-05-23T12:27:13.983Z</time>
      </trkpt>
      <trkpt lat="47.25018" lon="-2.26313">
        <ele>30</ele>
        <time>2021-05-23T12:27:14.982Z</time>
      </trkpt>
      <trkpt lat="47.25017" lon="-2.26311">
        <ele>30</ele>
        <time>2021-05-23T12:27:15.983Z</time>
      </trkpt>
      <trkpt lat="47.25018" lon="-2.26308">
        <ele>30</ele>
        <time>2021-05-23T12:27:16.982Z</time>
      </trkpt>
      <trkpt lat="47.25018" lon="-2.26306">
        <ele>30</ele>
        <time>2021-05-23T12:27:17.982Z</time>
      </trkpt>
      <trkpt lat="47.25019" lon="-2.26304">
        <ele>30</ele>
        <time>2021-05-23T12:27:18.982Z</time>
      </trkpt>
      <trkpt lat="47.2502" lon="-2.26302">
        <ele>30</ele>
        <time>2021-05-23T12:27:19.983Z</time>
      </trkpt>
      <trkpt lat="47.25019" lon="-2.26301">
        <ele>29</ele>
        <time>2021-05-23T12:27:20.982Z</time>
      </trkpt>
      <trkpt lat="47.25019" lon="-2.26299">
        <ele>29</ele>
        <time>2021-05-23T12:27:21.982Z</time>
      </trkpt>
      <trkpt lat="47.25019" lon="-2.26297">
        <ele>29</ele>
        <time>2021-05-23T12:27:22.983Z</time>
      </trkpt>
      <trkpt lat="47.25019" lon="-2.26296">
        <ele>29</ele>
        <time>2021-05-23T12:27:23.982Z</time>
      </trkpt>
      <trkpt lat="47.25018" lon="-2.26294">
        <ele>29</ele>
        <time>2021-05-23T12:27:24.982Z</time>
      </trkpt>
      <trkpt lat="47.25017" lon="-2.26292">
        <ele>29</ele>
        <time>2021-05-23T12:27:25.982Z</time>
      </trkpt>
      <trkpt lat="47.25017" lon="-2.2629">
        <ele>30</ele>
        <time>2021-05-23T12:27:26.982Z</time>
      </trkpt>
      <trkpt lat="47.25016" lon="-2.26288">
        <ele>30</ele>
        <time>2021-05-23T12:27:27.983Z</time>
      </trkpt>
      <trkpt lat="47.25016" lon="-2.26286">
        <ele>30</ele>
        <time>2021-05-23T12:27:28.982Z</time>
      </trkpt>
      <trkpt lat="47.25015" lon="-2.26284">
        <ele>30</ele>
        <time>2021-05-23T12:27:29.983Z</time>
      </trkpt>
      <trkpt lat="47.25015" lon="-2.26282">
        <ele>30</ele>
        <time>2021-05-23T12:27:30.982Z</time>
      </trkpt>
      <trkpt lat="47.25014" lon="-2.2628">
        <ele>31</ele>
        <time>2021-05-23T12:27:31.983Z</time>
      </trkpt>
      <trkpt lat="47.25014" lon="-2.26278">
        <ele>31</ele>
        <time>2021-05-23T12:27:32.983Z</time>
      </trkpt>
      <trkpt lat="47.25014" lon="-2.26276">
        <ele>31</ele>
        <time>2021-05-23T12:27:33.982Z</time>
      </trkpt>
      <trkpt lat="47.25015" lon="-2.26274">
        <ele>31</ele>
        <time>2021-05-23T12:27:34.982Z</time>
      </trkpt>
      <trkpt lat="47.25015" lon="-2.26272">
        <ele>31</ele>
        <time>2021-05-23T12:27:35.983Z</time>
      </trkpt>
      <trkpt lat="47.25012" lon="-2.2627">
        <ele>31</ele>
        <time>2021-05-23T12:27:36.982Z</time>
      </trkpt>
      <trkpt lat="47.25011" lon="-2.26267">
        <ele>32</ele>
        <time>2021-05-23T12:27:37.982Z</time>
      </trkpt>
      <trkpt lat="47.2501" lon="-2.26265">
        <ele>32</ele>
        <time>2021-05-23T12:27:38.983Z</time>
      </trkpt>
      <trkpt lat="47.25009" lon="-2.26263">
        <ele>32</ele>
        <time>2021-05-23T12:27:39.982Z</time>
      </trkpt>
      <trkpt lat="47.25008" lon="-2.26261">
        <ele>33</ele>
        <time>2021-05-23T12:27:40.982Z</time>
      </trkpt>
      <trkpt lat="47.25007" lon="-2.2626">
        <ele>33</ele>
        <time>2021-05-23T12:27:41.983Z</time>
      </trkpt>
      <trkpt lat="47.25006" lon="-2.26259">
        <ele>34</ele>
        <time>2021-05-23T12:27:42.982Z</time>
      </trkpt>
      <trkpt lat="47.25006" lon="-2.26258">
        <ele>34</ele>
        <time>2021-05-23T12:27:43.982Z</time>
      </trkpt>
      <trkpt lat="47.25006" lon="-2.26257">
        <ele>34</ele>
        <time>2021-05-23T12:27:44.982Z</time>
      </trkpt>
      <trkpt lat="47.25005" lon="-2.26255">
        <ele>33</ele>
        <time>2021-05-23T12:27:45.982Z</time>
      </trkpt>
      <trkpt lat="47.25005" lon="-2.26254">
        <ele>33</ele>
        <time>2021-05-23T12:27:46.982Z</time>
      </trkpt>
      <trkpt lat="47.25004" lon="-2.26253">
        <ele>33</ele>
        <time>2021-05-23T12:27:47.983Z</time>
      </trkpt>
      <trkpt lat="47.25003" lon="-2.26251">
        <ele>33</ele>
        <time>2021-05-23T12:27:48.983Z</time>
      </trkpt>
      <trkpt lat="47.25003" lon="-2.26249">
        <ele>33</ele>
        <time>2021-05-23T12:27:49.982Z</time>
      </trkpt>
      <trkpt lat="47.25003" lon="-2.26247">
        <ele>34</ele>
        <time>2021-05-23T12:27:50.982Z</time>
      </trkpt>
      <trkpt lat="47.25003" lon="-2.26246">
        <ele>34</ele>
        <time>2021-05-23T12:27:51.982Z</time>
      </trkpt>
      <trkpt lat="47.25003" lon="-2.26244">
        <ele>35</ele>
        <time>2021-05-23T12:27:52.982Z</time>
      </trkpt>
      <trkpt lat="47.25003" lon="-2.26242">
        <ele>35</ele>
        <time>2021-05-23T12:27:53.982Z</time>
      </trkpt>
      <trkpt lat="47.25003" lon="-2.26241">
        <ele>34</ele>
        <time>2021-05-23T12:27:54.982Z</time>
      </trkpt>
      <trkpt lat="47.25003" lon="-2.26239">
        <ele>34</ele>
        <time>2021-05-23T12:27:55.982Z</time>
      </trkpt>
      <trkpt lat="47.25003" lon="-2.26237">
        <ele>34</ele>
        <time>2021-05-23T12:27:56.982Z</time>
      </trkpt>
      <trkpt lat="47.25003" lon="-2.26235">
        <ele>34</ele>
        <time>2021-05-23T12:27:57.982Z</time>
      </trkpt>
      <trkpt lat="47.25003" lon="-2.26233">
        <ele>34</ele>
        <time>2021-05-23T12:27:58.982Z</time>
      </trkpt>
      <trkpt lat="47.25002" lon="-2.26231">
        <ele>34</ele>
        <time>2021-05-23T12:27:59.982Z</time>
      </trkpt>
      <trkpt lat="47.25002" lon="-2.26229">
        <ele>34</ele>
        <time>2021-05-23T12:28:00.982Z</time>
      </trkpt>
      <trkpt lat="47.25002" lon="-2.26228">
        <ele>34</ele>
        <time>2021-05-23T12:28:01.982Z</time>
      </trkpt>
      <trkpt lat="47.25002" lon="-2.26226">
        <ele>34</ele>
        <time>2021-05-23T12:28:02.982Z</time>
      </trkpt>
      <trkpt lat="47.25002" lon="-2.26224">
        <ele>33</ele>
        <time>2021-05-23T12:28:03.982Z</time>
      </trkpt>
      <trkpt lat="47.25001" lon="-2.26223">
        <ele>33</ele>
        <time>2021-05-23T12:28:04.982Z</time>
      </trkpt>
      <trkpt lat="47.25001" lon="-2.26221">
        <ele>33</ele>
        <time>2021-05-23T12:28:05.982Z</time>
      </trkpt>
      <trkpt lat="47.25001" lon="-2.26219">
        <ele>33</ele>
        <time>2021-05-23T12:28:06.983Z</time>
      </trkpt>
      <trkpt lat="47.25001" lon="-2.26217">
        <ele>33</ele>
        <time>2021-05-23T12:28:07.982Z</time>
      </trkpt>
      <trkpt lat="47.25002" lon="-2.26215">
        <ele>33</ele>
        <time>2021-05-23T12:28:08.982Z</time>
      </trkpt>
      <trkpt lat="47.25002" lon="-2.26214">
        <ele>33</ele>
        <time>2021-05-23T12:28:09.983Z</time>
      </trkpt>
      <trkpt lat="47.25002" lon="-2.26213">
        <ele>33</ele>
        <time>2021-05-23T12:28:10.982Z</time>
      </trkpt>
      <trkpt lat="47.25002" lon="-2.26211">
        <ele>33</ele>
        <time>2021-05-23T12:28:11.982Z</time>
      </trkpt>
      <trkpt lat="47.25001" lon="-2.26209">
        <ele>32</ele>
        <time>2021-05-23T12:28:12.983Z</time>
      </trkpt>
      <trkpt lat="47.25001" lon="-2.26207">
        <ele>33</ele>
        <time>2021-05-23T12:28:13.982Z</time>
      </trkpt>
      <trkpt lat="47.25001" lon="-2.26205">
        <ele>33</ele>
        <time>2021-05-23T12:28:14.982Z</time>
      </trkpt>
      <trkpt lat="47.25001" lon="-2.26203">
        <ele>33</ele>
        <time>2021-05-23T12:28:15.982Z</time>
      </trkpt>
      <trkpt lat="47.25" lon="-2.26201">
        <ele>33</ele>
        <time>2021-05-23T12:28:16.982Z</time>
      </trkpt>
      <trkpt lat="47.25" lon="-2.26199">
        <ele>33</ele>
        <time>2021-05-23T12:28:17.982Z</time>
      </trkpt>
      <trkpt lat="47.25" lon="-2.26196">
        <ele>33</ele>
        <time>2021-05-23T12:28:18.983Z</time>
      </trkpt>
      <trkpt lat="47.25" lon="-2.26194">
        <ele>33</ele>
        <time>2021-05-23T12:28:19.982Z</time>
      </trkpt>
      <trkpt lat="47.25" lon="-2.26192">
        <ele>33</ele>
        <time>2021-05-23T12:28:20.982Z</time>
      </trkpt>
      <trkpt lat="47.25" lon="-2.26189">
        <ele>33</ele>
        <time>2021-05-23T12:28:21.982Z</time>
      </trkpt>
      <trkpt lat="47.25" lon="-2.26186">
        <ele>33</ele>
        <time>2021-05-23T12:28:22.983Z</time>
      </trkpt>
      <trkpt lat="47.25" lon="-2.26184">
        <ele>32</ele>
        <time>2021-05-23T12:28:23.982Z</time>
      </trkpt>
      <trkpt lat="47.25" lon="-2.26181">
        <ele>32</ele>
        <time>2021-05-23T12:28:24.982Z</time>
      </trkpt>
      <trkpt lat="47.25" lon="-2.26178">
        <ele>31</ele>
        <time>2021-05-23T12:28:25.982Z</time>
      </trkpt>
      <trkpt lat="47.25" lon="-2.26175">
        <ele>31</ele>
        <time>2021-05-23T12:28:26.982Z</time>
      </trkpt>
      <trkpt lat="47.25" lon="-2.26172">
        <ele>31</ele>
        <time>2021-05-23T12:28:27.983Z</time>
      </trkpt>
      <trkpt lat="47.24999" lon="-2.26169">
        <ele>30</ele>
        <time>2021-05-23T12:28:28.982Z</time>
      </trkpt>
      <trkpt lat="47.24999" lon="-2.26166">
        <ele>30</ele>
        <time>2021-05-23T12:28:29.982Z</time>
      </trkpt>
      <trkpt lat="47.24999" lon="-2.26163">
        <ele>30</ele>
        <time>2021-05-23T12:28:30.982Z</time>
      </trkpt>
      <trkpt lat="47.24999" lon="-2.2616">
        <ele>30</ele>
        <time>2021-05-23T12:28:31.982Z</time>
      </trkpt>
      <trkpt lat="47.24999" lon="-2.26157">
        <ele>29</ele>
        <time>2021-05-23T12:28:32.982Z</time>
      </trkpt>
      <trkpt lat="47.24999" lon="-2.26154">
        <ele>29</ele>
        <time>2021-05-23T12:28:33.983Z</time>
      </trkpt>
      <trkpt lat="47.24999" lon="-2.26151">
        <ele>29</ele>
        <time>2021-05-23T12:28:34.983Z</time>
      </trkpt>
      <trkpt lat="47.24999" lon="-2.26148">
        <ele>29</ele>
        <time>2021-05-23T12:28:35.983Z</time>
      </trkpt>
      <trkpt lat="47.25" lon="-2.26145">
        <ele>29</ele>
        <time>2021-05-23T12:28:36.982Z</time>
      </trkpt>
      <trkpt lat="47.25" lon="-2.26141">
        <ele>29</ele>
        <time>2021-05-23T12:28:37.983Z</time>
      </trkpt>
      <trkpt lat="47.25" lon="-2.26138">
        <ele>29</ele>
        <time>2021-05-23T12:28:38.982Z</time>
      </trkpt>
      <trkpt lat="47.25" lon="-2.26135">
        <ele>30</ele>
        <time>2021-05-23T12:28:39.983Z</time>
      </trkpt>
      <trkpt lat="47.24999" lon="-2.26133">
        <ele>30</ele>
        <time>2021-05-23T12:28:40.982Z</time>
      </trkpt>
      <trkpt lat="47.24999" lon="-2.2613">
        <ele>31</ele>
        <time>2021-05-23T12:28:41.983Z</time>
      </trkpt>
      <trkpt lat="47.24999" lon="-2.26127">
        <ele>31</ele>
        <time>2021-05-23T12:28:42.982Z</time>
      </trkpt>
      <trkpt lat="47.24999" lon="-2.26124">
        <ele>31</ele>
        <time>2021-05-23T12:28:43.983Z</time>
      </trkpt>
      <trkpt lat="47.24999" lon="-2.26121">
        <ele>31</ele>
        <time>2021-05-23T12:28:44.982Z</time>
      </trkpt>
      <trkpt lat="47.24999" lon="-2.26118">
        <ele>31</ele>
        <time>2021-05-23T12:28:45.983Z</time>
      </trkpt>
      <trkpt lat="47.24999" lon="-2.26115">
        <ele>31</ele>
        <time>2021-05-23T12:28:46.982Z</time>
      </trkpt>
      <trkpt lat="47.24999" lon="-2.26112">
        <ele>31</ele>
        <time>2021-05-23T12:28:47.982Z</time>
      </trkpt>
      <trkpt lat="47.24999" lon="-2.26109">
        <ele>31</ele>
        <time>2021-05-23T12:28:48.982Z</time>
      </trkpt>
      <trkpt lat="47.25" lon="-2.26106">
        <ele>30</ele>
        <time>2021-05-23T12:28:49.982Z</time>
      </trkpt>
      <trkpt lat="47.25" lon="-2.26103">
        <ele>30</ele>
        <time>2021-05-23T12:28:50.982Z</time>
      </trkpt>
      <trkpt lat="47.25" lon="-2.261">
        <ele>29</ele>
        <time>2021-05-23T12:28:51.982Z</time>
      </trkpt>
      <trkpt lat="47.25" lon="-2.26096">
        <ele>29</ele>
        <time>2021-05-23T12:28:52.982Z</time>
      </trkpt>
      <trkpt lat="47.25" lon="-2.26093">
        <ele>29</ele>
        <time>2021-05-23T12:28:53.982Z</time>
      </trkpt>
      <trkpt lat="47.25" lon="-2.2609">
        <ele>29</ele>
        <time>2021-05-23T12:28:54.982Z</time>
      </trkpt>
      <trkpt lat="47.25" lon="-2.26087">
        <ele>29</ele>
        <time>2021-05-23T12:28:55.982Z</time>
      </trkpt>
      <trkpt lat="47.25001" lon="-2.26084">
        <ele>30</ele>
        <time>2021-05-23T12:28:56.982Z</time>
      </trkpt>
      <trkpt lat="47.25001" lon="-2.26082">
        <ele>30</ele>
        <time>2021-05-23T12:28:57.982Z</time>
      </trkpt>
      <trkpt lat="47.25001" lon="-2.26079">
        <ele>30</ele>
        <time>2021-05-23T12:28:58.982Z</time>
      </trkpt>
      <trkpt lat="47.25001" lon="-2.26077">
        <ele>30</ele>
        <time>2021-05-23T12:28:59.982Z</time>
      </trkpt>
      <trkpt lat="47.25002" lon="-2.26074">
        <ele>29</ele>
        <time>2021-05-23T12:29:00.982Z</time>
      </trkpt>
      <trkpt lat="47.25003" lon="-2.2607">
        <ele>29</ele>
        <time>2021-05-23T12:29:01.983Z</time>
      </trkpt>
      <trkpt lat="47.25004" lon="-2.26068">
        <ele>29</ele>
        <time>2021-05-23T12:29:02.982Z</time>
      </trkpt>
      <trkpt lat="47.25005" lon="-2.26065">
        <ele>29</ele>
        <time>2021-05-23T12:29:03.982Z</time>
      </trkpt>
      <trkpt lat="47.25006" lon="-2.26062">
        <ele>28</ele>
        <time>2021-05-23T12:29:04.982Z</time>
      </trkpt>
      <trkpt lat="47.25006" lon="-2.2606">
        <ele>28</ele>
        <time>2021-05-23T12:29:05.982Z</time>
      </trkpt>
      <trkpt lat="47.25007" lon="-2.26058">
        <ele>28</ele>
        <time>2021-05-23T12:29:06.982Z</time>
      </trkpt>
      <trkpt lat="47.25007" lon="-2.26057">
        <ele>28</ele>
        <time>2021-05-23T12:29:07.982Z</time>
      </trkpt>
      <trkpt lat="47.25007" lon="-2.26054">
        <ele>29</ele>
        <time>2021-05-23T12:29:08.982Z</time>
      </trkpt>
      <trkpt lat="47.25009" lon="-2.26052">
        <ele>29</ele>
        <time>2021-05-23T12:29:09.982Z</time>
      </trkpt>
      <trkpt lat="47.2501" lon="-2.26049">
        <ele>29</ele>
        <time>2021-05-23T12:29:10.982Z</time>
      </trkpt>
      <trkpt lat="47.25012" lon="-2.26047">
        <ele>29</ele>
        <time>2021-05-23T12:29:11.982Z</time>
      </trkpt>
      <trkpt lat="47.25013" lon="-2.26044">
        <ele>30</ele>
        <time>2021-05-23T12:29:12.982Z</time>
      </trkpt>
      <trkpt lat="47.25013" lon="-2.26042">
        <ele>30</ele>
        <time>2021-05-23T12:29:13.982Z</time>
      </trkpt>
      <trkpt lat="47.25015" lon="-2.26039">
        <ele>30</ele>
        <time>2021-05-23T12:29:14.983Z</time>
      </trkpt>
      <trkpt lat="47.25016" lon="-2.26037">
        <ele>31</ele>
        <time>2021-05-23T12:29:15.983Z</time>
      </trkpt>
      <trkpt lat="47.25017" lon="-2.26035">
        <ele>31</ele>
        <time>2021-05-23T12:29:16.982Z</time>
      </trkpt>
      <trkpt lat="47.25018" lon="-2.26032">
        <ele>31</ele>
        <time>2021-05-23T12:29:17.982Z</time>
      </trkpt>
      <trkpt lat="47.25019" lon="-2.2603">
        <ele>32</ele>
        <time>2021-05-23T12:29:18.982Z</time>
      </trkpt>
      <trkpt lat="47.2502" lon="-2.26027">
        <ele>32</ele>
        <time>2021-05-23T12:29:19.982Z</time>
      </trkpt>
      <trkpt lat="47.25021" lon="-2.26024">
        <ele>31</ele>
        <time>2021-05-23T12:29:20.982Z</time>
      </trkpt>
      <trkpt lat="47.25022" lon="-2.26022">
        <ele>32</ele>
        <time>2021-05-23T12:29:21.982Z</time>
      </trkpt>
      <trkpt lat="47.25023" lon="-2.26019">
        <ele>32</ele>
        <time>2021-05-23T12:29:22.982Z</time>
      </trkpt>
      <trkpt lat="47.25024" lon="-2.26017">
        <ele>32</ele>
        <time>2021-05-23T12:29:23.982Z</time>
      </trkpt>
      <trkpt lat="47.25025" lon="-2.26014">
        <ele>32</ele>
        <time>2021-05-23T12:29:24.982Z</time>
      </trkpt>
      <trkpt lat="47.25026" lon="-2.26011">
        <ele>32</ele>
        <time>2021-05-23T12:29:25.982Z</time>
      </trkpt>
      <trkpt lat="47.25026" lon="-2.26009">
        <ele>32</ele>
        <time>2021-05-23T12:29:26.982Z</time>
      </trkpt>
      <trkpt lat="47.25026" lon="-2.26006">
        <ele>32</ele>
        <time>2021-05-23T12:29:27.982Z</time>
      </trkpt>
      <trkpt lat="47.25025" lon="-2.26003">
        <ele>32</ele>
        <time>2021-05-23T12:29:28.982Z</time>
      </trkpt>
      <trkpt lat="47.25025" lon="-2.26001">
        <ele>32</ele>
        <time>2021-05-23T12:29:29.982Z</time>
      </trkpt>
      <trkpt lat="47.25024" lon="-2.25997">
        <ele>32</ele>
        <time>2021-05-23T12:29:30.982Z</time>
      </trkpt>
      <trkpt lat="47.25024" lon="-2.25994">
        <ele>31</ele>
        <time>2021-05-23T12:29:31.982Z</time>
      </trkpt>
      <trkpt lat="47.25024" lon="-2.2599">
        <ele>31</ele>
        <time>2021-05-23T12:29:32.982Z</time>
      </trkpt>
      <trkpt lat="47.25024" lon="-2.25987">
        <ele>30</ele>
        <time>2021-05-23T12:29:33.982Z</time>
      </trkpt>
      <trkpt lat="47.25025" lon="-2.25983">
        <ele>30</ele>
        <time>2021-05-23T12:29:34.982Z</time>
      </trkpt>
      <trkpt lat="47.25026" lon="-2.2598">
        <ele>29</ele>
        <time>2021-05-23T12:29:35.982Z</time>
      </trkpt>
      <trkpt lat="47.25026" lon="-2.25977">
        <ele>29</ele>
        <time>2021-05-23T12:29:36.983Z</time>
      </trkpt>
      <trkpt lat="47.25027" lon="-2.25973">
        <ele>29</ele>
        <time>2021-05-23T12:29:37.982Z</time>
      </trkpt>
      <trkpt lat="47.25027" lon="-2.2597">
        <ele>28</ele>
        <time>2021-05-23T12:29:38.982Z</time>
      </trkpt>
      <trkpt lat="47.25027" lon="-2.25968">
        <ele>28</ele>
        <time>2021-05-23T12:29:39.982Z</time>
      </trkpt>
      <trkpt lat="47.25028" lon="-2.25965">
        <ele>28</ele>
        <time>2021-05-23T12:29:40.982Z</time>
      </trkpt>
      <trkpt lat="47.25028" lon="-2.25962">
        <ele>28</ele>
        <time>2021-05-23T12:29:41.982Z</time>
      </trkpt>
      <trkpt lat="47.25029" lon="-2.25959">
        <ele>27</ele>
        <time>2021-05-23T12:29:42.982Z</time>
      </trkpt>
      <trkpt lat="47.25029" lon="-2.25956">
        <ele>27</ele>
        <time>2021-05-23T12:29:43.983Z</time>
      </trkpt>
      <trkpt lat="47.2503" lon="-2.25954">
        <ele>26</ele>
        <time>2021-05-23T12:29:44.982Z</time>
      </trkpt>
      <trkpt lat="47.25031" lon="-2.25951">
        <ele>26</ele>
        <time>2021-05-23T12:29:45.982Z</time>
      </trkpt>
      <trkpt lat="47.25031" lon="-2.25949">
        <ele>26</ele>
        <time>2021-05-23T12:29:46.983Z</time>
      </trkpt>
      <trkpt lat="47.25031" lon="-2.25946">
        <ele>26</ele>
        <time>2021-05-23T12:29:47.982Z</time>
      </trkpt>
      <trkpt lat="47.25032" lon="-2.25943">
        <ele>26</ele>
        <time>2021-05-23T12:29:48.982Z</time>
      </trkpt>
      <trkpt lat="47.25032" lon="-2.25941">
        <ele>26</ele>
        <time>2021-05-23T12:29:49.982Z</time>
      </trkpt>
      <trkpt lat="47.25032" lon="-2.25939">
        <ele>25</ele>
        <time>2021-05-23T12:29:50.982Z</time>
      </trkpt>
      <trkpt lat="47.25033" lon="-2.25937">
        <ele>25</ele>
        <time>2021-05-23T12:29:51.982Z</time>
      </trkpt>
      <trkpt lat="47.25033" lon="-2.25936">
        <ele>25</ele>
        <time>2021-05-23T12:29:52.983Z</time>
      </trkpt>
      <trkpt lat="47.25033" lon="-2.25934">
        <ele>25</ele>
        <time>2021-05-23T12:29:53.982Z</time>
      </trkpt>
      <trkpt lat="47.25033" lon="-2.25933">
        <ele>24</ele>
        <time>2021-05-23T12:29:54.982Z</time>
      </trkpt>
      <trkpt lat="47.25033" lon="-2.25931">
        <ele>24</ele>
        <time>2021-05-23T12:29:55.983Z</time>
      </trkpt>
      <trkpt lat="47.25034" lon="-2.25931">
        <ele>24</ele>
        <time>2021-05-23T12:29:56.982Z</time>
      </trkpt>
      <trkpt lat="47.25034" lon="-2.2593">
        <ele>24</ele>
        <time>2021-05-23T12:29:57.982Z</time>
      </trkpt>
      <trkpt lat="47.25035" lon="-2.25928">
        <ele>23</ele>
        <time>2021-05-23T12:29:58.982Z</time>
      </trkpt>
      <trkpt lat="47.25034" lon="-2.25926">
        <ele>23</ele>
        <time>2021-05-23T12:29:59.982Z</time>
      </trkpt>
      <trkpt lat="47.25034" lon="-2.25924">
        <ele>23</ele>
        <time>2021-05-23T12:30:00.982Z</time>
      </trkpt>
      <trkpt lat="47.25034" lon="-2.25921">
        <ele>23</ele>
        <time>2021-05-23T12:30:01.982Z</time>
      </trkpt>
      <trkpt lat="47.25036" lon="-2.25917">
        <ele>23</ele>
        <time>2021-05-23T12:30:02.982Z</time>
      </trkpt>
      <trkpt lat="47.25037" lon="-2.25915">
        <ele>23</ele>
        <time>2021-05-23T12:30:03.982Z</time>
      </trkpt>
      <trkpt lat="47.25038" lon="-2.25912">
        <ele>23</ele>
        <time>2021-05-23T12:30:04.982Z</time>
      </trkpt>
      <trkpt lat="47.25039" lon="-2.25909">
        <ele>23</ele>
        <time>2021-05-23T12:30:05.982Z</time>
      </trkpt>
      <trkpt lat="47.25039" lon="-2.25907">
        <ele>23</ele>
        <time>2021-05-23T12:30:06.982Z</time>
      </trkpt>
      <trkpt lat="47.2504" lon="-2.25904">
        <ele>23</ele>
        <time>2021-05-23T12:30:07.982Z</time>
      </trkpt>
      <trkpt lat="47.25041" lon="-2.25901">
        <ele>23</ele>
        <time>2021-05-23T12:30:08.982Z</time>
      </trkpt>
      <trkpt lat="47.25042" lon="-2.25899">
        <ele>23</ele>
        <time>2021-05-23T12:30:09.982Z</time>
      </trkpt>
      <trkpt lat="47.25043" lon="-2.25897">
        <ele>23</ele>
        <time>2021-05-23T12:30:10.982Z</time>
      </trkpt>
      <trkpt lat="47.25044" lon="-2.25895">
        <ele>23</ele>
        <time>2021-05-23T12:30:11.982Z</time>
      </trkpt>
      <trkpt lat="47.25045" lon="-2.25893">
        <ele>23</ele>
        <time>2021-05-23T12:30:12.982Z</time>
      </trkpt>
      <trkpt lat="47.25046" lon="-2.25891">
        <ele>23</ele>
        <time>2021-05-23T12:30:13.982Z</time>
      </trkpt>
      <trkpt lat="47.25047" lon="-2.2589">
        <ele>22</ele>
        <time>2021-05-23T12:30:14.983Z</time>
      </trkpt>
      <trkpt lat="47.25047" lon="-2.25888">
        <ele>22</ele>
        <time>2021-05-23T12:30:15.982Z</time>
      </trkpt>
      <trkpt lat="47.25048" lon="-2.25886">
        <ele>23</ele>
        <time>2021-05-23T12:30:16.982Z</time>
      </trkpt>
      <trkpt lat="47.2505" lon="-2.25884">
        <ele>23</ele>
        <time>2021-05-23T12:30:17.982Z</time>
      </trkpt>
      <trkpt lat="47.25052" lon="-2.25881">
        <ele>23</ele>
        <time>2021-05-23T12:30:18.982Z</time>
      </trkpt>
      <trkpt lat="47.25054" lon="-2.25878">
        <ele>23</ele>
        <time>2021-05-23T12:30:19.983Z</time>
      </trkpt>
      <trkpt lat="47.25056" lon="-2.25876">
        <ele>23</ele>
        <time>2021-05-23T12:30:20.982Z</time>
      </trkpt>
      <trkpt lat="47.25056" lon="-2.25874">
        <ele>23</ele>
        <time>2021-05-23T12:30:21.982Z</time>
      </trkpt>
      <trkpt lat="47.25057" lon="-2.25872">
        <ele>23</ele>
        <time>2021-05-23T12:30:22.982Z</time>
      </trkpt>
      <trkpt lat="47.25058" lon="-2.25869">
        <ele>23</ele>
        <time>2021-05-23T12:30:23.982Z</time>
      </trkpt>
      <trkpt lat="47.25059" lon="-2.25866">
        <ele>23</ele>
        <time>2021-05-23T12:30:24.982Z</time>
      </trkpt>
      <trkpt lat="47.2506" lon="-2.25863">
        <ele>23</ele>
        <time>2021-05-23T12:30:25.982Z</time>
      </trkpt>
      <trkpt lat="47.25061" lon="-2.25861">
        <ele>23</ele>
        <time>2021-05-23T12:30:26.983Z</time>
      </trkpt>
      <trkpt lat="47.25061" lon="-2.25858">
        <ele>23</ele>
        <time>2021-05-23T12:30:27.982Z</time>
      </trkpt>
      <trkpt lat="47.25062" lon="-2.25855">
        <ele>23</ele>
        <time>2021-05-23T12:30:28.982Z</time>
      </trkpt>
      <trkpt lat="47.25062" lon="-2.25852">
        <ele>23</ele>
        <time>2021-05-23T12:30:29.982Z</time>
      </trkpt>
      <trkpt lat="47.25063" lon="-2.25849">
        <ele>23</ele>
        <time>2021-05-23T12:30:30.982Z</time>
      </trkpt>
      <trkpt lat="47.25064" lon="-2.25846">
        <ele>23</ele>
        <time>2021-05-23T12:30:31.982Z</time>
      </trkpt>
      <trkpt lat="47.25065" lon="-2.25843">
        <ele>23</ele>
        <time>2021-05-23T12:30:32.982Z</time>
      </trkpt>
      <trkpt lat="47.25066" lon="-2.2584">
        <ele>23</ele>
        <time>2021-05-23T12:30:33.982Z</time>
      </trkpt>
      <trkpt lat="47.25066" lon="-2.25837">
        <ele>22</ele>
        <time>2021-05-23T12:30:34.982Z</time>
      </trkpt>
      <trkpt lat="47.25066" lon="-2.25834">
        <ele>22</ele>
        <time>2021-05-23T12:30:35.982Z</time>
      </trkpt>
      <trkpt lat="47.25066" lon="-2.2583">
        <ele>22</ele>
        <time>2021-05-23T12:30:36.982Z</time>
      </trkpt>
      <trkpt lat="47.25066" lon="-2.25827">
        <ele>22</ele>
        <time>2021-05-23T12:30:37.982Z</time>
      </trkpt>
      <trkpt lat="47.25067" lon="-2.25823">
        <ele>22</ele>
        <time>2021-05-23T12:30:38.983Z</time>
      </trkpt>
      <trkpt lat="47.25068" lon="-2.25819">
        <ele>22</ele>
        <time>2021-05-23T12:30:39.982Z</time>
      </trkpt>
      <trkpt lat="47.25068" lon="-2.25815">
        <ele>22</ele>
        <time>2021-05-23T12:30:40.982Z</time>
      </trkpt>
      <trkpt lat="47.25068" lon="-2.25811">
        <ele>23</ele>
        <time>2021-05-23T12:30:41.983Z</time>
      </trkpt>
      <trkpt lat="47.25069" lon="-2.25808">
        <ele>23</ele>
        <time>2021-05-23T12:30:42.982Z</time>
      </trkpt>
      <trkpt lat="47.25069" lon="-2.25804">
        <ele>22</ele>
        <time>2021-05-23T12:30:43.982Z</time>
      </trkpt>
      <trkpt lat="47.2507" lon="-2.258">
        <ele>22</ele>
        <time>2021-05-23T12:30:44.982Z</time>
      </trkpt>
      <trkpt lat="47.25071" lon="-2.25797">
        <ele>22</ele>
        <time>2021-05-23T12:30:45.982Z</time>
      </trkpt>
      <trkpt lat="47.25071" lon="-2.25793">
        <ele>22</ele>
        <time>2021-05-23T12:30:46.982Z</time>
      </trkpt>
      <trkpt lat="47.25071" lon="-2.25789">
        <ele>22</ele>
        <time>2021-05-23T12:30:47.982Z</time>
      </trkpt>
      <trkpt lat="47.25071" lon="-2.25786">
        <ele>22</ele>
        <time>2021-05-23T12:30:48.982Z</time>
      </trkpt>
      <trkpt lat="47.25071" lon="-2.25782">
        <ele>22</ele>
        <time>2021-05-23T12:30:49.982Z</time>
      </trkpt>
      <trkpt lat="47.25071" lon="-2.25779">
        <ele>22</ele>
        <time>2021-05-23T12:30:50.982Z</time>
      </trkpt>
      <trkpt lat="47.25071" lon="-2.25775">
        <ele>22</ele>
        <time>2021-05-23T12:30:51.982Z</time>
      </trkpt>
      <trkpt lat="47.2507" lon="-2.25772">
        <ele>21</ele>
        <time>2021-05-23T12:30:52.982Z</time>
      </trkpt>
      <trkpt lat="47.2507" lon="-2.25768">
        <ele>21</ele>
        <time>2021-05-23T12:30:53.982Z</time>
      </trkpt>
      <trkpt lat="47.2507" lon="-2.25764">
        <ele>21</ele>
        <time>2021-05-23T12:30:54.983Z</time>
      </trkpt>
      <trkpt lat="47.2507" lon="-2.2576">
        <ele>20</ele>
        <time>2021-05-23T12:30:55.982Z</time>
      </trkpt>
      <trkpt lat="47.2507" lon="-2.25756">
        <ele>20</ele>
        <time>2021-05-23T12:30:56.982Z</time>
      </trkpt>
      <trkpt lat="47.2507" lon="-2.25753">
        <ele>20</ele>
        <time>2021-05-23T12:30:57.982Z</time>
      </trkpt>
      <trkpt lat="47.25069" lon="-2.25749">
        <ele>19</ele>
        <time>2021-05-23T12:30:58.982Z</time>
      </trkpt>
      <trkpt lat="47.25069" lon="-2.25745">
        <ele>19</ele>
        <time>2021-05-23T12:30:59.983Z</time>
      </trkpt>
      <trkpt lat="47.2507" lon="-2.25742">
        <ele>19</ele>
        <time>2021-05-23T12:31:00.982Z</time>
      </trkpt>
      <trkpt lat="47.2507" lon="-2.25739">
        <ele>19</ele>
        <time>2021-05-23T12:31:01.982Z</time>
      </trkpt>
      <trkpt lat="47.2507" lon="-2.25735">
        <ele>18</ele>
        <time>2021-05-23T12:31:02.982Z</time>
      </trkpt>
      <trkpt lat="47.2507" lon="-2.25732">
        <ele>18</ele>
        <time>2021-05-23T12:31:03.983Z</time>
      </trkpt>
      <trkpt lat="47.2507" lon="-2.25729">
        <ele>18</ele>
        <time>2021-05-23T12:31:04.982Z</time>
      </trkpt>
      <trkpt lat="47.2507" lon="-2.25726">
        <ele>18</ele>
        <time>2021-05-23T12:31:05.982Z</time>
      </trkpt>
      <trkpt lat="47.2507" lon="-2.25723">
        <ele>17</ele>
        <time>2021-05-23T12:31:06.982Z</time>
      </trkpt>
      <trkpt lat="47.25069" lon="-2.2572">
        <ele>17</ele>
        <time>2021-05-23T12:31:07.982Z</time>
      </trkpt>
      <trkpt lat="47.25069" lon="-2.25717">
        <ele>16</ele>
        <time>2021-05-23T12:31:08.982Z</time>
      </trkpt>
      <trkpt lat="47.25069" lon="-2.25714">
        <ele>16</ele>
        <time>2021-05-23T12:31:09.983Z</time>
      </trkpt>
      <trkpt lat="47.2507" lon="-2.25711">
        <ele>15</ele>
        <time>2021-05-23T12:31:10.983Z</time>
      </trkpt>
      <trkpt lat="47.2507" lon="-2.25709">
        <ele>15</ele>
        <time>2021-05-23T12:31:11.982Z</time>
      </trkpt>
      <trkpt lat="47.25071" lon="-2.25705">
        <ele>15</ele>
        <time>2021-05-23T12:31:12.982Z</time>
      </trkpt>
      <trkpt lat="47.25072" lon="-2.25702">
        <ele>15</ele>
        <time>2021-05-23T12:31:13.982Z</time>
      </trkpt>
      <trkpt lat="47.25072" lon="-2.25699">
        <ele>15</ele>
        <time>2021-05-23T12:31:14.983Z</time>
      </trkpt>
      <trkpt lat="47.25073" lon="-2.25696">
        <ele>14</ele>
        <time>2021-05-23T12:31:15.982Z</time>
      </trkpt>
      <trkpt lat="47.25074" lon="-2.25692">
        <ele>14</ele>
        <time>2021-05-23T12:31:16.982Z</time>
      </trkpt>
      <trkpt lat="47.25074" lon="-2.2569">
        <ele>14</ele>
        <time>2021-05-23T12:31:17.982Z</time>
      </trkpt>
      <trkpt lat="47.25075" lon="-2.25686">
        <ele>13</ele>
        <time>2021-05-23T12:31:18.982Z</time>
      </trkpt>
      <trkpt lat="47.25076" lon="-2.25683">
        <ele>13</ele>
        <time>2021-05-23T12:31:19.983Z</time>
      </trkpt>
      <trkpt lat="47.25077" lon="-2.2568">
        <ele>12</ele>
        <time>2021-05-23T12:31:20.982Z</time>
      </trkpt>
      <trkpt lat="47.25078" lon="-2.25678">
        <ele>12</ele>
        <time>2021-05-23T12:31:21.982Z</time>
      </trkpt>
      <trkpt lat="47.2508" lon="-2.25677">
        <ele>12</ele>
        <time>2021-05-23T12:31:22.982Z</time>
      </trkpt>
      <trkpt lat="47.25081" lon="-2.25675">
        <ele>12</ele>
        <time>2021-05-23T12:31:23.982Z</time>
      </trkpt>
      <trkpt lat="47.25083" lon="-2.25674">
        <ele>12</ele>
        <time>2021-05-23T12:31:24.983Z</time>
      </trkpt>
      <trkpt lat="47.25085" lon="-2.25673">
        <ele>12</ele>
        <time>2021-05-23T12:31:25.982Z</time>
      </trkpt>
      <trkpt lat="47.25087" lon="-2.25672">
        <ele>12</ele>
        <time>2021-05-23T12:31:26.983Z</time>
      </trkpt>
      <trkpt lat="47.25088" lon="-2.2567">
        <ele>11</ele>
        <time>2021-05-23T12:31:27.982Z</time>
      </trkpt>
      <trkpt lat="47.25089" lon="-2.25668">
        <ele>11</ele>
        <time>2021-05-23T12:31:28.982Z</time>
      </trkpt>
      <trkpt lat="47.25091" lon="-2.25665">
        <ele>11</ele>
        <time>2021-05-23T12:31:29.982Z</time>
      </trkpt>
      <trkpt lat="47.25092" lon="-2.25663">
        <ele>11</ele>
        <time>2021-05-23T12:31:30.982Z</time>
      </trkpt>
      <trkpt lat="47.25093" lon="-2.2566">
        <ele>11</ele>
        <time>2021-05-23T12:31:31.982Z</time>
      </trkpt>
      <trkpt lat="47.25094" lon="-2.25657">
        <ele>10</ele>
        <time>2021-05-23T12:31:32.982Z</time>
      </trkpt>
      <trkpt lat="47.25095" lon="-2.25654">
        <ele>10</ele>
        <time>2021-05-23T12:31:33.982Z</time>
      </trkpt>
      <trkpt lat="47.25096" lon="-2.25651">
        <ele>10</ele>
        <time>2021-05-23T12:31:34.982Z</time>
      </trkpt>
      <trkpt lat="47.25097" lon="-2.25649">
        <ele>10</ele>
        <time>2021-05-23T12:31:35.982Z</time>
      </trkpt>
      <trkpt lat="47.25097" lon="-2.25645">
        <ele>10</ele>
        <time>2021-05-23T12:31:36.982Z</time>
      </trkpt>
      <trkpt lat="47.25098" lon="-2.25642">
        <ele>10</ele>
        <time>2021-05-23T12:31:37.982Z</time>
      </trkpt>
      <trkpt lat="47.25099" lon="-2.25639">
        <ele>10</ele>
        <time>2021-05-23T12:31:38.982Z</time>
      </trkpt>
      <trkpt lat="47.25099" lon="-2.25635">
        <ele>11</ele>
        <time>2021-05-23T12:31:39.982Z</time>
      </trkpt>
      <trkpt lat="47.25099" lon="-2.25633">
        <ele>11</ele>
        <time>2021-05-23T12:31:40.982Z</time>
      </trkpt>
      <trkpt lat="47.251" lon="-2.2563">
        <ele>11</ele>
        <time>2021-05-23T12:31:41.982Z</time>
      </trkpt>
      <trkpt lat="47.25101" lon="-2.25627">
        <ele>11</ele>
        <time>2021-05-23T12:31:42.982Z</time>
      </trkpt>
      <trkpt lat="47.25101" lon="-2.25624">
        <ele>11</ele>
        <time>2021-05-23T12:31:43.982Z</time>
      </trkpt>
      <trkpt lat="47.25101" lon="-2.25622">
        <ele>10</ele>
        <time>2021-05-23T12:31:44.983Z</time>
      </trkpt>
      <trkpt lat="47.25101" lon="-2.2562">
        <ele>9</ele>
        <time>2021-05-23T12:31:45.982Z</time>
      </trkpt>
      <trkpt lat="47.25101" lon="-2.25618">
        <ele>9</ele>
        <time>2021-05-23T12:31:46.982Z</time>
      </trkpt>
      <trkpt lat="47.25101" lon="-2.25617">
        <ele>8</ele>
        <time>2021-05-23T12:31:47.982Z</time>
      </trkpt>
      <trkpt lat="47.25101" lon="-2.25616">
        <ele>8</ele>
        <time>2021-05-23T12:31:48.983Z</time>
      </trkpt>
      <trkpt lat="47.25102" lon="-2.25616">
        <ele>7</ele>
        <time>2021-05-23T12:31:49.983Z</time>
      </trkpt>
      <trkpt lat="47.25102" lon="-2.25615">
        <ele>7</ele>
        <time>2021-05-23T12:31:50.982Z</time>
      </trkpt>
      <trkpt lat="47.25102" lon="-2.25615">
        <ele>7</ele>
        <time>2021-05-23T12:31:51.982Z</time>
      </trkpt>
      <trkpt lat="47.25102" lon="-2.25616">
        <ele>6</ele>
        <time>2021-05-23T12:31:52.982Z</time>
      </trkpt>
      <trkpt lat="47.25102" lon="-2.25616">
        <ele>6</ele>
        <time>2021-05-23T12:31:53.982Z</time>
      </trkpt>
      <trkpt lat="47.25103" lon="-2.25616">
        <ele>6</ele>
        <time>2021-05-23T12:31:54.982Z</time>
      </trkpt>
      <trkpt lat="47.25103" lon="-2.25616">
        <ele>5</ele>
        <time>2021-05-23T12:31:55.982Z</time>
      </trkpt>
      <trkpt lat="47.25103" lon="-2.25615">
        <ele>6</ele>
        <time>2021-05-23T12:31:56.982Z</time>
      </trkpt>
      <trkpt lat="47.25104" lon="-2.25614">
        <ele>6</ele>
        <time>2021-05-23T12:31:57.982Z</time>
      </trkpt>
      <trkpt lat="47.25105" lon="-2.25612">
        <ele>6</ele>
        <time>2021-05-23T12:31:58.983Z</time>
      </trkpt>
      <trkpt lat="47.25105" lon="-2.25611">
        <ele>6</ele>
        <time>2021-05-23T12:31:59.982Z</time>
      </trkpt>
      <trkpt lat="47.25106" lon="-2.25609">
        <ele>6</ele>
        <time>2021-05-23T12:32:00.982Z</time>
      </trkpt>
      <trkpt lat="47.25106" lon="-2.25607">
        <ele>6</ele>
        <time>2021-05-23T12:32:01.982Z</time>
      </trkpt>
      <trkpt lat="47.25106" lon="-2.25606">
        <ele>6</ele>
        <time>2021-05-23T12:32:02.982Z</time>
      </trkpt>
      <trkpt lat="47.25107" lon="-2.25605">
        <ele>6</ele>
        <time>2021-05-23T12:32:03.983Z</time>
      </trkpt>
      <trkpt lat="47.25108" lon="-2.25604">
        <ele>6</ele>
        <time>2021-05-23T12:32:04.982Z</time>
      </trkpt>
      <trkpt lat="47.25109" lon="-2.25603">
        <ele>5</ele>
        <time>2021-05-23T12:32:05.982Z</time>
      </trkpt>
      <trkpt lat="47.25109" lon="-2.25602">
        <ele>5</ele>
        <time>2021-05-23T12:32:06.982Z</time>
      </trkpt>
      <trkpt lat="47.2511" lon="-2.25602">
        <ele>5</ele>
        <time>2021-05-23T12:32:07.982Z</time>
      </trkpt>
      <trkpt lat="47.25111" lon="-2.25602">
        <ele>5</ele>
        <time>2021-05-23T12:32:08.982Z</time>
      </trkpt>
      <trkpt lat="47.25112" lon="-2.25602">
        <ele>4</ele>
        <time>2021-05-23T12:32:09.982Z</time>
      </trkpt>
      <trkpt lat="47.25112" lon="-2.25601">
        <ele>4</ele>
        <time>2021-05-23T12:32:10.982Z</time>
      </trkpt>
      <trkpt lat="47.25112" lon="-2.25601">
        <ele>4</ele>
        <time>2021-05-23T12:32:11.982Z</time>
      </trkpt>
      <trkpt lat="47.25112" lon="-2.256">
        <ele>5</ele>
        <time>2021-05-23T12:32:12.983Z</time>
      </trkpt>
      <trkpt lat="47.25112" lon="-2.25599">
        <ele>5</ele>
        <time>2021-05-23T12:32:13.982Z</time>
      </trkpt>
      <trkpt lat="47.25111" lon="-2.25597">
        <ele>5</ele>
        <time>2021-05-23T12:32:14.982Z</time>
      </trkpt>
      <trkpt lat="47.2511" lon="-2.25596">
        <ele>6</ele>
        <time>2021-05-23T12:32:15.982Z</time>
      </trkpt>
      <trkpt lat="47.2511" lon="-2.25596">
        <ele>6</ele>
        <time>2021-05-23T12:32:16.982Z</time>
      </trkpt>
      <trkpt lat="47.2511" lon="-2.25596">
        <ele>6</ele>
        <time>2021-05-23T12:32:17.982Z</time>
      </trkpt>
      <trkpt lat="47.25109" lon="-2.25596">
        <ele>6</ele>
        <time>2021-05-23T12:32:18.983Z</time>
      </trkpt>
      <trkpt lat="47.25108" lon="-2.25596">
        <ele>5</ele>
        <time>2021-05-23T12:32:19.982Z</time>
      </trkpt>
      <trkpt lat="47.25107" lon="-2.25596">
        <ele>5</ele>
        <time>2021-05-23T12:32:20.982Z</time>
      </trkpt>
      <trkpt lat="47.25107" lon="-2.25596">
        <ele>5</ele>
        <time>2021-05-23T12:32:21.982Z</time>
      </trkpt>
      <trkpt lat="47.25107" lon="-2.25596">
        <ele>6</ele>
        <time>2021-05-23T12:32:22.982Z</time>
      </trkpt>
      <trkpt lat="47.25107" lon="-2.25596">
        <ele>5</ele>
        <time>2021-05-23T12:32:23.982Z</time>
      </trkpt>
      <trkpt lat="47.25107" lon="-2.25597">
        <ele>5</ele>
        <time>2021-05-23T12:32:24.982Z</time>
      </trkpt>
      <trkpt lat="47.25106" lon="-2.25597">
        <ele>5</ele>
        <time>2021-05-23T12:32:25.982Z</time>
      </trkpt>
      <trkpt lat="47.25106" lon="-2.25597">
        <ele>5</ele>
        <time>2021-05-23T12:32:26.982Z</time>
      </trkpt>
      <trkpt lat="47.25106" lon="-2.25597">
        <ele>5</ele>
        <time>2021-05-23T12:32:27.983Z</time>
      </trkpt>
      <trkpt lat="47.25106" lon="-2.25597">
        <ele>4</ele>
        <time>2021-05-23T12:32:28.982Z</time>
      </trkpt>
      <trkpt lat="47.25106" lon="-2.25597">
        <ele>4</ele>
        <time>2021-05-23T12:32:29.982Z</time>
      </trkpt>
      <trkpt lat="47.25106" lon="-2.25597">
        <ele>4</ele>
        <time>2021-05-23T12:32:30.982Z</time>
      </trkpt>
      <trkpt lat="47.25106" lon="-2.25597">
        <ele>4</ele>
        <time>2021-05-23T12:32:31.982Z</time>
      </trkpt>
      <trkpt lat="47.25106" lon="-2.25597">
        <ele>4</ele>
        <time>2021-05-23T12:32:32.982Z</time>
      </trkpt>
      <trkpt lat="47.25106" lon="-2.25597">
        <ele>4</ele>
        <time>2021-05-23T12:32:33.982Z</time>
      </trkpt>
      <trkpt lat="47.25106" lon="-2.25597">
        <ele>4</ele>
        <time>2021-05-23T12:32:34.982Z</time>
      </trkpt>
      <trkpt lat="47.25106" lon="-2.25597">
        <ele>4</ele>
        <time>2021-05-23T12:32:35.982Z</time>
      </trkpt>
      <trkpt lat="47.25106" lon="-2.25597">
        <ele>4</ele>
        <time>2021-05-23T12:32:36.982Z</time>
      </trkpt>
      <trkpt lat="47.25106" lon="-2.25597">
        <ele>4</ele>
        <time>2021-05-23T12:32:37.982Z</time>
      </trkpt>
      <trkpt lat="47.25106" lon="-2.25597">
        <ele>4</ele>
        <time>2021-05-23T12:32:38.983Z</time>
      </trkpt>
      <trkpt lat="47.25106" lon="-2.25597">
        <ele>4</ele>
        <time>2021-05-23T12:32:39.983Z</time>
      </trkpt>
      <trkpt lat="47.25106" lon="-2.25597">
        <ele>4</ele>
        <time>2021-05-23T12:32:40.983Z</time>
      </trkpt>
      <trkpt lat="47.25105" lon="-2.25597">
        <ele>3</ele>
        <time>2021-05-23T12:32:41.982Z</time>
      </trkpt>
      <trkpt lat="47.25105" lon="-2.25597">
        <ele>3</ele>
        <time>2021-05-23T12:32:42.983Z</time>
      </trkpt>
      <trkpt lat="47.25105" lon="-2.25597">
        <ele>3</ele>
        <time>2021-05-23T12:32:43.983Z</time>
      </trkpt>
      <trkpt lat="47.25105" lon="-2.25597">
        <ele>3</ele>
        <time>2021-05-23T12:32:44.983Z</time>
      </trkpt>
      <trkpt lat="47.25105" lon="-2.25597">
        <ele>3</ele>
        <time>2021-05-23T12:32:45.983Z</time>
      </trkpt>
      <trkpt lat="47.25104" lon="-2.25598">
        <ele>3</ele>
        <time>2021-05-23T12:32:46.982Z</time>
      </trkpt>
      <trkpt lat="47.25104" lon="-2.25598">
        <ele>3</ele>
        <time>2021-05-23T12:32:47.982Z</time>
      </trkpt>
      <trkpt lat="47.25104" lon="-2.25598">
        <ele>3</ele>
        <time>2021-05-23T12:32:48.983Z</time>
      </trkpt>
      <trkpt lat="47.25104" lon="-2.25598">
        <ele>3</ele>
        <time>2021-05-23T12:32:49.983Z</time>
      </trkpt>
      <trkpt lat="47.25104" lon="-2.25598">
        <ele>3</ele>
        <time>2021-05-23T12:32:50.983Z</time>
      </trkpt>
      <trkpt lat="47.25104" lon="-2.25598">
        <ele>3</ele>
        <time>2021-05-23T12:32:51.983Z</time>
      </trkpt>
      <trkpt lat="47.25104" lon="-2.25598">
        <ele>3</ele>
        <time>2021-05-23T12:32:52.982Z</time>
      </trkpt>
      <trkpt lat="47.25104" lon="-2.25598">
        <ele>3</ele>
        <time>2021-05-23T12:32:53.982Z</time>
      </trkpt>
      <trkpt lat="47.25104" lon="-2.25598">
        <ele>3</ele>
        <time>2021-05-23T12:32:54.983Z</time>
      </trkpt>
      <trkpt lat="47.25105" lon="-2.25598">
        <ele>3</ele>
        <time>2021-05-23T12:32:55.983Z</time>
      </trkpt>
      <trkpt lat="47.25106" lon="-2.25597">
        <ele>3</ele>
        <time>2021-05-23T12:32:56.982Z</time>
      </trkpt>
      <trkpt lat="47.25108" lon="-2.25597">
        <ele>3</ele>
        <time>2021-05-23T12:32:57.982Z</time>
      </trkpt>
      <trkpt lat="47.25109" lon="-2.25597">
        <ele>3</ele>
        <time>2021-05-23T12:32:58.982Z</time>
      </trkpt>
      <trkpt lat="47.2511" lon="-2.25597">
        <ele>3</ele>
        <time>2021-05-23T12:32:59.982Z</time>
      </trkpt>
      <trkpt lat="47.25111" lon="-2.25597">
        <ele>3</ele>
        <time>2021-05-23T12:33:00.982Z</time>
      </trkpt>
      <trkpt lat="47.25112" lon="-2.25597">
        <ele>3</ele>
        <time>2021-05-23T12:33:01.982Z</time>
      </trkpt>
      <trkpt lat="47.25114" lon="-2.25598">
        <ele>3</ele>
        <time>2021-05-23T12:33:02.982Z</time>
      </trkpt>
      <trkpt lat="47.25114" lon="-2.25598">
        <ele>4</ele>
        <time>2021-05-23T12:33:03.983Z</time>
      </trkpt>
      <trkpt lat="47.25115" lon="-2.25598">
        <ele>4</ele>
        <time>2021-05-23T12:33:04.983Z</time>
      </trkpt>
      <trkpt lat="47.25115" lon="-2.25597">
        <ele>4</ele>
        <time>2021-05-23T12:33:05.983Z</time>
      </trkpt>
      <trkpt lat="47.25115" lon="-2.25597">
        <ele>4</ele>
        <time>2021-05-23T12:33:06.982Z</time>
      </trkpt>
      <trkpt lat="47.25116" lon="-2.25597">
        <ele>4</ele>
        <time>2021-05-23T12:33:07.982Z</time>
      </trkpt>
      <trkpt lat="47.25116" lon="-2.25597">
        <ele>4</ele>
        <time>2021-05-23T12:33:08.983Z</time>
      </trkpt>
      <trkpt lat="47.25117" lon="-2.25597">
        <ele>5</ele>
        <time>2021-05-23T12:33:09.982Z</time>
      </trkpt>
      <trkpt lat="47.25119" lon="-2.25597">
        <ele>5</ele>
        <time>2021-05-23T12:33:10.982Z</time>
      </trkpt>
      <trkpt lat="47.2512" lon="-2.25598">
        <ele>5</ele>
        <time>2021-05-23T12:33:11.982Z</time>
      </trkpt>
      <trkpt lat="47.25121" lon="-2.25598">
        <ele>5</ele>
        <time>2021-05-23T12:33:12.983Z</time>
      </trkpt>
      <trkpt lat="47.25121" lon="-2.25598">
        <ele>5</ele>
        <time>2021-05-23T12:33:13.983Z</time>
      </trkpt>
      <trkpt lat="47.25121" lon="-2.25599">
        <ele>6</ele>
        <time>2021-05-23T12:33:14.983Z</time>
      </trkpt>
      <trkpt lat="47.25122" lon="-2.256">
        <ele>6</ele>
        <time>2021-05-23T12:33:15.983Z</time>
      </trkpt>
      <trkpt lat="47.25122" lon="-2.256">
        <ele>7</ele>
        <time>2021-05-23T12:33:16.982Z</time>
      </trkpt>
      <trkpt lat="47.25123" lon="-2.25601">
        <ele>8</ele>
        <time>2021-05-23T12:33:17.983Z</time>
      </trkpt>
      <trkpt lat="47.25123" lon="-2.25601">
        <ele>8</ele>
        <time>2021-05-23T12:33:18.983Z</time>
      </trkpt>
      <trkpt lat="47.25124" lon="-2.25602">
        <ele>9</ele>
        <time>2021-05-23T12:33:19.983Z</time>
      </trkpt>
      <trkpt lat="47.25124" lon="-2.25602">
        <ele>9</ele>
        <time>2021-05-23T12:33:20.983Z</time>
      </trkpt>
      <trkpt lat="47.25125" lon="-2.25602">
        <ele>10</ele>
        <time>2021-05-23T12:33:21.982Z</time>
      </trkpt>
      <trkpt lat="47.25127" lon="-2.25602">
        <ele>10</ele>
        <time>2021-05-23T12:33:22.983Z</time>
      </trkpt>
      <trkpt lat="47.25127" lon="-2.256">
        <ele>10</ele>
        <time>2021-05-23T12:33:23.982Z</time>
      </trkpt>
      <trkpt lat="47.25127" lon="-2.25599">
        <ele>10</ele>
        <time>2021-05-23T12:33:24.982Z</time>
      </trkpt>
      <trkpt lat="47.25127" lon="-2.25596">
        <ele>11</ele>
        <time>2021-05-23T12:33:25.982Z</time>
      </trkpt>
      <trkpt lat="47.25127" lon="-2.25594">
        <ele>11</ele>
        <time>2021-05-23T12:33:26.982Z</time>
      </trkpt>
      <trkpt lat="47.25127" lon="-2.25593">
        <ele>11</ele>
        <time>2021-05-23T12:33:27.982Z</time>
      </trkpt>
      <trkpt lat="47.25127" lon="-2.25592">
        <ele>11</ele>
        <time>2021-05-23T12:33:28.982Z</time>
      </trkpt>
      <trkpt lat="47.25128" lon="-2.25591">
        <ele>11</ele>
        <time>2021-05-23T12:33:29.982Z</time>
      </trkpt>
      <trkpt lat="47.25128" lon="-2.2559">
        <ele>10</ele>
        <time>2021-05-23T12:33:30.983Z</time>
      </trkpt>
      <trkpt lat="47.25129" lon="-2.25589">
        <ele>10</ele>
        <time>2021-05-23T12:33:31.982Z</time>
      </trkpt>
      <trkpt lat="47.2513" lon="-2.25588">
        <ele>11</ele>
        <time>2021-05-23T12:33:32.982Z</time>
      </trkpt>
      <trkpt lat="47.2513" lon="-2.25587">
        <ele>10</ele>
        <time>2021-05-23T12:33:33.982Z</time>
      </trkpt>
      <trkpt lat="47.25131" lon="-2.25586">
        <ele>10</ele>
        <time>2021-05-23T12:33:34.982Z</time>
      </trkpt>
      <trkpt lat="47.25132" lon="-2.25585">
        <ele>10</ele>
        <time>2021-05-23T12:33:35.982Z</time>
      </trkpt>
      <trkpt lat="47.25132" lon="-2.25584">
        <ele>10</ele>
        <time>2021-05-23T12:33:36.982Z</time>
      </trkpt>
      <trkpt lat="47.25133" lon="-2.25583">
        <ele>10</ele>
        <time>2021-05-23T12:33:37.982Z</time>
      </trkpt>
      <trkpt lat="47.25133" lon="-2.25582">
        <ele>10</ele>
        <time>2021-05-23T12:33:38.982Z</time>
      </trkpt>
      <trkpt lat="47.25134" lon="-2.25581">
        <ele>10</ele>
        <time>2021-05-23T12:33:39.982Z</time>
      </trkpt>
      <trkpt lat="47.25134" lon="-2.2558">
        <ele>10</ele>
        <time>2021-05-23T12:33:40.982Z</time>
      </trkpt>
      <trkpt lat="47.25135" lon="-2.2558">
        <ele>11</ele>
        <time>2021-05-23T12:33:41.982Z</time>
      </trkpt>
      <trkpt lat="47.25136" lon="-2.25579">
        <ele>11</ele>
        <time>2021-05-23T12:33:42.982Z</time>
      </trkpt>
      <trkpt lat="47.25136" lon="-2.25578">
        <ele>11</ele>
        <time>2021-05-23T12:33:43.982Z</time>
      </trkpt>
      <trkpt lat="47.25137" lon="-2.25577">
        <ele>11</ele>
        <time>2021-05-23T12:33:44.982Z</time>
      </trkpt>
      <trkpt lat="47.25137" lon="-2.25575">
        <ele>12</ele>
        <time>2021-05-23T12:33:45.983Z</time>
      </trkpt>
      <trkpt lat="47.25136" lon="-2.25575">
        <ele>13</ele>
        <time>2021-05-23T12:33:46.983Z</time>
      </trkpt>
      <trkpt lat="47.25137" lon="-2.25574">
        <ele>13</ele>
        <time>2021-05-23T12:33:47.982Z</time>
      </trkpt>
      <trkpt lat="47.25138" lon="-2.25575">
        <ele>14</ele>
        <time>2021-05-23T12:33:48.983Z</time>
      </trkpt>
      <trkpt lat="47.25139" lon="-2.25575">
        <ele>14</ele>
        <time>2021-05-23T12:33:49.982Z</time>
      </trkpt>
      <trkpt lat="47.2514" lon="-2.25576">
        <ele>14</ele>
        <time>2021-05-23T12:33:50.982Z</time>
      </trkpt>
      <trkpt lat="47.25141" lon="-2.25577">
        <ele>14</ele>
        <time>2021-05-23T12:33:51.982Z</time>
      </trkpt>
      <trkpt lat="47.25141" lon="-2.25577">
        <ele>15</ele>
        <time>2021-05-23T12:33:52.982Z</time>
      </trkpt>
      <trkpt lat="47.25142" lon="-2.25576">
        <ele>15</ele>
        <time>2021-05-23T12:33:53.982Z</time>
      </trkpt>
      <trkpt lat="47.25142" lon="-2.25576">
        <ele>15</ele>
        <time>2021-05-23T12:33:54.982Z</time>
      </trkpt>
      <trkpt lat="47.25143" lon="-2.25575">
        <ele>15</ele>
        <time>2021-05-23T12:33:55.982Z</time>
      </trkpt>
      <trkpt lat="47.25144" lon="-2.25574">
        <ele>15</ele>
        <time>2021-05-23T12:33:56.982Z</time>
      </trkpt>
      <trkpt lat="47.25144" lon="-2.25574">
        <ele>15</ele>
        <time>2021-05-23T12:33:57.983Z</time>
      </trkpt>
      <trkpt lat="47.25144" lon="-2.25573">
        <ele>15</ele>
        <time>2021-05-23T12:33:58.982Z</time>
      </trkpt>
      <trkpt lat="47.25145" lon="-2.25571">
        <ele>15</ele>
        <time>2021-05-23T12:33:59.982Z</time>
      </trkpt>
      <trkpt lat="47.25146" lon="-2.2557">
        <ele>16</ele>
        <time>2021-05-23T12:34:00.982Z</time>
      </trkpt>
      <trkpt lat="47.25146" lon="-2.25568">
        <ele>16</ele>
        <time>2021-05-23T12:34:01.982Z</time>
      </trkpt>
      <trkpt lat="47.25147" lon="-2.25567">
        <ele>16</ele>
        <time>2021-05-23T12:34:02.982Z</time>
      </trkpt>
      <trkpt lat="47.25148" lon="-2.25565">
        <ele>16</ele>
        <time>2021-05-23T12:34:03.983Z</time>
      </trkpt>
      <trkpt lat="47.25149" lon="-2.25563">
        <ele>17</ele>
        <time>2021-05-23T12:34:04.982Z</time>
      </trkpt>
      <trkpt lat="47.25149" lon="-2.25561">
        <ele>17</ele>
        <time>2021-05-23T12:34:05.982Z</time>
      </trkpt>
      <trkpt lat="47.2515" lon="-2.25559">
        <ele>17</ele>
        <time>2021-05-23T12:34:06.982Z</time>
      </trkpt>
      <trkpt lat="47.25151" lon="-2.25558">
        <ele>18</ele>
        <time>2021-05-23T12:34:07.982Z</time>
      </trkpt>
      <trkpt lat="47.25151" lon="-2.25556">
        <ele>18</ele>
        <time>2021-05-23T12:34:08.982Z</time>
      </trkpt>
      <trkpt lat="47.25152" lon="-2.25554">
        <ele>18</ele>
        <time>2021-05-23T12:34:09.982Z</time>
      </trkpt>
      <trkpt lat="47.25151" lon="-2.25552">
        <ele>19</ele>
        <time>2021-05-23T12:34:10.982Z</time>
      </trkpt>
      <trkpt lat="47.25152" lon="-2.25551">
        <ele>19</ele>
        <time>2021-05-23T12:34:11.983Z</time>
      </trkpt>
      <trkpt lat="47.25153" lon="-2.2555">
        <ele>19</ele>
        <time>2021-05-23T12:34:12.982Z</time>
      </trkpt>
      <trkpt lat="47.25154" lon="-2.25549">
        <ele>19</ele>
        <time>2021-05-23T12:34:13.983Z</time>
      </trkpt>
      <trkpt lat="47.25155" lon="-2.25548">
        <ele>19</ele>
        <time>2021-05-23T12:34:14.982Z</time>
      </trkpt>
      <trkpt lat="47.25155" lon="-2.25547">
        <ele>19</ele>
        <time>2021-05-23T12:34:15.982Z</time>
      </trkpt>
      <trkpt lat="47.25156" lon="-2.25546">
        <ele>19</ele>
        <time>2021-05-23T12:34:16.982Z</time>
      </trkpt>
      <trkpt lat="47.25156" lon="-2.25544">
        <ele>19</ele>
        <time>2021-05-23T12:34:17.982Z</time>
      </trkpt>
      <trkpt lat="47.25157" lon="-2.25543">
        <ele>19</ele>
        <time>2021-05-23T12:34:18.982Z</time>
      </trkpt>
      <trkpt lat="47.25157" lon="-2.25541">
        <ele>19</ele>
        <time>2021-05-23T12:34:19.982Z</time>
      </trkpt>
      <trkpt lat="47.25157" lon="-2.2554">
        <ele>19</ele>
        <time>2021-05-23T12:34:20.982Z</time>
      </trkpt>
      <trkpt lat="47.25157" lon="-2.25538">
        <ele>18</ele>
        <time>2021-05-23T12:34:21.982Z</time>
      </trkpt>
      <trkpt lat="47.25156" lon="-2.25537">
        <ele>18</ele>
        <time>2021-05-23T12:34:22.982Z</time>
      </trkpt>
      <trkpt lat="47.25156" lon="-2.25536">
        <ele>19</ele>
        <time>2021-05-23T12:34:23.983Z</time>
      </trkpt>
      <trkpt lat="47.25157" lon="-2.25534">
        <ele>19</ele>
        <time>2021-05-23T12:34:24.982Z</time>
      </trkpt>
      <trkpt lat="47.25158" lon="-2.25531">
        <ele>19</ele>
        <time>2021-05-23T12:34:25.982Z</time>
      </trkpt>
      <trkpt lat="47.25159" lon="-2.25529">
        <ele>19</ele>
        <time>2021-05-23T12:34:26.982Z</time>
      </trkpt>
      <trkpt lat="47.2516" lon="-2.25526">
        <ele>19</ele>
        <time>2021-05-23T12:34:27.982Z</time>
      </trkpt>
      <trkpt lat="47.25161" lon="-2.25524">
        <ele>20</ele>
        <time>2021-05-23T12:34:28.982Z</time>
      </trkpt>
      <trkpt lat="47.25162" lon="-2.25522">
        <ele>20</ele>
        <time>2021-05-23T12:34:29.982Z</time>
      </trkpt>
      <trkpt lat="47.25164" lon="-2.25519">
        <ele>20</ele>
        <time>2021-05-23T12:34:30.982Z</time>
      </trkpt>
      <trkpt lat="47.25165" lon="-2.25517">
        <ele>20</ele>
        <time>2021-05-23T12:34:31.982Z</time>
      </trkpt>
      <trkpt lat="47.25166" lon="-2.25515">
        <ele>20</ele>
        <time>2021-05-23T12:34:32.982Z</time>
      </trkpt>
      <trkpt lat="47.25166" lon="-2.25513">
        <ele>20</ele>
        <time>2021-05-23T12:34:33.982Z</time>
      </trkpt>
      <trkpt lat="47.25167" lon="-2.25512">
        <ele>20</ele>
        <time>2021-05-23T12:34:34.983Z</time>
      </trkpt>
      <trkpt lat="47.25169" lon="-2.25512">
        <ele>20</ele>
        <time>2021-05-23T12:34:35.982Z</time>
      </trkpt>
      <trkpt lat="47.2517" lon="-2.25511">
        <ele>20</ele>
        <time>2021-05-23T12:34:36.982Z</time>
      </trkpt>
      <trkpt lat="47.25171" lon="-2.25511">
        <ele>20</ele>
        <time>2021-05-23T12:34:37.982Z</time>
      </trkpt>
      <trkpt lat="47.25173" lon="-2.25511">
        <ele>19</ele>
        <time>2021-05-23T12:34:38.982Z</time>
      </trkpt>
      <trkpt lat="47.25174" lon="-2.25511">
        <ele>19</ele>
        <time>2021-05-23T12:34:39.982Z</time>
      </trkpt>
      <trkpt lat="47.25176" lon="-2.25511">
        <ele>18</ele>
        <time>2021-05-23T12:34:40.983Z</time>
      </trkpt>
      <trkpt lat="47.25177" lon="-2.25512">
        <ele>18</ele>
        <time>2021-05-23T12:34:41.982Z</time>
      </trkpt>
      <trkpt lat="47.25179" lon="-2.25512">
        <ele>18</ele>
        <time>2021-05-23T12:34:42.982Z</time>
      </trkpt>
      <trkpt lat="47.2518" lon="-2.25513">
        <ele>17</ele>
        <time>2021-05-23T12:34:43.983Z</time>
      </trkpt>
      <trkpt lat="47.25181" lon="-2.25514">
        <ele>17</ele>
        <time>2021-05-23T12:34:44.983Z</time>
      </trkpt>
      <trkpt lat="47.25182" lon="-2.25514">
        <ele>17</ele>
        <time>2021-05-23T12:34:45.983Z</time>
      </trkpt>
      <trkpt lat="47.25183" lon="-2.25515">
        <ele>16</ele>
        <time>2021-05-23T12:34:46.983Z</time>
      </trkpt>
      <trkpt lat="47.25183" lon="-2.25515">
        <ele>16</ele>
        <time>2021-05-23T12:34:47.982Z</time>
      </trkpt>
      <trkpt lat="47.25184" lon="-2.25516">
        <ele>16</ele>
        <time>2021-05-23T12:34:48.983Z</time>
      </trkpt>
      <trkpt lat="47.25185" lon="-2.25516">
        <ele>16</ele>
        <time>2021-05-23T12:34:49.983Z</time>
      </trkpt>
      <trkpt lat="47.25185" lon="-2.25517">
        <ele>16</ele>
        <time>2021-05-23T12:34:50.983Z</time>
      </trkpt>
      <trkpt lat="47.25186" lon="-2.25518">
        <ele>16</ele>
        <time>2021-05-23T12:34:51.983Z</time>
      </trkpt>
      <trkpt lat="47.25188" lon="-2.25518">
        <ele>16</ele>
        <time>2021-05-23T12:34:52.982Z</time>
      </trkpt>
      <trkpt lat="47.2519" lon="-2.25518">
        <ele>16</ele>
        <time>2021-05-23T12:34:53.982Z</time>
      </trkpt>
      <trkpt lat="47.25192" lon="-2.25519">
        <ele>15</ele>
        <time>2021-05-23T12:34:54.982Z</time>
      </trkpt>
      <trkpt lat="47.25193" lon="-2.25519">
        <ele>15</ele>
        <time>2021-05-23T12:34:55.982Z</time>
      </trkpt>
      <trkpt lat="47.25195" lon="-2.25519">
        <ele>14</ele>
        <time>2021-05-23T12:34:56.982Z</time>
      </trkpt>
      <trkpt lat="47.25197" lon="-2.25518">
        <ele>14</ele>
        <time>2021-05-23T12:34:57.982Z</time>
      </trkpt>
      <trkpt lat="47.25198" lon="-2.25518">
        <ele>13</ele>
        <time>2021-05-23T12:34:58.983Z</time>
      </trkpt>
      <trkpt lat="47.25199" lon="-2.25517">
        <ele>13</ele>
        <time>2021-05-23T12:34:59.982Z</time>
      </trkpt>
      <trkpt lat="47.25201" lon="-2.25516">
        <ele>13</ele>
        <time>2021-05-23T12:35:00.983Z</time>
      </trkpt>
      <trkpt lat="47.25202" lon="-2.25515">
        <ele>13</ele>
        <time>2021-05-23T12:35:01.982Z</time>
      </trkpt>
      <trkpt lat="47.25204" lon="-2.25513">
        <ele>14</ele>
        <time>2021-05-23T12:35:02.982Z</time>
      </trkpt>
      <trkpt lat="47.25205" lon="-2.25511">
        <ele>14</ele>
        <time>2021-05-23T12:35:03.983Z</time>
      </trkpt>
      <trkpt lat="47.25204" lon="-2.2551">
        <ele>14</ele>
        <time>2021-05-23T12:35:04.982Z</time>
      </trkpt>
      <trkpt lat="47.25205" lon="-2.25508">
        <ele>14</ele>
        <time>2021-05-23T12:35:05.982Z</time>
      </trkpt>
      <trkpt lat="47.25205" lon="-2.25506">
        <ele>15</ele>
        <time>2021-05-23T12:35:06.982Z</time>
      </trkpt>
      <trkpt lat="47.25206" lon="-2.25503">
        <ele>15</ele>
        <time>2021-05-23T12:35:07.983Z</time>
      </trkpt>
      <trkpt lat="47.25207" lon="-2.25501">
        <ele>15</ele>
        <time>2021-05-23T12:35:08.982Z</time>
      </trkpt>
      <trkpt lat="47.25208" lon="-2.25498">
        <ele>15</ele>
        <time>2021-05-23T12:35:09.983Z</time>
      </trkpt>
      <trkpt lat="47.25209" lon="-2.25496">
        <ele>16</ele>
        <time>2021-05-23T12:35:10.982Z</time>
      </trkpt>
      <trkpt lat="47.2521" lon="-2.25494">
        <ele>16</ele>
        <time>2021-05-23T12:35:11.982Z</time>
      </trkpt>
      <trkpt lat="47.25211" lon="-2.25492">
        <ele>16</ele>
        <time>2021-05-23T12:35:12.983Z</time>
      </trkpt>
      <trkpt lat="47.25212" lon="-2.2549">
        <ele>16</ele>
        <time>2021-05-23T12:35:13.982Z</time>
      </trkpt>
      <trkpt lat="47.25213" lon="-2.25489">
        <ele>16</ele>
        <time>2021-05-23T12:35:14.983Z</time>
      </trkpt>
      <trkpt lat="47.25214" lon="-2.25487">
        <ele>16</ele>
        <time>2021-05-23T12:35:15.982Z</time>
      </trkpt>
      <trkpt lat="47.25216" lon="-2.25485">
        <ele>16</ele>
        <time>2021-05-23T12:35:16.982Z</time>
      </trkpt>
      <trkpt lat="47.25219" lon="-2.25482">
        <ele>15</ele>
        <time>2021-05-23T12:35:17.983Z</time>
      </trkpt>
      <trkpt lat="47.25222" lon="-2.2548">
        <ele>15</ele>
        <time>2021-05-23T12:35:18.982Z</time>
      </trkpt>
      <trkpt lat="47.25224" lon="-2.25477">
        <ele>15</ele>
        <time>2021-05-23T12:35:19.982Z</time>
      </trkpt>
      <trkpt lat="47.25226" lon="-2.25475">
        <ele>14</ele>
        <time>2021-05-23T12:35:20.982Z</time>
      </trkpt>
      <trkpt lat="47.25227" lon="-2.25473">
        <ele>14</ele>
        <time>2021-05-23T12:35:21.982Z</time>
      </trkpt>
      <trkpt lat="47.25229" lon="-2.25471">
        <ele>14</ele>
        <time>2021-05-23T12:35:22.982Z</time>
      </trkpt>
      <trkpt lat="47.25231" lon="-2.25468">
        <ele>14</ele>
        <time>2021-05-23T12:35:23.982Z</time>
      </trkpt>
      <trkpt lat="47.25232" lon="-2.25466">
        <ele>14</ele>
        <time>2021-05-23T12:35:24.982Z</time>
      </trkpt>
      <trkpt lat="47.25234" lon="-2.25464">
        <ele>14</ele>
        <time>2021-05-23T12:35:25.982Z</time>
      </trkpt>
      <trkpt lat="47.25236" lon="-2.25461">
        <ele>14</ele>
        <time>2021-05-23T12:35:26.982Z</time>
      </trkpt>
      <trkpt lat="47.25237" lon="-2.25459">
        <ele>14</ele>
        <time>2021-05-23T12:35:27.982Z</time>
      </trkpt>
      <trkpt lat="47.25238" lon="-2.25457">
        <ele>14</ele>
        <time>2021-05-23T12:35:28.982Z</time>
      </trkpt>
      <trkpt lat="47.2524" lon="-2.25455">
        <ele>14</ele>
        <time>2021-05-23T12:35:29.982Z</time>
      </trkpt>
      <trkpt lat="47.25243" lon="-2.25451">
        <ele>13</ele>
        <time>2021-05-23T12:35:30.982Z</time>
      </trkpt>
      <trkpt lat="47.25245" lon="-2.25448">
        <ele>13</ele>
        <time>2021-05-23T12:35:31.982Z</time>
      </trkpt>
      <trkpt lat="47.25246" lon="-2.25445">
        <ele>13</ele>
        <time>2021-05-23T12:35:32.982Z</time>
      </trkpt>
      <trkpt lat="47.25246" lon="-2.25442">
        <ele>13</ele>
        <time>2021-05-23T12:35:33.982Z</time>
      </trkpt>
      <trkpt lat="47.25246" lon="-2.25439">
        <ele>13</ele>
        <time>2021-05-23T12:35:34.982Z</time>
      </trkpt>
      <trkpt lat="47.25246" lon="-2.25435">
        <ele>13</ele>
        <time>2021-05-23T12:35:35.982Z</time>
      </trkpt>
      <trkpt lat="47.25246" lon="-2.25432">
        <ele>13</ele>
        <time>2021-05-23T12:35:36.982Z</time>
      </trkpt>
      <trkpt lat="47.25247" lon="-2.25429">
        <ele>13</ele>
        <time>2021-05-23T12:35:37.982Z</time>
      </trkpt>
      <trkpt lat="47.25247" lon="-2.25426">
        <ele>13</ele>
        <time>2021-05-23T12:35:38.982Z</time>
      </trkpt>
      <trkpt lat="47.25248" lon="-2.25423">
        <ele>13</ele>
        <time>2021-05-23T12:35:39.983Z</time>
      </trkpt>
      <trkpt lat="47.2525" lon="-2.25421">
        <ele>13</ele>
        <time>2021-05-23T12:35:40.982Z</time>
      </trkpt>
      <trkpt lat="47.25251" lon="-2.25419">
        <ele>13</ele>
        <time>2021-05-23T12:35:41.982Z</time>
      </trkpt>
      <trkpt lat="47.25253" lon="-2.25416">
        <ele>13</ele>
        <time>2021-05-23T12:35:42.982Z</time>
      </trkpt>
      <trkpt lat="47.25254" lon="-2.25414">
        <ele>13</ele>
        <time>2021-05-23T12:35:43.983Z</time>
      </trkpt>
      <trkpt lat="47.25255" lon="-2.25412">
        <ele>13</ele>
        <time>2021-05-23T12:35:44.982Z</time>
      </trkpt>
      <trkpt lat="47.25256" lon="-2.25409">
        <ele>12</ele>
        <time>2021-05-23T12:35:45.982Z</time>
      </trkpt>
      <trkpt lat="47.25258" lon="-2.25407">
        <ele>12</ele>
        <time>2021-05-23T12:35:46.982Z</time>
      </trkpt>
      <trkpt lat="47.25259" lon="-2.25406">
        <ele>12</ele>
        <time>2021-05-23T12:35:47.982Z</time>
      </trkpt>
      <trkpt lat="47.25261" lon="-2.25406">
        <ele>12</ele>
        <time>2021-05-23T12:35:48.982Z</time>
      </trkpt>
      <trkpt lat="47.25263" lon="-2.25406">
        <ele>12</ele>
        <time>2021-05-23T12:35:49.983Z</time>
      </trkpt>
      <trkpt lat="47.25264" lon="-2.25406">
        <ele>12</ele>
        <time>2021-05-23T12:35:50.982Z</time>
      </trkpt>
      <trkpt lat="47.25266" lon="-2.25405">
        <ele>12</ele>
        <time>2021-05-23T12:35:51.982Z</time>
      </trkpt>
      <trkpt lat="47.25267" lon="-2.25404">
        <ele>12</ele>
        <time>2021-05-23T12:35:52.983Z</time>
      </trkpt>
      <trkpt lat="47.25269" lon="-2.25403">
        <ele>13</ele>
        <time>2021-05-23T12:35:53.982Z</time>
      </trkpt>
      <trkpt lat="47.25271" lon="-2.25401">
        <ele>13</ele>
        <time>2021-05-23T12:35:54.982Z</time>
      </trkpt>
      <trkpt lat="47.25272" lon="-2.25399">
        <ele>13</ele>
        <time>2021-05-23T12:35:55.982Z</time>
      </trkpt>
      <trkpt lat="47.25274" lon="-2.25396">
        <ele>13</ele>
        <time>2021-05-23T12:35:56.982Z</time>
      </trkpt>
      <trkpt lat="47.25274" lon="-2.25392">
        <ele>14</ele>
        <time>2021-05-23T12:35:57.982Z</time>
      </trkpt>
      <trkpt lat="47.25274" lon="-2.2539">
        <ele>14</ele>
        <time>2021-05-23T12:35:58.982Z</time>
      </trkpt>
      <trkpt lat="47.25274" lon="-2.25387">
        <ele>14</ele>
        <time>2021-05-23T12:35:59.982Z</time>
      </trkpt>
      <trkpt lat="47.25274" lon="-2.25384">
        <ele>14</ele>
        <time>2021-05-23T12:36:00.982Z</time>
      </trkpt>
      <trkpt lat="47.25274" lon="-2.25381">
        <ele>15</ele>
        <time>2021-05-23T12:36:01.982Z</time>
      </trkpt>
      <trkpt lat="47.25274" lon="-2.25378">
        <ele>15</ele>
        <time>2021-05-23T12:36:02.982Z</time>
      </trkpt>
      <trkpt lat="47.25274" lon="-2.25376">
        <ele>15</ele>
        <time>2021-05-23T12:36:03.982Z</time>
      </trkpt>
      <trkpt lat="47.25276" lon="-2.25374">
        <ele>15</ele>
        <time>2021-05-23T12:36:04.982Z</time>
      </trkpt>
      <trkpt lat="47.25277" lon="-2.25372">
        <ele>15</ele>
        <time>2021-05-23T12:36:05.982Z</time>
      </trkpt>
      <trkpt lat="47.25278" lon="-2.25371">
        <ele>16</ele>
        <time>2021-05-23T12:36:06.982Z</time>
      </trkpt>
      <trkpt lat="47.25278" lon="-2.25371">
        <ele>16</ele>
        <time>2021-05-23T12:36:07.983Z</time>
      </trkpt>
      <trkpt lat="47.25279" lon="-2.25371">
        <ele>16</ele>
        <time>2021-05-23T12:36:08.982Z</time>
      </trkpt>
      <trkpt lat="47.25279" lon="-2.25373">
        <ele>16</ele>
        <time>2021-05-23T12:36:09.982Z</time>
      </trkpt>
      <trkpt lat="47.25279" lon="-2.25376">
        <ele>16</ele>
        <time>2021-05-23T12:36:10.982Z</time>
      </trkpt>
      <trkpt lat="47.2528" lon="-2.25378">
        <ele>16</ele>
        <time>2021-05-23T12:36:11.982Z</time>
      </trkpt>
      <trkpt lat="47.25279" lon="-2.2538">
        <ele>16</ele>
        <time>2021-05-23T12:36:12.982Z</time>
      </trkpt>
      <trkpt lat="47.25279" lon="-2.25383">
        <ele>16</ele>
        <time>2021-05-23T12:36:13.982Z</time>
      </trkpt>
      <trkpt lat="47.25279" lon="-2.25384">
        <ele>16</ele>
        <time>2021-05-23T12:36:14.982Z</time>
      </trkpt>
      <trkpt lat="47.25279" lon="-2.25386">
        <ele>16</ele>
        <time>2021-05-23T12:36:15.982Z</time>
      </trkpt>
      <trkpt lat="47.25279" lon="-2.25387">
        <ele>16</ele>
        <time>2021-05-23T12:36:16.982Z</time>
      </trkpt>
      <trkpt lat="47.25279" lon="-2.25388">
        <ele>16</ele>
        <time>2021-05-23T12:36:17.982Z</time>
      </trkpt>
      <trkpt lat="47.2528" lon="-2.25389">
        <ele>16</ele>
        <time>2021-05-23T12:36:18.982Z</time>
      </trkpt>
      <trkpt lat="47.25281" lon="-2.25389">
        <ele>16</ele>
        <time>2021-05-23T12:36:19.983Z</time>
      </trkpt>
      <trkpt lat="47.25282" lon="-2.25391">
        <ele>16</ele>
        <time>2021-05-23T12:36:20.982Z</time>
      </trkpt>
      <trkpt lat="47.25283" lon="-2.25393">
        <ele>15</ele>
        <time>2021-05-23T12:36:21.983Z</time>
      </trkpt>
      <trkpt lat="47.25284" lon="-2.25394">
        <ele>15</ele>
        <time>2021-05-23T12:36:22.983Z</time>
      </trkpt>
      <trkpt lat="47.25285" lon="-2.25395">
        <ele>15</ele>
        <time>2021-05-23T12:36:23.983Z</time>
      </trkpt>
      <trkpt lat="47.25286" lon="-2.25396">
        <ele>15</ele>
        <time>2021-05-23T12:36:24.983Z</time>
      </trkpt>
      <trkpt lat="47.25286" lon="-2.25398">
        <ele>15</ele>
        <time>2021-05-23T12:36:25.982Z</time>
      </trkpt>
      <trkpt lat="47.25286" lon="-2.25399">
        <ele>15</ele>
        <time>2021-05-23T12:36:26.982Z</time>
      </trkpt>
      <trkpt lat="47.25287" lon="-2.25401">
        <ele>15</ele>
        <time>2021-05-23T12:36:27.982Z</time>
      </trkpt>
      <trkpt lat="47.25288" lon="-2.25401">
        <ele>15</ele>
        <time>2021-05-23T12:36:28.983Z</time>
      </trkpt>
      <trkpt lat="47.25289" lon="-2.25402">
        <ele>16</ele>
        <time>2021-05-23T12:36:29.983Z</time>
      </trkpt>
      <trkpt lat="47.2529" lon="-2.25403">
        <ele>16</ele>
        <time>2021-05-23T12:36:30.982Z</time>
      </trkpt>
      <trkpt lat="47.25291" lon="-2.25404">
        <ele>16</ele>
        <time>2021-05-23T12:36:31.983Z</time>
      </trkpt>
      <trkpt lat="47.25293" lon="-2.25404">
        <ele>17</ele>
        <time>2021-05-23T12:36:32.983Z</time>
      </trkpt>
      <trkpt lat="47.25294" lon="-2.25405">
        <ele>17</ele>
        <time>2021-05-23T12:36:33.983Z</time>
      </trkpt>
      <trkpt lat="47.25295" lon="-2.25406">
        <ele>17</ele>
        <time>2021-05-23T12:36:34.983Z</time>
      </trkpt>
      <trkpt lat="47.25296" lon="-2.25407">
        <ele>18</ele>
        <time>2021-05-23T12:36:35.983Z</time>
      </trkpt>
      <trkpt lat="47.25298" lon="-2.25407">
        <ele>18</ele>
        <time>2021-05-23T12:36:36.982Z</time>
      </trkpt>
      <trkpt lat="47.25299" lon="-2.25408">
        <ele>18</ele>
        <time>2021-05-23T12:36:37.982Z</time>
      </trkpt>
      <trkpt lat="47.25301" lon="-2.25409">
        <ele>18</ele>
        <time>2021-05-23T12:36:38.982Z</time>
      </trkpt>
      <trkpt lat="47.25302" lon="-2.2541">
        <ele>19</ele>
        <time>2021-05-23T12:36:39.982Z</time>
      </trkpt>
      <trkpt lat="47.25303" lon="-2.2541">
        <ele>19</ele>
        <time>2021-05-23T12:36:40.982Z</time>
      </trkpt>
      <trkpt lat="47.25304" lon="-2.25411">
        <ele>19</ele>
        <time>2021-05-23T12:36:41.983Z</time>
      </trkpt>
      <trkpt lat="47.25306" lon="-2.25412">
        <ele>19</ele>
        <time>2021-05-23T12:36:42.982Z</time>
      </trkpt>
      <trkpt lat="47.25306" lon="-2.25413">
        <ele>19</ele>
        <time>2021-05-23T12:36:43.982Z</time>
      </trkpt>
      <trkpt lat="47.25307" lon="-2.25415">
        <ele>18</ele>
        <time>2021-05-23T12:36:44.982Z</time>
      </trkpt>
      <trkpt lat="47.25309" lon="-2.25417">
        <ele>18</ele>
        <time>2021-05-23T12:36:45.982Z</time>
      </trkpt>
      <trkpt lat="47.2531" lon="-2.25418">
        <ele>18</ele>
        <time>2021-05-23T12:36:46.982Z</time>
      </trkpt>
      <trkpt lat="47.25311" lon="-2.2542">
        <ele>18</ele>
        <time>2021-05-23T12:36:47.982Z</time>
      </trkpt>
      <trkpt lat="47.25312" lon="-2.25421">
        <ele>17</ele>
        <time>2021-05-23T12:36:48.982Z</time>
      </trkpt>
      <trkpt lat="47.25313" lon="-2.25422">
        <ele>17</ele>
        <time>2021-05-23T12:36:49.983Z</time>
      </trkpt>
      <trkpt lat="47.25314" lon="-2.25423">
        <ele>16</ele>
        <time>2021-05-23T12:36:50.982Z</time>
      </trkpt>
      <trkpt lat="47.25315" lon="-2.25424">
        <ele>16</ele>
        <time>2021-05-23T12:36:51.983Z</time>
      </trkpt>
      <trkpt lat="47.25317" lon="-2.25424">
        <ele>16</ele>
        <time>2021-05-23T12:36:52.982Z</time>
      </trkpt>
      <trkpt lat="47.25319" lon="-2.25424">
        <ele>16</ele>
        <time>2021-05-23T12:36:53.982Z</time>
      </trkpt>
      <trkpt lat="47.25321" lon="-2.25424">
        <ele>16</ele>
        <time>2021-05-23T12:36:54.982Z</time>
      </trkpt>
      <trkpt lat="47.25322" lon="-2.25423">
        <ele>16</ele>
        <time>2021-05-23T12:36:55.982Z</time>
      </trkpt>
      <trkpt lat="47.25323" lon="-2.25422">
        <ele>16</ele>
        <time>2021-05-23T12:36:56.982Z</time>
      </trkpt>
      <trkpt lat="47.25324" lon="-2.25422">
        <ele>16</ele>
        <time>2021-05-23T12:36:57.982Z</time>
      </trkpt>
      <trkpt lat="47.25324" lon="-2.25422">
        <ele>16</ele>
        <time>2021-05-23T12:36:58.983Z</time>
      </trkpt>
      <trkpt lat="47.25325" lon="-2.25421">
        <ele>16</ele>
        <time>2021-05-23T12:36:59.982Z</time>
      </trkpt>
      <trkpt lat="47.25327" lon="-2.25421">
        <ele>17</ele>
        <time>2021-05-23T12:37:00.982Z</time>
      </trkpt>
      <trkpt lat="47.25329" lon="-2.25422">
        <ele>17</ele>
        <time>2021-05-23T12:37:01.982Z</time>
      </trkpt>
      <trkpt lat="47.2533" lon="-2.25422">
        <ele>18</ele>
        <time>2021-05-23T12:37:02.982Z</time>
      </trkpt>
      <trkpt lat="47.25332" lon="-2.25421">
        <ele>18</ele>
        <time>2021-05-23T12:37:03.982Z</time>
      </trkpt>
      <trkpt lat="47.25334" lon="-2.2542">
        <ele>18</ele>
        <time>2021-05-23T12:37:04.982Z</time>
      </trkpt>
      <trkpt lat="47.25336" lon="-2.25418">
        <ele>18</ele>
        <time>2021-05-23T12:37:05.982Z</time>
      </trkpt>
      <trkpt lat="47.25338" lon="-2.25415">
        <ele>18</ele>
        <time>2021-05-23T12:37:06.982Z</time>
      </trkpt>
      <trkpt lat="47.25339" lon="-2.25413">
        <ele>18</ele>
        <time>2021-05-23T12:37:07.982Z</time>
      </trkpt>
      <trkpt lat="47.2534" lon="-2.25411">
        <ele>18</ele>
        <time>2021-05-23T12:37:08.982Z</time>
      </trkpt>
      <trkpt lat="47.25341" lon="-2.25408">
        <ele>18</ele>
        <time>2021-05-23T12:37:09.982Z</time>
      </trkpt>
      <trkpt lat="47.25342" lon="-2.25406">
        <ele>18</ele>
        <time>2021-05-23T12:37:10.982Z</time>
      </trkpt>
      <trkpt lat="47.25344" lon="-2.25404">
        <ele>18</ele>
        <time>2021-05-23T12:37:11.982Z</time>
      </trkpt>
      <trkpt lat="47.25345" lon="-2.25402">
        <ele>18</ele>
        <time>2021-05-23T12:37:12.982Z</time>
      </trkpt>
      <trkpt lat="47.25345" lon="-2.254">
        <ele>17</ele>
        <time>2021-05-23T12:37:13.982Z</time>
      </trkpt>
      <trkpt lat="47.25346" lon="-2.25397">
        <ele>17</ele>
        <time>2021-05-23T12:37:14.982Z</time>
      </trkpt>
      <trkpt lat="47.25346" lon="-2.25395">
        <ele>16</ele>
        <time>2021-05-23T12:37:15.982Z</time>
      </trkpt>
      <trkpt lat="47.25346" lon="-2.25393">
        <ele>16</ele>
        <time>2021-05-23T12:37:16.982Z</time>
      </trkpt>
      <trkpt lat="47.25345" lon="-2.25392">
        <ele>16</ele>
        <time>2021-05-23T12:37:17.983Z</time>
      </trkpt>
      <trkpt lat="47.25346" lon="-2.25389">
        <ele>16</ele>
        <time>2021-05-23T12:37:18.982Z</time>
      </trkpt>
      <trkpt lat="47.25347" lon="-2.25387">
        <ele>16</ele>
        <time>2021-05-23T12:37:19.982Z</time>
      </trkpt>
      <trkpt lat="47.25348" lon="-2.25386">
        <ele>15</ele>
        <time>2021-05-23T12:37:20.982Z</time>
      </trkpt>
      <trkpt lat="47.25347" lon="-2.25385">
        <ele>15</ele>
        <time>2021-05-23T12:37:21.982Z</time>
      </trkpt>
      <trkpt lat="47.25346" lon="-2.25384">
        <ele>14</ele>
        <time>2021-05-23T12:37:22.982Z</time>
      </trkpt>
      <trkpt lat="47.25345" lon="-2.25383">
        <ele>14</ele>
        <time>2021-05-23T12:37:23.982Z</time>
      </trkpt>
      <trkpt lat="47.25345" lon="-2.25383">
        <ele>13</ele>
        <time>2021-05-23T12:37:24.983Z</time>
      </trkpt>
      <trkpt lat="47.25345" lon="-2.25382">
        <ele>12</ele>
        <time>2021-05-23T12:37:25.982Z</time>
      </trkpt>
      <trkpt lat="47.25345" lon="-2.25381">
        <ele>12</ele>
        <time>2021-05-23T12:37:26.982Z</time>
      </trkpt>
      <trkpt lat="47.25345" lon="-2.2538">
        <ele>12</ele>
        <time>2021-05-23T12:37:27.982Z</time>
      </trkpt>
      <trkpt lat="47.25345" lon="-2.25379">
        <ele>11</ele>
        <time>2021-05-23T12:37:28.982Z</time>
      </trkpt>
      <trkpt lat="47.25346" lon="-2.25378">
        <ele>11</ele>
        <time>2021-05-23T12:37:29.982Z</time>
      </trkpt>
      <trkpt lat="47.25345" lon="-2.25377">
        <ele>11</ele>
        <time>2021-05-23T12:37:30.982Z</time>
      </trkpt>
      <trkpt lat="47.25345" lon="-2.25375">
        <ele>11</ele>
        <time>2021-05-23T12:37:31.983Z</time>
      </trkpt>
      <trkpt lat="47.25345" lon="-2.25373">
        <ele>10</ele>
        <time>2021-05-23T12:37:32.982Z</time>
      </trkpt>
      <trkpt lat="47.25345" lon="-2.25371">
        <ele>10</ele>
        <time>2021-05-23T12:37:33.982Z</time>
      </trkpt>
      <trkpt lat="47.25346" lon="-2.25369">
        <ele>10</ele>
        <time>2021-05-23T12:37:34.982Z</time>
      </trkpt>
      <trkpt lat="47.25346" lon="-2.25367">
        <ele>9</ele>
        <time>2021-05-23T12:37:35.982Z</time>
      </trkpt>
      <trkpt lat="47.25346" lon="-2.25365">
        <ele>9</ele>
        <time>2021-05-23T12:37:36.982Z</time>
      </trkpt>
      <trkpt lat="47.25347" lon="-2.25363">
        <ele>9</ele>
        <time>2021-05-23T12:37:37.983Z</time>
      </trkpt>
      <trkpt lat="47.25346" lon="-2.25361">
        <ele>9</ele>
        <time>2021-05-23T12:37:38.983Z</time>
      </trkpt>
      <trkpt lat="47.25347" lon="-2.25359">
        <ele>9</ele>
        <time>2021-05-23T12:37:39.983Z</time>
      </trkpt>
      <trkpt lat="47.25347" lon="-2.25357">
        <ele>8</ele>
        <time>2021-05-23T12:37:40.982Z</time>
      </trkpt>
      <trkpt lat="47.25347" lon="-2.25356">
        <ele>8</ele>
        <time>2021-05-23T12:37:41.982Z</time>
      </trkpt>
      <trkpt lat="47.25347" lon="-2.25355">
        <ele>8</ele>
        <time>2021-05-23T12:37:42.982Z</time>
      </trkpt>
      <trkpt lat="47.25347" lon="-2.25354">
        <ele>8</ele>
        <time>2021-05-23T12:37:43.982Z</time>
      </trkpt>
      <trkpt lat="47.25347" lon="-2.25353">
        <ele>7</ele>
        <time>2021-05-23T12:37:44.982Z</time>
      </trkpt>
      <trkpt lat="47.25347" lon="-2.25351">
        <ele>7</ele>
        <time>2021-05-23T12:37:45.982Z</time>
      </trkpt>
      <trkpt lat="47.25348" lon="-2.25349">
        <ele>7</ele>
        <time>2021-05-23T12:37:46.982Z</time>
      </trkpt>
      <trkpt lat="47.25348" lon="-2.25346">
        <ele>7</ele>
        <time>2021-05-23T12:37:47.983Z</time>
      </trkpt>
      <trkpt lat="47.25349" lon="-2.25344">
        <ele>7</ele>
        <time>2021-05-23T12:37:48.982Z</time>
      </trkpt>
      <trkpt lat="47.25349" lon="-2.25342">
        <ele>6</ele>
        <time>2021-05-23T12:37:49.982Z</time>
      </trkpt>
      <trkpt lat="47.2535" lon="-2.2534">
        <ele>6</ele>
        <time>2021-05-23T12:37:50.983Z</time>
      </trkpt>
      <trkpt lat="47.25349" lon="-2.25338">
        <ele>5</ele>
        <time>2021-05-23T12:37:51.982Z</time>
      </trkpt>
      <trkpt lat="47.2535" lon="-2.25337">
        <ele>5</ele>
        <time>2021-05-23T12:37:52.982Z</time>
      </trkpt>
      <trkpt lat="47.2535" lon="-2.25335">
        <ele>5</ele>
        <time>2021-05-23T12:37:53.982Z</time>
      </trkpt>
      <trkpt lat="47.25349" lon="-2.25333">
        <ele>5</ele>
        <time>2021-05-23T12:37:54.982Z</time>
      </trkpt>
      <trkpt lat="47.25349" lon="-2.25333">
        <ele>5</ele>
        <time>2021-05-23T12:37:55.982Z</time>
      </trkpt>
      <trkpt lat="47.25349" lon="-2.25332">
        <ele>5</ele>
        <time>2021-05-23T12:37:56.982Z</time>
      </trkpt>
      <trkpt lat="47.2535" lon="-2.25329">
        <ele>5</ele>
        <time>2021-05-23T12:37:57.982Z</time>
      </trkpt>
      <trkpt lat="47.2535" lon="-2.25327">
        <ele>5</ele>
        <time>2021-05-23T12:37:58.982Z</time>
      </trkpt>
      <trkpt lat="47.2535" lon="-2.25325">
        <ele>5</ele>
        <time>2021-05-23T12:37:59.982Z</time>
      </trkpt>
      <trkpt lat="47.2535" lon="-2.25325">
        <ele>4</ele>
        <time>2021-05-23T12:38:00.983Z</time>
      </trkpt>
      <trkpt lat="47.2535" lon="-2.25324">
        <ele>4</ele>
        <time>2021-05-23T12:38:01.982Z</time>
      </trkpt>
      <trkpt lat="47.2535" lon="-2.25323">
        <ele>4</ele>
        <time>2021-05-23T12:38:02.982Z</time>
      </trkpt>
      <trkpt lat="47.2535" lon="-2.25323">
        <ele>4</ele>
        <time>2021-05-23T12:38:03.983Z</time>
      </trkpt>
      <trkpt lat="47.2535" lon="-2.25323">
        <ele>3</ele>
        <time>2021-05-23T12:38:04.983Z</time>
      </trkpt>
      <trkpt lat="47.25349" lon="-2.25322">
        <ele>4</ele>
        <time>2021-05-23T12:38:05.982Z</time>
      </trkpt>
      <trkpt lat="47.25349" lon="-2.25321">
        <ele>4</ele>
        <time>2021-05-23T12:38:06.982Z</time>
      </trkpt>
      <trkpt lat="47.25349" lon="-2.2532">
        <ele>4</ele>
        <time>2021-05-23T12:38:07.983Z</time>
      </trkpt>
      <trkpt lat="47.25349" lon="-2.25319">
        <ele>4</ele>
        <time>2021-05-23T12:38:08.982Z</time>
      </trkpt>
      <trkpt lat="47.2535" lon="-2.25318">
        <ele>5</ele>
        <time>2021-05-23T12:38:09.983Z</time>
      </trkpt>
      <trkpt lat="47.25352" lon="-2.25316">
        <ele>5</ele>
        <time>2021-05-23T12:38:10.982Z</time>
      </trkpt>
      <trkpt lat="47.25352" lon="-2.25315">
        <ele>6</ele>
        <time>2021-05-23T12:38:11.982Z</time>
      </trkpt>
      <trkpt lat="47.25352" lon="-2.25315">
        <ele>6</ele>
        <time>2021-05-23T12:38:12.982Z</time>
      </trkpt>
      <trkpt lat="47.25353" lon="-2.25315">
        <ele>6</ele>
        <time>2021-05-23T12:38:13.982Z</time>
      </trkpt>
      <trkpt lat="47.25353" lon="-2.25315">
        <ele>7</ele>
        <time>2021-05-23T12:38:14.982Z</time>
      </trkpt>
      <trkpt lat="47.25354" lon="-2.25315">
        <ele>7</ele>
        <time>2021-05-23T12:38:15.982Z</time>
      </trkpt>
      <trkpt lat="47.25354" lon="-2.25315">
        <ele>7</ele>
        <time>2021-05-23T12:38:16.983Z</time>
      </trkpt>
      <trkpt lat="47.25354" lon="-2.25314">
        <ele>8</ele>
        <time>2021-05-23T12:38:17.982Z</time>
      </trkpt>
      <trkpt lat="47.25355" lon="-2.25314">
        <ele>8</ele>
        <time>2021-05-23T12:38:18.983Z</time>
      </trkpt>
      <trkpt lat="47.25356" lon="-2.25313">
        <ele>8</ele>
        <time>2021-05-23T12:38:19.982Z</time>
      </trkpt>
      <trkpt lat="47.25356" lon="-2.25313">
        <ele>8</ele>
        <time>2021-05-23T12:38:20.982Z</time>
      </trkpt>
      <trkpt lat="47.25357" lon="-2.25312">
        <ele>8</ele>
        <time>2021-05-23T12:38:21.982Z</time>
      </trkpt>
      <trkpt lat="47.25357" lon="-2.25312">
        <ele>8</ele>
        <time>2021-05-23T12:38:22.982Z</time>
      </trkpt>
      <trkpt lat="47.25357" lon="-2.25311">
        <ele>9</ele>
        <time>2021-05-23T12:38:23.983Z</time>
      </trkpt>
      <trkpt lat="47.25358" lon="-2.2531">
        <ele>8</ele>
        <time>2021-05-23T12:38:24.982Z</time>
      </trkpt>
      <trkpt lat="47.25358" lon="-2.25308">
        <ele>8</ele>
        <time>2021-05-23T12:38:25.982Z</time>
      </trkpt>
      <trkpt lat="47.25358" lon="-2.25306">
        <ele>8</ele>
        <time>2021-05-23T12:38:26.982Z</time>
      </trkpt>
      <trkpt lat="47.25359" lon="-2.25304">
        <ele>8</ele>
        <time>2021-05-23T12:38:27.982Z</time>
      </trkpt>
      <trkpt lat="47.2536" lon="-2.25301">
        <ele>8</ele>
        <time>2021-05-23T12:38:28.982Z</time>
      </trkpt>
      <trkpt lat="47.2536" lon="-2.25299">
        <ele>8</ele>
        <time>2021-05-23T12:38:29.983Z</time>
      </trkpt>
      <trkpt lat="47.25361" lon="-2.25297">
        <ele>8</ele>
        <time>2021-05-23T12:38:30.982Z</time>
      </trkpt>
      <trkpt lat="47.25361" lon="-2.25296">
        <ele>9</ele>
        <time>2021-05-23T12:38:31.982Z</time>
      </trkpt>
      <trkpt lat="47.25361" lon="-2.25293">
        <ele>9</ele>
        <time>2021-05-23T12:38:32.982Z</time>
      </trkpt>
      <trkpt lat="47.25361" lon="-2.25291">
        <ele>9</ele>
        <time>2021-05-23T12:38:33.982Z</time>
      </trkpt>
      <trkpt lat="47.25362" lon="-2.2529">
        <ele>9</ele>
        <time>2021-05-23T12:38:34.982Z</time>
      </trkpt>
      <trkpt lat="47.25362" lon="-2.25289">
        <ele>10</ele>
        <time>2021-05-23T12:38:35.983Z</time>
      </trkpt>
      <trkpt lat="47.25363" lon="-2.25288">
        <ele>10</ele>
        <time>2021-05-23T12:38:36.983Z</time>
      </trkpt>
      <trkpt lat="47.25363" lon="-2.25287">
        <ele>10</ele>
        <time>2021-05-23T12:38:37.983Z</time>
      </trkpt>
      <trkpt lat="47.25363" lon="-2.25285">
        <ele>10</ele>
        <time>2021-05-23T12:38:38.983Z</time>
      </trkpt>
      <trkpt lat="47.25363" lon="-2.25284">
        <ele>10</ele>
        <time>2021-05-23T12:38:39.983Z</time>
      </trkpt>
      <trkpt lat="47.25362" lon="-2.25282">
        <ele>10</ele>
        <time>2021-05-23T12:38:40.983Z</time>
      </trkpt>
      <trkpt lat="47.25361" lon="-2.2528">
        <ele>10</ele>
        <time>2021-05-23T12:38:41.983Z</time>
      </trkpt>
      <trkpt lat="47.2536" lon="-2.25278">
        <ele>10</ele>
        <time>2021-05-23T12:38:42.982Z</time>
      </trkpt>
      <trkpt lat="47.2536" lon="-2.25276">
        <ele>10</ele>
        <time>2021-05-23T12:38:43.983Z</time>
      </trkpt>
      <trkpt lat="47.2536" lon="-2.25275">
        <ele>11</ele>
        <time>2021-05-23T12:38:44.982Z</time>
      </trkpt>
      <trkpt lat="47.25359" lon="-2.25273">
        <ele>11</ele>
        <time>2021-05-23T12:38:45.982Z</time>
      </trkpt>
      <trkpt lat="47.25359" lon="-2.25271">
        <ele>11</ele>
        <time>2021-05-23T12:38:46.982Z</time>
      </trkpt>
      <trkpt lat="47.2536" lon="-2.25269">
        <ele>11</ele>
        <time>2021-05-23T12:38:47.982Z</time>
      </trkpt>
      <trkpt lat="47.2536" lon="-2.25268">
        <ele>11</ele>
        <time>2021-05-23T12:38:48.982Z</time>
      </trkpt>
      <trkpt lat="47.25361" lon="-2.25267">
        <ele>11</ele>
        <time>2021-05-23T12:38:49.982Z</time>
      </trkpt>
      <trkpt lat="47.25361" lon="-2.25265">
        <ele>11</ele>
        <time>2021-05-23T12:38:50.982Z</time>
      </trkpt>
      <trkpt lat="47.25362" lon="-2.25264">
        <ele>11</ele>
        <time>2021-05-23T12:38:51.982Z</time>
      </trkpt>
      <trkpt lat="47.25362" lon="-2.25263">
        <ele>11</ele>
        <time>2021-05-23T12:38:52.982Z</time>
      </trkpt>
      <trkpt lat="47.25362" lon="-2.25261">
        <ele>11</ele>
        <time>2021-05-23T12:38:53.982Z</time>
      </trkpt>
      <trkpt lat="47.25362" lon="-2.25259">
        <ele>12</ele>
        <time>2021-05-23T12:38:54.982Z</time>
      </trkpt>
      <trkpt lat="47.25361" lon="-2.25257">
        <ele>12</ele>
        <time>2021-05-23T12:38:55.983Z</time>
      </trkpt>
      <trkpt lat="47.2536" lon="-2.25256">
        <ele>12</ele>
        <time>2021-05-23T12:38:56.982Z</time>
      </trkpt>
      <trkpt lat="47.25359" lon="-2.25255">
        <ele>13</ele>
        <time>2021-05-23T12:38:57.983Z</time>
      </trkpt>
      <trkpt lat="47.25358" lon="-2.25254">
        <ele>13</ele>
        <time>2021-05-23T12:38:58.982Z</time>
      </trkpt>
      <trkpt lat="47.25357" lon="-2.25253">
        <ele>13</ele>
        <time>2021-05-23T12:38:59.983Z</time>
      </trkpt>
      <trkpt lat="47.25356" lon="-2.25253">
        <ele>14</ele>
        <time>2021-05-23T12:39:00.983Z</time>
      </trkpt>
      <trkpt lat="47.25355" lon="-2.25252">
        <ele>14</ele>
        <time>2021-05-23T12:39:01.983Z</time>
      </trkpt>
      <trkpt lat="47.25354" lon="-2.25251">
        <ele>14</ele>
        <time>2021-05-23T12:39:02.982Z</time>
      </trkpt>
      <trkpt lat="47.25353" lon="-2.2525">
        <ele>15</ele>
        <time>2021-05-23T12:39:03.982Z</time>
      </trkpt>
      <trkpt lat="47.25352" lon="-2.25249">
        <ele>15</ele>
        <time>2021-05-23T12:39:04.983Z</time>
      </trkpt>
      <trkpt lat="47.25351" lon="-2.25247">
        <ele>15</ele>
        <time>2021-05-23T12:39:05.983Z</time>
      </trkpt>
      <trkpt lat="47.2535" lon="-2.25246">
        <ele>16</ele>
        <time>2021-05-23T12:39:06.982Z</time>
      </trkpt>
      <trkpt lat="47.25349" lon="-2.25244">
        <ele>15</ele>
        <time>2021-05-23T12:39:07.982Z</time>
      </trkpt>
      <trkpt lat="47.25348" lon="-2.25243">
        <ele>15</ele>
        <time>2021-05-23T12:39:08.982Z</time>
      </trkpt>
      <trkpt lat="47.25347" lon="-2.25241">
        <ele>15</ele>
        <time>2021-05-23T12:39:09.982Z</time>
      </trkpt>
      <trkpt lat="47.25345" lon="-2.2524">
        <ele>15</ele>
        <time>2021-05-23T12:39:10.982Z</time>
      </trkpt>
      <trkpt lat="47.25344" lon="-2.25239">
        <ele>14</ele>
        <time>2021-05-23T12:39:11.982Z</time>
      </trkpt>
      <trkpt lat="47.25342" lon="-2.25237">
        <ele>14</ele>
        <time>2021-05-23T12:39:12.982Z</time>
      </trkpt>
      <trkpt lat="47.25341" lon="-2.25236">
        <ele>14</ele>
        <time>2021-05-23T12:39:13.982Z</time>
      </trkpt>
      <trkpt lat="47.2534" lon="-2.25234">
        <ele>14</ele>
        <time>2021-05-23T12:39:14.982Z</time>
      </trkpt>
      <trkpt lat="47.2534" lon="-2.25233">
        <ele>13</ele>
        <time>2021-05-23T12:39:15.982Z</time>
      </trkpt>
      <trkpt lat="47.2534" lon="-2.25232">
        <ele>13</ele>
        <time>2021-05-23T12:39:16.982Z</time>
      </trkpt>
      <trkpt lat="47.2534" lon="-2.25231">
        <ele>13</ele>
        <time>2021-05-23T12:39:17.982Z</time>
      </trkpt>
      <trkpt lat="47.25341" lon="-2.25229">
        <ele>13</ele>
        <time>2021-05-23T12:39:18.982Z</time>
      </trkpt>
      <trkpt lat="47.25342" lon="-2.25229">
        <ele>13</ele>
        <time>2021-05-23T12:39:19.982Z</time>
      </trkpt>
      <trkpt lat="47.25344" lon="-2.25227">
        <ele>13</ele>
        <time>2021-05-23T12:39:20.982Z</time>
      </trkpt>
      <trkpt lat="47.25345" lon="-2.25226">
        <ele>13</ele>
        <time>2021-05-23T12:39:21.982Z</time>
      </trkpt>
      <trkpt lat="47.25346" lon="-2.25225">
        <ele>13</ele>
        <time>2021-05-23T12:39:22.982Z</time>
      </trkpt>
      <trkpt lat="47.25346" lon="-2.25224">
        <ele>13</ele>
        <time>2021-05-23T12:39:23.982Z</time>
      </trkpt>
      <trkpt lat="47.25346" lon="-2.25223">
        <ele>13</ele>
        <time>2021-05-23T12:39:24.982Z</time>
      </trkpt>
      <trkpt lat="47.25346" lon="-2.25222">
        <ele>13</ele>
        <time>2021-05-23T12:39:25.983Z</time>
      </trkpt>
      <trkpt lat="47.25347" lon="-2.2522">
        <ele>14</ele>
        <time>2021-05-23T12:39:26.982Z</time>
      </trkpt>
      <trkpt lat="47.25348" lon="-2.25219">
        <ele>14</ele>
        <time>2021-05-23T12:39:27.983Z</time>
      </trkpt>
      <trkpt lat="47.25349" lon="-2.25217">
        <ele>14</ele>
        <time>2021-05-23T12:39:28.982Z</time>
      </trkpt>
      <trkpt lat="47.25349" lon="-2.25215">
        <ele>14</ele>
        <time>2021-05-23T12:39:29.982Z</time>
      </trkpt>
      <trkpt lat="47.25349" lon="-2.25213">
        <ele>14</ele>
        <time>2021-05-23T12:39:30.982Z</time>
      </trkpt>
      <trkpt lat="47.2535" lon="-2.25212">
        <ele>15</ele>
        <time>2021-05-23T12:39:31.982Z</time>
      </trkpt>
      <trkpt lat="47.25349" lon="-2.2521">
        <ele>15</ele>
        <time>2021-05-23T12:39:32.982Z</time>
      </trkpt>
      <trkpt lat="47.25349" lon="-2.25209">
        <ele>15</ele>
        <time>2021-05-23T12:39:33.983Z</time>
      </trkpt>
      <trkpt lat="47.25349" lon="-2.25206">
        <ele>15</ele>
        <time>2021-05-23T12:39:34.982Z</time>
      </trkpt>
      <trkpt lat="47.25348" lon="-2.25204">
        <ele>15</ele>
        <time>2021-05-23T12:39:35.983Z</time>
      </trkpt>
      <trkpt lat="47.25348" lon="-2.25202">
        <ele>15</ele>
        <time>2021-05-23T12:39:36.982Z</time>
      </trkpt>
      <trkpt lat="47.25348" lon="-2.252">
        <ele>15</ele>
        <time>2021-05-23T12:39:37.982Z</time>
      </trkpt>
      <trkpt lat="47.25349" lon="-2.25198">
        <ele>15</ele>
        <time>2021-05-23T12:39:38.982Z</time>
      </trkpt>
      <trkpt lat="47.2535" lon="-2.25197">
        <ele>15</ele>
        <time>2021-05-23T12:39:39.983Z</time>
      </trkpt>
      <trkpt lat="47.25351" lon="-2.25195">
        <ele>16</ele>
        <time>2021-05-23T12:39:40.982Z</time>
      </trkpt>
      <trkpt lat="47.25351" lon="-2.25194">
        <ele>16</ele>
        <time>2021-05-23T12:39:41.982Z</time>
      </trkpt>
      <trkpt lat="47.25352" lon="-2.25192">
        <ele>16</ele>
        <time>2021-05-23T12:39:42.983Z</time>
      </trkpt>
      <trkpt lat="47.25353" lon="-2.25191">
        <ele>17</ele>
        <time>2021-05-23T12:39:43.982Z</time>
      </trkpt>
      <trkpt lat="47.25353" lon="-2.2519">
        <ele>17</ele>
        <time>2021-05-23T12:39:44.983Z</time>
      </trkpt>
      <trkpt lat="47.25355" lon="-2.25188">
        <ele>17</ele>
        <time>2021-05-23T12:39:45.982Z</time>
      </trkpt>
      <trkpt lat="47.25356" lon="-2.25186">
        <ele>18</ele>
        <time>2021-05-23T12:39:46.982Z</time>
      </trkpt>
      <trkpt lat="47.25357" lon="-2.25184">
        <ele>18</ele>
        <time>2021-05-23T12:39:47.982Z</time>
      </trkpt>
      <trkpt lat="47.25358" lon="-2.25182">
        <ele>19</ele>
        <time>2021-05-23T12:39:48.982Z</time>
      </trkpt>
      <trkpt lat="47.25359" lon="-2.2518">
        <ele>19</ele>
        <time>2021-05-23T12:39:49.982Z</time>
      </trkpt>
      <trkpt lat="47.2536" lon="-2.25177">
        <ele>19</ele>
        <time>2021-05-23T12:39:50.982Z</time>
      </trkpt>
      <trkpt lat="47.25361" lon="-2.25174">
        <ele>19</ele>
        <time>2021-05-23T12:39:51.982Z</time>
      </trkpt>
      <trkpt lat="47.25362" lon="-2.25171">
        <ele>19</ele>
        <time>2021-05-23T12:39:52.982Z</time>
      </trkpt>
      <trkpt lat="47.25362" lon="-2.25168">
        <ele>20</ele>
        <time>2021-05-23T12:39:53.982Z</time>
      </trkpt>
      <trkpt lat="47.25363" lon="-2.25164">
        <ele>20</ele>
        <time>2021-05-23T12:39:54.983Z</time>
      </trkpt>
      <trkpt lat="47.25363" lon="-2.25161">
        <ele>20</ele>
        <time>2021-05-23T12:39:55.982Z</time>
      </trkpt>
      <trkpt lat="47.25364" lon="-2.25157">
        <ele>20</ele>
        <time>2021-05-23T12:39:56.982Z</time>
      </trkpt>
      <trkpt lat="47.25364" lon="-2.25154">
        <ele>20</ele>
        <time>2021-05-23T12:39:57.982Z</time>
      </trkpt>
      <trkpt lat="47.25364" lon="-2.25151">
        <ele>20</ele>
        <time>2021-05-23T12:39:58.982Z</time>
      </trkpt>
      <trkpt lat="47.25364" lon="-2.25148">
        <ele>20</ele>
        <time>2021-05-23T12:39:59.982Z</time>
      </trkpt>
      <trkpt lat="47.25364" lon="-2.25144">
        <ele>20</ele>
        <time>2021-05-23T12:40:00.982Z</time>
      </trkpt>
      <trkpt lat="47.25364" lon="-2.25142">
        <ele>20</ele>
        <time>2021-05-23T12:40:01.983Z</time>
      </trkpt>
      <trkpt lat="47.25363" lon="-2.25139">
        <ele>20</ele>
        <time>2021-05-23T12:40:02.982Z</time>
      </trkpt>
      <trkpt lat="47.25362" lon="-2.25137">
        <ele>19</ele>
        <time>2021-05-23T12:40:03.982Z</time>
      </trkpt>
      <trkpt lat="47.25362" lon="-2.25134">
        <ele>19</ele>
        <time>2021-05-23T12:40:04.982Z</time>
      </trkpt>
      <trkpt lat="47.25363" lon="-2.25132">
        <ele>18</ele>
        <time>2021-05-23T12:40:05.982Z</time>
      </trkpt>
      <trkpt lat="47.25364" lon="-2.25129">
        <ele>17</ele>
        <time>2021-05-23T12:40:06.982Z</time>
      </trkpt>
      <trkpt lat="47.25365" lon="-2.25126">
        <ele>17</ele>
        <time>2021-05-23T12:40:07.982Z</time>
      </trkpt>
      <trkpt lat="47.25366" lon="-2.25123">
        <ele>17</ele>
        <time>2021-05-23T12:40:08.982Z</time>
      </trkpt>
      <trkpt lat="47.25367" lon="-2.25121">
        <ele>16</ele>
        <time>2021-05-23T12:40:09.982Z</time>
      </trkpt>
      <trkpt lat="47.25368" lon="-2.25119">
        <ele>16</ele>
        <time>2021-05-23T12:40:10.982Z</time>
      </trkpt>
      <trkpt lat="47.2537" lon="-2.25118">
        <ele>16</ele>
        <time>2021-05-23T12:40:11.982Z</time>
      </trkpt>
      <trkpt lat="47.25371" lon="-2.25117">
        <ele>16</ele>
        <time>2021-05-23T12:40:12.982Z</time>
      </trkpt>
      <trkpt lat="47.25372" lon="-2.25117">
        <ele>16</ele>
        <time>2021-05-23T12:40:13.982Z</time>
      </trkpt>
      <trkpt lat="47.25373" lon="-2.25117">
        <ele>16</ele>
        <time>2021-05-23T12:40:14.982Z</time>
      </trkpt>
      <trkpt lat="47.25374" lon="-2.25116">
        <ele>15</ele>
        <time>2021-05-23T12:40:15.983Z</time>
      </trkpt>
      <trkpt lat="47.25374" lon="-2.25115">
        <ele>15</ele>
        <time>2021-05-23T12:40:16.982Z</time>
      </trkpt>
      <trkpt lat="47.25375" lon="-2.25114">
        <ele>15</ele>
        <time>2021-05-23T12:40:17.982Z</time>
      </trkpt>
      <trkpt lat="47.25376" lon="-2.25113">
        <ele>15</ele>
        <time>2021-05-23T12:40:18.982Z</time>
      </trkpt>
      <trkpt lat="47.25376" lon="-2.25112">
        <ele>15</ele>
        <time>2021-05-23T12:40:19.982Z</time>
      </trkpt>
      <trkpt lat="47.25377" lon="-2.25111">
        <ele>15</ele>
        <time>2021-05-23T12:40:20.983Z</time>
      </trkpt>
      <trkpt lat="47.25377" lon="-2.2511">
        <ele>15</ele>
        <time>2021-05-23T12:40:21.982Z</time>
      </trkpt>
      <trkpt lat="47.25378" lon="-2.25109">
        <ele>16</ele>
        <time>2021-05-23T12:40:22.982Z</time>
      </trkpt>
      <trkpt lat="47.25378" lon="-2.25108">
        <ele>16</ele>
        <time>2021-05-23T12:40:23.982Z</time>
      </trkpt>
      <trkpt lat="47.25378" lon="-2.25106">
        <ele>16</ele>
        <time>2021-05-23T12:40:24.982Z</time>
      </trkpt>
      <trkpt lat="47.25378" lon="-2.25105">
        <ele>16</ele>
        <time>2021-05-23T12:40:25.983Z</time>
      </trkpt>
      <trkpt lat="47.25377" lon="-2.25104">
        <ele>17</ele>
        <time>2021-05-23T12:40:26.983Z</time>
      </trkpt>
      <trkpt lat="47.25376" lon="-2.25104">
        <ele>17</ele>
        <time>2021-05-23T12:40:27.982Z</time>
      </trkpt>
      <trkpt lat="47.25376" lon="-2.25104">
        <ele>17</ele>
        <time>2021-05-23T12:40:28.982Z</time>
      </trkpt>
      <trkpt lat="47.25377" lon="-2.25104">
        <ele>17</ele>
        <time>2021-05-23T12:40:29.982Z</time>
      </trkpt>
      <trkpt lat="47.25377" lon="-2.25103">
        <ele>17</ele>
        <time>2021-05-23T12:40:30.982Z</time>
      </trkpt>
      <trkpt lat="47.25378" lon="-2.25102">
        <ele>16</ele>
        <time>2021-05-23T12:40:31.982Z</time>
      </trkpt>
      <trkpt lat="47.25379" lon="-2.25101">
        <ele>16</ele>
        <time>2021-05-23T12:40:32.982Z</time>
      </trkpt>
      <trkpt lat="47.25379" lon="-2.251">
        <ele>16</ele>
        <time>2021-05-23T12:40:33.983Z</time>
      </trkpt>
      <trkpt lat="47.2538" lon="-2.25099">
        <ele>15</ele>
        <time>2021-05-23T12:40:34.982Z</time>
      </trkpt>
      <trkpt lat="47.2538" lon="-2.25099">
        <ele>15</ele>
        <time>2021-05-23T12:40:35.983Z</time>
      </trkpt>
      <trkpt lat="47.2538" lon="-2.25099">
        <ele>15</ele>
        <time>2021-05-23T12:40:36.983Z</time>
      </trkpt>
      <trkpt lat="47.2538" lon="-2.25098">
        <ele>15</ele>
        <time>2021-05-23T12:40:37.982Z</time>
      </trkpt>
      <trkpt lat="47.2538" lon="-2.25097">
        <ele>15</ele>
        <time>2021-05-23T12:40:38.982Z</time>
      </trkpt>
      <trkpt lat="47.2538" lon="-2.25096">
        <ele>15</ele>
        <time>2021-05-23T12:40:39.982Z</time>
      </trkpt>
      <trkpt lat="47.25381" lon="-2.25094">
        <ele>15</ele>
        <time>2021-05-23T12:40:40.982Z</time>
      </trkpt>
      <trkpt lat="47.25382" lon="-2.25093">
        <ele>14</ele>
        <time>2021-05-23T12:40:41.982Z</time>
      </trkpt>
      <trkpt lat="47.25382" lon="-2.25092">
        <ele>14</ele>
        <time>2021-05-23T12:40:42.982Z</time>
      </trkpt>
      <trkpt lat="47.25383" lon="-2.25091">
        <ele>14</ele>
        <time>2021-05-23T12:40:43.982Z</time>
      </trkpt>
      <trkpt lat="47.25384" lon="-2.25089">
        <ele>14</ele>
        <time>2021-05-23T12:40:44.982Z</time>
      </trkpt>
      <trkpt lat="47.25385" lon="-2.25086">
        <ele>15</ele>
        <time>2021-05-23T12:40:45.982Z</time>
      </trkpt>
      <trkpt lat="47.25387" lon="-2.25084">
        <ele>15</ele>
        <time>2021-05-23T12:40:46.982Z</time>
      </trkpt>
      <trkpt lat="47.25388" lon="-2.25081">
        <ele>15</ele>
        <time>2021-05-23T12:40:47.982Z</time>
      </trkpt>
      <trkpt lat="47.25389" lon="-2.25079">
        <ele>16</ele>
        <time>2021-05-23T12:40:48.982Z</time>
      </trkpt>
      <trkpt lat="47.2539" lon="-2.25077">
        <ele>16</ele>
        <time>2021-05-23T12:40:49.982Z</time>
      </trkpt>
      <trkpt lat="47.25391" lon="-2.25075">
        <ele>17</ele>
        <time>2021-05-23T12:40:50.982Z</time>
      </trkpt>
      <trkpt lat="47.25392" lon="-2.25073">
        <ele>17</ele>
        <time>2021-05-23T12:40:51.982Z</time>
      </trkpt>
      <trkpt lat="47.25393" lon="-2.2507">
        <ele>18</ele>
        <time>2021-05-23T12:40:52.982Z</time>
      </trkpt>
      <trkpt lat="47.25392" lon="-2.25068">
        <ele>18</ele>
        <time>2021-05-23T12:40:53.982Z</time>
      </trkpt>
      <trkpt lat="47.25392" lon="-2.25065">
        <ele>18</ele>
        <time>2021-05-23T12:40:54.982Z</time>
      </trkpt>
      <trkpt lat="47.25391" lon="-2.25062">
        <ele>18</ele>
        <time>2021-05-23T12:40:55.982Z</time>
      </trkpt>
      <trkpt lat="47.25391" lon="-2.2506">
        <ele>18</ele>
        <time>2021-05-23T12:40:56.982Z</time>
      </trkpt>
      <trkpt lat="47.25391" lon="-2.25057">
        <ele>18</ele>
        <time>2021-05-23T12:40:57.982Z</time>
      </trkpt>
      <trkpt lat="47.25393" lon="-2.25055">
        <ele>18</ele>
        <time>2021-05-23T12:40:58.983Z</time>
      </trkpt>
      <trkpt lat="47.25394" lon="-2.25053">
        <ele>18</ele>
        <time>2021-05-23T12:40:59.982Z</time>
      </trkpt>
      <trkpt lat="47.25395" lon="-2.2505">
        <ele>18</ele>
        <time>2021-05-23T12:41:00.982Z</time>
      </trkpt>
      <trkpt lat="47.25397" lon="-2.25048">
        <ele>18</ele>
        <time>2021-05-23T12:41:01.982Z</time>
      </trkpt>
      <trkpt lat="47.25397" lon="-2.25046">
        <ele>18</ele>
        <time>2021-05-23T12:41:02.982Z</time>
      </trkpt>
      <trkpt lat="47.25398" lon="-2.25043">
        <ele>18</ele>
        <time>2021-05-23T12:41:03.983Z</time>
      </trkpt>
      <trkpt lat="47.25398" lon="-2.2504">
        <ele>18</ele>
        <time>2021-05-23T12:41:04.982Z</time>
      </trkpt>
      <trkpt lat="47.25397" lon="-2.25036">
        <ele>18</ele>
        <time>2021-05-23T12:41:05.982Z</time>
      </trkpt>
      <trkpt lat="47.25397" lon="-2.25033">
        <ele>18</ele>
        <time>2021-05-23T12:41:06.982Z</time>
      </trkpt>
      <trkpt lat="47.25396" lon="-2.2503">
        <ele>18</ele>
        <time>2021-05-23T12:41:07.982Z</time>
      </trkpt>
      <trkpt lat="47.25395" lon="-2.25026">
        <ele>18</ele>
        <time>2021-05-23T12:41:08.982Z</time>
      </trkpt>
      <trkpt lat="47.25395" lon="-2.25023">
        <ele>18</ele>
        <time>2021-05-23T12:41:09.983Z</time>
      </trkpt>
      <trkpt lat="47.25395" lon="-2.25021">
        <ele>18</ele>
        <time>2021-05-23T12:41:10.982Z</time>
      </trkpt>
      <trkpt lat="47.25395" lon="-2.25018">
        <ele>18</ele>
        <time>2021-05-23T12:41:11.983Z</time>
      </trkpt>
      <trkpt lat="47.25395" lon="-2.25016">
        <ele>18</ele>
        <time>2021-05-23T12:41:12.982Z</time>
      </trkpt>
      <trkpt lat="47.25396" lon="-2.25013">
        <ele>18</ele>
        <time>2021-05-23T12:41:13.982Z</time>
      </trkpt>
      <trkpt lat="47.25395" lon="-2.2501">
        <ele>18</ele>
        <time>2021-05-23T12:41:14.982Z</time>
      </trkpt>
      <trkpt lat="47.25395" lon="-2.25007">
        <ele>19</ele>
        <time>2021-05-23T12:41:15.982Z</time>
      </trkpt>
      <trkpt lat="47.25395" lon="-2.25004">
        <ele>19</ele>
        <time>2021-05-23T12:41:16.982Z</time>
      </trkpt>
      <trkpt lat="47.25395" lon="-2.25001">
        <ele>19</ele>
        <time>2021-05-23T12:41:17.982Z</time>
      </trkpt>
      <trkpt lat="47.25395" lon="-2.24997">
        <ele>19</ele>
        <time>2021-05-23T12:41:18.982Z</time>
      </trkpt>
      <trkpt lat="47.25395" lon="-2.24992">
        <ele>19</ele>
        <time>2021-05-23T12:41:19.982Z</time>
      </trkpt>
      <trkpt lat="47.25395" lon="-2.24988">
        <ele>19</ele>
        <time>2021-05-23T12:41:20.983Z</time>
      </trkpt>
      <trkpt lat="47.25395" lon="-2.24984">
        <ele>19</ele>
        <time>2021-05-23T12:41:21.982Z</time>
      </trkpt>
      <trkpt lat="47.25396" lon="-2.24981">
        <ele>19</ele>
        <time>2021-05-23T12:41:22.982Z</time>
      </trkpt>
      <trkpt lat="47.25397" lon="-2.24977">
        <ele>19</ele>
        <time>2021-05-23T12:41:23.982Z</time>
      </trkpt>
      <trkpt lat="47.25398" lon="-2.24973">
        <ele>19</ele>
        <time>2021-05-23T12:41:24.982Z</time>
      </trkpt>
      <trkpt lat="47.254" lon="-2.24968">
        <ele>19</ele>
        <time>2021-05-23T12:41:25.983Z</time>
      </trkpt>
      <trkpt lat="47.25401" lon="-2.24965">
        <ele>19</ele>
        <time>2021-05-23T12:41:26.982Z</time>
      </trkpt>
      <trkpt lat="47.25403" lon="-2.24963">
        <ele>19</ele>
        <time>2021-05-23T12:41:27.982Z</time>
      </trkpt>
      <trkpt lat="47.25404" lon="-2.2496">
        <ele>19</ele>
        <time>2021-05-23T12:41:28.982Z</time>
      </trkpt>
      <trkpt lat="47.25404" lon="-2.24958">
        <ele>18</ele>
        <time>2021-05-23T12:41:29.982Z</time>
      </trkpt>
      <trkpt lat="47.25405" lon="-2.24955">
        <ele>18</ele>
        <time>2021-05-23T12:41:30.982Z</time>
      </trkpt>
      <trkpt lat="47.25406" lon="-2.24952">
        <ele>19</ele>
        <time>2021-05-23T12:41:31.982Z</time>
      </trkpt>
      <trkpt lat="47.25407" lon="-2.24949">
        <ele>19</ele>
        <time>2021-05-23T12:41:32.982Z</time>
      </trkpt>
      <trkpt lat="47.25409" lon="-2.24945">
        <ele>19</ele>
        <time>2021-05-23T12:41:33.983Z</time>
      </trkpt>
      <trkpt lat="47.2541" lon="-2.24942">
        <ele>19</ele>
        <time>2021-05-23T12:41:34.982Z</time>
      </trkpt>
      <trkpt lat="47.2541" lon="-2.24939">
        <ele>19</ele>
        <time>2021-05-23T12:41:35.982Z</time>
      </trkpt>
      <trkpt lat="47.25411" lon="-2.24937">
        <ele>19</ele>
        <time>2021-05-23T12:41:36.982Z</time>
      </trkpt>
      <trkpt lat="47.25412" lon="-2.24934">
        <ele>20</ele>
        <time>2021-05-23T12:41:37.983Z</time>
      </trkpt>
      <trkpt lat="47.25413" lon="-2.24932">
        <ele>20</ele>
        <time>2021-05-23T12:41:38.982Z</time>
      </trkpt>
      <trkpt lat="47.25414" lon="-2.24929">
        <ele>20</ele>
        <time>2021-05-23T12:41:39.983Z</time>
      </trkpt>
      <trkpt lat="47.25414" lon="-2.24927">
        <ele>20</ele>
        <time>2021-05-23T12:41:40.982Z</time>
      </trkpt>
      <trkpt lat="47.25414" lon="-2.24925">
        <ele>21</ele>
        <time>2021-05-23T12:41:41.982Z</time>
      </trkpt>
      <trkpt lat="47.25415" lon="-2.24923">
        <ele>21</ele>
        <time>2021-05-23T12:41:42.983Z</time>
      </trkpt>
      <trkpt lat="47.25417" lon="-2.2492">
        <ele>20</ele>
        <time>2021-05-23T12:41:43.982Z</time>
      </trkpt>
      <trkpt lat="47.25418" lon="-2.24918">
        <ele>20</ele>
        <time>2021-05-23T12:41:44.982Z</time>
      </trkpt>
      <trkpt lat="47.25419" lon="-2.24916">
        <ele>20</ele>
        <time>2021-05-23T12:41:45.982Z</time>
      </trkpt>
      <trkpt lat="47.25421" lon="-2.24914">
        <ele>20</ele>
        <time>2021-05-23T12:41:46.982Z</time>
      </trkpt>
      <trkpt lat="47.25422" lon="-2.24913">
        <ele>20</ele>
        <time>2021-05-23T12:41:47.983Z</time>
      </trkpt>
      <trkpt lat="47.25423" lon="-2.24911">
        <ele>20</ele>
        <time>2021-05-23T12:41:48.982Z</time>
      </trkpt>
      <trkpt lat="47.25424" lon="-2.2491">
        <ele>20</ele>
        <time>2021-05-23T12:41:49.982Z</time>
      </trkpt>
      <trkpt lat="47.25426" lon="-2.24909">
        <ele>20</ele>
        <time>2021-05-23T12:41:50.982Z</time>
      </trkpt>
      <trkpt lat="47.25428" lon="-2.24908">
        <ele>20</ele>
        <time>2021-05-23T12:41:51.983Z</time>
      </trkpt>
      <trkpt lat="47.25429" lon="-2.24907">
        <ele>20</ele>
        <time>2021-05-23T12:41:52.982Z</time>
      </trkpt>
      <trkpt lat="47.2543" lon="-2.24906">
        <ele>20</ele>
        <time>2021-05-23T12:41:53.982Z</time>
      </trkpt>
      <trkpt lat="47.25431" lon="-2.24905">
        <ele>19</ele>
        <time>2021-05-23T12:41:54.982Z</time>
      </trkpt>
      <trkpt lat="47.25432" lon="-2.24903">
        <ele>20</ele>
        <time>2021-05-23T12:41:55.982Z</time>
      </trkpt>
      <trkpt lat="47.25434" lon="-2.24901">
        <ele>20</ele>
        <time>2021-05-23T12:41:56.982Z</time>
      </trkpt>
      <trkpt lat="47.25435" lon="-2.24899">
        <ele>20</ele>
        <time>2021-05-23T12:41:57.983Z</time>
      </trkpt>
      <trkpt lat="47.25437" lon="-2.24896">
        <ele>20</ele>
        <time>2021-05-23T12:41:58.982Z</time>
      </trkpt>
      <trkpt lat="47.25438" lon="-2.24893">
        <ele>20</ele>
        <time>2021-05-23T12:41:59.982Z</time>
      </trkpt>
      <trkpt lat="47.25439" lon="-2.24891">
        <ele>21</ele>
        <time>2021-05-23T12:42:00.982Z</time>
      </trkpt>
      <trkpt lat="47.2544" lon="-2.24889">
        <ele>21</ele>
        <time>2021-05-23T12:42:01.982Z</time>
      </trkpt>
      <trkpt lat="47.25441" lon="-2.24888">
        <ele>20</ele>
        <time>2021-05-23T12:42:02.982Z</time>
      </trkpt>
      <trkpt lat="47.25442" lon="-2.24888">
        <ele>20</ele>
        <time>2021-05-23T12:42:03.982Z</time>
      </trkpt>
      <trkpt lat="47.25444" lon="-2.24888">
        <ele>20</ele>
        <time>2021-05-23T12:42:04.982Z</time>
      </trkpt>
      <trkpt lat="47.25446" lon="-2.24889">
        <ele>20</ele>
        <time>2021-05-23T12:42:05.983Z</time>
      </trkpt>
      <trkpt lat="47.25448" lon="-2.24889">
        <ele>20</ele>
        <time>2021-05-23T12:42:06.983Z</time>
      </trkpt>
      <trkpt lat="47.25449" lon="-2.24891">
        <ele>21</ele>
        <time>2021-05-23T12:42:07.982Z</time>
      </trkpt>
      <trkpt lat="47.2545" lon="-2.24893">
        <ele>21</ele>
        <time>2021-05-23T12:42:08.983Z</time>
      </trkpt>
      <trkpt lat="47.25451" lon="-2.24894">
        <ele>21</ele>
        <time>2021-05-23T12:42:09.982Z</time>
      </trkpt>
      <trkpt lat="47.25453" lon="-2.24896">
        <ele>21</ele>
        <time>2021-05-23T12:42:10.982Z</time>
      </trkpt>
      <trkpt lat="47.25454" lon="-2.24897">
        <ele>21</ele>
        <time>2021-05-23T12:42:11.982Z</time>
      </trkpt>
      <trkpt lat="47.25456" lon="-2.24898">
        <ele>21</ele>
        <time>2021-05-23T12:42:12.982Z</time>
      </trkpt>
      <trkpt lat="47.25458" lon="-2.249">
        <ele>21</ele>
        <time>2021-05-23T12:42:13.982Z</time>
      </trkpt>
      <trkpt lat="47.25459" lon="-2.24902">
        <ele>21</ele>
        <time>2021-05-23T12:42:14.982Z</time>
      </trkpt>
      <trkpt lat="47.25459" lon="-2.24904">
        <ele>22</ele>
        <time>2021-05-23T12:42:15.982Z</time>
      </trkpt>
      <trkpt lat="47.2546" lon="-2.24905">
        <ele>22</ele>
        <time>2021-05-23T12:42:16.982Z</time>
      </trkpt>
      <trkpt lat="47.25462" lon="-2.24908">
        <ele>23</ele>
        <time>2021-05-23T12:42:17.982Z</time>
      </trkpt>
      <trkpt lat="47.25463" lon="-2.2491">
        <ele>23</ele>
        <time>2021-05-23T12:42:18.982Z</time>
      </trkpt>
      <trkpt lat="47.25464" lon="-2.24912">
        <ele>24</ele>
        <time>2021-05-23T12:42:19.983Z</time>
      </trkpt>
      <trkpt lat="47.25466" lon="-2.24914">
        <ele>24</ele>
        <time>2021-05-23T12:42:20.983Z</time>
      </trkpt>
      <trkpt lat="47.25467" lon="-2.24916">
        <ele>25</ele>
        <time>2021-05-23T12:42:21.982Z</time>
      </trkpt>
      <trkpt lat="47.25468" lon="-2.24918">
        <ele>25</ele>
        <time>2021-05-23T12:42:22.982Z</time>
      </trkpt>
      <trkpt lat="47.25469" lon="-2.24921">
        <ele>25</ele>
        <time>2021-05-23T12:42:23.982Z</time>
      </trkpt>
      <trkpt lat="47.25471" lon="-2.24923">
        <ele>25</ele>
        <time>2021-05-23T12:42:24.983Z</time>
      </trkpt>
      <trkpt lat="47.25472" lon="-2.24926">
        <ele>25</ele>
        <time>2021-05-23T12:42:25.982Z</time>
      </trkpt>
      <trkpt lat="47.25473" lon="-2.24928">
        <ele>25</ele>
        <time>2021-05-23T12:42:26.983Z</time>
      </trkpt>
      <trkpt lat="47.25474" lon="-2.2493">
        <ele>25</ele>
        <time>2021-05-23T12:42:27.982Z</time>
      </trkpt>
      <trkpt lat="47.25475" lon="-2.24931">
        <ele>25</ele>
        <time>2021-05-23T12:42:28.982Z</time>
      </trkpt>
      <trkpt lat="47.25477" lon="-2.24931">
        <ele>25</ele>
        <time>2021-05-23T12:42:29.983Z</time>
      </trkpt>
      <trkpt lat="47.2548" lon="-2.2493">
        <ele>25</ele>
        <time>2021-05-23T12:42:30.983Z</time>
      </trkpt>
      <trkpt lat="47.25482" lon="-2.2493">
        <ele>25</ele>
        <time>2021-05-23T12:42:31.982Z</time>
      </trkpt>
      <trkpt lat="47.25484" lon="-2.24929">
        <ele>25</ele>
        <time>2021-05-23T12:42:32.983Z</time>
      </trkpt>
      <trkpt lat="47.25486" lon="-2.24928">
        <ele>25</ele>
        <time>2021-05-23T12:42:33.982Z</time>
      </trkpt>
      <trkpt lat="47.25487" lon="-2.24928">
        <ele>25</ele>
        <time>2021-05-23T12:42:34.982Z</time>
      </trkpt>
      <trkpt lat="47.25488" lon="-2.24928">
        <ele>25</ele>
        <time>2021-05-23T12:42:35.982Z</time>
      </trkpt>
      <trkpt lat="47.25488" lon="-2.24928">
        <ele>25</ele>
        <time>2021-05-23T12:42:36.982Z</time>
      </trkpt>
      <trkpt lat="47.25488" lon="-2.24928">
        <ele>25</ele>
        <time>2021-05-23T12:42:37.982Z</time>
      </trkpt>
      <trkpt lat="47.25488" lon="-2.24929">
        <ele>25</ele>
        <time>2021-05-23T12:42:38.983Z</time>
      </trkpt>
      <trkpt lat="47.25488" lon="-2.2493">
        <ele>25</ele>
        <time>2021-05-23T12:42:39.982Z</time>
      </trkpt>
      <trkpt lat="47.25488" lon="-2.2493">
        <ele>25</ele>
        <time>2021-05-23T12:42:40.982Z</time>
      </trkpt>
      <trkpt lat="47.25487" lon="-2.2493">
        <ele>25</ele>
        <time>2021-05-23T12:42:41.982Z</time>
      </trkpt>
      <trkpt lat="47.25487" lon="-2.24931">
        <ele>24</ele>
        <time>2021-05-23T12:42:42.982Z</time>
      </trkpt>
      <trkpt lat="47.25487" lon="-2.24931">
        <ele>25</ele>
        <time>2021-05-23T12:42:43.982Z</time>
      </trkpt>
      <trkpt lat="47.25487" lon="-2.24931">
        <ele>25</ele>
        <time>2021-05-23T12:42:44.982Z</time>
      </trkpt>
      <trkpt lat="47.25488" lon="-2.24931">
        <ele>24</ele>
        <time>2021-05-23T12:42:45.982Z</time>
      </trkpt>
      <trkpt lat="47.25488" lon="-2.2493">
        <ele>24</ele>
        <time>2021-05-23T12:42:46.982Z</time>
      </trkpt>
      <trkpt lat="47.25488" lon="-2.2493">
        <ele>24</ele>
        <time>2021-05-23T12:42:47.982Z</time>
      </trkpt>
      <trkpt lat="47.25488" lon="-2.2493">
        <ele>24</ele>
        <time>2021-05-23T12:42:48.983Z</time>
      </trkpt>
      <trkpt lat="47.25489" lon="-2.2493">
        <ele>24</ele>
        <time>2021-05-23T12:42:49.982Z</time>
      </trkpt>
      <trkpt lat="47.2549" lon="-2.2493">
        <ele>23</ele>
        <time>2021-05-23T12:42:50.982Z</time>
      </trkpt>
      <trkpt lat="47.2549" lon="-2.2493">
        <ele>23</ele>
        <time>2021-05-23T12:42:51.982Z</time>
      </trkpt>
      <trkpt lat="47.25491" lon="-2.2493">
        <ele>23</ele>
        <time>2021-05-23T12:42:52.982Z</time>
      </trkpt>
      <trkpt lat="47.25492" lon="-2.2493">
        <ele>23</ele>
        <time>2021-05-23T12:42:53.982Z</time>
      </trkpt>
      <trkpt lat="47.25493" lon="-2.2493">
        <ele>22</ele>
        <time>2021-05-23T12:42:54.983Z</time>
      </trkpt>
      <trkpt lat="47.25494" lon="-2.2493">
        <ele>22</ele>
        <time>2021-05-23T12:42:55.982Z</time>
      </trkpt>
      <trkpt lat="47.25495" lon="-2.2493">
        <ele>22</ele>
        <time>2021-05-23T12:42:56.983Z</time>
      </trkpt>
      <trkpt lat="47.25497" lon="-2.24929">
        <ele>22</ele>
        <time>2021-05-23T12:42:57.982Z</time>
      </trkpt>
      <trkpt lat="47.25499" lon="-2.24928">
        <ele>22</ele>
        <time>2021-05-23T12:42:58.982Z</time>
      </trkpt>
      <trkpt lat="47.25501" lon="-2.24927">
        <ele>22</ele>
        <time>2021-05-23T12:42:59.982Z</time>
      </trkpt>
      <trkpt lat="47.25502" lon="-2.24926">
        <ele>22</ele>
        <time>2021-05-23T12:43:00.982Z</time>
      </trkpt>
      <trkpt lat="47.25503" lon="-2.24926">
        <ele>22</ele>
        <time>2021-05-23T12:43:01.982Z</time>
      </trkpt>
      <trkpt lat="47.25503" lon="-2.24925">
        <ele>22</ele>
        <time>2021-05-23T12:43:02.982Z</time>
      </trkpt>
      <trkpt lat="47.25505" lon="-2.24924">
        <ele>21</ele>
        <time>2021-05-23T12:43:03.982Z</time>
      </trkpt>
      <trkpt lat="47.25507" lon="-2.24924">
        <ele>21</ele>
        <time>2021-05-23T12:43:04.982Z</time>
      </trkpt>
      <trkpt lat="47.25508" lon="-2.24923">
        <ele>21</ele>
        <time>2021-05-23T12:43:05.982Z</time>
      </trkpt>
      <trkpt lat="47.25509" lon="-2.24923">
        <ele>21</ele>
        <time>2021-05-23T12:43:06.983Z</time>
      </trkpt>
      <trkpt lat="47.2551" lon="-2.24923">
        <ele>21</ele>
        <time>2021-05-23T12:43:07.983Z</time>
      </trkpt>
      <trkpt lat="47.25511" lon="-2.24922">
        <ele>21</ele>
        <time>2021-05-23T12:43:08.983Z</time>
      </trkpt>
      <trkpt lat="47.25511" lon="-2.24922">
        <ele>21</ele>
        <time>2021-05-23T12:43:09.982Z</time>
      </trkpt>
      <trkpt lat="47.25512" lon="-2.24921">
        <ele>20</ele>
        <time>2021-05-23T12:43:10.982Z</time>
      </trkpt>
      <trkpt lat="47.25512" lon="-2.24921">
        <ele>20</ele>
        <time>2021-05-23T12:43:11.982Z</time>
      </trkpt>
      <trkpt lat="47.25513" lon="-2.2492">
        <ele>20</ele>
        <time>2021-05-23T12:43:12.983Z</time>
      </trkpt>
      <trkpt lat="47.25513" lon="-2.2492">
        <ele>20</ele>
        <time>2021-05-23T12:43:13.982Z</time>
      </trkpt>
      <trkpt lat="47.25514" lon="-2.24919">
        <ele>20</ele>
        <time>2021-05-23T12:43:14.982Z</time>
      </trkpt>
      <trkpt lat="47.25515" lon="-2.24918">
        <ele>20</ele>
        <time>2021-05-23T12:43:15.982Z</time>
      </trkpt>
      <trkpt lat="47.25516" lon="-2.24917">
        <ele>20</ele>
        <time>2021-05-23T12:43:16.982Z</time>
      </trkpt>
      <trkpt lat="47.25516" lon="-2.24917">
        <ele>20</ele>
        <time>2021-05-23T12:43:17.983Z</time>
      </trkpt>
      <trkpt lat="47.25517" lon="-2.24916">
        <ele>20</ele>
        <time>2021-05-23T12:43:18.982Z</time>
      </trkpt>
      <trkpt lat="47.25518" lon="-2.24915">
        <ele>20</ele>
        <time>2021-05-23T12:43:19.982Z</time>
      </trkpt>
      <trkpt lat="47.25519" lon="-2.24914">
        <ele>20</ele>
        <time>2021-05-23T12:43:20.982Z</time>
      </trkpt>
      <trkpt lat="47.2552" lon="-2.24914">
        <ele>20</ele>
        <time>2021-05-23T12:43:21.982Z</time>
      </trkpt>
      <trkpt lat="47.2552" lon="-2.24914">
        <ele>20</ele>
        <time>2021-05-23T12:43:22.982Z</time>
      </trkpt>
      <trkpt lat="47.25521" lon="-2.24913">
        <ele>20</ele>
        <time>2021-05-23T12:43:23.982Z</time>
      </trkpt>
      <trkpt lat="47.25521" lon="-2.24913">
        <ele>20</ele>
        <time>2021-05-23T12:43:24.983Z</time>
      </trkpt>
      <trkpt lat="47.25522" lon="-2.24914">
        <ele>20</ele>
        <time>2021-05-23T12:43:25.982Z</time>
      </trkpt>
      <trkpt lat="47.25524" lon="-2.24913">
        <ele>20</ele>
        <time>2021-05-23T12:43:26.982Z</time>
      </trkpt>
      <trkpt lat="47.25526" lon="-2.24912">
        <ele>20</ele>
        <time>2021-05-23T12:43:27.982Z</time>
      </trkpt>
      <trkpt lat="47.25528" lon="-2.2491">
        <ele>20</ele>
        <time>2021-05-23T12:43:28.982Z</time>
      </trkpt>
      <trkpt lat="47.25529" lon="-2.24909">
        <ele>20</ele>
        <time>2021-05-23T12:43:29.982Z</time>
      </trkpt>
      <trkpt lat="47.2553" lon="-2.24908">
        <ele>20</ele>
        <time>2021-05-23T12:43:30.982Z</time>
      </trkpt>
      <trkpt lat="47.25531" lon="-2.24907">
        <ele>20</ele>
        <time>2021-05-23T12:43:31.982Z</time>
      </trkpt>
      <trkpt lat="47.25531" lon="-2.24905">
        <ele>20</ele>
        <time>2021-05-23T12:43:32.983Z</time>
      </trkpt>
      <trkpt lat="47.25532" lon="-2.24904">
        <ele>21</ele>
        <time>2021-05-23T12:43:33.982Z</time>
      </trkpt>
      <trkpt lat="47.25533" lon="-2.24903">
        <ele>21</ele>
        <time>2021-05-23T12:43:34.982Z</time>
      </trkpt>
      <trkpt lat="47.25534" lon="-2.24902">
        <ele>21</ele>
        <time>2021-05-23T12:43:35.982Z</time>
      </trkpt>
      <trkpt lat="47.25536" lon="-2.24902">
        <ele>21</ele>
        <time>2021-05-23T12:43:36.982Z</time>
      </trkpt>
      <trkpt lat="47.25537" lon="-2.24902">
        <ele>21</ele>
        <time>2021-05-23T12:43:37.982Z</time>
      </trkpt>
      <trkpt lat="47.25538" lon="-2.24901">
        <ele>21</ele>
        <time>2021-05-23T12:43:38.982Z</time>
      </trkpt>
      <trkpt lat="47.25538" lon="-2.24901">
        <ele>21</ele>
        <time>2021-05-23T12:43:39.983Z</time>
      </trkpt>
      <trkpt lat="47.25538" lon="-2.24901">
        <ele>21</ele>
        <time>2021-05-23T12:43:40.982Z</time>
      </trkpt>
      <trkpt lat="47.25539" lon="-2.24901">
        <ele>21</ele>
        <time>2021-05-23T12:43:41.983Z</time>
      </trkpt>
      <trkpt lat="47.2554" lon="-2.249">
        <ele>21</ele>
        <time>2021-05-23T12:43:42.982Z</time>
      </trkpt>
      <trkpt lat="47.25541" lon="-2.249">
        <ele>21</ele>
        <time>2021-05-23T12:43:43.982Z</time>
      </trkpt>
      <trkpt lat="47.25541" lon="-2.24899">
        <ele>21</ele>
        <time>2021-05-23T12:43:44.983Z</time>
      </trkpt>
      <trkpt lat="47.25542" lon="-2.24899">
        <ele>21</ele>
        <time>2021-05-23T12:43:45.983Z</time>
      </trkpt>
      <trkpt lat="47.25543" lon="-2.24899">
        <ele>21</ele>
        <time>2021-05-23T12:43:46.983Z</time>
      </trkpt>
      <trkpt lat="47.25544" lon="-2.24898">
        <ele>20</ele>
        <time>2021-05-23T12:43:47.982Z</time>
      </trkpt>
      <trkpt lat="47.25545" lon="-2.24897">
        <ele>20</ele>
        <time>2021-05-23T12:43:48.982Z</time>
      </trkpt>
      <trkpt lat="47.25545" lon="-2.24897">
        <ele>20</ele>
        <time>2021-05-23T12:43:49.982Z</time>
      </trkpt>
      <trkpt lat="47.25546" lon="-2.24896">
        <ele>20</ele>
        <time>2021-05-23T12:43:50.983Z</time>
      </trkpt>
      <trkpt lat="47.25548" lon="-2.24895">
        <ele>20</ele>
        <time>2021-05-23T12:43:51.982Z</time>
      </trkpt>
      <trkpt lat="47.25549" lon="-2.24895">
        <ele>20</ele>
        <time>2021-05-23T12:43:52.983Z</time>
      </trkpt>
      <trkpt lat="47.2555" lon="-2.24894">
        <ele>20</ele>
        <time>2021-05-23T12:43:53.982Z</time>
      </trkpt>
      <trkpt lat="47.25552" lon="-2.24892">
        <ele>20</ele>
        <time>2021-05-23T12:43:54.982Z</time>
      </trkpt>
      <trkpt lat="47.25554" lon="-2.24891">
        <ele>20</ele>
        <time>2021-05-23T12:43:55.982Z</time>
      </trkpt>
      <trkpt lat="47.25557" lon="-2.2489">
        <ele>20</ele>
        <time>2021-05-23T12:43:56.983Z</time>
      </trkpt>
      <trkpt lat="47.25559" lon="-2.24888">
        <ele>20</ele>
        <time>2021-05-23T12:43:57.982Z</time>
      </trkpt>
      <trkpt lat="47.25561" lon="-2.24887">
        <ele>20</ele>
        <time>2021-05-23T12:43:58.982Z</time>
      </trkpt>
      <trkpt lat="47.25563" lon="-2.24885">
        <ele>20</ele>
        <time>2021-05-23T12:43:59.982Z</time>
      </trkpt>
      <trkpt lat="47.25564" lon="-2.24882">
        <ele>20</ele>
        <time>2021-05-23T12:44:00.983Z</time>
      </trkpt>
      <trkpt lat="47.25566" lon="-2.2488">
        <ele>21</ele>
        <time>2021-05-23T12:44:01.982Z</time>
      </trkpt>
      <trkpt lat="47.25568" lon="-2.24878">
        <ele>21</ele>
        <time>2021-05-23T12:44:02.982Z</time>
      </trkpt>
      <trkpt lat="47.25569" lon="-2.24876">
        <ele>21</ele>
        <time>2021-05-23T12:44:03.983Z</time>
      </trkpt>
      <trkpt lat="47.2557" lon="-2.24874">
        <ele>21</ele>
        <time>2021-05-23T12:44:04.982Z</time>
      </trkpt>
      <trkpt lat="47.25571" lon="-2.24872">
        <ele>21</ele>
        <time>2021-05-23T12:44:05.982Z</time>
      </trkpt>
      <trkpt lat="47.25573" lon="-2.2487">
        <ele>21</ele>
        <time>2021-05-23T12:44:06.982Z</time>
      </trkpt>
      <trkpt lat="47.25573" lon="-2.24867">
        <ele>22</ele>
        <time>2021-05-23T12:44:07.982Z</time>
      </trkpt>
      <trkpt lat="47.25574" lon="-2.24864">
        <ele>22</ele>
        <time>2021-05-23T12:44:08.982Z</time>
      </trkpt>
      <trkpt lat="47.25575" lon="-2.24861">
        <ele>22</ele>
        <time>2021-05-23T12:44:09.982Z</time>
      </trkpt>
      <trkpt lat="47.25576" lon="-2.2486">
        <ele>22</ele>
        <time>2021-05-23T12:44:10.983Z</time>
      </trkpt>
      <trkpt lat="47.25578" lon="-2.24858">
        <ele>22</ele>
        <time>2021-05-23T12:44:11.982Z</time>
      </trkpt>
      <trkpt lat="47.25579" lon="-2.24856">
        <ele>22</ele>
        <time>2021-05-23T12:44:12.983Z</time>
      </trkpt>
      <trkpt lat="47.25581" lon="-2.24854">
        <ele>22</ele>
        <time>2021-05-23T12:44:13.982Z</time>
      </trkpt>
      <trkpt lat="47.25582" lon="-2.24852">
        <ele>22</ele>
        <time>2021-05-23T12:44:14.982Z</time>
      </trkpt>
      <trkpt lat="47.25583" lon="-2.24849">
        <ele>21</ele>
        <time>2021-05-23T12:44:15.982Z</time>
      </trkpt>
      <trkpt lat="47.25584" lon="-2.24847">
        <ele>21</ele>
        <time>2021-05-23T12:44:16.982Z</time>
      </trkpt>
      <trkpt lat="47.25586" lon="-2.24844">
        <ele>21</ele>
        <time>2021-05-23T12:44:17.983Z</time>
      </trkpt>
      <trkpt lat="47.25587" lon="-2.24842">
        <ele>21</ele>
        <time>2021-05-23T12:44:18.982Z</time>
      </trkpt>
      <trkpt lat="47.25588" lon="-2.24839">
        <ele>21</ele>
        <time>2021-05-23T12:44:19.982Z</time>
      </trkpt>
      <trkpt lat="47.25588" lon="-2.24837">
        <ele>21</ele>
        <time>2021-05-23T12:44:20.982Z</time>
      </trkpt>
      <trkpt lat="47.2559" lon="-2.24834">
        <ele>21</ele>
        <time>2021-05-23T12:44:21.983Z</time>
      </trkpt>
      <trkpt lat="47.25591" lon="-2.24831">
        <ele>20</ele>
        <time>2021-05-23T12:44:22.982Z</time>
      </trkpt>
      <trkpt lat="47.25592" lon="-2.24828">
        <ele>20</ele>
        <time>2021-05-23T12:44:23.982Z</time>
      </trkpt>
      <trkpt lat="47.25593" lon="-2.24826">
        <ele>20</ele>
        <time>2021-05-23T12:44:24.982Z</time>
      </trkpt>
      <trkpt lat="47.25595" lon="-2.24823">
        <ele>20</ele>
        <time>2021-05-23T12:44:25.983Z</time>
      </trkpt>
      <trkpt lat="47.25596" lon="-2.2482">
        <ele>20</ele>
        <time>2021-05-23T12:44:26.982Z</time>
      </trkpt>
      <trkpt lat="47.25596" lon="-2.24818">
        <ele>20</ele>
        <time>2021-05-23T12:44:27.982Z</time>
      </trkpt>
      <trkpt lat="47.25597" lon="-2.24815">
        <ele>20</ele>
        <time>2021-05-23T12:44:28.983Z</time>
      </trkpt>
      <trkpt lat="47.25598" lon="-2.24813">
        <ele>21</ele>
        <time>2021-05-23T12:44:29.982Z</time>
      </trkpt>
      <trkpt lat="47.25599" lon="-2.2481">
        <ele>21</ele>
        <time>2021-05-23T12:44:30.983Z</time>
      </trkpt>
      <trkpt lat="47.256" lon="-2.24808">
        <ele>21</ele>
        <time>2021-05-23T12:44:31.983Z</time>
      </trkpt>
      <trkpt lat="47.25601" lon="-2.24805">
        <ele>22</ele>
        <time>2021-05-23T12:44:32.982Z</time>
      </trkpt>
      <trkpt lat="47.25602" lon="-2.24803">
        <ele>22</ele>
        <time>2021-05-23T12:44:33.982Z</time>
      </trkpt>
      <trkpt lat="47.25603" lon="-2.248">
        <ele>22</ele>
        <time>2021-05-23T12:44:34.982Z</time>
      </trkpt>
      <trkpt lat="47.25604" lon="-2.24798">
        <ele>22</ele>
        <time>2021-05-23T12:44:35.982Z</time>
      </trkpt>
      <trkpt lat="47.25605" lon="-2.24795">
        <ele>22</ele>
        <time>2021-05-23T12:44:36.982Z</time>
      </trkpt>
      <trkpt lat="47.25606" lon="-2.24792">
        <ele>22</ele>
        <time>2021-05-23T12:44:37.983Z</time>
      </trkpt>
      <trkpt lat="47.25607" lon="-2.2479">
        <ele>22</ele>
        <time>2021-05-23T12:44:38.982Z</time>
      </trkpt>
      <trkpt lat="47.25608" lon="-2.24788">
        <ele>22</ele>
        <time>2021-05-23T12:44:39.982Z</time>
      </trkpt>
      <trkpt lat="47.25608" lon="-2.24786">
        <ele>21</ele>
        <time>2021-05-23T12:44:40.982Z</time>
      </trkpt>
      <trkpt lat="47.25609" lon="-2.24784">
        <ele>21</ele>
        <time>2021-05-23T12:44:41.982Z</time>
      </trkpt>
      <trkpt lat="47.25609" lon="-2.24782">
        <ele>21</ele>
        <time>2021-05-23T12:44:42.982Z</time>
      </trkpt>
      <trkpt lat="47.25609" lon="-2.2478">
        <ele>21</ele>
        <time>2021-05-23T12:44:43.982Z</time>
      </trkpt>
      <trkpt lat="47.25609" lon="-2.24779">
        <ele>21</ele>
        <time>2021-05-23T12:44:44.983Z</time>
      </trkpt>
      <trkpt lat="47.25609" lon="-2.24777">
        <ele>21</ele>
        <time>2021-05-23T12:44:45.982Z</time>
      </trkpt>
      <trkpt lat="47.25609" lon="-2.24775">
        <ele>21</ele>
        <time>2021-05-23T12:44:46.982Z</time>
      </trkpt>
      <trkpt lat="47.2561" lon="-2.24773">
        <ele>20</ele>
        <time>2021-05-23T12:44:47.982Z</time>
      </trkpt>
      <trkpt lat="47.2561" lon="-2.24771">
        <ele>19</ele>
        <time>2021-05-23T12:44:48.982Z</time>
      </trkpt>
      <trkpt lat="47.25612" lon="-2.24769">
        <ele>18</ele>
        <time>2021-05-23T12:44:49.982Z</time>
      </trkpt>
      <trkpt lat="47.25613" lon="-2.24766">
        <ele>18</ele>
        <time>2021-05-23T12:44:50.982Z</time>
      </trkpt>
      <trkpt lat="47.25613" lon="-2.24765">
        <ele>17</ele>
        <time>2021-05-23T12:44:51.982Z</time>
      </trkpt>
      <trkpt lat="47.25613" lon="-2.24763">
        <ele>17</ele>
        <time>2021-05-23T12:44:52.982Z</time>
      </trkpt>
      <trkpt lat="47.25614" lon="-2.24761">
        <ele>16</ele>
        <time>2021-05-23T12:44:53.982Z</time>
      </trkpt>
      <trkpt lat="47.25615" lon="-2.24759">
        <ele>16</ele>
        <time>2021-05-23T12:44:54.983Z</time>
      </trkpt>
      <trkpt lat="47.25615" lon="-2.24756">
        <ele>16</ele>
        <time>2021-05-23T12:44:55.982Z</time>
      </trkpt>
      <trkpt lat="47.25615" lon="-2.24754">
        <ele>16</ele>
        <time>2021-05-23T12:44:56.982Z</time>
      </trkpt>
      <trkpt lat="47.25616" lon="-2.24752">
        <ele>15</ele>
        <time>2021-05-23T12:44:57.982Z</time>
      </trkpt>
      <trkpt lat="47.25616" lon="-2.2475">
        <ele>15</ele>
        <time>2021-05-23T12:44:58.983Z</time>
      </trkpt>
      <trkpt lat="47.25616" lon="-2.24749">
        <ele>15</ele>
        <time>2021-05-23T12:44:59.982Z</time>
      </trkpt>
      <trkpt lat="47.25617" lon="-2.24748">
        <ele>15</ele>
        <time>2021-05-23T12:45:00.982Z</time>
      </trkpt>
      <trkpt lat="47.25617" lon="-2.24746">
        <ele>15</ele>
        <time>2021-05-23T12:45:01.982Z</time>
      </trkpt>
      <trkpt lat="47.25618" lon="-2.24744">
        <ele>14</ele>
        <time>2021-05-23T12:45:02.983Z</time>
      </trkpt>
      <trkpt lat="47.25617" lon="-2.24742">
        <ele>14</ele>
        <time>2021-05-23T12:45:03.982Z</time>
      </trkpt>
      <trkpt lat="47.25617" lon="-2.2474">
        <ele>14</ele>
        <time>2021-05-23T12:45:04.982Z</time>
      </trkpt>
      <trkpt lat="47.25618" lon="-2.24738">
        <ele>14</ele>
        <time>2021-05-23T12:45:05.983Z</time>
      </trkpt>
      <trkpt lat="47.25618" lon="-2.24736">
        <ele>14</ele>
        <time>2021-05-23T12:45:06.982Z</time>
      </trkpt>
      <trkpt lat="47.25618" lon="-2.24734">
        <ele>14</ele>
        <time>2021-05-23T12:45:07.982Z</time>
      </trkpt>
      <trkpt lat="47.25619" lon="-2.24732">
        <ele>14</ele>
        <time>2021-05-23T12:45:08.982Z</time>
      </trkpt>
      <trkpt lat="47.25618" lon="-2.2473">
        <ele>14</ele>
        <time>2021-05-23T12:45:09.982Z</time>
      </trkpt>
      <trkpt lat="47.25619" lon="-2.24728">
        <ele>14</ele>
        <time>2021-05-23T12:45:10.983Z</time>
      </trkpt>
      <trkpt lat="47.25619" lon="-2.24726">
        <ele>14</ele>
        <time>2021-05-23T12:45:11.982Z</time>
      </trkpt>
      <trkpt lat="47.2562" lon="-2.24724">
        <ele>14</ele>
        <time>2021-05-23T12:45:12.982Z</time>
      </trkpt>
      <trkpt lat="47.25621" lon="-2.24722">
        <ele>14</ele>
        <time>2021-05-23T12:45:13.983Z</time>
      </trkpt>
      <trkpt lat="47.25622" lon="-2.24719">
        <ele>15</ele>
        <time>2021-05-23T12:45:14.983Z</time>
      </trkpt>
      <trkpt lat="47.25623" lon="-2.24717">
        <ele>15</ele>
        <time>2021-05-23T12:45:15.982Z</time>
      </trkpt>
      <trkpt lat="47.25624" lon="-2.24714">
        <ele>15</ele>
        <time>2021-05-23T12:45:16.982Z</time>
      </trkpt>
      <trkpt lat="47.25623" lon="-2.24711">
        <ele>15</ele>
        <time>2021-05-23T12:45:17.982Z</time>
      </trkpt>
      <trkpt lat="47.25623" lon="-2.24707">
        <ele>15</ele>
        <time>2021-05-23T12:45:18.982Z</time>
      </trkpt>
      <trkpt lat="47.25623" lon="-2.24705">
        <ele>15</ele>
        <time>2021-05-23T12:45:19.982Z</time>
      </trkpt>
      <trkpt lat="47.25623" lon="-2.24702">
        <ele>14</ele>
        <time>2021-05-23T12:45:20.982Z</time>
      </trkpt>
      <trkpt lat="47.25623" lon="-2.24699">
        <ele>14</ele>
        <time>2021-05-23T12:45:21.982Z</time>
      </trkpt>
      <trkpt lat="47.25623" lon="-2.24697">
        <ele>14</ele>
        <time>2021-05-23T12:45:22.983Z</time>
      </trkpt>
      <trkpt lat="47.25623" lon="-2.24696">
        <ele>14</ele>
        <time>2021-05-23T12:45:23.982Z</time>
      </trkpt>
      <trkpt lat="47.25622" lon="-2.24694">
        <ele>13</ele>
        <time>2021-05-23T12:45:24.982Z</time>
      </trkpt>
      <trkpt lat="47.25622" lon="-2.24692">
        <ele>13</ele>
        <time>2021-05-23T12:45:25.982Z</time>
      </trkpt>
      <trkpt lat="47.25622" lon="-2.2469">
        <ele>12</ele>
        <time>2021-05-23T12:45:26.983Z</time>
      </trkpt>
      <trkpt lat="47.25622" lon="-2.24687">
        <ele>12</ele>
        <time>2021-05-23T12:45:27.983Z</time>
      </trkpt>
      <trkpt lat="47.25622" lon="-2.24684">
        <ele>12</ele>
        <time>2021-05-23T12:45:28.982Z</time>
      </trkpt>
      <trkpt lat="47.25622" lon="-2.24681">
        <ele>11</ele>
        <time>2021-05-23T12:45:29.982Z</time>
      </trkpt>
      <trkpt lat="47.25621" lon="-2.24678">
        <ele>11</ele>
        <time>2021-05-23T12:45:30.982Z</time>
      </trkpt>
      <trkpt lat="47.25622" lon="-2.24675">
        <ele>11</ele>
        <time>2021-05-23T12:45:31.982Z</time>
      </trkpt>
      <trkpt lat="47.25622" lon="-2.24671">
        <ele>11</ele>
        <time>2021-05-23T12:45:32.982Z</time>
      </trkpt>
      <trkpt lat="47.25622" lon="-2.24668">
        <ele>11</ele>
        <time>2021-05-23T12:45:33.983Z</time>
      </trkpt>
      <trkpt lat="47.25623" lon="-2.24664">
        <ele>11</ele>
        <time>2021-05-23T12:45:34.982Z</time>
      </trkpt>
      <trkpt lat="47.25623" lon="-2.24661">
        <ele>11</ele>
        <time>2021-05-23T12:45:35.982Z</time>
      </trkpt>
      <trkpt lat="47.25623" lon="-2.24657">
        <ele>11</ele>
        <time>2021-05-23T12:45:36.982Z</time>
      </trkpt>
      <trkpt lat="47.25624" lon="-2.24654">
        <ele>11</ele>
        <time>2021-05-23T12:45:37.982Z</time>
      </trkpt>
      <trkpt lat="47.25625" lon="-2.24651">
        <ele>11</ele>
        <time>2021-05-23T12:45:38.982Z</time>
      </trkpt>
      <trkpt lat="47.25625" lon="-2.24648">
        <ele>11</ele>
        <time>2021-05-23T12:45:39.982Z</time>
      </trkpt>
      <trkpt lat="47.25625" lon="-2.24645">
        <ele>12</ele>
        <time>2021-05-23T12:45:40.982Z</time>
      </trkpt>
      <trkpt lat="47.25625" lon="-2.24642">
        <ele>12</ele>
        <time>2021-05-23T12:45:41.982Z</time>
      </trkpt>
      <trkpt lat="47.25626" lon="-2.24641">
        <ele>12</ele>
        <time>2021-05-23T12:45:42.982Z</time>
      </trkpt>
      <trkpt lat="47.25626" lon="-2.24639">
        <ele>12</ele>
        <time>2021-05-23T12:45:43.982Z</time>
      </trkpt>
      <trkpt lat="47.25627" lon="-2.24638">
        <ele>13</ele>
        <time>2021-05-23T12:45:44.982Z</time>
      </trkpt>
      <trkpt lat="47.25627" lon="-2.24637">
        <ele>13</ele>
        <time>2021-05-23T12:45:45.982Z</time>
      </trkpt>
      <trkpt lat="47.25627" lon="-2.24637">
        <ele>13</ele>
        <time>2021-05-23T12:45:46.982Z</time>
      </trkpt>
      <trkpt lat="47.25628" lon="-2.24636">
        <ele>13</ele>
        <time>2021-05-23T12:45:47.983Z</time>
      </trkpt>
      <trkpt lat="47.25628" lon="-2.24634">
        <ele>14</ele>
        <time>2021-05-23T12:45:48.982Z</time>
      </trkpt>
      <trkpt lat="47.25629" lon="-2.24633">
        <ele>14</ele>
        <time>2021-05-23T12:45:49.982Z</time>
      </trkpt>
      <trkpt lat="47.25629" lon="-2.24631">
        <ele>14</ele>
        <time>2021-05-23T12:45:50.982Z</time>
      </trkpt>
      <trkpt lat="47.25629" lon="-2.2463">
        <ele>14</ele>
        <time>2021-05-23T12:45:51.982Z</time>
      </trkpt>
      <trkpt lat="47.2563" lon="-2.24628">
        <ele>14</ele>
        <time>2021-05-23T12:45:52.982Z</time>
      </trkpt>
      <trkpt lat="47.2563" lon="-2.24626">
        <ele>14</ele>
        <time>2021-05-23T12:45:53.982Z</time>
      </trkpt>
      <trkpt lat="47.25629" lon="-2.24624">
        <ele>14</ele>
        <time>2021-05-23T12:45:54.982Z</time>
      </trkpt>
      <trkpt lat="47.25629" lon="-2.24623">
        <ele>14</ele>
        <time>2021-05-23T12:45:55.982Z</time>
      </trkpt>
      <trkpt lat="47.2563" lon="-2.24622">
        <ele>14</ele>
        <time>2021-05-23T12:45:56.983Z</time>
      </trkpt>
      <trkpt lat="47.2563" lon="-2.24621">
        <ele>14</ele>
        <time>2021-05-23T12:45:57.982Z</time>
      </trkpt>
      <trkpt lat="47.25629" lon="-2.2462">
        <ele>13</ele>
        <time>2021-05-23T12:45:58.982Z</time>
      </trkpt>
      <trkpt lat="47.25629" lon="-2.24619">
        <ele>13</ele>
        <time>2021-05-23T12:45:59.982Z</time>
      </trkpt>
      <trkpt lat="47.25628" lon="-2.24618">
        <ele>13</ele>
        <time>2021-05-23T12:46:00.983Z</time>
      </trkpt>
      <trkpt lat="47.25628" lon="-2.24617">
        <ele>13</ele>
        <time>2021-05-23T12:46:01.982Z</time>
      </trkpt>
      <trkpt lat="47.25627" lon="-2.24616">
        <ele>13</ele>
        <time>2021-05-23T12:46:02.983Z</time>
      </trkpt>
      <trkpt lat="47.25626" lon="-2.24615">
        <ele>13</ele>
        <time>2021-05-23T12:46:03.982Z</time>
      </trkpt>
      <trkpt lat="47.25627" lon="-2.24613">
        <ele>14</ele>
        <time>2021-05-23T12:46:04.982Z</time>
      </trkpt>
      <trkpt lat="47.25627" lon="-2.24611">
        <ele>14</ele>
        <time>2021-05-23T12:46:05.982Z</time>
      </trkpt>
      <trkpt lat="47.25628" lon="-2.2461">
        <ele>14</ele>
        <time>2021-05-23T12:46:06.982Z</time>
      </trkpt>
      <trkpt lat="47.25629" lon="-2.24608">
        <ele>14</ele>
        <time>2021-05-23T12:46:07.982Z</time>
      </trkpt>
      <trkpt lat="47.2563" lon="-2.24606">
        <ele>14</ele>
        <time>2021-05-23T12:46:08.983Z</time>
      </trkpt>
      <trkpt lat="47.25631" lon="-2.24604">
        <ele>14</ele>
        <time>2021-05-23T12:46:09.983Z</time>
      </trkpt>
      <trkpt lat="47.25631" lon="-2.24602">
        <ele>14</ele>
        <time>2021-05-23T12:46:10.982Z</time>
      </trkpt>
      <trkpt lat="47.25631" lon="-2.24601">
        <ele>14</ele>
        <time>2021-05-23T12:46:11.983Z</time>
      </trkpt>
      <trkpt lat="47.25631" lon="-2.24599">
        <ele>14</ele>
        <time>2021-05-23T12:46:12.982Z</time>
      </trkpt>
      <trkpt lat="47.25631" lon="-2.24597">
        <ele>13</ele>
        <time>2021-05-23T12:46:13.983Z</time>
      </trkpt>
      <trkpt lat="47.25631" lon="-2.24594">
        <ele>13</ele>
        <time>2021-05-23T12:46:14.982Z</time>
      </trkpt>
      <trkpt lat="47.25631" lon="-2.24591">
        <ele>13</ele>
        <time>2021-05-23T12:46:15.982Z</time>
      </trkpt>
      <trkpt lat="47.25631" lon="-2.24589">
        <ele>13</ele>
        <time>2021-05-23T12:46:16.982Z</time>
      </trkpt>
      <trkpt lat="47.25632" lon="-2.24586">
        <ele>13</ele>
        <time>2021-05-23T12:46:17.982Z</time>
      </trkpt>
      <trkpt lat="47.25633" lon="-2.24583">
        <ele>13</ele>
        <time>2021-05-23T12:46:18.983Z</time>
      </trkpt>
      <trkpt lat="47.25632" lon="-2.2458">
        <ele>14</ele>
        <time>2021-05-23T12:46:19.982Z</time>
      </trkpt>
      <trkpt lat="47.25632" lon="-2.24577">
        <ele>14</ele>
        <time>2021-05-23T12:46:20.982Z</time>
      </trkpt>
      <trkpt lat="47.25632" lon="-2.24575">
        <ele>15</ele>
        <time>2021-05-23T12:46:21.982Z</time>
      </trkpt>
      <trkpt lat="47.25631" lon="-2.24572">
        <ele>15</ele>
        <time>2021-05-23T12:46:22.982Z</time>
      </trkpt>
      <trkpt lat="47.25631" lon="-2.2457">
        <ele>15</ele>
        <time>2021-05-23T12:46:23.982Z</time>
      </trkpt>
      <trkpt lat="47.25631" lon="-2.24568">
        <ele>15</ele>
        <time>2021-05-23T12:46:24.982Z</time>
      </trkpt>
      <trkpt lat="47.25631" lon="-2.24567">
        <ele>16</ele>
        <time>2021-05-23T12:46:25.982Z</time>
      </trkpt>
      <trkpt lat="47.25631" lon="-2.24565">
        <ele>16</ele>
        <time>2021-05-23T12:46:26.982Z</time>
      </trkpt>
      <trkpt lat="47.2563" lon="-2.24563">
        <ele>16</ele>
        <time>2021-05-23T12:46:27.982Z</time>
      </trkpt>
      <trkpt lat="47.2563" lon="-2.24561">
        <ele>16</ele>
        <time>2021-05-23T12:46:28.982Z</time>
      </trkpt>
      <trkpt lat="47.25629" lon="-2.2456">
        <ele>16</ele>
        <time>2021-05-23T12:46:29.982Z</time>
      </trkpt>
      <trkpt lat="47.25629" lon="-2.24557">
        <ele>16</ele>
        <time>2021-05-23T12:46:30.982Z</time>
      </trkpt>
      <trkpt lat="47.25628" lon="-2.24555">
        <ele>16</ele>
        <time>2021-05-23T12:46:31.982Z</time>
      </trkpt>
      <trkpt lat="47.25629" lon="-2.24553">
        <ele>16</ele>
        <time>2021-05-23T12:46:32.982Z</time>
      </trkpt>
      <trkpt lat="47.25629" lon="-2.24552">
        <ele>16</ele>
        <time>2021-05-23T12:46:33.983Z</time>
      </trkpt>
      <trkpt lat="47.25628" lon="-2.24551">
        <ele>16</ele>
        <time>2021-05-23T12:46:34.982Z</time>
      </trkpt>
      <trkpt lat="47.25629" lon="-2.2455">
        <ele>16</ele>
        <time>2021-05-23T12:46:35.982Z</time>
      </trkpt>
      <trkpt lat="47.25628" lon="-2.24549">
        <ele>16</ele>
        <time>2021-05-23T12:46:36.982Z</time>
      </trkpt>
      <trkpt lat="47.25629" lon="-2.24548">
        <ele>16</ele>
        <time>2021-05-23T12:46:37.982Z</time>
      </trkpt>
      <trkpt lat="47.25629" lon="-2.24546">
        <ele>16</ele>
        <time>2021-05-23T12:46:38.982Z</time>
      </trkpt>
      <trkpt lat="47.25629" lon="-2.24545">
        <ele>16</ele>
        <time>2021-05-23T12:46:39.982Z</time>
      </trkpt>
      <trkpt lat="47.25628" lon="-2.24543">
        <ele>16</ele>
        <time>2021-05-23T12:46:40.983Z</time>
      </trkpt>
      <trkpt lat="47.25628" lon="-2.24541">
        <ele>16</ele>
        <time>2021-05-23T12:46:41.982Z</time>
      </trkpt>
      <trkpt lat="47.25627" lon="-2.24539">
        <ele>16</ele>
        <time>2021-05-23T12:46:42.983Z</time>
      </trkpt>
      <trkpt lat="47.25627" lon="-2.24536">
        <ele>16</ele>
        <time>2021-05-23T12:46:43.982Z</time>
      </trkpt>
      <trkpt lat="47.25627" lon="-2.24535">
        <ele>16</ele>
        <time>2021-05-23T12:46:44.982Z</time>
      </trkpt>
      <trkpt lat="47.25627" lon="-2.24533">
        <ele>15</ele>
        <time>2021-05-23T12:46:45.982Z</time>
      </trkpt>
      <trkpt lat="47.25627" lon="-2.24532">
        <ele>15</ele>
        <time>2021-05-23T12:46:46.982Z</time>
      </trkpt>
      <trkpt lat="47.25628" lon="-2.24532">
        <ele>15</ele>
        <time>2021-05-23T12:46:47.982Z</time>
      </trkpt>
      <trkpt lat="47.25627" lon="-2.24531">
        <ele>15</ele>
        <time>2021-05-23T12:46:48.983Z</time>
      </trkpt>
      <trkpt lat="47.25627" lon="-2.24531">
        <ele>14</ele>
        <time>2021-05-23T12:46:49.983Z</time>
      </trkpt>
      <trkpt lat="47.25626" lon="-2.2453">
        <ele>14</ele>
        <time>2021-05-23T12:46:50.982Z</time>
      </trkpt>
      <trkpt lat="47.25626" lon="-2.2453">
        <ele>13</ele>
        <time>2021-05-23T12:46:51.983Z</time>
      </trkpt>
      <trkpt lat="47.25627" lon="-2.24529">
        <ele>12</ele>
        <time>2021-05-23T12:46:52.982Z</time>
      </trkpt>
      <trkpt lat="47.25627" lon="-2.24528">
        <ele>12</ele>
        <time>2021-05-23T12:46:53.983Z</time>
      </trkpt>
      <trkpt lat="47.25627" lon="-2.24527">
        <ele>11</ele>
        <time>2021-05-23T12:46:54.982Z</time>
      </trkpt>
      <trkpt lat="47.25627" lon="-2.24526">
        <ele>11</ele>
        <time>2021-05-23T12:46:55.982Z</time>
      </trkpt>
      <trkpt lat="47.25627" lon="-2.24526">
        <ele>11</ele>
        <time>2021-05-23T12:46:56.982Z</time>
      </trkpt>
      <trkpt lat="47.25627" lon="-2.24525">
        <ele>10</ele>
        <time>2021-05-23T12:46:57.982Z</time>
      </trkpt>
      <trkpt lat="47.25627" lon="-2.24525">
        <ele>10</ele>
        <time>2021-05-23T12:46:58.983Z</time>
      </trkpt>
      <trkpt lat="47.25627" lon="-2.24524">
        <ele>9</ele>
        <time>2021-05-23T12:46:59.982Z</time>
      </trkpt>
      <trkpt lat="47.25627" lon="-2.24522">
        <ele>9</ele>
        <time>2021-05-23T12:47:00.982Z</time>
      </trkpt>
      <trkpt lat="47.25627" lon="-2.2452">
        <ele>8</ele>
        <time>2021-05-23T12:47:01.983Z</time>
      </trkpt>
      <trkpt lat="47.25626" lon="-2.24518">
        <ele>8</ele>
        <time>2021-05-23T12:47:02.982Z</time>
      </trkpt>
      <trkpt lat="47.25626" lon="-2.24515">
        <ele>8</ele>
        <time>2021-05-23T12:47:03.982Z</time>
      </trkpt>
      <trkpt lat="47.25627" lon="-2.24513">
        <ele>8</ele>
        <time>2021-05-23T12:47:04.982Z</time>
      </trkpt>
      <trkpt lat="47.25626" lon="-2.24511">
        <ele>8</ele>
        <time>2021-05-23T12:47:05.982Z</time>
      </trkpt>
      <trkpt lat="47.25626" lon="-2.2451">
        <ele>8</ele>
        <time>2021-05-23T12:47:06.982Z</time>
      </trkpt>
      <trkpt lat="47.25626" lon="-2.24508">
        <ele>8</ele>
        <time>2021-05-23T12:47:07.982Z</time>
      </trkpt>
      <trkpt lat="47.25625" lon="-2.24507">
        <ele>8</ele>
        <time>2021-05-23T12:47:08.982Z</time>
      </trkpt>
      <trkpt lat="47.25623" lon="-2.24506">
        <ele>8</ele>
        <time>2021-05-23T12:47:09.982Z</time>
      </trkpt>
      <trkpt lat="47.25622" lon="-2.24504">
        <ele>8</ele>
        <time>2021-05-23T12:47:10.983Z</time>
      </trkpt>
      <trkpt lat="47.2562" lon="-2.24502">
        <ele>8</ele>
        <time>2021-05-23T12:47:11.983Z</time>
      </trkpt>
      <trkpt lat="47.25619" lon="-2.245">
        <ele>8</ele>
        <time>2021-05-23T12:47:12.982Z</time>
      </trkpt>
      <trkpt lat="47.25618" lon="-2.24499">
        <ele>8</ele>
        <time>2021-05-23T12:47:13.982Z</time>
      </trkpt>
      <trkpt lat="47.25618" lon="-2.24498">
        <ele>8</ele>
        <time>2021-05-23T12:47:14.982Z</time>
      </trkpt>
      <trkpt lat="47.25617" lon="-2.24496">
        <ele>8</ele>
        <time>2021-05-23T12:47:15.983Z</time>
      </trkpt>
      <trkpt lat="47.25617" lon="-2.24495">
        <ele>9</ele>
        <time>2021-05-23T12:47:16.982Z</time>
      </trkpt>
      <trkpt lat="47.25617" lon="-2.24493">
        <ele>9</ele>
        <time>2021-05-23T12:47:17.982Z</time>
      </trkpt>
      <trkpt lat="47.25617" lon="-2.24492">
        <ele>9</ele>
        <time>2021-05-23T12:47:18.982Z</time>
      </trkpt>
      <trkpt lat="47.25617" lon="-2.2449">
        <ele>10</ele>
        <time>2021-05-23T12:47:19.982Z</time>
      </trkpt>
      <trkpt lat="47.25617" lon="-2.24488">
        <ele>10</ele>
        <time>2021-05-23T12:47:20.982Z</time>
      </trkpt>
      <trkpt lat="47.25617" lon="-2.24486">
        <ele>10</ele>
        <time>2021-05-23T12:47:21.982Z</time>
      </trkpt>
      <trkpt lat="47.25617" lon="-2.24484">
        <ele>10</ele>
        <time>2021-05-23T12:47:22.982Z</time>
      </trkpt>
      <trkpt lat="47.25617" lon="-2.24481">
        <ele>10</ele>
        <time>2021-05-23T12:47:23.982Z</time>
      </trkpt>
      <trkpt lat="47.25617" lon="-2.24478">
        <ele>10</ele>
        <time>2021-05-23T12:47:24.982Z</time>
      </trkpt>
      <trkpt lat="47.25617" lon="-2.24476">
        <ele>10</ele>
        <time>2021-05-23T12:47:25.983Z</time>
      </trkpt>
      <trkpt lat="47.25617" lon="-2.24473">
        <ele>10</ele>
        <time>2021-05-23T12:47:26.982Z</time>
      </trkpt>
      <trkpt lat="47.25617" lon="-2.24469">
        <ele>10</ele>
        <time>2021-05-23T12:47:27.982Z</time>
      </trkpt>
      <trkpt lat="47.25617" lon="-2.24466">
        <ele>10</ele>
        <time>2021-05-23T12:47:28.982Z</time>
      </trkpt>
      <trkpt lat="47.25617" lon="-2.24463">
        <ele>11</ele>
        <time>2021-05-23T12:47:29.982Z</time>
      </trkpt>
      <trkpt lat="47.25616" lon="-2.2446">
        <ele>11</ele>
        <time>2021-05-23T12:47:30.983Z</time>
      </trkpt>
      <trkpt lat="47.25616" lon="-2.24457">
        <ele>11</ele>
        <time>2021-05-23T12:47:31.982Z</time>
      </trkpt>
      <trkpt lat="47.25616" lon="-2.24455">
        <ele>11</ele>
        <time>2021-05-23T12:47:32.982Z</time>
      </trkpt>
      <trkpt lat="47.25616" lon="-2.24452">
        <ele>11</ele>
        <time>2021-05-23T12:47:33.982Z</time>
      </trkpt>
      <trkpt lat="47.25616" lon="-2.24449">
        <ele>12</ele>
        <time>2021-05-23T12:47:34.983Z</time>
      </trkpt>
      <trkpt lat="47.25615" lon="-2.24447">
        <ele>12</ele>
        <time>2021-05-23T12:47:35.982Z</time>
      </trkpt>
      <trkpt lat="47.25615" lon="-2.24444">
        <ele>12</ele>
        <time>2021-05-23T12:47:36.982Z</time>
      </trkpt>
      <trkpt lat="47.25615" lon="-2.2444">
        <ele>13</ele>
        <time>2021-05-23T12:47:37.982Z</time>
      </trkpt>
      <trkpt lat="47.25616" lon="-2.24437">
        <ele>13</ele>
        <time>2021-05-23T12:47:38.983Z</time>
      </trkpt>
      <trkpt lat="47.25616" lon="-2.24433">
        <ele>13</ele>
        <time>2021-05-23T12:47:39.983Z</time>
      </trkpt>
      <trkpt lat="47.25616" lon="-2.24429">
        <ele>13</ele>
        <time>2021-05-23T12:47:40.982Z</time>
      </trkpt>
      <trkpt lat="47.25616" lon="-2.24426">
        <ele>12</ele>
        <time>2021-05-23T12:47:41.982Z</time>
      </trkpt>
      <trkpt lat="47.25616" lon="-2.24423">
        <ele>12</ele>
        <time>2021-05-23T12:47:42.982Z</time>
      </trkpt>
      <trkpt lat="47.25616" lon="-2.2442">
        <ele>12</ele>
        <time>2021-05-23T12:47:43.982Z</time>
      </trkpt>
      <trkpt lat="47.25616" lon="-2.24416">
        <ele>12</ele>
        <time>2021-05-23T12:47:44.982Z</time>
      </trkpt>
      <trkpt lat="47.25615" lon="-2.24413">
        <ele>12</ele>
        <time>2021-05-23T12:47:45.982Z</time>
      </trkpt>
      <trkpt lat="47.25615" lon="-2.24409">
        <ele>12</ele>
        <time>2021-05-23T12:47:46.982Z</time>
      </trkpt>
      <trkpt lat="47.25615" lon="-2.24406">
        <ele>12</ele>
        <time>2021-05-23T12:47:47.982Z</time>
      </trkpt>
      <trkpt lat="47.25615" lon="-2.24403">
        <ele>12</ele>
        <time>2021-05-23T12:47:48.982Z</time>
      </trkpt>
      <trkpt lat="47.25614" lon="-2.24399">
        <ele>12</ele>
        <time>2021-05-23T12:47:49.982Z</time>
      </trkpt>
      <trkpt lat="47.25615" lon="-2.24397">
        <ele>12</ele>
        <time>2021-05-23T12:47:50.982Z</time>
      </trkpt>
      <trkpt lat="47.25616" lon="-2.24394">
        <ele>12</ele>
        <time>2021-05-23T12:47:51.983Z</time>
      </trkpt>
      <trkpt lat="47.25618" lon="-2.24391">
        <ele>12</ele>
        <time>2021-05-23T12:47:52.982Z</time>
      </trkpt>
      <trkpt lat="47.2562" lon="-2.24388">
        <ele>12</ele>
        <time>2021-05-23T12:47:53.982Z</time>
      </trkpt>
      <trkpt lat="47.25622" lon="-2.24385">
        <ele>12</ele>
        <time>2021-05-23T12:47:54.982Z</time>
      </trkpt>
      <trkpt lat="47.25623" lon="-2.24382">
        <ele>12</ele>
        <time>2021-05-23T12:47:55.982Z</time>
      </trkpt>
      <trkpt lat="47.25623" lon="-2.24378">
        <ele>13</ele>
        <time>2021-05-23T12:47:56.982Z</time>
      </trkpt>
      <trkpt lat="47.25623" lon="-2.24375">
        <ele>13</ele>
        <time>2021-05-23T12:47:57.983Z</time>
      </trkpt>
      <trkpt lat="47.25624" lon="-2.24371">
        <ele>13</ele>
        <time>2021-05-23T12:47:58.982Z</time>
      </trkpt>
      <trkpt lat="47.25624" lon="-2.24368">
        <ele>13</ele>
        <time>2021-05-23T12:47:59.982Z</time>
      </trkpt>
      <trkpt lat="47.25624" lon="-2.24365">
        <ele>13</ele>
        <time>2021-05-23T12:48:00.982Z</time>
      </trkpt>
      <trkpt lat="47.25624" lon="-2.24362">
        <ele>13</ele>
        <time>2021-05-23T12:48:01.982Z</time>
      </trkpt>
      <trkpt lat="47.25624" lon="-2.24358">
        <ele>13</ele>
        <time>2021-05-23T12:48:02.982Z</time>
      </trkpt>
      <trkpt lat="47.25624" lon="-2.24355">
        <ele>14</ele>
        <time>2021-05-23T12:48:03.982Z</time>
      </trkpt>
      <trkpt lat="47.25624" lon="-2.24352">
        <ele>14</ele>
        <time>2021-05-23T12:48:04.983Z</time>
      </trkpt>
      <trkpt lat="47.25624" lon="-2.24349">
        <ele>14</ele>
        <time>2021-05-23T12:48:05.982Z</time>
      </trkpt>
      <trkpt lat="47.25624" lon="-2.24345">
        <ele>14</ele>
        <time>2021-05-23T12:48:06.982Z</time>
      </trkpt>
      <trkpt lat="47.25624" lon="-2.24342">
        <ele>14</ele>
        <time>2021-05-23T12:48:07.982Z</time>
      </trkpt>
      <trkpt lat="47.25624" lon="-2.2434">
        <ele>14</ele>
        <time>2021-05-23T12:48:08.982Z</time>
      </trkpt>
      <trkpt lat="47.25624" lon="-2.24336">
        <ele>14</ele>
        <time>2021-05-23T12:48:09.982Z</time>
      </trkpt>
      <trkpt lat="47.25624" lon="-2.24333">
        <ele>14</ele>
        <time>2021-05-23T12:48:10.982Z</time>
      </trkpt>
      <trkpt lat="47.25624" lon="-2.2433">
        <ele>14</ele>
        <time>2021-05-23T12:48:11.982Z</time>
      </trkpt>
      <trkpt lat="47.25624" lon="-2.24327">
        <ele>14</ele>
        <time>2021-05-23T12:48:12.982Z</time>
      </trkpt>
      <trkpt lat="47.25624" lon="-2.24323">
        <ele>14</ele>
        <time>2021-05-23T12:48:13.982Z</time>
      </trkpt>
      <trkpt lat="47.25624" lon="-2.2432">
        <ele>14</ele>
        <time>2021-05-23T12:48:14.982Z</time>
      </trkpt>
      <trkpt lat="47.25623" lon="-2.24317">
        <ele>14</ele>
        <time>2021-05-23T12:48:15.982Z</time>
      </trkpt>
      <trkpt lat="47.25622" lon="-2.24313">
        <ele>14</ele>
        <time>2021-05-23T12:48:16.983Z</time>
      </trkpt>
      <trkpt lat="47.25621" lon="-2.2431">
        <ele>15</ele>
        <time>2021-05-23T12:48:17.982Z</time>
      </trkpt>
      <trkpt lat="47.25622" lon="-2.24307">
        <ele>15</ele>
        <time>2021-05-23T12:48:18.982Z</time>
      </trkpt>
      <trkpt lat="47.25622" lon="-2.24304">
        <ele>15</ele>
        <time>2021-05-23T12:48:19.982Z</time>
      </trkpt>
      <trkpt lat="47.25622" lon="-2.243">
        <ele>15</ele>
        <time>2021-05-23T12:48:20.982Z</time>
      </trkpt>
      <trkpt lat="47.25622" lon="-2.24297">
        <ele>15</ele>
        <time>2021-05-23T12:48:21.983Z</time>
      </trkpt>
      <trkpt lat="47.25622" lon="-2.24294">
        <ele>15</ele>
        <time>2021-05-23T12:48:22.982Z</time>
      </trkpt>
      <trkpt lat="47.25622" lon="-2.24291">
        <ele>16</ele>
        <time>2021-05-23T12:48:23.982Z</time>
      </trkpt>
      <trkpt lat="47.25623" lon="-2.24288">
        <ele>16</ele>
        <time>2021-05-23T12:48:24.983Z</time>
      </trkpt>
      <trkpt lat="47.25623" lon="-2.24285">
        <ele>16</ele>
        <time>2021-05-23T12:48:25.982Z</time>
      </trkpt>
      <trkpt lat="47.25623" lon="-2.24282">
        <ele>17</ele>
        <time>2021-05-23T12:48:26.983Z</time>
      </trkpt>
      <trkpt lat="47.25623" lon="-2.24279">
        <ele>17</ele>
        <time>2021-05-23T12:48:27.982Z</time>
      </trkpt>
      <trkpt lat="47.25624" lon="-2.24276">
        <ele>17</ele>
        <time>2021-05-23T12:48:28.982Z</time>
      </trkpt>
      <trkpt lat="47.25625" lon="-2.24273">
        <ele>17</ele>
        <time>2021-05-23T12:48:29.982Z</time>
      </trkpt>
      <trkpt lat="47.25625" lon="-2.24269">
        <ele>17</ele>
        <time>2021-05-23T12:48:30.982Z</time>
      </trkpt>
      <trkpt lat="47.25625" lon="-2.24266">
        <ele>18</ele>
        <time>2021-05-23T12:48:31.982Z</time>
      </trkpt>
      <trkpt lat="47.25625" lon="-2.24262">
        <ele>18</ele>
        <time>2021-05-23T12:48:32.982Z</time>
      </trkpt>
      <trkpt lat="47.25626" lon="-2.24259">
        <ele>18</ele>
        <time>2021-05-23T12:48:33.982Z</time>
      </trkpt>
      <trkpt lat="47.25626" lon="-2.24256">
        <ele>18</ele>
        <time>2021-05-23T12:48:34.982Z</time>
      </trkpt>
      <trkpt lat="47.25626" lon="-2.24253">
        <ele>18</ele>
        <time>2021-05-23T12:48:35.982Z</time>
      </trkpt>
      <trkpt lat="47.25626" lon="-2.2425">
        <ele>19</ele>
        <time>2021-05-23T12:48:36.982Z</time>
      </trkpt>
      <trkpt lat="47.25626" lon="-2.24246">
        <ele>19</ele>
        <time>2021-05-23T12:48:37.983Z</time>
      </trkpt>
      <trkpt lat="47.25625" lon="-2.24242">
        <ele>19</ele>
        <time>2021-05-23T12:48:38.982Z</time>
      </trkpt>
      <trkpt lat="47.25626" lon="-2.24238">
        <ele>19</ele>
        <time>2021-05-23T12:48:39.982Z</time>
      </trkpt>
      <trkpt lat="47.25626" lon="-2.24235">
        <ele>20</ele>
        <time>2021-05-23T12:48:40.982Z</time>
      </trkpt>
      <trkpt lat="47.25627" lon="-2.24233">
        <ele>20</ele>
        <time>2021-05-23T12:48:41.982Z</time>
      </trkpt>
      <trkpt lat="47.25627" lon="-2.2423">
        <ele>20</ele>
        <time>2021-05-23T12:48:42.982Z</time>
      </trkpt>
      <trkpt lat="47.25628" lon="-2.24227">
        <ele>20</ele>
        <time>2021-05-23T12:48:43.982Z</time>
      </trkpt>
      <trkpt lat="47.25629" lon="-2.24224">
        <ele>20</ele>
        <time>2021-05-23T12:48:44.982Z</time>
      </trkpt>
      <trkpt lat="47.25629" lon="-2.24221">
        <ele>20</ele>
        <time>2021-05-23T12:48:45.983Z</time>
      </trkpt>
      <trkpt lat="47.2563" lon="-2.24218">
        <ele>20</ele>
        <time>2021-05-23T12:48:46.982Z</time>
      </trkpt>
      <trkpt lat="47.25631" lon="-2.24214">
        <ele>19</ele>
        <time>2021-05-23T12:48:47.983Z</time>
      </trkpt>
      <trkpt lat="47.25631" lon="-2.24211">
        <ele>19</ele>
        <time>2021-05-23T12:48:48.982Z</time>
      </trkpt>
      <trkpt lat="47.25632" lon="-2.24207">
        <ele>19</ele>
        <time>2021-05-23T12:48:49.982Z</time>
      </trkpt>
      <trkpt lat="47.25632" lon="-2.24204">
        <ele>19</ele>
        <time>2021-05-23T12:48:50.982Z</time>
      </trkpt>
      <trkpt lat="47.25633" lon="-2.24201">
        <ele>19</ele>
        <time>2021-05-23T12:48:51.983Z</time>
      </trkpt>
      <trkpt lat="47.25634" lon="-2.24198">
        <ele>20</ele>
        <time>2021-05-23T12:48:52.982Z</time>
      </trkpt>
      <trkpt lat="47.25634" lon="-2.24196">
        <ele>20</ele>
        <time>2021-05-23T12:48:53.982Z</time>
      </trkpt>
      <trkpt lat="47.25635" lon="-2.24193">
        <ele>20</ele>
        <time>2021-05-23T12:48:54.982Z</time>
      </trkpt>
      <trkpt lat="47.25636" lon="-2.2419">
        <ele>20</ele>
        <time>2021-05-23T12:48:55.982Z</time>
      </trkpt>
      <trkpt lat="47.25637" lon="-2.24188">
        <ele>20</ele>
        <time>2021-05-23T12:48:56.982Z</time>
      </trkpt>
      <trkpt lat="47.25637" lon="-2.24185">
        <ele>19</ele>
        <time>2021-05-23T12:48:57.982Z</time>
      </trkpt>
      <trkpt lat="47.25637" lon="-2.24182">
        <ele>19</ele>
        <time>2021-05-23T12:48:58.983Z</time>
      </trkpt>
      <trkpt lat="47.25637" lon="-2.24179">
        <ele>18</ele>
        <time>2021-05-23T12:48:59.982Z</time>
      </trkpt>
      <trkpt lat="47.25638" lon="-2.24176">
        <ele>18</ele>
        <time>2021-05-23T12:49:00.983Z</time>
      </trkpt>
      <trkpt lat="47.25638" lon="-2.24173">
        <ele>17</ele>
        <time>2021-05-23T12:49:01.982Z</time>
      </trkpt>
      <trkpt lat="47.25639" lon="-2.2417">
        <ele>17</ele>
        <time>2021-05-23T12:49:02.982Z</time>
      </trkpt>
      <trkpt lat="47.25639" lon="-2.24166">
        <ele>17</ele>
        <time>2021-05-23T12:49:03.982Z</time>
      </trkpt>
      <trkpt lat="47.25639" lon="-2.24163">
        <ele>16</ele>
        <time>2021-05-23T12:49:04.982Z</time>
      </trkpt>
      <trkpt lat="47.25639" lon="-2.2416">
        <ele>16</ele>
        <time>2021-05-23T12:49:05.983Z</time>
      </trkpt>
      <trkpt lat="47.25639" lon="-2.24157">
        <ele>16</ele>
        <time>2021-05-23T12:49:06.982Z</time>
      </trkpt>
      <trkpt lat="47.25638" lon="-2.24153">
        <ele>15</ele>
        <time>2021-05-23T12:49:07.982Z</time>
      </trkpt>
      <trkpt lat="47.25638" lon="-2.2415">
        <ele>15</ele>
        <time>2021-05-23T12:49:08.982Z</time>
      </trkpt>
      <trkpt lat="47.25639" lon="-2.24147">
        <ele>15</ele>
        <time>2021-05-23T12:49:09.982Z</time>
      </trkpt>
      <trkpt lat="47.25639" lon="-2.24144">
        <ele>15</ele>
        <time>2021-05-23T12:49:10.982Z</time>
      </trkpt>
      <trkpt lat="47.25639" lon="-2.24141">
        <ele>15</ele>
        <time>2021-05-23T12:49:11.983Z</time>
      </trkpt>
      <trkpt lat="47.25639" lon="-2.24138">
        <ele>15</ele>
        <time>2021-05-23T12:49:12.983Z</time>
      </trkpt>
      <trkpt lat="47.2564" lon="-2.24135">
        <ele>15</ele>
        <time>2021-05-23T12:49:13.982Z</time>
      </trkpt>
      <trkpt lat="47.2564" lon="-2.24132">
        <ele>15</ele>
        <time>2021-05-23T12:49:14.983Z</time>
      </trkpt>
      <trkpt lat="47.25641" lon="-2.24128">
        <ele>15</ele>
        <time>2021-05-23T12:49:15.982Z</time>
      </trkpt>
      <trkpt lat="47.25642" lon="-2.24126">
        <ele>15</ele>
        <time>2021-05-23T12:49:16.982Z</time>
      </trkpt>
      <trkpt lat="47.25642" lon="-2.24122">
        <ele>15</ele>
        <time>2021-05-23T12:49:17.982Z</time>
      </trkpt>
      <trkpt lat="47.25642" lon="-2.24119">
        <ele>15</ele>
        <time>2021-05-23T12:49:18.982Z</time>
      </trkpt>
      <trkpt lat="47.25643" lon="-2.24116">
        <ele>16</ele>
        <time>2021-05-23T12:49:19.982Z</time>
      </trkpt>
      <trkpt lat="47.25643" lon="-2.24113">
        <ele>16</ele>
        <time>2021-05-23T12:49:20.982Z</time>
      </trkpt>
      <trkpt lat="47.25643" lon="-2.2411">
        <ele>16</ele>
        <time>2021-05-23T12:49:21.982Z</time>
      </trkpt>
      <trkpt lat="47.25644" lon="-2.24107">
        <ele>17</ele>
        <time>2021-05-23T12:49:22.982Z</time>
      </trkpt>
      <trkpt lat="47.25644" lon="-2.24103">
        <ele>17</ele>
        <time>2021-05-23T12:49:23.982Z</time>
      </trkpt>
      <trkpt lat="47.25645" lon="-2.241">
        <ele>17</ele>
        <time>2021-05-23T12:49:24.982Z</time>
      </trkpt>
      <trkpt lat="47.25645" lon="-2.24097">
        <ele>17</ele>
        <time>2021-05-23T12:49:25.982Z</time>
      </trkpt>
      <trkpt lat="47.25645" lon="-2.24094">
        <ele>17</ele>
        <time>2021-05-23T12:49:26.982Z</time>
      </trkpt>
      <trkpt lat="47.25645" lon="-2.24091">
        <ele>17</ele>
        <time>2021-05-23T12:49:27.982Z</time>
      </trkpt>
      <trkpt lat="47.25645" lon="-2.24091">
        <ele>17</ele>
        <time>2021-05-23T12:49:28.983Z</time>
      </trkpt>
      <trkpt lat="47.25646" lon="-2.24086">
        <ele>17</ele>
        <time>2021-05-23T12:49:29.982Z</time>
      </trkpt>
      <trkpt lat="47.25646" lon="-2.24083">
        <ele>17</ele>
        <time>2021-05-23T12:49:30.983Z</time>
      </trkpt>
      <trkpt lat="47.25646" lon="-2.2408">
        <ele>16</ele>
        <time>2021-05-23T12:49:31.983Z</time>
      </trkpt>
      <trkpt lat="47.25647" lon="-2.24078">
        <ele>16</ele>
        <time>2021-05-23T12:49:32.982Z</time>
      </trkpt>
      <trkpt lat="47.25648" lon="-2.24074">
        <ele>16</ele>
        <time>2021-05-23T12:49:33.982Z</time>
      </trkpt>
      <trkpt lat="47.25648" lon="-2.24071">
        <ele>15</ele>
        <time>2021-05-23T12:49:34.983Z</time>
      </trkpt>
      <trkpt lat="47.25649" lon="-2.24067">
        <ele>15</ele>
        <time>2021-05-23T12:49:35.982Z</time>
      </trkpt>
      <trkpt lat="47.25649" lon="-2.24063">
        <ele>15</ele>
        <time>2021-05-23T12:49:36.983Z</time>
      </trkpt>
      <trkpt lat="47.25649" lon="-2.24059">
        <ele>15</ele>
        <time>2021-05-23T12:49:37.983Z</time>
      </trkpt>
      <trkpt lat="47.25648" lon="-2.24055">
        <ele>16</ele>
        <time>2021-05-23T12:49:38.983Z</time>
      </trkpt>
      <trkpt lat="47.25647" lon="-2.24052">
        <ele>16</ele>
        <time>2021-05-23T12:49:39.982Z</time>
      </trkpt>
      <trkpt lat="47.25646" lon="-2.24049">
        <ele>16</ele>
        <time>2021-05-23T12:49:40.983Z</time>
      </trkpt>
      <trkpt lat="47.25644" lon="-2.24046">
        <ele>16</ele>
        <time>2021-05-23T12:49:41.982Z</time>
      </trkpt>
      <trkpt lat="47.25642" lon="-2.24043">
        <ele>16</ele>
        <time>2021-05-23T12:49:42.982Z</time>
      </trkpt>
      <trkpt lat="47.2564" lon="-2.24041">
        <ele>16</ele>
        <time>2021-05-23T12:49:43.982Z</time>
      </trkpt>
      <trkpt lat="47.25638" lon="-2.24039">
        <ele>16</ele>
        <time>2021-05-23T12:49:44.982Z</time>
      </trkpt>
      <trkpt lat="47.25636" lon="-2.24038">
        <ele>16</ele>
        <time>2021-05-23T12:49:45.983Z</time>
      </trkpt>
      <trkpt lat="47.25634" lon="-2.24036">
        <ele>16</ele>
        <time>2021-05-23T12:49:46.982Z</time>
      </trkpt>
      <trkpt lat="47.25632" lon="-2.24035">
        <ele>16</ele>
        <time>2021-05-23T12:49:47.983Z</time>
      </trkpt>
      <trkpt lat="47.2563" lon="-2.24033">
        <ele>16</ele>
        <time>2021-05-23T12:49:48.982Z</time>
      </trkpt>
      <trkpt lat="47.25629" lon="-2.2403">
        <ele>16</ele>
        <time>2021-05-23T12:49:49.982Z</time>
      </trkpt>
      <trkpt lat="47.25628" lon="-2.24028">
        <ele>16</ele>
        <time>2021-05-23T12:49:50.983Z</time>
      </trkpt>
      <trkpt lat="47.25627" lon="-2.24025">
        <ele>16</ele>
        <time>2021-05-23T12:49:51.982Z</time>
      </trkpt>
      <trkpt lat="47.25627" lon="-2.24022">
        <ele>16</ele>
        <time>2021-05-23T12:49:52.983Z</time>
      </trkpt>
      <trkpt lat="47.25626" lon="-2.24019">
        <ele>16</ele>
        <time>2021-05-23T12:49:53.982Z</time>
      </trkpt>
      <trkpt lat="47.25626" lon="-2.24016">
        <ele>17</ele>
        <time>2021-05-23T12:49:54.982Z</time>
      </trkpt>
      <trkpt lat="47.25627" lon="-2.24012">
        <ele>17</ele>
        <time>2021-05-23T12:49:55.982Z</time>
      </trkpt>
      <trkpt lat="47.25628" lon="-2.24009">
        <ele>17</ele>
        <time>2021-05-23T12:49:56.982Z</time>
      </trkpt>
      <trkpt lat="47.25629" lon="-2.24005">
        <ele>17</ele>
        <time>2021-05-23T12:49:57.982Z</time>
      </trkpt>
      <trkpt lat="47.25629" lon="-2.24002">
        <ele>17</ele>
        <time>2021-05-23T12:49:58.982Z</time>
      </trkpt>
      <trkpt lat="47.2563" lon="-2.23998">
        <ele>16</ele>
        <time>2021-05-23T12:49:59.982Z</time>
      </trkpt>
      <trkpt lat="47.25631" lon="-2.23995">
        <ele>17</ele>
        <time>2021-05-23T12:50:00.983Z</time>
      </trkpt>
      <trkpt lat="47.25632" lon="-2.23992">
        <ele>17</ele>
        <time>2021-05-23T12:50:01.982Z</time>
      </trkpt>
      <trkpt lat="47.25633" lon="-2.23989">
        <ele>17</ele>
        <time>2021-05-23T12:50:02.982Z</time>
      </trkpt>
      <trkpt lat="47.25635" lon="-2.23987">
        <ele>17</ele>
        <time>2021-05-23T12:50:03.982Z</time>
      </trkpt>
      <trkpt lat="47.25636" lon="-2.23984">
        <ele>18</ele>
        <time>2021-05-23T12:50:04.982Z</time>
      </trkpt>
      <trkpt lat="47.25637" lon="-2.23981">
        <ele>18</ele>
        <time>2021-05-23T12:50:05.982Z</time>
      </trkpt>
      <trkpt lat="47.25638" lon="-2.23978">
        <ele>18</ele>
        <time>2021-05-23T12:50:06.982Z</time>
      </trkpt>
      <trkpt lat="47.25639" lon="-2.23975">
        <ele>18</ele>
        <time>2021-05-23T12:50:07.982Z</time>
      </trkpt>
      <trkpt lat="47.2564" lon="-2.23973">
        <ele>18</ele>
        <time>2021-05-23T12:50:08.982Z</time>
      </trkpt>
      <trkpt lat="47.25641" lon="-2.2397">
        <ele>19</ele>
        <time>2021-05-23T12:50:09.982Z</time>
      </trkpt>
      <trkpt lat="47.25642" lon="-2.23968">
        <ele>19</ele>
        <time>2021-05-23T12:50:10.982Z</time>
      </trkpt>
      <trkpt lat="47.25643" lon="-2.23966">
        <ele>18</ele>
        <time>2021-05-23T12:50:11.983Z</time>
      </trkpt>
      <trkpt lat="47.25644" lon="-2.23964">
        <ele>18</ele>
        <time>2021-05-23T12:50:12.982Z</time>
      </trkpt>
      <trkpt lat="47.25644" lon="-2.23962">
        <ele>18</ele>
        <time>2021-05-23T12:50:13.983Z</time>
      </trkpt>
      <trkpt lat="47.25644" lon="-2.2396">
        <ele>17</ele>
        <time>2021-05-23T12:50:14.982Z</time>
      </trkpt>
      <trkpt lat="47.25645" lon="-2.23958">
        <ele>17</ele>
        <time>2021-05-23T12:50:15.982Z</time>
      </trkpt>
      <trkpt lat="47.25646" lon="-2.23957">
        <ele>17</ele>
        <time>2021-05-23T12:50:16.983Z</time>
      </trkpt>
      <trkpt lat="47.25646" lon="-2.23956">
        <ele>17</ele>
        <time>2021-05-23T12:50:17.982Z</time>
      </trkpt>
      <trkpt lat="47.25646" lon="-2.23954">
        <ele>17</ele>
        <time>2021-05-23T12:50:18.982Z</time>
      </trkpt>
      <trkpt lat="47.25647" lon="-2.23953">
        <ele>17</ele>
        <time>2021-05-23T12:50:19.983Z</time>
      </trkpt>
      <trkpt lat="47.25647" lon="-2.2395">
        <ele>17</ele>
        <time>2021-05-23T12:50:20.982Z</time>
      </trkpt>
      <trkpt lat="47.25647" lon="-2.23948">
        <ele>17</ele>
        <time>2021-05-23T12:50:21.982Z</time>
      </trkpt>
      <trkpt lat="47.25647" lon="-2.23946">
        <ele>16</ele>
        <time>2021-05-23T12:50:22.982Z</time>
      </trkpt>
      <trkpt lat="47.25647" lon="-2.23945">
        <ele>17</ele>
        <time>2021-05-23T12:50:23.982Z</time>
      </trkpt>
      <trkpt lat="47.25648" lon="-2.23943">
        <ele>17</ele>
        <time>2021-05-23T12:50:24.982Z</time>
      </trkpt>
      <trkpt lat="47.25648" lon="-2.23941">
        <ele>17</ele>
        <time>2021-05-23T12:50:25.982Z</time>
      </trkpt>
      <trkpt lat="47.25649" lon="-2.2394">
        <ele>17</ele>
        <time>2021-05-23T12:50:26.982Z</time>
      </trkpt>
      <trkpt lat="47.25649" lon="-2.23938">
        <ele>17</ele>
        <time>2021-05-23T12:50:27.983Z</time>
      </trkpt>
      <trkpt lat="47.2565" lon="-2.23935">
        <ele>17</ele>
        <time>2021-05-23T12:50:28.982Z</time>
      </trkpt>
      <trkpt lat="47.25651" lon="-2.23933">
        <ele>17</ele>
        <time>2021-05-23T12:50:29.983Z</time>
      </trkpt>
      <trkpt lat="47.25651" lon="-2.23931">
        <ele>18</ele>
        <time>2021-05-23T12:50:30.982Z</time>
      </trkpt>
      <trkpt lat="47.25651" lon="-2.23929">
        <ele>18</ele>
        <time>2021-05-23T12:50:31.982Z</time>
      </trkpt>
      <trkpt lat="47.25651" lon="-2.23927">
        <ele>18</ele>
        <time>2021-05-23T12:50:32.982Z</time>
      </trkpt>
      <trkpt lat="47.25651" lon="-2.23925">
        <ele>18</ele>
        <time>2021-05-23T12:50:33.982Z</time>
      </trkpt>
      <trkpt lat="47.25651" lon="-2.23923">
        <ele>18</ele>
        <time>2021-05-23T12:50:34.983Z</time>
      </trkpt>
      <trkpt lat="47.25651" lon="-2.23921">
        <ele>18</ele>
        <time>2021-05-23T12:50:35.983Z</time>
      </trkpt>
      <trkpt lat="47.25651" lon="-2.23918">
        <ele>18</ele>
        <time>2021-05-23T12:50:36.982Z</time>
      </trkpt>
      <trkpt lat="47.2565" lon="-2.23916">
        <ele>18</ele>
        <time>2021-05-23T12:50:37.982Z</time>
      </trkpt>
      <trkpt lat="47.2565" lon="-2.23914">
        <ele>18</ele>
        <time>2021-05-23T12:50:38.982Z</time>
      </trkpt>
      <trkpt lat="47.25649" lon="-2.23911">
        <ele>18</ele>
        <time>2021-05-23T12:50:39.983Z</time>
      </trkpt>
      <trkpt lat="47.25649" lon="-2.23908">
        <ele>18</ele>
        <time>2021-05-23T12:50:40.982Z</time>
      </trkpt>
      <trkpt lat="47.25648" lon="-2.23906">
        <ele>18</ele>
        <time>2021-05-23T12:50:41.983Z</time>
      </trkpt>
      <trkpt lat="47.25648" lon="-2.23904">
        <ele>18</ele>
        <time>2021-05-23T12:50:42.982Z</time>
      </trkpt>
      <trkpt lat="47.25647" lon="-2.23902">
        <ele>18</ele>
        <time>2021-05-23T12:50:43.982Z</time>
      </trkpt>
      <trkpt lat="47.25648" lon="-2.23899">
        <ele>18</ele>
        <time>2021-05-23T12:50:44.982Z</time>
      </trkpt>
      <trkpt lat="47.25648" lon="-2.23897">
        <ele>19</ele>
        <time>2021-05-23T12:50:45.982Z</time>
      </trkpt>
      <trkpt lat="47.25648" lon="-2.23895">
        <ele>19</ele>
        <time>2021-05-23T12:50:46.982Z</time>
      </trkpt>
      <trkpt lat="47.25648" lon="-2.23893">
        <ele>18</ele>
        <time>2021-05-23T12:50:47.982Z</time>
      </trkpt>
      <trkpt lat="47.25648" lon="-2.23891">
        <ele>18</ele>
        <time>2021-05-23T12:50:48.982Z</time>
      </trkpt>
      <trkpt lat="47.25649" lon="-2.23889">
        <ele>18</ele>
        <time>2021-05-23T12:50:49.983Z</time>
      </trkpt>
      <trkpt lat="47.25649" lon="-2.23888">
        <ele>17</ele>
        <time>2021-05-23T12:50:50.982Z</time>
      </trkpt>
      <trkpt lat="47.2565" lon="-2.23886">
        <ele>17</ele>
        <time>2021-05-23T12:50:51.982Z</time>
      </trkpt>
      <trkpt lat="47.25651" lon="-2.23883">
        <ele>16</ele>
        <time>2021-05-23T12:50:52.982Z</time>
      </trkpt>
      <trkpt lat="47.25651" lon="-2.23881">
        <ele>16</ele>
        <time>2021-05-23T12:50:53.982Z</time>
      </trkpt>
      <trkpt lat="47.25651" lon="-2.23879">
        <ele>16</ele>
        <time>2021-05-23T12:50:54.982Z</time>
      </trkpt>
      <trkpt lat="47.25652" lon="-2.23877">
        <ele>16</ele>
        <time>2021-05-23T12:50:55.982Z</time>
      </trkpt>
      <trkpt lat="47.25652" lon="-2.23875">
        <ele>17</ele>
        <time>2021-05-23T12:50:56.982Z</time>
      </trkpt>
      <trkpt lat="47.25653" lon="-2.23873">
        <ele>17</ele>
        <time>2021-05-23T12:50:57.982Z</time>
      </trkpt>
      <trkpt lat="47.25653" lon="-2.2387">
        <ele>17</ele>
        <time>2021-05-23T12:50:58.982Z</time>
      </trkpt>
      <trkpt lat="47.25654" lon="-2.23868">
        <ele>17</ele>
        <time>2021-05-23T12:50:59.983Z</time>
      </trkpt>
      <trkpt lat="47.25654" lon="-2.23866">
        <ele>17</ele>
        <time>2021-05-23T12:51:00.982Z</time>
      </trkpt>
      <trkpt lat="47.25654" lon="-2.23864">
        <ele>17</ele>
        <time>2021-05-23T12:51:01.982Z</time>
      </trkpt>
      <trkpt lat="47.25655" lon="-2.23862">
        <ele>17</ele>
        <time>2021-05-23T12:51:02.982Z</time>
      </trkpt>
      <trkpt lat="47.25655" lon="-2.23861">
        <ele>17</ele>
        <time>2021-05-23T12:51:03.983Z</time>
      </trkpt>
      <trkpt lat="47.25655" lon="-2.23859">
        <ele>17</ele>
        <time>2021-05-23T12:51:04.983Z</time>
      </trkpt>
      <trkpt lat="47.25655" lon="-2.23857">
        <ele>18</ele>
        <time>2021-05-23T12:51:05.982Z</time>
      </trkpt>
      <trkpt lat="47.25654" lon="-2.23855">
        <ele>18</ele>
        <time>2021-05-23T12:51:06.982Z</time>
      </trkpt>
      <trkpt lat="47.25654" lon="-2.23852">
        <ele>18</ele>
        <time>2021-05-23T12:51:07.982Z</time>
      </trkpt>
      <trkpt lat="47.25654" lon="-2.2385">
        <ele>18</ele>
        <time>2021-05-23T12:51:08.982Z</time>
      </trkpt>
      <trkpt lat="47.25653" lon="-2.23848">
        <ele>18</ele>
        <time>2021-05-23T12:51:09.982Z</time>
      </trkpt>
      <trkpt lat="47.25653" lon="-2.23845">
        <ele>18</ele>
        <time>2021-05-23T12:51:10.983Z</time>
      </trkpt>
      <trkpt lat="47.25652" lon="-2.23843">
        <ele>19</ele>
        <time>2021-05-23T12:51:11.982Z</time>
      </trkpt>
      <trkpt lat="47.25652" lon="-2.23842">
        <ele>19</ele>
        <time>2021-05-23T12:51:12.983Z</time>
      </trkpt>
      <trkpt lat="47.25651" lon="-2.2384">
        <ele>19</ele>
        <time>2021-05-23T12:51:13.982Z</time>
      </trkpt>
      <trkpt lat="47.25651" lon="-2.23838">
        <ele>18</ele>
        <time>2021-05-23T12:51:14.982Z</time>
      </trkpt>
      <trkpt lat="47.2565" lon="-2.23836">
        <ele>18</ele>
        <time>2021-05-23T12:51:15.982Z</time>
      </trkpt>
      <trkpt lat="47.2565" lon="-2.23834">
        <ele>18</ele>
        <time>2021-05-23T12:51:16.982Z</time>
      </trkpt>
      <trkpt lat="47.25649" lon="-2.23832">
        <ele>18</ele>
        <time>2021-05-23T12:51:17.982Z</time>
      </trkpt>
      <trkpt lat="47.25649" lon="-2.2383">
        <ele>18</ele>
        <time>2021-05-23T12:51:18.982Z</time>
      </trkpt>
      <trkpt lat="47.25649" lon="-2.23828">
        <ele>18</ele>
        <time>2021-05-23T12:51:19.982Z</time>
      </trkpt>
      <trkpt lat="47.25648" lon="-2.23826">
        <ele>17</ele>
        <time>2021-05-23T12:51:20.982Z</time>
      </trkpt>
      <trkpt lat="47.25647" lon="-2.23824">
        <ele>17</ele>
        <time>2021-05-23T12:51:21.982Z</time>
      </trkpt>
      <trkpt lat="47.25647" lon="-2.23822">
        <ele>16</ele>
        <time>2021-05-23T12:51:22.982Z</time>
      </trkpt>
      <trkpt lat="47.25646" lon="-2.2382">
        <ele>16</ele>
        <time>2021-05-23T12:51:23.982Z</time>
      </trkpt>
      <trkpt lat="47.25645" lon="-2.23818">
        <ele>16</ele>
        <time>2021-05-23T12:51:24.982Z</time>
      </trkpt>
      <trkpt lat="47.25644" lon="-2.23815">
        <ele>15</ele>
        <time>2021-05-23T12:51:25.982Z</time>
      </trkpt>
      <trkpt lat="47.25644" lon="-2.23813">
        <ele>15</ele>
        <time>2021-05-23T12:51:26.982Z</time>
      </trkpt>
      <trkpt lat="47.25645" lon="-2.23811">
        <ele>15</ele>
        <time>2021-05-23T12:51:27.982Z</time>
      </trkpt>
      <trkpt lat="47.25645" lon="-2.23808">
        <ele>15</ele>
        <time>2021-05-23T12:51:28.983Z</time>
      </trkpt>
      <trkpt lat="47.25646" lon="-2.23804">
        <ele>15</ele>
        <time>2021-05-23T12:51:29.982Z</time>
      </trkpt>
      <trkpt lat="47.25646" lon="-2.238">
        <ele>14</ele>
        <time>2021-05-23T12:51:30.982Z</time>
      </trkpt>
      <trkpt lat="47.25647" lon="-2.23797">
        <ele>14</ele>
        <time>2021-05-23T12:51:31.982Z</time>
      </trkpt>
      <trkpt lat="47.25647" lon="-2.23794">
        <ele>14</ele>
        <time>2021-05-23T12:51:32.982Z</time>
      </trkpt>
      <trkpt lat="47.25648" lon="-2.23791">
        <ele>14</ele>
        <time>2021-05-23T12:51:33.982Z</time>
      </trkpt>
      <trkpt lat="47.25649" lon="-2.23788">
        <ele>14</ele>
        <time>2021-05-23T12:51:34.982Z</time>
      </trkpt>
      <trkpt lat="47.2565" lon="-2.23785">
        <ele>14</ele>
        <time>2021-05-23T12:51:35.982Z</time>
      </trkpt>
      <trkpt lat="47.2565" lon="-2.23782">
        <ele>14</ele>
        <time>2021-05-23T12:51:36.982Z</time>
      </trkpt>
      <trkpt lat="47.2565" lon="-2.23779">
        <ele>14</ele>
        <time>2021-05-23T12:51:37.982Z</time>
      </trkpt>
      <trkpt lat="47.2565" lon="-2.23776">
        <ele>15</ele>
        <time>2021-05-23T12:51:38.983Z</time>
      </trkpt>
      <trkpt lat="47.25651" lon="-2.23772">
        <ele>15</ele>
        <time>2021-05-23T12:51:39.982Z</time>
      </trkpt>
      <trkpt lat="47.25651" lon="-2.23769">
        <ele>15</ele>
        <time>2021-05-23T12:51:40.982Z</time>
      </trkpt>
      <trkpt lat="47.25652" lon="-2.23766">
        <ele>16</ele>
        <time>2021-05-23T12:51:41.982Z</time>
      </trkpt>
      <trkpt lat="47.25652" lon="-2.23763">
        <ele>16</ele>
        <time>2021-05-23T12:51:42.982Z</time>
      </trkpt>
      <trkpt lat="47.25653" lon="-2.23759">
        <ele>16</ele>
        <time>2021-05-23T12:51:43.982Z</time>
      </trkpt>
      <trkpt lat="47.25653" lon="-2.23756">
        <ele>16</ele>
        <time>2021-05-23T12:51:44.982Z</time>
      </trkpt>
      <trkpt lat="47.25653" lon="-2.23753">
        <ele>15</ele>
        <time>2021-05-23T12:51:45.983Z</time>
      </trkpt>
      <trkpt lat="47.25654" lon="-2.23749">
        <ele>15</ele>
        <time>2021-05-23T12:51:46.982Z</time>
      </trkpt>
      <trkpt lat="47.25654" lon="-2.23746">
        <ele>15</ele>
        <time>2021-05-23T12:51:47.982Z</time>
      </trkpt>
      <trkpt lat="47.25654" lon="-2.23743">
        <ele>15</ele>
        <time>2021-05-23T12:51:48.982Z</time>
      </trkpt>
      <trkpt lat="47.25654" lon="-2.2374">
        <ele>15</ele>
        <time>2021-05-23T12:51:49.982Z</time>
      </trkpt>
      <trkpt lat="47.25654" lon="-2.23736">
        <ele>15</ele>
        <time>2021-05-23T12:51:50.982Z</time>
      </trkpt>
      <trkpt lat="47.25654" lon="-2.23733">
        <ele>14</ele>
        <time>2021-05-23T12:51:51.982Z</time>
      </trkpt>
      <trkpt lat="47.25655" lon="-2.2373">
        <ele>14</ele>
        <time>2021-05-23T12:51:52.982Z</time>
      </trkpt>
      <trkpt lat="47.25655" lon="-2.23727">
        <ele>15</ele>
        <time>2021-05-23T12:51:53.982Z</time>
      </trkpt>
      <trkpt lat="47.25655" lon="-2.23723">
        <ele>15</ele>
        <time>2021-05-23T12:51:54.982Z</time>
      </trkpt>
      <trkpt lat="47.25656" lon="-2.2372">
        <ele>15</ele>
        <time>2021-05-23T12:51:55.982Z</time>
      </trkpt>
      <trkpt lat="47.25656" lon="-2.23717">
        <ele>15</ele>
        <time>2021-05-23T12:51:56.982Z</time>
      </trkpt>
      <trkpt lat="47.25657" lon="-2.23713">
        <ele>15</ele>
        <time>2021-05-23T12:51:57.982Z</time>
      </trkpt>
      <trkpt lat="47.25658" lon="-2.2371">
        <ele>15</ele>
        <time>2021-05-23T12:51:58.982Z</time>
      </trkpt>
      <trkpt lat="47.25659" lon="-2.23707">
        <ele>14</ele>
        <time>2021-05-23T12:51:59.982Z</time>
      </trkpt>
      <trkpt lat="47.2566" lon="-2.23704">
        <ele>14</ele>
        <time>2021-05-23T12:52:00.982Z</time>
      </trkpt>
      <trkpt lat="47.2566" lon="-2.23701">
        <ele>14</ele>
        <time>2021-05-23T12:52:01.982Z</time>
      </trkpt>
      <trkpt lat="47.2566" lon="-2.23701">
        <ele>14</ele>
        <time>2021-05-23T12:52:02.982Z</time>
      </trkpt>
      <trkpt lat="47.2566" lon="-2.23694">
        <ele>14</ele>
        <time>2021-05-23T12:52:03.983Z</time>
      </trkpt>
      <trkpt lat="47.2566" lon="-2.2369">
        <ele>14</ele>
        <time>2021-05-23T12:52:04.982Z</time>
      </trkpt>
      <trkpt lat="47.2566" lon="-2.23687">
        <ele>13</ele>
        <time>2021-05-23T12:52:05.982Z</time>
      </trkpt>
      <trkpt lat="47.2566" lon="-2.23683">
        <ele>13</ele>
        <time>2021-05-23T12:52:06.983Z</time>
      </trkpt>
      <trkpt lat="47.25659" lon="-2.23681">
        <ele>13</ele>
        <time>2021-05-23T12:52:07.982Z</time>
      </trkpt>
      <trkpt lat="47.25658" lon="-2.23678">
        <ele>12</ele>
        <time>2021-05-23T12:52:08.982Z</time>
      </trkpt>
      <trkpt lat="47.25658" lon="-2.23674">
        <ele>12</ele>
        <time>2021-05-23T12:52:09.982Z</time>
      </trkpt>
      <trkpt lat="47.25658" lon="-2.23674">
        <ele>12</ele>
        <time>2021-05-23T12:52:10.982Z</time>
      </trkpt>
      <trkpt lat="47.25658" lon="-2.23666">
        <ele>11</ele>
        <time>2021-05-23T12:52:11.982Z</time>
      </trkpt>
      <trkpt lat="47.25658" lon="-2.23663">
        <ele>11</ele>
        <time>2021-05-23T12:52:12.982Z</time>
      </trkpt>
      <trkpt lat="47.25658" lon="-2.2366">
        <ele>11</ele>
        <time>2021-05-23T12:52:13.982Z</time>
      </trkpt>
      <trkpt lat="47.25658" lon="-2.23656">
        <ele>11</ele>
        <time>2021-05-23T12:52:14.982Z</time>
      </trkpt>
      <trkpt lat="47.25659" lon="-2.23653">
        <ele>12</ele>
        <time>2021-05-23T12:52:15.982Z</time>
      </trkpt>
      <trkpt lat="47.25659" lon="-2.2365">
        <ele>12</ele>
        <time>2021-05-23T12:52:16.982Z</time>
      </trkpt>
      <trkpt lat="47.2566" lon="-2.23646">
        <ele>12</ele>
        <time>2021-05-23T12:52:17.982Z</time>
      </trkpt>
      <trkpt lat="47.2566" lon="-2.23643">
        <ele>12</ele>
        <time>2021-05-23T12:52:18.982Z</time>
      </trkpt>
      <trkpt lat="47.2566" lon="-2.2364">
        <ele>13</ele>
        <time>2021-05-23T12:52:19.982Z</time>
      </trkpt>
      <trkpt lat="47.25661" lon="-2.23637">
        <ele>13</ele>
        <time>2021-05-23T12:52:20.982Z</time>
      </trkpt>
      <trkpt lat="47.25662" lon="-2.23634">
        <ele>14</ele>
        <time>2021-05-23T12:52:21.983Z</time>
      </trkpt>
      <trkpt lat="47.25662" lon="-2.23631">
        <ele>14</ele>
        <time>2021-05-23T12:52:22.982Z</time>
      </trkpt>
      <trkpt lat="47.25663" lon="-2.23628">
        <ele>14</ele>
        <time>2021-05-23T12:52:23.982Z</time>
      </trkpt>
      <trkpt lat="47.25664" lon="-2.23623">
        <ele>14</ele>
        <time>2021-05-23T12:52:24.982Z</time>
      </trkpt>
      <trkpt lat="47.25664" lon="-2.2362">
        <ele>14</ele>
        <time>2021-05-23T12:52:25.982Z</time>
      </trkpt>
      <trkpt lat="47.25665" lon="-2.23617">
        <ele>14</ele>
        <time>2021-05-23T12:52:26.983Z</time>
      </trkpt>
      <trkpt lat="47.25665" lon="-2.23614">
        <ele>14</ele>
        <time>2021-05-23T12:52:27.982Z</time>
      </trkpt>
      <trkpt lat="47.25666" lon="-2.2361">
        <ele>14</ele>
        <time>2021-05-23T12:52:28.983Z</time>
      </trkpt>
      <trkpt lat="47.25666" lon="-2.23607">
        <ele>13</ele>
        <time>2021-05-23T12:52:29.982Z</time>
      </trkpt>
      <trkpt lat="47.25666" lon="-2.23603">
        <ele>13</ele>
        <time>2021-05-23T12:52:30.982Z</time>
      </trkpt>
      <trkpt lat="47.25666" lon="-2.236">
        <ele>13</ele>
        <time>2021-05-23T12:52:31.982Z</time>
      </trkpt>
      <trkpt lat="47.25666" lon="-2.23597">
        <ele>12</ele>
        <time>2021-05-23T12:52:32.982Z</time>
      </trkpt>
      <trkpt lat="47.25665" lon="-2.23594">
        <ele>12</ele>
        <time>2021-05-23T12:52:33.982Z</time>
      </trkpt>
      <trkpt lat="47.25665" lon="-2.23591">
        <ele>11</ele>
        <time>2021-05-23T12:52:34.982Z</time>
      </trkpt>
      <trkpt lat="47.25664" lon="-2.23587">
        <ele>10</ele>
        <time>2021-05-23T12:52:35.982Z</time>
      </trkpt>
      <trkpt lat="47.25663" lon="-2.23584">
        <ele>10</ele>
        <time>2021-05-23T12:52:36.982Z</time>
      </trkpt>
      <trkpt lat="47.25662" lon="-2.23581">
        <ele>9</ele>
        <time>2021-05-23T12:52:37.982Z</time>
      </trkpt>
      <trkpt lat="47.25661" lon="-2.23577">
        <ele>9</ele>
        <time>2021-05-23T12:52:38.982Z</time>
      </trkpt>
      <trkpt lat="47.2566" lon="-2.23574">
        <ele>8</ele>
        <time>2021-05-23T12:52:39.982Z</time>
      </trkpt>
      <trkpt lat="47.25659" lon="-2.23572">
        <ele>8</ele>
        <time>2021-05-23T12:52:40.983Z</time>
      </trkpt>
      <trkpt lat="47.25658" lon="-2.23569">
        <ele>8</ele>
        <time>2021-05-23T12:52:41.982Z</time>
      </trkpt>
      <trkpt lat="47.25657" lon="-2.23565">
        <ele>7</ele>
        <time>2021-05-23T12:52:42.982Z</time>
      </trkpt>
      <trkpt lat="47.25656" lon="-2.23561">
        <ele>7</ele>
        <time>2021-05-23T12:52:43.982Z</time>
      </trkpt>
      <trkpt lat="47.25655" lon="-2.23559">
        <ele>7</ele>
        <time>2021-05-23T12:52:44.982Z</time>
      </trkpt>
      <trkpt lat="47.25654" lon="-2.23555">
        <ele>7</ele>
        <time>2021-05-23T12:52:45.982Z</time>
      </trkpt>
      <trkpt lat="47.25654" lon="-2.23551">
        <ele>8</ele>
        <time>2021-05-23T12:52:46.982Z</time>
      </trkpt>
      <trkpt lat="47.25653" lon="-2.23548">
        <ele>8</ele>
        <time>2021-05-23T12:52:47.982Z</time>
      </trkpt>
      <trkpt lat="47.25652" lon="-2.23545">
        <ele>8</ele>
        <time>2021-05-23T12:52:48.982Z</time>
      </trkpt>
      <trkpt lat="47.25652" lon="-2.23541">
        <ele>9</ele>
        <time>2021-05-23T12:52:49.982Z</time>
      </trkpt>
      <trkpt lat="47.25651" lon="-2.23538">
        <ele>9</ele>
        <time>2021-05-23T12:52:50.983Z</time>
      </trkpt>
      <trkpt lat="47.25651" lon="-2.23534">
        <ele>9</ele>
        <time>2021-05-23T12:52:51.982Z</time>
      </trkpt>
      <trkpt lat="47.2565" lon="-2.23531">
        <ele>10</ele>
        <time>2021-05-23T12:52:52.982Z</time>
      </trkpt>
      <trkpt lat="47.2565" lon="-2.23528">
        <ele>10</ele>
        <time>2021-05-23T12:52:53.982Z</time>
      </trkpt>
      <trkpt lat="47.2565" lon="-2.23524">
        <ele>11</ele>
        <time>2021-05-23T12:52:54.982Z</time>
      </trkpt>
      <trkpt lat="47.2565" lon="-2.23521">
        <ele>11</ele>
        <time>2021-05-23T12:52:55.982Z</time>
      </trkpt>
      <trkpt lat="47.25649" lon="-2.23517">
        <ele>11</ele>
        <time>2021-05-23T12:52:56.982Z</time>
      </trkpt>
      <trkpt lat="47.25649" lon="-2.23513">
        <ele>11</ele>
        <time>2021-05-23T12:52:57.982Z</time>
      </trkpt>
      <trkpt lat="47.25648" lon="-2.2351">
        <ele>11</ele>
        <time>2021-05-23T12:52:58.983Z</time>
      </trkpt>
      <trkpt lat="47.25648" lon="-2.23507">
        <ele>11</ele>
        <time>2021-05-23T12:52:59.982Z</time>
      </trkpt>
      <trkpt lat="47.25648" lon="-2.23503">
        <ele>11</ele>
        <time>2021-05-23T12:53:00.982Z</time>
      </trkpt>
      <trkpt lat="47.25647" lon="-2.23499">
        <ele>10</ele>
        <time>2021-05-23T12:53:01.982Z</time>
      </trkpt>
      <trkpt lat="47.25647" lon="-2.23496">
        <ele>10</ele>
        <time>2021-05-23T12:53:02.983Z</time>
      </trkpt>
      <trkpt lat="47.25646" lon="-2.23493">
        <ele>10</ele>
        <time>2021-05-23T12:53:03.982Z</time>
      </trkpt>
      <trkpt lat="47.25645" lon="-2.23489">
        <ele>9</ele>
        <time>2021-05-23T12:53:04.982Z</time>
      </trkpt>
      <trkpt lat="47.25644" lon="-2.23486">
        <ele>9</ele>
        <time>2021-05-23T12:53:05.982Z</time>
      </trkpt>
      <trkpt lat="47.25643" lon="-2.23482">
        <ele>8</ele>
        <time>2021-05-23T12:53:06.982Z</time>
      </trkpt>
      <trkpt lat="47.25642" lon="-2.23479">
        <ele>8</ele>
        <time>2021-05-23T12:53:07.982Z</time>
      </trkpt>
      <trkpt lat="47.25641" lon="-2.23476">
        <ele>8</ele>
        <time>2021-05-23T12:53:08.982Z</time>
      </trkpt>
      <trkpt lat="47.2564" lon="-2.23472">
        <ele>8</ele>
        <time>2021-05-23T12:53:09.982Z</time>
      </trkpt>
      <trkpt lat="47.2564" lon="-2.23468">
        <ele>7</ele>
        <time>2021-05-23T12:53:10.982Z</time>
      </trkpt>
      <trkpt lat="47.25639" lon="-2.23464">
        <ele>8</ele>
        <time>2021-05-23T12:53:11.982Z</time>
      </trkpt>
      <trkpt lat="47.25639" lon="-2.23461">
        <ele>7</ele>
        <time>2021-05-23T12:53:12.982Z</time>
      </trkpt>
      <trkpt lat="47.25639" lon="-2.23458">
        <ele>7</ele>
        <time>2021-05-23T12:53:13.982Z</time>
      </trkpt>
      <trkpt lat="47.25638" lon="-2.23453">
        <ele>7</ele>
        <time>2021-05-23T12:53:14.982Z</time>
      </trkpt>
      <trkpt lat="47.25638" lon="-2.2345">
        <ele>7</ele>
        <time>2021-05-23T12:53:15.983Z</time>
      </trkpt>
      <trkpt lat="47.25638" lon="-2.23446">
        <ele>6</ele>
        <time>2021-05-23T12:53:16.983Z</time>
      </trkpt>
      <trkpt lat="47.25638" lon="-2.23443">
        <ele>6</ele>
        <time>2021-05-23T12:53:17.982Z</time>
      </trkpt>
      <trkpt lat="47.25637" lon="-2.2344">
        <ele>5</ele>
        <time>2021-05-23T12:53:18.982Z</time>
      </trkpt>
      <trkpt lat="47.25637" lon="-2.23435">
        <ele>5</ele>
        <time>2021-05-23T12:53:19.982Z</time>
      </trkpt>
      <trkpt lat="47.25636" lon="-2.23431">
        <ele>5</ele>
        <time>2021-05-23T12:53:20.983Z</time>
      </trkpt>
      <trkpt lat="47.25636" lon="-2.23428">
        <ele>5</ele>
        <time>2021-05-23T12:53:21.982Z</time>
      </trkpt>
      <trkpt lat="47.25635" lon="-2.23425">
        <ele>5</ele>
        <time>2021-05-23T12:53:22.982Z</time>
      </trkpt>
      <trkpt lat="47.25635" lon="-2.23421">
        <ele>5</ele>
        <time>2021-05-23T12:53:23.982Z</time>
      </trkpt>
      <trkpt lat="47.25635" lon="-2.23418">
        <ele>5</ele>
        <time>2021-05-23T12:53:24.982Z</time>
      </trkpt>
      <trkpt lat="47.25635" lon="-2.23414">
        <ele>5</ele>
        <time>2021-05-23T12:53:25.982Z</time>
      </trkpt>
      <trkpt lat="47.25634" lon="-2.23411">
        <ele>6</ele>
        <time>2021-05-23T12:53:26.983Z</time>
      </trkpt>
      <trkpt lat="47.25634" lon="-2.23408">
        <ele>6</ele>
        <time>2021-05-23T12:53:27.982Z</time>
      </trkpt>
      <trkpt lat="47.25634" lon="-2.23404">
        <ele>6</ele>
        <time>2021-05-23T12:53:28.982Z</time>
      </trkpt>
      <trkpt lat="47.25634" lon="-2.23401">
        <ele>7</ele>
        <time>2021-05-23T12:53:29.982Z</time>
      </trkpt>
      <trkpt lat="47.25634" lon="-2.23398">
        <ele>7</ele>
        <time>2021-05-23T12:53:30.982Z</time>
      </trkpt>
      <trkpt lat="47.25634" lon="-2.23394">
        <ele>7</ele>
        <time>2021-05-23T12:53:31.983Z</time>
      </trkpt>
      <trkpt lat="47.25634" lon="-2.23391">
        <ele>7</ele>
        <time>2021-05-23T12:53:32.982Z</time>
      </trkpt>
      <trkpt lat="47.25633" lon="-2.23387">
        <ele>8</ele>
        <time>2021-05-23T12:53:33.982Z</time>
      </trkpt>
      <trkpt lat="47.25633" lon="-2.23384">
        <ele>8</ele>
        <time>2021-05-23T12:53:34.982Z</time>
      </trkpt>
      <trkpt lat="47.25633" lon="-2.2338">
        <ele>8</ele>
        <time>2021-05-23T12:53:35.982Z</time>
      </trkpt>
      <trkpt lat="47.25632" lon="-2.23377">
        <ele>9</ele>
        <time>2021-05-23T12:53:36.983Z</time>
      </trkpt>
      <trkpt lat="47.25632" lon="-2.23373">
        <ele>9</ele>
        <time>2021-05-23T12:53:37.982Z</time>
      </trkpt>
      <trkpt lat="47.25632" lon="-2.23369">
        <ele>10</ele>
        <time>2021-05-23T12:53:38.983Z</time>
      </trkpt>
      <trkpt lat="47.25631" lon="-2.23366">
        <ele>10</ele>
        <time>2021-05-23T12:53:39.982Z</time>
      </trkpt>
      <trkpt lat="47.2563" lon="-2.23362">
        <ele>10</ele>
        <time>2021-05-23T12:53:40.982Z</time>
      </trkpt>
      <trkpt lat="47.2563" lon="-2.2336">
        <ele>10</ele>
        <time>2021-05-23T12:53:41.982Z</time>
      </trkpt>
      <trkpt lat="47.25629" lon="-2.23355">
        <ele>10</ele>
        <time>2021-05-23T12:53:42.982Z</time>
      </trkpt>
      <trkpt lat="47.25629" lon="-2.23352">
        <ele>10</ele>
        <time>2021-05-23T12:53:43.982Z</time>
      </trkpt>
      <trkpt lat="47.25628" lon="-2.23349">
        <ele>10</ele>
        <time>2021-05-23T12:53:44.982Z</time>
      </trkpt>
      <trkpt lat="47.25627" lon="-2.23346">
        <ele>10</ele>
        <time>2021-05-23T12:53:45.982Z</time>
      </trkpt>
      <trkpt lat="47.25627" lon="-2.23342">
        <ele>10</ele>
        <time>2021-05-23T12:53:46.982Z</time>
      </trkpt>
      <trkpt lat="47.25626" lon="-2.23338">
        <ele>11</ele>
        <time>2021-05-23T12:53:47.982Z</time>
      </trkpt>
      <trkpt lat="47.25625" lon="-2.23335">
        <ele>11</ele>
        <time>2021-05-23T12:53:48.982Z</time>
      </trkpt>
      <trkpt lat="47.25624" lon="-2.2333">
        <ele>11</ele>
        <time>2021-05-23T12:53:49.982Z</time>
      </trkpt>
      <trkpt lat="47.25623" lon="-2.23327">
        <ele>11</ele>
        <time>2021-05-23T12:53:50.983Z</time>
      </trkpt>
      <trkpt lat="47.25622" lon="-2.23323">
        <ele>12</ele>
        <time>2021-05-23T12:53:51.982Z</time>
      </trkpt>
      <trkpt lat="47.25621" lon="-2.23319">
        <ele>12</ele>
        <time>2021-05-23T12:53:52.982Z</time>
      </trkpt>
      <trkpt lat="47.2562" lon="-2.23316">
        <ele>12</ele>
        <time>2021-05-23T12:53:53.982Z</time>
      </trkpt>
      <trkpt lat="47.25619" lon="-2.23313">
        <ele>13</ele>
        <time>2021-05-23T12:53:54.982Z</time>
      </trkpt>
      <trkpt lat="47.25619" lon="-2.2331">
        <ele>13</ele>
        <time>2021-05-23T12:53:55.983Z</time>
      </trkpt>
      <trkpt lat="47.25618" lon="-2.23307">
        <ele>13</ele>
        <time>2021-05-23T12:53:56.982Z</time>
      </trkpt>
      <trkpt lat="47.25617" lon="-2.23303">
        <ele>13</ele>
        <time>2021-05-23T12:53:57.982Z</time>
      </trkpt>
      <trkpt lat="47.25617" lon="-2.23299">
        <ele>13</ele>
        <time>2021-05-23T12:53:58.982Z</time>
      </trkpt>
      <trkpt lat="47.25616" lon="-2.23295">
        <ele>12</ele>
        <time>2021-05-23T12:53:59.982Z</time>
      </trkpt>
      <trkpt lat="47.25616" lon="-2.23293">
        <ele>12</ele>
        <time>2021-05-23T12:54:00.983Z</time>
      </trkpt>
      <trkpt lat="47.25615" lon="-2.23289">
        <ele>12</ele>
        <time>2021-05-23T12:54:01.982Z</time>
      </trkpt>
      <trkpt lat="47.25614" lon="-2.23285">
        <ele>12</ele>
        <time>2021-05-23T12:54:02.983Z</time>
      </trkpt>
      <trkpt lat="47.25613" lon="-2.23282">
        <ele>12</ele>
        <time>2021-05-23T12:54:03.982Z</time>
      </trkpt>
      <trkpt lat="47.25612" lon="-2.23279">
        <ele>12</ele>
        <time>2021-05-23T12:54:04.983Z</time>
      </trkpt>
      <trkpt lat="47.25612" lon="-2.23275">
        <ele>12</ele>
        <time>2021-05-23T12:54:05.982Z</time>
      </trkpt>
      <trkpt lat="47.25611" lon="-2.23272">
        <ele>12</ele>
        <time>2021-05-23T12:54:06.982Z</time>
      </trkpt>
      <trkpt lat="47.2561" lon="-2.23268">
        <ele>11</ele>
        <time>2021-05-23T12:54:07.983Z</time>
      </trkpt>
      <trkpt lat="47.25609" lon="-2.23264">
        <ele>11</ele>
        <time>2021-05-23T12:54:08.982Z</time>
      </trkpt>
      <trkpt lat="47.25609" lon="-2.2326">
        <ele>11</ele>
        <time>2021-05-23T12:54:09.982Z</time>
      </trkpt>
      <trkpt lat="47.25608" lon="-2.23257">
        <ele>10</ele>
        <time>2021-05-23T12:54:10.982Z</time>
      </trkpt>
      <trkpt lat="47.25607" lon="-2.23253">
        <ele>10</ele>
        <time>2021-05-23T12:54:11.982Z</time>
      </trkpt>
      <trkpt lat="47.25606" lon="-2.2325">
        <ele>10</ele>
        <time>2021-05-23T12:54:12.982Z</time>
      </trkpt>
      <trkpt lat="47.25606" lon="-2.23246">
        <ele>10</ele>
        <time>2021-05-23T12:54:13.982Z</time>
      </trkpt>
      <trkpt lat="47.25605" lon="-2.23243">
        <ele>10</ele>
        <time>2021-05-23T12:54:14.982Z</time>
      </trkpt>
      <trkpt lat="47.25604" lon="-2.23239">
        <ele>10</ele>
        <time>2021-05-23T12:54:15.982Z</time>
      </trkpt>
      <trkpt lat="47.25604" lon="-2.23236">
        <ele>9</ele>
        <time>2021-05-23T12:54:16.982Z</time>
      </trkpt>
      <trkpt lat="47.25604" lon="-2.23233">
        <ele>9</ele>
        <time>2021-05-23T12:54:17.982Z</time>
      </trkpt>
      <trkpt lat="47.25603" lon="-2.23229">
        <ele>10</ele>
        <time>2021-05-23T12:54:18.982Z</time>
      </trkpt>
      <trkpt lat="47.25604" lon="-2.23225">
        <ele>10</ele>
        <time>2021-05-23T12:54:19.982Z</time>
      </trkpt>
      <trkpt lat="47.25604" lon="-2.23222">
        <ele>10</ele>
        <time>2021-05-23T12:54:20.982Z</time>
      </trkpt>
      <trkpt lat="47.25605" lon="-2.23219">
        <ele>10</ele>
        <time>2021-05-23T12:54:21.983Z</time>
      </trkpt>
      <trkpt lat="47.25605" lon="-2.23216">
        <ele>10</ele>
        <time>2021-05-23T12:54:22.982Z</time>
      </trkpt>
      <trkpt lat="47.25606" lon="-2.23213">
        <ele>10</ele>
        <time>2021-05-23T12:54:23.982Z</time>
      </trkpt>
      <trkpt lat="47.25606" lon="-2.23209">
        <ele>10</ele>
        <time>2021-05-23T12:54:24.982Z</time>
      </trkpt>
      <trkpt lat="47.25606" lon="-2.23206">
        <ele>10</ele>
        <time>2021-05-23T12:54:25.982Z</time>
      </trkpt>
      <trkpt lat="47.25606" lon="-2.23202">
        <ele>9</ele>
        <time>2021-05-23T12:54:26.983Z</time>
      </trkpt>
      <trkpt lat="47.25606" lon="-2.23198">
        <ele>9</ele>
        <time>2021-05-23T12:54:27.982Z</time>
      </trkpt>
      <trkpt lat="47.25605" lon="-2.23195">
        <ele>9</ele>
        <time>2021-05-23T12:54:28.982Z</time>
      </trkpt>
      <trkpt lat="47.25604" lon="-2.23191">
        <ele>9</ele>
        <time>2021-05-23T12:54:29.982Z</time>
      </trkpt>
      <trkpt lat="47.25604" lon="-2.23188">
        <ele>9</ele>
        <time>2021-05-23T12:54:30.982Z</time>
      </trkpt>
      <trkpt lat="47.25604" lon="-2.23184">
        <ele>9</ele>
        <time>2021-05-23T12:54:31.983Z</time>
      </trkpt>
      <trkpt lat="47.25605" lon="-2.23181">
        <ele>9</ele>
        <time>2021-05-23T12:54:32.982Z</time>
      </trkpt>
      <trkpt lat="47.25605" lon="-2.23177">
        <ele>9</ele>
        <time>2021-05-23T12:54:33.982Z</time>
      </trkpt>
      <trkpt lat="47.25606" lon="-2.23174">
        <ele>9</ele>
        <time>2021-05-23T12:54:34.982Z</time>
      </trkpt>
      <trkpt lat="47.25606" lon="-2.2317">
        <ele>9</ele>
        <time>2021-05-23T12:54:35.982Z</time>
      </trkpt>
      <trkpt lat="47.25606" lon="-2.23166">
        <ele>9</ele>
        <time>2021-05-23T12:54:36.982Z</time>
      </trkpt>
      <trkpt lat="47.25606" lon="-2.23163">
        <ele>8</ele>
        <time>2021-05-23T12:54:37.982Z</time>
      </trkpt>
      <trkpt lat="47.25606" lon="-2.23159">
        <ele>8</ele>
        <time>2021-05-23T12:54:38.982Z</time>
      </trkpt>
      <trkpt lat="47.25606" lon="-2.23156">
        <ele>8</ele>
        <time>2021-05-23T12:54:39.982Z</time>
      </trkpt>
      <trkpt lat="47.25606" lon="-2.23152">
        <ele>7</ele>
        <time>2021-05-23T12:54:40.982Z</time>
      </trkpt>
      <trkpt lat="47.25606" lon="-2.23149">
        <ele>7</ele>
        <time>2021-05-23T12:54:41.982Z</time>
      </trkpt>
      <trkpt lat="47.25605" lon="-2.23145">
        <ele>7</ele>
        <time>2021-05-23T12:54:42.982Z</time>
      </trkpt>
      <trkpt lat="47.25605" lon="-2.23142">
        <ele>8</ele>
        <time>2021-05-23T12:54:43.982Z</time>
      </trkpt>
      <trkpt lat="47.25605" lon="-2.23138">
        <ele>8</ele>
        <time>2021-05-23T12:54:44.982Z</time>
      </trkpt>
      <trkpt lat="47.25605" lon="-2.23135">
        <ele>8</ele>
        <time>2021-05-23T12:54:45.982Z</time>
      </trkpt>
      <trkpt lat="47.25604" lon="-2.23132">
        <ele>8</ele>
        <time>2021-05-23T12:54:46.982Z</time>
      </trkpt>
      <trkpt lat="47.25604" lon="-2.23128">
        <ele>8</ele>
        <time>2021-05-23T12:54:47.982Z</time>
      </trkpt>
      <trkpt lat="47.25603" lon="-2.23125">
        <ele>8</ele>
        <time>2021-05-23T12:54:48.983Z</time>
      </trkpt>
      <trkpt lat="47.25603" lon="-2.23122">
        <ele>9</ele>
        <time>2021-05-23T12:54:49.982Z</time>
      </trkpt>
      <trkpt lat="47.25602" lon="-2.23118">
        <ele>9</ele>
        <time>2021-05-23T12:54:50.983Z</time>
      </trkpt>
      <trkpt lat="47.25601" lon="-2.23115">
        <ele>9</ele>
        <time>2021-05-23T12:54:51.982Z</time>
      </trkpt>
      <trkpt lat="47.25601" lon="-2.23111">
        <ele>9</ele>
        <time>2021-05-23T12:54:52.982Z</time>
      </trkpt>
      <trkpt lat="47.256" lon="-2.23108">
        <ele>10</ele>
        <time>2021-05-23T12:54:53.982Z</time>
      </trkpt>
      <trkpt lat="47.25599" lon="-2.23104">
        <ele>10</ele>
        <time>2021-05-23T12:54:54.983Z</time>
      </trkpt>
      <trkpt lat="47.25599" lon="-2.231">
        <ele>10</ele>
        <time>2021-05-23T12:54:55.983Z</time>
      </trkpt>
      <trkpt lat="47.25598" lon="-2.23097">
        <ele>10</ele>
        <time>2021-05-23T12:54:56.982Z</time>
      </trkpt>
      <trkpt lat="47.25598" lon="-2.23093">
        <ele>11</ele>
        <time>2021-05-23T12:54:57.982Z</time>
      </trkpt>
      <trkpt lat="47.25598" lon="-2.2309">
        <ele>10</ele>
        <time>2021-05-23T12:54:58.982Z</time>
      </trkpt>
      <trkpt lat="47.25598" lon="-2.23086">
        <ele>10</ele>
        <time>2021-05-23T12:54:59.982Z</time>
      </trkpt>
      <trkpt lat="47.25598" lon="-2.23083">
        <ele>10</ele>
        <time>2021-05-23T12:55:00.982Z</time>
      </trkpt>
      <trkpt lat="47.25598" lon="-2.23079">
        <ele>9</ele>
        <time>2021-05-23T12:55:01.982Z</time>
      </trkpt>
      <trkpt lat="47.25597" lon="-2.23075">
        <ele>8</ele>
        <time>2021-05-23T12:55:02.983Z</time>
      </trkpt>
      <trkpt lat="47.25596" lon="-2.23071">
        <ele>8</ele>
        <time>2021-05-23T12:55:03.982Z</time>
      </trkpt>
      <trkpt lat="47.25596" lon="-2.23068">
        <ele>7</ele>
        <time>2021-05-23T12:55:04.982Z</time>
      </trkpt>
      <trkpt lat="47.25596" lon="-2.23064">
        <ele>7</ele>
        <time>2021-05-23T12:55:05.982Z</time>
      </trkpt>
      <trkpt lat="47.25595" lon="-2.23061">
        <ele>6</ele>
        <time>2021-05-23T12:55:06.983Z</time>
      </trkpt>
      <trkpt lat="47.25594" lon="-2.23057">
        <ele>6</ele>
        <time>2021-05-23T12:55:07.983Z</time>
      </trkpt>
      <trkpt lat="47.25594" lon="-2.23054">
        <ele>5</ele>
        <time>2021-05-23T12:55:08.983Z</time>
      </trkpt>
      <trkpt lat="47.25593" lon="-2.2305">
        <ele>5</ele>
        <time>2021-05-23T12:55:09.982Z</time>
      </trkpt>
      <trkpt lat="47.25593" lon="-2.23047">
        <ele>4</ele>
        <time>2021-05-23T12:55:10.983Z</time>
      </trkpt>
      <trkpt lat="47.25592" lon="-2.23044">
        <ele>4</ele>
        <time>2021-05-23T12:55:11.982Z</time>
      </trkpt>
      <trkpt lat="47.25592" lon="-2.2304">
        <ele>4</ele>
        <time>2021-05-23T12:55:12.982Z</time>
      </trkpt>
      <trkpt lat="47.25591" lon="-2.23037">
        <ele>5</ele>
        <time>2021-05-23T12:55:13.983Z</time>
      </trkpt>
      <trkpt lat="47.2559" lon="-2.23035">
        <ele>5</ele>
        <time>2021-05-23T12:55:14.983Z</time>
      </trkpt>
      <trkpt lat="47.2559" lon="-2.23033">
        <ele>5</ele>
        <time>2021-05-23T12:55:15.982Z</time>
      </trkpt>
      <trkpt lat="47.2559" lon="-2.23031">
        <ele>5</ele>
        <time>2021-05-23T12:55:16.983Z</time>
      </trkpt>
      <trkpt lat="47.25589" lon="-2.23029">
        <ele>5</ele>
        <time>2021-05-23T12:55:17.983Z</time>
      </trkpt>
      <trkpt lat="47.25589" lon="-2.23027">
        <ele>5</ele>
        <time>2021-05-23T12:55:18.982Z</time>
      </trkpt>
      <trkpt lat="47.25589" lon="-2.23025">
        <ele>5</ele>
        <time>2021-05-23T12:55:19.982Z</time>
      </trkpt>
      <trkpt lat="47.25589" lon="-2.23022">
        <ele>5</ele>
        <time>2021-05-23T12:55:20.982Z</time>
      </trkpt>
      <trkpt lat="47.25589" lon="-2.2302">
        <ele>5</ele>
        <time>2021-05-23T12:55:21.982Z</time>
      </trkpt>
      <trkpt lat="47.25589" lon="-2.23018">
        <ele>5</ele>
        <time>2021-05-23T12:55:22.982Z</time>
      </trkpt>
      <trkpt lat="47.25589" lon="-2.23016">
        <ele>5</ele>
        <time>2021-05-23T12:55:23.982Z</time>
      </trkpt>
      <trkpt lat="47.25589" lon="-2.23014">
        <ele>5</ele>
        <time>2021-05-23T12:55:24.982Z</time>
      </trkpt>
      <trkpt lat="47.25589" lon="-2.23012">
        <ele>6</ele>
        <time>2021-05-23T12:55:25.982Z</time>
      </trkpt>
      <trkpt lat="47.25589" lon="-2.2301">
        <ele>6</ele>
        <time>2021-05-23T12:55:26.983Z</time>
      </trkpt>
      <trkpt lat="47.25589" lon="-2.23008">
        <ele>6</ele>
        <time>2021-05-23T12:55:27.982Z</time>
      </trkpt>
      <trkpt lat="47.25589" lon="-2.23006">
        <ele>6</ele>
        <time>2021-05-23T12:55:28.982Z</time>
      </trkpt>
      <trkpt lat="47.25589" lon="-2.23005">
        <ele>6</ele>
        <time>2021-05-23T12:55:29.982Z</time>
      </trkpt>
      <trkpt lat="47.25589" lon="-2.23002">
        <ele>6</ele>
        <time>2021-05-23T12:55:30.982Z</time>
      </trkpt>
      <trkpt lat="47.25589" lon="-2.23">
        <ele>6</ele>
        <time>2021-05-23T12:55:31.982Z</time>
      </trkpt>
      <trkpt lat="47.2559" lon="-2.22998">
        <ele>6</ele>
        <time>2021-05-23T12:55:32.982Z</time>
      </trkpt>
      <trkpt lat="47.2559" lon="-2.22997">
        <ele>6</ele>
        <time>2021-05-23T12:55:33.982Z</time>
      </trkpt>
      <trkpt lat="47.2559" lon="-2.22994">
        <ele>6</ele>
        <time>2021-05-23T12:55:34.982Z</time>
      </trkpt>
      <trkpt lat="47.25591" lon="-2.22992">
        <ele>6</ele>
        <time>2021-05-23T12:55:35.982Z</time>
      </trkpt>
      <trkpt lat="47.25591" lon="-2.22989">
        <ele>7</ele>
        <time>2021-05-23T12:55:36.982Z</time>
      </trkpt>
      <trkpt lat="47.25591" lon="-2.22987">
        <ele>7</ele>
        <time>2021-05-23T12:55:37.982Z</time>
      </trkpt>
      <trkpt lat="47.25591" lon="-2.22985">
        <ele>6</ele>
        <time>2021-05-23T12:55:38.982Z</time>
      </trkpt>
      <trkpt lat="47.25591" lon="-2.22983">
        <ele>6</ele>
        <time>2021-05-23T12:55:39.982Z</time>
      </trkpt>
      <trkpt lat="47.25591" lon="-2.22981">
        <ele>6</ele>
        <time>2021-05-23T12:55:40.982Z</time>
      </trkpt>
      <trkpt lat="47.25592" lon="-2.22979">
        <ele>6</ele>
        <time>2021-05-23T12:55:41.983Z</time>
      </trkpt>
      <trkpt lat="47.25592" lon="-2.22977">
        <ele>6</ele>
        <time>2021-05-23T12:55:42.982Z</time>
      </trkpt>
      <trkpt lat="47.25592" lon="-2.22975">
        <ele>6</ele>
        <time>2021-05-23T12:55:43.982Z</time>
      </trkpt>
      <trkpt lat="47.25593" lon="-2.22973">
        <ele>5</ele>
        <time>2021-05-23T12:55:44.982Z</time>
      </trkpt>
      <trkpt lat="47.25593" lon="-2.22972">
        <ele>5</ele>
        <time>2021-05-23T12:55:45.982Z</time>
      </trkpt>
      <trkpt lat="47.25593" lon="-2.2297">
        <ele>4</ele>
        <time>2021-05-23T12:55:46.982Z</time>
      </trkpt>
      <trkpt lat="47.25594" lon="-2.22967">
        <ele>4</ele>
        <time>2021-05-23T12:55:47.982Z</time>
      </trkpt>
      <trkpt lat="47.25594" lon="-2.22965">
        <ele>4</ele>
        <time>2021-05-23T12:55:48.982Z</time>
      </trkpt>
      <trkpt lat="47.25594" lon="-2.22963">
        <ele>3</ele>
        <time>2021-05-23T12:55:49.983Z</time>
      </trkpt>
      <trkpt lat="47.25594" lon="-2.22961">
        <ele>3</ele>
        <time>2021-05-23T12:55:50.982Z</time>
      </trkpt>
      <trkpt lat="47.25594" lon="-2.22959">
        <ele>3</ele>
        <time>2021-05-23T12:55:51.982Z</time>
      </trkpt>
      <trkpt lat="47.25595" lon="-2.22957">
        <ele>3</ele>
        <time>2021-05-23T12:55:52.982Z</time>
      </trkpt>
      <trkpt lat="47.25595" lon="-2.22954">
        <ele>3</ele>
        <time>2021-05-23T12:55:53.983Z</time>
      </trkpt>
      <trkpt lat="47.25595" lon="-2.22952">
        <ele>3</ele>
        <time>2021-05-23T12:55:54.982Z</time>
      </trkpt>
      <trkpt lat="47.25596" lon="-2.2295">
        <ele>3</ele>
        <time>2021-05-23T12:55:55.982Z</time>
      </trkpt>
      <trkpt lat="47.25596" lon="-2.22948">
        <ele>3</ele>
        <time>2021-05-23T12:55:56.982Z</time>
      </trkpt>
      <trkpt lat="47.25596" lon="-2.22946">
        <ele>4</ele>
        <time>2021-05-23T12:55:57.982Z</time>
      </trkpt>
      <trkpt lat="47.25597" lon="-2.22944">
        <ele>4</ele>
        <time>2021-05-23T12:55:58.982Z</time>
      </trkpt>
      <trkpt lat="47.25598" lon="-2.22942">
        <ele>4</ele>
        <time>2021-05-23T12:55:59.982Z</time>
      </trkpt>
      <trkpt lat="47.25599" lon="-2.2294">
        <ele>4</ele>
        <time>2021-05-23T12:56:00.982Z</time>
      </trkpt>
      <trkpt lat="47.256" lon="-2.22938">
        <ele>5</ele>
        <time>2021-05-23T12:56:01.983Z</time>
      </trkpt>
      <trkpt lat="47.25601" lon="-2.22937">
        <ele>5</ele>
        <time>2021-05-23T12:56:02.982Z</time>
      </trkpt>
      <trkpt lat="47.25603" lon="-2.22936">
        <ele>5</ele>
        <time>2021-05-23T12:56:03.983Z</time>
      </trkpt>
      <trkpt lat="47.25604" lon="-2.22934">
        <ele>6</ele>
        <time>2021-05-23T12:56:04.982Z</time>
      </trkpt>
      <trkpt lat="47.25605" lon="-2.22933">
        <ele>6</ele>
        <time>2021-05-23T12:56:05.982Z</time>
      </trkpt>
      <trkpt lat="47.25606" lon="-2.22933">
        <ele>6</ele>
        <time>2021-05-23T12:56:06.982Z</time>
      </trkpt>
      <trkpt lat="47.25607" lon="-2.22932">
        <ele>6</ele>
        <time>2021-05-23T12:56:07.982Z</time>
      </trkpt>
      <trkpt lat="47.25609" lon="-2.22931">
        <ele>7</ele>
        <time>2021-05-23T12:56:08.982Z</time>
      </trkpt>
      <trkpt lat="47.2561" lon="-2.22931">
        <ele>7</ele>
        <time>2021-05-23T12:56:09.982Z</time>
      </trkpt>
      <trkpt lat="47.25612" lon="-2.2293">
        <ele>7</ele>
        <time>2021-05-23T12:56:10.982Z</time>
      </trkpt>
      <trkpt lat="47.25613" lon="-2.22929">
        <ele>7</ele>
        <time>2021-05-23T12:56:11.982Z</time>
      </trkpt>
      <trkpt lat="47.25614" lon="-2.22929">
        <ele>7</ele>
        <time>2021-05-23T12:56:12.983Z</time>
      </trkpt>
      <trkpt lat="47.25616" lon="-2.22928">
        <ele>7</ele>
        <time>2021-05-23T12:56:13.982Z</time>
      </trkpt>
      <trkpt lat="47.25617" lon="-2.22927">
        <ele>7</ele>
        <time>2021-05-23T12:56:14.982Z</time>
      </trkpt>
      <trkpt lat="47.25618" lon="-2.22926">
        <ele>7</ele>
        <time>2021-05-23T12:56:15.982Z</time>
      </trkpt>
      <trkpt lat="47.25619" lon="-2.22926">
        <ele>8</ele>
        <time>2021-05-23T12:56:16.982Z</time>
      </trkpt>
      <trkpt lat="47.2562" lon="-2.22925">
        <ele>8</ele>
        <time>2021-05-23T12:56:17.982Z</time>
      </trkpt>
      <trkpt lat="47.2562" lon="-2.22924">
        <ele>8</ele>
        <time>2021-05-23T12:56:18.982Z</time>
      </trkpt>
      <trkpt lat="47.25621" lon="-2.22924">
        <ele>8</ele>
        <time>2021-05-23T12:56:19.982Z</time>
      </trkpt>
      <trkpt lat="47.25622" lon="-2.22924">
        <ele>8</ele>
        <time>2021-05-23T12:56:20.983Z</time>
      </trkpt>
      <trkpt lat="47.25624" lon="-2.22925">
        <ele>8</ele>
        <time>2021-05-23T12:56:21.982Z</time>
      </trkpt>
      <trkpt lat="47.25625" lon="-2.22925">
        <ele>8</ele>
        <time>2021-05-23T12:56:22.982Z</time>
      </trkpt>
      <trkpt lat="47.25627" lon="-2.22925">
        <ele>8</ele>
        <time>2021-05-23T12:56:23.982Z</time>
      </trkpt>
      <trkpt lat="47.25628" lon="-2.22926">
        <ele>8</ele>
        <time>2021-05-23T12:56:24.982Z</time>
      </trkpt>
      <trkpt lat="47.2563" lon="-2.22926">
        <ele>7</ele>
        <time>2021-05-23T12:56:25.983Z</time>
      </trkpt>
      <trkpt lat="47.25631" lon="-2.22927">
        <ele>7</ele>
        <time>2021-05-23T12:56:26.983Z</time>
      </trkpt>
      <trkpt lat="47.25632" lon="-2.22927">
        <ele>7</ele>
        <time>2021-05-23T12:56:27.982Z</time>
      </trkpt>
      <trkpt lat="47.25634" lon="-2.22927">
        <ele>7</ele>
        <time>2021-05-23T12:56:28.982Z</time>
      </trkpt>
      <trkpt lat="47.25635" lon="-2.22928">
        <ele>7</ele>
        <time>2021-05-23T12:56:29.982Z</time>
      </trkpt>
      <trkpt lat="47.25637" lon="-2.22928">
        <ele>7</ele>
        <time>2021-05-23T12:56:30.982Z</time>
      </trkpt>
      <trkpt lat="47.25639" lon="-2.22928">
        <ele>7</ele>
        <time>2021-05-23T12:56:31.982Z</time>
      </trkpt>
      <trkpt lat="47.25639" lon="-2.22928">
        <ele>7</ele>
        <time>2021-05-23T12:56:32.983Z</time>
      </trkpt>
      <trkpt lat="47.25642" lon="-2.22928">
        <ele>7</ele>
        <time>2021-05-23T12:56:33.982Z</time>
      </trkpt>
      <trkpt lat="47.25644" lon="-2.22928">
        <ele>7</ele>
        <time>2021-05-23T12:56:34.982Z</time>
      </trkpt>
      <trkpt lat="47.25645" lon="-2.22929">
        <ele>7</ele>
        <time>2021-05-23T12:56:35.982Z</time>
      </trkpt>
      <trkpt lat="47.25646" lon="-2.2293">
        <ele>7</ele>
        <time>2021-05-23T12:56:36.982Z</time>
      </trkpt>
      <trkpt lat="47.25646" lon="-2.2293">
        <ele>7</ele>
        <time>2021-05-23T12:56:37.982Z</time>
      </trkpt>
      <trkpt lat="47.25649" lon="-2.22931">
        <ele>7</ele>
        <time>2021-05-23T12:56:38.982Z</time>
      </trkpt>
      <trkpt lat="47.25651" lon="-2.22931">
        <ele>8</ele>
        <time>2021-05-23T12:56:39.982Z</time>
      </trkpt>
      <trkpt lat="47.25652" lon="-2.22932">
        <ele>8</ele>
        <time>2021-05-23T12:56:40.982Z</time>
      </trkpt>
      <trkpt lat="47.25652" lon="-2.22932">
        <ele>8</ele>
        <time>2021-05-23T12:56:41.983Z</time>
      </trkpt>
      <trkpt lat="47.25653" lon="-2.22933">
        <ele>9</ele>
        <time>2021-05-23T12:56:42.982Z</time>
      </trkpt>
      <trkpt lat="47.25656" lon="-2.22935">
        <ele>10</ele>
        <time>2021-05-23T12:56:43.982Z</time>
      </trkpt>
      <trkpt lat="47.25657" lon="-2.22935">
        <ele>11</ele>
        <time>2021-05-23T12:56:44.982Z</time>
      </trkpt>
      <trkpt lat="47.25657" lon="-2.22935">
        <ele>11</ele>
        <time>2021-05-23T12:56:45.983Z</time>
      </trkpt>
      <trkpt lat="47.25659" lon="-2.22935">
        <ele>11</ele>
        <time>2021-05-23T12:56:46.982Z</time>
      </trkpt>
      <trkpt lat="47.25661" lon="-2.22936">
        <ele>12</ele>
        <time>2021-05-23T12:56:47.983Z</time>
      </trkpt>
      <trkpt lat="47.25664" lon="-2.22935">
        <ele>12</ele>
        <time>2021-05-23T12:56:48.982Z</time>
      </trkpt>
      <trkpt lat="47.25665" lon="-2.22933">
        <ele>12</ele>
        <time>2021-05-23T12:56:49.982Z</time>
      </trkpt>
      <trkpt lat="47.25665" lon="-2.22933">
        <ele>12</ele>
        <time>2021-05-23T12:56:50.982Z</time>
      </trkpt>
      <trkpt lat="47.25666" lon="-2.2293">
        <ele>12</ele>
        <time>2021-05-23T12:56:51.982Z</time>
      </trkpt>
      <trkpt lat="47.25666" lon="-2.2293">
        <ele>12</ele>
        <time>2021-05-23T12:56:52.982Z</time>
      </trkpt>
      <trkpt lat="47.25667" lon="-2.22927">
        <ele>13</ele>
        <time>2021-05-23T12:56:53.982Z</time>
      </trkpt>
      <trkpt lat="47.25667" lon="-2.22924">
        <ele>13</ele>
        <time>2021-05-23T12:56:54.982Z</time>
      </trkpt>
      <trkpt lat="47.25667" lon="-2.22922">
        <ele>13</ele>
        <time>2021-05-23T12:56:55.983Z</time>
      </trkpt>
      <trkpt lat="47.25667" lon="-2.2292">
        <ele>13</ele>
        <time>2021-05-23T12:56:56.982Z</time>
      </trkpt>
      <trkpt lat="47.25668" lon="-2.22917">
        <ele>13</ele>
        <time>2021-05-23T12:56:57.982Z</time>
      </trkpt>
      <trkpt lat="47.25669" lon="-2.22914">
        <ele>12</ele>
        <time>2021-05-23T12:56:58.982Z</time>
      </trkpt>
      <trkpt lat="47.25669" lon="-2.22912">
        <ele>13</ele>
        <time>2021-05-23T12:56:59.982Z</time>
      </trkpt>
      <trkpt lat="47.2567" lon="-2.22909">
        <ele>13</ele>
        <time>2021-05-23T12:57:00.982Z</time>
      </trkpt>
      <trkpt lat="47.2567" lon="-2.22909">
        <ele>13</ele>
        <time>2021-05-23T12:57:01.982Z</time>
      </trkpt>
      <trkpt lat="47.25671" lon="-2.22905">
        <ele>13</ele>
        <time>2021-05-23T12:57:02.983Z</time>
      </trkpt>
      <trkpt lat="47.25673" lon="-2.22899">
        <ele>13</ele>
        <time>2021-05-23T12:57:03.982Z</time>
      </trkpt>
      <trkpt lat="47.25674" lon="-2.22896">
        <ele>13</ele>
        <time>2021-05-23T12:57:04.983Z</time>
      </trkpt>
      <trkpt lat="47.25674" lon="-2.22892">
        <ele>13</ele>
        <time>2021-05-23T12:57:05.982Z</time>
      </trkpt>
      <trkpt lat="47.25674" lon="-2.22892">
        <ele>13</ele>
        <time>2021-05-23T12:57:06.983Z</time>
      </trkpt>
      <trkpt lat="47.25675" lon="-2.22889">
        <ele>13</ele>
        <time>2021-05-23T12:57:07.982Z</time>
      </trkpt>
      <trkpt lat="47.25678" lon="-2.22883">
        <ele>14</ele>
        <time>2021-05-23T12:57:08.983Z</time>
      </trkpt>
      <trkpt lat="47.25679" lon="-2.2288">
        <ele>14</ele>
        <time>2021-05-23T12:57:09.982Z</time>
      </trkpt>
      <trkpt lat="47.2568" lon="-2.22877">
        <ele>14</ele>
        <time>2021-05-23T12:57:10.983Z</time>
      </trkpt>
      <trkpt lat="47.25681" lon="-2.22874">
        <ele>14</ele>
        <time>2021-05-23T12:57:11.982Z</time>
      </trkpt>
      <trkpt lat="47.25682" lon="-2.22871">
        <ele>14</ele>
        <time>2021-05-23T12:57:12.982Z</time>
      </trkpt>
      <trkpt lat="47.25684" lon="-2.22868">
        <ele>15</ele>
        <time>2021-05-23T12:57:13.982Z</time>
      </trkpt>
      <trkpt lat="47.25686" lon="-2.22865">
        <ele>15</ele>
        <time>2021-05-23T12:57:14.982Z</time>
      </trkpt>
      <trkpt lat="47.25687" lon="-2.22863">
        <ele>16</ele>
        <time>2021-05-23T12:57:15.982Z</time>
      </trkpt>
      <trkpt lat="47.25689" lon="-2.2286">
        <ele>16</ele>
        <time>2021-05-23T12:57:16.983Z</time>
      </trkpt>
      <trkpt lat="47.25689" lon="-2.2286">
        <ele>16</ele>
        <time>2021-05-23T12:57:17.982Z</time>
      </trkpt>
      <trkpt lat="47.25693" lon="-2.22855">
        <ele>17</ele>
        <time>2021-05-23T12:57:18.982Z</time>
      </trkpt>
      <trkpt lat="47.25693" lon="-2.22854">
        <ele>17</ele>
        <time>2021-05-23T12:57:19.982Z</time>
      </trkpt>
      <trkpt lat="47.25694" lon="-2.22852">
        <ele>17</ele>
        <time>2021-05-23T12:57:20.983Z</time>
      </trkpt>
      <trkpt lat="47.25694" lon="-2.22852">
        <ele>17</ele>
        <time>2021-05-23T12:57:21.982Z</time>
      </trkpt>
      <trkpt lat="47.25696" lon="-2.22851">
        <ele>18</ele>
        <time>2021-05-23T12:57:22.982Z</time>
      </trkpt>
      <trkpt lat="47.257" lon="-2.22848">
        <ele>18</ele>
        <time>2021-05-23T12:57:23.982Z</time>
      </trkpt>
      <trkpt lat="47.25702" lon="-2.22847">
        <ele>18</ele>
        <time>2021-05-23T12:57:24.982Z</time>
      </trkpt>
      <trkpt lat="47.25704" lon="-2.22845">
        <ele>19</ele>
        <time>2021-05-23T12:57:25.982Z</time>
      </trkpt>
      <trkpt lat="47.25707" lon="-2.22843">
        <ele>19</ele>
        <time>2021-05-23T12:57:26.982Z</time>
      </trkpt>
      <trkpt lat="47.25707" lon="-2.22843">
        <ele>19</ele>
        <time>2021-05-23T12:57:27.983Z</time>
      </trkpt>
      <trkpt lat="47.25712" lon="-2.22839">
        <ele>19</ele>
        <time>2021-05-23T12:57:28.983Z</time>
      </trkpt>
      <trkpt lat="47.25715" lon="-2.22838">
        <ele>19</ele>
        <time>2021-05-23T12:57:29.983Z</time>
      </trkpt>
      <trkpt lat="47.25717" lon="-2.22836">
        <ele>20</ele>
        <time>2021-05-23T12:57:30.982Z</time>
      </trkpt>
      <trkpt lat="47.25717" lon="-2.22836">
        <ele>20</ele>
        <time>2021-05-23T12:57:31.982Z</time>
      </trkpt>
      <trkpt lat="47.25719" lon="-2.22834">
        <ele>20</ele>
        <time>2021-05-23T12:57:32.982Z</time>
      </trkpt>
      <trkpt lat="47.25723" lon="-2.22831">
        <ele>21</ele>
        <time>2021-05-23T12:57:33.982Z</time>
      </trkpt>
      <trkpt lat="47.25725" lon="-2.22829">
        <ele>21</ele>
        <time>2021-05-23T12:57:34.983Z</time>
      </trkpt>
      <trkpt lat="47.25727" lon="-2.22827">
        <ele>22</ele>
        <time>2021-05-23T12:57:35.982Z</time>
      </trkpt>
      <trkpt lat="47.25727" lon="-2.22827">
        <ele>22</ele>
        <time>2021-05-23T12:57:36.983Z</time>
      </trkpt>
      <trkpt lat="47.2573" lon="-2.22825">
        <ele>22</ele>
        <time>2021-05-23T12:57:37.982Z</time>
      </trkpt>
      <trkpt lat="47.25733" lon="-2.22822">
        <ele>22</ele>
        <time>2021-05-23T12:57:38.983Z</time>
      </trkpt>
      <trkpt lat="47.25735" lon="-2.22821">
        <ele>22</ele>
        <time>2021-05-23T12:57:39.983Z</time>
      </trkpt>
      <trkpt lat="47.25738" lon="-2.22819">
        <ele>22</ele>
        <time>2021-05-23T12:57:40.982Z</time>
      </trkpt>
      <trkpt lat="47.25738" lon="-2.22819">
        <ele>22</ele>
        <time>2021-05-23T12:57:41.982Z</time>
      </trkpt>
      <trkpt lat="47.2574" lon="-2.22818">
        <ele>22</ele>
        <time>2021-05-23T12:57:42.982Z</time>
      </trkpt>
      <trkpt lat="47.25746" lon="-2.22815">
        <ele>21</ele>
        <time>2021-05-23T12:57:43.982Z</time>
      </trkpt>
      <trkpt lat="47.25748" lon="-2.22813">
        <ele>22</ele>
        <time>2021-05-23T12:57:44.983Z</time>
      </trkpt>
      <trkpt lat="47.25751" lon="-2.22811">
        <ele>22</ele>
        <time>2021-05-23T12:57:45.982Z</time>
      </trkpt>
      <trkpt lat="47.25754" lon="-2.2281">
        <ele>22</ele>
        <time>2021-05-23T12:57:46.982Z</time>
      </trkpt>
      <trkpt lat="47.25754" lon="-2.2281">
        <ele>22</ele>
        <time>2021-05-23T12:57:47.983Z</time>
      </trkpt>
      <trkpt lat="47.25758" lon="-2.22808">
        <ele>22</ele>
        <time>2021-05-23T12:57:48.983Z</time>
      </trkpt>
      <trkpt lat="47.2576" lon="-2.22807">
        <ele>22</ele>
        <time>2021-05-23T12:57:49.982Z</time>
      </trkpt>
      <trkpt lat="47.25762" lon="-2.22805">
        <ele>22</ele>
        <time>2021-05-23T12:57:50.982Z</time>
      </trkpt>
      <trkpt lat="47.25762" lon="-2.22805">
        <ele>22</ele>
        <time>2021-05-23T12:57:51.982Z</time>
      </trkpt>
      <trkpt lat="47.25764" lon="-2.22803">
        <ele>22</ele>
        <time>2021-05-23T12:57:52.982Z</time>
      </trkpt>
      <trkpt lat="47.25767" lon="-2.22799">
        <ele>20</ele>
        <time>2021-05-23T12:57:53.982Z</time>
      </trkpt>
      <trkpt lat="47.25769" lon="-2.22797">
        <ele>19</ele>
        <time>2021-05-23T12:57:54.983Z</time>
      </trkpt>
      <trkpt lat="47.25771" lon="-2.22795">
        <ele>19</ele>
        <time>2021-05-23T12:57:55.982Z</time>
      </trkpt>
      <trkpt lat="47.25771" lon="-2.22795">
        <ele>19</ele>
        <time>2021-05-23T12:57:56.983Z</time>
      </trkpt>
      <trkpt lat="47.25773" lon="-2.22794">
        <ele>18</ele>
        <time>2021-05-23T12:57:57.982Z</time>
      </trkpt>
      <trkpt lat="47.25777" lon="-2.22789">
        <ele>18</ele>
        <time>2021-05-23T12:57:58.982Z</time>
      </trkpt>
      <trkpt lat="47.25778" lon="-2.22787">
        <ele>18</ele>
        <time>2021-05-23T12:57:59.982Z</time>
      </trkpt>
      <trkpt lat="47.2578" lon="-2.22785">
        <ele>18</ele>
        <time>2021-05-23T12:58:00.982Z</time>
      </trkpt>
      <trkpt lat="47.2578" lon="-2.22785">
        <ele>18</ele>
        <time>2021-05-23T12:58:01.982Z</time>
      </trkpt>
      <trkpt lat="47.25782" lon="-2.22783">
        <ele>19</ele>
        <time>2021-05-23T12:58:02.982Z</time>
      </trkpt>
      <trkpt lat="47.25784" lon="-2.2278">
        <ele>19</ele>
        <time>2021-05-23T12:58:03.983Z</time>
      </trkpt>
      <trkpt lat="47.25788" lon="-2.22775">
        <ele>19</ele>
        <time>2021-05-23T12:58:04.982Z</time>
      </trkpt>
      <trkpt lat="47.25789" lon="-2.22772">
        <ele>20</ele>
        <time>2021-05-23T12:58:05.982Z</time>
      </trkpt>
      <trkpt lat="47.25789" lon="-2.22772">
        <ele>20</ele>
        <time>2021-05-23T12:58:06.982Z</time>
      </trkpt>
      <trkpt lat="47.2579" lon="-2.22769">
        <ele>20</ele>
        <time>2021-05-23T12:58:07.982Z</time>
      </trkpt>
      <trkpt lat="47.25792" lon="-2.22763">
        <ele>21</ele>
        <time>2021-05-23T12:58:08.982Z</time>
      </trkpt>
      <trkpt lat="47.25794" lon="-2.2276">
        <ele>21</ele>
        <time>2021-05-23T12:58:09.982Z</time>
      </trkpt>
      <trkpt lat="47.25795" lon="-2.22757">
        <ele>21</ele>
        <time>2021-05-23T12:58:10.982Z</time>
      </trkpt>
      <trkpt lat="47.25795" lon="-2.22757">
        <ele>21</ele>
        <time>2021-05-23T12:58:11.982Z</time>
      </trkpt>
      <trkpt lat="47.25795" lon="-2.22754">
        <ele>20</ele>
        <time>2021-05-23T12:58:12.982Z</time>
      </trkpt>
      <trkpt lat="47.25797" lon="-2.22748">
        <ele>19</ele>
        <time>2021-05-23T12:58:13.982Z</time>
      </trkpt>
      <trkpt lat="47.25798" lon="-2.22745">
        <ele>18</ele>
        <time>2021-05-23T12:58:14.982Z</time>
      </trkpt>
      <trkpt lat="47.25798" lon="-2.22741">
        <ele>17</ele>
        <time>2021-05-23T12:58:15.982Z</time>
      </trkpt>
      <trkpt lat="47.25799" lon="-2.22738">
        <ele>16</ele>
        <time>2021-05-23T12:58:16.982Z</time>
      </trkpt>
      <trkpt lat="47.25799" lon="-2.22738">
        <ele>16</ele>
        <time>2021-05-23T12:58:17.982Z</time>
      </trkpt>
      <trkpt lat="47.258" lon="-2.22731">
        <ele>14</ele>
        <time>2021-05-23T12:58:18.982Z</time>
      </trkpt>
      <trkpt lat="47.25801" lon="-2.22728">
        <ele>12</ele>
        <time>2021-05-23T12:58:19.982Z</time>
      </trkpt>
      <trkpt lat="47.258" lon="-2.22725">
        <ele>11</ele>
        <time>2021-05-23T12:58:20.982Z</time>
      </trkpt>
      <trkpt lat="47.258" lon="-2.22725">
        <ele>11</ele>
        <time>2021-05-23T12:58:21.982Z</time>
      </trkpt>
      <trkpt lat="47.25801" lon="-2.2272">
        <ele>8</ele>
        <time>2021-05-23T12:58:22.982Z</time>
      </trkpt>
      <trkpt lat="47.25801" lon="-2.22718">
        <ele>8</ele>
        <time>2021-05-23T12:58:23.982Z</time>
      </trkpt>
      <trkpt lat="47.25802" lon="-2.22715">
        <ele>8</ele>
        <time>2021-05-23T12:58:24.982Z</time>
      </trkpt>
      <trkpt lat="47.25802" lon="-2.22713">
        <ele>7</ele>
        <time>2021-05-23T12:58:25.982Z</time>
      </trkpt>
      <trkpt lat="47.25802" lon="-2.22713">
        <ele>7</ele>
        <time>2021-05-23T12:58:26.982Z</time>
      </trkpt>
      <trkpt lat="47.25802" lon="-2.22711">
        <ele>6</ele>
        <time>2021-05-23T12:58:27.982Z</time>
      </trkpt>
      <trkpt lat="47.25803" lon="-2.22707">
        <ele>6</ele>
        <time>2021-05-23T12:58:28.982Z</time>
      </trkpt>
      <trkpt lat="47.25803" lon="-2.22704">
        <ele>6</ele>
        <time>2021-05-23T12:58:29.982Z</time>
      </trkpt>
      <trkpt lat="47.25804" lon="-2.22702">
        <ele>6</ele>
        <time>2021-05-23T12:58:30.982Z</time>
      </trkpt>
      <trkpt lat="47.25804" lon="-2.22702">
        <ele>6</ele>
        <time>2021-05-23T12:58:31.982Z</time>
      </trkpt>
      <trkpt lat="47.25803" lon="-2.227">
        <ele>6</ele>
        <time>2021-05-23T12:58:32.982Z</time>
      </trkpt>
      <trkpt lat="47.25803" lon="-2.22695">
        <ele>6</ele>
        <time>2021-05-23T12:58:33.982Z</time>
      </trkpt>
      <trkpt lat="47.25803" lon="-2.22692">
        <ele>6</ele>
        <time>2021-05-23T12:58:34.982Z</time>
      </trkpt>
      <trkpt lat="47.25802" lon="-2.2269">
        <ele>5</ele>
        <time>2021-05-23T12:58:35.983Z</time>
      </trkpt>
      <trkpt lat="47.25802" lon="-2.2269">
        <ele>5</ele>
        <time>2021-05-23T12:58:36.982Z</time>
      </trkpt>
      <trkpt lat="47.25802" lon="-2.22688">
        <ele>5</ele>
        <time>2021-05-23T12:58:37.983Z</time>
      </trkpt>
      <trkpt lat="47.25801" lon="-2.22683">
        <ele>4</ele>
        <time>2021-05-23T12:58:38.983Z</time>
      </trkpt>
      <trkpt lat="47.25801" lon="-2.22681">
        <ele>4</ele>
        <time>2021-05-23T12:58:39.983Z</time>
      </trkpt>
      <trkpt lat="47.258" lon="-2.22679">
        <ele>4</ele>
        <time>2021-05-23T12:58:40.982Z</time>
      </trkpt>
      <trkpt lat="47.258" lon="-2.22679">
        <ele>4</ele>
        <time>2021-05-23T12:58:41.982Z</time>
      </trkpt>
      <trkpt lat="47.258" lon="-2.22677">
        <ele>4</ele>
        <time>2021-05-23T12:58:42.982Z</time>
      </trkpt>
      <trkpt lat="47.258" lon="-2.22673">
        <ele>5</ele>
        <time>2021-05-23T12:58:43.982Z</time>
      </trkpt>
      <trkpt lat="47.258" lon="-2.22671">
        <ele>5</ele>
        <time>2021-05-23T12:58:44.982Z</time>
      </trkpt>
      <trkpt lat="47.258" lon="-2.22669">
        <ele>5</ele>
        <time>2021-05-23T12:58:45.982Z</time>
      </trkpt>
      <trkpt lat="47.25799" lon="-2.22666">
        <ele>5</ele>
        <time>2021-05-23T12:58:46.982Z</time>
      </trkpt>
      <trkpt lat="47.25799" lon="-2.22666">
        <ele>5</ele>
        <time>2021-05-23T12:58:47.982Z</time>
      </trkpt>
      <trkpt lat="47.25799" lon="-2.22662">
        <ele>4</ele>
        <time>2021-05-23T12:58:48.982Z</time>
      </trkpt>
      <trkpt lat="47.258" lon="-2.2266">
        <ele>4</ele>
        <time>2021-05-23T12:58:49.983Z</time>
      </trkpt>
      <trkpt lat="47.25799" lon="-2.22658">
        <ele>4</ele>
        <time>2021-05-23T12:58:50.982Z</time>
      </trkpt>
      <trkpt lat="47.25799" lon="-2.22658">
        <ele>4</ele>
        <time>2021-05-23T12:58:51.982Z</time>
      </trkpt>
      <trkpt lat="47.258" lon="-2.22656">
        <ele>4</ele>
        <time>2021-05-23T12:58:52.982Z</time>
      </trkpt>
      <trkpt lat="47.258" lon="-2.22651">
        <ele>3</ele>
        <time>2021-05-23T12:58:53.982Z</time>
      </trkpt>
      <trkpt lat="47.258" lon="-2.22649">
        <ele>3</ele>
        <time>2021-05-23T12:58:54.982Z</time>
      </trkpt>
      <trkpt lat="47.25801" lon="-2.22647">
        <ele>3</ele>
        <time>2021-05-23T12:58:55.982Z</time>
      </trkpt>
      <trkpt lat="47.25801" lon="-2.22647">
        <ele>3</ele>
        <time>2021-05-23T12:58:56.982Z</time>
      </trkpt>
      <trkpt lat="47.258" lon="-2.22645">
        <ele>3</ele>
        <time>2021-05-23T12:58:57.982Z</time>
      </trkpt>
      <trkpt lat="47.258" lon="-2.22641">
        <ele>3</ele>
        <time>2021-05-23T12:58:58.982Z</time>
      </trkpt>
      <trkpt lat="47.25801" lon="-2.22638">
        <ele>3</ele>
        <time>2021-05-23T12:58:59.982Z</time>
      </trkpt>
      <trkpt lat="47.258" lon="-2.22636">
        <ele>3</ele>
        <time>2021-05-23T12:59:00.983Z</time>
      </trkpt>
      <trkpt lat="47.258" lon="-2.22634">
        <ele>4</ele>
        <time>2021-05-23T12:59:01.982Z</time>
      </trkpt>
      <trkpt lat="47.258" lon="-2.22634">
        <ele>4</ele>
        <time>2021-05-23T12:59:02.982Z</time>
      </trkpt>
      <trkpt lat="47.25799" lon="-2.2263">
        <ele>4</ele>
        <time>2021-05-23T12:59:03.982Z</time>
      </trkpt>
      <trkpt lat="47.25799" lon="-2.22627">
        <ele>5</ele>
        <time>2021-05-23T12:59:04.982Z</time>
      </trkpt>
      <trkpt lat="47.25799" lon="-2.22625">
        <ele>5</ele>
        <time>2021-05-23T12:59:05.982Z</time>
      </trkpt>
      <trkpt lat="47.25799" lon="-2.22625">
        <ele>5</ele>
        <time>2021-05-23T12:59:06.983Z</time>
      </trkpt>
      <trkpt lat="47.25799" lon="-2.22623">
        <ele>5</ele>
        <time>2021-05-23T12:59:07.982Z</time>
      </trkpt>
      <trkpt lat="47.25799" lon="-2.22619">
        <ele>5</ele>
        <time>2021-05-23T12:59:08.982Z</time>
      </trkpt>
      <trkpt lat="47.258" lon="-2.22616">
        <ele>5</ele>
        <time>2021-05-23T12:59:09.982Z</time>
      </trkpt>
      <trkpt lat="47.258" lon="-2.22614">
        <ele>5</ele>
        <time>2021-05-23T12:59:10.983Z</time>
      </trkpt>
      <trkpt lat="47.258" lon="-2.22614">
        <ele>5</ele>
        <time>2021-05-23T12:59:11.982Z</time>
      </trkpt>
      <trkpt lat="47.25801" lon="-2.22609">
        <ele>5</ele>
        <time>2021-05-23T12:59:12.983Z</time>
      </trkpt>
      <trkpt lat="47.25801" lon="-2.22607">
        <ele>5</ele>
        <time>2021-05-23T12:59:13.982Z</time>
      </trkpt>
      <trkpt lat="47.25801" lon="-2.22605">
        <ele>5</ele>
        <time>2021-05-23T12:59:14.982Z</time>
      </trkpt>
      <trkpt lat="47.25801" lon="-2.22602">
        <ele>6</ele>
        <time>2021-05-23T12:59:15.982Z</time>
      </trkpt>
      <trkpt lat="47.25801" lon="-2.226">
        <ele>5</ele>
        <time>2021-05-23T12:59:16.983Z</time>
      </trkpt>
      <trkpt lat="47.25801" lon="-2.226">
        <ele>5</ele>
        <time>2021-05-23T12:59:17.982Z</time>
      </trkpt>
      <trkpt lat="47.25801" lon="-2.22595">
        <ele>5</ele>
        <time>2021-05-23T12:59:18.982Z</time>
      </trkpt>
      <trkpt lat="47.25801" lon="-2.22595">
        <ele>5</ele>
        <time>2021-05-23T12:59:19.982Z</time>
      </trkpt>
      <trkpt lat="47.25801" lon="-2.22591">
        <ele>5</ele>
        <time>2021-05-23T12:59:20.982Z</time>
      </trkpt>
      <trkpt lat="47.25801" lon="-2.22591">
        <ele>5</ele>
        <time>2021-05-23T12:59:21.982Z</time>
      </trkpt>
      <trkpt lat="47.25801" lon="-2.22589">
        <ele>4</ele>
        <time>2021-05-23T12:59:22.982Z</time>
      </trkpt>
      <trkpt lat="47.25802" lon="-2.22583">
        <ele>5</ele>
        <time>2021-05-23T12:59:23.982Z</time>
      </trkpt>
      <trkpt lat="47.25802" lon="-2.22581">
        <ele>5</ele>
        <time>2021-05-23T12:59:24.982Z</time>
      </trkpt>
      <trkpt lat="47.25803" lon="-2.22578">
        <ele>5</ele>
        <time>2021-05-23T12:59:25.982Z</time>
      </trkpt>
      <trkpt lat="47.25803" lon="-2.22578">
        <ele>5</ele>
        <time>2021-05-23T12:59:26.982Z</time>
      </trkpt>
      <trkpt lat="47.25803" lon="-2.22576">
        <ele>5</ele>
        <time>2021-05-23T12:59:27.982Z</time>
      </trkpt>
      <trkpt lat="47.25803" lon="-2.2257">
        <ele>5</ele>
        <time>2021-05-23T12:59:28.982Z</time>
      </trkpt>
      <trkpt lat="47.25804" lon="-2.22568">
        <ele>5</ele>
        <time>2021-05-23T12:59:29.983Z</time>
      </trkpt>
      <trkpt lat="47.25804" lon="-2.22567">
        <ele>6</ele>
        <time>2021-05-23T12:59:30.982Z</time>
      </trkpt>
      <trkpt lat="47.25804" lon="-2.22567">
        <ele>6</ele>
        <time>2021-05-23T12:59:31.982Z</time>
      </trkpt>
      <trkpt lat="47.25805" lon="-2.22565">
        <ele>5</ele>
        <time>2021-05-23T12:59:32.982Z</time>
      </trkpt>
      <trkpt lat="47.25805" lon="-2.22561">
        <ele>5</ele>
        <time>2021-05-23T12:59:33.982Z</time>
      </trkpt>
      <trkpt lat="47.25805" lon="-2.22559">
        <ele>5</ele>
        <time>2021-05-23T12:59:34.982Z</time>
      </trkpt>
      <trkpt lat="47.25806" lon="-2.22556">
        <ele>5</ele>
        <time>2021-05-23T12:59:35.982Z</time>
      </trkpt>
      <trkpt lat="47.25806" lon="-2.22556">
        <ele>5</ele>
        <time>2021-05-23T12:59:36.982Z</time>
      </trkpt>
      <trkpt lat="47.25806" lon="-2.22553">
        <ele>5</ele>
        <time>2021-05-23T12:59:37.982Z</time>
      </trkpt>
      <trkpt lat="47.25808" lon="-2.22546">
        <ele>5</ele>
        <time>2021-05-23T12:59:38.982Z</time>
      </trkpt>
      <trkpt lat="47.25808" lon="-2.22543">
        <ele>4</ele>
        <time>2021-05-23T12:59:39.982Z</time>
      </trkpt>
      <trkpt lat="47.25808" lon="-2.2254">
        <ele>4</ele>
        <time>2021-05-23T12:59:40.982Z</time>
      </trkpt>
      <trkpt lat="47.25808" lon="-2.2254">
        <ele>4</ele>
        <time>2021-05-23T12:59:41.982Z</time>
      </trkpt>
      <trkpt lat="47.25809" lon="-2.22534">
        <ele>4</ele>
        <time>2021-05-23T12:59:42.982Z</time>
      </trkpt>
      <trkpt lat="47.25809" lon="-2.22531">
        <ele>4</ele>
        <time>2021-05-23T12:59:43.982Z</time>
      </trkpt>
      <trkpt lat="47.2581" lon="-2.22528">
        <ele>3</ele>
        <time>2021-05-23T12:59:44.982Z</time>
      </trkpt>
      <trkpt lat="47.25811" lon="-2.22525">
        <ele>3</ele>
        <time>2021-05-23T12:59:45.982Z</time>
      </trkpt>
      <trkpt lat="47.25811" lon="-2.22523">
        <ele>3</ele>
        <time>2021-05-23T12:59:46.982Z</time>
      </trkpt>
      <trkpt lat="47.25812" lon="-2.2252">
        <ele>3</ele>
        <time>2021-05-23T12:59:47.982Z</time>
      </trkpt>
      <trkpt lat="47.25812" lon="-2.22518">
        <ele>2</ele>
        <time>2021-05-23T12:59:48.982Z</time>
      </trkpt>
      <trkpt lat="47.25813" lon="-2.22515">
        <ele>2</ele>
        <time>2021-05-23T12:59:49.982Z</time>
      </trkpt>
      <trkpt lat="47.25814" lon="-2.22512">
        <ele>1</ele>
        <time>2021-05-23T12:59:50.982Z</time>
      </trkpt>
      <trkpt lat="47.25815" lon="-2.2251">
        <ele>1</ele>
        <time>2021-05-23T12:59:51.982Z</time>
      </trkpt>
      <trkpt lat="47.25815" lon="-2.22507">
        <ele>1</ele>
        <time>2021-05-23T12:59:52.982Z</time>
      </trkpt>
      <trkpt lat="47.25816" lon="-2.22504">
        <ele>1</ele>
        <time>2021-05-23T12:59:53.982Z</time>
      </trkpt>
      <trkpt lat="47.25816" lon="-2.22501">
        <ele>1</ele>
        <time>2021-05-23T12:59:54.983Z</time>
      </trkpt>
      <trkpt lat="47.25817" lon="-2.22498">
        <ele>1</ele>
        <time>2021-05-23T12:59:55.982Z</time>
      </trkpt>
      <trkpt lat="47.25817" lon="-2.22498">
        <ele>1</ele>
        <time>2021-05-23T12:59:56.982Z</time>
      </trkpt>
      <trkpt lat="47.25818" lon="-2.22491">
        <ele>1</ele>
        <time>2021-05-23T12:59:57.982Z</time>
      </trkpt>
      <trkpt lat="47.25819" lon="-2.22487">
        <ele>1</ele>
        <time>2021-05-23T12:59:58.982Z</time>
      </trkpt>
      <trkpt lat="47.25819" lon="-2.22484">
        <ele>1</ele>
        <time>2021-05-23T12:59:59.982Z</time>
      </trkpt>
      <trkpt lat="47.2582" lon="-2.2248">
        <ele>1</ele>
        <time>2021-05-23T13:00:00.982Z</time>
      </trkpt>
      <trkpt lat="47.25821" lon="-2.22477">
        <ele>1</ele>
        <time>2021-05-23T13:00:01.982Z</time>
      </trkpt>
      <trkpt lat="47.25822" lon="-2.22473">
        <ele>1</ele>
        <time>2021-05-23T13:00:02.982Z</time>
      </trkpt>
      <trkpt lat="47.25822" lon="-2.2247">
        <ele>1</ele>
        <time>2021-05-23T13:00:03.982Z</time>
      </trkpt>
      <trkpt lat="47.25823" lon="-2.22467">
        <ele>1</ele>
        <time>2021-05-23T13:00:04.982Z</time>
      </trkpt>
      <trkpt lat="47.25824" lon="-2.22464">
        <ele>2</ele>
        <time>2021-05-23T13:00:05.982Z</time>
      </trkpt>
      <trkpt lat="47.25824" lon="-2.22461">
        <ele>2</ele>
        <time>2021-05-23T13:00:06.982Z</time>
      </trkpt>
      <trkpt lat="47.25825" lon="-2.22457">
        <ele>2</ele>
        <time>2021-05-23T13:00:07.982Z</time>
      </trkpt>
      <trkpt lat="47.25825" lon="-2.22454">
        <ele>2</ele>
        <time>2021-05-23T13:00:08.982Z</time>
      </trkpt>
      <trkpt lat="47.25826" lon="-2.22451">
        <ele>2</ele>
        <time>2021-05-23T13:00:09.982Z</time>
      </trkpt>
      <trkpt lat="47.25827" lon="-2.22448">
        <ele>2</ele>
        <time>2021-05-23T13:00:10.982Z</time>
      </trkpt>
      <trkpt lat="47.25828" lon="-2.22445">
        <ele>2</ele>
        <time>2021-05-23T13:00:11.982Z</time>
      </trkpt>
      <trkpt lat="47.25829" lon="-2.22442">
        <ele>2</ele>
        <time>2021-05-23T13:00:12.982Z</time>
      </trkpt>
      <trkpt lat="47.25829" lon="-2.22439">
        <ele>3</ele>
        <time>2021-05-23T13:00:13.982Z</time>
      </trkpt>
      <trkpt lat="47.2583" lon="-2.22436">
        <ele>3</ele>
        <time>2021-05-23T13:00:14.982Z</time>
      </trkpt>
      <trkpt lat="47.25831" lon="-2.22433">
        <ele>4</ele>
        <time>2021-05-23T13:00:15.982Z</time>
      </trkpt>
      <trkpt lat="47.25832" lon="-2.22429">
        <ele>4</ele>
        <time>2021-05-23T13:00:16.982Z</time>
      </trkpt>
      <trkpt lat="47.25833" lon="-2.22425">
        <ele>4</ele>
        <time>2021-05-23T13:00:17.982Z</time>
      </trkpt>
      <trkpt lat="47.25834" lon="-2.22422">
        <ele>4</ele>
        <time>2021-05-23T13:00:18.982Z</time>
      </trkpt>
      <trkpt lat="47.25835" lon="-2.22419">
        <ele>4</ele>
        <time>2021-05-23T13:00:19.983Z</time>
      </trkpt>
      <trkpt lat="47.25835" lon="-2.22416">
        <ele>4</ele>
        <time>2021-05-23T13:00:20.982Z</time>
      </trkpt>
      <trkpt lat="47.25836" lon="-2.22413">
        <ele>4</ele>
        <time>2021-05-23T13:00:21.982Z</time>
      </trkpt>
      <trkpt lat="47.25837" lon="-2.2241">
        <ele>3</ele>
        <time>2021-05-23T13:00:22.982Z</time>
      </trkpt>
      <trkpt lat="47.25838" lon="-2.22406">
        <ele>3</ele>
        <time>2021-05-23T13:00:23.982Z</time>
      </trkpt>
      <trkpt lat="47.25839" lon="-2.22403">
        <ele>3</ele>
        <time>2021-05-23T13:00:24.982Z</time>
      </trkpt>
      <trkpt lat="47.2584" lon="-2.224">
        <ele>3</ele>
        <time>2021-05-23T13:00:25.982Z</time>
      </trkpt>
      <trkpt lat="47.25841" lon="-2.22397">
        <ele>2</ele>
        <time>2021-05-23T13:00:26.982Z</time>
      </trkpt>
      <trkpt lat="47.25842" lon="-2.22393">
        <ele>2</ele>
        <time>2021-05-23T13:00:27.982Z</time>
      </trkpt>
      <trkpt lat="47.25843" lon="-2.2239">
        <ele>2</ele>
        <time>2021-05-23T13:00:28.982Z</time>
      </trkpt>
      <trkpt lat="47.25844" lon="-2.22387">
        <ele>2</ele>
        <time>2021-05-23T13:00:29.983Z</time>
      </trkpt>
      <trkpt lat="47.25844" lon="-2.22383">
        <ele>2</ele>
        <time>2021-05-23T13:00:30.982Z</time>
      </trkpt>
      <trkpt lat="47.25845" lon="-2.2238">
        <ele>2</ele>
        <time>2021-05-23T13:00:31.982Z</time>
      </trkpt>
      <trkpt lat="47.25846" lon="-2.22377">
        <ele>2</ele>
        <time>2021-05-23T13:00:32.982Z</time>
      </trkpt>
      <trkpt lat="47.25847" lon="-2.22374">
        <ele>2</ele>
        <time>2021-05-23T13:00:33.982Z</time>
      </trkpt>
      <trkpt lat="47.25848" lon="-2.2237">
        <ele>2</ele>
        <time>2021-05-23T13:00:34.983Z</time>
      </trkpt>
      <trkpt lat="47.25849" lon="-2.22367">
        <ele>2</ele>
        <time>2021-05-23T13:00:35.982Z</time>
      </trkpt>
      <trkpt lat="47.25849" lon="-2.22367">
        <ele>2</ele>
        <time>2021-05-23T13:00:36.982Z</time>
      </trkpt>
      <trkpt lat="47.25852" lon="-2.22361">
        <ele>2</ele>
        <time>2021-05-23T13:00:37.982Z</time>
      </trkpt>
      <trkpt lat="47.25853" lon="-2.22358">
        <ele>2</ele>
        <time>2021-05-23T13:00:38.982Z</time>
      </trkpt>
      <trkpt lat="47.25855" lon="-2.22355">
        <ele>2</ele>
        <time>2021-05-23T13:00:39.982Z</time>
      </trkpt>
      <trkpt lat="47.25856" lon="-2.22352">
        <ele>2</ele>
        <time>2021-05-23T13:00:40.982Z</time>
      </trkpt>
      <trkpt lat="47.25857" lon="-2.22349">
        <ele>2</ele>
        <time>2021-05-23T13:00:41.982Z</time>
      </trkpt>
      <trkpt lat="47.25858" lon="-2.22346">
        <ele>2</ele>
        <time>2021-05-23T13:00:42.982Z</time>
      </trkpt>
      <trkpt lat="47.25858" lon="-2.22343">
        <ele>2</ele>
        <time>2021-05-23T13:00:43.982Z</time>
      </trkpt>
      <trkpt lat="47.25859" lon="-2.2234">
        <ele>3</ele>
        <time>2021-05-23T13:00:44.982Z</time>
      </trkpt>
      <trkpt lat="47.25861" lon="-2.22338">
        <ele>3</ele>
        <time>2021-05-23T13:00:45.982Z</time>
      </trkpt>
      <trkpt lat="47.25863" lon="-2.22335">
        <ele>3</ele>
        <time>2021-05-23T13:00:46.982Z</time>
      </trkpt>
      <trkpt lat="47.25864" lon="-2.22333">
        <ele>4</ele>
        <time>2021-05-23T13:00:47.982Z</time>
      </trkpt>
      <trkpt lat="47.25866" lon="-2.2233">
        <ele>4</ele>
        <time>2021-05-23T13:00:48.982Z</time>
      </trkpt>
      <trkpt lat="47.25866" lon="-2.22328">
        <ele>5</ele>
        <time>2021-05-23T13:00:49.982Z</time>
      </trkpt>
      <trkpt lat="47.25868" lon="-2.22326">
        <ele>5</ele>
        <time>2021-05-23T13:00:50.982Z</time>
      </trkpt>
      <trkpt lat="47.25868" lon="-2.22326">
        <ele>5</ele>
        <time>2021-05-23T13:00:51.983Z</time>
      </trkpt>
      <trkpt lat="47.25872" lon="-2.22322">
        <ele>6</ele>
        <time>2021-05-23T13:00:52.982Z</time>
      </trkpt>
      <trkpt lat="47.25874" lon="-2.2232">
        <ele>6</ele>
        <time>2021-05-23T13:00:53.982Z</time>
      </trkpt>
      <trkpt lat="47.25876" lon="-2.22319">
        <ele>6</ele>
        <time>2021-05-23T13:00:54.983Z</time>
      </trkpt>
      <trkpt lat="47.25878" lon="-2.22318">
        <ele>6</ele>
        <time>2021-05-23T13:00:55.982Z</time>
      </trkpt>
      <trkpt lat="47.2588" lon="-2.22318">
        <ele>6</ele>
        <time>2021-05-23T13:00:56.983Z</time>
      </trkpt>
      <trkpt lat="47.25881" lon="-2.22318">
        <ele>6</ele>
        <time>2021-05-23T13:00:57.982Z</time>
      </trkpt>
      <trkpt lat="47.25884" lon="-2.22318">
        <ele>6</ele>
        <time>2021-05-23T13:00:58.982Z</time>
      </trkpt>
      <trkpt lat="47.25886" lon="-2.22317">
        <ele>6</ele>
        <time>2021-05-23T13:00:59.983Z</time>
      </trkpt>
      <trkpt lat="47.25888" lon="-2.22316">
        <ele>6</ele>
        <time>2021-05-23T13:01:00.982Z</time>
      </trkpt>
      <trkpt lat="47.25891" lon="-2.22317">
        <ele>6</ele>
        <time>2021-05-23T13:01:01.982Z</time>
      </trkpt>
      <trkpt lat="47.25893" lon="-2.22317">
        <ele>6</ele>
        <time>2021-05-23T13:01:02.982Z</time>
      </trkpt>
      <trkpt lat="47.25895" lon="-2.22318">
        <ele>6</ele>
        <time>2021-05-23T13:01:03.982Z</time>
      </trkpt>
      <trkpt lat="47.25897" lon="-2.22319">
        <ele>6</ele>
        <time>2021-05-23T13:01:04.982Z</time>
      </trkpt>
      <trkpt lat="47.25899" lon="-2.22321">
        <ele>6</ele>
        <time>2021-05-23T13:01:05.983Z</time>
      </trkpt>
      <trkpt lat="47.25901" lon="-2.22322">
        <ele>6</ele>
        <time>2021-05-23T13:01:06.982Z</time>
      </trkpt>
      <trkpt lat="47.25903" lon="-2.22324">
        <ele>6</ele>
        <time>2021-05-23T13:01:07.982Z</time>
      </trkpt>
      <trkpt lat="47.25905" lon="-2.22325">
        <ele>6</ele>
        <time>2021-05-23T13:01:08.982Z</time>
      </trkpt>
      <trkpt lat="47.25907" lon="-2.22326">
        <ele>6</ele>
        <time>2021-05-23T13:01:09.982Z</time>
      </trkpt>
      <trkpt lat="47.25909" lon="-2.22327">
        <ele>6</ele>
        <time>2021-05-23T13:01:10.983Z</time>
      </trkpt>
      <trkpt lat="47.25911" lon="-2.22329">
        <ele>6</ele>
        <time>2021-05-23T13:01:11.982Z</time>
      </trkpt>
      <trkpt lat="47.25913" lon="-2.2233">
        <ele>6</ele>
        <time>2021-05-23T13:01:12.983Z</time>
      </trkpt>
      <trkpt lat="47.25915" lon="-2.22331">
        <ele>6</ele>
        <time>2021-05-23T13:01:13.983Z</time>
      </trkpt>
      <trkpt lat="47.25917" lon="-2.22333">
        <ele>6</ele>
        <time>2021-05-23T13:01:14.982Z</time>
      </trkpt>
      <trkpt lat="47.25919" lon="-2.22334">
        <ele>6</ele>
        <time>2021-05-23T13:01:15.983Z</time>
      </trkpt>
      <trkpt lat="47.25921" lon="-2.22336">
        <ele>5</ele>
        <time>2021-05-23T13:01:16.983Z</time>
      </trkpt>
      <trkpt lat="47.25922" lon="-2.22338">
        <ele>5</ele>
        <time>2021-05-23T13:01:17.982Z</time>
      </trkpt>
      <trkpt lat="47.25925" lon="-2.22339">
        <ele>5</ele>
        <time>2021-05-23T13:01:18.982Z</time>
      </trkpt>
      <trkpt lat="47.25927" lon="-2.22341">
        <ele>6</ele>
        <time>2021-05-23T13:01:19.982Z</time>
      </trkpt>
      <trkpt lat="47.25929" lon="-2.22343">
        <ele>6</ele>
        <time>2021-05-23T13:01:20.982Z</time>
      </trkpt>
      <trkpt lat="47.25931" lon="-2.22344">
        <ele>6</ele>
        <time>2021-05-23T13:01:21.982Z</time>
      </trkpt>
      <trkpt lat="47.25932" lon="-2.22346">
        <ele>6</ele>
        <time>2021-05-23T13:01:22.982Z</time>
      </trkpt>
      <trkpt lat="47.25935" lon="-2.22347">
        <ele>6</ele>
        <time>2021-05-23T13:01:23.982Z</time>
      </trkpt>
      <trkpt lat="47.25937" lon="-2.22349">
        <ele>6</ele>
        <time>2021-05-23T13:01:24.982Z</time>
      </trkpt>
      <trkpt lat="47.25939" lon="-2.2235">
        <ele>6</ele>
        <time>2021-05-23T13:01:25.982Z</time>
      </trkpt>
      <trkpt lat="47.25941" lon="-2.22352">
        <ele>6</ele>
        <time>2021-05-23T13:01:26.982Z</time>
      </trkpt>
      <trkpt lat="47.25943" lon="-2.22354">
        <ele>6</ele>
        <time>2021-05-23T13:01:27.982Z</time>
      </trkpt>
      <trkpt lat="47.25945" lon="-2.22355">
        <ele>5</ele>
        <time>2021-05-23T13:01:28.982Z</time>
      </trkpt>
      <trkpt lat="47.25947" lon="-2.22357">
        <ele>5</ele>
        <time>2021-05-23T13:01:29.982Z</time>
      </trkpt>
      <trkpt lat="47.25949" lon="-2.22359">
        <ele>6</ele>
        <time>2021-05-23T13:01:30.982Z</time>
      </trkpt>
      <trkpt lat="47.25951" lon="-2.22361">
        <ele>6</ele>
        <time>2021-05-23T13:01:31.982Z</time>
      </trkpt>
      <trkpt lat="47.25953" lon="-2.22363">
        <ele>6</ele>
        <time>2021-05-23T13:01:32.982Z</time>
      </trkpt>
      <trkpt lat="47.25955" lon="-2.22365">
        <ele>6</ele>
        <time>2021-05-23T13:01:33.982Z</time>
      </trkpt>
      <trkpt lat="47.25957" lon="-2.22367">
        <ele>6</ele>
        <time>2021-05-23T13:01:34.982Z</time>
      </trkpt>
      <trkpt lat="47.25958" lon="-2.2237">
        <ele>6</ele>
        <time>2021-05-23T13:01:35.982Z</time>
      </trkpt>
      <trkpt lat="47.2596" lon="-2.22373">
        <ele>6</ele>
        <time>2021-05-23T13:01:36.982Z</time>
      </trkpt>
      <trkpt lat="47.25962" lon="-2.22374">
        <ele>7</ele>
        <time>2021-05-23T13:01:37.982Z</time>
      </trkpt>
      <trkpt lat="47.25965" lon="-2.22376">
        <ele>6</ele>
        <time>2021-05-23T13:01:38.982Z</time>
      </trkpt>
      <trkpt lat="47.25967" lon="-2.22377">
        <ele>6</ele>
        <time>2021-05-23T13:01:39.982Z</time>
      </trkpt>
      <trkpt lat="47.25969" lon="-2.22379">
        <ele>7</ele>
        <time>2021-05-23T13:01:40.982Z</time>
      </trkpt>
      <trkpt lat="47.25971" lon="-2.22381">
        <ele>7</ele>
        <time>2021-05-23T13:01:41.982Z</time>
      </trkpt>
      <trkpt lat="47.25972" lon="-2.22382">
        <ele>6</ele>
        <time>2021-05-23T13:01:42.982Z</time>
      </trkpt>
      <trkpt lat="47.25975" lon="-2.22383">
        <ele>6</ele>
        <time>2021-05-23T13:01:43.982Z</time>
      </trkpt>
      <trkpt lat="47.25977" lon="-2.22384">
        <ele>6</ele>
        <time>2021-05-23T13:01:44.982Z</time>
      </trkpt>
      <trkpt lat="47.2598" lon="-2.22383">
        <ele>6</ele>
        <time>2021-05-23T13:01:45.982Z</time>
      </trkpt>
      <trkpt lat="47.25983" lon="-2.22383">
        <ele>6</ele>
        <time>2021-05-23T13:01:46.982Z</time>
      </trkpt>
      <trkpt lat="47.25986" lon="-2.22383">
        <ele>7</ele>
        <time>2021-05-23T13:01:47.982Z</time>
      </trkpt>
      <trkpt lat="47.25989" lon="-2.22383">
        <ele>7</ele>
        <time>2021-05-23T13:01:48.982Z</time>
      </trkpt>
      <trkpt lat="47.25991" lon="-2.22383">
        <ele>6</ele>
        <time>2021-05-23T13:01:49.982Z</time>
      </trkpt>
      <trkpt lat="47.25994" lon="-2.22383">
        <ele>6</ele>
        <time>2021-05-23T13:01:50.982Z</time>
      </trkpt>
      <trkpt lat="47.25997" lon="-2.22384">
        <ele>6</ele>
        <time>2021-05-23T13:01:51.982Z</time>
      </trkpt>
      <trkpt lat="47.25999" lon="-2.22383">
        <ele>7</ele>
        <time>2021-05-23T13:01:52.982Z</time>
      </trkpt>
      <trkpt lat="47.26002" lon="-2.22383">
        <ele>7</ele>
        <time>2021-05-23T13:01:53.983Z</time>
      </trkpt>
      <trkpt lat="47.26004" lon="-2.22383">
        <ele>7</ele>
        <time>2021-05-23T13:01:54.982Z</time>
      </trkpt>
      <trkpt lat="47.26006" lon="-2.22383">
        <ele>7</ele>
        <time>2021-05-23T13:01:55.982Z</time>
      </trkpt>
      <trkpt lat="47.26009" lon="-2.22383">
        <ele>6</ele>
        <time>2021-05-23T13:01:56.982Z</time>
      </trkpt>
      <trkpt lat="47.26012" lon="-2.22383">
        <ele>6</ele>
        <time>2021-05-23T13:01:57.982Z</time>
      </trkpt>
      <trkpt lat="47.26014" lon="-2.22384">
        <ele>6</ele>
        <time>2021-05-23T13:01:58.982Z</time>
      </trkpt>
      <trkpt lat="47.26016" lon="-2.22384">
        <ele>6</ele>
        <time>2021-05-23T13:01:59.983Z</time>
      </trkpt>
      <trkpt lat="47.26018" lon="-2.22384">
        <ele>5</ele>
        <time>2021-05-23T13:02:00.982Z</time>
      </trkpt>
      <trkpt lat="47.26021" lon="-2.22384">
        <ele>5</ele>
        <time>2021-05-23T13:02:01.982Z</time>
      </trkpt>
      <trkpt lat="47.26023" lon="-2.22385">
        <ele>6</ele>
        <time>2021-05-23T13:02:02.983Z</time>
      </trkpt>
      <trkpt lat="47.26026" lon="-2.22385">
        <ele>6</ele>
        <time>2021-05-23T13:02:03.983Z</time>
      </trkpt>
      <trkpt lat="47.26028" lon="-2.22387">
        <ele>6</ele>
        <time>2021-05-23T13:02:04.982Z</time>
      </trkpt>
      <trkpt lat="47.2603" lon="-2.22388">
        <ele>6</ele>
        <time>2021-05-23T13:02:05.982Z</time>
      </trkpt>
      <trkpt lat="47.26032" lon="-2.22389">
        <ele>6</ele>
        <time>2021-05-23T13:02:06.982Z</time>
      </trkpt>
      <trkpt lat="47.26034" lon="-2.22391">
        <ele>6</ele>
        <time>2021-05-23T13:02:07.982Z</time>
      </trkpt>
      <trkpt lat="47.26037" lon="-2.22392">
        <ele>6</ele>
        <time>2021-05-23T13:02:08.982Z</time>
      </trkpt>
      <trkpt lat="47.26039" lon="-2.22394">
        <ele>6</ele>
        <time>2021-05-23T13:02:09.982Z</time>
      </trkpt>
      <trkpt lat="47.26041" lon="-2.22395">
        <ele>6</ele>
        <time>2021-05-23T13:02:10.982Z</time>
      </trkpt>
      <trkpt lat="47.26043" lon="-2.22397">
        <ele>6</ele>
        <time>2021-05-23T13:02:11.982Z</time>
      </trkpt>
      <trkpt lat="47.26044" lon="-2.22399">
        <ele>5</ele>
        <time>2021-05-23T13:02:12.982Z</time>
      </trkpt>
      <trkpt lat="47.26047" lon="-2.22401">
        <ele>5</ele>
        <time>2021-05-23T13:02:13.982Z</time>
      </trkpt>
      <trkpt lat="47.26048" lon="-2.22403">
        <ele>4</ele>
        <time>2021-05-23T13:02:14.982Z</time>
      </trkpt>
      <trkpt lat="47.2605" lon="-2.22405">
        <ele>4</ele>
        <time>2021-05-23T13:02:15.982Z</time>
      </trkpt>
      <trkpt lat="47.26053" lon="-2.22406">
        <ele>4</ele>
        <time>2021-05-23T13:02:16.982Z</time>
      </trkpt>
      <trkpt lat="47.26055" lon="-2.22408">
        <ele>4</ele>
        <time>2021-05-23T13:02:17.982Z</time>
      </trkpt>
      <trkpt lat="47.26057" lon="-2.22411">
        <ele>4</ele>
        <time>2021-05-23T13:02:18.982Z</time>
      </trkpt>
      <trkpt lat="47.26058" lon="-2.22413">
        <ele>5</ele>
        <time>2021-05-23T13:02:19.982Z</time>
      </trkpt>
      <trkpt lat="47.2606" lon="-2.22416">
        <ele>4</ele>
        <time>2021-05-23T13:02:20.983Z</time>
      </trkpt>
      <trkpt lat="47.26062" lon="-2.22418">
        <ele>4</ele>
        <time>2021-05-23T13:02:21.982Z</time>
      </trkpt>
      <trkpt lat="47.26064" lon="-2.22421">
        <ele>4</ele>
        <time>2021-05-23T13:02:22.982Z</time>
      </trkpt>
      <trkpt lat="47.26066" lon="-2.22423">
        <ele>4</ele>
        <time>2021-05-23T13:02:23.983Z</time>
      </trkpt>
      <trkpt lat="47.26068" lon="-2.22424">
        <ele>4</ele>
        <time>2021-05-23T13:02:24.982Z</time>
      </trkpt>
      <trkpt lat="47.2607" lon="-2.22426">
        <ele>4</ele>
        <time>2021-05-23T13:02:25.982Z</time>
      </trkpt>
      <trkpt lat="47.26072" lon="-2.22427">
        <ele>4</ele>
        <time>2021-05-23T13:02:26.982Z</time>
      </trkpt>
      <trkpt lat="47.26074" lon="-2.22429">
        <ele>4</ele>
        <time>2021-05-23T13:02:27.982Z</time>
      </trkpt>
      <trkpt lat="47.26075" lon="-2.22431">
        <ele>4</ele>
        <time>2021-05-23T13:02:28.982Z</time>
      </trkpt>
      <trkpt lat="47.26076" lon="-2.22433">
        <ele>4</ele>
        <time>2021-05-23T13:02:29.982Z</time>
      </trkpt>
      <trkpt lat="47.26078" lon="-2.22434">
        <ele>3</ele>
        <time>2021-05-23T13:02:30.983Z</time>
      </trkpt>
      <trkpt lat="47.26078" lon="-2.22436">
        <ele>3</ele>
        <time>2021-05-23T13:02:31.982Z</time>
      </trkpt>
      <trkpt lat="47.2608" lon="-2.22437">
        <ele>3</ele>
        <time>2021-05-23T13:02:32.982Z</time>
      </trkpt>
      <trkpt lat="47.26081" lon="-2.22438">
        <ele>3</ele>
        <time>2021-05-23T13:02:33.982Z</time>
      </trkpt>
      <trkpt lat="47.26083" lon="-2.22438">
        <ele>3</ele>
        <time>2021-05-23T13:02:34.982Z</time>
      </trkpt>
      <trkpt lat="47.26084" lon="-2.22438">
        <ele>3</ele>
        <time>2021-05-23T13:02:35.982Z</time>
      </trkpt>
      <trkpt lat="47.26085" lon="-2.22439">
        <ele>4</ele>
        <time>2021-05-23T13:02:36.982Z</time>
      </trkpt>
      <trkpt lat="47.26086" lon="-2.2244">
        <ele>4</ele>
        <time>2021-05-23T13:02:37.982Z</time>
      </trkpt>
      <trkpt lat="47.26087" lon="-2.22441">
        <ele>4</ele>
        <time>2021-05-23T13:02:38.982Z</time>
      </trkpt>
      <trkpt lat="47.26088" lon="-2.22442">
        <ele>4</ele>
        <time>2021-05-23T13:02:39.982Z</time>
      </trkpt>
      <trkpt lat="47.2609" lon="-2.22442">
        <ele>5</ele>
        <time>2021-05-23T13:02:40.982Z</time>
      </trkpt>
      <trkpt lat="47.26092" lon="-2.22442">
        <ele>5</ele>
        <time>2021-05-23T13:02:41.982Z</time>
      </trkpt>
      <trkpt lat="47.26093" lon="-2.22442">
        <ele>6</ele>
        <time>2021-05-23T13:02:42.982Z</time>
      </trkpt>
      <trkpt lat="47.26095" lon="-2.22442">
        <ele>6</ele>
        <time>2021-05-23T13:02:43.983Z</time>
      </trkpt>
      <trkpt lat="47.26097" lon="-2.22443">
        <ele>6</ele>
        <time>2021-05-23T13:02:44.982Z</time>
      </trkpt>
      <trkpt lat="47.26098" lon="-2.22444">
        <ele>7</ele>
        <time>2021-05-23T13:02:45.982Z</time>
      </trkpt>
      <trkpt lat="47.26099" lon="-2.22444">
        <ele>7</ele>
        <time>2021-05-23T13:02:46.982Z</time>
      </trkpt>
      <trkpt lat="47.26101" lon="-2.22445">
        <ele>6</ele>
        <time>2021-05-23T13:02:47.982Z</time>
      </trkpt>
      <trkpt lat="47.26102" lon="-2.22446">
        <ele>6</ele>
        <time>2021-05-23T13:02:48.982Z</time>
      </trkpt>
      <trkpt lat="47.26104" lon="-2.22446">
        <ele>6</ele>
        <time>2021-05-23T13:02:49.983Z</time>
      </trkpt>
      <trkpt lat="47.26105" lon="-2.22447">
        <ele>6</ele>
        <time>2021-05-23T13:02:50.983Z</time>
      </trkpt>
      <trkpt lat="47.26106" lon="-2.22447">
        <ele>6</ele>
        <time>2021-05-23T13:02:51.982Z</time>
      </trkpt>
      <trkpt lat="47.26108" lon="-2.22448">
        <ele>6</ele>
        <time>2021-05-23T13:02:52.982Z</time>
      </trkpt>
      <trkpt lat="47.26109" lon="-2.22449">
        <ele>6</ele>
        <time>2021-05-23T13:02:53.982Z</time>
      </trkpt>
      <trkpt lat="47.2611" lon="-2.22449">
        <ele>6</ele>
        <time>2021-05-23T13:02:54.982Z</time>
      </trkpt>
      <trkpt lat="47.26112" lon="-2.2245">
        <ele>6</ele>
        <time>2021-05-23T13:02:55.982Z</time>
      </trkpt>
      <trkpt lat="47.26113" lon="-2.2245">
        <ele>6</ele>
        <time>2021-05-23T13:02:56.982Z</time>
      </trkpt>
      <trkpt lat="47.26115" lon="-2.2245">
        <ele>6</ele>
        <time>2021-05-23T13:02:57.982Z</time>
      </trkpt>
      <trkpt lat="47.26116" lon="-2.22451">
        <ele>7</ele>
        <time>2021-05-23T13:02:58.982Z</time>
      </trkpt>
      <trkpt lat="47.26118" lon="-2.22451">
        <ele>7</ele>
        <time>2021-05-23T13:02:59.982Z</time>
      </trkpt>
      <trkpt lat="47.26119" lon="-2.22452">
        <ele>7</ele>
        <time>2021-05-23T13:03:00.983Z</time>
      </trkpt>
      <trkpt lat="47.26121" lon="-2.22452">
        <ele>7</ele>
        <time>2021-05-23T13:03:01.982Z</time>
      </trkpt>
      <trkpt lat="47.26122" lon="-2.22453">
        <ele>7</ele>
        <time>2021-05-23T13:03:02.982Z</time>
      </trkpt>
      <trkpt lat="47.26123" lon="-2.22453">
        <ele>8</ele>
        <time>2021-05-23T13:03:03.983Z</time>
      </trkpt>
      <trkpt lat="47.26125" lon="-2.22454">
        <ele>8</ele>
        <time>2021-05-23T13:03:04.982Z</time>
      </trkpt>
      <trkpt lat="47.26127" lon="-2.22454">
        <ele>8</ele>
        <time>2021-05-23T13:03:05.983Z</time>
      </trkpt>
      <trkpt lat="47.26128" lon="-2.22454">
        <ele>8</ele>
        <time>2021-05-23T13:03:06.982Z</time>
      </trkpt>
      <trkpt lat="47.2613" lon="-2.22455">
        <ele>8</ele>
        <time>2021-05-23T13:03:07.982Z</time>
      </trkpt>
      <trkpt lat="47.26131" lon="-2.22456">
        <ele>8</ele>
        <time>2021-05-23T13:03:08.982Z</time>
      </trkpt>
      <trkpt lat="47.26132" lon="-2.22456">
        <ele>8</ele>
        <time>2021-05-23T13:03:09.983Z</time>
      </trkpt>
      <trkpt lat="47.26134" lon="-2.22456">
        <ele>8</ele>
        <time>2021-05-23T13:03:10.982Z</time>
      </trkpt>
      <trkpt lat="47.26135" lon="-2.22456">
        <ele>8</ele>
        <time>2021-05-23T13:03:11.982Z</time>
      </trkpt>
      <trkpt lat="47.26136" lon="-2.22456">
        <ele>9</ele>
        <time>2021-05-23T13:03:12.982Z</time>
      </trkpt>
      <trkpt lat="47.26138" lon="-2.22457">
        <ele>9</ele>
        <time>2021-05-23T13:03:13.982Z</time>
      </trkpt>
      <trkpt lat="47.26139" lon="-2.22457">
        <ele>10</ele>
        <time>2021-05-23T13:03:14.982Z</time>
      </trkpt>
      <trkpt lat="47.2614" lon="-2.22457">
        <ele>11</ele>
        <time>2021-05-23T13:03:15.982Z</time>
      </trkpt>
      <trkpt lat="47.26141" lon="-2.22457">
        <ele>11</ele>
        <time>2021-05-23T13:03:16.982Z</time>
      </trkpt>
      <trkpt lat="47.26142" lon="-2.22458">
        <ele>12</ele>
        <time>2021-05-23T13:03:17.982Z</time>
      </trkpt>
      <trkpt lat="47.26144" lon="-2.22458">
        <ele>12</ele>
        <time>2021-05-23T13:03:18.982Z</time>
      </trkpt>
      <trkpt lat="47.26146" lon="-2.22458">
        <ele>12</ele>
        <time>2021-05-23T13:03:19.982Z</time>
      </trkpt>
      <trkpt lat="47.26147" lon="-2.22458">
        <ele>13</ele>
        <time>2021-05-23T13:03:20.982Z</time>
      </trkpt>
      <trkpt lat="47.26148" lon="-2.22457">
        <ele>13</ele>
        <time>2021-05-23T13:03:21.982Z</time>
      </trkpt>
      <trkpt lat="47.2615" lon="-2.22457">
        <ele>13</ele>
        <time>2021-05-23T13:03:22.982Z</time>
      </trkpt>
      <trkpt lat="47.26152" lon="-2.22457">
        <ele>13</ele>
        <time>2021-05-23T13:03:23.982Z</time>
      </trkpt>
      <trkpt lat="47.26153" lon="-2.22456">
        <ele>13</ele>
        <time>2021-05-23T13:03:24.982Z</time>
      </trkpt>
      <trkpt lat="47.26154" lon="-2.22456">
        <ele>12</ele>
        <time>2021-05-23T13:03:25.982Z</time>
      </trkpt>
      <trkpt lat="47.26155" lon="-2.22456">
        <ele>12</ele>
        <time>2021-05-23T13:03:26.982Z</time>
      </trkpt>
      <trkpt lat="47.26157" lon="-2.22456">
        <ele>11</ele>
        <time>2021-05-23T13:03:27.982Z</time>
      </trkpt>
      <trkpt lat="47.26159" lon="-2.22456">
        <ele>11</ele>
        <time>2021-05-23T13:03:28.982Z</time>
      </trkpt>
      <trkpt lat="47.2616" lon="-2.22455">
        <ele>10</ele>
        <time>2021-05-23T13:03:29.982Z</time>
      </trkpt>
      <trkpt lat="47.26162" lon="-2.22455">
        <ele>10</ele>
        <time>2021-05-23T13:03:30.982Z</time>
      </trkpt>
      <trkpt lat="47.26163" lon="-2.22455">
        <ele>10</ele>
        <time>2021-05-23T13:03:31.982Z</time>
      </trkpt>
      <trkpt lat="47.26165" lon="-2.22455">
        <ele>10</ele>
        <time>2021-05-23T13:03:32.982Z</time>
      </trkpt>
      <trkpt lat="47.26165" lon="-2.22455">
        <ele>10</ele>
        <time>2021-05-23T13:03:33.982Z</time>
      </trkpt>
      <trkpt lat="47.26168" lon="-2.22454">
        <ele>8</ele>
        <time>2021-05-23T13:03:34.982Z</time>
      </trkpt>
      <trkpt lat="47.26169" lon="-2.22454">
        <ele>8</ele>
        <time>2021-05-23T13:03:35.982Z</time>
      </trkpt>
      <trkpt lat="47.26171" lon="-2.22454">
        <ele>7</ele>
        <time>2021-05-23T13:03:36.982Z</time>
      </trkpt>
      <trkpt lat="47.26172" lon="-2.22454">
        <ele>7</ele>
        <time>2021-05-23T13:03:37.982Z</time>
      </trkpt>
      <trkpt lat="47.26174" lon="-2.22454">
        <ele>7</ele>
        <time>2021-05-23T13:03:38.982Z</time>
      </trkpt>
      <trkpt lat="47.26175" lon="-2.22455">
        <ele>7</ele>
        <time>2021-05-23T13:03:39.982Z</time>
      </trkpt>
      <trkpt lat="47.26176" lon="-2.22455">
        <ele>6</ele>
        <time>2021-05-23T13:03:40.982Z</time>
      </trkpt>
      <trkpt lat="47.26178" lon="-2.22454">
        <ele>6</ele>
        <time>2021-05-23T13:03:41.982Z</time>
      </trkpt>
      <trkpt lat="47.26179" lon="-2.22454">
        <ele>5</ele>
        <time>2021-05-23T13:03:42.982Z</time>
      </trkpt>
      <trkpt lat="47.2618" lon="-2.22454">
        <ele>5</ele>
        <time>2021-05-23T13:03:43.982Z</time>
      </trkpt>
      <trkpt lat="47.26181" lon="-2.22453">
        <ele>4</ele>
        <time>2021-05-23T13:03:44.982Z</time>
      </trkpt>
      <trkpt lat="47.26182" lon="-2.22454">
        <ele>4</ele>
        <time>2021-05-23T13:03:45.982Z</time>
      </trkpt>
      <trkpt lat="47.26184" lon="-2.22454">
        <ele>3</ele>
        <time>2021-05-23T13:03:46.982Z</time>
      </trkpt>
      <trkpt lat="47.26185" lon="-2.22454">
        <ele>3</ele>
        <time>2021-05-23T13:03:47.982Z</time>
      </trkpt>
      <trkpt lat="47.26187" lon="-2.22454">
        <ele>3</ele>
        <time>2021-05-23T13:03:48.982Z</time>
      </trkpt>
      <trkpt lat="47.26188" lon="-2.22455">
        <ele>3</ele>
        <time>2021-05-23T13:03:49.982Z</time>
      </trkpt>
      <trkpt lat="47.26189" lon="-2.22457">
        <ele>3</ele>
        <time>2021-05-23T13:03:50.982Z</time>
      </trkpt>
      <trkpt lat="47.2619" lon="-2.22458">
        <ele>2</ele>
        <time>2021-05-23T13:03:51.982Z</time>
      </trkpt>
      <trkpt lat="47.26192" lon="-2.22458">
        <ele>2</ele>
        <time>2021-05-23T13:03:52.982Z</time>
      </trkpt>
      <trkpt lat="47.26193" lon="-2.22458">
        <ele>2</ele>
        <time>2021-05-23T13:03:53.982Z</time>
      </trkpt>
      <trkpt lat="47.26195" lon="-2.22458">
        <ele>2</ele>
        <time>2021-05-23T13:03:54.982Z</time>
      </trkpt>
      <trkpt lat="47.26197" lon="-2.22459">
        <ele>2</ele>
        <time>2021-05-23T13:03:55.982Z</time>
      </trkpt>
      <trkpt lat="47.26198" lon="-2.2246">
        <ele>3</ele>
        <time>2021-05-23T13:03:56.982Z</time>
      </trkpt>
      <trkpt lat="47.262" lon="-2.2246">
        <ele>3</ele>
        <time>2021-05-23T13:03:57.982Z</time>
      </trkpt>
      <trkpt lat="47.26201" lon="-2.22461">
        <ele>3</ele>
        <time>2021-05-23T13:03:58.982Z</time>
      </trkpt>
      <trkpt lat="47.26202" lon="-2.22462">
        <ele>3</ele>
        <time>2021-05-23T13:03:59.982Z</time>
      </trkpt>
      <trkpt lat="47.26204" lon="-2.22462">
        <ele>3</ele>
        <time>2021-05-23T13:04:00.982Z</time>
      </trkpt>
      <trkpt lat="47.26205" lon="-2.22463">
        <ele>3</ele>
        <time>2021-05-23T13:04:01.982Z</time>
      </trkpt>
      <trkpt lat="47.26207" lon="-2.22464">
        <ele>4</ele>
        <time>2021-05-23T13:04:02.982Z</time>
      </trkpt>
      <trkpt lat="47.26208" lon="-2.22464">
        <ele>4</ele>
        <time>2021-05-23T13:04:03.982Z</time>
      </trkpt>
      <trkpt lat="47.2621" lon="-2.22465">
        <ele>5</ele>
        <time>2021-05-23T13:04:04.983Z</time>
      </trkpt>
      <trkpt lat="47.26212" lon="-2.22465">
        <ele>5</ele>
        <time>2021-05-23T13:04:05.983Z</time>
      </trkpt>
      <trkpt lat="47.26214" lon="-2.22465">
        <ele>5</ele>
        <time>2021-05-23T13:04:06.982Z</time>
      </trkpt>
      <trkpt lat="47.26215" lon="-2.22466">
        <ele>6</ele>
        <time>2021-05-23T13:04:07.982Z</time>
      </trkpt>
      <trkpt lat="47.26217" lon="-2.22467">
        <ele>6</ele>
        <time>2021-05-23T13:04:08.982Z</time>
      </trkpt>
      <trkpt lat="47.26218" lon="-2.22468">
        <ele>6</ele>
        <time>2021-05-23T13:04:09.982Z</time>
      </trkpt>
      <trkpt lat="47.2622" lon="-2.22469">
        <ele>6</ele>
        <time>2021-05-23T13:04:10.982Z</time>
      </trkpt>
      <trkpt lat="47.26222" lon="-2.2247">
        <ele>6</ele>
        <time>2021-05-23T13:04:11.982Z</time>
      </trkpt>
      <trkpt lat="47.26224" lon="-2.2247">
        <ele>6</ele>
        <time>2021-05-23T13:04:12.982Z</time>
      </trkpt>
      <trkpt lat="47.26226" lon="-2.22471">
        <ele>6</ele>
        <time>2021-05-23T13:04:13.982Z</time>
      </trkpt>
      <trkpt lat="47.26226" lon="-2.22471">
        <ele>6</ele>
        <time>2021-05-23T13:04:14.982Z</time>
      </trkpt>
      <trkpt lat="47.26231" lon="-2.22473">
        <ele>6</ele>
        <time>2021-05-23T13:04:15.982Z</time>
      </trkpt>
      <trkpt lat="47.26233" lon="-2.22474">
        <ele>6</ele>
        <time>2021-05-23T13:04:16.982Z</time>
      </trkpt>
      <trkpt lat="47.26233" lon="-2.22474">
        <ele>6</ele>
        <time>2021-05-23T13:04:17.982Z</time>
      </trkpt>
      <trkpt lat="47.26236" lon="-2.22477">
        <ele>6</ele>
        <time>2021-05-23T13:04:18.982Z</time>
      </trkpt>
      <trkpt lat="47.26238" lon="-2.22478">
        <ele>5</ele>
        <time>2021-05-23T13:04:19.982Z</time>
      </trkpt>
      <trkpt lat="47.2624" lon="-2.2248">
        <ele>5</ele>
        <time>2021-05-23T13:04:20.982Z</time>
      </trkpt>
      <trkpt lat="47.26242" lon="-2.2248">
        <ele>5</ele>
        <time>2021-05-23T13:04:21.982Z</time>
      </trkpt>
      <trkpt lat="47.26244" lon="-2.22481">
        <ele>5</ele>
        <time>2021-05-23T13:04:22.982Z</time>
      </trkpt>
      <trkpt lat="47.26247" lon="-2.22483">
        <ele>5</ele>
        <time>2021-05-23T13:04:23.982Z</time>
      </trkpt>
      <trkpt lat="47.26249" lon="-2.22484">
        <ele>5</ele>
        <time>2021-05-23T13:04:24.982Z</time>
      </trkpt>
      <trkpt lat="47.26251" lon="-2.22484">
        <ele>5</ele>
        <time>2021-05-23T13:04:25.982Z</time>
      </trkpt>
      <trkpt lat="47.26253" lon="-2.22484">
        <ele>5</ele>
        <time>2021-05-23T13:04:26.982Z</time>
      </trkpt>
      <trkpt lat="47.26255" lon="-2.22484">
        <ele>5</ele>
        <time>2021-05-23T13:04:27.982Z</time>
      </trkpt>
      <trkpt lat="47.26258" lon="-2.22484">
        <ele>6</ele>
        <time>2021-05-23T13:04:28.982Z</time>
      </trkpt>
      <trkpt lat="47.2626" lon="-2.22485">
        <ele>6</ele>
        <time>2021-05-23T13:04:29.982Z</time>
      </trkpt>
      <trkpt lat="47.26262" lon="-2.22486">
        <ele>6</ele>
        <time>2021-05-23T13:04:30.982Z</time>
      </trkpt>
      <trkpt lat="47.26264" lon="-2.22486">
        <ele>7</ele>
        <time>2021-05-23T13:04:31.982Z</time>
      </trkpt>
      <trkpt lat="47.26266" lon="-2.22487">
        <ele>7</ele>
        <time>2021-05-23T13:04:32.982Z</time>
      </trkpt>
      <trkpt lat="47.26268" lon="-2.22488">
        <ele>7</ele>
        <time>2021-05-23T13:04:33.982Z</time>
      </trkpt>
      <trkpt lat="47.2627" lon="-2.22489">
        <ele>7</ele>
        <time>2021-05-23T13:04:34.982Z</time>
      </trkpt>
      <trkpt lat="47.26272" lon="-2.22489">
        <ele>7</ele>
        <time>2021-05-23T13:04:35.982Z</time>
      </trkpt>
      <trkpt lat="47.26274" lon="-2.22491">
        <ele>7</ele>
        <time>2021-05-23T13:04:36.982Z</time>
      </trkpt>
      <trkpt lat="47.26276" lon="-2.22492">
        <ele>7</ele>
        <time>2021-05-23T13:04:37.982Z</time>
      </trkpt>
      <trkpt lat="47.26278" lon="-2.22493">
        <ele>6</ele>
        <time>2021-05-23T13:04:38.982Z</time>
      </trkpt>
      <trkpt lat="47.26281" lon="-2.22493">
        <ele>6</ele>
        <time>2021-05-23T13:04:39.982Z</time>
      </trkpt>
      <trkpt lat="47.26283" lon="-2.22493">
        <ele>6</ele>
        <time>2021-05-23T13:04:40.982Z</time>
      </trkpt>
      <trkpt lat="47.26286" lon="-2.22494">
        <ele>6</ele>
        <time>2021-05-23T13:04:41.982Z</time>
      </trkpt>
      <trkpt lat="47.26288" lon="-2.22495">
        <ele>6</ele>
        <time>2021-05-23T13:04:42.982Z</time>
      </trkpt>
      <trkpt lat="47.2629" lon="-2.22496">
        <ele>5</ele>
        <time>2021-05-23T13:04:43.982Z</time>
      </trkpt>
      <trkpt lat="47.26292" lon="-2.22497">
        <ele>5</ele>
        <time>2021-05-23T13:04:44.982Z</time>
      </trkpt>
      <trkpt lat="47.26294" lon="-2.22498">
        <ele>5</ele>
        <time>2021-05-23T13:04:45.982Z</time>
      </trkpt>
      <trkpt lat="47.26297" lon="-2.22498">
        <ele>4</ele>
        <time>2021-05-23T13:04:46.982Z</time>
      </trkpt>
      <trkpt lat="47.26299" lon="-2.22499">
        <ele>4</ele>
        <time>2021-05-23T13:04:47.982Z</time>
      </trkpt>
      <trkpt lat="47.26301" lon="-2.225">
        <ele>5</ele>
        <time>2021-05-23T13:04:48.982Z</time>
      </trkpt>
      <trkpt lat="47.26303" lon="-2.22501">
        <ele>5</ele>
        <time>2021-05-23T13:04:49.982Z</time>
      </trkpt>
      <trkpt lat="47.26305" lon="-2.22503">
        <ele>5</ele>
        <time>2021-05-23T13:04:50.982Z</time>
      </trkpt>
      <trkpt lat="47.26307" lon="-2.22503">
        <ele>5</ele>
        <time>2021-05-23T13:04:51.982Z</time>
      </trkpt>
      <trkpt lat="47.2631" lon="-2.22504">
        <ele>6</ele>
        <time>2021-05-23T13:04:52.982Z</time>
      </trkpt>
      <trkpt lat="47.26312" lon="-2.22505">
        <ele>5</ele>
        <time>2021-05-23T13:04:53.982Z</time>
      </trkpt>
      <trkpt lat="47.26314" lon="-2.22505">
        <ele>5</ele>
        <time>2021-05-23T13:04:54.982Z</time>
      </trkpt>
      <trkpt lat="47.26317" lon="-2.22506">
        <ele>5</ele>
        <time>2021-05-23T13:04:55.982Z</time>
      </trkpt>
      <trkpt lat="47.26319" lon="-2.22507">
        <ele>5</ele>
        <time>2021-05-23T13:04:56.982Z</time>
      </trkpt>
      <trkpt lat="47.26321" lon="-2.22507">
        <ele>4</ele>
        <time>2021-05-23T13:04:57.982Z</time>
      </trkpt>
      <trkpt lat="47.26324" lon="-2.22508">
        <ele>4</ele>
        <time>2021-05-23T13:04:58.982Z</time>
      </trkpt>
      <trkpt lat="47.26326" lon="-2.22509">
        <ele>4</ele>
        <time>2021-05-23T13:04:59.982Z</time>
      </trkpt>
      <trkpt lat="47.26328" lon="-2.2251">
        <ele>4</ele>
        <time>2021-05-23T13:05:00.982Z</time>
      </trkpt>
      <trkpt lat="47.2633" lon="-2.2251">
        <ele>4</ele>
        <time>2021-05-23T13:05:01.982Z</time>
      </trkpt>
      <trkpt lat="47.26332" lon="-2.22511">
        <ele>4</ele>
        <time>2021-05-23T13:05:02.982Z</time>
      </trkpt>
      <trkpt lat="47.26334" lon="-2.22512">
        <ele>4</ele>
        <time>2021-05-23T13:05:03.982Z</time>
      </trkpt>
      <trkpt lat="47.26336" lon="-2.22514">
        <ele>4</ele>
        <time>2021-05-23T13:05:04.982Z</time>
      </trkpt>
      <trkpt lat="47.26338" lon="-2.22514">
        <ele>4</ele>
        <time>2021-05-23T13:05:05.982Z</time>
      </trkpt>
      <trkpt lat="47.2634" lon="-2.22516">
        <ele>4</ele>
        <time>2021-05-23T13:05:06.982Z</time>
      </trkpt>
      <trkpt lat="47.26342" lon="-2.22517">
        <ele>3</ele>
        <time>2021-05-23T13:05:07.982Z</time>
      </trkpt>
      <trkpt lat="47.26344" lon="-2.22518">
        <ele>3</ele>
        <time>2021-05-23T13:05:08.982Z</time>
      </trkpt>
      <trkpt lat="47.26346" lon="-2.22519">
        <ele>3</ele>
        <time>2021-05-23T13:05:09.982Z</time>
      </trkpt>
      <trkpt lat="47.26348" lon="-2.2252">
        <ele>3</ele>
        <time>2021-05-23T13:05:10.982Z</time>
      </trkpt>
      <trkpt lat="47.26351" lon="-2.22521">
        <ele>3</ele>
        <time>2021-05-23T13:05:11.982Z</time>
      </trkpt>
      <trkpt lat="47.26353" lon="-2.22521">
        <ele>4</ele>
        <time>2021-05-23T13:05:12.983Z</time>
      </trkpt>
      <trkpt lat="47.26355" lon="-2.22522">
        <ele>4</ele>
        <time>2021-05-23T13:05:13.982Z</time>
      </trkpt>
      <trkpt lat="47.26358" lon="-2.22523">
        <ele>4</ele>
        <time>2021-05-23T13:05:14.982Z</time>
      </trkpt>
      <trkpt lat="47.2636" lon="-2.22524">
        <ele>4</ele>
        <time>2021-05-23T13:05:15.982Z</time>
      </trkpt>
      <trkpt lat="47.26363" lon="-2.22524">
        <ele>4</ele>
        <time>2021-05-23T13:05:16.982Z</time>
      </trkpt>
      <trkpt lat="47.26365" lon="-2.22524">
        <ele>5</ele>
        <time>2021-05-23T13:05:17.982Z</time>
      </trkpt>
      <trkpt lat="47.26367" lon="-2.22524">
        <ele>5</ele>
        <time>2021-05-23T13:05:18.982Z</time>
      </trkpt>
      <trkpt lat="47.26369" lon="-2.22525">
        <ele>5</ele>
        <time>2021-05-23T13:05:19.982Z</time>
      </trkpt>
      <trkpt lat="47.26371" lon="-2.22526">
        <ele>5</ele>
        <time>2021-05-23T13:05:20.982Z</time>
      </trkpt>
      <trkpt lat="47.26373" lon="-2.22526">
        <ele>5</ele>
        <time>2021-05-23T13:05:21.982Z</time>
      </trkpt>
      <trkpt lat="47.26373" lon="-2.22526">
        <ele>5</ele>
        <time>2021-05-23T13:05:22.982Z</time>
      </trkpt>
      <trkpt lat="47.26378" lon="-2.22527">
        <ele>5</ele>
        <time>2021-05-23T13:05:23.982Z</time>
      </trkpt>
      <trkpt lat="47.26381" lon="-2.22528">
        <ele>5</ele>
        <time>2021-05-23T13:05:24.983Z</time>
      </trkpt>
      <trkpt lat="47.26383" lon="-2.22528">
        <ele>5</ele>
        <time>2021-05-23T13:05:25.983Z</time>
      </trkpt>
      <trkpt lat="47.26386" lon="-2.22528">
        <ele>5</ele>
        <time>2021-05-23T13:05:26.982Z</time>
      </trkpt>
      <trkpt lat="47.26388" lon="-2.22527">
        <ele>5</ele>
        <time>2021-05-23T13:05:27.982Z</time>
      </trkpt>
      <trkpt lat="47.2639" lon="-2.22527">
        <ele>5</ele>
        <time>2021-05-23T13:05:28.982Z</time>
      </trkpt>
      <trkpt lat="47.26392" lon="-2.22527">
        <ele>5</ele>
        <time>2021-05-23T13:05:29.982Z</time>
      </trkpt>
      <trkpt lat="47.26394" lon="-2.22527">
        <ele>5</ele>
        <time>2021-05-23T13:05:30.982Z</time>
      </trkpt>
      <trkpt lat="47.26396" lon="-2.22527">
        <ele>5</ele>
        <time>2021-05-23T13:05:31.982Z</time>
      </trkpt>
      <trkpt lat="47.26398" lon="-2.22528">
        <ele>5</ele>
        <time>2021-05-23T13:05:32.982Z</time>
      </trkpt>
      <trkpt lat="47.264" lon="-2.22528">
        <ele>5</ele>
        <time>2021-05-23T13:05:33.983Z</time>
      </trkpt>
      <trkpt lat="47.26403" lon="-2.22528">
        <ele>5</ele>
        <time>2021-05-23T13:05:34.982Z</time>
      </trkpt>
      <trkpt lat="47.26405" lon="-2.22528">
        <ele>5</ele>
        <time>2021-05-23T13:05:35.982Z</time>
      </trkpt>
      <trkpt lat="47.26407" lon="-2.22529">
        <ele>5</ele>
        <time>2021-05-23T13:05:36.982Z</time>
      </trkpt>
      <trkpt lat="47.26409" lon="-2.22529">
        <ele>5</ele>
        <time>2021-05-23T13:05:37.983Z</time>
      </trkpt>
      <trkpt lat="47.26411" lon="-2.22529">
        <ele>5</ele>
        <time>2021-05-23T13:05:38.982Z</time>
      </trkpt>
      <trkpt lat="47.26412" lon="-2.22528">
        <ele>6</ele>
        <time>2021-05-23T13:05:39.982Z</time>
      </trkpt>
      <trkpt lat="47.26414" lon="-2.22528">
        <ele>6</ele>
        <time>2021-05-23T13:05:40.982Z</time>
      </trkpt>
      <trkpt lat="47.26415" lon="-2.22527">
        <ele>7</ele>
        <time>2021-05-23T13:05:41.982Z</time>
      </trkpt>
      <trkpt lat="47.26416" lon="-2.22527">
        <ele>7</ele>
        <time>2021-05-23T13:05:42.982Z</time>
      </trkpt>
      <trkpt lat="47.26417" lon="-2.22527">
        <ele>7</ele>
        <time>2021-05-23T13:05:43.982Z</time>
      </trkpt>
      <trkpt lat="47.26417" lon="-2.22526">
        <ele>8</ele>
        <time>2021-05-23T13:05:44.982Z</time>
      </trkpt>
      <trkpt lat="47.26416" lon="-2.22526">
        <ele>8</ele>
        <time>2021-05-23T13:05:45.983Z</time>
      </trkpt>
      <trkpt lat="47.26417" lon="-2.22526">
        <ele>8</ele>
        <time>2021-05-23T13:05:46.982Z</time>
      </trkpt>
      <trkpt lat="47.26418" lon="-2.22526">
        <ele>8</ele>
        <time>2021-05-23T13:05:47.982Z</time>
      </trkpt>
      <trkpt lat="47.26418" lon="-2.22527">
        <ele>8</ele>
        <time>2021-05-23T13:05:48.982Z</time>
      </trkpt>
      <trkpt lat="47.26419" lon="-2.22526">
        <ele>8</ele>
        <time>2021-05-23T13:05:49.982Z</time>
      </trkpt>
      <trkpt lat="47.2642" lon="-2.22526">
        <ele>8</ele>
        <time>2021-05-23T13:05:50.982Z</time>
      </trkpt>
      <trkpt lat="47.26421" lon="-2.22525">
        <ele>9</ele>
        <time>2021-05-23T13:05:51.982Z</time>
      </trkpt>
      <trkpt lat="47.26423" lon="-2.22525">
        <ele>9</ele>
        <time>2021-05-23T13:05:52.983Z</time>
      </trkpt>
      <trkpt lat="47.26424" lon="-2.22525">
        <ele>9</ele>
        <time>2021-05-23T13:05:53.982Z</time>
      </trkpt>
      <trkpt lat="47.26425" lon="-2.22524">
        <ele>9</ele>
        <time>2021-05-23T13:05:54.982Z</time>
      </trkpt>
      <trkpt lat="47.26426" lon="-2.22524">
        <ele>9</ele>
        <time>2021-05-23T13:05:55.982Z</time>
      </trkpt>
      <trkpt lat="47.26428" lon="-2.22524">
        <ele>9</ele>
        <time>2021-05-23T13:05:56.983Z</time>
      </trkpt>
      <trkpt lat="47.26429" lon="-2.22523">
        <ele>9</ele>
        <time>2021-05-23T13:05:57.983Z</time>
      </trkpt>
      <trkpt lat="47.26431" lon="-2.22523">
        <ele>9</ele>
        <time>2021-05-23T13:05:58.982Z</time>
      </trkpt>
      <trkpt lat="47.26432" lon="-2.22523">
        <ele>8</ele>
        <time>2021-05-23T13:05:59.983Z</time>
      </trkpt>
      <trkpt lat="47.26434" lon="-2.22522">
        <ele>8</ele>
        <time>2021-05-23T13:06:00.982Z</time>
      </trkpt>
      <trkpt lat="47.26435" lon="-2.22522">
        <ele>8</ele>
        <time>2021-05-23T13:06:01.982Z</time>
      </trkpt>
      <trkpt lat="47.26437" lon="-2.22522">
        <ele>8</ele>
        <time>2021-05-23T13:06:02.982Z</time>
      </trkpt>
      <trkpt lat="47.26438" lon="-2.22521">
        <ele>8</ele>
        <time>2021-05-23T13:06:03.982Z</time>
      </trkpt>
      <trkpt lat="47.26439" lon="-2.22521">
        <ele>8</ele>
        <time>2021-05-23T13:06:04.983Z</time>
      </trkpt>
      <trkpt lat="47.26441" lon="-2.22521">
        <ele>8</ele>
        <time>2021-05-23T13:06:05.982Z</time>
      </trkpt>
      <trkpt lat="47.26442" lon="-2.2252">
        <ele>8</ele>
        <time>2021-05-23T13:06:06.982Z</time>
      </trkpt>
      <trkpt lat="47.26443" lon="-2.22519">
        <ele>8</ele>
        <time>2021-05-23T13:06:07.982Z</time>
      </trkpt>
      <trkpt lat="47.26444" lon="-2.22519">
        <ele>8</ele>
        <time>2021-05-23T13:06:08.982Z</time>
      </trkpt>
      <trkpt lat="47.26445" lon="-2.22519">
        <ele>8</ele>
        <time>2021-05-23T13:06:09.982Z</time>
      </trkpt>
      <trkpt lat="47.26447" lon="-2.22518">
        <ele>8</ele>
        <time>2021-05-23T13:06:10.982Z</time>
      </trkpt>
      <trkpt lat="47.26448" lon="-2.22518">
        <ele>8</ele>
        <time>2021-05-23T13:06:11.982Z</time>
      </trkpt>
      <trkpt lat="47.2645" lon="-2.22518">
        <ele>7</ele>
        <time>2021-05-23T13:06:12.982Z</time>
      </trkpt>
      <trkpt lat="47.26451" lon="-2.22517">
        <ele>7</ele>
        <time>2021-05-23T13:06:13.982Z</time>
      </trkpt>
      <trkpt lat="47.26453" lon="-2.22517">
        <ele>7</ele>
        <time>2021-05-23T13:06:14.982Z</time>
      </trkpt>
      <trkpt lat="47.26454" lon="-2.22516">
        <ele>7</ele>
        <time>2021-05-23T13:06:15.982Z</time>
      </trkpt>
      <trkpt lat="47.26455" lon="-2.22516">
        <ele>7</ele>
        <time>2021-05-23T13:06:16.982Z</time>
      </trkpt>
      <trkpt lat="47.26458" lon="-2.22515">
        <ele>6</ele>
        <time>2021-05-23T13:06:17.982Z</time>
      </trkpt>
      <trkpt lat="47.26459" lon="-2.22514">
        <ele>6</ele>
        <time>2021-05-23T13:06:18.982Z</time>
      </trkpt>
      <trkpt lat="47.2646" lon="-2.22513">
        <ele>6</ele>
        <time>2021-05-23T13:06:19.982Z</time>
      </trkpt>
      <trkpt lat="47.26462" lon="-2.22513">
        <ele>6</ele>
        <time>2021-05-23T13:06:20.982Z</time>
      </trkpt>
      <trkpt lat="47.26463" lon="-2.22512">
        <ele>5</ele>
        <time>2021-05-23T13:06:21.982Z</time>
      </trkpt>
      <trkpt lat="47.26464" lon="-2.22512">
        <ele>5</ele>
        <time>2021-05-23T13:06:22.982Z</time>
      </trkpt>
      <trkpt lat="47.26466" lon="-2.22512">
        <ele>5</ele>
        <time>2021-05-23T13:06:23.982Z</time>
      </trkpt>
      <trkpt lat="47.26467" lon="-2.2251">
        <ele>6</ele>
        <time>2021-05-23T13:06:24.982Z</time>
      </trkpt>
      <trkpt lat="47.26468" lon="-2.22509">
        <ele>6</ele>
        <time>2021-05-23T13:06:25.982Z</time>
      </trkpt>
      <trkpt lat="47.26469" lon="-2.22508">
        <ele>6</ele>
        <time>2021-05-23T13:06:26.982Z</time>
      </trkpt>
      <trkpt lat="47.2647" lon="-2.22507">
        <ele>6</ele>
        <time>2021-05-23T13:06:27.982Z</time>
      </trkpt>
      <trkpt lat="47.26471" lon="-2.22507">
        <ele>6</ele>
        <time>2021-05-23T13:06:28.982Z</time>
      </trkpt>
      <trkpt lat="47.26473" lon="-2.22506">
        <ele>6</ele>
        <time>2021-05-23T13:06:29.982Z</time>
      </trkpt>
      <trkpt lat="47.26474" lon="-2.22505">
        <ele>6</ele>
        <time>2021-05-23T13:06:30.982Z</time>
      </trkpt>
      <trkpt lat="47.26475" lon="-2.22504">
        <ele>6</ele>
        <time>2021-05-23T13:06:31.982Z</time>
      </trkpt>
      <trkpt lat="47.26476" lon="-2.22503">
        <ele>6</ele>
        <time>2021-05-23T13:06:32.982Z</time>
      </trkpt>
      <trkpt lat="47.26476" lon="-2.22503">
        <ele>6</ele>
        <time>2021-05-23T13:06:33.982Z</time>
      </trkpt>
      <trkpt lat="47.26479" lon="-2.22501">
        <ele>6</ele>
        <time>2021-05-23T13:06:34.982Z</time>
      </trkpt>
      <trkpt lat="47.26481" lon="-2.22501">
        <ele>6</ele>
        <time>2021-05-23T13:06:35.983Z</time>
      </trkpt>
      <trkpt lat="47.26482" lon="-2.225">
        <ele>7</ele>
        <time>2021-05-23T13:06:36.983Z</time>
      </trkpt>
      <trkpt lat="47.26484" lon="-2.22499">
        <ele>7</ele>
        <time>2021-05-23T13:06:37.982Z</time>
      </trkpt>
      <trkpt lat="47.26486" lon="-2.22498">
        <ele>7</ele>
        <time>2021-05-23T13:06:38.982Z</time>
      </trkpt>
      <trkpt lat="47.26487" lon="-2.22497">
        <ele>7</ele>
        <time>2021-05-23T13:06:39.982Z</time>
      </trkpt>
      <trkpt lat="47.26489" lon="-2.22496">
        <ele>7</ele>
        <time>2021-05-23T13:06:40.983Z</time>
      </trkpt>
      <trkpt lat="47.26489" lon="-2.22496">
        <ele>7</ele>
        <time>2021-05-23T13:06:41.982Z</time>
      </trkpt>
      <trkpt lat="47.26492" lon="-2.22493">
        <ele>8</ele>
        <time>2021-05-23T13:06:42.982Z</time>
      </trkpt>
      <trkpt lat="47.26493" lon="-2.22492">
        <ele>8</ele>
        <time>2021-05-23T13:06:43.982Z</time>
      </trkpt>
      <trkpt lat="47.26495" lon="-2.22491">
        <ele>8</ele>
        <time>2021-05-23T13:06:44.982Z</time>
      </trkpt>
      <trkpt lat="47.26496" lon="-2.2249">
        <ele>9</ele>
        <time>2021-05-23T13:06:45.982Z</time>
      </trkpt>
      <trkpt lat="47.26498" lon="-2.22489">
        <ele>9</ele>
        <time>2021-05-23T13:06:46.982Z</time>
      </trkpt>
      <trkpt lat="47.26499" lon="-2.22488">
        <ele>10</ele>
        <time>2021-05-23T13:06:47.982Z</time>
      </trkpt>
      <trkpt lat="47.26501" lon="-2.22486">
        <ele>10</ele>
        <time>2021-05-23T13:06:48.982Z</time>
      </trkpt>
      <trkpt lat="47.26502" lon="-2.22485">
        <ele>10</ele>
        <time>2021-05-23T13:06:49.982Z</time>
      </trkpt>
      <trkpt lat="47.26504" lon="-2.22484">
        <ele>11</ele>
        <time>2021-05-23T13:06:50.982Z</time>
      </trkpt>
      <trkpt lat="47.26505" lon="-2.22483">
        <ele>11</ele>
        <time>2021-05-23T13:06:51.982Z</time>
      </trkpt>
      <trkpt lat="47.26507" lon="-2.22482">
        <ele>11</ele>
        <time>2021-05-23T13:06:52.982Z</time>
      </trkpt>
      <trkpt lat="47.26508" lon="-2.22481">
        <ele>11</ele>
        <time>2021-05-23T13:06:53.982Z</time>
      </trkpt>
      <trkpt lat="47.26509" lon="-2.2248">
        <ele>11</ele>
        <time>2021-05-23T13:06:54.982Z</time>
      </trkpt>
      <trkpt lat="47.2651" lon="-2.22478">
        <ele>11</ele>
        <time>2021-05-23T13:06:55.982Z</time>
      </trkpt>
      <trkpt lat="47.26511" lon="-2.22477">
        <ele>11</ele>
        <time>2021-05-23T13:06:56.982Z</time>
      </trkpt>
      <trkpt lat="47.26513" lon="-2.22476">
        <ele>11</ele>
        <time>2021-05-23T13:06:57.982Z</time>
      </trkpt>
      <trkpt lat="47.26514" lon="-2.22475">
        <ele>10</ele>
        <time>2021-05-23T13:06:58.982Z</time>
      </trkpt>
      <trkpt lat="47.26515" lon="-2.22474">
        <ele>11</ele>
        <time>2021-05-23T13:06:59.982Z</time>
      </trkpt>
      <trkpt lat="47.26516" lon="-2.22473">
        <ele>11</ele>
        <time>2021-05-23T13:07:00.982Z</time>
      </trkpt>
      <trkpt lat="47.26517" lon="-2.22472">
        <ele>11</ele>
        <time>2021-05-23T13:07:01.982Z</time>
      </trkpt>
      <trkpt lat="47.26518" lon="-2.22471">
        <ele>11</ele>
        <time>2021-05-23T13:07:02.982Z</time>
      </trkpt>
      <trkpt lat="47.26519" lon="-2.22469">
        <ele>11</ele>
        <time>2021-05-23T13:07:03.982Z</time>
      </trkpt>
      <trkpt lat="47.2652" lon="-2.22468">
        <ele>11</ele>
        <time>2021-05-23T13:07:04.982Z</time>
      </trkpt>
      <trkpt lat="47.26521" lon="-2.22467">
        <ele>11</ele>
        <time>2021-05-23T13:07:05.982Z</time>
      </trkpt>
      <trkpt lat="47.26523" lon="-2.22466">
        <ele>11</ele>
        <time>2021-05-23T13:07:06.982Z</time>
      </trkpt>
      <trkpt lat="47.26524" lon="-2.22464">
        <ele>11</ele>
        <time>2021-05-23T13:07:07.982Z</time>
      </trkpt>
      <trkpt lat="47.26525" lon="-2.22463">
        <ele>11</ele>
        <time>2021-05-23T13:07:08.982Z</time>
      </trkpt>
      <trkpt lat="47.26526" lon="-2.22462">
        <ele>11</ele>
        <time>2021-05-23T13:07:09.982Z</time>
      </trkpt>
      <trkpt lat="47.26527" lon="-2.22461">
        <ele>11</ele>
        <time>2021-05-23T13:07:10.982Z</time>
      </trkpt>
      <trkpt lat="47.26529" lon="-2.22459">
        <ele>11</ele>
        <time>2021-05-23T13:07:11.982Z</time>
      </trkpt>
      <trkpt lat="47.26529" lon="-2.22457">
        <ele>12</ele>
        <time>2021-05-23T13:07:12.982Z</time>
      </trkpt>
      <trkpt lat="47.2653" lon="-2.22456">
        <ele>11</ele>
        <time>2021-05-23T13:07:13.982Z</time>
      </trkpt>
      <trkpt lat="47.26531" lon="-2.22453">
        <ele>11</ele>
        <time>2021-05-23T13:07:14.983Z</time>
      </trkpt>
      <trkpt lat="47.26532" lon="-2.22451">
        <ele>11</ele>
        <time>2021-05-23T13:07:15.982Z</time>
      </trkpt>
      <trkpt lat="47.26533" lon="-2.2245">
        <ele>11</ele>
        <time>2021-05-23T13:07:16.982Z</time>
      </trkpt>
      <trkpt lat="47.26533" lon="-2.2245">
        <ele>11</ele>
        <time>2021-05-23T13:07:17.983Z</time>
      </trkpt>
      <trkpt lat="47.26536" lon="-2.22446">
        <ele>11</ele>
        <time>2021-05-23T13:07:18.982Z</time>
      </trkpt>
      <trkpt lat="47.26537" lon="-2.22444">
        <ele>11</ele>
        <time>2021-05-23T13:07:19.983Z</time>
      </trkpt>
      <trkpt lat="47.26538" lon="-2.22442">
        <ele>11</ele>
        <time>2021-05-23T13:07:20.982Z</time>
      </trkpt>
      <trkpt lat="47.26539" lon="-2.22441">
        <ele>11</ele>
        <time>2021-05-23T13:07:21.982Z</time>
      </trkpt>
      <trkpt lat="47.2654" lon="-2.22439">
        <ele>10</ele>
        <time>2021-05-23T13:07:22.983Z</time>
      </trkpt>
      <trkpt lat="47.26541" lon="-2.22437">
        <ele>10</ele>
        <time>2021-05-23T13:07:23.982Z</time>
      </trkpt>
      <trkpt lat="47.26542" lon="-2.22435">
        <ele>10</ele>
        <time>2021-05-23T13:07:24.982Z</time>
      </trkpt>
      <trkpt lat="47.26543" lon="-2.22433">
        <ele>11</ele>
        <time>2021-05-23T13:07:25.982Z</time>
      </trkpt>
      <trkpt lat="47.26544" lon="-2.22432">
        <ele>10</ele>
        <time>2021-05-23T13:07:26.982Z</time>
      </trkpt>
      <trkpt lat="47.26545" lon="-2.2243">
        <ele>10</ele>
        <time>2021-05-23T13:07:27.982Z</time>
      </trkpt>
      <trkpt lat="47.26546" lon="-2.22429">
        <ele>10</ele>
        <time>2021-05-23T13:07:28.982Z</time>
      </trkpt>
      <trkpt lat="47.26546" lon="-2.22427">
        <ele>10</ele>
        <time>2021-05-23T13:07:29.982Z</time>
      </trkpt>
      <trkpt lat="47.26547" lon="-2.22425">
        <ele>10</ele>
        <time>2021-05-23T13:07:30.982Z</time>
      </trkpt>
      <trkpt lat="47.26548" lon="-2.22424">
        <ele>10</ele>
        <time>2021-05-23T13:07:31.982Z</time>
      </trkpt>
      <trkpt lat="47.26549" lon="-2.22422">
        <ele>10</ele>
        <time>2021-05-23T13:07:32.982Z</time>
      </trkpt>
      <trkpt lat="47.26551" lon="-2.22421">
        <ele>10</ele>
        <time>2021-05-23T13:07:33.982Z</time>
      </trkpt>
      <trkpt lat="47.26551" lon="-2.2242">
        <ele>10</ele>
        <time>2021-05-23T13:07:34.982Z</time>
      </trkpt>
      <trkpt lat="47.26552" lon="-2.22418">
        <ele>11</ele>
        <time>2021-05-23T13:07:35.983Z</time>
      </trkpt>
      <trkpt lat="47.26553" lon="-2.22416">
        <ele>11</ele>
        <time>2021-05-23T13:07:36.982Z</time>
      </trkpt>
      <trkpt lat="47.26554" lon="-2.22414">
        <ele>11</ele>
        <time>2021-05-23T13:07:37.982Z</time>
      </trkpt>
      <trkpt lat="47.26554" lon="-2.22412">
        <ele>11</ele>
        <time>2021-05-23T13:07:38.982Z</time>
      </trkpt>
      <trkpt lat="47.26555" lon="-2.2241">
        <ele>11</ele>
        <time>2021-05-23T13:07:39.982Z</time>
      </trkpt>
      <trkpt lat="47.26556" lon="-2.22409">
        <ele>11</ele>
        <time>2021-05-23T13:07:40.982Z</time>
      </trkpt>
      <trkpt lat="47.26557" lon="-2.22407">
        <ele>11</ele>
        <time>2021-05-23T13:07:41.982Z</time>
      </trkpt>
      <trkpt lat="47.26558" lon="-2.22405">
        <ele>11</ele>
        <time>2021-05-23T13:07:42.982Z</time>
      </trkpt>
      <trkpt lat="47.26559" lon="-2.22403">
        <ele>11</ele>
        <time>2021-05-23T13:07:43.982Z</time>
      </trkpt>
      <trkpt lat="47.2656" lon="-2.224">
        <ele>11</ele>
        <time>2021-05-23T13:07:44.982Z</time>
      </trkpt>
      <trkpt lat="47.26561" lon="-2.22399">
        <ele>12</ele>
        <time>2021-05-23T13:07:45.982Z</time>
      </trkpt>
      <trkpt lat="47.26562" lon="-2.22396">
        <ele>11</ele>
        <time>2021-05-23T13:07:46.982Z</time>
      </trkpt>
      <trkpt lat="47.26563" lon="-2.22394">
        <ele>11</ele>
        <time>2021-05-23T13:07:47.982Z</time>
      </trkpt>
      <trkpt lat="47.26563" lon="-2.22393">
        <ele>11</ele>
        <time>2021-05-23T13:07:48.982Z</time>
      </trkpt>
      <trkpt lat="47.26563" lon="-2.22391">
        <ele>11</ele>
        <time>2021-05-23T13:07:49.982Z</time>
      </trkpt>
      <trkpt lat="47.26564" lon="-2.22389">
        <ele>11</ele>
        <time>2021-05-23T13:07:50.982Z</time>
      </trkpt>
      <trkpt lat="47.26565" lon="-2.22387">
        <ele>11</ele>
        <time>2021-05-23T13:07:51.982Z</time>
      </trkpt>
      <trkpt lat="47.26566" lon="-2.22385">
        <ele>10</ele>
        <time>2021-05-23T13:07:52.982Z</time>
      </trkpt>
      <trkpt lat="47.26567" lon="-2.22383">
        <ele>10</ele>
        <time>2021-05-23T13:07:53.982Z</time>
      </trkpt>
      <trkpt lat="47.26568" lon="-2.22381">
        <ele>10</ele>
        <time>2021-05-23T13:07:54.982Z</time>
      </trkpt>
      <trkpt lat="47.26569" lon="-2.2238">
        <ele>10</ele>
        <time>2021-05-23T13:07:55.982Z</time>
      </trkpt>
      <trkpt lat="47.26571" lon="-2.22379">
        <ele>10</ele>
        <time>2021-05-23T13:07:56.982Z</time>
      </trkpt>
      <trkpt lat="47.26572" lon="-2.22377">
        <ele>10</ele>
        <time>2021-05-23T13:07:57.982Z</time>
      </trkpt>
      <trkpt lat="47.26574" lon="-2.22375">
        <ele>10</ele>
        <time>2021-05-23T13:07:58.982Z</time>
      </trkpt>
      <trkpt lat="47.26575" lon="-2.22373">
        <ele>11</ele>
        <time>2021-05-23T13:07:59.982Z</time>
      </trkpt>
      <trkpt lat="47.26576" lon="-2.22372">
        <ele>11</ele>
        <time>2021-05-23T13:08:00.982Z</time>
      </trkpt>
      <trkpt lat="47.26577" lon="-2.2237">
        <ele>12</ele>
        <time>2021-05-23T13:08:01.982Z</time>
      </trkpt>
      <trkpt lat="47.26579" lon="-2.22369">
        <ele>12</ele>
        <time>2021-05-23T13:08:02.982Z</time>
      </trkpt>
      <trkpt lat="47.26581" lon="-2.22366">
        <ele>13</ele>
        <time>2021-05-23T13:08:03.982Z</time>
      </trkpt>
      <trkpt lat="47.26582" lon="-2.22364">
        <ele>13</ele>
        <time>2021-05-23T13:08:04.982Z</time>
      </trkpt>
      <trkpt lat="47.26582" lon="-2.22362">
        <ele>13</ele>
        <time>2021-05-23T13:08:05.982Z</time>
      </trkpt>
      <trkpt lat="47.26582" lon="-2.2236">
        <ele>13</ele>
        <time>2021-05-23T13:08:06.982Z</time>
      </trkpt>
      <trkpt lat="47.26583" lon="-2.22357">
        <ele>13</ele>
        <time>2021-05-23T13:08:07.982Z</time>
      </trkpt>
      <trkpt lat="47.26584" lon="-2.22356">
        <ele>13</ele>
        <time>2021-05-23T13:08:08.982Z</time>
      </trkpt>
      <trkpt lat="47.26585" lon="-2.22354">
        <ele>13</ele>
        <time>2021-05-23T13:08:09.982Z</time>
      </trkpt>
      <trkpt lat="47.26585" lon="-2.22353">
        <ele>13</ele>
        <time>2021-05-23T13:08:10.982Z</time>
      </trkpt>
      <trkpt lat="47.26586" lon="-2.22351">
        <ele>12</ele>
        <time>2021-05-23T13:08:11.983Z</time>
      </trkpt>
      <trkpt lat="47.26587" lon="-2.22349">
        <ele>12</ele>
        <time>2021-05-23T13:08:12.982Z</time>
      </trkpt>
      <trkpt lat="47.26588" lon="-2.22348">
        <ele>12</ele>
        <time>2021-05-23T13:08:13.982Z</time>
      </trkpt>
      <trkpt lat="47.26589" lon="-2.22346">
        <ele>12</ele>
        <time>2021-05-23T13:08:14.982Z</time>
      </trkpt>
      <trkpt lat="47.26591" lon="-2.22345">
        <ele>12</ele>
        <time>2021-05-23T13:08:15.982Z</time>
      </trkpt>
      <trkpt lat="47.26592" lon="-2.22344">
        <ele>12</ele>
        <time>2021-05-23T13:08:16.982Z</time>
      </trkpt>
      <trkpt lat="47.26594" lon="-2.22342">
        <ele>12</ele>
        <time>2021-05-23T13:08:17.982Z</time>
      </trkpt>
      <trkpt lat="47.26595" lon="-2.2234">
        <ele>12</ele>
        <time>2021-05-23T13:08:18.982Z</time>
      </trkpt>
      <trkpt lat="47.26596" lon="-2.22337">
        <ele>12</ele>
        <time>2021-05-23T13:08:19.982Z</time>
      </trkpt>
      <trkpt lat="47.26598" lon="-2.22335">
        <ele>12</ele>
        <time>2021-05-23T13:08:20.982Z</time>
      </trkpt>
      <trkpt lat="47.26599" lon="-2.22334">
        <ele>12</ele>
        <time>2021-05-23T13:08:21.982Z</time>
      </trkpt>
      <trkpt lat="47.266" lon="-2.22332">
        <ele>12</ele>
        <time>2021-05-23T13:08:22.983Z</time>
      </trkpt>
      <trkpt lat="47.26601" lon="-2.2233">
        <ele>13</ele>
        <time>2021-05-23T13:08:23.982Z</time>
      </trkpt>
      <trkpt lat="47.26602" lon="-2.22328">
        <ele>13</ele>
        <time>2021-05-23T13:08:24.982Z</time>
      </trkpt>
      <trkpt lat="47.26602" lon="-2.22326">
        <ele>14</ele>
        <time>2021-05-23T13:08:25.982Z</time>
      </trkpt>
      <trkpt lat="47.26603" lon="-2.22324">
        <ele>14</ele>
        <time>2021-05-23T13:08:26.982Z</time>
      </trkpt>
      <trkpt lat="47.26604" lon="-2.22322">
        <ele>14</ele>
        <time>2021-05-23T13:08:27.982Z</time>
      </trkpt>
      <trkpt lat="47.26605" lon="-2.22321">
        <ele>14</ele>
        <time>2021-05-23T13:08:28.982Z</time>
      </trkpt>
      <trkpt lat="47.26606" lon="-2.22319">
        <ele>14</ele>
        <time>2021-05-23T13:08:29.983Z</time>
      </trkpt>
      <trkpt lat="47.26607" lon="-2.22318">
        <ele>14</ele>
        <time>2021-05-23T13:08:30.983Z</time>
      </trkpt>
      <trkpt lat="47.26607" lon="-2.22316">
        <ele>14</ele>
        <time>2021-05-23T13:08:31.982Z</time>
      </trkpt>
      <trkpt lat="47.26608" lon="-2.22315">
        <ele>14</ele>
        <time>2021-05-23T13:08:32.982Z</time>
      </trkpt>
      <trkpt lat="47.26609" lon="-2.22313">
        <ele>14</ele>
        <time>2021-05-23T13:08:33.982Z</time>
      </trkpt>
      <trkpt lat="47.2661" lon="-2.22312">
        <ele>14</ele>
        <time>2021-05-23T13:08:34.982Z</time>
      </trkpt>
      <trkpt lat="47.26611" lon="-2.2231">
        <ele>14</ele>
        <time>2021-05-23T13:08:35.982Z</time>
      </trkpt>
      <trkpt lat="47.26612" lon="-2.22309">
        <ele>14</ele>
        <time>2021-05-23T13:08:36.982Z</time>
      </trkpt>
      <trkpt lat="47.26613" lon="-2.22307">
        <ele>14</ele>
        <time>2021-05-23T13:08:37.982Z</time>
      </trkpt>
      <trkpt lat="47.26614" lon="-2.22305">
        <ele>14</ele>
        <time>2021-05-23T13:08:38.983Z</time>
      </trkpt>
      <trkpt lat="47.26616" lon="-2.22303">
        <ele>14</ele>
        <time>2021-05-23T13:08:39.983Z</time>
      </trkpt>
      <trkpt lat="47.26617" lon="-2.22302">
        <ele>14</ele>
        <time>2021-05-23T13:08:40.982Z</time>
      </trkpt>
      <trkpt lat="47.26618" lon="-2.223">
        <ele>14</ele>
        <time>2021-05-23T13:08:41.982Z</time>
      </trkpt>
      <trkpt lat="47.26619" lon="-2.22298">
        <ele>14</ele>
        <time>2021-05-23T13:08:42.982Z</time>
      </trkpt>
      <trkpt lat="47.2662" lon="-2.22296">
        <ele>14</ele>
        <time>2021-05-23T13:08:43.982Z</time>
      </trkpt>
      <trkpt lat="47.26621" lon="-2.22294">
        <ele>13</ele>
        <time>2021-05-23T13:08:44.982Z</time>
      </trkpt>
      <trkpt lat="47.26622" lon="-2.22292">
        <ele>13</ele>
        <time>2021-05-23T13:08:45.982Z</time>
      </trkpt>
      <trkpt lat="47.26623" lon="-2.2229">
        <ele>13</ele>
        <time>2021-05-23T13:08:46.982Z</time>
      </trkpt>
      <trkpt lat="47.26623" lon="-2.22289">
        <ele>13</ele>
        <time>2021-05-23T13:08:47.982Z</time>
      </trkpt>
      <trkpt lat="47.26624" lon="-2.22287">
        <ele>13</ele>
        <time>2021-05-23T13:08:48.982Z</time>
      </trkpt>
      <trkpt lat="47.26625" lon="-2.22285">
        <ele>13</ele>
        <time>2021-05-23T13:08:49.982Z</time>
      </trkpt>
      <trkpt lat="47.26625" lon="-2.22283">
        <ele>14</ele>
        <time>2021-05-23T13:08:50.982Z</time>
      </trkpt>
      <trkpt lat="47.26627" lon="-2.22282">
        <ele>14</ele>
        <time>2021-05-23T13:08:51.982Z</time>
      </trkpt>
      <trkpt lat="47.26628" lon="-2.2228">
        <ele>14</ele>
        <time>2021-05-23T13:08:52.982Z</time>
      </trkpt>
      <trkpt lat="47.26629" lon="-2.22278">
        <ele>14</ele>
        <time>2021-05-23T13:08:53.982Z</time>
      </trkpt>
      <trkpt lat="47.2663" lon="-2.22276">
        <ele>14</ele>
        <time>2021-05-23T13:08:54.982Z</time>
      </trkpt>
      <trkpt lat="47.26631" lon="-2.22274">
        <ele>14</ele>
        <time>2021-05-23T13:08:55.982Z</time>
      </trkpt>
      <trkpt lat="47.26633" lon="-2.22272">
        <ele>15</ele>
        <time>2021-05-23T13:08:56.982Z</time>
      </trkpt>
      <trkpt lat="47.26633" lon="-2.2227">
        <ele>15</ele>
        <time>2021-05-23T13:08:57.982Z</time>
      </trkpt>
      <trkpt lat="47.26634" lon="-2.22268">
        <ele>15</ele>
        <time>2021-05-23T13:08:58.983Z</time>
      </trkpt>
      <trkpt lat="47.26636" lon="-2.22268">
        <ele>15</ele>
        <time>2021-05-23T13:08:59.982Z</time>
      </trkpt>
      <trkpt lat="47.26638" lon="-2.22266">
        <ele>15</ele>
        <time>2021-05-23T13:09:00.982Z</time>
      </trkpt>
      <trkpt lat="47.26639" lon="-2.22265">
        <ele>15</ele>
        <time>2021-05-23T13:09:01.982Z</time>
      </trkpt>
      <trkpt lat="47.2664" lon="-2.22263">
        <ele>15</ele>
        <time>2021-05-23T13:09:02.982Z</time>
      </trkpt>
      <trkpt lat="47.26641" lon="-2.22261">
        <ele>15</ele>
        <time>2021-05-23T13:09:03.982Z</time>
      </trkpt>
      <trkpt lat="47.26642" lon="-2.22259">
        <ele>14</ele>
        <time>2021-05-23T13:09:04.982Z</time>
      </trkpt>
      <trkpt lat="47.26643" lon="-2.22257">
        <ele>14</ele>
        <time>2021-05-23T13:09:05.982Z</time>
      </trkpt>
      <trkpt lat="47.26644" lon="-2.22255">
        <ele>14</ele>
        <time>2021-05-23T13:09:06.983Z</time>
      </trkpt>
      <trkpt lat="47.26645" lon="-2.22253">
        <ele>13</ele>
        <time>2021-05-23T13:09:07.982Z</time>
      </trkpt>
      <trkpt lat="47.26646" lon="-2.22252">
        <ele>13</ele>
        <time>2021-05-23T13:09:08.982Z</time>
      </trkpt>
      <trkpt lat="47.26647" lon="-2.2225">
        <ele>13</ele>
        <time>2021-05-23T13:09:09.982Z</time>
      </trkpt>
      <trkpt lat="47.26649" lon="-2.22248">
        <ele>14</ele>
        <time>2021-05-23T13:09:10.982Z</time>
      </trkpt>
      <trkpt lat="47.2665" lon="-2.22246">
        <ele>14</ele>
        <time>2021-05-23T13:09:11.983Z</time>
      </trkpt>
      <trkpt lat="47.26651" lon="-2.22245">
        <ele>14</ele>
        <time>2021-05-23T13:09:12.982Z</time>
      </trkpt>
      <trkpt lat="47.26652" lon="-2.22243">
        <ele>15</ele>
        <time>2021-05-23T13:09:13.982Z</time>
      </trkpt>
      <trkpt lat="47.26653" lon="-2.22241">
        <ele>15</ele>
        <time>2021-05-23T13:09:14.982Z</time>
      </trkpt>
      <trkpt lat="47.26654" lon="-2.22239">
        <ele>15</ele>
        <time>2021-05-23T13:09:15.982Z</time>
      </trkpt>
      <trkpt lat="47.26655" lon="-2.22237">
        <ele>15</ele>
        <time>2021-05-23T13:09:16.982Z</time>
      </trkpt>
      <trkpt lat="47.26655" lon="-2.22236">
        <ele>15</ele>
        <time>2021-05-23T13:09:17.982Z</time>
      </trkpt>
      <trkpt lat="47.26656" lon="-2.22234">
        <ele>14</ele>
        <time>2021-05-23T13:09:18.983Z</time>
      </trkpt>
      <trkpt lat="47.26657" lon="-2.22232">
        <ele>14</ele>
        <time>2021-05-23T13:09:19.982Z</time>
      </trkpt>
      <trkpt lat="47.26659" lon="-2.2223">
        <ele>13</ele>
        <time>2021-05-23T13:09:20.982Z</time>
      </trkpt>
      <trkpt lat="47.2666" lon="-2.22228">
        <ele>13</ele>
        <time>2021-05-23T13:09:21.983Z</time>
      </trkpt>
      <trkpt lat="47.26661" lon="-2.22227">
        <ele>12</ele>
        <time>2021-05-23T13:09:22.982Z</time>
      </trkpt>
      <trkpt lat="47.26662" lon="-2.22225">
        <ele>12</ele>
        <time>2021-05-23T13:09:23.982Z</time>
      </trkpt>
      <trkpt lat="47.26662" lon="-2.22224">
        <ele>11</ele>
        <time>2021-05-23T13:09:24.982Z</time>
      </trkpt>
      <trkpt lat="47.26663" lon="-2.22222">
        <ele>11</ele>
        <time>2021-05-23T13:09:25.982Z</time>
      </trkpt>
      <trkpt lat="47.26664" lon="-2.2222">
        <ele>11</ele>
        <time>2021-05-23T13:09:26.982Z</time>
      </trkpt>
      <trkpt lat="47.26665" lon="-2.22218">
        <ele>12</ele>
        <time>2021-05-23T13:09:27.982Z</time>
      </trkpt>
      <trkpt lat="47.26666" lon="-2.22216">
        <ele>12</ele>
        <time>2021-05-23T13:09:28.982Z</time>
      </trkpt>
      <trkpt lat="47.26668" lon="-2.22214">
        <ele>12</ele>
        <time>2021-05-23T13:09:29.982Z</time>
      </trkpt>
      <trkpt lat="47.26669" lon="-2.22212">
        <ele>12</ele>
        <time>2021-05-23T13:09:30.982Z</time>
      </trkpt>
      <trkpt lat="47.26669" lon="-2.22209">
        <ele>12</ele>
        <time>2021-05-23T13:09:31.982Z</time>
      </trkpt>
      <trkpt lat="47.2667" lon="-2.22208">
        <ele>12</ele>
        <time>2021-05-23T13:09:32.982Z</time>
      </trkpt>
      <trkpt lat="47.26671" lon="-2.22206">
        <ele>11</ele>
        <time>2021-05-23T13:09:33.982Z</time>
      </trkpt>
      <trkpt lat="47.26672" lon="-2.22204">
        <ele>10</ele>
        <time>2021-05-23T13:09:34.982Z</time>
      </trkpt>
      <trkpt lat="47.26673" lon="-2.22202">
        <ele>9</ele>
        <time>2021-05-23T13:09:35.982Z</time>
      </trkpt>
      <trkpt lat="47.26673" lon="-2.222">
        <ele>8</ele>
        <time>2021-05-23T13:09:36.982Z</time>
      </trkpt>
      <trkpt lat="47.26674" lon="-2.22198">
        <ele>8</ele>
        <time>2021-05-23T13:09:37.982Z</time>
      </trkpt>
      <trkpt lat="47.26675" lon="-2.22196">
        <ele>7</ele>
        <time>2021-05-23T13:09:38.982Z</time>
      </trkpt>
      <trkpt lat="47.26676" lon="-2.22194">
        <ele>7</ele>
        <time>2021-05-23T13:09:39.982Z</time>
      </trkpt>
      <trkpt lat="47.26677" lon="-2.22193">
        <ele>7</ele>
        <time>2021-05-23T13:09:40.982Z</time>
      </trkpt>
      <trkpt lat="47.26677" lon="-2.22191">
        <ele>7</ele>
        <time>2021-05-23T13:09:41.982Z</time>
      </trkpt>
      <trkpt lat="47.26679" lon="-2.22189">
        <ele>6</ele>
        <time>2021-05-23T13:09:42.982Z</time>
      </trkpt>
      <trkpt lat="47.2668" lon="-2.22187">
        <ele>6</ele>
        <time>2021-05-23T13:09:43.982Z</time>
      </trkpt>
      <trkpt lat="47.26681" lon="-2.22185">
        <ele>6</ele>
        <time>2021-05-23T13:09:44.982Z</time>
      </trkpt>
      <trkpt lat="47.26682" lon="-2.22184">
        <ele>6</ele>
        <time>2021-05-23T13:09:45.983Z</time>
      </trkpt>
      <trkpt lat="47.26683" lon="-2.22182">
        <ele>6</ele>
        <time>2021-05-23T13:09:46.983Z</time>
      </trkpt>
      <trkpt lat="47.26683" lon="-2.2218">
        <ele>6</ele>
        <time>2021-05-23T13:09:47.982Z</time>
      </trkpt>
      <trkpt lat="47.26684" lon="-2.22178">
        <ele>6</ele>
        <time>2021-05-23T13:09:48.982Z</time>
      </trkpt>
      <trkpt lat="47.26685" lon="-2.22176">
        <ele>7</ele>
        <time>2021-05-23T13:09:49.982Z</time>
      </trkpt>
      <trkpt lat="47.26687" lon="-2.22174">
        <ele>7</ele>
        <time>2021-05-23T13:09:50.982Z</time>
      </trkpt>
      <trkpt lat="47.26688" lon="-2.22172">
        <ele>7</ele>
        <time>2021-05-23T13:09:51.982Z</time>
      </trkpt>
      <trkpt lat="47.26689" lon="-2.22171">
        <ele>7</ele>
        <time>2021-05-23T13:09:52.982Z</time>
      </trkpt>
      <trkpt lat="47.2669" lon="-2.2217">
        <ele>7</ele>
        <time>2021-05-23T13:09:53.983Z</time>
      </trkpt>
      <trkpt lat="47.26691" lon="-2.22168">
        <ele>7</ele>
        <time>2021-05-23T13:09:54.982Z</time>
      </trkpt>
      <trkpt lat="47.26691" lon="-2.22168">
        <ele>7</ele>
        <time>2021-05-23T13:09:55.982Z</time>
      </trkpt>
      <trkpt lat="47.26693" lon="-2.22165">
        <ele>7</ele>
        <time>2021-05-23T13:09:56.982Z</time>
      </trkpt>
      <trkpt lat="47.26694" lon="-2.22163">
        <ele>7</ele>
        <time>2021-05-23T13:09:57.982Z</time>
      </trkpt>
      <trkpt lat="47.26694" lon="-2.22163">
        <ele>7</ele>
        <time>2021-05-23T13:09:58.982Z</time>
      </trkpt>
      <trkpt lat="47.26696" lon="-2.2216">
        <ele>7</ele>
        <time>2021-05-23T13:09:59.982Z</time>
      </trkpt>
      <trkpt lat="47.26698" lon="-2.22158">
        <ele>7</ele>
        <time>2021-05-23T13:10:00.982Z</time>
      </trkpt>
      <trkpt lat="47.26699" lon="-2.22157">
        <ele>7</ele>
        <time>2021-05-23T13:10:01.982Z</time>
      </trkpt>
      <trkpt lat="47.267" lon="-2.22156">
        <ele>7</ele>
        <time>2021-05-23T13:10:02.982Z</time>
      </trkpt>
      <trkpt lat="47.26701" lon="-2.22154">
        <ele>8</ele>
        <time>2021-05-23T13:10:03.983Z</time>
      </trkpt>
      <trkpt lat="47.26702" lon="-2.22152">
        <ele>8</ele>
        <time>2021-05-23T13:10:04.982Z</time>
      </trkpt>
      <trkpt lat="47.26702" lon="-2.2215">
        <ele>9</ele>
        <time>2021-05-23T13:10:05.982Z</time>
      </trkpt>
      <trkpt lat="47.26703" lon="-2.22148">
        <ele>10</ele>
        <time>2021-05-23T13:10:06.982Z</time>
      </trkpt>
      <trkpt lat="47.26704" lon="-2.22146">
        <ele>10</ele>
        <time>2021-05-23T13:10:07.982Z</time>
      </trkpt>
      <trkpt lat="47.26705" lon="-2.22144">
        <ele>11</ele>
        <time>2021-05-23T13:10:08.983Z</time>
      </trkpt>
      <trkpt lat="47.26705" lon="-2.22142">
        <ele>11</ele>
        <time>2021-05-23T13:10:09.982Z</time>
      </trkpt>
      <trkpt lat="47.26706" lon="-2.22141">
        <ele>11</ele>
        <time>2021-05-23T13:10:10.982Z</time>
      </trkpt>
      <trkpt lat="47.26707" lon="-2.22139">
        <ele>12</ele>
        <time>2021-05-23T13:10:11.982Z</time>
      </trkpt>
      <trkpt lat="47.26707" lon="-2.22137">
        <ele>12</ele>
        <time>2021-05-23T13:10:12.982Z</time>
      </trkpt>
      <trkpt lat="47.26708" lon="-2.22136">
        <ele>11</ele>
        <time>2021-05-23T13:10:13.983Z</time>
      </trkpt>
      <trkpt lat="47.26709" lon="-2.22134">
        <ele>11</ele>
        <time>2021-05-23T13:10:14.982Z</time>
      </trkpt>
      <trkpt lat="47.26709" lon="-2.22132">
        <ele>10</ele>
        <time>2021-05-23T13:10:15.983Z</time>
      </trkpt>
      <trkpt lat="47.2671" lon="-2.2213">
        <ele>10</ele>
        <time>2021-05-23T13:10:16.982Z</time>
      </trkpt>
      <trkpt lat="47.26711" lon="-2.22129">
        <ele>9</ele>
        <time>2021-05-23T13:10:17.982Z</time>
      </trkpt>
      <trkpt lat="47.26712" lon="-2.22127">
        <ele>9</ele>
        <time>2021-05-23T13:10:18.982Z</time>
      </trkpt>
      <trkpt lat="47.26712" lon="-2.22126">
        <ele>9</ele>
        <time>2021-05-23T13:10:19.982Z</time>
      </trkpt>
      <trkpt lat="47.26713" lon="-2.22126">
        <ele>9</ele>
        <time>2021-05-23T13:10:20.982Z</time>
      </trkpt>
      <trkpt lat="47.26714" lon="-2.22125">
        <ele>8</ele>
        <time>2021-05-23T13:10:21.982Z</time>
      </trkpt>
      <trkpt lat="47.26714" lon="-2.22125">
        <ele>8</ele>
        <time>2021-05-23T13:10:22.982Z</time>
      </trkpt>
      <trkpt lat="47.26715" lon="-2.22124">
        <ele>8</ele>
        <time>2021-05-23T13:10:23.982Z</time>
      </trkpt>
      <trkpt lat="47.26715" lon="-2.22124">
        <ele>8</ele>
        <time>2021-05-23T13:10:24.982Z</time>
      </trkpt>
      <trkpt lat="47.26715" lon="-2.22123">
        <ele>8</ele>
        <time>2021-05-23T13:10:25.982Z</time>
      </trkpt>
      <trkpt lat="47.26715" lon="-2.22124">
        <ele>8</ele>
        <time>2021-05-23T13:10:26.982Z</time>
      </trkpt>
      <trkpt lat="47.26714" lon="-2.22124">
        <ele>9</ele>
        <time>2021-05-23T13:10:27.982Z</time>
      </trkpt>
      <trkpt lat="47.26714" lon="-2.22125">
        <ele>9</ele>
        <time>2021-05-23T13:10:28.982Z</time>
      </trkpt>
      <trkpt lat="47.26713" lon="-2.22125">
        <ele>9</ele>
        <time>2021-05-23T13:10:29.982Z</time>
      </trkpt>
      <trkpt lat="47.26712" lon="-2.22124">
        <ele>9</ele>
        <time>2021-05-23T13:10:30.983Z</time>
      </trkpt>
      <trkpt lat="47.26712" lon="-2.22124">
        <ele>8</ele>
        <time>2021-05-23T13:10:31.983Z</time>
      </trkpt>
      <trkpt lat="47.26712" lon="-2.22124">
        <ele>8</ele>
        <time>2021-05-23T13:10:32.982Z</time>
      </trkpt>
      <trkpt lat="47.26712" lon="-2.22124">
        <ele>8</ele>
        <time>2021-05-23T13:10:33.982Z</time>
      </trkpt>
      <trkpt lat="47.26712" lon="-2.22124">
        <ele>8</ele>
        <time>2021-05-23T13:10:34.982Z</time>
      </trkpt>
      <trkpt lat="47.26712" lon="-2.22124">
        <ele>8</ele>
        <time>2021-05-23T13:10:35.982Z</time>
      </trkpt>
      <trkpt lat="47.26712" lon="-2.22124">
        <ele>7</ele>
        <time>2021-05-23T13:10:36.982Z</time>
      </trkpt>
      <trkpt lat="47.26712" lon="-2.22124">
        <ele>7</ele>
        <time>2021-05-23T13:10:37.983Z</time>
      </trkpt>
      <trkpt lat="47.26712" lon="-2.22124">
        <ele>7</ele>
        <time>2021-05-23T13:10:38.982Z</time>
      </trkpt>
      <trkpt lat="47.26712" lon="-2.22124">
        <ele>7</ele>
        <time>2021-05-23T13:10:39.982Z</time>
      </trkpt>
      <trkpt lat="47.26712" lon="-2.22124">
        <ele>7</ele>
        <time>2021-05-23T13:10:40.983Z</time>
      </trkpt>
      <trkpt lat="47.26712" lon="-2.22124">
        <ele>7</ele>
        <time>2021-05-23T13:10:41.983Z</time>
      </trkpt>
      <trkpt lat="47.26712" lon="-2.22124">
        <ele>7</ele>
        <time>2021-05-23T13:10:42.983Z</time>
      </trkpt>
      <trkpt lat="47.26712" lon="-2.22124">
        <ele>7</ele>
        <time>2021-05-23T13:10:43.982Z</time>
      </trkpt>
      <trkpt lat="47.26712" lon="-2.22124">
        <ele>7</ele>
        <time>2021-05-23T13:10:44.983Z</time>
      </trkpt>
      <trkpt lat="47.26712" lon="-2.22124">
        <ele>7</ele>
        <time>2021-05-23T13:10:45.983Z</time>
      </trkpt>
      <trkpt lat="47.26712" lon="-2.22124">
        <ele>7</ele>
        <time>2021-05-23T13:10:46.982Z</time>
      </trkpt>
      <trkpt lat="47.26712" lon="-2.22124">
        <ele>7</ele>
        <time>2021-05-23T13:10:47.983Z</time>
      </trkpt>
      <trkpt lat="47.26712" lon="-2.22124">
        <ele>7</ele>
        <time>2021-05-23T13:10:48.982Z</time>
      </trkpt>
      <trkpt lat="47.26712" lon="-2.22124">
        <ele>7</ele>
        <time>2021-05-23T13:10:49.983Z</time>
      </trkpt>
      <trkpt lat="47.26712" lon="-2.22124">
        <ele>6</ele>
        <time>2021-05-23T13:10:50.982Z</time>
      </trkpt>
      <trkpt lat="47.26712" lon="-2.22124">
        <ele>6</ele>
        <time>2021-05-23T13:10:51.983Z</time>
      </trkpt>
      <trkpt lat="47.26712" lon="-2.22123">
        <ele>6</ele>
        <time>2021-05-23T13:10:52.982Z</time>
      </trkpt>
      <trkpt lat="47.26713" lon="-2.22123">
        <ele>6</ele>
        <time>2021-05-23T13:10:53.982Z</time>
      </trkpt>
      <trkpt lat="47.26713" lon="-2.22123">
        <ele>6</ele>
        <time>2021-05-23T13:10:54.982Z</time>
      </trkpt>
      <trkpt lat="47.26713" lon="-2.22124">
        <ele>6</ele>
        <time>2021-05-23T13:10:55.982Z</time>
      </trkpt>
      <trkpt lat="47.26712" lon="-2.22124">
        <ele>6</ele>
        <time>2021-05-23T13:10:56.982Z</time>
      </trkpt>
      <trkpt lat="47.26712" lon="-2.22124">
        <ele>6</ele>
        <time>2021-05-23T13:10:57.983Z</time>
      </trkpt>
      <trkpt lat="47.26712" lon="-2.22124">
        <ele>6</ele>
        <time>2021-05-23T13:10:58.982Z</time>
      </trkpt>
      <trkpt lat="47.26712" lon="-2.22124">
        <ele>6</ele>
        <time>2021-05-23T13:10:59.983Z</time>
      </trkpt>
      <trkpt lat="47.26713" lon="-2.22124">
        <ele>6</ele>
        <time>2021-05-23T13:11:00.983Z</time>
      </trkpt>
      <trkpt lat="47.26713" lon="-2.22124">
        <ele>6</ele>
        <time>2021-05-23T13:11:01.983Z</time>
      </trkpt>
      <trkpt lat="47.26713" lon="-2.22124">
        <ele>6</ele>
        <time>2021-05-23T13:11:02.982Z</time>
      </trkpt>
      <trkpt lat="47.26713" lon="-2.22124">
        <ele>6</ele>
        <time>2021-05-23T13:11:03.982Z</time>
      </trkpt>
      <trkpt lat="47.26712" lon="-2.22124">
        <ele>6</ele>
        <time>2021-05-23T13:11:04.982Z</time>
      </trkpt>
      <trkpt lat="47.26712" lon="-2.22124">
        <ele>6</ele>
        <time>2021-05-23T13:11:05.982Z</time>
      </trkpt>
      <trkpt lat="47.26712" lon="-2.22124">
        <ele>6</ele>
        <time>2021-05-23T13:11:06.982Z</time>
      </trkpt>
      <trkpt lat="47.26712" lon="-2.22124">
        <ele>6</ele>
        <time>2021-05-23T13:11:07.982Z</time>
      </trkpt>
      <trkpt lat="47.26712" lon="-2.22124">
        <ele>6</ele>
        <time>2021-05-23T13:11:08.982Z</time>
      </trkpt>
      <trkpt lat="47.26713" lon="-2.22125">
        <ele>6</ele>
        <time>2021-05-23T13:11:09.982Z</time>
      </trkpt>
      <trkpt lat="47.26713" lon="-2.22125">
        <ele>6</ele>
        <time>2021-05-23T13:11:10.982Z</time>
      </trkpt>
      <trkpt lat="47.26713" lon="-2.22125">
        <ele>6</ele>
        <time>2021-05-23T13:11:11.982Z</time>
      </trkpt>
      <trkpt lat="47.26714" lon="-2.22123">
        <ele>6</ele>
        <time>2021-05-23T13:11:12.982Z</time>
      </trkpt>
      <trkpt lat="47.26715" lon="-2.22121">
        <ele>6</ele>
        <time>2021-05-23T13:11:13.982Z</time>
      </trkpt>
      <trkpt lat="47.26716" lon="-2.22119">
        <ele>6</ele>
        <time>2021-05-23T13:11:14.982Z</time>
      </trkpt>
      <trkpt lat="47.26717" lon="-2.22117">
        <ele>6</ele>
        <time>2021-05-23T13:11:15.982Z</time>
      </trkpt>
      <trkpt lat="47.26718" lon="-2.22115">
        <ele>6</ele>
        <time>2021-05-23T13:11:16.982Z</time>
      </trkpt>
      <trkpt lat="47.26719" lon="-2.22113">
        <ele>6</ele>
        <time>2021-05-23T13:11:17.982Z</time>
      </trkpt>
      <trkpt lat="47.2672" lon="-2.22111">
        <ele>6</ele>
        <time>2021-05-23T13:11:18.982Z</time>
      </trkpt>
      <trkpt lat="47.26721" lon="-2.22109">
        <ele>7</ele>
        <time>2021-05-23T13:11:19.982Z</time>
      </trkpt>
      <trkpt lat="47.26721" lon="-2.22107">
        <ele>7</ele>
        <time>2021-05-23T13:11:20.982Z</time>
      </trkpt>
      <trkpt lat="47.26722" lon="-2.22105">
        <ele>7</ele>
        <time>2021-05-23T13:11:21.983Z</time>
      </trkpt>
      <trkpt lat="47.26723" lon="-2.22104">
        <ele>7</ele>
        <time>2021-05-23T13:11:22.982Z</time>
      </trkpt>
      <trkpt lat="47.26723" lon="-2.22102">
        <ele>7</ele>
        <time>2021-05-23T13:11:23.982Z</time>
      </trkpt>
      <trkpt lat="47.26724" lon="-2.221">
        <ele>6</ele>
        <time>2021-05-23T13:11:24.983Z</time>
      </trkpt>
      <trkpt lat="47.26725" lon="-2.22099">
        <ele>6</ele>
        <time>2021-05-23T13:11:25.982Z</time>
      </trkpt>
      <trkpt lat="47.26726" lon="-2.22097">
        <ele>6</ele>
        <time>2021-05-23T13:11:26.982Z</time>
      </trkpt>
      <trkpt lat="47.26726" lon="-2.22096">
        <ele>6</ele>
        <time>2021-05-23T13:11:27.982Z</time>
      </trkpt>
      <trkpt lat="47.26727" lon="-2.22094">
        <ele>6</ele>
        <time>2021-05-23T13:11:28.982Z</time>
      </trkpt>
      <trkpt lat="47.26728" lon="-2.22092">
        <ele>6</ele>
        <time>2021-05-23T13:11:29.982Z</time>
      </trkpt>
      <trkpt lat="47.26729" lon="-2.2209">
        <ele>6</ele>
        <time>2021-05-23T13:11:30.982Z</time>
      </trkpt>
      <trkpt lat="47.26729" lon="-2.22088">
        <ele>6</ele>
        <time>2021-05-23T13:11:31.983Z</time>
      </trkpt>
      <trkpt lat="47.2673" lon="-2.22086">
        <ele>6</ele>
        <time>2021-05-23T13:11:32.982Z</time>
      </trkpt>
      <trkpt lat="47.26731" lon="-2.22084">
        <ele>6</ele>
        <time>2021-05-23T13:11:33.982Z</time>
      </trkpt>
      <trkpt lat="47.26732" lon="-2.22082">
        <ele>6</ele>
        <time>2021-05-23T13:11:34.982Z</time>
      </trkpt>
      <trkpt lat="47.26733" lon="-2.2208">
        <ele>7</ele>
        <time>2021-05-23T13:11:35.982Z</time>
      </trkpt>
      <trkpt lat="47.26734" lon="-2.22078">
        <ele>7</ele>
        <time>2021-05-23T13:11:36.982Z</time>
      </trkpt>
      <trkpt lat="47.26735" lon="-2.22076">
        <ele>7</ele>
        <time>2021-05-23T13:11:37.982Z</time>
      </trkpt>
      <trkpt lat="47.26736" lon="-2.22074">
        <ele>7</ele>
        <time>2021-05-23T13:11:38.982Z</time>
      </trkpt>
      <trkpt lat="47.26737" lon="-2.22072">
        <ele>7</ele>
        <time>2021-05-23T13:11:39.982Z</time>
      </trkpt>
      <trkpt lat="47.26738" lon="-2.2207">
        <ele>7</ele>
        <time>2021-05-23T13:11:40.983Z</time>
      </trkpt>
      <trkpt lat="47.26738" lon="-2.22068">
        <ele>7</ele>
        <time>2021-05-23T13:11:41.982Z</time>
      </trkpt>
      <trkpt lat="47.26739" lon="-2.22066">
        <ele>7</ele>
        <time>2021-05-23T13:11:42.982Z</time>
      </trkpt>
      <trkpt lat="47.2674" lon="-2.22065">
        <ele>7</ele>
        <time>2021-05-23T13:11:43.982Z</time>
      </trkpt>
      <trkpt lat="47.26741" lon="-2.22063">
        <ele>7</ele>
        <time>2021-05-23T13:11:44.982Z</time>
      </trkpt>
      <trkpt lat="47.26741" lon="-2.22061">
        <ele>7</ele>
        <time>2021-05-23T13:11:45.982Z</time>
      </trkpt>
      <trkpt lat="47.26742" lon="-2.22058">
        <ele>7</ele>
        <time>2021-05-23T13:11:46.982Z</time>
      </trkpt>
      <trkpt lat="47.26743" lon="-2.22056">
        <ele>7</ele>
        <time>2021-05-23T13:11:47.982Z</time>
      </trkpt>
      <trkpt lat="47.26744" lon="-2.22054">
        <ele>6</ele>
        <time>2021-05-23T13:11:48.982Z</time>
      </trkpt>
      <trkpt lat="47.26744" lon="-2.22053">
        <ele>6</ele>
        <time>2021-05-23T13:11:49.982Z</time>
      </trkpt>
      <trkpt lat="47.26745" lon="-2.22051">
        <ele>6</ele>
        <time>2021-05-23T13:11:50.983Z</time>
      </trkpt>
      <trkpt lat="47.26745" lon="-2.22049">
        <ele>6</ele>
        <time>2021-05-23T13:11:51.982Z</time>
      </trkpt>
      <trkpt lat="47.26746" lon="-2.22048">
        <ele>6</ele>
        <time>2021-05-23T13:11:52.982Z</time>
      </trkpt>
      <trkpt lat="47.26746" lon="-2.22046">
        <ele>6</ele>
        <time>2021-05-23T13:11:53.982Z</time>
      </trkpt>
      <trkpt lat="47.26747" lon="-2.22043">
        <ele>5</ele>
        <time>2021-05-23T13:11:54.982Z</time>
      </trkpt>
      <trkpt lat="47.26747" lon="-2.22041">
        <ele>5</ele>
        <time>2021-05-23T13:11:55.982Z</time>
      </trkpt>
      <trkpt lat="47.26748" lon="-2.22039">
        <ele>5</ele>
        <time>2021-05-23T13:11:56.982Z</time>
      </trkpt>
      <trkpt lat="47.26748" lon="-2.22038">
        <ele>4</ele>
        <time>2021-05-23T13:11:57.982Z</time>
      </trkpt>
      <trkpt lat="47.26748" lon="-2.22036">
        <ele>4</ele>
        <time>2021-05-23T13:11:58.982Z</time>
      </trkpt>
      <trkpt lat="47.26749" lon="-2.22034">
        <ele>4</ele>
        <time>2021-05-23T13:11:59.982Z</time>
      </trkpt>
      <trkpt lat="47.2675" lon="-2.22032">
        <ele>4</ele>
        <time>2021-05-23T13:12:00.982Z</time>
      </trkpt>
      <trkpt lat="47.2675" lon="-2.22029">
        <ele>4</ele>
        <time>2021-05-23T13:12:01.982Z</time>
      </trkpt>
      <trkpt lat="47.26751" lon="-2.22027">
        <ele>4</ele>
        <time>2021-05-23T13:12:02.982Z</time>
      </trkpt>
      <trkpt lat="47.26751" lon="-2.22025">
        <ele>4</ele>
        <time>2021-05-23T13:12:03.982Z</time>
      </trkpt>
      <trkpt lat="47.26751" lon="-2.22023">
        <ele>4</ele>
        <time>2021-05-23T13:12:04.982Z</time>
      </trkpt>
      <trkpt lat="47.26752" lon="-2.2202">
        <ele>4</ele>
        <time>2021-05-23T13:12:05.983Z</time>
      </trkpt>
      <trkpt lat="47.26752" lon="-2.22018">
        <ele>4</ele>
        <time>2021-05-23T13:12:06.982Z</time>
      </trkpt>
      <trkpt lat="47.26753" lon="-2.22015">
        <ele>5</ele>
        <time>2021-05-23T13:12:07.982Z</time>
      </trkpt>
      <trkpt lat="47.26754" lon="-2.22013">
        <ele>5</ele>
        <time>2021-05-23T13:12:08.982Z</time>
      </trkpt>
      <trkpt lat="47.26754" lon="-2.22011">
        <ele>5</ele>
        <time>2021-05-23T13:12:09.982Z</time>
      </trkpt>
      <trkpt lat="47.26755" lon="-2.22009">
        <ele>5</ele>
        <time>2021-05-23T13:12:10.982Z</time>
      </trkpt>
      <trkpt lat="47.26756" lon="-2.22007">
        <ele>6</ele>
        <time>2021-05-23T13:12:11.982Z</time>
      </trkpt>
      <trkpt lat="47.26756" lon="-2.22004">
        <ele>6</ele>
        <time>2021-05-23T13:12:12.982Z</time>
      </trkpt>
      <trkpt lat="47.26756" lon="-2.22002">
        <ele>6</ele>
        <time>2021-05-23T13:12:13.983Z</time>
      </trkpt>
      <trkpt lat="47.26757" lon="-2.22">
        <ele>6</ele>
        <time>2021-05-23T13:12:14.983Z</time>
      </trkpt>
      <trkpt lat="47.26757" lon="-2.21998">
        <ele>6</ele>
        <time>2021-05-23T13:12:15.982Z</time>
      </trkpt>
      <trkpt lat="47.26757" lon="-2.21998">
        <ele>6</ele>
        <time>2021-05-23T13:12:16.982Z</time>
      </trkpt>
      <trkpt lat="47.26759" lon="-2.21994">
        <ele>6</ele>
        <time>2021-05-23T13:12:17.982Z</time>
      </trkpt>
      <trkpt lat="47.26759" lon="-2.21993">
        <ele>5</ele>
        <time>2021-05-23T13:12:18.982Z</time>
      </trkpt>
      <trkpt lat="47.26761" lon="-2.21991">
        <ele>5</ele>
        <time>2021-05-23T13:12:19.982Z</time>
      </trkpt>
      <trkpt lat="47.26762" lon="-2.2199">
        <ele>5</ele>
        <time>2021-05-23T13:12:20.982Z</time>
      </trkpt>
      <trkpt lat="47.26763" lon="-2.21988">
        <ele>5</ele>
        <time>2021-05-23T13:12:21.982Z</time>
      </trkpt>
      <trkpt lat="47.26763" lon="-2.21987">
        <ele>5</ele>
        <time>2021-05-23T13:12:22.983Z</time>
      </trkpt>
      <trkpt lat="47.26764" lon="-2.21985">
        <ele>5</ele>
        <time>2021-05-23T13:12:23.982Z</time>
      </trkpt>
      <trkpt lat="47.26765" lon="-2.21982">
        <ele>5</ele>
        <time>2021-05-23T13:12:24.982Z</time>
      </trkpt>
      <trkpt lat="47.26765" lon="-2.2198">
        <ele>5</ele>
        <time>2021-05-23T13:12:25.982Z</time>
      </trkpt>
      <trkpt lat="47.26765" lon="-2.21978">
        <ele>4</ele>
        <time>2021-05-23T13:12:26.982Z</time>
      </trkpt>
      <trkpt lat="47.26765" lon="-2.21977">
        <ele>4</ele>
        <time>2021-05-23T13:12:27.983Z</time>
      </trkpt>
      <trkpt lat="47.26766" lon="-2.21975">
        <ele>4</ele>
        <time>2021-05-23T13:12:28.982Z</time>
      </trkpt>
      <trkpt lat="47.26767" lon="-2.21972">
        <ele>4</ele>
        <time>2021-05-23T13:12:29.982Z</time>
      </trkpt>
      <trkpt lat="47.26768" lon="-2.2197">
        <ele>4</ele>
        <time>2021-05-23T13:12:30.983Z</time>
      </trkpt>
      <trkpt lat="47.26769" lon="-2.21967">
        <ele>4</ele>
        <time>2021-05-23T13:12:31.982Z</time>
      </trkpt>
      <trkpt lat="47.26769" lon="-2.21964">
        <ele>4</ele>
        <time>2021-05-23T13:12:32.982Z</time>
      </trkpt>
      <trkpt lat="47.26769" lon="-2.21962">
        <ele>4</ele>
        <time>2021-05-23T13:12:33.982Z</time>
      </trkpt>
      <trkpt lat="47.26769" lon="-2.21961">
        <ele>4</ele>
        <time>2021-05-23T13:12:34.982Z</time>
      </trkpt>
      <trkpt lat="47.2677" lon="-2.21958">
        <ele>4</ele>
        <time>2021-05-23T13:12:35.982Z</time>
      </trkpt>
      <trkpt lat="47.2677" lon="-2.21956">
        <ele>4</ele>
        <time>2021-05-23T13:12:36.982Z</time>
      </trkpt>
      <trkpt lat="47.26771" lon="-2.21954">
        <ele>4</ele>
        <time>2021-05-23T13:12:37.982Z</time>
      </trkpt>
      <trkpt lat="47.26772" lon="-2.21952">
        <ele>4</ele>
        <time>2021-05-23T13:12:38.982Z</time>
      </trkpt>
      <trkpt lat="47.26772" lon="-2.2195">
        <ele>4</ele>
        <time>2021-05-23T13:12:39.982Z</time>
      </trkpt>
      <trkpt lat="47.26772" lon="-2.21949">
        <ele>4</ele>
        <time>2021-05-23T13:12:40.982Z</time>
      </trkpt>
      <trkpt lat="47.26773" lon="-2.21946">
        <ele>4</ele>
        <time>2021-05-23T13:12:41.982Z</time>
      </trkpt>
      <trkpt lat="47.26773" lon="-2.21945">
        <ele>4</ele>
        <time>2021-05-23T13:12:42.982Z</time>
      </trkpt>
      <trkpt lat="47.26774" lon="-2.21943">
        <ele>4</ele>
        <time>2021-05-23T13:12:43.982Z</time>
      </trkpt>
      <trkpt lat="47.26774" lon="-2.21943">
        <ele>4</ele>
        <time>2021-05-23T13:12:44.982Z</time>
      </trkpt>
      <trkpt lat="47.26775" lon="-2.21939">
        <ele>3</ele>
        <time>2021-05-23T13:12:45.982Z</time>
      </trkpt>
      <trkpt lat="47.26775" lon="-2.21937">
        <ele>3</ele>
        <time>2021-05-23T13:12:46.982Z</time>
      </trkpt>
      <trkpt lat="47.26776" lon="-2.21935">
        <ele>3</ele>
        <time>2021-05-23T13:12:47.982Z</time>
      </trkpt>
      <trkpt lat="47.26776" lon="-2.21933">
        <ele>3</ele>
        <time>2021-05-23T13:12:48.982Z</time>
      </trkpt>
      <trkpt lat="47.26777" lon="-2.21931">
        <ele>3</ele>
        <time>2021-05-23T13:12:49.982Z</time>
      </trkpt>
      <trkpt lat="47.26778" lon="-2.21929">
        <ele>3</ele>
        <time>2021-05-23T13:12:50.982Z</time>
      </trkpt>
      <trkpt lat="47.26779" lon="-2.21927">
        <ele>3</ele>
        <time>2021-05-23T13:12:51.982Z</time>
      </trkpt>
      <trkpt lat="47.26779" lon="-2.21925">
        <ele>3</ele>
        <time>2021-05-23T13:12:52.982Z</time>
      </trkpt>
      <trkpt lat="47.2678" lon="-2.21923">
        <ele>3</ele>
        <time>2021-05-23T13:12:53.982Z</time>
      </trkpt>
      <trkpt lat="47.2678" lon="-2.21921">
        <ele>3</ele>
        <time>2021-05-23T13:12:54.982Z</time>
      </trkpt>
      <trkpt lat="47.2678" lon="-2.21921">
        <ele>3</ele>
        <time>2021-05-23T13:12:55.982Z</time>
      </trkpt>
      <trkpt lat="47.26781" lon="-2.21916">
        <ele>4</ele>
        <time>2021-05-23T13:12:56.983Z</time>
      </trkpt>
      <trkpt lat="47.26781" lon="-2.21914">
        <ele>4</ele>
        <time>2021-05-23T13:12:57.982Z</time>
      </trkpt>
      <trkpt lat="47.26782" lon="-2.21912">
        <ele>4</ele>
        <time>2021-05-23T13:12:58.982Z</time>
      </trkpt>
      <trkpt lat="47.26782" lon="-2.21912">
        <ele>4</ele>
        <time>2021-05-23T13:12:59.982Z</time>
      </trkpt>
      <trkpt lat="47.26782" lon="-2.21908">
        <ele>3</ele>
        <time>2021-05-23T13:13:00.982Z</time>
      </trkpt>
      <trkpt lat="47.26782" lon="-2.21908">
        <ele>3</ele>
        <time>2021-05-23T13:13:01.982Z</time>
      </trkpt>
      <trkpt lat="47.26783" lon="-2.21903">
        <ele>3</ele>
        <time>2021-05-23T13:13:02.982Z</time>
      </trkpt>
      <trkpt lat="47.26784" lon="-2.21902">
        <ele>4</ele>
        <time>2021-05-23T13:13:03.982Z</time>
      </trkpt>
      <trkpt lat="47.26784" lon="-2.219">
        <ele>4</ele>
        <time>2021-05-23T13:13:04.982Z</time>
      </trkpt>
      <trkpt lat="47.26785" lon="-2.21898">
        <ele>4</ele>
        <time>2021-05-23T13:13:05.982Z</time>
      </trkpt>
      <trkpt lat="47.26785" lon="-2.21898">
        <ele>4</ele>
        <time>2021-05-23T13:13:06.983Z</time>
      </trkpt>
      <trkpt lat="47.26786" lon="-2.21893">
        <ele>5</ele>
        <time>2021-05-23T13:13:07.982Z</time>
      </trkpt>
      <trkpt lat="47.26786" lon="-2.21893">
        <ele>5</ele>
        <time>2021-05-23T13:13:08.982Z</time>
      </trkpt>
      <trkpt lat="47.26786" lon="-2.2189">
        <ele>5</ele>
        <time>2021-05-23T13:13:09.982Z</time>
      </trkpt>
      <trkpt lat="47.26787" lon="-2.21888">
        <ele>5</ele>
        <time>2021-05-23T13:13:10.982Z</time>
      </trkpt>
      <trkpt lat="47.26788" lon="-2.21886">
        <ele>6</ele>
        <time>2021-05-23T13:13:11.982Z</time>
      </trkpt>
      <trkpt lat="47.26788" lon="-2.21884">
        <ele>6</ele>
        <time>2021-05-23T13:13:12.982Z</time>
      </trkpt>
      <trkpt lat="47.26788" lon="-2.21884">
        <ele>6</ele>
        <time>2021-05-23T13:13:13.982Z</time>
      </trkpt>
      <trkpt lat="47.26789" lon="-2.2188">
        <ele>7</ele>
        <time>2021-05-23T13:13:14.982Z</time>
      </trkpt>
      <trkpt lat="47.26789" lon="-2.2188">
        <ele>7</ele>
        <time>2021-05-23T13:13:15.982Z</time>
      </trkpt>
      <trkpt lat="47.2679" lon="-2.21876">
        <ele>8</ele>
        <time>2021-05-23T13:13:16.982Z</time>
      </trkpt>
      <trkpt lat="47.26791" lon="-2.21873">
        <ele>9</ele>
        <time>2021-05-23T13:13:17.982Z</time>
      </trkpt>
      <trkpt lat="47.26792" lon="-2.21871">
        <ele>9</ele>
        <time>2021-05-23T13:13:18.982Z</time>
      </trkpt>
      <trkpt lat="47.26792" lon="-2.21871">
        <ele>9</ele>
        <time>2021-05-23T13:13:19.982Z</time>
      </trkpt>
      <trkpt lat="47.26793" lon="-2.21867">
        <ele>9</ele>
        <time>2021-05-23T13:13:20.982Z</time>
      </trkpt>
      <trkpt lat="47.26793" lon="-2.21865">
        <ele>9</ele>
        <time>2021-05-23T13:13:21.982Z</time>
      </trkpt>
      <trkpt lat="47.26794" lon="-2.21863">
        <ele>9</ele>
        <time>2021-05-23T13:13:22.982Z</time>
      </trkpt>
      <trkpt lat="47.26794" lon="-2.21861">
        <ele>9</ele>
        <time>2021-05-23T13:13:23.982Z</time>
      </trkpt>
      <trkpt lat="47.26795" lon="-2.21859">
        <ele>8</ele>
        <time>2021-05-23T13:13:24.982Z</time>
      </trkpt>
      <trkpt lat="47.26795" lon="-2.21856">
        <ele>8</ele>
        <time>2021-05-23T13:13:25.982Z</time>
      </trkpt>
      <trkpt lat="47.26795" lon="-2.21854">
        <ele>8</ele>
        <time>2021-05-23T13:13:26.982Z</time>
      </trkpt>
      <trkpt lat="47.26796" lon="-2.21852">
        <ele>8</ele>
        <time>2021-05-23T13:13:27.982Z</time>
      </trkpt>
      <trkpt lat="47.26797" lon="-2.21849">
        <ele>7</ele>
        <time>2021-05-23T13:13:28.982Z</time>
      </trkpt>
      <trkpt lat="47.26796" lon="-2.21847">
        <ele>7</ele>
        <time>2021-05-23T13:13:29.982Z</time>
      </trkpt>
      <trkpt lat="47.26796" lon="-2.21845">
        <ele>7</ele>
        <time>2021-05-23T13:13:30.982Z</time>
      </trkpt>
      <trkpt lat="47.26796" lon="-2.21843">
        <ele>7</ele>
        <time>2021-05-23T13:13:31.982Z</time>
      </trkpt>
      <trkpt lat="47.26797" lon="-2.21842">
        <ele>7</ele>
        <time>2021-05-23T13:13:32.982Z</time>
      </trkpt>
      <trkpt lat="47.26797" lon="-2.2184">
        <ele>6</ele>
        <time>2021-05-23T13:13:33.983Z</time>
      </trkpt>
      <trkpt lat="47.26798" lon="-2.21839">
        <ele>6</ele>
        <time>2021-05-23T13:13:34.982Z</time>
      </trkpt>
      <trkpt lat="47.26798" lon="-2.21837">
        <ele>6</ele>
        <time>2021-05-23T13:13:35.982Z</time>
      </trkpt>
      <trkpt lat="47.26798" lon="-2.21835">
        <ele>6</ele>
        <time>2021-05-23T13:13:36.982Z</time>
      </trkpt>
      <trkpt lat="47.26799" lon="-2.21833">
        <ele>6</ele>
        <time>2021-05-23T13:13:37.982Z</time>
      </trkpt>
      <trkpt lat="47.268" lon="-2.21831">
        <ele>6</ele>
        <time>2021-05-23T13:13:38.982Z</time>
      </trkpt>
      <trkpt lat="47.26801" lon="-2.21828">
        <ele>6</ele>
        <time>2021-05-23T13:13:39.982Z</time>
      </trkpt>
      <trkpt lat="47.26801" lon="-2.21826">
        <ele>5</ele>
        <time>2021-05-23T13:13:40.982Z</time>
      </trkpt>
      <trkpt lat="47.26802" lon="-2.21823">
        <ele>5</ele>
        <time>2021-05-23T13:13:41.982Z</time>
      </trkpt>
      <trkpt lat="47.26803" lon="-2.21821">
        <ele>5</ele>
        <time>2021-05-23T13:13:42.982Z</time>
      </trkpt>
      <trkpt lat="47.26803" lon="-2.21819">
        <ele>5</ele>
        <time>2021-05-23T13:13:43.982Z</time>
      </trkpt>
      <trkpt lat="47.26805" lon="-2.21816">
        <ele>4</ele>
        <time>2021-05-23T13:13:44.982Z</time>
      </trkpt>
      <trkpt lat="47.26806" lon="-2.21813">
        <ele>4</ele>
        <time>2021-05-23T13:13:45.982Z</time>
      </trkpt>
      <trkpt lat="47.26807" lon="-2.2181">
        <ele>4</ele>
        <time>2021-05-23T13:13:46.982Z</time>
      </trkpt>
      <trkpt lat="47.26808" lon="-2.21807">
        <ele>4</ele>
        <time>2021-05-23T13:13:47.982Z</time>
      </trkpt>
      <trkpt lat="47.26809" lon="-2.21805">
        <ele>4</ele>
        <time>2021-05-23T13:13:48.982Z</time>
      </trkpt>
      <trkpt lat="47.26809" lon="-2.21802">
        <ele>4</ele>
        <time>2021-05-23T13:13:49.983Z</time>
      </trkpt>
      <trkpt lat="47.2681" lon="-2.218">
        <ele>3</ele>
        <time>2021-05-23T13:13:50.982Z</time>
      </trkpt>
      <trkpt lat="47.2681" lon="-2.21797">
        <ele>3</ele>
        <time>2021-05-23T13:13:51.982Z</time>
      </trkpt>
      <trkpt lat="47.26811" lon="-2.21795">
        <ele>3</ele>
        <time>2021-05-23T13:13:52.982Z</time>
      </trkpt>
      <trkpt lat="47.26811" lon="-2.21792">
        <ele>2</ele>
        <time>2021-05-23T13:13:53.982Z</time>
      </trkpt>
      <trkpt lat="47.26811" lon="-2.21792">
        <ele>2</ele>
        <time>2021-05-23T13:13:54.983Z</time>
      </trkpt>
      <trkpt lat="47.26812" lon="-2.21787">
        <ele>2</ele>
        <time>2021-05-23T13:13:55.982Z</time>
      </trkpt>
      <trkpt lat="47.26813" lon="-2.21784">
        <ele>1</ele>
        <time>2021-05-23T13:13:56.982Z</time>
      </trkpt>
      <trkpt lat="47.26813" lon="-2.21781">
        <ele>1</ele>
        <time>2021-05-23T13:13:57.982Z</time>
      </trkpt>
      <trkpt lat="47.26814" lon="-2.21778">
        <ele>1</ele>
        <time>2021-05-23T13:13:58.982Z</time>
      </trkpt>
      <trkpt lat="47.26815" lon="-2.21776">
        <ele>1</ele>
        <time>2021-05-23T13:13:59.982Z</time>
      </trkpt>
      <trkpt lat="47.26815" lon="-2.21773">
        <ele>1</ele>
        <time>2021-05-23T13:14:00.982Z</time>
      </trkpt>
      <trkpt lat="47.26815" lon="-2.21771">
        <ele>1</ele>
        <time>2021-05-23T13:14:01.983Z</time>
      </trkpt>
      <trkpt lat="47.26816" lon="-2.21769">
        <ele>1</ele>
        <time>2021-05-23T13:14:02.982Z</time>
      </trkpt>
      <trkpt lat="47.26817" lon="-2.21766">
        <ele>1</ele>
        <time>2021-05-23T13:14:03.982Z</time>
      </trkpt>
      <trkpt lat="47.26819" lon="-2.21762">
        <ele>1</ele>
        <time>2021-05-23T13:14:04.982Z</time>
      </trkpt>
      <trkpt lat="47.26821" lon="-2.21758">
        <ele>1</ele>
        <time>2021-05-23T13:14:05.982Z</time>
      </trkpt>
      <trkpt lat="47.26822" lon="-2.21754">
        <ele>2</ele>
        <time>2021-05-23T13:14:06.982Z</time>
      </trkpt>
      <trkpt lat="47.26824" lon="-2.2175">
        <ele>2</ele>
        <time>2021-05-23T13:14:07.982Z</time>
      </trkpt>
      <trkpt lat="47.26824" lon="-2.21747">
        <ele>3</ele>
        <time>2021-05-23T13:14:08.982Z</time>
      </trkpt>
      <trkpt lat="47.26825" lon="-2.21745">
        <ele>3</ele>
        <time>2021-05-23T13:14:09.982Z</time>
      </trkpt>
      <trkpt lat="47.26826" lon="-2.21742">
        <ele>4</ele>
        <time>2021-05-23T13:14:10.982Z</time>
      </trkpt>
      <trkpt lat="47.26827" lon="-2.21739">
        <ele>4</ele>
        <time>2021-05-23T13:14:11.982Z</time>
      </trkpt>
      <trkpt lat="47.26827" lon="-2.21736">
        <ele>5</ele>
        <time>2021-05-23T13:14:12.982Z</time>
      </trkpt>
      <trkpt lat="47.26828" lon="-2.21733">
        <ele>6</ele>
        <time>2021-05-23T13:14:13.982Z</time>
      </trkpt>
      <trkpt lat="47.26829" lon="-2.21731">
        <ele>7</ele>
        <time>2021-05-23T13:14:14.983Z</time>
      </trkpt>
      <trkpt lat="47.26829" lon="-2.21728">
        <ele>7</ele>
        <time>2021-05-23T13:14:15.982Z</time>
      </trkpt>
      <trkpt lat="47.2683" lon="-2.21726">
        <ele>8</ele>
        <time>2021-05-23T13:14:16.982Z</time>
      </trkpt>
      <trkpt lat="47.26831" lon="-2.21723">
        <ele>8</ele>
        <time>2021-05-23T13:14:17.982Z</time>
      </trkpt>
      <trkpt lat="47.26832" lon="-2.2172">
        <ele>8</ele>
        <time>2021-05-23T13:14:18.982Z</time>
      </trkpt>
      <trkpt lat="47.26832" lon="-2.21718">
        <ele>8</ele>
        <time>2021-05-23T13:14:19.982Z</time>
      </trkpt>
      <trkpt lat="47.26833" lon="-2.21715">
        <ele>8</ele>
        <time>2021-05-23T13:14:20.982Z</time>
      </trkpt>
      <trkpt lat="47.26833" lon="-2.21711">
        <ele>8</ele>
        <time>2021-05-23T13:14:21.982Z</time>
      </trkpt>
      <trkpt lat="47.26834" lon="-2.21709">
        <ele>8</ele>
        <time>2021-05-23T13:14:22.982Z</time>
      </trkpt>
      <trkpt lat="47.26835" lon="-2.21706">
        <ele>8</ele>
        <time>2021-05-23T13:14:23.982Z</time>
      </trkpt>
      <trkpt lat="47.26836" lon="-2.21703">
        <ele>8</ele>
        <time>2021-05-23T13:14:24.982Z</time>
      </trkpt>
      <trkpt lat="47.26837" lon="-2.217">
        <ele>9</ele>
        <time>2021-05-23T13:14:25.982Z</time>
      </trkpt>
      <trkpt lat="47.26838" lon="-2.21697">
        <ele>9</ele>
        <time>2021-05-23T13:14:26.982Z</time>
      </trkpt>
      <trkpt lat="47.26839" lon="-2.21693">
        <ele>9</ele>
        <time>2021-05-23T13:14:27.982Z</time>
      </trkpt>
      <trkpt lat="47.26839" lon="-2.21691">
        <ele>9</ele>
        <time>2021-05-23T13:14:28.982Z</time>
      </trkpt>
      <trkpt lat="47.2684" lon="-2.21688">
        <ele>9</ele>
        <time>2021-05-23T13:14:29.982Z</time>
      </trkpt>
      <trkpt lat="47.2684" lon="-2.21685">
        <ele>9</ele>
        <time>2021-05-23T13:14:30.982Z</time>
      </trkpt>
      <trkpt lat="47.26841" lon="-2.21682">
        <ele>8</ele>
        <time>2021-05-23T13:14:31.982Z</time>
      </trkpt>
      <trkpt lat="47.26841" lon="-2.21679">
        <ele>8</ele>
        <time>2021-05-23T13:14:32.982Z</time>
      </trkpt>
      <trkpt lat="47.26842" lon="-2.21676">
        <ele>8</ele>
        <time>2021-05-23T13:14:33.982Z</time>
      </trkpt>
      <trkpt lat="47.26842" lon="-2.21673">
        <ele>7</ele>
        <time>2021-05-23T13:14:34.982Z</time>
      </trkpt>
      <trkpt lat="47.26843" lon="-2.2167">
        <ele>7</ele>
        <time>2021-05-23T13:14:35.983Z</time>
      </trkpt>
      <trkpt lat="47.26843" lon="-2.21667">
        <ele>7</ele>
        <time>2021-05-23T13:14:36.983Z</time>
      </trkpt>
      <trkpt lat="47.26843" lon="-2.21664">
        <ele>7</ele>
        <time>2021-05-23T13:14:37.982Z</time>
      </trkpt>
      <trkpt lat="47.26843" lon="-2.21664">
        <ele>7</ele>
        <time>2021-05-23T13:14:38.982Z</time>
      </trkpt>
      <trkpt lat="47.26844" lon="-2.21657">
        <ele>7</ele>
        <time>2021-05-23T13:14:39.982Z</time>
      </trkpt>
      <trkpt lat="47.26844" lon="-2.21654">
        <ele>6</ele>
        <time>2021-05-23T13:14:40.982Z</time>
      </trkpt>
      <trkpt lat="47.26844" lon="-2.21654">
        <ele>6</ele>
        <time>2021-05-23T13:14:41.982Z</time>
      </trkpt>
      <trkpt lat="47.26845" lon="-2.21648">
        <ele>6</ele>
        <time>2021-05-23T13:14:42.982Z</time>
      </trkpt>
      <trkpt lat="47.26846" lon="-2.21645">
        <ele>6</ele>
        <time>2021-05-23T13:14:43.983Z</time>
      </trkpt>
      <trkpt lat="47.26847" lon="-2.21643">
        <ele>6</ele>
        <time>2021-05-23T13:14:44.982Z</time>
      </trkpt>
      <trkpt lat="47.26847" lon="-2.2164">
        <ele>6</ele>
        <time>2021-05-23T13:14:45.983Z</time>
      </trkpt>
      <trkpt lat="47.26847" lon="-2.21636">
        <ele>6</ele>
        <time>2021-05-23T13:14:46.983Z</time>
      </trkpt>
      <trkpt lat="47.26848" lon="-2.21633">
        <ele>5</ele>
        <time>2021-05-23T13:14:47.982Z</time>
      </trkpt>
      <trkpt lat="47.26848" lon="-2.21633">
        <ele>5</ele>
        <time>2021-05-23T13:14:48.982Z</time>
      </trkpt>
      <trkpt lat="47.26849" lon="-2.21627">
        <ele>5</ele>
        <time>2021-05-23T13:14:49.982Z</time>
      </trkpt>
      <trkpt lat="47.2685" lon="-2.21624">
        <ele>4</ele>
        <time>2021-05-23T13:14:50.983Z</time>
      </trkpt>
      <trkpt lat="47.2685" lon="-2.21622">
        <ele>5</ele>
        <time>2021-05-23T13:14:51.982Z</time>
      </trkpt>
      <trkpt lat="47.26851" lon="-2.21619">
        <ele>5</ele>
        <time>2021-05-23T13:14:52.983Z</time>
      </trkpt>
      <trkpt lat="47.26851" lon="-2.21616">
        <ele>5</ele>
        <time>2021-05-23T13:14:53.982Z</time>
      </trkpt>
      <trkpt lat="47.26852" lon="-2.21613">
        <ele>5</ele>
        <time>2021-05-23T13:14:54.982Z</time>
      </trkpt>
      <trkpt lat="47.26853" lon="-2.21609">
        <ele>5</ele>
        <time>2021-05-23T13:14:55.982Z</time>
      </trkpt>
      <trkpt lat="47.26854" lon="-2.21607">
        <ele>6</ele>
        <time>2021-05-23T13:14:56.982Z</time>
      </trkpt>
      <trkpt lat="47.26854" lon="-2.21607">
        <ele>6</ele>
        <time>2021-05-23T13:14:57.982Z</time>
      </trkpt>
      <trkpt lat="47.26855" lon="-2.21601">
        <ele>6</ele>
        <time>2021-05-23T13:14:58.982Z</time>
      </trkpt>
      <trkpt lat="47.26856" lon="-2.21598">
        <ele>7</ele>
        <time>2021-05-23T13:14:59.982Z</time>
      </trkpt>
      <trkpt lat="47.26856" lon="-2.21595">
        <ele>7</ele>
        <time>2021-05-23T13:15:00.982Z</time>
      </trkpt>
      <trkpt lat="47.26856" lon="-2.21592">
        <ele>7</ele>
        <time>2021-05-23T13:15:01.982Z</time>
      </trkpt>
      <trkpt lat="47.26857" lon="-2.21589">
        <ele>7</ele>
        <time>2021-05-23T13:15:02.982Z</time>
      </trkpt>
      <trkpt lat="47.26857" lon="-2.21589">
        <ele>7</ele>
        <time>2021-05-23T13:15:03.982Z</time>
      </trkpt>
      <trkpt lat="47.26857" lon="-2.21586">
        <ele>8</ele>
        <time>2021-05-23T13:15:04.982Z</time>
      </trkpt>
      <trkpt lat="47.26858" lon="-2.2158">
        <ele>8</ele>
        <time>2021-05-23T13:15:05.982Z</time>
      </trkpt>
      <trkpt lat="47.26859" lon="-2.21577">
        <ele>8</ele>
        <time>2021-05-23T13:15:06.982Z</time>
      </trkpt>
      <trkpt lat="47.26859" lon="-2.21574">
        <ele>8</ele>
        <time>2021-05-23T13:15:07.982Z</time>
      </trkpt>
      <trkpt lat="47.26859" lon="-2.21574">
        <ele>8</ele>
        <time>2021-05-23T13:15:08.982Z</time>
      </trkpt>
      <trkpt lat="47.2686" lon="-2.21568">
        <ele>9</ele>
        <time>2021-05-23T13:15:09.982Z</time>
      </trkpt>
      <trkpt lat="47.2686" lon="-2.21565">
        <ele>9</ele>
        <time>2021-05-23T13:15:10.982Z</time>
      </trkpt>
      <trkpt lat="47.26861" lon="-2.21562">
        <ele>9</ele>
        <time>2021-05-23T13:15:11.982Z</time>
      </trkpt>
      <trkpt lat="47.26861" lon="-2.21559">
        <ele>9</ele>
        <time>2021-05-23T13:15:12.982Z</time>
      </trkpt>
      <trkpt lat="47.26861" lon="-2.21559">
        <ele>9</ele>
        <time>2021-05-23T13:15:13.982Z</time>
      </trkpt>
      <trkpt lat="47.26863" lon="-2.21552">
        <ele>9</ele>
        <time>2021-05-23T13:15:14.982Z</time>
      </trkpt>
      <trkpt lat="47.26863" lon="-2.21549">
        <ele>9</ele>
        <time>2021-05-23T13:15:15.983Z</time>
      </trkpt>
      <trkpt lat="47.26864" lon="-2.21546">
        <ele>10</ele>
        <time>2021-05-23T13:15:16.982Z</time>
      </trkpt>
      <trkpt lat="47.26864" lon="-2.21543">
        <ele>10</ele>
        <time>2021-05-23T13:15:17.982Z</time>
      </trkpt>
      <trkpt lat="47.26865" lon="-2.2154">
        <ele>10</ele>
        <time>2021-05-23T13:15:18.982Z</time>
      </trkpt>
      <trkpt lat="47.26866" lon="-2.21537">
        <ele>10</ele>
        <time>2021-05-23T13:15:19.982Z</time>
      </trkpt>
      <trkpt lat="47.26866" lon="-2.21533">
        <ele>10</ele>
        <time>2021-05-23T13:15:20.982Z</time>
      </trkpt>
      <trkpt lat="47.26867" lon="-2.2153">
        <ele>11</ele>
        <time>2021-05-23T13:15:21.982Z</time>
      </trkpt>
      <trkpt lat="47.26867" lon="-2.21527">
        <ele>11</ele>
        <time>2021-05-23T13:15:22.982Z</time>
      </trkpt>
      <trkpt lat="47.26868" lon="-2.21524">
        <ele>12</ele>
        <time>2021-05-23T13:15:23.982Z</time>
      </trkpt>
      <trkpt lat="47.26868" lon="-2.2152">
        <ele>12</ele>
        <time>2021-05-23T13:15:24.982Z</time>
      </trkpt>
      <trkpt lat="47.26869" lon="-2.21517">
        <ele>12</ele>
        <time>2021-05-23T13:15:25.982Z</time>
      </trkpt>
      <trkpt lat="47.26869" lon="-2.21514">
        <ele>12</ele>
        <time>2021-05-23T13:15:26.982Z</time>
      </trkpt>
      <trkpt lat="47.2687" lon="-2.21511">
        <ele>12</ele>
        <time>2021-05-23T13:15:27.982Z</time>
      </trkpt>
      <trkpt lat="47.2687" lon="-2.21508">
        <ele>12</ele>
        <time>2021-05-23T13:15:28.983Z</time>
      </trkpt>
      <trkpt lat="47.26871" lon="-2.21505">
        <ele>12</ele>
        <time>2021-05-23T13:15:29.982Z</time>
      </trkpt>
      <trkpt lat="47.26872" lon="-2.21502">
        <ele>12</ele>
        <time>2021-05-23T13:15:30.982Z</time>
      </trkpt>
      <trkpt lat="47.26872" lon="-2.21502">
        <ele>12</ele>
        <time>2021-05-23T13:15:31.982Z</time>
      </trkpt>
      <trkpt lat="47.26873" lon="-2.21496">
        <ele>12</ele>
        <time>2021-05-23T13:15:32.982Z</time>
      </trkpt>
      <trkpt lat="47.26874" lon="-2.21492">
        <ele>12</ele>
        <time>2021-05-23T13:15:33.983Z</time>
      </trkpt>
      <trkpt lat="47.26875" lon="-2.21489">
        <ele>12</ele>
        <time>2021-05-23T13:15:34.982Z</time>
      </trkpt>
      <trkpt lat="47.26876" lon="-2.21486">
        <ele>13</ele>
        <time>2021-05-23T13:15:35.982Z</time>
      </trkpt>
      <trkpt lat="47.26877" lon="-2.21483">
        <ele>13</ele>
        <time>2021-05-23T13:15:36.982Z</time>
      </trkpt>
      <trkpt lat="47.26877" lon="-2.21483">
        <ele>13</ele>
        <time>2021-05-23T13:15:37.982Z</time>
      </trkpt>
      <trkpt lat="47.26877" lon="-2.21477">
        <ele>14</ele>
        <time>2021-05-23T13:15:38.982Z</time>
      </trkpt>
      <trkpt lat="47.26877" lon="-2.21477">
        <ele>14</ele>
        <time>2021-05-23T13:15:39.982Z</time>
      </trkpt>
      <trkpt lat="47.26879" lon="-2.21472">
        <ele>14</ele>
        <time>2021-05-23T13:15:40.982Z</time>
      </trkpt>
      <trkpt lat="47.26879" lon="-2.21469">
        <ele>14</ele>
        <time>2021-05-23T13:15:41.982Z</time>
      </trkpt>
      <trkpt lat="47.26879" lon="-2.21469">
        <ele>14</ele>
        <time>2021-05-23T13:15:42.982Z</time>
      </trkpt>
      <trkpt lat="47.2688" lon="-2.21466">
        <ele>14</ele>
        <time>2021-05-23T13:15:43.982Z</time>
      </trkpt>
      <trkpt lat="47.26881" lon="-2.21463">
        <ele>15</ele>
        <time>2021-05-23T13:15:44.982Z</time>
      </trkpt>
      <trkpt lat="47.26881" lon="-2.2146">
        <ele>15</ele>
        <time>2021-05-23T13:15:45.983Z</time>
      </trkpt>
      <trkpt lat="47.26882" lon="-2.21455">
        <ele>15</ele>
        <time>2021-05-23T13:15:46.982Z</time>
      </trkpt>
      <trkpt lat="47.26882" lon="-2.21455">
        <ele>15</ele>
        <time>2021-05-23T13:15:47.982Z</time>
      </trkpt>
      <trkpt lat="47.26883" lon="-2.21453">
        <ele>16</ele>
        <time>2021-05-23T13:15:48.983Z</time>
      </trkpt>
      <trkpt lat="47.26883" lon="-2.21448">
        <ele>16</ele>
        <time>2021-05-23T13:15:49.982Z</time>
      </trkpt>
      <trkpt lat="47.26884" lon="-2.21445">
        <ele>17</ele>
        <time>2021-05-23T13:15:50.982Z</time>
      </trkpt>
      <trkpt lat="47.26884" lon="-2.21442">
        <ele>17</ele>
        <time>2021-05-23T13:15:51.982Z</time>
      </trkpt>
      <trkpt lat="47.26884" lon="-2.21442">
        <ele>17</ele>
        <time>2021-05-23T13:15:52.982Z</time>
      </trkpt>
      <trkpt lat="47.26885" lon="-2.21436">
        <ele>17</ele>
        <time>2021-05-23T13:15:53.982Z</time>
      </trkpt>
      <trkpt lat="47.26885" lon="-2.21436">
        <ele>17</ele>
        <time>2021-05-23T13:15:54.982Z</time>
      </trkpt>
      <trkpt lat="47.26885" lon="-2.21433">
        <ele>17</ele>
        <time>2021-05-23T13:15:55.982Z</time>
      </trkpt>
      <trkpt lat="47.26886" lon="-2.21427">
        <ele>17</ele>
        <time>2021-05-23T13:15:56.982Z</time>
      </trkpt>
      <trkpt lat="47.26886" lon="-2.21427">
        <ele>17</ele>
        <time>2021-05-23T13:15:57.982Z</time>
      </trkpt>
      <trkpt lat="47.26886" lon="-2.21425">
        <ele>17</ele>
        <time>2021-05-23T13:15:58.982Z</time>
      </trkpt>
      <trkpt lat="47.26886" lon="-2.2142">
        <ele>16</ele>
        <time>2021-05-23T13:15:59.982Z</time>
      </trkpt>
      <trkpt lat="47.26886" lon="-2.2142">
        <ele>16</ele>
        <time>2021-05-23T13:16:00.982Z</time>
      </trkpt>
      <trkpt lat="47.26886" lon="-2.21417">
        <ele>15</ele>
        <time>2021-05-23T13:16:01.983Z</time>
      </trkpt>
      <trkpt lat="47.26887" lon="-2.21414">
        <ele>15</ele>
        <time>2021-05-23T13:16:02.983Z</time>
      </trkpt>
      <trkpt lat="47.26888" lon="-2.21408">
        <ele>14</ele>
        <time>2021-05-23T13:16:03.982Z</time>
      </trkpt>
      <trkpt lat="47.26889" lon="-2.21405">
        <ele>14</ele>
        <time>2021-05-23T13:16:04.983Z</time>
      </trkpt>
      <trkpt lat="47.26889" lon="-2.214">
        <ele>14</ele>
        <time>2021-05-23T13:16:05.982Z</time>
      </trkpt>
      <trkpt lat="47.2689" lon="-2.21397">
        <ele>14</ele>
        <time>2021-05-23T13:16:06.982Z</time>
      </trkpt>
      <trkpt lat="47.26891" lon="-2.21393">
        <ele>14</ele>
        <time>2021-05-23T13:16:07.982Z</time>
      </trkpt>
      <trkpt lat="47.26891" lon="-2.21389">
        <ele>13</ele>
        <time>2021-05-23T13:16:08.983Z</time>
      </trkpt>
      <trkpt lat="47.26891" lon="-2.21389">
        <ele>13</ele>
        <time>2021-05-23T13:16:09.982Z</time>
      </trkpt>
      <trkpt lat="47.26893" lon="-2.21381">
        <ele>13</ele>
        <time>2021-05-23T13:16:10.982Z</time>
      </trkpt>
      <trkpt lat="47.26894" lon="-2.21377">
        <ele>13</ele>
        <time>2021-05-23T13:16:11.982Z</time>
      </trkpt>
      <trkpt lat="47.26895" lon="-2.21374">
        <ele>13</ele>
        <time>2021-05-23T13:16:12.982Z</time>
      </trkpt>
      <trkpt lat="47.26896" lon="-2.2137">
        <ele>13</ele>
        <time>2021-05-23T13:16:13.983Z</time>
      </trkpt>
      <trkpt lat="47.26897" lon="-2.21366">
        <ele>13</ele>
        <time>2021-05-23T13:16:14.982Z</time>
      </trkpt>
      <trkpt lat="47.26897" lon="-2.21364">
        <ele>13</ele>
        <time>2021-05-23T13:16:15.983Z</time>
      </trkpt>
      <trkpt lat="47.26897" lon="-2.21364">
        <ele>13</ele>
        <time>2021-05-23T13:16:16.982Z</time>
      </trkpt>
      <trkpt lat="47.26898" lon="-2.2136">
        <ele>13</ele>
        <time>2021-05-23T13:16:17.982Z</time>
      </trkpt>
      <trkpt lat="47.26899" lon="-2.21357">
        <ele>13</ele>
        <time>2021-05-23T13:16:18.982Z</time>
      </trkpt>
      <trkpt lat="47.26899" lon="-2.21354">
        <ele>13</ele>
        <time>2021-05-23T13:16:19.983Z</time>
      </trkpt>
      <trkpt lat="47.26899" lon="-2.21354">
        <ele>13</ele>
        <time>2021-05-23T13:16:20.982Z</time>
      </trkpt>
      <trkpt lat="47.269" lon="-2.21348">
        <ele>13</ele>
        <time>2021-05-23T13:16:21.982Z</time>
      </trkpt>
      <trkpt lat="47.26901" lon="-2.21345">
        <ele>13</ele>
        <time>2021-05-23T13:16:22.982Z</time>
      </trkpt>
      <trkpt lat="47.26901" lon="-2.21342">
        <ele>12</ele>
        <time>2021-05-23T13:16:23.982Z</time>
      </trkpt>
      <trkpt lat="47.26901" lon="-2.21342">
        <ele>12</ele>
        <time>2021-05-23T13:16:24.982Z</time>
      </trkpt>
      <trkpt lat="47.26902" lon="-2.21336">
        <ele>12</ele>
        <time>2021-05-23T13:16:25.982Z</time>
      </trkpt>
      <trkpt lat="47.26902" lon="-2.21332">
        <ele>12</ele>
        <time>2021-05-23T13:16:26.982Z</time>
      </trkpt>
      <trkpt lat="47.26903" lon="-2.21329">
        <ele>12</ele>
        <time>2021-05-23T13:16:27.983Z</time>
      </trkpt>
      <trkpt lat="47.26903" lon="-2.21325">
        <ele>12</ele>
        <time>2021-05-23T13:16:28.982Z</time>
      </trkpt>
      <trkpt lat="47.26904" lon="-2.21322">
        <ele>12</ele>
        <time>2021-05-23T13:16:29.982Z</time>
      </trkpt>
      <trkpt lat="47.26904" lon="-2.21322">
        <ele>12</ele>
        <time>2021-05-23T13:16:30.982Z</time>
      </trkpt>
      <trkpt lat="47.26906" lon="-2.21316">
        <ele>12</ele>
        <time>2021-05-23T13:16:31.982Z</time>
      </trkpt>
      <trkpt lat="47.26907" lon="-2.21313">
        <ele>11</ele>
        <time>2021-05-23T13:16:32.982Z</time>
      </trkpt>
      <trkpt lat="47.26908" lon="-2.2131">
        <ele>11</ele>
        <time>2021-05-23T13:16:33.983Z</time>
      </trkpt>
      <trkpt lat="47.26909" lon="-2.21308">
        <ele>11</ele>
        <time>2021-05-23T13:16:34.982Z</time>
      </trkpt>
      <trkpt lat="47.26909" lon="-2.21305">
        <ele>11</ele>
        <time>2021-05-23T13:16:35.982Z</time>
      </trkpt>
      <trkpt lat="47.2691" lon="-2.21303">
        <ele>10</ele>
        <time>2021-05-23T13:16:36.982Z</time>
      </trkpt>
      <trkpt lat="47.2691" lon="-2.21303">
        <ele>10</ele>
        <time>2021-05-23T13:16:37.982Z</time>
      </trkpt>
      <trkpt lat="47.26911" lon="-2.213">
        <ele>10</ele>
        <time>2021-05-23T13:16:38.983Z</time>
      </trkpt>
      <trkpt lat="47.26913" lon="-2.21294">
        <ele>10</ele>
        <time>2021-05-23T13:16:39.982Z</time>
      </trkpt>
      <trkpt lat="47.26913" lon="-2.21294">
        <ele>10</ele>
        <time>2021-05-23T13:16:40.982Z</time>
      </trkpt>
      <trkpt lat="47.26915" lon="-2.21292">
        <ele>10</ele>
        <time>2021-05-23T13:16:41.982Z</time>
      </trkpt>
      <trkpt lat="47.26916" lon="-2.21289">
        <ele>10</ele>
        <time>2021-05-23T13:16:42.982Z</time>
      </trkpt>
      <trkpt lat="47.26917" lon="-2.21286">
        <ele>10</ele>
        <time>2021-05-23T13:16:43.982Z</time>
      </trkpt>
      <trkpt lat="47.26921" lon="-2.21282">
        <ele>10</ele>
        <time>2021-05-23T13:16:44.982Z</time>
      </trkpt>
      <trkpt lat="47.26923" lon="-2.21281">
        <ele>10</ele>
        <time>2021-05-23T13:16:45.982Z</time>
      </trkpt>
      <trkpt lat="47.26923" lon="-2.21281">
        <ele>10</ele>
        <time>2021-05-23T13:16:46.982Z</time>
      </trkpt>
      <trkpt lat="47.26926" lon="-2.21276">
        <ele>11</ele>
        <time>2021-05-23T13:16:47.982Z</time>
      </trkpt>
      <trkpt lat="47.26926" lon="-2.21276">
        <ele>11</ele>
        <time>2021-05-23T13:16:48.982Z</time>
      </trkpt>
      <trkpt lat="47.26928" lon="-2.21274">
        <ele>11</ele>
        <time>2021-05-23T13:16:49.982Z</time>
      </trkpt>
      <trkpt lat="47.2693" lon="-2.2127">
        <ele>12</ele>
        <time>2021-05-23T13:16:50.983Z</time>
      </trkpt>
      <trkpt lat="47.26932" lon="-2.21268">
        <ele>12</ele>
        <time>2021-05-23T13:16:51.982Z</time>
      </trkpt>
      <trkpt lat="47.26933" lon="-2.21266">
        <ele>12</ele>
        <time>2021-05-23T13:16:52.982Z</time>
      </trkpt>
      <trkpt lat="47.26935" lon="-2.21264">
        <ele>12</ele>
        <time>2021-05-23T13:16:53.983Z</time>
      </trkpt>
      <trkpt lat="47.26935" lon="-2.21264">
        <ele>12</ele>
        <time>2021-05-23T13:16:54.982Z</time>
      </trkpt>
      <trkpt lat="47.26939" lon="-2.21259">
        <ele>12</ele>
        <time>2021-05-23T13:16:55.982Z</time>
      </trkpt>
      <trkpt lat="47.26939" lon="-2.21259">
        <ele>12</ele>
        <time>2021-05-23T13:16:56.983Z</time>
      </trkpt>
      <trkpt lat="47.2694" lon="-2.21258">
        <ele>12</ele>
        <time>2021-05-23T13:16:57.982Z</time>
      </trkpt>
      <trkpt lat="47.26942" lon="-2.21256">
        <ele>12</ele>
        <time>2021-05-23T13:16:58.982Z</time>
      </trkpt>
      <trkpt lat="47.26943" lon="-2.21254">
        <ele>12</ele>
        <time>2021-05-23T13:16:59.982Z</time>
      </trkpt>
      <trkpt lat="47.26945" lon="-2.21252">
        <ele>13</ele>
        <time>2021-05-23T13:17:00.982Z</time>
      </trkpt>
      <trkpt lat="47.26946" lon="-2.2125">
        <ele>13</ele>
        <time>2021-05-23T13:17:01.982Z</time>
      </trkpt>
      <trkpt lat="47.26949" lon="-2.21246">
        <ele>14</ele>
        <time>2021-05-23T13:17:02.982Z</time>
      </trkpt>
      <trkpt lat="47.26949" lon="-2.21246">
        <ele>14</ele>
        <time>2021-05-23T13:17:03.982Z</time>
      </trkpt>
      <trkpt lat="47.2695" lon="-2.21244">
        <ele>14</ele>
        <time>2021-05-23T13:17:04.983Z</time>
      </trkpt>
      <trkpt lat="47.26951" lon="-2.21242">
        <ele>14</ele>
        <time>2021-05-23T13:17:05.982Z</time>
      </trkpt>
      <trkpt lat="47.26953" lon="-2.2124">
        <ele>14</ele>
        <time>2021-05-23T13:17:06.982Z</time>
      </trkpt>
      <trkpt lat="47.26957" lon="-2.21235">
        <ele>14</ele>
        <time>2021-05-23T13:17:07.983Z</time>
      </trkpt>
      <trkpt lat="47.26959" lon="-2.21233">
        <ele>14</ele>
        <time>2021-05-23T13:17:08.982Z</time>
      </trkpt>
      <trkpt lat="47.26962" lon="-2.2123">
        <ele>15</ele>
        <time>2021-05-23T13:17:09.983Z</time>
      </trkpt>
      <trkpt lat="47.26963" lon="-2.21228">
        <ele>16</ele>
        <time>2021-05-23T13:17:10.982Z</time>
      </trkpt>
      <trkpt lat="47.26965" lon="-2.21225">
        <ele>16</ele>
        <time>2021-05-23T13:17:11.983Z</time>
      </trkpt>
      <trkpt lat="47.26965" lon="-2.21225">
        <ele>16</ele>
        <time>2021-05-23T13:17:12.982Z</time>
      </trkpt>
      <trkpt lat="47.26968" lon="-2.21221">
        <ele>18</ele>
        <time>2021-05-23T13:17:13.982Z</time>
      </trkpt>
      <trkpt lat="47.26969" lon="-2.21218">
        <ele>19</ele>
        <time>2021-05-23T13:17:14.983Z</time>
      </trkpt>
      <trkpt lat="47.2697" lon="-2.21217">
        <ele>19</ele>
        <time>2021-05-23T13:17:15.982Z</time>
      </trkpt>
      <trkpt lat="47.26971" lon="-2.21215">
        <ele>20</ele>
        <time>2021-05-23T13:17:16.982Z</time>
      </trkpt>
      <trkpt lat="47.26973" lon="-2.21214">
        <ele>21</ele>
        <time>2021-05-23T13:17:17.982Z</time>
      </trkpt>
      <trkpt lat="47.26973" lon="-2.21214">
        <ele>21</ele>
        <time>2021-05-23T13:17:18.983Z</time>
      </trkpt>
      <trkpt lat="47.26974" lon="-2.21212">
        <ele>22</ele>
        <time>2021-05-23T13:17:19.983Z</time>
      </trkpt>
      <trkpt lat="47.26977" lon="-2.21207">
        <ele>24</ele>
        <time>2021-05-23T13:17:20.983Z</time>
      </trkpt>
      <trkpt lat="47.26977" lon="-2.21207">
        <ele>24</ele>
        <time>2021-05-23T13:17:21.982Z</time>
      </trkpt>
      <trkpt lat="47.2698" lon="-2.21205">
        <ele>25</ele>
        <time>2021-05-23T13:17:22.983Z</time>
      </trkpt>
      <trkpt lat="47.26982" lon="-2.21203">
        <ele>25</ele>
        <time>2021-05-23T13:17:23.982Z</time>
      </trkpt>
      <trkpt lat="47.26986" lon="-2.21198">
        <ele>27</ele>
        <time>2021-05-23T13:17:24.983Z</time>
      </trkpt>
      <trkpt lat="47.26986" lon="-2.21198">
        <ele>27</ele>
        <time>2021-05-23T13:17:25.982Z</time>
      </trkpt>
      <trkpt lat="47.26988" lon="-2.21194">
        <ele>28</ele>
        <time>2021-05-23T13:17:26.982Z</time>
      </trkpt>
      <trkpt lat="47.26988" lon="-2.21194">
        <ele>28</ele>
        <time>2021-05-23T13:17:27.983Z</time>
      </trkpt>
      <trkpt lat="47.2699" lon="-2.21191">
        <ele>28</ele>
        <time>2021-05-23T13:17:28.982Z</time>
      </trkpt>
      <trkpt lat="47.26993" lon="-2.21187">
        <ele>27</ele>
        <time>2021-05-23T13:17:29.983Z</time>
      </trkpt>
      <trkpt lat="47.26993" lon="-2.21187">
        <ele>27</ele>
        <time>2021-05-23T13:17:30.982Z</time>
      </trkpt>
      <trkpt lat="47.26996" lon="-2.21184">
        <ele>27</ele>
        <time>2021-05-23T13:17:31.983Z</time>
      </trkpt>
      <trkpt lat="47.27" lon="-2.21177">
        <ele>27</ele>
        <time>2021-05-23T13:17:32.982Z</time>
      </trkpt>
      <trkpt lat="47.27" lon="-2.21177">
        <ele>27</ele>
        <time>2021-05-23T13:17:33.982Z</time>
      </trkpt>
      <trkpt lat="47.27001" lon="-2.21174">
        <ele>27</ele>
        <time>2021-05-23T13:17:34.982Z</time>
      </trkpt>
      <trkpt lat="47.27004" lon="-2.21168">
        <ele>27</ele>
        <time>2021-05-23T13:17:35.982Z</time>
      </trkpt>
      <trkpt lat="47.27004" lon="-2.21168">
        <ele>27</ele>
        <time>2021-05-23T13:17:36.982Z</time>
      </trkpt>
      <trkpt lat="47.27005" lon="-2.21165">
        <ele>27</ele>
        <time>2021-05-23T13:17:37.982Z</time>
      </trkpt>
      <trkpt lat="47.27007" lon="-2.21161">
        <ele>27</ele>
        <time>2021-05-23T13:17:38.982Z</time>
      </trkpt>
      <trkpt lat="47.27007" lon="-2.21161">
        <ele>27</ele>
        <time>2021-05-23T13:17:39.982Z</time>
      </trkpt>
      <trkpt lat="47.27008" lon="-2.21158">
        <ele>27</ele>
        <time>2021-05-23T13:17:40.982Z</time>
      </trkpt>
      <trkpt lat="47.2701" lon="-2.21155">
        <ele>27</ele>
        <time>2021-05-23T13:17:41.983Z</time>
      </trkpt>
      <trkpt lat="47.27012" lon="-2.21151">
        <ele>27</ele>
        <time>2021-05-23T13:17:42.982Z</time>
      </trkpt>
      <trkpt lat="47.27013" lon="-2.21148">
        <ele>26</ele>
        <time>2021-05-23T13:17:43.982Z</time>
      </trkpt>
      <trkpt lat="47.27017" lon="-2.21142">
        <ele>26</ele>
        <time>2021-05-23T13:17:44.982Z</time>
      </trkpt>
      <trkpt lat="47.27017" lon="-2.21142">
        <ele>26</ele>
        <time>2021-05-23T13:17:45.982Z</time>
      </trkpt>
      <trkpt lat="47.27018" lon="-2.21138">
        <ele>26</ele>
        <time>2021-05-23T13:17:46.982Z</time>
      </trkpt>
      <trkpt lat="47.2702" lon="-2.21135">
        <ele>27</ele>
        <time>2021-05-23T13:17:47.983Z</time>
      </trkpt>
      <trkpt lat="47.27021" lon="-2.21132">
        <ele>27</ele>
        <time>2021-05-23T13:17:48.983Z</time>
      </trkpt>
      <trkpt lat="47.27022" lon="-2.21128">
        <ele>27</ele>
        <time>2021-05-23T13:17:49.982Z</time>
      </trkpt>
      <trkpt lat="47.27023" lon="-2.21125">
        <ele>27</ele>
        <time>2021-05-23T13:17:50.982Z</time>
      </trkpt>
      <trkpt lat="47.27024" lon="-2.21122">
        <ele>27</ele>
        <time>2021-05-23T13:17:51.982Z</time>
      </trkpt>
      <trkpt lat="47.27025" lon="-2.21119">
        <ele>27</ele>
        <time>2021-05-23T13:17:52.982Z</time>
      </trkpt>
      <trkpt lat="47.27027" lon="-2.21115">
        <ele>27</ele>
        <time>2021-05-23T13:17:53.982Z</time>
      </trkpt>
      <trkpt lat="47.27028" lon="-2.21109">
        <ele>26</ele>
        <time>2021-05-23T13:17:54.982Z</time>
      </trkpt>
      <trkpt lat="47.27028" lon="-2.21109">
        <ele>26</ele>
        <time>2021-05-23T13:17:55.982Z</time>
      </trkpt>
      <trkpt lat="47.27029" lon="-2.21106">
        <ele>26</ele>
        <time>2021-05-23T13:17:56.982Z</time>
      </trkpt>
      <trkpt lat="47.2703" lon="-2.21104">
        <ele>26</ele>
        <time>2021-05-23T13:17:57.982Z</time>
      </trkpt>
      <trkpt lat="47.27031" lon="-2.21101">
        <ele>26</ele>
        <time>2021-05-23T13:17:58.982Z</time>
      </trkpt>
      <trkpt lat="47.27033" lon="-2.21099">
        <ele>26</ele>
        <time>2021-05-23T13:17:59.982Z</time>
      </trkpt>
      <trkpt lat="47.27033" lon="-2.21097">
        <ele>26</ele>
        <time>2021-05-23T13:18:00.982Z</time>
      </trkpt>
      <trkpt lat="47.27034" lon="-2.21094">
        <ele>26</ele>
        <time>2021-05-23T13:18:01.982Z</time>
      </trkpt>
      <trkpt lat="47.27035" lon="-2.21091">
        <ele>25</ele>
        <time>2021-05-23T13:18:02.982Z</time>
      </trkpt>
      <trkpt lat="47.27036" lon="-2.21087">
        <ele>25</ele>
        <time>2021-05-23T13:18:03.982Z</time>
      </trkpt>
      <trkpt lat="47.27037" lon="-2.21084">
        <ele>25</ele>
        <time>2021-05-23T13:18:04.983Z</time>
      </trkpt>
      <trkpt lat="47.27038" lon="-2.21081">
        <ele>25</ele>
        <time>2021-05-23T13:18:05.982Z</time>
      </trkpt>
      <trkpt lat="47.27039" lon="-2.21078">
        <ele>24</ele>
        <time>2021-05-23T13:18:06.982Z</time>
      </trkpt>
      <trkpt lat="47.2704" lon="-2.21076">
        <ele>24</ele>
        <time>2021-05-23T13:18:07.982Z</time>
      </trkpt>
      <trkpt lat="47.27041" lon="-2.21072">
        <ele>24</ele>
        <time>2021-05-23T13:18:08.982Z</time>
      </trkpt>
      <trkpt lat="47.27042" lon="-2.21069">
        <ele>23</ele>
        <time>2021-05-23T13:18:09.982Z</time>
      </trkpt>
      <trkpt lat="47.27043" lon="-2.21067">
        <ele>23</ele>
        <time>2021-05-23T13:18:10.982Z</time>
      </trkpt>
      <trkpt lat="47.27043" lon="-2.21064">
        <ele>23</ele>
        <time>2021-05-23T13:18:11.982Z</time>
      </trkpt>
      <trkpt lat="47.27043" lon="-2.21061">
        <ele>22</ele>
        <time>2021-05-23T13:18:12.982Z</time>
      </trkpt>
      <trkpt lat="47.27043" lon="-2.21058">
        <ele>22</ele>
        <time>2021-05-23T13:18:13.983Z</time>
      </trkpt>
      <trkpt lat="47.27045" lon="-2.21054">
        <ele>22</ele>
        <time>2021-05-23T13:18:14.983Z</time>
      </trkpt>
      <trkpt lat="47.27046" lon="-2.21051">
        <ele>21</ele>
        <time>2021-05-23T13:18:15.982Z</time>
      </trkpt>
      <trkpt lat="47.27048" lon="-2.21048">
        <ele>21</ele>
        <time>2021-05-23T13:18:16.982Z</time>
      </trkpt>
      <trkpt lat="47.2705" lon="-2.21045">
        <ele>21</ele>
        <time>2021-05-23T13:18:17.982Z</time>
      </trkpt>
      <trkpt lat="47.2705" lon="-2.21042">
        <ele>20</ele>
        <time>2021-05-23T13:18:18.983Z</time>
      </trkpt>
      <trkpt lat="47.27051" lon="-2.21038">
        <ele>20</ele>
        <time>2021-05-23T13:18:19.982Z</time>
      </trkpt>
      <trkpt lat="47.27052" lon="-2.21035">
        <ele>20</ele>
        <time>2021-05-23T13:18:20.982Z</time>
      </trkpt>
      <trkpt lat="47.27053" lon="-2.21032">
        <ele>21</ele>
        <time>2021-05-23T13:18:21.983Z</time>
      </trkpt>
      <trkpt lat="47.27054" lon="-2.21029">
        <ele>21</ele>
        <time>2021-05-23T13:18:22.982Z</time>
      </trkpt>
      <trkpt lat="47.27056" lon="-2.21027">
        <ele>21</ele>
        <time>2021-05-23T13:18:23.982Z</time>
      </trkpt>
      <trkpt lat="47.27057" lon="-2.21023">
        <ele>21</ele>
        <time>2021-05-23T13:18:24.982Z</time>
      </trkpt>
      <trkpt lat="47.27058" lon="-2.2102">
        <ele>21</ele>
        <time>2021-05-23T13:18:25.982Z</time>
      </trkpt>
      <trkpt lat="47.27059" lon="-2.21017">
        <ele>21</ele>
        <time>2021-05-23T13:18:26.982Z</time>
      </trkpt>
      <trkpt lat="47.2706" lon="-2.21014">
        <ele>21</ele>
        <time>2021-05-23T13:18:27.982Z</time>
      </trkpt>
      <trkpt lat="47.27061" lon="-2.21011">
        <ele>21</ele>
        <time>2021-05-23T13:18:28.983Z</time>
      </trkpt>
      <trkpt lat="47.27062" lon="-2.21008">
        <ele>21</ele>
        <time>2021-05-23T13:18:29.982Z</time>
      </trkpt>
      <trkpt lat="47.27063" lon="-2.21005">
        <ele>20</ele>
        <time>2021-05-23T13:18:30.982Z</time>
      </trkpt>
      <trkpt lat="47.27064" lon="-2.21003">
        <ele>20</ele>
        <time>2021-05-23T13:18:31.982Z</time>
      </trkpt>
      <trkpt lat="47.27065" lon="-2.21001">
        <ele>20</ele>
        <time>2021-05-23T13:18:32.983Z</time>
      </trkpt>
      <trkpt lat="47.27066" lon="-2.20998">
        <ele>19</ele>
        <time>2021-05-23T13:18:33.982Z</time>
      </trkpt>
      <trkpt lat="47.27067" lon="-2.20995">
        <ele>19</ele>
        <time>2021-05-23T13:18:34.983Z</time>
      </trkpt>
      <trkpt lat="47.27069" lon="-2.20992">
        <ele>19</ele>
        <time>2021-05-23T13:18:35.982Z</time>
      </trkpt>
      <trkpt lat="47.2707" lon="-2.20989">
        <ele>19</ele>
        <time>2021-05-23T13:18:36.982Z</time>
      </trkpt>
      <trkpt lat="47.27072" lon="-2.20985">
        <ele>19</ele>
        <time>2021-05-23T13:18:37.982Z</time>
      </trkpt>
      <trkpt lat="47.27073" lon="-2.20983">
        <ele>20</ele>
        <time>2021-05-23T13:18:38.982Z</time>
      </trkpt>
      <trkpt lat="47.27075" lon="-2.2098">
        <ele>20</ele>
        <time>2021-05-23T13:18:39.983Z</time>
      </trkpt>
      <trkpt lat="47.27076" lon="-2.20977">
        <ele>20</ele>
        <time>2021-05-23T13:18:40.982Z</time>
      </trkpt>
      <trkpt lat="47.27077" lon="-2.20975">
        <ele>21</ele>
        <time>2021-05-23T13:18:41.983Z</time>
      </trkpt>
      <trkpt lat="47.27078" lon="-2.20972">
        <ele>21</ele>
        <time>2021-05-23T13:18:42.982Z</time>
      </trkpt>
      <trkpt lat="47.27079" lon="-2.20968">
        <ele>21</ele>
        <time>2021-05-23T13:18:43.983Z</time>
      </trkpt>
      <trkpt lat="47.2708" lon="-2.20965">
        <ele>21</ele>
        <time>2021-05-23T13:18:44.982Z</time>
      </trkpt>
      <trkpt lat="47.27081" lon="-2.20963">
        <ele>21</ele>
        <time>2021-05-23T13:18:45.982Z</time>
      </trkpt>
      <trkpt lat="47.27082" lon="-2.2096">
        <ele>20</ele>
        <time>2021-05-23T13:18:46.982Z</time>
      </trkpt>
      <trkpt lat="47.27083" lon="-2.20958">
        <ele>20</ele>
        <time>2021-05-23T13:18:47.982Z</time>
      </trkpt>
      <trkpt lat="47.27084" lon="-2.20956">
        <ele>20</ele>
        <time>2021-05-23T13:18:48.982Z</time>
      </trkpt>
      <trkpt lat="47.27084" lon="-2.20953">
        <ele>21</ele>
        <time>2021-05-23T13:18:49.982Z</time>
      </trkpt>
      <trkpt lat="47.27085" lon="-2.20951">
        <ele>21</ele>
        <time>2021-05-23T13:18:50.983Z</time>
      </trkpt>
      <trkpt lat="47.27086" lon="-2.20948">
        <ele>21</ele>
        <time>2021-05-23T13:18:51.982Z</time>
      </trkpt>
      <trkpt lat="47.27086" lon="-2.20946">
        <ele>20</ele>
        <time>2021-05-23T13:18:52.982Z</time>
      </trkpt>
      <trkpt lat="47.27086" lon="-2.20941">
        <ele>20</ele>
        <time>2021-05-23T13:18:53.982Z</time>
      </trkpt>
      <trkpt lat="47.27086" lon="-2.20938">
        <ele>20</ele>
        <time>2021-05-23T13:18:54.983Z</time>
      </trkpt>
      <trkpt lat="47.27086" lon="-2.20935">
        <ele>20</ele>
        <time>2021-05-23T13:18:55.982Z</time>
      </trkpt>
      <trkpt lat="47.27088" lon="-2.20931">
        <ele>19</ele>
        <time>2021-05-23T13:18:56.982Z</time>
      </trkpt>
      <trkpt lat="47.27089" lon="-2.20927">
        <ele>19</ele>
        <time>2021-05-23T13:18:57.982Z</time>
      </trkpt>
      <trkpt lat="47.27091" lon="-2.20924">
        <ele>19</ele>
        <time>2021-05-23T13:18:58.983Z</time>
      </trkpt>
      <trkpt lat="47.27093" lon="-2.20921">
        <ele>19</ele>
        <time>2021-05-23T13:18:59.982Z</time>
      </trkpt>
      <trkpt lat="47.27093" lon="-2.20919">
        <ele>19</ele>
        <time>2021-05-23T13:19:00.982Z</time>
      </trkpt>
      <trkpt lat="47.27095" lon="-2.20916">
        <ele>19</ele>
        <time>2021-05-23T13:19:01.983Z</time>
      </trkpt>
      <trkpt lat="47.27096" lon="-2.20914">
        <ele>19</ele>
        <time>2021-05-23T13:19:02.982Z</time>
      </trkpt>
      <trkpt lat="47.27097" lon="-2.20911">
        <ele>19</ele>
        <time>2021-05-23T13:19:03.983Z</time>
      </trkpt>
      <trkpt lat="47.27098" lon="-2.20908">
        <ele>19</ele>
        <time>2021-05-23T13:19:04.982Z</time>
      </trkpt>
      <trkpt lat="47.271" lon="-2.20905">
        <ele>20</ele>
        <time>2021-05-23T13:19:05.982Z</time>
      </trkpt>
      <trkpt lat="47.27101" lon="-2.20902">
        <ele>20</ele>
        <time>2021-05-23T13:19:06.982Z</time>
      </trkpt>
      <trkpt lat="47.27102" lon="-2.20898">
        <ele>20</ele>
        <time>2021-05-23T13:19:07.982Z</time>
      </trkpt>
      <trkpt lat="47.27102" lon="-2.20895">
        <ele>19</ele>
        <time>2021-05-23T13:19:08.982Z</time>
      </trkpt>
      <trkpt lat="47.27103" lon="-2.20891">
        <ele>19</ele>
        <time>2021-05-23T13:19:09.982Z</time>
      </trkpt>
      <trkpt lat="47.27103" lon="-2.2089">
        <ele>19</ele>
        <time>2021-05-23T13:19:10.982Z</time>
      </trkpt>
      <trkpt lat="47.27104" lon="-2.20886">
        <ele>18</ele>
        <time>2021-05-23T13:19:11.982Z</time>
      </trkpt>
      <trkpt lat="47.27106" lon="-2.20882">
        <ele>18</ele>
        <time>2021-05-23T13:19:12.982Z</time>
      </trkpt>
      <trkpt lat="47.27107" lon="-2.20879">
        <ele>17</ele>
        <time>2021-05-23T13:19:13.982Z</time>
      </trkpt>
      <trkpt lat="47.27108" lon="-2.20876">
        <ele>17</ele>
        <time>2021-05-23T13:19:14.982Z</time>
      </trkpt>
      <trkpt lat="47.27109" lon="-2.20873">
        <ele>16</ele>
        <time>2021-05-23T13:19:15.982Z</time>
      </trkpt>
      <trkpt lat="47.27109" lon="-2.2087">
        <ele>15</ele>
        <time>2021-05-23T13:19:16.982Z</time>
      </trkpt>
      <trkpt lat="47.27109" lon="-2.20867">
        <ele>15</ele>
        <time>2021-05-23T13:19:17.982Z</time>
      </trkpt>
      <trkpt lat="47.2711" lon="-2.20864">
        <ele>15</ele>
        <time>2021-05-23T13:19:18.982Z</time>
      </trkpt>
      <trkpt lat="47.2711" lon="-2.20861">
        <ele>14</ele>
        <time>2021-05-23T13:19:19.982Z</time>
      </trkpt>
      <trkpt lat="47.27111" lon="-2.20858">
        <ele>14</ele>
        <time>2021-05-23T13:19:20.982Z</time>
      </trkpt>
      <trkpt lat="47.27112" lon="-2.20854">
        <ele>14</ele>
        <time>2021-05-23T13:19:21.983Z</time>
      </trkpt>
      <trkpt lat="47.27113" lon="-2.2085">
        <ele>14</ele>
        <time>2021-05-23T13:19:22.982Z</time>
      </trkpt>
      <trkpt lat="47.27113" lon="-2.20847">
        <ele>14</ele>
        <time>2021-05-23T13:19:23.982Z</time>
      </trkpt>
      <trkpt lat="47.27114" lon="-2.20844">
        <ele>14</ele>
        <time>2021-05-23T13:19:24.982Z</time>
      </trkpt>
      <trkpt lat="47.27114" lon="-2.2084">
        <ele>14</ele>
        <time>2021-05-23T13:19:25.982Z</time>
      </trkpt>
      <trkpt lat="47.27115" lon="-2.20837">
        <ele>13</ele>
        <time>2021-05-23T13:19:26.982Z</time>
      </trkpt>
      <trkpt lat="47.27115" lon="-2.20834">
        <ele>13</ele>
        <time>2021-05-23T13:19:27.982Z</time>
      </trkpt>
      <trkpt lat="47.27116" lon="-2.20831">
        <ele>13</ele>
        <time>2021-05-23T13:19:28.982Z</time>
      </trkpt>
      <trkpt lat="47.27116" lon="-2.20828">
        <ele>13</ele>
        <time>2021-05-23T13:19:29.982Z</time>
      </trkpt>
      <trkpt lat="47.27116" lon="-2.20825">
        <ele>14</ele>
        <time>2021-05-23T13:19:30.983Z</time>
      </trkpt>
      <trkpt lat="47.27117" lon="-2.20822">
        <ele>14</ele>
        <time>2021-05-23T13:19:31.982Z</time>
      </trkpt>
      <trkpt lat="47.27117" lon="-2.2082">
        <ele>14</ele>
        <time>2021-05-23T13:19:32.982Z</time>
      </trkpt>
      <trkpt lat="47.27117" lon="-2.20818">
        <ele>14</ele>
        <time>2021-05-23T13:19:33.982Z</time>
      </trkpt>
      <trkpt lat="47.27118" lon="-2.20815">
        <ele>14</ele>
        <time>2021-05-23T13:19:34.982Z</time>
      </trkpt>
      <trkpt lat="47.27119" lon="-2.20812">
        <ele>13</ele>
        <time>2021-05-23T13:19:35.983Z</time>
      </trkpt>
      <trkpt lat="47.2712" lon="-2.20809">
        <ele>13</ele>
        <time>2021-05-23T13:19:36.982Z</time>
      </trkpt>
      <trkpt lat="47.27121" lon="-2.20805">
        <ele>13</ele>
        <time>2021-05-23T13:19:37.982Z</time>
      </trkpt>
      <trkpt lat="47.27122" lon="-2.20801">
        <ele>14</ele>
        <time>2021-05-23T13:19:38.983Z</time>
      </trkpt>
      <trkpt lat="47.27122" lon="-2.20797">
        <ele>14</ele>
        <time>2021-05-23T13:19:39.982Z</time>
      </trkpt>
      <trkpt lat="47.27122" lon="-2.20793">
        <ele>14</ele>
        <time>2021-05-23T13:19:40.982Z</time>
      </trkpt>
      <trkpt lat="47.27123" lon="-2.20789">
        <ele>14</ele>
        <time>2021-05-23T13:19:41.982Z</time>
      </trkpt>
      <trkpt lat="47.27124" lon="-2.20786">
        <ele>14</ele>
        <time>2021-05-23T13:19:42.982Z</time>
      </trkpt>
      <trkpt lat="47.27124" lon="-2.20782">
        <ele>14</ele>
        <time>2021-05-23T13:19:43.982Z</time>
      </trkpt>
      <trkpt lat="47.27125" lon="-2.20779">
        <ele>14</ele>
        <time>2021-05-23T13:19:44.982Z</time>
      </trkpt>
      <trkpt lat="47.27125" lon="-2.20775">
        <ele>14</ele>
        <time>2021-05-23T13:19:45.982Z</time>
      </trkpt>
      <trkpt lat="47.27126" lon="-2.20771">
        <ele>14</ele>
        <time>2021-05-23T13:19:46.983Z</time>
      </trkpt>
      <trkpt lat="47.27126" lon="-2.20768">
        <ele>14</ele>
        <time>2021-05-23T13:19:47.983Z</time>
      </trkpt>
      <trkpt lat="47.27127" lon="-2.20764">
        <ele>14</ele>
        <time>2021-05-23T13:19:48.982Z</time>
      </trkpt>
      <trkpt lat="47.27127" lon="-2.20761">
        <ele>14</ele>
        <time>2021-05-23T13:19:49.982Z</time>
      </trkpt>
      <trkpt lat="47.27128" lon="-2.20757">
        <ele>13</ele>
        <time>2021-05-23T13:19:50.982Z</time>
      </trkpt>
      <trkpt lat="47.27128" lon="-2.20754">
        <ele>13</ele>
        <time>2021-05-23T13:19:51.982Z</time>
      </trkpt>
      <trkpt lat="47.27129" lon="-2.20751">
        <ele>14</ele>
        <time>2021-05-23T13:19:52.983Z</time>
      </trkpt>
      <trkpt lat="47.27129" lon="-2.20748">
        <ele>14</ele>
        <time>2021-05-23T13:19:53.982Z</time>
      </trkpt>
      <trkpt lat="47.2713" lon="-2.20744">
        <ele>14</ele>
        <time>2021-05-23T13:19:54.983Z</time>
      </trkpt>
      <trkpt lat="47.2713" lon="-2.20741">
        <ele>13</ele>
        <time>2021-05-23T13:19:55.982Z</time>
      </trkpt>
      <trkpt lat="47.2713" lon="-2.20738">
        <ele>13</ele>
        <time>2021-05-23T13:19:56.983Z</time>
      </trkpt>
      <trkpt lat="47.2713" lon="-2.20735">
        <ele>13</ele>
        <time>2021-05-23T13:19:57.983Z</time>
      </trkpt>
      <trkpt lat="47.27131" lon="-2.20731">
        <ele>12</ele>
        <time>2021-05-23T13:19:58.982Z</time>
      </trkpt>
      <trkpt lat="47.27131" lon="-2.20728">
        <ele>12</ele>
        <time>2021-05-23T13:19:59.983Z</time>
      </trkpt>
      <trkpt lat="47.27132" lon="-2.20725">
        <ele>11</ele>
        <time>2021-05-23T13:20:00.982Z</time>
      </trkpt>
      <trkpt lat="47.27132" lon="-2.20721">
        <ele>11</ele>
        <time>2021-05-23T13:20:01.983Z</time>
      </trkpt>
      <trkpt lat="47.27133" lon="-2.20718">
        <ele>11</ele>
        <time>2021-05-23T13:20:02.982Z</time>
      </trkpt>
      <trkpt lat="47.27133" lon="-2.20714">
        <ele>11</ele>
        <time>2021-05-23T13:20:03.982Z</time>
      </trkpt>
      <trkpt lat="47.27133" lon="-2.20711">
        <ele>10</ele>
        <time>2021-05-23T13:20:04.982Z</time>
      </trkpt>
      <trkpt lat="47.27133" lon="-2.20707">
        <ele>10</ele>
        <time>2021-05-23T13:20:05.982Z</time>
      </trkpt>
      <trkpt lat="47.27133" lon="-2.20704">
        <ele>10</ele>
        <time>2021-05-23T13:20:06.982Z</time>
      </trkpt>
      <trkpt lat="47.27134" lon="-2.207">
        <ele>10</ele>
        <time>2021-05-23T13:20:07.982Z</time>
      </trkpt>
      <trkpt lat="47.27134" lon="-2.20697">
        <ele>10</ele>
        <time>2021-05-23T13:20:08.982Z</time>
      </trkpt>
      <trkpt lat="47.27134" lon="-2.20693">
        <ele>10</ele>
        <time>2021-05-23T13:20:09.983Z</time>
      </trkpt>
      <trkpt lat="47.27134" lon="-2.2069">
        <ele>10</ele>
        <time>2021-05-23T13:20:10.983Z</time>
      </trkpt>
      <trkpt lat="47.27134" lon="-2.20687">
        <ele>10</ele>
        <time>2021-05-23T13:20:11.982Z</time>
      </trkpt>
      <trkpt lat="47.27134" lon="-2.20684">
        <ele>10</ele>
        <time>2021-05-23T13:20:12.982Z</time>
      </trkpt>
      <trkpt lat="47.27134" lon="-2.20681">
        <ele>9</ele>
        <time>2021-05-23T13:20:13.982Z</time>
      </trkpt>
      <trkpt lat="47.27134" lon="-2.20678">
        <ele>9</ele>
        <time>2021-05-23T13:20:14.982Z</time>
      </trkpt>
      <trkpt lat="47.27135" lon="-2.20674">
        <ele>9</ele>
        <time>2021-05-23T13:20:15.982Z</time>
      </trkpt>
      <trkpt lat="47.27135" lon="-2.2067">
        <ele>9</ele>
        <time>2021-05-23T13:20:16.983Z</time>
      </trkpt>
      <trkpt lat="47.27135" lon="-2.20667">
        <ele>9</ele>
        <time>2021-05-23T13:20:17.982Z</time>
      </trkpt>
      <trkpt lat="47.27134" lon="-2.20665">
        <ele>9</ele>
        <time>2021-05-23T13:20:18.982Z</time>
      </trkpt>
      <trkpt lat="47.27135" lon="-2.20662">
        <ele>10</ele>
        <time>2021-05-23T13:20:19.982Z</time>
      </trkpt>
      <trkpt lat="47.27136" lon="-2.20659">
        <ele>10</ele>
        <time>2021-05-23T13:20:20.982Z</time>
      </trkpt>
      <trkpt lat="47.27137" lon="-2.20655">
        <ele>10</ele>
        <time>2021-05-23T13:20:21.982Z</time>
      </trkpt>
      <trkpt lat="47.27138" lon="-2.20652">
        <ele>10</ele>
        <time>2021-05-23T13:20:22.982Z</time>
      </trkpt>
      <trkpt lat="47.27138" lon="-2.20648">
        <ele>11</ele>
        <time>2021-05-23T13:20:23.982Z</time>
      </trkpt>
      <trkpt lat="47.27139" lon="-2.20645">
        <ele>11</ele>
        <time>2021-05-23T13:20:24.982Z</time>
      </trkpt>
      <trkpt lat="47.27139" lon="-2.20641">
        <ele>11</ele>
        <time>2021-05-23T13:20:25.982Z</time>
      </trkpt>
      <trkpt lat="47.27139" lon="-2.20637">
        <ele>10</ele>
        <time>2021-05-23T13:20:26.983Z</time>
      </trkpt>
      <trkpt lat="47.2714" lon="-2.20634">
        <ele>10</ele>
        <time>2021-05-23T13:20:27.982Z</time>
      </trkpt>
      <trkpt lat="47.2714" lon="-2.20631">
        <ele>10</ele>
        <time>2021-05-23T13:20:28.982Z</time>
      </trkpt>
      <trkpt lat="47.27141" lon="-2.20627">
        <ele>10</ele>
        <time>2021-05-23T13:20:29.982Z</time>
      </trkpt>
      <trkpt lat="47.27141" lon="-2.20624">
        <ele>10</ele>
        <time>2021-05-23T13:20:30.982Z</time>
      </trkpt>
      <trkpt lat="47.27141" lon="-2.20621">
        <ele>9</ele>
        <time>2021-05-23T13:20:31.982Z</time>
      </trkpt>
      <trkpt lat="47.27141" lon="-2.20618">
        <ele>9</ele>
        <time>2021-05-23T13:20:32.982Z</time>
      </trkpt>
      <trkpt lat="47.27141" lon="-2.20614">
        <ele>8</ele>
        <time>2021-05-23T13:20:33.982Z</time>
      </trkpt>
      <trkpt lat="47.27142" lon="-2.20611">
        <ele>8</ele>
        <time>2021-05-23T13:20:34.982Z</time>
      </trkpt>
      <trkpt lat="47.27142" lon="-2.20608">
        <ele>8</ele>
        <time>2021-05-23T13:20:35.982Z</time>
      </trkpt>
      <trkpt lat="47.27142" lon="-2.20605">
        <ele>8</ele>
        <time>2021-05-23T13:20:36.982Z</time>
      </trkpt>
      <trkpt lat="47.27142" lon="-2.20602">
        <ele>8</ele>
        <time>2021-05-23T13:20:37.982Z</time>
      </trkpt>
      <trkpt lat="47.27142" lon="-2.20599">
        <ele>8</ele>
        <time>2021-05-23T13:20:38.982Z</time>
      </trkpt>
      <trkpt lat="47.27143" lon="-2.20596">
        <ele>8</ele>
        <time>2021-05-23T13:20:39.982Z</time>
      </trkpt>
      <trkpt lat="47.27144" lon="-2.20592">
        <ele>8</ele>
        <time>2021-05-23T13:20:40.983Z</time>
      </trkpt>
      <trkpt lat="47.27144" lon="-2.20589">
        <ele>7</ele>
        <time>2021-05-23T13:20:41.982Z</time>
      </trkpt>
      <trkpt lat="47.27145" lon="-2.20585">
        <ele>7</ele>
        <time>2021-05-23T13:20:42.983Z</time>
      </trkpt>
      <trkpt lat="47.27145" lon="-2.20582">
        <ele>7</ele>
        <time>2021-05-23T13:20:43.982Z</time>
      </trkpt>
      <trkpt lat="47.27145" lon="-2.20578">
        <ele>7</ele>
        <time>2021-05-23T13:20:44.982Z</time>
      </trkpt>
      <trkpt lat="47.27144" lon="-2.20575">
        <ele>7</ele>
        <time>2021-05-23T13:20:45.982Z</time>
      </trkpt>
      <trkpt lat="47.27144" lon="-2.20572">
        <ele>7</ele>
        <time>2021-05-23T13:20:46.982Z</time>
      </trkpt>
      <trkpt lat="47.27145" lon="-2.20568">
        <ele>7</ele>
        <time>2021-05-23T13:20:47.982Z</time>
      </trkpt>
      <trkpt lat="47.27146" lon="-2.20565">
        <ele>7</ele>
        <time>2021-05-23T13:20:48.982Z</time>
      </trkpt>
      <trkpt lat="47.27147" lon="-2.20561">
        <ele>8</ele>
        <time>2021-05-23T13:20:49.982Z</time>
      </trkpt>
      <trkpt lat="47.27147" lon="-2.20558">
        <ele>8</ele>
        <time>2021-05-23T13:20:50.982Z</time>
      </trkpt>
      <trkpt lat="47.27147" lon="-2.20555">
        <ele>8</ele>
        <time>2021-05-23T13:20:51.983Z</time>
      </trkpt>
    </trkseg>
  </trk>
</gpx>